/* DATA DESCRIPTION:
Citation:	Vuilleumier, Laurent (2026): Other measurements at 10 m from station Payerne (2022-10) [dataset]. Federal Office of Meteorology and Climatology MeteoSwiss, Payerne, PANGAEA, https://doi.org/10.1594/PANGAEA.992913
Other version:	Vuilleumier, Laurent (2023): BSRN Station-to-archive file for station Payerne (2022-10) [dataset]. ftp://ftp.bsrn.awi.de/pay/pay1022.dat.gz
Project(s):	Baseline Surface Radiation Network (BSRN) (URI: https://bsrn.awi.de/)
Coverage:	LATITUDE: 46.812300 * LONGITUDE: 6.942200
	DATE/TIME START: 2022-10-01T00:00:00 * DATE/TIME END: 2022-10-31T23:59:00
	MINIMUM HEIGHT above ground: 10 m * MAXIMUM HEIGHT above ground: 10 m
Event(s):	PAY (Payerne) * LATITUDE: 46.812300 * LONGITUDE: 6.942200 * DATE/TIME: 1992-09-01T00:00:00 * ELEVATION: 491.0 m * LOCATION: Switzerland * METHOD/DEVICE: Monitoring station (MONS) * COMMENT: BSRN station no: 21; Surface type: cultivated; Topography type: hilly, rural; Horizon: doi:10.1594/PANGAEA.947035; Station scientist: Laurent Vuilleumier (laurent.vuilleumier@meteoswiss.ch)
Parameter(s):	DATE/TIME (Date/Time) * GEOCODE * PI: Vuilleumier, Laurent (https://orcid.org/0000-0003-0222-2566, laurent.vuilleumier@meteoswiss.ch)
	HEIGHT above ground [m] (Height) * GEOCODE * PI: Vuilleumier, Laurent (https://orcid.org/0000-0003-0222-2566, laurent.vuilleumier@meteoswiss.ch)
	Short-wave upward (REFLEX) radiation [W/m**2] (SWU) * PI: Vuilleumier, Laurent (https://orcid.org/0000-0003-0222-2566, laurent.vuilleumier@meteoswiss.ch) * METHOD/DEVICE: Pyranometer, Kipp & Zonen, CM21, SN 041303, WRMC No. 21074
	Short-wave upward (REFLEX) radiation, standard deviation [W/m**2] (SWU std dev) * PI: Vuilleumier, Laurent (https://orcid.org/0000-0003-0222-2566, laurent.vuilleumier@meteoswiss.ch) * METHOD/DEVICE: Pyranometer, Kipp & Zonen, CM21, SN 041303, WRMC No. 21074
	Short-wave upward (REFLEX) radiation, minimum [W/m**2] (SWU min) * PI: Vuilleumier, Laurent (https://orcid.org/0000-0003-0222-2566, laurent.vuilleumier@meteoswiss.ch) * METHOD/DEVICE: Pyranometer, Kipp & Zonen, CM21, SN 041303, WRMC No. 21074
	Short-wave upward (REFLEX) radiation, maximum [W/m**2] (SWU max) * PI: Vuilleumier, Laurent (https://orcid.org/0000-0003-0222-2566, laurent.vuilleumier@meteoswiss.ch) * METHOD/DEVICE: Pyranometer, Kipp & Zonen, CM21, SN 041303, WRMC No. 21074
	Long-wave upward radiation [W/m**2] (LWU) * PI: Vuilleumier, Laurent (https://orcid.org/0000-0003-0222-2566, laurent.vuilleumier@meteoswiss.ch) * METHOD/DEVICE: Pyrgeometer, Eppley, PIR, SN 31964F3, WRMC No. 21089
	Long-wave upward radiation, standard deviation [W/m**2] (LWU std dev) * PI: Vuilleumier, Laurent (https://orcid.org/0000-0003-0222-2566, laurent.vuilleumier@meteoswiss.ch) * METHOD/DEVICE: Pyrgeometer, Eppley, PIR, SN 31964F3, WRMC No. 21089
	Long-wave upward radiation, minimum [W/m**2] (LWU min) * PI: Vuilleumier, Laurent (https://orcid.org/0000-0003-0222-2566, laurent.vuilleumier@meteoswiss.ch) * METHOD/DEVICE: Pyrgeometer, Eppley, PIR, SN 31964F3, WRMC No. 21089
	Long-wave upward radiation, maximum [W/m**2] (LWU max) * PI: Vuilleumier, Laurent (https://orcid.org/0000-0003-0222-2566, laurent.vuilleumier@meteoswiss.ch) * METHOD/DEVICE: Pyrgeometer, Eppley, PIR, SN 31964F3, WRMC No. 21089
	Temperature, air [°C] (TTT) * PI: Vuilleumier, Laurent (https://orcid.org/0000-0003-0222-2566, laurent.vuilleumier@meteoswiss.ch) * METHOD/DEVICE: Thermometer
	Humidity, relative [%] (RH) * PI: Vuilleumier, Laurent (https://orcid.org/0000-0003-0222-2566, laurent.vuilleumier@meteoswiss.ch) * METHOD/DEVICE: Hygrometer (HYGRO)
License:	Baseline Surface Radiation Network License 1.0 (BSRN-1.0) (URI: https://bsrn.awi.de/data/conditions-of-data-release/)
Status:	Curation Level: Enhanced curation (URI: https://wiki.pangaea.de/wiki/Curation_levels)
Size:	437864 data points
*/
Date/Time	Height [m]	SWU [W/m**2]	SWU std dev [W/m**2]	SWU min [W/m**2]	SWU max [W/m**2]	LWU [W/m**2]	LWU std dev [W/m**2]	LWU min [W/m**2]	LWU max [W/m**2]	TTT [°C]	RH [%]
2022-10-01T00:00	10	-4	0.1	-4	-4	340	0.2	339	340	7.4	91.7
2022-10-01T00:01	10	-4	0.1	-4	-4	340	0.2	339	340	7.5	91.7
2022-10-01T00:02	10	-4	0.1	-4	-4	340	0.3	339	340	7.6	91.6
2022-10-01T00:03	10	-4	0.1	-4	-4	340	0.3	339	340	7.6	91.3
2022-10-01T00:04	10	-4	0.1	-4	-4	340	0.2	339	340	7.6	91.2
2022-10-01T00:05	10	-4	0.1	-4	-4	340	0.3	339	340	7.6	91.3
2022-10-01T00:06	10	-4	0.1	-4	-4	340	0.2	339	340	7.6	91.4
2022-10-01T00:07	10	-4	0.1	-4	-4	340	0.3	340	341	7.5	91.6
2022-10-01T00:08	10	-4	0.1	-4	-4	340	0.2	340	341	7.5	91.8
2022-10-01T00:09	10	-4	0.1	-4	-4	340	0.2	340	341	7.4	92.0
2022-10-01T00:10	10	-4	0.1	-4	-4	340	0.5	340	341	7.6	92.3
2022-10-01T00:11	10	-4	0.1	-4	-4	341	0.3	341	342	7.8	92.3
2022-10-01T00:12	10	-4	0.1	-4	-4	341	0.3	340	342	7.5	92.0
2022-10-01T00:13	10	-4	0.1	-4	-4	341	0.2	341	342	7.7	92.3
2022-10-01T00:14	10	-4	0.1	-4	-4	341	0.3	341	342	7.7	92.0
2022-10-01T00:15	10	-4	0.1	-4	-4	341	0.3	340	342	7.6	91.8
2022-10-01T00:16	10	-4	0.1	-4	-3	341	0.3	341	342	7.7	92.0
2022-10-01T00:17	10	-4	0.1	-4	-3	341	0.2	340	342	7.6	92.0
2022-10-01T00:18	10	-4	0.1	-4	-3	341	0.2	341	342	7.6	92.1
2022-10-01T00:19	10	-4	0.1	-4	-3	341	0.2	341	342	7.6	92.2
2022-10-01T00:20	10	-3	0.1	-4	-3	341	0.2	341	342	7.6	92.3
2022-10-01T00:21	10	-3	0.1	-4	-3	341	0.2	341	342	7.6	92.2
2022-10-01T00:22	10	-3	0.1	-4	-3	341	0.2	341	341	7.5	92.4
2022-10-01T00:23	10	-3	0.1	-4	-3	341	0.5	340	342	7.6	92.6
2022-10-01T00:24	10	-3	0.1	-4	-3	340	0.2	340	341	7.5	92.5
2022-10-01T00:25	10	-3	0.1	-4	-3	340	0.2	340	341	7.6	92.6
2022-10-01T00:26	10	-3	0.1	-4	-3	340	0.2	340	341	7.6	92.7
2022-10-01T00:27	10	-3	0.1	-4	-3	341	0.2	340	341	7.7	92.7
2022-10-01T00:28	10	-4	0.1	-4	-3	341	0.3	341	342	7.8	92.3
2022-10-01T00:29	10	-4	0.1	-4	-3	341	0.3	341	342	7.7	92.0
2022-10-01T00:30	10	-4	0.1	-4	-4	341	0.2	341	342	7.7	91.9
2022-10-01T00:31	10	-4	0.1	-4	-3	341	0.2	341	342	7.7	91.9
2022-10-01T00:32	10	-4	0.1	-4	-3	341	0.2	340	341	7.6	91.9
2022-10-01T00:33	10	-4	0.1	-4	-3	341	0.4	340	341	7.7	92.0
2022-10-01T00:34	10	-3	0.1	-4	-3	340	0.3	340	341	7.7	91.8
2022-10-01T00:35	10	-4	0.2	-4	-3	340	0.2	340	341	7.8	91.8
2022-10-01T00:36	10	-3	0.1	-4	-3	340	0.2	340	341	7.7	91.6
2022-10-01T00:37	10	-3	0.1	-4	-3	340	0.2	340	341	7.7	91.8
2022-10-01T00:38	10	-3	0.1	-3	-3	341	0.2	340	341	7.7	91.9
2022-10-01T00:39	10	-3	0.1	-3	-2	341	0.4	341	342	7.8	91.8
2022-10-01T00:40	10	-3	0.1	-3	-3	342	0.3	341	342	7.7	91.7
2022-10-01T00:41	10	-3	0.1	-4	-3	342	0.3	341	342	7.8	91.8
2022-10-01T00:42	10	-3	0.1	-4	-3	342	0.4	341	343	7.8	91.7
2022-10-01T00:43	10	-3	0.1	-4	-3	343	0.3	342	344	7.9	91.7
2022-10-01T00:44	10	-3	0.1	-4	-3	343	0.3	342	344	7.9	91.2
2022-10-01T00:45	10	-4	0.1	-4	-3	343	0.3	343	344	7.9	91.1
2022-10-01T00:46	10	-4	0.1	-4	-3	343	0.2	343	344	7.8	91.0
2022-10-01T00:47	10	-4	0.1	-4	-3	343	0.2	343	344	7.8	91.2
2022-10-01T00:48	10	-4	0.1	-4	-3	343	0.3	343	344	8.1	90.8
2022-10-01T00:49	10	-4	0.1	-4	-3	344	0.4	343	345	8.1	90.4
2022-10-01T00:50	10	-3	0.1	-4	-3	344	0.3	343	345	8.1	90.2
2022-10-01T00:51	10	-3	0.1	-4	-3	344	0.3	343	345	8.0	90.4
2022-10-01T00:52	10	-3	0.1	-4	-3	344	0.3	344	345	8.0	90.3
2022-10-01T00:53	10	-3	0.1	-4	-3	345	0.2	344	345	8.0	90.4
2022-10-01T00:54	10	-3	0.1	-4	-3	345	0.2	344	345	8.0	90.5
2022-10-01T00:55	10	-3	0.2	-4	-2	345	0.2	344	345	8.0	90.7
2022-10-01T00:56	10	-3	0.1	-3	-3	345	0.2	344	346	8.1	90.8
2022-10-01T00:57	10	-3	0.1	-3	-3	345	0.4	344	346	8.2	90.5
2022-10-01T00:58	10	-3	0.1	-3	-3	345	0.4	344	346	8.2	90.1
2022-10-01T00:59	10	-3	0.1	-3	-3	345	0.3	344	346	8.2	89.9
2022-10-01T01:00	10	-3	0.1	-3	-3	345	0.3	345	346	8.2	90.1
2022-10-01T01:01	10	-3	0.2	-3	-3	345	0.3	345	346	8.2	90.0
2022-10-01T01:02	10	-3	0.1	-3	-3	345	0.3	345	346	8.2	89.9
2022-10-01T01:03	10	-3	0.1	-3	-3	346	0.3	345	346	8.2	89.8
2022-10-01T01:04	10	-3	0.1	-3	-3	345	0.3	345	346	8.2	89.8
2022-10-01T01:05	10	-3	0.1	-3	-3	345	0.3	345	346	8.2	89.6
2022-10-01T01:06	10	-3	0.1	-3	-3	346	0.3	345	346	8.3	89.1
2022-10-01T01:07	10	-3	0.1	-3	-3	345	0.3	345	346	8.2	88.9
2022-10-01T01:08	10	-3	0.1	-3	-3	345	0.2	344	345	8.3	88.9
2022-10-01T01:09	10	-3	0.1	-3	-3	345	0.3	344	345	8.2	88.5
2022-10-01T01:10	10	-3	0.1	-3	-3	345	0.3	344	345	8.3	88.4
2022-10-01T01:11	10	-3	0.1	-3	-3	344	0.3	343	345	8.3	88.0
2022-10-01T01:12	10	-3	0.1	-3	-2	344	0.3	344	345	8.2	88.3
2022-10-01T01:13	10	-3	0.1	-3	-3	344	0.3	343	345	8.1	88.6
2022-10-01T01:14	10	-3	0.1	-3	-2	343	0.4	342	344	8.0	88.8
2022-10-01T01:15	10	-3	0.2	-3	-2	343	0.3	342	344	7.8	89.1
2022-10-01T01:16	10	-3	0.1	-3	-3	343	0.2	343	344	7.9	89.6
2022-10-01T01:17	10	-3	0.1	-3	-3	343	0.3	343	344	7.8	89.6
2022-10-01T01:18	10	-3	0.1	-3	-3	343	0.5	342	344	7.8	90.1
2022-10-01T01:19	10	-3	0.1	-3	-2	343	0.2	342	343	7.7	90.3
2022-10-01T01:20	10	-3	0.1	-3	-3	343	0.3	342	343	7.6	90.8
2022-10-01T01:21	10	-3	0.1	-3	-3	343	0.4	342	344	7.6	91.4
2022-10-01T01:22	10	-3	0.1	-3	-3	343	0.4	342	344	7.4	91.9
2022-10-01T01:23	10	-3	0.1	-3	-2	343	0.2	342	343	7.4	92.3
2022-10-01T01:24	10	-3	0.1	-3	-3	342	0.3	341	343	7.3	92.5
2022-10-01T01:25	10	-3	0.1	-3	-3	342	0.3	341	343	7.3	92.9
2022-10-01T01:26	10	-3	0.1	-3	-3	342	0.3	341	342	7.2	93.0
2022-10-01T01:27	10	-3	0.1	-4	-3	341	0.3	340	342	7.1	93.1
2022-10-01T01:28	10	-3	0.1	-4	-3	341	0.2	341	341	7.1	93.6
2022-10-01T01:29	10	-3	0.1	-4	-3	341	0.4	340	342	7.3	93.8
2022-10-01T01:30	10	-4	0.1	-4	-3	342	0.3	341	342	7.2	93.7
2022-10-01T01:31	10	-4	0.1	-4	-3	342	0.4	341	343	7.3	93.8
2022-10-01T01:32	10	-4	0.1	-4	-3	342	0.2	341	342	7.1	93.7
2022-10-01T01:33	10	-4	0.1	-4	-3	342	0.4	341	342	7.1	93.9
2022-10-01T01:34	10	-4	0.1	-4	-3	342	0.3	341	342	7.1	94.1
2022-10-01T01:35	10	-4	0.1	-4	-3	341	0.3	341	342	7.2	94.2
2022-10-01T01:36	10	-4	0.1	-4	-3	342	0.3	341	342	7.3	94.1
2022-10-01T01:37	10	-4	0.1	-4	-4	342	0.2	341	342	7.2	94.0
2022-10-01T01:38	10	-4	0.1	-4	-4	342	0.2	341	342	7.2	94.1
2022-10-01T01:39	10	-4	0.1	-4	-4	342	0.2	341	342	7.2	94.2
2022-10-01T01:40	10	-4	0.1	-4	-4	342	0.3	341	343	7.2	94.2
2022-10-01T01:41	10	-4	0.1	-4	-4	342	0.3	342	343	7.2	94.2
2022-10-01T01:42	10	-4	0.1	-4	-4	342	0.3	342	343	7.3	94.2
2022-10-01T01:43	10	-4	0.1	-4	-4	342	0.3	342	343	7.3	94.1
2022-10-01T01:44	10	-4	0.1	-4	-4	343	0.2	342	343	7.3	94.0
2022-10-01T01:45	10	-4	0.1	-4	-4	342	0.2	342	343	7.2	93.8
2022-10-01T01:46	10	-4	0.1	-4	-4	342	0.3	342	343	7.3	93.9
2022-10-01T01:47	10	-4	0.1	-4	-4	343	0.2	342	343	7.4	94.0
2022-10-01T01:48	10	-4	0.1	-4	-4	342	0.2	342	343	7.3	93.7
2022-10-01T01:49	10	-4	0.2	-4	-3	342	0.3	342	343	7.3	93.7
2022-10-01T01:50	10	-3	0.1	-4	-3	343	0.4	342	344	7.5	93.8
2022-10-01T01:51	10	-3	0.1	-3	-3	343	0.3	342	344	7.5	93.4
2022-10-01T01:52	10	-3	0.1	-3	-3	343	0.3	343	344	7.6	93.4
2022-10-01T01:53	10	-3	0.1	-3	-3	343	0.3	343	344	7.6	93.2
2022-10-01T01:54	10	-3	0.1	-3	-3	343	0.3	343	344	7.6	93.2
2022-10-01T01:55	10	-3	0.1	-3	-3	344	0.2	343	344	7.7	93.2
2022-10-01T01:56	10	-3	0.1	-3	-3	344	0.2	343	344	7.6	92.9
2022-10-01T01:57	10	-3	0.1	-3	-3	343	0.3	343	344	7.7	93.0
2022-10-01T01:58	10	-3	0.1	-3	-3	344	0.3	343	344	7.8	93.0
2022-10-01T01:59	10	-3	0.1	-3	-3	344	0.3	344	345	7.8	92.9
2022-10-01T02:00	10	-3	0.1	-3	-3	345	0.2	344	345	7.8	92.9
2022-10-01T02:01	10	-3	0.1	-3	-3	345	0.3	344	345	7.8	92.8
2022-10-01T02:02	10	-3	0.1	-3	-3	345	0.3	344	346	7.7	92.8
2022-10-01T02:03	10	-3	0.1	-4	-3	344	0.4	343	345	7.6	93.0
2022-10-01T02:04	10	-3	0.1	-3	-3	344	0.2	343	344	7.6	93.2
2022-10-01T02:05	10	-3	0.1	-3	-3	344	0.3	344	345	7.6	93.4
2022-10-01T02:06	10	-3	0.1	-3	-3	345	0.2	344	345	7.7	93.4
2022-10-01T02:07	10	-3	0.1	-3	-3	345	0.3	344	345	7.6	93.4
2022-10-01T02:08	10	-3	0.1	-3	-3	344	0.3	344	345	7.6	93.3
2022-10-01T02:09	10	-3	0.2	-3	-3	344	0.3	344	345	7.5	93.5
2022-10-01T02:10	10	-3	0.1	-3	-2	344	0.3	343	345	7.6	93.6
2022-10-01T02:11	10	-2	0.1	-3	-2	344	0.4	343	345	7.6	93.6
2022-10-01T02:12	10	-2	0.1	-2	-2	345	0.2	344	345	7.7	93.6
2022-10-01T02:13	10	-2	0.1	-3	-2	344	0.2	344	345	7.6	93.4
2022-10-01T02:14	10	-3	0.1	-3	-2	344	0.3	344	345	7.6	93.6
2022-10-01T02:15	10	-3	0.1	-3	-2	344	0.3	343	345	7.6	93.6
2022-10-01T02:16	10	-3	0.1	-3	-3	344	0.3	344	345	7.6	93.5
2022-10-01T02:17	10	-3	0.1	-3	-3	344	0.2	344	344	7.6	93.6
2022-10-01T02:18	10	-3	0.1	-3	-3	344	0.3	344	345	7.5	93.6
2022-10-01T02:19	10	-3	0.1	-3	-3	345	0.3	344	345	7.5	93.7
2022-10-01T02:20	10	-3	0.1	-3	-3	345	0.5	344	346	7.6	93.9
2022-10-01T02:21	10	-3	0.1	-4	-3	345	0.3	345	346	7.7	93.8
2022-10-01T02:22	10	-3	0.1	-4	-3	345	0.3	345	346	7.7	93.6
2022-10-01T02:23	10	-3	0.1	-4	-3	345	0.4	344	346	7.7	93.6
2022-10-01T02:24	10	-3	0.0	-4	-3	345	0.3	344	345	7.7	93.5
2022-10-01T02:25	10	-3	0.1	-3	-3	345	0.4	344	346	7.7	93.5
2022-10-01T02:26	10	-3	0.1	-4	-3	345	0.4	344	346	7.7	93.5
2022-10-01T02:27	10	-3	0.1	-4	-3	345	0.3	344	346	7.8	93.4
2022-10-01T02:28	10	-3	0.1	-4	-3	345	0.3	345	346	7.8	93.3
2022-10-01T02:29	10	-3	0.1	-3	-3	345	0.4	344	346	7.8	93.1
2022-10-01T02:30	10	-3	0.1	-3	-3	346	0.2	345	346	7.9	93.2
2022-10-01T02:31	10	-3	0.1	-3	-3	346	0.3	345	347	8.0	93.1
2022-10-01T02:32	10	-3	0.1	-3	-3	346	0.3	345	346	7.9	92.8
2022-10-01T02:33	10	-3	0.1	-3	-3	346	0.3	345	346	7.9	92.8
2022-10-01T02:34	10	-3	0.1	-3	-3	346	0.3	345	346	7.8	93.0
2022-10-01T02:35	10	-3	0.1	-3	-3	346	0.2	345	346	7.9	93.1
2022-10-01T02:36	10	-3	0.1	-3	-2	346	0.4	345	346	7.8	93.1
2022-10-01T02:37	10	-3	0.1	-3	-3	346	0.3	345	346	7.9	93.1
2022-10-01T02:38	10	-3	0.1	-3	-3	346	0.3	345	347	7.8	93.1
2022-10-01T02:39	10	-3	0.1	-3	-3	346	0.2	345	346	7.9	93.1
2022-10-01T02:40	10	-3	0.1	-3	-3	346	0.3	346	347	7.9	93.0
2022-10-01T02:41	10	-3	0.1	-3	-3	346	0.2	346	347	7.9	92.9
2022-10-01T02:42	10	-3	0.1	-3	-3	346	0.3	345	347	8.0	92.9
2022-10-01T02:43	10	-3	0.1	-3	-3	346	0.2	346	346	7.9	92.8
2022-10-01T02:44	10	-3	0.1	-3	-3	346	0.2	346	347	7.9	92.7
2022-10-01T02:45	10	-3	0.1	-3	-3	346	0.2	346	347	7.9	92.8
2022-10-01T02:46	10	-3	0.1	-3	-3	346	0.3	345	346	7.8	92.8
2022-10-01T02:47	10	-3	0.1	-3	-3	346	0.2	345	346	7.8	93.1
2022-10-01T02:48	10	-3	0.1	-3	-3	346	0.2	345	346	7.9	93.1
2022-10-01T02:49	10	-3	0.1	-3	-2	345	0.3	345	346	7.9	93.0
2022-10-01T02:50	10	-3	0.1	-3	-2	346	0.2	346	346	8.0	93.0
2022-10-01T02:51	10	-3	0.1	-3	-2	346	0.3	345	347	7.9	92.8
2022-10-01T02:52	10	-3	0.1	-3	-2	346	0.3	345	347	8.0	92.8
2022-10-01T02:53	10	-3	0.1	-3	-3	346	0.2	346	347	8.1	92.8
2022-10-01T02:54	10	-3	0.1	-3	-3	346	0.2	346	347	8.0	92.7
2022-10-01T02:55	10	-3	0.1	-3	-3	346	0.3	346	347	8.0	92.6
2022-10-01T02:56	10	-3	0.1	-3	-3	346	0.2	346	347	8.0	92.7
2022-10-01T02:57	10	-3	0.1	-3	-3	346	0.2	346	347	8.0	92.7
2022-10-01T02:58	10	-3	0.1	-3	-3	346	0.3	345	346	8.0	92.7
2022-10-01T02:59	10	-3	0.1	-3	-3	346	0.3	345	346	8.0	92.8
2022-10-01T03:00	10	-3	0.1	-3	-3	346	0.3	345	347	8.0	92.8
2022-10-01T03:01	10	-3	0.1	-3	-3	346	0.3	346	347	8.0	92.8
2022-10-01T03:02	10	-3	0.1	-3	-3	346	0.2	346	347	8.0	92.9
2022-10-01T03:03	10	-3	0.1	-3	-3	346	0.2	346	347	8.1	92.9
2022-10-01T03:04	10	-3	0.1	-3	-3	346	0.3	346	347	8.1	92.8
2022-10-01T03:05	10	-3	0.1	-3	-3	347	0.3	346	347	8.1	92.8
2022-10-01T03:06	10	-3	0.1	-3	-3	347	0.3	346	347	8.1	92.7
2022-10-01T03:07	10	-3	0.1	-3	-3	346	0.3	346	347	8.1	92.7
2022-10-01T03:08	10	-3	0.1	-3	-3	346	0.2	346	347	8.1	92.8
2022-10-01T03:09	10	-3	0.1	-3	-3	346	0.3	346	347	8.1	92.9
2022-10-01T03:10	10	-3	0.1	-3	-3	347	0.4	346	347	8.1	93.0
2022-10-01T03:11	10	-3	0.0	-3	-3	347	0.3	346	347	8.1	93.0
2022-10-01T03:12	10	-3	0.1	-3	-3	347	0.3	346	347	8.2	92.9
2022-10-01T03:13	10	-3	0.1	-3	-3	347	0.3	346	347	8.1	92.8
2022-10-01T03:14	10	-3	0.1	-3	-3	346	0.2	346	347	8.2	92.9
2022-10-01T03:15	10	-3	0.1	-3	-3	347	0.3	346	348	8.2	92.8
2022-10-01T03:16	10	-3	0.0	-3	-3	347	0.3	346	348	8.2	92.8
2022-10-01T03:17	10	-3	0.1	-3	-3	347	0.2	346	347	8.1	92.8
2022-10-01T03:18	10	-3	0.1	-3	-3	347	0.3	346	347	8.2	92.9
2022-10-01T03:19	10	-3	0.1	-3	-3	347	0.3	346	347	8.2	92.8
2022-10-01T03:20	10	-3	0.1	-3	-3	347	0.3	346	347	8.3	92.7
2022-10-01T03:21	10	-3	0.1	-3	-3	347	0.3	346	347	8.3	92.5
2022-10-01T03:22	10	-3	0.1	-3	-3	347	0.3	346	348	8.3	92.6
2022-10-01T03:23	10	-3	0.1	-3	-3	348	0.2	347	348	8.4	92.6
2022-10-01T03:24	10	-3	0.0	-3	-3	348	0.3	347	348	8.4	92.3
2022-10-01T03:25	10	-3	0.0	-3	-3	348	0.2	347	348	8.4	92.2
2022-10-01T03:26	10	-3	0.1	-3	-3	348	0.3	348	349	8.5	92.3
2022-10-01T03:27	10	-3	0.1	-3	-3	348	0.3	347	349	8.5	92.3
2022-10-01T03:28	10	-3	0.1	-3	-3	349	0.2	348	349	8.5	92.1
2022-10-01T03:29	10	-3	0.1	-3	-3	349	0.3	348	350	8.6	92.2
2022-10-01T03:30	10	-3	0.1	-3	-3	349	0.2	349	350	8.7	92.1
2022-10-01T03:31	10	-3	0.1	-3	-2	350	0.4	349	350	8.7	91.8
2022-10-01T03:32	10	-3	0.1	-3	-2	350	0.3	349	351	8.7	91.7
2022-10-01T03:33	10	-3	0.1	-3	-2	350	0.3	349	351	8.7	91.8
2022-10-01T03:34	10	-3	0.1	-3	-2	351	0.4	350	351	8.8	91.7
2022-10-01T03:35	10	-3	0.1	-3	-2	350	0.2	350	351	8.7	91.5
2022-10-01T03:36	10	-3	0.1	-3	-3	351	0.3	350	352	8.7	91.4
2022-10-01T03:37	10	-3	0.1	-3	-2	351	0.4	350	351	8.8	91.4
2022-10-01T03:38	10	-3	0.1	-3	-3	351	0.4	350	351	8.8	91.3
2022-10-01T03:39	10	-3	0.1	-3	-3	351	0.2	350	351	8.7	91.3
2022-10-01T03:40	10	-3	0.1	-3	-3	351	0.2	350	351	8.7	91.4
2022-10-01T03:41	10	-3	0.1	-3	-3	351	0.2	350	351	8.7	91.3
2022-10-01T03:42	10	-3	0.1	-3	-3	351	0.5	350	351	8.7	91.2
2022-10-01T03:43	10	-3	0.1	-3	-3	351	0.3	350	351	8.7	91.3
2022-10-01T03:44	10	-3	0.1	-3	-3	351	0.3	350	351	8.7	91.2
2022-10-01T03:45	10	-3	0.1	-3	-3	351	0.3	350	351	8.7	91.1
2022-10-01T03:46	10	-3	0.1	-3	-3	351	0.3	350	351	8.7	91.1
2022-10-01T03:47	10	-3	0.1	-3	-3	350	0.2	350	351	8.6	91.0
2022-10-01T03:48	10	-3	0.0	-3	-2	350	0.4	350	351	8.6	91.2
2022-10-01T03:49	10	-3	0.1	-3	-3	351	0.3	350	351	8.6	91.3
2022-10-01T03:50	10	-3	0.1	-3	-3	351	0.3	350	351	8.6	91.3
2022-10-01T03:51	10	-3	0.1	-3	-3	351	0.2	350	351	8.6	91.3
2022-10-01T03:52	10	-3	0.1	-3	-3	351	0.3	350	351	8.6	91.3
2022-10-01T03:53	10	-3	0.1	-3	-3	351	0.2	350	351	8.7	91.3
2022-10-01T03:54	10	-3	0.1	-3	-3	351	0.3	350	352	8.7	91.2
2022-10-01T03:55	10	-3	0.1	-3	-2	351	0.3	350	352	8.8	91.1
2022-10-01T03:56	10	-3	0.1	-3	-3	351	0.3	350	352	8.8	91.0
2022-10-01T03:57	10	-3	0.1	-3	-3	351	0.4	350	352	8.8	90.9
2022-10-01T03:58	10	-3	0.1	-3	-3	351	0.3	351	352	8.8	90.7
2022-10-01T03:59	10	-3	0.1	-3	-2	351	0.3	350	352	8.8	90.8
2022-10-01T04:00	10	-3	0.1	-3	-2	351	0.3	351	352	8.8	90.9
2022-10-01T04:01	10	-3	0.1	-3	-2	351	0.4	350	352	8.8	91.0
2022-10-01T04:02	10	-2	0.1	-2	-2	351	0.3	350	351	8.7	91.0
2022-10-01T04:03	10	-2	0.1	-2	-2	351	0.4	350	352	8.8	91.1
2022-10-01T04:04	10	-2	0.1	-2	-2	351	0.4	351	352	8.9	91.0
2022-10-01T04:05	10	-2	0.0	-2	-2	352	0.5	351	353	9.0	90.6
2022-10-01T04:06	10	-2	0.1	-2	-2	352	0.3	351	352	9.0	90.1
2022-10-01T04:07	10	-2	0.1	-3	-2	352	0.3	351	352	9.0	89.9
2022-10-01T04:08	10	-2	0.1	-2	-2	352	0.3	351	353	9.0	90.0
2022-10-01T04:09	10	-2	0.1	-3	-2	352	0.3	351	353	9.1	89.8
2022-10-01T04:10	10	-2	0.1	-2	-2	352	0.3	351	353	9.1	89.7
2022-10-01T04:11	10	-2	0.1	-3	-2	352	0.2	352	353	9.2	89.6
2022-10-01T04:12	10	-2	0.1	-3	-2	352	0.4	351	353	9.2	89.1
2022-10-01T04:13	10	-2	0.1	-2	-2	352	0.3	351	352	9.1	89.1
2022-10-01T04:14	10	-2	0.1	-2	-2	352	0.3	351	353	9.2	89.2
2022-10-01T04:15	10	-2	0.1	-3	-2	352	0.2	352	353	9.2	88.8
2022-10-01T04:16	10	-2	0.1	-3	-2	352	0.2	352	353	9.2	88.8
2022-10-01T04:17	10	-2	0.1	-3	-2	352	0.3	352	353	9.2	88.8
2022-10-01T04:18	10	-2	0.1	-2	-2	352	0.2	352	353	9.1	89.0
2022-10-01T04:19	10	-2	0.1	-2	-2	353	0.3	352	353	9.2	88.8
2022-10-01T04:20	10	-2	0.1	-2	-2	353	0.2	352	353	9.1	88.7
2022-10-01T04:21	10	-2	0.1	-2	-2	353	0.3	352	353	9.3	88.8
2022-10-01T04:22	10	-2	0.1	-2	-2	353	0.2	352	353	9.3	88.3
2022-10-01T04:23	10	-2	0.1	-2	-2	353	0.3	352	353	9.3	88.3
2022-10-01T04:24	10	-2	0.1	-2	-2	353	0.3	352	354	9.3	88.1
2022-10-01T04:25	10	-2	0.1	-2	-2	353	0.3	352	353	9.3	88.0
2022-10-01T04:26	10	-2	0.1	-2	-2	353	0.2	352	353	9.3	88.0
2022-10-01T04:27	10	-2	0.1	-2	-2	353	0.3	353	353	9.4	87.8
2022-10-01T04:28	10	-2	0.1	-2	-2	353	0.4	352	354	9.3	87.8
2022-10-01T04:29	10	-2	0.1	-2	-2	353	0.2	353	354	9.3	87.8
2022-10-01T04:30	10	-2	0.1	-2	-2	353	0.4	352	354	9.2	88.1
2022-10-01T04:31	10	-2	0.1	-2	-2	353	0.2	352	353	9.2	88.3
2022-10-01T04:32	10	-2	0.1	-3	-2	353	0.3	353	354	9.2	88.2
2022-10-01T04:33	10	-2	0.1	-2	-2	353	0.3	353	354	9.3	88.1
2022-10-01T04:34	10	-2	0.1	-2	-2	353	0.2	353	354	9.3	88.1
2022-10-01T04:35	10	-2	0.1	-2	-2	353	0.3	353	354	9.3	87.9
2022-10-01T04:36	10	-2	0.1	-2	-2	353	0.3	353	354	9.4	87.7
2022-10-01T04:37	10	-2	0.1	-2	-2	353	0.3	353	354	9.4	87.4
2022-10-01T04:38	10	-2	0.1	-2	-2	353	0.2	353	354	9.4	87.3
2022-10-01T04:39	10	-2	0.1	-2	-2	353	0.5	352	354	9.4	87.2
2022-10-01T04:40	10	-2	0.1	-2	-2	354	0.3	353	354	9.4	87.0
2022-10-01T04:41	10	-2	0.1	-2	-2	353	0.2	353	354	9.5	86.7
2022-10-01T04:42	10	-2	0.1	-2	-2	354	0.4	353	355	9.5	86.5
2022-10-01T04:43	10	-2	0.1	-2	-2	354	0.3	353	354	9.5	86.5
2022-10-01T04:44	10	-2	0.1	-2	-2	354	0.3	353	354	9.6	86.3
2022-10-01T04:45	10	-2	0.1	-2	-2	354	0.2	353	354	9.5	86.3
2022-10-01T04:46	10	-2	0.1	-2	-2	354	0.3	353	355	9.6	86.0
2022-10-01T04:47	10	-2	0.1	-2	-2	354	0.3	353	355	9.7	85.2
2022-10-01T04:48	10	-2	0.1	-2	-2	354	0.4	353	355	9.6	85.3
2022-10-01T04:49	10	-2	0.1	-2	-2	354	0.5	353	355	9.6	85.4
2022-10-01T04:50	10	-2	0.1	-2	-2	354	0.5	353	355	9.6	85.6
2022-10-01T04:51	10	-2	0.1	-2	-2	354	0.4	354	355	9.7	85.4
2022-10-01T04:52	10	-2	0.1	-2	-2	354	0.3	354	355	9.7	85.2
2022-10-01T04:53	10	-2	0.1	-2	-2	354	0.3	354	355	9.6	85.4
2022-10-01T04:54	10	-2	0.1	-2	-2	354	0.4	354	355	9.7	85.5
2022-10-01T04:55	10	-2	0.1	-2	-2	355	0.3	354	355	9.7	85.2
2022-10-01T04:56	10	-2	0.1	-2	-2	354	0.3	354	355	9.6	85.4
2022-10-01T04:57	10	-2	0.1	-2	-2	355	0.3	354	355	9.6	86.0
2022-10-01T04:58	10	-2	0.1	-2	-2	355	0.2	354	355	9.7	85.7
2022-10-01T04:59	10	-2	0.1	-2	-2	355	0.3	354	356	9.7	85.4
2022-10-01T05:00	10	-2	0.1	-2	-2	355	0.3	354	356	9.8	85.1
2022-10-01T05:01	10	-2	0.1	-2	-2	355	0.2	355	356	9.8	84.9
2022-10-01T05:02	10	-2	0.1	-2	-2	355	0.3	354	356	9.8	84.9
2022-10-01T05:03	10	-2	0.1	-2	-2	355	0.3	354	356	9.8	84.8
2022-10-01T05:04	10	-2	0.1	-2	-2	355	0.3	354	356	9.8	84.7
2022-10-01T05:05	10	-2	0.1	-2	-2	355	0.3	355	356	9.8	84.7
2022-10-01T05:06	10	-2	0.1	-2	-2	355	0.3	354	356	9.9	84.7
2022-10-01T05:07	10	-2	0.1	-2	-2	355	0.3	355	356	9.9	84.4
2022-10-01T05:08	10	-2	0.1	-2	-2	355	0.5	354	356	9.9	84.4
2022-10-01T05:09	10	-2	0.1	-2	-2	355	0.3	355	356	9.9	84.4
2022-10-01T05:10	10	-2	0.1	-2	-2	355	0.3	355	356	9.9	84.2
2022-10-01T05:11	10	-2	0.1	-2	-2	355	0.3	355	356	9.9	84.6
2022-10-01T05:12	10	-2	0.1	-2	-2	356	0.5	354	356	10.0	83.8
2022-10-01T05:13	10	-2	0.1	-2	-2	356	0.2	355	356	10.0	83.6
2022-10-01T05:14	10	-2	0.1	-2	-2	356	0.3	355	356	10.0	83.9
2022-10-01T05:15	10	-2	0.1	-2	-2	355	0.3	355	356	9.9	84.4
2022-10-01T05:16	10	-2	0.1	-2	-2	356	0.4	354	356	9.9	84.7
2022-10-01T05:17	10	-2	0.1	-2	-2	356	0.2	355	356	9.9	84.6
2022-10-01T05:18	10	-2	0.1	-2	-2	356	0.2	355	356	10.0	84.3
2022-10-01T05:19	10	-2	0.1	-2	-2	356	0.2	355	356	10.0	83.8
2022-10-01T05:20	10	-2	0.1	-2	-2	355	0.3	355	356	10.0	83.9
2022-10-01T05:21	10	-2	0.1	-2	-2	355	0.4	355	356	10.0	84.0
2022-10-01T05:22	10	-2	0.1	-2	-2	356	0.5	354	357	10.1	83.7
2022-10-01T05:23	10	-2	0.1	-2	-2	356	0.4	355	357	10.1	83.3
2022-10-01T05:24	10	-2	0.1	-2	-2	356	0.3	355	356	10.1	82.9
2022-10-01T05:25	10	-2	0.1	-2	-2	356	0.3	355	357	10.1	82.8
2022-10-01T05:26	10	-2	0.1	-2	-2	356	0.3	355	357	10.1	82.7
2022-10-01T05:27	10	-2	0.1	-2	-2	356	0.3	356	357	10.1	83.1
2022-10-01T05:28	10	-2	0.1	-2	-2	356	0.2	355	357	10.1	82.9
2022-10-01T05:29	10	-2	0.1	-2	-2	356	0.4	355	357	10.2	82.4
2022-10-01T05:30	10	-2	0.1	-2	-1	356	0.3	356	357	10.2	82.1
2022-10-01T05:31	10	-1	0.1	-1	-1	356	0.3	356	357	10.1	82.7
2022-10-01T05:32	10	-1	0.1	-1	-1	356	0.3	356	357	10.1	82.8
2022-10-01T05:33	10	-1	0.1	-1	-1	356	0.4	355	357	10.1	82.3
2022-10-01T05:34	10	-2	0.1	-2	-1	356	0.3	356	357	10.1	82.9
2022-10-01T05:35	10	-2	0.1	-2	-2	356	0.3	355	357	10.1	82.6
2022-10-01T05:36	10	-2	0.1	-2	-2	356	0.2	356	357	10.1	82.4
2022-10-01T05:37	10	-2	0.1	-2	-2	356	0.3	356	357	10.1	82.4
2022-10-01T05:38	10	-2	0.1	-2	-2	356	0.2	356	357	10.1	82.4
2022-10-01T05:39	10	-2	0.1	-2	-2	356	0.4	356	357	10.2	82.2
2022-10-01T05:40	10	-2	0.1	-2	-2	356	0.3	356	357	10.1	82.5
2022-10-01T05:41	10	-2	0.1	-2	-2	356	0.2	356	357	10.1	82.4
2022-10-01T05:42	10	-2	0.1	-2	-2	356	0.3	356	357	10.2	82.1
2022-10-01T05:43	10	-2	0.1	-2	-2	357	0.3	356	357	10.2	81.9
2022-10-01T05:44	10	-2	0.1	-2	-2	356	0.8	354	357	10.2	81.7
2022-10-01T05:45	10	-2	0.1	-2	-1	357	0.4	356	357	10.2	81.6
2022-10-01T05:46	10	-2	0.1	-2	-1	356	0.3	355	357	10.2	81.7
2022-10-01T05:47	10	-1	0.1	-2	-1	356	0.4	355	357	10.2	81.4
2022-10-01T05:48	10	-2	0.1	-2	-1	356	0.4	356	357	10.2	81.4
2022-10-01T05:49	10	-1	0.1	-2	-1	357	0.3	356	357	10.1	81.8
2022-10-01T05:50	10	-1	0.1	-2	-1	356	0.3	356	357	10.1	82.0
2022-10-01T05:51	10	-1	0.1	-2	-1	357	0.3	356	357	10.1	81.8
2022-10-01T05:52	10	-1	0.1	-1	-1	357	0.2	356	357	10.2	81.4
2022-10-01T05:53	10	-1	0.1	-1	-1	357	0.3	356	357	10.2	81.2
2022-10-01T05:54	10	-1	0.1	-1	-1	356	0.2	356	357	10.2	81.0
2022-10-01T05:55	10	-1	0.1	-1	-1	356	0.3	355	357	10.1	81.5
2022-10-01T05:56	10	-1	0.1	-1	-1	356	0.4	355	357	10.0	82.3
2022-10-01T05:57	10	-1	0.1	-1	-1	356	0.3	356	357	10.1	82.3
2022-10-01T05:58	10	-1	0.1	-1	-1	357	0.3	356	357	10.1	82.0
2022-10-01T05:59	10	-1	0.1	-1	-1	356	0.3	356	357	10.1	82.0
2022-10-01T06:00	10	-1	0.1	-1	0	356	0.3	356	357	10.0	82.6
2022-10-01T06:01	10	0	0.1	-1	0	357	0.4	355	357	10.1	81.9
2022-10-01T06:02	10	0	0.1	0	0	356	0.3	356	357	10.1	81.7
2022-10-01T06:03	10	0	0.1	0	0	357	0.4	356	357	10.2	81.6
2022-10-01T06:04	10	0	0.1	0	0	357	0.3	356	357	10.2	81.3
2022-10-01T06:05	10	0	0.1	0	0	357	0.4	356	357	10.2	81.1
2022-10-01T06:06	10	0	0.1	0	0	357	0.4	356	357	10.2	81.0
2022-10-01T06:07	10	0	0.1	0	0	357	0.6	355	357	10.2	81.2
2022-10-01T06:08	10	0	0.1	0	0	357	0.5	356	358	10.2	80.8
2022-10-01T06:09	10	0	0.1	0	1	357	0.5	355	357	10.3	80.3
2022-10-01T06:10	10	0	0.1	0	1	357	0.5	356	358	10.3	80.5
2022-10-01T06:11	10	0	0.1	0	1	357	0.3	356	358	10.3	80.7
2022-10-01T06:12	10	1	0.1	0	1	357	0.2	356	357	10.3	80.8
2022-10-01T06:13	10	1	0.1	0	1	357	0.3	356	358	10.2	81.2
2022-10-01T06:14	10	1	0.1	0	1	357	0.3	356	358	10.4	80.3
2022-10-01T06:15	10	1	0.1	1	1	357	0.3	356	357	10.4	80.1
2022-10-01T06:16	10	1	0.1	1	1	357	0.3	357	358	10.4	80.0
2022-10-01T06:17	10	1	0.1	1	1	357	0.2	357	357	10.4	80.2
2022-10-01T06:18	10	1	0.1	1	1	357	0.3	356	358	10.3	80.8
2022-10-01T06:19	10	1	0.1	1	1	357	0.2	357	358	10.3	81.1
2022-10-01T06:20	10	1	0.0	1	1	357	0.3	357	358	10.3	81.0
2022-10-01T06:21	10	1	0.0	1	1	357	0.2	357	358	10.3	81.2
2022-10-01T06:22	10	1	0.1	1	2	357	0.3	356	358	10.3	81.7
2022-10-01T06:23	10	1	0.1	1	2	357	0.3	356	358	10.2	81.9
2022-10-01T06:24	10	1	0.0	1	2	357	0.3	357	358	10.2	82.1
2022-10-01T06:25	10	2	0.1	1	2	357	0.3	356	358	10.2	82.2
2022-10-01T06:26	10	2	0.1	2	2	357	0.2	357	358	10.2	82.6
2022-10-01T06:27	10	2	0.1	2	2	358	0.2	357	358	10.2	82.5
2022-10-01T06:28	10	2	0.1	2	2	357	0.2	357	358	10.2	82.5
2022-10-01T06:29	10	2	0.1	2	2	358	0.3	357	358	10.2	82.8
2022-10-01T06:30	10	2	0.1	2	3	358	0.2	357	358	10.1	82.7
2022-10-01T06:31	10	3	0.1	2	3	358	0.3	357	358	10.1	83.1
2022-10-01T06:32	10	3	0.1	2	3	358	0.4	357	358	10.1	83.1
2022-10-01T06:33	10	3	0.1	3	3	358	0.2	357	358	10.1	83.1
2022-10-01T06:34	10	3	0.1	3	3	358	0.2	357	358	10.1	83.0
2022-10-01T06:35	10	3	0.1	3	3	358	0.3	357	358	10.1	82.7
2022-10-01T06:36	10	3	0.1	3	3	358	0.2	357	358	10.0	83.4
2022-10-01T06:37	10	3	0.1	3	4	358	0.3	357	358	10.1	83.4
2022-10-01T06:38	10	3	0.1	3	4	358	0.3	357	358	10.1	83.0
2022-10-01T06:39	10	3	0.1	3	4	358	0.2	357	358	10.1	82.9
2022-10-01T06:40	10	4	0.1	3	4	358	0.3	357	359	10.1	82.9
2022-10-01T06:41	10	4	0.1	4	4	358	0.2	358	359	10.1	83.3
2022-10-01T06:42	10	4	0.1	4	4	358	0.2	358	358	10.1	83.2
2022-10-01T06:43	10	4	0.1	4	4	358	0.3	357	359	10.1	83.0
2022-10-01T06:44	10	4	0.1	4	4	358	0.3	358	359	10.1	82.9
2022-10-01T06:45	10	4	0.1	4	4	358	0.2	358	359	10.1	83.2
2022-10-01T06:46	10	4	0.1	4	4	358	0.3	358	359	10.1	83.4
2022-10-01T06:47	10	4	0.1	4	4	358	0.3	358	359	10.1	83.6
2022-10-01T06:48	10	3	0.1	3	4	358	0.3	358	359	10.1	83.4
2022-10-01T06:49	10	3	0.1	3	3	358	0.2	358	359	10.2	83.0
2022-10-01T06:50	10	3	0.1	3	3	358	0.2	358	359	10.1	83.0
2022-10-01T06:51	10	3	0.1	2	3	358	0.2	358	359	10.1	83.1
2022-10-01T06:52	10	3	0.1	2	3	358	0.3	358	359	10.1	83.5
2022-10-01T06:53	10	3	0.1	3	3	358	0.3	358	359	10.1	83.7
2022-10-01T06:54	10	3	0.1	3	4	359	0.3	358	359	10.2	83.6
2022-10-01T06:55	10	3	0.1	3	4	359	0.2	358	359	10.2	83.2
2022-10-01T06:56	10	3	0.1	3	4	359	0.3	358	359	10.2	83.4
2022-10-01T06:57	10	4	0.1	3	4	359	0.2	358	359	10.3	83.2
2022-10-01T06:58	10	4	0.2	3	4	359	0.4	358	360	10.2	83.7
2022-10-01T06:59	10	4	0.2	4	5	359	0.2	359	360	10.2	84.0
2022-10-01T07:00	10	5	0.2	5	6	359	0.4	358	360	10.2	84.1
2022-10-01T07:01	10	5	0.2	5	6	360	0.3	359	360	10.2	84.5
2022-10-01T07:02	10	6	0.2	6	6	360	0.3	359	360	10.2	84.5
2022-10-01T07:03	10	6	0.2	6	7	360	0.3	359	360	10.2	84.4
2022-10-01T07:04	10	6	0.2	6	7	360	0.2	359	361	10.2	84.7
2022-10-01T07:05	10	7	0.2	6	7	360	0.3	359	361	10.2	84.9
2022-10-01T07:06	10	7	0.1	6	7	360	0.3	360	361	10.2	84.9
2022-10-01T07:07	10	7	0.2	6	7	360	0.4	359	361	10.3	84.6
2022-10-01T07:08	10	6	0.1	6	7	360	0.2	360	360	10.3	84.4
2022-10-01T07:09	10	7	0.2	6	7	360	0.2	360	361	10.3	84.6
2022-10-01T07:10	10	7	0.1	6	7	360	0.2	360	361	10.3	84.5
2022-10-01T07:11	10	7	0.1	6	7	360	0.3	359	361	10.2	84.9
2022-10-01T07:12	10	7	0.2	6	7	360	0.2	360	361	10.2	85.0
2022-10-01T07:13	10	6	0.2	6	7	360	0.3	360	361	10.2	85.2
2022-10-01T07:14	10	7	0.1	6	7	360	0.3	360	361	10.2	85.2
2022-10-01T07:15	10	7	0.2	6	7	361	0.2	360	361	10.2	85.0
2022-10-01T07:16	10	7	0.2	7	7	361	0.3	360	361	10.2	85.3
2022-10-01T07:17	10	8	0.2	7	8	361	0.4	360	361	10.2	85.3
2022-10-01T07:18	10	8	0.2	8	9	361	0.3	360	362	10.2	85.4
2022-10-01T07:19	10	9	0.2	8	9	361	0.3	361	362	10.3	84.7
2022-10-01T07:20	10	9	0.2	9	10	361	0.3	361	362	10.3	84.6
2022-10-01T07:21	10	9	0.2	9	10	361	0.2	361	362	10.3	84.4
2022-10-01T07:22	10	10	0.2	10	10	362	0.4	361	362	10.3	84.7
2022-10-01T07:23	10	10	0.2	9	10	362	0.3	361	363	10.2	84.9
2022-10-01T07:24	10	10	0.2	10	11	362	0.5	361	363	10.3	84.4
2022-10-01T07:25	10	10	0.2	10	11	362	0.4	361	362	10.3	83.9
2022-10-01T07:26	10	11	0.2	11	11	362	0.3	361	363	10.3	84.5
2022-10-01T07:27	10	11	0.2	11	12	362	0.4	362	363	10.3	84.5
2022-10-01T07:28	10	12	0.2	12	12	362	0.3	362	363	10.3	84.3
2022-10-01T07:29	10	12	0.1	12	12	362	0.3	362	363	10.3	83.9
2022-10-01T07:30	10	12	0.1	12	13	362	0.2	362	363	10.3	83.9
2022-10-01T07:31	10	12	0.1	12	12	362	0.4	361	363	10.4	83.2
2022-10-01T07:32	10	12	0.1	12	12	362	0.3	361	363	10.4	83.0
2022-10-01T07:33	10	12	0.2	12	13	362	0.3	361	363	10.4	82.9
2022-10-01T07:34	10	13	0.3	13	14	362	0.3	361	363	10.3	83.6
2022-10-01T07:35	10	14	0.3	13	15	362	0.4	361	363	10.4	83.2
2022-10-01T07:36	10	15	0.3	14	15	362	0.5	361	363	10.4	83.0
2022-10-01T07:37	10	16	0.1	15	16	362	0.6	360	363	10.3	83.8
2022-10-01T07:38	10	16	0.1	15	16	362	0.2	361	362	10.3	83.5
2022-10-01T07:39	10	16	0.1	16	16	362	0.3	361	362	10.3	83.4
2022-10-01T07:40	10	16	0.1	16	17	362	0.4	361	363	10.3	83.5
2022-10-01T07:41	10	16	0.1	16	16	362	0.3	361	362	10.3	83.0
2022-10-01T07:42	10	16	0.1	16	16	362	0.4	361	363	10.3	83.6
2022-10-01T07:43	10	16	0.1	16	17	362	0.4	361	363	10.3	83.7
2022-10-01T07:44	10	16	0.1	16	17	362	0.2	362	363	10.3	83.6
2022-10-01T07:45	10	16	0.1	16	16	362	0.3	362	363	10.3	83.6
2022-10-01T07:46	10	16	0.1	15	16	363	0.3	362	363	10.3	83.7
2022-10-01T07:47	10	15	0.1	15	16	363	0.3	363	364	10.3	83.9
2022-10-01T07:48	10	15	0.1	15	15	363	0.5	362	364	10.4	83.4
2022-10-01T07:49	10	15	0.2	14	15	363	0.5	362	364	10.5	83.0
2022-10-01T07:50	10	14	0.2	14	15	363	0.3	363	364	10.5	83.2
2022-10-01T07:51	10	14	0.1	13	14	363	0.4	362	364	10.5	82.5
2022-10-01T07:52	10	14	0.1	13	14	363	0.5	362	364	10.5	82.5
2022-10-01T07:53	10	14	0.2	14	15	363	0.3	362	364	10.5	82.2
2022-10-01T07:54	10	15	0.4	14	16	363	0.3	362	364	10.6	82.3
2022-10-01T07:55	10	16	0.4	16	17	363	0.2	363	364	10.6	81.8
2022-10-01T07:56	10	17	0.2	17	18	363	0.2	363	364	10.6	81.8
2022-10-01T07:57	10	18	0.1	18	18	364	0.2	363	364	10.6	81.9
2022-10-01T07:58	10	18	0.1	18	18	364	0.4	364	366	10.6	82.1
2022-10-01T07:59	10	17	0.2	17	18	364	0.5	363	365	10.7	80.9
2022-10-01T08:00	10	17	0.3	16	17	364	0.2	363	364	10.7	80.1
2022-10-01T08:01	10	16	0.3	15	16	363	1.0	361	364	10.7	80.4
2022-10-01T08:02	10	14	0.4	14	15	363	0.4	363	364	10.7	80.7
2022-10-01T08:03	10	13	0.4	12	14	363	0.5	362	364	10.8	80.1
2022-10-01T08:04	10	12	0.2	12	12	363	0.3	362	363	10.8	79.5
2022-10-01T08:05	10	12	0.1	11	12	363	0.3	362	363	10.8	79.6
2022-10-01T08:06	10	12	0.1	11	12	363	0.2	363	364	10.8	79.8
2022-10-01T08:07	10	11	0.1	11	12	363	0.2	362	363	10.8	79.8
2022-10-01T08:08	10	11	0.0	11	11	363	0.2	363	364	10.8	79.9
2022-10-01T08:09	10	11	0.1	11	11	363	0.3	363	364	10.8	80.2
2022-10-01T08:10	10	10	0.2	10	11	363	0.5	362	364	10.9	78.9
2022-10-01T08:11	10	10	0.1	10	10	363	0.3	362	364	10.9	78.8
2022-10-01T08:12	10	10	0.1	10	10	363	0.2	362	363	10.9	78.6
2022-10-01T08:13	10	10	0.1	9	10	363	0.5	362	364	10.9	78.8
2022-10-01T08:14	10	10	0.2	10	10	363	0.3	362	363	11.0	78.0
2022-10-01T08:15	10	10	0.2	10	11	363	0.2	362	364	10.9	77.8
2022-10-01T08:16	10	11	0.2	11	11	363	0.3	362	364	10.9	77.9
2022-10-01T08:17	10	12	0.2	11	12	363	0.3	363	364	10.9	78.6
2022-10-01T08:18	10	12	0.1	12	12	364	0.5	362	365	10.9	78.8
2022-10-01T08:19	10	11	0.1	11	12	364	0.3	363	365	11.0	77.8
2022-10-01T08:20	10	11	0.1	11	11	364	0.2	363	364	11.0	77.5
2022-10-01T08:21	10	11	0.2	11	12	363	0.3	363	364	11.0	77.3
2022-10-01T08:22	10	12	0.2	11	12	363	0.6	362	364	11.1	76.9
2022-10-01T08:23	10	12	0.1	12	12	363	0.4	362	364	11.1	76.7
2022-10-01T08:24	10	12	0.1	12	12	363	0.3	362	364	11.1	76.2
2022-10-01T08:25	10	12	0.2	12	12	363	0.3	362	364	11.1	76.7
2022-10-01T08:26	10	13	0.2	12	13	363	0.3	363	364	11.0	77.6
2022-10-01T08:27	10	13	0.2	13	14	363	0.4	363	364	11.0	77.5
2022-10-01T08:28	10	14	0.2	14	15	364	0.4	363	364	11.1	77.1
2022-10-01T08:29	10	15	0.1	14	15	364	0.3	363	364	11.1	77.0
2022-10-01T08:30	10	14	0.2	14	14	364	0.3	363	365	11.1	77.2
2022-10-01T08:31	10	13	0.2	13	14	364	0.3	363	365	11.1	77.5
2022-10-01T08:32	10	13	0.3	12	13	364	0.4	363	364	11.1	77.5
2022-10-01T08:33	10	12	0.3	11	12	364	0.3	363	364	11.1	77.2
2022-10-01T08:34	10	11	0.1	11	11	363	0.5	362	364	11.1	77.0
2022-10-01T08:35	10	11	0.1	10	11	363	0.3	362	364	11.1	77.3
2022-10-01T08:36	10	10	0.1	10	10	363	0.3	363	364	11.0	78.4
2022-10-01T08:37	10	10	0.1	10	10	363	0.3	362	364	11.0	78.6
2022-10-01T08:38	10	10	0.1	9	10	363	0.2	363	364	10.9	78.8
2022-10-01T08:39	10	9	0.1	9	10	363	0.5	363	364	11.0	79.1
2022-10-01T08:40	10	10	0.1	9	10	364	0.3	363	364	11.0	78.7
2022-10-01T08:41	10	10	0.2	10	10	363	0.3	363	364	11.0	78.4
2022-10-01T08:42	10	11	0.3	10	11	363	0.3	363	364	10.9	79.4
2022-10-01T08:43	10	12	0.3	11	12	364	0.4	363	364	10.9	79.6
2022-10-01T08:44	10	13	0.2	12	13	363	0.3	363	364	11.0	79.3
2022-10-01T08:45	10	13	0.1	13	13	364	0.3	363	364	11.0	79.3
2022-10-01T08:46	10	13	0.1	13	13	364	0.4	363	364	11.0	79.2
2022-10-01T08:47	10	13	0.1	13	13	364	0.3	363	364	10.9	79.7
2022-10-01T08:48	10	14	0.2	13	14	364	0.2	364	365	10.9	80.3
2022-10-01T08:49	10	15	0.4	14	16	364	0.2	364	365	10.9	80.1
2022-10-01T08:50	10	16	0.5	16	17	365	0.3	364	365	10.9	80.4
2022-10-01T08:51	10	18	0.3	17	18	365	0.3	365	366	10.9	80.4
2022-10-01T08:52	10	18	0.1	18	19	365	0.2	365	366	10.9	80.4
2022-10-01T08:53	10	18	0.1	18	19	366	0.3	365	367	10.8	81.2
2022-10-01T08:54	10	19	0.1	18	19	366	0.4	365	367	10.9	81.3
2022-10-01T08:55	10	19	0.3	19	20	367	0.3	366	367	10.9	81.1
2022-10-01T08:56	10	21	0.4	20	21	367	0.4	366	368	10.9	81.3
2022-10-01T08:57	10	22	0.5	21	23	367	0.3	367	368	10.9	81.8
2022-10-01T08:58	10	24	0.6	23	25	367	0.3	367	368	10.9	81.4
2022-10-01T08:59	10	26	0.7	25	27	368	0.3	368	369	10.9	81.5
2022-10-01T09:00	10	28	0.4	27	28	368	0.3	367	369	11.0	80.6
2022-10-01T09:01	10	29	0.1	28	29	368	0.5	368	369	11.0	80.8
2022-10-01T09:02	10	29	0.1	29	29	369	0.3	368	369	11.0	80.9
2022-10-01T09:03	10	28	0.3	28	29	369	0.3	368	369	11.0	80.2
2022-10-01T09:04	10	27	0.6	26	28	369	0.5	368	370	11.0	80.8
2022-10-01T09:05	10	25	0.6	24	26	368	0.3	368	369	11.1	80.0
2022-10-01T09:06	10	23	0.3	23	24	368	0.2	368	369	11.1	80.2
2022-10-01T09:07	10	22	0.4	21	23	368	0.2	367	368	11.0	81.2
2022-10-01T09:08	10	21	0.3	20	22	368	0.4	367	368	11.0	80.9
2022-10-01T09:09	10	20	0.1	20	21	368	0.2	367	368	11.0	81.1
2022-10-01T09:10	10	21	0.1	20	21	368	0.3	367	369	11.1	81.5
2022-10-01T09:11	10	21	0.1	20	21	368	0.2	367	368	11.0	81.6
2022-10-01T09:12	10	20	0.3	20	20	367	0.3	366	368	11.0	82.1
2022-10-01T09:13	10	19	0.4	18	20	367	0.4	366	368	11.0	83.0
2022-10-01T09:14	10	17	0.3	17	18	367	0.2	366	368	11.0	83.5
2022-10-01T09:15	10	16	0.2	16	17	368	0.3	367	368	11.0	83.9
2022-10-01T09:16	10	16	0.2	15	16	367	0.4	366	368	11.0	83.6
2022-10-01T09:17	10	15	0.3	14	15	367	0.2	366	367	11.0	83.4
2022-10-01T09:18	10	14	0.3	13	14	366	0.4	365	367	11.0	83.6
2022-10-01T09:19	10	13	0.2	13	13	366	0.3	366	367	11.0	83.5
2022-10-01T09:20	10	12	0.1	12	13	366	0.3	365	366	11.0	83.9
2022-10-01T09:21	10	12	0.1	12	13	366	0.3	365	366	11.0	83.9
2022-10-01T09:22	10	13	0.2	12	13	366	0.2	365	366	11.0	83.8
2022-10-01T09:23	10	15	0.5	14	16	366	0.3	365	367	11.0	84.3
2022-10-01T09:24	10	17	0.9	16	19	366	0.4	366	367	11.0	84.3
2022-10-01T09:25	10	20	1.0	19	22	367	0.4	366	368	11.0	84.5
2022-10-01T09:26	10	24	0.9	22	25	367	0.4	366	368	11.0	84.1
2022-10-01T09:27	10	26	0.5	25	27	367	0.4	366	368	11.1	83.3
2022-10-01T09:28	10	27	0.1	27	27	368	0.4	367	368	11.0	83.4
2022-10-01T09:29	10	27	0.3	26	27	368	0.5	367	369	11.0	84.0
2022-10-01T09:30	10	25	0.5	24	26	368	0.2	367	368	11.0	83.7
2022-10-01T09:31	10	24	0.4	23	24	367	0.5	366	367	11.1	83.2
2022-10-01T09:32	10	23	0.2	23	23	366	0.3	366	367	11.1	83.0
2022-10-01T09:33	10	24	0.2	23	24	367	0.3	366	367	11.0	83.5
2022-10-01T09:34	10	24	0.1	24	24	367	0.5	366	368	11.0	83.9
2022-10-01T09:35	10	24	0.1	24	25	367	0.4	366	368	11.1	84.1
2022-10-01T09:36	10	24	0.1	24	24	368	0.3	367	368	11.0	84.1
2022-10-01T09:37	10	24	0.2	23	24	368	0.3	367	369	11.0	84.6
2022-10-01T09:38	10	23	0.4	22	23	369	0.2	368	369	11.1	84.6
2022-10-01T09:39	10	21	0.3	21	22	368	0.4	367	369	11.1	84.4
2022-10-01T09:40	10	21	0.2	20	21	368	0.2	367	368	11.1	84.7
2022-10-01T09:41	10	22	0.7	21	23	368	0.2	367	369	11.1	84.4
2022-10-01T09:42	10	25	0.8	24	26	368	0.2	368	369	11.2	83.6
2022-10-01T09:43	10	27	0.4	26	28	369	0.4	368	370	11.2	83.2
2022-10-01T09:44	10	28	0.7	27	30	369	0.5	368	370	11.2	83.4
2022-10-01T09:45	10	32	1.1	30	34	369	0.4	368	370	11.3	82.5
2022-10-01T09:46	10	36	1.2	34	38	370	0.4	369	371	11.3	82.5
2022-10-01T09:47	10	40	1.1	38	42	372	0.5	371	373	11.3	82.3
2022-10-01T09:48	10	43	0.5	42	44	373	0.3	372	373	11.3	82.2
2022-10-01T09:49	10	43	0.4	42	43	373	0.4	372	374	11.4	82.4
2022-10-01T09:50	10	42	0.4	41	42	374	0.3	373	374	11.4	82.4
2022-10-01T09:51	10	40	0.5	39	41	374	0.2	373	374	11.4	82.3
2022-10-01T09:52	10	38	0.5	38	39	373	0.8	371	374	11.5	81.3
2022-10-01T09:53	10	37	0.6	35	38	372	0.5	371	373	11.5	81.2
2022-10-01T09:54	10	35	0.5	34	35	371	0.4	370	372	11.5	80.7
2022-10-01T09:55	10	33	0.4	32	34	370	0.3	370	371	11.5	78.9
2022-10-01T09:56	10	31	0.6	31	32	370	0.3	369	371	11.5	78.9
2022-10-01T09:57	10	30	0.3	29	30	370	0.2	369	370	11.5	79.4
2022-10-01T09:58	10	30	0.4	29	31	370	0.2	370	371	11.5	79.4
2022-10-01T09:59	10	32	0.6	31	33	370	0.3	369	370	11.5	79.2
2022-10-01T10:00	10	34	0.3	33	34	370	0.3	369	371	11.5	79.4
2022-10-01T10:01	10	33	0.3	33	34	370	0.3	370	371	11.5	79.0
2022-10-01T10:02	10	33	0.1	32	33	370	0.6	369	371	11.5	79.8
2022-10-01T10:03	10	32	0.4	31	33	370	1.2	367	371	11.5	78.7
2022-10-01T10:04	10	31	0.3	30	31	369	0.5	368	370	11.6	78.1
2022-10-01T10:05	10	30	0.3	30	31	369	0.3	369	370	11.5	78.2
2022-10-01T10:06	10	32	0.2	31	32	370	0.6	369	371	11.5	79.6
2022-10-01T10:07	10	31	0.4	31	32	370	0.9	369	372	11.5	79.2
2022-10-01T10:08	10	30	0.3	30	31	369	0.8	368	370	11.5	78.3
2022-10-01T10:09	10	30	0.6	30	31	369	0.5	368	370	11.6	77.9
2022-10-01T10:10	10	33	1.2	32	36	369	0.4	368	370	11.6	77.3
2022-10-01T10:11	10	38	1.4	36	40	370	1.0	368	372	11.6	77.6
2022-10-01T10:12	10	42	0.9	40	43	371	0.6	370	372	11.6	78.2
2022-10-01T10:13	10	43	0.1	43	44	371	0.7	370	372	11.6	77.5
2022-10-01T10:14	10	44	0.3	43	45	371	1.8	367	373	11.7	77.2
2022-10-01T10:15	10	44	0.1	44	45	372	0.9	370	373	11.7	77.2
2022-10-01T10:16	10	45	0.3	44	45	372	0.3	371	372	11.7	76.9
2022-10-01T10:17	10	45	0.4	44	45	372	1.3	370	374	11.7	77.5
2022-10-01T10:18	10	42	1.4	39	44	372	0.7	371	373	11.6	78.3
2022-10-01T10:19	10	38	1.0	36	39	371	0.5	370	372	11.6	78.8
2022-10-01T10:20	10	35	0.7	34	36	370	0.7	369	372	11.6	78.7
2022-10-01T10:21	10	33	0.4	32	34	369	0.8	367	370	11.5	79.2
2022-10-01T10:22	10	32	0.2	32	32	369	0.7	368	371	11.5	78.4
2022-10-01T10:23	10	32	0.1	32	33	369	0.4	369	370	11.5	78.9
2022-10-01T10:24	10	33	0.1	32	33	370	0.3	370	371	11.5	79.8
2022-10-01T10:25	10	33	0.2	32	33	371	0.3	370	371	11.4	80.4
2022-10-01T10:26	10	32	0.3	31	32	371	0.3	370	371	11.5	80.1
2022-10-01T10:27	10	30	0.4	30	31	370	0.2	369	370	11.5	79.6
2022-10-01T10:28	10	30	0.2	29	30	370	0.2	369	370	11.4	79.7
2022-10-01T10:29	10	28	0.3	28	29	370	0.3	369	371	11.4	80.6
2022-10-01T10:30	10	28	0.4	28	29	370	0.3	369	370	11.4	81.1
2022-10-01T10:31	10	30	0.8	29	32	370	0.9	368	371	11.4	80.1
2022-10-01T10:32	10	34	1.3	32	36	369	0.5	368	370	11.4	78.8
2022-10-01T10:33	10	40	2.3	36	44	370	0.8	369	372	11.4	79.2
2022-10-01T10:34	10	47	1.7	44	50	371	0.5	370	372	11.5	79.2
2022-10-01T10:35	10	52	1.0	50	53	372	0.6	371	373	11.5	78.9
2022-10-01T10:36	10	53	0.5	52	53	372	0.6	371	373	11.5	78.3
2022-10-01T10:37	10	49	1.5	46	51	372	0.7	371	374	11.6	77.4
2022-10-01T10:38	10	44	1.1	43	46	372	0.3	371	373	11.6	78.1
2022-10-01T10:39	10	42	0.7	40	43	371	0.5	370	372	11.6	77.2
2022-10-01T10:40	10	38	1.5	36	40	371	0.6	370	372	11.6	76.8
2022-10-01T10:41	10	33	1.3	31	35	370	0.4	369	371	11.6	76.4
2022-10-01T10:42	10	29	0.9	28	31	370	0.7	369	372	11.6	76.6
2022-10-01T10:43	10	27	0.6	26	28	369	0.9	367	371	11.6	75.9
2022-10-01T10:44	10	25	0.2	25	26	368	0.4	367	369	11.6	75.0
2022-10-01T10:45	10	25	0.1	25	25	368	0.8	366	369	11.5	75.3
2022-10-01T10:46	10	25	0.2	24	25	368	1.4	364	369	11.5	75.4
2022-10-01T10:47	10	24	0.1	24	25	367	0.8	366	369	11.5	75.5
2022-10-01T10:48	10	24	0.2	24	25	367	0.5	366	368	11.5	75.7
2022-10-01T10:49	10	23	0.7	21	24	367	0.7	366	368	11.5	75.3
2022-10-01T10:50	10	20	0.5	20	22	367	0.3	366	367	11.5	75.2
2022-10-01T10:51	10	20	0.1	19	20	366	0.8	364	368	11.5	74.8
2022-10-01T10:52	10	20	0.3	20	21	366	0.3	365	367	11.5	74.9
2022-10-01T10:53	10	22	0.5	21	23	366	0.6	365	368	11.4	75.0
2022-10-01T10:54	10	24	0.6	23	25	366	0.7	365	367	11.4	75.2
2022-10-01T10:55	10	25	0.4	24	26	367	0.5	366	368	11.4	76.2
2022-10-01T10:56	10	27	0.5	26	28	367	0.5	365	368	11.5	75.7
2022-10-01T10:57	10	28	0.5	27	29	367	0.7	365	368	11.5	74.4
2022-10-01T10:58	10	30	0.5	29	31	368	0.4	367	369	11.5	75.3
2022-10-01T10:59	10	32	0.5	31	32	368	0.4	367	369	11.5	75.0
2022-10-01T11:00	10	32	0.1	32	33	368	0.6	367	370	11.5	75.3
2022-10-01T11:01	10	33	0.3	33	34	369	0.6	368	370	11.5	75.8
2022-10-01T11:02	10	33	0.1	33	34	369	0.3	369	370	11.5	75.9
2022-10-01T11:03	10	35	1.0	34	37	369	0.5	368	370	11.5	75.9
2022-10-01T11:04	10	39	0.9	37	40	370	0.3	369	370	11.5	75.6
2022-10-01T11:05	10	38	1.2	36	40	370	0.5	369	371	11.5	75.7
2022-10-01T11:06	10	33	1.5	31	36	370	0.2	369	370	11.6	75.4
2022-10-01T11:07	10	29	0.8	28	31	369	0.2	369	370	11.5	76.2
2022-10-01T11:08	10	28	0.1	28	29	370	0.6	369	371	11.5	76.9
2022-10-01T11:09	10	29	0.2	29	29	369	0.2	369	370	11.6	75.6
2022-10-01T11:10	10	29	0.3	29	30	369	0.5	368	369	11.5	75.4
2022-10-01T11:11	10	31	0.5	30	32	369	0.4	368	370	11.5	76.2
2022-10-01T11:12	10	32	0.1	32	32	370	0.2	369	370	11.5	76.8
2022-10-01T11:13	10	33	0.5	32	34	370	0.4	369	371	11.5	77.5
2022-10-01T11:14	10	34	0.3	34	35	370	0.9	369	372	11.5	76.7
2022-10-01T11:15	10	35	0.1	35	35	369	0.4	369	371	11.5	76.0
2022-10-01T11:16	10	35	0.1	35	35	370	0.2	369	370	11.5	76.6
2022-10-01T11:17	10	35	0.1	35	35	369	0.3	369	370	11.5	77.5
2022-10-01T11:18	10	35	0.2	35	35	369	0.2	369	370	11.5	77.3
2022-10-01T11:19	10	34	0.2	34	35	369	0.5	368	370	11.4	77.4
2022-10-01T11:20	10	34	0.2	34	35	369	0.3	368	370	11.4	77.8
2022-10-01T11:21	10	35	0.4	34	36	368	0.4	368	369	11.4	77.7
2022-10-01T11:22	10	37	0.3	36	37	368	1.3	365	370	11.4	78.2
2022-10-01T11:23	10	37	0.1	37	37	369	1.4	366	371	11.3	79.1
2022-10-01T11:24	10	37	0.1	37	37	369	0.7	368	370	11.2	80.2
2022-10-01T11:25	10	37	0.1	37	37	369	0.9	368	371	11.2	81.3
2022-10-01T11:26	10	37	0.2	36	37	370	0.5	369	371	11.2	81.9
2022-10-01T11:27	10	36	0.6	34	36	370	0.4	369	371	11.2	82.0
2022-10-01T11:28	10	33	0.8	32	35	370	0.3	370	371	11.2	81.9
2022-10-01T11:29	10	31	0.5	30	32	370	0.3	369	371	11.2	82.5
2022-10-01T11:30	10	31	0.3	30	31	370	0.4	369	371	11.2	83.0
2022-10-01T11:31	10	31	0.1	31	32	370	0.6	369	371	11.1	82.7
2022-10-01T11:32	10	31	0.1	31	31	369	1.5	364	371	11.1	83.2
2022-10-01T11:33	10	31	0.2	30	31	368	0.8	366	370	11.0	83.5
2022-10-01T11:34	10	30	0.4	29	30	369	0.6	367	370	11.0	84.0
2022-10-01T11:35	10	28	0.5	27	29	369	0.7	368	370	11.0	83.9
2022-10-01T11:36	10	26	0.6	25	27	369	0.3	368	369	11.0	84.4
2022-10-01T11:37	10	24	0.6	23	25	368	0.4	367	369	10.9	84.3
2022-10-01T11:38	10	23	0.4	22	24	368	0.4	368	369	10.9	85.0
2022-10-01T11:39	10	21	0.5	20	22	369	0.4	368	370	11.0	85.0
2022-10-01T11:40	10	20	0.2	20	20	368	0.3	368	369	11.0	84.8
2022-10-01T11:41	10	20	0.1	20	21	368	0.6	367	369	11.0	84.9
2022-10-01T11:42	10	19	0.2	19	20	367	0.4	366	368	11.0	84.3
2022-10-01T11:43	10	19	0.1	19	19	367	0.4	366	368	11.0	83.8
2022-10-01T11:44	10	19	0.2	19	20	367	0.3	366	368	11.0	84.3
2022-10-01T11:45	10	20	0.4	20	21	367	1.1	365	369	11.0	83.6
2022-10-01T11:46	10	22	0.3	21	22	367	0.5	366	368	11.0	83.4
2022-10-01T11:47	10	22	0.1	22	23	367	0.3	367	368	11.0	83.9
2022-10-01T11:48	10	23	0.1	22	23	368	0.3	367	368	11.0	83.9
2022-10-01T11:49	10	22	0.1	22	23	368	0.3	367	369	11.0	84.3
2022-10-01T11:50	10	23	0.3	22	23	369	0.3	368	369	11.0	84.6
2022-10-01T11:51	10	24	0.6	23	25	368	0.9	366	369	11.0	83.3
2022-10-01T11:52	10	26	0.2	25	26	367	0.5	366	368	11.0	82.7
2022-10-01T11:53	10	25	0.4	25	26	368	0.8	367	369	11.0	83.1
2022-10-01T11:54	10	24	0.4	23	25	368	0.5	367	369	11.0	83.1
2022-10-01T11:55	10	22	0.7	21	23	368	0.2	367	368	11.0	82.6
2022-10-01T11:56	10	20	0.3	20	21	367	0.4	366	368	11.1	82.4
2022-10-01T11:57	10	21	0.4	20	22	367	0.3	367	368	11.1	81.8
2022-10-01T11:58	10	22	0.1	21	22	367	0.4	366	368	11.1	81.4
2022-10-01T11:59	10	22	0.5	22	23	367	0.4	366	368	11.0	81.6
2022-10-01T12:00	10	24	0.2	23	24	367	0.3	366	368	11.0	81.1
2022-10-01T12:01	10	23	0.3	23	24	367	0.3	367	368	11.1	81.7
2022-10-01T12:02	10	22	0.3	22	23	368	0.6	367	369	11.1	81.7
2022-10-01T12:03	10	22	0.1	22	22	367	0.2	367	368	11.1	81.3
2022-10-01T12:04	10	22	0.6	20	22	368	0.3	367	368	11.1	81.0
2022-10-01T12:05	10	19	0.5	19	20	367	0.3	367	368	11.1	81.1
2022-10-01T12:06	10	19	0.1	19	19	367	0.3	366	368	11.1	80.7
2022-10-01T12:07	10	19	0.1	19	20	367	0.3	367	368	11.1	81.2
2022-10-01T12:08	10	20	0.3	19	21	367	0.4	366	368	11.1	81.0
2022-10-01T12:09	10	21	0.4	20	22	367	0.3	366	368	11.1	80.8
2022-10-01T12:10	10	22	0.3	22	23	367	0.3	366	367	11.0	80.6
2022-10-01T12:11	10	23	0.2	22	23	367	0.3	366	368	11.0	81.2
2022-10-01T12:12	10	24	0.6	23	25	367	0.3	366	368	11.1	80.9
2022-10-01T12:13	10	25	0.6	24	27	367	0.4	367	368	11.1	80.2
2022-10-01T12:14	10	28	0.6	26	28	368	0.3	367	368	11.1	80.2
2022-10-01T12:15	10	28	0.1	28	29	368	0.3	368	369	11.1	80.9
2022-10-01T12:16	10	29	0.1	28	29	368	0.3	367	369	11.1	80.8
2022-10-01T12:17	10	29	0.1	28	29	367	0.3	367	368	11.1	80.5
2022-10-01T12:18	10	27	0.6	26	28	367	0.3	367	368	11.1	80.3
2022-10-01T12:19	10	25	0.6	24	26	368	0.3	367	368	11.1	80.5
2022-10-01T12:20	10	24	0.2	23	24	367	0.3	367	368	11.1	80.7
2022-10-01T12:21	10	24	0.1	23	24	367	0.2	367	368	11.1	80.5
2022-10-01T12:22	10	24	0.3	24	25	368	0.4	367	369	11.1	81.1
2022-10-01T12:23	10	26	0.5	25	27	369	0.4	368	369	11.1	81.2
2022-10-01T12:24	10	27	0.4	27	28	369	0.3	368	370	11.1	81.1
2022-10-01T12:25	10	29	0.7	28	30	369	0.4	369	370	11.1	81.5
2022-10-01T12:26	10	32	0.7	30	33	371	0.3	370	371	11.1	81.7
2022-10-01T12:27	10	33	0.1	33	33	371	0.5	370	372	11.2	81.7
2022-10-01T12:28	10	32	0.5	31	33	371	0.3	370	372	11.2	81.7
2022-10-01T12:29	10	30	1.0	28	31	371	0.4	370	372	11.2	81.1
2022-10-01T12:30	10	26	0.9	25	28	370	0.2	370	371	11.2	80.9
2022-10-01T12:31	10	24	0.4	23	25	370	0.3	370	371	11.3	81.3
2022-10-01T12:32	10	23	0.1	23	24	370	0.7	368	371	11.3	81.3
2022-10-01T12:33	10	23	0.3	22	23	369	0.9	367	370	11.3	80.4
2022-10-01T12:34	10	21	0.3	21	22	368	0.4	367	369	11.3	80.4
2022-10-01T12:35	10	20	0.3	20	21	368	0.5	366	369	11.4	79.8
2022-10-01T12:36	10	19	0.4	18	20	368	0.6	366	368	11.4	80.0
2022-10-01T12:37	10	18	0.5	17	19	368	0.6	367	369	11.4	80.1
2022-10-01T12:38	10	16	0.4	16	17	368	0.3	367	369	11.4	80.9
2022-10-01T12:39	10	15	0.2	15	16	367	1.2	365	369	11.4	80.6
2022-10-01T12:40	10	15	0.1	15	16	368	0.5	367	369	11.4	81.1
2022-10-01T12:41	10	16	0.1	16	16	368	0.3	367	369	11.5	80.6
2022-10-01T12:42	10	16	0.3	16	17	368	0.4	367	369	11.4	80.7
2022-10-01T12:43	10	18	0.3	17	18	368	0.4	367	369	11.4	80.5
2022-10-01T12:44	10	18	0.2	18	19	368	0.2	368	368	11.5	80.5
2022-10-01T12:45	10	19	0.1	19	19	368	0.4	367	369	11.5	80.3
2022-10-01T12:46	10	19	0.1	19	19	368	0.3	367	369	11.4	80.6
2022-10-01T12:47	10	18	0.3	18	19	368	0.6	367	369	11.4	81.1
2022-10-01T12:48	10	17	0.4	16	18	368	0.7	366	369	11.5	80.6
2022-10-01T12:49	10	16	0.3	15	16	367	0.4	367	368	11.5	80.6
2022-10-01T12:50	10	15	0.3	15	16	368	0.9	366	369	11.5	81.0
2022-10-01T12:51	10	15	0.1	15	15	367	0.7	366	368	11.4	80.7
2022-10-01T12:52	10	15	0.3	15	16	367	0.8	366	368	11.4	80.6
2022-10-01T12:53	10	16	0.2	16	17	367	0.4	366	368	11.5	80.7
2022-10-01T12:54	10	17	0.2	16	17	367	0.5	366	368	11.5	80.3
2022-10-01T12:55	10	17	0.1	17	17	368	0.3	367	368	11.5	80.9
2022-10-01T12:56	10	16	0.5	15	17	367	0.5	366	368	11.4	80.8
2022-10-01T12:57	10	15	0.2	15	15	367	0.4	366	368	11.4	81.4
2022-10-01T12:58	10	15	0.1	14	15	367	0.9	365	368	11.3	82.2
2022-10-01T12:59	10	15	0.3	15	16	367	0.7	365	368	11.3	82.8
2022-10-01T13:00	10	17	0.6	16	18	367	0.8	365	368	11.2	83.1
2022-10-01T13:01	10	19	0.7	18	20	367	0.4	366	367	11.2	83.5
2022-10-01T13:02	10	21	0.5	20	22	367	0.6	365	367	11.2	83.3
2022-10-01T13:03	10	21	0.4	20	22	367	1.1	365	369	11.1	84.4
2022-10-01T13:04	10	21	0.3	20	21	367	0.6	366	368	11.1	84.8
2022-10-01T13:05	10	20	0.2	20	21	366	1.9	362	369	11.1	84.4
2022-10-01T13:06	10	19	0.6	18	20	366	0.9	365	368	11.1	84.3
2022-10-01T13:07	10	18	0.5	17	19	367	0.9	365	368	11.0	85.3
2022-10-01T13:08	10	16	0.3	16	17	367	1.4	362	368	11.0	85.9
2022-10-01T13:09	10	16	0.2	15	16	366	0.5	365	367	11.0	86.1
2022-10-01T13:10	10	15	0.2	15	15	366	0.5	365	367	11.0	85.7
2022-10-01T13:11	10	15	0.2	15	15	365	0.4	364	366	10.9	86.2
2022-10-01T13:12	10	16	0.3	15	16	366	0.9	364	367	10.9	86.3
2022-10-01T13:13	10	17	0.6	16	18	366	1.0	364	367	10.9	86.5
2022-10-01T13:14	10	18	0.3	18	19	366	0.5	365	367	10.9	86.6
2022-10-01T13:15	10	19	0.1	19	19	366	0.2	365	366	10.9	87.0
2022-10-01T13:16	10	19	0.2	19	20	366	0.4	365	367	10.9	87.5
2022-10-01T13:17	10	20	0.3	20	21	366	1.0	364	368	10.9	87.8
2022-10-01T13:18	10	21	0.4	21	22	367	0.7	366	368	10.8	88.4
2022-10-01T13:19	10	23	0.5	22	23	367	0.7	365	368	10.9	88.3
2022-10-01T13:20	10	25	0.7	23	26	367	0.5	366	368	10.9	88.0
2022-10-01T13:21	10	27	0.4	26	27	367	0.8	365	368	10.9	88.3
2022-10-01T13:22	10	27	0.1	27	27	368	0.5	367	368	10.8	88.4
2022-10-01T13:23	10	27	0.2	27	28	368	0.5	367	369	10.9	88.5
2022-10-01T13:24	10	28	0.2	27	28	368	0.7	366	369	10.9	88.9
2022-10-01T13:25	10	28	0.2	28	29	368	1.0	365	369	10.8	88.9
2022-10-01T13:26	10	29	0.1	29	29	368	0.7	367	369	10.8	89.1
2022-10-01T13:27	10	29	0.2	29	30	368	1.6	366	370	10.8	89.4
2022-10-01T13:28	10	30	0.6	30	31	368	0.8	366	369	10.9	89.1
2022-10-01T13:29	10	33	0.7	31	34	368	0.6	367	369	10.9	89.1
2022-10-01T13:30	10	34	0.3	34	35	368	0.7	367	370	10.9	88.7
2022-10-01T13:31	10	34	0.5	33	35	369	0.9	368	371	10.9	88.9
2022-10-01T13:32	10	32	0.3	32	33	369	0.8	367	370	10.9	89.0
2022-10-01T13:33	10	32	0.1	32	32	369	0.3	368	370	10.9	89.3
2022-10-01T13:34	10	31	0.5	30	32	369	0.4	368	370	10.9	89.1
2022-10-01T13:35	10	30	0.5	29	30	369	0.5	367	370	10.9	89.0
2022-10-01T13:36	10	29	0.1	28	29	369	0.5	368	370	11.0	89.1
2022-10-01T13:37	10	28	0.1	28	29	369	0.4	368	370	11.0	89.2
2022-10-01T13:38	10	29	0.3	28	29	369	0.7	367	370	11.0	88.8
2022-10-01T13:39	10	30	0.4	29	31	369	0.4	367	370	11.0	88.8
2022-10-01T13:40	10	32	0.4	31	32	369	0.8	367	370	11.0	88.7
2022-10-01T13:41	10	31	0.6	30	32	369	0.8	367	371	11.0	88.8
2022-10-01T13:42	10	29	0.4	29	30	369	0.6	368	370	11.1	89.0
2022-10-01T13:43	10	30	0.4	29	30	369	0.7	367	370	11.1	88.7
2022-10-01T13:44	10	31	0.7	30	32	369	0.8	367	370	11.1	88.2
2022-10-01T13:45	10	33	0.2	32	33	369	1.0	367	370	11.1	88.1
2022-10-01T13:46	10	32	0.7	30	33	369	0.6	368	370	11.1	88.4
2022-10-01T13:47	10	29	0.7	28	30	369	0.6	368	371	11.2	88.6
2022-10-01T13:48	10	28	0.1	28	28	369	0.6	368	371	11.2	88.8
2022-10-01T13:49	10	29	0.6	28	30	370	0.3	369	370	11.2	88.7
2022-10-01T13:50	10	31	0.3	30	32	370	0.4	369	371	11.2	88.7
2022-10-01T13:51	10	32	0.3	31	33	370	0.5	369	371	11.2	88.7
2022-10-01T13:52	10	33	0.4	33	34	371	0.6	370	372	11.3	88.7
2022-10-01T13:53	10	34	0.2	33	34	372	0.8	370	373	11.3	88.9
2022-10-01T13:54	10	34	0.2	33	34	372	0.6	370	372	11.3	88.7
2022-10-01T13:55	10	35	0.2	34	35	372	1.0	370	373	11.3	88.7
2022-10-01T13:56	10	34	0.3	33	35	371	0.3	370	371	11.3	88.5
2022-10-01T13:57	10	32	0.9	31	33	371	0.4	370	372	11.3	88.5
2022-10-01T13:58	10	29	0.7	28	31	371	1.2	369	372	11.3	88.8
2022-10-01T13:59	10	28	0.2	28	29	370	0.5	369	371	11.3	88.4
2022-10-01T14:00	10	29	0.4	28	30	370	0.7	368	371	11.3	88.3
2022-10-01T14:01	10	31	0.5	30	31	370	1.0	369	372	11.3	88.4
2022-10-01T14:02	10	32	0.6	31	33	371	0.6	370	372	11.3	88.7
2022-10-01T14:03	10	34	0.5	33	35	371	0.5	370	372	11.3	88.5
2022-10-01T14:04	10	35	0.1	35	35	371	0.6	370	372	11.4	88.4
2022-10-01T14:05	10	35	0.1	35	36	371	0.5	370	372	11.4	88.3
2022-10-01T14:06	10	37	1.2	36	40	371	0.7	370	372	11.4	88.2
2022-10-01T14:07	10	43	1.6	40	45	371	0.9	370	373	11.4	88.0
2022-10-01T14:08	10	42	2.0	39	45	372	1.5	369	374	11.4	88.2
2022-10-01T14:09	10	35	1.8	33	39	372	0.6	371	374	11.4	88.0
2022-10-01T14:10	10	31	0.9	29	32	371	0.6	370	372	11.5	88.0
2022-10-01T14:11	10	29	0.3	28	29	371	0.4	370	371	11.4	88.0
2022-10-01T14:12	10	28	0.1	28	28	371	0.7	369	372	11.4	88.4
2022-10-01T14:13	10	28	0.3	28	29	371	0.5	370	372	11.4	88.7
2022-10-01T14:14	10	31	1.1	29	32	371	0.8	369	372	11.5	88.8
2022-10-01T14:15	10	35	1.2	32	37	371	1.9	366	373	11.5	88.6
2022-10-01T14:16	10	39	1.8	37	43	371	1.5	367	374	11.5	88.4
2022-10-01T14:17	10	48	3.2	43	54	373	1.0	370	374	11.5	88.6
2022-10-01T14:18	10	57	1.4	54	60	375	1.3	371	376	11.5	89.2
2022-10-01T14:19	10	53	1.8	51	57	376	0.5	375	377	11.6	89.0
2022-10-01T14:20	10	47	2.2	43	50	375	0.5	374	376	11.6	89.1
2022-10-01T14:21	10	41	1.6	38	43	374	1.7	372	377	11.6	89.0
2022-10-01T14:22	10	38	1.0	37	40	373	0.6	372	374	11.6	88.4
2022-10-01T14:23	10	42	0.6	40	43	374	1.8	370	376	11.6	88.7
2022-10-01T14:24	10	42	1.2	40	44	373	1.1	371	376	11.7	88.3
2022-10-01T14:25	10	45	0.5	44	46	374	0.9	371	375	11.7	87.9
2022-10-01T14:26	10	42	1.3	40	45	374	0.7	372	375	11.7	88.1
2022-10-01T14:27	10	38	1.1	36	40	373	0.6	371	374	11.7	87.7
2022-10-01T14:28	10	34	1.6	31	36	373	1.0	372	375	11.7	87.8
2022-10-01T14:29	10	29	6.4	26	73	372	0.6	371	373	11.7	87.6
2022-10-01T14:30	10	25	0.4	25	27	372	0.5	370	373	11.7	87.7
2022-10-01T14:31	10	25	0.2	25	26	372	0.3	371	372	11.7	87.8
2022-10-01T14:32	10	26	0.5	25	27	372	0.5	371	373	11.7	87.9
2022-10-01T14:33	10	29	1.0	27	31	372	0.7	371	373	11.7	87.8
2022-10-01T14:34	10	32	1.0	31	34	372	0.3	371	373	11.8	87.4
2022-10-01T14:35	10	37	2.0	34	41	373	0.6	371	374	11.8	87.3
2022-10-01T14:36	10	45	2.2	41	49	374	1.0	372	376	11.8	87.4
2022-10-01T14:37	10	52	1.3	49	53	374	0.4	374	376	11.8	87.2
2022-10-01T14:38	10	51	1.8	47	53	375	1.3	373	376	11.9	86.9
2022-10-01T14:39	10	44	1.7	41	47	374	0.8	371	375	11.9	86.4
2022-10-01T14:40	10	40	0.5	39	41	374	1.0	371	375	11.9	86.6
2022-10-01T14:41	10	41	1.3	39	44	373	0.9	371	374	11.9	86.5
2022-10-01T14:42	10	50	4.4	44	58	374	0.6	372	375	11.9	86.6
2022-10-01T14:43	10	62	2.0	59	66	374	0.8	373	376	12.0	86.1
2022-10-01T14:44	10	73	3.1	65	77	375	0.6	373	376	12.0	85.7
2022-10-01T14:45	10	71	3.3	68	78	375	1.1	373	377	12.0	85.6
2022-10-01T14:46	10	79	2.8	74	84	376	1.2	373	378	12.1	85.8
2022-10-01T14:47	10	71	2.1	68	75	376	0.6	374	377	12.1	85.6
2022-10-01T14:48	10	64	2.2	60	68	375	1.0	372	376	12.1	85.4
2022-10-01T14:49	10	59	0.9	56	60	376	0.9	374	377	12.1	85.5
2022-10-01T14:50	10	50	3.8	42	56	375	1.3	373	377	12.1	85.7
2022-10-01T14:51	10	34	4.1	28	42	374	0.7	373	376	12.1	86.0
2022-10-01T14:52	10	23	2.8	18	28	373	0.9	372	375	12.1	86.5
2022-10-01T14:53	10	15	1.2	14	18	372	0.6	372	374	12.0	86.4
2022-10-01T14:54	10	15	0.8	14	16	371	1.2	369	373	12.0	86.5
2022-10-01T14:55	10	20	2.3	17	24	372	0.6	371	373	12.0	86.5
2022-10-01T14:56	10	30	3.1	24	35	373	0.9	371	375	12.1	86.7
2022-10-01T14:57	10	41	3.5	35	47	374	0.7	373	376	12.1	86.7
2022-10-01T14:58	10	48	0.5	47	49	375	0.8	374	377	12.1	86.7
2022-10-01T14:59	10	45	1.9	42	48	375	1.1	372	376	12.2	85.9
2022-10-01T15:00	10	39	1.4	37	42	375	0.4	373	375	12.2	85.9
2022-10-01T15:01	10	38	2.7	36	44	375	0.4	374	376	12.2	86.3
2022-10-01T15:02	10	44	1.5	40	45	375	1.1	373	377	12.2	86.7
2022-10-01T15:03	10	48	1.9	45	51	375	1.1	373	377	12.2	86.8
2022-10-01T15:04	10	52	0.5	51	53	376	1.0	374	377	12.2	86.7
2022-10-01T15:05	10	51	0.8	50	53	376	0.9	374	378	12.2	86.8
2022-10-01T15:06	10	46	2.3	42	50	376	1.0	374	377	12.2	87.2
2022-10-01T15:07	10	37	3.3	31	42	376	0.6	373	376	12.2	87.8
2022-10-01T15:08	10	26	2.4	23	31	374	0.6	373	376	12.1	87.4
2022-10-01T15:09	10	21	0.8	20	23	373	0.4	372	374	12.1	87.5
2022-10-01T15:10	10	20	0.1	20	20	373	0.6	371	374	12.1	87.5
2022-10-01T15:11	10	21	0.1	20	21	372	0.5	371	374	12.1	87.7
2022-10-01T15:12	10	20	0.7	18	21	372	0.6	371	374	12.1	87.8
2022-10-01T15:13	10	17	1.0	15	18	372	0.9	370	373	12.1	87.9
2022-10-01T15:14	10	14	0.8	12	15	371	0.6	370	372	12.1	87.6
2022-10-01T15:15	10	12	0.3	11	12	371	0.5	369	372	12.1	87.6
2022-10-01T15:16	10	11	0.1	11	11	371	0.6	370	372	12.1	88.0
2022-10-01T15:17	10	11	0.1	11	11	371	0.9	369	373	12.1	88.0
2022-10-01T15:18	10	11	0.3	10	11	371	0.5	370	372	12.1	88.3
2022-10-01T15:19	10	9	0.4	9	10	371	0.2	370	372	12.0	88.6
2022-10-01T15:20	10	9	0.1	9	9	371	0.4	370	372	12.0	88.6
2022-10-01T15:21	10	10	0.5	9	11	371	0.4	370	372	12.0	88.6
2022-10-01T15:22	10	12	0.7	11	13	371	0.5	370	372	12.0	88.6
2022-10-01T15:23	10	15	0.6	14	16	371	0.7	369	372	12.0	88.6
2022-10-01T15:24	10	17	0.4	16	17	371	1.7	367	374	12.0	88.5
2022-10-01T15:25	10	18	0.4	17	19	372	0.6	370	373	12.0	88.9
2022-10-01T15:26	10	19	0.2	19	19	371	1.0	369	373	11.9	89.2
2022-10-01T15:27	10	18	0.7	17	19	371	0.6	370	372	11.9	89.3
2022-10-01T15:28	10	15	1.0	13	17	371	0.5	369	371	11.9	89.3
2022-10-01T15:29	10	12	0.7	11	13	370	0.5	369	371	11.8	89.7
2022-10-01T15:30	10	10	0.2	10	11	370	0.6	369	371	11.8	89.8
2022-10-01T15:31	10	10	0.2	9	10	370	0.8	368	371	11.8	90.1
2022-10-01T15:32	10	9	0.3	8	9	370	0.3	369	370	11.8	90.3
2022-10-01T15:33	10	8	0.1	8	8	370	0.8	368	371	11.8	90.6
2022-10-01T15:34	10	8	0.1	8	8	370	0.4	369	371	11.8	90.8
2022-10-01T15:35	10	9	0.1	8	9	369	0.8	368	371	11.7	90.8
2022-10-01T15:36	10	9	0.2	9	9	370	0.3	369	370	11.7	91.0
2022-10-01T15:37	10	10	0.5	9	11	370	0.5	368	371	11.7	91.1
2022-10-01T15:38	10	12	0.6	11	13	370	0.6	368	371	11.7	91.2
2022-10-01T15:39	10	14	0.5	13	14	370	0.4	369	371	11.6	91.5
2022-10-01T15:40	10	15	0.3	14	16	370	0.2	370	371	11.6	91.8
2022-10-01T15:41	10	16	0.1	15	16	370	0.9	368	371	11.6	91.8
2022-10-01T15:42	10	16	0.1	15	16	370	0.6	368	371	11.6	91.8
2022-10-01T15:43	10	16	0.4	16	17	370	1.3	367	372	11.6	91.8
2022-10-01T15:44	10	18	0.7	17	20	370	0.8	369	372	11.6	92.0
2022-10-01T15:45	10	20	0.2	20	20	370	0.5	370	371	11.6	92.1
2022-10-01T15:46	10	19	0.7	18	20	371	0.4	370	371	11.6	92.1
2022-10-01T15:47	10	16	0.8	15	18	371	0.5	370	372	11.7	92.3
2022-10-01T15:48	10	15	0.2	14	15	370	0.8	368	371	11.7	92.2
2022-10-01T15:49	10	15	0.1	14	15	370	0.4	370	371	11.7	92.3
2022-10-01T15:50	10	15	0.1	15	15	371	0.6	369	372	11.7	92.4
2022-10-01T15:51	10	15	0.1	14	15	371	0.6	369	372	11.7	92.4
2022-10-01T15:52	10	14	0.4	13	15	371	0.4	370	371	11.7	92.4
2022-10-01T15:53	10	13	0.2	13	14	371	0.4	370	371	11.7	92.4
2022-10-01T15:54	10	12	0.4	12	13	370	0.6	369	371	11.7	92.4
2022-10-01T15:55	10	11	0.5	10	12	370	0.9	368	372	11.7	92.4
2022-10-01T15:56	10	9	0.4	8	10	370	0.4	369	371	11.7	92.4
2022-10-01T15:57	10	8	0.1	8	8	370	1.4	367	371	11.7	92.4
2022-10-01T15:58	10	8	0.2	8	9	370	0.4	369	371	11.7	92.4
2022-10-01T15:59	10	9	0.1	9	9	370	0.6	369	371	11.7	92.2
2022-10-01T16:00	10	9	0.2	8	9	369	1.1	368	372	11.8	91.8
2022-10-01T16:01	10	9	0.1	8	9	370	0.9	368	371	11.7	91.7
2022-10-01T16:02	10	8	0.2	8	9	370	0.4	368	370	11.7	91.9
2022-10-01T16:03	10	8	0.2	8	8	369	0.9	368	371	11.7	92.1
2022-10-01T16:04	10	8	0.1	7	8	369	0.5	369	370	11.7	92.0
2022-10-01T16:05	10	7	0.2	7	7	370	0.5	368	370	11.7	92.0
2022-10-01T16:06	10	6	0.2	6	7	369	0.4	368	370	11.7	92.1
2022-10-01T16:07	10	6	0.3	5	6	369	0.6	368	370	11.7	92.4
2022-10-01T16:08	10	5	0.2	5	5	369	0.4	368	370	11.7	92.4
2022-10-01T16:09	10	5	0.1	4	5	369	0.9	367	370	11.7	92.5
2022-10-01T16:10	10	4	0.2	4	5	369	0.7	368	370	11.6	92.8
2022-10-01T16:11	10	3	0.1	3	4	369	0.3	368	370	11.7	93.0
2022-10-01T16:12	10	3	0.1	3	3	369	0.4	368	370	11.7	93.1
2022-10-01T16:13	10	3	0.1	3	4	369	0.4	368	369	11.6	93.2
2022-10-01T16:14	10	4	0.1	3	4	369	0.3	368	370	11.6	93.4
2022-10-01T16:15	10	3	0.1	3	4	369	0.4	368	370	11.6	93.6
2022-10-01T16:16	10	3	0.1	3	4	369	0.2	369	370	11.6	93.8
2022-10-01T16:17	10	3	0.1	3	3	369	0.4	368	370	11.6	93.6
2022-10-01T16:18	10	3	0.1	3	3	369	0.7	367	370	11.6	93.5
2022-10-01T16:19	10	2	0.1	2	3	369	0.4	367	369	11.6	93.6
2022-10-01T16:20	10	2	0.1	2	2	369	0.6	368	370	11.6	93.8
2022-10-01T16:21	10	2	0.1	2	2	369	0.4	368	370	11.6	94.0
2022-10-01T16:22	10	2	0.1	2	2	369	0.6	367	370	11.6	94.1
2022-10-01T16:23	10	2	0.1	2	2	369	0.5	368	370	11.6	94.3
2022-10-01T16:24	10	2	0.1	2	2	369	0.4	368	370	11.6	94.3
2022-10-01T16:25	10	2	0.1	1	2	369	0.6	368	370	11.6	94.2
2022-10-01T16:26	10	1	0.1	1	2	369	0.5	368	370	11.6	94.2
2022-10-01T16:27	10	1	0.1	1	1	369	0.4	368	370	11.6	94.2
2022-10-01T16:28	10	1	0.1	0	1	369	0.3	368	370	11.6	94.4
2022-10-01T16:29	10	0	0.1	0	1	369	0.4	368	370	11.6	94.4
2022-10-01T16:30	10	0	0.1	0	0	369	0.3	368	370	11.6	94.4
2022-10-01T16:31	10	0	0.1	0	1	369	0.3	368	369	11.6	94.4
2022-10-01T16:32	10	1	0.1	0	1	369	0.3	368	369	11.6	94.4
2022-10-01T16:33	10	1	0.1	1	1	369	0.4	368	369	11.6	94.4
2022-10-01T16:34	10	1	0.1	1	1	369	0.8	368	370	11.5	94.5
2022-10-01T16:35	10	1	0.1	1	1	369	0.5	368	370	11.5	94.6
2022-10-01T16:36	10	1	0.1	1	1	369	0.4	368	370	11.6	94.7
2022-10-01T16:37	10	1	0.1	1	1	369	0.3	368	369	11.5	94.8
2022-10-01T16:38	10	0	0.1	0	1	369	0.6	367	370	11.6	94.9
2022-10-01T16:39	10	0	0.1	0	0	369	0.4	368	370	11.6	94.9
2022-10-01T16:40	10	0	0.1	0	0	369	0.4	368	369	11.6	94.9
2022-10-01T16:41	10	0	0.1	0	0	369	0.5	368	370	11.6	94.8
2022-10-01T16:42	10	0	0.1	0	0	369	0.8	367	370	11.6	94.8
2022-10-01T16:43	10	0	0.1	0	0	369	0.4	368	370	11.6	94.8
2022-10-01T16:44	10	0	0.1	0	0	369	0.6	368	370	11.6	94.8
2022-10-01T16:45	10	0	0.1	0	0	369	0.3	368	369	11.6	94.9
2022-10-01T16:46	10	0	0.1	0	0	369	0.6	367	370	11.6	95.0
2022-10-01T16:47	10	0	0.1	0	0	369	0.4	368	370	11.6	95.1
2022-10-01T16:48	10	0	0.1	0	1	369	0.4	368	370	11.6	95.2
2022-10-01T16:49	10	0	0.1	0	1	369	0.4	368	370	11.6	95.3
2022-10-01T16:50	10	0	0.1	0	1	369	0.4	368	370	11.6	95.4
2022-10-01T16:51	10	0	0.1	0	0	369	0.3	368	370	11.6	95.4
2022-10-01T16:52	10	0	0.1	0	0	369	0.4	368	370	11.6	95.4
2022-10-01T16:53	10	0	0.1	0	0	369	0.3	368	370	11.6	95.4
2022-10-01T16:54	10	0	0.1	0	0	369	0.4	368	370	11.6	95.5
2022-10-01T16:55	10	0	0.1	-1	0	369	0.8	367	370	11.6	95.5
2022-10-01T16:56	10	0	0.1	-1	0	369	0.5	368	370	11.7	95.4
2022-10-01T16:57	10	-1	0.1	-1	0	369	0.5	368	370	11.7	95.4
2022-10-01T16:58	10	-1	0.1	-1	0	369	0.4	368	370	11.7	95.3
2022-10-01T16:59	10	-1	0.1	-1	0	369	0.5	368	370	11.7	95.3
2022-10-01T17:00	10	0	0.1	-1	0	369	0.4	368	370	11.7	95.3
2022-10-01T17:01	10	0	0.1	-1	0	369	0.3	368	370	11.7	95.2
2022-10-01T17:02	10	0	0.1	0	0	369	0.4	369	370	11.8	95.1
2022-10-01T17:03	10	0	0.1	0	0	369	0.4	369	370	11.9	94.9
2022-10-01T17:04	10	0	0.1	0	0	369	0.6	368	371	11.9	94.5
2022-10-01T17:05	10	0	0.1	0	0	369	0.3	368	370	11.9	94.1
2022-10-01T17:06	10	0	0.1	0	0	369	0.6	368	370	11.8	94.1
2022-10-01T17:07	10	0	0.1	-1	0	370	0.3	369	370	12.0	94.1
2022-10-01T17:08	10	0	0.1	-1	0	369	0.3	368	370	11.9	93.8
2022-10-01T17:09	10	0	0.1	-1	0	370	0.6	368	371	12.0	93.7
2022-10-01T17:10	10	0	0.1	-1	0	370	0.6	369	371	12.1	93.2
2022-10-01T17:11	10	0	0.1	-1	0	370	0.6	369	371	12.2	92.6
2022-10-01T17:12	10	0	0.1	-1	0	370	0.4	369	371	12.1	92.4
2022-10-01T17:13	10	0	0.1	-1	0	370	0.4	369	371	12.3	92.2
2022-10-01T17:14	10	0	0.1	0	0	370	0.7	368	371	12.3	92.0
2022-10-01T17:15	10	0	0.1	0	0	370	0.5	370	372	12.3	91.6
2022-10-01T17:16	10	0	0.1	0	0	370	0.6	369	371	12.4	91.5
2022-10-01T17:17	10	0	0.1	0	0	371	0.6	369	372	12.5	91.1
2022-10-01T17:18	10	0	0.1	0	0	371	0.5	369	371	12.4	90.8
2022-10-01T17:19	10	0	0.1	0	0	370	0.3	370	371	12.4	90.9
2022-10-01T17:20	10	0	0.1	0	0	371	0.3	370	371	12.4	90.9
2022-10-01T17:21	10	0	0.1	0	0	371	0.7	369	372	12.5	90.8
2022-10-01T17:22	10	0	0.1	0	0	371	0.4	370	372	12.4	90.8
2022-10-01T17:23	10	0	0.1	0	0	371	0.3	370	372	12.5	90.8
2022-10-01T17:24	10	0	0.1	0	0	371	0.3	370	371	12.5	90.7
2022-10-01T17:25	10	0	0.1	0	0	371	0.5	370	372	12.5	90.9
2022-10-01T17:26	10	0	0.1	0	0	371	0.5	370	372	12.5	90.9
2022-10-01T17:27	10	0	0.1	0	0	371	0.7	370	372	12.6	90.8
2022-10-01T17:28	10	0	0.1	0	0	371	0.4	370	372	12.6	90.8
2022-10-01T17:29	10	0	0.1	0	0	371	1.2	369	373	12.7	90.5
2022-10-01T17:30	10	0	0.1	0	0	371	0.5	370	372	12.7	90.5
2022-10-01T17:31	10	0	0.1	0	0	372	0.5	371	372	12.7	90.5
2022-10-01T17:32	10	0	0.1	0	0	371	0.8	369	373	12.7	90.6
2022-10-01T17:33	10	0	0.1	0	0	371	1.2	368	373	12.8	90.6
2022-10-01T17:34	10	0	0.1	0	0	372	0.7	370	373	12.8	90.5
2022-10-01T17:35	10	0	0.1	0	0	372	0.8	370	373	12.9	90.4
2022-10-01T17:36	10	0	0.0	0	0	372	0.8	370	374	13.0	90.1
2022-10-01T17:37	10	0	0.1	0	0	372	0.3	372	373	13.0	89.9
2022-10-01T17:38	10	0	0.1	0	0	372	0.4	371	373	12.9	89.9
2022-10-01T17:39	10	0	0.1	0	0	372	0.3	372	373	12.9	90.1
2022-10-01T17:40	10	0	0.1	0	0	372	0.3	372	373	13.0	90.0
2022-10-01T17:41	10	0	0.1	0	0	373	0.5	372	373	13.0	89.9
2022-10-01T17:42	10	0	0.1	0	0	373	0.5	372	374	13.0	89.9
2022-10-01T17:43	10	0	0.1	0	0	373	0.7	371	374	13.1	89.8
2022-10-01T17:44	10	0	0.1	0	0	373	0.5	372	374	13.1	89.9
2022-10-01T17:45	10	0	0.1	0	0	373	0.8	371	374	13.1	89.7
2022-10-01T17:46	10	0	0.1	0	0	373	0.6	372	375	13.2	89.7
2022-10-01T17:47	10	0	0.1	0	0	374	0.6	372	375	13.2	89.5
2022-10-01T17:48	10	0	0.1	0	1	374	0.4	373	374	13.2	89.5
2022-10-01T17:49	10	0	0.1	0	0	374	0.3	373	374	13.2	89.4
2022-10-01T17:50	10	0	0.1	0	0	374	0.3	373	374	13.3	89.2
2022-10-01T17:51	10	0	0.1	0	0	374	0.4	373	374	13.2	89.3
2022-10-01T17:52	10	0	0.1	0	0	374	0.6	372	375	13.3	89.4
2022-10-01T17:53	10	0	0.1	0	0	374	0.4	373	375	13.3	89.4
2022-10-01T17:54	10	0	0.1	0	0	374	0.3	373	375	13.3	89.3
2022-10-01T17:55	10	0	0.1	0	0	374	0.3	373	374	13.3	89.4
2022-10-01T17:56	10	0	0.1	0	0	374	0.4	373	375	13.3	89.3
2022-10-01T17:57	10	0	0.0	0	0	374	0.3	374	375	13.4	89.2
2022-10-01T17:58	10	0	0.1	0	0	374	0.2	374	375	13.3	89.1
2022-10-01T17:59	10	0	0.1	0	0	374	0.3	374	375	13.3	89.3
2022-10-01T18:00	10	0	0.1	0	0	374	0.2	374	375	13.4	89.2
2022-10-01T18:01	10	0	0.0	0	0	374	0.2	374	375	13.4	88.9
2022-10-01T18:02	10	0	0.1	0	0	374	0.3	374	375	13.3	89.1
2022-10-01T18:03	10	0	0.1	0	0	374	0.3	374	375	13.3	89.3
2022-10-01T18:04	10	0	0.1	0	0	374	0.3	374	375	13.3	89.4
2022-10-01T18:05	10	0	0.1	0	0	375	0.2	374	375	13.3	89.3
2022-10-01T18:06	10	0	0.1	0	0	374	0.3	374	375	13.3	89.4
2022-10-01T18:07	10	0	0.0	0	0	374	0.3	374	375	13.3	89.4
2022-10-01T18:08	10	0	0.1	0	0	374	0.3	374	375	13.3	89.5
2022-10-01T18:09	10	0	0.0	0	0	374	0.3	374	375	13.2	89.7
2022-10-01T18:10	10	0	0.1	0	0	374	0.4	374	375	13.3	89.8
2022-10-01T18:11	10	0	0.1	0	0	375	0.3	374	375	13.3	89.6
2022-10-01T18:12	10	0	0.1	0	0	374	0.5	373	375	13.3	89.4
2022-10-01T18:13	10	0	0.0	0	0	374	0.4	373	375	13.3	89.6
2022-10-01T18:14	10	0	0.1	-1	0	375	0.3	374	375	13.3	89.8
2022-10-01T18:15	10	0	0.1	-1	0	375	0.3	374	376	13.3	89.8
2022-10-01T18:16	10	0	0.1	-1	0	375	0.4	374	376	13.4	89.6
2022-10-01T18:17	10	0	0.1	0	0	375	0.5	374	375	13.4	89.6
2022-10-01T18:18	10	0	0.1	0	0	375	0.5	374	376	13.4	89.9
2022-10-01T18:19	10	0	0.1	0	0	375	0.5	374	376	13.4	90.2
2022-10-01T18:20	10	0	0.1	-1	0	375	0.5	374	376	13.4	90.4
2022-10-01T18:21	10	-1	0.1	-1	0	375	0.3	374	375	13.3	90.6
2022-10-01T18:22	10	-1	0.1	-1	0	375	0.5	374	376	13.3	90.9
2022-10-01T18:23	10	-1	0.1	-1	-1	375	0.5	374	376	13.3	91.1
2022-10-01T18:24	10	-1	0.1	-1	0	375	0.2	374	376	13.3	91.3
2022-10-01T18:25	10	-1	0.1	-1	0	375	0.4	374	376	13.4	91.3
2022-10-01T18:26	10	-1	0.1	-1	0	376	0.4	375	376	13.5	91.0
2022-10-01T18:27	10	0	0.1	-1	0	375	0.5	374	376	13.5	90.8
2022-10-01T18:28	10	0	0.1	-1	0	375	0.2	375	376	13.4	91.0
2022-10-01T18:29	10	0	0.1	-1	0	375	0.3	375	376	13.4	91.3
2022-10-01T18:30	10	0	0.1	-1	0	375	0.3	375	376	13.4	91.3
2022-10-01T18:31	10	0	0.1	-1	0	375	0.3	374	376	13.4	91.3
2022-10-01T18:32	10	0	0.1	-1	0	375	0.2	375	376	13.3	91.5
2022-10-01T18:33	10	-1	0.1	-1	0	375	0.3	374	376	13.3	91.7
2022-10-01T18:34	10	-1	0.1	-1	0	375	0.6	374	376	13.4	91.6
2022-10-01T18:35	10	0	0.1	-1	0	375	0.4	375	377	13.4	91.3
2022-10-01T18:36	10	0	0.1	-1	0	375	0.2	375	376	13.4	91.1
2022-10-01T18:37	10	0	0.1	-1	0	375	0.3	374	376	13.4	91.0
2022-10-01T18:38	10	0	0.2	-1	0	375	0.4	375	376	13.4	91.1
2022-10-01T18:39	10	0	0.1	0	0	375	0.4	374	376	13.3	91.1
2022-10-01T18:40	10	0	0.2	-1	0	375	0.3	374	376	13.3	91.3
2022-10-01T18:41	10	0	0.1	0	0	375	0.3	375	376	13.4	91.4
2022-10-01T18:42	10	0	0.1	0	0	375	0.2	375	376	13.4	90.9
2022-10-01T18:43	10	0	0.2	-1	0	375	0.4	374	376	13.4	90.9
2022-10-01T18:44	10	0	0.2	0	0	375	0.3	375	376	13.4	90.9
2022-10-01T18:45	10	0	0.2	-1	0	375	0.3	375	376	13.4	90.6
2022-10-01T18:46	10	0	0.1	0	0	375	0.4	375	376	13.4	90.6
2022-10-01T18:47	10	0	0.1	0	0	375	0.4	374	376	13.4	90.6
2022-10-01T18:48	10	0	0.1	0	0	375	0.3	375	376	13.4	90.7
2022-10-01T18:49	10	0	0.1	0	0	375	0.3	375	376	13.4	90.7
2022-10-01T18:50	10	0	0.1	0	1	375	0.4	375	376	13.4	90.7
2022-10-01T18:51	10	0	0.1	0	0	375	0.2	375	376	13.4	90.7
2022-10-01T18:52	10	0	0.1	0	0	375	0.3	375	376	13.4	90.7
2022-10-01T18:53	10	0	0.1	0	0	375	0.3	374	376	13.4	90.6
2022-10-01T18:54	10	0	0.1	0	0	375	0.3	375	376	13.4	90.7
2022-10-01T18:55	10	0	0.1	0	0	375	0.8	374	376	13.4	90.6
2022-10-01T18:56	10	0	0.1	0	0	375	0.9	373	376	13.4	90.6
2022-10-01T18:57	10	0	0.1	0	0	375	0.6	374	376	13.4	90.6
2022-10-01T18:58	10	0	0.1	0	0	375	0.4	374	376	13.4	90.5
2022-10-01T18:59	10	0	0.1	0	0	375	0.4	374	376	13.4	90.3
2022-10-01T19:00	10	0	0.1	0	1	375	0.3	375	376	13.4	90.3
2022-10-01T19:01	10	0	0.1	0	0	375	0.4	374	376	13.4	90.4
2022-10-01T19:02	10	0	0.1	0	0	375	0.4	374	376	13.4	90.7
2022-10-01T19:03	10	0	0.1	-1	0	375	0.8	373	376	13.4	90.8
2022-10-01T19:04	10	0	0.1	-1	0	375	0.8	374	376	13.4	90.8
2022-10-01T19:05	10	0	0.1	-1	0	375	0.4	374	376	13.4	90.8
2022-10-01T19:06	10	-1	0.1	-1	0	375	0.6	374	376	13.4	90.7
2022-10-01T19:07	10	-1	0.1	-1	0	375	0.9	373	376	13.4	90.9
2022-10-01T19:08	10	-1	0.1	-1	0	375	0.3	374	376	13.4	91.0
2022-10-01T19:09	10	-1	0.1	-1	0	375	0.4	374	376	13.3	91.2
2022-10-01T19:10	10	-1	0.1	-1	0	375	0.7	372	376	13.3	91.3
2022-10-01T19:11	10	-1	0.1	-1	0	375	0.7	374	377	13.3	91.3
2022-10-01T19:12	10	-1	0.1	-1	0	375	0.5	374	376	13.3	91.4
2022-10-01T19:13	10	-1	0.1	-1	0	375	0.5	374	376	13.4	91.4
2022-10-01T19:14	10	0	0.1	-1	0	375	0.4	374	376	13.3	91.4
2022-10-01T19:15	10	0	0.1	0	0	375	0.6	374	376	13.4	91.3
2022-10-01T19:16	10	0	0.1	0	0	375	0.3	374	376	13.4	91.2
2022-10-01T19:17	10	0	0.1	0	0	375	0.5	374	376	13.4	90.9
2022-10-01T19:18	10	0	0.1	0	0	375	0.6	374	377	13.5	90.5
2022-10-01T19:19	10	0	0.1	0	0	375	0.7	374	376	13.5	90.4
2022-10-01T19:20	10	0	0.1	0	0	375	0.2	375	376	13.5	90.3
2022-10-01T19:21	10	0	0.1	0	0	375	0.6	374	376	13.5	90.1
2022-10-01T19:22	10	0	0.1	0	0	375	0.4	374	376	13.5	90.1
2022-10-01T19:23	10	0	0.1	0	0	375	0.3	374	376	13.5	90.2
2022-10-01T19:24	10	0	0.1	0	0	375	0.9	373	376	13.4	90.4
2022-10-01T19:25	10	0	0.1	0	1	375	0.5	374	376	13.5	90.4
2022-10-01T19:26	10	0	0.1	0	0	375	0.6	374	376	13.5	90.2
2022-10-01T19:27	10	0	0.1	0	0	375	0.4	374	376	13.5	90.2
2022-10-01T19:28	10	0	0.1	0	1	375	0.3	375	376	13.6	89.8
2022-10-01T19:29	10	0	0.1	0	0	375	0.3	375	376	13.6	89.3
2022-10-01T19:30	10	0	0.1	0	0	376	0.4	375	376	13.6	89.2
2022-10-01T19:31	10	0	0.1	0	0	376	0.5	375	377	13.6	89.2
2022-10-01T19:32	10	0	0.1	0	1	376	0.3	375	376	13.6	89.2
2022-10-01T19:33	10	0	0.1	0	0	376	0.3	375	376	13.6	89.4
2022-10-01T19:34	10	0	0.1	0	0	376	0.4	375	377	13.6	89.4
2022-10-01T19:35	10	0	0.1	0	1	376	1.2	373	377	13.6	89.3
2022-10-01T19:36	10	0	0.1	0	0	376	0.7	374	377	13.6	89.2
2022-10-01T19:37	10	0	0.1	0	0	376	0.2	375	376	13.6	89.4
2022-10-01T19:38	10	0	0.1	0	0	376	0.4	375	376	13.6	89.5
2022-10-01T19:39	10	0	0.1	0	0	376	0.4	375	377	13.6	89.3
2022-10-01T19:40	10	0	0.1	0	0	376	0.5	375	377	13.6	89.3
2022-10-01T19:41	10	0	0.1	0	0	376	0.3	375	376	13.7	89.3
2022-10-01T19:42	10	0	0.1	0	0	376	0.5	375	377	13.7	89.2
2022-10-01T19:43	10	0	0.1	0	0	376	0.4	375	377	13.7	89.1
2022-10-01T19:44	10	0	0.1	0	1	376	0.5	375	377	13.6	89.1
2022-10-01T19:45	10	0	0.1	0	0	376	0.3	375	377	13.6	89.2
2022-10-01T19:46	10	0	0.1	0	0	376	0.2	376	376	13.6	89.4
2022-10-01T19:47	10	0	0.1	0	0	376	0.2	375	376	13.6	89.6
2022-10-01T19:48	10	0	0.0	0	0	376	0.6	374	377	13.6	89.5
2022-10-01T19:49	10	0	0.1	0	0	376	0.4	375	377	13.6	89.6
2022-10-01T19:50	10	0	0.1	0	0	376	0.4	375	377	13.6	89.3
2022-10-01T19:51	10	0	0.1	0	0	376	0.6	374	377	13.5	89.7
2022-10-01T19:52	10	0	0.1	0	0	376	0.4	375	377	13.4	90.0
2022-10-01T19:53	10	0	0.1	0	0	376	0.4	375	377	13.5	90.1
2022-10-01T19:54	10	0	0.1	0	0	376	0.3	376	377	13.5	90.0
2022-10-01T19:55	10	0	0.0	0	0	376	0.4	375	376	13.4	89.9
2022-10-01T19:56	10	0	0.1	0	0	376	0.4	375	376	13.3	90.3
2022-10-01T19:57	10	0	0.1	0	0	376	0.3	375	376	13.4	90.6
2022-10-01T19:58	10	0	0.1	0	0	375	0.2	375	376	13.3	90.7
2022-10-01T19:59	10	0	0.1	0	0	376	0.3	375	376	13.4	90.8
2022-10-01T20:00	10	0	0.1	0	0	376	0.3	375	377	13.4	90.8
2022-10-01T20:01	10	0	0.1	0	0	376	0.4	375	377	13.4	90.7
2022-10-01T20:02	10	0	0.1	0	0	376	0.3	375	376	13.3	90.9
2022-10-01T20:03	10	0	0.1	0	0	376	0.3	375	376	13.3	91.0
2022-10-01T20:04	10	0	0.1	0	0	376	0.4	375	376	13.3	91.0
2022-10-01T20:05	10	0	0.1	0	0	376	0.2	375	376	13.3	90.8
2022-10-01T20:06	10	0	0.1	0	0	376	0.2	375	376	13.4	90.8
2022-10-01T20:07	10	0	0.1	0	0	375	0.3	375	376	13.4	90.7
2022-10-01T20:08	10	0	0.1	0	0	375	0.4	375	376	13.3	90.9
2022-10-01T20:09	10	0	0.1	0	0	375	0.2	375	376	13.4	91.0
2022-10-01T20:10	10	0	0.1	0	0	375	0.2	375	376	13.3	91.0
2022-10-01T20:11	10	0	0.1	-1	0	375	0.3	375	376	13.3	91.1
2022-10-01T20:12	10	0	0.1	0	0	375	0.3	375	376	13.3	91.3
2022-10-01T20:13	10	0	0.1	-1	0	375	0.2	375	376	13.3	91.5
2022-10-01T20:14	10	0	0.1	-1	0	376	0.3	375	376	13.3	91.7
2022-10-01T20:15	10	0	0.1	-1	0	375	0.4	374	376	13.3	91.8
2022-10-01T20:16	10	-1	0.1	-1	0	375	0.3	375	376	13.3	92.1
2022-10-01T20:17	10	-1	0.1	-1	0	375	0.3	375	376	13.3	92.3
2022-10-01T20:18	10	-1	0.1	-1	-1	375	0.3	375	376	13.2	92.5
2022-10-01T20:19	10	-1	0.1	-1	-1	375	0.4	374	376	13.3	92.8
2022-10-01T20:20	10	-1	0.1	-1	0	375	0.7	374	377	13.3	92.9
2022-10-01T20:21	10	-1	0.1	-1	0	375	0.7	373	376	13.2	93.1
2022-10-01T20:22	10	-1	0.1	-1	0	375	0.5	374	376	13.2	93.4
2022-10-01T20:23	10	-1	0.1	-1	-1	375	0.7	374	377	13.2	93.6
2022-10-01T20:24	10	-1	0.1	-1	-1	375	0.5	375	376	13.2	93.8
2022-10-01T20:25	10	-1	0.1	-1	-1	375	0.3	374	376	13.2	93.9
2022-10-01T20:26	10	-1	0.1	-1	0	376	0.5	374	376	13.2	94.0
2022-10-01T20:27	10	-1	0.1	-1	0	376	0.6	375	377	13.3	94.0
2022-10-01T20:28	10	-1	0.1	-1	0	376	0.3	375	376	13.3	94.0
2022-10-01T20:29	10	-1	0.1	-1	0	376	0.5	375	377	13.3	93.9
2022-10-01T20:30	10	-1	0.1	-1	0	376	0.5	374	376	13.2	94.0
2022-10-01T20:31	10	-1	0.1	-1	0	376	0.3	375	376	13.3	94.1
2022-10-01T20:32	10	-1	0.1	-1	0	375	0.3	375	376	13.2	94.2
2022-10-01T20:33	10	-1	0.1	-1	0	376	0.5	375	376	13.2	94.3
2022-10-01T20:34	10	-1	0.0	-1	0	376	0.4	375	377	13.2	94.4
2022-10-01T20:35	10	-1	0.1	-1	0	375	0.3	375	376	13.2	94.5
2022-10-01T20:36	10	-1	0.1	-1	0	376	0.9	373	376	13.2	94.7
2022-10-01T20:37	10	0	0.1	-1	0	375	0.7	374	377	13.2	94.8
2022-10-01T20:38	10	-1	0.1	-1	0	376	0.6	374	377	13.2	94.9
2022-10-01T20:39	10	-1	0.1	-1	0	376	0.5	375	377	13.2	95.0
2022-10-01T20:40	10	-1	0.1	-1	0	376	0.4	375	377	13.2	95.0
2022-10-01T20:41	10	0	0.1	-1	0	376	0.4	375	376	13.2	95.0
2022-10-01T20:42	10	0	0.1	-1	0	376	0.6	374	376	13.1	95.1
2022-10-01T20:43	10	0	0.0	-1	0	376	0.7	374	377	13.2	95.2
2022-10-01T20:44	10	0	0.1	-1	0	375	0.7	374	377	13.1	95.3
2022-10-01T20:45	10	0	0.1	-1	0	376	0.6	374	377	13.2	95.3
2022-10-01T20:46	10	0	0.1	-1	0	376	0.7	374	377	13.2	95.4
2022-10-01T20:47	10	0	0.1	-1	0	376	0.5	375	377	13.3	95.2
2022-10-01T20:48	10	0	0.1	0	0	376	0.5	375	377	13.3	95.1
2022-10-01T20:49	10	0	0.0	0	0	376	0.4	375	377	13.3	95.1
2022-10-01T20:50	10	0	0.1	-1	0	376	0.3	375	377	13.2	95.1
2022-10-01T20:51	10	0	0.1	0	0	376	0.3	375	376	13.2	95.2
2022-10-01T20:52	10	0	0.1	-1	0	376	0.3	375	377	13.3	95.2
2022-10-01T20:53	10	0	0.1	-1	0	376	0.3	375	376	13.3	95.1
2022-10-01T20:54	10	0	0.1	-1	0	376	0.5	375	377	13.3	95.1
2022-10-01T20:55	10	0	0.1	-1	0	376	0.6	375	377	13.4	95.1
2022-10-01T20:56	10	0	0.1	0	0	376	0.3	375	377	13.4	95.0
2022-10-01T20:57	10	0	0.1	0	0	376	0.3	376	377	13.4	94.9
2022-10-01T20:58	10	0	0.1	0	0	376	0.5	376	377	13.5	94.9
2022-10-01T20:59	10	0	0.1	0	0	376	0.4	376	377	13.5	94.6
2022-10-01T21:00	10	0	0.1	0	0	376	0.2	376	377	13.4	94.6
2022-10-01T21:01	10	0	0.1	0	0	376	0.5	375	377	13.4	94.6
2022-10-01T21:02	10	0	0.1	0	0	376	0.4	375	377	13.4	94.7
2022-10-01T21:03	10	0	0.1	0	0	376	0.3	376	377	13.5	94.6
2022-10-01T21:04	10	0	0.1	0	0	376	0.3	376	377	13.5	94.4
2022-10-01T21:05	10	0	0.1	0	0	377	0.2	376	377	13.5	94.4
2022-10-01T21:06	10	0	0.1	0	0	377	0.4	376	377	13.6	94.3
2022-10-01T21:07	10	0	0.1	0	0	377	0.2	376	377	13.5	94.1
2022-10-01T21:08	10	0	0.1	0	0	377	0.5	375	377	13.6	94.2
2022-10-01T21:09	10	0	0.1	0	0	377	0.3	376	377	13.6	94.1
2022-10-01T21:10	10	0	0.1	0	0	377	0.3	376	377	13.6	94.0
2022-10-01T21:11	10	0	0.1	0	0	377	0.2	376	377	13.6	93.9
2022-10-01T21:12	10	0	0.1	0	0	377	0.4	376	378	13.6	93.8
2022-10-01T21:13	10	0	0.1	0	0	377	0.3	376	378	13.6	93.8
2022-10-01T21:14	10	0	0.1	0	0	377	0.3	376	377	13.6	93.9
2022-10-01T21:15	10	0	0.1	0	0	377	0.2	376	377	13.6	94.0
2022-10-01T21:16	10	0	0.1	0	0	377	0.6	376	378	13.6	94.0
2022-10-01T21:17	10	0	0.1	0	0	377	0.5	376	378	13.6	93.9
2022-10-01T21:18	10	0	0.1	0	0	377	0.3	377	378	13.6	93.8
2022-10-01T21:19	10	0	0.1	0	0	377	0.4	376	378	13.7	93.7
2022-10-01T21:20	10	0	0.1	0	1	377	0.3	376	378	13.6	93.6
2022-10-01T21:21	10	0	0.0	0	0	377	0.5	376	378	13.6	93.6
2022-10-01T21:22	10	0	0.1	0	0	377	0.4	376	378	13.6	93.5
2022-10-01T21:23	10	0	0.0	0	0	377	0.3	377	378	13.6	93.6
2022-10-01T21:24	10	0	0.0	0	0	377	0.6	376	378	13.6	93.6
2022-10-01T21:25	10	0	0.1	0	0	377	0.3	377	378	13.6	93.6
2022-10-01T21:26	10	0	0.1	0	0	377	0.3	377	378	13.6	93.7
2022-10-01T21:27	10	0	0.1	0	0	377	0.4	376	378	13.6	93.8
2022-10-01T21:28	10	0	0.1	0	0	377	0.2	377	377	13.5	93.9
2022-10-01T21:29	10	0	0.1	0	0	377	0.4	376	378	13.6	93.9
2022-10-01T21:30	10	0	0.1	0	0	377	0.4	376	377	13.6	94.0
2022-10-01T21:31	10	0	0.1	0	0	377	0.4	376	377	13.5	94.0
2022-10-01T21:32	10	0	0.1	0	0	377	0.6	375	378	13.5	94.1
2022-10-01T21:33	10	0	0.1	0	0	377	0.3	376	378	13.5	94.2
2022-10-01T21:34	10	0	0.1	0	0	377	0.7	375	378	13.5	94.3
2022-10-01T21:35	10	0	0.1	0	0	377	0.5	376	378	13.5	94.3
2022-10-01T21:36	10	0	0.1	0	0	377	0.7	375	378	13.5	94.4
2022-10-01T21:37	10	0	0.1	0	0	377	0.4	376	378	13.5	94.4
2022-10-01T21:38	10	0	0.1	0	0	377	0.4	376	377	13.5	94.5
2022-10-01T21:39	10	0	0.1	0	0	377	0.8	375	378	13.5	94.4
2022-10-01T21:40	10	0	0.1	0	0	377	1.1	374	378	13.5	94.4
2022-10-01T21:41	10	0	0.1	0	0	377	0.4	376	377	13.5	94.4
2022-10-01T21:42	10	0	0.1	0	0	376	0.3	376	377	13.4	94.5
2022-10-01T21:43	10	0	0.0	0	0	377	0.4	376	377	13.6	94.6
2022-10-01T21:44	10	0	0.1	0	0	377	0.4	376	378	13.6	94.3
2022-10-01T21:45	10	0	0.1	0	0	377	0.3	376	377	13.6	94.0
2022-10-01T21:46	10	0	0.1	0	0	377	0.4	376	378	13.6	93.9
2022-10-01T21:47	10	0	0.1	0	1	377	0.4	376	378	13.6	93.8
2022-10-01T21:48	10	0	0.1	0	0	377	0.3	376	377	13.6	93.8
2022-10-01T21:49	10	0	0.1	0	0	377	0.6	376	378	13.6	93.9
2022-10-01T21:50	10	0	0.0	0	0	377	0.3	376	378	13.5	94.0
2022-10-01T21:51	10	0	0.1	0	0	377	0.5	376	378	13.6	94.2
2022-10-01T21:52	10	0	0.1	0	0	377	0.2	376	377	13.6	94.2
2022-10-01T21:53	10	0	0.1	0	0	376	0.4	375	377	13.6	94.1
2022-10-01T21:54	10	0	0.1	0	0	376	0.6	375	377	13.5	94.2
2022-10-01T21:55	10	0	0.1	0	0	376	0.2	376	377	13.5	94.2
2022-10-01T21:56	10	0	0.1	0	0	376	0.5	375	377	13.5	94.3
2022-10-01T21:57	10	0	0.1	0	0	376	0.5	375	377	13.5	94.3
2022-10-01T21:58	10	0	0.1	0	0	376	0.6	375	377	13.6	94.3
2022-10-01T21:59	10	0	0.0	0	0	376	0.3	375	376	13.7	94.1
2022-10-01T22:00	10	0	0.1	0	0	376	0.2	375	376	13.6	93.8
2022-10-01T22:01	10	0	0.1	0	0	375	0.3	375	376	13.7	93.8
2022-10-01T22:02	10	0	0.0	0	0	376	0.4	375	377	13.7	93.6
2022-10-01T22:03	10	0	0.1	0	0	376	0.3	375	377	13.8	93.3
2022-10-01T22:04	10	0	0.1	0	0	376	0.4	375	377	13.8	93.1
2022-10-01T22:05	10	0	0.1	0	0	376	0.5	375	377	13.7	93.0
2022-10-01T22:06	10	0	0.1	0	0	376	0.4	375	377	13.8	93.0
2022-10-01T22:07	10	0	0.1	0	0	375	0.7	374	376	13.7	93.0
2022-10-01T22:08	10	0	0.1	0	0	374	0.4	373	375	13.7	93.1
2022-10-01T22:09	10	0	0.1	0	0	374	0.5	373	375	13.7	93.1
2022-10-01T22:10	10	0	0.1	0	0	374	0.6	372	375	13.8	93.0
2022-10-01T22:11	10	0	0.1	0	0	374	0.4	374	375	13.8	92.8
2022-10-01T22:12	10	0	0.1	0	0	375	0.5	374	376	13.8	92.6
2022-10-01T22:13	10	0	0.1	0	0	375	0.5	374	376	13.9	92.4
2022-10-01T22:14	10	0	0.1	0	0	375	0.3	375	376	13.9	92.1
2022-10-01T22:15	10	0	0.0	0	0	375	0.3	375	376	13.8	92.3
2022-10-01T22:16	10	0	0.0	0	0	375	0.4	375	376	13.9	92.4
2022-10-01T22:17	10	0	0.1	0	0	375	0.3	375	376	13.8	92.4
2022-10-01T22:18	10	0	0.1	0	0	375	0.3	375	376	13.8	92.4
2022-10-01T22:19	10	0	0.1	0	0	376	0.3	375	376	13.8	92.4
2022-10-01T22:20	10	0	0.1	0	0	376	0.3	375	376	13.8	92.4
2022-10-01T22:21	10	0	0.1	0	0	375	0.2	375	376	13.8	92.4
2022-10-01T22:22	10	0	0.1	0	0	375	0.3	375	376	13.8	92.3
2022-10-01T22:23	10	0	0.1	0	0	375	0.5	373	376	13.8	92.4
2022-10-01T22:24	10	0	0.1	0	0	375	0.4	374	376	13.7	92.5
2022-10-01T22:25	10	0	0.1	0	0	375	0.2	375	376	13.7	92.6
2022-10-01T22:26	10	0	0.1	0	0	376	0.3	375	377	13.9	92.6
2022-10-01T22:27	10	0	0.0	0	0	376	0.4	376	377	13.8	92.3
2022-10-01T22:28	10	0	0.1	0	0	377	0.3	376	377	13.8	92.3
2022-10-01T22:29	10	0	0.1	0	0	377	0.4	376	377	13.8	92.4
2022-10-01T22:30	10	0	0.1	0	0	376	0.3	376	377	13.7	92.5
2022-10-01T22:31	10	0	0.1	0	0	376	0.3	376	377	13.7	92.7
2022-10-01T22:32	10	0	0.1	0	0	376	0.3	376	377	13.6	92.9
2022-10-01T22:33	10	0	0.1	0	0	376	0.3	376	377	13.7	93.0
2022-10-01T22:34	10	0	0.1	0	0	376	0.7	375	377	13.7	93.1
2022-10-01T22:35	10	0	0.1	0	0	377	0.4	376	377	13.6	93.1
2022-10-01T22:36	10	0	0.1	0	0	377	0.3	376	378	13.7	93.2
2022-10-01T22:37	10	0	0.1	0	0	377	0.3	376	378	13.7	93.1
2022-10-01T22:38	10	0	0.1	0	0	377	0.5	376	378	13.7	93.1
2022-10-01T22:39	10	0	0.1	0	0	377	0.5	376	378	13.7	93.2
2022-10-01T22:40	10	0	0.1	0	0	377	0.4	377	378	13.8	93.3
2022-10-01T22:41	10	0	0.1	0	0	378	0.4	377	378	13.8	93.2
2022-10-01T22:42	10	0	0.0	0	0	378	0.3	377	378	13.8	93.0
2022-10-01T22:43	10	0	0.1	0	0	378	0.3	377	378	13.8	93.0
2022-10-01T22:44	10	0	0.1	0	0	378	0.3	377	379	13.8	93.0
2022-10-01T22:45	10	0	0.1	0	0	378	0.4	377	379	13.8	93.1
2022-10-01T22:46	10	0	0.1	0	0	378	0.3	377	378	13.8	93.0
2022-10-01T22:47	10	0	0.0	0	0	378	0.4	377	379	13.9	93.1
2022-10-01T22:48	10	0	0.1	0	0	378	0.5	378	379	14.0	93.1
2022-10-01T22:49	10	0	0.1	0	0	378	0.4	378	379	14.0	92.9
2022-10-01T22:50	10	0	0.1	0	1	378	0.2	378	378	13.9	92.8
2022-10-01T22:51	10	0	0.1	0	1	378	0.3	377	379	13.9	92.9
2022-10-01T22:52	10	0	0.1	0	1	378	0.5	377	379	13.9	93.1
2022-10-01T22:53	10	0	0.1	0	1	378	0.3	377	378	13.9	93.1
2022-10-01T22:54	10	0	0.1	0	1	378	0.3	377	379	13.9	93.1
2022-10-01T22:55	10	0	0.1	0	1	378	0.3	377	378	13.9	93.3
2022-10-01T22:56	10	0	0.1	0	1	378	0.2	377	378	13.8	93.4
2022-10-01T22:57	10	0	0.1	0	1	378	0.2	377	378	13.9	93.6
2022-10-01T22:58	10	0	0.1	0	0	377	0.5	377	378	13.9	93.5
2022-10-01T22:59	10	0	0.1	0	0	377	0.4	376	378	13.9	93.5
2022-10-01T23:00	10	0	0.1	0	0	377	0.4	376	378	13.9	93.6
2022-10-01T23:01	10	0	0.1	0	0	376	0.3	375	377	13.9	93.5
2022-10-01T23:02	10	0	0.1	0	0	376	0.2	375	376	13.9	93.5
2022-10-01T23:03	10	0	0.1	0	0	375	0.3	375	376	13.9	93.6
2022-10-01T23:04	10	0	0.1	0	0	375	0.3	374	376	13.9	93.6
2022-10-01T23:05	10	0	0.1	0	0	376	0.5	375	377	14.0	93.6
2022-10-01T23:06	10	0	0.1	0	0	377	0.3	376	377	14.0	93.5
2022-10-01T23:07	10	0	0.1	0	0	377	0.4	376	378	14.0	93.4
2022-10-01T23:08	10	0	0.1	0	0	377	0.3	377	378	14.0	93.3
2022-10-01T23:09	10	0	0.1	0	0	377	0.3	377	378	14.0	93.2
2022-10-01T23:10	10	0	0.1	0	0	377	0.5	376	378	14.0	93.2
2022-10-01T23:11	10	0	0.1	0	0	377	0.3	377	378	14.1	93.2
2022-10-01T23:12	10	0	0.1	0	0	377	0.5	375	378	14.0	93.1
2022-10-01T23:13	10	0	0.1	0	0	376	0.3	376	377	13.9	93.3
2022-10-01T23:14	10	0	0.1	0	0	376	0.3	375	376	13.9	93.4
2022-10-01T23:15	10	0	0.1	0	0	376	0.3	375	376	13.9	93.5
2022-10-01T23:16	10	0	0.1	0	0	375	0.3	375	376	13.9	93.5
2022-10-01T23:17	10	0	0.1	0	0	375	0.4	374	376	13.9	93.5
2022-10-01T23:18	10	0	0.1	0	0	375	0.4	374	376	13.9	93.7
2022-10-01T23:19	10	0	0.1	0	0	376	0.3	375	377	14.0	93.6
2022-10-01T23:20	10	0	0.1	0	0	377	0.4	376	377	14.0	93.5
2022-10-01T23:21	10	0	0.1	0	0	377	0.3	376	378	14.0	93.3
2022-10-01T23:22	10	0	0.1	0	0	377	0.3	376	378	14.0	93.2
2022-10-01T23:23	10	0	0.1	0	1	377	0.4	376	378	13.9	93.3
2022-10-01T23:24	10	0	0.1	0	0	377	0.3	377	378	13.9	93.4
2022-10-01T23:25	10	0	0.1	0	0	377	0.3	377	378	13.9	93.4
2022-10-01T23:26	10	0	0.1	0	0	378	0.3	377	378	14.0	93.4
2022-10-01T23:27	10	0	0.1	0	0	377	0.4	376	378	14.0	93.4
2022-10-01T23:28	10	0	0.1	0	0	377	0.2	377	378	14.0	93.4
2022-10-01T23:29	10	0	0.1	0	1	378	0.3	377	378	14.0	93.3
2022-10-01T23:30	10	0	0.1	0	0	378	0.3	377	378	14.1	93.3
2022-10-01T23:31	10	0	0.1	0	1	378	0.4	377	379	14.0	93.2
2022-10-01T23:32	10	0	0.1	0	1	378	0.3	377	378	14.0	93.3
2022-10-01T23:33	10	0	0.1	0	1	378	0.4	376	378	14.0	93.3
2022-10-01T23:34	10	0	0.1	0	0	378	0.4	377	379	14.1	93.3
2022-10-01T23:35	10	0	0.1	0	1	378	0.3	377	379	14.1	93.1
2022-10-01T23:36	10	0	0.1	0	1	378	0.3	378	379	14.1	93.2
2022-10-01T23:37	10	0	0.1	0	1	378	0.3	377	379	14.1	93.1
2022-10-01T23:38	10	0	0.1	0	1	378	0.2	378	379	14.1	93.0
2022-10-01T23:39	10	0	0.1	0	1	378	0.2	378	379	14.1	93.0
2022-10-01T23:40	10	0	0.1	0	1	378	0.2	377	378	14.1	93.0
2022-10-01T23:41	10	0	0.1	0	1	377	0.3	377	378	14.1	93.1
2022-10-01T23:42	10	0	0.1	0	1	377	0.4	376	378	14.1	92.9
2022-10-01T23:43	10	0	0.1	0	1	376	0.4	376	377	14.1	93.0
2022-10-01T23:44	10	0	0.1	0	1	377	0.4	376	377	14.1	93.0
2022-10-01T23:45	10	0	0.1	0	1	377	0.5	376	378	14.1	93.0
2022-10-01T23:46	10	0	0.1	0	0	376	0.4	376	377	14.1	92.9
2022-10-01T23:47	10	0	0.1	0	0	376	0.3	375	377	14.1	92.9
2022-10-01T23:48	10	0	0.1	0	0	376	0.2	376	377	14.1	92.9
2022-10-01T23:49	10	0	0.1	0	1	376	0.3	375	377	14.1	92.9
2022-10-01T23:50	10	0	0.1	0	0	376	0.4	375	377	14.1	92.8
2022-10-01T23:51	10	0	0.1	0	0	376	0.3	375	377	14.2	92.8
2022-10-01T23:52	10	0	0.1	0	0	376	0.2	375	376	14.1	92.8
2022-10-01T23:53	10	0	0.1	0	0	376	0.2	375	376	14.1	92.8
2022-10-01T23:54	10	0	0.1	0	0	376	0.4	375	376	14.1	92.8
2022-10-01T23:55	10	0	0.1	0	0	376	0.3	375	376	14.2	92.8
2022-10-01T23:56	10	0	0.1	0	0	376	0.4	375	377	14.1	92.8
2022-10-01T23:57	10	0	0.1	0	0	376	0.2	375	377	14.1	92.9
2022-10-01T23:58	10	0	0.1	0	0	376	0.4	376	377	14.1	92.9
2022-10-01T23:59	10	0	0.1	0	0	376	0.4	376	377	14.1	93.0
2022-10-02T00:00	10	0	0.1	0	0	377	0.3	376	377	14.1	93.1
2022-10-02T00:01	10	0	0.1	0	0	377	0.5	376	378	14.1	93.1
2022-10-02T00:02	10	0	0.1	0	0	377	0.4	376	377	14.1	93.1
2022-10-02T00:03	10	0	0.1	0	0	377	0.4	375	377	14.1	93.2
2022-10-02T00:04	10	0	0.1	0	0	377	0.4	376	378	14.1	93.2
2022-10-02T00:05	10	0	0.1	0	0	377	0.4	377	378	14.1	93.2
2022-10-02T00:06	10	0	0.1	0	0	377	0.2	377	378	14.1	93.3
2022-10-02T00:07	10	0	0.1	0	0	378	0.4	377	379	14.2	93.3
2022-10-02T00:08	10	0	0.1	0	0	377	0.2	377	378	14.1	93.1
2022-10-02T00:09	10	0	0.1	0	0	377	0.3	376	378	14.1	93.2
2022-10-02T00:10	10	0	0.1	0	0	377	0.2	377	378	14.1	93.3
2022-10-02T00:11	10	0	0.1	0	0	377	0.2	377	378	14.1	93.4
2022-10-02T00:12	10	0	0.1	0	0	377	0.3	377	378	14.0	93.5
2022-10-02T00:13	10	0	0.1	0	0	377	0.4	376	378	14.1	93.6
2022-10-02T00:14	10	0	0.1	0	0	377	0.3	376	377	14.0	93.6
2022-10-02T00:15	10	0	0.1	0	0	376	0.3	375	377	14.0	93.7
2022-10-02T00:16	10	0	0.1	0	0	376	0.2	375	376	14.0	93.8
2022-10-02T00:17	10	0	0.1	0	0	376	0.2	375	376	14.0	93.8
2022-10-02T00:18	10	0	0.1	0	0	376	0.4	375	376	14.1	93.8
2022-10-02T00:19	10	0	0.1	0	0	376	0.3	375	376	14.1	93.7
2022-10-02T00:20	10	0	0.1	0	0	375	0.3	375	376	14.1	93.7
2022-10-02T00:21	10	0	0.1	0	0	376	0.3	375	376	14.1	93.7
2022-10-02T00:22	10	0	0.1	0	0	376	0.2	375	376	14.1	93.6
2022-10-02T00:23	10	0	0.1	0	0	376	0.4	375	377	14.2	93.6
2022-10-02T00:24	10	0	0.1	0	0	377	0.4	376	378	14.3	93.4
2022-10-02T00:25	10	0	0.1	0	0	378	0.7	376	379	14.3	93.2
2022-10-02T00:26	10	0	0.1	0	0	378	0.3	377	379	14.3	93.1
2022-10-02T00:27	10	0	0.1	0	0	378	0.4	377	379	14.2	93.0
2022-10-02T00:28	10	0	0.1	0	0	378	0.3	377	379	14.2	93.0
2022-10-02T00:29	10	0	0.1	0	1	378	0.3	377	379	14.3	93.0
2022-10-02T00:30	10	0	0.1	0	1	378	0.3	377	379	14.3	92.9
2022-10-02T00:31	10	0	0.1	0	1	378	0.3	377	379	14.3	92.9
2022-10-02T00:32	10	0	0.1	0	1	378	0.3	378	379	14.4	92.7
2022-10-02T00:33	10	0	0.1	0	1	378	0.3	377	379	14.4	92.5
2022-10-02T00:34	10	0	0.1	0	1	378	0.4	378	379	14.4	92.2
2022-10-02T00:35	10	0	0.1	0	1	379	0.5	378	380	14.4	92.3
2022-10-02T00:36	10	0	0.1	0	1	379	0.2	378	379	14.5	92.2
2022-10-02T00:37	10	0	0.1	0	1	379	0.2	379	380	14.5	92.2
2022-10-02T00:38	10	0	0.1	0	1	380	0.5	379	381	14.5	92.0
2022-10-02T00:39	10	1	0.1	0	1	380	0.3	379	380	14.6	91.8
2022-10-02T00:40	10	1	0.1	0	1	380	0.4	379	380	14.5	91.8
2022-10-02T00:41	10	1	0.1	0	1	380	0.4	379	380	14.6	91.8
2022-10-02T00:42	10	1	0.1	0	1	380	0.2	379	380	14.6	91.6
2022-10-02T00:43	10	0	0.1	0	1	380	0.2	379	380	14.6	91.6
2022-10-02T00:44	10	1	0.1	0	1	380	0.6	378	381	14.6	91.7
2022-10-02T00:45	10	0	0.1	0	1	380	0.3	379	381	14.7	91.6
2022-10-02T00:46	10	1	0.1	0	1	380	0.3	379	380	14.6	91.5
2022-10-02T00:47	10	1	0.1	0	1	380	0.4	379	380	14.5	91.6
2022-10-02T00:48	10	0	0.1	0	1	380	0.3	379	381	14.5	91.9
2022-10-02T00:49	10	0	0.1	0	1	380	0.2	380	381	14.6	91.9
2022-10-02T00:50	10	0	0.1	0	1	380	0.3	380	381	14.7	91.7
2022-10-02T00:51	10	0	0.1	0	1	381	0.5	379	381	14.7	91.7
2022-10-02T00:52	10	1	0.1	0	1	381	0.3	380	381	14.7	91.5
2022-10-02T00:53	10	1	0.1	0	1	381	0.3	380	381	14.7	91.5
2022-10-02T00:54	10	1	0.1	0	1	381	0.2	380	381	14.7	91.4
2022-10-02T00:55	10	1	0.1	0	1	381	0.3	380	381	14.7	91.5
2022-10-02T00:56	10	1	0.1	0	1	381	0.3	380	381	14.7	91.4
2022-10-02T00:57	10	0	0.1	0	1	381	0.3	380	381	14.7	91.6
2022-10-02T00:58	10	0	0.1	0	1	381	0.5	380	381	14.7	91.6
2022-10-02T00:59	10	0	0.1	0	1	381	0.3	380	382	14.7	91.7
2022-10-02T01:00	10	0	0.1	0	1	381	0.2	380	381	14.6	91.9
2022-10-02T01:01	10	0	0.1	0	1	381	0.3	380	381	14.7	91.9
2022-10-02T01:02	10	0	0.1	0	1	381	0.5	380	382	14.8	91.5
2022-10-02T01:03	10	0	0.1	0	1	381	0.3	380	381	14.7	91.5
2022-10-02T01:04	10	0	0.1	0	1	381	0.5	380	382	14.7	91.8
2022-10-02T01:05	10	0	0.1	0	1	381	0.3	381	382	14.7	91.7
2022-10-02T01:06	10	0	0.1	0	1	381	0.3	380	382	14.8	91.4
2022-10-02T01:07	10	0	0.1	0	1	381	0.4	380	382	14.8	91.3
2022-10-02T01:08	10	1	0.1	0	1	381	0.4	380	382	14.9	91.1
2022-10-02T01:09	10	1	0.1	0	1	381	0.3	381	382	14.8	91.0
2022-10-02T01:10	10	1	0.1	0	1	381	0.3	381	382	14.8	91.0
2022-10-02T01:11	10	1	0.1	0	1	381	0.3	380	382	14.9	90.8
2022-10-02T01:12	10	0	0.1	0	1	381	0.3	381	382	14.9	90.5
2022-10-02T01:13	10	1	0.1	0	1	381	0.4	380	382	14.9	90.6
2022-10-02T01:14	10	1	0.1	0	1	381	0.4	380	382	14.8	90.8
2022-10-02T01:15	10	0	0.1	0	1	382	0.3	381	382	14.9	90.8
2022-10-02T01:16	10	0	0.1	0	1	382	0.2	381	382	14.9	90.6
2022-10-02T01:17	10	0	0.1	0	1	382	0.3	381	382	14.8	90.7
2022-10-02T01:18	10	0	0.1	0	1	381	0.3	381	382	14.8	90.8
2022-10-02T01:19	10	0	0.1	0	1	381	0.2	381	382	14.8	90.9
2022-10-02T01:20	10	0	0.1	0	1	382	0.3	381	382	14.7	91.1
2022-10-02T01:21	10	0	0.1	0	1	382	0.4	381	383	14.8	91.0
2022-10-02T01:22	10	0	0.1	0	1	382	0.3	381	382	14.7	91.0
2022-10-02T01:23	10	0	0.1	0	1	382	0.4	381	383	14.8	91.0
2022-10-02T01:24	10	0	0.1	0	1	382	0.4	381	383	14.8	90.8
2022-10-02T01:25	10	0	0.1	0	1	382	0.3	381	382	14.8	90.9
2022-10-02T01:26	10	0	0.1	0	0	381	0.3	381	382	14.8	90.9
2022-10-02T01:27	10	0	0.1	0	0	381	0.2	381	382	14.7	91.2
2022-10-02T01:28	10	0	0.1	0	0	381	0.3	381	382	14.8	91.2
2022-10-02T01:29	10	0	0.1	0	1	382	0.3	381	382	14.8	90.9
2022-10-02T01:30	10	0	0.1	0	0	381	0.3	381	382	14.7	91.1
2022-10-02T01:31	10	0	0.1	0	0	381	0.3	381	382	14.8	91.2
2022-10-02T01:32	10	0	0.1	0	0	381	0.5	381	383	14.7	91.0
2022-10-02T01:33	10	0	0.1	0	0	381	0.3	381	382	14.7	91.1
2022-10-02T01:34	10	0	0.1	0	0	382	0.3	381	382	14.7	91.2
2022-10-02T01:35	10	0	0.1	0	0	381	0.2	381	382	14.7	91.4
2022-10-02T01:36	10	0	0.1	0	0	381	0.3	381	382	14.8	91.3
2022-10-02T01:37	10	0	0.1	0	0	382	0.3	381	382	14.7	91.2
2022-10-02T01:38	10	0	0.1	0	0	382	0.4	381	382	14.8	91.4
2022-10-02T01:39	10	0	0.1	0	0	382	0.4	381	382	14.8	91.4
2022-10-02T01:40	10	0	0.1	0	0	382	0.3	381	382	14.8	91.3
2022-10-02T01:41	10	0	0.1	0	0	381	0.3	381	382	14.7	91.4
2022-10-02T01:42	10	0	0.1	0	0	382	0.3	381	382	14.7	91.7
2022-10-02T01:43	10	0	0.1	0	0	381	0.2	381	382	14.6	91.9
2022-10-02T01:44	10	0	0.1	0	0	381	0.4	380	382	14.7	92.0
2022-10-02T01:45	10	0	0.1	0	0	381	0.2	381	382	14.6	92.0
2022-10-02T01:46	10	0	0.1	0	0	381	0.3	381	382	14.6	92.2
2022-10-02T01:47	10	0	0.1	0	0	381	0.3	381	382	14.6	92.4
2022-10-02T01:48	10	0	0.1	0	0	381	0.3	381	382	14.6	92.7
2022-10-02T01:49	10	0	0.1	0	0	381	0.3	380	382	14.6	92.8
2022-10-02T01:50	10	0	0.1	0	0	381	0.2	381	382	14.6	92.8
2022-10-02T01:51	10	0	0.1	0	0	381	0.4	381	382	14.6	92.8
2022-10-02T01:52	10	0	0.1	0	0	381	0.2	381	382	14.6	92.9
2022-10-02T01:53	10	0	0.1	0	0	382	0.3	381	382	14.6	93.1
2022-10-02T01:54	10	0	0.1	0	0	381	0.2	381	382	14.6	93.1
2022-10-02T01:55	10	0	0.1	0	0	382	0.3	381	382	14.6	93.2
2022-10-02T01:56	10	0	0.1	0	0	381	0.4	381	382	14.5	93.3
2022-10-02T01:57	10	0	0.1	0	0	381	0.4	380	382	14.5	93.6
2022-10-02T01:58	10	0	0.1	0	0	381	0.4	380	382	14.5	93.7
2022-10-02T01:59	10	0	0.1	0	0	381	0.3	380	382	14.5	93.9
2022-10-02T02:00	10	0	0.1	-1	0	381	0.3	380	382	14.5	94.1
2022-10-02T02:01	10	0	0.1	0	0	381	0.3	380	382	14.4	94.2
2022-10-02T02:02	10	0	0.1	0	0	381	0.2	380	381	14.5	94.3
2022-10-02T02:03	10	0	0.1	-1	0	380	0.3	380	381	14.4	94.4
2022-10-02T02:04	10	0	0.1	-1	0	380	0.4	380	381	14.5	94.5
2022-10-02T02:05	10	0	0.1	0	0	381	0.4	380	381	14.5	94.5
2022-10-02T02:06	10	0	0.1	0	0	381	0.2	380	381	14.5	94.5
2022-10-02T02:07	10	0	0.1	0	0	380	0.2	380	381	14.5	94.4
2022-10-02T02:08	10	0	0.1	0	0	380	0.4	380	381	14.4	94.4
2022-10-02T02:09	10	0	0.1	0	0	380	0.2	380	381	14.5	94.5
2022-10-02T02:10	10	0	0.1	0	0	381	0.2	380	381	14.5	94.5
2022-10-02T02:11	10	0	0.1	0	0	381	0.3	381	382	14.6	94.5
2022-10-02T02:12	10	0	0.1	0	0	381	0.3	380	382	14.5	94.4
2022-10-02T02:13	10	0	0.1	0	0	381	0.3	380	382	14.5	94.4
2022-10-02T02:14	10	0	0.1	0	0	381	0.3	381	382	14.5	94.3
2022-10-02T02:15	10	0	0.1	0	0	381	0.2	380	381	14.5	94.3
2022-10-02T02:16	10	0	0.1	0	0	381	0.2	380	381	14.5	94.5
2022-10-02T02:17	10	0	0.1	0	0	381	0.3	380	382	14.4	94.6
2022-10-02T02:18	10	0	0.1	0	0	381	0.2	380	381	14.4	94.7
2022-10-02T02:19	10	0	0.1	0	0	381	0.2	380	381	14.4	94.8
2022-10-02T02:20	10	0	0.1	0	0	381	0.8	380	382	14.4	94.8
2022-10-02T02:21	10	0	0.1	0	0	381	0.3	380	382	14.4	94.7
2022-10-02T02:22	10	0	0.1	0	0	381	0.3	380	381	14.5	94.7
2022-10-02T02:23	10	0	0.1	0	0	381	0.4	379	381	14.4	94.7
2022-10-02T02:24	10	0	0.1	0	0	381	0.3	380	382	14.5	94.6
2022-10-02T02:25	10	0	0.1	0	0	381	0.3	380	381	14.4	94.7
2022-10-02T02:26	10	0	0.1	0	0	381	0.2	380	381	14.4	94.7
2022-10-02T02:27	10	0	0.1	0	0	381	0.3	380	381	14.4	94.8
2022-10-02T02:28	10	0	0.1	0	0	381	0.3	380	382	14.4	94.9
2022-10-02T02:29	10	0	0.1	0	0	381	0.3	380	382	14.4	94.9
2022-10-02T02:30	10	0	0.1	0	0	381	0.3	380	382	14.3	94.8
2022-10-02T02:31	10	0	0.1	0	0	381	0.3	380	382	14.4	95.0
2022-10-02T02:32	10	0	0.1	0	0	381	0.3	380	382	14.4	94.9
2022-10-02T02:33	10	0	0.1	0	0	381	0.4	380	382	14.4	94.9
2022-10-02T02:34	10	0	0.1	0	0	381	0.3	381	381	14.4	94.8
2022-10-02T02:35	10	0	0.1	0	0	381	0.4	380	382	14.5	94.7
2022-10-02T02:36	10	0	0.1	0	0	381	0.3	381	382	14.5	94.6
2022-10-02T02:37	10	0	0.1	0	0	381	0.3	381	382	14.5	94.5
2022-10-02T02:38	10	0	0.1	0	0	381	0.3	380	382	14.4	94.4
2022-10-02T02:39	10	0	0.1	0	0	381	0.3	381	382	14.4	94.6
2022-10-02T02:40	10	0	0.1	0	0	381	0.3	380	382	14.4	94.6
2022-10-02T02:41	10	0	0.1	0	0	381	0.3	381	382	14.4	94.7
2022-10-02T02:42	10	0	0.1	0	0	381	0.2	381	382	14.4	94.6
2022-10-02T02:43	10	0	0.1	0	0	381	0.3	380	382	14.4	94.7
2022-10-02T02:44	10	0	0.1	0	0	381	0.3	381	382	14.4	94.7
2022-10-02T02:45	10	0	0.1	0	0	381	0.4	380	382	14.4	94.6
2022-10-02T02:46	10	0	0.1	0	0	381	0.3	380	382	14.5	94.5
2022-10-02T02:47	10	0	0.1	0	0	381	0.3	380	382	14.4	94.3
2022-10-02T02:48	10	0	0.1	0	0	381	0.3	380	381	14.5	94.2
2022-10-02T02:49	10	0	0.1	0	0	381	0.3	381	382	14.6	93.8
2022-10-02T02:50	10	0	0.1	0	0	381	0.2	381	382	14.6	93.4
2022-10-02T02:51	10	0	0.1	0	0	381	0.3	381	382	14.6	93.3
2022-10-02T02:52	10	0	0.1	0	0	381	0.3	381	382	14.6	93.1
2022-10-02T02:53	10	0	0.1	0	0	381	0.4	380	382	14.6	93.2
2022-10-02T02:54	10	0	0.1	0	0	381	0.3	381	382	14.6	93.2
2022-10-02T02:55	10	0	0.1	0	0	381	0.4	381	382	14.6	93.1
2022-10-02T02:56	10	0	0.1	0	0	382	0.3	381	382	14.7	92.9
2022-10-02T02:57	10	0	0.1	0	0	381	0.3	381	382	14.6	92.6
2022-10-02T02:58	10	0	0.1	0	1	381	0.3	381	382	14.6	92.7
2022-10-02T02:59	10	0	0.1	0	1	381	0.3	381	382	14.6	92.8
2022-10-02T03:00	10	0	0.1	0	1	381	0.2	381	382	14.6	92.7
2022-10-02T03:01	10	0	0.1	0	0	381	0.5	380	382	14.6	92.7
2022-10-02T03:02	10	0	0.1	0	1	381	0.3	380	381	14.6	92.6
2022-10-02T03:03	10	0	0.1	0	0	380	0.2	380	381	14.6	92.8
2022-10-02T03:04	10	0	0.1	0	0	380	0.2	379	380	14.5	92.8
2022-10-02T03:05	10	0	0.1	0	0	379	0.3	379	380	14.6	92.9
2022-10-02T03:06	10	0	0.1	0	0	379	0.4	378	380	14.5	92.9
2022-10-02T03:07	10	0	0.1	0	0	379	0.3	378	380	14.5	93.0
2022-10-02T03:08	10	0	0.1	0	0	379	0.3	378	380	14.5	92.9
2022-10-02T03:09	10	0	0.1	0	0	379	0.2	378	379	14.5	93.0
2022-10-02T03:10	10	0	0.1	0	0	379	0.3	378	380	14.5	93.1
2022-10-02T03:11	10	0	0.1	0	0	380	0.5	379	380	14.6	93.1
2022-10-02T03:12	10	0	0.1	0	0	380	0.2	379	380	14.5	92.8
2022-10-02T03:13	10	0	0.1	0	0	380	0.3	379	380	14.5	92.8
2022-10-02T03:14	10	0	0.1	0	0	380	0.2	379	380	14.5	92.9
2022-10-02T03:15	10	0	0.1	0	0	380	0.3	379	380	14.4	93.1
2022-10-02T03:16	10	0	0.1	0	0	380	0.3	379	381	14.5	93.2
2022-10-02T03:17	10	0	0.1	0	0	380	0.4	379	381	14.5	93.1
2022-10-02T03:18	10	0	0.1	0	0	380	0.3	380	381	14.5	93.0
2022-10-02T03:19	10	0	0.1	0	0	381	0.4	380	382	14.5	92.9
2022-10-02T03:20	10	0	0.1	0	0	380	0.3	380	381	14.5	92.8
2022-10-02T03:21	10	0	0.0	0	0	380	0.3	380	381	14.5	92.8
2022-10-02T03:22	10	0	0.1	0	0	380	0.2	380	381	14.4	92.8
2022-10-02T03:23	10	0	0.1	0	0	380	0.3	380	381	14.4	93.0
2022-10-02T03:24	10	0	0.1	0	0	381	0.3	380	381	14.5	93.0
2022-10-02T03:25	10	0	0.1	0	0	381	0.7	379	382	14.5	92.8
2022-10-02T03:26	10	0	0.1	0	0	380	0.3	380	381	14.5	92.7
2022-10-02T03:27	10	0	0.1	0	0	380	0.3	380	381	14.5	92.8
2022-10-02T03:28	10	0	0.0	0	0	380	0.3	380	381	14.6	92.5
2022-10-02T03:29	10	0	0.1	0	1	380	0.2	380	381	14.5	92.5
2022-10-02T03:30	10	0	0.1	0	1	380	0.3	380	381	14.5	92.6
2022-10-02T03:31	10	0	0.1	0	0	381	0.3	380	381	14.6	92.4
2022-10-02T03:32	10	0	0.1	0	1	380	0.2	380	381	14.6	92.3
2022-10-02T03:33	10	0	0.1	0	1	380	0.4	379	381	14.6	92.2
2022-10-02T03:34	10	0	0.1	0	1	380	0.5	379	381	14.6	92.2
2022-10-02T03:35	10	0	0.1	0	1	381	0.4	379	381	14.7	92.1
2022-10-02T03:36	10	0	0.1	0	1	380	0.3	380	381	14.6	91.8
2022-10-02T03:37	10	0	0.1	0	1	381	0.4	380	382	14.6	91.9
2022-10-02T03:38	10	0	0.1	0	1	380	0.4	380	381	14.6	91.9
2022-10-02T03:39	10	0	0.1	0	1	380	0.4	380	381	14.6	92.0
2022-10-02T03:40	10	0	0.1	0	1	381	0.4	380	381	14.7	91.9
2022-10-02T03:41	10	0	0.1	0	1	380	0.3	380	381	14.6	91.8
2022-10-02T03:42	10	0	0.1	0	1	381	0.4	380	382	14.6	91.9
2022-10-02T03:43	10	0	0.1	0	1	381	0.3	380	381	14.5	92.0
2022-10-02T03:44	10	0	0.1	0	1	381	0.4	380	381	14.5	92.1
2022-10-02T03:45	10	0	0.1	0	1	381	0.3	380	382	14.5	92.2
2022-10-02T03:46	10	0	0.1	0	1	381	0.2	380	381	14.5	92.3
2022-10-02T03:47	10	0	0.1	0	1	381	0.3	380	381	14.5	92.5
2022-10-02T03:48	10	0	0.1	0	1	381	0.3	380	381	14.5	92.5
2022-10-02T03:49	10	0	0.1	0	1	380	0.4	380	381	14.5	92.6
2022-10-02T03:50	10	0	0.1	0	1	381	0.3	380	381	14.4	92.6
2022-10-02T03:51	10	0	0.1	0	0	381	0.5	379	382	14.5	92.7
2022-10-02T03:52	10	0	0.1	0	0	380	0.3	380	381	14.5	92.7
2022-10-02T03:53	10	0	0.1	0	0	381	0.3	380	381	14.6	92.6
2022-10-02T03:54	10	0	0.1	0	1	381	0.3	380	381	14.5	92.5
2022-10-02T03:55	10	0	0.1	0	1	381	0.3	380	381	14.6	92.5
2022-10-02T03:56	10	0	0.1	0	1	381	0.2	380	381	14.5	92.6
2022-10-02T03:57	10	0	0.1	0	1	381	0.3	380	382	14.6	92.6
2022-10-02T03:58	10	0	0.1	0	1	381	0.3	380	382	14.5	92.6
2022-10-02T03:59	10	0	0.1	0	1	381	0.3	380	381	14.5	92.7
2022-10-02T04:00	10	0	0.1	0	1	381	0.3	380	382	14.4	92.9
2022-10-02T04:01	10	0	0.1	0	1	381	0.2	380	381	14.4	93.0
2022-10-02T04:02	10	0	0.1	0	1	381	0.2	380	381	14.4	93.2
2022-10-02T04:03	10	0	0.1	0	0	380	0.3	380	381	14.4	93.2
2022-10-02T04:04	10	0	0.1	0	0	380	0.3	380	381	14.4	93.3
2022-10-02T04:05	10	0	0.1	0	0	381	0.5	379	381	14.5	93.3
2022-10-02T04:06	10	0	0.1	0	0	381	0.8	379	382	14.5	93.1
2022-10-02T04:07	10	0	0.1	0	1	381	0.3	380	382	14.5	92.9
2022-10-02T04:08	10	0	0.1	0	0	381	0.3	380	382	14.5	92.9
2022-10-02T04:09	10	0	0.1	0	1	381	0.2	380	381	14.5	92.9
2022-10-02T04:10	10	0	0.1	0	1	381	0.3	381	382	14.6	93.0
2022-10-02T04:11	10	0	0.1	0	1	381	0.3	381	382	14.6	92.8
2022-10-02T04:12	10	0	0.1	0	1	381	0.5	380	382	14.6	92.7
2022-10-02T04:13	10	0	0.1	0	1	381	0.4	380	382	14.6	92.7
2022-10-02T04:14	10	0	0.1	0	1	381	0.5	380	382	14.6	92.6
2022-10-02T04:15	10	0	0.1	0	1	381	0.3	380	382	14.6	92.7
2022-10-02T04:16	10	0	0.1	0	1	381	0.3	381	382	14.6	92.7
2022-10-02T04:17	10	0	0.0	0	1	381	0.3	381	382	14.7	92.6
2022-10-02T04:18	10	0	0.1	0	1	381	0.3	380	382	14.6	92.7
2022-10-02T04:19	10	0	0.1	0	1	381	0.4	380	382	14.6	92.7
2022-10-02T04:20	10	0	0.1	0	1	381	0.3	381	382	14.6	92.8
2022-10-02T04:21	10	0	0.1	0	1	381	0.2	381	382	14.6	92.9
2022-10-02T04:22	10	0	0.0	0	1	381	0.2	381	382	14.5	93.2
2022-10-02T04:23	10	0	0.1	0	1	381	0.3	381	382	14.5	93.4
2022-10-02T04:24	10	0	0.1	0	1	381	0.3	381	382	14.5	93.4
2022-10-02T04:25	10	0	0.1	0	0	381	0.3	381	382	14.5	93.5
2022-10-02T04:26	10	0	0.1	0	1	381	0.3	380	382	14.5	93.6
2022-10-02T04:27	10	0	0.1	0	0	381	0.2	381	382	14.5	93.8
2022-10-02T04:28	10	0	0.1	0	0	381	0.3	381	382	14.5	94.0
2022-10-02T04:29	10	0	0.1	0	0	381	0.3	380	382	14.5	94.2
2022-10-02T04:30	10	0	0.1	0	0	381	0.3	380	382	14.4	94.4
2022-10-02T04:31	10	0	0.1	0	0	381	0.3	381	382	14.4	94.7
2022-10-02T04:32	10	0	0.1	0	0	381	0.2	380	382	14.5	94.7
2022-10-02T04:33	10	0	0.1	0	0	381	0.4	380	382	14.5	94.9
2022-10-02T04:34	10	0	0.1	0	0	381	0.3	381	382	14.4	94.9
2022-10-02T04:35	10	0	0.1	0	0	381	0.6	380	382	14.5	95.1
2022-10-02T04:36	10	0	0.1	0	0	382	0.3	381	382	14.5	95.1
2022-10-02T04:37	10	0	0.1	0	0	382	0.4	381	382	14.5	95.1
2022-10-02T04:38	10	0	0.1	0	0	382	0.2	381	382	14.5	95.1
2022-10-02T04:39	10	0	0.1	0	0	382	0.2	381	382	14.6	95.2
2022-10-02T04:40	10	0	0.1	0	0	381	0.2	381	382	14.5	95.2
2022-10-02T04:41	10	0	0.1	0	0	382	0.5	381	383	14.6	95.2
2022-10-02T04:42	10	0	0.1	0	0	381	0.2	381	382	14.5	95.2
2022-10-02T04:43	10	0	0.1	0	0	381	0.3	381	382	14.5	95.3
2022-10-02T04:44	10	0	0.1	0	0	381	0.2	381	382	14.5	95.3
2022-10-02T04:45	10	0	0.1	0	0	382	0.3	381	382	14.5	95.4
2022-10-02T04:46	10	0	0.1	0	0	382	0.3	381	382	14.6	95.3
2022-10-02T04:47	10	0	0.1	0	1	382	0.3	381	382	14.5	95.3
2022-10-02T04:48	10	0	0.1	0	1	382	0.3	380	382	14.5	95.3
2022-10-02T04:49	10	0	0.1	0	1	382	0.3	381	382	14.6	95.3
2022-10-02T04:50	10	0	0.1	0	1	382	0.3	381	382	14.6	95.2
2022-10-02T04:51	10	0	0.1	0	1	382	0.3	381	382	14.5	95.3
2022-10-02T04:52	10	1	0.1	0	1	382	0.3	381	382	14.5	95.3
2022-10-02T04:53	10	1	0.1	0	1	382	0.3	381	382	14.5	95.3
2022-10-02T04:54	10	1	0.1	0	1	381	0.3	381	382	14.5	95.3
2022-10-02T04:55	10	1	0.1	0	1	381	0.5	380	382	14.5	95.4
2022-10-02T04:56	10	0	0.1	0	1	382	0.3	381	382	14.5	95.5
2022-10-02T04:57	10	0	0.1	0	1	382	0.3	381	382	14.5	95.5
2022-10-02T04:58	10	0	0.1	0	1	382	0.4	380	382	14.5	95.5
2022-10-02T04:59	10	0	0.1	0	1	382	0.3	381	382	14.4	95.6
2022-10-02T05:00	10	0	0.1	0	1	382	0.3	381	382	14.4	95.6
2022-10-02T05:01	10	0	0.1	0	1	382	0.4	380	382	14.4	95.7
2022-10-02T05:02	10	0	0.1	0	0	382	0.3	381	383	14.4	95.8
2022-10-02T05:03	10	0	0.1	0	1	382	0.3	381	382	14.4	95.8
2022-10-02T05:04	10	0	0.1	0	0	382	0.3	381	382	14.5	95.8
2022-10-02T05:05	10	0	0.1	0	0	382	0.4	381	383	14.4	95.8
2022-10-02T05:06	10	0	0.1	0	1	382	0.3	381	382	14.4	95.8
2022-10-02T05:07	10	0	0.1	0	1	382	0.3	381	382	14.4	95.8
2022-10-02T05:08	10	0	0.1	0	1	381	0.2	381	382	14.4	95.8
2022-10-02T05:09	10	0	0.1	0	1	382	0.3	381	382	14.4	95.8
2022-10-02T05:10	10	0	0.1	0	1	382	0.3	381	383	14.4	95.9
2022-10-02T05:11	10	0	0.1	0	1	382	0.2	381	382	14.5	95.8
2022-10-02T05:12	10	0	0.1	0	1	382	0.3	381	382	14.5	95.7
2022-10-02T05:13	10	0	0.1	0	1	382	0.3	381	382	14.4	95.6
2022-10-02T05:14	10	0	0.1	0	1	382	0.3	381	382	14.5	95.7
2022-10-02T05:15	10	0	0.1	0	1	382	0.4	381	382	14.5	95.6
2022-10-02T05:16	10	0	0.1	0	1	382	0.3	381	382	14.4	95.6
2022-10-02T05:17	10	0	0.1	0	1	382	0.4	381	382	14.4	95.6
2022-10-02T05:18	10	0	0.1	0	1	382	0.3	381	382	14.5	95.6
2022-10-02T05:19	10	0	0.1	0	1	381	0.4	381	382	14.4	95.6
2022-10-02T05:20	10	0	0.1	0	1	381	0.3	380	382	14.4	95.7
2022-10-02T05:21	10	0	0.1	0	1	381	0.2	380	381	14.4	95.7
2022-10-02T05:22	10	0	0.1	0	1	381	0.3	380	381	14.4	95.7
2022-10-02T05:23	10	0	0.1	0	1	380	0.3	380	381	14.4	95.7
2022-10-02T05:24	10	1	0.1	0	1	380	0.3	380	381	14.4	95.7
2022-10-02T05:25	10	1	0.1	0	1	380	0.4	379	381	14.4	95.6
2022-10-02T05:26	10	1	0.1	0	1	380	0.2	379	381	14.4	95.6
2022-10-02T05:27	10	1	0.1	1	1	380	0.3	379	380	14.5	95.6
2022-10-02T05:28	10	1	0.1	1	2	380	0.4	379	380	14.4	95.5
2022-10-02T05:29	10	1	0.1	1	2	380	0.3	379	380	14.5	95.5
2022-10-02T05:30	10	2	0.1	1	2	380	0.3	379	380	14.6	95.3
2022-10-02T05:31	10	1	0.1	1	2	380	0.3	380	381	14.6	95.0
2022-10-02T05:32	10	1	0.1	1	2	380	0.3	379	381	14.6	94.9
2022-10-02T05:33	10	1	0.1	1	1	380	0.2	380	381	14.6	94.8
2022-10-02T05:34	10	1	0.1	1	1	380	0.3	379	381	14.6	94.6
2022-10-02T05:35	10	1	0.1	1	1	380	0.2	380	381	14.6	94.4
2022-10-02T05:36	10	1	0.1	1	2	380	0.3	380	381	14.6	94.4
2022-10-02T05:37	10	1	0.1	1	2	380	0.3	380	381	14.6	94.4
2022-10-02T05:38	10	2	0.1	1	2	380	0.3	380	381	14.5	94.4
2022-10-02T05:39	10	2	0.1	2	2	380	0.3	380	381	14.5	94.5
2022-10-02T05:40	10	2	0.1	2	2	381	0.4	380	382	14.6	94.6
2022-10-02T05:41	10	2	0.0	2	2	381	0.3	381	382	14.6	94.4
2022-10-02T05:42	10	2	0.0	2	2	381	0.4	380	382	14.5	94.4
2022-10-02T05:43	10	2	0.0	2	2	381	0.3	381	382	14.6	94.5
2022-10-02T05:44	10	2	0.0	2	2	382	0.3	381	382	14.6	94.4
2022-10-02T05:45	10	2	0.1	2	2	382	0.4	381	382	14.6	94.5
2022-10-02T05:46	10	2	0.1	2	2	382	0.2	381	382	14.5	94.4
2022-10-02T05:47	10	2	0.1	2	2	381	0.4	380	382	14.6	94.5
2022-10-02T05:48	10	2	0.1	2	3	381	0.3	381	382	14.6	94.4
2022-10-02T05:49	10	3	0.1	3	3	381	0.3	380	382	14.6	94.3
2022-10-02T05:50	10	3	0.1	3	3	381	0.2	381	382	14.5	94.3
2022-10-02T05:51	10	3	0.1	3	3	381	0.4	380	382	14.4	94.5
2022-10-02T05:52	10	3	0.1	3	3	381	0.4	380	382	14.4	94.6
2022-10-02T05:53	10	3	0.1	3	4	381	0.2	380	381	14.3	94.8
2022-10-02T05:54	10	4	0.1	3	4	381	0.4	380	382	14.3	94.9
2022-10-02T05:55	10	4	0.1	4	4	381	0.4	380	382	14.3	95.1
2022-10-02T05:56	10	4	0.1	4	5	381	0.7	380	382	14.4	95.2
2022-10-02T05:57	10	5	0.2	4	5	381	0.3	380	382	14.4	95.2
2022-10-02T05:58	10	5	0.2	5	6	382	0.3	381	382	14.4	95.3
2022-10-02T05:59	10	6	0.2	5	6	382	0.3	381	382	14.4	95.3
2022-10-02T06:00	10	6	0.1	6	7	381	0.3	381	382	14.4	95.2
2022-10-02T06:01	10	7	0.1	7	7	381	0.2	380	381	14.4	95.0
2022-10-02T06:02	10	7	0.1	7	7	381	0.3	380	381	14.5	95.0
2022-10-02T06:03	10	7	0.1	7	7	381	0.2	380	381	14.6	94.6
2022-10-02T06:04	10	7	0.1	7	7	381	0.2	380	381	14.6	94.5
2022-10-02T06:05	10	7	0.1	7	7	380	0.4	380	381	14.5	94.4
2022-10-02T06:06	10	7	0.1	7	7	380	0.3	380	381	14.5	94.5
2022-10-02T06:07	10	7	0.1	6	7	380	0.3	379	381	14.5	94.6
2022-10-02T06:08	10	6	0.1	6	7	380	0.3	379	380	14.4	94.5
2022-10-02T06:09	10	6	0.1	6	6	380	0.3	379	381	14.4	94.6
2022-10-02T06:10	10	6	0.1	6	6	380	0.3	379	381	14.5	94.7
2022-10-02T06:11	10	6	0.1	6	6	380	0.4	380	381	14.6	94.4
2022-10-02T06:12	10	6	0.1	6	7	381	0.3	380	381	14.6	94.2
2022-10-02T06:13	10	7	0.1	6	7	381	0.4	380	382	14.6	94.0
2022-10-02T06:14	10	7	0.1	7	7	381	0.3	380	381	14.6	93.7
2022-10-02T06:15	10	7	0.2	7	8	381	0.5	380	382	14.6	93.6
2022-10-02T06:16	10	8	0.2	7	8	382	0.2	381	382	14.7	93.3
2022-10-02T06:17	10	8	0.3	8	9	382	0.3	381	382	14.7	93.1
2022-10-02T06:18	10	9	0.3	9	10	382	0.3	382	383	14.8	92.9
2022-10-02T06:19	10	10	0.3	10	11	382	0.2	382	383	14.8	92.8
2022-10-02T06:20	10	12	0.3	11	12	382	0.3	382	383	14.7	92.8
2022-10-02T06:21	10	13	0.4	12	13	382	0.4	382	383	14.7	92.8
2022-10-02T06:22	10	14	0.4	13	15	382	0.3	382	383	14.8	92.7
2022-10-02T06:23	10	15	0.4	15	16	383	0.3	382	383	14.7	92.8
2022-10-02T06:24	10	17	0.3	16	17	383	0.3	382	384	14.7	93.0
2022-10-02T06:25	10	17	0.1	17	17	383	0.2	383	384	14.7	93.1
2022-10-02T06:26	10	17	0.1	17	17	383	0.5	383	384	14.7	93.0
2022-10-02T06:27	10	17	0.1	17	17	383	0.3	383	384	14.7	93.0
2022-10-02T06:28	10	17	0.1	17	17	383	0.3	383	384	14.8	92.9
2022-10-02T06:29	10	17	0.1	17	18	384	0.3	383	384	14.8	92.7
2022-10-02T06:30	10	18	0.5	17	19	384	0.4	382	384	14.8	92.6
2022-10-02T06:31	10	21	0.9	19	22	384	0.3	383	385	14.7	92.7
2022-10-02T06:32	10	23	0.3	22	23	384	0.3	384	385	14.7	92.8
2022-10-02T06:33	10	24	0.2	23	24	385	0.2	384	385	14.7	92.9
2022-10-02T06:34	10	25	0.8	24	27	385	0.3	384	386	14.8	92.9
2022-10-02T06:35	10	40	6.1	26	48	386	1.0	384	387	14.8	92.8
2022-10-02T06:36	10	53	1.4	49	54	387	0.7	386	388	14.8	92.6
2022-10-02T06:37	10	40	5.5	33	52	388	0.7	386	389	14.9	92.7
2022-10-02T06:38	10	27	7.8	19	43	387	0.5	386	388	14.9	92.4
2022-10-02T06:39	10	19	0.3	18	19	386	0.5	385	387	14.9	92.2
2022-10-02T06:40	10	18	0.2	18	18	386	0.3	385	387	14.9	92.2
2022-10-02T06:41	10	17	0.2	17	18	386	0.3	386	387	14.9	92.2
2022-10-02T06:42	10	17	0.1	17	17	386	0.3	385	387	15.0	92.1
2022-10-02T06:43	10	17	0.1	17	17	386	0.4	385	387	15.0	91.8
2022-10-02T06:44	10	17	0.2	16	17	386	0.3	385	386	15.0	91.5
2022-10-02T06:45	10	16	0.2	16	17	386	0.5	385	387	15.0	91.7
2022-10-02T06:46	10	15	0.2	15	16	386	0.3	385	386	15.0	91.7
2022-10-02T06:47	10	15	0.2	14	15	386	0.3	385	386	15.0	91.5
2022-10-02T06:48	10	14	0.2	14	14	385	0.4	384	386	15.0	91.2
2022-10-02T06:49	10	13	0.3	13	14	385	0.2	384	385	15.0	91.4
2022-10-02T06:50	10	12	0.3	12	13	384	0.5	383	385	15.0	91.4
2022-10-02T06:51	10	11	0.2	11	12	384	0.3	384	385	14.9	91.4
2022-10-02T06:52	10	11	0.2	10	11	384	0.3	384	385	14.9	91.8
2022-10-02T06:53	10	10	0.2	10	11	384	0.4	383	385	15.0	91.4
2022-10-02T06:54	10	9	0.2	9	10	384	0.3	383	384	15.0	91.4
2022-10-02T06:55	10	9	0.1	9	9	384	0.4	382	384	15.0	91.3
2022-10-02T06:56	10	9	0.1	9	9	383	0.4	382	384	15.0	91.2
2022-10-02T06:57	10	10	0.2	9	10	384	0.4	383	384	15.0	91.1
2022-10-02T06:58	10	10	0.3	10	11	384	0.3	383	384	15.0	90.9
2022-10-02T06:59	10	12	0.5	11	13	384	0.3	383	385	15.0	91.1
2022-10-02T07:00	10	13	0.7	12	15	384	0.3	384	385	14.9	91.2
2022-10-02T07:01	10	16	1.0	15	18	385	0.4	384	385	15.0	91.3
2022-10-02T07:02	10	20	1.0	18	21	385	0.5	385	386	15.0	91.2
2022-10-02T07:03	10	22	0.6	21	23	386	0.3	386	387	15.0	91.2
2022-10-02T07:04	10	24	0.2	23	24	387	0.3	386	387	15.0	91.2
2022-10-02T07:05	10	24	0.9	23	26	387	0.3	386	388	15.1	91.0
2022-10-02T07:06	10	21	0.5	21	23	387	0.3	386	388	15.1	90.9
2022-10-02T07:07	10	20	0.3	20	21	387	0.3	387	388	15.1	91.1
2022-10-02T07:08	10	19	0.3	19	20	387	0.3	387	388	15.1	91.0
2022-10-02T07:09	10	19	0.2	18	19	387	0.3	387	388	15.1	90.9
2022-10-02T07:10	10	20	0.2	19	20	387	0.3	386	388	15.1	90.8
2022-10-02T07:11	10	20	0.1	20	20	387	0.7	386	388	15.1	90.9
2022-10-02T07:12	10	20	0.2	20	21	388	0.3	387	389	15.1	91.1
2022-10-02T07:13	10	21	0.3	21	22	388	0.4	387	389	15.1	91.2
2022-10-02T07:14	10	23	0.5	22	23	388	0.3	387	389	15.1	91.4
2022-10-02T07:15	10	24	0.5	23	25	388	0.3	387	389	15.2	91.2
2022-10-02T07:16	10	25	0.2	24	25	388	0.2	388	389	15.2	91.0
2022-10-02T07:17	10	25	0.2	25	26	389	0.5	387	390	15.2	91.0
2022-10-02T07:18	10	26	0.1	26	26	389	0.7	388	390	15.2	91.1
2022-10-02T07:19	10	26	0.2	26	27	389	0.3	388	390	15.2	91.0
2022-10-02T07:20	10	26	0.2	26	27	389	0.3	389	390	15.2	91.0
2022-10-02T07:21	10	25	0.5	24	26	389	0.2	389	390	15.2	91.2
2022-10-02T07:22	10	23	0.6	22	24	389	0.6	388	390	15.3	91.1
2022-10-02T07:23	10	21	0.5	21	22	389	0.6	388	390	15.3	91.0
2022-10-02T07:24	10	20	0.4	19	21	389	0.4	388	390	15.3	91.0
2022-10-02T07:25	10	19	0.3	18	19	389	0.3	388	390	15.3	90.9
2022-10-02T07:26	10	18	0.1	18	18	389	0.2	388	389	15.3	90.7
2022-10-02T07:27	10	18	0.1	18	18	389	0.2	388	389	15.4	90.5
2022-10-02T07:28	10	18	0.1	18	19	389	0.5	388	389	15.4	90.3
2022-10-02T07:29	10	18	0.2	18	18	388	0.8	386	389	15.4	90.3
2022-10-02T07:30	10	18	0.1	17	18	388	0.3	388	389	15.3	90.5
2022-10-02T07:31	10	17	0.1	17	18	388	0.4	387	389	15.3	90.7
2022-10-02T07:32	10	18	0.2	17	18	388	0.4	387	389	15.3	91.0
2022-10-02T07:33	10	18	0.2	18	19	388	0.4	388	389	15.3	91.1
2022-10-02T07:34	10	19	0.2	19	19	388	0.4	387	389	15.3	91.2
2022-10-02T07:35	10	20	0.4	19	21	389	0.3	388	389	15.2	91.3
2022-10-02T07:36	10	21	0.3	20	22	389	0.3	388	390	15.2	91.4
2022-10-02T07:37	10	22	0.4	22	23	389	0.3	388	389	15.2	91.7
2022-10-02T07:38	10	23	0.1	22	23	389	0.8	387	390	15.2	91.7
2022-10-02T07:39	10	23	0.2	22	23	389	0.8	387	390	15.2	91.9
2022-10-02T07:40	10	21	0.6	20	22	389	0.3	389	390	15.1	92.4
2022-10-02T07:41	10	19	0.7	18	20	389	0.5	388	390	15.1	92.6
2022-10-02T07:42	10	17	0.4	17	18	389	0.4	388	390	15.1	92.8
2022-10-02T07:43	10	17	0.1	16	17	389	0.2	388	389	15.1	93.1
2022-10-02T07:44	10	18	0.6	17	19	388	0.2	388	389	15.1	93.0
2022-10-02T07:45	10	21	1.1	19	23	388	0.2	388	389	15.1	92.9
2022-10-02T07:46	10	26	1.6	23	28	389	0.5	388	390	15.1	93.2
2022-10-02T07:47	10	31	1.5	28	34	390	0.5	388	391	15.1	93.2
2022-10-02T07:48	10	35	0.9	34	36	391	0.5	390	392	15.1	93.2
2022-10-02T07:49	10	37	0.2	36	37	391	0.2	390	391	15.1	93.2
2022-10-02T07:50	10	37	0.3	36	37	392	0.5	391	392	15.1	93.3
2022-10-02T07:51	10	35	0.7	34	36	392	0.6	391	393	15.2	93.4
2022-10-02T07:52	10	33	0.3	33	34	392	0.2	391	392	15.2	93.4
2022-10-02T07:53	10	32	0.1	32	33	391	0.3	391	392	15.2	93.4
2022-10-02T07:54	10	33	0.4	33	34	392	0.2	391	392	15.2	93.5
2022-10-02T07:55	10	32	1.2	30	34	392	0.3	391	393	15.2	93.5
2022-10-02T07:56	10	28	0.9	27	30	392	0.5	391	393	15.2	93.6
2022-10-02T07:57	10	26	0.2	26	27	391	0.3	391	392	15.2	93.7
2022-10-02T07:58	10	25	0.2	25	26	391	0.3	391	392	15.2	93.8
2022-10-02T07:59	10	25	0.2	24	25	391	0.3	391	392	15.2	94.0
2022-10-02T08:00	10	24	0.2	24	25	391	0.5	390	392	15.2	94.0
2022-10-02T08:01	10	26	0.4	25	26	392	0.2	391	392	15.2	94.2
2022-10-02T08:02	10	26	0.5	24	26	392	0.3	391	393	15.2	94.3
2022-10-02T08:03	10	23	0.9	21	25	392	0.3	391	393	15.3	93.9
2022-10-02T08:04	10	21	0.5	20	22	391	0.8	390	393	15.3	93.8
2022-10-02T08:05	10	20	0.4	20	21	391	0.6	389	392	15.3	93.7
2022-10-02T08:06	10	23	1.4	21	26	391	0.3	391	392	15.3	93.7
2022-10-02T08:07	10	28	1.0	26	29	392	0.3	391	392	15.3	93.7
2022-10-02T08:08	10	31	1.0	29	33	392	0.6	391	393	15.4	93.8
2022-10-02T08:09	10	35	2.0	33	40	392	0.3	391	393	15.4	93.7
2022-10-02T08:10	10	54	7.3	40	64	394	0.8	392	395	15.5	93.5
2022-10-02T08:11	10	59	6.4	53	72	395	0.9	394	398	15.5	93.4
2022-10-02T08:12	10	78	5.2	69	88	398	1.4	396	400	15.6	93.5
2022-10-02T08:13	10	62	4.3	58	79	399	0.5	398	400	15.6	93.6
2022-10-02T08:14	10	71	7.7	64	86	398	0.6	397	399	15.7	93.3
2022-10-02T08:15	10	69	2.6	64	74	398	0.4	397	399	15.7	93.1
2022-10-02T08:16	10	56	4.8	49	63	397	0.4	397	398	15.7	92.8
2022-10-02T08:17	10	44	2.7	40	49	396	0.6	395	397	15.7	92.8
2022-10-02T08:18	10	36	1.9	33	40	396	0.5	395	397	15.7	92.9
2022-10-02T08:19	10	32	0.3	32	33	395	0.6	393	396	15.6	92.7
2022-10-02T08:20	10	33	0.4	32	34	394	0.6	393	395	15.6	92.9
2022-10-02T08:21	10	34	0.1	33	34	394	0.6	392	395	15.6	92.9
2022-10-02T08:22	10	35	0.6	34	36	395	0.4	394	396	15.6	93.1
2022-10-02T08:23	10	39	1.9	36	42	394	0.6	393	395	15.6	92.9
2022-10-02T08:24	10	45	1.5	42	47	395	0.5	394	396	15.7	92.7
2022-10-02T08:25	10	49	1.1	47	51	396	0.4	395	396	15.7	92.3
2022-10-02T08:26	10	64	5.5	52	71	397	0.7	396	398	15.8	92.2
2022-10-02T08:27	10	64	12.2	58	123	398	0.5	397	399	15.9	91.6
2022-10-02T08:28	10	115	27.3	67	147	402	1.5	397	404	16.0	91.2
2022-10-02T08:29	10	58	3.7	55	67	400	0.9	399	402	16.1	91.0
2022-10-02T08:30	10	56	3.0	53	62	399	0.4	397	400	16.0	90.8
2022-10-02T08:31	10	81	12.8	60	105	400	1.6	397	402	16.1	90.7
2022-10-02T08:32	10	75	24.7	50	120	400	1.6	397	403	16.2	90.2
2022-10-02T08:33	10	49	1.0	48	51	398	1.2	396	399	16.2	89.8
2022-10-02T08:34	10	45	1.9	43	48	396	0.6	394	397	16.1	89.4
2022-10-02T08:35	10	46	1.3	43	48	397	0.6	395	398	16.1	89.8
2022-10-02T08:36	10	48	0.2	48	48	397	0.7	395	398	16.1	89.9
2022-10-02T08:37	10	47	0.3	47	48	398	0.6	397	399	16.2	90.0
2022-10-02T08:38	10	47	0.2	47	48	398	0.4	396	398	16.1	89.9
2022-10-02T08:39	10	49	0.9	47	50	398	1.0	396	399	16.2	90.0
2022-10-02T08:40	10	52	1.2	51	55	398	0.5	396	399	16.2	89.5
2022-10-02T08:41	10	58	2.4	55	62	398	0.3	397	399	16.2	89.5
2022-10-02T08:42	10	66	3.4	62	72	400	1.1	397	402	16.3	89.9
2022-10-02T08:43	10	92	20.4	72	138	402	1.9	401	407	16.3	89.9
2022-10-02T08:44	10	110	16.3	89	137	406	1.4	404	409	16.4	89.9
2022-10-02T08:45	10	95	6.1	88	112	405	1.7	401	408	16.5	89.2
2022-10-02T08:46	10	95	7.8	87	112	405	0.7	404	406	16.5	88.6
2022-10-02T08:47	10	102	12.2	87	131	406	1.6	403	408	16.6	88.6
2022-10-02T08:48	10	94	5.9	87	106	406	0.4	406	407	16.7	88.6
2022-10-02T08:49	10	82	5.6	75	95	407	0.5	406	408	16.8	88.5
2022-10-02T08:50	10	69	3.0	65	74	405	1.4	402	408	16.7	88.2
2022-10-02T08:51	10	63	1.3	61	65	404	0.2	404	405	16.7	87.9
2022-10-02T08:52	10	58	1.7	55	61	403	1.0	402	405	16.7	87.6
2022-10-02T08:53	10	54	0.7	53	55	402	1.0	400	403	16.7	87.0
2022-10-02T08:54	10	55	1.0	53	56	401	0.6	400	402	16.7	87.0
2022-10-02T08:55	10	58	0.8	56	60	400	0.4	399	401	16.7	86.5
2022-10-02T08:56	10	68	6.4	60	79	401	0.6	400	403	16.7	86.7
2022-10-02T08:57	10	63	4.3	59	72	402	0.6	401	403	16.7	86.4
2022-10-02T08:58	10	82	12.4	61	118	403	1.1	401	405	16.8	86.7
2022-10-02T08:59	10	143	15.2	110	160	408	2.6	403	412	16.9	86.6
2022-10-02T09:00	10	144	11.7	123	160	411	1.2	409	414	16.9	85.8
2022-10-02T09:01	10	154	6.3	141	163	415	0.8	413	416	17.1	86.3
2022-10-02T09:02	10	114	21.9	93	153	411	3.6	407	417	17.1	85.6
2022-10-02T09:03	10	89	5.4	80	96	407	1.3	405	409	17.1	84.9
2022-10-02T09:04	10	79	5.7	73	96	405	0.9	404	407	17.0	84.8
2022-10-02T09:05	10	72	2.1	69	75	404	1.1	403	406	17.0	84.9
2022-10-02T09:06	10	68	0.7	67	70	403	0.8	402	405	17.0	84.4
2022-10-02T09:07	10	66	0.8	64	67	404	0.6	403	405	17.0	85.0
2022-10-02T09:08	10	64	0.2	64	65	403	1.0	402	405	17.0	85.1
2022-10-02T09:09	10	67	1.8	64	71	404	0.7	402	405	17.0	85.1
2022-10-02T09:10	10	64	0.8	63	66	404	1.0	402	405	17.0	84.9
2022-10-02T09:11	10	62	0.2	62	63	402	0.6	401	403	17.0	84.0
2022-10-02T09:12	10	62	0.3	61	63	402	0.5	400	403	17.0	84.2
2022-10-02T09:13	10	61	0.4	60	62	401	2.0	398	405	17.0	84.6
2022-10-02T09:14	10	60	0.9	58	61	401	0.9	399	402	17.0	84.1
2022-10-02T09:15	10	59	2.6	58	70	401	0.5	400	403	17.0	84.2
2022-10-02T09:16	10	64	7.0	56	76	402	0.4	401	403	17.0	84.4
2022-10-02T09:17	10	61	4.8	57	71	402	0.3	401	403	17.1	84.7
2022-10-02T09:18	10	59	0.7	58	60	402	0.2	402	403	17.1	84.7
2022-10-02T09:19	10	63	1.8	60	65	403	0.6	402	404	17.1	84.4
2022-10-02T09:20	10	61	1.2	58	64	403	0.6	402	404	17.2	84.3
2022-10-02T09:21	10	55	1.0	54	58	402	0.8	401	404	17.2	84.2
2022-10-02T09:22	10	56	1.5	54	60	402	0.5	401	403	17.2	84.4
2022-10-02T09:23	10	65	6.5	60	79	402	0.5	401	403	17.2	84.2
2022-10-02T09:24	10	58	6.1	52	75	403	0.6	401	404	17.2	84.2
2022-10-02T09:25	10	58	5.7	52	70	403	0.6	401	404	17.2	84.5
2022-10-02T09:26	10	63	2.1	60	66	404	0.5	403	405	17.2	84.6
2022-10-02T09:27	10	67	7.7	61	84	404	0.5	402	405	17.2	84.0
2022-10-02T09:28	10	64	3.7	61	71	403	0.3	402	404	17.2	83.1
2022-10-02T09:29	10	71	2.9	68	78	404	0.5	403	404	17.3	83.2
2022-10-02T09:30	10	73	1.6	70	76	404	0.4	403	405	17.3	83.6
2022-10-02T09:31	10	86	6.1	74	100	405	1.0	403	406	17.3	83.3
2022-10-02T09:32	10	120	22.9	80	161	408	1.5	404	410	17.4	83.0
2022-10-02T09:33	10	95	15.0	75	124	407	1.3	405	410	17.5	82.8
2022-10-02T09:34	10	120	16.9	85	149	410	0.7	408	411	17.5	82.8
2022-10-02T09:35	10	145	13.5	120	162	411	0.8	409	412	17.5	82.2
2022-10-02T09:36	10	161	12.6	129	178	413	1.0	411	415	17.5	82.2
2022-10-02T09:37	10	159	15.9	132	182	416	1.6	413	419	17.6	82.2
2022-10-02T09:38	10	168	18.5	138	194	417	2.1	414	421	17.5	81.8
2022-10-02T09:39	10	124	22.2	100	166	416	1.9	413	421	17.6	82.4
2022-10-02T09:40	10	127	20.7	96	164	417	1.4	414	419	17.7	82.4
2022-10-02T09:41	10	127	16.8	94	161	415	0.5	414	417	17.7	82.2
2022-10-02T09:42	10	145	25.0	112	204	416	1.1	414	420	17.7	81.6
2022-10-02T09:43	10	175	24.6	125	205	421	2.2	418	425	17.7	81.8
2022-10-02T09:44	10	147	24.3	118	188	420	3.8	415	426	17.8	81.5
2022-10-02T09:45	10	90	14.2	75	121	413	2.3	409	417	17.6	81.0
2022-10-02T09:46	10	87	15.7	74	128	410	0.6	410	412	17.6	81.6
2022-10-02T09:47	10	91	8.0	81	113	412	0.9	410	413	17.7	82.0
2022-10-02T09:48	10	92	4.8	86	106	412	0.4	411	413	17.8	82.0
2022-10-02T09:49	10	87	2.8	84	96	411	0.5	410	412	17.7	81.3
2022-10-02T09:50	10	74	2.6	71	82	410	0.5	409	411	17.7	81.0
2022-10-02T09:51	10	72	0.6	71	73	410	0.3	409	410	17.8	81.5
2022-10-02T09:52	10	71	1.7	68	73	409	1.5	405	411	17.8	81.3
2022-10-02T09:53	10	64	2.1	61	67	407	0.7	406	408	17.8	80.5
2022-10-02T09:54	10	58	1.1	57	60	407	1.2	404	408	17.8	80.8
2022-10-02T09:55	10	56	0.4	55	57	407	0.4	407	408	17.8	81.6
2022-10-02T09:56	10	55	0.7	53	56	406	1.0	404	408	17.7	81.1
2022-10-02T09:57	10	51	1.2	49	53	405	1.0	403	406	17.7	81.1
2022-10-02T09:58	10	48	0.6	47	49	403	0.7	402	405	17.6	81.3
2022-10-02T09:59	10	47	0.1	47	47	404	0.7	402	405	17.5	82.0
2022-10-02T10:00	10	47	0.2	47	48	403	0.5	403	404	17.5	82.3
2022-10-02T10:01	10	49	1.5	47	52	403	0.7	401	404	17.4	83.4
2022-10-02T10:02	10	57	3.9	52	67	404	1.4	402	406	17.3	83.7
2022-10-02T10:03	10	62	1.8	61	67	405	0.6	404	406	17.3	84.3
2022-10-02T10:04	10	58	1.8	55	60	404	0.5	404	405	17.3	84.0
2022-10-02T10:05	10	52	1.1	51	55	403	0.8	401	404	17.2	84.4
2022-10-02T10:06	10	51	0.2	50	51	402	0.4	402	403	17.2	84.0
2022-10-02T10:07	10	49	0.7	48	50	402	1.0	400	403	17.2	83.9
2022-10-02T10:08	10	46	0.9	45	48	402	0.5	400	403	17.3	83.4
2022-10-02T10:09	10	45	0.6	44	46	402	0.4	401	403	17.3	83.4
2022-10-02T10:10	10	40	2.4	36	44	401	0.5	399	402	17.3	83.3
2022-10-02T10:11	10	34	0.8	33	36	400	0.2	400	401	17.3	84.0
2022-10-02T10:12	10	35	0.7	34	36	400	0.4	399	401	17.3	84.0
2022-10-02T10:13	10	35	0.5	34	36	400	0.4	399	400	17.2	84.2
2022-10-02T10:14	10	34	0.5	34	35	399	0.5	398	400	17.2	83.9
2022-10-02T10:15	10	39	1.7	36	41	399	0.3	399	400	17.2	84.0
2022-10-02T10:16	10	40	0.8	38	41	400	0.3	399	401	17.2	84.2
2022-10-02T10:17	10	36	1.6	33	38	400	0.5	399	401	17.2	84.4
2022-10-02T10:18	10	31	1.0	30	33	400	0.4	399	400	17.2	84.4
2022-10-02T10:19	10	29	0.2	29	30	399	0.6	397	400	17.2	84.3
2022-10-02T10:20	10	35	5.9	30	52	398	0.6	397	399	17.2	84.3
2022-10-02T10:21	10	35	4.5	32	52	399	0.4	398	400	17.2	84.5
2022-10-02T10:22	10	31	0.6	30	32	399	0.6	398	400	17.2	84.8
2022-10-02T10:23	10	31	0.3	31	32	399	0.6	398	400	17.2	84.6
2022-10-02T10:24	10	32	0.4	32	33	399	0.3	398	400	17.3	84.6
2022-10-02T10:25	10	33	0.3	32	33	399	0.4	398	400	17.3	84.7
2022-10-02T10:26	10	31	0.7	29	32	399	0.3	398	400	17.3	84.5
2022-10-02T10:27	10	29	0.3	28	29	399	0.5	397	400	17.3	84.7
2022-10-02T10:28	10	28	0.5	27	28	398	0.3	398	399	17.3	84.4
2022-10-02T10:29	10	26	0.8	24	27	398	0.3	397	399	17.3	84.8
2022-10-02T10:30	10	24	0.2	24	24	397	0.6	396	398	17.2	85.0
2022-10-02T10:31	10	26	1.1	24	28	397	0.4	397	398	17.1	86.1
2022-10-02T10:32	10	31	1.9	28	34	398	0.6	397	399	17.0	86.9
2022-10-02T10:33	10	35	0.6	34	36	399	0.8	398	401	17.0	87.7
2022-10-02T10:34	10	37	0.2	36	37	400	0.5	399	401	17.1	88.0
2022-10-02T10:35	10	35	0.8	34	36	400	0.6	399	401	17.0	88.2
2022-10-02T10:36	10	33	0.5	32	34	399	0.4	398	400	17.1	87.9
2022-10-02T10:37	10	32	0.2	32	33	399	0.4	398	399	17.0	88.3
2022-10-02T10:38	10	34	1.0	33	36	399	0.7	397	400	16.9	88.7
2022-10-02T10:39	10	38	0.9	36	39	398	0.8	397	399	16.8	88.6
2022-10-02T10:40	10	41	1.0	39	42	398	0.9	397	400	16.8	88.7
2022-10-02T10:41	10	45	1.4	42	47	399	0.4	398	400	16.8	88.9
2022-10-02T10:42	10	50	2.0	47	54	399	0.6	397	400	16.7	89.1
2022-10-02T10:43	10	58	2.5	54	63	400	1.2	397	402	16.7	89.3
2022-10-02T10:44	10	69	3.3	63	77	401	0.8	400	403	16.8	89.0
2022-10-02T10:45	10	65	0.8	63	66	402	0.7	401	404	16.8	89.3
2022-10-02T10:46	10	61	1.2	59	63	404	0.5	402	405	16.8	89.8
2022-10-02T10:47	10	56	1.6	53	59	404	0.5	403	405	16.9	90.7
2022-10-02T10:48	10	51	1.4	48	53	405	0.3	404	405	16.9	91.0
2022-10-02T10:49	10	47	0.5	47	48	404	1.1	402	405	17.0	90.1
2022-10-02T10:50	10	47	0.3	46	47	402	0.6	401	403	17.0	88.7
2022-10-02T10:51	10	46	0.1	46	47	401	0.3	401	402	17.0	88.2
2022-10-02T10:52	10	47	0.4	47	48	401	0.4	400	402	17.0	88.1
2022-10-02T10:53	10	47	1.4	46	50	401	0.3	401	402	17.1	87.9
2022-10-02T10:54	10	52	10.6	47	94	401	0.5	400	403	17.1	87.7
2022-10-02T10:55	10	111	40.2	65	173	405	2.6	401	411	17.1	87.4
2022-10-02T10:56	10	123	38.3	54	171	410	1.5	407	412	17.2	87.0
2022-10-02T10:57	10	71	43.2	31	149	407	2.4	404	411	17.3	87.3
2022-10-02T10:58	10	144	1.3	141	148	413	2.3	408	415	17.4	86.6
2022-10-02T10:59	10	141	1.2	138	143	415	0.5	413	415	17.5	85.9
2022-10-02T11:00	10	141	0.1	141	141	415	0.3	415	416	17.6	86.1
2022-10-02T11:01	10	142	0.3	141	142	416	0.4	415	417	17.7	85.5
2022-10-02T11:02	10	144	0.4	143	144	416	0.5	415	418	17.8	84.7
2022-10-02T11:03	10	146	0.9	144	147	418	0.4	417	419	17.9	84.5
2022-10-02T11:04	10	150	1.5	147	152	420	0.6	419	421	17.9	83.8
2022-10-02T11:05	10	156	2.2	152	160	421	0.4	420	422	18.1	84.0
2022-10-02T11:06	10	161	12.8	94	170	423	1.1	421	424	18.1	83.9
2022-10-02T11:07	10	108	32.0	72	177	421	2.1	417	425	18.2	83.8
2022-10-02T11:08	10	179	15.0	126	192	424	2.2	419	427	18.4	84.4
2022-10-02T11:09	10	187	1.7	185	191	424	2.3	421	427	18.5	82.4
2022-10-02T11:10	10	114	41.5	76	193	419	3.9	415	426	18.5	80.7
2022-10-02T11:11	10	159	20.0	126	188	421	3.0	417	426	18.6	80.6
2022-10-02T11:12	10	193	1.9	189	197	426	1.3	424	428	18.7	80.1
2022-10-02T11:13	10	191	5.7	184	202	430	1.1	428	431	18.9	80.7
2022-10-02T11:14	10	174	17.0	142	202	430	0.9	429	432	19.1	80.4
2022-10-02T11:15	10	197	20.6	149	214	430	1.6	427	432	19.1	77.8
2022-10-02T11:16	10	181	36.7	99	210	430	2.1	427	433	19.3	78.8
2022-10-02T11:17	10	184	14.1	155	203	430	1.7	427	432	19.4	78.3
2022-10-02T11:18	10	139	17.1	107	167	426	1.3	424	431	19.3	77.3
2022-10-02T11:19	10	133	26.5	98	190	426	1.2	424	428	19.3	76.7
2022-10-02T11:20	10	89	13.6	75	114	421	2.8	417	426	19.2	76.1
2022-10-02T11:21	10	70	3.0	65	75	417	2.8	412	420	19.2	75.5
2022-10-02T11:22	10	61	1.7	58	65	414	1.4	411	415	19.2	75.1
2022-10-02T11:23	10	57	0.5	57	59	412	0.3	411	413	19.1	75.1
2022-10-02T11:24	10	61	2.3	58	65	412	0.7	410	413	19.0	74.8
2022-10-02T11:25	10	82	11.2	66	107	414	1.7	411	417	19.0	75.3
2022-10-02T11:26	10	69	9.2	61	88	415	1.4	412	417	19.1	76.4
2022-10-02T11:27	10	59	0.9	58	61	412	0.8	411	414	19.1	75.7
2022-10-02T11:28	10	61	2.0	58	66	411	1.0	410	414	19.1	74.9
2022-10-02T11:29	10	89	20.4	66	133	411	1.3	409	414	19.1	74.5
2022-10-02T11:30	10	97	22.8	78	145	412	1.1	409	414	19.1	73.1
2022-10-02T11:31	10	89	6.9	79	101	413	1.1	412	415	19.1	73.2
2022-10-02T11:32	10	69	6.7	64	87	412	0.9	410	414	19.1	73.5
2022-10-02T11:33	10	109	23.0	68	155	414	2.7	409	419	19.2	72.6
2022-10-02T11:34	10	150	22.5	95	181	420	1.9	415	423	19.3	72.8
2022-10-02T11:35	10	108	30.8	73	153	421	1.7	419	424	19.4	74.1
2022-10-02T11:36	10	153	55.7	74	207	422	4.8	416	429	19.5	74.6
2022-10-02T11:37	10	195	10.2	149	204	429	1.9	426	432	19.5	74.2
2022-10-02T11:38	10	177	24.2	110	201	432	1.3	429	434	19.8	75.4
2022-10-02T11:39	10	157	41.3	97	210	429	2.4	425	433	19.6	73.5
2022-10-02T11:40	10	119	37.6	85	211	426	3.8	422	434	19.6	72.8
2022-10-02T11:41	10	157	34.7	108	226	429	1.9	425	432	19.7	72.9
2022-10-02T11:42	10	173	27.3	114	217	431	1.6	428	434	19.8	72.2
2022-10-02T11:43	10	140	44.6	88	219	432	3.6	427	437	20.0	73.3
2022-10-02T11:44	10	114	46.1	74	224	429	3.8	423	435	19.9	72.7
2022-10-02T11:45	10	111	57.4	68	202	424	3.2	421	432	19.8	72.6
2022-10-02T11:46	10	198	1.7	195	201	433	1.5	429	435	20.0	72.0
2022-10-02T11:47	10	188	13.0	147	195	433	1.0	431	435	20.0	71.3
2022-10-02T11:48	10	188	16.0	136	202	433	1.7	430	435	20.2	71.2
2022-10-02T11:49	10	204	1.6	201	207	433	0.5	432	434	20.0	69.5
2022-10-02T11:50	10	193	7.2	174	201	434	0.4	433	435	20.2	69.8
2022-10-02T11:51	10	151	43.3	85	200	433	2.4	430	437	20.3	70.9
2022-10-02T11:52	10	196	10.7	135	201	437	2.8	430	440	20.3	70.2
2022-10-02T11:53	10	192	3.3	186	197	438	1.9	435	441	20.4	70.4
2022-10-02T11:54	10	181	3.0	176	186	435	1.6	433	438	20.3	69.2
2022-10-02T11:55	10	170	2.8	167	176	434	0.5	433	435	20.2	69.2
2022-10-02T11:56	10	168	0.8	167	169	432	2.0	430	436	20.2	68.5
2022-10-02T11:57	10	97	49.9	39	165	427	6.4	415	434	20.1	68.5
2022-10-02T11:58	10	36	1.3	34	39	416	2.5	412	420	19.9	68.0
2022-10-02T11:59	10	79	48.3	37	170	415	3.6	411	421	19.7	68.7
2022-10-02T12:00	10	58	10.6	48	84	416	0.5	415	417	19.7	69.3
2022-10-02T12:01	10	59	4.6	50	69	416	0.7	414	417	19.7	70.2
2022-10-02T12:02	10	92	41.0	60	189	418	2.8	415	423	19.6	69.7
2022-10-02T12:03	10	101	41.6	63	190	420	2.6	417	424	19.8	69.3
2022-10-02T12:04	10	60	2.4	55	63	417	0.4	416	418	19.9	70.2
2022-10-02T12:05	10	53	1.8	51	56	415	1.0	413	416	19.9	70.0
2022-10-02T12:06	10	116	47.9	53	184	417	3.4	412	423	19.8	69.1
2022-10-02T12:07	10	55	16.2	49	128	414	1.6	412	417	19.8	69.4
2022-10-02T12:08	10	117	35.7	65	182	419	1.9	412	421	19.9	70.1
2022-10-02T12:09	10	50	3.4	48	68	416	1.5	414	419	19.9	71.1
2022-10-02T12:10	10	92	32.8	51	149	416	3.2	413	421	19.8	70.0
2022-10-02T12:11	10	54	5.8	48	81	416	2.7	411	421	19.8	69.7
2022-10-02T12:12	10	45	1.1	43	48	412	0.6	411	413	19.7	67.6
2022-10-02T12:13	10	54	21.8	42	149	411	0.9	410	414	19.7	67.7
2022-10-02T12:14	10	140	47.9	58	184	417	2.4	412	422	19.7	68.5
2022-10-02T12:15	10	65	32.5	48	181	414	3.3	410	421	19.8	68.6
2022-10-02T12:16	10	48	0.3	48	49	410	0.7	408	412	19.7	67.9
2022-10-02T12:17	10	109	40.3	50	178	416	4.7	407	422	19.6	68.9
2022-10-02T12:18	10	58	5.0	54	71	415	1.3	412	417	19.7	69.6
2022-10-02T12:19	10	67	18.8	52	112	412	1.3	411	415	19.7	69.2
2022-10-02T12:20	10	47	1.7	46	51	411	0.8	410	413	19.6	69.7
2022-10-02T12:21	10	46	1.0	45	49	410	0.5	409	411	19.6	69.7
2022-10-02T12:22	10	50	1.2	49	53	411	0.3	410	412	19.6	70.1
2022-10-02T12:23	10	53	0.9	51	54	412	0.4	411	413	19.7	70.3
2022-10-02T12:24	10	48	1.0	47	51	412	0.3	412	413	19.7	70.5
2022-10-02T12:25	10	116	51.3	48	184	418	4.6	411	423	19.8	70.0
2022-10-02T12:26	10	80	40.5	57	183	418	4.1	413	425	19.9	67.4
2022-10-02T12:27	10	96	48.6	57	184	416	2.5	413	421	19.9	66.8
2022-10-02T12:28	10	48	4.3	44	62	412	1.1	410	414	19.9	66.5
2022-10-02T12:29	10	44	0.3	43	44	411	0.9	409	413	19.9	67.9
2022-10-02T12:30	10	48	3.8	44	55	410	1.6	408	412	19.9	67.3
2022-10-02T12:31	10	97	30.1	54	145	414	2.6	409	418	19.8	66.9
2022-10-02T12:32	10	65	10.1	58	119	413	1.8	410	416	19.8	65.6
2022-10-02T12:33	10	186	7.5	141	189	421	4.5	409	426	20.0	66.2
2022-10-02T12:34	10	189	0.6	188	190	427	2.2	422	430	20.1	66.4
2022-10-02T12:35	10	179	5.0	172	188	429	0.6	428	430	20.4	67.3
2022-10-02T12:36	10	169	1.4	167	172	429	0.4	428	430	20.4	67.2
2022-10-02T12:37	10	171	2.0	168	174	428	2.0	425	431	20.5	66.8
2022-10-02T12:38	10	176	0.9	174	177	427	1.1	426	429	20.3	66.1
2022-10-02T12:39	10	178	0.5	177	179	430	0.9	428	431	20.4	67.0
2022-10-02T12:40	10	174	1.8	171	177	430	1.4	427	433	20.4	66.8
2022-10-02T12:41	10	169	1.8	165	171	427	0.3	427	428	20.3	66.4
2022-10-02T12:42	10	163	1.3	161	165	429	0.7	427	430	20.4	67.4
2022-10-02T12:43	10	161	0.1	161	162	428	0.6	426	429	20.4	67.0
2022-10-02T12:44	10	158	5.7	144	162	426	1.8	423	430	20.2	66.1
2022-10-02T12:45	10	161	0.9	157	162	424	0.9	423	426	20.1	66.2
2022-10-02T12:46	10	161	0.4	160	162	425	1.5	423	427	20.2	65.7
2022-10-02T12:47	10	162	1.1	161	164	426	1.3	424	429	20.2	65.3
2022-10-02T12:48	10	88	52.8	38	169	423	3.6	419	430	20.3	66.7
2022-10-02T12:49	10	109	54.1	45	171	424	4.8	415	428	20.2	66.0
2022-10-02T12:50	10	42	2.0	39	45	415	2.5	411	419	20.0	65.9
2022-10-02T12:51	10	36	0.9	35	38	412	0.4	411	413	20.0	66.6
2022-10-02T12:52	10	44	9.5	35	68	412	0.9	410	414	19.8	66.5
2022-10-02T12:53	10	117	38.9	66	165	417	3.7	410	424	19.8	67.1
2022-10-02T12:54	10	48	36.1	31	159	417	4.5	409	425	19.9	68.3
2022-10-02T12:55	10	29	1.5	26	31	410	1.5	407	413	19.4	64.7
2022-10-02T12:56	10	25	0.8	24	26	406	1.6	404	409	19.1	63.0
2022-10-02T12:57	10	37	11.3	25	61	406	1.4	404	408	18.9	62.8
2022-10-02T12:58	10	24	0.7	23	25	405	1.1	403	406	18.7	63.8
2022-10-02T12:59	10	21	0.8	20	23	404	0.5	403	405	18.7	64.6
2022-10-02T13:00	10	20	0.3	19	20	403	0.7	402	405	18.6	65.1
2022-10-02T13:01	10	20	0.3	19	21	403	0.6	402	404	18.6	66.3
2022-10-02T13:02	10	20	0.3	19	20	403	0.9	401	404	18.6	66.7
2022-10-02T13:03	10	18	0.4	17	19	403	0.6	401	404	18.5	66.7
2022-10-02T13:04	10	17	0.2	17	18	402	0.7	401	403	18.5	66.6
2022-10-02T13:05	10	17	0.2	17	18	402	0.3	401	403	18.4	67.7
2022-10-02T13:06	10	19	0.8	17	20	402	0.3	401	403	18.4	67.8
2022-10-02T13:07	10	20	0.2	20	21	402	0.9	400	404	18.4	67.5
2022-10-02T13:08	10	19	0.5	19	20	402	0.7	400	403	18.4	67.4
2022-10-02T13:09	10	19	0.5	19	20	401	0.6	400	402	18.4	66.8
2022-10-02T13:10	10	23	1.5	20	25	401	0.3	400	401	18.3	67.5
2022-10-02T13:11	10	27	0.5	25	27	401	0.4	400	402	18.3	67.8
2022-10-02T13:12	10	26	0.4	26	27	402	0.6	401	403	18.3	68.1
2022-10-02T13:13	10	26	0.2	26	27	402	0.4	401	403	18.3	68.9
2022-10-02T13:14	10	27	0.2	26	27	402	0.3	401	402	18.2	69.3
2022-10-02T13:15	10	29	1.5	27	32	402	0.7	401	403	18.2	69.5
2022-10-02T13:16	10	36	2.3	32	40	403	0.3	402	404	18.2	70.0
2022-10-02T13:17	10	40	0.7	38	41	404	0.7	402	405	18.2	69.7
2022-10-02T13:18	10	37	0.5	36	38	403	0.4	402	404	18.1	69.7
2022-10-02T13:19	10	39	2.1	36	43	404	0.6	403	405	18.2	70.1
2022-10-02T13:20	10	44	0.7	43	45	404	0.5	403	405	18.2	69.3
2022-10-02T13:21	10	45	0.7	44	47	405	0.5	404	406	18.3	69.1
2022-10-02T13:22	10	60	16.3	47	101	407	1.7	404	409	18.3	70.0
2022-10-02T13:23	10	50	2.7	48	60	407	0.6	406	409	18.4	69.3
2022-10-02T13:24	10	88	37.5	51	150	412	3.4	405	416	18.5	68.8
2022-10-02T13:25	10	46	2.6	42	51	409	2.8	405	413	18.5	68.9
2022-10-02T13:26	10	40	0.9	39	42	405	0.6	404	406	18.4	67.7
2022-10-02T13:27	10	50	15.8	39	112	404	1.1	401	406	18.3	67.8
2022-10-02T13:28	10	161	7.7	122	166	413	5.0	401	419	18.3	66.8
2022-10-02T13:29	10	160	11.2	97	165	415	0.6	414	417	18.4	66.3
2022-10-02T13:30	10	37	9.1	29	81	407	2.7	404	416	18.3	65.8
2022-10-02T13:31	10	37	6.6	29	57	404	0.4	403	405	18.3	67.1
2022-10-02T13:32	10	132	19.6	64	155	410	3.8	402	415	18.3	67.7
2022-10-02T13:33	10	116	46.3	53	159	414	2.7	408	417	18.3	66.6
2022-10-02T13:34	10	58	18.0	38	93	408	1.6	404	410	18.2	66.8
2022-10-02T13:35	10	34	1.5	32	38	404	1.4	401	406	18.2	67.4
2022-10-02T13:36	10	32	0.3	32	33	402	0.4	401	402	18.1	66.3
2022-10-02T13:37	10	35	1.0	33	36	401	0.5	399	402	18.0	66.7
2022-10-02T13:38	10	39	1.7	36	43	401	1.1	398	402	17.9	66.7
2022-10-02T13:39	10	66	28.4	43	139	403	1.8	399	405	17.9	66.3
2022-10-02T13:40	10	73	24.3	47	134	404	2.6	401	409	17.9	66.5
2022-10-02T13:41	10	110	33.0	65	147	411	2.3	406	414	18.1	67.4
2022-10-02T13:42	10	82	20.2	65	155	408	0.7	407	410	18.1	67.2
2022-10-02T13:43	10	176	3.0	161	180	415	2.3	408	418	18.2	66.7
2022-10-02T13:44	10	174	4.7	167	180	418	1.4	415	420	18.3	66.0
2022-10-02T13:45	10	138	11.2	126	166	416	2.9	413	421	18.4	65.9
2022-10-02T13:46	10	96	31.5	60	134	413	2.6	408	416	18.4	66.1
2022-10-02T13:47	10	100	20.0	60	132	410	1.5	409	413	18.3	66.0
2022-10-02T13:48	10	108	4.7	102	119	412	0.5	411	413	18.3	66.0
2022-10-02T13:49	10	103	5.2	94	111	412	0.4	411	413	18.3	66.2
2022-10-02T13:50	10	102	2.4	98	106	412	0.3	411	413	18.4	66.7
2022-10-02T13:51	10	107	2.2	103	112	412	0.5	411	413	18.3	65.5
2022-10-02T13:52	10	109	5.8	93	114	413	1.0	411	414	18.4	65.6
2022-10-02T13:53	10	111	6.1	101	122	412	0.9	410	414	18.3	65.2
2022-10-02T13:54	10	112	7.2	100	124	413	0.6	411	414	18.3	65.4
2022-10-02T13:55	10	108	3.4	103	114	411	1.5	409	414	18.3	65.5
2022-10-02T13:56	10	116	8.2	104	134	412	1.8	410	416	18.5	66.3
2022-10-02T13:57	10	145	5.3	134	150	415	1.0	413	416	18.5	66.0
2022-10-02T13:58	10	144	2.0	141	147	415	0.8	413	417	18.4	64.7
2022-10-02T13:59	10	139	1.1	137	141	415	0.6	414	417	18.5	64.7
2022-10-02T14:00	10	136	0.6	136	138	417	1.2	415	419	18.7	65.6
2022-10-02T14:01	10	135	0.4	133	136	417	1.1	415	419	18.6	65.2
2022-10-02T14:02	10	132	1.4	130	134	414	1.4	412	417	18.4	64.3
2022-10-02T14:03	10	135	0.1	135	135	416	1.2	413	417	18.5	64.7
2022-10-02T14:04	10	134	0.7	132	135	415	1.0	414	417	18.5	64.7
2022-10-02T14:05	10	130	1.1	129	132	414	1.0	412	415	18.4	64.5
2022-10-02T14:06	10	128	0.5	127	129	416	1.0	414	417	18.4	65.0
2022-10-02T14:07	10	127	0.3	126	127	415	2.1	412	419	18.5	65.1
2022-10-02T14:08	10	127	0.1	127	127	414	1.2	412	416	18.4	64.5
2022-10-02T14:09	10	127	0.2	126	127	415	0.6	414	416	18.4	65.0
2022-10-02T14:10	10	126	0.3	125	127	415	1.8	412	417	18.5	64.8
2022-10-02T14:11	10	125	0.4	124	125	413	1.0	411	415	18.4	64.3
2022-10-02T14:12	10	124	0.4	123	124	414	1.0	412	415	18.4	64.8
2022-10-02T14:13	10	123	0.2	122	123	415	1.3	413	417	18.5	65.1
2022-10-02T14:14	10	123	0.5	122	124	415	1.8	412	418	18.5	65.1
2022-10-02T14:15	10	125	0.3	124	125	414	1.1	412	416	18.4	64.8
2022-10-02T14:16	10	125	0.1	125	126	416	0.5	415	417	18.6	65.7
2022-10-02T14:17	10	125	0.2	124	125	415	1.1	414	417	18.6	65.3
2022-10-02T14:18	10	124	0.4	123	125	416	0.5	415	417	18.6	65.3
2022-10-02T14:19	10	122	0.6	121	123	416	0.8	415	417	18.6	64.9
2022-10-02T14:20	10	121	0.3	120	121	415	0.3	414	415	18.7	65.0
2022-10-02T14:21	10	120	0.1	120	120	415	0.3	414	416	18.7	65.6
2022-10-02T14:22	10	120	0.2	120	121	416	0.4	415	417	18.7	64.8
2022-10-02T14:23	10	118	1.5	115	120	417	0.3	416	417	18.9	65.5
2022-10-02T14:24	10	115	1.1	113	117	414	0.8	413	417	18.6	64.0
2022-10-02T14:25	10	113	1.3	111	116	414	0.4	413	415	18.6	64.2
2022-10-02T14:26	10	119	1.5	116	121	415	0.7	414	416	18.7	65.0
2022-10-02T14:27	10	120	0.2	119	120	414	0.9	413	416	18.7	64.5
2022-10-02T14:28	10	120	0.4	120	121	414	0.6	413	416	18.7	64.5
2022-10-02T14:29	10	121	0.1	121	121	414	1.6	412	416	18.7	64.5
2022-10-02T14:30	10	121	0.3	120	121	414	0.6	412	415	18.7	63.1
2022-10-02T14:31	10	119	1.2	116	120	413	0.6	412	414	18.7	62.9
2022-10-02T14:32	10	114	1.0	113	116	413	0.6	411	414	18.8	62.7
2022-10-02T14:33	10	112	0.5	111	113	413	0.6	412	414	18.8	63.0
2022-10-02T14:34	10	111	0.2	111	111	413	1.9	409	415	18.9	63.4
2022-10-02T14:35	10	111	0.2	110	111	412	1.0	410	413	18.9	61.8
2022-10-02T14:36	10	110	0.1	110	111	413	0.4	412	413	18.9	62.4
2022-10-02T14:37	10	111	0.1	111	111	412	1.5	408	414	18.9	61.3
2022-10-02T14:38	10	110	0.1	110	110	410	2.0	408	413	18.8	59.6
2022-10-02T14:39	10	110	0.2	110	111	411	0.4	410	412	18.9	60.6
2022-10-02T14:40	10	110	0.1	110	110	411	0.5	410	412	18.9	60.8
2022-10-02T14:41	10	109	0.3	109	110	410	1.3	407	411	18.8	60.0
2022-10-02T14:42	10	108	0.5	107	109	410	0.6	408	411	18.9	60.2
2022-10-02T14:43	10	106	0.7	105	107	410	0.6	409	411	18.9	60.6
2022-10-02T14:44	10	104	0.5	103	105	410	0.3	410	411	18.9	61.1
2022-10-02T14:45	10	103	0.2	103	103	411	1.4	408	412	18.9	61.3
2022-10-02T14:46	10	102	0.2	102	103	409	0.5	409	411	18.9	59.8
2022-10-02T14:47	10	102	0.1	101	102	409	0.6	408	410	18.9	60.3
2022-10-02T14:48	10	101	0.3	100	102	410	0.6	409	411	18.9	60.8
2022-10-02T14:49	10	100	0.4	99	101	410	0.8	408	411	18.9	61.1
2022-10-02T14:50	10	98	0.4	98	99	409	0.4	408	410	18.9	60.6
2022-10-02T14:51	10	97	0.3	97	98	409	0.3	408	410	18.9	60.8
2022-10-02T14:52	10	96	0.1	96	97	409	0.5	408	410	18.9	60.9
2022-10-02T14:53	10	97	0.1	96	97	410	0.3	409	410	18.9	61.6
2022-10-02T14:54	10	97	0.1	97	97	409	1.0	408	411	18.8	62.7
2022-10-02T14:55	10	97	0.1	96	97	408	0.7	407	410	18.5	62.4
2022-10-02T14:56	10	97	0.1	97	97	408	0.7	406	409	18.4	62.7
2022-10-02T14:57	10	97	0.1	96	97	408	1.0	407	410	18.4	62.8
2022-10-02T14:58	10	97	0.1	97	97	408	0.7	406	409	18.5	62.3
2022-10-02T14:59	10	96	0.3	95	97	408	0.9	406	409	18.5	62.4
2022-10-02T15:00	10	95	0.3	95	95	407	1.9	404	410	18.5	62.4
2022-10-02T15:01	10	94	0.2	94	95	407	0.8	405	408	18.4	61.8
2022-10-02T15:02	10	94	0.1	94	94	406	1.7	404	409	18.4	61.5
2022-10-02T15:03	10	94	0.1	94	94	407	0.5	406	408	18.4	62.0
2022-10-02T15:04	10	93	0.4	93	94	407	0.5	406	408	18.4	62.2
2022-10-02T15:05	10	92	0.4	91	93	407	0.4	406	408	18.4	62.0
2022-10-02T15:06	10	91	0.4	90	91	407	0.4	406	408	18.4	61.4
2022-10-02T15:07	10	90	0.3	89	90	406	1.5	404	408	18.5	61.7
2022-10-02T15:08	10	89	0.2	89	90	405	0.6	404	407	18.4	61.1
2022-10-02T15:09	10	88	0.8	86	89	405	0.4	404	406	18.4	61.0
2022-10-02T15:10	10	88	0.1	88	88	405	0.5	404	406	18.4	61.2
2022-10-02T15:11	10	88	0.1	88	88	405	1.0	403	407	18.3	61.3
2022-10-02T15:12	10	88	0.1	88	88	405	0.6	403	406	18.4	61.7
2022-10-02T15:13	10	88	0.2	88	89	406	1.1	404	408	18.4	62.1
2022-10-02T15:14	10	89	0.2	89	90	407	0.3	407	408	18.5	63.1
2022-10-02T15:15	10	89	1.5	85	91	408	0.3	407	408	18.5	62.8
2022-10-02T15:16	10	91	0.5	90	92	407	0.7	406	408	18.5	62.2
2022-10-02T15:17	10	93	0.5	92	94	406	0.8	404	407	18.4	61.1
2022-10-02T15:18	10	86	12.7	54	94	405	0.8	403	406	18.4	60.8
2022-10-02T15:19	10	56	5.1	50	62	403	0.6	402	404	18.4	61.3
2022-10-02T15:20	10	65	3.8	59	71	403	0.5	402	404	18.4	61.2
2022-10-02T15:21	10	59	3.8	48	64	403	0.2	403	403	18.4	61.6
2022-10-02T15:22	10	45	2.8	40	49	401	1.7	399	404	18.3	61.4
2022-10-02T15:23	10	51	2.6	47	59	400	0.4	399	401	18.3	60.1
2022-10-02T15:24	10	65	6.4	55	79	401	1.0	399	403	18.3	60.4
2022-10-02T15:25	10	81	4.3	75	89	403	0.6	401	404	18.3	61.1
2022-10-02T15:26	10	61	7.6	53	80	402	0.8	400	403	18.3	61.0
2022-10-02T15:27	10	61	7.7	49	74	402	0.6	401	403	18.3	61.7
2022-10-02T15:28	10	57	3.2	53	64	402	0.4	401	402	18.3	60.9
2022-10-02T15:29	10	53	2.1	48	57	401	0.3	400	401	18.3	60.9
2022-10-02T15:30	10	48	1.1	47	52	400	0.2	400	401	18.3	61.1
2022-10-02T15:31	10	50	2.4	45	54	400	0.4	400	401	18.2	61.7
2022-10-02T15:32	10	57	12.9	44	78	400	0.7	399	402	18.3	61.0
2022-10-02T15:33	10	79	3.5	73	83	402	0.6	400	403	18.3	60.7
2022-10-02T15:34	10	79	2.1	75	82	402	0.6	401	404	18.3	60.5
2022-10-02T15:35	10	77	0.6	76	78	403	0.4	402	403	18.3	60.9
2022-10-02T15:36	10	75	0.6	74	76	404	0.5	403	405	18.4	62.2
2022-10-02T15:37	10	74	0.3	73	74	404	0.2	404	404	18.4	61.3
2022-10-02T15:38	10	72	0.6	71	73	403	0.5	402	404	18.4	60.4
2022-10-02T15:39	10	70	0.6	69	71	402	0.2	402	403	18.4	60.4
2022-10-02T15:40	10	69	0.3	68	69	402	0.4	401	403	18.5	60.3
2022-10-02T15:41	10	68	0.3	67	68	401	0.2	401	402	18.5	59.6
2022-10-02T15:42	10	67	0.2	67	67	401	0.3	401	402	18.5	60.4
2022-10-02T15:43	10	67	0.1	66	67	402	0.3	401	402	18.5	61.1
2022-10-02T15:44	10	66	0.2	65	66	401	0.3	401	402	18.5	60.8
2022-10-02T15:45	10	65	0.2	65	66	401	0.4	400	402	18.5	59.7
2022-10-02T15:46	10	64	0.2	64	65	401	0.2	400	401	18.4	60.0
2022-10-02T15:47	10	64	0.2	63	64	401	0.2	401	401	18.5	59.9
2022-10-02T15:48	10	63	0.1	63	63	401	0.2	401	402	18.5	60.9
2022-10-02T15:49	10	61	3.7	52	64	401	0.5	400	402	18.5	61.2
2022-10-02T15:50	10	64	0.2	63	64	401	0.4	400	402	18.5	60.4
2022-10-02T15:51	10	65	0.3	64	65	401	0.2	400	401	18.5	60.1
2022-10-02T15:52	10	65	0.2	65	66	401	0.4	400	402	18.5	60.8
2022-10-02T15:53	10	65	0.5	64	66	401	0.4	400	402	18.5	59.4
2022-10-02T15:54	10	67	0.4	65	68	401	0.2	400	401	18.5	59.0
2022-10-02T15:55	10	65	2.6	57	68	401	0.4	400	402	18.5	59.3
2022-10-02T15:56	10	61	3.6	55	65	401	0.3	401	402	18.5	59.7
2022-10-02T15:57	10	58	2.2	53	63	401	0.6	400	402	18.5	59.3
2022-10-02T15:58	10	39	5.7	31	52	400	0.7	399	401	18.5	59.3
2022-10-02T15:59	10	25	2.8	20	31	397	0.9	396	399	18.4	59.1
2022-10-02T16:00	10	22	1.1	20	24	396	0.4	396	397	18.4	58.5
2022-10-02T16:01	10	17	3.9	13	24	395	0.5	394	396	18.4	59.2
2022-10-02T16:02	10	13	0.2	13	14	394	0.2	394	395	18.4	58.5
2022-10-02T16:03	10	12	0.3	12	13	394	0.3	393	395	18.4	58.2
2022-10-02T16:04	10	13	0.5	12	14	393	0.2	393	394	18.3	58.5
2022-10-02T16:05	10	14	0.7	12	15	393	0.4	392	394	18.3	59.0
2022-10-02T16:06	10	12	0.2	12	13	393	0.3	392	393	18.3	58.2
2022-10-02T16:07	10	13	0.9	11	14	393	0.3	392	394	18.3	58.2
2022-10-02T16:08	10	10	0.8	9	11	392	0.5	391	393	18.2	58.9
2022-10-02T16:09	10	8	0.2	8	9	391	0.3	390	392	18.1	59.8
2022-10-02T16:10	10	11	1.9	8	13	391	0.4	390	392	18.1	59.7
2022-10-02T16:11	10	14	1.5	13	18	391	0.5	390	392	18.1	59.8
2022-10-02T16:12	10	26	3.4	19	32	392	0.8	390	393	18.2	59.0
2022-10-02T16:13	10	40	4.9	32	47	393	0.8	392	395	18.2	59.0
2022-10-02T16:14	10	47	0.1	46	47	394	0.4	393	395	18.2	59.5
2022-10-02T16:15	10	46	0.3	45	46	395	0.4	394	395	18.1	59.7
2022-10-02T16:16	10	46	0.1	46	46	395	0.3	394	396	18.2	59.5
2022-10-02T16:17	10	45	0.2	45	46	395	0.3	394	396	18.3	58.8
2022-10-02T16:18	10	45	0.2	45	46	395	0.4	395	396	18.1	60.0
2022-10-02T16:19	10	45	0.1	45	46	396	0.2	395	396	18.3	59.0
2022-10-02T16:20	10	45	0.2	44	45	396	0.3	396	397	18.4	57.6
2022-10-02T16:21	10	44	0.5	43	44	396	0.2	396	396	18.4	57.5
2022-10-02T16:22	10	42	0.4	41	43	396	0.3	395	396	18.3	57.9
2022-10-02T16:23	10	41	0.2	41	41	395	0.3	395	396	18.2	58.2
2022-10-02T16:24	10	37	2.6	33	41	395	0.5	394	396	18.2	58.7
2022-10-02T16:25	10	34	0.6	33	35	395	0.8	393	396	18.2	58.1
2022-10-02T16:26	10	37	0.7	35	37	394	0.2	394	395	18.3	57.4
2022-10-02T16:27	10	37	0.3	36	37	394	0.2	393	394	18.2	57.4
2022-10-02T16:28	10	36	0.3	35	36	394	0.3	393	395	18.2	57.7
2022-10-02T16:29	10	35	0.4	34	36	394	0.2	393	394	18.2	57.5
2022-10-02T16:30	10	34	0.4	33	34	393	0.4	392	394	18.1	58.4
2022-10-02T16:31	10	32	0.3	32	33	392	0.3	392	393	18.0	59.5
2022-10-02T16:32	10	31	0.4	31	32	392	0.3	391	393	18.0	59.8
2022-10-02T16:33	10	30	0.3	29	31	392	0.2	391	392	18.0	59.7
2022-10-02T16:34	10	29	0.4	28	29	391	0.2	391	392	18.0	59.6
2022-10-02T16:35	10	27	0.4	27	28	391	0.3	390	391	17.9	60.3
2022-10-02T16:36	10	25	1.4	22	27	390	0.2	390	391	17.9	60.2
2022-10-02T16:37	10	17	2.5	13	22	390	0.6	389	391	17.8	60.3
2022-10-02T16:38	10	11	1.5	7	13	389	0.5	388	390	17.9	60.3
2022-10-02T16:39	10	5	1.3	3	7	389	0.3	388	389	17.8	60.6
2022-10-02T16:40	10	3	0.1	3	3	388	0.4	387	389	17.8	60.7
2022-10-02T16:41	10	3	0.1	3	3	388	0.3	387	388	17.8	60.6
2022-10-02T16:42	10	3	0.1	3	3	387	0.4	386	388	17.7	60.9
2022-10-02T16:43	10	3	0.1	3	3	386	0.2	386	387	17.6	61.5
2022-10-02T16:44	10	3	0.3	2	4	386	0.5	385	387	17.6	61.6
2022-10-02T16:45	10	9	3.4	4	15	386	0.7	384	387	17.5	62.3
2022-10-02T16:46	10	16	0.4	15	17	386	0.7	385	387	17.5	61.9
2022-10-02T16:47	10	16	0.8	13	16	387	0.5	386	388	17.7	61.0
2022-10-02T16:48	10	10	1.7	7	13	387	0.7	385	388	17.7	60.9
2022-10-02T16:49	10	5	1.1	3	7	386	0.4	386	387	17.5	61.5
2022-10-02T16:50	10	3	0.1	3	4	386	0.4	385	387	17.3	62.5
2022-10-02T16:51	10	3	0.1	3	4	386	0.4	385	387	17.3	63.0
2022-10-02T16:52	10	3	0.1	3	3	385	0.3	384	385	17.1	63.9
2022-10-02T16:53	10	3	0.1	3	3	384	0.3	384	385	17.2	63.5
2022-10-02T16:54	10	3	0.1	2	3	384	0.3	383	385	17.2	63.5
2022-10-02T16:55	10	2	0.1	2	3	383	0.5	382	384	17.1	64.0
2022-10-02T16:56	10	2	0.1	2	3	384	0.3	383	384	17.0	64.6
2022-10-02T16:57	10	2	0.1	2	2	384	0.3	383	384	17.0	64.7
2022-10-02T16:58	10	2	0.1	1	2	384	0.4	383	385	17.1	64.1
2022-10-02T16:59	10	2	0.1	1	2	383	0.3	382	384	17.1	63.9
2022-10-02T17:00	10	1	0.1	1	2	383	0.3	383	384	17.2	63.3
2022-10-02T17:01	10	1	0.1	1	2	383	0.3	382	384	17.2	63.0
2022-10-02T17:02	10	1	0.1	1	2	383	0.5	382	383	17.1	63.3
2022-10-02T17:03	10	2	0.1	1	2	383	0.4	382	383	17.0	63.9
2022-10-02T17:04	10	2	0.1	2	2	382	0.3	382	383	16.9	64.7
2022-10-02T17:05	10	2	0.1	2	2	382	0.3	381	382	16.8	65.4
2022-10-02T17:06	10	1	0.1	1	2	382	0.4	381	382	16.8	65.4
2022-10-02T17:07	10	1	0.1	1	2	382	0.4	381	383	16.8	65.6
2022-10-02T17:08	10	1	0.0	1	1	382	0.4	381	383	16.9	65.0
2022-10-02T17:09	10	1	0.1	1	1	382	0.4	381	383	16.8	65.3
2022-10-02T17:10	10	1	0.1	1	1	381	0.3	380	382	16.7	66.0
2022-10-02T17:11	10	1	0.1	1	1	380	0.4	379	381	16.6	66.3
2022-10-02T17:12	10	1	0.1	1	1	380	0.3	379	380	16.5	66.6
2022-10-02T17:13	10	1	0.1	1	1	381	0.3	380	381	16.7	66.1
2022-10-02T17:14	10	1	0.1	1	1	381	0.7	379	382	16.7	65.9
2022-10-02T17:15	10	1	0.1	1	1	381	0.4	380	382	16.7	66.0
2022-10-02T17:16	10	1	0.1	1	1	382	0.4	381	383	16.7	65.9
2022-10-02T17:17	10	1	0.1	1	1	381	0.3	380	381	16.5	66.8
2022-10-02T17:18	10	1	0.1	1	1	380	0.3	380	381	16.5	66.9
2022-10-02T17:19	10	1	0.1	0	1	381	0.5	380	382	16.6	66.8
2022-10-02T17:20	10	0	0.1	0	1	382	0.4	381	382	16.7	66.1
2022-10-02T17:21	10	0	0.1	0	0	382	0.4	381	383	16.5	66.8
2022-10-02T17:22	10	0	0.1	0	0	381	0.2	381	382	16.4	67.6
2022-10-02T17:23	10	0	0.1	0	0	381	0.3	381	382	16.4	67.8
2022-10-02T17:24	10	0	0.1	0	0	381	0.4	380	382	16.4	67.9
2022-10-02T17:25	10	0	0.1	0	0	381	0.5	380	382	16.4	67.7
2022-10-02T17:26	10	0	0.1	0	0	381	0.4	381	382	16.5	67.4
2022-10-02T17:27	10	0	0.1	0	0	381	0.2	381	382	16.6	66.9
2022-10-02T17:28	10	0	0.1	0	0	381	0.4	380	382	16.5	67.5
2022-10-02T17:29	10	0	0.1	0	0	380	0.3	379	381	16.4	68.0
2022-10-02T17:30	10	0	0.1	0	0	380	0.2	379	380	16.4	68.0
2022-10-02T17:31	10	0	0.1	0	0	380	0.4	379	380	16.4	68.2
2022-10-02T17:32	10	0	0.1	0	0	380	0.3	379	380	16.3	68.5
2022-10-02T17:33	10	0	0.1	0	0	380	0.2	379	381	16.4	68.6
2022-10-02T17:34	10	0	0.1	0	1	380	0.3	379	380	16.4	68.6
2022-10-02T17:35	10	0	0.1	0	0	381	0.3	380	381	16.5	68.2
2022-10-02T17:36	10	0	0.1	0	1	381	0.4	381	382	16.5	67.9
2022-10-02T17:37	10	0	0.1	0	1	382	0.2	381	382	16.6	67.6
2022-10-02T17:38	10	0	0.1	0	0	382	0.3	381	382	16.5	67.7
2022-10-02T17:39	10	0	0.1	0	1	382	0.2	381	382	16.5	68.1
2022-10-02T17:40	10	0	0.1	0	1	382	0.3	381	382	16.4	68.2
2022-10-02T17:41	10	0	0.1	0	1	383	0.3	382	383	16.5	67.9
2022-10-02T17:42	10	0	0.1	0	1	383	0.3	382	384	16.4	68.2
2022-10-02T17:43	10	0	0.1	0	1	383	0.4	382	384	16.5	68.1
2022-10-02T17:44	10	0	0.2	0	1	383	0.2	383	384	16.5	67.3
2022-10-02T17:45	10	0	0.2	0	0	383	0.3	382	384	16.5	67.3
2022-10-02T17:46	10	0	0.2	0	0	382	0.3	381	383	16.5	67.6
2022-10-02T17:47	10	0	0.2	0	1	382	0.2	382	382	16.5	67.3
2022-10-02T17:48	10	0	0.2	0	1	382	0.4	381	383	16.5	67.2
2022-10-02T17:49	10	0	0.2	0	0	382	0.4	382	383	16.6	66.7
2022-10-02T17:50	10	0	0.1	0	0	382	0.2	381	382	16.5	66.9
2022-10-02T17:51	10	0	0.1	0	1	381	0.3	381	382	16.5	67.1
2022-10-02T17:52	10	0	0.1	0	0	381	0.3	381	382	16.6	66.8
2022-10-02T17:53	10	0	0.1	0	1	382	0.3	381	383	16.6	66.8
2022-10-02T17:54	10	0	0.1	0	0	382	0.3	381	383	16.7	66.3
2022-10-02T17:55	10	0	0.1	0	0	382	0.4	382	383	16.6	66.3
2022-10-02T17:56	10	0	0.1	0	0	382	0.3	381	382	16.5	67.0
2022-10-02T17:57	10	0	0.1	0	0	382	0.6	382	384	16.5	67.0
2022-10-02T17:58	10	0	0.1	0	0	383	0.4	382	384	16.6	66.5
2022-10-02T17:59	10	0	0.1	0	0	384	0.5	382	385	16.6	66.4
2022-10-02T18:00	10	0	0.1	0	0	385	0.4	384	385	16.8	65.6
2022-10-02T18:01	10	0	0.1	0	0	384	0.2	384	385	16.7	65.8
2022-10-02T18:02	10	0	0.1	0	0	385	0.3	384	386	16.8	65.6
2022-10-02T18:03	10	0	0.1	0	1	385	0.3	385	386	16.9	65.0
2022-10-02T18:04	10	0	0.1	0	1	385	0.4	384	386	16.9	64.7
2022-10-02T18:05	10	0	0.1	0	1	385	0.2	384	386	17.0	64.2
2022-10-02T18:06	10	0	0.1	0	1	384	0.4	383	385	16.9	64.3
2022-10-02T18:07	10	1	0.1	0	1	384	0.3	384	385	17.1	63.4
2022-10-02T18:08	10	1	0.1	0	1	384	0.4	384	385	17.0	63.3
2022-10-02T18:09	10	1	0.0	0	1	384	0.3	383	385	16.9	63.8
2022-10-02T18:10	10	1	0.1	0	1	383	0.5	382	384	16.9	63.9
2022-10-02T18:11	10	1	0.1	0	1	382	0.4	381	383	16.7	64.7
2022-10-02T18:12	10	1	0.1	0	1	382	0.3	381	383	16.8	64.7
2022-10-02T18:13	10	0	0.0	0	1	382	0.3	382	383	16.8	64.7
2022-10-02T18:14	10	0	0.1	0	1	383	0.3	383	384	16.7	64.6
2022-10-02T18:15	10	0	0.1	0	0	383	0.3	383	384	16.6	65.3
2022-10-02T18:16	10	0	0.1	0	0	383	0.3	383	384	16.5	66.1
2022-10-02T18:17	10	0	0.1	0	0	384	0.3	383	385	16.5	66.6
2022-10-02T18:18	10	0	0.1	0	0	384	0.4	383	385	16.4	67.1
2022-10-02T18:19	10	0	0.1	0	0	384	0.3	384	385	16.5	67.0
2022-10-02T18:20	10	0	0.1	0	0	384	0.3	383	385	16.5	66.5
2022-10-02T18:21	10	0	0.1	0	0	384	0.3	383	385	16.5	66.6
2022-10-02T18:22	10	0	0.1	0	0	384	0.2	383	384	16.5	66.6
2022-10-02T18:23	10	0	0.1	0	0	383	0.4	382	384	16.5	66.5
2022-10-02T18:24	10	0	0.1	0	0	383	0.2	383	384	16.5	66.1
2022-10-02T18:25	10	0	0.1	0	0	383	0.3	383	384	16.5	66.1
2022-10-02T18:26	10	0	0.1	0	0	383	0.4	382	384	16.5	65.8
2022-10-02T18:27	10	0	0.1	0	0	383	0.3	382	383	16.4	66.7
2022-10-02T18:28	10	0	0.1	0	0	383	0.3	383	384	16.5	66.5
2022-10-02T18:29	10	0	0.1	0	0	383	0.3	382	383	16.4	66.5
2022-10-02T18:30	10	0	0.1	0	0	383	0.2	382	383	16.5	66.2
2022-10-02T18:31	10	0	0.1	0	0	382	0.2	382	383	16.5	66.2
2022-10-02T18:32	10	0	0.1	0	0	382	0.2	382	383	16.4	66.6
2022-10-02T18:33	10	0	0.1	0	0	382	0.3	381	382	16.3	67.0
2022-10-02T18:34	10	0	0.1	0	0	382	0.2	381	382	16.3	67.2
2022-10-02T18:35	10	0	0.1	0	0	382	0.3	381	382	16.2	67.7
2022-10-02T18:36	10	0	0.1	0	0	382	0.2	381	382	16.0	68.8
2022-10-02T18:37	10	0	0.1	0	0	381	0.3	381	382	16.0	69.3
2022-10-02T18:38	10	0	0.1	0	0	381	0.4	381	382	16.1	69.2
2022-10-02T18:39	10	0	0.1	0	0	382	0.3	381	382	16.2	68.7
2022-10-02T18:40	10	0	0.1	0	0	381	0.3	381	382	16.1	69.0
2022-10-02T18:41	10	0	0.1	0	0	381	0.4	380	382	16.1	69.2
2022-10-02T18:42	10	0	0.1	0	0	381	0.4	380	382	16.1	68.9
2022-10-02T18:43	10	0	0.1	0	0	381	0.3	381	382	16.2	68.7
2022-10-02T18:44	10	0	0.1	0	0	382	0.2	382	383	16.2	68.8
2022-10-02T18:45	10	0	0.1	0	0	383	0.4	382	384	16.3	68.2
2022-10-02T18:46	10	0	0.1	0	1	383	0.5	382	384	16.2	68.3
2022-10-02T18:47	10	0	0.1	0	0	384	0.3	383	385	16.3	68.0
2022-10-02T18:48	10	0	0.1	0	1	384	0.2	384	385	16.3	67.7
2022-10-02T18:49	10	0	0.1	0	1	384	0.3	384	385	16.3	67.6
2022-10-02T18:50	10	0	0.1	0	1	384	0.3	384	385	16.3	67.7
2022-10-02T18:51	10	0	0.1	0	1	384	0.3	384	385	16.3	67.9
2022-10-02T18:52	10	0	0.1	0	1	385	0.3	384	385	16.2	68.0
2022-10-02T18:53	10	0	0.1	0	1	385	0.3	384	385	16.2	68.3
2022-10-02T18:54	10	0	0.1	0	1	384	0.2	384	385	16.1	68.8
2022-10-02T18:55	10	0	0.1	0	1	384	0.3	384	385	16.0	69.1
2022-10-02T18:56	10	0	0.1	0	0	384	0.4	383	385	15.9	69.8
2022-10-02T18:57	10	0	0.1	0	1	384	0.2	384	385	15.8	70.5
2022-10-02T18:58	10	0	0.1	0	0	384	0.4	383	385	15.8	70.9
2022-10-02T18:59	10	0	0.1	0	1	384	0.4	383	385	15.7	71.4
2022-10-02T19:00	10	0	0.1	0	0	384	0.3	383	384	15.6	72.5
2022-10-02T19:01	10	0	0.1	0	0	384	0.4	383	384	15.8	71.1
2022-10-02T19:02	10	0	0.1	0	0	384	0.3	383	384	15.7	70.9
2022-10-02T19:03	10	0	0.1	0	0	383	0.2	383	384	15.7	71.5
2022-10-02T19:04	10	0	0.1	0	0	383	0.3	383	384	15.6	72.1
2022-10-02T19:05	10	0	0.1	0	0	383	0.2	383	384	15.6	72.5
2022-10-02T19:06	10	0	0.1	0	0	384	0.2	383	384	15.7	72.2
2022-10-02T19:07	10	0	0.1	0	0	383	0.3	383	384	15.6	72.6
2022-10-02T19:08	10	0	0.1	0	0	384	0.2	383	384	15.7	71.8
2022-10-02T19:09	10	0	0.1	0	0	384	0.3	383	384	15.6	72.2
2022-10-02T19:10	10	0	0.1	0	0	383	0.6	382	384	15.5	73.3
2022-10-02T19:11	10	0	0.1	0	0	383	0.4	382	384	15.6	72.6
2022-10-02T19:12	10	0	0.1	0	0	383	0.5	382	384	15.5	73.1
2022-10-02T19:13	10	0	0.1	0	0	383	0.3	382	383	15.5	73.5
2022-10-02T19:14	10	0	0.1	0	0	383	0.3	382	384	15.4	74.1
2022-10-02T19:15	10	0	0.1	0	1	383	0.4	382	384	15.5	73.9
2022-10-02T19:16	10	0	0.1	0	1	383	0.4	381	383	15.4	74.5
2022-10-02T19:17	10	0	0.1	0	1	383	0.3	382	383	15.4	75.2
2022-10-02T19:18	10	0	0.1	0	1	382	0.3	381	383	15.2	76.0
2022-10-02T19:19	10	0	0.1	0	1	382	0.3	381	383	15.2	75.8
2022-10-02T19:20	10	0	0.1	0	1	382	0.3	381	383	15.3	75.3
2022-10-02T19:21	10	0	0.1	0	1	382	0.2	381	382	15.3	75.0
2022-10-02T19:22	10	1	0.1	0	1	382	0.2	382	382	15.3	75.5
2022-10-02T19:23	10	1	0.1	0	1	382	0.4	381	383	15.3	75.1
2022-10-02T19:24	10	1	0.1	0	1	382	0.3	381	383	15.4	74.5
2022-10-02T19:25	10	1	0.1	1	1	382	0.4	381	383	15.5	73.9
2022-10-02T19:26	10	1	0.1	1	1	382	0.4	381	383	15.4	74.1
2022-10-02T19:27	10	1	0.1	0	1	382	0.3	381	383	15.4	74.5
2022-10-02T19:28	10	1	0.1	0	1	382	0.3	381	383	15.5	73.4
2022-10-02T19:29	10	1	0.1	1	1	382	0.5	381	383	15.4	74.0
2022-10-02T19:30	10	1	0.1	0	1	382	0.3	381	382	15.6	72.3
2022-10-02T19:31	10	1	0.1	0	1	381	0.3	381	382	15.3	74.1
2022-10-02T19:32	10	0	0.1	0	1	381	0.4	381	382	15.1	76.1
2022-10-02T19:33	10	0	0.1	0	1	382	0.3	381	382	15.4	74.3
2022-10-02T19:34	10	0	0.1	0	0	382	0.3	381	382	15.3	74.8
2022-10-02T19:35	10	0	0.1	0	0	381	0.4	380	382	15.3	74.8
2022-10-02T19:36	10	0	0.1	0	0	381	0.2	381	382	15.1	76.1
2022-10-02T19:37	10	0	0.1	0	0	382	0.3	381	383	15.3	75.8
2022-10-02T19:38	10	0	0.1	0	0	382	0.3	381	382	15.4	75.4
2022-10-02T19:39	10	0	0.1	0	0	382	0.3	381	383	15.5	74.6
2022-10-02T19:40	10	0	0.1	0	0	383	0.2	382	383	15.6	74.2
2022-10-02T19:41	10	0	0.1	0	1	382	0.2	382	383	15.6	74.1
2022-10-02T19:42	10	0	0.1	0	1	383	0.3	382	383	15.6	74.0
2022-10-02T19:43	10	0	0.1	0	1	383	0.2	382	383	15.6	73.8
2022-10-02T19:44	10	0	0.1	0	1	382	0.2	382	383	15.6	73.9
2022-10-02T19:45	10	0	0.1	0	0	383	0.2	382	383	15.5	74.1
2022-10-02T19:46	10	0	0.1	0	1	382	0.3	381	383	15.6	73.1
2022-10-02T19:47	10	0	0.1	0	0	382	0.2	382	382	15.6	73.5
2022-10-02T19:48	10	0	0.1	0	1	382	0.2	381	383	15.5	73.9
2022-10-02T19:49	10	0	0.1	0	0	382	0.3	381	382	15.4	74.3
2022-10-02T19:50	10	0	0.1	0	0	381	0.3	381	382	15.3	75.1
2022-10-02T19:51	10	0	0.1	0	0	381	0.3	380	382	15.4	74.3
2022-10-02T19:52	10	0	0.1	0	0	381	0.2	380	381	15.4	74.3
2022-10-02T19:53	10	0	0.1	0	0	381	0.3	380	381	15.5	73.7
2022-10-02T19:54	10	0	0.1	0	0	380	0.4	380	381	15.5	73.4
2022-10-02T19:55	10	0	0.1	0	0	381	0.3	380	381	15.5	73.4
2022-10-02T19:56	10	0	0.1	0	0	380	0.4	379	381	15.5	73.4
2022-10-02T19:57	10	0	0.1	0	0	380	0.2	380	380	15.5	73.4
2022-10-02T19:58	10	0	0.1	0	0	380	0.3	379	380	15.5	73.4
2022-10-02T19:59	10	0	0.1	0	0	379	0.4	378	380	15.4	73.8
2022-10-02T20:00	10	0	0.1	0	0	379	0.3	378	380	15.4	73.9
2022-10-02T20:01	10	0	0.0	0	0	379	0.3	378	379	15.5	73.7
2022-10-02T20:02	10	0	0.1	0	0	379	0.2	378	379	15.6	72.7
2022-10-02T20:03	10	0	0.1	0	0	379	0.2	379	379	15.7	71.8
2022-10-02T20:04	10	0	0.1	0	1	380	0.4	379	381	15.8	71.0
2022-10-02T20:05	10	0	0.1	0	0	380	0.3	380	381	15.8	71.0
2022-10-02T20:06	10	0	0.1	0	1	380	0.3	380	381	15.9	70.7
2022-10-02T20:07	10	0	0.1	0	1	381	0.3	380	381	15.8	70.7
2022-10-02T20:08	10	0	0.1	0	1	381	0.3	380	382	15.9	70.6
2022-10-02T20:09	10	0	0.1	0	1	381	0.3	380	381	15.8	70.8
2022-10-02T20:10	10	0	0.1	0	1	381	0.3	381	382	15.7	71.3
2022-10-02T20:11	10	0	0.1	0	1	382	0.3	381	382	15.9	70.7
2022-10-02T20:12	10	1	0.1	0	1	382	0.4	381	382	15.8	70.8
2022-10-02T20:13	10	1	0.1	1	1	382	0.2	381	383	15.9	70.6
2022-10-02T20:14	10	1	0.1	1	1	382	0.3	381	382	15.9	70.6
2022-10-02T20:15	10	1	0.1	1	1	382	0.3	381	382	15.9	70.6
2022-10-02T20:16	10	1	0.1	1	1	382	0.3	381	382	15.9	70.2
2022-10-02T20:17	10	1	0.1	1	1	381	0.2	381	382	15.9	70.2
2022-10-02T20:18	10	1	0.1	1	1	382	0.3	381	382	15.8	70.9
2022-10-02T20:19	10	1	0.1	1	1	382	0.2	381	382	15.7	71.8
2022-10-02T20:20	10	1	0.1	0	1	382	0.2	381	382	15.7	71.6
2022-10-02T20:21	10	1	0.1	0	1	382	0.3	381	383	15.7	71.4
2022-10-02T20:22	10	1	0.1	1	1	382	0.3	381	383	15.8	71.4
2022-10-02T20:23	10	1	0.1	0	1	382	0.3	381	383	15.7	71.8
2022-10-02T20:24	10	1	0.1	1	1	382	0.2	382	382	15.6	72.4
2022-10-02T20:25	10	1	0.1	0	1	382	0.3	382	383	15.6	72.2
2022-10-02T20:26	10	1	0.1	0	1	382	0.3	382	383	15.7	72.0
2022-10-02T20:27	10	1	0.1	1	1	382	0.3	382	383	15.6	72.4
2022-10-02T20:28	10	1	0.1	1	1	382	0.3	381	382	15.6	72.6
2022-10-02T20:29	10	1	0.1	1	1	382	0.2	381	382	15.5	73.0
2022-10-02T20:30	10	1	0.1	1	1	382	0.4	381	383	15.5	73.0
2022-10-02T20:31	10	1	0.1	1	1	382	0.3	381	383	15.5	73.0
2022-10-02T20:32	10	1	0.0	1	1	382	0.3	381	383	15.5	73.2
2022-10-02T20:33	10	1	0.1	1	1	382	0.3	381	382	15.5	73.1
2022-10-02T20:34	10	1	0.0	1	1	382	0.3	381	383	15.5	73.2
2022-10-02T20:35	10	1	0.1	1	1	382	0.3	381	383	15.5	73.1
2022-10-02T20:36	10	1	0.1	1	1	382	0.2	381	382	15.5	73.2
2022-10-02T20:37	10	1	0.1	1	1	382	0.2	381	382	15.5	73.2
2022-10-02T20:38	10	1	0.1	1	1	381	0.2	381	382	15.5	73.3
2022-10-02T20:39	10	1	0.1	1	1	381	0.2	381	381	15.4	73.4
2022-10-02T20:40	10	1	0.1	1	1	381	0.3	380	381	15.4	73.7
2022-10-02T20:41	10	1	0.1	1	1	381	0.2	380	381	15.4	74.0
2022-10-02T20:42	10	1	0.1	1	1	380	0.3	380	381	15.3	74.3
2022-10-02T20:43	10	1	0.1	1	1	380	0.3	379	381	15.3	74.8
2022-10-02T20:44	10	1	0.1	1	1	380	0.3	379	380	15.3	74.8
2022-10-02T20:45	10	1	0.1	1	1	379	0.3	379	380	15.2	75.1
2022-10-02T20:46	10	1	0.1	1	1	379	0.2	379	379	15.2	75.6
2022-10-02T20:47	10	1	0.1	1	1	379	0.3	378	379	15.1	75.7
2022-10-02T20:48	10	1	0.1	1	1	379	0.2	378	379	15.1	76.3
2022-10-02T20:49	10	1	0.1	1	1	378	0.2	378	379	15.0	76.5
2022-10-02T20:50	10	1	0.1	1	1	378	0.3	378	379	14.9	77.1
2022-10-02T20:51	10	1	0.1	1	1	378	0.3	378	379	14.8	77.9
2022-10-02T20:52	10	1	0.1	0	1	378	0.3	378	379	14.8	78.6
2022-10-02T20:53	10	1	0.1	0	1	378	0.2	378	379	14.7	79.3
2022-10-02T20:54	10	0	0.1	0	1	379	0.2	378	379	14.8	78.9
2022-10-02T20:55	10	0	0.1	0	1	379	0.2	378	379	14.7	79.2
2022-10-02T20:56	10	1	0.1	1	1	379	0.3	378	379	14.7	79.3
2022-10-02T20:57	10	1	0.1	1	1	379	0.3	378	379	14.6	79.9
2022-10-02T20:58	10	1	0.1	1	1	379	0.2	379	380	14.7	79.7
2022-10-02T20:59	10	1	0.1	1	1	380	0.3	379	380	14.7	79.6
2022-10-02T21:00	10	1	0.1	1	1	380	0.4	379	380	14.6	79.8
2022-10-02T21:01	10	1	0.1	1	1	380	0.2	380	381	14.7	79.3
2022-10-02T21:02	10	1	0.1	0	1	380	0.2	380	381	14.9	78.4
2022-10-02T21:03	10	1	0.1	0	1	381	0.6	380	382	14.9	78.0
2022-10-02T21:04	10	1	0.1	0	1	381	0.2	380	381	15.0	77.3
2022-10-02T21:05	10	1	0.1	1	1	381	0.2	380	381	15.0	77.5
2022-10-02T21:06	10	1	0.1	1	1	381	0.8	380	383	15.1	76.9
2022-10-02T21:07	10	1	0.1	1	1	381	0.8	380	383	15.4	74.4
2022-10-02T21:08	10	1	0.1	1	1	381	0.6	380	382	14.9	77.1
2022-10-02T21:09	10	1	0.1	1	1	380	0.6	379	381	14.6	78.8
2022-10-02T21:10	10	1	0.1	0	1	380	0.6	379	381	14.6	80.2
2022-10-02T21:11	10	0	0.1	0	1	380	0.3	380	381	14.8	79.2
2022-10-02T21:12	10	1	0.1	0	1	380	0.3	380	381	14.8	78.8
2022-10-02T21:13	10	1	0.1	0	1	380	0.3	380	381	14.8	78.7
2022-10-02T21:14	10	1	0.1	0	1	380	0.6	379	381	14.6	79.7
2022-10-02T21:15	10	1	0.1	0	1	380	0.4	379	381	14.7	80.0
2022-10-02T21:16	10	0	0.1	0	1	380	0.2	379	381	14.7	79.5
2022-10-02T21:17	10	0	0.1	0	1	380	0.3	380	381	14.7	79.5
2022-10-02T21:18	10	1	0.1	0	1	380	0.2	379	380	14.8	78.9
2022-10-02T21:19	10	0	0.1	0	1	380	0.2	379	381	14.8	79.0
2022-10-02T21:20	10	0	0.1	0	1	380	0.2	379	380	14.8	78.8
2022-10-02T21:21	10	0	0.1	0	1	380	0.3	379	381	15.0	77.3
2022-10-02T21:22	10	0	0.2	0	1	380	0.3	379	381	15.0	77.3
2022-10-02T21:23	10	0	0.2	0	1	380	0.4	379	381	14.9	77.7
2022-10-02T21:24	10	0	0.2	0	1	380	0.3	379	381	15.1	76.7
2022-10-02T21:25	10	0	0.1	0	1	380	0.2	380	381	15.1	76.2
2022-10-02T21:26	10	0	0.1	0	1	381	0.3	380	381	15.0	76.9
2022-10-02T21:27	10	0	0.2	0	1	381	0.3	380	381	14.9	77.6
2022-10-02T21:28	10	0	0.1	0	1	381	0.3	380	381	14.8	78.3
2022-10-02T21:29	10	0	0.1	0	1	380	0.3	380	381	14.8	78.7
2022-10-02T21:30	10	0	0.2	0	1	380	0.2	380	381	14.7	79.2
2022-10-02T21:31	10	0	0.1	0	1	380	0.3	380	381	14.6	80.0
2022-10-02T21:32	10	0	0.2	0	1	380	0.2	379	381	14.5	80.4
2022-10-02T21:33	10	0	0.2	0	1	380	0.2	380	381	14.5	80.7
2022-10-02T21:34	10	0	0.2	0	1	380	0.3	379	380	14.4	81.1
2022-10-02T21:35	10	0	0.2	0	1	380	0.3	379	380	14.4	81.7
2022-10-02T21:36	10	0	0.2	0	1	380	0.3	379	381	14.3	82.1
2022-10-02T21:37	10	0	0.1	0	1	379	0.3	379	380	14.3	82.5
2022-10-02T21:38	10	0	0.1	0	1	380	0.5	379	381	14.2	82.9
2022-10-02T21:39	10	0	0.1	0	1	379	0.4	378	380	14.1	83.9
2022-10-02T21:40	10	0	0.2	0	1	380	0.3	379	380	14.1	84.3
2022-10-02T21:41	10	1	0.1	0	1	379	0.3	379	380	14.1	84.3
2022-10-02T21:42	10	1	0.2	0	1	379	0.3	379	380	14.1	84.5
2022-10-02T21:43	10	1	0.1	0	1	379	0.3	379	380	14.0	84.7
2022-10-02T21:44	10	1	0.2	0	1	379	0.3	379	380	14.0	85.2
2022-10-02T21:45	10	1	0.1	1	1	380	0.4	379	380	14.1	84.5
2022-10-02T21:46	10	1	0.1	0	1	379	0.4	379	380	14.3	83.4
2022-10-02T21:47	10	1	0.2	0	1	379	0.3	379	380	14.3	83.1
2022-10-02T21:48	10	1	0.2	0	1	380	0.3	379	381	14.3	83.1
2022-10-02T21:49	10	1	0.2	0	1	380	0.3	379	381	14.3	82.8
2022-10-02T21:50	10	1	0.2	0	1	380	0.3	379	380	14.4	82.5
2022-10-02T21:51	10	1	0.2	0	1	380	0.3	379	380	14.2	83.5
2022-10-02T21:52	10	1	0.2	0	1	380	0.3	379	380	14.2	84.2
2022-10-02T21:53	10	1	0.1	1	1	380	0.3	379	381	14.2	83.9
2022-10-02T21:54	10	1	0.1	1	1	380	0.3	379	380	14.2	83.8
2022-10-02T21:55	10	1	0.1	1	1	380	0.2	379	381	14.3	83.9
2022-10-02T21:56	10	1	0.2	1	2	380	0.2	380	381	14.3	83.7
2022-10-02T21:57	10	1	0.2	1	1	380	0.3	380	381	14.2	84.1
2022-10-02T21:58	10	1	0.2	1	2	380	0.3	380	381	14.2	84.2
2022-10-02T21:59	10	1	0.1	1	1	380	0.2	380	381	14.3	83.7
2022-10-02T22:00	10	1	0.1	1	1	380	0.3	379	381	14.4	82.9
2022-10-02T22:01	10	1	0.2	1	2	380	0.2	379	380	14.4	82.5
2022-10-02T22:02	10	1	0.1	1	1	380	0.3	379	380	14.3	83.1
2022-10-02T22:03	10	1	0.1	1	1	379	0.4	378	380	14.1	84.4
2022-10-02T22:04	10	1	0.2	1	1	379	0.2	379	380	14.1	85.3
2022-10-02T22:05	10	1	0.2	1	1	380	0.3	379	380	14.2	84.9
2022-10-02T22:06	10	1	0.2	1	1	379	0.3	379	380	14.1	85.0
2022-10-02T22:07	10	1	0.1	1	1	379	0.2	379	380	13.9	86.6
2022-10-02T22:08	10	1	0.1	1	1	380	0.2	379	380	13.9	87.3
2022-10-02T22:09	10	1	0.2	1	1	380	0.2	380	381	13.9	87.4
2022-10-02T22:10	10	1	0.1	1	1	380	0.3	379	380	13.9	87.9
2022-10-02T22:11	10	1	0.2	1	1	379	0.3	379	380	13.9	88.3
2022-10-02T22:12	10	1	0.1	1	1	380	0.2	379	380	13.8	88.7
2022-10-02T22:13	10	1	0.1	1	1	379	0.3	379	380	13.8	89.2
2022-10-02T22:14	10	1	0.1	0	1	380	0.2	379	380	13.8	89.1
2022-10-02T22:15	10	1	0.1	1	1	380	0.2	379	380	13.8	88.9
2022-10-02T22:16	10	1	0.1	0	1	380	0.2	379	380	13.8	89.1
2022-10-02T22:17	10	1	0.1	0	1	380	0.3	380	381	13.8	89.1
2022-10-02T22:18	10	1	0.1	0	1	380	0.2	379	381	14.0	88.8
2022-10-02T22:19	10	1	0.1	1	1	380	0.3	380	381	14.3	85.7
2022-10-02T22:20	10	1	0.1	1	1	380	0.3	380	381	14.4	85.0
2022-10-02T22:21	10	1	0.1	1	1	381	0.3	380	381	14.5	83.6
2022-10-02T22:22	10	1	0.1	1	1	381	0.3	380	381	14.4	84.0
2022-10-02T22:23	10	1	0.1	1	1	381	0.2	380	381	14.3	84.8
2022-10-02T22:24	10	1	0.1	1	1	380	0.2	380	381	14.1	85.8
2022-10-02T22:25	10	1	0.1	1	1	380	0.3	380	381	14.0	87.1
2022-10-02T22:26	10	1	0.1	1	1	380	0.4	379	381	14.2	86.2
2022-10-02T22:27	10	1	0.1	1	1	380	0.3	380	381	14.2	85.4
2022-10-02T22:28	10	1	0.1	1	1	380	0.4	379	381	14.2	84.7
2022-10-02T22:29	10	1	0.1	1	1	380	0.3	379	380	14.2	85.2
2022-10-02T22:30	10	1	0.1	0	1	379	0.2	379	380	14.0	86.2
2022-10-02T22:31	10	0	0.2	0	1	379	0.2	378	379	13.9	86.8
2022-10-02T22:32	10	0	0.2	0	0	378	0.3	378	379	13.7	88.1
2022-10-02T22:33	10	0	0.1	0	0	378	0.3	377	379	13.5	89.4
2022-10-02T22:34	10	0	0.1	-1	0	378	0.4	377	379	13.4	90.5
2022-10-02T22:35	10	-1	0.1	-1	0	378	0.3	377	379	13.3	91.3
2022-10-02T22:36	10	-1	0.1	-1	0	378	0.4	377	378	13.3	91.6
2022-10-02T22:37	10	-1	0.1	-1	0	378	0.2	377	378	13.4	91.6
2022-10-02T22:38	10	0	0.1	-1	0	377	0.3	377	378	13.4	91.5
2022-10-02T22:39	10	0	0.1	-1	0	377	0.5	376	378	13.4	91.4
2022-10-02T22:40	10	-1	0.1	-1	0	377	0.3	377	378	13.6	90.9
2022-10-02T22:41	10	0	0.1	-1	0	377	0.3	377	378	13.8	89.3
2022-10-02T22:42	10	0	0.1	-1	0	377	0.3	377	378	13.7	89.4
2022-10-02T22:43	10	0	0.1	0	0	377	0.2	377	378	13.8	89.3
2022-10-02T22:44	10	0	0.1	0	0	377	0.3	377	378	13.9	88.4
2022-10-02T22:45	10	0	0.1	0	0	377	0.3	377	378	14.0	87.3
2022-10-02T22:46	10	0	0.1	0	0	377	0.3	376	378	13.8	88.4
2022-10-02T22:47	10	0	0.1	0	0	377	0.3	376	377	13.8	88.7
2022-10-02T22:48	10	0	0.1	0	0	377	0.3	376	377	13.9	87.9
2022-10-02T22:49	10	0	0.1	0	0	376	0.2	376	377	13.8	88.2
2022-10-02T22:50	10	0	0.0	0	0	376	0.3	376	377	13.8	88.6
2022-10-02T22:51	10	0	0.1	0	0	376	0.3	375	377	13.8	88.8
2022-10-02T22:52	10	0	0.1	0	0	376	0.2	375	376	13.8	88.8
2022-10-02T22:53	10	0	0.1	0	0	376	0.3	375	376	13.8	89.3
2022-10-02T22:54	10	0	0.1	0	0	375	0.3	375	376	13.8	89.2
2022-10-02T22:55	10	0	0.1	0	0	375	0.2	375	376	13.8	89.2
2022-10-02T22:56	10	0	0.1	0	0	375	0.2	375	376	13.9	89.1
2022-10-02T22:57	10	0	0.1	0	0	375	0.2	374	375	13.8	89.3
2022-10-02T22:58	10	0	0.1	0	0	375	0.3	374	376	13.7	89.8
2022-10-02T22:59	10	0	0.1	0	0	375	0.3	374	375	13.8	90.0
2022-10-02T23:00	10	0	0.1	0	0	375	0.3	374	375	13.7	90.1
2022-10-02T23:01	10	0	0.1	0	0	375	0.2	375	376	13.8	90.4
2022-10-02T23:02	10	0	0.1	0	0	375	0.3	375	376	13.7	90.5
2022-10-02T23:03	10	0	0.1	0	0	375	0.3	375	376	13.8	90.5
2022-10-02T23:04	10	0	0.1	0	0	376	0.3	375	376	13.8	90.6
2022-10-02T23:05	10	0	0.1	0	0	376	0.2	376	376	13.9	90.4
2022-10-02T23:06	10	0	0.1	0	0	376	0.4	376	377	13.9	90.2
2022-10-02T23:07	10	0	0.1	0	0	377	0.4	376	378	14.0	90.1
2022-10-02T23:08	10	0	0.1	0	0	377	0.2	376	377	14.0	89.8
2022-10-02T23:09	10	0	0.1	0	0	377	0.3	377	378	14.0	89.8
2022-10-02T23:10	10	0	0.1	0	0	377	0.2	377	378	14.1	89.7
2022-10-02T23:11	10	0	0.1	0	1	377	0.3	376	378	14.0	89.8
2022-10-02T23:12	10	0	0.1	0	1	377	0.2	376	377	14.1	89.9
2022-10-02T23:13	10	0	0.1	0	1	377	0.3	376	378	14.0	89.8
2022-10-02T23:14	10	0	0.1	0	1	376	0.2	376	377	14.0	89.9
2022-10-02T23:15	10	0	0.1	0	1	377	0.3	376	377	14.2	89.6
2022-10-02T23:16	10	0	0.1	0	1	377	0.3	376	377	14.2	88.8
2022-10-02T23:17	10	1	0.1	0	1	376	0.4	375	377	14.1	89.1
2022-10-02T23:18	10	1	0.1	0	1	376	0.2	376	377	14.0	89.4
2022-10-02T23:19	10	1	0.1	0	1	376	0.3	376	377	14.0	89.8
2022-10-02T23:20	10	1	0.1	0	1	377	0.3	376	378	13.9	90.0
2022-10-02T23:21	10	0	0.1	0	1	377	0.3	376	377	14.0	89.9
2022-10-02T23:22	10	0	0.1	0	1	377	0.3	376	377	13.9	90.0
2022-10-02T23:23	10	0	0.1	0	1	377	0.4	376	377	13.9	90.1
2022-10-02T23:24	10	0	0.1	0	1	377	0.2	376	377	13.9	89.9
2022-10-02T23:25	10	0	0.1	0	1	377	0.3	376	377	13.9	90.1
2022-10-02T23:26	10	0	0.1	0	1	377	0.3	376	378	13.8	90.2
2022-10-02T23:27	10	0	0.1	0	1	377	0.2	376	377	13.9	90.3
2022-10-02T23:28	10	0	0.1	0	1	377	0.3	376	377	13.9	90.0
2022-10-02T23:29	10	0	0.1	0	1	377	0.3	376	377	13.8	90.2
2022-10-02T23:30	10	0	0.1	0	0	377	0.3	376	377	13.8	90.7
2022-10-02T23:31	10	0	0.1	0	0	377	0.3	376	377	13.7	91.0
2022-10-02T23:32	10	0	0.1	0	1	376	0.3	376	377	13.6	91.1
2022-10-02T23:33	10	0	0.1	0	0	376	0.2	376	377	13.6	91.6
2022-10-02T23:34	10	0	0.1	0	0	376	0.2	376	377	13.6	91.6
2022-10-02T23:35	10	0	0.1	0	0	376	0.3	376	377	13.6	91.8
2022-10-02T23:36	10	0	0.1	0	0	377	0.3	376	377	13.6	91.8
2022-10-02T23:37	10	0	0.1	0	0	376	0.2	376	377	13.6	91.6
2022-10-02T23:38	10	0	0.1	0	0	376	0.3	376	377	13.6	91.5
2022-10-02T23:39	10	0	0.1	0	0	376	0.2	376	377	13.5	92.1
2022-10-02T23:40	10	0	0.1	0	0	376	0.2	376	377	13.5	92.4
2022-10-02T23:41	10	0	0.1	0	0	376	0.3	375	377	13.4	92.6
2022-10-02T23:42	10	0	0.1	0	0	376	0.2	375	377	13.4	92.7
2022-10-02T23:43	10	0	0.1	0	0	376	0.2	375	376	13.4	92.8
2022-10-02T23:44	10	0	0.1	0	0	376	0.2	375	376	13.3	92.9
2022-10-02T23:45	10	0	0.1	0	0	375	0.3	375	376	13.4	93.0
2022-10-02T23:46	10	0	0.1	0	0	375	0.4	374	376	13.3	93.1
2022-10-02T23:47	10	0	0.1	0	0	375	0.2	374	375	13.3	93.2
2022-10-02T23:48	10	0	0.1	0	0	375	0.3	374	375	13.4	93.0
2022-10-02T23:49	10	0	0.1	0	0	375	0.2	374	375	13.4	92.8
2022-10-02T23:50	10	0	0.1	0	0	375	0.3	375	376	13.4	92.6
2022-10-02T23:51	10	0	0.1	0	0	375	0.2	374	376	13.4	92.5
2022-10-02T23:52	10	0	0.1	0	0	375	0.3	374	375	13.5	92.4
2022-10-02T23:53	10	0	0.1	0	0	375	0.2	374	375	13.6	92.0
2022-10-02T23:54	10	0	0.1	-1	0	375	0.2	375	376	13.5	91.7
2022-10-02T23:55	10	0	0.1	0	0	375	0.3	374	376	13.6	91.8
2022-10-02T23:56	10	0	0.1	0	0	375	0.3	375	376	13.5	91.6
2022-10-02T23:57	10	0	0.1	0	0	375	0.2	375	376	13.5	91.7
2022-10-02T23:58	10	0	0.1	-1	0	375	0.3	374	376	13.5	91.8
2022-10-02T23:59	10	0	0.1	0	0	375	0.3	375	376	13.6	91.7
2022-10-03T00:00	10	0	0.1	0	0	375	0.3	375	376	13.5	91.7
2022-10-03T00:01	10	0	0.1	0	0	375	0.3	374	376	13.5	91.8
2022-10-03T00:02	10	0	0.1	0	0	375	0.3	374	376	13.4	92.0
2022-10-03T00:03	10	0	0.1	0	0	375	0.2	374	375	13.3	92.4
2022-10-03T00:04	10	0	0.1	-1	0	374	0.2	374	375	13.3	92.7
2022-10-03T00:05	10	-1	0.1	-1	0	374	0.2	374	375	13.3	92.8
2022-10-03T00:06	10	-1	0.1	-1	0	374	0.2	373	374	13.3	92.9
2022-10-03T00:07	10	-1	0.1	-1	0	373	0.3	373	374	13.3	93.1
2022-10-03T00:08	10	-1	0.1	-1	0	373	0.3	373	374	13.3	93.1
2022-10-03T00:09	10	-1	0.1	-1	0	373	0.2	373	374	13.4	92.9
2022-10-03T00:10	10	-1	0.1	-1	0	374	0.2	373	374	13.5	92.5
2022-10-03T00:11	10	0	0.1	-1	0	373	0.3	372	374	13.4	92.3
2022-10-03T00:12	10	0	0.1	-1	0	374	0.4	373	374	13.4	92.4
2022-10-03T00:13	10	0	0.1	-1	0	374	0.5	373	375	13.5	92.4
2022-10-03T00:14	10	0	0.1	0	0	375	0.2	374	375	13.5	92.1
2022-10-03T00:15	10	0	0.1	-1	0	375	0.3	374	375	13.4	92.2
2022-10-03T00:16	10	0	0.1	0	0	375	0.2	374	375	13.4	92.5
2022-10-03T00:17	10	0	0.1	0	0	375	0.2	374	376	13.4	92.6
2022-10-03T00:18	10	0	0.1	0	0	375	0.3	375	376	13.4	92.6
2022-10-03T00:19	10	0	0.1	0	0	375	0.3	375	376	13.4	92.7
2022-10-03T00:20	10	0	0.1	0	0	376	0.4	375	377	13.4	92.5
2022-10-03T00:21	10	0	0.1	0	0	376	0.3	375	376	13.4	92.6
2022-10-03T00:22	10	0	0.1	0	0	377	0.3	376	377	13.5	92.8
2022-10-03T00:23	10	0	0.1	0	0	377	0.3	376	377	13.5	92.5
2022-10-03T00:24	10	0	0.1	0	0	377	0.3	376	377	13.5	92.4
2022-10-03T00:25	10	0	0.1	0	0	377	0.2	376	377	13.5	92.3
2022-10-03T00:26	10	0	0.1	0	0	377	0.2	376	377	13.4	92.3
2022-10-03T00:27	10	0	0.1	0	0	377	0.3	376	377	13.4	92.6
2022-10-03T00:28	10	0	0.1	0	0	377	0.3	376	378	13.5	92.7
2022-10-03T00:29	10	0	0.1	0	0	377	0.3	376	377	13.5	92.5
2022-10-03T00:30	10	0	0.1	0	0	377	0.4	376	377	13.4	92.5
2022-10-03T00:31	10	0	0.1	0	0	377	0.2	376	377	13.4	92.8
2022-10-03T00:32	10	0	0.1	0	0	377	0.2	376	377	13.4	92.7
2022-10-03T00:33	10	0	0.1	0	0	377	0.3	376	377	13.6	92.6
2022-10-03T00:34	10	0	0.1	0	0	377	0.2	376	377	13.5	92.3
2022-10-03T00:35	10	0	0.1	0	0	377	0.2	376	377	13.4	92.5
2022-10-03T00:36	10	0	0.1	0	0	377	0.3	376	377	13.5	92.7
2022-10-03T00:37	10	0	0.1	0	0	377	0.3	376	378	13.5	92.6
2022-10-03T00:38	10	0	0.1	0	0	376	0.3	376	377	13.4	92.8
2022-10-03T00:39	10	0	0.1	0	0	376	0.3	376	377	13.4	93.0
2022-10-03T00:40	10	0	0.1	0	0	376	0.2	376	377	13.5	93.1
2022-10-03T00:41	10	0	0.1	0	0	376	0.2	375	376	13.5	92.8
2022-10-03T00:42	10	0	0.1	0	0	376	0.2	375	376	13.4	92.8
2022-10-03T00:43	10	0	0.1	0	0	375	0.3	375	376	13.5	92.9
2022-10-03T00:44	10	0	0.1	0	0	375	0.2	375	376	13.4	93.0
2022-10-03T00:45	10	0	0.1	-1	0	375	0.3	374	376	13.5	93.1
2022-10-03T00:46	10	0	0.1	0	0	375	0.3	375	376	13.5	92.7
2022-10-03T00:47	10	0	0.1	0	0	375	0.3	374	375	13.5	92.7
2022-10-03T00:48	10	0	0.1	0	0	374	0.5	373	375	13.4	92.8
2022-10-03T00:49	10	0	0.1	0	0	374	0.3	373	374	13.3	92.9
2022-10-03T00:50	10	0	0.1	0	0	373	0.3	372	374	13.4	93.3
2022-10-03T00:51	10	0	0.1	0	0	373	0.3	372	373	13.3	93.4
2022-10-03T00:52	10	0	0.1	0	0	372	0.5	371	373	13.3	93.4
2022-10-03T00:53	10	0	0.1	0	0	372	0.3	372	373	13.4	93.4
2022-10-03T00:54	10	0	0.1	0	0	372	0.3	371	373	13.3	93.4
2022-10-03T00:55	10	0	0.1	0	0	372	0.3	371	372	13.3	93.5
2022-10-03T00:56	10	0	0.1	0	1	371	0.2	371	372	13.3	93.5
2022-10-03T00:57	10	0	0.1	0	1	371	0.5	370	372	13.2	93.7
2022-10-03T00:58	10	0	0.1	0	1	371	0.2	370	372	13.3	93.9
2022-10-03T00:59	10	0	0.1	0	0	371	0.4	370	372	13.4	93.7
2022-10-03T01:00	10	0	0.1	0	0	371	0.4	370	372	13.2	93.4
2022-10-03T01:01	10	0	0.1	0	0	371	0.3	370	372	13.3	93.6
2022-10-03T01:02	10	0	0.1	0	0	371	0.3	371	372	13.3	93.7
2022-10-03T01:03	10	0	0.1	0	0	371	0.2	370	371	13.3	93.7
2022-10-03T01:04	10	0	0.1	0	0	371	0.2	370	371	13.3	93.7
2022-10-03T01:05	10	0	0.1	0	0	371	0.2	370	371	13.3	93.5
2022-10-03T01:06	10	0	0.1	0	0	370	0.2	370	371	13.3	93.5
2022-10-03T01:07	10	0	0.1	0	0	371	0.3	370	371	13.3	93.3
2022-10-03T01:08	10	0	0.0	0	0	371	0.3	370	372	13.2	93.3
2022-10-03T01:09	10	0	0.1	0	0	371	0.3	371	372	13.4	93.3
2022-10-03T01:10	10	0	0.1	0	0	372	0.2	371	373	13.6	92.6
2022-10-03T01:11	10	0	0.1	0	0	372	0.3	372	373	13.5	92.0
2022-10-03T01:12	10	0	0.1	0	0	373	0.3	372	373	13.5	92.0
2022-10-03T01:13	10	0	0.1	0	0	373	0.2	372	374	13.5	91.9
2022-10-03T01:14	10	0	0.1	0	0	373	0.3	372	374	13.4	92.2
2022-10-03T01:15	10	0	0.1	0	0	374	0.3	373	374	13.5	92.1
2022-10-03T01:16	10	0	0.1	0	0	374	0.3	374	375	13.6	91.8
2022-10-03T01:17	10	0	0.1	0	0	374	0.2	374	375	13.5	91.7
2022-10-03T01:18	10	0	0.0	0	0	375	0.2	374	375	13.5	91.8
2022-10-03T01:19	10	0	0.1	0	0	375	0.2	374	375	13.5	91.8
2022-10-03T01:20	10	0	0.1	0	0	375	0.2	375	376	13.5	92.2
2022-10-03T01:21	10	0	0.1	0	0	375	0.2	375	376	13.5	92.0
2022-10-03T01:22	10	0	0.1	0	0	376	0.3	375	376	13.5	92.1
2022-10-03T01:23	10	0	0.1	0	0	376	0.3	375	376	13.6	92.0
2022-10-03T01:24	10	0	0.1	0	0	376	0.3	375	376	13.6	91.7
2022-10-03T01:25	10	0	0.1	0	0	376	0.2	375	376	13.6	91.5
2022-10-03T01:26	10	0	0.1	0	0	376	0.3	375	377	13.7	91.6
2022-10-03T01:27	10	0	0.1	0	0	376	0.2	375	377	13.7	91.0
2022-10-03T01:28	10	0	0.1	0	0	376	0.2	376	377	13.6	91.3
2022-10-03T01:29	10	0	0.1	0	0	376	0.2	376	376	13.6	91.2
2022-10-03T01:30	10	0	0.1	0	0	376	0.2	376	377	13.6	91.5
2022-10-03T01:31	10	0	0.1	0	1	376	0.3	376	377	13.6	91.5
2022-10-03T01:32	10	0	0.1	0	1	377	0.3	376	377	13.7	91.2
2022-10-03T01:33	10	0	0.1	0	1	377	0.2	377	378	13.7	90.9
2022-10-03T01:34	10	0	0.1	0	1	377	0.3	376	377	13.7	91.0
2022-10-03T01:35	10	0	0.1	0	1	377	0.3	376	378	13.7	91.0
2022-10-03T01:36	10	0	0.1	0	1	377	0.3	376	377	13.7	90.7
2022-10-03T01:37	10	0	0.1	0	1	377	0.3	376	378	13.7	90.8
2022-10-03T01:38	10	0	0.1	0	1	377	0.3	376	378	13.7	90.6
2022-10-03T01:39	10	0	0.1	0	1	377	0.3	376	378	13.7	90.8
2022-10-03T01:40	10	0	0.1	0	1	377	0.2	377	378	13.7	90.9
2022-10-03T01:41	10	0	0.1	0	1	377	0.2	376	377	13.6	91.2
2022-10-03T01:42	10	0	0.1	0	0	377	0.2	376	378	13.6	91.3
2022-10-03T01:43	10	0	0.1	0	0	377	0.3	377	378	13.7	91.3
2022-10-03T01:44	10	0	0.1	0	0	377	0.2	377	378	13.7	91.1
2022-10-03T01:45	10	0	0.1	0	0	377	0.2	377	378	13.7	91.0
2022-10-03T01:46	10	0	0.1	0	0	377	0.3	377	378	13.7	91.0
2022-10-03T01:47	10	0	0.1	0	1	377	0.3	376	378	13.6	91.2
2022-10-03T01:48	10	0	0.1	0	1	377	0.3	376	378	13.7	91.3
2022-10-03T01:49	10	0	0.1	0	0	378	0.3	377	378	13.7	91.1
2022-10-03T01:50	10	0	0.1	0	1	377	0.2	377	378	13.7	90.9
2022-10-03T01:51	10	0	0.1	0	1	377	0.3	377	378	13.7	90.9
2022-10-03T01:52	10	0	0.1	0	1	377	0.3	377	378	13.7	91.1
2022-10-03T01:53	10	1	0.1	0	1	377	0.4	377	378	13.7	90.8
2022-10-03T01:54	10	1	0.1	0	1	377	0.4	376	378	13.6	91.1
2022-10-03T01:55	10	1	0.1	1	1	377	0.4	377	378	13.6	91.5
2022-10-03T01:56	10	1	0.1	1	1	377	0.3	376	378	13.6	91.6
2022-10-03T01:57	10	1	0.1	1	1	377	0.2	377	378	13.6	91.4
2022-10-03T01:58	10	1	0.1	1	1	377	0.5	376	378	13.6	91.6
2022-10-03T01:59	10	1	0.1	1	1	377	0.5	376	378	13.6	91.7
2022-10-03T02:00	10	1	0.1	1	1	377	0.4	376	378	13.6	91.8
2022-10-03T02:01	10	1	0.1	1	1	377	0.4	376	378	13.6	91.8
2022-10-03T02:02	10	1	0.1	1	1	377	0.2	377	378	13.6	92.0
2022-10-03T02:03	10	1	0.1	1	1	377	0.4	376	378	13.6	91.9
2022-10-03T02:04	10	1	0.1	1	1	377	0.4	376	378	13.6	91.7
2022-10-03T02:05	10	1	0.1	1	1	377	0.3	376	378	13.6	91.7
2022-10-03T02:06	10	1	0.1	1	1	377	0.3	376	377	13.6	91.8
2022-10-03T02:07	10	1	0.1	1	1	377	0.2	377	377	13.5	92.1
2022-10-03T02:08	10	1	0.1	1	1	377	0.4	376	378	13.5	92.3
2022-10-03T02:09	10	1	0.1	1	1	377	0.2	377	378	13.5	92.3
2022-10-03T02:10	10	1	0.1	1	1	377	0.3	376	377	13.4	92.4
2022-10-03T02:11	10	1	0.1	1	1	377	0.2	376	377	13.5	92.5
2022-10-03T02:12	10	1	0.1	1	1	377	0.2	376	377	13.6	92.2
2022-10-03T02:13	10	1	0.1	1	1	377	0.3	376	378	13.6	91.9
2022-10-03T02:14	10	1	0.1	0	1	377	0.3	376	377	13.6	91.7
2022-10-03T02:15	10	0	0.1	0	1	377	0.3	376	378	13.6	91.5
2022-10-03T02:16	10	1	0.5	0	4	377	0.2	376	378	13.6	91.5
2022-10-03T02:17	10	0	0.1	0	0	377	0.2	376	377	13.7	91.4
2022-10-03T02:18	10	0	0.1	0	1	377	0.2	376	377	13.7	91.3
2022-10-03T02:19	10	0	0.1	0	1	376	0.3	376	377	13.7	90.9
2022-10-03T02:20	10	0	0.1	0	1	376	0.2	376	377	13.7	90.8
2022-10-03T02:21	10	0	0.1	0	1	376	0.2	375	376	13.7	90.9
2022-10-03T02:22	10	1	0.1	0	1	376	0.3	375	376	13.6	91.1
2022-10-03T02:23	10	0	0.1	0	1	375	0.3	375	376	13.6	91.3
2022-10-03T02:24	10	1	0.1	0	1	375	0.2	374	375	13.5	91.6
2022-10-03T02:25	10	1	0.1	0	1	374	0.3	374	375	13.5	91.7
2022-10-03T02:26	10	1	0.1	0	1	374	0.3	373	375	13.5	91.8
2022-10-03T02:27	10	1	0.1	0	1	374	0.3	373	375	13.4	91.9
2022-10-03T02:28	10	1	0.1	0	1	374	0.2	373	374	13.4	92.3
2022-10-03T02:29	10	0	0.1	0	1	374	0.3	373	374	13.4	92.3
2022-10-03T02:30	10	0	0.1	0	0	374	0.2	373	374	13.5	92.1
2022-10-03T02:31	10	0	0.1	0	0	374	0.2	374	375	13.5	91.8
2022-10-03T02:32	10	0	0.1	0	0	374	0.3	373	375	13.4	92.0
2022-10-03T02:33	10	0	0.1	0	0	374	0.2	374	375	13.5	92.2
2022-10-03T02:34	10	0	0.1	0	0	374	0.3	373	375	13.4	92.2
2022-10-03T02:35	10	0	0.1	0	0	373	0.3	373	374	13.4	92.5
2022-10-03T02:36	10	0	0.1	0	0	374	0.2	373	374	13.4	92.6
2022-10-03T02:37	10	0	0.1	0	0	374	0.3	373	374	13.4	92.2
2022-10-03T02:38	10	0	0.1	0	0	374	0.3	373	374	13.5	92.1
2022-10-03T02:39	10	0	0.1	0	0	374	0.2	373	374	13.5	91.8
2022-10-03T02:40	10	0	0.1	0	0	374	0.2	373	374	13.5	91.5
2022-10-03T02:41	10	0	0.1	0	0	374	0.2	374	375	13.6	91.3
2022-10-03T02:42	10	0	0.1	0	0	374	0.2	374	375	13.6	91.0
2022-10-03T02:43	10	0	0.1	0	0	374	0.2	374	375	13.6	90.9
2022-10-03T02:44	10	0	0.1	0	0	375	0.3	374	375	13.5	91.2
2022-10-03T02:45	10	0	0.1	0	0	375	0.3	374	375	13.6	91.1
2022-10-03T02:46	10	0	0.1	0	0	375	0.2	374	375	13.6	90.8
2022-10-03T02:47	10	0	0.1	0	0	375	0.3	374	376	13.6	90.9
2022-10-03T02:48	10	0	0.1	0	0	374	0.3	374	375	13.5	91.1
2022-10-03T02:49	10	0	0.1	0	0	375	0.2	374	375	13.6	91.0
2022-10-03T02:50	10	0	0.1	0	0	374	0.3	374	375	13.5	91.1
2022-10-03T02:51	10	0	0.1	0	0	374	0.2	373	375	13.5	91.2
2022-10-03T02:52	10	0	0.1	0	0	374	0.2	374	375	13.5	91.3
2022-10-03T02:53	10	0	0.1	0	0	374	0.2	373	374	13.4	91.6
2022-10-03T02:54	10	0	0.1	0	0	374	0.2	373	374	13.4	91.8
2022-10-03T02:55	10	0	0.1	-1	0	373	0.2	373	374	13.4	91.9
2022-10-03T02:56	10	0	0.1	0	0	373	0.2	373	374	13.4	92.0
2022-10-03T02:57	10	0	0.1	-1	0	373	0.2	373	374	13.5	91.9
2022-10-03T02:58	10	0	0.1	-1	0	373	0.3	373	374	13.4	92.0
2022-10-03T02:59	10	0	0.1	-1	0	373	0.2	373	374	13.4	92.1
2022-10-03T03:00	10	0	0.1	-1	0	373	0.2	373	374	13.4	92.0
2022-10-03T03:01	10	0	0.1	0	0	374	0.2	373	374	13.4	92.3
2022-10-03T03:02	10	0	0.1	0	0	374	0.3	373	374	13.4	92.1
2022-10-03T03:03	10	0	0.0	0	0	374	0.2	373	374	13.4	91.8
2022-10-03T03:04	10	0	0.1	0	0	374	0.3	373	374	13.4	91.8
2022-10-03T03:05	10	0	0.1	0	0	374	0.3	373	374	13.4	91.8
2022-10-03T03:06	10	0	0.1	0	0	374	0.2	373	374	13.4	92.1
2022-10-03T03:07	10	0	0.1	0	0	374	0.2	373	374	13.3	92.2
2022-10-03T03:08	10	0	0.1	0	0	374	0.3	373	375	13.2	92.5
2022-10-03T03:09	10	0	0.1	0	0	374	0.3	373	375	13.3	92.6
2022-10-03T03:10	10	0	0.1	0	0	374	0.2	374	375	13.3	92.4
2022-10-03T03:11	10	0	0.1	0	0	374	0.3	374	375	13.2	92.7
2022-10-03T03:12	10	0	0.1	0	0	374	0.2	374	375	13.2	93.1
2022-10-03T03:13	10	0	0.1	0	0	375	0.2	374	375	13.2	93.1
2022-10-03T03:14	10	0	0.1	0	0	375	0.4	374	376	13.3	93.0
2022-10-03T03:15	10	0	0.1	0	0	375	0.3	374	376	13.3	92.7
2022-10-03T03:16	10	0	0.1	0	0	375	0.2	375	375	13.4	92.2
2022-10-03T03:17	10	0	0.1	0	0	375	0.3	374	376	13.4	91.8
2022-10-03T03:18	10	0	0.1	0	0	375	0.3	374	375	13.4	91.4
2022-10-03T03:19	10	0	0.1	0	0	375	0.3	374	375	13.4	91.5
2022-10-03T03:20	10	0	0.1	0	0	375	0.2	374	375	13.4	91.6
2022-10-03T03:21	10	0	0.1	0	0	375	0.3	374	375	13.4	91.5
2022-10-03T03:22	10	0	0.1	0	0	375	0.3	374	375	13.4	91.4
2022-10-03T03:23	10	0	0.1	0	0	375	0.2	375	376	13.6	90.7
2022-10-03T03:24	10	0	0.1	0	0	375	0.2	375	376	13.6	90.1
2022-10-03T03:25	10	0	0.1	0	0	375	0.2	374	375	13.6	89.8
2022-10-03T03:26	10	0	0.1	0	0	375	0.2	374	375	13.6	89.7
2022-10-03T03:27	10	0	0.1	0	0	375	0.2	374	375	13.5	90.0
2022-10-03T03:28	10	0	0.1	0	0	374	0.2	374	375	13.4	90.3
2022-10-03T03:29	10	0	0.1	0	1	375	0.2	374	375	13.4	90.7
2022-10-03T03:30	10	0	0.1	0	0	374	0.2	374	375	13.4	90.7
2022-10-03T03:31	10	0	0.1	0	1	374	0.2	374	375	13.5	90.6
2022-10-03T03:32	10	0	0.1	0	1	374	0.2	373	374	13.4	90.6
2022-10-03T03:33	10	0	0.1	0	1	374	0.2	373	374	13.4	90.8
2022-10-03T03:34	10	0	0.1	0	1	373	0.3	372	374	13.3	91.1
2022-10-03T03:35	10	0	0.1	0	1	373	0.3	372	374	13.3	91.3
2022-10-03T03:36	10	0	0.1	0	1	373	0.3	372	374	13.3	91.5
2022-10-03T03:37	10	0	0.1	0	1	372	0.3	372	373	13.3	91.5
2022-10-03T03:38	10	0	0.1	0	1	372	0.2	372	373	13.2	91.6
2022-10-03T03:39	10	0	0.1	0	1	372	0.3	371	373	13.3	91.8
2022-10-03T03:40	10	0	0.1	0	1	372	0.3	371	372	13.3	91.5
2022-10-03T03:41	10	0	0.1	0	1	371	0.4	371	372	13.3	91.3
2022-10-03T03:42	10	1	0.1	0	1	371	0.4	370	371	13.3	91.3
2022-10-03T03:43	10	1	0.1	0	1	370	0.2	370	371	13.2	91.5
2022-10-03T03:44	10	1	0.1	0	1	370	0.3	369	370	13.3	91.5
2022-10-03T03:45	10	1	0.1	1	1	369	0.8	368	371	13.3	91.5
2022-10-03T03:46	10	1	0.1	1	1	369	0.3	368	370	13.2	91.5
2022-10-03T03:47	10	1	0.1	0	1	368	0.3	368	369	13.2	91.6
2022-10-03T03:48	10	1	0.1	0	1	369	0.3	368	369	13.1	91.9
2022-10-03T03:49	10	0	0.1	0	0	369	0.3	368	370	13.1	92.3
2022-10-03T03:50	10	0	0.1	0	0	368	0.3	368	369	13.0	92.7
2022-10-03T03:51	10	0	0.1	0	0	368	0.4	367	368	13.1	92.7
2022-10-03T03:52	10	0	0.1	0	0	367	0.2	367	368	13.1	92.6
2022-10-03T03:53	10	0	0.1	0	0	367	0.2	366	367	13.2	92.3
2022-10-03T03:54	10	0	0.1	0	0	366	0.4	365	367	13.2	92.2
2022-10-03T03:55	10	0	0.1	0	0	366	0.2	365	366	13.1	92.1
2022-10-03T03:56	10	0	0.1	0	1	365	0.6	364	366	13.1	92.2
2022-10-03T03:57	10	0	0.0	0	0	365	0.3	364	366	13.1	92.4
2022-10-03T03:58	10	0	0.1	0	1	365	0.3	364	366	13.0	92.6
2022-10-03T03:59	10	0	0.1	0	0	365	0.2	364	365	12.9	93.0
2022-10-03T04:00	10	0	0.1	0	0	364	0.2	364	365	13.0	93.4
2022-10-03T04:01	10	0	0.1	0	0	365	0.3	364	365	13.0	93.3
2022-10-03T04:02	10	0	0.1	0	0	365	0.2	364	365	12.9	93.4
2022-10-03T04:03	10	0	0.1	-1	0	364	0.2	364	365	12.9	93.5
2022-10-03T04:04	10	-1	0.1	-1	0	364	0.2	363	364	12.8	93.8
2022-10-03T04:05	10	-1	0.1	-1	-1	364	0.2	363	364	12.6	94.0
2022-10-03T04:06	10	-1	0.1	-1	-1	363	0.3	362	363	12.4	94.3
2022-10-03T04:07	10	-1	0.1	-1	-1	362	0.1	362	363	12.4	94.7
2022-10-03T04:08	10	-1	0.1	-1	0	362	0.2	362	363	12.2	94.9
2022-10-03T04:09	10	-1	0.1	-1	0	362	0.2	361	362	12.2	95.2
2022-10-03T04:10	10	0	0.1	-1	0	362	0.2	361	362	12.2	95.4
2022-10-03T04:11	10	0	0.1	-1	0	362	0.3	361	363	12.3	95.7
2022-10-03T04:12	10	0	0.1	0	0	362	0.2	361	362	12.3	95.7
2022-10-03T04:13	10	0	0.1	0	0	362	0.3	361	362	12.4	95.8
2022-10-03T04:14	10	0	0.0	0	0	362	0.2	361	362	12.4	95.8
2022-10-03T04:15	10	0	0.1	0	0	361	0.2	361	362	12.4	95.8
2022-10-03T04:16	10	0	0.1	0	0	361	0.2	361	361	12.3	95.7
2022-10-03T04:17	10	0	0.0	0	0	361	0.2	361	361	12.3	95.8
2022-10-03T04:18	10	0	0.1	0	0	361	0.2	360	362	12.4	96.0
2022-10-03T04:19	10	0	0.1	0	0	361	0.2	361	362	12.4	96.0
2022-10-03T04:20	10	0	0.1	0	0	362	0.3	361	362	12.3	96.0
2022-10-03T04:21	10	0	0.1	0	0	362	0.2	361	362	12.4	96.2
2022-10-03T04:22	10	0	0.1	0	0	362	0.2	362	363	12.4	96.2
2022-10-03T04:23	10	0	0.1	0	0	362	0.2	362	363	12.4	96.2
2022-10-03T04:24	10	0	0.1	0	0	362	0.2	361	362	12.4	96.2
2022-10-03T04:25	10	0	0.1	0	0	362	0.3	361	362	12.4	96.2
2022-10-03T04:26	10	0	0.1	0	0	361	0.3	360	362	12.3	96.1
2022-10-03T04:27	10	0	0.1	0	0	361	0.3	360	361	12.3	96.1
2022-10-03T04:28	10	0	0.1	0	0	361	0.2	360	361	12.3	96.1
2022-10-03T04:29	10	0	0.1	0	0	361	0.2	360	361	12.3	96.0
2022-10-03T04:30	10	0	0.1	0	0	361	0.3	360	362	12.4	96.0
2022-10-03T04:31	10	0	0.1	0	0	361	0.2	361	362	12.4	96.0
2022-10-03T04:32	10	0	0.1	0	0	361	0.2	361	362	12.4	96.0
2022-10-03T04:33	10	0	0.1	0	0	361	0.4	361	362	12.3	95.9
2022-10-03T04:34	10	0	0.1	0	0	363	0.4	362	364	12.3	96.0
2022-10-03T04:35	10	0	0.1	-1	0	363	0.3	363	364	12.4	96.1
2022-10-03T04:36	10	0	0.1	-1	0	363	0.2	363	364	12.5	96.1
2022-10-03T04:37	10	0	0.1	-1	0	363	0.3	362	363	12.4	95.8
2022-10-03T04:38	10	0	0.1	-1	0	362	0.2	362	362	12.4	95.6
2022-10-03T04:39	10	0	0.1	-1	0	362	0.2	362	363	12.4	95.4
2022-10-03T04:40	10	-1	0.1	-1	0	362	0.3	361	362	12.1	95.2
2022-10-03T04:41	10	-1	0.0	-1	0	362	0.2	361	362	12.0	95.5
2022-10-03T04:42	10	-1	0.1	-1	-1	361	0.3	361	362	11.9	95.8
2022-10-03T04:43	10	-1	0.1	-1	-1	362	0.2	362	363	11.9	96.2
2022-10-03T04:44	10	-1	0.1	-1	-1	362	0.2	362	363	11.9	96.4
2022-10-03T04:45	10	-1	0.1	-1	-1	362	0.4	361	363	12.0	96.4
2022-10-03T04:46	10	-1	0.1	-1	-1	362	0.3	361	362	12.0	96.3
2022-10-03T04:47	10	-1	0.1	-1	-1	361	0.3	361	362	11.9	96.2
2022-10-03T04:48	10	-1	0.1	-1	-1	361	0.2	361	361	11.8	96.3
2022-10-03T04:49	10	-1	0.1	-1	-1	360	0.3	360	361	11.8	96.4
2022-10-03T04:50	10	-1	0.1	-1	-1	360	0.3	359	360	11.8	96.6
2022-10-03T04:51	10	-1	0.1	-1	-1	359	0.4	358	359	11.7	96.6
2022-10-03T04:52	10	-1	0.1	-1	0	358	0.2	358	359	11.7	96.8
2022-10-03T04:53	10	-1	0.1	-1	0	358	0.2	358	359	11.8	96.9
2022-10-03T04:54	10	0	0.2	-1	0	358	0.4	357	359	11.8	97.1
2022-10-03T04:55	10	0	0.1	-1	0	357	0.2	357	358	11.9	97.1
2022-10-03T04:56	10	0	0.1	-1	0	357	0.1	357	358	11.9	97.1
2022-10-03T04:57	10	0	0.1	-1	0	357	0.2	357	358	11.9	97.1
2022-10-03T04:58	10	0	0.1	-1	0	357	0.2	357	358	11.9	97.1
2022-10-03T04:59	10	0	0.1	-1	0	357	0.3	357	358	12.0	97.1
2022-10-03T05:00	10	0	0.2	-1	0	357	0.2	357	358	12.1	97.0
2022-10-03T05:01	10	0	0.1	-1	0	357	0.2	356	358	12.3	96.9
2022-10-03T05:02	10	0	0.1	-1	0	357	0.3	356	357	12.3	96.6
2022-10-03T05:03	10	0	0.2	-1	0	356	0.2	356	357	12.3	96.3
2022-10-03T05:04	10	0	0.1	-1	0	356	0.3	355	357	12.3	95.9
2022-10-03T05:05	10	0	0.2	-1	0	356	0.2	355	356	12.2	95.7
2022-10-03T05:06	10	0	0.1	-1	0	355	0.2	355	356	12.1	95.7
2022-10-03T05:07	10	-1	0.1	-1	0	356	0.2	355	356	12.2	95.7
2022-10-03T05:08	10	-1	0.1	-1	0	356	0.2	355	356	12.3	95.8
2022-10-03T05:09	10	-1	0.2	-1	0	356	0.2	355	356	12.2	95.6
2022-10-03T05:10	10	-1	0.1	-1	-1	356	0.2	355	356	12.1	95.5
2022-10-03T05:11	10	-1	0.1	-1	-1	356	0.2	355	356	12.2	95.8
2022-10-03T05:12	10	-1	0.1	-1	-1	356	0.4	355	356	12.1	95.8
2022-10-03T05:13	10	-1	0.1	-1	-1	355	0.3	354	356	11.9	95.8
2022-10-03T05:14	10	-1	0.1	-1	-1	355	0.3	354	355	11.8	95.9
2022-10-03T05:15	10	-1	0.1	-1	-1	355	0.4	354	356	11.7	96.1
2022-10-03T05:16	10	-1	0.1	-1	-1	355	0.2	354	355	11.7	96.3
2022-10-03T05:17	10	-1	0.1	-1	-1	355	0.2	354	355	11.7	96.5
2022-10-03T05:18	10	-1	0.1	-1	-1	354	0.3	353	355	11.6	96.5
2022-10-03T05:19	10	-1	0.1	-1	0	354	0.3	353	354	11.4	96.5
2022-10-03T05:20	10	-1	0.1	-1	-1	353	0.3	353	354	11.5	96.8
2022-10-03T05:21	10	-1	0.1	-1	-1	353	0.2	353	353	11.2	96.7
2022-10-03T05:22	10	-1	0.1	-1	0	353	0.4	352	354	11.3	96.9
2022-10-03T05:23	10	-1	0.1	-1	0	354	0.3	354	355	11.4	97.2
2022-10-03T05:24	10	0	0.1	-1	0	354	0.4	354	355	11.4	97.4
2022-10-03T05:25	10	0	0.1	-1	0	355	0.2	354	355	11.5	97.6
2022-10-03T05:26	10	0	0.1	-1	0	355	0.2	355	356	11.5	97.6
2022-10-03T05:27	10	-1	0.1	-1	0	355	0.3	355	356	11.4	97.5
2022-10-03T05:28	10	-1	0.1	-1	-1	356	0.2	355	356	11.4	97.6
2022-10-03T05:29	10	-1	0.1	-1	-1	356	0.3	355	356	11.3	97.6
2022-10-03T05:30	10	-1	0.1	-1	-1	356	0.2	355	356	11.4	97.7
2022-10-03T05:31	10	-1	0.1	-1	-1	356	0.2	355	356	11.3	97.7
2022-10-03T05:32	10	-1	0.1	-1	-1	355	0.2	355	356	11.1	97.6
2022-10-03T05:33	10	-1	0.1	-1	0	355	0.2	355	356	11.1	97.7
2022-10-03T05:34	10	-1	0.1	-1	0	355	0.3	355	356	11.1	97.7
2022-10-03T05:35	10	0	0.1	-1	0	356	0.2	355	356	11.2	97.8
2022-10-03T05:36	10	0	0.1	-1	0	356	0.3	355	356	11.1	97.9
2022-10-03T05:37	10	0	0.1	0	0	356	0.2	356	357	11.1	97.9
2022-10-03T05:38	10	0	0.1	0	0	356	0.2	356	356	11.1	98.0
2022-10-03T05:39	10	0	0.1	0	0	356	0.3	355	356	11.1	98.0
2022-10-03T05:40	10	0	0.1	0	0	356	0.2	355	356	11.0	98.0
2022-10-03T05:41	10	0	0.1	0	0	356	0.2	355	356	11.1	98.1
2022-10-03T05:42	10	0	0.1	0	0	356	0.2	355	356	11.0	98.1
2022-10-03T05:43	10	0	0.1	0	0	355	0.3	355	356	11.1	98.2
2022-10-03T05:44	10	0	0.1	0	0	356	0.3	355	356	11.1	98.2
2022-10-03T05:45	10	0	0.1	0	0	355	0.2	355	356	11.1	98.3
2022-10-03T05:46	10	0	0.1	0	0	355	0.2	355	356	11.0	98.2
2022-10-03T05:47	10	0	0.1	0	0	355	0.2	355	356	11.0	98.3
2022-10-03T05:48	10	0	0.1	0	0	355	0.2	355	356	11.0	98.3
2022-10-03T05:49	10	0	0.1	0	1	355	0.2	354	355	11.0	98.3
2022-10-03T05:50	10	1	0.1	0	1	355	0.2	354	355	10.9	98.3
2022-10-03T05:51	10	1	0.1	0	1	355	0.3	354	355	10.9	98.3
2022-10-03T05:52	10	1	0.0	1	1	355	0.2	354	355	10.9	98.3
2022-10-03T05:53	10	1	0.1	1	1	355	0.2	354	356	10.8	98.3
2022-10-03T05:54	10	1	0.1	1	1	355	0.2	355	356	10.7	98.3
2022-10-03T05:55	10	1	0.1	1	1	355	0.2	354	356	10.7	98.3
2022-10-03T05:56	10	1	0.1	1	1	355	0.3	355	356	10.8	98.4
2022-10-03T05:57	10	1	0.1	1	2	355	0.2	355	356	10.8	98.4
2022-10-03T05:58	10	2	0.1	1	2	355	0.3	354	355	10.9	98.5
2022-10-03T05:59	10	2	0.1	2	2	354	0.2	354	355	10.8	98.5
2022-10-03T06:00	10	2	0.1	2	2	354	0.2	354	355	10.8	98.5
2022-10-03T06:01	10	2	0.1	2	2	354	0.2	353	354	10.8	98.5
2022-10-03T06:02	10	3	0.3	2	3	354	0.3	354	355	10.9	98.5
2022-10-03T06:03	10	4	0.7	3	6	355	0.3	354	355	11.0	98.6
2022-10-03T06:04	10	7	1.2	6	10	355	0.4	354	356	11.1	98.6
2022-10-03T06:05	10	12	1.7	10	15	356	0.5	354	357	11.1	98.6
2022-10-03T06:06	10	18	1.3	15	20	356	0.4	356	357	11.1	98.6
2022-10-03T06:07	10	21	0.6	20	22	358	0.4	356	358	11.1	98.6
2022-10-03T06:08	10	22	0.3	22	23	358	0.3	358	359	11.1	98.6
2022-10-03T06:09	10	23	0.2	22	23	359	0.3	359	360	11.1	98.5
2022-10-03T06:10	10	23	0.2	23	24	360	0.2	359	360	11.1	98.5
2022-10-03T06:11	10	24	0.1	24	24	360	0.2	360	361	11.1	98.5
2022-10-03T06:12	10	25	0.2	24	25	361	0.2	360	361	11.1	98.5
2022-10-03T06:13	10	26	0.3	25	26	361	0.3	361	362	11.1	98.4
2022-10-03T06:14	10	27	0.3	26	27	362	0.2	361	362	11.1	98.3
2022-10-03T06:15	10	27	0.2	27	28	363	0.3	362	363	11.1	98.3
2022-10-03T06:16	10	28	0.2	28	28	364	0.3	363	364	11.3	98.3
2022-10-03T06:17	10	29	0.3	28	29	364	0.2	364	365	11.4	98.2
2022-10-03T06:18	10	30	0.3	29	30	365	0.2	365	365	11.5	98.2
2022-10-03T06:19	10	30	0.1	30	31	365	0.2	365	366	11.6	98.1
2022-10-03T06:20	10	31	0.3	30	32	366	0.2	365	366	11.6	98.0
2022-10-03T06:21	10	31	0.8	29	32	366	0.3	365	366	11.5	97.8
2022-10-03T06:22	10	28	0.8	26	29	366	0.2	365	366	11.6	97.6
2022-10-03T06:23	10	23	1.0	22	26	366	0.4	365	367	11.6	97.4
2022-10-03T06:24	10	30	1.8	25	31	366	0.3	366	367	11.5	97.1
2022-10-03T06:25	10	30	0.6	30	32	367	0.2	366	367	11.5	96.9
2022-10-03T06:26	10	31	1.4	28	33	367	0.2	367	368	11.5	96.7
2022-10-03T06:27	10	35	3.4	28	38	368	0.5	367	369	11.4	96.5
2022-10-03T06:28	10	38	2.7	29	40	370	0.3	369	370	11.4	96.5
2022-10-03T06:29	10	31	2.7	26	34	370	0.2	369	371	11.5	96.5
2022-10-03T06:30	10	29	2.8	26	34	371	0.5	370	371	11.5	96.5
2022-10-03T06:31	10	35	2.7	29	38	371	0.5	370	372	11.5	96.3
2022-10-03T06:32	10	29	3.1	22	35	372	0.3	371	372	11.5	96.3
2022-10-03T06:33	10	15	2.1	12	22	371	0.6	370	372	11.5	96.3
2022-10-03T06:34	10	11	0.4	11	12	370	0.4	369	371	11.5	96.3
2022-10-03T06:35	10	11	0.1	11	11	370	0.3	369	371	11.6	96.4
2022-10-03T06:36	10	11	0.1	10	11	369	0.2	369	370	11.6	96.4
2022-10-03T06:37	10	11	0.1	10	11	369	0.2	368	369	11.6	96.4
2022-10-03T06:38	10	11	0.2	11	12	369	0.2	369	370	11.5	96.4
2022-10-03T06:39	10	12	0.2	12	12	369	0.2	369	370	11.6	96.5
2022-10-03T06:40	10	12	0.1	12	13	370	0.3	369	371	11.6	96.6
2022-10-03T06:41	10	12	0.1	12	13	370	0.2	370	371	11.5	96.5
2022-10-03T06:42	10	12	0.1	12	13	370	0.3	370	371	11.5	96.5
2022-10-03T06:43	10	13	0.2	13	13	370	0.2	370	371	11.6	96.6
2022-10-03T06:44	10	14	0.3	13	14	371	0.3	370	371	11.5	96.5
2022-10-03T06:45	10	15	0.4	14	16	371	0.3	371	372	11.6	96.5
2022-10-03T06:46	10	16	0.2	16	16	372	0.3	371	372	11.5	96.4
2022-10-03T06:47	10	17	0.1	16	17	373	0.3	372	373	11.6	96.5
2022-10-03T06:48	10	16	0.1	16	17	373	0.2	372	373	11.6	96.5
2022-10-03T06:49	10	16	0.2	15	16	373	0.3	372	374	11.5	96.4
2022-10-03T06:50	10	15	0.1	15	16	373	0.3	372	373	11.5	96.2
2022-10-03T06:51	10	16	0.2	15	16	373	0.2	373	374	11.5	96.1
2022-10-03T06:52	10	17	0.4	16	18	374	0.2	373	374	11.4	96.0
2022-10-03T06:53	10	18	0.1	18	18	374	0.4	373	375	11.4	96.0
2022-10-03T06:54	10	18	0.2	17	18	375	0.3	374	375	11.5	96.2
2022-10-03T06:55	10	17	0.2	16	17	375	0.2	375	376	11.6	96.3
2022-10-03T06:56	10	16	0.3	16	16	375	0.2	375	376	11.6	96.3
2022-10-03T06:57	10	15	0.2	15	16	375	0.2	375	376	11.7	96.1
2022-10-03T06:58	10	15	0.1	15	15	376	0.2	375	376	11.8	96.0
2022-10-03T06:59	10	15	0.1	15	16	376	0.2	375	376	11.9	95.8
2022-10-03T07:00	10	16	0.2	16	16	376	0.3	375	377	11.9	95.4
2022-10-03T07:01	10	17	0.2	16	17	376	0.2	375	377	11.9	95.2
2022-10-03T07:02	10	17	0.2	17	18	377	0.2	376	377	11.9	95.1
2022-10-03T07:03	10	18	0.3	18	19	377	0.4	376	378	12.0	95.3
2022-10-03T07:04	10	19	0.3	19	20	378	0.4	377	379	12.1	95.4
2022-10-03T07:05	10	20	0.3	20	21	378	0.3	378	379	12.3	95.0
2022-10-03T07:06	10	21	0.2	21	22	378	0.2	378	379	12.4	94.3
2022-10-03T07:07	10	22	0.2	21	22	379	0.3	378	379	12.4	94.1
2022-10-03T07:08	10	22	0.1	22	22	379	0.3	378	380	12.4	94.0
2022-10-03T07:09	10	22	0.2	22	22	379	0.2	379	379	12.4	94.1
2022-10-03T07:10	10	23	0.2	22	23	379	0.3	379	380	12.4	94.2
2022-10-03T07:11	10	23	0.1	23	23	379	0.2	379	380	12.5	94.3
2022-10-03T07:12	10	23	0.1	23	24	379	0.4	378	380	12.5	94.3
2022-10-03T07:13	10	24	0.2	24	25	380	0.3	379	380	12.6	94.4
2022-10-03T07:14	10	24	0.1	24	24	380	0.3	380	381	12.6	94.1
2022-10-03T07:15	10	24	0.2	23	24	380	0.2	380	381	12.6	94.1
2022-10-03T07:16	10	23	0.3	23	24	380	0.2	380	381	12.6	93.8
2022-10-03T07:17	10	22	0.3	21	23	380	0.2	380	381	12.6	93.8
2022-10-03T07:18	10	21	0.3	21	22	380	0.2	380	381	12.6	93.9
2022-10-03T07:19	10	20	0.2	20	21	380	0.2	380	381	12.6	93.8
2022-10-03T07:20	10	20	0.1	20	21	380	0.3	380	381	12.6	93.9
2022-10-03T07:21	10	20	0.1	20	20	380	0.2	380	381	12.6	94.0
2022-10-03T07:22	10	20	0.1	20	20	380	0.2	380	381	12.6	94.1
2022-10-03T07:23	10	20	0.1	20	20	381	0.3	380	382	12.6	94.2
2022-10-03T07:24	10	20	0.2	20	21	381	0.3	380	382	12.6	94.3
2022-10-03T07:25	10	21	0.1	20	21	381	0.3	381	382	12.7	94.3
2022-10-03T07:26	10	21	0.2	20	21	381	0.3	381	382	12.8	94.5
2022-10-03T07:27	10	20	0.2	20	21	382	0.2	381	382	12.8	94.4
2022-10-03T07:28	10	20	0.2	20	21	382	0.2	381	382	12.8	94.1
2022-10-03T07:29	10	20	0.1	20	20	381	0.4	381	382	12.8	94.1
2022-10-03T07:30	10	20	0.1	20	20	381	0.2	380	381	12.8	94.2
2022-10-03T07:31	10	20	0.2	19	20	381	0.2	380	381	12.8	94.3
2022-10-03T07:32	10	20	0.1	20	20	381	0.3	380	381	12.8	94.4
2022-10-03T07:33	10	20	0.2	20	21	381	0.2	380	381	12.8	94.6
2022-10-03T07:34	10	21	0.3	20	22	381	0.3	380	382	12.9	94.7
2022-10-03T07:35	10	21	0.2	21	22	381	0.3	381	382	12.8	94.8
2022-10-03T07:36	10	22	0.2	21	22	381	0.3	381	382	12.8	94.9
2022-10-03T07:37	10	22	0.2	22	23	381	0.4	381	382	12.9	95.0
2022-10-03T07:38	10	22	0.2	22	23	382	0.3	381	382	12.9	95.1
2022-10-03T07:39	10	23	0.2	22	23	382	0.3	381	382	12.9	95.2
2022-10-03T07:40	10	23	0.2	22	23	381	0.3	381	382	12.9	95.3
2022-10-03T07:41	10	22	0.2	22	23	381	0.4	381	382	12.9	95.3
2022-10-03T07:42	10	23	0.7	22	25	381	0.4	380	383	12.8	95.3
2022-10-03T07:43	10	26	0.6	25	27	382	0.3	381	383	12.9	95.5
2022-10-03T07:44	10	27	0.2	27	27	382	0.2	382	383	12.9	95.5
2022-10-03T07:45	10	27	0.3	26	27	383	0.3	382	383	12.9	95.6
2022-10-03T07:46	10	25	0.6	24	26	383	0.3	382	384	12.9	95.6
2022-10-03T07:47	10	24	0.2	24	25	383	0.4	382	383	12.9	95.7
2022-10-03T07:48	10	25	0.6	24	26	382	0.3	381	382	12.8	95.7
2022-10-03T07:49	10	26	0.4	25	26	382	0.3	381	382	12.8	95.9
2022-10-03T07:50	10	26	0.4	25	26	382	0.4	381	383	12.8	95.9
2022-10-03T07:51	10	26	0.2	25	26	382	0.3	381	383	12.8	96.0
2022-10-03T07:52	10	27	0.4	26	27	382	0.3	381	383	12.8	96.0
2022-10-03T07:53	10	28	0.3	27	29	382	0.2	382	383	12.8	96.1
2022-10-03T07:54	10	29	0.1	28	29	382	0.3	382	383	12.7	96.1
2022-10-03T07:55	10	29	0.2	29	30	383	0.3	382	384	12.8	96.2
2022-10-03T07:56	10	29	0.2	29	30	383	0.3	382	383	12.8	96.2
2022-10-03T07:57	10	29	0.2	28	29	383	0.3	382	383	12.8	96.3
2022-10-03T07:58	10	28	0.3	28	29	383	0.2	382	383	12.9	96.4
2022-10-03T07:59	10	28	0.1	27	28	383	0.2	382	383	12.8	96.3
2022-10-03T08:00	10	28	0.2	28	28	383	0.3	383	384	12.9	96.3
2022-10-03T08:01	10	28	0.1	28	29	384	0.3	383	384	12.9	96.3
2022-10-03T08:02	10	28	0.2	27	28	384	0.3	383	384	12.9	96.4
2022-10-03T08:03	10	28	0.2	27	28	383	0.2	383	384	12.9	96.4
2022-10-03T08:04	10	29	0.5	28	30	384	0.3	383	384	12.9	96.3
2022-10-03T08:05	10	30	0.2	30	31	383	0.3	383	384	12.9	96.3
2022-10-03T08:06	10	31	0.3	31	32	384	0.2	384	385	13.0	96.3
2022-10-03T08:07	10	32	0.2	32	32	384	0.3	383	385	12.9	96.2
2022-10-03T08:08	10	32	0.5	31	32	384	0.2	384	384	12.9	96.2
2022-10-03T08:09	10	30	0.1	30	31	384	0.2	384	385	13.0	96.1
2022-10-03T08:10	10	30	0.1	30	31	384	0.3	384	385	13.0	96.1
2022-10-03T08:11	10	29	0.5	28	30	384	0.3	384	385	13.0	96.0
2022-10-03T08:12	10	28	0.3	27	28	385	0.2	384	385	13.1	96.2
2022-10-03T08:13	10	27	0.5	26	27	385	0.5	384	386	13.1	96.0
2022-10-03T08:14	10	24	0.9	23	26	384	0.5	383	385	13.0	95.9
2022-10-03T08:15	10	20	1.4	18	23	383	0.4	382	384	13.0	95.9
2022-10-03T08:16	10	16	1.0	14	18	383	0.3	382	383	13.0	96.0
2022-10-03T08:17	10	15	0.3	15	16	382	0.2	381	382	12.9	95.9
2022-10-03T08:18	10	14	0.6	13	15	381	0.3	381	382	13.0	96.0
2022-10-03T08:19	10	13	0.2	13	14	381	0.2	380	381	12.9	96.0
2022-10-03T08:20	10	15	1.1	14	18	381	0.3	380	381	13.0	96.0
2022-10-03T08:21	10	18	0.3	18	19	382	0.5	381	383	13.0	96.0
2022-10-03T08:22	10	21	1.3	19	23	382	0.3	382	383	13.0	96.0
2022-10-03T08:23	10	22	0.3	22	23	382	0.4	381	383	13.0	96.0
2022-10-03T08:24	10	22	0.2	22	23	383	0.3	382	383	13.1	95.9
2022-10-03T08:25	10	23	0.1	22	23	383	0.3	383	384	13.1	96.0
2022-10-03T08:26	10	24	0.8	23	26	384	0.3	383	384	13.1	95.9
2022-10-03T08:27	10	26	0.2	26	26	384	0.3	383	384	13.1	95.8
2022-10-03T08:28	10	27	0.2	26	27	384	0.4	384	385	13.2	95.9
2022-10-03T08:29	10	27	0.4	26	27	385	0.2	384	385	13.2	95.8
2022-10-03T08:30	10	25	0.5	24	26	385	0.2	384	385	13.2	95.8
2022-10-03T08:31	10	25	0.1	24	25	384	0.3	384	385	13.2	95.6
2022-10-03T08:32	10	25	0.2	24	25	385	0.2	384	386	13.3	95.6
2022-10-03T08:33	10	23	0.7	22	24	385	0.5	383	385	13.3	95.5
2022-10-03T08:34	10	22	0.2	22	23	384	0.3	383	384	13.2	95.4
2022-10-03T08:35	10	22	0.2	22	22	383	0.4	382	384	13.1	95.3
2022-10-03T08:36	10	22	0.2	21	22	382	0.2	382	383	13.1	95.3
2022-10-03T08:37	10	21	0.4	20	21	382	0.3	381	383	13.1	95.4
2022-10-03T08:38	10	21	0.3	20	21	383	0.4	382	384	13.1	95.5
2022-10-03T08:39	10	20	0.5	19	21	383	0.3	383	384	13.2	95.5
2022-10-03T08:40	10	21	1.1	20	24	383	0.2	383	384	13.2	95.3
2022-10-03T08:41	10	25	0.6	24	26	383	0.4	382	384	13.1	95.2
2022-10-03T08:42	10	27	0.6	26	28	383	0.4	382	383	13.0	95.0
2022-10-03T08:43	10	30	1.1	28	32	383	0.4	383	385	13.0	95.0
2022-10-03T08:44	10	32	0.3	32	33	384	0.5	383	385	13.0	95.1
2022-10-03T08:45	10	30	1.5	27	32	384	0.3	383	385	13.0	94.9
2022-10-03T08:46	10	25	0.9	24	27	383	0.7	382	385	13.0	94.9
2022-10-03T08:47	10	24	0.1	24	25	383	0.4	382	384	13.0	94.8
2022-10-03T08:48	10	25	0.2	24	25	384	0.3	383	384	13.1	94.9
2022-10-03T08:49	10	24	0.2	24	24	384	0.7	382	385	13.1	94.8
2022-10-03T08:50	10	26	0.8	24	27	382	0.3	382	383	13.0	94.6
2022-10-03T08:51	10	26	0.3	26	27	383	0.5	382	384	13.0	94.7
2022-10-03T08:52	10	26	0.4	26	27	383	0.4	382	384	13.0	94.6
2022-10-03T08:53	10	28	0.4	27	29	383	0.4	382	384	13.0	94.6
2022-10-03T08:54	10	29	0.3	28	29	383	0.4	382	384	13.0	94.6
2022-10-03T08:55	10	29	0.4	28	30	383	0.4	382	384	12.9	94.5
2022-10-03T08:56	10	31	0.7	30	32	384	0.4	383	384	13.0	94.5
2022-10-03T08:57	10	32	0.1	32	32	385	0.2	384	385	13.1	94.4
2022-10-03T08:58	10	32	0.1	32	32	385	0.3	384	386	13.2	94.3
2022-10-03T08:59	10	32	0.2	32	32	386	0.4	384	386	13.2	94.2
2022-10-03T09:00	10	33	0.3	32	34	385	0.2	384	386	13.2	93.9
2022-10-03T09:01	10	34	0.1	33	34	386	0.4	385	386	13.2	93.9
2022-10-03T09:02	10	34	0.1	33	34	386	0.3	386	387	13.2	93.8
2022-10-03T09:03	10	34	0.2	34	35	386	0.3	385	387	13.2	93.8
2022-10-03T09:04	10	35	0.1	35	35	386	0.3	385	386	13.3	93.7
2022-10-03T09:05	10	35	0.1	34	35	385	0.4	384	386	13.3	93.5
2022-10-03T09:06	10	35	0.1	35	35	385	0.3	384	385	13.2	93.2
2022-10-03T09:07	10	35	0.2	35	36	386	0.4	385	386	13.3	93.2
2022-10-03T09:08	10	36	0.2	36	36	386	0.6	385	387	13.3	93.1
2022-10-03T09:09	10	37	0.4	36	38	385	0.2	385	386	13.3	92.7
2022-10-03T09:10	10	39	0.6	38	40	386	0.2	385	386	13.3	92.5
2022-10-03T09:11	10	41	0.8	40	42	386	0.3	385	386	13.3	92.4
2022-10-03T09:12	10	43	0.4	43	44	386	0.2	386	387	13.3	92.4
2022-10-03T09:13	10	44	0.1	44	44	386	0.5	385	387	13.3	92.2
2022-10-03T09:14	10	43	0.3	43	44	388	0.5	387	388	13.5	92.5
2022-10-03T09:15	10	44	0.3	43	44	389	0.3	388	389	13.6	92.4
2022-10-03T09:16	10	44	0.2	44	45	388	0.5	388	389	13.5	92.0
2022-10-03T09:17	10	46	0.9	45	48	389	0.5	388	390	13.6	92.1
2022-10-03T09:18	10	48	0.2	48	49	391	0.2	390	391	13.7	92.0
2022-10-03T09:19	10	48	0.2	48	48	389	0.9	387	391	13.6	91.4
2022-10-03T09:20	10	48	0.1	48	48	388	0.4	387	389	13.6	91.1
2022-10-03T09:21	10	48	0.2	48	49	389	0.4	388	389	13.6	91.0
2022-10-03T09:22	10	51	1.4	49	53	388	0.4	388	389	13.6	90.9
2022-10-03T09:23	10	56	1.7	53	59	390	0.8	389	391	13.6	90.9
2022-10-03T09:24	10	59	0.3	59	60	390	0.4	389	391	13.6	90.8
2022-10-03T09:25	10	60	0.1	59	60	389	0.5	389	391	13.6	90.3
2022-10-03T09:26	10	60	0.3	59	61	390	0.5	389	391	13.6	90.6
2022-10-03T09:27	10	61	0.6	61	63	391	0.5	390	392	13.6	90.3
2022-10-03T09:28	10	64	0.8	63	65	392	0.3	391	392	13.6	90.3
2022-10-03T09:29	10	64	0.3	64	65	392	0.8	390	393	13.6	90.2
2022-10-03T09:30	10	63	0.4	62	64	391	0.3	390	391	13.6	90.2
2022-10-03T09:31	10	61	0.7	60	62	391	0.5	390	392	13.7	89.9
2022-10-03T09:32	10	60	0.2	60	61	390	0.7	389	391	13.7	89.5
2022-10-03T09:33	10	63	0.8	61	64	390	0.3	390	391	13.6	89.5
2022-10-03T09:34	10	65	0.6	64	66	391	0.6	390	392	13.7	89.3
2022-10-03T09:35	10	67	0.8	65	68	392	0.8	391	394	13.7	89.4
2022-10-03T09:36	10	69	0.2	68	69	394	0.6	393	395	13.9	89.4
2022-10-03T09:37	10	68	0.2	68	69	394	0.5	393	395	13.8	88.8
2022-10-03T09:38	10	70	0.9	69	72	393	0.6	392	395	13.8	88.9
2022-10-03T09:39	10	72	0.2	71	72	395	0.5	394	396	14.0	88.9
2022-10-03T09:40	10	71	0.4	71	72	394	1.1	393	396	13.9	88.4
2022-10-03T09:41	10	71	0.1	70	71	393	0.4	393	394	13.9	88.3
2022-10-03T09:42	10	71	0.1	71	71	393	0.4	393	394	13.8	88.3
2022-10-03T09:43	10	71	0.3	70	71	393	0.3	393	394	13.8	88.1
2022-10-03T09:44	10	71	0.1	71	72	393	0.3	393	394	13.8	88.1
2022-10-03T09:45	10	72	0.1	72	72	394	1.0	392	395	13.8	88.3
2022-10-03T09:46	10	71	0.5	70	71	395	0.4	394	396	13.9	88.2
2022-10-03T09:47	10	69	0.4	68	70	395	0.8	394	396	13.9	88.1
2022-10-03T09:48	10	68	0.1	68	68	395	0.8	394	396	14.0	88.4
2022-10-03T09:49	10	68	0.2	68	69	397	0.6	396	398	14.3	88.7
2022-10-03T09:50	10	69	0.3	69	70	399	0.4	398	399	14.3	87.9
2022-10-03T09:51	10	70	0.4	70	72	398	0.7	396	399	14.2	87.4
2022-10-03T09:52	10	70	0.2	69	70	397	0.7	395	398	14.3	87.6
2022-10-03T09:53	10	68	0.7	67	69	396	0.6	395	397	14.2	87.0
2022-10-03T09:54	10	66	0.2	66	67	394	0.7	393	395	14.1	86.8
2022-10-03T09:55	10	67	0.2	66	67	393	0.5	392	394	14.1	87.0
2022-10-03T09:56	10	67	0.2	66	67	393	0.5	392	394	14.0	87.1
2022-10-03T09:57	10	65	0.4	65	66	394	0.3	394	395	14.1	87.1
2022-10-03T09:58	10	65	0.1	65	65	395	0.3	394	395	14.1	87.1
2022-10-03T09:59	10	65	0.2	64	65	395	0.8	394	397	14.1	87.3
2022-10-03T10:00	10	63	0.4	62	64	396	0.8	395	398	14.3	87.3
2022-10-03T10:01	10	62	0.2	62	62	394	0.4	394	395	14.2	86.9
2022-10-03T10:02	10	63	0.7	62	64	394	0.5	393	395	14.1	86.8
2022-10-03T10:03	10	68	1.7	65	70	394	0.4	393	395	14.1	86.9
2022-10-03T10:04	10	73	0.9	71	74	396	0.7	395	397	14.2	87.0
2022-10-03T10:05	10	72	1.0	70	74	396	0.3	395	397	14.2	86.9
2022-10-03T10:06	10	69	0.8	68	70	396	0.3	395	397	14.2	86.8
2022-10-03T10:07	10	69	0.7	68	70	396	0.3	395	397	14.2	86.8
2022-10-03T10:08	10	72	0.9	70	73	397	0.4	396	398	14.4	86.9
2022-10-03T10:09	10	74	0.3	73	74	396	0.5	395	397	14.3	86.1
2022-10-03T10:10	10	76	0.9	74	77	396	0.6	394	397	14.2	86.1
2022-10-03T10:11	10	80	1.2	77	81	398	1.0	396	399	14.4	86.8
2022-10-03T10:12	10	82	0.9	81	84	397	0.4	396	398	14.3	86.1
2022-10-03T10:13	10	89	3.9	84	97	398	0.3	398	399	14.3	86.4
2022-10-03T10:14	10	119	13.0	97	138	401	2.1	398	404	14.4	86.1
2022-10-03T10:15	10	116	4.8	108	129	403	0.4	402	403	14.5	85.8
2022-10-03T10:16	10	102	2.8	97	108	403	0.4	402	404	14.6	85.6
2022-10-03T10:17	10	93	1.1	93	96	402	0.7	401	403	14.6	85.7
2022-10-03T10:18	10	87	3.5	82	93	401	0.4	400	402	14.6	85.5
2022-10-03T10:19	10	80	0.6	79	81	399	0.9	398	401	14.6	85.1
2022-10-03T10:20	10	81	0.6	79	81	399	0.5	398	400	14.5	85.0
2022-10-03T10:21	10	79	0.3	78	79	397	0.5	397	399	14.5	84.8
2022-10-03T10:22	10	76	3.0	72	80	398	0.4	397	398	14.5	85.0
2022-10-03T10:23	10	71	1.2	70	75	398	0.6	396	399	14.6	85.2
2022-10-03T10:24	10	80	3.0	75	85	397	0.5	397	398	14.6	85.1
2022-10-03T10:25	10	91	4.2	85	103	399	0.7	397	400	14.6	84.9
2022-10-03T10:26	10	101	2.0	98	104	401	0.8	399	402	14.7	84.5
2022-10-03T10:27	10	87	5.4	81	100	399	1.7	397	403	14.6	83.8
2022-10-03T10:28	10	81	1.0	80	85	398	0.6	396	399	14.6	83.7
2022-10-03T10:29	10	90	2.8	86	95	399	0.8	397	400	14.7	83.8
2022-10-03T10:30	10	85	1.6	84	89	398	0.9	397	400	14.7	83.9
2022-10-03T10:31	10	86	2.1	83	90	398	0.5	397	399	14.7	83.7
2022-10-03T10:32	10	88	3.8	85	99	400	0.7	398	401	14.8	83.9
2022-10-03T10:33	10	84	2.5	81	94	400	0.4	400	401	14.8	84.1
2022-10-03T10:34	10	78	1.7	76	81	400	0.6	399	401	14.8	83.9
2022-10-03T10:35	10	80	1.1	77	82	399	1.1	396	400	14.7	83.8
2022-10-03T10:36	10	83	1.2	82	86	399	1.0	396	400	14.7	83.6
2022-10-03T10:37	10	83	0.9	81	85	401	0.7	399	402	14.9	84.1
2022-10-03T10:38	10	81	2.2	77	85	402	0.4	401	403	15.0	84.0
2022-10-03T10:39	10	77	0.3	77	78	401	0.4	401	403	14.9	83.7
2022-10-03T10:40	10	80	0.6	78	80	402	0.6	400	403	15.1	84.0
2022-10-03T10:41	10	78	0.9	77	80	402	0.7	401	403	15.1	83.5
2022-10-03T10:42	10	79	1.5	77	82	401	0.9	400	403	15.1	82.8
2022-10-03T10:43	10	87	3.0	82	91	399	0.5	398	400	14.9	81.8
2022-10-03T10:44	10	92	0.8	91	95	400	0.4	399	401	14.9	81.9
2022-10-03T10:45	10	98	1.5	95	100	401	0.7	400	402	14.9	81.6
2022-10-03T10:46	10	96	1.0	95	98	403	0.5	401	404	15.1	81.9
2022-10-03T10:47	10	99	0.4	98	100	402	0.6	401	404	15.1	81.0
2022-10-03T10:48	10	102	0.4	100	103	402	0.5	401	403	15.1	81.2
2022-10-03T10:49	10	98	2.6	94	102	403	0.3	402	403	15.2	81.5
2022-10-03T10:50	10	95	0.8	94	97	402	0.8	400	403	15.2	81.4
2022-10-03T10:51	10	97	0.7	95	97	401	0.9	399	402	15.2	81.0
2022-10-03T10:52	10	95	0.3	94	95	401	0.7	400	402	15.1	80.9
2022-10-03T10:53	10	91	2.1	87	94	402	0.3	401	403	15.1	81.3
2022-10-03T10:54	10	86	0.5	85	87	402	0.4	401	403	15.2	81.2
2022-10-03T10:55	10	87	1.0	85	89	401	1.3	399	404	15.1	80.3
2022-10-03T10:56	10	85	0.3	84	85	400	0.5	399	401	15.1	80.7
2022-10-03T10:57	10	85	0.5	84	85	401	0.6	399	402	15.1	80.7
2022-10-03T10:58	10	86	1.9	84	90	401	0.8	399	403	15.2	81.5
2022-10-03T10:59	10	97	3.4	90	102	402	0.9	400	403	15.3	80.4
2022-10-03T11:00	10	90	2.0	86	93	401	0.5	400	402	15.1	79.4
2022-10-03T11:01	10	86	0.4	85	87	400	0.4	399	401	15.1	80.0
2022-10-03T11:02	10	89	1.1	87	90	401	0.8	400	403	15.2	80.5
2022-10-03T11:03	10	86	0.8	85	89	402	0.8	400	403	15.2	80.2
2022-10-03T11:04	10	85	0.5	84	86	401	1.0	399	403	15.1	80.2
2022-10-03T11:05	10	84	0.1	84	84	402	0.4	402	403	15.3	80.6
2022-10-03T11:06	10	83	0.4	82	84	402	0.7	401	403	15.2	80.2
2022-10-03T11:07	10	82	0.3	82	83	403	0.7	401	404	15.4	80.8
2022-10-03T11:08	10	81	0.8	80	82	403	0.4	402	404	15.4	80.5
2022-10-03T11:09	10	79	0.3	79	80	402	1.6	400	404	15.4	79.2
2022-10-03T11:10	10	78	0.9	76	79	401	0.4	400	401	15.2	78.5
2022-10-03T11:11	10	74	0.6	74	76	399	0.4	399	400	15.2	78.8
2022-10-03T11:12	10	73	0.4	72	74	400	0.5	399	401	15.3	79.1
2022-10-03T11:13	10	72	0.4	71	73	399	1.1	398	401	15.2	78.4
2022-10-03T11:14	10	72	0.6	71	73	398	0.5	397	400	15.2	78.6
2022-10-03T11:15	10	75	1.2	73	77	398	0.4	397	399	15.2	78.1
2022-10-03T11:16	10	79	1.7	77	83	399	0.5	398	399	15.2	78.3
2022-10-03T11:17	10	83	0.8	81	84	399	0.4	398	400	15.2	77.4
2022-10-03T11:18	10	80	0.7	78	81	399	0.3	399	400	15.2	77.7
2022-10-03T11:19	10	76	1.3	75	79	398	1.0	397	400	15.2	77.3
2022-10-03T11:20	10	77	0.5	76	77	397	0.4	397	398	15.2	77.0
2022-10-03T11:21	10	80	2.2	76	83	399	0.4	397	399	15.3	77.7
2022-10-03T11:22	10	81	2.5	78	86	398	0.3	398	399	15.3	77.6
2022-10-03T11:23	10	79	1.1	78	82	400	0.9	398	401	15.3	77.9
2022-10-03T11:24	10	78	0.8	76	80	400	0.8	399	401	15.3	77.8
2022-10-03T11:25	10	83	2.2	78	85	400	0.6	399	401	15.4	77.5
2022-10-03T11:26	10	90	5.7	83	100	401	1.0	399	402	15.4	77.3
2022-10-03T11:27	10	102	7.0	92	111	403	1.2	401	405	15.5	77.3
2022-10-03T11:28	10	95	7.1	85	105	403	1.5	400	405	15.6	77.2
2022-10-03T11:29	10	83	1.8	79	85	400	0.6	399	401	15.5	77.1
2022-10-03T11:30	10	90	10.6	78	107	401	1.1	400	403	15.5	77.4
2022-10-03T11:31	10	127	19.0	98	157	406	2.5	401	409	15.5	77.1
2022-10-03T11:32	10	103	7.8	97	124	405	0.7	404	407	15.6	77.8
2022-10-03T11:33	10	104	8.8	96	126	407	0.6	405	408	15.6	77.4
2022-10-03T11:34	10	92	5.1	82	99	405	1.6	401	406	15.6	76.6
2022-10-03T11:35	10	80	0.9	78	82	401	0.6	400	402	15.5	76.3
2022-10-03T11:36	10	77	0.4	77	78	402	0.2	402	402	15.6	76.7
2022-10-03T11:37	10	79	1.5	77	82	403	0.3	402	403	15.6	77.4
2022-10-03T11:38	10	82	2.1	79	86	403	0.4	402	404	15.7	77.8
2022-10-03T11:39	10	85	3.9	80	90	404	0.4	403	404	15.7	77.6
2022-10-03T11:40	10	84	2.6	79	89	403	0.9	401	405	15.6	76.7
2022-10-03T11:41	10	80	1.2	78	82	402	0.5	401	403	15.7	76.9
2022-10-03T11:42	10	76	1.0	75	78	400	0.6	399	402	15.6	76.4
2022-10-03T11:43	10	75	1.0	74	77	400	0.6	399	402	15.6	76.8
2022-10-03T11:44	10	77	0.5	76	78	402	0.4	401	402	15.6	77.3
2022-10-03T11:45	10	79	1.5	76	81	401	0.2	401	402	15.6	76.2
2022-10-03T11:46	10	76	0.9	75	79	401	0.3	401	402	15.7	75.7
2022-10-03T11:47	10	81	8.5	74	105	402	0.7	401	403	15.8	75.7
2022-10-03T11:48	10	74	1.4	72	76	402	0.5	401	403	15.8	75.6
2022-10-03T11:49	10	77	0.6	76	78	401	0.3	401	402	15.8	74.7
2022-10-03T11:50	10	77	0.7	76	78	401	0.6	400	402	15.8	74.8
2022-10-03T11:51	10	77	0.7	76	78	401	0.4	400	402	15.8	75.7
2022-10-03T11:52	10	79	1.6	77	81	401	0.4	400	402	15.7	75.9
2022-10-03T11:53	10	86	2.6	81	89	402	0.3	401	402	15.7	75.9
2022-10-03T11:54	10	87	1.1	85	89	403	0.4	402	403	15.7	75.8
2022-10-03T11:55	10	110	15.2	89	137	405	1.8	402	408	15.8	75.9
2022-10-03T11:56	10	111	2.5	107	117	405	0.7	404	407	15.8	75.8
2022-10-03T11:57	10	114	15.1	93	138	407	1.3	405	409	15.8	76.0
2022-10-03T11:58	10	96	4.5	92	109	407	0.4	406	408	15.9	75.9
2022-10-03T11:59	10	103	5.9	89	110	407	0.5	406	407	15.9	74.4
2022-10-03T12:00	10	89	2.2	86	93	406	0.5	405	407	15.9	74.2
2022-10-03T12:01	10	80	5.2	73	93	407	0.4	406	408	16.0	74.8
2022-10-03T12:02	10	69	2.3	66	73	405	1.4	402	407	15.9	74.6
2022-10-03T12:03	10	64	1.0	62	65	403	0.3	402	404	15.9	75.0
2022-10-03T12:04	10	60	0.6	59	61	403	0.2	402	403	15.9	75.2
2022-10-03T12:05	10	62	0.8	61	64	401	0.4	401	403	15.8	74.8
2022-10-03T12:06	10	65	0.7	63	66	401	0.3	401	402	15.8	75.1
2022-10-03T12:07	10	63	0.9	62	65	400	0.4	399	401	15.7	74.7
2022-10-03T12:08	10	72	5.0	65	86	402	0.6	400	403	15.7	74.7
2022-10-03T12:09	10	79	5.1	70	88	404	0.5	402	404	15.8	74.7
2022-10-03T12:10	10	68	1.0	67	70	403	0.4	403	404	15.8	74.2
2022-10-03T12:11	10	68	0.6	67	69	402	0.5	401	403	15.8	74.0
2022-10-03T12:12	10	68	0.5	68	69	402	1.0	400	403	15.9	74.2
2022-10-03T12:13	10	68	0.6	67	68	401	0.3	400	401	15.9	74.2
2022-10-03T12:14	10	68	1.4	66	71	400	0.4	399	401	15.8	74.0
2022-10-03T12:15	10	77	5.1	71	90	400	0.6	399	401	15.8	73.9
2022-10-03T12:16	10	75	6.9	68	89	402	0.3	401	402	15.9	74.3
2022-10-03T12:17	10	67	3.8	60	72	401	0.3	400	401	15.8	74.3
2022-10-03T12:18	10	66	1.6	63	70	400	0.4	400	401	15.8	74.8
2022-10-03T12:19	10	72	1.6	70	76	401	0.4	400	402	15.9	74.5
2022-10-03T12:20	10	87	7.6	76	106	402	1.5	400	406	15.9	74.2
2022-10-03T12:21	10	125	10.9	107	144	409	2.8	404	413	16.1	74.4
2022-10-03T12:22	10	95	8.0	87	115	408	1.2	407	411	16.1	74.9
2022-10-03T12:23	10	116	32.3	82	180	412	2.3	408	416	16.3	75.2
2022-10-03T12:24	10	78	1.8	75	81	408	1.8	405	411	16.3	74.7
2022-10-03T12:25	10	73	0.9	71	75	405	1.0	403	406	16.2	73.6
2022-10-03T12:26	10	70	1.1	68	71	403	0.8	401	404	16.1	72.4
2022-10-03T12:27	10	67	1.1	65	68	402	0.4	401	403	16.0	72.7
2022-10-03T12:28	10	65	0.2	65	65	401	1.2	399	402	16.1	72.3
2022-10-03T12:29	10	61	1.9	58	64	400	0.7	399	401	16.0	71.5
2022-10-03T12:30	10	59	0.7	58	60	400	0.4	399	401	16.1	72.3
2022-10-03T12:31	10	61	0.6	60	62	400	0.4	399	401	16.0	72.0
2022-10-03T12:32	10	63	0.1	62	63	400	0.4	400	401	16.1	72.1
2022-10-03T12:33	10	62	0.1	62	63	400	0.8	399	402	16.1	72.4
2022-10-03T12:34	10	63	0.5	62	64	401	0.5	400	402	16.0	72.6
2022-10-03T12:35	10	65	0.2	64	65	400	0.3	399	401	15.9	72.8
2022-10-03T12:36	10	64	0.2	64	65	401	0.6	400	402	15.9	73.5
2022-10-03T12:37	10	65	0.7	64	66	401	1.1	399	403	16.0	73.2
2022-10-03T12:38	10	69	1.9	66	73	400	1.0	399	402	16.0	73.3
2022-10-03T12:39	10	79	2.9	73	82	402	0.5	401	403	16.1	72.9
2022-10-03T12:40	10	93	8.9	81	108	403	1.0	402	406	16.1	72.8
2022-10-03T12:41	10	101	5.4	92	110	406	1.7	403	409	16.1	73.1
2022-10-03T12:42	10	122	40.4	86	197	412	3.1	407	417	16.4	73.0
2022-10-03T12:43	10	88	3.5	85	102	408	0.4	407	409	16.4	73.2
2022-10-03T12:44	10	111	17.7	91	153	411	0.5	409	412	16.5	73.2
2022-10-03T12:45	10	96	4.8	91	106	410	0.5	410	412	16.6	73.8
2022-10-03T12:46	10	86	3.1	82	92	408	1.2	406	410	16.4	73.2
2022-10-03T12:47	10	79	1.2	78	82	407	0.4	407	408	16.5	73.4
2022-10-03T12:48	10	76	0.5	76	78	407	0.6	406	408	16.4	72.7
2022-10-03T12:49	10	75	0.7	74	76	405	0.3	404	406	16.3	73.1
2022-10-03T12:50	10	72	1.2	70	74	405	0.4	404	405	16.3	73.6
2022-10-03T12:51	10	68	1.4	65	70	405	0.3	404	405	16.2	74.3
2022-10-03T12:52	10	64	0.9	62	65	404	0.9	402	405	16.2	74.4
2022-10-03T12:53	10	61	0.4	61	62	403	0.2	402	403	16.1	74.3
2022-10-03T12:54	10	59	1.2	57	61	402	0.5	401	403	16.1	74.2
2022-10-03T12:55	10	56	0.9	54	57	402	0.4	401	403	16.1	74.6
2022-10-03T12:56	10	53	0.3	53	54	402	0.6	401	403	16.1	74.8
2022-10-03T12:57	10	52	0.2	52	53	402	0.4	401	403	16.1	74.8
2022-10-03T12:58	10	52	0.2	52	52	401	0.4	400	402	16.1	74.4
2022-10-03T12:59	10	51	0.5	50	52	400	0.3	399	401	16.0	73.7
2022-10-03T13:00	10	49	1.0	47	50	400	0.3	400	401	16.1	74.3
2022-10-03T13:01	10	46	0.4	45	47	400	0.3	399	400	16.1	75.0
2022-10-03T13:02	10	47	1.0	46	49	400	0.4	399	401	16.1	75.3
2022-10-03T13:03	10	49	0.4	48	49	399	0.5	398	400	16.0	74.6
2022-10-03T13:04	10	46	1.0	45	48	399	0.5	398	400	15.9	74.3
2022-10-03T13:05	10	43	0.9	41	45	398	0.3	398	399	15.9	75.0
2022-10-03T13:06	10	41	0.4	40	41	398	1.0	397	400	15.9	75.5
2022-10-03T13:07	10	40	0.1	39	40	397	0.5	396	398	15.8	74.7
2022-10-03T13:08	10	39	0.3	39	40	397	0.3	396	397	15.8	74.8
2022-10-03T13:09	10	39	0.2	39	40	397	0.6	396	398	15.8	75.0
2022-10-03T13:10	10	39	0.8	37	40	397	0.4	396	397	15.9	74.9
2022-10-03T13:11	10	37	0.4	36	38	396	0.5	395	397	15.9	75.0
2022-10-03T13:12	10	40	1.4	38	43	397	0.5	396	398	15.9	75.7
2022-10-03T13:13	10	44	0.8	43	45	397	0.4	396	398	15.9	75.3
2022-10-03T13:14	10	46	0.2	45	46	398	0.3	397	399	16.0	75.5
2022-10-03T13:15	10	46	0.3	45	46	398	0.4	398	399	16.0	74.6
2022-10-03T13:16	10	44	0.4	44	45	399	0.4	398	400	16.0	74.4
2022-10-03T13:17	10	44	0.1	44	44	399	0.4	398	400	16.0	75.3
2022-10-03T13:18	10	44	0.1	44	44	398	0.2	398	399	16.0	74.4
2022-10-03T13:19	10	44	0.2	44	44	399	0.3	398	399	16.0	75.1
2022-10-03T13:20	10	45	0.3	44	45	398	0.3	398	399	16.0	75.0
2022-10-03T13:21	10	46	0.3	45	46	398	0.4	397	399	16.0	74.6
2022-10-03T13:22	10	46	0.1	46	46	398	0.3	397	399	16.0	74.8
2022-10-03T13:23	10	46	0.2	45	46	399	0.6	397	400	16.0	74.7
2022-10-03T13:24	10	46	0.2	46	47	398	0.4	397	399	16.0	74.1
2022-10-03T13:25	10	47	0.1	47	47	398	0.3	397	398	16.0	73.8
2022-10-03T13:26	10	47	0.2	46	47	398	0.3	398	399	16.1	73.9
2022-10-03T13:27	10	46	0.1	46	46	399	0.4	398	400	16.1	74.0
2022-10-03T13:28	10	46	0.2	46	47	399	0.3	398	399	16.1	74.1
2022-10-03T13:29	10	47	0.1	47	47	398	0.2	397	399	16.0	73.6
2022-10-03T13:30	10	47	0.1	47	47	399	0.5	398	400	16.1	74.5
2022-10-03T13:31	10	47	0.4	47	48	400	0.6	398	400	16.1	74.3
2022-10-03T13:32	10	48	0.1	48	48	399	0.4	398	400	16.1	74.5
2022-10-03T13:33	10	48	0.1	48	48	398	1.0	396	400	16.1	73.1
2022-10-03T13:34	10	49	0.1	48	49	397	0.5	396	397	16.0	71.7
2022-10-03T13:35	10	49	0.1	49	49	397	0.3	397	398	16.0	72.0
2022-10-03T13:36	10	48	0.6	47	49	396	0.7	395	397	16.0	71.1
2022-10-03T13:37	10	47	0.1	47	47	397	0.6	395	398	16.0	71.4
2022-10-03T13:38	10	47	0.1	47	47	396	0.3	396	397	16.0	71.8
2022-10-03T13:39	10	47	0.1	46	47	397	0.5	396	398	16.0	72.0
2022-10-03T13:40	10	46	0.3	46	47	397	0.2	397	398	16.0	72.1
2022-10-03T13:41	10	45	0.1	45	46	397	0.4	397	398	16.0	72.4
2022-10-03T13:42	10	46	0.1	46	46	398	0.4	397	399	16.0	72.6
2022-10-03T13:43	10	46	0.1	46	46	399	0.5	398	400	16.1	72.7
2022-10-03T13:44	10	46	0.2	45	46	398	0.8	397	400	16.1	72.9
2022-10-03T13:45	10	45	0.1	45	45	398	0.4	397	398	16.1	72.7
2022-10-03T13:46	10	46	0.1	45	46	397	0.4	396	398	16.0	72.3
2022-10-03T13:47	10	45	0.4	44	45	396	0.6	395	397	16.0	72.2
2022-10-03T13:48	10	43	0.3	43	44	396	0.2	396	396	16.0	72.1
2022-10-03T13:49	10	43	0.2	43	44	395	0.2	395	396	16.0	72.4
2022-10-03T13:50	10	44	0.1	43	44	396	0.4	395	397	16.0	72.5
2022-10-03T13:51	10	44	0.2	44	45	396	0.5	395	397	16.0	73.4
2022-10-03T13:52	10	45	0.1	44	45	398	0.4	397	398	16.0	73.7
2022-10-03T13:53	10	44	0.1	44	45	398	0.5	397	399	16.1	73.8
2022-10-03T13:54	10	45	0.3	45	45	398	0.8	396	399	16.0	72.9
2022-10-03T13:55	10	45	0.2	45	45	396	0.2	396	397	16.0	71.8
2022-10-03T13:56	10	44	0.2	44	45	397	0.8	395	398	16.0	71.7
2022-10-03T13:57	10	44	0.1	44	44	396	0.4	395	396	16.0	71.3
2022-10-03T13:58	10	44	0.1	43	44	395	0.3	395	396	15.9	70.8
2022-10-03T13:59	10	43	0.2	43	43	395	0.4	394	396	15.9	71.1
2022-10-03T14:00	10	43	0.2	43	43	395	0.5	395	396	15.9	71.4
2022-10-03T14:01	10	43	0.1	43	44	395	0.2	394	396	15.9	71.4
2022-10-03T14:02	10	44	0.1	43	44	396	0.4	395	396	15.9	71.6
2022-10-03T14:03	10	44	0.3	43	44	395	0.4	395	396	15.9	71.6
2022-10-03T14:04	10	45	0.6	44	46	397	0.6	396	398	16.0	71.9
2022-10-03T14:05	10	47	0.4	46	47	398	0.5	397	399	16.0	72.3
2022-10-03T14:06	10	48	0.2	47	48	398	0.2	398	399	16.0	72.3
2022-10-03T14:07	10	49	0.6	48	50	398	0.3	398	399	16.1	72.3
2022-10-03T14:08	10	51	0.5	50	52	398	0.4	397	399	16.0	71.7
2022-10-03T14:09	10	52	0.2	52	52	398	0.2	398	399	16.0	71.8
2022-10-03T14:10	10	52	0.2	52	52	399	0.4	398	400	16.1	72.5
2022-10-03T14:11	10	51	0.4	50	52	399	0.3	399	400	16.1	72.7
2022-10-03T14:12	10	50	0.4	49	50	399	0.3	399	400	16.0	73.0
2022-10-03T14:13	10	49	0.3	48	49	399	0.3	399	400	16.0	73.1
2022-10-03T14:14	10	48	0.7	47	51	399	0.3	398	400	16.0	73.0
2022-10-03T14:15	10	47	0.1	46	47	398	0.6	397	399	16.0	72.8
2022-10-03T14:16	10	47	0.2	46	47	397	0.3	396	398	16.0	72.2
2022-10-03T14:17	10	47	0.1	47	47	397	0.3	396	397	16.0	72.2
2022-10-03T14:18	10	47	0.1	46	47	397	0.3	396	397	16.0	72.6
2022-10-03T14:19	10	46	0.2	46	47	397	0.7	395	398	16.0	71.9
2022-10-03T14:20	10	46	0.1	46	47	395	0.7	394	397	15.9	71.7
2022-10-03T14:21	10	46	0.2	46	47	396	0.7	394	397	15.9	72.3
2022-10-03T14:22	10	46	0.3	45	46	396	0.5	395	397	15.9	72.6
2022-10-03T14:23	10	45	0.3	44	46	396	0.6	394	397	15.8	73.0
2022-10-03T14:24	10	45	0.3	44	45	395	0.3	394	396	15.8	73.8
2022-10-03T14:25	10	46	0.4	45	47	395	0.3	394	396	15.8	74.1
2022-10-03T14:26	10	47	0.2	46	47	395	0.5	394	396	15.7	74.1
2022-10-03T14:27	10	46	0.2	46	46	396	0.6	395	397	15.8	74.8
2022-10-03T14:28	10	46	0.2	46	46	396	0.7	395	397	15.8	74.0
2022-10-03T14:29	10	44	1.1	42	46	396	0.2	395	396	15.8	73.9
2022-10-03T14:30	10	40	1.1	38	42	395	0.4	395	396	15.8	74.3
2022-10-03T14:31	10	37	0.6	36	38	394	0.4	394	395	15.8	73.9
2022-10-03T14:32	10	35	0.4	35	36	394	0.3	393	395	15.8	74.3
2022-10-03T14:33	10	34	0.8	32	35	393	0.6	392	395	15.8	73.8
2022-10-03T14:34	10	30	1.2	28	32	391	0.5	390	393	15.7	73.6
2022-10-03T14:35	10	26	1.2	24	28	390	0.3	390	391	15.7	74.4
2022-10-03T14:36	10	23	1.1	22	28	389	0.9	387	390	15.6	74.5
2022-10-03T14:37	10	21	0.2	21	22	388	0.3	387	389	15.5	74.4
2022-10-03T14:38	10	23	1.2	22	25	387	0.3	386	388	15.5	74.4
2022-10-03T14:39	10	28	1.5	26	31	387	0.4	386	388	15.4	74.4
2022-10-03T14:40	10	32	0.5	31	33	388	0.5	387	389	15.4	73.4
2022-10-03T14:41	10	32	0.4	31	32	388	0.3	387	388	15.4	73.0
2022-10-03T14:42	10	31	0.2	31	32	387	0.5	386	388	15.4	72.8
2022-10-03T14:43	10	33	1.3	32	36	387	0.4	387	388	15.4	72.8
2022-10-03T14:44	10	46	7.4	36	63	389	0.9	388	391	15.4	73.3
2022-10-03T14:45	10	88	18.0	64	125	392	2.7	388	398	15.5	73.5
2022-10-03T14:46	10	134	2.3	126	136	399	1.8	395	402	15.6	73.5
2022-10-03T14:47	10	136	0.4	135	136	402	0.9	400	403	15.7	73.9
2022-10-03T14:48	10	136	0.7	135	137	403	1.0	402	405	15.8	73.2
2022-10-03T14:49	10	135	1.8	132	139	403	0.5	402	404	15.8	72.8
2022-10-03T14:50	10	141	0.7	139	142	404	0.6	403	405	15.9	73.3
2022-10-03T14:51	10	132	7.7	111	139	406	0.3	405	407	16.0	73.2
2022-10-03T14:52	10	77	17.0	58	110	402	2.9	397	406	15.9	73.2
2022-10-03T14:53	10	51	4.3	44	57	397	1.6	393	399	15.7	73.4
2022-10-03T14:54	10	41	1.5	39	44	394	0.5	393	396	15.6	73.0
2022-10-03T14:55	10	37	0.8	36	39	393	0.5	392	394	15.5	73.6
2022-10-03T14:56	10	34	0.8	33	36	392	0.3	392	393	15.4	74.0
2022-10-03T14:57	10	31	0.7	30	33	391	0.9	390	394	15.4	74.6
2022-10-03T14:58	10	29	0.5	29	30	391	0.5	390	392	15.3	74.9
2022-10-03T14:59	10	28	0.4	27	29	390	0.2	390	391	15.3	74.6
2022-10-03T15:00	10	27	0.2	26	27	390	0.3	390	391	15.3	74.9
2022-10-03T15:01	10	26	0.1	26	27	391	0.5	390	391	15.3	75.4
2022-10-03T15:02	10	26	0.1	26	27	391	0.2	390	391	15.3	75.9
2022-10-03T15:03	10	26	0.1	26	27	390	0.7	389	391	15.2	75.0
2022-10-03T15:04	10	27	0.1	26	27	390	0.6	389	391	15.2	74.6
2022-10-03T15:05	10	27	0.1	27	27	390	0.3	389	391	15.2	74.7
2022-10-03T15:06	10	27	0.1	27	27	390	0.5	389	391	15.1	74.8
2022-10-03T15:07	10	27	0.1	26	27	390	0.5	388	390	15.1	74.6
2022-10-03T15:08	10	26	0.1	26	27	389	0.3	388	390	15.1	74.1
2022-10-03T15:09	10	26	0.2	26	27	389	0.7	388	391	15.1	74.7
2022-10-03T15:10	10	26	0.1	26	26	390	0.2	390	390	15.1	75.7
2022-10-03T15:11	10	25	0.1	25	26	390	0.3	389	390	15.1	75.2
2022-10-03T15:12	10	25	0.2	25	25	390	0.3	389	390	15.1	75.0
2022-10-03T15:13	10	25	0.2	24	25	389	0.2	389	390	15.1	75.0
2022-10-03T15:14	10	24	0.2	24	24	390	0.2	389	390	15.1	75.1
2022-10-03T15:15	10	24	0.2	23	24	389	0.2	389	389	15.1	74.8
2022-10-03T15:16	10	23	0.2	23	24	389	0.2	389	390	15.1	74.9
2022-10-03T15:17	10	23	0.2	22	23	389	0.4	388	390	15.1	74.8
2022-10-03T15:18	10	22	0.2	22	22	389	0.3	388	389	15.1	75.0
2022-10-03T15:19	10	21	0.1	21	22	389	0.3	388	389	15.1	75.3
2022-10-03T15:20	10	21	0.1	21	21	389	0.2	388	389	15.1	75.4
2022-10-03T15:21	10	21	0.1	21	21	389	0.2	388	389	15.1	75.2
2022-10-03T15:22	10	21	0.1	21	21	389	0.3	388	389	15.1	75.2
2022-10-03T15:23	10	21	0.1	21	21	389	0.4	388	389	15.1	75.8
2022-10-03T15:24	10	21	0.1	21	21	388	0.3	388	389	15.1	75.4
2022-10-03T15:25	10	21	0.1	21	21	388	0.3	387	389	15.1	75.9
2022-10-03T15:26	10	21	0.1	21	21	388	0.3	388	389	15.1	75.9
2022-10-03T15:27	10	21	0.1	21	22	389	0.3	388	389	15.1	76.4
2022-10-03T15:28	10	22	0.2	21	22	389	0.2	388	389	15.1	76.5
2022-10-03T15:29	10	22	0.1	22	22	389	0.3	388	389	15.1	76.8
2022-10-03T15:30	10	22	0.1	22	23	389	0.2	389	389	15.1	77.1
2022-10-03T15:31	10	22	0.1	22	23	389	0.7	387	390	15.1	76.4
2022-10-03T15:32	10	22	0.1	22	23	388	0.2	388	389	15.0	75.9
2022-10-03T15:33	10	23	0.2	22	23	388	0.2	388	389	15.0	75.7
2022-10-03T15:34	10	23	0.1	23	23	388	0.3	387	388	15.0	75.4
2022-10-03T15:35	10	22	0.2	22	23	387	0.4	386	388	14.9	75.0
2022-10-03T15:36	10	22	0.3	21	22	387	0.3	387	388	14.9	75.3
2022-10-03T15:37	10	21	0.2	21	21	387	0.5	387	388	14.9	75.7
2022-10-03T15:38	10	21	0.1	20	21	388	0.3	387	388	14.9	76.3
2022-10-03T15:39	10	21	0.1	20	21	388	0.4	387	389	14.9	76.1
2022-10-03T15:40	10	21	0.1	20	21	387	0.3	387	388	14.9	76.0
2022-10-03T15:41	10	20	0.1	20	21	387	0.3	386	388	14.9	76.4
2022-10-03T15:42	10	20	0.1	20	20	387	0.3	387	388	14.8	76.6
2022-10-03T15:43	10	20	0.2	19	20	386	0.3	386	387	14.8	76.1
2022-10-03T15:44	10	19	0.1	19	20	387	0.3	386	388	14.8	76.3
2022-10-03T15:45	10	19	0.1	19	19	387	0.3	386	388	14.8	77.1
2022-10-03T15:46	10	19	0.2	18	19	387	0.3	387	388	14.8	76.9
2022-10-03T15:47	10	18	0.2	18	18	386	0.3	386	387	14.8	76.2
2022-10-03T15:48	10	17	0.3	16	18	386	0.4	385	387	14.8	75.7
2022-10-03T15:49	10	16	0.5	15	16	386	0.3	385	386	14.7	75.4
2022-10-03T15:50	10	15	0.1	15	15	386	0.2	385	386	14.7	75.3
2022-10-03T15:51	10	14	0.3	14	15	385	0.3	385	386	14.7	75.3
2022-10-03T15:52	10	13	0.2	13	14	385	0.4	384	386	14.6	75.4
2022-10-03T15:53	10	13	0.2	13	14	385	0.3	384	385	14.6	75.6
2022-10-03T15:54	10	14	0.2	13	14	385	0.3	384	385	14.6	75.6
2022-10-03T15:55	10	14	0.1	14	14	385	0.3	384	386	14.6	75.8
2022-10-03T15:56	10	14	0.1	14	14	385	0.3	384	386	14.6	76.2
2022-10-03T15:57	10	13	0.2	13	14	384	0.2	384	385	14.6	75.6
2022-10-03T15:58	10	12	0.4	12	13	384	0.2	384	385	14.6	76.0
2022-10-03T15:59	10	11	0.3	10	12	384	0.3	384	385	14.6	76.2
2022-10-03T16:00	10	11	0.2	11	11	384	0.3	384	385	14.6	76.5
2022-10-03T16:01	10	11	0.1	11	12	384	0.3	384	385	14.6	76.7
2022-10-03T16:02	10	11	0.1	11	12	385	0.2	384	385	14.5	76.9
2022-10-03T16:03	10	11	0.1	11	12	384	0.3	384	385	14.5	76.7
2022-10-03T16:04	10	11	0.1	11	12	384	0.3	383	385	14.5	76.8
2022-10-03T16:05	10	11	0.1	11	11	384	0.3	383	385	14.5	76.9
2022-10-03T16:06	10	11	0.1	11	11	384	0.3	384	385	14.5	76.5
2022-10-03T16:07	10	11	0.1	10	11	384	0.3	384	385	14.5	76.3
2022-10-03T16:08	10	10	0.1	10	11	384	0.3	383	385	14.5	76.6
2022-10-03T16:09	10	10	0.1	10	10	384	0.2	383	384	14.5	76.9
2022-10-03T16:10	10	9	0.2	9	10	384	0.2	383	384	14.5	77.0
2022-10-03T16:11	10	9	0.1	9	9	384	0.3	383	384	14.5	77.1
2022-10-03T16:12	10	9	0.1	9	9	384	0.3	383	384	14.5	77.5
2022-10-03T16:13	10	8	0.1	8	9	383	0.2	383	384	14.4	77.6
2022-10-03T16:14	10	8	0.1	8	9	383	0.2	383	384	14.4	77.0
2022-10-03T16:15	10	9	0.1	8	9	383	0.3	383	384	14.4	77.4
2022-10-03T16:16	10	8	0.2	8	9	383	0.3	382	384	14.4	77.6
2022-10-03T16:17	10	8	0.2	7	8	383	0.2	382	383	14.4	77.5
2022-10-03T16:18	10	7	0.2	7	7	383	0.4	382	384	14.4	77.6
2022-10-03T16:19	10	7	0.1	7	7	383	0.3	382	383	14.4	77.6
2022-10-03T16:20	10	7	0.1	7	7	383	0.2	383	383	14.4	77.9
2022-10-03T16:21	10	7	0.1	7	7	383	0.3	383	384	14.4	77.3
2022-10-03T16:22	10	7	0.1	6	7	382	0.3	382	383	14.4	77.2
2022-10-03T16:23	10	6	0.1	6	7	382	0.2	382	383	14.4	77.4
2022-10-03T16:24	10	6	0.1	6	6	382	0.2	382	382	14.3	77.8
2022-10-03T16:25	10	6	0.1	6	6	382	0.3	381	383	14.3	77.9
2022-10-03T16:26	10	5	0.3	4	6	382	0.2	381	383	14.3	77.2
2022-10-03T16:27	10	4	0.3	4	5	382	0.3	381	382	14.3	77.4
2022-10-03T16:28	10	3	0.1	3	4	381	0.2	381	382	14.3	77.2
2022-10-03T16:29	10	3	0.1	3	3	381	0.2	381	382	14.3	76.8
2022-10-03T16:30	10	3	0.1	3	3	381	0.3	380	382	14.3	76.8
2022-10-03T16:31	10	3	0.1	3	3	381	0.2	381	382	14.3	77.0
2022-10-03T16:32	10	3	0.1	3	3	381	0.4	380	382	14.3	77.0
2022-10-03T16:33	10	3	0.1	3	4	381	0.2	381	382	14.3	77.3
2022-10-03T16:34	10	4	0.1	3	4	381	0.2	380	381	14.3	77.2
2022-10-03T16:35	10	4	0.1	4	4	381	0.3	380	382	14.3	77.5
2022-10-03T16:36	10	4	0.1	3	4	381	0.2	381	382	14.3	77.7
2022-10-03T16:37	10	4	0.1	3	4	381	0.3	380	382	14.3	78.0
2022-10-03T16:38	10	3	0.1	3	4	381	0.3	381	381	14.2	77.8
2022-10-03T16:39	10	3	0.1	3	4	381	0.2	380	381	14.3	77.0
2022-10-03T16:40	10	3	0.1	3	3	381	0.2	380	381	14.2	77.6
2022-10-03T16:41	10	3	0.1	3	4	381	0.2	380	381	14.2	77.2
2022-10-03T16:42	10	3	0.1	3	4	381	0.2	380	381	14.2	77.0
2022-10-03T16:43	10	3	0.1	3	4	381	0.2	380	381	14.2	77.5
2022-10-03T16:44	10	3	0.1	3	4	380	0.3	380	381	14.1	78.1
2022-10-03T16:45	10	3	0.1	3	3	380	0.2	380	381	14.1	78.3
2022-10-03T16:46	10	3	0.1	3	3	380	0.2	380	381	14.1	78.0
2022-10-03T16:47	10	3	0.1	3	3	380	0.3	380	381	14.1	77.7
2022-10-03T16:48	10	3	0.2	2	4	380	0.3	379	381	14.1	77.8
2022-10-03T16:49	10	2	0.1	2	3	380	0.2	380	381	14.1	77.5
2022-10-03T16:50	10	2	0.1	2	2	380	0.2	379	380	14.1	77.6
2022-10-03T16:51	10	2	0.1	2	2	380	0.2	380	380	14.2	76.9
2022-10-03T16:52	10	2	0.1	2	2	380	0.2	379	380	14.1	77.4
2022-10-03T16:53	10	2	0.1	2	2	379	0.2	379	380	14.1	77.8
2022-10-03T16:54	10	2	0.1	1	2	380	0.2	379	380	14.1	77.8
2022-10-03T16:55	10	2	0.1	1	2	379	0.3	379	380	14.1	77.3
2022-10-03T16:56	10	1	0.2	1	2	379	0.3	379	380	14.1	78.0
2022-10-03T16:57	10	1	0.1	1	2	379	0.3	379	380	14.1	78.1
2022-10-03T16:58	10	1	0.1	1	2	379	0.2	379	380	14.1	78.3
2022-10-03T16:59	10	1	0.2	1	2	379	0.3	379	380	14.1	78.2
2022-10-03T17:00	10	1	0.2	1	2	379	0.3	379	380	14.1	77.9
2022-10-03T17:01	10	1	0.2	1	2	379	0.3	378	380	14.0	78.0
2022-10-03T17:02	10	1	0.2	1	1	379	0.3	378	380	14.0	78.1
2022-10-03T17:03	10	1	0.1	1	1	379	0.3	378	379	14.0	78.2
2022-10-03T17:04	10	1	0.1	1	1	379	0.2	378	379	14.0	78.0
2022-10-03T17:05	10	1	0.2	1	1	379	0.2	378	379	14.0	77.8
2022-10-03T17:06	10	1	0.2	1	1	379	0.4	378	380	14.0	77.6
2022-10-03T17:07	10	1	0.2	0	1	379	0.3	378	379	14.0	77.6
2022-10-03T17:08	10	1	0.6	0	5	379	0.3	378	379	14.0	77.3
2022-10-03T17:09	10	1	0.1	0	1	379	0.3	378	379	14.0	77.1
2022-10-03T17:10	10	1	0.2	0	1	378	0.3	378	379	14.0	77.2
2022-10-03T17:11	10	1	0.2	0	1	378	0.3	378	379	14.0	77.4
2022-10-03T17:12	10	1	0.2	0	1	378	0.3	377	379	14.0	77.1
2022-10-03T17:13	10	1	0.2	0	1	378	0.2	378	379	14.0	77.1
2022-10-03T17:14	10	0	0.1	0	1	378	0.2	378	379	14.1	76.5
2022-10-03T17:15	10	0	0.1	0	1	378	0.2	377	378	14.0	77.2
2022-10-03T17:16	10	0	0.1	0	1	378	0.3	377	378	13.9	77.6
2022-10-03T17:17	10	0	0.2	0	1	378	0.2	377	378	13.9	78.3
2022-10-03T17:18	10	0	0.2	0	1	378	0.3	378	379	14.0	77.4
2022-10-03T17:19	10	1	0.2	0	1	378	0.2	377	378	13.9	77.8
2022-10-03T17:20	10	0	0.1	0	1	378	0.4	377	379	13.9	77.3
2022-10-03T17:21	10	0	0.1	0	1	378	0.2	377	378	14.0	77.3
2022-10-03T17:22	10	0	0.1	0	1	378	0.2	377	378	14.0	77.0
2022-10-03T17:23	10	0	0.1	0	1	378	0.2	377	378	14.0	77.1
2022-10-03T17:24	10	0	0.1	0	1	377	0.2	377	378	13.9	77.2
2022-10-03T17:25	10	0	0.1	0	0	377	0.2	377	378	13.9	78.0
2022-10-03T17:26	10	0	0.2	0	1	377	0.2	377	378	13.9	78.1
2022-10-03T17:27	10	0	0.2	0	1	377	0.2	377	378	13.9	78.0
2022-10-03T17:28	10	0	0.1	0	1	377	0.2	377	378	13.9	77.7
2022-10-03T17:29	10	0	0.1	0	0	377	0.3	376	378	13.9	78.1
2022-10-03T17:30	10	0	0.1	0	0	377	0.2	376	377	13.9	77.8
2022-10-03T17:31	10	0	0.1	0	0	377	0.2	376	377	13.9	77.9
2022-10-03T17:32	10	0	0.1	0	1	377	0.2	376	377	13.9	77.7
2022-10-03T17:33	10	0	0.1	0	0	376	0.2	376	377	13.9	78.1
2022-10-03T17:34	10	0	0.1	0	0	377	0.2	376	377	13.8	78.4
2022-10-03T17:35	10	0	0.1	0	0	376	0.2	376	377	13.8	78.7
2022-10-03T17:36	10	0	0.1	0	0	377	0.3	376	377	13.8	78.4
2022-10-03T17:37	10	0	0.1	0	1	376	0.2	376	377	13.8	78.6
2022-10-03T17:38	10	0	0.1	0	1	376	0.3	375	377	13.8	78.7
2022-10-03T17:39	10	0	0.1	0	0	376	0.2	376	377	13.9	78.1
2022-10-03T17:40	10	0	0.0	0	0	376	0.2	376	377	13.8	78.8
2022-10-03T17:41	10	0	0.1	0	1	376	0.2	376	377	13.7	79.4
2022-10-03T17:42	10	0	0.1	0	1	376	0.2	376	377	13.8	78.8
2022-10-03T17:43	10	0	0.1	0	1	377	0.2	376	377	13.8	78.9
2022-10-03T17:44	10	0	0.0	0	0	377	0.2	376	377	13.8	78.0
2022-10-03T17:45	10	0	0.1	0	0	377	0.3	376	377	13.7	79.3
2022-10-03T17:46	10	0	0.1	0	0	377	0.2	376	377	13.7	79.5
2022-10-03T17:47	10	0	0.1	0	0	377	0.2	376	377	13.7	78.8
2022-10-03T17:48	10	0	0.1	0	0	376	0.2	376	377	13.8	78.6
2022-10-03T17:49	10	0	0.1	0	0	376	0.2	376	377	13.7	79.2
2022-10-03T17:50	10	0	0.1	0	0	376	0.3	376	377	13.7	79.4
2022-10-03T17:51	10	0	0.1	0	0	376	0.2	375	376	13.7	78.9
2022-10-03T17:52	10	0	0.1	0	0	376	0.2	376	377	13.7	78.8
2022-10-03T17:53	10	0	0.1	0	0	376	0.2	375	376	13.7	79.0
2022-10-03T17:54	10	0	0.1	0	0	376	0.3	375	376	13.6	79.5
2022-10-03T17:55	10	0	0.1	0	0	376	0.2	375	376	13.6	79.3
2022-10-03T17:56	10	0	0.1	0	0	376	0.3	375	376	13.6	79.5
2022-10-03T17:57	10	0	0.1	0	0	376	0.2	375	377	13.6	79.3
2022-10-03T17:58	10	0	0.1	0	0	376	0.2	376	377	13.6	79.2
2022-10-03T17:59	10	0	0.1	0	0	376	0.2	376	377	13.7	79.1
2022-10-03T18:00	10	0	0.1	0	0	376	0.2	376	377	13.7	78.6
2022-10-03T18:01	10	0	0.1	0	0	376	0.2	376	377	13.6	79.2
2022-10-03T18:02	10	0	0.1	0	0	377	0.3	376	377	13.6	79.4
2022-10-03T18:03	10	0	0.1	0	0	376	0.2	376	377	13.6	79.7
2022-10-03T18:04	10	0	0.1	0	0	377	0.2	376	377	13.6	79.9
2022-10-03T18:05	10	0	0.1	0	0	377	0.3	376	377	13.6	79.9
2022-10-03T18:06	10	0	0.1	0	0	377	0.2	376	377	13.6	79.3
2022-10-03T18:07	10	0	0.1	0	0	377	0.3	376	377	13.6	79.6
2022-10-03T18:08	10	0	0.1	0	0	377	0.3	376	377	13.6	79.9
2022-10-03T18:09	10	0	0.1	0	0	377	0.2	376	377	13.6	80.0
2022-10-03T18:10	10	0	0.1	0	0	377	0.2	376	377	13.6	80.3
2022-10-03T18:11	10	0	0.1	0	1	377	0.3	376	377	13.6	80.0
2022-10-03T18:12	10	0	0.1	0	1	377	0.2	376	377	13.6	80.2
2022-10-03T18:13	10	0	0.1	0	1	377	0.2	376	377	13.6	80.1
2022-10-03T18:14	10	0	0.1	0	0	376	0.3	376	377	13.6	79.8
2022-10-03T18:15	10	0	0.1	0	1	376	0.2	376	377	13.6	79.7
2022-10-03T18:16	10	0	0.1	0	1	376	0.2	376	377	13.6	79.6
2022-10-03T18:17	10	0	0.1	0	0	376	0.3	375	377	13.6	79.9
2022-10-03T18:18	10	0	0.1	0	0	376	0.2	376	377	13.5	80.4
2022-10-03T18:19	10	0	0.1	0	0	376	0.3	376	377	13.6	79.8
2022-10-03T18:20	10	0	0.1	0	0	376	0.3	376	377	13.6	79.8
2022-10-03T18:21	10	0	0.1	0	0	376	0.2	375	376	13.5	80.2
2022-10-03T18:22	10	0	0.1	0	0	376	0.2	375	376	13.5	80.5
2022-10-03T18:23	10	0	0.1	0	0	376	0.2	375	376	13.5	79.9
2022-10-03T18:24	10	0	0.1	0	0	375	0.3	375	376	13.5	80.7
2022-10-03T18:25	10	0	0.1	0	0	375	0.2	375	376	13.4	81.1
2022-10-03T18:26	10	0	0.1	0	0	375	0.2	375	376	13.5	80.5
2022-10-03T18:27	10	0	0.1	0	0	375	0.2	375	376	13.5	79.9
2022-10-03T18:28	10	0	0.1	0	0	375	0.2	374	375	13.5	80.3
2022-10-03T18:29	10	0	0.1	0	0	375	0.2	374	375	13.5	80.1
2022-10-03T18:30	10	0	0.1	0	0	374	0.3	373	375	13.4	80.4
2022-10-03T18:31	10	0	0.1	0	0	374	0.3	373	374	13.4	80.7
2022-10-03T18:32	10	0	0.1	0	0	373	0.3	373	374	13.4	80.6
2022-10-03T18:33	10	0	0.1	0	0	373	0.3	373	374	13.4	80.8
2022-10-03T18:34	10	0	0.1	0	0	373	0.3	372	374	13.4	80.6
2022-10-03T18:35	10	0	0.1	0	0	373	0.2	372	373	13.4	80.4
2022-10-03T18:36	10	0	0.1	0	0	373	0.2	372	373	13.4	80.4
2022-10-03T18:37	10	0	0.1	0	0	373	0.2	372	373	13.3	80.9
2022-10-03T18:38	10	0	0.1	0	0	372	0.2	371	373	13.3	81.2
2022-10-03T18:39	10	0	0.1	0	0	372	0.2	372	373	13.3	81.3
2022-10-03T18:40	10	0	0.1	0	0	372	0.3	371	372	13.3	81.3
2022-10-03T18:41	10	0	0.1	0	0	371	0.2	371	372	13.3	81.3
2022-10-03T18:42	10	0	0.1	0	0	371	0.2	371	372	13.2	81.8
2022-10-03T18:43	10	0	0.1	0	0	371	0.2	370	372	13.2	81.6
2022-10-03T18:44	10	0	0.1	0	0	371	0.3	370	372	13.2	81.5
2022-10-03T18:45	10	0	0.1	0	0	371	0.2	370	371	13.2	81.6
2022-10-03T18:46	10	0	0.1	0	0	371	0.3	370	372	13.2	81.2
2022-10-03T18:47	10	0	0.1	0	0	371	0.3	370	372	13.2	81.3
2022-10-03T18:48	10	0	0.1	0	0	372	0.2	371	372	13.2	81.6
2022-10-03T18:49	10	0	0.1	0	0	372	0.3	371	373	13.2	81.8
2022-10-03T18:50	10	0	0.1	0	0	372	0.3	372	373	13.2	81.8
2022-10-03T18:51	10	0	0.1	0	0	372	0.3	372	373	13.1	82.0
2022-10-03T18:52	10	0	0.1	0	0	373	0.3	372	373	13.2	81.8
2022-10-03T18:53	10	0	0.1	0	0	373	0.2	373	373	13.2	81.5
2022-10-03T18:54	10	0	0.1	0	0	373	0.3	373	374	13.2	81.6
2022-10-03T18:55	10	0	0.1	0	0	373	0.3	373	374	13.2	81.3
2022-10-03T18:56	10	0	0.1	0	0	374	0.3	373	374	13.2	81.6
2022-10-03T18:57	10	0	0.1	0	0	374	0.3	373	374	13.2	81.8
2022-10-03T18:58	10	0	0.1	0	0	374	0.2	373	374	13.2	81.8
2022-10-03T18:59	10	0	0.1	0	0	374	0.3	373	374	13.2	81.8
2022-10-03T19:00	10	0	0.1	0	0	374	0.3	373	374	13.1	82.1
2022-10-03T19:01	10	0	0.1	0	0	374	0.2	373	374	13.1	82.2
2022-10-03T19:02	10	0	0.1	0	0	374	0.2	373	375	13.1	82.1
2022-10-03T19:03	10	0	0.1	0	0	374	0.2	373	374	13.1	82.5
2022-10-03T19:04	10	0	0.1	0	0	374	0.2	373	375	13.1	82.3
2022-10-03T19:05	10	0	0.1	0	0	374	0.2	374	375	13.1	82.4
2022-10-03T19:06	10	0	0.1	0	0	374	0.2	374	375	13.1	82.5
2022-10-03T19:07	10	0	0.1	0	0	374	0.3	374	375	13.1	82.3
2022-10-03T19:08	10	0	0.1	-1	0	374	0.2	374	375	13.1	82.6
2022-10-03T19:09	10	0	0.1	-1	0	374	0.3	374	375	13.1	82.6
2022-10-03T19:10	10	0	0.1	-1	0	374	0.2	374	375	13.1	82.2
2022-10-03T19:11	10	0	0.1	-1	0	374	0.2	374	375	13.1	82.3
2022-10-03T19:12	10	0	0.1	-1	0	374	0.2	374	375	13.1	82.3
2022-10-03T19:13	10	0	0.1	-1	0	374	0.2	374	375	13.1	82.4
2022-10-03T19:14	10	0	0.1	-1	0	374	0.3	373	375	13.1	82.7
2022-10-03T19:15	10	0	0.1	-1	0	374	0.4	374	375	13.1	82.6
2022-10-03T19:16	10	0	0.1	-1	0	374	0.2	374	374	13.1	82.9
2022-10-03T19:17	10	0	0.1	-1	0	374	0.2	373	374	13.0	83.4
2022-10-03T19:18	10	0	0.1	0	0	374	0.3	373	374	13.0	83.9
2022-10-03T19:19	10	0	0.1	-1	0	374	0.2	373	374	13.0	84.0
2022-10-03T19:20	10	0	0.1	0	0	374	0.2	373	374	13.0	83.4
2022-10-03T19:21	10	0	0.1	0	0	373	0.2	373	374	13.0	83.5
2022-10-03T19:22	10	0	0.1	-1	0	373	0.2	372	373	13.0	83.5
2022-10-03T19:23	10	0	0.1	-1	0	373	0.3	372	373	12.9	83.7
2022-10-03T19:24	10	0	0.1	-1	0	372	0.3	372	373	12.9	83.8
2022-10-03T19:25	10	0	0.1	-1	0	372	0.2	372	373	12.9	83.8
2022-10-03T19:26	10	0	0.1	-1	0	372	0.2	371	372	12.9	84.1
2022-10-03T19:27	10	0	0.1	-1	0	372	0.2	371	372	12.9	84.3
2022-10-03T19:28	10	0	0.1	-1	0	372	0.3	371	372	12.9	84.3
2022-10-03T19:29	10	0	0.1	-1	0	372	0.2	371	372	12.9	84.0
2022-10-03T19:30	10	0	0.1	-1	0	371	0.3	371	372	12.8	84.3
2022-10-03T19:31	10	0	0.1	-1	0	371	0.2	371	372	12.7	85.1
2022-10-03T19:32	10	0	0.1	-1	0	371	0.2	370	371	12.8	84.8
2022-10-03T19:33	10	0	0.1	-1	0	371	0.2	371	372	12.8	84.0
2022-10-03T19:34	10	-1	0.1	-1	0	371	0.2	370	371	12.7	84.3
2022-10-03T19:35	10	-1	0.1	-1	0	370	0.2	370	371	12.7	84.4
2022-10-03T19:36	10	-1	0.1	-1	0	370	0.2	370	371	12.8	83.9
2022-10-03T19:37	10	-1	0.1	-1	0	370	0.3	370	371	12.7	84.0
2022-10-03T19:38	10	-1	0.1	-1	0	370	0.4	369	371	12.7	84.4
2022-10-03T19:39	10	-1	0.1	-1	0	370	0.3	369	370	12.7	84.5
2022-10-03T19:40	10	-1	0.1	-1	0	369	0.2	369	370	12.7	84.4
2022-10-03T19:41	10	0	0.1	-1	0	369	0.3	368	370	12.6	84.7
2022-10-03T19:42	10	0	0.1	-1	0	368	0.3	368	369	12.6	84.4
2022-10-03T19:43	10	0	0.1	-1	0	368	0.3	367	369	12.6	84.4
2022-10-03T19:44	10	0	0.1	-1	0	368	0.2	367	368	12.6	84.7
2022-10-03T19:45	10	0	0.1	-1	0	368	0.2	367	368	12.6	84.6
2022-10-03T19:46	10	0	0.1	-1	0	368	0.2	367	368	12.6	84.7
2022-10-03T19:47	10	0	0.1	-1	0	368	0.4	367	368	12.6	84.5
2022-10-03T19:48	10	-1	0.1	-1	0	368	0.3	367	369	12.5	84.7
2022-10-03T19:49	10	-1	0.1	-1	0	368	0.2	368	369	12.5	84.5
2022-10-03T19:50	10	-1	0.1	-1	0	369	0.3	368	370	12.6	84.0
2022-10-03T19:51	10	-1	0.1	-1	0	369	0.3	369	370	12.5	84.1
2022-10-03T19:52	10	-1	0.1	-1	0	370	0.2	369	370	12.6	83.7
2022-10-03T19:53	10	-1	0.1	-1	0	370	0.3	370	371	12.6	83.9
2022-10-03T19:54	10	-1	0.1	-1	0	370	0.3	370	371	12.6	83.8
2022-10-03T19:55	10	-1	0.1	-1	0	371	0.2	370	371	12.5	84.2
2022-10-03T19:56	10	-1	0.1	-1	0	371	0.3	370	371	12.5	84.1
2022-10-03T19:57	10	-1	0.1	-1	0	371	0.2	371	372	12.5	84.3
2022-10-03T19:58	10	0	0.1	-1	0	371	0.2	371	372	12.5	84.3
2022-10-03T19:59	10	0	0.1	-1	0	371	0.3	371	372	12.5	84.1
2022-10-03T20:00	10	0	0.1	-1	0	371	0.2	371	372	12.5	84.2
2022-10-03T20:01	10	0	0.1	0	0	371	0.3	371	372	12.4	84.3
2022-10-03T20:02	10	0	0.1	-1	0	371	0.2	371	372	12.4	84.5
2022-10-03T20:03	10	0	0.1	0	0	371	0.3	371	372	12.5	84.2
2022-10-03T20:04	10	0	0.0	0	0	371	0.2	371	372	12.4	84.1
2022-10-03T20:05	10	0	0.1	0	0	372	0.2	371	372	12.5	84.1
2022-10-03T20:06	10	0	0.1	0	0	371	0.2	371	372	12.5	84.0
2022-10-03T20:07	10	0	0.1	0	0	372	0.2	371	372	12.4	84.0
2022-10-03T20:08	10	0	0.1	-1	0	372	0.3	371	372	12.5	83.8
2022-10-03T20:09	10	0	0.1	-1	0	371	0.3	371	372	12.5	83.9
2022-10-03T20:10	10	0	0.1	-1	0	371	0.2	371	372	12.4	84.1
2022-10-03T20:11	10	0	0.1	-1	0	371	0.2	371	372	12.5	83.5
2022-10-03T20:12	10	-1	0.0	-1	0	371	0.2	370	371	12.5	83.5
2022-10-03T20:13	10	-1	0.1	-1	0	371	0.2	370	371	12.5	83.6
2022-10-03T20:14	10	-1	0.1	-1	0	371	0.2	370	371	12.4	83.7
2022-10-03T20:15	10	-1	0.1	-1	0	371	0.2	370	371	12.4	84.0
2022-10-03T20:16	10	0	0.1	-1	0	370	0.2	370	371	12.4	83.8
2022-10-03T20:17	10	-1	0.0	-1	0	371	0.2	370	371	12.4	83.5
2022-10-03T20:18	10	-1	0.1	-1	0	371	0.3	370	371	12.4	83.7
2022-10-03T20:19	10	-1	0.1	-1	0	370	0.2	370	371	12.4	83.8
2022-10-03T20:20	10	-1	0.1	-1	0	370	0.3	370	371	12.4	84.1
2022-10-03T20:21	10	-1	0.1	-1	0	371	0.3	370	371	12.4	84.1
2022-10-03T20:22	10	-1	0.1	-1	0	371	0.3	370	371	12.3	84.4
2022-10-03T20:23	10	-1	0.1	-1	0	370	0.2	370	371	12.3	84.3
2022-10-03T20:24	10	-1	0.1	-1	0	371	0.2	370	371	12.3	84.3
2022-10-03T20:25	10	-1	0.1	-1	0	371	0.2	370	371	12.4	84.2
2022-10-03T20:26	10	-1	0.1	-1	0	371	0.2	370	372	12.4	84.1
2022-10-03T20:27	10	-1	0.1	-1	0	371	0.3	370	371	12.3	84.3
2022-10-03T20:28	10	0	0.1	-1	0	371	0.2	370	371	12.3	84.3
2022-10-03T20:29	10	0	0.1	0	0	371	0.2	370	371	12.3	84.3
2022-10-03T20:30	10	0	0.1	0	0	371	0.3	370	371	12.3	84.6
2022-10-03T20:31	10	0	0.1	-1	0	371	0.2	371	372	12.3	84.3
2022-10-03T20:32	10	0	0.1	-1	0	371	0.2	371	372	12.4	84.0
2022-10-03T20:33	10	0	0.1	-1	0	371	0.2	371	372	12.4	83.9
2022-10-03T20:34	10	-1	0.1	-1	0	371	0.3	371	372	12.4	83.9
2022-10-03T20:35	10	0	0.4	-1	2	371	0.3	371	372	12.3	84.2
2022-10-03T20:36	10	-1	0.1	-1	0	371	0.2	371	372	12.3	84.2
2022-10-03T20:37	10	-1	0.1	-1	0	371	0.2	371	372	12.3	84.2
2022-10-03T20:38	10	-1	0.1	-1	0	371	0.2	371	372	12.3	84.2
2022-10-03T20:39	10	-1	0.1	-1	0	371	0.2	371	372	12.3	84.4
2022-10-03T20:40	10	-1	0.1	-1	0	371	0.2	371	372	12.3	84.2
2022-10-03T20:41	10	-1	0.1	-1	0	371	0.3	370	372	12.3	84.3
2022-10-03T20:42	10	-1	0.1	-1	0	371	0.3	371	372	12.3	84.3
2022-10-03T20:43	10	-1	0.1	-1	0	371	0.2	370	371	12.3	84.5
2022-10-03T20:44	10	0	0.1	-1	0	371	0.2	371	372	12.3	84.8
2022-10-03T20:45	10	-1	0.1	-1	0	371	0.3	371	372	12.3	84.4
2022-10-03T20:46	10	-1	0.1	-1	0	371	0.2	371	371	12.3	84.5
2022-10-03T20:47	10	-1	0.1	-1	0	371	0.2	371	372	12.3	84.8
2022-10-03T20:48	10	-1	0.1	-1	0	371	0.2	371	372	12.3	84.6
2022-10-03T20:49	10	-1	0.1	-1	0	371	0.3	371	372	12.3	84.7
2022-10-03T20:50	10	-1	0.1	-1	0	371	0.2	371	371	12.3	84.6
2022-10-03T20:51	10	-1	0.1	-1	0	371	0.2	371	371	12.3	84.5
2022-10-03T20:52	10	-1	0.1	-1	0	371	0.2	371	372	12.2	84.8
2022-10-03T20:53	10	0	0.1	-1	0	371	0.2	371	372	12.2	84.9
2022-10-03T20:54	10	0	0.1	-1	0	371	0.2	371	372	12.2	84.8
2022-10-03T20:55	10	0	0.1	-1	0	371	0.2	371	372	12.2	84.9
2022-10-03T20:56	10	0	0.1	0	0	371	0.2	371	372	12.2	84.9
2022-10-03T20:57	10	0	0.1	0	0	371	0.2	371	372	12.2	84.9
2022-10-03T20:58	10	0	0.1	0	0	371	0.3	371	372	12.2	85.0
2022-10-03T20:59	10	0	0.1	-1	0	371	0.2	371	372	12.2	84.6
2022-10-03T21:00	10	0	0.1	-1	0	371	0.2	371	372	12.2	84.1
2022-10-03T21:01	10	0	0.1	-1	0	371	0.3	371	372	12.2	84.1
2022-10-03T21:02	10	0	0.1	-1	0	371	0.2	370	371	12.2	84.2
2022-10-03T21:03	10	0	0.1	-1	0	371	0.2	371	372	12.2	84.3
2022-10-03T21:04	10	0	0.1	-1	0	371	0.3	371	372	12.2	84.5
2022-10-03T21:05	10	0	0.1	-1	0	371	0.4	370	372	12.2	84.9
2022-10-03T21:06	10	0	0.1	-1	0	371	0.2	371	372	12.2	84.8
2022-10-03T21:07	10	0	0.2	-1	0	371	0.3	371	372	12.2	84.4
2022-10-03T21:08	10	0	0.1	-1	0	372	0.2	371	372	12.2	84.1
2022-10-03T21:09	10	0	0.1	-1	0	372	0.3	371	372	12.2	84.2
2022-10-03T21:10	10	-1	0.1	-1	0	371	0.2	371	372	12.2	84.4
2022-10-03T21:11	10	-1	0.1	-1	0	371	0.2	371	372	12.2	84.3
2022-10-03T21:12	10	-1	0.1	-1	0	371	0.3	371	372	12.2	84.4
2022-10-03T21:13	10	-1	0.1	-1	0	371	0.2	371	372	12.3	84.1
2022-10-03T21:14	10	-1	0.1	-1	0	371	0.2	371	372	12.3	83.7
2022-10-03T21:15	10	-1	0.1	-1	0	371	0.2	371	372	12.3	83.8
2022-10-03T21:16	10	-1	0.1	-1	0	371	0.2	370	372	12.3	84.0
2022-10-03T21:17	10	-1	0.1	-1	-1	371	0.2	371	372	12.3	84.0
2022-10-03T21:18	10	-1	0.2	-1	0	371	0.3	370	371	12.3	84.2
2022-10-03T21:19	10	-1	0.1	-1	0	371	0.3	370	371	12.3	83.7
2022-10-03T21:20	10	-1	0.1	-1	0	371	0.2	370	371	12.3	83.6
2022-10-03T21:21	10	-1	0.1	-1	0	370	0.2	370	371	12.3	83.8
2022-10-03T21:22	10	-1	0.1	-1	0	370	0.3	370	371	12.3	83.7
2022-10-03T21:23	10	-1	0.2	-1	0	370	0.2	370	370	12.3	83.8
2022-10-03T21:24	10	-1	0.2	-1	0	370	0.3	369	370	12.2	84.1
2022-10-03T21:25	10	-1	0.1	-1	0	369	0.3	369	370	12.3	83.8
2022-10-03T21:26	10	-1	0.1	-1	0	369	0.3	368	370	12.3	83.9
2022-10-03T21:27	10	0	0.1	-1	0	369	0.4	368	370	12.3	83.8
2022-10-03T21:28	10	0	0.4	-1	2	369	0.3	368	370	12.3	83.7
2022-10-03T21:29	10	0	0.1	-1	0	369	0.2	368	369	12.3	83.7
2022-10-03T21:30	10	0	0.1	-1	0	368	0.3	368	369	12.2	84.0
2022-10-03T21:31	10	0	0.5	-1	3	368	0.2	367	368	12.3	83.8
2022-10-03T21:32	10	0	0.1	0	0	368	0.4	367	368	12.3	83.6
2022-10-03T21:33	10	0	0.1	-1	0	367	0.4	367	368	12.2	83.9
2022-10-03T21:34	10	0	0.1	-1	0	367	0.3	367	368	12.2	84.0
2022-10-03T21:35	10	0	0.1	-1	0	367	0.3	366	368	12.2	84.0
2022-10-03T21:36	10	0	0.2	0	0	367	0.3	366	368	12.2	84.1
2022-10-03T21:37	10	0	0.1	0	0	367	0.3	366	368	12.2	84.2
2022-10-03T21:38	10	0	0.1	-1	0	367	0.3	367	368	12.2	83.8
2022-10-03T21:39	10	0	0.2	-1	0	367	0.3	367	368	12.2	83.8
2022-10-03T21:40	10	0	0.1	-1	0	367	0.2	367	368	12.1	83.9
2022-10-03T21:41	10	0	0.1	-1	0	367	0.2	367	368	12.2	83.8
2022-10-03T21:42	10	0	0.1	-1	0	367	0.3	367	368	12.2	83.6
2022-10-03T21:43	10	0	0.1	-1	0	368	0.3	367	368	12.2	83.7
2022-10-03T21:44	10	0	0.1	-1	0	368	0.3	367	368	12.2	83.4
2022-10-03T21:45	10	0	0.1	-1	0	368	0.3	367	369	12.2	83.6
2022-10-03T21:46	10	0	0.1	-1	0	368	0.3	367	369	12.1	83.8
2022-10-03T21:47	10	0	0.1	-1	0	368	0.3	367	369	12.2	83.3
2022-10-03T21:48	10	0	0.1	-1	0	369	0.3	368	369	12.2	83.3
2022-10-03T21:49	10	0	0.1	-1	0	369	0.2	368	369	12.2	83.4
2022-10-03T21:50	10	0	0.2	-1	0	369	0.3	368	369	12.2	83.6
2022-10-03T21:51	10	0	0.1	-1	0	369	0.3	369	370	12.2	83.3
2022-10-03T21:52	10	0	0.1	-1	0	369	0.3	369	370	12.2	83.3
2022-10-03T21:53	10	0	0.1	-1	0	369	0.3	368	370	12.2	83.1
2022-10-03T21:54	10	0	0.1	-1	0	370	0.3	369	370	12.2	83.2
2022-10-03T21:55	10	0	0.2	-1	0	370	0.3	369	370	12.2	82.9
2022-10-03T21:56	10	0	0.1	-1	0	370	0.5	369	371	12.2	83.1
2022-10-03T21:57	10	0	0.1	-1	0	370	0.3	369	371	12.1	83.4
2022-10-03T21:58	10	0	0.1	-1	0	370	0.4	369	371	12.2	83.4
2022-10-03T21:59	10	0	0.2	-1	0	370	0.4	369	371	12.2	83.0
2022-10-03T22:00	10	0	0.1	-1	0	370	0.2	370	371	12.2	82.9
2022-10-03T22:01	10	0	0.1	0	0	370	0.3	370	371	12.2	82.7
2022-10-03T22:02	10	0	0.1	-1	0	370	0.3	369	371	12.2	83.1
2022-10-03T22:03	10	0	0.2	0	0	370	0.3	369	370	12.2	83.4
2022-10-03T22:04	10	0	0.1	0	0	369	0.3	369	370	12.2	83.1
2022-10-03T22:05	10	0	0.1	0	0	369	0.2	369	370	12.2	83.1
2022-10-03T22:06	10	0	0.1	0	1	369	0.3	369	370	12.2	82.9
2022-10-03T22:07	10	0	0.1	0	1	369	0.5	368	370	12.2	82.7
2022-10-03T22:08	10	0	0.2	0	1	369	0.4	368	370	12.2	83.0
2022-10-03T22:09	10	0	0.2	0	1	369	0.2	368	369	12.1	83.5
2022-10-03T22:10	10	1	0.2	0	1	368	0.4	367	369	12.1	84.0
2022-10-03T22:11	10	1	0.1	0	1	368	0.3	367	369	12.1	83.9
2022-10-03T22:12	10	1	0.2	1	1	368	0.2	367	368	12.1	83.8
2022-10-03T22:13	10	1	0.1	1	1	367	0.3	366	368	12.1	83.8
2022-10-03T22:14	10	1	0.1	1	1	367	0.3	367	368	12.1	83.7
2022-10-03T22:15	10	1	0.1	1	1	367	0.3	366	368	12.1	83.6
2022-10-03T22:16	10	1	0.1	1	1	366	0.4	366	367	12.0	84.4
2022-10-03T22:17	10	1	0.1	0	1	366	0.3	365	367	11.9	85.4
2022-10-03T22:18	10	1	0.1	0	1	366	0.3	365	366	11.8	86.4
2022-10-03T22:19	10	1	0.1	0	1	365	0.2	365	366	11.8	87.3
2022-10-03T22:20	10	0	0.1	0	1	365	0.2	365	365	11.8	87.5
2022-10-03T22:21	10	0	0.1	0	1	365	0.2	364	365	11.8	88.1
2022-10-03T22:22	10	0	0.2	0	1	364	0.2	364	365	11.7	88.7
2022-10-03T22:23	10	0	0.1	0	1	364	0.2	364	365	11.7	88.8
2022-10-03T22:24	10	0	0.1	0	1	364	0.3	363	365	11.6	89.2
2022-10-03T22:25	10	0	0.1	0	1	365	0.3	364	365	11.7	89.3
2022-10-03T22:26	10	0	0.1	0	1	365	0.3	364	365	11.8	88.7
2022-10-03T22:27	10	0	0.1	0	1	365	0.3	365	366	11.8	88.7
2022-10-03T22:28	10	0	0.1	0	1	365	0.2	365	366	11.8	88.7
2022-10-03T22:29	10	0	0.1	0	1	366	0.2	365	366	11.8	88.4
2022-10-03T22:30	10	0	0.2	0	1	366	0.3	365	367	11.9	88.1
2022-10-03T22:31	10	0	0.2	0	1	366	0.3	365	367	11.8	88.2
2022-10-03T22:32	10	0	0.1	0	1	366	0.3	365	367	11.7	88.7
2022-10-03T22:33	10	0	0.1	0	1	366	0.2	366	366	11.7	89.1
2022-10-03T22:34	10	0	0.1	0	1	366	0.2	366	367	11.7	89.1
2022-10-03T22:35	10	0	0.1	0	1	367	0.1	366	367	11.7	89.3
2022-10-03T22:36	10	0	0.1	0	1	367	0.2	366	367	11.7	89.3
2022-10-03T22:37	10	0	0.1	0	1	367	0.2	367	368	11.8	89.0
2022-10-03T22:38	10	0	0.1	0	1	367	0.2	367	368	11.7	89.1
2022-10-03T22:39	10	0	0.2	0	1	367	0.3	367	368	11.6	89.7
2022-10-03T22:40	10	0	0.1	0	1	368	0.2	367	368	11.6	89.9
2022-10-03T22:41	10	0	0.1	0	0	368	0.3	367	368	11.6	90.3
2022-10-03T22:42	10	0	0.1	0	0	368	0.3	367	368	11.6	90.3
2022-10-03T22:43	10	0	0.1	0	1	368	0.3	367	369	11.7	90.0
2022-10-03T22:44	10	0	0.1	0	0	368	0.3	368	369	11.7	89.6
2022-10-03T22:45	10	0	0.1	0	0	368	0.2	368	368	11.7	89.8
2022-10-03T22:46	10	0	0.1	0	0	368	0.3	368	369	11.7	89.9
2022-10-03T22:47	10	0	0.1	0	1	368	0.2	368	369	11.6	90.0
2022-10-03T22:48	10	0	0.1	0	1	368	0.2	368	369	11.6	90.2
2022-10-03T22:49	10	0	0.1	0	1	369	0.2	368	369	11.6	90.2
2022-10-03T22:50	10	0	0.1	0	1	369	0.3	368	370	11.6	90.1
2022-10-03T22:51	10	0	0.2	0	1	369	0.2	368	369	11.7	89.9
2022-10-03T22:52	10	0	0.1	0	1	369	0.2	368	369	11.6	89.8
2022-10-03T22:53	10	0	0.1	0	0	369	0.2	368	369	11.7	89.7
2022-10-03T22:54	10	0	0.1	0	1	369	0.2	368	370	11.6	89.6
2022-10-03T22:55	10	0	0.1	0	0	369	0.2	369	370	11.6	89.9
2022-10-03T22:56	10	0	0.1	0	0	369	0.2	368	369	11.6	89.9
2022-10-03T22:57	10	0	0.1	0	0	369	0.3	368	369	11.6	90.0
2022-10-03T22:58	10	0	0.1	0	0	369	0.2	369	370	11.6	90.2
2022-10-03T22:59	10	0	0.2	0	0	369	0.3	369	370	11.6	90.3
2022-10-03T23:00	10	0	0.1	0	0	369	0.3	369	370	11.6	90.6
2022-10-03T23:01	10	0	0.1	0	0	369	0.2	369	370	11.6	90.7
2022-10-03T23:02	10	0	0.1	0	1	369	0.2	369	370	11.6	90.7
2022-10-03T23:03	10	0	0.1	0	0	369	0.2	369	370	11.6	90.6
2022-10-03T23:04	10	0	0.1	0	0	369	0.2	369	370	11.6	90.4
2022-10-03T23:05	10	0	0.1	0	0	369	0.2	369	370	11.6	90.3
2022-10-03T23:06	10	0	0.1	0	0	369	0.2	369	370	11.6	90.5
2022-10-03T23:07	10	0	0.1	0	0	370	0.2	369	370	11.6	90.0
2022-10-03T23:08	10	0	0.1	0	0	370	0.2	369	370	11.6	89.9
2022-10-03T23:09	10	0	0.1	0	0	370	0.2	369	370	11.7	89.8
2022-10-03T23:10	10	0	0.1	0	0	370	0.2	369	370	11.7	89.8
2022-10-03T23:11	10	0	0.1	0	0	370	0.3	369	371	11.7	89.7
2022-10-03T23:12	10	0	0.1	0	0	370	0.3	369	371	11.7	88.9
2022-10-03T23:13	10	0	0.1	0	1	370	0.2	370	370	11.6	89.5
2022-10-03T23:14	10	0	0.1	0	1	370	0.2	370	370	11.6	89.9
2022-10-03T23:15	10	0	0.1	0	1	370	0.2	369	370	11.6	90.1
2022-10-03T23:16	10	0	0.1	0	1	370	0.2	369	370	11.7	89.9
2022-10-03T23:17	10	0	0.1	0	0	370	0.2	370	371	11.6	90.1
2022-10-03T23:18	10	0	0.1	0	1	370	0.2	369	370	11.7	90.0
2022-10-03T23:19	10	0	0.1	0	1	370	0.2	370	370	11.7	89.9
2022-10-03T23:20	10	0	0.1	0	1	370	0.3	370	371	11.6	90.0
2022-10-03T23:21	10	0	0.1	0	1	370	0.3	369	371	11.6	90.1
2022-10-03T23:22	10	1	0.1	0	1	370	0.2	370	371	11.6	90.4
2022-10-03T23:23	10	1	0.1	0	1	371	0.2	370	371	11.6	90.3
2022-10-03T23:24	10	1	0.1	1	1	371	0.2	370	371	11.7	89.9
2022-10-03T23:25	10	1	0.1	0	1	371	0.2	370	371	11.7	89.7
2022-10-03T23:26	10	1	0.1	0	1	371	0.2	370	371	11.7	89.7
2022-10-03T23:27	10	1	0.1	0	1	371	0.2	370	371	11.7	89.4
2022-10-03T23:28	10	1	0.1	0	1	371	0.2	370	371	11.7	89.6
2022-10-03T23:29	10	1	0.1	0	1	371	0.2	370	371	11.7	89.7
2022-10-03T23:30	10	0	0.1	0	1	371	0.2	370	371	11.6	90.0
2022-10-03T23:31	10	1	0.1	0	1	371	0.2	370	371	11.7	89.8
2022-10-03T23:32	10	1	0.1	0	1	371	0.2	370	371	11.7	89.9
2022-10-03T23:33	10	0	0.1	0	1	371	0.2	370	371	11.7	90.2
2022-10-03T23:34	10	0	0.1	0	1	371	0.2	370	371	11.7	90.3
2022-10-03T23:35	10	0	0.1	0	1	371	0.2	370	371	11.7	90.4
2022-10-03T23:36	10	1	0.1	0	1	371	0.4	370	372	11.7	90.3
2022-10-03T23:37	10	1	0.1	0	1	371	0.2	370	371	11.7	89.6
2022-10-03T23:38	10	1	0.1	0	1	371	0.2	371	371	11.7	89.4
2022-10-03T23:39	10	1	0.1	0	1	371	0.2	370	371	11.7	89.6
2022-10-03T23:40	10	1	0.1	0	1	371	0.3	370	372	11.7	89.8
2022-10-03T23:41	10	0	0.1	0	1	371	0.2	370	371	11.7	90.0
2022-10-03T23:42	10	1	0.1	0	1	371	0.2	370	371	11.7	90.4
2022-10-03T23:43	10	1	0.1	0	1	371	0.2	370	371	11.7	89.9
2022-10-03T23:44	10	1	0.1	0	1	371	0.2	370	371	11.8	88.8
2022-10-03T23:45	10	1	0.1	0	1	371	0.2	370	371	11.7	89.5
2022-10-03T23:46	10	1	0.1	0	1	371	0.2	371	371	11.7	90.4
2022-10-03T23:47	10	1	0.1	0	1	371	0.2	371	371	11.7	90.7
2022-10-03T23:48	10	1	0.1	0	1	371	0.2	371	371	11.6	91.1
2022-10-03T23:49	10	1	0.1	0	1	371	0.2	371	371	11.7	91.1
2022-10-03T23:50	10	1	0.1	1	1	371	0.2	371	371	11.7	90.7
2022-10-03T23:51	10	1	0.1	1	1	371	0.2	371	371	11.6	91.0
2022-10-03T23:52	10	1	0.1	1	1	371	0.2	371	372	11.6	91.5
2022-10-03T23:53	10	1	0.1	1	1	371	0.2	371	371	11.6	91.5
2022-10-03T23:54	10	1	0.1	1	1	371	0.3	370	372	11.7	90.0
2022-10-03T23:55	10	1	0.1	1	1	371	0.3	370	372	11.7	90.3
2022-10-03T23:56	10	1	0.1	1	1	371	0.3	370	371	11.7	90.5
2022-10-03T23:57	10	1	0.1	1	1	371	0.2	370	371	11.7	90.1
2022-10-03T23:58	10	1	0.1	0	1	371	0.3	370	371	11.6	90.2
2022-10-03T23:59	10	0	0.1	0	1	371	0.3	371	372	11.7	89.7
2022-10-04T00:00	10	0	0.1	0	1	371	0.2	371	372	11.9	86.9
2022-10-04T00:01	10	1	0.1	0	1	371	0.2	370	371	11.9	85.4
2022-10-04T00:02	10	1	0.1	0	1	371	0.3	371	372	11.9	85.7
2022-10-04T00:03	10	1	0.1	1	1	371	0.2	371	372	11.9	86.0
2022-10-04T00:04	10	1	0.1	0	1	371	0.2	371	371	11.8	87.7
2022-10-04T00:05	10	1	0.1	1	1	371	0.2	370	371	11.8	88.5
2022-10-04T00:06	10	1	0.1	1	1	371	0.2	371	371	11.8	88.2
2022-10-04T00:07	10	1	0.1	1	1	371	0.2	370	371	11.9	87.0
2022-10-04T00:08	10	1	0.1	1	1	371	0.3	370	371	12.0	83.8
2022-10-04T00:09	10	1	0.1	1	1	371	0.3	370	371	12.0	82.8
2022-10-04T00:10	10	1	0.1	1	1	371	0.3	370	371	12.0	83.4
2022-10-04T00:11	10	1	0.1	1	1	371	0.2	370	371	11.9	85.9
2022-10-04T00:12	10	1	0.1	1	1	371	0.2	371	372	11.9	85.4
2022-10-04T00:13	10	1	0.1	1	1	371	0.2	371	371	12.0	84.3
2022-10-04T00:14	10	1	0.1	1	1	371	0.2	371	372	11.9	87.5
2022-10-04T00:15	10	1	0.1	1	1	371	0.3	371	372	12.0	85.0
2022-10-04T00:16	10	1	0.1	1	1	371	0.2	371	371	11.9	86.9
2022-10-04T00:17	10	1	0.1	1	1	371	0.2	371	372	11.8	88.2
2022-10-04T00:18	10	1	0.1	1	1	371	0.2	371	372	11.8	87.8
2022-10-04T00:19	10	1	0.1	1	1	371	0.2	371	372	11.9	86.6
2022-10-04T00:20	10	1	0.1	1	1	371	0.2	371	372	12.0	83.8
2022-10-04T00:21	10	1	0.1	1	1	372	0.2	371	372	12.0	83.2
2022-10-04T00:22	10	1	0.1	1	1	372	0.2	371	372	12.0	83.3
2022-10-04T00:23	10	1	0.1	1	1	371	0.3	371	372	12.0	84.4
2022-10-04T00:24	10	1	0.1	1	1	371	0.2	371	372	11.9	85.9
2022-10-04T00:25	10	1	0.1	1	1	371	0.2	371	372	11.9	87.0
2022-10-04T00:26	10	1	0.0	1	1	371	0.2	371	372	11.8	87.9
2022-10-04T00:27	10	1	0.1	1	1	371	0.2	371	372	11.8	89.0
2022-10-04T00:28	10	1	0.1	1	1	371	0.2	371	372	11.8	89.7
2022-10-04T00:29	10	1	0.1	1	1	371	0.2	371	372	11.7	89.9
2022-10-04T00:30	10	1	0.1	1	1	372	0.3	371	372	11.7	90.0
2022-10-04T00:31	10	1	0.1	1	1	372	0.2	371	372	11.8	89.2
2022-10-04T00:32	10	1	0.1	1	1	372	0.2	371	372	11.8	88.3
2022-10-04T00:33	10	1	0.1	0	1	372	0.2	371	372	11.9	87.1
2022-10-04T00:34	10	1	0.1	1	1	372	0.2	371	372	11.9	87.3
2022-10-04T00:35	10	1	0.1	0	1	371	0.2	371	372	11.8	88.1
2022-10-04T00:36	10	1	0.1	0	1	371	0.2	371	372	11.8	88.5
2022-10-04T00:37	10	0	0.1	0	1	371	0.2	371	372	11.8	88.7
2022-10-04T00:38	10	1	0.1	0	1	372	0.2	371	372	11.8	88.9
2022-10-04T00:39	10	1	0.1	0	1	372	0.2	371	372	11.8	88.3
2022-10-04T00:40	10	1	0.1	0	1	372	0.2	371	372	11.8	88.6
2022-10-04T00:41	10	1	0.1	1	1	372	0.2	371	372	11.9	87.5
2022-10-04T00:42	10	1	0.1	1	1	372	0.2	372	373	11.9	86.6
2022-10-04T00:43	10	1	0.1	1	1	372	0.3	371	372	11.9	86.6
2022-10-04T00:44	10	1	0.1	1	1	372	0.2	371	372	11.9	86.7
2022-10-04T00:45	10	1	0.1	1	1	372	0.2	372	373	11.9	86.8
2022-10-04T00:46	10	1	0.1	1	1	372	0.2	372	373	11.9	86.8
2022-10-04T00:47	10	1	0.1	1	1	372	0.2	372	373	11.9	86.7
2022-10-04T00:48	10	1	0.1	1	1	372	0.2	372	373	11.9	86.5
2022-10-04T00:49	10	1	0.1	1	1	372	0.2	372	373	12.0	85.9
2022-10-04T00:50	10	1	0.1	1	1	372	0.2	372	373	11.9	85.8
2022-10-04T00:51	10	1	0.1	1	1	372	0.2	372	373	11.9	85.9
2022-10-04T00:52	10	1	0.1	1	1	372	0.2	372	373	11.9	86.0
2022-10-04T00:53	10	1	0.1	1	1	372	0.2	372	372	11.9	85.9
2022-10-04T00:54	10	1	0.1	1	1	372	0.2	372	373	12.0	85.3
2022-10-04T00:55	10	1	0.1	1	1	372	0.2	371	372	11.9	87.2
2022-10-04T00:56	10	1	0.1	1	1	372	0.3	371	372	11.9	87.8
2022-10-04T00:57	10	1	0.1	1	1	372	0.2	371	372	11.9	86.7
2022-10-04T00:58	10	1	0.1	1	1	372	0.2	372	373	11.9	86.8
2022-10-04T00:59	10	1	0.1	1	1	372	0.2	372	373	11.9	86.1
2022-10-04T01:00	10	1	0.1	1	1	372	0.2	371	372	11.9	85.4
2022-10-04T01:01	10	1	0.1	0	1	372	0.3	371	372	11.9	85.9
2022-10-04T01:02	10	0	0.1	0	1	371	0.2	371	372	11.9	86.1
2022-10-04T01:03	10	0	0.1	0	0	371	0.2	371	372	11.9	85.1
2022-10-04T01:04	10	0	0.1	0	1	371	0.3	371	372	11.9	86.1
2022-10-04T01:05	10	0	0.1	0	0	371	0.2	371	372	11.9	87.0
2022-10-04T01:06	10	0	0.1	0	1	371	0.2	371	372	11.8	87.3
2022-10-04T01:07	10	1	0.1	0	1	371	0.2	371	372	11.8	87.5
2022-10-04T01:08	10	1	0.1	1	1	371	0.2	371	372	11.7	89.2
2022-10-04T01:09	10	1	0.1	1	1	371	0.2	371	372	11.8	89.1
2022-10-04T01:10	10	1	0.1	1	1	371	0.2	371	372	11.8	88.9
2022-10-04T01:11	10	1	0.1	0	1	371	0.2	371	372	11.8	88.9
2022-10-04T01:12	10	1	0.2	1	1	371	0.2	371	372	11.8	88.9
2022-10-04T01:13	10	1	0.1	1	1	371	0.2	371	372	11.8	89.0
2022-10-04T01:14	10	1	0.1	0	1	372	0.3	371	372	11.7	89.3
2022-10-04T01:15	10	1	0.1	0	1	371	0.2	371	372	11.7	88.5
2022-10-04T01:16	10	0	0.2	0	1	371	0.2	371	372	11.7	88.7
2022-10-04T01:17	10	0	0.2	0	1	371	0.3	371	372	11.7	87.8
2022-10-04T01:18	10	0	0.1	0	1	371	0.2	371	372	11.8	88.0
2022-10-04T01:19	10	0	0.1	0	1	371	0.2	371	372	11.8	87.0
2022-10-04T01:20	10	0	0.2	0	1	371	0.3	371	372	11.8	86.9
2022-10-04T01:21	10	0	0.2	0	1	371	0.3	371	372	11.8	87.3
2022-10-04T01:22	10	1	0.2	0	1	371	0.3	371	372	11.8	88.1
2022-10-04T01:23	10	1	0.2	0	1	371	0.3	371	372	11.8	88.4
2022-10-04T01:24	10	1	0.2	0	1	371	0.3	371	372	11.8	88.8
2022-10-04T01:25	10	1	0.2	0	1	371	0.3	371	372	11.8	88.9
2022-10-04T01:26	10	1	0.2	0	1	371	0.2	371	372	11.8	88.2
2022-10-04T01:27	10	1	0.2	0	1	371	0.2	371	372	11.8	88.4
2022-10-04T01:28	10	1	0.1	1	1	371	0.3	371	372	11.8	88.5
2022-10-04T01:29	10	1	0.2	1	1	371	0.2	371	372	11.8	88.0
2022-10-04T01:30	10	1	0.2	1	1	372	0.2	371	372	11.8	87.4
2022-10-04T01:31	10	1	0.2	0	1	371	0.3	371	372	11.8	86.8
2022-10-04T01:32	10	1	0.1	1	1	371	0.2	371	372	11.8	86.4
2022-10-04T01:33	10	1	0.1	1	1	371	0.2	371	372	11.8	85.4
2022-10-04T01:34	10	1	0.1	0	1	371	0.2	371	372	11.8	84.4
2022-10-04T01:35	10	1	0.1	1	1	371	0.2	371	372	11.9	84.2
2022-10-04T01:36	10	1	0.1	1	1	371	0.2	371	372	11.9	84.7
2022-10-04T01:37	10	1	0.1	1	1	372	0.2	371	372	11.9	84.5
2022-10-04T01:38	10	1	0.1	1	1	372	0.2	371	372	11.9	83.7
2022-10-04T01:39	10	1	0.1	1	2	372	0.2	371	372	11.9	84.1
2022-10-04T01:40	10	1	0.1	1	1	372	0.3	371	373	11.9	84.4
2022-10-04T01:41	10	1	0.1	1	1	372	0.2	371	372	11.8	84.4
2022-10-04T01:42	10	1	0.1	1	1	371	0.2	371	372	11.8	84.2
2022-10-04T01:43	10	1	0.2	1	1	372	0.2	371	372	11.9	84.0
2022-10-04T01:44	10	1	0.1	0	1	371	0.2	371	372	11.9	83.8
2022-10-04T01:45	10	1	0.1	0	1	371	0.2	371	372	11.9	83.3
2022-10-04T01:46	10	1	0.2	0	1	371	0.2	371	372	11.9	83.7
2022-10-04T01:47	10	1	0.1	0	1	372	0.2	371	372	11.9	84.2
2022-10-04T01:48	10	1	0.1	0	1	372	0.3	371	372	11.9	84.5
2022-10-04T01:49	10	1	0.1	0	1	371	0.3	371	372	11.9	84.7
2022-10-04T01:50	10	1	0.1	1	1	371	0.2	371	372	11.8	84.7
2022-10-04T01:51	10	1	0.1	1	1	371	0.2	371	372	11.8	85.5
2022-10-04T01:52	10	1	0.1	1	1	371	0.2	370	372	11.8	86.7
2022-10-04T01:53	10	1	0.1	1	1	371	0.3	370	371	11.8	85.5
2022-10-04T01:54	10	1	0.1	1	1	371	0.2	371	371	11.8	85.0
2022-10-04T01:55	10	1	0.1	1	1	371	0.2	371	371	11.8	85.2
2022-10-04T01:56	10	1	0.1	1	2	371	0.2	371	372	11.8	84.9
2022-10-04T01:57	10	1	0.1	1	1	371	0.2	370	372	11.8	84.2
2022-10-04T01:58	10	1	0.1	1	1	371	0.2	371	372	11.8	83.9
2022-10-04T01:59	10	1	0.2	1	1	371	0.3	371	372	11.8	84.0
2022-10-04T02:00	10	1	0.1	1	1	371	0.2	371	372	11.8	84.2
2022-10-04T02:01	10	1	0.1	1	1	371	0.3	371	372	11.8	85.0
2022-10-04T02:02	10	1	0.2	1	2	371	0.3	371	372	11.8	85.3
2022-10-04T02:03	10	1	0.1	1	1	371	0.3	371	372	11.8	86.3
2022-10-04T02:04	10	1	0.1	1	1	371	0.2	370	371	11.7	87.4
2022-10-04T02:05	10	1	0.2	1	1	371	0.2	370	371	11.7	89.7
2022-10-04T02:06	10	1	0.2	0	1	371	0.3	370	372	11.7	90.4
2022-10-04T02:07	10	1	0.2	1	1	371	0.3	370	372	11.7	90.1
2022-10-04T02:08	10	1	0.1	1	1	371	0.2	370	372	11.7	89.9
2022-10-04T02:09	10	1	0.1	1	1	371	0.3	370	372	11.7	89.3
2022-10-04T02:10	10	1	0.1	1	1	371	0.2	371	372	11.7	89.3
2022-10-04T02:11	10	1	0.1	1	1	371	0.2	371	372	11.7	89.5
2022-10-04T02:12	10	1	0.1	1	1	371	0.2	371	372	11.7	89.1
2022-10-04T02:13	10	1	0.1	0	1	371	0.3	371	372	11.7	88.9
2022-10-04T02:14	10	1	0.1	1	1	371	0.2	371	372	11.8	88.0
2022-10-04T02:15	10	1	0.1	0	1	371	0.2	371	371	11.8	87.7
2022-10-04T02:16	10	1	0.2	0	1	371	0.3	370	372	11.7	87.8
2022-10-04T02:17	10	1	0.2	0	1	371	0.3	370	371	11.7	88.7
2022-10-04T02:18	10	1	0.2	0	1	371	0.2	370	371	11.6	90.2
2022-10-04T02:19	10	1	0.1	0	1	371	0.3	370	371	11.6	91.0
2022-10-04T02:20	10	0	0.2	0	1	371	0.3	370	371	11.6	90.9
2022-10-04T02:21	10	0	0.1	0	1	370	0.2	370	371	11.6	90.5
2022-10-04T02:22	10	0	0.2	0	1	371	0.3	370	371	11.6	90.0
2022-10-04T02:23	10	0	0.1	0	1	370	0.2	370	371	11.6	90.6
2022-10-04T02:24	10	0	0.1	0	1	370	0.2	370	371	11.6	91.0
2022-10-04T02:25	10	0	0.2	0	1	370	0.3	370	371	11.6	91.3
2022-10-04T02:26	10	0	0.1	0	1	370	0.2	370	371	11.5	92.2
2022-10-04T02:27	10	0	0.2	0	1	370	0.3	369	371	11.5	92.7
2022-10-04T02:28	10	0	0.2	0	1	370	0.2	370	371	11.5	92.2
2022-10-04T02:29	10	0	0.1	0	1	370	0.2	369	370	11.6	92.1
2022-10-04T02:30	10	0	0.1	0	1	370	0.3	369	370	11.6	92.2
2022-10-04T02:31	10	0	0.1	0	1	370	0.3	369	370	11.5	92.4
2022-10-04T02:32	10	0	0.1	0	0	370	0.3	369	370	11.5	92.6
2022-10-04T02:33	10	0	0.2	0	1	369	0.3	368	370	11.5	92.6
2022-10-04T02:34	10	0	0.1	0	0	369	0.2	368	370	11.5	92.4
2022-10-04T02:35	10	0	0.2	0	1	369	0.2	369	369	11.5	92.2
2022-10-04T02:36	10	0	0.1	0	1	369	0.3	369	370	11.5	92.0
2022-10-04T02:37	10	0	0.1	0	1	369	0.3	368	370	11.6	91.1
2022-10-04T02:38	10	0	0.1	0	1	369	0.2	369	370	11.5	91.1
2022-10-04T02:39	10	0	0.1	0	1	369	0.3	369	370	11.6	90.4
2022-10-04T02:40	10	0	0.2	0	1	369	0.2	369	370	11.6	89.3
2022-10-04T02:41	10	0	0.1	0	1	369	0.2	369	370	11.6	89.2
2022-10-04T02:42	10	0	0.1	0	1	369	0.3	369	370	11.6	89.7
2022-10-04T02:43	10	0	0.1	0	1	369	0.2	369	370	11.6	89.9
2022-10-04T02:44	10	0	0.1	0	1	369	0.2	369	369	11.6	90.0
2022-10-04T02:45	10	0	0.1	0	1	369	0.2	369	370	11.6	90.3
2022-10-04T02:46	10	0	0.1	0	1	369	0.3	368	370	11.6	90.4
2022-10-04T02:47	10	0	0.2	0	1	369	0.3	369	370	11.6	90.5
2022-10-04T02:48	10	1	0.1	0	1	369	0.3	369	370	11.6	90.8
2022-10-04T02:49	10	1	0.1	0	1	369	0.3	368	370	11.7	90.8
2022-10-04T02:50	10	1	0.1	0	1	369	0.3	368	370	11.6	90.7
2022-10-04T02:51	10	1	0.1	0	1	368	0.2	368	369	11.6	90.8
2022-10-04T02:52	10	0	0.1	0	1	368	0.2	368	369	11.6	90.8
2022-10-04T02:53	10	1	0.2	0	1	368	0.3	367	368	11.6	90.8
2022-10-04T02:54	10	1	0.1	0	1	367	0.3	367	368	11.6	91.0
2022-10-04T02:55	10	0	0.2	0	1	367	0.2	367	367	11.6	91.0
2022-10-04T02:56	10	0	0.1	0	1	367	0.3	366	367	11.6	91.2
2022-10-04T02:57	10	0	0.1	0	1	367	0.2	366	367	11.5	91.4
2022-10-04T02:58	10	0	0.1	0	1	367	0.2	366	368	11.5	91.7
2022-10-04T02:59	10	0	0.1	0	1	366	0.2	366	367	11.5	91.7
2022-10-04T03:00	10	0	0.1	0	1	366	0.2	366	367	11.5	91.7
2022-10-04T03:01	10	0	0.1	0	1	366	0.2	366	367	11.5	91.5
2022-10-04T03:02	10	0	0.1	0	1	366	0.2	365	367	11.5	91.4
2022-10-04T03:03	10	0	0.1	0	1	366	0.2	365	366	11.5	91.6
2022-10-04T03:04	10	1	0.1	0	1	366	0.2	365	366	11.4	91.8
2022-10-04T03:05	10	1	0.1	0	1	366	0.3	365	366	11.4	92.0
2022-10-04T03:06	10	1	0.1	0	1	366	0.2	365	366	11.4	92.1
2022-10-04T03:07	10	1	0.1	0	1	366	0.2	365	366	11.4	92.1
2022-10-04T03:08	10	1	0.1	0	1	365	0.2	365	366	11.4	92.2
2022-10-04T03:09	10	1	0.1	0	1	365	0.2	364	365	11.4	92.4
2022-10-04T03:10	10	1	0.1	0	1	365	0.2	365	366	11.4	92.7
2022-10-04T03:11	10	1	0.1	0	1	365	0.2	364	366	11.3	92.9
2022-10-04T03:12	10	0	0.1	0	1	365	0.2	365	366	11.3	93.0
2022-10-04T03:13	10	1	0.1	0	1	365	0.2	365	366	11.4	92.9
2022-10-04T03:14	10	1	0.1	0	1	365	0.2	365	366	11.3	92.8
2022-10-04T03:15	10	1	0.1	0	1	365	0.2	365	366	11.3	92.7
2022-10-04T03:16	10	1	0.1	0	1	365	0.2	365	366	11.4	92.6
2022-10-04T03:17	10	1	0.1	0	1	365	0.2	365	366	11.4	92.4
2022-10-04T03:18	10	1	0.1	1	1	365	0.2	365	365	11.4	92.2
2022-10-04T03:19	10	1	0.0	1	1	365	0.2	364	365	11.4	91.9
2022-10-04T03:20	10	1	0.1	0	1	365	0.2	364	365	11.4	91.8
2022-10-04T03:21	10	1	0.1	0	1	365	0.2	364	365	11.4	91.6
2022-10-04T03:22	10	1	0.1	0	1	365	0.2	364	365	11.4	91.5
2022-10-04T03:23	10	1	0.0	1	1	365	0.2	365	365	11.4	91.3
2022-10-04T03:24	10	1	0.1	1	1	365	0.2	365	365	11.4	91.0
2022-10-04T03:25	10	1	0.1	1	1	365	0.2	364	365	11.4	91.0
2022-10-04T03:26	10	1	0.1	1	1	365	0.2	365	366	11.4	91.1
2022-10-04T03:27	10	1	0.0	0	1	365	0.2	364	366	11.4	91.2
2022-10-04T03:28	10	1	0.1	1	1	365	0.2	365	366	11.4	91.2
2022-10-04T03:29	10	1	0.1	0	1	366	0.3	365	366	11.4	91.1
2022-10-04T03:30	10	1	0.1	0	1	366	0.2	365	366	11.4	91.1
2022-10-04T03:31	10	1	0.1	0	1	366	0.2	365	366	11.4	91.1
2022-10-04T03:32	10	1	0.1	1	1	366	0.2	366	366	11.3	91.3
2022-10-04T03:33	10	1	0.1	0	1	366	0.2	366	367	11.3	91.7
2022-10-04T03:34	10	1	0.1	0	1	366	0.2	366	367	11.3	91.7
2022-10-04T03:35	10	1	0.1	0	1	367	0.2	366	367	11.3	91.6
2022-10-04T03:36	10	1	0.0	0	1	366	0.2	366	367	11.4	91.5
2022-10-04T03:37	10	1	0.1	0	1	366	0.2	366	366	11.3	91.6
2022-10-04T03:38	10	0	0.1	0	1	366	0.2	365	366	11.3	92.3
2022-10-04T03:39	10	0	0.1	0	0	366	0.2	365	366	11.3	92.8
2022-10-04T03:40	10	0	0.1	0	0	365	0.2	365	366	11.3	92.8
2022-10-04T03:41	10	0	0.1	0	0	366	0.2	365	366	11.3	92.4
2022-10-04T03:42	10	0	0.1	0	0	366	0.2	365	366	11.4	92.0
2022-10-04T03:43	10	0	0.1	0	0	366	0.2	365	366	11.3	91.8
2022-10-04T03:44	10	0	0.1	0	0	366	0.2	365	367	11.3	92.4
2022-10-04T03:45	10	0	0.1	0	0	366	0.2	366	366	11.2	92.9
2022-10-04T03:46	10	0	0.1	-1	0	366	0.3	366	367	11.2	93.2
2022-10-04T03:47	10	0	0.1	-1	0	366	0.2	366	367	11.2	93.2
2022-10-04T03:48	10	0	0.1	-1	0	366	0.3	365	367	11.2	93.2
2022-10-04T03:49	10	0	0.1	0	0	366	0.2	366	367	11.2	93.2
2022-10-04T03:50	10	0	0.1	0	0	366	0.2	365	367	11.1	93.3
2022-10-04T03:51	10	0	0.0	0	0	366	0.2	366	367	11.1	93.2
2022-10-04T03:52	10	0	0.1	0	0	366	0.2	366	367	11.2	92.8
2022-10-04T03:53	10	0	0.1	0	0	366	0.2	365	366	11.3	92.0
2022-10-04T03:54	10	0	0.1	0	0	366	0.3	365	367	11.3	91.3
2022-10-04T03:55	10	0	0.0	0	0	366	0.3	365	366	11.2	91.5
2022-10-04T03:56	10	0	0.1	0	0	366	0.2	365	367	11.2	92.4
2022-10-04T03:57	10	0	0.1	0	0	366	0.2	366	367	11.1	92.8
2022-10-04T03:58	10	0	0.1	0	0	366	0.2	365	366	11.1	92.8
2022-10-04T03:59	10	0	0.1	0	1	366	0.3	365	367	11.1	92.9
2022-10-04T04:00	10	0	0.1	0	1	366	0.2	366	367	11.1	93.2
2022-10-04T04:01	10	1	0.1	0	1	367	0.3	366	367	11.1	93.3
2022-10-04T04:02	10	1	0.1	1	1	367	0.2	367	367	11.1	93.2
2022-10-04T04:03	10	1	0.1	0	1	367	0.3	367	368	11.1	92.9
2022-10-04T04:04	10	1	0.1	0	1	367	0.2	367	368	11.1	92.8
2022-10-04T04:05	10	1	0.1	1	1	367	0.2	367	368	11.1	92.9
2022-10-04T04:06	10	1	0.1	1	1	368	0.2	367	368	11.2	92.8
2022-10-04T04:07	10	1	0.0	1	1	368	0.2	367	368	11.2	92.3
2022-10-04T04:08	10	1	0.1	1	1	368	0.2	367	368	11.2	92.1
2022-10-04T04:09	10	1	0.1	0	1	368	0.2	367	368	11.2	92.1
2022-10-04T04:10	10	1	0.1	1	1	367	0.2	367	368	11.1	92.5
2022-10-04T04:11	10	1	0.1	1	1	367	0.2	367	368	11.1	92.9
2022-10-04T04:12	10	1	0.1	1	1	367	0.2	367	368	11.1	93.1
2022-10-04T04:13	10	1	0.1	1	1	367	0.2	367	368	11.1	93.3
2022-10-04T04:14	10	1	0.1	1	1	367	0.2	367	368	11.1	93.1
2022-10-04T04:15	10	1	0.1	0	1	367	0.2	367	368	11.1	92.9
2022-10-04T04:16	10	1	0.1	1	1	367	0.2	367	368	11.1	92.7
2022-10-04T04:17	10	1	0.1	1	1	367	0.3	367	368	11.2	92.4
2022-10-04T04:18	10	1	0.1	1	1	367	0.2	366	367	11.1	92.2
2022-10-04T04:19	10	1	0.1	1	1	366	0.2	366	367	11.1	92.2
2022-10-04T04:20	10	1	0.1	1	1	366	0.3	366	367	11.2	92.1
2022-10-04T04:21	10	1	0.1	1	1	366	0.2	365	366	11.2	91.7
2022-10-04T04:22	10	1	0.1	1	1	366	0.2	365	366	11.2	91.6
2022-10-04T04:23	10	1	0.1	1	1	366	0.2	365	366	11.2	91.5
2022-10-04T04:24	10	1	0.0	1	1	366	0.2	366	366	11.2	91.5
2022-10-04T04:25	10	1	0.1	1	1	366	0.2	366	366	11.2	91.7
2022-10-04T04:26	10	1	0.1	1	1	366	0.3	365	366	11.2	91.7
2022-10-04T04:27	10	1	0.1	1	1	366	0.2	365	366	11.1	91.8
2022-10-04T04:28	10	1	0.1	0	1	366	0.2	365	366	11.2	91.9
2022-10-04T04:29	10	1	0.1	0	1	366	0.2	365	366	11.1	92.0
2022-10-04T04:30	10	1	0.1	1	1	366	0.2	365	366	11.2	92.0
2022-10-04T04:31	10	1	0.1	1	1	366	0.2	365	366	11.1	92.0
2022-10-04T04:32	10	1	0.1	1	1	366	0.2	365	366	11.2	92.0
2022-10-04T04:33	10	1	0.1	0	1	366	0.2	366	366	11.2	92.0
2022-10-04T04:34	10	1	0.1	0	1	366	0.2	366	367	11.2	92.0
2022-10-04T04:35	10	0	0.1	0	1	366	0.3	366	367	11.2	92.2
2022-10-04T04:36	10	1	0.1	0	1	366	0.2	366	367	11.2	92.1
2022-10-04T04:37	10	1	0.1	0	1	367	0.2	366	367	11.2	92.0
2022-10-04T04:38	10	1	0.1	0	1	367	0.3	366	367	11.2	91.9
2022-10-04T04:39	10	1	0.1	0	1	367	0.3	366	368	11.2	91.8
2022-10-04T04:40	10	1	0.1	0	1	367	0.2	367	368	11.2	91.8
2022-10-04T04:41	10	1	0.0	0	1	367	0.2	367	368	11.2	91.9
2022-10-04T04:42	10	1	0.1	0	1	368	0.2	367	368	11.2	91.8
2022-10-04T04:43	10	1	0.1	0	1	368	0.2	367	368	11.2	91.8
2022-10-04T04:44	10	1	0.1	0	1	368	0.3	367	368	11.2	91.7
2022-10-04T04:45	10	1	0.1	0	1	368	0.2	367	368	11.2	91.6
2022-10-04T04:46	10	1	0.1	0	1	368	0.2	367	368	11.2	91.6
2022-10-04T04:47	10	1	0.1	0	1	368	0.2	367	368	11.2	91.6
2022-10-04T04:48	10	1	0.1	0	1	368	0.2	367	368	11.2	91.6
2022-10-04T04:49	10	1	0.1	0	1	368	0.2	367	368	11.3	91.4
2022-10-04T04:50	10	0	0.1	0	1	367	0.2	367	368	11.3	91.3
2022-10-04T04:51	10	0	0.0	0	0	368	0.2	367	368	11.3	91.1
2022-10-04T04:52	10	0	0.1	0	1	367	0.2	367	368	11.3	91.0
2022-10-04T04:53	10	0	0.1	0	0	367	0.2	367	368	11.3	90.9
2022-10-04T04:54	10	0	0.1	0	1	367	0.3	367	368	11.2	91.0
2022-10-04T04:55	10	0	0.1	0	1	367	0.2	367	368	11.2	91.5
2022-10-04T04:56	10	0	0.1	0	1	367	0.2	367	368	11.2	91.6
2022-10-04T04:57	10	1	0.1	0	1	367	0.2	367	368	11.2	91.5
2022-10-04T04:58	10	1	0.1	0	1	367	0.2	367	368	11.1	91.5
2022-10-04T04:59	10	1	0.1	0	1	368	0.2	367	368	11.1	91.7
2022-10-04T05:00	10	1	0.1	0	1	368	0.3	367	368	11.1	91.8
2022-10-04T05:01	10	1	0.1	1	1	367	0.2	367	368	11.1	91.8
2022-10-04T05:02	10	1	0.1	1	1	367	0.2	367	368	11.1	91.9
2022-10-04T05:03	10	1	0.1	1	1	367	0.2	367	368	11.1	91.8
2022-10-04T05:04	10	1	0.1	1	1	367	0.2	367	368	11.1	91.8
2022-10-04T05:05	10	1	0.1	1	1	367	0.2	367	368	11.1	91.8
2022-10-04T05:06	10	1	0.1	1	1	367	0.2	367	367	11.1	91.8
2022-10-04T05:07	10	1	0.1	1	1	367	0.2	366	367	11.1	91.9
2022-10-04T05:08	10	1	0.1	0	1	367	0.3	366	368	11.1	91.9
2022-10-04T05:09	10	1	0.1	0	1	367	0.2	366	368	11.1	91.8
2022-10-04T05:10	10	1	0.1	0	1	367	0.2	367	368	11.1	91.7
2022-10-04T05:11	10	1	0.1	0	1	367	0.2	367	367	11.1	91.7
2022-10-04T05:12	10	1	0.1	0	1	367	0.2	367	368	11.1	91.7
2022-10-04T05:13	10	1	0.1	1	1	367	0.2	367	368	11.1	91.7
2022-10-04T05:14	10	1	0.1	0	1	367	0.2	367	368	11.1	91.8
2022-10-04T05:15	10	1	0.1	1	1	367	0.2	366	367	11.2	91.8
2022-10-04T05:16	10	1	0.1	1	1	367	0.2	367	367	11.2	91.8
2022-10-04T05:17	10	1	0.1	0	1	367	0.3	366	367	11.2	91.8
2022-10-04T05:18	10	1	0.1	0	1	367	0.2	367	368	11.2	91.7
2022-10-04T05:19	10	1	0.1	0	1	367	0.2	366	367	11.2	91.8
2022-10-04T05:20	10	1	0.1	0	1	367	0.2	366	367	11.1	92.2
2022-10-04T05:21	10	1	0.1	0	1	366	0.2	366	367	11.1	92.5
2022-10-04T05:22	10	1	0.1	0	1	366	0.2	366	367	11.2	92.6
2022-10-04T05:23	10	1	0.1	0	1	366	0.2	366	367	11.1	92.6
2022-10-04T05:24	10	1	0.1	0	1	366	0.2	366	367	11.1	92.6
2022-10-04T05:25	10	1	0.1	1	1	366	0.3	366	367	11.1	92.3
2022-10-04T05:26	10	1	0.1	1	1	366	0.2	366	367	11.2	91.7
2022-10-04T05:27	10	1	0.1	1	1	366	0.3	366	367	11.2	91.3
2022-10-04T05:28	10	1	0.1	1	1	367	0.2	366	367	11.1	91.5
2022-10-04T05:29	10	1	0.1	1	1	367	0.2	366	367	11.1	91.8
2022-10-04T05:30	10	1	0.1	1	1	367	0.2	367	367	11.1	91.9
2022-10-04T05:31	10	1	0.1	1	1	367	0.2	366	368	11.1	92.1
2022-10-04T05:32	10	1	0.1	1	1	367	0.3	367	368	11.1	92.3
2022-10-04T05:33	10	1	0.1	1	1	367	0.2	367	368	11.1	92.0
2022-10-04T05:34	10	1	0.1	1	1	367	0.2	367	368	11.1	91.9
2022-10-04T05:35	10	1	0.1	1	1	367	0.2	367	368	11.1	92.0
2022-10-04T05:36	10	1	0.1	1	1	368	0.2	367	368	11.1	92.0
2022-10-04T05:37	10	1	0.1	1	1	368	0.2	367	368	11.1	91.9
2022-10-04T05:38	10	1	0.1	1	2	367	0.2	367	368	11.1	91.7
2022-10-04T05:39	10	2	0.1	1	2	367	0.2	367	368	11.1	91.5
2022-10-04T05:40	10	2	0.1	1	2	367	0.2	367	368	11.1	91.4
2022-10-04T05:41	10	2	0.1	2	2	367	0.2	367	368	11.1	91.4
2022-10-04T05:42	10	2	0.1	2	2	367	0.2	366	368	11.1	91.4
2022-10-04T05:43	10	2	0.0	2	2	367	0.2	367	368	11.2	91.5
2022-10-04T05:44	10	2	0.1	2	2	367	0.2	367	368	11.1	91.5
2022-10-04T05:45	10	2	0.1	2	2	368	0.2	367	368	11.2	91.6
2022-10-04T05:46	10	2	0.1	2	2	368	0.2	367	368	11.1	91.6
2022-10-04T05:47	10	2	0.1	2	2	368	0.3	367	369	11.1	91.5
2022-10-04T05:48	10	2	0.1	2	2	368	0.3	367	369	11.1	91.9
2022-10-04T05:49	10	2	0.1	2	2	368	0.2	368	369	11.1	92.3
2022-10-04T05:50	10	2	0.1	2	2	369	0.2	368	369	11.1	92.5
2022-10-04T05:51	10	2	0.1	2	2	369	0.2	368	369	11.1	92.5
2022-10-04T05:52	10	2	0.1	2	2	369	0.3	368	369	11.1	92.3
2022-10-04T05:53	10	2	0.1	2	2	369	0.3	368	369	11.2	92.3
2022-10-04T05:54	10	2	0.1	2	2	369	0.2	369	370	11.2	92.3
2022-10-04T05:55	10	2	0.0	2	2	369	0.3	369	370	11.2	92.1
2022-10-04T05:56	10	2	0.1	2	2	369	0.2	369	370	11.2	92.0
2022-10-04T05:57	10	2	0.1	2	2	369	0.3	369	370	11.2	91.9
2022-10-04T05:58	10	2	0.1	2	2	370	0.2	369	370	11.2	91.4
2022-10-04T05:59	10	2	0.1	2	2	370	0.2	369	370	11.3	91.2
2022-10-04T06:00	10	3	0.1	2	3	370	0.2	370	370	11.3	91.1
2022-10-04T06:01	10	3	0.1	3	3	370	0.2	370	370	11.2	91.3
2022-10-04T06:02	10	3	0.1	3	3	370	0.2	369	370	11.2	92.0
2022-10-04T06:03	10	3	0.1	3	4	370	0.3	369	370	11.2	92.3
2022-10-04T06:04	10	3	0.1	3	4	370	0.2	369	370	11.2	92.2
2022-10-04T06:05	10	4	0.1	3	4	370	0.2	369	370	11.2	92.1
2022-10-04T06:06	10	4	0.1	4	4	370	0.2	370	371	11.2	92.4
2022-10-04T06:07	10	4	0.2	4	4	370	0.3	370	371	11.2	92.4
2022-10-04T06:08	10	4	0.1	4	5	370	0.2	370	371	11.2	92.6
2022-10-04T06:09	10	5	0.1	4	5	371	0.3	370	371	11.2	93.0
2022-10-04T06:10	10	5	0.1	5	5	371	0.3	370	371	11.2	93.3
2022-10-04T06:11	10	5	0.1	5	5	371	0.3	370	371	11.1	93.3
2022-10-04T06:12	10	5	0.2	5	6	371	0.2	370	371	11.2	92.6
2022-10-04T06:13	10	6	0.1	6	6	371	0.2	371	371	11.3	91.8
2022-10-04T06:14	10	6	0.1	6	6	371	0.2	371	371	11.3	90.7
2022-10-04T06:15	10	6	0.1	6	7	371	0.2	371	372	11.3	90.7
2022-10-04T06:16	10	7	0.1	6	7	371	0.2	371	372	11.3	90.7
2022-10-04T06:17	10	7	0.1	7	7	371	0.2	371	371	11.3	90.2
2022-10-04T06:18	10	7	0.1	7	7	371	0.2	370	371	11.3	90.2
2022-10-04T06:19	10	7	0.1	7	7	371	0.3	370	372	11.3	90.2
2022-10-04T06:20	10	7	0.2	7	8	371	0.3	371	372	11.4	90.5
2022-10-04T06:21	10	8	0.2	8	8	372	0.3	371	373	11.4	90.7
2022-10-04T06:22	10	8	0.1	8	8	372	0.3	371	373	11.4	90.7
2022-10-04T06:23	10	8	0.1	8	9	372	0.2	372	373	11.4	90.7
2022-10-04T06:24	10	8	0.1	8	9	373	0.2	372	373	11.4	90.9
2022-10-04T06:25	10	9	0.1	9	9	373	0.2	372	373	11.4	91.0
2022-10-04T06:26	10	9	0.1	9	9	373	0.2	372	373	11.4	90.9
2022-10-04T06:27	10	10	0.2	9	10	373	0.2	372	373	11.4	90.9
2022-10-04T06:28	10	10	0.1	10	10	373	0.2	372	373	11.5	91.0
2022-10-04T06:29	10	10	0.1	10	10	373	0.3	373	374	11.5	91.1
2022-10-04T06:30	10	10	0.1	10	10	373	0.2	373	374	11.5	90.8
2022-10-04T06:31	10	10	0.1	10	10	373	0.2	373	374	11.5	90.9
2022-10-04T06:32	10	10	0.2	10	11	374	0.2	373	374	11.6	90.8
2022-10-04T06:33	10	11	0.2	10	11	374	0.2	373	374	11.6	91.0
2022-10-04T06:34	10	11	0.1	11	12	374	0.2	373	374	11.5	90.8
2022-10-04T06:35	10	12	0.2	11	12	374	0.2	374	374	11.5	90.3
2022-10-04T06:36	10	12	0.2	12	12	374	0.2	373	374	11.6	90.1
2022-10-04T06:37	10	13	0.2	12	13	374	0.2	373	374	11.5	90.4
2022-10-04T06:38	10	13	0.1	13	14	374	0.3	374	375	11.6	91.0
2022-10-04T06:39	10	14	0.1	13	14	375	0.2	374	375	11.6	91.1
2022-10-04T06:40	10	14	0.1	14	14	375	0.3	374	375	11.6	90.7
2022-10-04T06:41	10	14	0.1	13	14	375	0.2	375	376	11.6	90.3
2022-10-04T06:42	10	13	0.2	13	14	375	0.3	374	376	11.6	90.3
2022-10-04T06:43	10	13	0.2	12	13	375	0.2	375	375	11.6	90.6
2022-10-04T06:44	10	12	0.4	11	12	375	0.3	374	375	11.6	90.8
2022-10-04T06:45	10	11	0.2	11	12	374	0.4	374	375	11.6	91.3
2022-10-04T06:46	10	13	0.6	12	14	374	0.2	374	375	11.5	91.3
2022-10-04T06:47	10	14	0.2	13	14	375	0.2	374	375	11.6	90.8
2022-10-04T06:48	10	14	0.1	14	15	375	0.3	374	375	11.6	91.1
2022-10-04T06:49	10	14	0.1	14	15	375	0.2	374	375	11.6	91.4
2022-10-04T06:50	10	15	0.1	15	15	375	0.2	374	375	11.6	91.6
2022-10-04T06:51	10	15	0.1	15	15	375	0.3	374	376	11.6	91.6
2022-10-04T06:52	10	15	0.1	15	15	374	0.3	374	375	11.6	91.5
2022-10-04T06:53	10	15	0.1	15	15	374	0.2	374	375	11.6	91.3
2022-10-04T06:54	10	15	0.1	14	15	374	0.3	373	374	11.6	91.3
2022-10-04T06:55	10	15	0.1	14	15	374	0.2	373	374	11.6	90.8
2022-10-04T06:56	10	15	0.1	15	15	373	0.2	373	374	11.5	90.7
2022-10-04T06:57	10	15	0.1	15	15	373	0.2	372	373	11.5	91.0
2022-10-04T06:58	10	14	0.3	14	15	373	0.2	372	373	11.5	91.4
2022-10-04T06:59	10	13	0.5	12	14	372	0.4	372	373	11.6	91.3
2022-10-04T07:00	10	12	0.2	11	12	372	0.3	371	372	11.5	91.0
2022-10-04T07:01	10	12	0.1	12	12	371	0.3	371	372	11.6	91.1
2022-10-04T07:02	10	12	0.1	12	12	371	0.2	371	372	11.5	91.1
2022-10-04T07:03	10	12	0.2	12	13	371	0.3	370	371	11.5	91.2
2022-10-04T07:04	10	14	0.5	13	15	370	0.2	370	371	11.5	91.2
2022-10-04T07:05	10	15	0.3	15	16	371	0.3	370	371	11.6	91.2
2022-10-04T07:06	10	16	0.2	15	16	371	0.3	370	371	11.6	91.3
2022-10-04T07:07	10	16	0.2	15	16	371	0.2	370	371	11.6	91.4
2022-10-04T07:08	10	15	0.3	14	16	371	0.2	370	371	11.6	91.1
2022-10-04T07:09	10	15	0.2	14	15	371	0.2	370	371	11.6	91.2
2022-10-04T07:10	10	15	0.1	15	15	371	0.2	370	371	11.6	91.3
2022-10-04T07:11	10	14	0.2	14	15	370	0.2	370	371	11.6	91.3
2022-10-04T07:12	10	14	0.1	14	14	370	0.2	369	370	11.6	91.4
2022-10-04T07:13	10	14	0.1	13	14	369	0.2	369	370	11.6	91.1
2022-10-04T07:14	10	14	0.1	13	14	369	0.2	369	370	11.6	90.9
2022-10-04T07:15	10	14	0.1	14	14	369	0.2	368	369	11.6	91.0
2022-10-04T07:16	10	14	0.1	14	14	368	0.2	368	369	11.6	91.2
2022-10-04T07:17	10	14	0.1	13	14	368	0.2	368	369	11.6	91.0
2022-10-04T07:18	10	14	0.1	13	14	368	0.2	368	368	11.6	90.7
2022-10-04T07:19	10	14	0.1	13	14	368	0.2	368	368	11.6	90.5
2022-10-04T07:20	10	14	0.1	14	14	368	0.2	368	368	11.6	90.4
2022-10-04T07:21	10	14	0.1	14	14	368	0.2	367	368	11.6	90.4
2022-10-04T07:22	10	14	0.1	14	14	368	0.2	367	368	11.6	90.3
2022-10-04T07:23	10	14	0.1	14	14	368	0.2	367	368	11.6	90.2
2022-10-04T07:24	10	14	0.2	14	14	368	0.2	367	368	11.6	90.1
2022-10-04T07:25	10	14	0.1	14	14	367	0.2	367	368	11.6	90.0
2022-10-04T07:26	10	14	0.1	14	15	368	0.2	367	368	11.6	89.9
2022-10-04T07:27	10	14	0.2	13	14	368	0.2	367	368	11.6	89.9
2022-10-04T07:28	10	14	0.1	13	14	367	0.2	367	368	11.6	89.9
2022-10-04T07:29	10	14	0.1	13	14	367	0.2	367	368	11.6	89.9
2022-10-04T07:30	10	14	0.2	13	14	367	0.3	367	368	11.6	90.1
2022-10-04T07:31	10	13	0.1	13	13	367	0.2	367	368	11.5	90.7
2022-10-04T07:32	10	13	0.1	13	13	367	0.3	366	368	11.5	91.1
2022-10-04T07:33	10	13	0.1	13	13	367	0.3	367	368	11.5	91.7
2022-10-04T07:34	10	13	0.2	13	13	367	0.3	366	367	11.4	91.9
2022-10-04T07:35	10	14	0.1	13	14	367	0.2	366	367	11.4	91.9
2022-10-04T07:36	10	14	0.3	14	15	367	0.3	366	367	11.4	91.9
2022-10-04T07:37	10	16	0.3	15	16	367	0.2	367	367	11.4	91.8
2022-10-04T07:38	10	17	0.4	16	17	367	0.2	367	368	11.5	91.5
2022-10-04T07:39	10	17	0.2	17	18	368	0.2	367	369	11.5	91.2
2022-10-04T07:40	10	19	1.2	17	21	368	0.3	367	368	11.5	91.3
2022-10-04T07:41	10	30	8.3	22	52	369	0.9	367	371	11.5	91.5
2022-10-04T07:42	10	57	2.3	53	63	373	1.3	370	375	11.5	91.4
2022-10-04T07:43	10	68	2.6	63	73	376	1.0	373	377	11.6	91.3
2022-10-04T07:44	10	71	1.4	69	73	378	0.5	377	379	11.6	91.1
2022-10-04T07:45	10	69	0.6	68	70	378	0.3	377	379	11.7	91.1
2022-10-04T07:46	10	69	0.7	68	70	379	0.2	379	380	11.8	91.0
2022-10-04T07:47	10	69	1.8	64	71	379	0.2	379	380	11.8	90.7
2022-10-04T07:48	10	66	1.6	63	68	380	0.3	379	380	11.8	90.2
2022-10-04T07:49	10	75	5.0	68	84	381	0.5	380	382	12.0	91.0
2022-10-04T07:50	10	79	5.4	71	85	382	0.3	381	382	11.9	89.5
2022-10-04T07:51	10	90	5.1	75	94	383	0.8	381	384	12.0	88.9
2022-10-04T07:52	10	81	4.1	74	89	383	0.3	383	384	12.1	88.7
2022-10-04T07:53	10	69	2.7	66	74	382	0.6	381	384	12.1	89.1
2022-10-04T07:54	10	75	3.3	68	81	382	0.4	381	383	12.1	89.0
2022-10-04T07:55	10	81	2.1	78	84	383	0.2	383	384	12.0	89.2
2022-10-04T07:56	10	82	1.5	79	85	384	0.3	383	384	12.1	89.3
2022-10-04T07:57	10	80	1.1	77	81	384	0.6	383	385	12.2	88.8
2022-10-04T07:58	10	78	2.3	74	81	384	0.4	383	385	12.2	88.3
2022-10-04T07:59	10	87	2.9	80	90	385	0.7	384	386	12.1	88.2
2022-10-04T08:00	10	93	1.6	90	96	387	0.3	386	387	12.4	89.2
2022-10-04T08:01	10	97	0.7	96	98	387	0.3	387	388	12.4	87.9
2022-10-04T08:02	10	102	2.2	98	106	388	0.6	387	390	12.4	87.1
2022-10-04T08:03	10	108	2.3	105	112	390	0.5	389	390	12.3	84.9
2022-10-04T08:04	10	114	1.2	112	116	391	0.5	390	392	12.4	85.2
2022-10-04T08:05	10	109	4.4	101	113	393	0.5	391	393	12.5	85.6
2022-10-04T08:06	10	116	5.9	101	121	394	0.7	393	395	12.6	85.3
2022-10-04T08:07	10	113	7.7	98	119	394	1.0	392	396	12.7	86.1
2022-10-04T08:08	10	84	10.0	69	98	392	1.2	390	394	12.6	84.7
2022-10-04T08:09	10	75	5.7	68	87	391	0.3	390	391	12.8	85.1
2022-10-04T08:10	10	82	3.1	78	88	392	0.4	391	393	12.7	85.2
2022-10-04T08:11	10	94	7.9	80	106	393	0.8	391	394	12.6	85.7
2022-10-04T08:12	10	72	9.6	63	93	393	1.3	391	395	12.7	86.0
2022-10-04T08:13	10	69	5.2	63	80	391	0.4	390	392	12.6	86.0
2022-10-04T08:14	10	85	10.3	70	97	392	1.0	390	394	12.6	85.6
2022-10-04T08:15	10	78	4.3	72	90	392	1.7	389	394	12.6	86.0
2022-10-04T08:16	10	82	3.6	76	88	391	0.7	389	392	12.7	86.5
2022-10-04T08:17	10	90	4.1	82	93	392	0.5	390	393	12.6	85.7
2022-10-04T08:18	10	93	0.9	91	94	392	0.8	390	393	12.6	85.3
2022-10-04T08:19	10	79	9.6	64	92	391	0.7	390	392	12.6	85.1
2022-10-04T08:20	10	76	3.8	66	81	391	0.6	390	392	12.6	86.1
2022-10-04T08:21	10	64	5.2	57	73	389	1.7	386	391	12.4	85.3
2022-10-04T08:22	10	64	7.7	55	75	388	0.6	387	389	12.5	85.4
2022-10-04T08:23	10	78	4.3	70	84	389	0.6	388	390	12.5	85.4
2022-10-04T08:24	10	65	12.6	48	84	388	1.2	386	390	12.6	85.2
2022-10-04T08:25	10	64	9.5	51	77	388	0.6	386	389	12.6	85.0
2022-10-04T08:26	10	70	4.2	59	77	388	0.7	386	389	12.6	85.4
2022-10-04T08:27	10	76	2.2	70	79	389	0.4	388	390	12.7	84.9
2022-10-04T08:28	10	54	8.6	43	69	389	1.8	386	391	12.7	85.0
2022-10-04T08:29	10	78	7.6	62	89	388	1.1	386	390	12.5	85.1
2022-10-04T08:30	10	89	1.3	85	91	390	0.3	389	391	12.5	84.9
2022-10-04T08:31	10	80	2.0	78	85	390	0.3	390	391	12.5	84.9
2022-10-04T08:32	10	94	6.6	81	105	391	1.3	389	393	12.6	84.4
2022-10-04T08:33	10	108	1.0	106	109	394	0.6	392	395	12.6	84.4
2022-10-04T08:34	10	105	1.1	103	106	395	0.5	394	396	12.8	84.2
2022-10-04T08:35	10	103	0.7	101	104	395	0.4	394	396	12.8	83.8
2022-10-04T08:36	10	99	2.4	94	102	395	0.2	395	396	12.8	83.9
2022-10-04T08:37	10	87	1.6	85	93	395	0.9	394	397	13.0	83.9
2022-10-04T08:38	10	92	3.2	88	97	394	0.4	394	395	12.9	83.2
2022-10-04T08:39	10	96	1.7	92	98	395	0.2	395	396	13.0	83.4
2022-10-04T08:40	10	87	3.7	81	92	395	0.5	394	396	13.1	83.6
2022-10-04T08:41	10	99	6.3	90	107	396	0.6	395	397	13.1	83.5
2022-10-04T08:42	10	108	2.0	105	111	398	0.4	397	398	13.1	82.6
2022-10-04T08:43	10	106	2.0	104	111	399	0.8	398	400	13.2	83.1
2022-10-04T08:44	10	105	2.8	100	108	399	0.4	398	399	13.1	83.1
2022-10-04T08:45	10	101	2.9	98	107	398	0.5	397	399	13.1	82.8
2022-10-04T08:46	10	102	2.5	98	106	397	0.3	397	398	13.1	82.5
2022-10-04T08:47	10	107	2.4	101	110	398	0.6	397	399	13.1	82.3
2022-10-04T08:48	10	107	0.8	106	109	398	0.3	398	399	13.1	81.6
2022-10-04T08:49	10	99	6.6	90	109	398	0.7	396	399	13.2	81.3
2022-10-04T08:50	10	91	3.2	86	95	397	0.7	395	398	13.4	82.2
2022-10-04T08:51	10	82	3.4	77	87	396	0.4	396	397	13.7	83.4
2022-10-04T08:52	10	92	4.6	84	98	396	0.5	395	397	13.3	81.6
2022-10-04T08:53	10	95	2.2	90	98	396	0.7	395	397	13.2	81.8
2022-10-04T08:54	10	94	2.3	91	98	396	0.3	395	396	13.2	82.0
2022-10-04T08:55	10	96	1.2	94	98	396	0.3	396	397	13.3	81.6
2022-10-04T08:56	10	99	2.2	94	102	397	0.4	396	398	13.3	81.4
2022-10-04T08:57	10	100	2.0	98	105	398	0.3	397	399	13.4	81.0
2022-10-04T08:58	10	103	3.0	99	107	399	0.3	398	399	13.4	80.8
2022-10-04T08:59	10	98	0.8	97	100	399	0.2	398	399	13.5	81.4
2022-10-04T09:00	10	94	2.9	90	99	399	0.6	398	400	13.4	81.8
2022-10-04T09:01	10	108	6.5	96	117	399	0.6	398	400	13.4	81.1
2022-10-04T09:02	10	111	5.4	103	118	400	0.6	399	401	13.4	80.4
2022-10-04T09:03	10	104	2.2	102	108	400	0.3	399	401	13.4	80.4
2022-10-04T09:04	10	107	0.7	105	108	401	0.5	400	402	13.8	81.8
2022-10-04T09:05	10	109	2.5	105	112	401	0.5	400	402	13.9	81.1
2022-10-04T09:06	10	114	2.9	110	119	402	0.4	401	403	13.8	80.9
2022-10-04T09:07	10	112	2.7	108	119	402	0.7	401	403	13.7	79.7
2022-10-04T09:08	10	117	2.3	113	120	402	0.7	401	404	13.7	80.7
2022-10-04T09:09	10	119	3.7	113	124	402	0.8	401	404	13.4	79.3
2022-10-04T09:10	10	121	4.6	114	126	403	0.5	402	404	13.5	79.8
2022-10-04T09:11	10	119	0.9	117	121	404	0.8	403	405	13.5	79.9
2022-10-04T09:12	10	118	2.7	113	121	405	1.0	403	406	13.6	80.0
2022-10-04T09:13	10	115	1.0	114	117	404	0.5	403	405	13.6	79.1
2022-10-04T09:14	10	114	3.4	109	120	403	1.0	402	405	13.7	79.5
2022-10-04T09:15	10	119	1.9	115	121	405	0.6	403	406	13.9	80.0
2022-10-04T09:16	10	113	2.0	111	117	404	0.4	402	404	13.9	78.6
2022-10-04T09:17	10	118	1.9	114	122	404	0.6	403	405	13.9	78.1
2022-10-04T09:18	10	123	1.2	121	125	405	0.4	405	406	14.1	79.0
2022-10-04T09:19	10	122	1.3	120	123	406	0.3	405	406	14.2	79.3
2022-10-04T09:20	10	120	1.5	118	123	406	0.2	405	406	13.9	78.4
2022-10-04T09:21	10	121	1.0	119	123	406	0.3	405	407	13.9	79.1
2022-10-04T09:22	10	126	1.7	121	127	407	0.5	406	408	14.1	79.6
2022-10-04T09:23	10	126	0.6	125	127	407	0.5	406	408	14.2	78.8
2022-10-04T09:24	10	124	1.5	123	128	407	0.3	407	408	14.2	78.0
2022-10-04T09:25	10	128	1.1	125	130	408	0.5	407	409	14.4	77.8
2022-10-04T09:26	10	121	5.9	113	129	408	0.6	407	410	14.3	78.0
2022-10-04T09:27	10	123	1.2	120	125	408	0.3	407	408	14.2	77.8
2022-10-04T09:28	10	122	2.3	117	125	408	0.2	408	409	14.4	77.2
2022-10-04T09:29	10	123	1.6	118	124	408	0.2	408	409	14.4	77.7
2022-10-04T09:30	10	119	2.9	112	123	408	0.7	407	409	14.4	78.2
2022-10-04T09:31	10	111	1.1	110	113	407	0.3	407	408	14.4	77.3
2022-10-04T09:32	10	112	2.4	108	116	408	0.3	407	409	14.5	77.4
2022-10-04T09:33	10	113	3.2	108	117	408	0.3	407	409	14.6	78.6
2022-10-04T09:34	10	116	1.5	114	119	408	0.4	407	409	14.5	77.9
2022-10-04T09:35	10	118	2.0	115	122	409	0.4	408	410	14.6	79.5
2022-10-04T09:36	10	126	2.1	123	129	410	0.3	409	411	14.6	78.2
2022-10-04T09:37	10	123	4.4	116	129	410	0.4	410	411	14.7	77.5
2022-10-04T09:38	10	125	1.9	121	128	411	0.5	410	412	15.0	77.7
2022-10-04T09:39	10	127	1.7	125	131	412	0.4	411	413	15.1	77.3
2022-10-04T09:40	10	134	1.1	131	136	413	0.4	412	414	15.1	78.4
2022-10-04T09:41	10	132	3.0	127	136	414	0.9	411	415	14.9	78.1
2022-10-04T09:42	10	133	4.4	127	139	413	1.0	411	414	14.7	75.9
2022-10-04T09:43	10	136	2.2	131	139	413	0.5	412	414	14.7	76.3
2022-10-04T09:44	10	118	6.6	109	131	411	1.2	409	413	14.7	76.0
2022-10-04T09:45	10	117	3.6	109	121	410	0.3	409	411	14.7	75.5
2022-10-04T09:46	10	111	1.6	109	114	410	0.4	409	411	14.8	74.9
2022-10-04T09:47	10	114	3.5	109	121	411	0.5	409	412	14.9	76.8
2022-10-04T09:48	10	115	11.6	92	126	412	0.8	410	413	14.8	76.5
2022-10-04T09:49	10	127	11.5	94	137	412	1.3	410	414	14.7	76.0
2022-10-04T09:50	10	119	17.4	91	138	413	1.7	410	416	14.9	76.4
2022-10-04T09:51	10	103	25.3	63	129	411	1.9	406	413	14.6	74.0
2022-10-04T09:52	10	63	8.4	51	73	404	2.6	401	410	14.7	75.3
2022-10-04T09:53	10	101	26.6	63	130	405	3.2	401	409	14.7	74.6
2022-10-04T09:54	10	128	8.3	109	135	410	1.8	407	413	14.9	74.3
2022-10-04T09:55	10	127	2.4	124	131	412	0.7	410	413	14.9	73.4
2022-10-04T09:56	10	129	2.8	124	133	413	0.6	412	414	14.9	73.7
2022-10-04T09:57	10	114	24.8	53	132	413	1.3	409	414	14.9	74.1
2022-10-04T09:58	10	67	12.1	50	87	406	1.7	404	411	14.7	73.7
2022-10-04T09:59	10	90	12.3	69	105	405	0.3	405	406	14.6	73.7
2022-10-04T10:00	10	106	6.4	97	115	407	0.5	406	408	14.7	72.9
2022-10-04T10:01	10	111	6.1	97	121	407	1.0	405	409	14.6	72.1
2022-10-04T10:02	10	115	9.8	85	121	408	1.0	406	410	14.6	71.9
2022-10-04T10:03	10	92	13.5	57	112	407	0.5	406	408	14.6	71.9
2022-10-04T10:04	10	101	23.1	54	123	406	2.4	403	410	14.6	71.9
2022-10-04T10:05	10	55	18.6	43	108	405	3.2	400	410	14.7	72.6
2022-10-04T10:06	10	88	39.4	43	134	403	3.3	399	410	14.9	73.0
2022-10-04T10:07	10	130	1.4	127	133	410	1.5	407	412	15.0	71.5
2022-10-04T10:08	10	128	0.9	126	130	412	0.8	411	413	15.2	70.9
2022-10-04T10:09	10	131	1.0	130	133	414	0.6	413	415	15.4	72.3
2022-10-04T10:10	10	131	0.3	130	132	415	0.5	414	416	15.4	72.0
2022-10-04T10:11	10	133	1.3	131	135	414	0.3	414	415	15.2	70.3
2022-10-04T10:12	10	138	1.2	135	140	415	0.4	414	416	15.3	70.7
2022-10-04T10:13	10	140	0.5	139	141	416	0.4	415	417	15.3	70.0
2022-10-04T10:14	10	135	5.4	121	140	416	1.0	414	417	15.4	70.0
2022-10-04T10:15	10	135	1.3	133	137	415	0.2	415	416	15.1	69.8
2022-10-04T10:16	10	140	2.1	136	143	415	0.6	414	417	15.3	71.4
2022-10-04T10:17	10	140	1.7	137	142	416	0.3	416	417	15.3	70.6
2022-10-04T10:18	10	133	2.7	128	137	416	0.2	416	417	15.4	70.4
2022-10-04T10:19	10	130	0.9	129	132	416	1.1	413	418	15.2	70.9
2022-10-04T10:20	10	132	1.2	130	134	414	0.6	413	415	15.2	70.9
2022-10-04T10:21	10	129	2.1	122	132	413	0.3	412	413	15.1	70.9
2022-10-04T10:22	10	126	2.0	122	129	413	0.4	412	413	15.1	70.7
2022-10-04T10:23	10	123	1.8	120	126	411	0.7	409	412	15.1	69.3
2022-10-04T10:24	10	119	0.8	117	120	411	1.2	409	413	15.1	69.9
2022-10-04T10:25	10	116	3.3	111	121	413	0.7	412	414	15.2	70.8
2022-10-04T10:26	10	118	2.3	114	121	413	0.2	413	414	15.3	71.3
2022-10-04T10:27	10	112	0.5	112	114	412	1.1	411	414	15.2	71.1
2022-10-04T10:28	10	115	0.6	114	116	412	0.6	410	413	15.1	71.4
2022-10-04T10:29	10	120	2.6	116	124	413	0.9	412	415	15.2	71.5
2022-10-04T10:30	10	118	4.5	113	124	414	1.0	412	416	15.5	73.4
2022-10-04T10:31	10	113	7.9	98	123	412	0.6	411	413	15.5	71.8
2022-10-04T10:32	10	124	0.8	123	125	412	0.4	411	413	15.3	71.2
2022-10-04T10:33	10	124	1.3	122	125	412	1.4	410	414	15.3	70.0
2022-10-04T10:34	10	123	1.1	121	125	415	0.5	413	416	15.3	70.2
2022-10-04T10:35	10	128	3.5	122	133	415	0.3	415	416	15.4	70.8
2022-10-04T10:36	10	131	1.3	129	134	416	0.4	415	417	15.6	72.5
2022-10-04T10:37	10	129	1.2	126	130	414	1.3	412	417	15.4	70.9
2022-10-04T10:38	10	131	0.7	129	132	414	0.7	412	415	15.2	70.0
2022-10-04T10:39	10	126	3.8	120	131	415	0.3	414	416	15.3	70.7
2022-10-04T10:40	10	117	1.7	115	121	413	0.7	412	415	15.5	72.0
2022-10-04T10:41	10	116	0.7	114	117	413	1.0	412	415	15.5	71.7
2022-10-04T10:42	10	118	1.5	116	120	414	0.7	413	415	15.6	71.3
2022-10-04T10:43	10	120	1.2	119	122	413	0.7	412	415	15.2	69.4
2022-10-04T10:44	10	122	0.6	120	122	415	0.7	413	416	15.4	70.8
2022-10-04T10:45	10	120	0.7	119	122	414	0.4	414	415	15.3	70.1
2022-10-04T10:46	10	122	1.6	119	124	414	0.4	414	415	15.6	70.2
2022-10-04T10:47	10	122	1.1	120	124	414	0.4	413	415	15.5	69.7
2022-10-04T10:48	10	124	0.9	122	125	414	0.4	413	415	15.6	70.3
2022-10-04T10:49	10	124	1.0	122	126	415	1.0	413	417	15.5	69.8
2022-10-04T10:50	10	126	1.2	125	129	416	0.5	415	417	15.5	70.0
2022-10-04T10:51	10	129	1.3	126	131	418	0.9	416	420	15.8	71.2
2022-10-04T10:52	10	128	2.1	124	131	418	1.5	415	420	15.7	70.7
2022-10-04T10:53	10	129	1.2	126	131	416	0.6	415	417	15.6	70.6
2022-10-04T10:54	10	127	1.8	122	130	416	1.2	414	418	15.5	71.0
2022-10-04T10:55	10	125	3.5	119	129	414	0.5	413	415	15.4	69.8
2022-10-04T10:56	10	122	1.5	121	126	415	1.0	413	417	15.4	70.2
2022-10-04T10:57	10	125	3.4	121	132	417	1.1	415	419	15.6	70.9
2022-10-04T10:58	10	134	0.8	132	136	419	0.7	417	420	15.6	70.4
2022-10-04T10:59	10	133	2.5	129	136	420	0.3	419	420	15.8	71.3
2022-10-04T11:00	10	129	2.1	126	132	419	0.4	418	420	15.8	70.5
2022-10-04T11:01	10	130	2.3	127	134	419	0.3	419	420	16.0	71.3
2022-10-04T11:02	10	132	2.7	127	137	421	0.4	420	422	16.1	71.2
2022-10-04T11:03	10	131	1.8	127	134	421	0.5	420	422	16.2	72.2
2022-10-04T11:04	10	124	3.7	118	131	420	1.1	418	423	16.2	71.2
2022-10-04T11:05	10	137	2.4	131	139	420	0.4	419	421	16.1	70.9
2022-10-04T11:06	10	137	2.5	133	141	420	0.7	418	421	15.8	69.4
2022-10-04T11:07	10	123	5.6	114	133	418	1.4	416	420	15.9	69.4
2022-10-04T11:08	10	126	1.7	123	129	417	0.8	416	418	15.9	68.9
2022-10-04T11:09	10	122	5.0	110	128	416	0.4	415	416	15.8	69.0
2022-10-04T11:10	10	123	11.0	110	142	417	1.3	414	419	15.9	69.8
2022-10-04T11:11	10	145	3.2	142	152	419	0.4	418	420	15.9	69.3
2022-10-04T11:12	10	156	2.2	152	159	421	1.9	419	425	16.0	69.2
2022-10-04T11:13	10	145	4.1	140	153	423	1.3	421	425	16.2	70.7
2022-10-04T11:14	10	132	4.8	126	141	420	0.8	419	422	16.1	69.9
2022-10-04T11:15	10	142	2.5	134	144	421	0.4	420	421	16.0	69.5
2022-10-04T11:16	10	136	4.5	131	144	420	0.6	419	421	16.0	68.7
2022-10-04T11:17	10	139	2.7	133	144	421	0.8	420	422	15.8	69.3
2022-10-04T11:18	10	141	4.0	131	145	423	0.4	421	423	15.9	70.8
2022-10-04T11:19	10	123	5.1	115	131	421	1.4	419	423	16.1	70.5
2022-10-04T11:20	10	131	4.2	118	136	421	1.0	419	423	16.6	72.0
2022-10-04T11:21	10	131	1.5	129	134	422	0.5	421	423	16.4	69.2
2022-10-04T11:22	10	128	1.3	126	130	420	1.3	419	423	16.2	70.3
2022-10-04T11:23	10	130	2.7	127	134	421	0.6	420	422	16.5	72.8
2022-10-04T11:24	10	134	2.4	131	138	420	0.6	419	421	16.2	70.4
2022-10-04T11:25	10	128	2.4	124	133	421	0.4	420	421	16.4	71.4
2022-10-04T11:26	10	132	2.0	126	134	421	0.9	420	423	16.9	73.5
2022-10-04T11:27	10	128	3.4	124	135	419	0.4	418	420	16.4	70.3
2022-10-04T11:28	10	134	3.5	128	139	419	0.5	418	420	16.0	69.0
2022-10-04T11:29	10	130	4.1	124	137	421	0.8	419	422	16.0	70.9
2022-10-04T11:30	10	133	2.5	128	137	421	0.3	420	421	16.0	70.7
2022-10-04T11:31	10	131	4.9	125	142	420	0.6	419	422	16.3	71.1
2022-10-04T11:32	10	140	1.3	138	143	422	1.1	420	424	16.3	69.5
2022-10-04T11:33	10	145	1.1	142	147	424	0.7	422	425	16.3	70.3
2022-10-04T11:34	10	143	2.4	139	147	424	0.4	423	425	16.3	70.7
2022-10-04T11:35	10	136	6.5	123	147	424	0.5	422	425	16.1	69.9
2022-10-04T11:36	10	146	4.8	140	154	424	0.5	423	425	16.3	70.5
2022-10-04T11:37	10	137	10.6	113	148	422	0.8	421	424	16.3	69.0
2022-10-04T11:38	10	147	1.2	145	148	420	0.6	419	421	16.1	68.3
2022-10-04T11:39	10	148	0.3	147	148	421	0.8	420	422	16.2	68.8
2022-10-04T11:40	10	147	0.1	147	147	422	0.7	421	423	16.1	68.7
2022-10-04T11:41	10	147	0.2	146	147	424	1.1	421	426	16.2	69.1
2022-10-04T11:42	10	147	0.2	146	147	425	0.8	423	426	16.4	70.1
2022-10-04T11:43	10	147	0.1	147	147	424	0.5	424	426	16.3	70.3
2022-10-04T11:44	10	147	0.2	146	147	423	0.5	422	424	16.3	70.9
2022-10-04T11:45	10	147	0.9	143	147	423	0.3	422	424	16.3	70.9
2022-10-04T11:46	10	143	1.3	141	144	423	0.4	422	423	16.5	71.5
2022-10-04T11:47	10	143	0.7	141	144	424	0.5	423	425	16.7	71.3
2022-10-04T11:48	10	141	0.6	140	142	422	1.0	421	424	16.4	70.1
2022-10-04T11:49	10	140	0.8	138	141	420	0.7	419	422	16.3	70.3
2022-10-04T11:50	10	139	1.5	137	141	420	0.3	419	420	16.3	70.3
2022-10-04T11:51	10	140	0.8	139	141	420	0.9	418	421	16.3	70.1
2022-10-04T11:52	10	141	0.3	140	141	418	0.6	417	419	16.1	69.3
2022-10-04T11:53	10	141	0.6	140	142	421	1.2	419	423	16.1	70.0
2022-10-04T11:54	10	140	0.5	139	141	422	0.6	421	423	16.2	70.8
2022-10-04T11:55	10	138	3.0	134	142	422	0.4	422	423	16.5	71.7
2022-10-04T11:56	10	143	0.6	142	144	422	0.5	421	423	16.4	69.9
2022-10-04T11:57	10	143	0.1	143	144	422	0.6	421	423	16.2	69.4
2022-10-04T11:58	10	143	0.1	143	143	422	0.7	421	423	16.5	70.4
2022-10-04T11:59	10	143	0.1	143	143	423	0.7	422	424	16.4	69.3
2022-10-04T12:00	10	143	0.1	143	143	422	1.1	420	424	16.6	69.9
2022-10-04T12:01	10	143	0.1	143	143	420	0.3	419	421	16.2	69.2
2022-10-04T12:02	10	143	1.4	137	143	421	1.2	419	424	16.1	69.7
2022-10-04T12:03	10	139	2.3	135	142	423	0.4	422	424	16.3	70.6
2022-10-04T12:04	10	139	2.7	136	144	422	0.7	421	424	16.5	70.2
2022-10-04T12:05	10	144	0.2	143	144	423	0.8	422	424	16.5	70.2
2022-10-04T12:06	10	143	0.1	143	144	424	0.3	423	425	16.5	69.7
2022-10-04T12:07	10	143	0.1	143	143	424	0.4	423	425	16.4	68.8
2022-10-04T12:08	10	143	0.1	143	144	426	1.2	423	428	16.6	70.1
2022-10-04T12:09	10	142	3.9	127	144	425	0.6	424	426	16.7	69.2
2022-10-04T12:10	10	143	3.4	128	144	426	0.8	425	427	16.6	69.4
2022-10-04T12:11	10	141	4.7	129	144	426	0.7	424	427	16.9	70.5
2022-10-04T12:12	10	143	1.2	137	143	424	0.5	423	425	16.8	68.7
2022-10-04T12:13	10	142	0.4	142	143	423	0.4	422	424	16.5	68.5
2022-10-04T12:14	10	142	0.2	141	142	424	0.6	422	425	16.7	69.4
2022-10-04T12:15	10	141	0.2	141	142	421	0.6	420	422	16.7	68.8
2022-10-04T12:16	10	141	0.3	140	141	420	0.9	418	421	16.4	68.7
2022-10-04T12:17	10	140	0.1	140	140	418	0.5	418	420	16.5	68.8
2022-10-04T12:18	10	140	0.1	140	140	420	0.3	419	420	16.7	70.2
2022-10-04T12:19	10	140	0.1	139	140	420	0.9	418	421	16.5	69.3
2022-10-04T12:20	10	140	0.1	139	140	422	0.9	421	424	16.6	70.0
2022-10-04T12:21	10	140	0.1	140	140	423	0.5	423	424	16.7	69.3
2022-10-04T12:22	10	140	0.1	140	140	423	0.5	422	424	16.5	69.4
2022-10-04T12:23	10	140	0.1	140	140	423	1.0	421	425	16.8	69.9
2022-10-04T12:24	10	140	0.1	140	140	422	0.3	421	422	16.8	68.8
2022-10-04T12:25	10	140	0.2	139	140	423	0.9	421	424	16.8	69.1
2022-10-04T12:26	10	140	0.1	139	140	422	0.7	421	423	16.6	67.9
2022-10-04T12:27	10	139	0.1	139	140	422	1.2	420	424	16.6	68.9
2022-10-04T12:28	10	139	0.1	139	140	423	1.0	422	425	16.6	69.1
2022-10-04T12:29	10	140	0.1	139	140	425	0.5	424	426	16.9	69.8
2022-10-04T12:30	10	140	0.1	140	140	424	0.6	422	425	16.7	68.8
2022-10-04T12:31	10	140	0.1	140	140	423	0.3	422	424	16.6	69.0
2022-10-04T12:32	10	140	0.1	140	140	424	0.6	422	425	16.7	69.3
2022-10-04T12:33	10	140	0.1	140	140	424	0.5	424	426	16.8	69.0
2022-10-04T12:34	10	140	0.1	140	140	426	0.8	425	428	17.2	69.9
2022-10-04T12:35	10	140	0.1	140	140	425	0.9	424	427	17.0	68.6
2022-10-04T12:36	10	140	0.1	139	140	425	1.4	423	427	17.0	68.9
2022-10-04T12:37	10	139	0.2	139	139	424	0.3	424	425	16.6	67.3
2022-10-04T12:38	10	138	0.2	138	139	424	0.3	423	425	16.8	68.3
2022-10-04T12:39	10	138	0.2	137	138	424	0.8	423	425	16.8	68.3
2022-10-04T12:40	10	137	0.1	137	138	425	0.6	424	426	16.8	68.9
2022-10-04T12:41	10	137	0.1	137	137	425	0.5	424	426	16.9	68.5
2022-10-04T12:42	10	137	0.1	137	137	426	0.7	425	427	17.0	69.1
2022-10-04T12:43	10	137	0.1	137	137	423	1.1	421	425	17.1	68.8
2022-10-04T12:44	10	137	0.1	136	137	423	0.5	421	423	17.1	68.0
2022-10-04T12:45	10	136	0.1	136	136	423	0.6	422	424	17.0	68.1
2022-10-04T12:46	10	136	0.2	135	136	422	0.8	420	423	17.0	67.4
2022-10-04T12:47	10	135	0.2	135	135	421	1.0	420	422	17.2	68.3
2022-10-04T12:48	10	134	1.4	130	135	422	0.4	422	423	17.3	68.2
2022-10-04T12:49	10	134	0.5	131	135	423	0.3	423	424	17.1	67.5
2022-10-04T12:50	10	134	0.2	134	135	425	0.4	424	426	17.2	68.5
2022-10-04T12:51	10	134	0.1	134	135	424	0.6	422	425	17.3	69.2
2022-10-04T12:52	10	134	0.3	134	135	423	0.7	422	425	16.9	67.4
2022-10-04T12:53	10	134	0.1	134	134	424	0.7	423	426	17.2	69.1
2022-10-04T12:54	10	134	0.2	134	135	426	1.0	424	428	17.5	69.9
2022-10-04T12:55	10	134	0.2	133	134	423	0.4	423	424	17.0	67.5
2022-10-04T12:56	10	134	0.2	133	134	424	0.6	423	425	16.9	67.9
2022-10-04T12:57	10	134	0.2	133	134	426	0.8	424	427	17.1	68.7
2022-10-04T12:58	10	134	0.2	134	135	426	0.4	425	427	17.4	69.0
2022-10-04T12:59	10	134	0.2	133	134	425	0.9	424	427	17.4	68.6
2022-10-04T13:00	10	134	0.2	133	134	423	0.6	422	425	17.2	68.1
2022-10-04T13:01	10	133	0.2	132	134	423	0.5	422	424	17.3	68.4
2022-10-04T13:02	10	133	0.2	132	133	423	0.3	422	424	17.2	68.1
2022-10-04T13:03	10	132	0.2	132	133	424	0.6	422	425	17.3	68.4
2022-10-04T13:04	10	132	0.2	131	132	425	0.7	423	426	17.4	68.5
2022-10-04T13:05	10	132	0.3	131	132	424	0.3	424	425	17.4	68.2
2022-10-04T13:06	10	131	0.1	131	131	423	0.5	422	424	17.4	67.9
2022-10-04T13:07	10	131	0.1	131	131	424	0.5	423	425	17.4	67.8
2022-10-04T13:08	10	131	0.1	131	131	425	0.6	424	426	17.4	68.2
2022-10-04T13:09	10	131	0.1	131	131	424	1.0	423	426	17.3	67.3
2022-10-04T13:10	10	131	0.1	131	131	424	0.8	423	425	17.1	67.1
2022-10-04T13:11	10	131	0.1	131	131	426	0.8	425	427	17.2	67.4
2022-10-04T13:12	10	131	0.1	131	131	426	0.3	425	427	17.4	67.8
2022-10-04T13:13	10	131	0.1	131	132	428	0.9	427	429	17.6	68.4
2022-10-04T13:14	10	132	0.1	132	132	428	0.7	427	430	17.9	68.7
2022-10-04T13:15	10	131	0.3	131	132	426	0.8	425	428	17.8	68.3
2022-10-04T13:16	10	131	0.1	131	131	424	0.8	423	426	17.5	66.9
2022-10-04T13:17	10	130	0.4	129	131	424	0.5	422	424	17.5	67.8
2022-10-04T13:18	10	130	0.2	129	130	425	0.5	424	425	17.7	67.6
2022-10-04T13:19	10	128	0.4	128	129	425	0.4	424	426	17.6	67.5
2022-10-04T13:20	10	127	0.5	127	128	424	1.3	422	426	17.5	67.1
2022-10-04T13:21	10	126	0.3	126	127	424	0.5	423	425	17.5	66.6
2022-10-04T13:22	10	126	0.7	125	127	425	0.4	424	426	17.7	68.0
2022-10-04T13:23	10	127	0.6	126	128	426	0.8	424	427	17.8	68.2
2022-10-04T13:24	10	125	0.2	125	126	426	0.9	424	427	18.0	68.4
2022-10-04T13:25	10	124	0.3	124	125	425	0.7	424	426	17.9	68.3
2022-10-04T13:26	10	125	0.5	124	126	422	1.0	420	424	17.6	67.1
2022-10-04T13:27	10	124	0.2	124	124	421	0.6	420	422	17.6	67.6
2022-10-04T13:28	10	122	3.7	113	125	422	0.6	420	423	17.5	67.3
2022-10-04T13:29	10	122	0.7	120	123	420	0.9	418	421	17.5	67.1
2022-10-04T13:30	10	120	0.3	120	121	419	0.4	419	420	17.3	66.6
2022-10-04T13:31	10	119	0.4	119	120	420	0.5	419	422	17.3	67.0
2022-10-04T13:32	10	119	0.3	118	119	422	0.8	421	424	17.3	67.0
2022-10-04T13:33	10	119	0.2	119	120	423	0.6	421	424	17.5	67.6
2022-10-04T13:34	10	120	0.2	120	121	422	0.3	421	423	17.4	67.4
2022-10-04T13:35	10	121	0.2	120	121	422	0.8	420	423	17.4	67.5
2022-10-04T13:36	10	120	0.3	119	121	422	0.2	421	422	17.3	67.1
2022-10-04T13:37	10	119	0.2	119	120	421	0.3	420	422	17.3	67.0
2022-10-04T13:38	10	119	0.3	119	120	422	0.4	421	423	17.4	67.2
2022-10-04T13:39	10	120	0.3	119	120	422	0.8	421	424	17.6	67.6
2022-10-04T13:40	10	119	0.4	118	120	422	0.4	421	423	17.4	67.2
2022-10-04T13:41	10	118	0.4	117	119	423	0.6	422	424	17.5	67.3
2022-10-04T13:42	10	117	0.6	114	118	424	0.2	423	424	17.5	66.5
2022-10-04T13:43	10	115	1.5	112	116	424	0.3	423	424	17.6	66.4
2022-10-04T13:44	10	116	0.5	115	117	424	0.2	424	425	17.7	66.6
2022-10-04T13:45	10	114	0.2	114	115	424	0.9	422	425	17.8	66.2
2022-10-04T13:46	10	115	0.6	114	117	424	0.5	423	425	18.0	67.7
2022-10-04T13:47	10	116	0.9	114	117	423	0.8	422	425	17.7	67.4
2022-10-04T13:48	10	115	0.8	113	116	423	0.3	422	423	17.7	66.5
2022-10-04T13:49	10	115	0.2	114	116	423	0.2	422	423	17.6	66.1
2022-10-04T13:50	10	115	0.8	114	116	423	0.4	422	424	17.8	66.7
2022-10-04T13:51	10	115	0.8	114	117	423	0.5	423	425	18.2	69.1
2022-10-04T13:52	10	110	1.9	108	114	423	1.4	421	425	18.1	67.3
2022-10-04T13:53	10	111	1.2	109	112	421	0.4	420	422	17.7	66.1
2022-10-04T13:54	10	112	2.6	109	115	421	0.5	420	423	17.6	66.8
2022-10-04T13:55	10	115	0.2	115	116	422	0.4	421	423	17.7	66.8
2022-10-04T13:56	10	116	0.4	115	117	421	0.3	421	422	17.7	67.3
2022-10-04T13:57	10	115	0.1	115	115	422	0.6	421	423	17.9	68.1
2022-10-04T13:58	10	114	0.4	114	115	421	0.8	419	422	17.8	67.2
2022-10-04T13:59	10	115	0.3	114	115	422	0.9	420	424	17.9	67.6
2022-10-04T14:00	10	114	0.3	114	115	422	0.5	422	423	17.9	67.1
2022-10-04T14:01	10	113	0.5	112	114	422	0.4	421	423	17.9	66.9
2022-10-04T14:02	10	112	0.2	111	112	423	0.4	422	424	18.0	67.7
2022-10-04T14:03	10	112	0.6	111	113	423	0.3	423	424	18.1	67.5
2022-10-04T14:04	10	114	0.2	113	114	423	0.5	422	424	18.1	67.8
2022-10-04T14:05	10	112	0.6	111	113	421	1.5	419	423	18.0	67.1
2022-10-04T14:06	10	112	0.4	112	113	419	0.6	418	420	17.7	66.2
2022-10-04T14:07	10	111	0.6	110	112	419	0.3	418	420	17.7	66.3
2022-10-04T14:08	10	110	0.3	109	110	420	1.1	418	422	17.9	66.8
2022-10-04T14:09	10	108	0.8	107	110	422	0.3	421	423	18.0	67.3
2022-10-04T14:10	10	106	0.4	106	107	421	0.4	421	422	17.9	66.5
2022-10-04T14:11	10	105	0.6	104	106	421	0.5	420	422	17.9	67.4
2022-10-04T14:12	10	106	0.8	104	107	422	0.9	420	424	18.2	68.1
2022-10-04T14:13	10	104	1.4	100	106	422	0.7	421	423	18.3	67.3
2022-10-04T14:14	10	103	1.6	100	105	421	0.4	420	422	18.1	67.1
2022-10-04T14:15	10	105	1.0	103	107	421	0.4	420	422	18.1	67.1
2022-10-04T14:16	10	108	0.4	107	108	420	0.4	419	420	18.0	66.5
2022-10-04T14:17	10	108	0.6	107	109	420	0.4	419	421	18.0	67.3
2022-10-04T14:18	10	108	0.4	108	109	420	0.3	420	421	18.0	67.1
2022-10-04T14:19	10	108	0.3	108	109	420	0.2	420	421	18.1	67.3
2022-10-04T14:20	10	106	2.7	101	109	421	0.3	421	422	18.3	66.8
2022-10-04T14:21	10	107	0.6	105	109	421	0.9	419	422	18.2	66.8
2022-10-04T14:22	10	109	0.5	109	110	421	0.3	420	422	18.2	66.0
2022-10-04T14:23	10	110	0.2	109	110	422	0.7	421	423	18.3	67.1
2022-10-04T14:24	10	110	0.5	108	111	422	0.4	421	422	18.4	67.8
2022-10-04T14:25	10	106	1.0	104	108	421	0.5	419	422	18.5	68.7
2022-10-04T14:26	10	107	0.8	105	108	420	0.3	420	421	18.4	67.6
2022-10-04T14:27	10	107	0.3	106	107	420	0.5	418	421	18.3	67.1
2022-10-04T14:28	10	106	0.3	105	107	419	0.3	418	419	18.1	66.6
2022-10-04T14:29	10	105	0.2	104	105	418	0.4	417	419	18.0	66.5
2022-10-04T14:30	10	104	0.3	103	104	418	0.2	417	418	18.0	66.7
2022-10-04T14:31	10	103	0.3	102	103	418	0.5	418	419	18.1	66.7
2022-10-04T14:32	10	102	0.2	102	103	419	0.3	418	419	18.1	66.7
2022-10-04T14:33	10	102	0.1	101	102	418	0.4	417	419	18.1	66.5
2022-10-04T14:34	10	101	0.1	101	102	419	0.2	418	419	18.1	66.2
2022-10-04T14:35	10	102	0.2	101	102	419	0.3	419	420	18.5	65.3
2022-10-04T14:36	10	101	0.1	101	102	420	0.5	419	421	18.4	65.7
2022-10-04T14:37	10	102	0.2	101	102	419	0.4	419	420	18.1	65.7
2022-10-04T14:38	10	101	0.2	100	101	419	0.2	418	420	18.1	65.9
2022-10-04T14:39	10	100	0.2	100	100	420	0.5	419	421	18.2	66.3
2022-10-04T14:40	10	99	0.3	99	100	419	0.4	418	420	18.2	66.7
2022-10-04T14:41	10	99	0.2	98	99	418	0.2	418	418	18.1	66.9
2022-10-04T14:42	10	98	0.2	98	98	417	0.9	415	418	18.3	67.6
2022-10-04T14:43	10	97	0.2	97	98	417	0.4	416	418	18.2	66.7
2022-10-04T14:44	10	97	0.2	96	97	418	0.3	417	418	18.2	67.2
2022-10-04T14:45	10	96	0.2	96	97	418	0.2	417	418	18.4	67.3
2022-10-04T14:46	10	95	0.6	94	96	419	0.3	417	419	18.4	66.8
2022-10-04T14:47	10	94	0.3	94	95	417	0.4	416	418	18.3	66.4
2022-10-04T14:48	10	94	0.3	93	94	417	0.2	416	417	18.2	66.4
2022-10-04T14:49	10	92	0.4	92	93	417	0.2	416	417	18.2	66.8
2022-10-04T14:50	10	91	0.5	90	92	417	0.4	416	418	18.3	66.8
2022-10-04T14:51	10	90	0.2	90	91	418	0.4	417	419	18.2	66.6
2022-10-04T14:52	10	91	0.3	90	91	418	0.5	417	419	18.4	67.0
2022-10-04T14:53	10	91	0.2	91	92	418	0.5	417	419	18.5	67.0
2022-10-04T14:54	10	91	0.2	91	92	418	0.7	417	420	18.6	67.5
2022-10-04T14:55	10	91	0.2	91	92	418	0.4	417	419	18.4	66.8
2022-10-04T14:56	10	91	0.2	91	92	417	0.4	416	418	18.3	66.0
2022-10-04T14:57	10	91	0.2	91	91	417	0.4	416	418	18.4	66.6
2022-10-04T14:58	10	90	0.2	90	91	417	0.3	417	418	18.5	66.0
2022-10-04T14:59	10	90	0.2	90	91	417	0.3	417	418	18.5	66.3
2022-10-04T15:00	10	90	0.3	89	90	418	0.5	417	419	18.5	67.3
2022-10-04T15:01	10	89	0.2	89	89	417	0.3	416	417	18.5	66.4
2022-10-04T15:02	10	88	0.2	88	89	416	0.3	416	417	18.5	66.2
2022-10-04T15:03	10	87	0.3	87	88	416	0.5	415	417	18.6	66.4
2022-10-04T15:04	10	87	0.2	86	87	416	0.2	415	416	18.6	67.0
2022-10-04T15:05	10	86	0.2	86	87	416	0.4	415	417	18.7	67.3
2022-10-04T15:06	10	85	0.2	85	86	415	0.3	415	416	18.6	65.9
2022-10-04T15:07	10	85	0.2	85	85	415	0.4	414	416	18.6	66.0
2022-10-04T15:08	10	84	0.2	84	85	415	0.2	415	416	18.5	66.0
2022-10-04T15:09	10	84	0.1	84	84	415	0.3	415	416	18.6	66.1
2022-10-04T15:10	10	83	0.2	83	84	415	0.8	414	417	18.8	67.9
2022-10-04T15:11	10	83	0.2	82	83	416	0.5	414	417	18.5	66.2
2022-10-04T15:12	10	82	0.3	82	83	415	0.5	414	415	18.4	66.0
2022-10-04T15:13	10	81	0.3	80	82	414	0.4	413	415	18.4	66.6
2022-10-04T15:14	10	80	0.3	80	81	414	0.4	412	414	18.4	66.0
2022-10-04T15:15	10	79	0.2	79	80	414	0.4	413	415	18.5	66.2
2022-10-04T15:16	10	79	0.1	79	79	414	0.4	413	415	18.5	66.1
2022-10-04T15:17	10	79	0.1	78	79	415	0.8	413	416	18.7	67.7
2022-10-04T15:18	10	78	0.1	78	79	415	0.2	414	415	18.7	67.7
2022-10-04T15:19	10	78	0.1	78	78	413	0.6	412	414	18.5	67.0
2022-10-04T15:20	10	78	0.2	77	78	412	0.2	412	413	18.5	66.9
2022-10-04T15:21	10	77	0.2	77	77	412	0.2	412	413	18.5	66.9
2022-10-04T15:22	10	76	0.2	76	77	412	0.2	411	412	18.5	67.3
2022-10-04T15:23	10	76	0.2	75	76	411	0.2	411	412	18.4	66.7
2022-10-04T15:24	10	75	0.2	75	76	411	0.3	410	412	18.5	66.9
2022-10-04T15:25	10	75	0.2	74	75	411	0.2	410	411	18.5	66.8
2022-10-04T15:26	10	74	0.2	74	74	410	0.2	410	411	18.5	66.6
2022-10-04T15:27	10	73	0.2	73	74	411	0.2	410	411	18.6	66.7
2022-10-04T15:28	10	73	0.2	72	73	411	0.3	410	412	18.6	66.4
2022-10-04T15:29	10	72	0.1	72	72	411	0.2	411	412	18.6	67.1
2022-10-04T15:30	10	72	0.2	71	72	411	0.2	410	411	18.6	66.9
2022-10-04T15:31	10	71	0.2	71	72	410	0.4	409	411	18.5	66.3
2022-10-04T15:32	10	71	0.2	70	71	410	0.3	409	410	18.5	66.4
2022-10-04T15:33	10	70	0.3	69	70	410	0.2	409	410	18.5	66.8
2022-10-04T15:34	10	69	0.2	69	70	409	0.3	409	410	18.5	67.2
2022-10-04T15:35	10	68	0.2	68	69	409	0.2	409	409	18.5	67.6
2022-10-04T15:36	10	68	0.2	67	68	408	0.3	408	409	18.5	67.8
2022-10-04T15:37	10	67	0.2	67	68	408	0.3	408	409	18.5	67.9
2022-10-04T15:38	10	66	0.3	66	67	408	0.2	408	408	18.4	69.0
2022-10-04T15:39	10	66	0.3	65	66	407	0.3	407	408	18.4	67.7
2022-10-04T15:40	10	65	0.3	64	66	407	0.2	406	407	18.4	68.0
2022-10-04T15:41	10	64	0.3	64	65	406	0.2	406	407	18.4	68.1
2022-10-04T15:42	10	63	0.3	63	64	407	0.3	406	407	18.4	68.4
2022-10-04T15:43	10	62	0.2	62	63	406	0.2	406	407	18.4	68.2
2022-10-04T15:44	10	62	0.2	61	62	406	0.2	406	407	18.4	68.6
2022-10-04T15:45	10	61	0.3	60	62	406	0.3	405	407	18.5	69.3
2022-10-04T15:46	10	60	0.3	60	61	406	0.3	406	407	18.5	68.8
2022-10-04T15:47	10	60	0.2	59	60	407	0.3	406	407	18.5	68.7
2022-10-04T15:48	10	59	0.2	59	60	406	0.3	405	407	18.5	68.8
2022-10-04T15:49	10	58	0.3	58	59	405	0.3	405	406	18.5	69.7
2022-10-04T15:50	10	58	0.3	57	58	405	0.2	405	406	18.5	69.1
2022-10-04T15:51	10	57	0.3	56	57	405	0.3	404	405	18.4	68.5
2022-10-04T15:52	10	56	0.3	56	57	405	0.3	404	405	18.4	68.8
2022-10-04T15:53	10	56	0.3	55	56	404	0.3	404	405	18.5	68.3
2022-10-04T15:54	10	55	0.2	54	55	405	0.2	404	405	18.5	68.1
2022-10-04T15:55	10	54	0.2	54	55	404	0.3	404	405	18.4	68.1
2022-10-04T15:56	10	54	0.3	53	54	404	0.3	403	405	18.5	68.1
2022-10-04T15:57	10	53	0.3	52	53	404	0.4	403	405	18.5	68.3
2022-10-04T15:58	10	52	0.2	51	52	404	0.3	403	404	18.5	68.9
2022-10-04T15:59	10	51	0.3	51	52	404	0.3	403	404	18.5	69.3
2022-10-04T16:00	10	50	0.3	50	51	403	0.3	402	403	18.4	69.2
2022-10-04T16:01	10	50	0.3	49	50	403	0.3	402	404	18.4	69.4
2022-10-04T16:02	10	49	0.3	48	49	402	0.4	401	403	18.4	69.3
2022-10-04T16:03	10	48	0.3	48	49	402	0.2	401	402	18.4	69.2
2022-10-04T16:04	10	47	0.2	47	48	401	0.2	401	402	18.4	69.4
2022-10-04T16:05	10	47	0.3	46	48	401	0.3	401	402	18.4	69.7
2022-10-04T16:06	10	46	0.3	45	47	401	0.3	400	402	18.5	69.1
2022-10-04T16:07	10	45	0.4	45	46	401	0.4	400	402	18.5	68.9
2022-10-04T16:08	10	44	0.3	44	45	401	0.2	400	402	18.5	69.1
2022-10-04T16:09	10	44	0.3	43	44	401	0.2	400	401	18.5	69.3
2022-10-04T16:10	10	43	0.3	42	43	400	0.4	400	401	18.5	69.8
2022-10-04T16:11	10	42	0.3	41	43	400	0.5	399	401	18.4	69.8
2022-10-04T16:12	10	41	0.3	41	42	400	0.3	399	401	18.4	70.3
2022-10-04T16:13	10	40	0.3	40	41	400	0.3	399	400	18.4	69.7
2022-10-04T16:14	10	39	0.3	39	40	399	0.2	399	400	18.4	70.2
2022-10-04T16:15	10	38	0.2	38	39	399	0.4	398	400	18.4	69.5
2022-10-04T16:16	10	37	0.3	37	38	398	0.2	398	399	18.3	69.7
2022-10-04T16:17	10	36	0.3	36	37	398	0.3	398	399	18.3	69.7
2022-10-04T16:18	10	36	0.2	35	36	398	0.2	397	399	18.3	70.4
2022-10-04T16:19	10	35	0.2	34	35	397	0.4	396	398	18.3	69.8
2022-10-04T16:20	10	34	0.2	33	34	397	0.2	397	398	18.3	69.7
2022-10-04T16:21	10	33	0.3	32	33	397	0.2	396	397	18.3	69.6
2022-10-04T16:22	10	32	0.2	32	33	396	0.2	396	397	18.2	69.9
2022-10-04T16:23	10	31	0.3	31	32	396	0.2	396	396	18.2	70.0
2022-10-04T16:24	10	30	0.3	30	31	396	0.3	395	397	18.2	70.4
2022-10-04T16:25	10	30	0.2	29	30	395	0.3	395	396	18.2	70.0
2022-10-04T16:26	10	29	0.2	29	29	395	0.3	394	395	18.2	69.6
2022-10-04T16:27	10	28	0.2	28	29	395	0.2	394	395	18.2	69.5
2022-10-04T16:28	10	27	0.2	27	28	394	0.2	394	395	18.2	69.9
2022-10-04T16:29	10	27	0.2	26	27	393	0.3	393	394	18.2	70.3
2022-10-04T16:30	10	26	0.3	25	26	393	0.3	392	394	18.1	70.3
2022-10-04T16:31	10	25	0.2	24	25	392	0.3	392	393	18.0	70.6
2022-10-04T16:32	10	24	0.2	24	24	392	0.3	391	393	18.1	70.3
2022-10-04T16:33	10	23	0.3	23	24	392	0.3	391	393	18.1	69.5
2022-10-04T16:34	10	22	0.3	22	23	392	0.3	391	392	18.1	69.0
2022-10-04T16:35	10	21	0.3	21	22	392	0.2	391	392	18.1	69.1
2022-10-04T16:36	10	20	0.3	20	21	391	0.2	391	392	18.1	69.4
2022-10-04T16:37	10	19	0.3	19	20	391	0.3	390	392	18.1	69.3
2022-10-04T16:38	10	18	0.3	18	19	391	0.3	390	391	18.0	69.3
2022-10-04T16:39	10	17	0.3	17	18	390	0.2	389	390	18.0	69.6
2022-10-04T16:40	10	16	0.3	16	17	389	0.2	389	390	18.0	69.8
2022-10-04T16:41	10	15	0.3	15	16	389	0.2	389	390	18.0	69.5
2022-10-04T16:42	10	14	0.3	14	15	389	0.3	388	390	18.0	69.7
2022-10-04T16:43	10	14	0.3	13	14	388	0.3	387	389	18.0	69.8
2022-10-04T16:44	10	13	0.3	12	13	388	0.3	387	388	18.0	69.9
2022-10-04T16:45	10	12	0.3	11	12	387	0.3	387	388	18.0	70.2
2022-10-04T16:46	10	11	0.3	10	11	387	0.3	386	387	18.0	70.5
2022-10-04T16:47	10	10	0.3	9	10	387	0.5	387	388	17.8	71.8
2022-10-04T16:48	10	9	0.3	8	9	387	0.6	386	388	17.6	72.8
2022-10-04T16:49	10	8	0.3	7	9	387	0.2	386	387	17.5	73.4
2022-10-04T16:50	10	7	0.3	7	8	386	0.4	386	387	17.4	74.3
2022-10-04T16:51	10	6	0.2	6	7	386	0.4	385	386	17.3	74.8
2022-10-04T16:52	10	5	0.2	5	6	386	0.2	385	386	17.3	75.1
2022-10-04T16:53	10	5	0.3	4	5	386	0.3	385	386	17.2	75.5
2022-10-04T16:54	10	3	0.6	2	4	386	0.3	385	386	17.1	76.1
2022-10-04T16:55	10	1	0.5	0	2	385	0.3	384	385	17.1	76.2
2022-10-04T16:56	10	0	0.1	0	0	384	0.3	384	385	17.1	76.6
2022-10-04T16:57	10	0	0.1	0	0	384	0.4	383	385	17.0	76.8
2022-10-04T16:58	10	0	0.1	0	0	383	0.3	383	384	17.0	76.8
2022-10-04T16:59	10	0	0.1	0	0	384	0.2	383	384	17.0	76.9
2022-10-04T17:00	10	0	0.1	-1	0	383	0.2	383	384	16.9	76.9
2022-10-04T17:01	10	0	0.1	-1	0	383	0.3	382	383	16.8	77.4
2022-10-04T17:02	10	0	0.1	0	0	382	0.2	381	382	16.9	77.0
2022-10-04T17:03	10	0	0.1	-1	0	382	0.2	381	382	16.9	77.1
2022-10-04T17:04	10	0	0.1	0	0	381	0.3	381	382	16.9	77.1
2022-10-04T17:05	10	0	0.1	0	0	381	0.2	380	381	16.7	77.7
2022-10-04T17:06	10	0	0.1	0	0	379	0.4	379	380	16.7	78.0
2022-10-04T17:07	10	0	0.1	0	0	379	0.4	378	379	16.7	77.8
2022-10-04T17:08	10	0	0.1	-1	0	378	0.3	377	378	16.7	77.9
2022-10-04T17:09	10	0	0.1	-1	0	377	0.4	376	377	16.6	78.1
2022-10-04T17:10	10	0	0.2	-1	0	376	0.3	375	376	16.6	78.3
2022-10-04T17:11	10	0	0.2	-1	0	375	0.4	375	376	16.6	78.5
2022-10-04T17:12	10	-1	0.2	-1	0	375	0.3	374	375	16.6	78.7
2022-10-04T17:13	10	-1	0.1	-1	0	375	0.2	374	375	16.6	78.6
2022-10-04T17:14	10	-1	0.1	-1	0	374	0.2	374	374	16.6	78.6
2022-10-04T17:15	10	-1	0.1	-1	-1	374	0.2	374	375	16.6	78.6
2022-10-04T17:16	10	-1	0.1	-1	-1	374	0.3	373	374	16.5	78.7
2022-10-04T17:17	10	-1	0.1	-1	-1	373	0.2	373	374	16.5	78.8
2022-10-04T17:18	10	-1	0.0	-1	-1	373	0.3	373	374	16.6	78.8
2022-10-04T17:19	10	-1	0.1	-1	-1	373	0.2	373	374	16.5	78.8
2022-10-04T17:20	10	-1	0.1	-1	-1	373	0.2	372	373	16.5	79.0
2022-10-04T17:21	10	-1	0.1	-1	-1	373	0.2	372	373	16.5	78.8
2022-10-04T17:22	10	-1	0.1	-1	-1	373	0.3	372	373	16.5	78.7
2022-10-04T17:23	10	0	0.1	0	0	373	0.2	372	373	16.5	78.8
2022-10-04T17:24	10	0	0.1	0	0	372	0.2	372	373	16.5	78.9
2022-10-04T17:25	10	0	0.1	0	0	372	0.2	371	372	16.4	79.1
2022-10-04T17:26	10	0	0.1	0	0	371	0.3	371	372	16.4	79.3
2022-10-04T17:27	10	0	0.1	0	0	371	0.2	371	372	16.3	79.7
2022-10-04T17:28	10	0	0.1	0	0	371	0.3	370	372	16.2	79.8
2022-10-04T17:29	10	0	0.1	0	0	370	0.2	370	371	16.0	80.6
2022-10-04T17:30	10	0	0.1	0	0	371	0.3	370	371	15.9	81.3
2022-10-04T17:31	10	0	0.1	-1	0	370	0.2	370	371	15.9	81.9
2022-10-04T17:32	10	0	0.1	-1	0	370	0.2	370	371	15.8	82.1
2022-10-04T17:33	10	0	0.1	0	0	370	0.3	369	370	15.9	81.4
2022-10-04T17:34	10	0	0.1	0	0	370	0.2	369	370	16.0	80.8
2022-10-04T17:35	10	0	0.1	0	0	370	0.3	369	371	16.1	80.5
2022-10-04T17:36	10	0	0.1	0	0	370	0.3	369	370	16.1	80.2
2022-10-04T17:37	10	0	0.1	0	0	370	0.2	369	370	16.1	80.2
2022-10-04T17:38	10	0	0.1	0	0	370	0.2	369	370	16.0	80.6
2022-10-04T17:39	10	0	0.1	0	0	369	0.3	369	370	15.9	81.1
2022-10-04T17:40	10	0	0.1	0	0	369	0.2	369	369	15.8	81.5
2022-10-04T17:41	10	0	0.1	0	0	368	0.3	368	369	15.6	82.6
2022-10-04T17:42	10	0	0.1	0	1	368	0.3	368	369	15.7	82.5
2022-10-04T17:43	10	0	0.2	0	1	368	0.3	368	369	15.8	82.1
2022-10-04T17:44	10	0	0.2	0	1	368	0.3	368	369	15.8	81.8
2022-10-04T17:45	10	0	0.2	0	1	368	0.3	368	369	15.9	81.6
2022-10-04T17:46	10	0	0.1	0	1	368	0.2	368	369	15.9	81.4
2022-10-04T17:47	10	0	0.1	0	1	368	0.2	367	368	15.8	81.7
2022-10-04T17:48	10	0	0.1	0	0	368	0.3	367	368	15.8	81.9
2022-10-04T17:49	10	0	0.1	0	0	367	0.2	367	368	15.6	82.3
2022-10-04T17:50	10	0	0.1	0	0	367	0.2	366	367	15.4	83.4
2022-10-04T17:51	10	0	0.1	0	0	367	0.2	366	367	15.4	83.9
2022-10-04T17:52	10	0	0.1	0	0	367	0.2	366	367	15.4	83.9
2022-10-04T17:53	10	0	0.1	0	1	367	0.2	366	367	15.4	84.1
2022-10-04T17:54	10	0	0.1	0	1	367	0.2	366	367	15.3	84.5
2022-10-04T17:55	10	1	0.1	0	1	366	0.2	366	367	15.3	84.8
2022-10-04T17:56	10	0	0.1	0	1	366	0.3	366	367	15.2	84.7
2022-10-04T17:57	10	1	0.1	0	1	366	0.2	365	366	15.1	85.6
2022-10-04T17:58	10	1	0.1	0	1	366	0.3	365	367	15.0	86.0
2022-10-04T17:59	10	1	0.1	0	1	367	0.4	366	367	15.0	86.3
2022-10-04T18:00	10	1	0.1	0	1	367	0.4	366	368	14.9	86.5
2022-10-04T18:01	10	0	0.1	0	1	368	0.2	367	368	14.9	86.6
2022-10-04T18:02	10	0	0.1	0	1	368	0.3	368	369	14.9	87.1
2022-10-04T18:03	10	0	0.1	0	1	368	0.3	367	368	14.8	87.3
2022-10-04T18:04	10	0	0.1	0	1	367	0.3	367	368	14.8	88.0
2022-10-04T18:05	10	0	0.1	0	1	367	0.3	366	367	15.0	87.7
2022-10-04T18:06	10	0	0.1	0	1	366	0.2	366	367	14.9	87.5
2022-10-04T18:07	10	0	0.1	0	0	366	0.2	366	367	14.9	87.7
2022-10-04T18:08	10	0	0.1	0	1	366	0.2	365	366	14.9	87.5
2022-10-04T18:09	10	0	0.1	0	1	366	0.2	365	366	14.9	87.5
2022-10-04T18:10	10	0	0.1	0	0	366	0.2	365	366	14.8	87.8
2022-10-04T18:11	10	0	0.1	0	1	365	0.3	365	366	14.7	87.9
2022-10-04T18:12	10	0	0.1	0	0	365	0.2	365	366	14.6	88.0
2022-10-04T18:13	10	0	0.1	0	0	365	0.3	364	365	14.7	88.1
2022-10-04T18:14	10	0	0.1	0	0	365	0.3	364	365	14.7	87.9
2022-10-04T18:15	10	0	0.1	0	0	364	0.2	364	365	14.5	87.9
2022-10-04T18:16	10	0	0.1	0	0	364	0.2	363	364	14.4	88.2
2022-10-04T18:17	10	0	0.1	0	0	364	0.2	364	365	14.2	88.7
2022-10-04T18:18	10	0	0.1	0	0	364	0.2	363	364	14.2	88.8
2022-10-04T18:19	10	0	0.1	0	0	364	0.2	363	364	14.1	89.0
2022-10-04T18:20	10	0	0.1	0	0	364	0.2	363	364	14.1	89.2
2022-10-04T18:21	10	0	0.1	0	0	364	0.2	363	364	14.2	89.1
2022-10-04T18:22	10	0	0.2	0	1	364	0.3	363	365	14.4	89.2
2022-10-04T18:23	10	0	0.1	0	1	364	0.3	363	364	14.5	88.7
2022-10-04T18:24	10	0	0.2	0	1	363	0.3	362	364	14.5	88.5
2022-10-04T18:25	10	0	0.2	0	1	363	0.3	362	363	14.3	88.5
2022-10-04T18:26	10	0	0.2	0	1	363	0.3	362	363	14.3	89.1
2022-10-04T18:27	10	0	0.2	0	1	363	0.2	362	363	14.2	89.3
2022-10-04T18:28	10	1	0.2	0	1	362	0.3	362	363	13.9	89.7
2022-10-04T18:29	10	0	0.1	0	1	362	0.3	362	363	13.9	90.5
2022-10-04T18:30	10	0	0.1	0	1	362	0.4	362	363	14.1	90.8
2022-10-04T18:31	10	1	0.1	0	1	362	0.2	362	362	14.1	90.4
2022-10-04T18:32	10	1	0.1	0	1	362	0.3	361	362	14.1	90.3
2022-10-04T18:33	10	1	0.0	0	1	362	0.2	361	362	14.1	90.2
2022-10-04T18:34	10	1	0.1	0	1	362	0.2	361	362	14.2	90.2
2022-10-04T18:35	10	1	0.1	0	1	362	0.2	361	362	14.3	90.2
2022-10-04T18:36	10	1	0.1	0	1	362	0.2	361	362	14.2	90.2
2022-10-04T18:37	10	1	0.1	0	1	362	0.2	361	362	14.3	90.4
2022-10-04T18:38	10	1	0.1	0	1	362	0.2	362	362	14.4	90.5
2022-10-04T18:39	10	1	0.0	0	1	362	0.3	361	362	14.4	90.2
2022-10-04T18:40	10	1	0.0	0	1	361	0.3	360	362	14.2	90.3
2022-10-04T18:41	10	1	0.1	0	1	360	0.5	359	362	13.9	90.5
2022-10-04T18:42	10	0	0.1	0	1	360	0.4	359	361	13.4	90.9
2022-10-04T18:43	10	0	0.1	0	1	360	0.2	360	361	13.5	91.9
2022-10-04T18:44	10	0	0.1	0	1	360	0.3	360	361	13.5	92.1
2022-10-04T18:45	10	0	0.1	0	0	360	0.3	359	361	13.7	92.7
2022-10-04T18:46	10	0	0.1	0	1	360	0.4	359	361	13.8	92.7
2022-10-04T18:47	10	0	0.1	0	1	360	0.4	359	361	13.8	92.6
2022-10-04T18:48	10	0	0.1	0	1	360	0.3	360	361	13.8	92.8
2022-10-04T18:49	10	0	0.1	0	0	360	0.8	358	361	13.7	92.9
2022-10-04T18:50	10	0	0.1	0	0	360	0.2	360	360	13.5	92.9
2022-10-04T18:51	10	0	0.0	0	0	360	0.4	360	361	13.5	93.2
2022-10-04T18:52	10	0	0.1	0	0	361	0.3	360	361	13.6	93.8
2022-10-04T18:53	10	0	0.1	0	0	361	0.2	360	361	13.5	93.9
2022-10-04T18:54	10	0	0.1	0	0	361	0.3	360	361	13.3	94.1
2022-10-04T18:55	10	0	0.1	0	0	361	0.3	360	362	13.4	94.4
2022-10-04T18:56	10	0	0.1	0	0	361	0.2	360	361	13.4	94.6
2022-10-04T18:57	10	0	0.1	0	0	361	0.3	360	362	13.5	94.6
2022-10-04T18:58	10	0	0.1	0	0	360	0.3	360	361	13.5	94.5
2022-10-04T18:59	10	0	0.1	0	0	360	0.3	359	360	13.3	94.3
2022-10-04T19:00	10	0	0.1	0	0	359	0.2	359	360	13.2	94.5
2022-10-04T19:01	10	0	0.1	-1	0	359	0.4	358	360	13.0	94.5
2022-10-04T19:02	10	0	0.1	-1	0	360	0.5	359	361	13.1	94.8
2022-10-04T19:03	10	-1	0.1	-1	0	361	0.6	360	362	13.3	95.1
2022-10-04T19:04	10	-1	0.1	-1	0	362	0.5	361	363	13.6	95.1
2022-10-04T19:05	10	-1	0.1	-1	0	362	0.2	362	363	13.6	94.6
2022-10-04T19:06	10	0	0.1	-1	0	363	0.2	362	363	13.6	94.4
2022-10-04T19:07	10	0	0.1	-1	0	362	0.3	362	363	13.7	94.3
2022-10-04T19:08	10	0	0.1	-1	0	362	0.3	362	363	13.7	94.1
2022-10-04T19:09	10	0	0.1	-1	0	363	0.4	362	364	13.8	94.0
2022-10-04T19:10	10	0	0.1	0	0	364	0.3	363	364	13.8	93.8
2022-10-04T19:11	10	0	0.1	-1	0	364	0.3	363	364	13.7	93.5
2022-10-04T19:12	10	0	0.0	0	0	365	0.3	364	365	13.6	93.6
2022-10-04T19:13	10	0	0.1	-1	0	366	0.5	365	367	13.6	93.6
2022-10-04T19:14	10	0	0.1	-1	0	366	0.3	366	367	13.6	93.6
2022-10-04T19:15	10	-1	0.1	-1	0	366	0.2	366	367	13.5	93.7
2022-10-04T19:16	10	-1	0.1	-1	0	366	0.5	365	367	13.5	93.7
2022-10-04T19:17	10	-1	0.1	-1	0	365	0.3	364	365	13.5	93.9
2022-10-04T19:18	10	-1	0.1	-1	0	364	0.3	364	365	13.5	93.9
2022-10-04T19:19	10	-1	0.1	-1	0	364	0.2	363	364	13.4	93.8
2022-10-04T19:20	10	-1	0.1	-1	0	363	0.2	363	364	13.4	93.8
2022-10-04T19:21	10	-1	0.1	-1	0	363	0.3	362	364	13.5	93.8
2022-10-04T19:22	10	-1	0.1	-1	0	364	0.3	363	364	13.5	93.6
2022-10-04T19:23	10	-1	0.1	-1	0	364	0.2	364	365	13.6	93.4
2022-10-04T19:24	10	0	0.1	-1	0	364	0.4	363	365	13.6	93.2
2022-10-04T19:25	10	0	0.1	-1	0	363	0.4	362	364	13.6	93.0
2022-10-04T19:26	10	0	0.1	0	0	362	0.3	361	363	13.6	92.9
2022-10-04T19:27	10	0	0.2	-1	0	361	0.6	360	363	13.6	93.0
2022-10-04T19:28	10	0	0.1	0	0	360	0.3	360	361	13.5	92.7
2022-10-04T19:29	10	0	0.1	0	0	360	0.2	360	361	13.3	92.7
2022-10-04T19:30	10	0	0.2	0	0	360	0.3	359	360	13.3	93.2
2022-10-04T19:31	10	0	0.2	0	1	359	0.3	359	360	13.2	93.2
2022-10-04T19:32	10	0	0.1	0	0	359	0.2	359	360	13.2	93.5
2022-10-04T19:33	10	0	0.2	0	1	359	0.3	359	360	13.0	93.6
2022-10-04T19:34	10	0	0.1	0	0	359	0.3	358	360	12.9	93.9
2022-10-04T19:35	10	0	0.2	0	0	359	0.3	358	359	12.8	94.1
2022-10-04T19:36	10	0	0.2	0	0	358	0.3	358	359	12.9	94.4
2022-10-04T19:37	10	0	0.2	0	1	358	0.2	357	359	12.9	94.4
2022-10-04T19:38	10	0	0.2	0	1	358	0.3	357	359	12.9	94.4
2022-10-04T19:39	10	0	0.2	0	1	358	0.2	357	359	12.9	94.7
2022-10-04T19:40	10	0	0.2	0	1	357	0.3	357	358	13.0	94.7
2022-10-04T19:41	10	0	0.1	0	0	358	0.3	357	358	13.1	94.5
2022-10-04T19:42	10	0	0.2	0	1	357	0.4	356	358	12.9	94.2
2022-10-04T19:43	10	0	0.2	0	1	357	0.3	356	358	13.0	94.3
2022-10-04T19:44	10	0	0.1	0	0	357	0.2	356	357	12.9	94.2
2022-10-04T19:45	10	0	0.2	0	0	357	0.3	357	358	12.9	94.4
2022-10-04T19:46	10	0	0.1	0	0	357	0.4	356	358	12.9	94.5
2022-10-04T19:47	10	0	0.1	0	0	357	0.3	356	358	12.8	94.7
2022-10-04T19:48	10	0	0.1	0	0	358	0.3	357	358	12.8	95.0
2022-10-04T19:49	10	0	0.1	0	0	358	0.2	358	359	12.8	95.2
2022-10-04T19:50	10	0	0.1	0	0	358	0.3	358	359	12.7	95.3
2022-10-04T19:51	10	0	0.1	-1	0	360	0.5	359	361	12.8	95.4
2022-10-04T19:52	10	-1	0.1	-1	0	361	0.4	360	362	12.8	95.5
2022-10-04T19:53	10	-1	0.1	-1	-1	362	0.5	361	363	12.7	95.4
2022-10-04T19:54	10	-1	0.1	-1	-1	363	0.2	362	363	12.6	95.5
2022-10-04T19:55	10	-1	0.1	-1	-1	363	0.3	362	363	12.6	95.6
2022-10-04T19:56	10	-1	0.1	-1	-1	363	0.2	363	363	12.6	95.6
2022-10-04T19:57	10	-1	0.1	-1	-1	363	0.3	362	363	12.6	95.6
2022-10-04T19:58	10	-1	0.1	-1	-1	362	0.4	361	363	12.6	95.5
2022-10-04T19:59	10	-1	0.1	-1	-1	361	0.3	360	361	12.5	95.5
2022-10-04T20:00	10	-1	0.1	-1	0	359	0.3	359	360	12.4	95.5
2022-10-04T20:01	10	-1	0.1	-1	0	359	0.3	358	359	12.4	95.5
2022-10-04T20:02	10	0	0.1	-1	0	359	0.3	359	360	12.3	95.5
2022-10-04T20:03	10	0	0.1	-1	0	359	0.2	358	359	12.1	95.6
2022-10-04T20:04	10	-1	0.1	-1	0	359	0.2	358	359	11.9	95.8
2022-10-04T20:05	10	-1	0.1	-1	-1	359	0.2	358	359	11.9	96.1
2022-10-04T20:06	10	-1	0.1	-1	-1	358	0.2	357	358	12.0	96.5
2022-10-04T20:07	10	-1	0.1	-1	-1	358	0.2	357	359	12.0	96.6
2022-10-04T20:08	10	-1	0.1	-1	0	358	0.2	357	358	12.1	96.9
2022-10-04T20:09	10	-1	0.1	-1	-1	357	0.3	357	358	12.1	96.9
2022-10-04T20:10	10	-1	0.1	-1	0	357	0.3	356	357	12.1	97.0
2022-10-04T20:11	10	-1	0.1	-1	0	357	0.3	356	357	12.1	96.9
2022-10-04T20:12	10	-1	0.1	-1	0	356	0.5	355	357	12.1	96.9
2022-10-04T20:13	10	-1	0.1	-1	-1	355	0.2	355	356	12.1	96.7
2022-10-04T20:14	10	-1	0.1	-1	-1	356	0.3	355	356	12.5	96.8
2022-10-04T20:15	10	-1	0.1	-1	-1	355	0.3	355	356	12.5	96.3
2022-10-04T20:16	10	-1	0.1	-1	-1	355	0.2	355	356	12.4	95.9
2022-10-04T20:17	10	-1	0.1	-1	-1	355	0.3	354	356	12.6	95.5
2022-10-04T20:18	10	-1	0.1	-1	-1	356	0.2	355	356	12.6	94.8
2022-10-04T20:19	10	-1	0.1	-1	-1	356	0.3	355	356	12.6	94.1
2022-10-04T20:20	10	-1	0.1	-1	-1	356	0.4	355	357	12.7	93.8
2022-10-04T20:21	10	-1	0.1	-1	-1	356	0.3	356	357	12.5	93.9
2022-10-04T20:22	10	-1	0.1	-1	-1	357	0.5	356	358	12.7	93.5
2022-10-04T20:23	10	-1	0.1	-1	-1	358	0.3	357	358	12.7	92.9
2022-10-04T20:24	10	-1	0.1	-1	-1	359	0.3	358	359	12.6	92.6
2022-10-04T20:25	10	-1	0.1	-1	-1	359	0.3	358	359	12.7	92.6
2022-10-04T20:26	10	-1	0.1	-1	-1	359	0.3	358	360	12.6	92.2
2022-10-04T20:27	10	-1	0.1	-1	-1	359	0.5	359	361	12.6	92.1
2022-10-04T20:28	10	-1	0.1	-1	-1	360	0.2	359	360	12.6	92.0
2022-10-04T20:29	10	-1	0.1	-1	-1	359	0.3	359	360	12.5	92.2
2022-10-04T20:30	10	-1	0.1	-1	-1	358	0.4	357	359	12.1	92.6
2022-10-04T20:31	10	-1	0.1	-1	-1	357	0.3	356	358	11.9	93.3
2022-10-04T20:32	10	-1	0.1	-1	-1	358	0.3	357	358	12.1	94.2
2022-10-04T20:33	10	-1	0.1	-1	-1	358	0.2	357	358	12.1	94.3
2022-10-04T20:34	10	-1	0.1	-1	-1	358	0.2	357	358	12.1	94.3
2022-10-04T20:35	10	-1	0.1	-1	-1	358	0.3	357	358	12.0	94.1
2022-10-04T20:36	10	-1	0.1	-1	-1	357	0.3	356	358	11.9	94.2
2022-10-04T20:37	10	-1	0.1	-1	-1	357	0.3	356	358	12.0	94.3
2022-10-04T20:38	10	-1	0.1	-1	-1	357	0.3	356	357	11.9	94.4
2022-10-04T20:39	10	-1	0.1	-1	-1	356	0.3	355	357	11.9	94.4
2022-10-04T20:40	10	-1	0.1	-1	0	356	0.2	356	356	11.9	94.4
2022-10-04T20:41	10	0	0.1	-1	0	355	0.3	355	356	11.9	94.4
2022-10-04T20:42	10	0	0.1	-1	0	355	0.2	354	356	12.0	94.6
2022-10-04T20:43	10	-1	0.1	-1	0	355	0.3	355	356	12.0	94.5
2022-10-04T20:44	10	-1	0.1	-1	0	355	0.4	354	356	12.0	94.4
2022-10-04T20:45	10	-1	0.1	-1	-1	355	0.2	354	355	12.1	94.4
2022-10-04T20:46	10	-1	0.1	-1	-1	354	0.2	354	355	12.1	94.4
2022-10-04T20:47	10	-1	0.1	-1	-1	355	0.3	354	355	12.1	94.6
2022-10-04T20:48	10	-1	0.1	-1	-1	355	0.5	354	357	12.1	94.8
2022-10-04T20:49	10	-1	0.1	-1	-1	357	0.4	356	358	12.2	94.9
2022-10-04T20:50	10	-1	0.1	-1	-1	358	0.3	357	358	12.2	94.8
2022-10-04T20:51	10	-1	0.1	-1	-1	358	0.3	357	358	12.1	94.8
2022-10-04T20:52	10	-1	0.1	-1	-1	358	0.3	358	359	12.2	95.2
2022-10-04T20:53	10	-1	0.1	-1	-1	357	0.4	357	358	12.0	95.1
2022-10-04T20:54	10	-1	0.1	-1	-1	356	0.4	356	357	12.0	95.3
2022-10-04T20:55	10	-1	0.1	-1	-1	356	0.2	355	356	11.8	95.2
2022-10-04T20:56	10	-1	0.0	-1	-1	355	0.2	355	356	11.8	95.4
2022-10-04T20:57	10	-1	0.1	-1	-1	355	0.2	355	356	11.6	95.5
2022-10-04T20:58	10	-1	0.1	-1	-1	356	0.3	355	356	11.6	95.9
2022-10-04T20:59	10	-1	0.1	-2	-1	356	0.2	355	356	11.7	96.2
2022-10-04T21:00	10	-1	0.1	-2	-1	355	0.3	354	355	11.6	96.2
2022-10-04T21:01	10	-2	0.1	-2	-1	354	0.2	354	355	11.5	96.1
2022-10-04T21:02	10	-2	0.1	-2	-1	354	0.2	353	354	11.4	96.2
2022-10-04T21:03	10	-2	0.1	-2	-1	353	0.2	353	354	11.3	96.2
2022-10-04T21:04	10	-1	0.1	-2	-1	353	0.3	352	354	11.3	96.5
2022-10-04T21:05	10	-1	0.1	-1	-1	353	0.2	353	354	11.1	96.6
2022-10-04T21:06	10	-1	0.1	-1	-1	353	0.2	352	353	11.3	96.9
2022-10-04T21:07	10	-1	0.1	-1	-1	353	0.2	352	353	11.2	96.9
2022-10-04T21:08	10	-1	0.1	-1	-1	353	0.3	352	354	11.3	97.1
2022-10-04T21:09	10	-1	0.1	-1	-1	353	0.3	353	354	12.0	97.5
2022-10-04T21:10	10	-1	0.1	-1	-1	353	0.3	352	354	11.9	97.4
2022-10-04T21:11	10	-1	0.1	-1	-1	353	0.3	352	354	11.9	97.3
2022-10-04T21:12	10	-1	0.1	-1	-1	353	0.3	352	354	12.0	97.1
2022-10-04T21:13	10	-1	0.1	-1	0	353	0.2	352	353	12.2	97.0
2022-10-04T21:14	10	-1	0.2	-1	0	353	0.3	352	353	12.2	96.6
2022-10-04T21:15	10	-1	0.2	-1	0	353	0.2	352	353	12.4	96.3
2022-10-04T21:16	10	-1	0.1	-1	0	353	0.3	352	354	12.4	95.8
2022-10-04T21:17	10	-1	0.2	-1	0	353	0.2	353	354	12.4	95.3
2022-10-04T21:18	10	-1	0.1	-1	0	353	0.2	353	354	12.3	94.8
2022-10-04T21:19	10	-1	0.2	-1	0	354	0.3	353	355	12.3	94.5
2022-10-04T21:20	10	-1	0.2	-1	0	353	0.4	353	354	12.1	94.3
2022-10-04T21:21	10	-1	0.1	-1	0	354	0.5	353	355	12.0	94.3
2022-10-04T21:22	10	-1	0.1	-1	0	354	0.4	354	355	12.0	94.5
2022-10-04T21:23	10	-1	0.2	-1	0	355	0.4	354	355	11.9	94.6
2022-10-04T21:24	10	-1	0.1	-1	0	355	0.3	354	356	11.8	94.7
2022-10-04T21:25	10	-1	0.1	-1	0	355	0.2	355	356	11.8	94.9
2022-10-04T21:26	10	-1	0.1	-1	0	355	0.3	354	356	11.8	95.0
2022-10-04T21:27	10	-1	0.2	-1	0	355	0.4	354	355	11.6	95.0
2022-10-04T21:28	10	-1	0.2	-1	0	354	0.3	354	356	11.5	95.1
2022-10-04T21:29	10	-1	0.1	-1	0	354	0.3	353	355	11.4	95.3
2022-10-04T21:30	10	-1	0.1	-1	0	353	0.4	352	354	11.3	95.5
2022-10-04T21:31	10	-1	0.2	-1	0	353	0.3	352	353	11.2	95.6
2022-10-04T21:32	10	-1	0.2	-1	-1	353	0.3	352	354	11.2	95.8
2022-10-04T21:33	10	-1	0.2	-1	-1	354	0.6	353	355	11.2	96.0
2022-10-04T21:34	10	-1	0.2	-2	-1	355	0.4	354	356	11.2	96.1
2022-10-04T21:35	10	-1	0.2	-2	-1	356	0.4	355	357	11.3	96.1
2022-10-04T21:36	10	-1	0.1	-2	-1	356	0.2	356	357	11.3	96.1
2022-10-04T21:37	10	-1	0.1	-2	-1	355	0.3	355	356	11.2	96.0
2022-10-04T21:38	10	-1	0.1	-2	-1	355	0.4	354	356	11.1	95.9
2022-10-04T21:39	10	-1	0.2	-2	-1	354	0.3	353	355	11.1	96.0
2022-10-04T21:40	10	-2	0.1	-2	-1	354	0.3	353	355	11.0	96.0
2022-10-04T21:41	10	-2	0.1	-2	-2	354	0.2	353	354	10.9	96.1
2022-10-04T21:42	10	-2	0.1	-2	-2	354	0.3	353	354	10.9	96.3
2022-10-04T21:43	10	-2	0.1	-2	-2	354	0.3	353	354	10.9	96.4
2022-10-04T21:44	10	-2	0.1	-2	-1	353	0.3	353	354	10.8	96.5
2022-10-04T21:45	10	-2	0.2	-2	-2	354	0.3	353	354	10.9	96.6
2022-10-04T21:46	10	-2	0.1	-2	-2	354	0.3	353	354	11.0	96.7
2022-10-04T21:47	10	-2	0.1	-2	-2	354	0.3	353	354	11.1	97.0
2022-10-04T21:48	10	-2	0.1	-3	-2	354	0.3	354	355	11.2	97.0
2022-10-04T21:49	10	-2	0.1	-3	-2	354	0.3	354	355	11.1	96.9
2022-10-04T21:50	10	-2	0.1	-2	-2	354	0.4	353	355	11.1	96.8
2022-10-04T21:51	10	-2	0.1	-3	-2	354	0.2	353	354	10.8	96.5
2022-10-04T21:52	10	-2	0.1	-3	-2	354	0.2	354	355	11.0	96.6
2022-10-04T21:53	10	-2	0.1	-3	-2	354	0.3	354	355	11.1	96.6
2022-10-04T21:54	10	-2	0.1	-2	-2	353	0.3	353	354	10.9	96.4
2022-10-04T21:55	10	-2	0.1	-2	-2	354	0.4	353	355	11.1	96.3
2022-10-04T21:56	10	-2	0.1	-2	-2	356	0.3	355	356	11.2	96.2
2022-10-04T21:57	10	-2	0.1	-2	-2	356	0.4	355	357	11.0	95.8
2022-10-04T21:58	10	-2	0.1	-2	-2	356	0.3	356	357	11.2	95.8
2022-10-04T21:59	10	-2	0.1	-2	-2	357	0.3	356	358	11.2	95.6
2022-10-04T22:00	10	-2	0.1	-2	-2	358	0.2	357	358	11.2	95.3
2022-10-04T22:01	10	-2	0.1	-2	-2	358	0.2	357	358	11.3	95.2
2022-10-04T22:02	10	-2	0.1	-2	-2	358	0.3	357	359	11.3	94.9
2022-10-04T22:03	10	-2	0.1	-2	-2	358	0.4	358	359	11.4	94.8
2022-10-04T22:04	10	-2	0.1	-2	-2	359	0.2	358	359	11.4	94.4
2022-10-04T22:05	10	-2	0.1	-2	-2	358	0.2	358	359	11.4	94.2
2022-10-04T22:06	10	-2	0.1	-2	-2	359	0.2	358	359	11.5	94.0
2022-10-04T22:07	10	-2	0.1	-2	-1	359	0.3	358	359	11.5	93.8
2022-10-04T22:08	10	-2	0.1	-2	-1	358	0.2	358	359	11.4	93.6
2022-10-04T22:09	10	-2	0.1	-2	-1	358	0.2	358	359	11.4	93.8
2022-10-04T22:10	10	-2	0.1	-2	-2	358	0.3	357	358	11.4	94.0
2022-10-04T22:11	10	-2	0.1	-2	-2	357	0.4	356	358	11.3	94.3
2022-10-04T22:12	10	-2	0.1	-2	-2	357	0.3	356	357	11.2	94.6
2022-10-04T22:13	10	-2	0.1	-2	-2	356	0.4	355	356	11.1	94.7
2022-10-04T22:14	10	-2	0.1	-2	-2	354	0.3	354	355	11.0	95.0
2022-10-04T22:15	10	-2	0.1	-2	-2	353	0.2	353	354	10.7	95.0
2022-10-04T22:16	10	-2	0.1	-2	-1	353	0.2	352	353	10.6	95.3
2022-10-04T22:17	10	-1	0.1	-2	-1	352	0.3	352	353	10.6	95.5
2022-10-04T22:18	10	-1	0.1	-1	-1	352	0.3	352	353	10.5	95.7
2022-10-04T22:19	10	-1	0.1	-1	-1	352	0.2	352	353	10.7	96.1
2022-10-04T22:20	10	-1	0.1	-2	-1	352	0.3	352	353	10.6	96.1
2022-10-04T22:21	10	-2	0.1	-2	-1	352	0.3	351	353	10.5	96.2
2022-10-04T22:22	10	-2	0.1	-2	-1	352	0.2	351	352	10.4	96.2
2022-10-04T22:23	10	-1	0.1	-2	-1	352	0.2	351	352	10.5	96.5
2022-10-04T22:24	10	-1	0.1	-1	-1	351	0.2	351	352	10.4	96.6
2022-10-04T22:25	10	-1	0.1	-1	-1	351	0.3	351	352	10.4	96.8
2022-10-04T22:26	10	-1	0.1	-1	-1	351	0.3	350	351	10.4	96.9
2022-10-04T22:27	10	-1	0.1	-1	-1	351	0.3	350	351	10.4	96.9
2022-10-04T22:28	10	-1	0.1	-1	-1	350	0.3	350	351	10.4	96.9
2022-10-04T22:29	10	-1	0.1	-1	-1	350	0.3	349	351	10.3	97.0
2022-10-04T22:30	10	-1	0.1	-1	0	350	0.2	350	350	10.3	97.0
2022-10-04T22:31	10	-1	0.1	-1	0	350	0.3	349	351	10.5	97.2
2022-10-04T22:32	10	-1	0.1	-1	0	350	0.4	349	351	10.8	97.4
2022-10-04T22:33	10	-1	0.1	-1	0	350	0.3	349	350	10.9	97.4
2022-10-04T22:34	10	-1	0.1	-1	-1	350	0.3	349	350	10.9	97.2
2022-10-04T22:35	10	-1	0.1	-1	-1	350	0.3	349	350	10.8	96.9
2022-10-04T22:36	10	-1	0.1	-1	-1	350	0.2	350	351	10.9	96.7
2022-10-04T22:37	10	-1	0.1	-1	-1	350	0.3	350	351	10.8	96.3
2022-10-04T22:38	10	-1	0.1	-1	-1	351	0.2	350	351	10.9	96.1
2022-10-04T22:39	10	-1	0.1	-1	-1	351	0.2	350	351	10.8	95.9
2022-10-04T22:40	10	-1	0.1	-1	-1	351	0.3	351	352	10.8	95.8
2022-10-04T22:41	10	-1	0.1	-2	-1	351	0.2	351	352	10.7	95.8
2022-10-04T22:42	10	-1	0.1	-2	-1	351	0.3	350	351	10.7	95.8
2022-10-04T22:43	10	-1	0.1	-2	-1	351	0.3	350	351	10.7	96.0
2022-10-04T22:44	10	-1	0.1	-1	-1	350	0.4	350	351	10.7	96.0
2022-10-04T22:45	10	-1	0.1	-1	-1	351	0.4	350	351	10.7	96.0
2022-10-04T22:46	10	-1	0.1	-1	-1	350	0.5	349	351	10.6	96.0
2022-10-04T22:47	10	-1	0.1	-1	-1	350	0.3	349	351	10.6	96.0
2022-10-04T22:48	10	-1	0.1	-1	-1	350	0.2	349	350	10.7	96.1
2022-10-04T22:49	10	-1	0.1	-1	-1	350	0.4	349	350	10.7	96.2
2022-10-04T22:50	10	-1	0.1	-1	-1	350	0.2	349	350	10.7	96.1
2022-10-04T22:51	10	-1	0.1	-1	-1	349	0.2	348	349	10.6	96.1
2022-10-04T22:52	10	-1	0.1	-1	-1	349	0.2	348	349	10.5	95.9
2022-10-04T22:53	10	-1	0.1	-1	-1	349	0.4	347	349	10.4	96.1
2022-10-04T22:54	10	-1	0.1	-2	-1	348	0.3	348	349	10.4	96.2
2022-10-04T22:55	10	-1	0.1	-2	-1	348	0.2	348	349	10.4	96.3
2022-10-04T22:56	10	-1	0.1	-2	-1	348	0.2	348	349	10.3	96.3
2022-10-04T22:57	10	-1	0.1	-2	-1	348	0.3	347	348	9.9	96.0
2022-10-04T22:58	10	-1	0.1	-1	-1	348	0.3	348	349	9.9	96.2
2022-10-04T22:59	10	-1	0.1	-1	-1	348	0.2	347	349	10.0	96.6
2022-10-04T23:00	10	-1	0.1	-1	-1	348	0.2	348	349	10.0	96.7
2022-10-04T23:01	10	-1	0.1	-1	-1	348	0.3	348	349	10.1	96.9
2022-10-04T23:02	10	-1	0.1	-1	-1	348	0.3	348	349	10.1	97.0
2022-10-04T23:03	10	-1	0.1	-1	-1	349	0.2	348	349	10.1	97.1
2022-10-04T23:04	10	-1	0.1	-1	-1	349	0.3	348	349	10.1	97.1
2022-10-04T23:05	10	-1	0.1	-1	-1	348	0.3	347	349	10.1	97.2
2022-10-04T23:06	10	-1	0.1	-1	0	347	0.3	347	348	10.0	97.2
2022-10-04T23:07	10	-1	0.1	-1	0	347	0.2	347	348	10.0	97.2
2022-10-04T23:08	10	-1	0.1	-1	0	347	0.2	346	348	10.0	97.1
2022-10-04T23:09	10	-1	0.1	-1	0	347	0.2	346	347	10.0	97.2
2022-10-04T23:10	10	-1	0.1	-1	-1	347	0.3	346	347	9.9	97.2
2022-10-04T23:11	10	-1	0.1	-1	-1	347	0.3	346	347	9.8	97.2
2022-10-04T23:12	10	-1	0.1	-1	-1	346	0.3	346	347	9.8	97.2
2022-10-04T23:13	10	-1	0.1	-1	-1	346	0.2	346	347	9.9	97.3
2022-10-04T23:14	10	-1	0.1	-1	-1	346	0.2	346	346	9.9	97.4
2022-10-04T23:15	10	-1	0.1	-1	-1	346	0.3	345	347	9.8	97.4
2022-10-04T23:16	10	-1	0.1	-1	-1	346	0.2	345	346	9.7	97.3
2022-10-04T23:17	10	-1	0.1	-1	-1	346	0.3	346	347	9.6	97.3
2022-10-04T23:18	10	-1	0.1	-1	-1	346	0.2	346	347	9.7	97.4
2022-10-04T23:19	10	-1	0.1	-1	-1	346	0.2	346	347	9.7	97.5
2022-10-04T23:20	10	-1	0.1	-1	-1	346	0.2	346	347	9.7	97.5
2022-10-04T23:21	10	-1	0.1	-1	-1	346	0.2	345	346	9.6	97.6
2022-10-04T23:22	10	-1	0.1	-1	-1	345	0.2	345	346	9.6	97.6
2022-10-04T23:23	10	-1	0.1	-1	0	345	0.3	345	346	9.6	97.6
2022-10-04T23:24	10	-1	0.1	-1	0	345	0.2	345	346	9.6	97.7
2022-10-04T23:25	10	-1	0.1	-1	0	345	0.2	345	346	9.6	97.8
2022-10-04T23:26	10	-1	0.1	-1	0	345	0.2	345	346	9.6	97.8
2022-10-04T23:27	10	-1	0.1	-1	0	345	0.2	345	346	9.6	97.8
2022-10-04T23:28	10	-1	0.1	-1	-1	345	0.2	345	346	9.7	97.9
2022-10-04T23:29	10	-1	0.1	-1	0	345	0.2	344	346	9.6	97.9
2022-10-04T23:30	10	-1	0.1	-1	-1	345	0.2	345	346	9.6	97.9
2022-10-04T23:31	10	-1	0.1	-1	-1	345	0.2	345	345	9.6	97.9
2022-10-04T23:32	10	-1	0.1	-1	-1	345	0.3	344	345	9.5	97.8
2022-10-04T23:33	10	-1	0.1	-1	-1	345	0.2	344	345	9.5	97.8
2022-10-04T23:34	10	-1	0.1	-1	-1	345	0.2	344	345	9.6	97.9
2022-10-04T23:35	10	-1	0.1	-1	-1	345	0.3	344	345	9.7	97.9
2022-10-04T23:36	10	-1	0.1	-2	-1	345	0.4	345	346	9.8	97.9
2022-10-04T23:37	10	-1	0.1	-2	-1	346	0.3	345	347	10.0	98.0
2022-10-04T23:38	10	-2	0.1	-2	-1	345	0.3	345	346	9.9	97.9
2022-10-04T23:39	10	-2	0.1	-2	-1	345	0.2	344	346	9.8	97.8
2022-10-04T23:40	10	-2	0.1	-2	-1	345	0.2	344	345	9.8	97.7
2022-10-04T23:41	10	-2	0.1	-2	-1	345	0.2	344	345	9.7	97.7
2022-10-04T23:42	10	-1	0.1	-2	-1	345	0.2	344	345	9.7	97.7
2022-10-04T23:43	10	-1	0.1	-1	-1	345	0.2	344	345	9.6	97.6
2022-10-04T23:44	10	-1	0.1	-1	-1	344	0.3	344	345	9.6	97.6
2022-10-04T23:45	10	-1	0.1	-1	-1	344	0.2	344	345	9.6	97.6
2022-10-04T23:46	10	-1	0.1	-1	-1	344	0.2	344	345	9.6	97.6
2022-10-04T23:47	10	-1	0.1	-1	-1	344	0.3	344	345	9.6	97.6
2022-10-04T23:48	10	-1	0.1	-1	-1	344	0.2	344	345	9.7	97.7
2022-10-04T23:49	10	-1	0.1	-1	-1	345	0.2	344	345	9.8	97.7
2022-10-04T23:50	10	-1	0.1	-1	-1	345	0.2	345	345	9.8	97.7
2022-10-04T23:51	10	-1	0.1	-1	-1	345	0.2	345	346	9.8	97.7
2022-10-04T23:52	10	-1	0.1	-1	-1	345	0.2	345	346	9.8	97.7
2022-10-04T23:53	10	-1	0.1	-1	-1	345	0.2	345	346	9.9	97.7
2022-10-04T23:54	10	-1	0.1	-1	-1	345	0.3	345	346	9.8	97.6
2022-10-04T23:55	10	-1	0.1	-1	-1	345	0.2	344	345	9.9	97.6
2022-10-04T23:56	10	-1	0.1	-2	-1	345	0.2	345	346	9.9	97.5
2022-10-04T23:57	10	-2	0.1	-2	-1	345	0.3	345	346	9.9	97.4
2022-10-04T23:58	10	-2	0.1	-2	-1	346	0.3	345	346	9.8	97.3
2022-10-04T23:59	10	-2	0.1	-2	-1	346	0.2	345	347	9.8	97.3
2022-10-05T00:00	10	-2	0.1	-2	-1	346	0.2	345	346	9.8	97.2
2022-10-05T00:01	10	-2	0.1	-2	-1	346	0.3	345	347	9.8	97.2
2022-10-05T00:02	10	-2	0.1	-2	-1	346	0.2	345	346	9.6	97.1
2022-10-05T00:03	10	-1	0.1	-2	-1	345	0.2	344	345	9.6	97.1
2022-10-05T00:04	10	-1	0.1	-2	-1	344	0.2	344	345	9.6	97.2
2022-10-05T00:05	10	-1	0.1	-2	-1	344	0.3	344	345	9.5	97.2
2022-10-05T00:06	10	-1	0.1	-1	-1	344	0.3	343	345	9.6	97.2
2022-10-05T00:07	10	-1	0.1	-1	-1	343	0.2	343	344	9.6	97.3
2022-10-05T00:08	10	-1	0.1	-2	-1	343	0.2	343	344	9.6	97.4
2022-10-05T00:09	10	-1	0.1	-2	-1	343	0.2	343	344	9.6	97.4
2022-10-05T00:10	10	-1	0.1	-2	-1	343	0.2	343	344	9.6	97.5
2022-10-05T00:11	10	-1	0.1	-2	-1	343	0.2	343	344	9.7	97.6
2022-10-05T00:12	10	-1	0.1	-2	-1	344	0.3	343	344	9.8	97.7
2022-10-05T00:13	10	-1	0.1	-2	-1	344	0.4	344	345	9.8	97.8
2022-10-05T00:14	10	-1	0.1	-1	-1	345	0.2	344	345	9.9	97.8
2022-10-05T00:15	10	-1	0.1	-1	-1	345	0.3	344	346	9.9	97.8
2022-10-05T00:16	10	-1	0.1	-1	-1	346	0.3	345	346	10.0	97.7
2022-10-05T00:17	10	-1	0.1	-1	-1	346	0.3	345	347	10.1	97.7
2022-10-05T00:18	10	-1	0.1	-1	-1	347	0.3	346	347	10.1	97.5
2022-10-05T00:19	10	-1	0.1	-1	-1	347	0.3	346	348	10.3	97.4
2022-10-05T00:20	10	-1	0.1	-2	-1	348	0.3	347	348	10.3	97.1
2022-10-05T00:21	10	-1	0.1	-2	-1	348	0.2	347	348	10.3	96.8
2022-10-05T00:22	10	-1	0.1	-2	-1	348	0.3	347	348	10.3	96.7
2022-10-05T00:23	10	-1	0.1	-2	-1	347	0.2	347	348	10.2	96.5
2022-10-05T00:24	10	-1	0.1	-2	-1	347	0.2	346	348	10.2	96.4
2022-10-05T00:25	10	-1	0.1	-2	-1	347	0.2	346	348	10.1	96.4
2022-10-05T00:26	10	-1	0.1	-1	-1	346	0.3	346	347	10.1	96.6
2022-10-05T00:27	10	-1	0.1	-1	-1	346	0.3	345	347	10.1	96.6
2022-10-05T00:28	10	-1	0.1	-1	-1	345	0.3	345	346	10.0	96.7
2022-10-05T00:29	10	-1	0.1	-1	0	345	0.2	345	346	9.9	96.6
2022-10-05T00:30	10	-1	0.2	-1	0	345	0.4	344	346	9.9	96.7
2022-10-05T00:31	10	-1	0.1	-1	0	345	0.3	344	346	10.0	96.8
2022-10-05T00:32	10	-1	0.2	-1	-1	344	0.3	344	345	9.8	96.8
2022-10-05T00:33	10	-1	0.1	-1	-1	345	0.3	344	346	9.8	96.8
2022-10-05T00:34	10	-1	0.1	-1	-1	345	0.4	344	346	9.9	97.0
2022-10-05T00:35	10	-1	0.2	-1	-1	346	0.8	345	347	10.0	97.1
2022-10-05T00:36	10	-1	0.2	-2	-1	345	0.2	345	346	10.2	97.2
2022-10-05T00:37	10	-1	0.2	-2	-1	345	0.4	344	346	10.0	96.9
2022-10-05T00:38	10	-1	0.1	-2	-1	344	0.3	344	345	9.7	96.7
2022-10-05T00:39	10	-1	0.1	-2	-1	344	0.4	343	345	9.8	96.8
2022-10-05T00:40	10	-1	0.2	-2	-1	344	0.4	343	344	9.7	96.9
2022-10-05T00:41	10	-1	0.1	-2	-1	344	0.5	343	345	9.7	97.0
2022-10-05T00:42	10	-1	0.2	-2	-1	344	0.5	343	345	9.9	97.3
2022-10-05T00:43	10	-1	0.2	-2	-1	344	0.4	343	344	9.9	97.3
2022-10-05T00:44	10	-1	0.2	-2	-1	344	0.3	343	344	10.0	97.3
2022-10-05T00:45	10	-1	0.2	-2	-1	344	0.3	343	344	10.0	97.1
2022-10-05T00:46	10	-1	0.1	-2	-1	344	0.3	343	344	10.0	96.8
2022-10-05T00:47	10	-1	0.2	-2	-1	344	0.4	343	345	9.9	96.6
2022-10-05T00:48	10	-1	0.2	-2	-1	344	0.3	343	345	10.0	96.4
2022-10-05T00:49	10	-1	0.2	-2	-1	344	0.4	343	345	10.1	96.1
2022-10-05T00:50	10	-1	0.2	-2	-1	344	0.4	343	345	9.9	95.7
2022-10-05T00:51	10	-1	0.2	-2	-1	344	0.3	343	344	9.7	95.4
2022-10-05T00:52	10	-1	0.1	-2	-1	344	0.3	343	345	9.7	95.5
2022-10-05T00:53	10	-1	0.1	-2	-1	344	0.3	343	344	9.6	95.6
2022-10-05T00:54	10	-1	0.2	-2	-1	344	0.2	343	344	9.6	95.7
2022-10-05T00:55	10	-1	0.1	-1	-1	344	0.3	343	344	9.5	95.8
2022-10-05T00:56	10	-1	0.1	-2	-1	343	0.2	343	344	9.6	95.9
2022-10-05T00:57	10	-1	0.2	-2	-1	343	0.2	343	344	9.6	96.0
2022-10-05T00:58	10	-1	0.2	-2	-1	343	0.3	342	344	9.6	96.0
2022-10-05T00:59	10	-1	0.2	-2	-1	344	0.3	343	344	9.6	96.0
2022-10-05T01:00	10	-1	0.1	-2	-1	344	0.2	343	344	9.6	96.0
2022-10-05T01:01	10	-1	0.2	-2	-1	343	0.2	343	344	9.4	96.0
2022-10-05T01:02	10	-1	0.2	-1	-1	343	0.3	342	344	9.4	96.1
2022-10-05T01:03	10	-1	0.1	-1	-1	343	0.2	342	343	9.4	96.1
2022-10-05T01:04	10	-1	0.1	-1	-1	343	0.2	342	343	9.3	96.2
2022-10-05T01:05	10	-1	0.2	-1	0	343	0.3	342	344	9.4	96.3
2022-10-05T01:06	10	-1	0.2	-1	0	343	0.2	343	344	9.5	96.4
2022-10-05T01:07	10	-1	0.1	-1	0	343	0.3	343	344	9.5	96.5
2022-10-05T01:08	10	-1	0.1	-1	-1	343	0.2	343	344	9.5	96.4
2022-10-05T01:09	10	-1	0.2	-1	0	343	0.2	343	344	9.5	96.5
2022-10-05T01:10	10	-1	0.1	-1	0	343	0.2	343	344	9.4	96.5
2022-10-05T01:11	10	-1	0.2	-1	0	343	0.3	342	344	9.3	96.5
2022-10-05T01:12	10	-1	0.1	-1	0	343	0.2	342	343	9.4	96.5
2022-10-05T01:13	10	-1	0.1	-1	-1	343	0.2	342	343	9.4	96.6
2022-10-05T01:14	10	-1	0.1	-1	0	343	0.2	342	343	9.5	96.6
2022-10-05T01:15	10	-1	0.1	-1	-1	342	0.4	341	343	9.4	96.5
2022-10-05T01:16	10	-1	0.1	-1	-1	342	0.4	341	343	9.1	96.3
2022-10-05T01:17	10	-1	0.1	-1	-1	343	0.2	342	343	9.0	96.4
2022-10-05T01:18	10	-1	0.1	-1	-1	342	0.2	342	343	9.0	96.6
2022-10-05T01:19	10	-1	0.1	-1	-1	342	0.2	341	342	8.9	96.8
2022-10-05T01:20	10	-1	0.1	-1	-1	342	0.2	341	342	8.8	96.9
2022-10-05T01:21	10	-1	0.1	-1	-1	341	0.2	341	342	8.9	97.1
2022-10-05T01:22	10	-1	0.1	-1	-1	341	0.2	341	342	9.0	97.3
2022-10-05T01:23	10	-1	0.1	-1	-1	341	0.2	340	341	9.0	97.4
2022-10-05T01:24	10	-1	0.1	-1	-1	341	0.2	340	341	8.9	97.5
2022-10-05T01:25	10	-1	0.1	-1	-1	341	0.2	340	342	8.9	97.5
2022-10-05T01:26	10	-1	0.1	-1	-1	341	0.2	340	341	9.0	97.6
2022-10-05T01:27	10	-1	0.1	-1	-1	341	0.2	341	342	9.1	97.7
2022-10-05T01:28	10	-1	0.1	-1	-1	341	0.4	340	342	9.2	97.8
2022-10-05T01:29	10	-1	0.1	-1	-1	342	0.2	341	342	9.2	97.8
2022-10-05T01:30	10	-1	0.1	-1	-1	341	0.2	341	342	9.1	97.7
2022-10-05T01:31	10	-1	0.1	-1	-1	341	0.2	341	342	9.1	97.6
2022-10-05T01:32	10	-1	0.1	-1	-1	341	0.2	341	342	9.1	97.5
2022-10-05T01:33	10	-1	0.1	-1	-1	341	0.2	341	342	9.0	97.4
2022-10-05T01:34	10	-1	0.1	-1	-1	341	0.2	341	341	9.0	97.3
2022-10-05T01:35	10	-1	0.1	-1	-1	341	0.4	340	341	9.0	97.2
2022-10-05T01:36	10	-1	0.1	-2	-1	341	0.3	340	341	9.0	97.1
2022-10-05T01:37	10	-2	0.1	-2	-1	341	0.3	341	342	9.1	97.0
2022-10-05T01:38	10	-2	0.1	-2	-2	341	0.3	340	341	9.1	96.9
2022-10-05T01:39	10	-2	0.1	-2	-2	341	0.2	341	341	8.8	96.6
2022-10-05T01:40	10	-2	0.1	-2	-2	342	0.2	341	342	8.9	96.7
2022-10-05T01:41	10	-2	0.1	-3	-2	342	0.2	341	342	9.1	96.8
2022-10-05T01:42	10	-3	0.1	-3	-2	342	0.3	341	342	9.1	96.8
2022-10-05T01:43	10	-3	0.1	-3	-2	342	0.2	341	342	8.9	96.5
2022-10-05T01:44	10	-3	0.1	-3	-3	342	0.2	342	342	8.9	96.4
2022-10-05T01:45	10	-3	0.1	-3	-2	342	0.2	342	343	8.9	96.4
2022-10-05T01:46	10	-2	0.1	-2	-2	342	0.3	342	343	9.0	96.4
2022-10-05T01:47	10	-2	0.1	-2	-2	343	0.4	342	343	9.1	96.4
2022-10-05T01:48	10	-2	0.1	-2	-2	343	0.3	343	344	9.1	96.3
2022-10-05T01:49	10	-2	0.1	-2	-2	344	0.3	343	345	9.2	96.2
2022-10-05T01:50	10	-2	0.1	-2	-2	345	0.3	344	345	9.4	96.2
2022-10-05T01:51	10	-2	0.1	-2	-2	345	0.2	344	345	9.5	95.7
2022-10-05T01:52	10	-2	0.1	-2	-2	345	0.3	344	345	9.6	95.3
2022-10-05T01:53	10	-2	0.1	-2	-2	346	0.5	345	347	9.8	94.8
2022-10-05T01:54	10	-2	0.0	-2	-2	347	0.3	346	347	9.9	93.8
2022-10-05T01:55	10	-2	0.1	-2	-2	346	0.2	346	347	9.9	93.1
2022-10-05T01:56	10	-2	0.1	-2	-2	346	0.2	346	347	9.9	92.8
2022-10-05T01:57	10	-2	0.1	-2	-2	346	0.3	345	347	9.9	92.5
2022-10-05T01:58	10	-2	0.1	-2	-2	346	0.3	345	347	10.1	92.1
2022-10-05T01:59	10	-2	0.1	-2	-2	346	0.3	345	346	10.0	91.7
2022-10-05T02:00	10	-2	0.1	-2	-1	345	0.3	344	345	9.9	91.6
2022-10-05T02:01	10	-1	0.1	-2	-1	344	0.3	344	345	10.0	91.8
2022-10-05T02:02	10	-1	0.1	-2	-1	344	0.3	343	344	9.9	91.6
2022-10-05T02:03	10	-1	0.1	-1	-1	343	0.3	343	344	9.8	91.7
2022-10-05T02:04	10	-1	0.1	-1	-1	343	0.4	343	344	9.7	92.0
2022-10-05T02:05	10	-1	0.1	-2	-1	344	0.2	343	344	9.8	92.3
2022-10-05T02:06	10	-2	0.1	-2	-1	344	0.2	343	344	9.6	92.2
2022-10-05T02:07	10	-2	0.1	-2	-2	344	0.2	344	345	9.7	92.5
2022-10-05T02:08	10	-2	0.1	-2	-2	344	0.2	343	345	9.8	92.1
2022-10-05T02:09	10	-2	0.1	-2	-2	344	0.2	344	345	9.7	91.9
2022-10-05T02:10	10	-2	0.0	-2	-2	344	0.2	344	345	9.7	92.1
2022-10-05T02:11	10	-2	0.1	-2	-1	344	0.3	343	344	9.6	92.0
2022-10-05T02:12	10	-1	0.1	-2	-1	344	0.3	343	344	9.5	92.2
2022-10-05T02:13	10	-1	0.1	-1	-1	344	0.3	344	345	9.4	92.4
2022-10-05T02:14	10	-1	0.1	-1	-1	344	0.2	344	345	9.4	92.6
2022-10-05T02:15	10	-1	0.1	-1	-1	344	0.3	344	345	9.4	93.0
2022-10-05T02:16	10	-1	0.1	-1	-1	345	0.2	344	345	9.4	93.1
2022-10-05T02:17	10	-1	0.1	-1	-1	345	0.3	344	345	9.5	92.9
2022-10-05T02:18	10	-1	0.1	-1	-1	345	0.3	344	346	9.5	92.9
2022-10-05T02:19	10	-1	0.0	-1	-1	345	0.2	345	346	9.6	92.8
2022-10-05T02:20	10	-1	0.1	-1	-1	345	0.3	344	345	9.7	92.7
2022-10-05T02:21	10	-1	0.1	-1	-1	344	0.2	343	345	9.6	92.4
2022-10-05T02:22	10	-1	0.1	-1	-1	344	0.4	343	345	9.6	92.4
2022-10-05T02:23	10	-1	0.1	-1	-1	343	0.3	343	344	9.5	92.4
2022-10-05T02:24	10	-1	0.1	-2	-1	343	0.3	342	343	9.4	92.8
2022-10-05T02:25	10	-1	0.1	-2	-1	342	0.2	341	343	9.4	92.9
2022-10-05T02:26	10	-2	0.1	-2	-1	342	0.4	341	343	9.3	93.2
2022-10-05T02:27	10	-2	0.1	-2	-1	341	0.3	341	342	9.4	93.6
2022-10-05T02:28	10	-2	0.1	-2	-2	341	0.2	341	342	9.4	93.8
2022-10-05T02:29	10	-2	0.1	-2	-2	341	0.3	341	342	9.2	93.7
2022-10-05T02:30	10	-2	0.1	-2	-2	341	0.3	340	341	9.3	93.9
2022-10-05T02:31	10	-2	0.1	-2	-2	340	0.5	339	342	9.2	93.9
2022-10-05T02:32	10	-2	0.1	-2	-1	340	0.5	339	341	9.1	93.8
2022-10-05T02:33	10	-2	0.1	-2	-1	340	0.4	339	341	9.0	93.9
2022-10-05T02:34	10	-1	0.1	-2	-1	340	0.4	339	341	9.0	94.0
2022-10-05T02:35	10	-1	0.1	-1	-1	340	0.4	340	341	9.1	94.4
2022-10-05T02:36	10	-1	0.1	-1	-1	340	0.2	340	341	9.2	94.6
2022-10-05T02:37	10	-1	0.1	-2	-1	340	0.3	339	341	9.1	94.5
2022-10-05T02:38	10	-1	0.1	-2	-1	340	0.4	339	341	9.1	94.5
2022-10-05T02:39	10	-1	0.1	-2	-1	340	0.3	339	340	9.1	94.7
2022-10-05T02:40	10	-1	0.1	-2	-1	340	0.4	339	341	9.1	94.8
2022-10-05T02:41	10	-2	0.1	-2	-1	341	0.3	340	341	8.9	94.8
2022-10-05T02:42	10	-1	0.1	-2	-1	341	0.3	340	342	9.0	95.0
2022-10-05T02:43	10	-1	0.1	-2	-1	341	0.3	340	341	8.9	95.1
2022-10-05T02:44	10	-1	0.1	-2	-1	341	0.3	340	341	8.8	95.2
2022-10-05T02:45	10	-2	0.1	-2	-1	341	0.2	340	341	8.7	95.5
2022-10-05T02:46	10	-2	0.1	-2	-2	341	0.2	340	341	8.5	95.8
2022-10-05T02:47	10	-2	0.1	-2	-2	340	0.3	340	341	8.6	96.1
2022-10-05T02:48	10	-2	0.1	-2	-1	340	0.2	340	340	8.5	96.3
2022-10-05T02:49	10	-2	0.1	-2	-1	340	0.5	339	340	8.5	96.3
2022-10-05T02:50	10	-1	0.1	-2	-1	339	0.2	339	340	8.4	96.4
2022-10-05T02:51	10	-2	0.1	-2	-2	339	0.4	338	340	8.4	96.4
2022-10-05T02:52	10	-2	0.1	-2	-2	340	0.3	339	340	8.5	96.4
2022-10-05T02:53	10	-2	0.1	-2	-2	340	0.3	340	341	8.5	96.5
2022-10-05T02:54	10	-2	0.1	-2	-1	341	0.2	340	341	8.6	96.5
2022-10-05T02:55	10	-1	0.1	-2	-1	341	0.3	340	342	8.6	96.3
2022-10-05T02:56	10	-1	0.1	-2	-1	341	0.3	341	342	8.4	96.0
2022-10-05T02:57	10	-2	0.1	-2	-1	341	0.2	340	341	8.2	95.8
2022-10-05T02:58	10	-2	0.1	-2	-1	340	0.3	340	341	8.3	95.9
2022-10-05T02:59	10	-2	0.1	-2	-2	340	0.3	339	340	8.2	95.8
2022-10-05T03:00	10	-2	0.1	-2	-2	340	0.2	339	340	8.2	95.8
2022-10-05T03:01	10	-2	0.1	-2	-2	339	0.3	339	340	8.1	95.8
2022-10-05T03:02	10	-2	0.1	-2	-2	339	0.3	339	340	8.1	95.9
2022-10-05T03:03	10	-2	0.1	-2	-2	340	0.3	339	340	8.1	96.0
2022-10-05T03:04	10	-2	0.1	-2	-2	340	0.2	339	340	8.1	96.0
2022-10-05T03:05	10	-2	0.1	-2	-2	340	0.2	340	341	8.1	96.1
2022-10-05T03:06	10	-2	0.1	-2	-1	340	0.2	339	340	8.1	96.2
2022-10-05T03:07	10	-2	0.1	-2	-1	339	0.3	339	340	8.2	96.2
2022-10-05T03:08	10	-1	0.1	-2	-1	340	0.2	339	340	8.2	96.3
2022-10-05T03:09	10	-2	0.1	-2	-1	339	0.2	339	340	8.2	96.3
2022-10-05T03:10	10	-2	0.1	-2	-2	339	0.3	338	340	8.1	96.2
2022-10-05T03:11	10	-2	0.1	-2	-2	340	0.4	339	341	8.1	96.3
2022-10-05T03:12	10	-2	0.1	-2	-2	340	0.2	339	340	8.1	96.4
2022-10-05T03:13	10	-2	0.1	-2	-2	339	0.3	339	340	8.1	96.5
2022-10-05T03:14	10	-2	0.1	-2	-1	339	0.2	339	340	8.1	96.7
2022-10-05T03:15	10	-1	0.1	-2	-1	339	0.2	339	340	8.1	96.9
2022-10-05T03:16	10	-1	0.1	-2	-1	339	0.3	338	340	8.1	97.0
2022-10-05T03:17	10	-2	0.1	-2	-1	340	0.3	339	341	8.3	97.1
2022-10-05T03:18	10	-1	0.1	-2	-1	340	0.3	339	340	8.5	97.2
2022-10-05T03:19	10	-2	0.1	-2	-1	340	0.3	339	340	8.6	97.1
2022-10-05T03:20	10	-1	0.1	-2	-1	339	0.2	339	340	8.4	96.9
2022-10-05T03:21	10	-2	0.1	-2	-1	339	0.3	339	340	8.5	96.9
2022-10-05T03:22	10	-1	0.1	-2	-1	339	0.2	339	340	8.5	96.8
2022-10-05T03:23	10	-1	0.1	-2	-1	339	0.3	338	340	8.6	96.8
2022-10-05T03:24	10	-1	0.1	-2	-1	339	0.2	339	340	8.8	96.8
2022-10-05T03:25	10	-1	0.1	-2	-1	339	0.2	339	340	8.8	96.6
2022-10-05T03:26	10	-1	0.1	-1	-1	339	0.3	338	339	8.7	96.3
2022-10-05T03:27	10	-1	0.1	-1	-1	339	0.2	338	339	8.6	96.2
2022-10-05T03:28	10	-1	0.1	-1	-1	338	0.3	338	339	8.7	96.2
2022-10-05T03:29	10	-1	0.1	-1	-1	338	0.2	338	339	8.8	96.3
2022-10-05T03:30	10	-1	0.1	-1	-1	338	0.3	338	339	8.8	96.2
2022-10-05T03:31	10	-1	0.1	-1	-1	338	0.3	338	339	8.7	96.1
2022-10-05T03:32	10	-1	0.1	-1	-1	338	0.4	338	339	8.7	96.1
2022-10-05T03:33	10	-1	0.1	-1	-1	338	0.2	338	339	8.6	96.0
2022-10-05T03:34	10	-1	0.1	-1	-1	338	0.3	338	339	8.6	96.1
2022-10-05T03:35	10	-1	0.1	-1	-1	338	0.6	338	340	8.8	96.3
2022-10-05T03:36	10	-1	0.1	-1	-1	338	0.2	337	338	8.4	95.9
2022-10-05T03:37	10	-1	0.1	-1	-1	338	0.3	337	339	8.8	96.3
2022-10-05T03:38	10	-1	0.1	-2	-1	338	0.3	338	339	8.7	96.0
2022-10-05T03:39	10	-1	0.1	-2	-1	339	0.5	339	340	9.0	96.0
2022-10-05T03:40	10	-1	0.1	-2	-1	340	0.3	339	341	9.3	95.5
2022-10-05T03:41	10	-1	0.1	-2	-1	340	0.2	340	341	9.2	94.6
2022-10-05T03:42	10	-1	0.1	-1	-1	341	0.2	340	341	9.2	93.9
2022-10-05T03:43	10	-1	0.1	-1	-1	341	0.2	340	341	9.2	93.7
2022-10-05T03:44	10	-1	0.1	-1	-1	340	0.3	340	341	9.1	93.6
2022-10-05T03:45	10	-1	0.1	-1	-1	340	0.2	339	340	9.0	93.6
2022-10-05T03:46	10	-1	0.1	-1	-1	340	0.2	340	341	9.1	93.8
2022-10-05T03:47	10	-1	0.1	-1	-1	341	0.3	340	341	9.2	93.9
2022-10-05T03:48	10	-2	0.1	-2	-1	341	0.3	340	342	9.2	93.4
2022-10-05T03:49	10	-2	0.1	-2	-1	341	0.2	341	342	9.1	93.1
2022-10-05T03:50	10	-2	0.1	-2	-2	341	0.2	340	342	9.0	93.3
2022-10-05T03:51	10	-2	0.1	-2	-2	341	0.3	340	341	8.9	93.7
2022-10-05T03:52	10	-2	0.1	-2	-1	341	0.3	340	341	8.9	94.0
2022-10-05T03:53	10	-2	0.1	-2	-1	341	0.3	340	341	9.1	94.2
2022-10-05T03:54	10	-2	0.1	-2	-1	341	0.2	340	341	9.0	93.8
2022-10-05T03:55	10	-1	0.1	-2	-1	341	0.3	340	341	9.0	93.9
2022-10-05T03:56	10	-1	0.1	-2	-1	340	0.3	340	341	8.9	93.9
2022-10-05T03:57	10	-1	0.1	-1	-1	339	0.3	339	340	8.8	93.9
2022-10-05T03:58	10	-1	0.1	-1	-1	339	0.3	338	339	8.9	94.2
2022-10-05T03:59	10	-1	0.1	-1	-1	338	0.3	337	339	8.8	94.3
2022-10-05T04:00	10	-1	0.1	-1	-1	338	0.3	337	338	8.6	94.3
2022-10-05T04:01	10	-1	0.1	-1	-1	338	0.3	337	338	8.7	94.8
2022-10-05T04:02	10	-1	0.1	-1	-1	337	0.3	337	338	8.6	94.9
2022-10-05T04:03	10	-1	0.1	-1	-1	337	0.3	337	338	8.7	95.1
2022-10-05T04:04	10	-1	0.1	-2	-1	337	0.2	337	338	8.9	95.3
2022-10-05T04:05	10	-1	0.1	-2	-1	337	0.3	336	338	8.9	95.0
2022-10-05T04:06	10	-1	0.1	-2	-1	337	0.2	337	338	8.7	94.8
2022-10-05T04:07	10	-2	0.1	-2	-1	337	0.3	336	338	8.8	95.1
2022-10-05T04:08	10	-2	0.1	-2	-1	337	0.2	336	337	8.8	94.9
2022-10-05T04:09	10	-2	0.1	-2	-1	337	0.3	336	337	8.6	94.9
2022-10-05T04:10	10	-2	0.1	-2	-1	336	0.2	336	337	8.4	95.1
2022-10-05T04:11	10	-1	0.1	-2	-1	337	0.4	336	337	8.4	95.3
2022-10-05T04:12	10	-1	0.1	-2	-1	337	0.2	336	337	8.6	95.8
2022-10-05T04:13	10	-1	0.1	-2	-1	337	0.2	336	337	8.6	95.7
2022-10-05T04:14	10	-1	0.1	-2	-1	337	0.2	336	337	8.4	95.5
2022-10-05T04:15	10	-1	0.1	-2	-1	337	0.3	336	337	8.3	95.4
2022-10-05T04:16	10	-1	0.1	-2	-1	337	0.5	336	338	8.3	95.6
2022-10-05T04:17	10	-1	0.1	-1	-1	338	0.2	337	339	8.3	95.7
2022-10-05T04:18	10	-1	0.1	-2	-1	338	0.3	338	339	8.3	95.9
2022-10-05T04:19	10	-2	0.1	-2	-1	338	0.2	337	338	8.3	95.9
2022-10-05T04:20	10	-2	0.1	-2	-1	338	0.3	337	338	8.3	96.1
2022-10-05T04:21	10	-2	0.1	-2	-2	338	0.3	337	338	8.3	96.1
2022-10-05T04:22	10	-2	0.1	-2	-2	338	0.2	337	338	8.2	96.1
2022-10-05T04:23	10	-2	0.1	-2	-2	338	0.3	337	338	8.2	96.1
2022-10-05T04:24	10	-2	0.1	-2	-2	338	0.2	338	339	8.1	96.0
2022-10-05T04:25	10	-2	0.1	-2	-2	338	0.3	337	338	8.1	96.0
2022-10-05T04:26	10	-2	0.1	-2	-2	337	0.2	337	338	7.9	95.8
2022-10-05T04:27	10	-2	0.1	-2	-2	337	0.3	336	338	7.9	96.0
2022-10-05T04:28	10	-2	0.1	-2	-2	337	0.2	337	338	8.0	96.2
2022-10-05T04:29	10	-2	0.1	-2	-2	337	0.3	337	338	7.8	96.1
2022-10-05T04:30	10	-2	0.1	-3	-2	338	0.4	337	339	7.9	96.3
2022-10-05T04:31	10	-3	0.1	-3	-3	339	0.2	338	339	8.0	96.5
2022-10-05T04:32	10	-3	0.1	-3	-3	339	0.3	339	340	8.4	96.7
2022-10-05T04:33	10	-3	0.1	-3	-3	339	0.2	339	340	8.7	96.8
2022-10-05T04:34	10	-3	0.1	-3	-3	339	0.3	338	339	8.8	96.4
2022-10-05T04:35	10	-3	0.1	-3	-3	338	0.3	338	339	8.6	95.8
2022-10-05T04:36	10	-3	0.1	-3	-3	338	0.3	337	338	8.4	95.6
2022-10-05T04:37	10	-2	0.1	-3	-2	337	0.3	337	338	8.4	95.8
2022-10-05T04:38	10	-2	0.1	-3	-2	338	0.2	337	338	8.4	95.9
2022-10-05T04:39	10	-2	0.1	-2	-2	338	0.3	337	338	8.5	95.9
2022-10-05T04:40	10	-2	0.1	-2	-2	338	0.2	337	338	8.4	95.8
2022-10-05T04:41	10	-2	0.1	-2	-2	338	0.2	337	338	8.3	95.7
2022-10-05T04:42	10	-2	0.1	-2	-2	338	0.3	337	338	8.2	95.8
2022-10-05T04:43	10	-2	0.1	-2	-2	338	0.2	337	339	8.2	96.0
2022-10-05T04:44	10	-2	0.1	-2	-2	338	0.2	338	339	8.2	96.2
2022-10-05T04:45	10	-2	0.1	-2	-2	338	0.2	338	339	8.1	96.3
2022-10-05T04:46	10	-2	0.1	-2	-2	339	0.2	338	339	8.3	96.6
2022-10-05T04:47	10	-2	0.1	-2	-2	339	0.2	338	339	8.4	96.7
2022-10-05T04:48	10	-2	0.1	-2	-2	339	0.2	338	339	8.5	96.7
2022-10-05T04:49	10	-2	0.1	-2	-1	339	0.2	338	340	8.4	96.5
2022-10-05T04:50	10	-2	0.1	-2	-2	339	0.2	338	339	8.3	96.5
2022-10-05T04:51	10	-2	0.1	-2	-2	339	0.2	338	339	8.3	96.7
2022-10-05T04:52	10	-2	0.1	-2	-2	338	0.2	338	339	8.4	96.7
2022-10-05T04:53	10	-2	0.1	-2	-2	338	0.4	337	339	8.4	96.7
2022-10-05T04:54	10	-2	0.1	-2	-2	338	0.3	337	339	8.1	96.4
2022-10-05T04:55	10	-2	0.1	-2	-2	339	0.4	338	340	8.3	96.6
2022-10-05T04:56	10	-2	0.1	-2	-2	339	0.3	338	339	8.7	96.6
2022-10-05T04:57	10	-2	0.1	-2	-2	339	0.2	338	339	8.5	96.0
2022-10-05T04:58	10	-2	0.1	-2	-2	338	0.2	338	339	8.4	95.7
2022-10-05T04:59	10	-2	0.1	-2	-2	338	0.3	338	339	8.3	95.5
2022-10-05T05:00	10	-2	0.1	-2	-2	338	0.2	338	339	8.2	95.5
2022-10-05T05:01	10	-2	0.1	-2	-2	338	0.2	338	339	8.3	95.7
2022-10-05T05:02	10	-2	0.1	-2	-2	338	0.2	338	339	8.4	95.9
2022-10-05T05:03	10	-2	0.1	-2	-2	339	0.3	338	339	8.4	95.8
2022-10-05T05:04	10	-2	0.1	-2	-2	339	0.3	339	340	8.6	95.9
2022-10-05T05:05	10	-2	0.1	-2	-2	339	0.4	338	340	8.7	95.7
2022-10-05T05:06	10	-2	0.1	-2	-2	338	0.2	338	338	8.8	95.3
2022-10-05T05:07	10	-2	0.1	-2	-2	338	0.2	337	338	8.7	95.0
2022-10-05T05:08	10	-2	0.1	-2	-2	338	0.2	338	339	8.7	94.9
2022-10-05T05:09	10	-2	0.1	-2	-1	338	0.2	338	338	8.7	94.9
2022-10-05T05:10	10	-1	0.1	-2	-1	338	0.2	338	339	8.7	94.7
2022-10-05T05:11	10	-1	0.1	-1	-1	338	0.3	337	339	8.8	94.8
2022-10-05T05:12	10	-1	0.1	-1	-1	338	0.2	337	338	8.7	94.6
2022-10-05T05:13	10	-1	0.1	-1	-1	338	0.2	337	338	8.7	94.7
2022-10-05T05:14	10	-1	0.1	-1	-1	337	0.8	335	338	8.6	94.6
2022-10-05T05:15	10	-1	0.1	-1	-1	337	0.2	337	337	8.5	94.6
2022-10-05T05:16	10	-1	0.1	-1	-1	337	0.3	337	338	8.6	95.0
2022-10-05T05:17	10	-1	0.1	-1	-1	337	0.3	336	337	8.7	95.0
2022-10-05T05:18	10	-1	0.1	-1	-1	337	0.3	337	338	8.7	94.8
2022-10-05T05:19	10	-1	0.1	-1	-1	338	0.2	337	338	8.7	94.6
2022-10-05T05:20	10	-1	0.1	-2	-1	338	0.2	337	338	8.6	94.3
2022-10-05T05:21	10	-2	0.1	-2	-1	338	0.2	337	338	8.6	94.2
2022-10-05T05:22	10	-2	0.1	-2	-1	338	0.2	337	338	8.5	94.2
2022-10-05T05:23	10	-2	0.1	-2	-2	338	0.3	337	338	8.4	94.3
2022-10-05T05:24	10	-2	0.1	-2	-1	338	0.2	337	338	8.4	94.4
2022-10-05T05:25	10	-2	0.1	-2	-1	337	0.3	337	338	8.3	94.5
2022-10-05T05:26	10	-1	0.1	-2	-1	337	0.4	336	338	8.3	94.6
2022-10-05T05:27	10	-1	0.0	-1	-1	336	0.2	336	337	8.2	94.6
2022-10-05T05:28	10	-1	0.0	-1	-1	336	0.3	336	337	8.2	94.8
2022-10-05T05:29	10	-1	0.1	-1	-1	336	0.3	335	337	8.2	94.9
2022-10-05T05:30	10	-1	0.1	-1	-1	336	0.2	335	336	8.2	94.9
2022-10-05T05:31	10	-2	0.1	-2	-1	336	0.2	335	336	8.2	95.0
2022-10-05T05:32	10	-2	0.1	-2	-1	336	0.2	335	336	8.1	95.0
2022-10-05T05:33	10	-2	0.1	-2	-2	336	0.2	335	336	8.1	95.0
2022-10-05T05:34	10	-2	0.1	-2	-2	335	0.2	335	336	8.1	95.0
2022-10-05T05:35	10	-2	0.1	-2	-2	335	0.3	335	336	8.0	95.0
2022-10-05T05:36	10	-2	0.1	-2	-2	335	0.2	335	336	8.0	95.2
2022-10-05T05:37	10	-2	0.1	-2	-2	336	0.3	335	336	7.9	95.2
2022-10-05T05:38	10	-2	0.1	-2	-1	335	0.3	335	336	7.9	95.3
2022-10-05T05:39	10	-2	0.1	-2	-1	335	0.2	335	336	7.8	95.4
2022-10-05T05:40	10	-1	0.1	-2	-1	335	0.2	335	336	7.8	95.6
2022-10-05T05:41	10	-1	0.1	-1	-1	336	0.3	335	336	7.7	95.7
2022-10-05T05:42	10	-1	0.1	-1	0	336	0.2	335	336	7.7	95.8
2022-10-05T05:43	10	0	0.1	0	0	336	0.2	335	336	7.8	95.9
2022-10-05T05:44	10	0	0.1	0	0	336	0.3	335	336	7.7	95.9
2022-10-05T05:45	10	0	0.1	0	0	336	0.3	335	337	7.7	96.0
2022-10-05T05:46	10	0	0.1	0	0	336	0.3	335	336	7.7	96.0
2022-10-05T05:47	10	0	0.1	0	1	336	0.3	335	337	7.5	95.9
2022-10-05T05:48	10	0	0.1	0	0	336	0.2	336	337	7.3	96.0
2022-10-05T05:49	10	0	0.1	0	1	337	0.2	336	337	7.4	96.4
2022-10-05T05:50	10	0	0.1	0	1	337	0.2	336	337	7.5	96.7
2022-10-05T05:51	10	1	0.1	0	1	337	0.2	336	337	7.6	96.9
2022-10-05T05:52	10	1	0.1	0	1	337	0.3	337	338	7.6	97.0
2022-10-05T05:53	10	1	0.1	0	1	338	0.3	337	339	7.7	97.1
2022-10-05T05:54	10	1	0.1	1	1	338	0.2	338	339	7.8	97.2
2022-10-05T05:55	10	1	0.1	1	1	338	0.2	338	339	7.8	97.1
2022-10-05T05:56	10	1	0.1	1	1	338	0.2	338	339	7.8	97.1
2022-10-05T05:57	10	1	0.1	1	1	338	0.2	338	339	7.8	97.1
2022-10-05T05:58	10	1	0.1	1	1	339	0.2	338	339	7.9	97.0
2022-10-05T05:59	10	1	0.1	1	1	339	0.2	338	339	7.9	96.8
2022-10-05T06:00	10	1	0.1	1	1	339	0.2	338	339	7.9	96.7
2022-10-05T06:01	10	1	0.1	1	1	339	0.2	338	339	7.9	96.6
2022-10-05T06:02	10	1	0.1	1	1	339	0.2	338	339	7.9	96.4
2022-10-05T06:03	10	1	0.1	1	2	339	0.2	338	339	8.0	96.3
2022-10-05T06:04	10	2	0.1	1	2	339	0.2	338	339	7.9	96.2
2022-10-05T06:05	10	2	0.1	2	2	338	0.3	338	339	7.8	96.1
2022-10-05T06:06	10	3	0.4	2	4	338	0.3	338	339	7.7	96.1
2022-10-05T06:07	10	5	0.8	4	6	339	0.3	338	339	7.7	96.3
2022-10-05T06:08	10	9	1.4	6	11	339	0.3	338	339	7.8	96.5
2022-10-05T06:09	10	13	1.3	11	15	339	0.2	339	339	7.8	96.6
2022-10-05T06:10	10	17	0.7	15	18	340	0.4	339	341	7.8	96.7
2022-10-05T06:11	10	18	0.3	18	19	340	0.2	340	341	7.8	96.8
2022-10-05T06:12	10	19	0.2	19	19	341	0.2	340	341	7.8	96.8
2022-10-05T06:13	10	20	0.2	19	20	342	0.2	341	342	7.8	96.8
2022-10-05T06:14	10	20	0.1	20	20	342	0.3	341	343	7.9	96.9
2022-10-05T06:15	10	21	0.2	20	21	343	0.3	342	343	7.9	97.0
2022-10-05T06:16	10	21	0.2	21	22	344	0.3	343	344	8.0	96.9
2022-10-05T06:17	10	22	0.2	21	22	344	0.2	343	344	8.1	96.7
2022-10-05T06:18	10	22	0.2	22	23	344	0.3	344	345	8.0	96.4
2022-10-05T06:19	10	23	0.3	23	24	345	0.2	344	345	7.9	96.2
2022-10-05T06:20	10	24	0.3	24	25	345	0.2	345	345	7.9	96.0
2022-10-05T06:21	10	25	0.3	25	26	345	0.3	345	346	7.9	95.9
2022-10-05T06:22	10	26	0.3	26	27	346	0.2	345	346	7.9	95.8
2022-10-05T06:23	10	27	0.3	27	28	346	0.2	346	347	7.9	95.8
2022-10-05T06:24	10	28	0.3	27	28	347	0.2	346	347	8.0	95.9
2022-10-05T06:25	10	29	0.3	28	29	347	0.2	347	348	8.0	95.8
2022-10-05T06:26	10	30	0.2	29	30	348	0.2	347	348	8.0	95.7
2022-10-05T06:27	10	30	0.3	30	31	348	0.2	348	349	8.0	95.8
2022-10-05T06:28	10	31	0.2	31	32	348	0.2	348	349	8.1	95.8
2022-10-05T06:29	10	32	0.2	31	32	349	0.2	349	350	8.1	95.7
2022-10-05T06:30	10	32	0.2	32	33	349	0.3	349	350	8.1	95.7
2022-10-05T06:31	10	33	0.2	33	34	350	0.2	350	350	8.2	95.6
2022-10-05T06:32	10	34	0.2	33	34	351	0.2	350	351	8.2	95.6
2022-10-05T06:33	10	34	0.2	34	35	351	0.2	351	352	8.3	95.5
2022-10-05T06:34	10	35	0.2	35	36	351	0.2	351	352	8.3	95.5
2022-10-05T06:35	10	36	0.2	35	36	352	0.2	351	353	8.3	95.4
2022-10-05T06:36	10	37	0.2	36	37	352	0.2	352	353	8.3	95.4
2022-10-05T06:37	10	37	0.3	37	38	353	0.2	352	353	8.4	95.3
2022-10-05T06:38	10	38	0.2	38	39	354	0.2	353	354	8.4	95.1
2022-10-05T06:39	10	39	0.2	39	39	354	0.3	353	354	8.4	95.0
2022-10-05T06:40	10	40	0.2	39	40	354	0.2	354	355	8.5	95.0
2022-10-05T06:41	10	40	0.2	40	41	355	0.3	354	355	8.6	95.0
2022-10-05T06:42	10	41	0.2	41	41	355	0.3	355	356	8.3	94.9
2022-10-05T06:43	10	41	0.2	41	42	356	0.3	355	356	8.4	95.1
2022-10-05T06:44	10	42	0.2	42	43	356	0.2	356	357	8.5	95.1
2022-10-05T06:45	10	43	0.1	42	43	356	0.2	356	357	8.5	94.8
2022-10-05T06:46	10	43	0.2	43	44	356	0.2	356	357	8.4	94.5
2022-10-05T06:47	10	44	0.2	44	44	357	0.2	356	357	8.5	94.5
2022-10-05T06:48	10	44	0.1	44	45	357	0.2	357	358	8.5	94.3
2022-10-05T06:49	10	45	0.1	45	45	358	0.2	357	358	8.5	94.2
2022-10-05T06:50	10	45	0.2	45	46	358	0.3	357	359	8.6	94.1
2022-10-05T06:51	10	46	0.2	46	46	358	0.3	358	359	8.5	93.9
2022-10-05T06:52	10	47	0.2	46	47	359	0.3	358	359	8.6	93.7
2022-10-05T06:53	10	47	0.2	47	48	359	0.3	359	360	8.6	93.7
2022-10-05T06:54	10	48	0.3	47	48	359	0.2	359	360	8.6	93.4
2022-10-05T06:55	10	49	0.2	48	49	360	0.2	359	360	8.6	93.2
2022-10-05T06:56	10	50	0.3	49	50	360	0.2	359	360	8.7	92.9
2022-10-05T06:57	10	50	0.3	50	51	360	0.3	360	361	8.7	92.7
2022-10-05T06:58	10	51	0.2	51	52	361	0.3	360	361	8.7	92.5
2022-10-05T06:59	10	52	0.3	52	53	361	0.4	360	362	8.8	92.6
2022-10-05T07:00	10	53	0.3	52	53	362	0.5	361	363	8.9	92.4
2022-10-05T07:01	10	54	0.3	53	54	362	0.6	361	363	9.0	92.2
2022-10-05T07:02	10	55	0.3	54	55	363	0.2	362	363	9.0	92.1
2022-10-05T07:03	10	56	0.3	55	57	363	0.2	363	363	9.0	91.9
2022-10-05T07:04	10	57	0.3	56	57	363	0.3	362	363	9.0	91.7
2022-10-05T07:05	10	58	2.1	57	71	363	0.2	363	364	9.0	91.4
2022-10-05T07:06	10	58	0.2	58	59	364	0.3	363	364	9.1	91.6
2022-10-05T07:07	10	59	0.1	58	59	364	0.3	363	365	9.1	91.9
2022-10-05T07:08	10	59	0.2	58	59	365	0.5	364	365	9.3	92.0
2022-10-05T07:09	10	59	0.2	59	59	365	0.5	364	366	9.3	91.8
2022-10-05T07:10	10	60	0.1	59	60	366	0.3	365	366	9.3	91.8
2022-10-05T07:11	10	60	0.3	60	61	366	0.4	365	367	9.4	91.6
2022-10-05T07:12	10	61	0.3	61	62	366	0.3	365	367	9.4	91.7
2022-10-05T07:13	10	62	0.2	62	63	366	0.2	366	367	9.4	92.2
2022-10-05T07:14	10	63	0.2	62	63	367	0.3	366	367	9.4	93.2
2022-10-05T07:15	10	63	0.3	63	64	367	0.2	366	367	9.3	93.6
2022-10-05T07:16	10	64	0.2	64	65	367	0.3	367	368	9.5	93.9
2022-10-05T07:17	10	65	0.2	65	65	367	0.2	367	368	9.5	93.8
2022-10-05T07:18	10	66	0.2	65	66	367	0.3	367	368	9.5	93.5
2022-10-05T07:19	10	66	0.2	66	67	368	0.3	367	368	9.4	93.4
2022-10-05T07:20	10	67	0.2	67	67	368	0.2	368	369	9.5	93.5
2022-10-05T07:21	10	68	0.2	67	68	368	0.2	368	369	9.6	93.8
2022-10-05T07:22	10	68	0.2	68	69	369	0.3	368	369	9.6	93.7
2022-10-05T07:23	10	69	0.2	69	69	369	0.3	369	370	9.6	93.6
2022-10-05T07:24	10	70	0.2	69	70	370	0.2	369	370	9.6	93.4
2022-10-05T07:25	10	70	0.2	70	71	370	0.3	370	371	9.6	93.0
2022-10-05T07:26	10	71	0.2	70	71	371	0.2	370	371	9.7	92.7
2022-10-05T07:27	10	72	0.2	71	72	371	0.2	370	371	9.7	92.2
2022-10-05T07:28	10	72	0.2	72	73	371	0.2	371	372	9.8	91.8
2022-10-05T07:29	10	73	0.2	72	73	372	0.3	371	373	9.8	91.9
2022-10-05T07:30	10	73	0.2	73	74	372	0.2	372	373	10.0	92.1
2022-10-05T07:31	10	74	0.2	74	74	373	0.3	372	373	10.0	91.2
2022-10-05T07:32	10	75	0.1	74	75	373	0.3	372	374	10.1	90.9
2022-10-05T07:33	10	75	0.2	75	76	373	0.3	373	374	10.1	90.5
2022-10-05T07:34	10	76	0.2	76	76	374	0.2	373	374	10.2	90.2
2022-10-05T07:35	10	77	0.2	76	77	375	0.2	374	375	10.4	90.6
2022-10-05T07:36	10	77	0.2	77	77	376	0.8	374	377	10.5	90.6
2022-10-05T07:37	10	78	0.2	77	78	376	0.3	375	377	10.5	89.9
2022-10-05T07:38	10	78	0.1	78	78	376	0.3	375	377	10.4	89.4
2022-10-05T07:39	10	79	0.2	78	79	376	0.2	376	377	10.4	89.1
2022-10-05T07:40	10	79	0.2	79	80	376	0.3	376	377	10.5	89.5
2022-10-05T07:41	10	80	0.2	79	80	377	0.3	376	378	10.5	89.5
2022-10-05T07:42	10	80	0.2	80	81	377	0.3	376	378	10.5	88.8
2022-10-05T07:43	10	81	0.3	80	81	378	0.3	377	378	10.6	89.3
2022-10-05T07:44	10	81	0.2	81	82	378	0.3	377	379	10.6	89.7
2022-10-05T07:45	10	82	0.2	81	82	377	0.3	377	378	10.5	88.7
2022-10-05T07:46	10	82	0.2	82	83	378	0.4	377	379	10.6	88.9
2022-10-05T07:47	10	82	0.2	82	83	378	0.3	377	378	10.5	88.1
2022-10-05T07:48	10	83	0.2	83	83	378	0.3	377	378	10.5	87.6
2022-10-05T07:49	10	83	0.1	83	84	378	0.2	378	379	10.6	87.3
2022-10-05T07:50	10	84	0.2	84	84	378	0.3	377	379	10.6	86.8
2022-10-05T07:51	10	84	0.1	84	85	379	0.3	378	379	10.7	87.1
2022-10-05T07:52	10	85	0.2	84	85	378	0.4	377	379	10.6	86.1
2022-10-05T07:53	10	85	0.1	85	86	378	0.3	378	379	10.7	85.9
2022-10-05T07:54	10	86	0.1	85	86	378	0.3	378	379	10.7	85.8
2022-10-05T07:55	10	86	0.2	86	86	378	0.3	377	379	10.7	85.6
2022-10-05T07:56	10	87	0.2	86	87	379	0.5	378	380	10.7	85.3
2022-10-05T07:57	10	87	0.2	87	88	379	0.3	378	379	10.7	85.6
2022-10-05T07:58	10	88	0.2	88	88	379	0.4	378	380	10.8	86.1
2022-10-05T07:59	10	89	0.2	88	89	380	0.4	379	380	10.8	86.0
2022-10-05T08:00	10	89	0.2	89	89	380	0.3	379	381	10.8	86.1
2022-10-05T08:01	10	89	0.1	89	90	380	0.3	380	381	10.9	86.6
2022-10-05T08:02	10	89	0.1	89	89	380	0.3	380	381	10.7	85.6
2022-10-05T08:03	10	89	0.1	89	89	381	0.5	379	381	10.8	86.1
2022-10-05T08:04	10	89	0.1	89	89	381	0.4	380	381	10.9	86.5
2022-10-05T08:05	10	90	0.2	89	90	381	0.4	380	382	10.9	86.7
2022-10-05T08:06	10	90	0.1	90	90	382	0.4	381	383	11.0	86.8
2022-10-05T08:07	10	90	0.5	88	90	383	0.7	381	384	11.1	86.9
2022-10-05T08:08	10	90	1.0	88	91	383	0.3	382	384	11.1	86.3
2022-10-05T08:09	10	90	0.3	90	91	383	0.2	383	383	11.0	85.4
2022-10-05T08:10	10	91	0.2	91	92	383	0.3	383	384	11.0	85.8
2022-10-05T08:11	10	91	0.3	90	92	384	0.3	383	384	11.2	86.5
2022-10-05T08:12	10	90	0.4	89	91	384	0.3	383	385	11.3	86.5
2022-10-05T08:13	10	93	1.4	90	95	384	0.3	384	385	11.3	86.8
2022-10-05T08:14	10	96	0.4	95	96	385	0.3	384	386	11.3	86.5
2022-10-05T08:15	10	95	0.5	95	96	386	0.5	385	387	11.6	87.8
2022-10-05T08:16	10	95	0.4	94	95	386	0.2	386	387	11.4	86.4
2022-10-05T08:17	10	96	0.5	95	96	387	0.4	386	387	11.6	86.8
2022-10-05T08:18	10	96	0.3	95	97	387	0.4	386	388	11.7	86.3
2022-10-05T08:19	10	96	0.2	95	96	388	0.3	387	388	11.8	85.7
2022-10-05T08:20	10	96	0.3	96	97	388	0.3	387	389	11.8	85.3
2022-10-05T08:21	10	97	0.3	97	98	387	0.6	386	388	11.9	85.8
2022-10-05T08:22	10	97	0.5	96	98	388	0.4	387	389	11.8	85.7
2022-10-05T08:23	10	97	0.8	96	98	388	0.3	387	388	11.7	85.3
2022-10-05T08:24	10	99	0.3	98	99	389	0.2	388	389	11.8	85.5
2022-10-05T08:25	10	100	0.3	99	100	389	0.3	389	390	12.0	86.4
2022-10-05T08:26	10	101	0.2	100	101	390	0.4	389	390	12.0	87.1
2022-10-05T08:27	10	101	0.1	101	101	391	0.5	390	391	12.1	87.6
2022-10-05T08:28	10	102	0.3	101	103	390	0.4	390	391	12.0	86.5
2022-10-05T08:29	10	102	0.1	102	102	391	0.4	390	392	12.1	87.4
2022-10-05T08:30	10	102	0.2	102	103	391	0.3	390	391	11.9	85.6
2022-10-05T08:31	10	103	0.1	102	103	391	0.5	390	392	11.8	86.9
2022-10-05T08:32	10	102	0.2	102	103	391	0.2	391	391	11.9	87.8
2022-10-05T08:33	10	103	0.4	102	103	392	0.3	391	392	12.1	88.0
2022-10-05T08:34	10	104	0.3	103	104	392	0.2	392	392	12.3	88.7
2022-10-05T08:35	10	104	0.2	103	104	393	0.6	391	394	12.3	88.2
2022-10-05T08:36	10	104	0.6	103	105	393	0.3	392	394	12.2	86.2
2022-10-05T08:37	10	106	0.3	105	106	394	0.6	393	395	12.4	86.1
2022-10-05T08:38	10	107	0.2	106	107	394	0.3	394	395	12.6	85.6
2022-10-05T08:39	10	107	0.1	107	107	394	0.2	394	395	12.6	84.1
2022-10-05T08:40	10	107	0.2	107	108	394	0.3	394	395	12.6	83.8
2022-10-05T08:41	10	107	0.3	107	108	395	0.3	395	396	12.8	85.3
2022-10-05T08:42	10	108	0.3	107	108	396	0.3	396	397	12.7	85.9
2022-10-05T08:43	10	108	0.2	108	109	397	0.4	396	397	12.8	86.0
2022-10-05T08:44	10	108	0.2	107	108	396	0.3	396	397	12.7	85.2
2022-10-05T08:45	10	108	0.3	107	109	396	0.4	395	397	12.7	84.9
2022-10-05T08:46	10	109	0.2	108	109	396	0.4	395	397	12.9	84.7
2022-10-05T08:47	10	109	0.3	108	109	396	0.6	394	397	12.8	84.5
2022-10-05T08:48	10	109	0.2	108	109	396	0.4	395	397	12.8	85.7
2022-10-05T08:49	10	109	0.1	108	109	396	0.2	396	397	13.0	85.7
2022-10-05T08:50	10	108	0.2	108	109	396	0.3	395	397	12.8	86.2
2022-10-05T08:51	10	109	0.2	108	109	395	0.7	394	397	12.7	85.9
2022-10-05T08:52	10	109	0.2	109	110	395	0.2	395	396	12.6	85.4
2022-10-05T08:53	10	109	0.1	108	109	395	0.3	394	395	12.6	85.1
2022-10-05T08:54	10	109	0.2	109	110	396	0.5	394	396	12.7	84.8
2022-10-05T08:55	10	109	0.2	108	110	396	0.4	395	397	12.7	84.9
2022-10-05T08:56	10	110	0.2	109	110	395	0.5	395	397	12.5	85.4
2022-10-05T08:57	10	110	0.3	110	111	396	0.4	395	397	12.6	85.7
2022-10-05T08:58	10	110	0.4	109	111	395	0.6	394	396	12.4	85.1
2022-10-05T08:59	10	111	0.2	111	112	395	0.6	394	396	12.6	85.5
2022-10-05T09:00	10	111	0.2	111	111	395	0.5	394	396	12.7	85.7
2022-10-05T09:01	10	111	0.1	111	111	395	0.3	395	396	12.6	85.5
2022-10-05T09:02	10	111	0.2	110	111	396	0.6	395	397	12.8	86.2
2022-10-05T09:03	10	111	0.2	110	111	396	0.4	395	397	12.9	86.9
2022-10-05T09:04	10	111	0.2	111	112	395	0.3	394	396	12.6	86.4
2022-10-05T09:05	10	112	0.2	112	113	396	0.7	395	398	12.8	87.3
2022-10-05T09:06	10	113	0.5	112	114	398	0.9	396	399	13.1	88.0
2022-10-05T09:07	10	114	0.5	114	115	398	0.3	397	398	13.1	87.4
2022-10-05T09:08	10	116	0.3	115	116	397	0.2	397	398	12.7	86.3
2022-10-05T09:09	10	117	0.1	117	117	397	0.5	396	398	12.8	86.6
2022-10-05T09:10	10	117	0.7	115	117	398	0.4	397	399	12.9	87.1
2022-10-05T09:11	10	118	0.3	117	118	399	0.3	398	400	12.9	86.6
2022-10-05T09:12	10	118	0.2	118	119	400	0.6	399	401	12.9	85.6
2022-10-05T09:13	10	119	0.1	119	119	401	0.3	400	401	13.1	86.3
2022-10-05T09:14	10	119	0.2	119	120	401	0.3	401	402	13.3	86.6
2022-10-05T09:15	10	120	0.2	120	120	401	0.4	400	402	13.1	84.8
2022-10-05T09:16	10	121	0.2	120	121	401	0.5	400	402	13.3	84.6
2022-10-05T09:17	10	121	0.2	121	121	402	0.4	401	403	13.4	85.2
2022-10-05T09:18	10	121	0.1	121	122	402	0.3	401	402	13.4	84.2
2022-10-05T09:19	10	122	0.2	122	122	402	0.5	401	404	13.7	84.8
2022-10-05T09:20	10	122	0.1	122	123	404	0.5	403	405	13.6	83.8
2022-10-05T09:21	10	123	0.1	122	123	404	0.5	403	405	13.8	83.8
2022-10-05T09:22	10	123	0.1	123	123	404	0.3	403	405	13.7	83.4
2022-10-05T09:23	10	124	0.2	123	124	405	0.2	405	406	13.7	83.1
2022-10-05T09:24	10	124	0.1	124	124	405	0.2	405	406	13.8	83.2
2022-10-05T09:25	10	124	0.1	124	125	406	0.4	405	406	13.8	83.8
2022-10-05T09:26	10	124	0.1	124	125	404	0.8	403	406	13.6	82.9
2022-10-05T09:27	10	124	0.1	124	125	404	0.3	403	404	13.6	82.9
2022-10-05T09:28	10	124	0.1	124	125	403	0.4	402	404	13.6	82.6
2022-10-05T09:29	10	124	0.1	124	125	404	0.4	403	405	13.7	83.3
2022-10-05T09:30	10	125	0.1	124	125	404	0.5	404	405	13.9	83.8
2022-10-05T09:31	10	125	0.1	125	125	406	1.2	404	408	14.0	83.0
2022-10-05T09:32	10	125	0.2	125	126	407	0.4	406	408	14.1	82.5
2022-10-05T09:33	10	126	0.1	125	126	407	0.4	407	408	14.0	83.2
2022-10-05T09:34	10	126	0.2	126	126	408	0.8	406	409	13.9	84.2
2022-10-05T09:35	10	126	0.1	126	126	407	0.5	406	408	14.0	84.8
2022-10-05T09:36	10	126	0.1	126	127	406	0.4	405	407	13.9	83.4
2022-10-05T09:37	10	127	0.1	127	127	408	0.3	407	408	14.1	83.1
2022-10-05T09:38	10	127	0.2	127	127	407	0.3	407	408	14.0	82.9
2022-10-05T09:39	10	127	0.1	127	127	407	0.3	407	408	14.0	83.7
2022-10-05T09:40	10	127	0.1	127	128	408	0.4	407	408	14.0	84.1
2022-10-05T09:41	10	127	0.1	127	128	408	0.5	407	409	13.9	84.2
2022-10-05T09:42	10	127	0.1	127	128	408	0.5	407	409	14.0	84.1
2022-10-05T09:43	10	128	0.1	127	128	408	0.4	408	409	14.2	84.0
2022-10-05T09:44	10	128	0.1	128	128	409	0.6	408	410	14.1	83.9
2022-10-05T09:45	10	128	0.1	128	128	409	0.7	407	410	13.9	83.8
2022-10-05T09:46	10	128	0.1	128	128	408	0.3	407	409	14.0	83.7
2022-10-05T09:47	10	128	0.1	128	129	408	0.3	408	409	14.2	84.1
2022-10-05T09:48	10	128	0.1	128	128	408	0.5	407	409	14.1	83.7
2022-10-05T09:49	10	128	0.0	128	128	408	0.4	407	409	14.1	83.8
2022-10-05T09:50	10	128	0.2	128	128	409	0.6	408	410	14.3	84.0
2022-10-05T09:51	10	129	0.2	128	129	410	0.5	409	411	14.3	84.3
2022-10-05T09:52	10	129	0.1	129	129	410	0.5	408	410	14.3	83.6
2022-10-05T09:53	10	129	0.1	129	129	409	0.4	408	410	14.3	83.4
2022-10-05T09:54	10	129	0.2	129	129	409	0.3	408	410	14.2	83.6
2022-10-05T09:55	10	130	0.1	129	130	409	0.3	408	409	14.3	83.3
2022-10-05T09:56	10	130	0.1	129	130	409	0.4	408	409	14.3	82.6
2022-10-05T09:57	10	130	0.1	130	130	410	0.6	408	411	14.4	82.5
2022-10-05T09:58	10	130	0.2	130	131	410	0.4	409	411	14.6	83.4
2022-10-05T09:59	10	131	0.2	131	131	411	0.2	411	412	14.6	83.7
2022-10-05T10:00	10	131	0.2	131	132	412	0.5	411	413	14.6	83.1
2022-10-05T10:01	10	132	0.2	132	132	412	0.4	411	413	14.9	84.0
2022-10-05T10:02	10	132	0.1	132	132	412	0.2	411	412	14.8	82.9
2022-10-05T10:03	10	131	0.5	130	132	412	0.4	411	413	14.9	83.1
2022-10-05T10:04	10	131	0.2	130	131	412	0.2	411	412	14.8	82.8
2022-10-05T10:05	10	131	0.3	130	131	411	0.7	410	412	14.6	82.4
2022-10-05T10:06	10	132	0.1	131	132	410	0.3	410	411	14.4	81.6
2022-10-05T10:07	10	132	0.1	132	132	410	0.6	409	411	14.6	82.5
2022-10-05T10:08	10	132	0.1	132	132	411	0.3	410	411	14.6	82.3
2022-10-05T10:09	10	132	0.1	132	132	411	0.3	411	412	14.6	82.3
2022-10-05T10:10	10	132	0.1	132	133	411	0.2	410	411	14.5	81.6
2022-10-05T10:11	10	133	0.1	132	133	411	0.7	409	412	14.5	81.1
2022-10-05T10:12	10	133	0.1	132	133	411	0.7	410	412	14.5	80.8
2022-10-05T10:13	10	132	0.5	131	132	413	0.7	411	414	14.9	81.9
2022-10-05T10:14	10	132	1.2	131	134	412	1.0	411	414	15.0	81.7
2022-10-05T10:15	10	134	0.5	132	134	413	0.3	413	414	15.0	81.0
2022-10-05T10:16	10	133	0.7	132	134	413	0.3	412	414	15.0	80.7
2022-10-05T10:17	10	134	0.6	133	135	414	0.7	413	415	15.1	81.7
2022-10-05T10:18	10	135	0.3	135	136	413	0.9	412	415	14.9	80.7
2022-10-05T10:19	10	135	0.1	135	135	413	0.4	412	414	14.6	80.0
2022-10-05T10:20	10	135	0.1	135	135	414	0.4	413	414	15.0	81.1
2022-10-05T10:21	10	135	0.2	135	136	414	0.3	413	414	15.2	80.6
2022-10-05T10:22	10	136	0.1	135	136	413	1.0	412	415	15.1	80.2
2022-10-05T10:23	10	136	0.1	135	136	413	0.5	412	414	14.9	79.7
2022-10-05T10:24	10	136	0.1	135	136	414	0.4	413	414	14.9	79.9
2022-10-05T10:25	10	136	0.2	136	137	416	0.9	414	417	15.3	80.8
2022-10-05T10:26	10	137	0.2	136	137	416	0.5	415	417	15.3	79.3
2022-10-05T10:27	10	137	0.1	137	137	417	1.4	414	419	15.3	79.4
2022-10-05T10:28	10	137	0.1	137	137	415	0.7	413	416	15.4	80.4
2022-10-05T10:29	10	137	0.2	137	138	416	0.4	415	416	15.4	79.4
2022-10-05T10:30	10	138	0.1	137	138	415	0.4	415	416	15.3	79.2
2022-10-05T10:31	10	138	0.1	138	138	417	0.5	416	418	15.4	79.8
2022-10-05T10:32	10	138	0.1	138	138	417	0.5	416	418	15.3	78.8
2022-10-05T10:33	10	138	0.1	138	138	417	0.4	416	418	15.4	79.3
2022-10-05T10:34	10	138	0.1	138	138	417	0.6	415	418	15.4	78.9
2022-10-05T10:35	10	138	0.1	138	138	416	0.5	415	417	15.2	78.1
2022-10-05T10:36	10	138	0.1	138	138	417	0.5	416	418	15.5	79.3
2022-10-05T10:37	10	138	0.1	138	139	418	0.5	417	419	15.6	78.3
2022-10-05T10:38	10	139	0.1	139	139	418	0.2	418	419	15.5	77.1
2022-10-05T10:39	10	139	0.1	139	139	419	0.3	418	419	15.5	77.0
2022-10-05T10:40	10	139	0.2	139	140	420	0.3	419	420	15.6	77.0
2022-10-05T10:41	10	140	0.1	140	140	420	0.4	419	421	15.9	77.5
2022-10-05T10:42	10	140	0.1	140	140	418	0.9	416	419	15.7	77.1
2022-10-05T10:43	10	140	0.1	140	140	419	1.0	417	421	15.7	77.6
2022-10-05T10:44	10	140	0.1	140	140	421	0.3	420	421	16.3	77.8
2022-10-05T10:45	10	140	0.1	140	141	422	0.5	421	423	16.2	76.9
2022-10-05T10:46	10	140	0.1	140	141	422	0.4	421	423	16.5	77.7
2022-10-05T10:47	10	141	0.1	141	141	422	0.4	421	423	16.2	75.2
2022-10-05T10:48	10	141	0.1	141	141	422	0.5	421	423	16.1	76.2
2022-10-05T10:49	10	141	0.1	141	141	423	0.4	422	423	16.4	75.4
2022-10-05T10:50	10	141	0.1	141	141	422	0.6	421	423	16.3	74.2
2022-10-05T10:51	10	141	0.1	141	142	421	0.3	421	422	16.3	74.6
2022-10-05T10:52	10	142	0.1	141	142	424	0.8	422	425	16.4	74.5
2022-10-05T10:53	10	142	0.1	142	142	425	0.2	424	425	16.5	73.5
2022-10-05T10:54	10	142	0.1	142	142	425	0.6	424	426	16.6	73.1
2022-10-05T10:55	10	142	0.1	142	142	424	1.0	423	426	16.6	73.0
2022-10-05T10:56	10	142	0.2	141	142	425	0.2	424	425	16.5	72.4
2022-10-05T10:57	10	142	0.3	141	142	425	0.5	424	426	16.6	73.2
2022-10-05T10:58	10	142	0.1	141	142	424	0.6	423	426	16.4	73.2
2022-10-05T10:59	10	141	0.2	141	142	426	0.4	425	426	16.8	75.5
2022-10-05T11:00	10	141	0.2	141	142	425	0.4	424	426	16.7	73.1
2022-10-05T11:01	10	141	0.2	141	142	425	0.9	424	427	17.0	73.7
2022-10-05T11:02	10	141	0.2	141	142	424	0.8	423	425	16.5	70.8
2022-10-05T11:03	10	141	0.2	141	142	425	0.9	423	427	16.7	72.1
2022-10-05T11:04	10	141	0.2	141	141	425	0.6	423	426	16.8	71.7
2022-10-05T11:05	10	141	0.1	141	141	424	0.6	423	425	16.6	70.3
2022-10-05T11:06	10	141	0.1	141	142	426	0.5	425	427	16.7	70.6
2022-10-05T11:07	10	142	0.2	141	142	426	0.3	425	426	16.8	71.2
2022-10-05T11:08	10	142	0.1	142	142	426	0.5	425	427	17.0	70.2
2022-10-05T11:09	10	142	0.1	142	142	426	0.4	425	427	17.1	70.3
2022-10-05T11:10	10	142	0.1	142	143	427	0.8	425	428	17.0	69.0
2022-10-05T11:11	10	142	0.1	142	143	428	0.6	427	430	17.2	68.9
2022-10-05T11:12	10	143	0.2	143	143	429	0.8	427	430	17.2	69.2
2022-10-05T11:13	10	143	0.1	143	143	428	0.4	428	430	17.1	68.1
2022-10-05T11:14	10	143	0.1	143	143	428	0.2	428	429	17.1	69.1
2022-10-05T11:15	10	143	0.1	143	143	429	0.3	428	429	17.2	68.5
2022-10-05T11:16	10	143	0.1	143	143	429	0.4	429	430	17.5	70.0
2022-10-05T11:17	10	143	0.1	143	143	430	0.5	429	431	17.8	70.5
2022-10-05T11:18	10	143	0.1	143	144	431	1.1	429	433	17.8	70.0
2022-10-05T11:19	10	144	0.1	143	144	431	1.4	429	435	17.4	69.9
2022-10-05T11:20	10	143	0.2	143	144	429	0.8	428	430	17.1	69.4
2022-10-05T11:21	10	143	0.2	143	143	428	0.3	428	429	17.1	70.0
2022-10-05T11:22	10	142	0.1	142	143	428	0.3	428	429	17.2	69.5
2022-10-05T11:23	10	142	0.1	142	142	429	0.9	427	430	17.2	69.4
2022-10-05T11:24	10	142	0.2	142	143	430	0.3	429	430	17.5	69.9
2022-10-05T11:25	10	142	0.1	142	143	431	0.8	430	432	17.7	70.2
2022-10-05T11:26	10	142	0.2	142	143	430	1.1	428	432	17.4	69.2
2022-10-05T11:27	10	142	0.1	142	142	428	0.9	426	430	17.4	69.6
2022-10-05T11:28	10	142	0.1	141	142	429	0.8	428	430	17.3	70.2
2022-10-05T11:29	10	142	0.1	142	142	430	0.3	429	430	17.4	70.2
2022-10-05T11:30	10	142	0.2	141	142	429	0.7	427	430	17.4	70.1
2022-10-05T11:31	10	141	0.1	141	142	430	0.7	428	431	17.5	70.2
2022-10-05T11:32	10	142	0.1	141	142	431	0.4	430	432	17.6	70.5
2022-10-05T11:33	10	142	0.1	142	142	431	0.8	429	432	17.5	69.2
2022-10-05T11:34	10	142	0.1	142	143	432	0.6	431	433	17.6	68.4
2022-10-05T11:35	10	143	0.1	142	143	432	0.4	431	433	17.8	68.7
2022-10-05T11:36	10	143	0.2	143	144	433	0.4	432	434	18.0	68.7
2022-10-05T11:37	10	144	0.1	144	144	433	0.5	433	434	18.1	69.3
2022-10-05T11:38	10	144	0.1	144	144	433	0.6	432	434	18.1	69.8
2022-10-05T11:39	10	144	0.1	144	144	433	0.4	432	433	17.9	68.9
2022-10-05T11:40	10	144	0.1	144	144	433	0.3	432	433	18.1	70.5
2022-10-05T11:41	10	144	0.2	144	144	433	0.4	432	434	18.0	69.6
2022-10-05T11:42	10	144	0.1	144	144	433	0.2	432	433	18.3	70.9
2022-10-05T11:43	10	144	0.2	143	144	433	1.0	432	435	18.4	69.8
2022-10-05T11:44	10	144	0.2	143	144	432	0.9	430	434	18.2	68.1
2022-10-05T11:45	10	143	0.3	143	144	431	0.4	431	432	18.0	67.2
2022-10-05T11:46	10	143	0.2	142	143	432	0.3	431	432	18.1	67.3
2022-10-05T11:47	10	142	1.0	139	143	432	0.8	431	434	18.1	66.7
2022-10-05T11:48	10	143	0.2	142	143	433	0.5	432	434	18.3	66.9
2022-10-05T11:49	10	143	0.3	143	144	434	0.5	433	435	18.5	67.9
2022-10-05T11:50	10	143	0.2	143	144	434	0.3	433	434	18.3	66.6
2022-10-05T11:51	10	143	0.1	143	143	435	0.4	434	436	18.4	67.5
2022-10-05T11:52	10	143	0.1	143	143	434	0.4	433	435	18.5	67.5
2022-10-05T11:53	10	143	0.1	143	143	433	0.4	432	434	18.4	66.4
2022-10-05T11:54	10	143	0.1	143	143	433	0.4	433	434	18.4	66.8
2022-10-05T11:55	10	143	0.1	143	143	434	0.2	434	435	18.5	66.8
2022-10-05T11:56	10	143	0.1	143	143	435	0.2	434	435	18.5	66.9
2022-10-05T11:57	10	143	0.1	143	143	436	0.5	435	437	18.9	68.1
2022-10-05T11:58	10	143	0.1	143	143	434	0.9	433	436	18.6	67.4
2022-10-05T11:59	10	143	0.1	143	143	433	0.6	432	434	18.6	66.8
2022-10-05T12:00	10	143	0.1	142	143	434	0.3	433	435	18.5	66.8
2022-10-05T12:01	10	142	0.1	142	143	434	0.4	433	435	18.6	65.9
2022-10-05T12:02	10	142	0.1	142	142	435	0.3	434	435	18.9	66.9
2022-10-05T12:03	10	142	0.2	142	143	436	0.6	435	437	18.9	66.4
2022-10-05T12:04	10	143	0.1	143	143	435	0.4	434	436	18.9	65.7
2022-10-05T12:05	10	143	0.2	143	143	436	0.4	435	437	19.0	66.6
2022-10-05T12:06	10	143	0.1	143	143	437	0.4	436	437	19.3	68.4
2022-10-05T12:07	10	143	0.1	143	143	437	0.4	436	438	19.2	67.9
2022-10-05T12:08	10	143	0.1	142	143	435	0.8	434	436	19.0	67.7
2022-10-05T12:09	10	142	0.2	142	143	435	0.4	434	436	18.9	66.6
2022-10-05T12:10	10	142	0.1	141	142	436	0.4	435	436	19.0	67.2
2022-10-05T12:11	10	142	0.1	141	142	436	0.7	435	437	19.2	67.6
2022-10-05T12:12	10	141	0.1	141	141	436	0.4	436	437	19.2	68.0
2022-10-05T12:13	10	141	0.2	140	141	435	0.3	435	436	19.3	67.6
2022-10-05T12:14	10	140	0.1	140	141	436	0.3	436	437	19.3	67.3
2022-10-05T12:15	10	140	0.1	140	141	435	0.3	434	436	19.2	66.0
2022-10-05T12:16	10	140	0.1	140	140	436	0.3	436	437	19.3	68.2
2022-10-05T12:17	10	140	0.1	140	140	436	0.4	435	436	19.4	67.5
2022-10-05T12:18	10	140	0.1	140	140	435	0.3	434	436	19.0	65.8
2022-10-05T12:19	10	140	0.1	139	140	435	0.3	435	436	19.1	66.3
2022-10-05T12:20	10	140	0.1	140	140	435	0.5	434	436	19.2	65.8
2022-10-05T12:21	10	140	0.1	140	140	435	0.3	435	436	19.3	65.1
2022-10-05T12:22	10	140	0.2	140	140	436	0.3	435	437	19.4	64.4
2022-10-05T12:23	10	141	0.3	140	141	437	0.4	436	438	19.6	63.9
2022-10-05T12:24	10	141	0.2	141	142	438	0.3	437	438	19.4	64.1
2022-10-05T12:25	10	141	0.2	141	142	438	1.4	435	440	19.4	65.8
2022-10-05T12:26	10	140	0.3	140	141	436	0.3	436	437	19.3	66.2
2022-10-05T12:27	10	140	0.2	139	141	436	0.6	434	437	19.5	65.3
2022-10-05T12:28	10	140	0.1	139	140	437	0.5	436	438	19.7	65.8
2022-10-05T12:29	10	139	0.1	139	140	436	0.5	435	437	19.5	64.0
2022-10-05T12:30	10	140	0.1	139	140	437	0.3	436	437	19.5	63.8
2022-10-05T12:31	10	139	0.1	139	140	437	0.8	435	438	19.6	65.0
2022-10-05T12:32	10	139	0.1	139	139	435	0.8	435	437	19.5	63.6
2022-10-05T12:33	10	138	0.2	138	139	436	0.5	435	437	19.4	62.3
2022-10-05T12:34	10	138	0.1	138	138	437	0.8	435	438	19.7	63.9
2022-10-05T12:35	10	138	0.2	138	139	438	0.5	438	439	19.8	64.8
2022-10-05T12:36	10	138	0.1	138	138	437	0.3	437	438	19.7	63.4
2022-10-05T12:37	10	138	0.1	138	138	438	0.4	437	439	19.8	63.8
2022-10-05T12:38	10	138	0.1	138	138	438	0.3	437	439	19.8	62.7
2022-10-05T12:39	10	138	0.1	138	138	438	0.5	438	439	19.7	63.4
2022-10-05T12:40	10	138	0.3	137	138	438	0.3	437	438	19.7	63.3
2022-10-05T12:41	10	137	0.2	137	137	437	0.5	436	438	19.9	63.4
2022-10-05T12:42	10	137	0.1	136	137	438	0.4	437	439	19.9	62.8
2022-10-05T12:43	10	137	0.1	136	137	438	0.3	437	438	19.9	62.6
2022-10-05T12:44	10	137	0.1	136	137	438	0.3	437	438	19.9	63.8
2022-10-05T12:45	10	136	0.1	136	137	439	0.4	438	440	20.1	64.9
2022-10-05T12:46	10	136	0.1	136	136	438	0.9	437	440	19.9	64.3
2022-10-05T12:47	10	136	0.2	135	136	437	0.4	436	438	19.7	63.7
2022-10-05T12:48	10	136	0.1	135	136	438	0.7	436	439	19.8	62.5
2022-10-05T12:49	10	136	0.1	135	136	438	0.3	438	439	20.1	63.5
2022-10-05T12:50	10	136	0.1	135	136	439	0.4	438	440	20.2	62.7
2022-10-05T12:51	10	136	0.2	135	136	438	0.5	437	439	20.2	62.7
2022-10-05T12:52	10	135	0.3	135	135	438	1.1	436	440	20.1	62.6
2022-10-05T12:53	10	134	0.1	134	135	437	0.4	436	438	20.0	61.7
2022-10-05T12:54	10	134	0.1	134	135	438	0.4	437	439	20.1	60.8
2022-10-05T12:55	10	134	0.1	134	134	438	0.3	438	439	20.4	61.1
2022-10-05T12:56	10	134	0.1	134	134	439	0.5	438	440	20.4	62.5
2022-10-05T12:57	10	134	0.1	134	134	439	0.4	438	439	20.4	60.9
2022-10-05T12:58	10	134	0.3	133	134	439	0.4	438	440	20.4	59.4
2022-10-05T12:59	10	134	0.1	133	134	439	0.4	438	440	20.4	58.2
2022-10-05T13:00	10	133	0.1	133	134	439	0.4	438	440	20.4	58.4
2022-10-05T13:01	10	133	0.1	133	134	439	0.4	438	440	20.7	56.5
2022-10-05T13:02	10	133	0.1	133	134	439	0.4	438	440	20.8	56.4
2022-10-05T13:03	10	133	0.2	133	134	440	0.3	439	441	20.8	57.8
2022-10-05T13:04	10	133	0.3	133	134	440	1.2	437	441	21.0	58.5
2022-10-05T13:05	10	133	0.2	132	133	437	0.9	436	440	21.2	54.0
2022-10-05T13:06	10	132	0.3	131	133	438	0.5	437	439	21.4	52.3
2022-10-05T13:07	10	132	0.2	131	132	438	0.5	437	439	21.5	53.0
2022-10-05T13:08	10	132	0.1	131	132	439	1.3	437	441	21.5	54.8
2022-10-05T13:09	10	131	0.2	131	132	440	0.6	439	441	21.5	53.1
2022-10-05T13:10	10	131	0.1	131	132	440	1.2	438	442	21.9	50.0
2022-10-05T13:11	10	131	0.1	131	131	440	0.8	438	441	22.3	46.7
2022-10-05T13:12	10	131	0.1	131	131	438	0.7	437	440	22.5	47.1
2022-10-05T13:13	10	131	0.2	130	131	438	0.5	437	439	22.1	51.5
2022-10-05T13:14	10	131	0.1	130	131	439	0.3	439	440	22.1	48.7
2022-10-05T13:15	10	131	0.2	130	131	441	0.3	440	441	22.2	47.0
2022-10-05T13:16	10	131	0.1	130	131	440	0.9	438	442	22.3	47.1
2022-10-05T13:17	10	131	0.1	130	131	440	0.4	439	441	22.4	45.5
2022-10-05T13:18	10	130	0.1	130	131	440	0.4	439	441	22.5	47.3
2022-10-05T13:19	10	130	0.2	130	131	440	0.3	439	440	22.6	46.4
2022-10-05T13:20	10	130	0.1	129	130	438	0.8	437	440	22.8	43.6
2022-10-05T13:21	10	129	0.2	129	130	436	1.6	434	438	22.9	39.7
2022-10-05T13:22	10	129	0.2	128	129	433	0.5	432	434	23.0	38.0
2022-10-05T13:23	10	128	0.2	127	128	431	1.0	429	433	23.0	36.7
2022-10-05T13:24	10	127	0.2	127	127	429	0.4	429	430	23.0	36.6
2022-10-05T13:25	10	127	0.2	126	127	429	0.9	428	431	23.0	36.1
2022-10-05T13:26	10	126	0.2	126	127	430	0.7	429	432	23.0	36.8
2022-10-05T13:27	10	126	0.2	125	126	433	0.7	432	434	23.0	37.2
2022-10-05T13:28	10	126	0.1	125	126	432	1.0	430	433	23.0	36.4
2022-10-05T13:29	10	125	0.1	125	126	431	0.3	430	431	23.0	36.3
2022-10-05T13:30	10	125	0.1	125	125	431	0.9	430	433	23.0	37.4
2022-10-05T13:31	10	125	0.1	125	125	434	1.0	432	435	23.0	38.8
2022-10-05T13:32	10	125	0.3	125	125	435	0.4	434	435	23.1	38.6
2022-10-05T13:33	10	125	0.2	124	125	435	0.9	433	437	23.1	40.1
2022-10-05T13:34	10	125	0.2	125	125	437	0.4	436	438	23.2	40.0
2022-10-05T13:35	10	125	0.1	124	125	436	0.4	435	437	23.2	38.7
2022-10-05T13:36	10	125	0.1	124	125	435	0.9	433	436	23.2	38.5
2022-10-05T13:37	10	124	0.2	124	125	434	0.8	432	435	23.2	37.9
2022-10-05T13:38	10	124	0.2	123	124	433	0.3	433	434	23.2	37.6
2022-10-05T13:39	10	123	0.1	123	123	433	0.3	432	433	23.2	38.0
2022-10-05T13:40	10	123	0.2	122	123	432	0.5	431	433	23.2	37.1
2022-10-05T13:41	10	122	0.1	122	122	431	0.4	431	432	23.2	37.6
2022-10-05T13:42	10	122	0.1	122	122	433	0.3	432	433	23.1	38.3
2022-10-05T13:43	10	122	0.2	121	122	432	0.4	432	433	23.2	37.8
2022-10-05T13:44	10	121	0.3	121	122	432	1.0	430	433	23.2	36.9
2022-10-05T13:45	10	121	0.1	121	121	431	0.5	430	432	23.2	37.5
2022-10-05T13:46	10	120	0.2	120	121	432	0.3	431	433	23.2	37.7
2022-10-05T13:47	10	120	0.1	120	120	433	0.6	432	434	23.2	38.1
2022-10-05T13:48	10	120	0.2	120	120	431	0.5	430	432	23.2	37.6
2022-10-05T13:49	10	120	0.1	120	120	433	1.1	431	434	23.2	38.8
2022-10-05T13:50	10	120	0.1	119	120	432	1.2	430	434	23.2	37.1
2022-10-05T13:51	10	119	0.3	119	120	430	0.6	428	431	23.2	36.0
2022-10-05T13:52	10	118	0.2	118	119	429	0.4	428	430	23.3	35.7
2022-10-05T13:53	10	118	0.1	118	118	429	0.6	428	431	23.2	36.0
2022-10-05T13:54	10	118	0.2	118	118	430	0.6	429	431	23.2	36.2
2022-10-05T13:55	10	117	0.1	117	118	429	0.2	429	430	23.2	36.1
2022-10-05T13:56	10	117	0.1	117	117	429	0.3	428	430	23.2	35.9
2022-10-05T13:57	10	117	0.2	117	117	429	0.3	428	430	23.3	35.8
2022-10-05T13:58	10	116	0.2	116	117	430	0.4	428	430	23.3	35.7
2022-10-05T13:59	10	116	0.1	116	116	429	0.4	429	430	23.3	36.0
2022-10-05T14:00	10	116	0.1	116	116	429	0.4	429	430	23.3	36.2
2022-10-05T14:01	10	115	0.2	115	116	430	0.4	429	431	23.3	36.6
2022-10-05T14:02	10	115	0.2	115	115	429	0.5	428	430	23.3	35.8
2022-10-05T14:03	10	115	0.1	114	115	428	0.5	427	429	23.3	35.7
2022-10-05T14:04	10	114	0.1	114	115	429	0.8	428	431	23.3	36.4
2022-10-05T14:05	10	114	0.1	114	114	430	0.5	430	431	23.3	36.8
2022-10-05T14:06	10	114	0.2	114	114	431	0.4	430	431	23.3	37.0
2022-10-05T14:07	10	114	0.1	113	114	431	0.2	430	431	23.3	36.8
2022-10-05T14:08	10	113	0.2	113	114	430	1.0	428	431	23.3	35.9
2022-10-05T14:09	10	113	0.1	112	113	429	0.3	428	430	23.3	35.4
2022-10-05T14:10	10	112	0.1	112	112	429	0.6	428	431	23.3	36.9
2022-10-05T14:11	10	112	0.1	112	113	430	0.6	429	431	23.4	36.3
2022-10-05T14:12	10	112	0.1	112	112	428	0.5	427	429	23.3	35.2
2022-10-05T14:13	10	111	0.2	111	112	427	0.3	427	428	23.3	34.5
2022-10-05T14:14	10	111	0.2	110	111	428	0.2	427	428	23.3	34.6
2022-10-05T14:15	10	110	0.1	110	111	428	0.4	427	429	23.3	35.5
2022-10-05T14:16	10	110	0.1	110	110	429	0.5	428	430	23.3	36.3
2022-10-05T14:17	10	110	0.1	109	110	429	0.2	428	430	23.3	35.8
2022-10-05T14:18	10	109	0.1	109	109	430	0.5	429	430	23.3	36.5
2022-10-05T14:19	10	109	0.2	109	109	428	0.9	427	430	23.3	35.7
2022-10-05T14:20	10	109	0.1	108	109	426	0.4	426	427	23.3	34.6
2022-10-05T14:21	10	108	0.2	108	109	427	0.3	426	427	23.3	34.6
2022-10-05T14:22	10	108	0.2	107	108	427	0.5	426	428	23.3	34.2
2022-10-05T14:23	10	107	0.1	107	108	427	0.3	427	428	23.4	34.5
2022-10-05T14:24	10	107	0.1	107	107	427	0.2	426	427	23.4	34.9
2022-10-05T14:25	10	107	0.2	106	107	427	0.4	426	427	23.4	34.8
2022-10-05T14:26	10	106	0.2	106	106	427	0.3	426	428	23.3	34.9
2022-10-05T14:27	10	105	0.1	105	106	428	0.5	427	429	23.3	35.8
2022-10-05T14:28	10	105	0.1	105	105	428	0.2	428	429	23.3	35.7
2022-10-05T14:29	10	105	0.1	105	105	429	0.5	429	431	23.4	36.7
2022-10-05T14:30	10	105	0.1	105	105	431	0.5	430	432	23.3	38.7
2022-10-05T14:31	10	105	0.1	105	105	431	0.4	430	432	23.3	38.3
2022-10-05T14:32	10	105	0.1	104	105	430	0.9	429	432	23.4	37.4
2022-10-05T14:33	10	104	0.1	104	104	430	0.3	429	430	23.3	37.8
2022-10-05T14:34	10	104	0.2	103	104	429	0.4	428	430	23.3	37.1
2022-10-05T14:35	10	103	0.2	103	104	429	0.5	428	430	23.3	38.2
2022-10-05T14:36	10	103	0.1	103	103	430	0.8	429	431	23.4	36.9
2022-10-05T14:37	10	103	0.2	102	103	431	0.8	429	432	23.3	38.0
2022-10-05T14:38	10	102	0.2	102	102	430	0.3	429	430	23.4	37.8
2022-10-05T14:39	10	102	0.2	101	102	429	0.4	428	429	23.3	36.5
2022-10-05T14:40	10	101	0.2	101	101	429	0.4	428	430	23.2	37.0
2022-10-05T14:41	10	101	0.2	100	101	428	0.4	427	429	23.2	35.9
2022-10-05T14:42	10	100	0.2	100	100	428	0.4	427	429	23.3	36.2
2022-10-05T14:43	10	99	0.2	99	100	427	0.3	426	427	23.3	35.8
2022-10-05T14:44	10	99	0.2	98	99	427	0.2	427	428	23.3	36.1
2022-10-05T14:45	10	98	0.2	98	99	427	0.3	426	428	23.2	37.0
2022-10-05T14:46	10	98	0.1	97	98	427	0.3	427	428	23.2	36.6
2022-10-05T14:47	10	98	0.2	97	98	427	0.3	426	428	23.2	36.3
2022-10-05T14:48	10	97	0.3	96	97	425	0.5	424	426	23.2	35.6
2022-10-05T14:49	10	96	0.2	96	97	426	0.3	425	427	23.2	36.4
2022-10-05T14:50	10	96	0.2	95	96	427	0.5	425	428	23.2	37.4
2022-10-05T14:51	10	96	0.2	95	96	426	0.6	425	427	23.2	37.0
2022-10-05T14:52	10	95	0.7	93	96	425	0.3	424	426	23.2	36.7
2022-10-05T14:53	10	94	0.4	93	95	424	0.8	422	425	23.2	35.6
2022-10-05T14:54	10	93	0.3	93	94	423	0.3	423	424	23.0	36.9
2022-10-05T14:55	10	92	0.4	92	93	423	0.4	422	424	23.0	36.7
2022-10-05T14:56	10	92	0.2	92	93	423	0.4	422	424	23.1	37.1
2022-10-05T14:57	10	92	0.5	91	93	422	0.4	421	423	23.2	35.5
2022-10-05T14:58	10	91	0.3	90	91	422	0.4	420	422	23.2	34.5
2022-10-05T14:59	10	90	0.3	90	91	421	0.4	420	421	23.2	34.6
2022-10-05T15:00	10	89	0.4	88	90	421	0.2	420	421	23.1	35.1
2022-10-05T15:01	10	89	0.2	88	89	420	0.6	419	422	23.1	33.8
2022-10-05T15:02	10	88	0.3	87	89	420	0.2	419	420	23.0	34.1
2022-10-05T15:03	10	87	0.2	87	88	420	0.3	419	420	23.1	33.5
2022-10-05T15:04	10	87	0.3	86	87	419	0.3	418	420	23.1	33.6
2022-10-05T15:05	10	86	0.2	86	87	420	0.3	419	421	23.0	34.5
2022-10-05T15:06	10	86	0.2	86	87	420	0.5	419	420	23.0	34.7
2022-10-05T15:07	10	86	0.3	85	86	419	0.4	418	420	23.0	33.9
2022-10-05T15:08	10	85	0.3	84	86	419	0.6	418	420	23.0	34.3
2022-10-05T15:09	10	85	0.2	84	85	420	0.4	419	420	23.0	34.3
2022-10-05T15:10	10	84	0.3	83	85	419	0.3	419	420	22.9	34.7
2022-10-05T15:11	10	83	0.3	82	84	418	0.4	417	420	23.0	33.7
2022-10-05T15:12	10	82	0.2	82	83	418	0.3	417	419	22.9	34.3
2022-10-05T15:13	10	82	0.1	82	82	418	0.3	418	419	22.9	34.7
2022-10-05T15:14	10	81	0.2	81	82	418	0.3	418	419	22.9	35.0
2022-10-05T15:15	10	81	0.2	80	81	419	0.5	418	420	22.8	36.0
2022-10-05T15:16	10	80	0.3	80	81	418	0.4	417	420	22.8	35.4
2022-10-05T15:17	10	80	0.3	79	81	418	0.4	417	419	22.8	35.3
2022-10-05T15:18	10	79	0.3	79	80	418	0.4	417	419	22.8	35.3
2022-10-05T15:19	10	79	0.2	78	79	418	0.3	417	418	22.8	35.7
2022-10-05T15:20	10	78	0.2	78	79	417	0.4	417	418	22.8	35.4
2022-10-05T15:21	10	78	0.3	77	78	417	0.3	416	417	22.7	36.0
2022-10-05T15:22	10	77	0.3	76	78	416	0.6	415	417	22.7	35.4
2022-10-05T15:23	10	76	0.3	76	77	416	0.4	415	417	22.6	35.8
2022-10-05T15:24	10	76	0.2	75	76	416	0.4	415	417	22.6	35.9
2022-10-05T15:25	10	75	0.3	74	76	416	0.3	415	416	22.6	36.2
2022-10-05T15:26	10	74	0.2	74	75	415	0.3	415	416	22.4	37.2
2022-10-05T15:27	10	74	0.2	73	74	416	0.3	415	416	22.5	36.7
2022-10-05T15:28	10	73	0.2	73	74	415	0.3	415	416	22.4	37.5
2022-10-05T15:29	10	73	0.2	72	73	415	0.3	414	415	22.4	37.1
2022-10-05T15:30	10	72	0.3	71	73	414	0.4	413	415	22.5	36.5
2022-10-05T15:31	10	71	0.3	71	72	415	0.3	414	415	22.5	36.2
2022-10-05T15:32	10	70	0.3	69	71	414	0.4	413	415	22.5	35.5
2022-10-05T15:33	10	70	0.3	69	70	413	0.4	412	414	22.5	35.8
2022-10-05T15:34	10	69	0.3	68	69	413	0.4	412	414	22.4	36.3
2022-10-05T15:35	10	68	0.3	68	69	413	0.4	412	414	22.2	37.2
2022-10-05T15:36	10	68	0.3	67	68	413	0.4	412	414	22.2	37.8
2022-10-05T15:37	10	67	0.2	67	68	412	0.3	411	413	22.2	37.2
2022-10-05T15:38	10	66	0.3	66	67	412	0.3	411	413	22.1	37.7
2022-10-05T15:39	10	66	0.2	65	67	412	0.4	411	412	22.2	37.2
2022-10-05T15:40	10	65	0.3	65	66	411	0.2	411	412	22.1	38.0
2022-10-05T15:41	10	64	0.3	64	65	411	0.3	410	411	22.1	38.0
2022-10-05T15:42	10	64	0.3	63	64	410	0.3	410	411	22.1	37.9
2022-10-05T15:43	10	63	0.3	62	64	410	0.3	410	411	22.2	37.2
2022-10-05T15:44	10	62	0.2	61	62	410	0.4	409	410	22.1	37.2
2022-10-05T15:45	10	61	0.3	60	62	410	0.3	409	410	22.0	37.9
2022-10-05T15:46	10	60	0.2	60	61	409	0.4	409	410	22.0	37.8
2022-10-05T15:47	10	60	0.3	59	60	409	0.3	409	410	22.0	37.6
2022-10-05T15:48	10	59	0.3	58	59	409	0.2	408	409	22.0	37.6
2022-10-05T15:49	10	58	0.3	58	59	408	0.3	408	409	22.0	37.7
2022-10-05T15:50	10	57	0.3	57	58	408	0.4	408	410	21.9	38.3
2022-10-05T15:51	10	57	0.3	56	57	408	0.4	407	409	21.9	38.3
2022-10-05T15:52	10	56	0.2	55	56	408	0.3	407	409	22.0	37.8
2022-10-05T15:53	10	55	0.2	55	56	408	0.3	407	408	22.0	38.1
2022-10-05T15:54	10	55	0.2	54	55	408	0.3	407	408	22.0	38.0
2022-10-05T15:55	10	54	0.3	53	55	407	0.3	406	408	21.9	38.0
2022-10-05T15:56	10	53	0.2	53	54	407	0.4	406	408	21.8	38.8
2022-10-05T15:57	10	53	0.2	52	53	406	0.4	406	407	21.8	38.8
2022-10-05T15:58	10	52	0.2	52	52	406	0.3	405	407	21.7	39.0
2022-10-05T15:59	10	51	0.3	51	52	406	0.3	405	406	21.6	39.4
2022-10-05T16:00	10	50	0.3	50	51	406	0.3	405	406	21.6	39.6
2022-10-05T16:01	10	49	0.4	49	50	405	0.3	405	406	21.7	39.1
2022-10-05T16:02	10	48	0.4	48	50	406	0.4	405	406	21.6	39.0
2022-10-05T16:03	10	48	0.3	47	48	405	0.4	404	406	21.6	39.4
2022-10-05T16:04	10	47	0.3	46	47	405	0.4	404	406	21.5	39.9
2022-10-05T16:05	10	46	0.3	45	47	405	0.8	403	406	21.5	39.7
2022-10-05T16:06	10	45	0.3	44	45	404	0.3	404	405	21.4	40.6
2022-10-05T16:07	10	44	0.3	43	45	404	0.5	403	404	21.5	40.1
2022-10-05T16:08	10	43	0.3	43	43	403	0.5	403	404	21.4	40.8
2022-10-05T16:09	10	42	0.2	42	43	402	0.4	402	403	21.2	41.5
2022-10-05T16:10	10	42	0.2	41	42	403	0.4	402	404	21.3	41.2
2022-10-05T16:11	10	41	0.2	40	41	402	0.4	401	403	21.1	42.1
2022-10-05T16:12	10	40	0.2	40	40	402	0.3	401	403	21.2	41.7
2022-10-05T16:13	10	39	0.2	39	40	402	0.4	401	402	21.2	41.9
2022-10-05T16:14	10	38	0.3	38	39	401	0.3	401	402	21.1	42.0
2022-10-05T16:15	10	37	0.3	37	39	401	0.4	400	402	21.1	42.2
2022-10-05T16:16	10	37	0.2	36	37	401	0.5	400	402	21.2	42.0
2022-10-05T16:17	10	36	0.2	36	36	401	0.6	400	402	21.1	42.3
2022-10-05T16:18	10	35	0.2	35	36	401	0.3	401	402	21.2	42.1
2022-10-05T16:19	10	34	0.2	34	35	400	0.5	400	401	21.0	42.8
2022-10-05T16:20	10	33	0.2	33	34	400	0.4	399	401	21.0	43.0
2022-10-05T16:21	10	33	0.2	32	33	400	0.6	399	401	21.0	42.9
2022-10-05T16:22	10	32	0.2	31	32	400	0.3	399	401	21.0	43.1
2022-10-05T16:23	10	31	0.3	31	32	399	0.3	399	400	21.0	43.1
2022-10-05T16:24	10	30	0.3	30	31	399	0.2	399	400	20.9	43.8
2022-10-05T16:25	10	30	0.2	29	30	399	0.6	398	400	20.8	44.2
2022-10-05T16:26	10	29	0.2	28	29	398	0.3	398	399	20.8	44.4
2022-10-05T16:27	10	28	0.2	28	28	399	0.5	398	400	20.9	44.2
2022-10-05T16:28	10	27	0.3	27	28	398	0.3	397	399	20.7	44.6
2022-10-05T16:29	10	26	0.2	26	27	398	0.3	397	399	20.8	44.4
2022-10-05T16:30	10	26	0.3	25	26	398	0.8	397	399	20.8	44.5
2022-10-05T16:31	10	25	0.3	24	25	398	0.3	397	399	20.8	44.1
2022-10-05T16:32	10	24	0.2	23	24	397	0.3	397	398	20.8	44.4
2022-10-05T16:33	10	23	0.2	23	23	397	0.3	396	397	20.6	44.9
2022-10-05T16:34	10	22	0.2	22	23	397	0.5	396	398	20.7	44.6
2022-10-05T16:35	10	21	0.3	21	22	396	0.2	395	396	20.6	45.0
2022-10-05T16:36	10	20	0.3	20	21	396	0.4	395	396	20.5	45.3
2022-10-05T16:37	10	19	0.3	19	20	395	0.3	394	396	20.5	45.4
2022-10-05T16:38	10	18	0.3	18	19	395	0.4	394	396	20.5	45.4
2022-10-05T16:39	10	17	0.3	17	18	395	0.4	394	395	20.5	45.7
2022-10-05T16:40	10	16	0.2	16	17	394	0.5	393	395	20.4	45.8
2022-10-05T16:41	10	16	0.3	15	16	394	0.4	393	394	20.5	45.6
2022-10-05T16:42	10	15	0.3	14	15	393	0.4	392	394	20.4	45.8
2022-10-05T16:43	10	14	0.3	13	14	392	0.5	391	393	20.3	46.2
2022-10-05T16:44	10	13	0.3	12	13	393	0.3	392	394	20.4	45.7
2022-10-05T16:45	10	12	0.3	11	12	392	0.3	391	393	20.3	46.2
2022-10-05T16:46	10	11	0.3	10	12	393	0.4	392	394	20.3	46.0
2022-10-05T16:47	10	10	0.3	10	11	393	0.3	392	393	20.2	46.3
2022-10-05T16:48	10	9	0.3	9	10	392	0.3	392	393	20.0	46.9
2022-10-05T16:49	10	8	0.3	8	9	392	0.4	392	393	20.1	46.7
2022-10-05T16:50	10	8	0.3	7	8	392	0.4	392	393	20.2	46.4
2022-10-05T16:51	10	7	0.2	7	7	391	0.5	390	392	20.0	47.2
2022-10-05T16:52	10	6	0.2	6	7	391	0.4	391	392	20.1	46.8
2022-10-05T16:53	10	5	0.8	3	6	391	0.4	390	391	19.9	47.4
2022-10-05T16:54	10	2	0.7	1	3	390	0.7	389	392	20.1	47.1
2022-10-05T16:55	10	1	0.1	1	1	390	0.4	389	391	19.9	47.4
2022-10-05T16:56	10	1	0.1	0	1	390	0.4	389	390	19.9	47.3
2022-10-05T16:57	10	0	0.1	0	1	388	0.3	388	389	19.7	48.3
2022-10-05T16:58	10	0	0.1	0	0	388	0.4	388	389	19.7	48.3
2022-10-05T16:59	10	0	0.1	0	0	389	0.6	388	391	19.9	47.8
2022-10-05T17:00	10	0	0.1	0	0	389	0.5	388	390	19.7	48.2
2022-10-05T17:01	10	0	0.1	0	0	389	0.4	389	390	19.7	48.2
2022-10-05T17:02	10	0	0.1	0	0	388	0.4	387	389	19.7	48.2
2022-10-05T17:03	10	0	0.1	0	0	389	0.6	387	390	19.8	47.9
2022-10-05T17:04	10	0	0.1	0	0	389	0.3	388	390	19.6	48.2
2022-10-05T17:05	10	0	0.1	0	0	388	0.3	388	389	19.7	47.8
2022-10-05T17:06	10	0	0.1	0	0	388	0.5	387	389	19.8	47.5
2022-10-05T17:07	10	0	0.1	0	0	388	0.7	387	390	19.8	47.2
2022-10-05T17:08	10	0	0.1	0	0	388	0.3	387	388	19.6	47.9
2022-10-05T17:09	10	0	0.1	0	0	387	0.7	386	388	19.7	47.2
2022-10-05T17:10	10	0	0.2	0	1	386	0.3	386	387	19.6	47.7
2022-10-05T17:11	10	0	0.2	0	0	386	0.2	386	387	19.6	47.5
2022-10-05T17:12	10	0	0.2	0	0	385	0.4	384	386	19.6	47.2
2022-10-05T17:13	10	0	0.2	0	1	384	0.3	384	385	19.7	46.7
2022-10-05T17:14	10	0	0.1	0	0	384	0.3	384	385	19.7	46.7
2022-10-05T17:15	10	0	0.1	0	0	385	0.4	384	385	19.7	46.4
2022-10-05T17:16	10	0	0.1	0	0	385	0.4	384	386	19.4	47.2
2022-10-05T17:17	10	0	0.1	0	0	384	0.4	383	384	19.5	46.8
2022-10-05T17:18	10	0	0.1	0	0	384	0.4	383	384	19.5	47.0
2022-10-05T17:19	10	0	0.1	0	0	383	0.4	382	384	19.4	47.0
2022-10-05T17:20	10	0	0.0	0	0	382	0.5	381	384	19.4	47.1
2022-10-05T17:21	10	0	0.1	0	0	384	0.6	383	385	19.5	47.0
2022-10-05T17:22	10	0	0.1	0	0	384	0.4	383	385	19.6	46.5
2022-10-05T17:23	10	0	0.1	0	0	383	0.6	382	384	19.6	46.5
2022-10-05T17:24	10	0	0.1	0	0	382	0.3	381	382	19.4	47.1
2022-10-05T17:25	10	0	0.1	0	0	381	0.4	380	382	19.2	47.8
2022-10-05T17:26	10	0	0.1	0	0	381	0.7	380	382	19.4	47.5
2022-10-05T17:27	10	0	0.1	0	0	382	0.2	381	383	19.3	47.6
2022-10-05T17:28	10	0	0.1	0	0	381	0.4	381	382	19.3	47.7
2022-10-05T17:29	10	0	0.1	0	0	381	0.4	381	382	19.2	47.9
2022-10-05T17:30	10	0	0.1	0	0	381	0.3	380	381	19.1	48.6
2022-10-05T17:31	10	0	0.1	0	0	381	0.3	380	381	19.1	48.8
2022-10-05T17:32	10	0	0.1	0	0	380	0.5	379	381	19.0	49.1
2022-10-05T17:33	10	0	0.1	0	0	380	0.5	379	381	19.1	48.8
2022-10-05T17:34	10	0	0.1	0	0	379	0.5	379	380	18.9	49.0
2022-10-05T17:35	10	0	0.1	0	0	378	0.5	377	379	18.9	49.0
2022-10-05T17:36	10	0	0.1	0	0	377	0.4	376	378	18.9	49.2
2022-10-05T17:37	10	0	0.1	0	0	376	0.3	376	377	18.9	49.2
2022-10-05T17:38	10	0	0.1	0	0	376	0.5	375	377	18.9	49.0
2022-10-05T17:39	10	0	0.1	0	0	376	0.2	375	376	18.9	49.1
2022-10-05T17:40	10	0	0.1	0	0	376	0.4	375	376	18.8	49.4
2022-10-05T17:41	10	0	0.1	0	0	376	0.2	375	376	18.7	49.8
2022-10-05T17:42	10	0	0.1	0	0	375	0.4	375	376	18.7	49.8
2022-10-05T17:43	10	0	0.1	0	0	376	0.4	375	377	18.7	50.1
2022-10-05T17:44	10	0	0.1	0	0	377	0.3	376	377	18.8	49.8
2022-10-05T17:45	10	0	0.1	0	0	376	0.3	376	377	18.7	50.0
2022-10-05T17:46	10	0	0.1	0	0	376	0.3	375	377	18.7	50.2
2022-10-05T17:47	10	0	0.1	0	0	376	0.3	376	377	18.5	50.7
2022-10-05T17:48	10	0	0.1	0	0	376	0.4	375	377	18.7	50.6
2022-10-05T17:49	10	0	0.1	0	0	376	0.4	375	377	18.5	50.9
2022-10-05T17:50	10	0	0.1	0	0	376	0.2	375	376	18.5	51.2
2022-10-05T17:51	10	0	0.1	0	0	376	0.3	375	377	18.5	51.2
2022-10-05T17:52	10	0	0.1	0	0	376	0.3	375	377	18.5	51.3
2022-10-05T17:53	10	0	0.1	0	0	375	0.3	374	376	18.5	51.3
2022-10-05T17:54	10	0	0.1	0	0	375	0.4	374	376	18.5	51.6
2022-10-05T17:55	10	0	0.1	0	0	375	0.3	374	375	18.4	51.9
2022-10-05T17:56	10	0	0.1	0	0	374	0.6	373	375	18.5	51.7
2022-10-05T17:57	10	0	0.1	0	0	373	0.4	372	373	18.3	52.1
2022-10-05T17:58	10	0	0.1	0	0	371	0.3	371	372	18.0	52.9
2022-10-05T17:59	10	0	0.1	0	0	371	0.3	370	371	18.0	53.4
2022-10-05T18:00	10	0	0.1	0	0	370	0.3	369	371	17.9	53.7
2022-10-05T18:01	10	0	0.1	0	0	370	0.2	370	371	17.9	53.9
2022-10-05T18:02	10	0	0.1	0	0	370	0.3	369	370	17.8	54.2
2022-10-05T18:03	10	0	0.1	0	0	370	0.2	369	370	17.6	54.7
2022-10-05T18:04	10	0	0.2	-1	0	369	0.3	369	370	17.6	54.9
2022-10-05T18:05	10	0	0.1	0	0	369	0.2	368	369	17.8	54.9
2022-10-05T18:06	10	0	0.2	-1	0	369	0.3	368	370	17.9	54.4
2022-10-05T18:07	10	0	0.2	-1	0	369	0.3	368	370	17.9	54.3
2022-10-05T18:08	10	0	0.2	-1	1	369	0.3	368	369	17.8	54.8
2022-10-05T18:09	10	0	0.2	0	0	368	0.2	368	369	17.8	54.9
2022-10-05T18:10	10	0	0.1	0	0	368	0.4	367	369	17.9	54.8
2022-10-05T18:11	10	0	0.1	0	0	368	0.2	368	369	18.0	54.4
2022-10-05T18:12	10	0	0.1	0	0	368	0.2	367	369	17.9	54.5
2022-10-05T18:13	10	0	0.1	-1	0	368	0.2	368	368	17.8	54.8
2022-10-05T18:14	10	0	0.1	0	0	368	0.2	367	368	17.8	55.1
2022-10-05T18:15	10	0	0.1	0	0	368	0.2	367	368	17.9	55.0
2022-10-05T18:16	10	0	0.1	0	0	368	0.2	367	369	17.8	55.3
2022-10-05T18:17	10	0	0.1	0	0	368	0.3	368	369	17.8	55.5
2022-10-05T18:18	10	0	0.1	0	0	369	0.3	368	370	17.7	55.8
2022-10-05T18:19	10	0	0.1	0	0	369	0.4	368	370	17.8	55.8
2022-10-05T18:20	10	0	0.1	0	0	368	0.3	367	368	17.6	56.1
2022-10-05T18:21	10	0	0.1	0	0	367	0.2	367	368	17.6	56.4
2022-10-05T18:22	10	0	0.1	0	0	367	0.3	366	367	17.5	56.6
2022-10-05T18:23	10	0	0.1	0	0	367	0.2	367	368	17.5	57.0
2022-10-05T18:24	10	0	0.1	0	0	368	0.4	367	369	17.5	57.2
2022-10-05T18:25	10	0	0.1	0	0	370	0.8	368	371	17.5	57.3
2022-10-05T18:26	10	0	0.1	0	0	371	0.3	370	371	17.3	57.7
2022-10-05T18:27	10	0	0.1	0	0	371	0.3	370	372	17.2	58.4
2022-10-05T18:28	10	0	0.1	0	0	370	0.3	370	371	17.1	58.8
2022-10-05T18:29	10	0	0.1	0	0	370	0.3	369	371	17.1	58.9
2022-10-05T18:30	10	0	0.1	0	0	369	0.3	368	370	17.0	59.2
2022-10-05T18:31	10	0	0.1	0	0	368	0.2	368	369	16.9	59.6
2022-10-05T18:32	10	0	0.1	0	0	367	0.5	367	369	16.8	59.9
2022-10-05T18:33	10	0	0.1	0	0	368	0.3	367	368	16.6	60.4
2022-10-05T18:34	10	0	0.1	-1	0	369	0.5	368	370	16.5	61.4
2022-10-05T18:35	10	0	0.1	-1	0	369	0.4	368	370	16.3	62.1
2022-10-05T18:36	10	0	0.1	-1	0	368	0.2	368	369	16.1	63.2
2022-10-05T18:37	10	-1	0.1	-1	0	367	0.4	367	368	16.1	63.5
2022-10-05T18:38	10	-1	0.1	-1	0	367	0.3	367	368	15.9	64.2
2022-10-05T18:39	10	-1	0.1	-1	-1	368	0.6	367	369	15.9	64.8
2022-10-05T18:40	10	-1	0.1	-1	-1	368	0.6	367	369	16.1	64.4
2022-10-05T18:41	10	-1	0.1	-1	-1	368	0.3	367	369	16.3	63.4
2022-10-05T18:42	10	-1	0.1	-1	-1	368	0.3	367	368	15.9	64.5
2022-10-05T18:43	10	-1	0.1	-1	-1	367	0.4	366	368	15.7	65.7
2022-10-05T18:44	10	-1	0.1	-1	-1	366	0.4	366	367	16.0	65.4
2022-10-05T18:45	10	-1	0.1	-1	-1	366	0.2	365	366	16.3	64.4
2022-10-05T18:46	10	-1	0.1	-1	-1	366	0.4	365	367	16.2	64.7
2022-10-05T18:47	10	-1	0.1	-1	0	366	0.3	365	367	16.5	64.2
2022-10-05T18:48	10	-1	0.1	-1	0	366	0.5	365	367	16.6	64.2
2022-10-05T18:49	10	0	0.1	0	0	367	0.4	366	368	16.9	62.9
2022-10-05T18:50	10	0	0.1	0	0	368	0.4	367	368	17.2	62.0
2022-10-05T18:51	10	0	0.1	0	0	369	0.5	368	370	17.3	61.3
2022-10-05T18:52	10	0	0.1	0	1	370	0.6	369	371	17.4	61.0
2022-10-05T18:53	10	1	0.1	0	1	372	0.5	371	373	17.6	60.3
2022-10-05T18:54	10	1	0.1	1	1	373	0.3	372	374	17.7	60.1
2022-10-05T18:55	10	1	0.1	1	1	374	0.3	373	374	17.6	60.1
2022-10-05T18:56	10	1	0.1	1	1	374	0.4	373	375	17.6	60.2
2022-10-05T18:57	10	1	0.1	1	1	375	0.3	375	376	17.7	60.0
2022-10-05T18:58	10	1	0.1	1	2	376	0.3	375	376	17.7	59.8
2022-10-05T18:59	10	1	0.1	1	2	376	0.3	375	376	17.7	59.9
2022-10-05T19:00	10	1	0.1	1	2	376	0.3	375	376	17.6	60.2
2022-10-05T19:01	10	1	0.2	1	2	376	0.3	375	376	17.6	60.4
2022-10-05T19:02	10	1	0.2	1	2	376	0.3	375	377	17.6	60.3
2022-10-05T19:03	10	1	0.2	1	2	376	0.4	375	377	17.6	60.4
2022-10-05T19:04	10	1	0.1	1	1	376	0.4	375	376	17.6	60.5
2022-10-05T19:05	10	1	0.1	1	1	375	0.3	375	376	17.5	60.7
2022-10-05T19:06	10	1	0.2	0	1	375	0.3	375	376	17.6	60.4
2022-10-05T19:07	10	1	0.2	0	1	375	0.4	374	376	17.5	60.6
2022-10-05T19:08	10	1	0.2	0	1	376	0.3	375	376	17.7	60.2
2022-10-05T19:09	10	1	0.1	1	1	375	0.2	375	376	17.8	59.8
2022-10-05T19:10	10	1	0.1	1	1	376	0.3	375	377	17.7	59.9
2022-10-05T19:11	10	1	0.2	0	1	376	0.3	375	376	17.8	59.6
2022-10-05T19:12	10	1	0.1	0	1	377	0.3	376	377	17.8	59.6
2022-10-05T19:13	10	1	0.2	1	2	377	0.3	376	378	17.7	59.8
2022-10-05T19:14	10	1	0.1	1	1	376	0.4	375	377	17.6	60.4
2022-10-05T19:15	10	1	0.2	0	1	376	0.4	376	377	17.7	60.2
2022-10-05T19:16	10	1	0.1	0	1	377	0.3	376	377	17.5	60.7
2022-10-05T19:17	10	1	0.1	0	1	377	0.2	377	377	17.5	60.8
2022-10-05T19:18	10	0	0.2	0	1	377	0.3	376	377	17.6	60.6
2022-10-05T19:19	10	0	0.1	0	1	377	0.2	376	377	17.6	60.5
2022-10-05T19:20	10	1	0.1	0	1	377	0.3	377	378	17.8	60.0
2022-10-05T19:21	10	1	0.1	0	1	378	0.2	377	378	17.7	60.0
2022-10-05T19:22	10	1	0.1	0	1	377	0.3	376	378	17.6	60.5
2022-10-05T19:23	10	0	0.1	0	1	377	0.3	376	377	17.4	61.3
2022-10-05T19:24	10	0	0.1	0	1	376	0.3	376	377	17.4	61.5
2022-10-05T19:25	10	0	0.1	0	0	376	0.4	375	377	17.3	61.8
2022-10-05T19:26	10	0	0.1	0	0	376	0.2	375	376	17.3	62.1
2022-10-05T19:27	10	0	0.1	0	0	376	0.5	375	377	17.4	61.5
2022-10-05T19:28	10	0	0.1	0	0	376	0.3	375	377	17.3	61.9
2022-10-05T19:29	10	0	0.1	0	0	376	0.3	376	377	17.2	62.0
2022-10-05T19:30	10	0	0.1	0	0	376	0.3	375	376	17.2	62.0
2022-10-05T19:31	10	0	0.1	0	0	375	0.3	375	376	17.2	62.1
2022-10-05T19:32	10	0	0.1	0	0	375	0.3	375	376	17.1	62.3
2022-10-05T19:33	10	0	0.1	0	0	375	0.3	374	375	16.9	63.0
2022-10-05T19:34	10	0	0.1	0	0	374	0.4	374	375	16.9	63.2
2022-10-05T19:35	10	0	0.1	0	0	374	0.2	374	375	17.0	63.0
2022-10-05T19:36	10	0	0.1	0	0	374	0.2	374	375	17.0	62.6
2022-10-05T19:37	10	0	0.1	0	0	374	0.2	373	375	17.0	62.3
2022-10-05T19:38	10	0	0.1	0	0	374	0.2	373	375	17.0	62.3
2022-10-05T19:39	10	0	0.1	-1	0	374	0.3	373	374	16.9	62.8
2022-10-05T19:40	10	0	0.1	0	0	373	0.4	372	374	16.8	63.0
2022-10-05T19:41	10	0	0.0	0	0	372	0.3	372	373	16.7	63.4
2022-10-05T19:42	10	0	0.1	-1	0	372	0.3	371	372	16.5	63.9
2022-10-05T19:43	10	0	0.0	-1	0	372	0.3	372	373	16.8	63.7
2022-10-05T19:44	10	0	0.1	-1	0	372	0.4	371	373	16.7	63.6
2022-10-05T19:45	10	0	0.1	-1	0	372	0.5	371	373	16.7	64.1
2022-10-05T19:46	10	0	0.1	-1	0	372	0.2	371	372	16.8	63.8
2022-10-05T19:47	10	0	0.1	-1	0	372	0.4	371	372	16.8	63.9
2022-10-05T19:48	10	0	0.2	0	1	371	0.3	370	371	16.7	64.4
2022-10-05T19:49	10	0	0.0	0	0	370	0.3	370	371	16.7	64.6
2022-10-05T19:50	10	0	0.1	0	0	370	0.4	369	371	16.7	64.5
2022-10-05T19:51	10	0	0.1	0	0	370	0.4	369	371	16.9	63.8
2022-10-05T19:52	10	0	0.1	0	0	370	0.4	369	371	16.8	64.0
2022-10-05T19:53	10	0	0.1	0	0	370	0.4	369	370	16.8	64.5
2022-10-05T19:54	10	0	0.1	0	0	371	0.9	370	373	17.0	64.3
2022-10-05T19:55	10	0	0.1	0	0	373	0.6	371	374	16.9	64.5
2022-10-05T19:56	10	0	0.1	0	0	372	0.5	371	373	16.7	65.2
2022-10-05T19:57	10	0	0.1	0	0	371	0.4	370	372	16.6	65.8
2022-10-05T19:58	10	0	0.1	0	0	371	0.7	370	372	16.6	65.9
2022-10-05T19:59	10	0	0.1	0	0	370	0.3	369	370	16.4	66.8
2022-10-05T20:00	10	0	0.1	0	0	369	0.3	369	370	16.4	67.2
2022-10-05T20:01	10	0	0.0	0	0	369	0.4	368	370	16.2	68.1
2022-10-05T20:02	10	0	0.1	0	0	367	0.4	366	368	16.2	68.0
2022-10-05T20:03	10	0	0.1	0	0	366	0.2	366	367	16.2	68.4
2022-10-05T20:04	10	0	0.1	0	0	366	0.2	365	366	16.3	68.1
2022-10-05T20:05	10	0	0.1	0	0	365	0.3	364	366	16.2	68.3
2022-10-05T20:06	10	0	0.1	0	0	365	0.2	364	365	15.9	69.0
2022-10-05T20:07	10	0	0.1	0	0	364	0.3	363	364	15.9	69.5
2022-10-05T20:08	10	0	0.1	-1	0	364	0.3	363	364	15.7	69.8
2022-10-05T20:09	10	0	0.1	0	0	364	0.6	363	365	15.7	70.4
2022-10-05T20:10	10	0	0.1	-1	0	364	0.4	363	365	15.9	69.7
2022-10-05T20:11	10	0	0.0	0	0	364	0.4	364	365	15.7	70.3
2022-10-05T20:12	10	0	0.1	-1	0	365	0.4	364	366	16.1	69.8
2022-10-05T20:13	10	0	0.1	0	0	365	0.6	364	366	16.0	69.3
2022-10-05T20:14	10	0	0.1	0	0	366	0.3	365	366	16.2	69.3
2022-10-05T20:15	10	0	0.1	0	0	365	0.3	364	366	16.3	68.8
2022-10-05T20:16	10	0	0.1	0	0	365	0.3	364	366	16.3	69.0
2022-10-05T20:17	10	0	0.1	0	0	365	0.4	364	366	16.3	69.0
2022-10-05T20:18	10	0	0.1	0	0	365	0.9	363	366	16.4	68.9
2022-10-05T20:19	10	0	0.1	0	0	365	0.3	364	365	16.3	68.9
2022-10-05T20:20	10	0	0.1	0	0	366	0.6	365	367	16.5	68.8
2022-10-05T20:21	10	0	0.1	0	0	367	0.6	366	369	16.8	68.6
2022-10-05T20:22	10	0	0.1	0	0	368	0.5	366	368	16.6	68.1
2022-10-05T20:23	10	0	0.1	0	0	367	0.4	366	368	16.4	68.6
2022-10-05T20:24	10	0	0.1	0	1	367	0.5	366	368	16.3	69.3
2022-10-05T20:25	10	0	0.1	0	0	366	0.4	365	366	16.4	69.2
2022-10-05T20:26	10	0	0.1	0	0	365	0.4	364	366	16.6	68.8
2022-10-05T20:27	10	0	0.1	0	1	365	0.3	363	365	16.7	68.4
2022-10-05T20:28	10	0	0.1	0	1	364	0.4	364	365	16.8	68.3
2022-10-05T20:29	10	0	0.1	0	1	364	0.3	364	365	16.6	68.2
2022-10-05T20:30	10	0	0.1	0	1	364	0.3	364	365	16.4	69.2
2022-10-05T20:31	10	0	0.1	0	1	364	0.3	363	365	16.4	69.4
2022-10-05T20:32	10	0	0.1	0	0	363	0.4	362	364	16.5	69.2
2022-10-05T20:33	10	0	0.1	0	0	363	0.2	363	364	16.4	69.5
2022-10-05T20:34	10	0	0.1	0	0	364	0.7	363	366	16.7	69.6
2022-10-05T20:35	10	0	0.1	0	0	367	0.6	365	368	16.8	68.9
2022-10-05T20:36	10	0	0.1	0	0	367	0.3	367	368	16.6	69.0
2022-10-05T20:37	10	0	0.1	0	1	369	0.8	367	370	16.6	69.8
2022-10-05T20:38	10	0	0.1	0	0	370	0.4	369	370	16.4	69.7
2022-10-05T20:39	10	0	0.1	0	1	369	0.5	368	370	16.3	70.2
2022-10-05T20:40	10	0	0.1	0	0	369	0.3	368	369	16.0	70.8
2022-10-05T20:41	10	0	0.1	0	0	369	0.4	368	370	16.1	70.9
2022-10-05T20:42	10	0	0.1	0	0	369	0.4	368	370	16.2	70.9
2022-10-05T20:43	10	0	0.1	0	0	369	0.2	368	369	16.0	71.1
2022-10-05T20:44	10	0	0.1	0	0	369	0.3	368	369	16.1	71.4
2022-10-05T20:45	10	0	0.1	0	0	368	0.3	368	369	16.1	71.3
2022-10-05T20:46	10	0	0.1	0	0	368	0.4	367	368	16.1	71.3
2022-10-05T20:47	10	0	0.1	0	0	367	0.3	367	368	16.0	71.4
2022-10-05T20:48	10	0	0.1	0	0	367	0.2	367	368	16.0	71.8
2022-10-05T20:49	10	0	0.1	0	0	366	0.6	365	368	15.8	71.8
2022-10-05T20:50	10	0	0.1	0	0	365	0.2	365	366	15.4	73.1
2022-10-05T20:51	10	0	0.1	0	0	365	0.3	364	365	15.4	73.9
2022-10-05T20:52	10	0	0.1	0	0	365	0.2	364	365	15.6	73.5
2022-10-05T20:53	10	0	0.4	-1	2	364	0.2	364	365	15.4	73.7
2022-10-05T20:54	10	0	0.1	0	0	364	0.2	363	364	15.4	74.4
2022-10-05T20:55	10	0	0.1	0	0	364	0.3	363	364	15.2	74.5
2022-10-05T20:56	10	0	0.5	0	3	363	0.2	363	364	14.9	75.1
2022-10-05T20:57	10	0	0.1	0	0	364	0.2	363	364	14.7	76.3
2022-10-05T20:58	10	0	0.1	0	0	365	0.3	364	365	14.7	76.7
2022-10-05T20:59	10	0	0.1	0	0	364	0.2	364	365	14.7	76.9
2022-10-05T21:00	10	0	0.1	0	0	365	0.3	364	365	14.6	77.1
2022-10-05T21:01	10	0	0.1	0	0	364	0.3	363	365	14.6	77.3
2022-10-05T21:02	10	0	0.1	0	0	364	0.2	364	365	14.5	77.3
2022-10-05T21:03	10	0	0.1	0	1	365	0.4	364	366	14.6	77.7
2022-10-05T21:04	10	0	0.1	0	0	365	0.2	364	365	14.6	77.5
2022-10-05T21:05	10	0	0.1	0	1	365	0.3	364	365	14.6	77.3
2022-10-05T21:06	10	0	0.1	0	1	364	0.3	363	364	14.5	77.5
2022-10-05T21:07	10	0	0.1	0	0	363	0.3	362	363	14.6	77.6
2022-10-05T21:08	10	0	0.1	0	0	363	0.3	363	364	14.6	77.5
2022-10-05T21:09	10	0	0.1	0	0	363	0.3	362	364	14.5	77.8
2022-10-05T21:10	10	0	0.1	0	0	363	0.2	363	364	14.6	78.3
2022-10-05T21:11	10	0	0.1	0	0	364	0.4	363	364	14.6	77.8
2022-10-05T21:12	10	0	0.1	0	0	364	0.4	363	365	14.8	77.8
2022-10-05T21:13	10	0	0.1	0	0	364	0.6	363	365	14.6	77.7
2022-10-05T21:14	10	0	0.1	0	0	365	0.2	364	365	14.7	77.7
2022-10-05T21:15	10	0	0.1	0	0	364	0.2	364	365	14.7	77.8
2022-10-05T21:16	10	0	0.1	0	0	364	0.4	363	365	14.7	78.1
2022-10-05T21:17	10	0	0.1	0	1	364	0.4	363	364	14.6	78.0
2022-10-05T21:18	10	0	0.1	0	1	365	0.4	364	366	14.6	78.5
2022-10-05T21:19	10	0	0.0	0	0	365	0.4	364	366	14.7	78.3
2022-10-05T21:20	10	0	0.1	0	1	365	0.3	364	365	14.6	78.3
2022-10-05T21:21	10	0	0.1	0	1	365	0.3	365	366	14.7	78.7
2022-10-05T21:22	10	0	0.1	0	1	365	0.3	365	366	14.6	78.5
2022-10-05T21:23	10	0	0.1	0	1	366	0.2	365	366	14.6	78.9
2022-10-05T21:24	10	0	0.1	0	1	365	0.3	365	366	14.5	79.1
2022-10-05T21:25	10	0	0.1	0	0	365	0.3	365	366	14.5	78.6
2022-10-05T21:26	10	0	0.1	0	0	366	0.2	365	366	14.7	78.4
2022-10-05T21:27	10	0	0.1	0	0	366	0.2	365	366	14.7	77.3
2022-10-05T21:28	10	0	0.1	0	0	366	0.2	365	366	14.9	77.7
2022-10-05T21:29	10	0	0.1	0	0	365	0.3	365	366	14.9	77.3
2022-10-05T21:30	10	0	0.1	0	0	366	0.3	365	367	15.0	77.4
2022-10-05T21:31	10	0	0.1	0	1	366	0.3	365	366	14.9	77.2
2022-10-05T21:32	10	0	0.1	0	1	365	0.6	364	366	14.9	77.6
2022-10-05T21:33	10	0	0.4	0	2	364	0.2	364	365	14.8	77.9
2022-10-05T21:34	10	0	0.1	0	1	364	0.3	364	365	14.8	78.3
2022-10-05T21:35	10	0	0.1	0	0	364	0.2	364	365	14.8	78.4
2022-10-05T21:36	10	1	0.1	1	1	364	0.3	363	364	14.7	78.5
2022-10-05T21:37	10	1	0.1	1	1	363	0.2	363	364	14.7	78.9
2022-10-05T21:38	10	1	0.1	0	1	363	0.3	363	364	14.9	78.8
2022-10-05T21:39	10	1	0.1	0	1	363	0.3	362	363	14.9	78.5
2022-10-05T21:40	10	1	0.2	0	1	362	0.4	361	363	14.8	78.6
2022-10-05T21:41	10	1	0.1	0	1	363	0.4	362	364	14.7	78.8
2022-10-05T21:42	10	1	0.2	0	1	362	0.4	361	363	14.7	79.1
2022-10-05T21:43	10	1	0.2	0	1	362	0.3	361	362	14.7	79.0
2022-10-05T21:44	10	1	0.2	0	1	362	0.3	361	362	14.6	79.3
2022-10-05T21:45	10	1	0.2	0	1	362	0.3	361	362	14.6	79.3
2022-10-05T21:46	10	1	0.2	0	1	361	0.3	360	362	14.6	79.8
2022-10-05T21:47	10	1	0.1	0	1	361	0.3	360	361	14.6	79.8
2022-10-05T21:48	10	1	0.2	0	1	360	0.3	360	361	14.6	80.0
2022-10-05T21:49	10	1	0.2	0	1	361	0.3	360	361	14.6	80.0
2022-10-05T21:50	10	1	0.2	0	1	361	0.2	360	361	14.6	79.9
2022-10-05T21:51	10	1	0.2	0	1	361	0.3	361	362	14.6	80.2
2022-10-05T21:52	10	1	0.1	0	1	362	0.2	361	362	14.6	80.1
2022-10-05T21:53	10	1	0.2	0	1	361	0.3	361	362	14.6	80.1
2022-10-05T21:54	10	1	0.1	1	1	362	0.3	362	363	14.7	80.2
2022-10-05T21:55	10	1	0.1	1	1	362	0.2	362	363	14.6	80.2
2022-10-05T21:56	10	1	0.1	1	1	362	0.3	361	363	14.5	80.4
2022-10-05T21:57	10	1	0.1	1	1	362	0.2	361	363	14.5	80.9
2022-10-05T21:58	10	1	0.1	1	1	362	0.3	361	362	14.4	81.1
2022-10-05T21:59	10	1	0.1	0	1	361	0.2	361	362	14.4	81.2
2022-10-05T22:00	10	1	0.1	1	1	361	0.2	361	362	14.4	81.4
2022-10-05T22:01	10	1	0.0	1	1	361	0.3	361	362	14.3	81.6
2022-10-05T22:02	10	1	0.1	1	1	361	0.2	361	362	14.3	81.9
2022-10-05T22:03	10	1	0.1	1	1	361	0.2	361	362	14.2	82.3
2022-10-05T22:04	10	1	0.1	1	1	361	0.2	361	361	14.3	82.4
2022-10-05T22:05	10	1	0.1	1	1	360	0.3	360	361	14.3	82.3
2022-10-05T22:06	10	1	0.1	1	1	360	0.2	360	360	14.3	82.1
2022-10-05T22:07	10	1	0.1	1	1	360	0.2	359	360	14.4	81.9
2022-10-05T22:08	10	0	0.1	0	0	360	0.2	359	360	14.4	81.8
2022-10-05T22:09	10	0	0.1	0	0	360	0.2	359	360	14.4	81.7
2022-10-05T22:10	10	0	0.1	0	0	360	0.2	359	360	14.3	81.8
2022-10-05T22:11	10	0	0.1	0	0	360	0.2	359	360	14.2	82.1
2022-10-05T22:12	10	0	0.1	0	0	359	0.2	359	360	14.3	82.2
2022-10-05T22:13	10	0	0.1	0	0	359	0.3	359	360	14.3	82.3
2022-10-05T22:14	10	0	0.1	0	0	360	0.3	359	360	14.3	82.2
2022-10-05T22:15	10	0	0.1	0	0	360	0.3	359	361	14.4	82.4
2022-10-05T22:16	10	0	0.1	0	0	360	0.2	360	360	14.3	82.2
2022-10-05T22:17	10	0	0.1	0	0	360	0.3	359	361	14.4	82.2
2022-10-05T22:18	10	0	0.1	0	0	360	0.2	360	361	14.4	82.2
2022-10-05T22:19	10	0	0.1	0	0	360	0.3	359	361	14.4	82.0
2022-10-05T22:20	10	0	0.1	0	0	361	0.4	360	362	14.6	82.1
2022-10-05T22:21	10	0	0.1	0	0	361	0.3	360	361	14.5	81.7
2022-10-05T22:22	10	0	0.1	0	0	360	0.2	359	360	14.4	81.6
2022-10-05T22:23	10	0	0.1	0	0	360	0.2	359	360	14.3	81.7
2022-10-05T22:24	10	0	0.1	0	1	361	0.5	360	362	14.2	81.8
2022-10-05T22:25	10	0	0.1	0	1	361	0.4	360	362	14.3	82.1
2022-10-05T22:26	10	0	0.1	0	0	361	0.3	361	362	14.3	82.1
2022-10-05T22:27	10	0	0.1	0	0	361	0.3	360	362	14.2	82.4
2022-10-05T22:28	10	0	0.1	0	0	360	0.2	360	361	14.2	82.4
2022-10-05T22:29	10	0	0.1	0	0	360	0.2	360	361	14.2	82.6
2022-10-05T22:30	10	0	0.1	0	0	360	0.4	359	361	14.1	82.8
2022-10-05T22:31	10	0	0.1	0	0	360	1.0	359	362	14.1	83.0
2022-10-05T22:32	10	0	0.1	0	1	360	0.5	359	361	13.5	83.4
2022-10-05T22:33	10	0	0.1	0	0	360	0.4	359	361	13.5	84.7
2022-10-05T22:34	10	0	0.1	0	0	360	0.4	359	361	13.4	84.8
2022-10-05T22:35	10	0	0.1	0	0	361	0.3	360	361	13.3	85.3
2022-10-05T22:36	10	0	0.1	0	0	361	0.3	361	362	13.4	85.6
2022-10-05T22:37	10	0	0.1	0	0	361	0.2	360	361	13.6	85.8
2022-10-05T22:38	10	0	0.1	0	0	361	0.3	360	362	13.7	85.2
2022-10-05T22:39	10	0	0.1	0	0	361	0.3	361	362	13.7	85.1
2022-10-05T22:40	10	0	0.1	0	0	361	0.2	361	362	13.7	85.3
2022-10-05T22:41	10	0	0.1	0	0	362	0.3	361	363	13.9	84.9
2022-10-05T22:42	10	0	0.1	0	0	362	0.3	361	363	14.0	84.4
2022-10-05T22:43	10	0	0.1	0	0	362	0.3	361	362	14.0	84.3
2022-10-05T22:44	10	0	0.1	0	0	361	0.2	361	362	14.1	84.2
2022-10-05T22:45	10	0	0.1	0	0	361	0.3	361	362	14.1	83.9
2022-10-05T22:46	10	0	0.1	0	0	361	0.2	361	361	14.2	83.9
2022-10-05T22:47	10	0	0.1	0	0	362	0.3	361	362	14.3	83.6
2022-10-05T22:48	10	0	0.1	0	1	361	0.3	360	362	14.3	83.6
2022-10-05T22:49	10	0	0.1	0	1	361	0.2	360	361	14.1	83.5
2022-10-05T22:50	10	0	0.1	0	0	361	0.3	360	361	13.8	84.1
2022-10-05T22:51	10	0	0.1	0	1	361	0.3	360	361	13.5	84.9
2022-10-05T22:52	10	0	0.1	0	0	361	0.3	360	362	13.1	86.3
2022-10-05T22:53	10	0	0.1	0	0	361	0.3	360	361	13.2	86.8
2022-10-05T22:54	10	0	0.1	0	0	360	0.5	359	361	13.2	86.8
2022-10-05T22:55	10	0	0.1	0	0	360	0.6	359	361	13.3	86.3
2022-10-05T22:56	10	0	0.1	0	0	361	0.4	360	362	13.9	86.1
2022-10-05T22:57	10	0	0.1	0	0	361	0.3	360	362	14.1	84.3
2022-10-05T22:58	10	0	0.1	0	0	361	0.2	360	361	14.0	84.1
2022-10-05T22:59	10	0	0.1	0	0	361	0.3	360	362	13.8	84.7
2022-10-05T23:00	10	0	0.1	0	0	361	0.4	360	362	13.7	84.9
2022-10-05T23:01	10	0	0.1	0	0	360	0.4	360	361	13.4	85.4
2022-10-05T23:02	10	0	0.1	0	0	361	0.5	359	362	14.0	85.9
2022-10-05T23:03	10	0	0.1	0	0	361	0.7	359	362	14.2	84.2
2022-10-05T23:04	10	0	0.1	0	0	361	0.3	360	362	14.6	83.3
2022-10-05T23:05	10	0	0.1	0	1	361	0.4	360	362	14.4	83.1
2022-10-05T23:06	10	0	0.1	0	1	362	0.2	361	362	14.8	83.3
2022-10-05T23:07	10	1	0.1	0	1	361	0.2	360	361	14.7	82.6
2022-10-05T23:08	10	1	0.1	0	1	361	0.2	361	362	14.8	83.2
2022-10-05T23:09	10	1	0.1	0	1	361	0.2	360	362	14.7	82.9
2022-10-05T23:10	10	1	0.1	1	1	361	0.2	360	361	14.6	83.3
2022-10-05T23:11	10	1	0.1	0	1	361	0.3	360	361	14.6	83.5
2022-10-05T23:12	10	1	0.1	1	1	360	0.2	360	361	14.5	83.7
2022-10-05T23:13	10	1	0.1	0	1	361	0.3	360	361	14.6	84.0
2022-10-05T23:14	10	1	0.1	0	1	361	0.3	360	361	14.8	83.5
2022-10-05T23:15	10	1	0.1	0	1	360	0.3	360	361	14.8	83.2
2022-10-05T23:16	10	1	0.1	1	1	360	0.4	359	361	14.7	83.2
2022-10-05T23:17	10	1	0.1	1	1	360	0.2	360	360	14.7	83.5
2022-10-05T23:18	10	1	0.1	1	1	361	0.4	360	362	14.6	83.4
2022-10-05T23:19	10	1	0.1	0	1	362	0.9	361	364	14.5	83.8
2022-10-05T23:20	10	1	0.1	0	1	364	0.5	363	365	14.6	83.9
2022-10-05T23:21	10	1	0.1	0	1	365	0.2	364	365	14.5	84.0
2022-10-05T23:22	10	1	0.1	0	1	366	0.3	365	366	14.5	84.3
2022-10-05T23:23	10	1	0.1	0	1	366	0.2	366	367	14.4	84.3
2022-10-05T23:24	10	1	0.1	0	1	365	0.4	365	366	14.3	84.8
2022-10-05T23:25	10	1	0.1	0	1	365	0.5	363	366	14.3	84.8
2022-10-05T23:26	10	1	0.1	0	1	364	0.3	363	365	14.4	84.9
2022-10-05T23:27	10	1	0.1	1	1	363	0.3	363	364	14.2	84.9
2022-10-05T23:28	10	1	0.1	0	1	363	0.3	362	364	14.2	85.3
2022-10-05T23:29	10	1	0.1	0	1	364	0.3	363	364	14.2	85.5
2022-10-05T23:30	10	1	0.1	0	1	363	0.4	362	364	14.1	85.4
2022-10-05T23:31	10	1	0.1	0	1	362	0.2	362	363	13.9	85.9
2022-10-05T23:32	10	0	0.1	0	1	362	0.3	362	363	13.8	86.5
2022-10-05T23:33	10	0	0.1	0	1	363	0.5	362	364	13.7	86.7
2022-10-05T23:34	10	0	0.1	0	1	363	0.2	362	363	13.8	87.2
2022-10-05T23:35	10	0	0.1	0	1	362	0.3	362	363	13.8	87.1
2022-10-05T23:36	10	0	0.1	0	1	362	0.3	361	362	13.7	87.2
2022-10-05T23:37	10	0	0.1	0	1	361	0.3	361	362	13.6	87.4
2022-10-05T23:38	10	0	0.1	0	1	361	0.3	361	362	13.8	87.6
2022-10-05T23:39	10	0	0.1	0	1	361	0.3	360	362	13.8	87.2
2022-10-05T23:40	10	0	0.1	0	1	361	0.3	360	361	13.8	87.2
2022-10-05T23:41	10	0	0.1	0	1	361	0.4	360	362	13.7	87.4
2022-10-05T23:42	10	0	0.1	0	1	360	0.7	359	362	13.8	87.1
2022-10-05T23:43	10	0	0.1	0	0	361	0.6	360	362	13.6	87.7
2022-10-05T23:44	10	0	0.1	0	0	362	0.3	361	362	14.1	87.1
2022-10-05T23:45	10	0	0.1	0	0	362	0.4	361	362	13.9	86.4
2022-10-05T23:46	10	0	0.1	0	0	361	0.4	361	362	13.8	86.8
2022-10-05T23:47	10	0	0.1	0	0	362	0.8	360	363	13.6	87.0
2022-10-05T23:48	10	0	0.1	0	0	362	0.3	362	363	13.8	87.3
2022-10-05T23:49	10	0	0.1	0	0	362	0.2	362	363	13.8	87.0
2022-10-05T23:50	10	0	0.1	0	0	363	0.3	362	364	13.9	86.7
2022-10-05T23:51	10	0	0.1	0	0	363	0.2	362	363	13.9	86.7
2022-10-05T23:52	10	0	0.1	0	0	362	0.3	362	363	14.0	86.8
2022-10-05T23:53	10	0	0.1	0	0	362	0.2	362	363	14.3	86.4
2022-10-05T23:54	10	0	0.1	0	0	362	0.2	362	363	14.1	85.9
2022-10-05T23:55	10	0	0.1	0	0	362	0.3	361	363	14.0	86.3
2022-10-05T23:56	10	0	0.1	0	0	362	0.3	361	362	14.1	86.3
2022-10-05T23:57	10	0	0.1	0	1	361	0.3	360	362	14.1	86.1
2022-10-05T23:58	10	0	0.1	0	1	361	0.2	360	361	14.0	86.2
2022-10-05T23:59	10	0	0.1	0	1	361	0.2	360	361	14.2	86.8
2022-10-06T00:00	10	0	0.1	0	1	360	0.2	359	360	14.2	86.4
2022-10-06T00:01	10	0	0.1	0	1	360	0.3	360	361	14.3	86.3
2022-10-06T00:02	10	0	0.1	0	1	360	0.2	360	361	14.2	86.1
2022-10-06T00:03	10	0	0.1	0	1	360	0.2	359	360	14.0	86.3
2022-10-06T00:04	10	1	0.1	0	1	360	0.3	359	360	14.1	86.7
2022-10-06T00:05	10	0	0.0	0	1	360	0.3	360	361	14.0	86.8
2022-10-06T00:06	10	0	0.1	0	1	360	0.5	359	361	14.0	87.0
2022-10-06T00:07	10	1	0.1	0	1	360	0.3	359	361	13.9	86.9
2022-10-06T00:08	10	0	0.1	0	1	360	0.3	359	360	13.7	87.2
2022-10-06T00:09	10	0	0.1	0	1	360	0.2	360	361	13.8	87.6
2022-10-06T00:10	10	0	0.1	0	1	361	0.3	360	361	13.7	87.6
2022-10-06T00:11	10	0	0.1	0	0	361	0.3	360	361	13.8	87.8
2022-10-06T00:12	10	0	0.1	0	1	361	0.3	360	362	13.8	87.7
2022-10-06T00:13	10	0	0.1	0	0	361	0.4	360	362	13.8	87.7
2022-10-06T00:14	10	0	0.1	0	0	362	0.3	361	362	13.8	88.0
2022-10-06T00:15	10	0	0.1	0	0	362	0.3	361	362	13.8	88.0
2022-10-06T00:16	10	0	0.1	0	0	362	0.2	361	362	13.7	88.1
2022-10-06T00:17	10	0	0.1	0	0	362	0.2	361	362	13.8	88.2
2022-10-06T00:18	10	0	0.1	0	0	362	0.3	361	363	13.9	87.9
2022-10-06T00:19	10	0	0.1	0	0	362	0.4	361	363	13.8	88.0
2022-10-06T00:20	10	0	0.1	0	0	362	0.3	361	363	13.7	88.4
2022-10-06T00:21	10	0	0.1	0	0	362	0.5	361	363	13.6	88.6
2022-10-06T00:22	10	0	0.1	0	0	362	0.3	362	363	13.8	88.4
2022-10-06T00:23	10	0	0.1	0	0	363	0.7	362	364	14.0	88.1
2022-10-06T00:24	10	0	0.1	0	0	365	0.3	364	365	14.2	87.4
2022-10-06T00:25	10	0	0.1	0	0	364	0.4	363	365	14.1	87.3
2022-10-06T00:26	10	0	0.1	0	0	364	0.3	363	364	14.0	87.5
2022-10-06T00:27	10	0	0.1	0	0	364	0.3	363	364	14.0	87.8
2022-10-06T00:28	10	0	0.1	0	0	363	0.5	362	364	14.1	87.6
2022-10-06T00:29	10	0	0.1	0	0	362	0.3	361	363	14.1	87.5
2022-10-06T00:30	10	0	0.1	0	0	361	0.3	361	362	14.2	87.5
2022-10-06T00:31	10	0	0.1	0	0	361	0.3	360	362	14.2	87.1
2022-10-06T00:32	10	0	0.1	0	0	361	0.2	360	362	14.2	87.1
2022-10-06T00:33	10	0	0.1	0	0	361	0.2	360	361	14.2	87.1
2022-10-06T00:34	10	0	0.1	0	0	361	0.3	361	362	14.3	87.1
2022-10-06T00:35	10	0	0.1	0	0	360	0.2	360	361	14.3	86.8
2022-10-06T00:36	10	0	0.1	0	0	360	0.4	359	361	14.3	86.9
2022-10-06T00:37	10	0	0.1	0	0	361	0.7	360	363	14.5	86.8
2022-10-06T00:38	10	0	0.1	0	0	361	0.3	361	362	14.1	86.5
2022-10-06T00:39	10	0	0.1	0	0	362	0.4	361	363	14.2	87.3
2022-10-06T00:40	10	0	0.1	0	1	362	0.2	362	363	14.3	87.3
2022-10-06T00:41	10	0	0.1	0	1	363	0.3	362	363	14.3	87.0
2022-10-06T00:42	10	1	0.1	0	1	362	0.3	361	363	14.2	86.8
2022-10-06T00:43	10	0	0.1	0	1	361	0.3	360	362	13.6	87.2
2022-10-06T00:44	10	0	0.1	0	0	360	0.3	360	361	13.4	89.9
2022-10-06T00:45	10	0	0.1	0	0	360	0.5	359	361	13.7	89.1
2022-10-06T00:46	10	0	0.1	0	0	360	0.3	359	360	13.1	89.4
2022-10-06T00:47	10	0	0.1	0	0	359	0.4	358	360	13.0	90.6
2022-10-06T00:48	10	0	0.1	0	0	360	0.3	359	360	13.0	91.3
2022-10-06T00:49	10	0	0.1	0	0	360	0.3	359	361	13.0	91.0
2022-10-06T00:50	10	0	0.1	0	0	361	0.4	359	361	13.3	91.4
2022-10-06T00:51	10	0	0.1	0	0	361	0.7	360	363	13.6	89.6
2022-10-06T00:52	10	0	0.1	0	0	363	0.7	361	364	14.3	89.2
2022-10-06T00:53	10	0	0.1	0	0	362	0.6	361	363	14.3	87.3
2022-10-06T00:54	10	0	0.1	0	0	364	0.5	363	365	14.3	87.1
2022-10-06T00:55	10	0	0.1	0	0	364	0.4	363	365	14.3	87.3
2022-10-06T00:56	10	0	0.1	0	0	364	0.3	363	364	14.3	87.4
2022-10-06T00:57	10	0	0.1	0	0	363	0.3	362	364	14.4	87.2
2022-10-06T00:58	10	0	0.1	0	0	362	0.2	362	363	14.2	87.3
2022-10-06T00:59	10	0	0.1	0	0	362	0.2	362	363	14.2	87.5
2022-10-06T01:00	10	0	0.1	0	0	363	0.5	362	364	14.1	87.7
2022-10-06T01:01	10	0	0.1	0	0	364	0.3	363	364	14.1	88.1
2022-10-06T01:02	10	0	0.1	0	0	364	0.3	363	365	14.5	87.5
2022-10-06T01:03	10	0	0.1	0	0	364	0.3	364	365	14.6	86.3
2022-10-06T01:04	10	0	0.1	0	0	363	0.5	362	364	14.3	86.8
2022-10-06T01:05	10	0	0.1	0	0	362	0.4	361	363	13.9	87.8
2022-10-06T01:06	10	0	0.1	0	0	361	0.3	361	362	13.8	89.1
2022-10-06T01:07	10	0	0.1	0	0	361	0.3	361	362	14.0	89.0
2022-10-06T01:08	10	0	0.1	0	0	361	0.3	361	362	14.0	88.6
2022-10-06T01:09	10	0	0.1	0	0	361	0.3	360	361	13.7	88.6
2022-10-06T01:10	10	0	0.1	0	0	359	0.5	358	361	12.9	89.1
2022-10-06T01:11	10	0	0.1	0	0	360	0.4	359	361	12.9	91.7
2022-10-06T01:12	10	0	0.1	0	0	359	1.0	357	360	13.0	92.2
2022-10-06T01:13	10	0	0.1	0	0	360	0.6	359	362	13.1	92.6
2022-10-06T01:14	10	0	0.1	0	0	360	0.3	359	361	13.4	92.2
2022-10-06T01:15	10	0	0.1	0	0	359	0.5	358	360	13.3	91.5
2022-10-06T01:16	10	0	0.1	0	0	359	0.4	358	360	12.8	91.5
2022-10-06T01:17	10	0	0.1	0	0	360	0.8	359	362	13.3	93.1
2022-10-06T01:18	10	0	0.1	0	0	362	0.4	361	362	14.0	91.6
2022-10-06T01:19	10	0	0.1	0	0	362	0.2	362	363	14.3	88.9
2022-10-06T01:20	10	0	0.1	0	0	362	0.3	361	362	14.3	88.1
2022-10-06T01:21	10	0	0.1	0	0	361	0.4	360	361	14.1	88.3
2022-10-06T01:22	10	0	0.1	0	0	361	0.2	361	362	14.0	89.1
2022-10-06T01:23	10	0	0.1	0	0	362	0.3	361	362	14.0	89.2
2022-10-06T01:24	10	0	0.1	0	0	361	0.3	361	362	14.1	89.1
2022-10-06T01:25	10	0	0.1	0	0	362	0.3	361	362	14.0	89.0
2022-10-06T01:26	10	0	0.1	0	0	362	0.3	361	362	14.1	88.9
2022-10-06T01:27	10	0	0.1	0	0	361	0.3	361	362	14.1	88.5
2022-10-06T01:28	10	0	0.1	0	0	362	0.3	361	362	14.1	88.6
2022-10-06T01:29	10	0	0.1	0	0	362	0.2	362	363	14.1	88.4
2022-10-06T01:30	10	0	0.1	0	0	363	0.4	362	363	13.9	88.8
2022-10-06T01:31	10	0	0.1	0	0	363	0.2	363	363	13.9	89.0
2022-10-06T01:32	10	0	0.1	0	1	363	0.2	363	363	13.9	89.0
2022-10-06T01:33	10	0	0.1	0	1	363	0.3	362	363	13.9	88.9
2022-10-06T01:34	10	0	0.1	0	1	363	0.4	362	364	13.8	89.1
2022-10-06T01:35	10	0	0.1	0	1	363	0.5	362	364	13.7	88.6
2022-10-06T01:36	10	0	0.1	0	0	362	0.3	361	362	13.6	89.1
2022-10-06T01:37	10	0	0.1	0	1	361	0.3	360	362	13.6	89.2
2022-10-06T01:38	10	0	0.1	0	1	360	0.3	360	361	13.7	89.2
2022-10-06T01:39	10	0	0.1	0	1	360	0.4	360	361	13.8	89.3
2022-10-06T01:40	10	0	0.1	0	1	360	0.4	359	360	13.8	89.1
2022-10-06T01:41	10	0	0.0	0	0	359	0.3	359	360	13.7	89.2
2022-10-06T01:42	10	0	0.1	0	1	359	0.3	359	360	13.7	89.3
2022-10-06T01:43	10	0	0.1	0	0	359	0.2	358	359	13.6	89.6
2022-10-06T01:44	10	0	0.1	0	0	359	0.4	358	359	13.6	89.7
2022-10-06T01:45	10	0	0.1	0	0	359	0.4	358	360	13.6	89.9
2022-10-06T01:46	10	0	0.1	0	0	360	0.5	359	361	13.5	89.9
2022-10-06T01:47	10	0	0.1	0	0	361	0.6	360	362	13.3	90.1
2022-10-06T01:48	10	0	0.1	0	0	362	0.4	361	363	13.2	90.6
2022-10-06T01:49	10	0	0.1	0	0	361	0.3	361	362	13.1	90.8
2022-10-06T01:50	10	0	0.1	-1	0	361	0.2	360	361	12.9	91.1
2022-10-06T01:51	10	0	0.1	-1	0	361	0.2	360	361	12.8	91.6
2022-10-06T01:52	10	-1	0.1	-1	0	361	0.4	360	362	12.8	91.9
2022-10-06T01:53	10	-1	0.0	-1	-1	361	0.3	360	362	12.7	92.2
2022-10-06T01:54	10	-1	0.1	-1	-1	360	0.4	359	361	12.7	92.4
2022-10-06T01:55	10	-1	0.1	-1	-1	360	0.4	359	361	12.8	92.7
2022-10-06T01:56	10	-1	0.1	-1	-1	360	0.3	359	361	12.9	92.7
2022-10-06T01:57	10	-1	0.1	-1	-1	360	0.5	359	361	12.9	92.6
2022-10-06T01:58	10	-1	0.0	-1	-1	360	0.2	359	360	12.8	92.6
2022-10-06T01:59	10	-1	0.1	-1	-1	359	0.2	359	360	12.8	92.7
2022-10-06T02:00	10	-1	0.1	-1	-1	359	0.2	359	359	12.8	92.6
2022-10-06T02:01	10	-1	0.1	-1	-1	359	0.4	358	360	12.8	92.5
2022-10-06T02:02	10	-1	0.1	-1	-1	360	0.3	359	361	12.8	92.7
2022-10-06T02:03	10	-1	0.1	-1	-1	360	0.2	359	360	12.9	92.7
2022-10-06T02:04	10	-1	0.1	-1	-1	359	0.2	359	360	13.0	92.6
2022-10-06T02:05	10	-1	0.1	-1	0	359	0.3	359	360	12.7	92.1
2022-10-06T02:06	10	-1	0.1	-1	0	359	0.2	359	360	12.4	92.7
2022-10-06T02:07	10	-1	0.1	-1	0	359	0.2	359	360	12.4	93.4
2022-10-06T02:08	10	-1	0.1	-1	0	359	0.2	359	360	12.5	93.5
2022-10-06T02:09	10	-1	0.1	-1	-1	359	0.3	358	360	12.4	93.7
2022-10-06T02:10	10	-1	0.1	-1	-1	358	0.3	358	359	12.3	93.8
2022-10-06T02:11	10	-1	0.1	-1	-1	358	0.4	358	359	12.2	94.2
2022-10-06T02:12	10	-1	0.1	-1	-1	358	0.4	358	359	12.4	94.5
2022-10-06T02:13	10	-1	0.1	-1	-1	358	0.5	357	359	12.4	94.4
2022-10-06T02:14	10	-1	0.1	-1	-1	359	0.4	358	360	12.6	94.6
2022-10-06T02:15	10	-1	0.1	-1	-1	360	0.3	359	360	12.5	94.3
2022-10-06T02:16	10	-1	0.1	-1	-1	360	0.2	360	360	12.8	94.5
2022-10-06T02:17	10	-1	0.1	-1	0	359	0.6	358	360	12.7	94.0
2022-10-06T02:18	10	-1	0.1	-1	-1	360	0.2	360	361	12.5	94.0
2022-10-06T02:19	10	-1	0.1	-1	0	360	0.2	359	360	12.8	94.3
2022-10-06T02:20	10	0	0.1	-1	0	360	0.3	360	361	13.0	94.0
2022-10-06T02:21	10	0	0.1	-1	0	361	0.3	360	362	13.0	93.7
2022-10-06T02:22	10	0	0.1	-1	0	361	0.4	360	362	13.0	93.4
2022-10-06T02:23	10	0	0.1	-1	0	360	0.6	359	361	13.0	93.2
2022-10-06T02:24	10	0	0.1	0	0	359	0.2	359	360	12.9	93.3
2022-10-06T02:25	10	0	0.1	0	0	359	0.4	358	359	12.9	93.1
2022-10-06T02:26	10	0	0.1	-1	0	359	0.3	358	360	12.9	93.1
2022-10-06T02:27	10	0	0.1	-1	0	359	0.2	358	359	12.9	92.8
2022-10-06T02:28	10	0	0.1	-1	0	359	0.4	358	359	13.3	92.8
2022-10-06T02:29	10	0	0.1	-1	0	359	0.3	359	360	13.7	92.2
2022-10-06T02:30	10	0	0.1	0	0	360	0.3	359	361	13.8	91.1
2022-10-06T02:31	10	0	0.1	0	0	360	0.2	359	360	13.9	90.7
2022-10-06T02:32	10	0	0.1	0	0	359	0.3	358	360	13.8	90.0
2022-10-06T02:33	10	0	0.1	0	0	359	0.3	358	359	13.8	90.2
2022-10-06T02:34	10	0	0.1	0	0	358	0.4	358	359	13.8	89.9
2022-10-06T02:35	10	0	0.1	0	0	359	0.3	358	359	13.9	89.9
2022-10-06T02:36	10	0	0.1	0	0	358	0.2	358	359	13.8	89.8
2022-10-06T02:37	10	0	0.1	0	0	360	0.3	359	360	13.8	89.8
2022-10-06T02:38	10	0	0.1	0	0	360	0.9	359	362	13.9	89.8
2022-10-06T02:39	10	0	0.2	0	1	360	0.3	360	361	13.9	89.4
2022-10-06T02:40	10	0	0.1	0	0	360	0.3	360	361	13.8	89.0
2022-10-06T02:41	10	0	0.1	0	1	360	0.4	360	361	13.8	89.0
2022-10-06T02:42	10	0	0.1	0	0	360	0.3	360	361	13.5	88.9
2022-10-06T02:43	10	0	0.1	0	0	360	0.3	359	361	12.9	89.5
2022-10-06T02:44	10	0	0.1	0	0	360	0.4	359	361	12.4	90.7
2022-10-06T02:45	10	0	0.1	0	0	359	0.6	358	361	11.9	92.0
2022-10-06T02:46	10	0	0.1	-1	0	359	0.3	358	359	11.6	93.1
2022-10-06T02:47	10	-1	0.2	-1	0	359	0.3	358	360	11.7	94.4
2022-10-06T02:48	10	-1	0.1	-1	-1	359	0.3	358	360	11.8	94.9
2022-10-06T02:49	10	-1	0.2	-1	0	359	0.4	358	360	12.1	95.6
2022-10-06T02:50	10	-1	0.2	-2	-1	360	0.4	360	361	12.5	95.7
2022-10-06T02:51	10	-1	0.1	-2	-1	361	0.4	360	362	12.6	95.0
2022-10-06T02:52	10	-1	0.1	-2	-1	361	0.3	361	362	12.6	94.4
2022-10-06T02:53	10	-1	0.1	-1	-1	361	0.2	361	361	12.7	94.0
2022-10-06T02:54	10	-1	0.1	-1	-1	361	0.3	360	362	12.9	94.1
2022-10-06T02:55	10	-1	0.2	-1	-1	361	0.3	361	362	13.1	93.7
2022-10-06T02:56	10	-1	0.2	-1	0	361	0.4	360	362	13.2	92.9
2022-10-06T02:57	10	-1	0.2	-1	0	361	0.3	360	362	13.2	92.8
2022-10-06T02:58	10	0	0.1	-1	0	361	0.3	360	361	13.2	92.4
2022-10-06T02:59	10	0	0.2	-1	0	361	0.3	360	361	13.3	92.6
2022-10-06T03:00	10	0	0.2	-1	0	361	0.3	360	361	13.4	92.0
2022-10-06T03:01	10	0	0.2	-1	0	360	0.2	360	361	13.2	92.1
2022-10-06T03:02	10	0	0.1	-1	0	360	0.2	360	361	13.2	92.5
2022-10-06T03:03	10	0	0.1	-1	0	361	0.4	360	362	13.4	92.4
2022-10-06T03:04	10	0	0.2	-1	0	361	0.3	360	362	13.7	90.8
2022-10-06T03:05	10	0	0.2	-1	0	361	0.2	361	362	13.8	89.9
2022-10-06T03:06	10	0	0.2	0	1	361	0.3	360	362	13.9	89.2
2022-10-06T03:07	10	0	0.1	0	0	361	0.3	360	362	14.0	88.9
2022-10-06T03:08	10	0	0.2	0	1	360	0.3	359	361	14.0	88.4
2022-10-06T03:09	10	0	0.1	0	1	360	0.2	359	360	14.0	88.4
2022-10-06T03:10	10	0	0.1	0	1	360	0.4	358	360	13.9	88.5
2022-10-06T03:11	10	0	0.1	0	1	359	0.2	359	360	13.9	88.8
2022-10-06T03:12	10	0	0.1	0	1	360	0.2	359	360	14.0	88.4
2022-10-06T03:13	10	0	0.2	0	1	360	0.3	359	361	14.0	88.2
2022-10-06T03:14	10	0	0.2	0	1	360	0.2	359	360	14.0	88.4
2022-10-06T03:15	10	0	0.1	0	1	360	0.3	359	360	14.0	88.3
2022-10-06T03:16	10	0	0.2	0	1	360	0.2	360	361	14.1	87.9
2022-10-06T03:17	10	0	0.1	0	1	360	0.3	359	361	14.1	87.8
2022-10-06T03:18	10	0	0.1	0	1	361	0.2	360	361	14.1	87.8
2022-10-06T03:19	10	0	0.2	0	1	361	0.2	360	361	14.2	87.6
2022-10-06T03:20	10	0	0.1	0	1	361	0.3	360	361	14.2	87.3
2022-10-06T03:21	10	0	0.2	0	1	360	0.2	360	361	14.2	87.2
2022-10-06T03:22	10	0	0.1	0	1	360	0.3	359	361	14.2	87.3
2022-10-06T03:23	10	0	0.1	0	1	360	0.2	360	361	14.2	87.3
2022-10-06T03:24	10	0	0.2	0	1	360	0.3	359	360	14.2	87.1
2022-10-06T03:25	10	1	0.2	0	1	359	0.3	358	360	14.0	87.4
2022-10-06T03:26	10	1	0.1	0	1	358	0.5	357	359	13.9	87.8
2022-10-06T03:27	10	1	0.1	0	1	358	0.3	357	358	13.4	89.0
2022-10-06T03:28	10	0	0.2	0	1	357	0.4	357	358	13.4	90.2
2022-10-06T03:29	10	0	0.1	0	1	358	0.2	357	359	13.6	90.3
2022-10-06T03:30	10	0	0.2	0	1	358	0.2	358	359	13.8	89.8
2022-10-06T03:31	10	0	0.2	0	1	358	0.2	357	358	13.9	89.1
2022-10-06T03:32	10	0	0.2	0	1	358	0.3	357	358	14.1	88.4
2022-10-06T03:33	10	0	0.2	0	1	358	0.3	357	358	14.1	88.0
2022-10-06T03:34	10	0	0.2	0	1	357	0.4	357	358	14.1	87.7
2022-10-06T03:35	10	0	0.1	0	1	357	0.3	356	358	14.1	87.7
2022-10-06T03:36	10	0	0.1	0	1	357	0.3	357	358	14.0	87.8
2022-10-06T03:37	10	0	0.1	0	1	358	0.4	357	358	14.0	87.8
2022-10-06T03:38	10	0	0.1	0	1	359	0.3	358	360	13.9	88.1
2022-10-06T03:39	10	0	0.2	0	1	359	0.3	359	360	13.9	88.2
2022-10-06T03:40	10	0	0.1	0	1	360	0.3	359	360	13.8	88.5
2022-10-06T03:41	10	0	0.1	0	1	360	0.2	360	360	13.8	88.6
2022-10-06T03:42	10	0	0.1	0	1	360	0.2	359	360	13.6	88.9
2022-10-06T03:43	10	0	0.1	0	0	360	0.2	359	361	13.7	89.5
2022-10-06T03:44	10	0	0.1	0	1	360	0.2	359	360	13.7	89.3
2022-10-06T03:45	10	0	0.1	0	0	359	0.4	358	360	13.5	89.3
2022-10-06T03:46	10	0	0.1	0	0	358	0.4	357	359	12.9	89.8
2022-10-06T03:47	10	0	0.2	0	1	358	0.3	357	359	11.8	91.1
2022-10-06T03:48	10	0	0.1	-1	0	358	0.4	357	359	11.8	93.5
2022-10-06T03:49	10	-1	0.1	-1	0	359	0.3	358	360	12.3	95.1
2022-10-06T03:50	10	-1	0.1	-1	0	359	0.3	358	360	12.7	95.2
2022-10-06T03:51	10	-1	0.1	-1	0	357	0.6	356	359	12.1	93.9
2022-10-06T03:52	10	-1	0.1	-1	-1	358	0.3	357	358	11.9	93.8
2022-10-06T03:53	10	-1	0.2	-1	0	357	0.6	355	358	12.0	93.9
2022-10-06T03:54	10	-1	0.1	-1	-1	356	0.2	355	356	11.5	93.3
2022-10-06T03:55	10	-1	0.1	-1	-1	355	0.2	355	356	11.6	93.9
2022-10-06T03:56	10	-1	0.2	-1	-1	355	0.3	354	356	11.9	94.7
2022-10-06T03:57	10	-1	0.2	-1	0	356	0.3	355	356	11.9	94.6
2022-10-06T03:58	10	-1	0.2	-1	0	356	0.3	355	357	11.9	94.7
2022-10-06T03:59	10	-1	0.2	-1	0	356	0.3	356	357	11.7	94.8
2022-10-06T04:00	10	-1	0.2	-1	0	355	0.3	354	356	11.4	94.8
2022-10-06T04:01	10	-1	0.1	-1	-1	355	0.5	354	357	11.2	95.2
2022-10-06T04:02	10	-1	0.1	-1	-1	355	0.3	355	356	11.1	95.5
2022-10-06T04:03	10	-1	0.2	-2	-1	355	0.2	355	356	11.0	95.6
2022-10-06T04:04	10	-2	0.2	-2	-1	356	0.3	355	356	10.8	95.7
2022-10-06T04:05	10	-2	0.2	-2	-1	356	0.5	355	357	10.8	96.0
2022-10-06T04:06	10	-2	0.1	-3	-2	357	0.6	356	358	10.9	96.4
2022-10-06T04:07	10	-2	0.1	-3	-2	358	0.4	357	359	11.0	96.6
2022-10-06T04:08	10	-2	0.2	-3	-2	358	0.2	357	358	11.0	96.7
2022-10-06T04:09	10	-2	0.1	-3	-2	358	0.3	357	358	11.3	96.9
2022-10-06T04:10	10	-2	0.2	-3	-2	357	0.3	357	358	11.3	96.8
2022-10-06T04:11	10	-2	0.2	-3	-2	357	0.2	357	358	11.1	96.5
2022-10-06T04:12	10	-2	0.1	-3	-2	357	0.3	357	358	11.3	96.7
2022-10-06T04:13	10	-2	0.1	-2	-2	357	0.4	357	358	11.4	96.7
2022-10-06T04:14	10	-2	0.2	-2	-2	357	0.2	357	358	11.3	96.5
2022-10-06T04:15	10	-2	0.1	-2	-1	357	0.2	356	357	11.5	96.6
2022-10-06T04:16	10	-2	0.1	-2	-2	357	0.2	356	357	11.8	96.7
2022-10-06T04:17	10	-2	0.1	-2	-1	357	0.3	356	357	12.2	96.8
2022-10-06T04:18	10	-1	0.1	-2	-1	356	0.5	355	357	12.2	96.1
2022-10-06T04:19	10	-1	0.1	-1	-1	355	0.2	355	356	11.8	95.2
2022-10-06T04:20	10	-1	0.2	-1	0	355	0.3	354	356	11.9	95.5
2022-10-06T04:21	10	-1	0.1	-1	0	354	0.2	354	355	12.2	95.6
2022-10-06T04:22	10	-1	0.1	-1	0	354	0.2	354	355	12.0	95.1
2022-10-06T04:23	10	-1	0.2	-1	0	354	0.2	354	355	11.8	94.9
2022-10-06T04:24	10	-1	0.1	-1	0	355	0.4	354	355	11.9	95.3
2022-10-06T04:25	10	0	0.2	-1	0	355	0.2	355	356	12.2	95.4
2022-10-06T04:26	10	0	0.1	-1	0	355	0.4	354	356	12.1	95.1
2022-10-06T04:27	10	0	0.1	0	0	355	0.3	354	355	11.8	94.7
2022-10-06T04:28	10	0	0.1	0	0	355	0.3	354	355	11.8	95.2
2022-10-06T04:29	10	0	0.1	0	0	354	0.5	353	355	11.6	95.3
2022-10-06T04:30	10	0	0.1	0	0	353	0.4	353	354	11.1	95.1
2022-10-06T04:31	10	0	0.1	0	0	353	0.3	353	354	11.2	95.4
2022-10-06T04:32	10	0	0.1	0	0	354	0.3	353	354	11.4	96.1
2022-10-06T04:33	10	0	0.1	0	0	353	0.3	353	354	11.5	96.4
2022-10-06T04:34	10	0	0.1	0	0	353	0.2	352	353	11.6	96.5
2022-10-06T04:35	10	0	0.1	0	0	353	0.3	352	354	11.9	96.8
2022-10-06T04:36	10	0	0.1	0	0	353	0.3	352	354	12.1	96.8
2022-10-06T04:37	10	0	0.1	0	0	353	0.3	352	353	12.1	96.4
2022-10-06T04:38	10	0	0.1	0	0	353	0.3	352	354	12.2	96.0
2022-10-06T04:39	10	0	0.1	0	0	353	0.3	353	354	12.1	95.6
2022-10-06T04:40	10	0	0.1	0	0	354	0.4	353	355	12.4	95.6
2022-10-06T04:41	10	0	0.1	0	0	355	0.5	354	356	12.7	95.3
2022-10-06T04:42	10	0	0.1	0	0	356	0.3	356	357	12.6	94.6
2022-10-06T04:43	10	0	0.1	0	0	356	0.3	356	357	12.4	94.3
2022-10-06T04:44	10	0	0.1	0	0	357	0.3	356	358	12.4	94.5
2022-10-06T04:45	10	0	0.1	0	0	358	0.3	357	358	12.6	94.5
2022-10-06T04:46	10	0	0.1	0	0	358	0.2	357	358	12.5	94.2
2022-10-06T04:47	10	0	0.1	0	0	358	0.2	357	358	12.5	94.1
2022-10-06T04:48	10	0	0.1	0	0	358	0.2	357	358	12.4	94.1
2022-10-06T04:49	10	0	0.1	0	0	358	0.3	357	359	12.3	94.1
2022-10-06T04:50	10	0	0.1	0	0	358	0.2	358	359	12.2	94.2
2022-10-06T04:51	10	0	0.1	0	0	359	0.3	358	359	11.6	93.7
2022-10-06T04:52	10	0	0.2	0	0	361	0.3	360	361	11.5	94.5
2022-10-06T04:53	10	0	0.1	0	0	361	0.3	361	362	11.8	95.3
2022-10-06T04:54	10	-1	0.1	-1	0	361	0.3	361	362	11.7	95.1
2022-10-06T04:55	10	-1	0.1	-1	-1	361	0.3	360	362	11.5	95.0
2022-10-06T04:56	10	-1	0.1	-1	-1	360	0.3	360	361	11.6	95.3
2022-10-06T04:57	10	-1	0.1	-1	-1	359	0.3	358	360	11.9	95.5
2022-10-06T04:58	10	-1	0.1	-1	-1	358	0.3	358	359	11.9	95.3
2022-10-06T04:59	10	-1	0.1	-1	-1	358	0.3	357	358	11.9	95.3
2022-10-06T05:00	10	-1	0.0	-1	-1	357	0.3	356	358	11.6	94.8
2022-10-06T05:01	10	-1	0.1	-1	-1	356	0.3	355	357	11.4	94.9
2022-10-06T05:02	10	-1	0.1	-1	-1	356	0.4	355	357	11.3	95.1
2022-10-06T05:03	10	-1	0.1	-1	-1	355	0.2	355	356	11.0	95.1
2022-10-06T05:04	10	-1	0.1	-1	-1	355	0.3	354	355	10.8	95.4
2022-10-06T05:05	10	-1	0.1	-1	-1	355	0.2	354	355	10.9	95.8
2022-10-06T05:06	10	-1	0.1	-1	-1	354	0.2	354	355	11.2	96.4
2022-10-06T05:07	10	-1	0.1	-1	-1	354	0.3	354	355	11.0	96.4
2022-10-06T05:08	10	-1	0.1	-1	-1	354	0.3	353	354	10.9	96.4
2022-10-06T05:09	10	-1	0.1	-1	-1	354	0.3	353	354	11.0	96.7
2022-10-06T05:10	10	-1	0.1	-1	-1	354	0.2	353	354	11.1	97.0
2022-10-06T05:11	10	-1	0.1	-1	0	354	0.3	353	354	11.3	97.2
2022-10-06T05:12	10	-1	0.0	-1	-1	354	0.2	354	355	11.6	97.5
2022-10-06T05:13	10	-1	0.1	-1	0	354	0.2	353	354	11.8	97.5
2022-10-06T05:14	10	-1	0.1	-1	0	354	0.2	353	354	11.8	97.3
2022-10-06T05:15	10	0	0.1	-1	0	353	0.2	353	354	11.9	97.2
2022-10-06T05:16	10	0	0.1	0	0	354	0.2	354	355	11.9	97.0
2022-10-06T05:17	10	0	0.1	0	0	354	0.3	354	355	11.9	96.9
2022-10-06T05:18	10	0	0.1	0	0	354	0.3	353	355	11.7	96.7
2022-10-06T05:19	10	0	0.1	0	0	353	0.2	353	354	11.6	96.5
2022-10-06T05:20	10	0	0.1	0	0	353	0.3	352	354	11.6	96.5
2022-10-06T05:21	10	0	0.1	0	0	353	0.2	353	354	11.7	96.5
2022-10-06T05:22	10	0	0.1	0	0	353	0.3	352	354	11.6	96.3
2022-10-06T05:23	10	0	0.1	0	0	353	0.2	353	354	11.5	96.2
2022-10-06T05:24	10	0	0.1	0	0	353	0.2	353	354	11.7	96.4
2022-10-06T05:25	10	0	0.1	0	0	354	0.2	353	354	11.6	96.3
2022-10-06T05:26	10	0	0.1	0	0	353	0.2	353	354	11.7	96.5
2022-10-06T05:27	10	0	0.1	0	0	354	0.3	353	354	11.8	96.6
2022-10-06T05:28	10	0	0.1	0	0	354	0.2	354	355	11.9	96.6
2022-10-06T05:29	10	0	0.1	0	0	354	0.3	353	355	11.9	96.5
2022-10-06T05:30	10	0	0.1	0	0	354	0.2	354	355	12.1	96.5
2022-10-06T05:31	10	0	0.1	0	0	354	0.2	354	355	12.2	96.3
2022-10-06T05:32	10	0	0.1	0	0	355	0.3	354	355	12.5	96.3
2022-10-06T05:33	10	0	0.1	0	0	355	0.3	354	355	12.3	95.7
2022-10-06T05:34	10	0	0.1	0	0	354	0.2	354	355	12.1	95.5
2022-10-06T05:35	10	0	0.1	0	0	354	0.3	354	355	12.0	95.7
2022-10-06T05:36	10	0	0.1	0	1	354	0.3	354	355	12.2	95.9
2022-10-06T05:37	10	0	0.1	0	1	354	0.4	353	355	12.2	95.8
2022-10-06T05:38	10	0	0.1	0	1	354	0.2	354	355	12.1	95.5
2022-10-06T05:39	10	0	0.1	0	1	354	0.4	354	355	11.9	95.3
2022-10-06T05:40	10	0	0.1	0	0	354	0.3	354	355	11.9	95.2
2022-10-06T05:41	10	0	0.1	0	1	355	0.6	353	356	11.8	95.0
2022-10-06T05:42	10	1	0.1	0	1	354	0.3	354	355	11.7	95.1
2022-10-06T05:43	10	1	0.1	1	1	355	0.4	354	355	11.7	95.3
2022-10-06T05:44	10	1	0.1	1	1	355	0.2	354	355	11.7	95.5
2022-10-06T05:45	10	1	0.1	1	1	355	0.4	354	356	11.5	95.5
2022-10-06T05:46	10	1	0.1	1	1	356	0.6	355	357	11.1	95.3
2022-10-06T05:47	10	1	0.1	1	1	358	0.3	357	358	10.8	95.4
2022-10-06T05:48	10	1	0.2	1	1	358	0.3	358	359	10.7	95.7
2022-10-06T05:49	10	1	0.1	1	1	359	0.3	358	359	11.0	96.3
2022-10-06T05:50	10	1	0.1	1	1	359	0.2	359	360	11.1	96.5
2022-10-06T05:51	10	1	0.1	1	1	358	0.3	357	359	11.0	96.4
2022-10-06T05:52	10	1	0.1	1	1	358	0.3	357	359	11.1	96.5
2022-10-06T05:53	10	1	0.1	1	1	357	0.2	357	358	10.8	96.2
2022-10-06T05:54	10	1	0.1	1	1	357	0.2	356	357	10.8	96.3
2022-10-06T05:55	10	2	0.2	1	2	357	0.2	356	357	10.9	96.6
2022-10-06T05:56	10	2	0.1	2	2	357	0.2	356	357	11.2	97.0
2022-10-06T05:57	10	2	0.1	2	3	357	0.3	356	357	11.4	97.2
2022-10-06T05:58	10	3	0.1	2	3	357	0.2	356	357	11.6	97.3
2022-10-06T05:59	10	3	0.1	3	3	356	0.2	356	357	11.4	97.0
2022-10-06T06:00	10	3	0.1	3	3	356	0.3	356	357	10.9	96.4
2022-10-06T06:01	10	3	0.1	3	3	357	0.2	357	358	11.2	97.0
2022-10-06T06:02	10	3	0.1	3	3	358	0.4	357	359	11.5	97.2
2022-10-06T06:03	10	3	0.1	3	3	359	0.3	358	359	11.6	97.1
2022-10-06T06:04	10	4	0.1	3	4	358	0.3	357	359	11.1	96.6
2022-10-06T06:05	10	4	0.1	4	4	358	0.4	357	359	11.1	96.5
2022-10-06T06:06	10	4	0.2	4	5	359	0.3	358	359	11.5	97.0
2022-10-06T06:07	10	5	0.2	5	5	358	0.2	358	359	11.5	97.0
2022-10-06T06:08	10	6	0.2	5	6	358	0.2	358	359	11.5	97.0
2022-10-06T06:09	10	7	0.3	6	7	358	0.3	358	359	11.6	96.8
2022-10-06T06:10	10	7	0.1	7	7	359	0.3	358	359	11.7	96.8
2022-10-06T06:11	10	7	0.1	7	7	359	0.4	358	360	11.6	96.6
2022-10-06T06:12	10	9	1.6	7	12	359	0.4	358	360	11.1	96.1
2022-10-06T06:13	10	14	0.6	12	15	360	0.4	359	361	11.1	96.0
2022-10-06T06:14	10	15	0.1	14	15	360	0.6	359	361	11.0	95.8
2022-10-06T06:15	10	15	0.2	15	15	360	0.5	359	361	11.2	95.9
2022-10-06T06:16	10	15	0.1	15	16	360	0.1	360	361	11.2	96.0
2022-10-06T06:17	10	16	0.1	15	16	360	0.2	360	361	11.0	95.6
2022-10-06T06:18	10	16	0.3	16	16	360	0.3	360	361	10.9	95.4
2022-10-06T06:19	10	17	0.3	17	17	361	0.3	360	361	11.0	95.3
2022-10-06T06:20	10	18	0.1	17	18	360	0.2	360	361	10.9	95.1
2022-10-06T06:21	10	18	0.1	18	18	361	0.2	360	361	10.9	94.9
2022-10-06T06:22	10	18	0.2	18	19	361	0.2	360	361	10.9	95.0
2022-10-06T06:23	10	15	1.9	12	18	361	0.2	360	361	11.2	95.3
2022-10-06T06:24	10	10	0.5	10	12	361	0.3	360	361	11.1	95.2
2022-10-06T06:25	10	11	0.2	10	11	361	0.2	360	361	10.9	94.9
2022-10-06T06:26	10	11	0.2	10	11	361	0.2	360	361	10.6	95.2
2022-10-06T06:27	10	15	2.7	11	19	361	0.3	360	361	10.5	95.7
2022-10-06T06:28	10	21	0.7	19	22	361	0.3	360	362	10.5	96.2
2022-10-06T06:29	10	22	0.2	22	23	361	0.2	361	362	10.5	96.4
2022-10-06T06:30	10	23	0.3	23	24	362	0.3	361	362	10.4	96.4
2022-10-06T06:31	10	24	0.3	24	25	362	0.2	361	362	10.5	96.7
2022-10-06T06:32	10	25	0.2	25	25	362	0.3	362	363	10.5	96.8
2022-10-06T06:33	10	25	0.1	25	25	363	0.3	362	364	10.8	97.1
2022-10-06T06:34	10	25	0.2	25	26	363	0.3	362	364	11.0	97.2
2022-10-06T06:35	10	26	0.3	26	27	364	0.2	363	364	10.9	97.1
2022-10-06T06:36	10	27	0.2	27	27	364	0.2	364	365	10.9	96.9
2022-10-06T06:37	10	28	0.4	27	29	365	0.3	365	366	11.1	97.0
2022-10-06T06:38	10	28	0.5	27	29	366	0.3	365	366	11.4	97.0
2022-10-06T06:39	10	28	0.5	27	29	366	0.2	366	367	11.4	96.7
2022-10-06T06:40	10	29	0.4	29	30	367	0.2	366	367	11.5	96.3
2022-10-06T06:41	10	31	0.3	30	31	367	0.2	366	367	11.5	95.9
2022-10-06T06:42	10	31	0.1	31	31	367	0.2	367	368	11.4	95.5
2022-10-06T06:43	10	32	0.3	31	32	368	0.2	367	368	11.5	95.3
2022-10-06T06:44	10	32	0.2	32	33	368	0.3	368	369	11.6	95.0
2022-10-06T06:45	10	26	3.9	19	32	368	0.5	367	369	11.7	94.6
2022-10-06T06:46	10	16	1.4	14	19	368	0.5	367	369	11.6	94.2
2022-10-06T06:47	10	14	0.2	14	15	368	0.3	367	368	11.5	94.0
2022-10-06T06:48	10	20	4.5	15	28	368	0.4	367	368	11.5	93.8
2022-10-06T06:49	10	33	2.1	29	36	369	0.8	367	370	11.5	93.8
2022-10-06T06:50	10	37	0.4	36	37	369	0.5	368	370	11.4	93.5
2022-10-06T06:51	10	37	0.1	37	37	370	0.3	370	371	11.5	93.3
2022-10-06T06:52	10	37	0.4	36	38	371	0.3	370	372	11.5	93.3
2022-10-06T06:53	10	39	0.3	38	39	371	0.3	370	372	11.5	93.2
2022-10-06T06:54	10	40	0.2	39	40	372	0.3	371	372	11.5	93.2
2022-10-06T06:55	10	40	0.2	40	41	372	0.3	371	372	11.5	93.3
2022-10-06T06:56	10	41	0.2	40	41	372	0.3	371	373	11.6	93.5
2022-10-06T06:57	10	42	0.2	41	42	373	0.3	372	373	11.7	93.4
2022-10-06T06:58	10	43	0.3	42	43	372	0.3	372	373	11.6	93.4
2022-10-06T06:59	10	44	0.2	43	44	372	0.2	372	373	11.4	93.6
2022-10-06T07:00	10	44	0.2	44	45	372	0.3	372	373	11.4	93.8
2022-10-06T07:01	10	45	0.4	44	46	373	0.3	372	373	11.3	93.9
2022-10-06T07:02	10	46	0.3	46	47	372	0.2	372	373	11.3	93.9
2022-10-06T07:03	10	47	0.1	47	47	373	0.3	372	374	11.3	94.0
2022-10-06T07:04	10	47	0.1	47	47	373	0.3	373	374	11.5	93.7
2022-10-06T07:05	10	47	0.2	47	48	374	0.2	374	375	11.6	93.8
2022-10-06T07:06	10	48	0.3	48	49	375	0.2	374	375	11.6	93.9
2022-10-06T07:07	10	49	0.4	49	50	375	0.2	374	375	11.6	93.9
2022-10-06T07:08	10	50	0.3	50	51	375	0.2	374	376	11.6	94.0
2022-10-06T07:09	10	52	0.4	51	53	375	0.2	375	376	11.7	93.7
2022-10-06T07:10	10	53	0.4	52	54	376	0.3	375	376	11.7	93.3
2022-10-06T07:11	10	54	0.4	54	55	376	0.3	376	377	11.7	92.9
2022-10-06T07:12	10	55	0.3	55	56	377	0.3	376	378	11.8	92.8
2022-10-06T07:13	10	56	0.1	56	56	378	0.2	377	378	11.8	92.8
2022-10-06T07:14	10	56	0.1	56	57	378	0.2	378	379	11.9	92.6
2022-10-06T07:15	10	56	0.1	56	57	378	0.2	378	379	11.9	92.5
2022-10-06T07:16	10	56	0.1	56	57	378	0.2	378	379	11.9	92.4
2022-10-06T07:17	10	57	0.1	57	57	378	0.2	378	379	12.0	92.4
2022-10-06T07:18	10	57	0.2	57	58	378	0.2	378	379	12.1	92.4
2022-10-06T07:19	10	58	0.3	58	59	379	0.5	378	380	12.1	92.9
2022-10-06T07:20	10	59	0.3	58	59	380	0.3	379	381	12.2	92.9
2022-10-06T07:21	10	60	0.3	59	60	381	0.2	380	381	12.3	92.8
2022-10-06T07:22	10	61	0.2	60	61	381	0.2	381	381	12.3	92.6
2022-10-06T07:23	10	62	0.3	61	62	381	0.2	381	382	12.3	92.4
2022-10-06T07:24	10	62	0.2	62	63	382	0.3	381	382	12.3	92.6
2022-10-06T07:25	10	63	0.2	63	63	383	0.4	382	383	12.4	92.7
2022-10-06T07:26	10	64	0.1	63	64	383	0.2	383	384	12.5	92.5
2022-10-06T07:27	10	64	0.1	64	64	383	0.2	383	384	12.6	92.5
2022-10-06T07:28	10	64	0.1	64	64	383	0.2	383	384	12.6	92.2
2022-10-06T07:29	10	63	0.1	63	64	384	0.2	383	384	12.6	91.8
2022-10-06T07:30	10	64	0.2	63	64	383	0.2	383	384	12.6	91.7
2022-10-06T07:31	10	64	0.3	64	65	384	0.2	383	384	12.7	91.2
2022-10-06T07:32	10	66	0.3	65	66	384	0.3	384	385	12.8	90.7
2022-10-06T07:33	10	67	0.3	66	67	385	0.2	385	386	12.9	90.9
2022-10-06T07:34	10	67	0.2	67	68	386	0.2	385	386	13.0	91.1
2022-10-06T07:35	10	68	0.2	67	68	387	0.3	386	388	13.1	91.2
2022-10-06T07:36	10	68	0.2	68	69	388	0.2	387	388	13.2	90.6
2022-10-06T07:37	10	69	0.3	69	70	388	0.2	387	388	13.3	89.9
2022-10-06T07:38	10	70	0.2	70	70	388	0.3	388	389	13.4	89.3
2022-10-06T07:39	10	71	0.2	70	71	389	0.2	388	389	13.5	89.5
2022-10-06T07:40	10	71	0.2	70	71	390	0.3	389	390	13.7	90.3
2022-10-06T07:41	10	71	0.2	71	72	390	0.4	390	391	13.8	90.1
2022-10-06T07:42	10	72	0.3	72	73	391	0.6	390	392	13.7	89.6
2022-10-06T07:43	10	73	0.3	73	74	391	0.3	390	391	13.8	88.2
2022-10-06T07:44	10	74	0.1	73	74	391	0.3	390	391	13.8	87.3
2022-10-06T07:45	10	74	0.1	74	74	391	0.3	391	392	13.9	87.4
2022-10-06T07:46	10	74	0.1	74	75	391	0.4	391	392	14.0	87.7
2022-10-06T07:47	10	75	0.1	74	75	391	0.3	391	392	13.9	86.9
2022-10-06T07:48	10	75	0.3	75	76	392	0.3	392	393	14.0	87.1
2022-10-06T07:49	10	76	0.2	76	77	394	0.2	393	394	14.2	87.8
2022-10-06T07:50	10	77	0.2	76	77	394	0.5	393	395	14.3	87.8
2022-10-06T07:51	10	77	0.2	77	78	394	0.2	394	395	14.4	87.9
2022-10-06T07:52	10	78	0.2	77	78	394	0.3	394	395	14.4	88.3
2022-10-06T07:53	10	79	0.4	78	79	394	0.3	394	395	14.3	87.5
2022-10-06T07:54	10	80	0.2	79	80	393	1.2	392	395	14.1	87.4
2022-10-06T07:55	10	80	0.1	80	80	393	0.8	391	394	14.0	87.9
2022-10-06T07:56	10	80	0.1	80	80	394	0.5	393	394	14.0	88.3
2022-10-06T07:57	10	80	0.1	80	81	394	0.3	394	395	14.1	87.5
2022-10-06T07:58	10	81	0.1	80	81	395	0.3	394	395	14.3	86.9
2022-10-06T07:59	10	81	0.2	81	82	395	0.3	394	396	14.3	86.3
2022-10-06T08:00	10	82	0.1	82	82	396	0.5	395	396	14.3	86.7
2022-10-06T08:01	10	82	0.1	82	82	396	0.3	395	396	14.1	86.8
2022-10-06T08:02	10	82	0.3	82	84	396	0.3	395	396	14.1	87.2
2022-10-06T08:03	10	83	0.1	83	83	396	0.3	395	397	14.2	88.0
2022-10-06T08:04	10	83	0.2	83	84	396	0.3	396	397	14.1	87.2
2022-10-06T08:05	10	84	0.2	84	84	396	0.3	395	397	14.1	86.4
2022-10-06T08:06	10	85	0.3	84	85	397	0.5	396	398	14.2	86.4
2022-10-06T08:07	10	86	0.2	85	86	398	0.4	397	399	14.4	86.1
2022-10-06T08:08	10	86	0.3	86	87	398	0.3	397	399	14.4	86.1
2022-10-06T08:09	10	87	0.1	87	87	398	0.3	398	399	14.4	86.2
2022-10-06T08:10	10	87	0.2	87	88	399	0.2	398	399	14.4	85.7
2022-10-06T08:11	10	88	0.2	88	88	399	0.3	398	399	14.4	86.1
2022-10-06T08:12	10	89	0.2	88	89	399	0.5	398	400	14.4	86.9
2022-10-06T08:13	10	90	0.2	89	90	398	0.5	397	399	14.3	86.3
2022-10-06T08:14	10	90	0.2	90	91	399	0.5	398	400	14.4	87.3
2022-10-06T08:15	10	91	0.2	90	91	399	0.3	398	399	14.2	86.2
2022-10-06T08:16	10	92	0.3	91	92	399	0.2	398	399	14.2	86.0
2022-10-06T08:17	10	93	0.5	92	94	398	0.3	398	399	14.2	85.9
2022-10-06T08:18	10	95	0.6	94	96	399	0.3	398	400	14.2	86.0
2022-10-06T08:19	10	97	0.7	96	99	399	0.3	399	400	14.2	86.0
2022-10-06T08:20	10	100	0.8	99	102	399	0.2	398	399	14.1	85.9
2022-10-06T08:21	10	103	0.8	102	104	400	0.4	399	400	14.1	86.4
2022-10-06T08:22	10	106	0.8	104	107	400	0.3	399	400	14.1	86.4
2022-10-06T08:23	10	108	0.5	107	108	400	0.5	399	401	14.1	86.5
2022-10-06T08:24	10	109	0.2	108	109	401	0.6	401	402	14.2	86.9
2022-10-06T08:25	10	110	0.4	109	111	401	0.5	401	402	14.0	86.9
2022-10-06T08:26	10	111	0.3	110	111	402	0.6	401	403	14.0	86.9
2022-10-06T08:27	10	107	2.0	103	110	403	0.2	402	403	14.0	87.2
2022-10-06T08:28	10	78	17.8	49	102	401	2.0	397	403	14.1	88.1
2022-10-06T08:29	10	40	3.7	36	48	396	1.6	394	399	14.1	88.3
2022-10-06T08:30	10	34	1.1	32	36	394	0.6	392	395	14.1	89.2
2022-10-06T08:31	10	33	0.5	32	34	392	0.3	391	392	14.0	88.8
2022-10-06T08:32	10	34	0.5	33	35	391	0.4	390	392	14.0	88.9
2022-10-06T08:33	10	33	0.1	32	33	391	0.2	390	391	14.0	88.8
2022-10-06T08:34	10	35	1.6	33	37	391	0.3	390	391	14.0	88.6
2022-10-06T08:35	10	36	0.8	35	37	391	0.3	390	392	14.1	88.4
2022-10-06T08:36	10	36	0.8	35	38	391	0.2	391	392	14.1	88.3
2022-10-06T08:37	10	39	0.6	37	40	392	0.3	391	393	14.2	88.4
2022-10-06T08:38	10	40	0.4	39	41	392	0.4	391	393	14.2	88.7
2022-10-06T08:39	10	42	0.5	41	42	392	0.3	391	393	14.1	88.5
2022-10-06T08:40	10	43	0.5	42	44	392	0.6	391	394	14.2	89.0
2022-10-06T08:41	10	45	0.4	44	45	393	0.6	392	394	14.2	89.0
2022-10-06T08:42	10	46	0.6	45	48	394	0.4	393	395	14.2	88.7
2022-10-06T08:43	10	49	0.7	47	50	394	0.6	393	396	14.2	88.6
2022-10-06T08:44	10	51	0.9	50	53	396	0.5	395	397	14.2	88.5
2022-10-06T08:45	10	75	23.3	52	128	398	1.7	396	402	14.3	88.5
2022-10-06T08:46	10	135	1.5	129	136	405	2.7	399	409	14.4	87.9
2022-10-06T08:47	10	136	0.2	136	136	409	0.8	407	411	14.7	88.2
2022-10-06T08:48	10	136	0.4	135	136	411	0.5	410	412	14.9	87.8
2022-10-06T08:49	10	135	0.9	134	137	412	0.2	412	413	15.1	88.5
2022-10-06T08:50	10	139	1.1	137	141	413	0.3	412	414	14.9	87.2
2022-10-06T08:51	10	143	0.9	141	144	414	0.3	413	415	14.9	87.1
2022-10-06T08:52	10	144	0.1	144	145	415	0.3	414	416	15.0	86.8
2022-10-06T08:53	10	143	0.4	143	144	415	0.3	415	416	15.0	85.9
2022-10-06T08:54	10	141	0.6	140	142	416	0.2	415	417	15.3	85.5
2022-10-06T08:55	10	128	14.6	90	140	416	0.8	414	417	15.5	85.1
2022-10-06T08:56	10	65	9.3	55	89	411	3.1	408	417	15.7	85.4
2022-10-06T08:57	10	54	0.8	52	55	407	1.4	405	410	15.6	86.3
2022-10-06T08:58	10	51	0.6	50	52	405	0.9	404	407	15.5	87.0
2022-10-06T08:59	10	50	0.4	49	50	404	0.7	403	405	15.4	87.3
2022-10-06T09:00	10	48	0.3	48	49	403	0.6	402	404	15.4	86.3
2022-10-06T09:01	10	48	0.2	48	48	403	0.4	402	404	15.4	85.8
2022-10-06T09:02	10	50	1.2	49	53	403	0.2	402	403	15.5	86.2
2022-10-06T09:03	10	65	6.8	54	81	404	0.6	403	405	15.5	85.9
2022-10-06T09:04	10	118	15.9	82	132	409	3.2	404	414	15.6	85.7
2022-10-06T09:05	10	117	5.4	110	127	412	0.6	411	413	15.6	84.8
2022-10-06T09:06	10	95	22.6	59	123	410	1.9	406	413	15.5	84.1
2022-10-06T09:07	10	48	4.2	43	58	405	2.1	402	409	15.4	84.4
2022-10-06T09:08	10	40	1.7	38	43	401	1.4	399	403	15.3	84.4
2022-10-06T09:09	10	36	1.0	34	37	399	0.6	398	401	15.3	84.6
2022-10-06T09:10	10	35	1.2	34	37	398	0.8	397	399	15.3	85.2
2022-10-06T09:11	10	37	1.2	36	41	398	0.4	397	398	15.3	85.1
2022-10-06T09:12	10	68	10.4	42	80	399	1.3	397	401	15.3	85.1
2022-10-06T09:13	10	85	4.7	77	94	402	0.9	400	403	15.2	84.8
2022-10-06T09:14	10	79	14.0	60	97	403	0.9	400	404	15.1	84.9
2022-10-06T09:15	10	61	4.5	55	68	401	0.3	400	402	15.2	85.4
2022-10-06T09:16	10	106	16.9	68	118	404	2.5	400	407	15.4	85.8
2022-10-06T09:17	10	111	4.9	102	117	407	0.6	406	408	15.3	85.1
2022-10-06T09:18	10	81	14.1	51	101	406	0.8	404	407	15.4	85.3
2022-10-06T09:19	10	54	7.7	44	70	402	0.6	401	404	15.5	85.9
2022-10-06T09:20	10	58	12.4	43	74	402	0.9	400	403	15.4	85.7
2022-10-06T09:21	10	86	28.6	44	118	402	2.5	399	407	15.5	85.9
2022-10-06T09:22	10	117	0.2	117	118	408	1.5	405	410	15.7	86.4
2022-10-06T09:23	10	118	0.2	117	118	409	0.5	408	411	15.7	85.6
2022-10-06T09:24	10	118	0.2	118	119	410	0.4	410	411	15.6	85.3
2022-10-06T09:25	10	119	0.1	118	119	410	0.4	409	410	15.5	85.0
2022-10-06T09:26	10	118	0.2	118	118	410	0.4	409	411	15.6	85.4
2022-10-06T09:27	10	118	0.1	117	118	411	0.3	410	412	15.6	84.8
2022-10-06T09:28	10	118	0.1	117	118	411	0.4	410	412	15.5	84.5
2022-10-06T09:29	10	117	0.1	117	118	413	0.4	412	414	15.9	85.7
2022-10-06T09:30	10	117	0.1	117	118	412	0.3	411	412	15.6	84.3
2022-10-06T09:31	10	118	0.2	117	118	413	0.6	412	414	15.9	85.1
2022-10-06T09:32	10	118	0.1	118	118	413	0.6	412	414	15.9	84.0
2022-10-06T09:33	10	118	0.1	118	119	414	0.5	413	414	16.0	84.1
2022-10-06T09:34	10	119	0.1	118	119	415	0.8	414	417	16.4	85.1
2022-10-06T09:35	10	119	0.1	119	119	415	0.3	415	416	16.3	83.2
2022-10-06T09:36	10	120	0.2	119	120	416	0.3	415	417	16.2	83.7
2022-10-06T09:37	10	120	0.1	120	120	416	0.4	415	417	16.2	83.5
2022-10-06T09:38	10	120	0.1	120	120	416	0.3	415	416	16.2	82.8
2022-10-06T09:39	10	120	0.1	120	120	416	0.5	415	417	16.4	83.6
2022-10-06T09:40	10	120	0.1	120	121	416	0.4	415	417	16.2	82.4
2022-10-06T09:41	10	120	0.1	120	120	416	0.3	416	417	16.4	83.2
2022-10-06T09:42	10	120	0.1	120	120	415	0.8	413	416	16.2	81.4
2022-10-06T09:43	10	120	0.1	120	120	415	0.4	414	416	16.2	81.7
2022-10-06T09:44	10	121	0.1	120	121	416	0.4	415	417	16.2	81.2
2022-10-06T09:45	10	121	0.2	121	121	417	0.7	415	418	16.5	82.0
2022-10-06T09:46	10	122	0.2	121	122	416	0.6	415	417	16.5	81.7
2022-10-06T09:47	10	123	0.3	122	123	417	1.0	416	419	16.5	82.3
2022-10-06T09:48	10	123	0.2	123	124	419	0.5	417	419	16.8	82.6
2022-10-06T09:49	10	124	0.1	123	124	419	0.3	418	419	16.8	82.5
2022-10-06T09:50	10	124	0.1	124	124	418	1.0	416	419	16.7	81.7
2022-10-06T09:51	10	124	0.1	123	124	417	0.3	416	418	16.6	81.5
2022-10-06T09:52	10	123	0.1	123	124	416	0.7	415	418	16.5	80.9
2022-10-06T09:53	10	123	0.1	123	124	417	0.5	415	418	16.7	80.8
2022-10-06T09:54	10	124	0.3	123	124	419	0.4	418	420	16.9	80.9
2022-10-06T09:55	10	125	0.2	124	125	417	0.5	417	419	16.6	80.5
2022-10-06T09:56	10	125	0.2	125	126	417	0.2	416	418	16.5	80.2
2022-10-06T09:57	10	126	0.1	126	126	419	0.6	417	420	16.6	80.7
2022-10-06T09:58	10	126	0.1	126	126	420	0.5	419	421	16.7	80.6
2022-10-06T09:59	10	126	0.4	126	128	419	0.5	418	420	16.5	79.6
2022-10-06T10:00	10	126	0.1	126	126	420	0.5	418	421	16.6	79.9
2022-10-06T10:01	10	126	0.1	126	126	420	0.5	418	421	16.7	79.2
2022-10-06T10:02	10	126	0.1	126	127	418	0.3	418	419	16.6	78.0
2022-10-06T10:03	10	126	0.1	126	126	418	0.3	417	419	16.6	78.7
2022-10-06T10:04	10	126	0.1	126	126	419	0.3	418	419	16.6	78.7
2022-10-06T10:05	10	126	0.2	126	126	420	0.4	419	421	16.8	79.7
2022-10-06T10:06	10	127	0.2	126	127	421	0.9	420	422	17.0	79.8
2022-10-06T10:07	10	127	0.1	127	127	422	0.4	421	423	17.1	79.3
2022-10-06T10:08	10	127	0.1	127	128	422	0.5	421	423	17.4	79.1
2022-10-06T10:09	10	128	0.1	127	128	422	0.6	421	423	17.4	79.5
2022-10-06T10:10	10	128	0.2	128	129	421	0.6	420	422	17.4	80.1
2022-10-06T10:11	10	129	0.2	128	129	422	0.4	421	423	17.2	79.1
2022-10-06T10:12	10	129	0.1	129	129	421	0.3	421	422	17.0	78.5
2022-10-06T10:13	10	128	0.2	128	129	421	0.8	420	422	17.1	78.6
2022-10-06T10:14	10	128	0.1	128	128	421	0.6	420	422	17.1	78.2
2022-10-06T10:15	10	128	0.1	128	128	420	0.5	420	422	17.0	78.3
2022-10-06T10:16	10	128	0.1	128	128	422	0.5	421	423	17.2	78.6
2022-10-06T10:17	10	128	0.1	128	129	421	0.7	420	423	17.1	77.7
2022-10-06T10:18	10	129	0.1	129	129	423	0.4	422	424	17.2	78.1
2022-10-06T10:19	10	129	0.1	129	129	422	0.5	421	423	17.3	78.1
2022-10-06T10:20	10	129	0.1	129	129	421	0.4	420	422	17.3	76.9
2022-10-06T10:21	10	129	0.1	129	130	421	0.4	420	422	17.2	77.1
2022-10-06T10:22	10	130	0.1	130	130	422	0.5	422	424	17.2	76.9
2022-10-06T10:23	10	130	0.1	130	130	424	0.9	422	425	17.3	77.3
2022-10-06T10:24	10	130	0.1	130	130	422	0.3	421	423	17.3	76.9
2022-10-06T10:25	10	130	0.1	130	130	422	0.4	421	423	17.3	76.4
2022-10-06T10:26	10	130	0.1	130	130	423	0.4	422	424	17.3	76.6
2022-10-06T10:27	10	130	0.1	130	131	423	0.4	422	423	17.5	75.3
2022-10-06T10:28	10	131	0.1	131	131	424	0.7	423	425	17.5	75.4
2022-10-06T10:29	10	131	0.1	131	131	422	0.5	421	424	17.4	74.6
2022-10-06T10:30	10	131	0.1	131	132	423	0.6	422	424	17.6	75.1
2022-10-06T10:31	10	131	0.1	131	132	423	0.5	422	424	17.4	72.8
2022-10-06T10:32	10	131	0.6	131	135	425	0.6	423	426	17.5	73.3
2022-10-06T10:33	10	131	0.1	131	131	425	0.5	424	426	17.5	73.5
2022-10-06T10:34	10	131	0.1	131	131	422	0.5	422	424	17.6	72.3
2022-10-06T10:35	10	131	0.1	131	132	423	0.4	422	424	17.7	72.5
2022-10-06T10:36	10	132	0.2	131	132	424	0.3	423	425	17.6	71.6
2022-10-06T10:37	10	132	0.1	132	133	426	0.5	424	427	17.5	71.2
2022-10-06T10:38	10	133	0.1	133	133	427	0.7	426	428	17.6	72.1
2022-10-06T10:39	10	133	0.1	133	134	427	0.3	427	428	17.9	72.8
2022-10-06T10:40	10	133	0.1	133	133	427	0.8	426	428	17.8	74.5
2022-10-06T10:41	10	134	0.1	133	134	426	0.7	425	428	17.8	72.4
2022-10-06T10:42	10	133	0.1	133	133	426	0.8	425	428	17.6	75.8
2022-10-06T10:43	10	133	0.1	133	133	425	0.4	425	426	17.5	76.9
2022-10-06T10:44	10	133	0.1	133	133	425	0.6	424	427	17.8	77.8
2022-10-06T10:45	10	133	0.1	133	133	423	1.0	422	425	17.6	76.7
2022-10-06T10:46	10	133	0.2	132	133	423	1.0	422	425	17.5	76.7
2022-10-06T10:47	10	132	0.1	132	133	424	0.8	423	426	17.5	76.8
2022-10-06T10:48	10	132	0.1	132	133	425	0.3	424	425	17.8	78.1
2022-10-06T10:49	10	132	0.1	132	133	424	0.4	423	425	17.7	78.1
2022-10-06T10:50	10	133	0.1	132	133	425	0.7	423	426	17.5	76.8
2022-10-06T10:51	10	132	0.2	132	133	427	0.7	425	428	17.7	78.0
2022-10-06T10:52	10	133	0.2	132	133	425	0.7	424	427	17.6	75.9
2022-10-06T10:53	10	133	0.2	132	133	425	0.6	424	426	17.6	76.1
2022-10-06T10:54	10	133	0.4	133	134	427	0.4	426	428	17.8	77.3
2022-10-06T10:55	10	134	0.2	134	135	428	0.5	427	429	17.6	75.7
2022-10-06T10:56	10	134	0.2	134	135	430	1.2	428	432	18.0	77.1
2022-10-06T10:57	10	135	0.2	134	135	431	0.4	431	432	18.3	76.7
2022-10-06T10:58	10	135	0.2	135	135	429	0.6	428	431	18.1	73.3
2022-10-06T10:59	10	135	0.2	135	136	427	0.5	426	429	18.0	73.7
2022-10-06T11:00	10	135	0.1	135	135	427	0.2	426	427	17.9	73.5
2022-10-06T11:01	10	135	0.2	135	136	426	0.4	425	427	18.0	74.1
2022-10-06T11:02	10	135	0.1	135	135	429	1.3	426	430	18.4	75.4
2022-10-06T11:03	10	135	0.1	135	136	429	0.4	428	430	18.5	73.7
2022-10-06T11:04	10	135	0.1	135	136	429	1.0	427	430	18.6	73.2
2022-10-06T11:05	10	135	0.2	135	136	426	0.5	425	427	18.2	72.6
2022-10-06T11:06	10	135	0.1	135	135	429	0.5	428	430	18.4	73.1
2022-10-06T11:07	10	135	0.2	135	136	429	1.1	428	431	18.4	72.9
2022-10-06T11:08	10	136	0.1	135	136	428	0.5	428	429	18.2	73.0
2022-10-06T11:09	10	136	0.1	136	136	430	0.4	429	430	18.1	73.1
2022-10-06T11:10	10	136	0.1	136	137	430	1.0	428	431	18.2	73.5
2022-10-06T11:11	10	137	0.2	136	137	430	0.7	429	431	18.1	73.1
2022-10-06T11:12	10	137	0.1	137	137	431	0.6	430	432	18.1	73.2
2022-10-06T11:13	10	137	0.1	137	137	432	0.5	432	433	18.3	72.7
2022-10-06T11:14	10	137	0.1	137	137	432	0.3	431	432	18.1	72.1
2022-10-06T11:15	10	137	0.1	137	137	431	0.5	430	432	18.2	72.1
2022-10-06T11:16	10	137	0.2	136	137	432	0.4	431	433	18.4	72.1
2022-10-06T11:17	10	136	0.1	136	137	432	1.2	429	433	18.7	72.2
2022-10-06T11:18	10	136	0.1	136	137	428	0.7	427	429	18.5	70.2
2022-10-06T11:19	10	136	0.1	136	136	428	0.4	427	429	18.2	69.8
2022-10-06T11:20	10	136	0.1	136	136	429	0.5	429	430	18.4	69.7
2022-10-06T11:21	10	136	0.1	136	136	431	1.0	429	433	18.3	69.8
2022-10-06T11:22	10	136	0.1	136	137	432	0.4	432	433	18.7	70.2
2022-10-06T11:23	10	137	0.1	136	137	433	0.3	432	434	18.6	68.9
2022-10-06T11:24	10	137	0.1	137	137	434	0.8	433	435	18.7	70.3
2022-10-06T11:25	10	137	0.1	137	137	433	0.9	432	436	18.7	69.2
2022-10-06T11:26	10	137	0.1	136	137	433	0.8	432	434	18.7	69.2
2022-10-06T11:27	10	136	0.2	136	136	431	1.2	429	433	18.4	67.4
2022-10-06T11:28	10	136	0.1	135	136	429	1.2	427	431	18.4	66.9
2022-10-06T11:29	10	135	0.2	135	136	428	0.7	427	429	18.5	66.4
2022-10-06T11:30	10	135	0.1	134	135	428	0.4	428	430	18.6	66.6
2022-10-06T11:31	10	134	0.1	134	135	431	0.5	430	432	18.6	67.4
2022-10-06T11:32	10	135	0.1	134	135	429	1.0	428	431	18.6	67.1
2022-10-06T11:33	10	135	0.1	135	135	430	0.5	429	431	18.6	67.3
2022-10-06T11:34	10	135	0.1	135	135	429	0.6	428	430	18.6	66.4
2022-10-06T11:35	10	135	0.1	134	135	428	0.5	427	429	18.5	65.7
2022-10-06T11:36	10	135	0.1	135	135	429	0.3	429	430	18.6	65.6
2022-10-06T11:37	10	135	0.1	135	135	429	0.3	428	430	18.6	65.2
2022-10-06T11:38	10	135	0.1	135	135	430	0.8	428	431	18.9	67.2
2022-10-06T11:39	10	135	0.1	135	135	431	1.1	429	433	19.0	66.9
2022-10-06T11:40	10	136	0.3	135	136	434	1.2	431	436	19.4	67.8
2022-10-06T11:41	10	137	0.2	136	137	433	1.8	430	435	19.4	66.7
2022-10-06T11:42	10	137	0.3	137	138	431	0.6	430	432	19.1	65.3
2022-10-06T11:43	10	138	0.1	138	138	432	0.4	431	433	19.0	65.4
2022-10-06T11:44	10	138	0.1	138	138	433	0.7	432	435	18.9	65.5
2022-10-06T11:45	10	138	0.1	138	138	435	0.6	434	436	19.3	66.1
2022-10-06T11:46	10	137	0.2	137	138	435	1.1	432	437	19.2	65.5
2022-10-06T11:47	10	137	0.1	137	137	433	0.4	432	433	19.4	65.9
2022-10-06T11:48	10	137	0.1	137	137	433	0.5	432	434	19.1	64.8
2022-10-06T11:49	10	137	0.1	136	137	433	0.5	432	434	19.2	65.5
2022-10-06T11:50	10	137	0.1	136	137	434	0.9	433	436	19.3	65.2
2022-10-06T11:51	10	137	0.1	137	137	432	0.7	431	434	19.2	64.8
2022-10-06T11:52	10	136	0.3	136	137	430	0.9	429	432	19.2	63.9
2022-10-06T11:53	10	135	0.2	135	136	430	0.9	429	432	19.4	64.4
2022-10-06T11:54	10	135	0.1	135	135	432	0.3	431	433	19.2	64.4
2022-10-06T11:55	10	135	0.1	135	136	433	0.5	431	434	19.3	65.1
2022-10-06T11:56	10	136	0.3	135	137	433	0.3	432	433	19.5	64.8
2022-10-06T11:57	10	137	0.2	137	137	433	0.5	432	434	19.4	63.9
2022-10-06T11:58	10	137	0.1	137	138	434	0.4	434	435	19.3	64.5
2022-10-06T11:59	10	138	0.1	137	138	433	1.5	431	435	19.4	64.6
2022-10-06T12:00	10	137	0.0	137	137	432	0.5	431	433	19.3	63.8
2022-10-06T12:01	10	137	0.1	137	137	431	0.4	430	431	19.1	63.5
2022-10-06T12:02	10	137	0.3	136	137	432	0.4	431	433	19.1	63.3
2022-10-06T12:03	10	136	0.2	136	136	430	0.4	429	431	19.2	64.1
2022-10-06T12:04	10	136	0.1	135	136	430	0.7	428	431	19.3	64.3
2022-10-06T12:05	10	135	0.2	135	136	429	0.3	428	430	19.1	62.9
2022-10-06T12:06	10	135	0.2	135	135	431	0.8	429	432	19.0	63.1
2022-10-06T12:07	10	135	0.2	134	135	430	1.3	428	432	19.1	63.2
2022-10-06T12:08	10	135	0.2	135	135	429	0.6	428	430	19.1	62.6
2022-10-06T12:09	10	135	0.2	135	135	428	0.5	427	429	19.1	62.7
2022-10-06T12:10	10	135	0.7	135	139	429	0.4	428	430	19.1	62.8
2022-10-06T12:11	10	134	0.2	134	135	430	0.4	429	431	19.1	63.7
2022-10-06T12:12	10	135	0.2	134	135	431	0.5	430	432	19.0	63.8
2022-10-06T12:13	10	135	0.1	134	135	432	0.3	431	432	19.3	64.8
2022-10-06T12:14	10	135	0.2	134	135	431	0.4	430	432	19.4	64.3
2022-10-06T12:15	10	134	0.1	134	135	432	0.4	431	432	19.5	65.1
2022-10-06T12:16	10	135	0.1	134	135	432	0.3	431	432	19.5	64.7
2022-10-06T12:17	10	135	0.1	134	135	431	0.3	430	432	19.4	64.2
2022-10-06T12:18	10	135	0.1	135	135	433	0.9	431	434	19.6	65.3
2022-10-06T12:19	10	135	0.1	135	135	433	0.8	432	434	19.7	64.8
2022-10-06T12:20	10	135	0.2	135	135	432	0.5	431	433	19.4	63.6
2022-10-06T12:21	10	135	0.1	135	135	434	0.6	433	435	19.3	63.8
2022-10-06T12:22	10	135	0.1	135	135	436	0.5	435	437	19.7	65.4
2022-10-06T12:23	10	135	0.1	135	135	434	0.9	433	436	19.7	63.6
2022-10-06T12:24	10	135	0.1	135	135	434	0.3	433	435	19.9	63.8
2022-10-06T12:25	10	135	0.2	134	135	433	0.7	432	434	19.7	62.5
2022-10-06T12:26	10	134	0.2	134	134	433	0.5	432	434	19.8	63.3
2022-10-06T12:27	10	134	0.1	133	134	433	0.3	432	433	19.8	62.2
2022-10-06T12:28	10	134	0.1	133	134	433	0.6	432	434	19.7	62.8
2022-10-06T12:29	10	134	0.1	133	134	433	0.7	432	435	19.6	62.6
2022-10-06T12:30	10	133	0.1	133	134	432	0.6	432	434	19.6	63.3
2022-10-06T12:31	10	133	0.1	133	134	433	0.3	432	433	19.6	62.6
2022-10-06T12:32	10	133	0.1	133	133	434	0.5	432	435	19.7	63.4
2022-10-06T12:33	10	133	0.2	133	133	434	0.8	433	436	19.9	63.8
2022-10-06T12:34	10	133	0.1	133	133	436	0.6	435	437	20.1	64.3
2022-10-06T12:35	10	133	0.1	133	133	436	1.4	433	438	20.2	62.8
2022-10-06T12:36	10	133	0.2	133	133	432	0.9	431	434	19.8	61.8
2022-10-06T12:37	10	133	0.2	132	133	434	0.5	433	435	19.9	61.3
2022-10-06T12:38	10	132	0.2	132	132	433	0.8	432	435	20.0	61.8
2022-10-06T12:39	10	132	0.1	132	132	432	0.6	431	433	19.8	61.8
2022-10-06T12:40	10	132	0.1	131	132	433	0.3	432	433	19.8	61.9
2022-10-06T12:41	10	131	0.2	131	132	432	0.8	431	434	19.8	60.8
2022-10-06T12:42	10	131	0.2	130	131	431	0.7	429	432	19.7	61.2
2022-10-06T12:43	10	130	0.2	130	131	431	0.5	430	432	19.8	61.9
2022-10-06T12:44	10	130	0.1	130	130	431	0.6	430	432	20.0	61.8
2022-10-06T12:45	10	130	0.1	129	130	430	0.5	429	431	19.9	61.8
2022-10-06T12:46	10	130	0.1	129	130	430	0.3	430	431	19.8	61.4
2022-10-06T12:47	10	130	0.1	129	130	430	0.4	430	431	19.6	61.0
2022-10-06T12:48	10	130	0.1	130	130	432	1.0	431	435	19.6	61.3
2022-10-06T12:49	10	130	0.1	130	130	434	0.6	432	435	19.9	62.4
2022-10-06T12:50	10	130	0.1	129	130	431	1.2	430	433	19.8	60.9
2022-10-06T12:51	10	129	0.1	129	130	431	0.8	430	433	19.8	60.2
2022-10-06T12:52	10	129	0.1	129	129	431	0.8	430	433	19.9	60.1
2022-10-06T12:53	10	129	0.1	129	129	430	0.9	428	431	19.8	59.3
2022-10-06T12:54	10	128	0.2	128	129	429	0.6	428	431	19.7	59.0
2022-10-06T12:55	10	128	0.1	128	128	430	0.6	430	432	19.9	60.0
2022-10-06T12:56	10	128	0.1	128	128	432	0.6	431	433	19.8	59.3
2022-10-06T12:57	10	128	0.1	128	128	432	0.3	432	433	19.9	58.3
2022-10-06T12:58	10	127	0.2	127	128	431	0.6	430	432	19.9	57.7
2022-10-06T12:59	10	127	0.1	127	127	432	0.7	431	434	20.2	58.3
2022-10-06T13:00	10	127	0.1	127	127	430	1.1	428	432	20.0	56.8
2022-10-06T13:01	10	127	0.1	126	127	430	0.5	429	431	20.0	57.5
2022-10-06T13:02	10	127	0.1	126	127	431	0.6	430	432	20.0	57.8
2022-10-06T13:03	10	127	0.1	126	127	434	0.7	432	435	20.1	58.0
2022-10-06T13:04	10	127	0.1	127	127	434	0.7	432	435	20.3	58.2
2022-10-06T13:05	10	127	0.1	127	127	433	0.8	432	434	20.1	57.6
2022-10-06T13:06	10	127	0.1	127	127	434	0.2	434	435	20.2	57.7
2022-10-06T13:07	10	127	0.1	126	127	433	1.2	431	435	20.2	57.8
2022-10-06T13:08	10	126	0.2	126	127	431	0.7	430	433	20.3	58.0
2022-10-06T13:09	10	126	0.2	125	127	430	0.4	430	431	20.0	57.2
2022-10-06T13:10	10	125	0.3	125	126	431	0.6	430	433	20.0	57.7
2022-10-06T13:11	10	125	0.2	124	125	434	0.7	433	435	20.2	58.2
2022-10-06T13:12	10	125	0.2	124	125	434	0.6	433	435	20.4	58.7
2022-10-06T13:13	10	125	0.2	124	125	432	0.4	431	433	20.3	58.3
2022-10-06T13:14	10	124	0.2	124	124	431	0.6	430	432	20.3	58.2
2022-10-06T13:15	10	123	0.3	123	124	431	0.4	429	432	20.1	57.7
2022-10-06T13:16	10	123	0.2	122	123	429	0.4	428	430	20.1	57.1
2022-10-06T13:17	10	122	0.2	122	123	430	0.5	430	432	20.1	58.0
2022-10-06T13:18	10	122	0.2	122	123	430	0.4	429	431	20.1	58.0
2022-10-06T13:19	10	122	0.2	121	122	431	0.3	430	432	20.2	59.1
2022-10-06T13:20	10	122	0.1	121	122	433	0.8	431	434	20.4	60.0
2022-10-06T13:21	10	121	0.2	121	122	432	1.0	430	434	20.5	60.3
2022-10-06T13:22	10	121	0.1	121	121	432	0.5	431	433	20.3	59.0
2022-10-06T13:23	10	121	0.2	120	121	431	0.7	430	433	20.2	59.6
2022-10-06T13:24	10	120	0.3	119	120	431	0.6	431	433	20.4	60.0
2022-10-06T13:25	10	119	0.1	119	120	430	1.2	428	433	20.3	58.3
2022-10-06T13:26	10	119	0.1	119	119	429	1.2	427	431	20.4	58.7
2022-10-06T13:27	10	118	0.2	118	119	429	1.2	426	430	20.5	59.2
2022-10-06T13:28	10	118	0.1	118	118	426	0.5	425	427	20.3	57.8
2022-10-06T13:29	10	117	0.2	117	118	427	1.0	425	428	20.3	59.0
2022-10-06T13:30	10	117	0.2	116	117	428	0.3	427	428	20.3	58.9
2022-10-06T13:31	10	116	0.2	116	117	427	0.7	425	428	20.3	58.7
2022-10-06T13:32	10	116	0.2	115	116	427	0.7	426	428	20.3	58.4
2022-10-06T13:33	10	115	0.2	115	115	426	0.8	424	427	20.2	57.8
2022-10-06T13:34	10	115	0.1	114	115	426	0.4	425	427	20.1	58.3
2022-10-06T13:35	10	114	0.1	114	115	426	0.6	425	427	20.3	58.9
2022-10-06T13:36	10	114	0.1	114	114	426	0.4	426	427	20.3	58.6
2022-10-06T13:37	10	114	0.1	113	114	425	0.3	425	426	20.3	58.2
2022-10-06T13:38	10	114	0.1	113	114	425	0.4	425	426	20.3	58.2
2022-10-06T13:39	10	113	0.2	113	114	426	0.6	425	427	20.2	58.1
2022-10-06T13:40	10	113	0.1	113	113	427	0.4	427	428	20.3	58.3
2022-10-06T13:41	10	113	0.1	113	113	427	0.9	425	428	20.3	58.3
2022-10-06T13:42	10	113	0.1	113	113	425	0.3	424	426	20.2	58.5
2022-10-06T13:43	10	113	0.1	112	113	426	0.7	425	428	20.2	58.9
2022-10-06T13:44	10	112	0.1	112	113	426	0.4	425	427	20.2	60.1
2022-10-06T13:45	10	112	0.1	112	112	425	0.6	424	426	20.2	59.3
2022-10-06T13:46	10	112	0.1	112	112	425	1.1	423	427	20.3	59.9
2022-10-06T13:47	10	112	0.1	112	112	427	1.2	425	429	20.4	60.2
2022-10-06T13:48	10	112	0.1	112	112	428	0.5	427	428	20.5	60.5
2022-10-06T13:49	10	111	0.1	111	112	428	0.9	427	430	20.4	59.7
2022-10-06T13:50	10	111	0.1	111	111	430	0.4	429	431	20.6	60.4
2022-10-06T13:51	10	111	0.1	111	111	428	0.7	427	429	20.5	60.0
2022-10-06T13:52	10	111	0.2	110	111	427	0.3	426	428	20.4	59.9
2022-10-06T13:53	10	110	0.1	110	110	428	0.3	428	429	20.4	60.3
2022-10-06T13:54	10	110	0.1	110	110	428	0.6	427	429	20.5	59.6
2022-10-06T13:55	10	109	0.3	109	110	426	1.0	424	428	20.5	58.7
2022-10-06T13:56	10	109	0.1	108	109	426	0.5	425	427	20.5	59.3
2022-10-06T13:57	10	108	0.3	107	108	425	0.4	425	427	20.4	59.4
2022-10-06T13:58	10	107	0.2	107	108	426	0.2	425	426	20.5	59.7
2022-10-06T13:59	10	107	0.1	106	107	426	0.8	425	427	20.5	59.7
2022-10-06T14:00	10	106	0.2	106	106	425	0.8	424	426	20.4	59.4
2022-10-06T14:01	10	105	0.3	105	106	425	0.6	424	426	20.4	60.4
2022-10-06T14:02	10	105	0.2	104	105	425	0.3	424	426	20.4	60.4
2022-10-06T14:03	10	104	0.1	104	104	426	1.4	423	428	20.5	61.8
2022-10-06T14:04	10	104	0.1	104	104	427	0.3	426	428	20.6	62.0
2022-10-06T14:05	10	104	0.1	104	104	427	0.4	426	428	20.6	61.6
2022-10-06T14:06	10	104	0.1	104	105	425	0.9	424	427	20.4	61.4
2022-10-06T14:07	10	104	0.1	104	104	424	0.6	423	425	20.4	62.1
2022-10-06T14:08	10	104	0.2	104	104	425	0.6	424	426	20.3	62.1
2022-10-06T14:09	10	103	0.1	103	104	427	0.7	425	428	20.5	64.0
2022-10-06T14:10	10	103	0.1	103	103	426	0.6	425	427	20.5	61.6
2022-10-06T14:11	10	103	0.2	103	103	426	0.6	425	428	20.5	61.6
2022-10-06T14:12	10	102	0.1	102	103	426	0.5	425	427	20.6	61.6
2022-10-06T14:13	10	102	0.2	102	102	426	0.3	425	427	20.6	61.5
2022-10-06T14:14	10	101	0.2	101	102	425	0.9	424	427	20.5	61.2
2022-10-06T14:15	10	101	0.2	100	101	425	0.5	424	426	20.4	61.1
2022-10-06T14:16	10	100	0.1	100	100	426	0.3	426	427	20.5	61.6
2022-10-06T14:17	10	100	0.1	100	100	426	0.5	425	427	20.5	61.4
2022-10-06T14:18	10	99	0.4	99	100	424	0.7	423	426	20.5	60.3
2022-10-06T14:19	10	98	0.3	98	99	425	0.3	424	425	20.5	60.8
2022-10-06T14:20	10	98	0.2	97	98	425	0.4	424	426	20.5	61.2
2022-10-06T14:21	10	97	0.1	97	98	426	0.3	425	426	20.6	61.4
2022-10-06T14:22	10	97	0.1	97	97	426	0.6	425	427	20.6	61.3
2022-10-06T14:23	10	97	0.2	96	97	426	0.4	425	427	20.6	61.5
2022-10-06T14:24	10	96	0.4	95	97	423	1.0	422	425	20.4	60.9
2022-10-06T14:25	10	94	0.4	94	95	422	0.3	421	422	20.3	60.5
2022-10-06T14:26	10	93	0.2	93	94	422	0.5	421	423	20.4	60.6
2022-10-06T14:27	10	93	0.1	93	93	423	0.6	421	424	20.5	61.2
2022-10-06T14:28	10	93	0.1	93	93	424	0.8	423	426	20.6	62.7
2022-10-06T14:29	10	93	0.1	93	93	424	0.7	423	425	20.5	61.3
2022-10-06T14:30	10	93	0.2	93	93	423	0.3	422	424	20.5	60.3
2022-10-06T14:31	10	92	0.3	92	93	422	0.4	421	423	20.4	59.7
2022-10-06T14:32	10	91	0.2	91	92	421	0.2	420	421	20.4	59.2
2022-10-06T14:33	10	91	0.2	90	91	421	0.5	419	421	20.4	59.4
2022-10-06T14:34	10	90	0.2	89	90	420	0.3	419	421	20.4	59.8
2022-10-06T14:35	10	89	0.2	89	89	421	0.4	421	422	20.5	60.4
2022-10-06T14:36	10	89	0.1	89	89	422	0.4	421	422	20.6	61.5
2022-10-06T14:37	10	89	0.1	88	89	421	0.6	420	422	20.5	60.7
2022-10-06T14:38	10	88	0.1	88	89	420	0.4	419	421	20.4	60.5
2022-10-06T14:39	10	88	0.1	88	88	420	0.3	420	421	20.4	61.6
2022-10-06T14:40	10	88	0.1	87	88	421	0.3	420	421	20.5	61.6
2022-10-06T14:41	10	87	0.1	87	88	421	0.4	420	422	20.5	61.5
2022-10-06T14:42	10	87	0.1	87	87	422	0.5	421	423	20.5	61.8
2022-10-06T14:43	10	86	0.2	86	87	421	0.3	420	422	20.4	61.2
2022-10-06T14:44	10	86	0.1	86	86	420	0.6	419	421	20.4	61.6
2022-10-06T14:45	10	85	0.1	85	86	419	0.2	418	419	20.4	61.5
2022-10-06T14:46	10	85	0.2	85	85	419	0.4	418	419	20.3	61.0
2022-10-06T14:47	10	85	0.2	84	85	420	0.4	419	421	20.3	61.6
2022-10-06T14:48	10	84	0.2	84	85	419	0.6	418	421	20.3	60.9
2022-10-06T14:49	10	83	0.2	83	84	419	0.4	418	420	20.4	61.8
2022-10-06T14:50	10	83	0.1	83	83	419	0.4	418	420	20.3	61.4
2022-10-06T14:51	10	83	0.1	82	83	419	0.5	418	420	20.4	62.0
2022-10-06T14:52	10	82	0.2	82	82	418	0.5	417	419	20.3	61.7
2022-10-06T14:53	10	81	1.4	81	91	418	0.3	418	419	20.3	62.2
2022-10-06T14:54	10	80	0.2	80	81	419	0.3	418	419	20.4	63.0
2022-10-06T14:55	10	80	0.1	80	80	420	0.3	419	421	20.4	62.7
2022-10-06T14:56	10	80	0.1	79	80	419	0.6	418	420	20.4	62.3
2022-10-06T14:57	10	79	0.1	79	79	418	0.3	417	419	20.3	61.5
2022-10-06T14:58	10	79	0.1	79	79	418	0.4	417	419	20.3	62.0
2022-10-06T14:59	10	79	0.1	78	79	418	0.4	417	418	20.3	60.8
2022-10-06T15:00	10	78	0.1	78	79	418	0.3	417	418	20.3	61.2
2022-10-06T15:01	10	78	0.1	78	79	418	0.3	417	418	20.3	61.9
2022-10-06T15:02	10	78	0.2	78	78	418	0.4	417	418	20.3	61.5
2022-10-06T15:03	10	77	0.3	77	78	418	0.5	416	418	20.3	61.1
2022-10-06T15:04	10	76	0.3	76	77	418	0.2	417	418	20.4	61.7
2022-10-06T15:05	10	75	0.2	75	76	417	0.3	416	417	20.4	61.1
2022-10-06T15:06	10	75	0.2	74	75	417	0.4	416	417	20.4	60.8
2022-10-06T15:07	10	74	0.2	74	75	416	0.3	415	417	20.4	61.0
2022-10-06T15:08	10	74	0.1	74	74	416	0.2	416	417	20.3	60.9
2022-10-06T15:09	10	73	0.2	73	74	416	0.4	415	417	20.3	61.6
2022-10-06T15:10	10	73	0.2	72	73	416	0.3	415	416	20.3	61.9
2022-10-06T15:11	10	72	0.2	72	72	416	0.3	415	417	20.3	61.8
2022-10-06T15:12	10	71	0.2	71	72	416	0.4	415	417	20.3	62.1
2022-10-06T15:13	10	71	0.2	70	71	415	0.6	414	417	20.3	61.7
2022-10-06T15:14	10	70	0.2	69	70	415	0.3	414	416	20.2	62.3
2022-10-06T15:15	10	69	0.2	69	70	415	0.2	415	416	20.2	63.2
2022-10-06T15:16	10	69	0.1	68	69	416	0.4	415	416	20.2	62.8
2022-10-06T15:17	10	68	0.2	68	68	416	0.3	415	417	20.3	62.4
2022-10-06T15:18	10	67	0.3	67	68	416	0.3	415	417	20.3	62.5
2022-10-06T15:19	10	66	0.3	66	67	415	0.2	414	415	20.3	61.4
2022-10-06T15:20	10	65	0.2	65	66	414	0.7	413	416	20.3	60.0
2022-10-06T15:21	10	65	0.2	64	65	413	0.3	412	414	20.3	59.7
2022-10-06T15:22	10	64	0.2	64	64	413	0.2	412	413	20.2	60.0
2022-10-06T15:23	10	63	0.1	63	64	413	0.3	412	413	20.2	60.0
2022-10-06T15:24	10	63	0.2	62	63	412	0.3	412	413	20.2	60.3
2022-10-06T15:25	10	62	0.2	62	62	412	0.3	412	413	20.1	61.0
2022-10-06T15:26	10	61	0.2	61	62	412	0.3	411	412	20.1	61.1
2022-10-06T15:27	10	61	0.2	61	61	411	0.3	411	412	20.1	60.8
2022-10-06T15:28	10	60	0.2	60	61	411	0.2	411	412	20.1	60.9
2022-10-06T15:29	10	60	0.2	60	60	412	0.2	411	412	20.2	61.2
2022-10-06T15:30	10	59	0.2	59	60	411	0.4	411	412	20.1	60.8
2022-10-06T15:31	10	59	0.3	58	59	411	0.3	411	412	20.1	60.6
2022-10-06T15:32	10	58	0.2	57	58	411	0.3	410	412	20.2	61.0
2022-10-06T15:33	10	57	0.2	57	57	411	0.3	411	412	20.1	61.5
2022-10-06T15:34	10	56	0.3	56	57	411	0.3	410	412	20.0	62.4
2022-10-06T15:35	10	55	0.2	55	56	411	0.3	410	412	20.1	61.9
2022-10-06T15:36	10	54	0.2	54	55	411	0.3	410	411	20.0	62.3
2022-10-06T15:37	10	54	0.2	53	54	411	0.2	410	411	20.1	62.0
2022-10-06T15:38	10	53	0.1	53	53	410	0.3	410	411	20.1	61.8
2022-10-06T15:39	10	53	0.1	53	53	410	0.2	410	411	20.0	62.5
2022-10-06T15:40	10	53	0.1	53	53	410	0.3	410	411	20.0	62.5
2022-10-06T15:41	10	52	0.2	52	53	410	0.3	409	410	20.0	62.8
2022-10-06T15:42	10	52	0.2	51	52	410	0.3	409	410	19.9	63.5
2022-10-06T15:43	10	51	0.3	50	51	409	0.5	408	410	20.0	63.1
2022-10-06T15:44	10	49	0.4	49	50	409	0.2	408	409	20.0	63.0
2022-10-06T15:45	10	48	0.3	48	49	409	0.4	408	409	19.9	63.1
2022-10-06T15:46	10	47	0.2	47	48	408	0.2	408	409	19.9	63.4
2022-10-06T15:47	10	47	0.2	46	47	408	0.3	408	409	19.9	63.7
2022-10-06T15:48	10	46	0.1	46	47	408	0.3	408	409	19.8	64.4
2022-10-06T15:49	10	46	0.2	45	46	408	0.2	407	408	19.8	64.9
2022-10-06T15:50	10	45	0.2	45	45	408	0.3	407	408	19.8	64.7
2022-10-06T15:51	10	44	0.4	43	45	408	0.3	407	408	19.8	64.8
2022-10-06T15:52	10	42	0.6	41	43	407	0.2	406	407	19.8	65.1
2022-10-06T15:53	10	41	0.2	40	41	407	0.3	406	408	19.8	65.3
2022-10-06T15:54	10	40	0.2	40	41	407	0.3	406	407	19.8	65.0
2022-10-06T15:55	10	38	1.1	36	40	406	0.3	406	407	19.8	65.0
2022-10-06T15:56	10	36	0.3	35	36	406	0.2	405	406	19.7	65.4
2022-10-06T15:57	10	36	0.4	35	37	406	0.3	405	406	19.7	65.5
2022-10-06T15:58	10	37	0.2	37	37	405	0.2	405	406	19.6	65.9
2022-10-06T15:59	10	37	0.2	36	37	405	0.3	405	406	19.6	66.0
2022-10-06T16:00	10	36	0.2	36	36	405	0.2	405	405	19.6	66.0
2022-10-06T16:01	10	35	0.3	35	36	405	0.2	404	405	19.6	65.9
2022-10-06T16:02	10	34	0.2	34	35	404	0.2	404	405	19.5	66.4
2022-10-06T16:03	10	34	0.1	34	34	404	0.2	404	405	19.5	66.5
2022-10-06T16:04	10	34	0.2	33	34	404	0.3	403	404	19.5	67.0
2022-10-06T16:05	10	33	0.2	33	33	404	0.2	403	404	19.5	66.7
2022-10-06T16:06	10	32	0.2	32	33	404	0.2	403	404	19.4	67.2
2022-10-06T16:07	10	31	0.2	31	32	404	0.3	403	404	19.5	67.3
2022-10-06T16:08	10	31	0.2	30	31	403	0.2	403	403	19.4	68.2
2022-10-06T16:09	10	30	0.2	30	30	403	0.2	402	403	19.3	68.4
2022-10-06T16:10	10	29	0.3	29	30	403	0.2	402	403	19.3	67.8
2022-10-06T16:11	10	29	0.3	28	29	403	0.2	402	403	19.3	67.8
2022-10-06T16:12	10	28	0.3	27	28	402	0.2	402	403	19.3	67.6
2022-10-06T16:13	10	27	0.4	26	27	402	0.2	401	402	19.3	68.2
2022-10-06T16:14	10	25	0.5	25	26	402	0.3	401	402	19.3	68.0
2022-10-06T16:15	10	24	0.5	23	25	401	0.3	400	402	19.3	67.7
2022-10-06T16:16	10	22	0.5	22	23	401	0.3	400	401	19.2	68.1
2022-10-06T16:17	10	21	0.2	21	22	400	0.3	400	401	19.1	68.5
2022-10-06T16:18	10	21	0.2	21	22	400	0.3	399	401	19.1	68.7
2022-10-06T16:19	10	21	0.2	21	22	400	0.3	399	400	19.0	68.7
2022-10-06T16:20	10	20	0.3	19	21	399	0.3	398	400	19.1	68.5
2022-10-06T16:21	10	19	0.4	19	20	399	0.4	398	400	19.1	68.4
2022-10-06T16:22	10	18	0.5	17	19	399	0.4	399	401	19.1	68.4
2022-10-06T16:23	10	16	0.8	14	18	399	0.3	398	399	19.0	68.7
2022-10-06T16:24	10	14	0.3	13	15	398	0.2	398	399	19.0	69.0
2022-10-06T16:25	10	12	0.4	12	13	398	0.5	397	399	18.9	68.8
2022-10-06T16:26	10	11	0.5	10	12	397	0.2	397	398	18.9	69.4
2022-10-06T16:27	10	10	0.1	10	10	398	0.2	397	398	18.8	69.3
2022-10-06T16:28	10	10	0.1	10	10	397	0.2	396	397	18.8	69.7
2022-10-06T16:29	10	10	0.1	10	10	396	0.3	395	397	18.6	70.7
2022-10-06T16:30	10	10	0.2	9	10	395	0.2	394	395	18.5	71.0
2022-10-06T16:31	10	9	0.4	8	10	395	0.2	394	395	18.5	70.9
2022-10-06T16:32	10	8	0.2	7	8	395	0.3	394	396	18.5	71.3
2022-10-06T16:33	10	7	0.1	7	7	395	0.3	394	395	18.6	70.6
2022-10-06T16:34	10	7	0.2	6	7	395	0.3	394	395	18.6	70.2
2022-10-06T16:35	10	6	0.3	6	7	394	0.3	394	395	18.5	70.6
2022-10-06T16:36	10	5	0.3	5	6	394	0.3	393	395	18.5	70.8
2022-10-06T16:37	10	5	0.2	4	5	394	0.3	393	394	18.5	71.0
2022-10-06T16:38	10	4	0.1	4	4	393	0.2	392	393	18.4	71.3
2022-10-06T16:39	10	4	0.2	4	4	393	0.3	392	393	18.4	71.2
2022-10-06T16:40	10	3	0.1	3	4	392	0.2	392	393	18.5	71.0
2022-10-06T16:41	10	3	0.1	3	3	392	0.2	391	393	18.4	71.1
2022-10-06T16:42	10	3	0.1	3	3	392	0.4	391	393	18.3	71.3
2022-10-06T16:43	10	3	0.1	2	3	392	0.3	391	392	18.3	71.6
2022-10-06T16:44	10	2	0.1	2	3	392	0.3	391	392	18.2	71.8
2022-10-06T16:45	10	2	0.1	2	2	392	0.3	391	392	18.2	71.3
2022-10-06T16:46	10	2	0.1	2	2	391	0.2	391	392	18.2	71.4
2022-10-06T16:47	10	2	0.1	2	2	391	0.2	390	391	18.2	71.2
2022-10-06T16:48	10	2	0.1	1	2	390	0.3	389	391	18.2	71.6
2022-10-06T16:49	10	1	0.1	1	2	390	0.2	390	391	18.2	71.6
2022-10-06T16:50	10	1	0.1	1	1	389	0.3	389	390	18.2	71.4
2022-10-06T16:51	10	1	0.1	1	1	389	0.3	388	390	18.2	71.4
2022-10-06T16:52	10	1	0.1	1	1	389	0.3	388	389	18.2	71.4
2022-10-06T16:53	10	1	0.1	1	1	388	0.3	388	389	18.1	71.3
2022-10-06T16:54	10	1	0.1	0	1	388	0.3	387	389	18.0	71.9
2022-10-06T16:55	10	1	0.1	0	1	389	0.3	388	389	18.0	71.7
2022-10-06T16:56	10	1	0.1	0	1	388	0.3	387	389	18.0	72.0
2022-10-06T16:57	10	0	0.1	0	1	388	0.3	387	389	17.9	72.2
2022-10-06T16:58	10	0	0.1	0	1	387	0.3	387	388	17.9	72.1
2022-10-06T16:59	10	0	0.1	0	0	387	0.4	386	388	17.9	72.3
2022-10-06T17:00	10	0	0.1	0	0	386	0.3	385	386	17.8	72.6
2022-10-06T17:01	10	0	0.1	0	0	385	0.3	385	386	17.8	72.9
2022-10-06T17:02	10	0	0.1	0	0	385	0.3	384	386	17.7	72.8
2022-10-06T17:03	10	0	0.1	0	0	385	0.3	384	386	17.7	73.0
2022-10-06T17:04	10	0	0.1	0	0	384	0.4	383	385	17.7	72.9
2022-10-06T17:05	10	0	0.1	0	0	384	0.2	383	384	17.5	73.5
2022-10-06T17:06	10	0	0.1	0	0	383	0.3	382	384	17.6	73.5
2022-10-06T17:07	10	0	0.1	0	0	383	0.3	382	383	17.6	73.4
2022-10-06T17:08	10	0	0.1	0	0	382	0.2	381	382	17.6	73.4
2022-10-06T17:09	10	0	0.1	0	0	381	0.3	381	382	17.5	73.8
2022-10-06T17:10	10	0	0.1	0	0	381	0.2	380	381	17.3	75.1
2022-10-06T17:11	10	0	0.1	0	0	380	0.4	380	381	17.3	75.8
2022-10-06T17:12	10	0	0.1	0	0	380	0.3	379	381	17.2	76.3
2022-10-06T17:13	10	0	0.1	0	0	380	0.2	379	380	17.1	76.8
2022-10-06T17:14	10	0	0.1	0	0	379	0.2	378	380	17.1	77.0
2022-10-06T17:15	10	0	0.1	0	0	379	0.2	378	379	17.1	77.1
2022-10-06T17:16	10	0	0.1	0	0	378	0.2	378	379	17.0	77.8
2022-10-06T17:17	10	0	0.1	0	0	378	0.3	377	379	17.0	77.8
2022-10-06T17:18	10	0	0.1	-1	0	378	0.3	377	378	16.9	77.9
2022-10-06T17:19	10	0	0.2	-1	0	378	0.3	377	378	16.9	77.9
2022-10-06T17:20	10	0	0.2	-1	0	377	0.3	376	378	17.0	77.6
2022-10-06T17:21	10	-1	0.2	-1	0	377	0.3	377	378	17.0	77.8
2022-10-06T17:22	10	0	0.2	-1	0	377	0.3	376	378	17.1	77.0
2022-10-06T17:23	10	0	0.2	-1	0	377	0.2	376	377	17.1	77.1
2022-10-06T17:24	10	0	0.2	-1	0	376	0.2	376	377	17.1	76.9
2022-10-06T17:25	10	0	0.1	-1	0	376	0.2	376	377	17.1	76.8
2022-10-06T17:26	10	0	0.1	-1	0	376	0.3	375	377	17.1	76.8
2022-10-06T17:27	10	0	0.1	-1	0	376	0.2	376	377	17.1	76.7
2022-10-06T17:28	10	0	0.2	-1	0	377	0.3	376	378	17.1	76.7
2022-10-06T17:29	10	0	0.1	0	0	377	0.2	377	378	17.1	76.6
2022-10-06T17:30	10	0	0.1	-1	0	378	0.4	377	379	17.2	76.4
2022-10-06T17:31	10	0	0.1	0	0	379	0.3	378	379	17.1	76.5
2022-10-06T17:32	10	0	0.0	0	0	379	0.3	379	380	17.1	76.6
2022-10-06T17:33	10	0	0.1	0	0	380	0.4	379	381	17.1	76.7
2022-10-06T17:34	10	0	0.1	0	0	381	0.3	380	382	17.1	76.6
2022-10-06T17:35	10	0	0.1	0	0	382	0.4	381	382	17.1	76.6
2022-10-06T17:36	10	0	0.1	0	0	382	0.4	382	383	17.1	76.4
2022-10-06T17:37	10	0	0.0	0	0	383	0.3	382	383	17.1	76.4
2022-10-06T17:38	10	0	0.1	0	0	383	0.3	382	384	17.0	76.8
2022-10-06T17:39	10	0	0.1	0	0	383	0.2	382	383	17.0	76.7
2022-10-06T17:40	10	0	0.1	0	0	383	0.3	382	383	17.0	76.6
2022-10-06T17:41	10	0	0.1	0	0	383	0.3	382	383	17.1	76.3
2022-10-06T17:42	10	0	0.1	0	0	383	0.2	382	383	17.0	76.5
2022-10-06T17:43	10	0	0.1	0	0	382	0.2	382	383	17.0	76.8
2022-10-06T17:44	10	0	0.1	0	0	382	0.3	382	383	17.0	76.4
2022-10-06T17:45	10	0	0.1	0	0	382	0.2	381	383	17.0	76.7
2022-10-06T17:46	10	0	0.1	0	0	382	0.2	381	382	16.9	77.2
2022-10-06T17:47	10	0	0.1	0	0	382	0.2	381	382	16.9	77.3
2022-10-06T17:48	10	0	0.1	0	0	381	0.4	380	382	16.9	77.1
2022-10-06T17:49	10	0	0.1	0	0	382	0.3	381	383	16.9	76.8
2022-10-06T17:50	10	0	0.1	0	0	382	0.3	381	382	16.9	77.1
2022-10-06T17:51	10	0	0.1	0	0	381	0.2	381	382	16.9	77.0
2022-10-06T17:52	10	0	0.1	0	0	381	0.3	380	382	16.8	77.1
2022-10-06T17:53	10	0	0.1	0	0	380	0.3	380	381	16.8	77.2
2022-10-06T17:54	10	0	0.1	0	0	380	0.4	379	381	16.7	77.4
2022-10-06T17:55	10	0	0.1	0	0	380	0.4	379	381	16.7	77.7
2022-10-06T17:56	10	0	0.1	0	0	379	0.3	378	380	16.6	78.0
2022-10-06T17:57	10	0	0.1	0	0	378	0.3	378	379	16.5	78.3
2022-10-06T17:58	10	0	0.1	0	0	378	0.3	377	378	16.4	78.9
2022-10-06T17:59	10	0	0.1	0	0	377	0.3	376	378	16.5	78.7
2022-10-06T18:00	10	0	0.1	0	0	377	0.3	376	378	16.4	79.1
2022-10-06T18:01	10	0	0.1	0	0	376	0.2	375	376	16.3	79.9
2022-10-06T18:02	10	0	0.1	0	0	376	0.4	375	377	16.2	79.9
2022-10-06T18:03	10	0	0.1	0	0	375	0.2	375	376	16.1	80.7
2022-10-06T18:04	10	0	0.1	0	0	375	0.2	374	376	16.0	81.3
2022-10-06T18:05	10	0	0.1	-1	0	375	0.2	374	375	15.9	81.8
2022-10-06T18:06	10	0	0.1	0	0	374	0.2	374	375	15.9	81.8
2022-10-06T18:07	10	0	0.1	0	0	374	0.3	373	375	15.8	81.8
2022-10-06T18:08	10	0	0.1	0	0	374	0.2	373	374	15.9	82.2
2022-10-06T18:09	10	0	0.1	0	0	373	0.2	373	374	15.9	81.7
2022-10-06T18:10	10	0	0.1	0	0	373	0.2	372	373	15.8	82.2
2022-10-06T18:11	10	0	0.1	0	0	373	0.3	372	373	15.9	81.9
2022-10-06T18:12	10	0	0.1	0	0	373	0.3	372	374	15.8	82.0
2022-10-06T18:13	10	0	0.1	0	0	373	0.4	372	374	15.7	82.6
2022-10-06T18:14	10	0	0.1	0	0	373	0.3	372	374	15.7	82.4
2022-10-06T18:15	10	0	0.1	0	0	372	0.2	372	373	15.6	83.1
2022-10-06T18:16	10	0	0.1	0	0	372	0.3	371	373	15.6	83.2
2022-10-06T18:17	10	0	0.1	0	0	371	0.2	371	372	15.6	83.2
2022-10-06T18:18	10	0	0.1	0	0	372	0.3	371	373	15.6	83.3
2022-10-06T18:19	10	0	0.2	0	0	371	0.3	371	372	15.8	82.2
2022-10-06T18:20	10	0	0.1	0	0	371	0.3	371	372	15.8	81.7
2022-10-06T18:21	10	0	0.2	0	1	371	0.2	371	372	15.8	81.7
2022-10-06T18:22	10	0	0.2	0	1	371	0.3	370	371	15.9	81.0
2022-10-06T18:23	10	0	0.2	0	0	371	0.2	370	371	15.9	80.7
2022-10-06T18:24	10	0	0.2	0	1	371	0.2	371	372	15.8	81.1
2022-10-06T18:25	10	0	0.2	0	1	371	0.2	371	372	15.8	81.1
2022-10-06T18:26	10	0	0.2	0	1	371	0.3	371	372	15.8	81.4
2022-10-06T18:27	10	0	0.2	0	1	371	0.2	370	371	15.8	81.4
2022-10-06T18:28	10	0	0.1	0	0	371	0.3	370	371	15.7	81.3
2022-10-06T18:29	10	0	0.1	0	1	371	0.3	370	371	15.7	81.8
2022-10-06T18:30	10	0	0.1	-1	0	371	0.2	370	371	15.8	81.2
2022-10-06T18:31	10	0	0.1	0	0	370	0.3	370	371	15.8	81.1
2022-10-06T18:32	10	0	0.1	0	0	371	0.3	370	372	15.9	80.2
2022-10-06T18:33	10	0	0.1	0	0	371	0.3	370	372	16.0	80.1
2022-10-06T18:34	10	0	0.1	0	0	371	0.2	370	371	16.1	79.3
2022-10-06T18:35	10	0	0.1	0	0	371	0.6	370	373	16.1	78.8
2022-10-06T18:36	10	0	0.1	0	0	372	0.4	371	373	16.1	79.1
2022-10-06T18:37	10	0	0.1	0	0	372	0.3	372	373	16.1	78.8
2022-10-06T18:38	10	0	0.1	0	0	373	0.3	372	373	16.0	79.2
2022-10-06T18:39	10	0	0.1	0	0	374	0.5	373	374	16.0	79.4
2022-10-06T18:40	10	0	0.1	0	0	374	0.3	373	374	15.9	79.5
2022-10-06T18:41	10	0	0.1	0	0	374	0.4	373	375	16.0	79.1
2022-10-06T18:42	10	0	0.1	0	0	373	0.6	372	374	16.0	79.0
2022-10-06T18:43	10	0	0.1	0	0	372	0.5	371	373	15.9	79.5
2022-10-06T18:44	10	0	0.1	0	0	371	0.3	370	372	15.8	79.6
2022-10-06T18:45	10	0	0.1	0	0	371	0.2	370	371	15.8	80.3
2022-10-06T18:46	10	0	0.1	0	0	370	0.2	370	371	15.8	80.3
2022-10-06T18:47	10	0	0.1	0	0	370	0.2	369	370	15.9	80.0
2022-10-06T18:48	10	0	0.1	0	0	370	0.2	370	370	15.9	79.7
2022-10-06T18:49	10	0	0.1	0	0	370	0.2	370	371	15.8	80.1
2022-10-06T18:50	10	0	0.0	0	0	370	0.2	370	371	15.8	80.1
2022-10-06T18:51	10	0	0.1	0	1	370	0.3	369	370	15.7	80.5
2022-10-06T18:52	10	0	0.1	0	1	369	0.3	369	370	15.5	81.2
2022-10-06T18:53	10	0	0.1	0	1	369	0.3	368	370	15.4	81.8
2022-10-06T18:54	10	0	0.1	0	1	368	0.3	368	369	15.5	81.9
2022-10-06T18:55	10	0	0.1	0	0	369	0.2	368	369	15.6	81.6
2022-10-06T18:56	10	0	0.1	0	1	368	0.2	368	369	15.5	81.6
2022-10-06T18:57	10	0	0.1	0	1	368	0.2	368	369	15.4	82.1
2022-10-06T18:58	10	0	0.1	0	1	368	0.2	368	369	15.5	81.8
2022-10-06T18:59	10	0	0.1	0	1	368	0.3	367	369	15.6	81.5
2022-10-06T19:00	10	0	0.1	0	1	368	0.2	367	369	15.7	81.2
2022-10-06T19:01	10	0	0.1	0	1	368	0.2	368	369	15.7	81.0
2022-10-06T19:02	10	0	0.1	0	1	368	0.3	367	369	15.7	80.9
2022-10-06T19:03	10	0	0.1	0	1	368	0.3	367	369	15.5	81.4
2022-10-06T19:04	10	0	0.1	0	1	368	0.2	368	369	15.6	81.4
2022-10-06T19:05	10	0	0.1	0	1	368	0.2	368	369	15.6	80.9
2022-10-06T19:06	10	0	0.1	0	1	369	0.3	368	369	15.6	81.3
2022-10-06T19:07	10	0	0.1	0	1	368	0.2	368	369	15.6	81.3
2022-10-06T19:08	10	0	0.1	0	1	368	0.4	367	369	15.6	81.2
2022-10-06T19:09	10	0	0.1	0	1	368	0.3	367	368	15.6	80.9
2022-10-06T19:10	10	0	0.1	0	1	368	0.3	367	368	15.6	81.2
2022-10-06T19:11	10	0	0.1	0	1	367	0.5	366	368	15.6	81.2
2022-10-06T19:12	10	0	0.1	0	1	367	0.2	366	367	15.3	81.8
2022-10-06T19:13	10	0	0.1	0	1	366	0.4	365	367	15.1	82.3
2022-10-06T19:14	10	0	0.1	0	0	366	0.3	365	366	14.8	84.4
2022-10-06T19:15	10	0	0.1	0	0	366	0.2	365	366	14.8	86.1
2022-10-06T19:16	10	0	0.1	0	0	366	0.2	365	366	14.8	86.3
2022-10-06T19:17	10	0	0.1	0	1	366	0.2	366	366	14.9	86.0
2022-10-06T19:18	10	0	0.1	0	0	365	0.3	365	366	14.8	86.1
2022-10-06T19:19	10	0	0.1	0	0	365	0.2	365	366	14.7	86.8
2022-10-06T19:20	10	0	0.1	0	0	365	0.3	365	366	14.8	86.7
2022-10-06T19:21	10	0	0.1	0	0	365	0.2	365	366	14.8	86.8
2022-10-06T19:22	10	0	0.1	0	0	365	0.2	365	366	14.7	87.0
2022-10-06T19:23	10	0	0.1	0	0	365	0.2	364	365	14.8	87.2
2022-10-06T19:24	10	0	0.1	0	0	365	0.2	365	365	14.9	86.6
2022-10-06T19:25	10	0	0.1	0	0	365	0.2	365	366	15.1	85.2
2022-10-06T19:26	10	0	0.1	0	0	365	0.3	365	366	15.1	84.6
2022-10-06T19:27	10	0	0.1	0	0	366	0.2	365	366	15.2	84.4
2022-10-06T19:28	10	0	0.1	0	0	366	0.2	365	366	15.2	83.8
2022-10-06T19:29	10	0	0.1	0	0	365	0.3	365	366	15.3	83.5
2022-10-06T19:30	10	0	0.1	0	0	365	0.2	365	366	15.2	83.4
2022-10-06T19:31	10	0	0.1	0	0	365	0.2	365	366	15.2	83.6
2022-10-06T19:32	10	0	0.1	0	0	365	0.2	364	365	15.3	83.1
2022-10-06T19:33	10	0	0.1	0	1	365	0.3	364	366	15.1	83.4
2022-10-06T19:34	10	0	0.1	0	0	365	0.2	365	365	15.1	83.8
2022-10-06T19:35	10	0	0.1	0	0	365	0.3	364	365	15.1	83.6
2022-10-06T19:36	10	0	0.1	0	0	365	0.2	364	365	15.1	83.6
2022-10-06T19:37	10	0	0.1	0	0	364	0.2	364	365	15.2	83.4
2022-10-06T19:38	10	0	0.1	0	0	364	0.2	364	365	15.1	83.6
2022-10-06T19:39	10	0	0.1	0	0	364	0.3	364	365	15.0	84.2
2022-10-06T19:40	10	0	0.1	0	0	364	0.2	363	364	14.6	85.3
2022-10-06T19:41	10	0	0.1	0	0	364	0.3	363	364	14.5	87.0
2022-10-06T19:42	10	0	0.1	0	0	364	0.2	363	364	14.5	87.4
2022-10-06T19:43	10	0	0.1	0	0	363	0.2	363	364	14.4	87.7
2022-10-06T19:44	10	0	0.1	0	0	363	0.3	363	364	14.3	88.1
2022-10-06T19:45	10	0	0.1	0	0	363	0.3	362	363	14.2	88.4
2022-10-06T19:46	10	0	0.1	0	0	363	0.3	363	364	14.3	88.6
2022-10-06T19:47	10	0	0.1	0	0	363	0.2	363	364	14.3	88.7
2022-10-06T19:48	10	0	0.1	0	0	363	0.3	363	364	14.3	88.7
2022-10-06T19:49	10	0	0.1	0	0	363	0.2	363	364	14.5	88.7
2022-10-06T19:50	10	0	0.1	0	0	364	0.4	363	365	14.6	88.2
2022-10-06T19:51	10	0	0.1	0	0	363	0.3	363	364	14.3	87.9
2022-10-06T19:52	10	0	0.2	0	1	364	0.3	363	364	14.0	88.6
2022-10-06T19:53	10	0	0.1	0	0	364	0.3	364	365	13.8	89.5
2022-10-06T19:54	10	0	0.2	0	1	364	0.3	363	365	13.7	90.3
2022-10-06T19:55	10	0	0.2	0	1	364	0.3	364	365	13.9	90.6
2022-10-06T19:56	10	0	0.2	0	1	364	0.2	363	364	13.8	90.4
2022-10-06T19:57	10	0	0.2	0	1	363	0.2	363	364	13.8	90.5
2022-10-06T19:58	10	0	0.1	0	0	363	0.3	363	364	13.8	90.8
2022-10-06T19:59	10	0	0.2	0	0	363	0.3	362	363	13.9	90.7
2022-10-06T20:00	10	0	0.1	0	1	363	0.3	362	363	13.9	90.6
2022-10-06T20:01	10	0	0.2	0	1	363	0.2	362	363	14.0	90.5
2022-10-06T20:02	10	0	0.1	0	1	363	0.3	362	364	14.0	90.4
2022-10-06T20:03	10	0	0.1	0	1	362	0.3	361	363	14.0	90.3
2022-10-06T20:04	10	0	0.2	0	1	362	0.3	361	363	14.0	90.4
2022-10-06T20:05	10	1	0.2	0	1	362	0.2	362	363	14.1	90.5
2022-10-06T20:06	10	1	0.2	0	1	361	0.3	361	362	13.9	90.3
2022-10-06T20:07	10	1	0.2	0	1	362	0.3	361	362	13.8	90.4
2022-10-06T20:08	10	0	0.1	0	1	362	0.3	361	363	13.9	90.9
2022-10-06T20:09	10	0	0.2	0	1	362	0.3	361	363	14.0	90.7
2022-10-06T20:10	10	0	0.1	0	1	362	0.3	362	363	14.0	90.6
2022-10-06T20:11	10	0	0.2	0	1	362	0.2	362	363	13.9	90.6
2022-10-06T20:12	10	0	0.2	0	1	362	0.2	361	362	13.9	90.6
2022-10-06T20:13	10	1	0.1	0	1	362	0.2	361	362	13.9	90.8
2022-10-06T20:14	10	0	0.2	0	1	362	0.2	361	362	13.9	90.8
2022-10-06T20:15	10	0	0.1	0	1	362	0.2	361	362	13.8	91.0
2022-10-06T20:16	10	0	0.1	0	1	362	0.2	361	362	13.8	91.2
2022-10-06T20:17	10	0	0.1	0	1	362	0.3	361	363	13.8	91.3
2022-10-06T20:18	10	0	0.1	0	0	362	0.3	362	363	13.7	91.3
2022-10-06T20:19	10	0	0.1	0	0	363	0.2	362	364	13.7	91.5
2022-10-06T20:20	10	0	0.1	0	0	363	0.3	363	364	13.8	91.6
2022-10-06T20:21	10	0	0.1	0	0	363	0.2	363	364	13.7	91.4
2022-10-06T20:22	10	0	0.1	0	0	363	0.3	362	364	13.8	91.5
2022-10-06T20:23	10	0	0.1	0	1	362	0.2	362	363	13.7	91.4
2022-10-06T20:24	10	0	0.1	0	0	362	0.2	362	363	13.8	91.4
2022-10-06T20:25	10	0	0.1	0	0	362	0.2	362	363	13.8	91.3
2022-10-06T20:26	10	0	0.1	0	0	362	0.2	362	363	13.8	91.3
2022-10-06T20:27	10	0	0.1	0	0	362	0.2	361	362	13.7	91.3
2022-10-06T20:28	10	0	0.0	0	0	362	0.2	361	362	13.9	91.4
2022-10-06T20:29	10	0	0.1	0	0	362	0.2	361	362	13.9	91.1
2022-10-06T20:30	10	0	0.1	0	0	361	0.2	360	362	13.8	90.9
2022-10-06T20:31	10	0	0.1	0	0	361	0.2	360	361	13.7	90.9
2022-10-06T20:32	10	0	0.1	0	0	361	0.3	360	362	13.7	91.4
2022-10-06T20:33	10	0	0.1	0	0	361	0.2	360	361	13.7	91.5
2022-10-06T20:34	10	0	0.1	0	0	361	0.3	360	361	13.7	91.5
2022-10-06T20:35	10	0	0.1	0	0	361	0.3	360	361	13.6	91.6
2022-10-06T20:36	10	0	0.1	0	0	361	0.2	360	361	13.8	91.7
2022-10-06T20:37	10	0	0.1	0	0	361	0.3	360	361	13.9	91.4
2022-10-06T20:38	10	0	0.1	0	0	361	0.2	360	361	14.0	90.8
2022-10-06T20:39	10	0	0.1	0	0	361	0.2	360	361	13.9	90.3
2022-10-06T20:40	10	0	0.1	0	0	360	0.2	360	361	13.8	90.5
2022-10-06T20:41	10	0	0.1	0	0	360	0.3	360	361	13.6	90.9
2022-10-06T20:42	10	0	0.0	0	0	360	0.2	360	361	13.6	91.3
2022-10-06T20:43	10	0	0.1	0	0	360	0.3	359	361	13.6	91.3
2022-10-06T20:44	10	0	0.1	0	0	360	0.2	360	360	13.6	91.3
2022-10-06T20:45	10	0	0.1	0	0	360	0.2	359	360	13.6	91.2
2022-10-06T20:46	10	0	0.1	0	0	360	0.2	359	360	13.6	91.0
2022-10-06T20:47	10	0	0.1	0	0	360	0.2	359	360	13.6	90.9
2022-10-06T20:48	10	0	0.1	0	0	359	0.2	359	360	13.4	91.0
2022-10-06T20:49	10	0	0.1	0	0	360	0.2	359	360	13.3	91.5
2022-10-06T20:50	10	0	0.1	0	0	360	0.2	359	360	13.4	91.8
2022-10-06T20:51	10	0	0.1	0	0	360	0.3	359	360	13.4	91.8
2022-10-06T20:52	10	0	0.1	0	0	359	0.2	359	360	13.4	91.7
2022-10-06T20:53	10	0	0.1	0	0	359	0.2	358	360	13.6	91.6
2022-10-06T20:54	10	0	0.1	0	0	359	0.3	359	360	13.6	91.0
2022-10-06T20:55	10	0	0.1	0	0	359	0.2	359	360	13.3	91.0
2022-10-06T20:56	10	0	0.1	0	0	359	0.3	359	360	13.0	91.5
2022-10-06T20:57	10	0	0.1	0	0	360	0.2	359	360	13.2	92.3
2022-10-06T20:58	10	0	0.1	0	0	359	0.3	359	360	13.4	92.0
2022-10-06T20:59	10	0	0.1	0	0	359	0.2	359	359	13.2	91.5
2022-10-06T21:00	10	0	0.1	0	0	359	0.2	359	360	12.9	92.0
2022-10-06T21:01	10	0	0.1	0	0	359	0.2	359	359	12.9	92.6
2022-10-06T21:02	10	0	0.1	0	0	359	0.3	358	360	13.0	92.9
2022-10-06T21:03	10	0	0.1	0	0	358	0.2	358	359	12.9	93.0
2022-10-06T21:04	10	0	0.1	0	0	358	0.2	358	359	12.9	93.3
2022-10-06T21:05	10	0	0.1	0	0	358	0.2	358	359	12.9	93.4
2022-10-06T21:06	10	0	0.1	0	0	358	0.2	357	358	12.9	93.4
2022-10-06T21:07	10	0	0.1	0	1	358	0.3	357	358	12.8	93.4
2022-10-06T21:08	10	0	0.1	0	1	358	0.3	357	358	12.9	93.4
2022-10-06T21:09	10	0	0.1	0	1	358	0.2	357	358	13.0	93.3
2022-10-06T21:10	10	0	0.1	0	1	358	0.2	358	359	12.9	93.0
2022-10-06T21:11	10	0	0.1	0	0	358	0.3	358	359	12.8	93.0
2022-10-06T21:12	10	0	0.1	0	0	359	0.2	358	359	12.8	93.2
2022-10-06T21:13	10	0	0.1	0	0	359	0.2	358	360	12.7	93.2
2022-10-06T21:14	10	0	0.1	0	0	359	0.3	358	360	12.7	93.4
2022-10-06T21:15	10	0	0.1	0	0	359	0.3	358	359	12.8	93.6
2022-10-06T21:16	10	0	0.1	0	0	359	0.3	358	359	12.9	93.7
2022-10-06T21:17	10	0	0.1	0	0	359	0.2	359	360	13.0	93.4
2022-10-06T21:18	10	0	0.1	0	0	359	0.3	358	359	13.1	93.1
2022-10-06T21:19	10	0	0.1	0	0	359	0.2	358	359	12.9	92.6
2022-10-06T21:20	10	0	0.1	0	0	359	0.3	358	359	13.0	92.8
2022-10-06T21:21	10	0	0.1	0	0	358	0.2	358	359	13.0	92.8
2022-10-06T21:22	10	0	0.1	0	0	358	0.2	357	358	13.0	92.7
2022-10-06T21:23	10	0	0.1	0	0	357	0.3	356	358	12.8	92.5
2022-10-06T21:24	10	0	0.1	0	0	357	0.2	356	358	12.5	92.6
2022-10-06T21:25	10	0	0.1	0	1	357	0.3	356	357	12.2	92.8
2022-10-06T21:26	10	0	0.1	0	0	357	0.3	356	358	12.1	93.4
2022-10-06T21:27	10	0	0.1	0	0	358	0.3	357	358	12.9	94.6
2022-10-06T21:28	10	0	0.1	0	0	357	0.2	357	358	12.9	93.8
2022-10-06T21:29	10	0	0.1	0	0	357	0.3	357	358	12.6	93.2
2022-10-06T21:30	10	0	0.1	0	0	357	0.2	356	357	12.5	93.3
2022-10-06T21:31	10	0	0.1	0	0	357	0.2	356	358	12.5	93.5
2022-10-06T21:32	10	0	0.1	0	0	357	0.2	356	357	12.4	93.7
2022-10-06T21:33	10	0	0.1	0	0	356	0.3	356	357	12.4	93.9
2022-10-06T21:34	10	0	0.1	0	0	357	0.2	356	357	12.5	94.2
2022-10-06T21:35	10	0	0.1	0	0	356	0.3	356	357	12.4	94.3
2022-10-06T21:36	10	0	0.1	0	0	356	0.3	356	357	12.3	94.3
2022-10-06T21:37	10	0	0.1	0	0	356	0.2	355	356	12.2	94.4
2022-10-06T21:38	10	0	0.1	0	0	356	0.3	355	357	12.1	94.5
2022-10-06T21:39	10	0	0.1	0	0	356	0.2	355	356	12.1	94.8
2022-10-06T21:40	10	0	0.1	0	0	356	0.2	355	356	12.1	94.8
2022-10-06T21:41	10	0	0.1	0	0	356	0.2	356	357	12.3	94.9
2022-10-06T21:42	10	0	0.1	0	0	356	0.2	355	356	12.3	94.8
2022-10-06T21:43	10	0	0.1	0	0	356	0.2	355	356	12.2	94.4
2022-10-06T21:44	10	0	0.1	0	0	355	0.3	355	356	12.1	94.2
2022-10-06T21:45	10	0	0.0	0	0	355	0.3	354	356	12.2	94.4
2022-10-06T21:46	10	0	0.1	0	0	355	0.2	355	356	12.1	94.3
2022-10-06T21:47	10	0	0.1	0	0	355	0.3	355	356	12.1	94.4
2022-10-06T21:48	10	0	0.1	0	0	355	0.2	355	356	12.1	94.6
2022-10-06T21:49	10	0	0.1	0	0	356	0.3	355	357	12.2	94.8
2022-10-06T21:50	10	0	0.1	0	0	356	0.2	355	356	12.3	94.9
2022-10-06T21:51	10	0	0.1	0	0	356	0.2	355	356	12.4	94.8
2022-10-06T21:52	10	0	0.1	0	0	356	0.2	355	356	12.4	94.6
2022-10-06T21:53	10	0	0.0	0	0	355	0.2	355	356	12.3	94.4
2022-10-06T21:54	10	0	0.1	0	0	355	0.2	355	356	12.2	94.4
2022-10-06T21:55	10	0	0.1	0	0	355	0.2	355	356	12.1	94.5
2022-10-06T21:56	10	0	0.1	0	0	355	0.2	355	356	12.1	94.6
2022-10-06T21:57	10	0	0.1	0	0	355	0.2	354	355	12.1	94.8
2022-10-06T21:58	10	0	0.1	0	0	354	0.2	354	355	12.0	94.8
2022-10-06T21:59	10	0	0.1	0	0	354	0.2	354	355	11.9	94.9
2022-10-06T22:00	10	0	0.1	0	0	355	0.3	354	355	11.9	95.1
2022-10-06T22:01	10	0	0.1	0	0	355	0.2	354	356	11.9	95.2
2022-10-06T22:02	10	0	0.0	0	0	355	0.2	355	356	11.8	95.2
2022-10-06T22:03	10	0	0.0	0	0	356	0.2	355	356	11.8	95.4
2022-10-06T22:04	10	0	0.1	0	0	356	0.2	355	356	11.8	95.6
2022-10-06T22:05	10	0	0.1	0	0	356	0.3	355	356	12.0	95.7
2022-10-06T22:06	10	0	0.1	0	0	356	0.2	355	356	12.2	95.6
2022-10-06T22:07	10	0	0.1	0	0	356	0.3	355	357	12.1	95.1
2022-10-06T22:08	10	0	0.1	0	0	356	0.3	355	356	12.0	94.9
2022-10-06T22:09	10	0	0.1	0	0	355	0.3	355	356	12.0	94.9
2022-10-06T22:10	10	0	0.1	0	0	355	0.2	355	356	12.0	95.0
2022-10-06T22:11	10	0	0.1	0	0	355	0.2	355	355	11.9	95.1
2022-10-06T22:12	10	0	0.1	0	0	355	0.4	354	356	11.9	95.4
2022-10-06T22:13	10	0	0.1	-1	0	356	0.2	355	356	12.1	95.7
2022-10-06T22:14	10	0	0.1	0	0	356	0.2	355	356	12.3	95.8
2022-10-06T22:15	10	0	0.1	0	0	356	0.2	355	356	12.5	95.4
2022-10-06T22:16	10	0	0.1	-1	0	355	0.3	355	356	12.5	94.8
2022-10-06T22:17	10	0	0.1	0	0	356	0.2	355	356	12.5	94.4
2022-10-06T22:18	10	0	0.1	0	0	356	0.3	355	356	12.5	94.1
2022-10-06T22:19	10	0	0.1	0	0	356	0.2	355	356	12.4	93.9
2022-10-06T22:20	10	0	0.1	0	0	355	0.2	355	356	12.3	93.8
2022-10-06T22:21	10	0	0.1	0	0	355	0.3	355	356	12.2	93.9
2022-10-06T22:22	10	0	0.1	0	0	355	0.2	355	356	12.1	94.2
2022-10-06T22:23	10	0	0.1	0	0	355	0.2	355	356	12.1	94.5
2022-10-06T22:24	10	0	0.1	0	0	355	0.2	355	356	12.1	94.6
2022-10-06T22:25	10	0	0.1	0	0	355	0.2	355	356	11.9	94.7
2022-10-06T22:26	10	0	0.1	0	1	355	0.2	355	356	11.9	94.9
2022-10-06T22:27	10	0	0.1	0	1	356	0.2	355	356	11.8	95.1
2022-10-06T22:28	10	0	0.1	0	0	356	0.2	355	356	11.9	95.3
2022-10-06T22:29	10	0	0.2	0	1	356	0.3	355	357	12.0	95.5
2022-10-06T22:30	10	0	0.2	0	0	356	0.3	355	356	12.2	95.4
2022-10-06T22:31	10	0	0.1	0	0	355	0.3	355	356	12.1	95.0
2022-10-06T22:32	10	0	0.1	0	0	354	0.4	354	355	11.9	94.9
2022-10-06T22:33	10	0	0.1	0	0	354	0.3	353	355	11.7	94.9
2022-10-06T22:34	10	0	0.1	0	0	354	0.3	353	355	11.9	95.2
2022-10-06T22:35	10	0	0.2	0	0	354	0.3	354	355	12.2	95.3
2022-10-06T22:36	10	0	0.1	0	0	354	0.2	354	355	12.1	94.8
2022-10-06T22:37	10	0	0.1	0	0	354	0.2	354	355	12.1	94.5
2022-10-06T22:38	10	0	0.1	0	0	354	0.2	354	355	12.0	94.3
2022-10-06T22:39	10	0	0.1	0	0	354	0.2	353	354	12.0	94.3
2022-10-06T22:40	10	0	0.1	0	0	354	0.3	353	354	11.9	94.0
2022-10-06T22:41	10	0	0.1	0	0	354	0.3	353	354	11.7	94.1
2022-10-06T22:42	10	0	0.1	0	1	353	0.3	353	354	11.6	94.5
2022-10-06T22:43	10	0	0.1	0	0	354	0.2	353	354	11.6	94.8
2022-10-06T22:44	10	0	0.1	-1	0	353	0.2	353	354	11.4	95.1
2022-10-06T22:45	10	0	0.1	-1	0	353	0.2	353	354	11.4	95.4
2022-10-06T22:46	10	0	0.1	-1	0	353	0.2	353	354	11.4	95.6
2022-10-06T22:47	10	-1	0.1	-1	0	353	0.2	353	354	11.4	95.7
2022-10-06T22:48	10	-1	0.2	-1	0	354	0.3	353	354	11.4	95.9
2022-10-06T22:49	10	-1	0.1	-1	0	354	0.3	353	355	11.4	96.0
2022-10-06T22:50	10	-2	5.2	-33	0	354	0.2	353	354	11.3	96.0
2022-10-06T22:51	10	-1	1.2	-9	0	354	0.2	353	354	11.3	96.1
2022-10-06T22:52	10	0	0.1	-1	0	354	0.2	353	354	11.3	96.1
2022-10-06T22:53	10	-1	0.1	-1	0	354	0.2	354	355	11.3	96.2
2022-10-06T22:54	10	-1	0.1	-1	0	355	0.3	354	355	11.7	96.4
2022-10-06T22:55	10	-1	0.1	-1	0	355	0.3	354	356	11.8	96.2
2022-10-06T22:56	10	-1	0.1	-1	0	355	0.3	354	355	11.7	95.8
2022-10-06T22:57	10	-1	0.1	-1	-1	354	0.3	353	355	11.4	95.4
2022-10-06T22:58	10	-1	0.1	-1	-1	354	0.2	353	354	11.3	95.6
2022-10-06T22:59	10	-1	0.1	-1	-1	354	0.2	354	355	11.4	95.9
2022-10-06T23:00	10	-1	0.1	-1	0	354	0.2	354	354	11.5	96.0
2022-10-06T23:01	10	-1	0.1	-1	0	354	0.2	353	354	11.4	96.0
2022-10-06T23:02	10	0	0.1	-1	0	353	0.2	353	354	11.4	96.0
2022-10-06T23:03	10	0	0.1	-1	0	354	0.2	353	354	11.3	96.1
2022-10-06T23:04	10	0	0.1	0	0	354	0.3	353	355	11.3	96.2
2022-10-06T23:05	10	0	0.1	-1	0	354	0.3	354	355	11.3	96.3
2022-10-06T23:06	10	0	0.1	-1	0	354	0.2	354	355	11.4	96.6
2022-10-06T23:07	10	0	0.1	-1	0	354	0.2	354	355	11.5	96.6
2022-10-06T23:08	10	0	0.1	-1	0	354	0.2	354	355	11.5	96.6
2022-10-06T23:09	10	0	0.1	-1	0	354	0.3	354	355	11.5	96.6
2022-10-06T23:10	10	0	0.1	-1	0	355	0.3	354	355	11.6	96.6
2022-10-06T23:11	10	0	0.0	-1	0	355	0.3	354	356	11.7	96.5
2022-10-06T23:12	10	0	0.1	-1	0	355	0.2	355	356	11.8	96.3
2022-10-06T23:13	10	0	0.1	-1	0	355	0.2	355	356	11.8	96.0
2022-10-06T23:14	10	0	0.1	0	0	355	0.2	355	356	11.9	95.7
2022-10-06T23:15	10	0	0.1	0	0	355	0.3	354	356	11.8	95.1
2022-10-06T23:16	10	0	0.1	0	0	355	0.2	354	355	11.6	94.8
2022-10-06T23:17	10	0	0.1	0	0	355	0.3	354	355	11.6	95.0
2022-10-06T23:18	10	0	0.1	0	0	355	0.3	354	356	11.8	95.3
2022-10-06T23:19	10	0	0.0	0	0	355	0.3	354	355	11.8	95.3
2022-10-06T23:20	10	0	0.1	0	0	354	0.4	353	355	11.7	95.1
2022-10-06T23:21	10	0	0.1	0	0	354	0.2	353	354	11.5	94.9
2022-10-06T23:22	10	0	0.1	0	0	353	0.2	353	354	11.6	95.2
2022-10-06T23:23	10	0	0.1	0	0	353	0.2	353	354	11.6	95.3
2022-10-06T23:24	10	0	0.1	0	0	353	0.2	352	354	11.6	95.4
2022-10-06T23:25	10	0	0.1	0	0	353	0.2	353	354	11.6	95.5
2022-10-06T23:26	10	0	0.1	0	0	353	0.2	353	354	11.6	95.6
2022-10-06T23:27	10	0	0.1	0	0	353	0.2	353	354	11.6	95.7
2022-10-06T23:28	10	0	0.1	0	0	353	0.3	353	354	11.6	95.7
2022-10-06T23:29	10	0	0.1	0	0	353	0.2	352	353	11.4	95.4
2022-10-06T23:30	10	0	0.1	0	0	353	0.3	352	353	11.3	95.3
2022-10-06T23:31	10	0	0.1	0	0	353	0.3	353	354	11.3	95.4
2022-10-06T23:32	10	0	0.1	0	0	354	0.2	353	354	11.4	95.8
2022-10-06T23:33	10	0	0.1	0	0	354	0.3	353	355	11.3	95.8
2022-10-06T23:34	10	0	0.1	0	0	353	0.2	353	354	11.1	95.8
2022-10-06T23:35	10	0	0.1	0	0	353	0.3	353	354	11.1	96.0
2022-10-06T23:36	10	0	0.1	0	0	353	0.2	353	354	11.1	96.3
2022-10-06T23:37	10	0	0.1	0	0	353	0.2	353	354	11.1	96.4
2022-10-06T23:38	10	0	0.1	0	0	353	0.3	352	353	11.0	96.6
2022-10-06T23:39	10	0	0.1	0	0	352	0.3	352	353	11.0	96.6
2022-10-06T23:40	10	0	0.1	0	0	352	0.2	352	353	11.0	96.7
2022-10-06T23:41	10	0	0.1	0	0	352	0.2	352	353	11.0	96.8
2022-10-06T23:42	10	0	0.1	0	0	352	0.3	351	353	11.0	96.8
2022-10-06T23:43	10	0	0.1	0	0	352	0.2	352	353	11.0	96.9
2022-10-06T23:44	10	0	0.1	0	0	353	0.5	352	354	11.1	96.9
2022-10-06T23:45	10	0	0.1	0	0	354	0.3	353	354	11.1	97.0
2022-10-06T23:46	10	0	0.1	0	0	353	0.2	353	354	11.1	97.1
2022-10-06T23:47	10	0	0.1	0	0	353	0.3	352	353	11.1	97.1
2022-10-06T23:48	10	0	0.1	0	0	353	0.2	352	353	11.2	97.1
2022-10-06T23:49	10	0	0.1	0	0	352	0.2	352	353	11.2	97.1
2022-10-06T23:50	10	0	0.1	0	0	352	0.3	351	352	11.2	97.1
2022-10-06T23:51	10	0	0.1	0	0	352	0.2	351	352	11.1	97.1
2022-10-06T23:52	10	0	0.1	0	0	352	0.2	351	352	11.1	97.1
2022-10-06T23:53	10	0	0.1	0	0	352	0.4	351	353	11.1	97.1
2022-10-06T23:54	10	0	0.1	0	0	352	0.2	352	353	11.1	97.1
2022-10-06T23:55	10	0	0.1	0	0	352	0.2	352	353	11.1	97.1
2022-10-06T23:56	10	0	0.1	0	0	353	0.2	352	353	11.1	97.1
2022-10-06T23:57	10	0	0.1	0	0	353	0.2	352	353	11.1	97.1
2022-10-06T23:58	10	0	0.1	0	0	353	0.2	352	353	11.1	97.2
2022-10-06T23:59	10	0	0.1	0	0	353	0.2	352	353	11.2	97.2
2022-10-07T00:00	10	0	0.1	0	0	353	0.2	352	353	11.2	97.2
2022-10-07T00:01	10	0	0.1	0	0	353	0.2	352	353	11.1	97.1
2022-10-07T00:02	10	0	0.1	0	0	352	0.5	351	353	11.1	97.1
2022-10-07T00:03	10	0	0.1	0	0	352	0.3	351	352	10.8	96.9
2022-10-07T00:04	10	0	0.1	0	0	352	0.2	351	352	10.8	96.9
2022-10-07T00:05	10	0	0.1	-1	0	352	0.2	351	352	10.9	97.1
2022-10-07T00:06	10	0	0.1	-1	0	351	0.2	351	352	11.0	97.2
2022-10-07T00:07	10	0	0.1	-1	0	351	0.2	351	352	11.0	97.3
2022-10-07T00:08	10	0	0.1	-1	0	351	0.2	351	352	11.0	97.3
2022-10-07T00:09	10	0	0.1	0	0	351	0.2	351	351	10.9	97.2
2022-10-07T00:10	10	0	0.1	-1	0	351	0.2	351	352	10.9	97.3
2022-10-07T00:11	10	0	0.1	0	0	351	0.3	351	352	10.8	97.2
2022-10-07T00:12	10	0	0.1	0	0	351	0.3	350	352	10.8	97.3
2022-10-07T00:13	10	0	0.1	0	0	351	0.2	350	351	10.5	97.2
2022-10-07T00:14	10	0	0.1	0	0	350	0.3	350	351	10.5	97.2
2022-10-07T00:15	10	0	0.1	0	0	351	0.2	350	351	10.5	97.3
2022-10-07T00:16	10	0	0.1	0	0	351	0.3	350	351	10.5	97.5
2022-10-07T00:17	10	0	0.1	0	0	351	0.3	350	351	10.7	97.7
2022-10-07T00:18	10	0	0.1	0	0	351	0.2	351	352	10.7	97.8
2022-10-07T00:19	10	0	0.1	0	0	351	0.3	351	352	10.7	97.8
2022-10-07T00:20	10	0	0.1	0	0	351	0.2	350	351	10.7	97.9
2022-10-07T00:21	10	0	0.1	0	0	351	0.2	350	351	10.7	97.9
2022-10-07T00:22	10	0	0.1	-1	0	351	0.2	351	352	10.7	98.0
2022-10-07T00:23	10	0	0.1	-1	0	352	0.2	351	352	10.7	98.1
2022-10-07T00:24	10	-1	0.1	-1	0	351	0.3	351	352	10.6	98.0
2022-10-07T00:25	10	-1	0.1	-1	-1	352	0.3	351	352	10.8	98.1
2022-10-07T00:26	10	-1	0.1	-1	-1	352	0.2	352	353	11.0	98.3
2022-10-07T00:27	10	-1	0.1	-1	0	352	0.2	352	353	11.2	98.3
2022-10-07T00:28	10	-1	0.1	-1	0	352	0.3	351	352	11.2	98.4
2022-10-07T00:29	10	-1	0.1	-1	0	352	0.2	351	352	11.1	98.3
2022-10-07T00:30	10	0	0.1	-1	0	352	0.2	351	352	11.3	98.4
2022-10-07T00:31	10	0	0.1	-1	0	352	0.2	352	353	11.4	98.4
2022-10-07T00:32	10	0	0.1	-1	0	353	0.3	352	353	11.4	98.4
2022-10-07T00:33	10	0	0.1	-1	0	353	0.2	352	353	11.5	98.3
2022-10-07T00:34	10	0	0.1	-1	0	352	0.3	352	353	11.6	98.3
2022-10-07T00:35	10	0	0.1	-1	0	352	0.2	352	353	11.3	98.1
2022-10-07T00:36	10	0	0.1	-1	0	354	0.6	352	354	11.5	98.0
2022-10-07T00:37	10	0	0.1	-1	0	354	0.3	353	354	12.0	98.1
2022-10-07T00:38	10	0	0.1	-1	0	354	0.3	353	354	12.1	97.8
2022-10-07T00:39	10	0	0.1	0	0	353	0.9	351	354	12.0	97.4
2022-10-07T00:40	10	0	0.1	0	0	352	0.3	351	353	10.8	95.8
2022-10-07T00:41	10	0	0.1	-1	0	353	0.3	352	353	10.6	96.0
2022-10-07T00:42	10	-1	0.1	-1	0	353	0.3	352	353	10.6	96.5
2022-10-07T00:43	10	-1	0.1	-1	-1	353	0.2	353	354	10.9	97.0
2022-10-07T00:44	10	-1	0.1	-1	-1	353	0.2	353	354	11.2	97.4
2022-10-07T00:45	10	-1	0.1	-1	-1	354	0.3	353	354	11.4	97.5
2022-10-07T00:46	10	-1	0.1	-1	-1	353	0.3	353	354	11.6	97.6
2022-10-07T00:47	10	-1	0.1	-1	0	353	0.3	352	354	11.7	97.5
2022-10-07T00:48	10	-1	0.1	-1	0	353	0.5	352	354	11.7	97.2
2022-10-07T00:49	10	0	0.1	-1	0	352	0.4	351	354	11.1	96.5
2022-10-07T00:50	10	0	0.1	-1	0	353	0.2	352	353	11.2	96.6
2022-10-07T00:51	10	0	0.1	-1	0	352	0.3	351	353	11.3	96.7
2022-10-07T00:52	10	-1	0.1	-1	0	352	0.2	352	353	11.3	96.7
2022-10-07T00:53	10	0	0.1	-1	0	352	0.2	351	352	11.3	96.7
2022-10-07T00:54	10	0	0.1	-1	0	352	0.2	351	352	11.2	96.7
2022-10-07T00:55	10	0	0.1	0	0	352	0.3	351	352	11.1	96.7
2022-10-07T00:56	10	0	0.1	0	0	353	0.4	352	353	11.1	96.7
2022-10-07T00:57	10	0	0.1	0	0	353	0.3	352	353	11.3	97.1
2022-10-07T00:58	10	0	0.1	-1	0	353	0.3	352	353	11.3	97.1
2022-10-07T00:59	10	0	0.1	0	0	353	0.2	352	353	11.2	97.1
2022-10-07T01:00	10	0	0.1	-1	0	352	0.2	352	352	11.1	97.0
2022-10-07T01:01	10	0	0.1	-1	0	352	0.3	351	353	11.0	97.0
2022-10-07T01:02	10	0	0.1	-1	0	352	0.2	351	352	11.0	97.1
2022-10-07T01:03	10	-1	0.1	-1	0	351	0.3	351	352	10.9	97.2
2022-10-07T01:04	10	-1	0.1	-1	0	351	0.2	350	351	10.8	97.2
2022-10-07T01:05	10	-1	0.1	-1	0	351	0.2	350	351	10.6	97.1
2022-10-07T01:06	10	-1	0.1	-1	0	350	0.2	350	351	10.3	97.0
2022-10-07T01:07	10	-1	0.1	-1	0	350	0.2	350	351	10.1	96.9
2022-10-07T01:08	10	0	0.1	-1	0	350	0.2	350	351	10.1	97.1
2022-10-07T01:09	10	-1	0.1	-1	0	350	0.2	350	351	10.2	97.3
2022-10-07T01:10	10	0	0.1	-1	0	350	0.2	349	350	10.2	97.4
2022-10-07T01:11	10	0	0.1	-1	0	350	0.3	349	350	10.1	97.5
2022-10-07T01:12	10	0	0.1	-1	0	350	0.3	349	350	10.2	97.6
2022-10-07T01:13	10	-1	0.1	-1	0	349	0.3	349	350	10.4	97.9
2022-10-07T01:14	10	-1	0.1	-1	-1	349	0.4	349	350	10.2	97.8
2022-10-07T01:15	10	-1	0.1	-1	-1	349	0.2	349	350	10.3	97.9
2022-10-07T01:16	10	-1	0.1	-1	-1	350	0.3	349	350	10.3	98.0
2022-10-07T01:17	10	-1	0.1	-1	-1	350	0.2	349	350	10.5	98.1
2022-10-07T01:18	10	-1	0.1	-1	-1	350	0.4	350	351	10.4	98.1
2022-10-07T01:19	10	-1	0.1	-1	-1	351	0.3	350	352	10.4	98.1
2022-10-07T01:20	10	-1	0.1	-1	-1	351	0.3	350	352	10.3	98.1
2022-10-07T01:21	10	-2	0.1	-2	-1	352	0.4	351	353	10.4	98.1
2022-10-07T01:22	10	-2	0.1	-2	-2	352	0.3	351	352	10.3	98.1
2022-10-07T01:23	10	-2	0.1	-2	-2	352	0.2	351	352	10.4	98.1
2022-10-07T01:24	10	-2	0.1	-2	-2	351	0.2	351	352	10.2	98.0
2022-10-07T01:25	10	-2	0.1	-2	-2	352	0.2	351	352	10.4	98.0
2022-10-07T01:26	10	-2	0.1	-2	-2	352	0.4	351	352	10.4	98.0
2022-10-07T01:27	10	-2	0.1	-2	-1	352	0.2	352	353	10.6	98.1
2022-10-07T01:28	10	-1	0.1	-2	-1	352	0.3	351	353	10.6	98.2
2022-10-07T01:29	10	-1	0.1	-1	-1	352	0.4	351	353	10.6	98.1
2022-10-07T01:30	10	-1	0.1	-1	-1	352	0.4	351	352	10.4	98.0
2022-10-07T01:31	10	-1	0.1	-1	-1	352	0.2	351	352	10.3	97.8
2022-10-07T01:32	10	-1	0.1	-2	-1	352	0.2	351	352	10.5	97.9
2022-10-07T01:33	10	-1	0.1	-2	-1	352	0.3	352	353	10.6	97.9
2022-10-07T01:34	10	-2	0.1	-2	-2	353	0.4	352	354	10.4	97.8
2022-10-07T01:35	10	-2	0.1	-2	-2	353	0.3	353	354	10.3	97.6
2022-10-07T01:36	10	-2	0.1	-2	-2	354	0.2	353	354	10.4	97.7
2022-10-07T01:37	10	-2	0.1	-2	-2	354	0.4	353	355	10.3	97.6
2022-10-07T01:38	10	-2	0.1	-2	-1	355	0.5	354	356	10.2	97.5
2022-10-07T01:39	10	-2	0.1	-2	-1	356	0.5	355	357	10.3	97.6
2022-10-07T01:40	10	-2	0.1	-2	-1	357	0.4	356	357	10.3	97.6
2022-10-07T01:41	10	-2	0.1	-2	-1	357	0.4	357	358	10.2	97.5
2022-10-07T01:42	10	-1	0.1	-2	-1	358	0.3	357	358	10.3	97.6
2022-10-07T01:43	10	-1	0.1	-1	-1	358	0.2	358	359	10.3	97.6
2022-10-07T01:44	10	-1	0.1	-1	-1	359	0.4	358	359	10.3	97.6
2022-10-07T01:45	10	-1	0.1	-1	-1	359	0.2	359	359	10.4	97.7
2022-10-07T01:46	10	-1	0.1	-1	-1	359	0.2	358	359	10.4	97.7
2022-10-07T01:47	10	-1	0.1	-1	0	359	0.2	358	359	10.3	97.7
2022-10-07T01:48	10	0	0.1	-1	0	358	0.3	358	359	10.2	97.6
2022-10-07T01:49	10	0	0.1	-1	0	358	0.2	358	359	10.2	97.6
2022-10-07T01:50	10	0	0.1	-1	0	358	0.3	357	358	10.4	97.7
2022-10-07T01:51	10	0	0.1	-1	0	358	0.2	358	358	10.4	97.8
2022-10-07T01:52	10	-1	0.1	-1	0	358	0.2	357	358	10.4	97.7
2022-10-07T01:53	10	-1	0.1	-1	-1	357	0.2	357	358	10.3	97.7
2022-10-07T01:54	10	-1	0.1	-1	-1	357	0.3	357	358	10.3	97.7
2022-10-07T01:55	10	-1	0.1	-1	-1	357	0.2	357	358	10.3	97.6
2022-10-07T01:56	10	-1	0.1	-1	-1	357	0.2	356	357	10.2	97.6
2022-10-07T01:57	10	-1	0.1	-1	-1	357	0.2	356	357	10.2	97.5
2022-10-07T01:58	10	-1	0.1	-1	0	356	0.2	356	357	10.2	97.5
2022-10-07T01:59	10	0	0.1	-1	0	357	0.3	356	357	10.2	97.5
2022-10-07T02:00	10	0	0.1	-1	0	357	0.3	356	357	10.3	97.6
2022-10-07T02:01	10	0	0.1	-1	0	357	0.2	356	357	10.4	97.6
2022-10-07T02:02	10	-1	0.1	-1	0	356	0.2	356	357	10.3	97.6
2022-10-07T02:03	10	-1	0.1	-1	-1	356	0.2	356	357	10.2	97.5
2022-10-07T02:04	10	-1	0.1	-1	-1	356	0.4	355	357	10.2	97.4
2022-10-07T02:05	10	-1	0.1	-1	-1	357	0.3	356	357	10.2	97.4
2022-10-07T02:06	10	-1	0.1	-1	-1	357	0.2	356	357	10.2	97.4
2022-10-07T02:07	10	-1	0.1	-1	-1	357	0.3	356	357	10.1	97.4
2022-10-07T02:08	10	-1	0.1	-1	-1	357	0.2	357	358	10.2	97.4
2022-10-07T02:09	10	-1	0.1	-1	-1	357	0.3	357	358	10.1	97.5
2022-10-07T02:10	10	-1	0.1	-1	-1	358	0.2	357	358	10.0	97.4
2022-10-07T02:11	10	-1	0.1	-1	-1	358	0.2	357	358	9.9	97.4
2022-10-07T02:12	10	-1	0.1	-1	-1	358	0.3	358	359	10.0	97.5
2022-10-07T02:13	10	-1	0.1	-1	-1	359	0.2	358	359	9.9	97.5
2022-10-07T02:14	10	-1	0.1	-1	-1	359	0.2	358	359	9.9	97.6
2022-10-07T02:15	10	-1	0.1	-1	-1	359	0.2	359	360	9.9	97.6
2022-10-07T02:16	10	-1	0.1	-1	0	359	0.2	359	360	10.0	97.8
2022-10-07T02:17	10	0	0.1	-1	0	359	0.3	359	360	10.0	97.8
2022-10-07T02:18	10	0	0.1	0	0	360	0.3	359	360	10.0	97.8
2022-10-07T02:19	10	0	0.1	0	0	360	0.2	359	360	10.0	97.9
2022-10-07T02:20	10	0	0.1	0	0	360	0.2	359	360	9.9	97.9
2022-10-07T02:21	10	0	0.1	0	0	360	0.2	360	361	9.9	97.9
2022-10-07T02:22	10	0	0.1	0	0	361	0.2	360	361	10.0	98.0
2022-10-07T02:23	10	0	0.1	0	0	361	0.2	361	362	10.0	98.0
2022-10-07T02:24	10	0	0.1	0	0	361	0.3	360	362	9.9	98.0
2022-10-07T02:25	10	0	0.1	-1	0	362	0.2	361	362	9.9	98.1
2022-10-07T02:26	10	0	0.1	-1	0	362	0.2	361	362	10.0	98.1
2022-10-07T02:27	10	-1	0.1	-1	0	362	0.2	362	363	10.1	98.2
2022-10-07T02:28	10	-1	0.1	-1	0	362	0.2	362	363	10.0	98.2
2022-10-07T02:29	10	-1	0.1	-1	0	363	0.3	362	363	10.0	98.2
2022-10-07T02:30	10	-1	0.1	-1	-1	363	0.2	363	364	10.0	98.2
2022-10-07T02:31	10	-1	0.1	-1	-1	363	0.2	363	364	9.9	98.2
2022-10-07T02:32	10	-1	0.1	-1	-1	363	0.2	363	364	9.9	98.2
2022-10-07T02:33	10	-1	0.1	-1	-1	364	0.2	363	364	10.1	98.3
2022-10-07T02:34	10	-1	0.1	-1	-1	364	0.3	363	365	10.2	98.3
2022-10-07T02:35	10	-1	0.1	-1	-1	364	0.2	364	365	10.2	98.4
2022-10-07T02:36	10	-1	0.1	-1	-1	365	0.2	364	365	10.2	98.4
2022-10-07T02:37	10	-2	0.1	-2	-1	365	0.3	364	365	10.2	98.4
2022-10-07T02:38	10	-2	0.1	-2	-1	365	0.2	364	365	10.3	98.4
2022-10-07T02:39	10	-2	0.1	-2	-1	365	0.4	365	366	10.4	98.4
2022-10-07T02:40	10	-2	0.1	-2	-1	365	0.3	364	366	10.4	98.4
2022-10-07T02:41	10	-1	0.1	-2	-1	365	0.3	365	366	10.4	98.3
2022-10-07T02:42	10	-1	0.1	-1	-1	366	0.2	365	366	10.4	98.3
2022-10-07T02:43	10	-1	0.1	-1	-1	366	0.2	365	366	10.4	98.3
2022-10-07T02:44	10	-1	0.1	-1	-1	366	0.2	365	366	10.5	98.3
2022-10-07T02:45	10	-1	0.1	-1	-1	366	0.2	365	367	10.5	98.3
2022-10-07T02:46	10	-1	0.1	-1	-1	366	0.2	366	367	10.5	98.2
2022-10-07T02:47	10	-1	0.1	-1	-1	366	0.2	366	367	10.5	98.2
2022-10-07T02:48	10	-1	0.1	-1	-1	367	0.3	366	367	10.7	98.2
2022-10-07T02:49	10	-1	0.1	-1	-1	367	0.2	366	367	10.9	98.2
2022-10-07T02:50	10	-1	0.1	-1	0	367	0.2	367	368	11.1	98.2
2022-10-07T02:51	10	-1	0.1	-1	0	367	0.3	366	368	10.9	98.0
2022-10-07T02:52	10	0	0.1	-1	0	367	0.3	367	368	10.9	97.9
2022-10-07T02:53	10	0	0.1	0	0	368	0.2	367	368	10.9	97.8
2022-10-07T02:54	10	0	0.1	0	0	368	0.2	368	369	10.9	97.6
2022-10-07T02:55	10	0	0.1	0	0	368	0.2	367	368	10.9	97.5
2022-10-07T02:56	10	0	0.1	0	0	368	0.2	367	368	10.8	97.3
2022-10-07T02:57	10	0	0.1	0	0	368	0.2	367	369	10.8	97.2
2022-10-07T02:58	10	0	0.1	0	0	368	0.4	367	369	10.8	97.1
2022-10-07T02:59	10	0	0.1	0	0	368	0.3	367	368	10.7	96.9
2022-10-07T03:00	10	0	0.1	0	0	368	0.2	367	368	10.8	96.9
2022-10-07T03:01	10	0	0.1	0	0	368	0.2	367	368	10.8	96.9
2022-10-07T03:02	10	0	0.1	0	0	368	0.3	367	369	10.9	96.8
2022-10-07T03:03	10	0	0.1	0	0	368	0.3	367	368	10.8	96.7
2022-10-07T03:04	10	0	0.1	0	0	368	0.2	368	369	10.9	96.7
2022-10-07T03:05	10	0	0.1	0	0	368	0.2	367	368	10.8	96.6
2022-10-07T03:06	10	0	0.1	0	0	368	0.2	368	369	10.8	96.6
2022-10-07T03:07	10	0	0.1	0	0	368	0.3	367	369	10.8	96.7
2022-10-07T03:08	10	0	0.1	0	0	368	0.3	368	369	10.8	96.8
2022-10-07T03:09	10	0	0.1	0	0	369	0.3	368	369	10.8	96.8
2022-10-07T03:10	10	0	0.1	0	0	368	0.2	368	369	10.8	96.9
2022-10-07T03:11	10	0	0.1	0	1	368	0.3	368	369	10.8	96.9
2022-10-07T03:12	10	0	0.1	0	1	368	0.3	368	369	10.8	96.9
2022-10-07T03:13	10	0	0.1	0	1	368	0.2	368	369	10.8	97.0
2022-10-07T03:14	10	0	0.1	0	1	369	0.2	368	369	10.8	97.0
2022-10-07T03:15	10	0	0.1	0	0	368	0.2	368	369	10.7	97.0
2022-10-07T03:16	10	0	0.1	0	0	368	0.3	367	369	10.6	97.0
2022-10-07T03:17	10	0	0.1	0	0	368	0.2	368	369	10.6	97.1
2022-10-07T03:18	10	0	0.1	0	0	368	0.3	368	369	10.6	97.2
2022-10-07T03:19	10	0	0.1	0	0	368	0.2	368	369	10.6	97.3
2022-10-07T03:20	10	0	0.1	0	0	368	0.3	367	369	10.6	97.3
2022-10-07T03:21	10	0	0.1	0	0	368	0.2	368	369	10.6	97.3
2022-10-07T03:22	10	0	0.1	0	0	368	0.2	368	369	10.6	97.4
2022-10-07T03:23	10	0	0.1	0	0	368	0.2	368	369	10.6	97.4
2022-10-07T03:24	10	0	0.1	0	0	368	0.2	368	369	10.6	97.5
2022-10-07T03:25	10	0	0.1	0	0	368	0.2	368	369	10.6	97.6
2022-10-07T03:26	10	0	0.1	0	0	368	0.2	368	369	10.6	97.6
2022-10-07T03:27	10	0	0.1	0	0	368	0.2	368	369	10.6	97.6
2022-10-07T03:28	10	0	0.1	0	0	368	0.2	368	369	10.6	97.7
2022-10-07T03:29	10	0	0.1	0	0	368	0.2	368	369	10.6	97.7
2022-10-07T03:30	10	0	0.1	0	0	368	0.2	368	369	10.7	97.7
2022-10-07T03:31	10	0	0.1	0	0	368	0.2	368	369	10.7	97.8
2022-10-07T03:32	10	0	0.1	0	0	369	0.2	368	369	10.7	97.8
2022-10-07T03:33	10	0	0.1	0	0	368	0.2	368	369	10.8	97.8
2022-10-07T03:34	10	0	0.1	0	0	369	0.2	368	369	10.8	97.8
2022-10-07T03:35	10	0	0.1	-1	0	369	0.3	368	369	10.8	97.8
2022-10-07T03:36	10	0	0.1	-1	0	369	0.3	368	369	10.8	97.7
2022-10-07T03:37	10	-1	0.1	-1	0	369	0.3	368	369	10.8	97.7
2022-10-07T03:38	10	-1	0.1	-1	0	369	0.3	368	370	10.9	97.7
2022-10-07T03:39	10	-1	0.1	-1	0	369	0.2	369	369	10.9	97.7
2022-10-07T03:40	10	0	0.1	-1	0	369	0.2	368	370	10.9	97.6
2022-10-07T03:41	10	0	0.1	0	0	369	0.2	369	370	10.9	97.6
2022-10-07T03:42	10	0	0.1	0	0	369	0.2	369	370	11.0	97.6
2022-10-07T03:43	10	0	0.1	0	0	370	0.3	369	370	11.0	97.6
2022-10-07T03:44	10	0	0.1	0	0	370	0.4	369	371	11.1	97.6
2022-10-07T03:45	10	0	0.1	0	0	370	0.4	369	370	11.2	97.6
2022-10-07T03:46	10	0	0.1	0	0	370	0.4	369	370	11.2	97.4
2022-10-07T03:47	10	0	0.1	0	0	370	0.2	369	370	11.1	97.3
2022-10-07T03:48	10	0	0.1	0	0	369	0.2	369	370	11.1	97.1
2022-10-07T03:49	10	0	0.1	-1	0	370	0.3	369	370	11.1	97.0
2022-10-07T03:50	10	0	0.1	-1	0	369	0.3	369	370	11.1	96.8
2022-10-07T03:51	10	0	0.1	-1	0	370	0.3	369	370	11.1	96.8
2022-10-07T03:52	10	0	0.1	-1	0	369	0.2	369	370	11.0	96.7
2022-10-07T03:53	10	0	0.1	-1	0	369	0.2	369	370	11.1	96.7
2022-10-07T03:54	10	0	0.1	-1	0	369	0.3	369	370	11.1	96.7
2022-10-07T03:55	10	0	0.1	-1	0	370	0.3	369	370	11.1	96.7
2022-10-07T03:56	10	0	0.1	-1	0	370	0.3	369	370	11.1	96.7
2022-10-07T03:57	10	0	0.1	0	0	370	0.3	369	370	11.1	96.6
2022-10-07T03:58	10	0	0.1	0	0	370	0.3	369	370	11.0	96.6
2022-10-07T03:59	10	0	0.1	0	0	369	0.2	369	370	11.0	96.6
2022-10-07T04:00	10	0	0.1	0	0	370	0.3	369	370	11.0	96.6
2022-10-07T04:01	10	0	0.1	-1	0	369	0.2	369	370	11.0	96.7
2022-10-07T04:02	10	0	0.1	-1	0	369	0.3	369	370	11.0	96.7
2022-10-07T04:03	10	-1	0.1	-1	0	369	0.3	369	370	11.0	96.7
2022-10-07T04:04	10	-1	0.1	-1	0	369	0.2	369	370	11.0	96.7
2022-10-07T04:05	10	-1	0.1	-1	0	369	0.3	369	370	11.0	96.7
2022-10-07T04:06	10	0	0.1	-1	0	369	0.2	369	370	11.0	96.7
2022-10-07T04:07	10	0	0.1	-1	0	369	0.2	369	370	11.0	96.7
2022-10-07T04:08	10	0	0.1	0	0	369	0.2	369	370	11.0	96.7
2022-10-07T04:09	10	0	0.1	-1	0	369	0.3	369	370	11.1	96.7
2022-10-07T04:10	10	0	0.1	-1	0	370	0.3	369	370	11.1	96.7
2022-10-07T04:11	10	0	0.1	0	0	369	0.2	369	370	11.2	96.7
2022-10-07T04:12	10	0	0.1	0	0	370	0.3	369	370	11.1	96.6
2022-10-07T04:13	10	0	0.1	0	0	369	0.5	368	370	11.1	96.6
2022-10-07T04:14	10	0	0.1	0	0	370	0.3	369	370	11.1	96.6
2022-10-07T04:15	10	0	0.1	0	0	370	0.3	369	370	11.2	96.6
2022-10-07T04:16	10	0	0.1	0	0	370	0.4	369	370	11.3	96.4
2022-10-07T04:17	10	0	0.1	0	0	370	0.2	370	371	11.3	96.3
2022-10-07T04:18	10	0	0.1	0	0	370	0.3	370	371	11.3	96.2
2022-10-07T04:19	10	0	0.1	0	1	370	0.5	369	371	11.3	96.1
2022-10-07T04:20	10	0	0.1	0	0	370	0.4	369	371	11.3	96.0
2022-10-07T04:21	10	0	0.1	0	0	370	0.4	369	371	11.3	95.9
2022-10-07T04:22	10	0	0.1	0	0	370	0.4	369	371	11.3	95.8
2022-10-07T04:23	10	0	0.1	0	0	370	0.4	369	371	11.2	95.7
2022-10-07T04:24	10	0	0.1	0	0	370	0.3	369	370	11.2	95.7
2022-10-07T04:25	10	0	0.1	-1	0	370	0.2	369	370	11.1	95.7
2022-10-07T04:26	10	-1	0.1	-1	0	370	0.3	369	370	11.2	95.8
2022-10-07T04:27	10	-1	0.1	-1	0	370	0.3	369	370	11.1	95.8
2022-10-07T04:28	10	-1	0.1	-1	0	370	0.2	369	370	11.2	95.9
2022-10-07T04:29	10	-1	0.1	-1	0	370	0.3	369	370	11.1	95.9
2022-10-07T04:30	10	0	0.1	-1	0	370	0.3	369	371	11.1	96.0
2022-10-07T04:31	10	0	0.1	0	0	370	0.2	369	370	11.1	96.1
2022-10-07T04:32	10	0	0.1	0	0	370	0.2	370	371	11.2	96.2
2022-10-07T04:33	10	0	0.1	0	0	371	0.2	370	371	11.1	96.2
2022-10-07T04:34	10	0	0.1	0	0	371	0.2	370	371	11.1	96.3
2022-10-07T04:35	10	0	0.1	0	0	370	0.3	370	371	11.1	96.4
2022-10-07T04:36	10	0	0.1	0	0	370	0.3	370	371	11.2	96.4
2022-10-07T04:37	10	0	0.1	0	0	370	0.2	370	371	11.2	96.4
2022-10-07T04:38	10	0	0.1	0	1	371	0.2	370	371	11.1	96.4
2022-10-07T04:39	10	0	0.1	0	0	371	0.2	370	371	11.2	96.5
2022-10-07T04:40	10	0	0.1	0	1	371	0.2	370	371	11.2	96.5
2022-10-07T04:41	10	0	0.1	0	1	371	0.2	370	371	11.3	96.5
2022-10-07T04:42	10	0	0.1	0	1	371	0.2	370	371	11.3	96.5
2022-10-07T04:43	10	0	0.1	0	1	371	0.2	370	371	11.3	96.4
2022-10-07T04:44	10	0	0.1	0	0	371	0.2	370	371	11.3	96.4
2022-10-07T04:45	10	0	0.1	0	1	371	0.2	370	371	11.3	96.3
2022-10-07T04:46	10	0	0.1	0	1	371	0.2	371	371	11.3	96.4
2022-10-07T04:47	10	0	0.1	0	0	371	0.2	370	371	11.4	96.4
2022-10-07T04:48	10	0	0.1	0	0	371	0.2	371	372	11.4	96.4
2022-10-07T04:49	10	0	0.1	0	0	371	0.2	370	371	11.3	96.4
2022-10-07T04:50	10	0	0.1	0	0	371	0.2	370	371	11.3	96.4
2022-10-07T04:51	10	0	0.1	0	0	371	0.2	370	371	11.3	96.5
2022-10-07T04:52	10	0	0.1	0	0	371	0.2	371	372	11.3	96.6
2022-10-07T04:53	10	0	0.1	0	0	371	0.2	370	372	11.4	96.6
2022-10-07T04:54	10	0	0.1	0	0	371	0.2	370	371	11.4	96.5
2022-10-07T04:55	10	0	0.1	0	0	371	0.2	370	371	11.4	96.5
2022-10-07T04:56	10	0	0.1	0	0	371	0.3	371	372	11.4	96.6
2022-10-07T04:57	10	0	0.1	0	0	371	0.2	370	371	11.4	96.5
2022-10-07T04:58	10	0	0.1	0	0	371	0.2	370	371	11.4	96.3
2022-10-07T04:59	10	0	0.1	0	0	371	0.2	370	371	11.3	96.3
2022-10-07T05:00	10	0	0.1	0	0	371	0.2	371	372	11.3	96.3
2022-10-07T05:01	10	0	0.1	0	0	371	0.2	370	371	11.2	96.3
2022-10-07T05:02	10	0	0.1	0	0	371	0.2	371	372	11.3	96.4
2022-10-07T05:03	10	0	0.1	0	0	371	0.3	370	371	11.4	96.5
2022-10-07T05:04	10	0	0.1	0	0	371	0.2	370	372	11.4	96.5
2022-10-07T05:05	10	0	0.1	0	0	371	0.2	371	372	11.5	96.5
2022-10-07T05:06	10	0	0.1	0	0	371	0.2	371	372	11.5	96.4
2022-10-07T05:07	10	0	0.1	0	0	371	0.2	371	372	11.5	96.2
2022-10-07T05:08	10	0	0.1	0	0	371	0.2	371	372	11.5	96.1
2022-10-07T05:09	10	0	0.0	0	0	371	0.2	371	372	11.5	96.0
2022-10-07T05:10	10	0	0.1	0	1	371	0.2	371	372	11.5	95.9
2022-10-07T05:11	10	0	0.1	0	1	371	0.2	371	371	11.4	96.0
2022-10-07T05:12	10	0	0.1	0	1	371	0.2	371	372	11.4	96.1
2022-10-07T05:13	10	1	0.1	0	1	371	0.2	371	372	11.4	96.1
2022-10-07T05:14	10	1	0.1	0	1	371	0.2	371	372	11.4	96.2
2022-10-07T05:15	10	1	0.1	0	1	371	0.2	371	372	11.4	96.2
2022-10-07T05:16	10	1	0.1	0	1	371	0.2	370	371	11.4	96.3
2022-10-07T05:17	10	1	0.1	1	1	371	0.2	370	371	11.4	96.3
2022-10-07T05:18	10	1	0.1	1	1	371	0.2	370	371	11.4	96.4
2022-10-07T05:19	10	1	0.1	1	1	371	0.2	370	371	11.4	96.4
2022-10-07T05:20	10	1	0.1	1	1	371	0.2	370	371	11.4	96.4
2022-10-07T05:21	10	1	0.1	1	1	370	0.2	370	371	11.4	96.3
2022-10-07T05:22	10	1	0.1	1	1	370	0.1	370	371	11.4	96.4
2022-10-07T05:23	10	1	0.1	0	1	370	0.2	370	371	11.4	96.4
2022-10-07T05:24	10	1	0.1	1	1	370	0.2	370	371	11.4	96.4
2022-10-07T05:25	10	1	0.1	0	1	370	0.3	370	371	11.4	96.4
2022-10-07T05:26	10	1	0.1	1	1	370	0.2	370	371	11.4	96.4
2022-10-07T05:27	10	1	0.1	1	1	370	0.2	370	371	11.4	96.5
2022-10-07T05:28	10	1	0.1	1	1	371	0.2	370	371	11.4	96.5
2022-10-07T05:29	10	1	0.1	1	1	370	0.2	370	371	11.3	96.6
2022-10-07T05:30	10	1	0.1	1	1	371	0.2	370	371	11.3	96.6
2022-10-07T05:31	10	1	0.1	1	1	370	0.2	370	371	11.3	96.7
2022-10-07T05:32	10	1	0.1	1	1	371	0.2	370	371	11.3	96.7
2022-10-07T05:33	10	1	0.1	1	1	371	0.2	370	371	11.3	96.7
2022-10-07T05:34	10	1	0.1	1	1	371	0.2	370	371	11.4	96.7
2022-10-07T05:35	10	1	0.1	1	1	371	0.2	370	371	11.4	96.7
2022-10-07T05:36	10	1	0.1	1	1	371	0.3	370	371	11.4	96.7
2022-10-07T05:37	10	1	0.1	1	1	371	0.3	370	371	11.4	96.6
2022-10-07T05:38	10	1	0.1	1	1	371	0.2	370	371	11.4	96.6
2022-10-07T05:39	10	1	0.1	1	1	371	0.2	370	371	11.4	96.6
2022-10-07T05:40	10	1	0.1	1	1	371	0.2	370	371	11.4	96.5
2022-10-07T05:41	10	1	0.1	1	1	371	0.3	370	372	11.4	96.5
2022-10-07T05:42	10	1	0.1	1	1	371	0.3	370	372	11.4	96.5
2022-10-07T05:43	10	1	0.1	1	1	371	0.3	370	372	11.4	96.4
2022-10-07T05:44	10	1	0.1	1	1	371	0.2	371	372	11.5	96.4
2022-10-07T05:45	10	1	0.1	1	2	371	0.2	371	372	11.4	96.4
2022-10-07T05:46	10	1	0.1	1	2	371	0.3	370	372	11.5	96.4
2022-10-07T05:47	10	2	0.1	1	2	371	0.2	371	372	11.5	96.3
2022-10-07T05:48	10	2	0.1	1	2	371	0.2	371	372	11.5	96.3
2022-10-07T05:49	10	2	0.1	1	2	371	0.2	371	372	11.5	96.3
2022-10-07T05:50	10	2	0.1	2	2	371	0.2	371	372	11.5	96.2
2022-10-07T05:51	10	2	0.1	2	2	371	0.2	371	372	11.5	96.2
2022-10-07T05:52	10	2	0.1	2	2	371	0.2	371	372	11.5	96.2
2022-10-07T05:53	10	2	0.1	2	2	371	0.2	371	372	11.5	96.2
2022-10-07T05:54	10	2	0.1	2	2	371	0.2	371	372	11.5	96.2
2022-10-07T05:55	10	2	0.1	2	3	372	0.2	371	372	11.5	96.1
2022-10-07T05:56	10	3	0.1	2	3	371	0.2	371	372	11.5	96.2
2022-10-07T05:57	10	3	0.1	3	3	371	0.2	371	372	11.5	96.3
2022-10-07T05:58	10	3	0.1	3	3	372	0.2	371	372	11.5	96.3
2022-10-07T05:59	10	3	0.1	3	3	371	0.3	371	372	11.5	96.4
2022-10-07T06:00	10	3	0.1	3	3	371	0.3	370	372	11.5	96.4
2022-10-07T06:01	10	3	0.1	3	4	371	0.2	371	372	11.5	96.5
2022-10-07T06:02	10	4	0.1	3	4	372	0.2	371	372	11.5	96.6
2022-10-07T06:03	10	4	0.1	4	4	371	0.2	371	372	11.5	96.7
2022-10-07T06:04	10	4	0.1	4	4	372	0.2	372	372	11.6	96.7
2022-10-07T06:05	10	4	0.1	4	5	372	0.2	371	373	11.6	96.6
2022-10-07T06:06	10	4	0.1	4	5	372	0.2	372	373	11.6	96.5
2022-10-07T06:07	10	4	0.1	4	5	372	0.3	372	373	11.6	96.3
2022-10-07T06:08	10	4	0.1	4	5	373	0.2	372	373	11.7	96.0
2022-10-07T06:09	10	4	0.1	4	5	373	0.2	372	373	11.7	95.7
2022-10-07T06:10	10	5	0.1	4	5	373	0.3	372	373	11.7	95.5
2022-10-07T06:11	10	5	0.1	5	5	372	0.3	372	373	11.7	95.3
2022-10-07T06:12	10	5	0.1	5	5	373	0.3	372	373	11.8	95.2
2022-10-07T06:13	10	5	0.1	5	5	373	0.2	372	373	11.8	95.1
2022-10-07T06:14	10	5	0.1	5	5	373	0.3	372	374	11.8	95.0
2022-10-07T06:15	10	5	0.1	5	6	373	0.3	372	374	11.8	95.0
2022-10-07T06:16	10	6	0.1	5	6	373	0.2	372	374	11.8	95.0
2022-10-07T06:17	10	6	0.1	6	6	373	0.2	372	373	11.8	95.0
2022-10-07T06:18	10	6	0.1	6	6	373	0.2	373	373	11.8	95.0
2022-10-07T06:19	10	6	0.1	6	6	373	0.2	372	374	11.8	95.0
2022-10-07T06:20	10	6	0.1	6	6	373	0.4	372	374	11.8	95.0
2022-10-07T06:21	10	6	0.1	6	7	373	0.3	372	374	11.8	95.0
2022-10-07T06:22	10	7	0.2	6	7	373	0.3	373	374	11.8	95.0
2022-10-07T06:23	10	7	0.1	7	7	373	0.3	373	374	11.8	95.0
2022-10-07T06:24	10	7	0.1	7	8	374	0.6	372	374	11.8	95.0
2022-10-07T06:25	10	7	0.1	7	7	374	0.2	373	374	11.8	94.9
2022-10-07T06:26	10	7	0.1	7	8	374	0.2	373	374	11.8	95.0
2022-10-07T06:27	10	8	0.1	7	8	374	0.2	374	375	11.8	95.1
2022-10-07T06:28	10	8	0.1	8	8	374	0.3	374	375	11.8	95.1
2022-10-07T06:29	10	8	0.1	8	8	374	0.2	374	375	11.8	95.1
2022-10-07T06:30	10	8	0.2	8	9	374	0.3	374	375	11.8	95.1
2022-10-07T06:31	10	9	0.1	8	9	375	0.3	374	375	11.9	95.2
2022-10-07T06:32	10	9	0.1	9	9	375	0.3	374	376	11.9	95.3
2022-10-07T06:33	10	9	0.1	9	9	375	0.2	375	376	11.9	95.3
2022-10-07T06:34	10	9	0.1	9	10	375	0.2	375	376	11.9	95.2
2022-10-07T06:35	10	10	0.1	10	10	376	0.3	375	376	11.9	95.2
2022-10-07T06:36	10	10	0.1	10	10	376	0.3	375	377	12.0	95.2
2022-10-07T06:37	10	10	0.1	10	11	376	0.2	375	376	12.0	95.1
2022-10-07T06:38	10	11	0.1	11	11	376	0.2	375	376	12.0	95.2
2022-10-07T06:39	10	11	0.1	11	12	376	0.2	376	376	12.0	95.2
2022-10-07T06:40	10	11	0.1	11	12	376	0.2	376	377	12.0	95.2
2022-10-07T06:41	10	12	0.1	11	12	376	0.2	376	377	12.0	95.1
2022-10-07T06:42	10	11	0.2	11	12	376	0.2	376	377	11.9	95.0
2022-10-07T06:43	10	11	0.1	11	11	376	0.2	376	377	12.0	95.0
2022-10-07T06:44	10	11	0.1	11	11	376	0.3	376	377	12.0	95.0
2022-10-07T06:45	10	11	0.1	11	11	376	0.2	376	377	12.0	94.9
2022-10-07T06:46	10	11	0.1	11	12	377	0.2	376	377	12.0	95.0
2022-10-07T06:47	10	12	0.2	11	12	377	0.2	377	377	12.1	95.1
2022-10-07T06:48	10	12	0.3	12	13	377	0.2	377	378	12.0	95.1
2022-10-07T06:49	10	13	0.2	13	13	377	0.2	376	377	12.0	95.1
2022-10-07T06:50	10	13	0.2	13	14	377	0.2	377	377	12.0	95.0
2022-10-07T06:51	10	14	0.1	13	14	377	0.2	377	378	12.1	94.9
2022-10-07T06:52	10	14	0.1	13	14	377	0.2	377	378	12.1	94.9
2022-10-07T06:53	10	14	0.1	13	14	377	0.2	377	378	12.1	95.0
2022-10-07T06:54	10	14	0.1	13	14	378	0.5	377	379	12.1	95.1
2022-10-07T06:55	10	14	0.2	14	14	378	0.2	378	378	12.1	95.1
2022-10-07T06:56	10	14	0.1	14	15	378	0.3	377	379	12.1	95.1
2022-10-07T06:57	10	14	0.1	14	15	378	0.2	378	378	12.1	94.8
2022-10-07T06:58	10	14	0.1	14	15	378	0.2	377	378	12.1	94.8
2022-10-07T06:59	10	15	0.2	14	15	378	0.2	378	379	12.2	94.8
2022-10-07T07:00	10	15	0.1	14	15	378	0.3	377	379	12.1	94.8
2022-10-07T07:01	10	15	0.1	14	15	378	0.3	378	379	12.2	94.8
2022-10-07T07:02	10	15	0.1	14	15	378	0.3	378	379	12.2	94.7
2022-10-07T07:03	10	15	0.1	14	15	379	0.2	378	379	12.3	94.6
2022-10-07T07:04	10	15	0.1	15	15	379	0.5	378	380	12.3	94.7
2022-10-07T07:05	10	15	0.1	15	15	379	0.3	379	380	12.3	94.7
2022-10-07T07:06	10	15	0.1	15	15	379	0.2	379	380	12.3	94.7
2022-10-07T07:07	10	15	0.1	15	15	380	0.3	379	380	12.3	94.5
2022-10-07T07:08	10	15	0.2	14	15	380	0.2	379	380	12.3	94.4
2022-10-07T07:09	10	15	0.2	15	16	380	0.3	380	381	12.4	94.6
2022-10-07T07:10	10	15	0.1	15	16	380	0.4	379	381	12.4	94.8
2022-10-07T07:11	10	16	0.2	15	16	380	0.3	380	381	12.4	94.8
2022-10-07T07:12	10	16	0.1	16	16	380	0.3	379	381	12.4	94.6
2022-10-07T07:13	10	16	0.1	16	17	381	0.3	380	381	12.4	94.8
2022-10-07T07:14	10	17	0.2	16	17	381	0.2	380	381	12.4	94.7
2022-10-07T07:15	10	17	0.2	17	18	381	0.2	380	381	12.5	94.7
2022-10-07T07:16	10	18	0.2	18	18	381	0.2	380	382	12.5	94.5
2022-10-07T07:17	10	18	0.2	18	19	381	0.3	380	381	12.5	94.3
2022-10-07T07:18	10	19	0.2	18	19	381	0.3	380	382	12.5	94.3
2022-10-07T07:19	10	19	0.2	19	20	382	0.3	381	382	12.5	94.3
2022-10-07T07:20	10	20	0.3	19	21	382	0.4	381	383	12.5	94.2
2022-10-07T07:21	10	21	0.3	20	21	382	0.2	381	383	12.5	94.1
2022-10-07T07:22	10	21	0.1	21	22	382	0.3	381	383	12.6	94.1
2022-10-07T07:23	10	21	0.2	21	22	383	0.3	382	383	12.6	94.0
2022-10-07T07:24	10	22	0.1	21	22	383	0.2	382	383	12.6	94.0
2022-10-07T07:25	10	22	0.1	21	22	383	0.3	382	383	12.6	94.1
2022-10-07T07:26	10	22	0.1	21	22	383	0.3	382	383	12.6	93.9
2022-10-07T07:27	10	22	0.1	22	22	383	0.3	382	384	12.6	93.9
2022-10-07T07:28	10	22	0.2	22	23	383	0.2	382	384	12.6	93.7
2022-10-07T07:29	10	23	0.2	22	23	383	0.3	383	384	12.7	93.7
2022-10-07T07:30	10	23	0.2	23	24	383	0.3	383	384	12.8	93.7
2022-10-07T07:31	10	23	0.1	23	24	384	0.2	384	385	12.8	93.9
2022-10-07T07:32	10	23	0.1	23	24	384	0.2	384	384	12.8	93.7
2022-10-07T07:33	10	23	0.1	23	23	384	0.3	384	385	12.8	93.6
2022-10-07T07:34	10	23	0.1	23	23	384	0.3	383	385	12.8	93.3
2022-10-07T07:35	10	23	0.1	23	23	384	0.2	384	384	12.8	93.2
2022-10-07T07:36	10	23	0.1	23	23	384	0.2	383	384	12.8	93.1
2022-10-07T07:37	10	23	0.1	23	23	384	0.3	383	385	12.8	93.3
2022-10-07T07:38	10	23	0.1	23	24	384	0.3	384	385	12.8	93.4
2022-10-07T07:39	10	24	0.1	23	24	385	0.2	384	385	12.9	93.5
2022-10-07T07:40	10	24	0.2	24	25	385	0.2	384	385	12.9	93.8
2022-10-07T07:41	10	25	0.2	25	26	385	0.3	384	386	12.9	93.8
2022-10-07T07:42	10	26	0.3	26	26	385	0.2	384	385	12.9	93.6
2022-10-07T07:43	10	27	0.2	26	27	385	0.3	384	385	12.9	93.3
2022-10-07T07:44	10	28	0.2	27	28	385	0.2	385	386	12.9	93.3
2022-10-07T07:45	10	28	0.2	28	29	385	0.2	385	386	12.9	93.1
2022-10-07T07:46	10	29	0.2	28	29	386	0.3	385	386	13.0	93.4
2022-10-07T07:47	10	29	0.2	29	30	386	0.2	386	387	13.0	93.7
2022-10-07T07:48	10	30	0.1	29	30	387	0.3	386	387	13.0	93.5
2022-10-07T07:49	10	30	0.2	30	30	387	0.3	386	388	13.1	93.4
2022-10-07T07:50	10	31	0.2	30	31	387	0.4	386	388	13.1	93.3
2022-10-07T07:51	10	31	0.1	31	31	387	0.3	386	387	13.0	92.6
2022-10-07T07:52	10	31	0.1	31	32	387	0.3	386	387	13.1	92.4
2022-10-07T07:53	10	31	0.1	31	32	387	0.2	387	387	13.1	92.1
2022-10-07T07:54	10	31	0.1	31	31	387	0.2	387	388	13.1	92.0
2022-10-07T07:55	10	31	0.1	31	32	388	0.3	387	388	13.3	92.8
2022-10-07T07:56	10	32	0.2	31	32	388	0.4	387	389	13.2	92.8
2022-10-07T07:57	10	33	0.3	32	33	388	0.5	387	389	13.2	92.4
2022-10-07T07:58	10	34	0.2	33	34	388	0.2	388	389	13.3	92.0
2022-10-07T07:59	10	34	0.1	34	34	389	0.3	388	389	13.3	92.0
2022-10-07T08:00	10	35	0.2	34	35	389	0.3	389	390	13.2	91.7
2022-10-07T08:01	10	35	0.3	35	36	389	0.2	389	390	13.3	91.5
2022-10-07T08:02	10	36	0.2	36	36	389	0.3	389	390	13.3	91.5
2022-10-07T08:03	10	37	0.3	36	37	390	0.2	389	390	13.2	91.1
2022-10-07T08:04	10	38	0.2	37	38	390	0.3	389	390	13.3	90.8
2022-10-07T08:05	10	38	0.2	38	39	390	0.5	388	390	13.2	90.4
2022-10-07T08:06	10	39	0.3	38	40	389	0.2	389	390	13.3	90.1
2022-10-07T08:07	10	41	0.6	40	42	390	0.3	389	390	13.4	89.2
2022-10-07T08:08	10	43	0.8	42	45	391	0.4	390	392	13.5	90.2
2022-10-07T08:09	10	46	1.0	45	48	392	0.5	391	393	13.5	90.7
2022-10-07T08:10	10	53	4.2	48	60	393	0.4	392	393	13.4	89.7
2022-10-07T08:11	10	47	0.1	47	48	393	0.2	392	393	13.5	89.6
2022-10-07T08:12	10	48	0.2	48	48	393	0.5	392	394	13.5	89.6
2022-10-07T08:13	10	49	0.3	48	49	393	0.9	391	394	13.5	89.7
2022-10-07T08:14	10	50	0.4	49	51	393	0.4	391	393	13.5	89.5
2022-10-07T08:15	10	52	1.0	51	54	393	0.4	392	393	13.5	88.8
2022-10-07T08:16	10	56	1.8	54	61	393	0.4	393	394	13.5	88.6
2022-10-07T08:17	10	63	0.9	61	65	395	0.5	394	396	13.6	88.4
2022-10-07T08:18	10	65	1.2	63	67	396	0.2	395	396	13.7	88.9
2022-10-07T08:19	10	65	0.9	63	66	396	0.3	396	397	13.7	88.5
2022-10-07T08:20	10	63	0.9	61	64	396	0.6	395	398	13.6	88.7
2022-10-07T08:21	10	60	0.2	60	61	396	0.2	395	396	13.6	88.8
2022-10-07T08:22	10	58	0.9	57	60	396	0.3	395	397	13.6	88.8
2022-10-07T08:23	10	58	0.7	57	60	396	0.5	395	397	13.7	89.4
2022-10-07T08:24	10	61	1.0	59	63	396	0.3	395	396	13.6	89.9
2022-10-07T08:25	10	63	0.8	62	65	396	0.4	395	397	13.6	89.6
2022-10-07T08:26	10	75	13.3	65	108	397	0.6	396	399	13.8	89.4
2022-10-07T08:27	10	70	9.2	65	106	399	0.5	398	400	13.9	89.3
2022-10-07T08:28	10	65	0.8	64	66	398	0.5	397	399	13.9	89.3
2022-10-07T08:29	10	65	3.4	62	71	397	0.5	396	398	13.8	89.1
2022-10-07T08:30	10	63	2.1	60	66	397	0.4	396	398	13.7	88.1
2022-10-07T08:31	10	59	0.7	58	60	397	0.2	397	398	13.8	88.3
2022-10-07T08:32	10	58	0.2	57	58	397	0.3	397	398	13.7	88.1
2022-10-07T08:33	10	57	0.2	57	57	397	0.3	396	398	13.8	87.7
2022-10-07T08:34	10	57	0.2	57	57	397	0.6	396	398	13.8	87.8
2022-10-07T08:35	10	59	1.6	57	65	397	0.3	396	398	13.7	88.0
2022-10-07T08:36	10	64	3.4	61	71	398	0.4	397	399	13.8	88.3
2022-10-07T08:37	10	63	1.8	61	66	397	0.3	397	398	13.9	88.1
2022-10-07T08:38	10	65	0.4	65	66	398	0.3	397	399	14.0	88.6
2022-10-07T08:39	10	65	0.5	65	66	399	1.0	397	400	13.9	88.7
2022-10-07T08:40	10	67	1.0	65	69	399	0.8	397	400	13.7	88.0
2022-10-07T08:41	10	67	1.4	66	70	399	0.2	398	399	13.9	87.3
2022-10-07T08:42	10	65	1.1	63	67	399	0.5	398	400	14.0	87.3
2022-10-07T08:43	10	63	0.4	62	64	399	0.9	397	401	14.0	87.9
2022-10-07T08:44	10	61	1.0	60	62	398	0.3	397	399	13.8	87.3
2022-10-07T08:45	10	59	0.4	58	60	398	0.3	398	399	13.8	87.3
2022-10-07T08:46	10	58	0.2	58	59	398	0.3	397	399	13.9	87.6
2022-10-07T08:47	10	58	0.1	58	59	397	0.3	397	398	13.9	87.0
2022-10-07T08:48	10	59	0.1	58	59	398	0.6	396	399	14.0	87.1
2022-10-07T08:49	10	59	0.1	59	59	398	0.4	397	399	14.0	87.4
2022-10-07T08:50	10	58	0.4	57	59	399	0.8	398	401	14.1	87.2
2022-10-07T08:51	10	57	0.3	57	58	399	0.3	398	400	14.1	86.6
2022-10-07T08:52	10	59	0.8	58	60	399	0.3	399	400	14.0	86.8
2022-10-07T08:53	10	62	1.1	60	64	400	0.4	399	401	14.2	86.9
2022-10-07T08:54	10	65	0.6	64	66	401	0.5	400	402	14.1	87.1
2022-10-07T08:55	10	65	0.2	65	66	401	0.3	401	402	14.1	87.4
2022-10-07T08:56	10	64	0.3	64	65	401	0.5	400	403	14.3	88.2
2022-10-07T08:57	10	66	2.2	64	72	401	0.3	400	401	14.1	86.7
2022-10-07T08:58	10	66	0.4	65	67	401	0.5	399	402	14.1	87.1
2022-10-07T08:59	10	67	0.2	67	68	401	0.4	401	403	14.3	87.0
2022-10-07T09:00	10	68	0.3	67	69	402	0.3	401	402	14.3	86.7
2022-10-07T09:01	10	68	0.7	66	69	402	1.1	400	404	14.3	86.6
2022-10-07T09:02	10	66	0.3	65	67	401	0.3	400	402	14.1	86.9
2022-10-07T09:03	10	65	1.0	63	66	402	0.3	401	402	14.2	86.7
2022-10-07T09:04	10	62	0.3	62	63	401	0.8	400	403	14.3	87.6
2022-10-07T09:05	10	60	0.8	60	62	401	0.4	400	402	14.2	86.3
2022-10-07T09:06	10	60	0.2	59	60	401	0.4	400	402	14.2	86.4
2022-10-07T09:07	10	61	0.4	60	62	400	0.4	399	401	14.2	86.0
2022-10-07T09:08	10	62	0.2	61	62	401	0.3	400	402	14.4	86.4
2022-10-07T09:09	10	61	0.6	60	62	401	0.2	401	402	14.4	86.2
2022-10-07T09:10	10	59	0.6	58	60	401	0.6	400	402	14.4	86.6
2022-10-07T09:11	10	57	0.5	56	58	401	0.3	400	401	14.3	86.8
2022-10-07T09:12	10	56	0.1	56	56	401	0.5	400	402	14.3	86.7
2022-10-07T09:13	10	56	0.2	56	57	401	0.4	400	401	14.3	86.2
2022-10-07T09:14	10	58	0.6	57	59	401	0.3	400	402	14.4	86.1
2022-10-07T09:15	10	59	0.3	59	60	401	0.4	400	402	14.4	86.0
2022-10-07T09:16	10	60	0.1	60	60	401	0.3	400	402	14.3	85.6
2022-10-07T09:17	10	60	0.1	60	60	401	0.2	401	402	14.3	85.9
2022-10-07T09:18	10	60	0.1	60	60	401	0.3	401	402	14.3	85.9
2022-10-07T09:19	10	61	0.4	60	62	402	0.2	401	402	14.4	85.6
2022-10-07T09:20	10	62	0.5	61	63	402	0.4	402	403	14.4	85.7
2022-10-07T09:21	10	64	0.7	63	66	403	0.6	402	404	14.7	86.3
2022-10-07T09:22	10	67	0.7	66	68	404	0.4	403	405	14.6	86.4
2022-10-07T09:23	10	69	0.4	68	69	405	0.4	404	405	14.6	86.9
2022-10-07T09:24	10	70	0.2	69	70	404	1.2	402	406	14.6	86.7
2022-10-07T09:25	10	70	0.1	70	70	403	0.5	402	404	14.5	85.5
2022-10-07T09:26	10	71	0.4	70	71	404	0.5	403	405	14.5	85.5
2022-10-07T09:27	10	69	0.4	69	70	404	0.4	403	405	14.4	85.5
2022-10-07T09:28	10	67	0.7	66	69	403	0.9	402	405	14.6	85.6
2022-10-07T09:29	10	66	0.3	65	66	403	0.5	403	404	14.5	85.3
2022-10-07T09:30	10	66	0.6	65	67	403	0.4	402	404	14.5	85.3
2022-10-07T09:31	10	68	0.5	67	69	403	0.3	403	404	14.6	85.1
2022-10-07T09:32	10	69	0.7	68	70	404	0.3	403	405	14.8	85.7
2022-10-07T09:33	10	71	0.8	70	73	404	0.4	404	405	14.8	85.8
2022-10-07T09:34	10	74	0.7	73	76	406	0.2	405	406	14.8	86.4
2022-10-07T09:35	10	78	1.7	75	81	405	0.6	404	407	14.6	86.1
2022-10-07T09:36	10	89	12.3	81	120	406	1.2	404	409	14.6	86.0
2022-10-07T09:37	10	95	7.0	86	111	408	0.4	407	408	14.7	85.7
2022-10-07T09:38	10	81	1.9	79	86	407	0.4	406	408	14.7	85.9
2022-10-07T09:39	10	78	0.6	77	79	406	0.3	406	407	14.8	86.0
2022-10-07T09:40	10	77	0.2	76	77	406	0.3	405	407	14.7	85.9
2022-10-07T09:41	10	77	0.1	77	77	407	0.3	406	407	14.8	86.0
2022-10-07T09:42	10	77	0.2	77	78	407	0.2	407	408	14.9	86.1
2022-10-07T09:43	10	79	0.9	78	81	408	0.7	406	409	15.0	86.4
2022-10-07T09:44	10	83	1.3	81	85	408	0.3	407	409	15.0	85.8
2022-10-07T09:45	10	88	1.3	85	91	409	0.3	408	410	14.8	85.3
2022-10-07T09:46	10	84	3.4	80	92	409	1.2	406	411	14.8	85.7
2022-10-07T09:47	10	79	0.5	78	80	408	0.4	407	408	14.8	85.7
2022-10-07T09:48	10	75	2.3	72	80	407	0.4	406	408	14.6	85.0
2022-10-07T09:49	10	75	1.7	72	77	407	0.4	406	408	14.8	85.3
2022-10-07T09:50	10	81	2.9	77	89	408	0.5	407	409	14.9	85.8
2022-10-07T09:51	10	93	12.5	82	121	409	0.6	407	410	14.8	85.3
2022-10-07T09:52	10	87	3.3	85	97	409	0.6	408	410	14.8	85.2
2022-10-07T09:53	10	87	3.2	83	92	410	0.5	409	411	14.9	85.7
2022-10-07T09:54	10	81	2.0	78	84	409	0.4	408	410	14.9	85.1
2022-10-07T09:55	10	78	0.2	77	78	410	0.4	409	410	15.0	85.3
2022-10-07T09:56	10	77	0.1	77	78	410	0.4	410	411	15.1	85.5
2022-10-07T09:57	10	79	0.8	78	81	410	0.3	409	411	15.1	84.7
2022-10-07T09:58	10	82	0.7	80	83	410	0.6	409	412	15.1	84.5
2022-10-07T09:59	10	89	3.5	83	94	412	0.8	410	413	15.1	84.7
2022-10-07T10:00	10	91	0.9	91	93	413	0.4	412	414	15.2	85.4
2022-10-07T10:01	10	103	9.9	94	128	414	0.9	412	415	15.1	85.0
2022-10-07T10:02	10	100	3.3	97	111	414	0.4	413	415	15.3	85.2
2022-10-07T10:03	10	172	23.7	113	196	419	4.3	412	425	15.3	83.4
2022-10-07T10:04	10	138	10.7	117	164	421	1.2	419	424	15.6	82.8
2022-10-07T10:05	10	184	13.7	140	191	423	2.3	419	426	15.7	82.9
2022-10-07T10:06	10	160	12.6	136	186	424	1.0	422	426	15.8	82.3
2022-10-07T10:07	10	144	19.7	124	183	423	1.3	421	425	15.6	82.7
2022-10-07T10:08	10	146	22.6	114	185	423	1.2	420	425	15.5	82.4
2022-10-07T10:09	10	121	7.3	110	140	420	0.8	418	422	15.6	83.4
2022-10-07T10:10	10	115	8.1	105	134	419	0.8	418	420	15.4	82.2
2022-10-07T10:11	10	130	21.8	104	162	419	1.8	417	423	15.5	82.2
2022-10-07T10:12	10	141	9.8	118	157	424	0.6	423	425	15.8	83.2
2022-10-07T10:13	10	112	7.3	103	127	422	1.1	420	424	15.8	82.7
2022-10-07T10:14	10	112	16.2	98	145	420	1.1	418	421	15.8	82.8
2022-10-07T10:15	10	145	16.3	115	167	423	1.5	420	425	15.8	82.9
2022-10-07T10:16	10	109	3.1	104	114	421	1.1	419	423	15.9	82.9
2022-10-07T10:17	10	107	3.3	101	112	420	0.5	418	421	15.9	82.4
2022-10-07T10:18	10	109	6.7	100	122	420	0.8	418	422	16.0	82.1
2022-10-07T10:19	10	92	3.3	89	100	419	0.5	417	420	15.9	82.5
2022-10-07T10:20	10	111	16.4	94	160	419	0.8	417	421	15.8	81.6
2022-10-07T10:21	10	168	12.8	147	185	424	2.3	420	427	15.8	81.2
2022-10-07T10:22	10	121	23.1	87	153	423	2.4	419	426	16.3	82.7
2022-10-07T10:23	10	110	5.2	103	123	420	0.6	419	422	16.1	81.6
2022-10-07T10:24	10	106	8.8	96	127	420	1.1	416	421	16.2	81.9
2022-10-07T10:25	10	103	7.9	95	120	420	0.8	419	422	15.9	80.5
2022-10-07T10:26	10	93	1.7	92	98	419	0.5	417	419	15.8	80.9
2022-10-07T10:27	10	136	24.1	93	175	421	2.4	418	426	15.9	80.7
2022-10-07T10:28	10	126	20.5	102	161	423	1.3	420	425	16.0	79.4
2022-10-07T10:29	10	91	4.4	86	105	419	1.9	416	422	16.2	80.5
2022-10-07T10:30	10	109	20.6	93	160	419	2.0	415	421	16.0	79.0
2022-10-07T10:31	10	159	29.2	103	193	424	2.6	419	427	16.2	80.2
2022-10-07T10:32	10	124	17.3	101	154	423	0.9	422	425	15.9	78.9
2022-10-07T10:33	10	172	20.2	125	194	427	2.9	422	430	15.9	79.0
2022-10-07T10:34	10	154	10.2	134	170	427	0.6	427	429	16.0	78.5
2022-10-07T10:35	10	173	13.2	143	183	429	1.1	427	431	16.0	78.7
2022-10-07T10:36	10	165	12.9	130	179	428	1.2	425	430	15.9	78.0
2022-10-07T10:37	10	128	16.1	105	160	425	1.2	424	427	16.0	78.2
2022-10-07T10:38	10	126	9.9	112	142	423	1.3	421	426	15.8	78.2
2022-10-07T10:39	10	100	3.5	95	111	421	0.6	420	422	15.7	78.6
2022-10-07T10:40	10	103	13.7	92	141	420	1.0	419	422	16.0	79.5
2022-10-07T10:41	10	154	21.2	127	184	424	2.5	421	429	16.2	79.8
2022-10-07T10:42	10	162	10.1	139	176	429	0.8	427	431	16.3	79.2
2022-10-07T10:43	10	120	14.4	98	152	427	1.8	424	431	16.3	79.4
2022-10-07T10:44	10	97	11.5	86	126	424	1.9	420	427	16.0	79.4
2022-10-07T10:45	10	85	1.9	82	88	421	0.6	420	422	16.1	79.9
2022-10-07T10:46	10	104	16.0	86	137	421	1.5	419	425	16.2	80.1
2022-10-07T10:47	10	102	22.8	77	136	424	1.9	421	426	16.5	79.9
2022-10-07T10:48	10	72	3.0	67	77	419	1.2	417	422	16.6	79.7
2022-10-07T10:49	10	66	0.4	65	67	415	1.3	414	418	16.3	79.1
2022-10-07T10:50	10	69	1.1	67	71	414	0.2	414	415	16.3	79.1
2022-10-07T10:51	10	72	0.4	71	73	415	0.2	414	415	16.4	79.2
2022-10-07T10:52	10	75	3.1	72	83	415	0.3	414	416	16.5	77.9
2022-10-07T10:53	10	80	5.6	71	89	416	0.4	415	417	16.5	78.0
2022-10-07T10:54	10	70	3.0	69	85	414	0.6	413	416	16.4	78.7
2022-10-07T10:55	10	138	16.9	90	167	420	3.0	413	423	16.3	78.9
2022-10-07T10:56	10	66	22.7	50	116	417	3.7	412	424	16.4	78.9
2022-10-07T10:57	10	69	21.0	50	104	413	1.2	411	415	16.4	80.0
2022-10-07T10:58	10	94	35.2	56	154	416	2.1	413	420	16.3	78.7
2022-10-07T10:59	10	70	12.8	56	87	415	0.5	414	416	16.4	79.2
2022-10-07T11:00	10	143	29.0	82	164	420	4.5	413	426	16.2	78.4
2022-10-07T11:01	10	161	0.3	160	162	426	0.7	424	427	16.5	78.8
2022-10-07T11:02	10	156	8.9	137	163	427	0.5	426	429	16.7	79.5
2022-10-07T11:03	10	154	12.0	117	165	428	0.9	426	429	16.6	78.2
2022-10-07T11:04	10	118	23.5	83	155	424	1.7	422	428	16.6	78.5
2022-10-07T11:05	10	132	13.0	116	156	424	1.0	422	425	16.3	77.4
2022-10-07T11:06	10	159	1.0	157	160	426	1.6	422	428	16.3	77.1
2022-10-07T11:07	10	156	4.7	140	159	428	0.8	426	429	16.5	77.8
2022-10-07T11:08	10	136	27.5	79	154	428	1.4	424	429	16.4	77.5
2022-10-07T11:09	10	53	15.4	43	100	419	3.7	413	426	16.7	79.0
2022-10-07T11:10	10	46	2.0	44	51	414	0.8	413	415	16.5	77.5
2022-10-07T11:11	10	127	44.3	51	165	418	5.7	411	427	16.7	77.6
2022-10-07T11:12	10	166	0.5	165	166	427	1.3	425	430	16.6	77.3
2022-10-07T11:13	10	146	23.1	99	166	428	1.4	424	430	16.6	77.8
2022-10-07T11:14	10	98	26.8	72	152	422	1.7	420	426	16.6	77.3
2022-10-07T11:15	10	135	23.5	83	154	426	2.3	422	428	16.9	78.6
2022-10-07T11:16	10	126	25.6	82	153	426	2.4	422	430	16.9	77.4
2022-10-07T11:17	10					425	3.4	420	430	16.7	76.6
2022-10-07T11:18	10	130	32.6	61	161	428	1.9	423	431	16.9	77.5
2022-10-07T11:19	10	136	27.6	64	161	425	2.7	421	429	16.8	76.9
2022-10-07T11:20	10	124	32.5	69	160	427	1.9	422	428	16.9	77.1
2022-10-07T11:21	10	76	18.6	52	106	422	1.8	418	424	17.0	77.1
2022-10-07T11:22	10	42	5.0	37	57	416	2.0	412	420	16.9	76.6
2022-10-07T11:23	10	38	0.8	37	40	413	0.6	412	414	17.0	77.4
2022-10-07T11:24	10	44	3.4	40	52	412	0.2	411	412	17.1	78.5
2022-10-07T11:25	10	104	44.5	52	170	415	4.5	410	424	16.8	77.6
2022-10-07T11:26	10	105	26.4	79	156	421	1.5	419	425	16.8	77.4
2022-10-07T11:27	10	142	31.5	88	176	424	3.8	419	430	16.9	77.4
2022-10-07T11:28	10	170	5.0	149	175	430	1.2	428	432	17.1	77.0
2022-10-07T11:29	10	94	11.8	79	142	427	2.6	424	433	17.1	77.6
2022-10-07T11:30	10	138	25.7	86	162	427	2.6	424	431	17.3	77.8
2022-10-07T11:31	10	161	1.0	159	163	431	0.9	429	432	17.2	76.8
2022-10-07T11:32	10	157	1.3	155	159	431	0.6	430	432	17.2	76.6
2022-10-07T11:33	10	155	0.4	154	156	431	0.3	431	432	17.4	77.3
2022-10-07T11:34	10	155	0.4	154	155	432	0.4	431	433	17.4	75.9
2022-10-07T11:35	10	158	1.4	155	160	433	0.5	432	434	17.5	75.9
2022-10-07T11:36	10	156	12.1	112	163	434	0.5	432	435	17.6	76.8
2022-10-07T11:37	10	127	17.2	102	156	431	1.0	430	433	17.8	77.0
2022-10-07T11:38	10	148	11.3	112	155	432	0.7	430	433	17.6	76.1
2022-10-07T11:39	10	113	26.6	71	156	431	3.1	426	435	17.7	77.0
2022-10-07T11:40	10	90	37.9	55	148	428	3.4	422	433	17.6	76.1
2022-10-07T11:41	10	64	6.7	55	80	422	1.0	420	424	17.4	75.8
2022-10-07T11:42	10	121	38.4	66	162	423	4.0	419	431	17.3	75.9
2022-10-07T11:43	10	137	22.2	105	162	429	1.0	427	431	17.3	75.3
2022-10-07T11:44	10	139	18.0	108	155	430	2.1	427	433	17.3	74.4
2022-10-07T11:45	10	155	0.3	155	156	432	0.5	431	433	17.3	74.2
2022-10-07T11:46	10	157	0.4	156	157	433	0.9	432	434	17.5	74.1
2022-10-07T11:47	10	154	1.2	152	156	434	0.3	434	435	17.7	73.5
2022-10-07T11:48	10	150	0.6	149	152	435	0.9	434	437	17.6	74.8
2022-10-07T11:49	10	148	1.4	146	150	432	1.2	430	435	17.3	73.8
2022-10-07T11:50	10	146	3.7	134	148	431	0.5	430	432	17.4	74.4
2022-10-07T11:51	10	114	24.9	71	143	427	3.3	422	431	17.3	74.3
2022-10-07T11:52	10	133	11.2	110	141	426	2.7	422	430	17.2	74.5
2022-10-07T11:53	10	112	28.5	58	139	429	2.1	423	431	17.5	75.5
2022-10-07T11:54	10	122	14.9	71	136	425	1.0	423	426	17.3	74.7
2022-10-07T11:55	10	75	41.3	34	139	424	3.7	418	428	17.4	75.2
2022-10-07T11:56	10	99	23.8	42	137	422	2.2	418	426	17.4	75.5
2022-10-07T11:57	10	140	1.1	138	142	428	2.2	423	431	17.5	75.1
2022-10-07T11:58	10	138	0.6	137	139	431	0.5	430	432	17.8	75.2
2022-10-07T11:59	10	137	0.2	136	137	431	0.5	431	432	17.9	75.3
2022-10-07T12:00	10	136	0.1	136	137	432	0.4	431	433	18.1	75.6
2022-10-07T12:01	10	137	0.1	136	137	432	0.3	431	432	18.0	73.7
2022-10-07T12:02	10	135	3.2	126	137	430	0.8	429	432	17.9	73.5
2022-10-07T12:03	10	132	1.4	128	134	430	0.2	430	431	17.8	73.4
2022-10-07T12:04	10	136	0.8	134	137	431	0.7	430	432	17.9	73.6
2022-10-07T12:05	10	137	0.9	135	139	432	0.3	431	432	18.1	74.0
2022-10-07T12:06	10	127	10.4	109	140	431	1.6	427	433	18.1	74.3
2022-10-07T12:07	10	128	8.3	113	137	430	0.5	428	431	17.8	73.8
2022-10-07T12:08	10	126	13.1	100	139	432	0.8	430	433	17.8	73.9
2022-10-07T12:09	10	90	32.5	47	130	428	3.6	421	432	17.8	74.1
2022-10-07T12:10	10	47	9.5	37	63	420	1.6	417	422	17.5	73.3
2022-10-07T12:11	10	94	34.6	38	134	419	3.8	415	427	17.6	73.5
2022-10-07T12:12	10	138	1.4	135	140	428	1.8	424	431	17.9	74.0
2022-10-07T12:13	10	122	19.9	72	141	431	1.2	428	432	18.1	74.4
2022-10-07T12:14	10	68	10.4	54	86	425	1.3	423	429	18.1	74.0
2022-10-07T12:15	10	66	13.0	48	88	423	1.7	419	425	18.1	73.8
2022-10-07T12:16	10	126	31.2	54	148	423	2.9	419	427	17.8	73.4
2022-10-07T12:17	10	146	1.4	143	148	428	1.5	426	432	17.6	72.1
2022-10-07T12:18	10	136	4.9	124	144	430	0.9	429	432	17.8	73.2
2022-10-07T12:19	10	135	0.7	134	136	432	0.9	430	433	18.1	75.6
2022-10-07T12:20	10	134	0.5	133	135	428	1.2	426	430	17.7	73.4
2022-10-07T12:21	10	133	0.4	133	134	427	0.6	426	428	17.6	73.8
2022-10-07T12:22	10	132	0.2	132	132	427	0.9	426	429	17.7	74.6
2022-10-07T12:23	10	132	1.4	128	133	427	0.6	426	429	17.7	74.3
2022-10-07T12:24	10	131	1.9	128	133	429	0.9	427	430	17.8	74.4
2022-10-07T12:25	10	130	4.4	120	136	429	1.3	427	431	18.0	74.5
2022-10-07T12:26	10	140	1.6	134	141	428	0.5	426	428	17.8	72.9
2022-10-07T12:27	10	147	3.7	140	151	428	1.1	427	431	17.7	72.4
2022-10-07T12:28	10	148	1.9	144	151	431	1.2	430	434	17.9	73.8
2022-10-07T12:29	10	138	2.2	136	143	431	0.6	430	432	17.9	72.8
2022-10-07T12:30	10	133	2.7	125	136	429	0.7	428	430	17.9	73.3
2022-10-07T12:31	10	131	0.7	130	132	427	0.7	426	428	17.7	72.3
2022-10-07T12:32	10	131	0.7	130	132	428	0.8	427	429	18.0	73.5
2022-10-07T12:33	10	130	0.6	129	131	426	0.5	425	427	17.7	72.3
2022-10-07T12:34	10	128	0.8	127	129	426	0.8	425	428	17.7	72.3
2022-10-07T12:35	10	127	0.2	127	128	426	0.6	425	427	17.8	73.8
2022-10-07T12:36	10	128	0.1	128	128	428	1.4	425	430	17.7	73.5
2022-10-07T12:37	10	128	0.3	128	129	428	0.5	426	429	17.7	72.8
2022-10-07T12:38	10	129	0.3	128	129	427	1.1	425	429	17.6	72.9
2022-10-07T12:39	10	128	0.5	127	129	428	0.7	427	429	17.7	73.4
2022-10-07T12:40	10	129	0.3	128	130	428	0.7	427	429	17.7	72.9
2022-10-07T12:41	10	129	0.2	129	130	429	0.4	428	430	17.9	73.5
2022-10-07T12:42	10	129	0.1	129	129	430	0.6	428	431	18.1	73.6
2022-10-07T12:43	10	130	0.2	129	130	430	0.5	429	431	18.3	73.6
2022-10-07T12:44	10	130	0.1	129	130	429	0.6	428	430	18.2	72.7
2022-10-07T12:45	10	129	0.2	129	130	429	0.5	428	430	18.1	72.3
2022-10-07T12:46	10	130	0.1	129	130	428	0.4	427	428	18.2	72.3
2022-10-07T12:47	10	129	0.5	128	129	427	0.8	426	429	17.9	71.6
2022-10-07T12:48	10	128	0.2	127	128	429	0.8	428	430	18.2	74.6
2022-10-07T12:49	10	128	0.3	128	129	430	0.2	430	431	18.2	73.7
2022-10-07T12:50	10	129	0.2	128	129	429	0.8	428	430	18.0	72.5
2022-10-07T12:51	10	128	0.1	128	128	429	1.0	427	430	17.9	72.7
2022-10-07T12:52	10	128	0.2	128	128	429	0.4	429	430	18.0	72.7
2022-10-07T12:53	10	128	0.2	128	128	430	0.6	429	431	18.2	73.1
2022-10-07T12:54	10	128	0.1	128	129	430	0.6	429	431	18.3	72.9
2022-10-07T12:55	10	128	0.1	128	128	430	0.3	429	431	18.2	72.6
2022-10-07T12:56	10	128	0.1	128	128	430	0.3	429	431	18.5	73.6
2022-10-07T12:57	10	128	0.2	128	129	430	0.4	429	431	18.3	73.2
2022-10-07T12:58	10	128	0.4	128	129	429	0.8	428	430	18.3	72.6
2022-10-07T12:59	10	128	0.1	128	128	428	0.3	428	429	18.4	72.7
2022-10-07T13:00	10	127	0.3	127	128	429	1.0	428	431	18.3	72.4
2022-10-07T13:01	10	128	0.2	127	128	431	1.5	428	433	18.4	71.8
2022-10-07T13:02	10	128	0.2	127	128	432	1.0	430	433	18.5	72.6
2022-10-07T13:03	10	128	0.3	128	129	430	0.5	429	431	18.4	71.5
2022-10-07T13:04	10	129	0.2	128	129	430	0.7	429	432	18.4	71.8
2022-10-07T13:05	10	129	0.1	129	129	432	0.3	431	433	18.5	72.4
2022-10-07T13:06	10	129	0.1	129	129	432	0.4	431	433	18.5	72.1
2022-10-07T13:07	10	121	4.3	112	129	432	0.3	431	433	18.6	71.9
2022-10-07T13:08	10	116	5.3	110	125	431	1.2	429	433	18.7	72.8
2022-10-07T13:09	10	106	6.1	98	115	429	1.9	426	432	18.6	72.8
2022-10-07T13:10	10	98	13.9	80	120	426	0.9	425	428	18.2	70.7
2022-10-07T13:11	10	121	7.2	104	126	429	1.8	426	432	18.4	71.3
2022-10-07T13:12	10	122	4.6	112	127	431	1.0	429	433	18.5	71.0
2022-10-07T13:13	10	125	1.2	121	126	431	0.3	430	432	18.6	71.7
2022-10-07T13:14	10	125	0.5	124	126	431	0.5	430	432	18.4	70.7
2022-10-07T13:15	10	125	0.3	124	125	430	0.9	429	432	18.5	71.0
2022-10-07T13:16	10	122	1.3	120	124	431	0.6	429	432	18.5	70.3
2022-10-07T13:17	10	126	1.8	122	127	430	0.4	430	431	18.6	71.0
2022-10-07T13:18	10	128	0.2	127	128	432	0.4	431	432	18.8	71.3
2022-10-07T13:19	10	128	0.2	127	128	432	0.4	431	433	18.6	69.9
2022-10-07T13:20	10	128	0.3	128	128	433	0.7	432	434	18.8	70.9
2022-10-07T13:21	10	126	1.4	124	128	434	0.7	433	435	18.9	70.3
2022-10-07T13:22	10	126	0.4	125	126	435	0.4	433	435	19.0	71.5
2022-10-07T13:23	10	122	1.2	121	125	433	1.1	431	435	19.0	70.4
2022-10-07T13:24	10	125	1.2	122	126	433	0.4	431	433	18.9	69.5
2022-10-07T13:25	10	121	1.2	118	122	432	1.9	429	435	18.9	69.8
2022-10-07T13:26	10	114	1.4	112	117	431	0.7	430	432	18.8	68.9
2022-10-07T13:27	10	116	1.1	114	117	431	0.7	429	432	19.0	69.9
2022-10-07T13:28	10	119	1.5	115	121	429	0.4	429	430	18.7	68.3
2022-10-07T13:29	10	106	6.4	95	116	428	1.2	426	430	18.7	68.2
2022-10-07T13:30	10	114	3.6	107	119	429	0.6	427	430	18.6	68.4
2022-10-07T13:31	10	113	5.2	104	121	429	0.8	427	430	18.8	68.5
2022-10-07T13:32	10	127	4.3	110	130	431	0.6	430	432	18.9	69.5
2022-10-07T13:33	10	111	8.3	97	122	429	0.9	428	431	18.7	68.5
2022-10-07T13:34	10	114	1.6	112	118	431	0.3	430	431	18.9	69.0
2022-10-07T13:35	10	82	19.1	63	117	427	2.7	424	431	18.8	68.5
2022-10-07T13:36	10	64	3.2	57	70	424	0.5	423	425	18.9	69.5
2022-10-07T13:37	10	60	6.1	51	71	422	0.4	421	423	19.0	68.7
2022-10-07T13:38	10	64	6.3	55	73	423	0.8	421	424	19.1	69.8
2022-10-07T13:39	10	60	8.0	47	70	423	1.2	420	424	19.0	70.3
2022-10-07T13:40	10	55	3.0	50	60	420	0.3	420	421	18.8	69.1
2022-10-07T13:41	10	61	2.6	56	64	420	0.3	419	421	18.9	68.9
2022-10-07T13:42	10	50	2.9	45	56	419	0.4	418	420	19.0	69.4
2022-10-07T13:43	10	53	8.6	45	70	419	0.5	418	420	19.0	71.3
2022-10-07T13:44	10	76	7.0	69	90	421	1.0	419	423	19.0	71.8
2022-10-07T13:45	10	82	4.7	74	90	423	1.1	421	425	18.9	72.0
2022-10-07T13:46	10	85	5.0	75	95	423	0.3	423	424	18.8	70.9
2022-10-07T13:47	10	101	5.3	94	109	425	0.8	423	426	18.9	71.4
2022-10-07T13:48	10	97	6.9	87	109	427	0.6	426	428	19.1	72.6
2022-10-07T13:49	10	106	7.2	93	114	428	0.8	426	429	19.2	73.2
2022-10-07T13:50	10	88	2.1	83	92	427	0.7	425	428	19.2	72.4
2022-10-07T13:51	10	83	1.7	79	86	425	0.4	424	426	19.0	71.3
2022-10-07T13:52	10	83	1.3	79	85	424	0.5	423	425	19.0	72.2
2022-10-07T13:53	10	92	2.6	86	95	424	0.6	423	425	18.9	71.3
2022-10-07T13:54	10	72	5.9	67	88	423	1.5	420	425	18.9	71.3
2022-10-07T13:55	10	77	4.5	70	85	421	0.4	421	422	18.9	71.4
2022-10-07T13:56	10	86	6.1	73	93	422	0.6	421	423	18.9	71.2
2022-10-07T13:57	10	74	6.9	62	81	422	0.6	420	422	18.9	72.4
2022-10-07T13:58	10	73	11.5	60	89	420	0.8	419	422	18.8	71.2
2022-10-07T13:59	10	72	4.6	66	82	421	0.3	421	422	19.0	71.6
2022-10-07T14:00	10	56	6.6	44	66	419	1.6	416	421	18.9	71.2
2022-10-07T14:01	10	39	1.7	37	44	415	1.0	414	417	18.8	71.1
2022-10-07T14:02	10	38	0.2	38	38	415	0.6	413	416	18.8	71.7
2022-10-07T14:03	10	40	1.0	38	41	414	0.4	413	415	18.7	71.9
2022-10-07T14:04	10	45	2.4	41	50	414	0.3	413	415	18.6	72.0
2022-10-07T14:05	10	56	4.0	50	61	415	1.2	413	417	18.6	72.2
2022-10-07T14:06	10	56	5.0	49	62	416	0.3	415	417	18.6	71.5
2022-10-07T14:07	10	45	2.7	42	50	415	0.4	414	416	18.6	70.9
2022-10-07T14:08	10	44	1.0	42	45	415	0.2	414	415	18.7	71.2
2022-10-07T14:09	10	44	0.4	43	45	415	0.3	415	416	18.8	72.6
2022-10-07T14:10	10	43	0.4	42	44	414	0.7	413	416	18.7	71.0
2022-10-07T14:11	10	45	1.2	43	47	414	0.3	413	414	18.6	71.1
2022-10-07T14:12	10	51	2.6	46	56	414	0.5	413	416	18.6	71.3
2022-10-07T14:13	10	63	5.4	56	75	416	1.1	414	418	18.6	70.8
2022-10-07T14:14	10	94	8.4	76	103	420	2.2	417	424	18.7	70.7
2022-10-07T14:15	10	78	17.7	56	103	422	1.3	419	424	18.8	70.5
2022-10-07T14:16	10	59	1.5	56	61	420	0.3	419	421	18.8	71.5
2022-10-07T14:17	10	64	1.8	61	67	420	0.4	419	420	18.9	71.5
2022-10-07T14:18	10	60	0.7	59	61	418	0.7	417	420	18.9	70.9
2022-10-07T14:19	10	59	1.3	56	60	417	0.3	417	418	18.9	71.1
2022-10-07T14:20	10	58	1.8	56	60	418	0.5	417	419	19.0	71.7
2022-10-07T14:21	10	60	0.2	59	61	419	0.4	418	420	19.0	71.5
2022-10-07T14:22	10	62	1.2	60	64	420	0.4	419	421	19.0	71.7
2022-10-07T14:23	10	70	5.4	64	79	421	0.6	420	422	19.0	71.2
2022-10-07T14:24	10	77	1.2	75	79	422	0.7	421	423	19.0	71.6
2022-10-07T14:25	10	78	3.0	76	89	421	0.5	420	422	19.0	70.8
2022-10-07T14:26	10	100	3.1	90	102	423	1.3	420	425	19.0	70.4
2022-10-07T14:27	10	100	1.0	98	102	425	0.6	424	426	19.1	70.9
2022-10-07T14:28	10	102	3.9	98	110	426	0.3	425	427	19.1	70.5
2022-10-07T14:29	10	113	1.0	110	114	428	1.0	426	429	19.1	71.2
2022-10-07T14:30	10	113	0.5	112	114	429	0.2	428	429	19.1	70.2
2022-10-07T14:31	10	115	0.8	113	116	428	0.2	428	429	19.0	69.9
2022-10-07T14:32	10	113	0.3	112	114	428	0.3	427	428	19.1	69.2
2022-10-07T14:33	10	109	1.2	107	112	428	0.4	427	428	19.0	69.2
2022-10-07T14:34	10	104	1.4	101	106	427	0.3	427	428	19.1	68.9
2022-10-07T14:35	10	108	3.1	102	113	428	0.6	427	430	19.2	69.3
2022-10-07T14:36	10	112	0.8	110	113	429	0.5	428	430	19.3	69.4
2022-10-07T14:37	10	109	1.0	108	111	430	0.3	429	430	19.3	69.4
2022-10-07T14:38	10	106	1.6	104	108	429	0.4	428	430	19.2	68.8
2022-10-07T14:39	10	106	0.9	104	107	429	0.3	428	429	19.3	69.4
2022-10-07T14:40	10	104	1.7	102	106	429	1.1	427	430	19.2	67.4
2022-10-07T14:41	10	100	2.3	96	103	429	0.8	427	430	19.4	67.9
2022-10-07T14:42	10	97	0.8	96	98	428	0.9	426	430	19.6	69.0
2022-10-07T14:43	10	93	1.9	91	97	428	0.3	427	428	19.7	68.5
2022-10-07T14:44	10	97	2.5	92	101	427	0.3	426	427	19.5	67.8
2022-10-07T14:45	10	100	0.5	100	101	427	0.6	426	428	19.5	68.8
2022-10-07T14:46	10	99	1.0	97	100	427	0.5	425	427	19.5	69.5
2022-10-07T14:47	10	102	0.9	99	103	427	0.3	426	427	19.6	68.9
2022-10-07T14:48	10	103	0.3	102	103	426	0.3	426	427	19.5	68.6
2022-10-07T14:49	10	102	0.6	100	103	427	0.4	426	427	19.5	68.1
2022-10-07T14:50	10	73	17.3	49	100	424	2.5	420	427	19.3	68.7
2022-10-07T14:51	10	51	1.0	50	53	420	1.0	418	422	19.3	69.6
2022-10-07T14:52	10	60	5.9	52	67	419	0.3	418	419	19.3	69.3
2022-10-07T14:53	10	76	10.0	65	92	420	0.8	418	421	19.3	68.9
2022-10-07T14:54	10	89	3.5	85	97	422	0.7	421	423	19.3	69.2
2022-10-07T14:55	10	96	2.2	92	98	424	0.5	422	424	19.3	68.5
2022-10-07T14:56	10	87	5.1	80	93	423	0.9	422	425	19.3	69.3
2022-10-07T14:57	10	85	7.2	70	93	422	0.6	421	423	19.2	68.1
2022-10-07T14:58	10	73	10.3	61	90	421	0.5	420	422	19.3	69.5
2022-10-07T14:59	10	76	7.2	69	91	420	1.0	418	421	19.2	68.7
2022-10-07T15:00	10	69	4.0	64	76	418	0.3	418	419	19.2	68.4
2022-10-07T15:01	10	63	12.1	48	82	418	0.9	416	420	19.1	68.4
2022-10-07T15:02	10	47	16.4	34	82	418	1.5	415	420	19.2	69.4
2022-10-07T15:03	10	31	1.8	29	36	414	0.6	413	416	19.2	69.3
2022-10-07T15:04	10	29	0.3	28	29	413	0.7	412	414	19.1	69.0
2022-10-07T15:05	10	27	0.4	27	28	411	0.6	410	412	19.1	68.6
2022-10-07T15:06	10	26	0.3	25	27	410	0.3	409	410	19.0	68.4
2022-10-07T15:07	10	25	0.3	24	25	409	0.2	409	410	19.0	68.3
2022-10-07T15:08	10	24	0.1	24	25	409	0.4	408	410	19.1	68.5
2022-10-07T15:09	10	28	2.9	24	34	409	0.6	408	410	19.1	68.9
2022-10-07T15:10	10	37	3.1	34	47	410	1.1	409	412	19.1	70.1
2022-10-07T15:11	10	53	3.0	48	57	412	1.1	410	414	19.1	70.6
2022-10-07T15:12	10	63	2.7	57	66	414	1.1	412	416	19.2	70.0
2022-10-07T15:13	10	63	2.9	56	66	415	0.3	415	416	19.2	69.5
2022-10-07T15:14	10	43	4.3	40	55	414	0.9	412	416	19.2	69.3
2022-10-07T15:15	10	42	1.5	40	44	413	0.2	413	414	19.2	69.4
2022-10-07T15:16	10	41	1.1	39	43	413	0.2	412	413	19.2	69.6
2022-10-07T15:17	10	41	2.2	39	46	412	0.2	412	413	19.2	69.7
2022-10-07T15:18	10	53	3.7	46	58	413	0.4	412	414	19.2	69.3
2022-10-07T15:19	10	59	8.1	49	70	413	0.7	412	415	19.2	69.0
2022-10-07T15:20	10	67	2.5	64	70	415	0.7	414	416	19.2	69.7
2022-10-07T15:21	10	53	9.8	39	65	416	1.0	413	417	19.2	69.6
2022-10-07T15:22	10	46	3.8	39	49	415	0.6	414	416	19.3	71.3
2022-10-07T15:23	10	53	2.8	49	59	415	0.8	413	416	19.2	70.6
2022-10-07T15:24	10	62	3.3	59	67	416	0.5	414	417	19.2	68.8
2022-10-07T15:25	10	68	0.3	67	68	417	0.3	416	417	19.3	68.6
2022-10-07T15:26	10	58	4.2	54	66	416	0.6	415	417	19.4	68.6
2022-10-07T15:27	10	59	1.9	55	61	416	0.3	415	416	19.4	69.6
2022-10-07T15:28	10	61	0.2	61	61	416	0.3	415	416	19.3	69.1
2022-10-07T15:29	10	59	1.5	57	62	416	0.3	415	417	19.3	68.8
2022-10-07T15:30	10	60	1.1	58	61	416	0.3	415	416	19.3	69.0
2022-10-07T15:31	10	59	0.9	57	60	415	0.2	414	416	19.3	69.6
2022-10-07T15:32	10	46	5.9	40	57	415	1.0	413	416	19.4	69.0
2022-10-07T15:33	10	42	1.9	41	48	413	0.3	413	414	19.3	69.0
2022-10-07T15:34	10	52	1.8	48	54	414	0.4	413	414	19.3	69.7
2022-10-07T15:35	10	45	4.2	40	52	414	0.6	412	415	19.3	69.2
2022-10-07T15:36	10	42	1.0	40	43	413	0.5	412	414	19.4	69.0
2022-10-07T15:37	10	41	1.6	38	43	413	0.2	413	414	19.4	69.8
2022-10-07T15:38	10	36	0.8	35	38	412	0.3	412	413	19.3	70.4
2022-10-07T15:39	10	30	2.2	27	34	411	0.6	410	412	19.1	71.0
2022-10-07T15:40	10	27	0.9	26	29	410	0.4	409	411	19.1	70.8
2022-10-07T15:41	10	30	0.5	29	31	410	0.2	409	410	19.1	70.9
2022-10-07T15:42	10	27	1.3	25	29	410	0.3	409	410	19.1	70.7
2022-10-07T15:43	10	23	0.8	22	25	409	0.2	408	410	19.1	70.5
2022-10-07T15:44	10	23	0.3	22	23	408	0.2	408	409	19.1	70.8
2022-10-07T15:45	10	26	1.1	23	27	408	0.2	408	408	19.0	71.4
2022-10-07T15:46	10	24	1.2	23	26	408	0.2	408	408	19.0	71.3
2022-10-07T15:47	10	21	0.6	20	22	408	0.3	407	408	19.0	71.2
2022-10-07T15:48	10	20	0.2	20	20	407	0.2	407	408	19.0	71.1
2022-10-07T15:49	10	19	0.2	19	20	407	0.2	407	408	19.0	71.0
2022-10-07T15:50	10	19	0.2	19	19	407	0.3	406	407	19.0	71.2
2022-10-07T15:51	10	18	0.2	18	19	407	0.2	406	407	19.0	70.8
2022-10-07T15:52	10	18	0.1	18	18	406	0.3	405	407	19.0	71.1
2022-10-07T15:53	10	17	0.2	17	18	406	0.3	405	406	19.1	69.9
2022-10-07T15:54	10	17	0.2	16	17	405	0.2	405	406	19.1	70.3
2022-10-07T15:55	10	16	0.2	16	17	405	0.2	405	406	19.0	71.7
2022-10-07T15:56	10	16	0.2	15	16	405	0.2	404	405	19.0	71.9
2022-10-07T15:57	10	15	0.1	15	15	404	0.2	404	405	18.9	72.3
2022-10-07T15:58	10	15	0.1	15	15	404	0.1	404	405	18.8	73.0
2022-10-07T15:59	10	14	0.2	14	15	404	0.3	403	404	18.8	73.2
2022-10-07T16:00	10	14	0.1	14	14	403	0.2	403	404	18.9	73.0
2022-10-07T16:01	10	14	0.2	13	14	403	0.2	403	403	18.9	73.0
2022-10-07T16:02	10	13	0.1	13	13	403	0.2	402	403	18.8	72.7
2022-10-07T16:03	10	13	0.2	12	13	402	0.3	402	403	18.8	72.8
2022-10-07T16:04	10	12	0.1	12	12	402	0.3	402	403	18.9	71.1
2022-10-07T16:05	10	12	0.1	12	12	402	0.3	401	402	18.9	71.9
2022-10-07T16:06	10	12	0.1	11	12	402	0.3	401	402	18.9	72.0
2022-10-07T16:07	10	11	0.1	11	11	401	0.2	401	402	18.8	72.2
2022-10-07T16:08	10	11	0.1	11	11	401	0.3	400	401	18.7	73.2
2022-10-07T16:09	10	10	0.1	10	11	401	0.6	399	401	18.7	73.2
2022-10-07T16:10	10	10	0.1	10	10	400	0.3	400	401	18.4	75.2
2022-10-07T16:11	10	10	0.1	10	10	400	0.3	400	401	18.5	75.2
2022-10-07T16:12	10	10	0.1	9	10	400	0.3	399	400	18.7	73.0
2022-10-07T16:13	10	9	0.2	9	10	400	0.2	399	400	18.7	73.9
2022-10-07T16:14	10	9	0.1	9	9	399	0.3	399	400	18.9	72.3
2022-10-07T16:15	10	8	0.1	8	9	400	0.4	399	400	18.9	71.8
2022-10-07T16:16	10	8	0.2	8	8	400	0.3	399	401	19.1	69.5
2022-10-07T16:17	10	7	0.2	7	8	400	0.3	399	400	19.1	70.0
2022-10-07T16:18	10	7	0.1	7	8	399	0.5	398	400	18.9	71.3
2022-10-07T16:19	10	7	0.1	7	7	398	0.4	398	399	18.9	71.6
2022-10-07T16:20	10	7	0.1	6	7	398	0.3	398	399	18.9	71.3
2022-10-07T16:21	10	6	0.1	6	7	398	0.2	398	398	18.8	71.9
2022-10-07T16:22	10	6	0.1	6	7	398	0.3	397	399	18.8	71.9
2022-10-07T16:23	10	6	0.1	6	7	397	0.6	396	398	18.8	72.4
2022-10-07T16:24	10	6	0.1	6	6	397	0.2	396	397	18.7	73.0
2022-10-07T16:25	10	6	0.1	6	6	397	0.4	395	397	18.7	73.6
2022-10-07T16:26	10	6	0.1	5	6	397	0.3	396	397	18.7	72.8
2022-10-07T16:27	10	6	0.1	5	6	396	0.6	396	398	18.7	73.1
2022-10-07T16:28	10	5	0.1	5	6	396	0.3	396	397	18.7	73.0
2022-10-07T16:29	10	5	0.1	5	6	396	0.3	395	397	18.7	73.3
2022-10-07T16:30	10	5	0.1	5	5	395	0.5	394	396	18.6	73.7
2022-10-07T16:31	10	5	0.1	5	5	395	0.5	394	396	18.6	73.3
2022-10-07T16:32	10	5	0.1	5	5	395	0.3	394	395	18.5	73.6
2022-10-07T16:33	10	5	0.1	5	5	395	0.3	394	395	18.4	74.5
2022-10-07T16:34	10	5	0.1	5	5	394	0.3	394	395	18.5	74.2
2022-10-07T16:35	10	5	0.1	5	5	394	0.2	394	395	18.4	74.7
2022-10-07T16:36	10	5	0.1	4	5	394	0.2	394	394	18.4	74.6
2022-10-07T16:37	10	5	0.1	4	5	394	0.3	393	394	18.5	72.9
2022-10-07T16:38	10	4	0.1	4	5	393	0.2	393	394	18.4	72.3
2022-10-07T16:39	10	4	0.1	4	5	393	0.3	393	394	18.4	72.2
2022-10-07T16:40	10	4	0.1	4	5	393	0.3	392	393	18.5	71.1
2022-10-07T16:41	10	4	0.2	3	4	393	0.4	392	394	18.6	69.9
2022-10-07T16:42	10	4	0.2	3	4	393	0.3	393	394	18.5	70.2
2022-10-07T16:43	10	3	0.2	3	4	393	0.3	393	394	18.5	70.5
2022-10-07T16:44	10	3	0.2	3	4	393	0.4	392	393	18.5	70.2
2022-10-07T16:45	10	3	0.2	3	3	393	0.4	392	394	18.4	70.6
2022-10-07T16:46	10	3	0.2	2	3	393	0.3	392	394	18.4	70.3
2022-10-07T16:47	10	3	0.1	3	3	393	0.3	392	393	18.3	70.7
2022-10-07T16:48	10	3	0.1	2	3	392	0.3	391	393	18.0	72.1
2022-10-07T16:49	10	2	0.1	2	3	392	0.2	391	392	18.1	71.6
2022-10-07T16:50	10	2	0.1	2	2	391	0.3	390	392	18.1	71.5
2022-10-07T16:51	10	2	0.1	2	2	391	0.3	390	392	18.1	71.6
2022-10-07T16:52	10	2	0.1	1	2	391	0.2	390	391	18.0	72.0
2022-10-07T16:53	10	1	0.1	1	2	390	0.5	389	391	18.0	72.4
2022-10-07T16:54	10	1	0.1	1	2	389	0.3	389	390	17.9	72.6
2022-10-07T16:55	10	1	0.1	1	1	389	0.3	388	389	17.7	73.9
2022-10-07T16:56	10	1	0.1	1	1	389	0.2	388	389	17.8	73.6
2022-10-07T16:57	10	1	0.1	1	1	388	0.5	387	389	17.8	73.8
2022-10-07T16:58	10	1	0.1	1	1	387	0.5	386	388	17.6	74.4
2022-10-07T16:59	10	1	0.1	1	1	387	0.2	387	387	17.6	74.7
2022-10-07T17:00	10	1	0.1	0	1	386	0.3	386	387	17.5	75.2
2022-10-07T17:01	10	1	0.1	1	1	386	0.2	386	387	17.5	75.8
2022-10-07T17:02	10	1	0.1	0	1	386	0.2	386	387	17.5	75.5
2022-10-07T17:03	10	1	0.1	0	1	386	0.2	385	386	17.5	75.3
2022-10-07T17:04	10	1	0.1	0	1	386	0.2	385	386	17.4	76.0
2022-10-07T17:05	10	1	0.1	0	1	386	0.3	385	386	17.4	76.0
2022-10-07T17:06	10	1	0.1	0	1	386	0.2	385	386	17.4	76.0
2022-10-07T17:07	10	1	0.1	1	1	386	0.2	385	386	17.4	76.1
2022-10-07T17:08	10	1	0.1	1	1	386	0.2	385	386	17.4	76.1
2022-10-07T17:09	10	1	0.1	0	1	386	0.2	385	386	17.4	76.1
2022-10-07T17:10	10	1	0.1	0	1	386	0.3	385	386	17.4	76.2
2022-10-07T17:11	10	1	0.1	0	1	386	0.2	385	386	17.3	77.0
2022-10-07T17:12	10	0	0.1	0	1	386	0.2	386	387	17.2	78.3
2022-10-07T17:13	10	0	0.1	0	0	386	0.3	386	387	17.4	77.2
2022-10-07T17:14	10	0	0.1	0	0	386	0.2	386	387	17.4	76.7
2022-10-07T17:15	10	0	0.1	0	0	386	0.3	385	387	17.3	76.9
2022-10-07T17:16	10	0	0.1	0	0	386	0.2	386	387	17.2	77.9
2022-10-07T17:17	10	1	0.1	0	1	386	0.3	386	387	17.3	77.3
2022-10-07T17:18	10	1	0.1	0	1	386	0.2	386	387	17.3	76.7
2022-10-07T17:19	10	1	0.1	0	1	385	0.3	385	386	17.3	76.7
2022-10-07T17:20	10	1	0.1	0	1	385	0.2	385	386	17.2	77.4
2022-10-07T17:21	10	0	0.1	0	1	385	0.3	384	385	17.0	79.4
2022-10-07T17:22	10	0	0.1	0	1	385	0.4	384	386	17.2	77.5
2022-10-07T17:23	10	0	0.1	0	1	385	0.3	384	386	17.4	76.3
2022-10-07T17:24	10	1	0.1	0	1	385	0.2	384	385	17.4	76.3
2022-10-07T17:25	10	1	0.1	0	1	385	0.3	384	386	17.4	76.0
2022-10-07T17:26	10	1	0.1	0	1	385	0.2	384	385	17.2	77.1
2022-10-07T17:27	10	1	0.1	0	1	385	0.3	384	385	17.1	77.9
2022-10-07T17:28	10	1	0.1	0	1	385	0.2	384	385	17.3	76.9
2022-10-07T17:29	10	1	0.1	0	1	385	0.2	384	385	17.4	76.1
2022-10-07T17:30	10	1	0.2	0	1	385	0.3	384	386	17.5	75.5
2022-10-07T17:31	10	1	0.2	0	1	385	0.3	384	386	17.5	75.4
2022-10-07T17:32	10	1	0.2	0	1	384	0.3	383	385	17.3	75.9
2022-10-07T17:33	10	1	0.2	0	1	384	0.3	383	385	17.0	77.9
2022-10-07T17:34	10	1	0.2	0	1	384	0.3	383	384	16.9	78.7
2022-10-07T17:35	10	1	0.1	1	1	383	0.3	383	384	17.1	77.2
2022-10-07T17:36	10	1	0.1	1	1	383	0.4	382	384	17.1	77.2
2022-10-07T17:37	10	1	0.1	1	1	382	0.5	381	383	17.0	77.5
2022-10-07T17:38	10	1	0.1	1	1	382	0.3	381	383	16.8	78.6
2022-10-07T17:39	10	1	0.1	1	1	382	0.3	381	383	16.8	78.6
2022-10-07T17:40	10	1	0.1	1	1	382	0.2	382	383	17.0	77.5
2022-10-07T17:41	10	1	0.1	1	1	382	0.2	382	383	17.1	77.4
2022-10-07T17:42	10	1	0.1	1	1	382	0.2	382	383	17.1	76.8
2022-10-07T17:43	10	1	0.0	1	1	382	0.2	382	383	17.1	76.8
2022-10-07T17:44	10	1	0.1	1	1	382	0.2	382	383	17.1	77.0
2022-10-07T17:45	10	1	0.1	1	1	382	0.2	381	382	17.0	77.3
2022-10-07T17:46	10	1	0.1	1	1	382	0.3	381	382	17.0	77.2
2022-10-07T17:47	10	1	0.1	1	1	381	0.3	381	382	16.9	77.7
2022-10-07T17:48	10	1	0.1	1	1	381	0.9	380	385	16.8	78.1
2022-10-07T17:49	10	1	0.1	1	1	380	0.4	379	381	16.8	78.4
2022-10-07T17:50	10	1	0.1	1	1	380	0.3	379	380	16.5	79.5
2022-10-07T17:51	10	1	0.0	1	1	379	0.2	379	380	16.4	80.3
2022-10-07T17:52	10	1	0.1	1	1	379	0.3	378	379	16.3	80.4
2022-10-07T17:53	10	1	0.1	1	1	378	0.2	378	379	16.1	81.2
2022-10-07T17:54	10	1	0.1	1	1	379	0.2	378	379	16.1	81.7
2022-10-07T17:55	10	1	0.1	0	1	379	0.4	378	380	16.2	81.5
2022-10-07T17:56	10	1	0.1	0	1	379	0.4	379	380	16.3	80.6
2022-10-07T17:57	10	1	0.1	0	1	380	0.3	379	380	16.4	80.6
2022-10-07T17:58	10	0	0.1	0	1	380	0.4	379	381	16.5	80.0
2022-10-07T17:59	10	0	0.1	0	0	381	0.3	380	381	16.4	79.9
2022-10-07T18:00	10	0	0.1	0	0	381	0.2	380	381	16.4	80.4
2022-10-07T18:01	10	0	0.1	0	0	380	0.3	380	381	16.3	80.6
2022-10-07T18:02	10	0	0.1	0	0	381	0.3	380	381	16.4	80.3
2022-10-07T18:03	10	0	0.1	0	0	381	0.2	380	381	16.3	80.5
2022-10-07T18:04	10	0	0.1	0	0	381	0.3	380	381	16.3	80.6
2022-10-07T18:05	10	0	0.1	0	0	381	0.2	381	381	16.5	79.7
2022-10-07T18:06	10	0	0.1	0	0	381	0.2	381	382	16.6	79.4
2022-10-07T18:07	10	0	0.1	0	0	381	0.4	380	382	16.6	78.9
2022-10-07T18:08	10	0	0.1	0	0	381	0.3	380	381	16.5	78.9
2022-10-07T18:09	10	1	0.1	0	1	381	0.3	380	382	16.6	79.1
2022-10-07T18:10	10	0	0.1	0	0	381	0.2	381	382	16.6	78.8
2022-10-07T18:11	10	0	0.1	0	0	381	0.2	381	382	16.6	78.9
2022-10-07T18:12	10	0	0.1	0	0	381	0.2	381	382	16.5	78.8
2022-10-07T18:13	10	0	0.1	0	0	381	0.2	380	381	16.4	79.2
2022-10-07T18:14	10	0	0.1	0	0	381	0.2	380	381	16.4	79.4
2022-10-07T18:15	10	0	0.1	0	0	380	0.2	380	381	16.2	79.9
2022-10-07T18:16	10	0	0.1	0	0	380	0.2	380	381	16.2	80.4
2022-10-07T18:17	10	0	0.1	0	1	380	0.3	380	381	16.2	80.3
2022-10-07T18:18	10	0	0.1	0	0	380	0.3	380	381	16.2	80.4
2022-10-07T18:19	10	0	0.1	0	0	381	0.2	380	381	16.2	80.5
2022-10-07T18:20	10	0	0.1	0	0	381	0.3	380	381	16.2	80.5
2022-10-07T18:21	10	0	0.1	0	0	380	0.3	380	381	16.2	80.7
2022-10-07T18:22	10	0	0.1	0	0	380	0.2	380	381	16.1	80.8
2022-10-07T18:23	10	0	0.0	0	0	380	0.3	380	381	16.1	81.1
2022-10-07T18:24	10	0	0.1	0	0	380	0.3	379	381	16.2	80.2
2022-10-07T18:25	10	0	0.1	0	0	380	0.2	380	381	16.3	80.5
2022-10-07T18:26	10	0	0.1	0	0	380	0.4	379	381	16.4	79.6
2022-10-07T18:27	10	0	0.1	0	0	381	0.4	380	382	16.5	78.9
2022-10-07T18:28	10	0	0.0	0	0	381	0.2	381	382	16.5	78.7
2022-10-07T18:29	10	0	0.1	0	0	381	0.2	381	382	16.4	78.9
2022-10-07T18:30	10	0	0.1	0	0	381	0.4	380	382	16.4	79.0
2022-10-07T18:31	10	0	0.1	0	0	381	0.2	381	382	16.5	78.7
2022-10-07T18:32	10	0	0.1	0	0	381	0.2	381	381	16.4	78.7
2022-10-07T18:33	10	0	0.1	0	0	381	0.3	380	381	16.3	78.9
2022-10-07T18:34	10	0	0.1	0	0	381	0.2	380	381	16.3	79.1
2022-10-07T18:35	10	0	0.1	0	0	381	0.2	380	381	16.4	79.0
2022-10-07T18:36	10	0	0.1	0	0	381	0.3	380	381	16.4	78.8
2022-10-07T18:37	10	0	0.1	0	0	380	0.2	380	381	16.4	79.0
2022-10-07T18:38	10	0	0.1	0	0	380	0.2	380	381	16.3	79.2
2022-10-07T18:39	10	0	0.1	0	0	381	0.3	380	381	16.2	79.6
2022-10-07T18:40	10	0	0.1	0	0	381	0.2	380	382	16.3	79.6
2022-10-07T18:41	10	0	0.1	0	0	381	0.3	380	381	16.2	79.4
2022-10-07T18:42	10	0	0.2	0	1	380	0.2	380	381	16.1	79.5
2022-10-07T18:43	10	0	0.2	0	0	380	0.2	379	380	16.0	79.9
2022-10-07T18:44	10	0	0.2	0	0	380	0.2	380	380	16.1	79.4
2022-10-07T18:45	10	0	0.2	0	0	380	0.4	379	381	16.1	79.0
2022-10-07T18:46	10	0	0.2	0	0	379	0.2	379	380	16.0	79.5
2022-10-07T18:47	10	0	0.2	0	0	379	0.3	379	380	16.1	79.7
2022-10-07T18:48	10	0	0.1	0	0	380	0.3	379	380	16.0	79.3
2022-10-07T18:49	10	0	0.1	0	0	380	0.2	379	380	16.0	79.5
2022-10-07T18:50	10	0	0.2	-1	0	380	0.3	379	380	16.0	79.4
2022-10-07T18:51	10	0	0.1	0	0	380	0.3	379	381	16.1	79.6
2022-10-07T18:52	10	0	0.2	0	1	380	0.3	380	381	16.0	79.4
2022-10-07T18:53	10	0	0.2	0	1	380	0.3	380	381	16.0	79.5
2022-10-07T18:54	10	0	0.1	0	0	381	0.4	380	381	16.0	79.5
2022-10-07T18:55	10	0	0.2	0	1	381	0.3	380	382	15.9	79.8
2022-10-07T18:56	10	0	0.2	0	1	381	0.2	381	382	15.9	80.1
2022-10-07T18:57	10	0	0.1	0	0	381	0.2	380	381	15.8	80.7
2022-10-07T18:58	10	0	0.1	0	0	381	0.2	380	381	15.7	81.0
2022-10-07T18:59	10	0	0.1	0	0	381	0.2	380	381	15.7	81.4
2022-10-07T19:00	10	0	0.1	0	0	380	0.3	380	381	15.7	81.2
2022-10-07T19:01	10	0	0.1	0	0	381	0.2	380	381	15.8	80.9
2022-10-07T19:02	10	0	0.1	0	0	381	0.2	380	381	15.8	81.0
2022-10-07T19:03	10	0	0.1	0	0	381	0.2	380	381	15.8	81.1
2022-10-07T19:04	10	0	0.1	0	0	381	0.2	380	381	15.8	81.2
2022-10-07T19:05	10	0	0.1	0	0	381	0.2	380	381	15.8	81.2
2022-10-07T19:06	10	0	0.1	0	0	381	0.3	380	381	15.8	81.2
2022-10-07T19:07	10	0	0.1	0	0	381	0.3	380	381	15.8	81.2
2022-10-07T19:08	10	0	0.1	0	0	381	0.2	381	382	15.8	81.3
2022-10-07T19:09	10	0	0.1	0	0	381	0.2	381	382	15.7	81.6
2022-10-07T19:10	10	0	0.1	0	0	381	0.2	381	382	15.7	81.8
2022-10-07T19:11	10	0	0.1	0	0	381	0.2	381	382	15.7	81.6
2022-10-07T19:12	10	0	0.1	0	0	381	0.2	381	382	15.6	81.9
2022-10-07T19:13	10	0	0.1	0	0	381	0.2	380	381	15.6	82.3
2022-10-07T19:14	10	0	0.1	0	0	380	0.2	380	381	15.6	82.5
2022-10-07T19:15	10	0	0.1	0	0	381	0.2	380	381	15.5	82.8
2022-10-07T19:16	10	0	0.1	0	0	380	0.2	380	381	15.5	82.8
2022-10-07T19:17	10	0	0.1	0	0	380	0.3	380	381	15.5	82.8
2022-10-07T19:18	10	0	0.1	0	0	380	0.2	379	380	15.4	82.9
2022-10-07T19:19	10	0	0.1	0	0	380	0.2	379	380	15.4	83.3
2022-10-07T19:20	10	0	0.1	0	0	379	0.3	378	380	15.4	83.5
2022-10-07T19:21	10	0	0.1	0	0	379	0.2	378	379	15.4	83.5
2022-10-07T19:22	10	0	0.1	0	0	379	0.3	378	379	15.4	83.4
2022-10-07T19:23	10	0	0.1	0	0	379	0.2	378	379	15.4	83.3
2022-10-07T19:24	10	0	0.1	0	0	379	0.2	378	379	15.4	83.3
2022-10-07T19:25	10	0	0.1	0	0	379	0.3	378	380	15.3	83.5
2022-10-07T19:26	10	0	0.1	0	0	379	0.3	378	379	15.3	83.8
2022-10-07T19:27	10	0	0.1	0	0	379	0.3	378	379	15.2	84.1
2022-10-07T19:28	10	0	0.1	0	0	379	0.2	378	379	15.2	84.3
2022-10-07T19:29	10	0	0.1	0	0	379	0.3	378	379	15.1	84.7
2022-10-07T19:30	10	0	0.1	-1	0	379	0.2	378	379	15.2	84.6
2022-10-07T19:31	10	0	0.1	0	0	379	0.2	379	380	15.2	84.4
2022-10-07T19:32	10	0	0.1	0	0	379	0.3	379	380	15.1	84.4
2022-10-07T19:33	10	0	0.1	0	0	379	0.3	379	380	15.1	84.6
2022-10-07T19:34	10	0	0.1	0	0	379	0.2	379	379	15.1	84.7
2022-10-07T19:35	10	0	0.1	0	0	379	0.2	378	379	15.1	84.9
2022-10-07T19:36	10	0	0.1	0	0	379	0.3	378	380	15.1	84.8
2022-10-07T19:37	10	0	0.1	0	0	379	0.2	378	379	15.1	84.7
2022-10-07T19:38	10	0	0.1	0	0	379	0.4	378	379	15.0	84.8
2022-10-07T19:39	10	0	0.1	0	0	378	0.2	378	379	15.0	85.3
2022-10-07T19:40	10	0	0.1	0	0	378	0.3	378	379	15.0	85.2
2022-10-07T19:41	10	0	0.1	0	0	378	0.2	377	378	14.9	85.4
2022-10-07T19:42	10	0	0.1	0	0	378	0.3	377	378	14.8	85.8
2022-10-07T19:43	10	0	0.1	0	0	378	0.2	377	378	14.9	86.0
2022-10-07T19:44	10	0	0.1	0	0	378	0.3	377	379	14.8	86.2
2022-10-07T19:45	10	0	0.1	0	0	378	0.2	377	378	14.8	86.4
2022-10-07T19:46	10	0	0.1	0	0	378	0.2	377	378	14.8	86.6
2022-10-07T19:47	10	0	0.1	0	0	378	0.3	378	379	14.8	86.8
2022-10-07T19:48	10	0	0.1	0	0	379	0.2	378	379	14.8	86.7
2022-10-07T19:49	10	0	0.1	0	0	379	0.2	378	379	14.8	86.9
2022-10-07T19:50	10	0	0.1	0	0	379	0.3	378	379	14.8	86.9
2022-10-07T19:51	10	0	0.1	0	0	378	0.2	378	379	14.7	87.0
2022-10-07T19:52	10	0	0.1	0	0	378	0.2	377	379	14.6	87.5
2022-10-07T19:53	10	0	0.1	0	0	378	0.2	378	379	14.6	87.6
2022-10-07T19:54	10	0	0.1	0	0	378	0.3	377	379	14.6	87.8
2022-10-07T19:55	10	0	0.1	0	0	378	0.3	378	379	14.7	87.8
2022-10-07T19:56	10	0	0.1	0	0	378	0.3	377	379	14.7	87.6
2022-10-07T19:57	10	0	0.1	0	0	378	0.2	378	379	14.7	87.6
2022-10-07T19:58	10	0	0.1	0	0	378	0.3	378	379	14.7	87.7
2022-10-07T19:59	10	0	0.1	0	0	378	0.2	378	379	14.8	87.2
2022-10-07T20:00	10	0	0.1	0	0	378	0.2	378	379	14.7	87.3
2022-10-07T20:01	10	0	0.1	0	0	378	0.3	377	379	14.6	87.7
2022-10-07T20:02	10	0	0.1	0	0	378	0.2	378	379	14.7	87.7
2022-10-07T20:03	10	0	0.1	0	0	379	0.2	378	379	14.7	87.6
2022-10-07T20:04	10	0	0.1	0	0	379	0.3	378	379	14.8	87.3
2022-10-07T20:05	10	0	0.1	0	0	379	0.2	379	380	14.9	87.1
2022-10-07T20:06	10	0	0.1	0	0	379	0.2	378	379	14.8	86.8
2022-10-07T20:07	10	0	0.1	0	0	379	0.3	378	380	14.8	86.8
2022-10-07T20:08	10	0	0.1	0	0	379	0.2	378	379	14.8	86.7
2022-10-07T20:09	10	0	0.1	0	0	379	0.2	378	379	14.9	86.7
2022-10-07T20:10	10	0	0.1	0	0	379	0.2	378	379	14.9	86.6
2022-10-07T20:11	10	0	0.1	0	0	379	0.2	378	379	14.9	86.5
2022-10-07T20:12	10	0	0.1	0	0	378	0.2	378	379	14.8	86.5
2022-10-07T20:13	10	0	0.1	0	0	378	0.3	378	379	14.8	86.8
2022-10-07T20:14	10	0	0.1	0	0	378	0.3	377	378	14.7	87.1
2022-10-07T20:15	10	0	0.1	0	0	378	0.3	377	378	14.7	87.2
2022-10-07T20:16	10	0	0.1	0	0	378	0.2	377	378	14.7	87.2
2022-10-07T20:17	10	0	0.1	0	0	378	0.3	378	379	14.7	87.4
2022-10-07T20:18	10	0	0.1	0	0	378	0.3	377	379	14.7	87.3
2022-10-07T20:19	10	0	0.1	0	0	378	0.2	377	378	14.6	87.4
2022-10-07T20:20	10	0	0.1	0	0	378	0.3	377	379	14.6	87.6
2022-10-07T20:21	10	0	0.1	0	0	378	0.3	377	378	14.6	87.8
2022-10-07T20:22	10	0	0.1	0	0	378	0.2	377	378	14.6	87.6
2022-10-07T20:23	10	0	0.1	0	0	378	0.2	377	378	14.7	87.4
2022-10-07T20:24	10	0	0.1	0	0	378	0.3	377	378	14.7	87.3
2022-10-07T20:25	10	0	0.1	0	0	378	0.2	377	378	14.8	87.0
2022-10-07T20:26	10	0	0.1	0	0	378	0.3	377	378	14.7	87.1
2022-10-07T20:27	10	0	0.1	0	0	378	0.3	377	378	14.6	87.4
2022-10-07T20:28	10	0	0.1	0	0	378	0.3	377	378	14.7	87.5
2022-10-07T20:29	10	0	0.1	0	0	378	0.3	377	378	14.6	87.3
2022-10-07T20:30	10	0	0.1	0	1	378	0.2	377	378	14.6	87.5
2022-10-07T20:31	10	1	0.1	0	1	378	0.2	377	378	14.6	87.6
2022-10-07T20:32	10	1	0.1	1	1	377	0.5	376	378	14.5	87.7
2022-10-07T20:33	10	1	0.1	1	1	377	0.2	377	378	14.5	87.8
2022-10-07T20:34	10	1	0.1	1	1	377	0.3	377	378	14.5	88.1
2022-10-07T20:35	10	1	0.0	1	1	378	0.2	377	378	14.4	88.1
2022-10-07T20:36	10	1	0.1	1	1	378	0.4	377	378	14.4	88.4
2022-10-07T20:37	10	1	0.1	1	1	378	0.4	377	378	14.3	88.8
2022-10-07T20:38	10	1	0.1	1	1	377	0.3	376	378	14.4	89.1
2022-10-07T20:39	10	1	0.1	1	1	377	0.3	377	378	14.4	89.1
2022-10-07T20:40	10	1	0.1	1	1	378	0.6	376	379	14.4	88.9
2022-10-07T20:41	10	1	0.1	0	1	378	0.3	377	379	14.3	89.1
2022-10-07T20:42	10	1	0.1	0	1	378	0.5	377	379	14.3	89.4
2022-10-07T20:43	10	1	0.1	0	1	378	0.3	377	378	14.3	89.7
2022-10-07T20:44	10	1	0.1	0	1	377	0.3	377	378	14.3	89.6
2022-10-07T20:45	10	1	0.1	1	1	378	0.2	377	378	14.3	89.6
2022-10-07T20:46	10	1	0.1	1	1	377	0.2	377	378	14.3	89.6
2022-10-07T20:47	10	1	0.0	1	1	378	0.3	377	378	14.3	89.6
2022-10-07T20:48	10	1	0.1	1	1	378	0.3	377	378	14.3	89.8
2022-10-07T20:49	10	1	0.1	1	1	378	0.2	377	378	14.2	89.9
2022-10-07T20:50	10	1	0.1	1	1	377	0.2	377	378	14.2	90.1
2022-10-07T20:51	10	1	0.1	0	1	377	0.3	377	378	14.1	90.3
2022-10-07T20:52	10	1	0.1	0	1	377	0.2	377	378	14.1	90.4
2022-10-07T20:53	10	1	0.1	0	1	378	0.2	377	378	14.1	90.7
2022-10-07T20:54	10	1	0.1	0	1	378	0.2	377	378	14.1	90.7
2022-10-07T20:55	10	0	0.1	0	1	378	0.3	377	379	14.1	90.8
2022-10-07T20:56	10	1	0.1	0	1	378	0.2	378	379	14.1	90.5
2022-10-07T20:57	10	1	0.1	0	1	379	0.1	379	379	14.1	90.4
2022-10-07T20:58	10	1	0.1	0	1	379	0.3	378	379	14.2	90.4
2022-10-07T20:59	10	1	0.0	1	1	379	0.3	379	380	14.2	90.0
2022-10-07T21:00	10	1	0.1	1	1	379	0.2	379	379	14.1	90.1
2022-10-07T21:01	10	1	0.1	1	1	379	0.3	378	380	14.2	90.1
2022-10-07T21:02	10	1	0.1	1	1	379	0.2	378	379	14.1	90.1
2022-10-07T21:03	10	1	0.1	1	1	378	0.3	378	379	14.2	90.1
2022-10-07T21:04	10	1	0.1	1	1	378	0.3	377	379	14.2	89.9
2022-10-07T21:05	10	1	0.1	1	1	377	0.2	377	378	14.3	89.7
2022-10-07T21:06	10	1	0.1	1	1	377	0.2	377	378	14.2	89.5
2022-10-07T21:07	10	1	0.1	1	1	377	0.6	376	379	14.4	89.3
2022-10-07T21:08	10	1	0.1	1	1	377	0.3	376	377	14.4	88.9
2022-10-07T21:09	10	1	0.1	1	1	376	0.4	375	377	14.3	88.8
2022-10-07T21:10	10	1	0.1	1	1	375	0.3	375	376	14.3	88.9
2022-10-07T21:11	10	1	0.1	1	1	375	0.3	374	375	14.4	88.9
2022-10-07T21:12	10	1	0.1	1	1	374	0.3	374	375	14.4	88.7
2022-10-07T21:13	10	1	0.1	1	1	374	0.3	373	374	14.3	88.8
2022-10-07T21:14	10	1	0.1	1	1	373	0.4	372	374	14.4	88.7
2022-10-07T21:15	10	1	0.1	1	1	373	0.3	373	374	14.3	88.8
2022-10-07T21:16	10	1	0.1	1	1	373	0.2	373	373	14.4	88.8
2022-10-07T21:17	10	1	0.1	1	1	373	0.3	372	373	14.3	88.7
2022-10-07T21:18	10	1	0.2	1	2	373	0.3	372	374	14.4	88.8
2022-10-07T21:19	10	1	0.1	1	1	373	0.3	372	374	14.4	88.7
2022-10-07T21:20	10	1	0.2	0	1	373	0.3	373	374	14.4	88.7
2022-10-07T21:21	10	1	0.1	1	1	373	0.3	372	374	14.3	88.7
2022-10-07T21:22	10	1	0.2	0	1	373	0.3	372	373	14.4	88.7
2022-10-07T21:23	10	1	0.2	0	1	373	0.2	372	373	14.2	88.9
2022-10-07T21:24	10	1	0.2	0	1	373	0.2	372	373	14.2	89.3
2022-10-07T21:25	10	1	0.1	0	1	372	0.2	372	373	14.0	89.8
2022-10-07T21:26	10	1	0.2	0	1	372	0.2	372	373	13.9	90.5
2022-10-07T21:27	10	1	0.2	0	1	373	0.3	372	373	14.0	90.7
2022-10-07T21:28	10	1	0.2	0	1	373	0.2	372	373	13.9	90.7
2022-10-07T21:29	10	1	0.1	0	1	373	0.2	372	373	13.6	91.2
2022-10-07T21:30	10	1	0.1	0	1	373	0.3	372	374	13.5	92.1
2022-10-07T21:31	10	0	0.2	0	1	373	0.2	373	374	13.5	92.5
2022-10-07T21:32	10	0	0.2	0	1	373	0.3	372	374	13.5	92.5
2022-10-07T21:33	10	0	0.2	0	1	374	0.4	373	375	13.6	92.3
2022-10-07T21:34	10	0	0.1	0	0	375	0.3	374	375	14.1	91.0
2022-10-07T21:35	10	0	0.2	0	1	375	0.2	374	375	14.4	89.2
2022-10-07T21:36	10	0	0.1	0	1	375	0.2	374	375	14.4	88.6
2022-10-07T21:37	10	0	0.2	0	1	375	0.3	374	375	14.5	88.2
2022-10-07T21:38	10	1	0.2	0	1	375	0.3	374	375	14.4	88.0
2022-10-07T21:39	10	1	0.1	0	1	374	0.3	374	375	14.4	88.4
2022-10-07T21:40	10	1	0.1	0	1	374	0.2	374	375	14.4	88.2
2022-10-07T21:41	10	1	0.1	0	1	374	0.3	374	375	14.4	88.1
2022-10-07T21:42	10	1	0.2	0	1	374	0.3	373	375	14.4	88.2
2022-10-07T21:43	10	1	0.1	0	1	373	0.3	373	374	14.4	88.3
2022-10-07T21:44	10	1	0.1	0	1	373	0.3	373	374	14.4	88.3
2022-10-07T21:45	10	1	0.1	0	1	373	0.3	372	373	14.4	88.3
2022-10-07T21:46	10	1	0.2	0	1	372	0.2	372	373	14.3	88.4
2022-10-07T21:47	10	1	0.1	0	1	372	0.3	372	373	14.4	88.4
2022-10-07T21:48	10	1	0.1	0	1	372	0.2	371	373	14.4	88.2
2022-10-07T21:49	10	1	0.2	0	1	372	0.2	371	372	14.3	88.3
2022-10-07T21:50	10	1	0.1	0	1	372	0.3	371	372	14.3	88.5
2022-10-07T21:51	10	1	0.1	0	1	371	0.3	371	372	14.2	88.8
2022-10-07T21:52	10	1	0.1	0	1	371	0.2	371	371	14.1	89.0
2022-10-07T21:53	10	1	0.1	0	1	371	0.3	370	372	14.1	89.4
2022-10-07T21:54	10	1	0.1	0	1	371	0.2	371	372	14.0	89.7
2022-10-07T21:55	10	1	0.1	0	1	371	0.2	371	372	13.9	90.1
2022-10-07T21:56	10	1	0.2	0	1	371	0.2	370	371	13.9	90.5
2022-10-07T21:57	10	1	0.1	0	1	371	0.3	370	371	13.8	90.7
2022-10-07T21:58	10	1	0.1	0	1	370	0.3	369	371	13.8	91.0
2022-10-07T21:59	10	1	0.1	0	1	370	0.3	369	371	13.8	91.2
2022-10-07T22:00	10	1	0.1	0	1	370	0.2	370	371	13.7	91.3
2022-10-07T22:01	10	1	0.1	0	1	370	0.2	370	371	13.7	91.5
2022-10-07T22:02	10	1	0.1	0	1	370	0.2	370	371	13.6	91.7
2022-10-07T22:03	10	1	0.1	0	1	370	0.3	369	371	13.7	91.8
2022-10-07T22:04	10	1	0.1	0	1	370	0.2	370	371	13.6	91.8
2022-10-07T22:05	10	1	0.1	0	1	370	0.2	370	371	13.6	91.8
2022-10-07T22:06	10	0	0.1	0	1	370	0.3	369	370	13.6	91.9
2022-10-07T22:07	10	1	0.1	0	1	370	0.3	369	370	13.6	92.0
2022-10-07T22:08	10	1	0.1	0	1	370	0.2	370	370	13.6	92.0
2022-10-07T22:09	10	1	0.0	1	1	370	0.2	370	371	13.7	92.0
2022-10-07T22:10	10	1	0.1	1	1	370	0.2	370	370	13.7	91.8
2022-10-07T22:11	10	1	0.1	1	1	370	0.2	369	370	13.8	91.6
2022-10-07T22:12	10	1	0.1	1	1	370	0.2	369	370	13.8	91.2
2022-10-07T22:13	10	1	0.1	1	1	370	0.2	370	370	13.8	91.1
2022-10-07T22:14	10	1	0.1	1	1	370	0.2	370	371	13.8	91.0
2022-10-07T22:15	10	1	0.1	1	1	370	0.2	370	371	13.9	91.0
2022-10-07T22:16	10	1	0.1	1	1	370	0.2	370	371	13.9	90.8
2022-10-07T22:17	10	1	0.1	1	1	371	0.2	370	371	13.9	90.6
2022-10-07T22:18	10	1	0.1	1	1	371	0.2	371	372	13.8	90.7
2022-10-07T22:19	10	1	0.1	1	1	371	0.2	371	372	13.8	90.8
2022-10-07T22:20	10	1	0.1	1	1	372	0.2	371	372	13.9	90.8
2022-10-07T22:21	10	1	0.1	1	1	372	0.2	371	372	13.9	90.6
2022-10-07T22:22	10	1	0.1	1	1	372	0.2	372	373	13.9	90.4
2022-10-07T22:23	10	1	0.1	1	1	372	0.2	372	373	13.9	90.3
2022-10-07T22:24	10	1	0.1	1	1	372	0.3	372	373	13.9	90.2
2022-10-07T22:25	10	1	0.1	1	1	373	0.3	372	373	13.9	90.3
2022-10-07T22:26	10	1	0.1	1	1	373	0.3	372	374	13.9	90.2
2022-10-07T22:27	10	1	0.1	1	1	373	0.4	372	373	13.8	90.3
2022-10-07T22:28	10	1	0.1	1	1	373	0.2	373	374	13.8	90.4
2022-10-07T22:29	10	1	0.1	1	1	373	0.2	373	373	13.8	90.6
2022-10-07T22:30	10	1	0.1	1	1	373	0.3	372	373	13.7	90.7
2022-10-07T22:31	10	1	0.1	1	1	373	0.3	373	374	13.7	90.9
2022-10-07T22:32	10	1	0.1	1	1	373	0.2	373	374	13.6	91.0
2022-10-07T22:33	10	1	0.1	1	1	373	0.3	373	374	13.5	91.3
2022-10-07T22:34	10	1	0.1	1	1	373	0.2	373	373	13.6	91.5
2022-10-07T22:35	10	1	0.1	1	1	373	0.3	373	374	13.6	91.4
2022-10-07T22:36	10	1	0.0	1	1	373	0.3	373	374	13.6	91.4
2022-10-07T22:37	10	1	0.1	1	1	373	0.2	373	374	13.6	91.5
2022-10-07T22:38	10	1	0.1	1	1	374	0.3	373	374	13.4	91.6
2022-10-07T22:39	10	1	0.1	1	1	374	0.2	374	374	13.5	91.9
2022-10-07T22:40	10	1	0.1	1	1	374	0.2	373	374	13.6	91.8
2022-10-07T22:41	10	1	0.1	1	1	374	0.2	373	374	13.5	91.8
2022-10-07T22:42	10	1	0.1	1	1	374	0.2	373	374	13.5	91.9
2022-10-07T22:43	10	1	0.1	1	1	374	0.3	373	374	13.5	92.0
2022-10-07T22:44	10	1	0.1	0	1	374	0.2	373	374	13.5	92.0
2022-10-07T22:45	10	1	0.1	0	1	374	0.2	373	374	13.5	92.1
2022-10-07T22:46	10	0	0.1	0	1	374	0.3	373	374	13.5	92.2
2022-10-07T22:47	10	0	0.1	0	1	374	0.2	373	374	13.5	92.1
2022-10-07T22:48	10	0	0.1	0	1	374	0.3	373	374	13.5	92.1
2022-10-07T22:49	10	0	0.1	0	0	373	0.2	373	374	13.5	92.1
2022-10-07T22:50	10	0	0.1	0	1	373	0.2	373	373	13.5	92.1
2022-10-07T22:51	10	0	0.1	0	1	373	0.2	373	374	13.6	92.0
2022-10-07T22:52	10	0	0.1	0	0	374	0.3	373	374	13.6	91.4
2022-10-07T22:53	10	0	0.1	0	1	374	0.2	373	374	13.6	91.1
2022-10-07T22:54	10	0	0.1	0	0	373	0.3	373	374	13.5	91.3
2022-10-07T22:55	10	0	0.1	0	0	373	0.2	373	374	13.5	91.7
2022-10-07T22:56	10	0	0.1	0	1	373	0.3	373	374	13.4	91.7
2022-10-07T22:57	10	0	0.1	0	0	373	0.3	373	374	13.4	91.9
2022-10-07T22:58	10	0	0.1	0	1	373	0.2	372	373	13.4	92.0
2022-10-07T22:59	10	1	0.1	0	1	373	0.2	372	373	13.4	92.1
2022-10-07T23:00	10	1	0.1	0	1	373	0.2	373	373	13.4	92.2
2022-10-07T23:01	10	1	0.0	1	1	373	0.3	372	374	13.4	92.3
2022-10-07T23:02	10	1	0.1	1	1	373	0.2	373	374	13.5	92.2
2022-10-07T23:03	10	1	0.1	1	1	373	0.3	373	374	13.5	91.8
2022-10-07T23:04	10	1	0.1	1	1	373	0.4	373	374	13.7	91.6
2022-10-07T23:05	10	1	0.1	1	1	373	0.3	373	374	13.7	90.9
2022-10-07T23:06	10	1	0.1	1	1	373	0.3	373	374	13.7	90.8
2022-10-07T23:07	10	1	0.1	1	1	373	0.2	373	374	13.7	90.7
2022-10-07T23:08	10	1	0.1	1	1	374	0.2	373	374	13.7	90.8
2022-10-07T23:09	10	1	0.1	1	1	373	0.2	373	374	13.7	90.7
2022-10-07T23:10	10	1	0.1	1	1	374	0.3	373	375	13.6	90.8
2022-10-07T23:11	10	1	0.1	1	1	374	0.2	373	374	13.6	90.9
2022-10-07T23:12	10	1	0.1	1	1	374	0.2	373	374	13.6	91.0
2022-10-07T23:13	10	1	0.1	1	1	374	0.2	373	374	13.6	91.2
2022-10-07T23:14	10	1	0.1	1	1	374	0.2	374	374	13.5	91.3
2022-10-07T23:15	10	1	0.1	1	1	374	0.2	374	375	13.5	91.4
2022-10-07T23:16	10	1	0.1	1	1	374	0.2	374	375	13.5	91.5
2022-10-07T23:17	10	1	0.1	1	1	374	0.2	374	375	13.5	91.5
2022-10-07T23:18	10	1	0.1	1	1	374	0.2	374	374	13.5	91.7
2022-10-07T23:19	10	1	0.1	1	1	374	0.2	374	375	13.5	91.7
2022-10-07T23:20	10	1	0.1	1	1	374	0.2	374	375	13.5	91.6
2022-10-07T23:21	10	1	0.1	1	1	374	0.2	374	375	13.6	91.5
2022-10-07T23:22	10	1	0.1	1	1	374	0.2	374	375	13.6	91.4
2022-10-07T23:23	10	1	0.1	1	1	374	0.2	374	375	13.6	91.3
2022-10-07T23:24	10	1	0.1	1	1	375	0.2	374	375	13.6	91.3
2022-10-07T23:25	10	1	0.1	1	1	375	0.3	374	376	13.6	91.3
2022-10-07T23:26	10	1	0.1	1	1	375	0.2	374	375	13.6	91.4
2022-10-07T23:27	10	1	0.1	1	1	375	0.2	374	375	13.5	91.4
2022-10-07T23:28	10	1	0.1	1	1	375	0.2	374	375	13.5	91.5
2022-10-07T23:29	10	1	0.1	1	1	375	0.2	374	375	13.5	91.7
2022-10-07T23:30	10	1	0.1	1	1	375	0.3	374	376	13.5	91.8
2022-10-07T23:31	10	1	0.1	1	1	375	0.2	375	376	13.5	91.9
2022-10-07T23:32	10	1	0.1	1	1	375	0.3	374	375	13.4	91.7
2022-10-07T23:33	10	1	0.1	1	1	375	0.2	374	375	13.3	92.0
2022-10-07T23:34	10	1	0.1	1	1	375	0.3	374	375	13.3	92.3
2022-10-07T23:35	10	1	0.1	0	1	375	0.2	374	375	13.3	92.5
2022-10-07T23:36	10	1	0.1	0	1	375	0.3	374	375	13.3	92.7
2022-10-07T23:37	10	1	0.1	0	1	375	0.3	374	375	13.3	92.6
2022-10-07T23:38	10	1	0.1	0	1	375	0.3	374	375	13.3	92.7
2022-10-07T23:39	10	1	0.1	0	1	374	0.2	374	375	13.3	92.8
2022-10-07T23:40	10	1	0.1	0	1	374	0.2	374	375	13.2	92.9
2022-10-07T23:41	10	1	0.1	0	1	374	0.2	374	375	13.2	93.1
2022-10-07T23:42	10	1	0.1	1	1	374	0.3	373	375	13.3	93.1
2022-10-07T23:43	10	1	0.1	1	1	374	0.2	374	375	13.2	93.1
2022-10-07T23:44	10	1	0.1	1	1	374	0.2	374	375	13.3	93.1
2022-10-07T23:45	10	1	0.1	0	1	374	0.2	373	374	13.2	93.1
2022-10-07T23:46	10	1	0.1	1	1	374	0.2	374	375	13.3	93.3
2022-10-07T23:47	10	1	0.1	1	1	374	0.2	374	374	13.4	93.1
2022-10-07T23:48	10	1	0.1	1	1	374	0.3	373	375	13.4	93.0
2022-10-07T23:49	10	1	0.1	1	1	374	0.2	373	374	13.3	92.8
2022-10-07T23:50	10	1	0.1	1	1	374	0.3	373	375	13.3	92.8
2022-10-07T23:51	10	1	0.1	1	1	374	0.3	373	375	13.4	92.9
2022-10-07T23:52	10	1	0.1	1	1	374	0.9	373	376	13.6	92.5
2022-10-07T23:53	10	1	0.1	1	1	374	0.2	373	375	13.7	92.0
2022-10-07T23:54	10	1	0.1	1	1	374	0.2	374	374	13.7	91.3
2022-10-07T23:55	10	1	0.1	1	1	374	0.4	373	375	13.6	91.1
2022-10-07T23:56	10	1	0.1	1	1	374	0.4	373	375	13.5	91.3
2022-10-07T23:57	10	1	0.1	0	1	374	0.3	374	375	13.5	91.5
2022-10-07T23:58	10	1	0.1	1	1	374	0.3	374	375	13.4	91.6
2022-10-07T23:59	10	1	0.1	0	1	374	0.4	374	375	13.4	91.8
2022-10-08T00:00	10	1	0.1	0	1	374	0.3	373	374	13.3	91.8
2022-10-08T00:01	10	1	0.1	0	1	373	0.3	373	374	13.3	92.3
2022-10-08T00:02	10	0	0.1	0	1	373	0.3	373	374	13.2	92.5
2022-10-08T00:03	10	0	0.1	0	0	373	0.3	373	374	13.1	92.9
2022-10-08T00:04	10	0	0.1	0	0	373	0.2	373	374	13.1	93.3
2022-10-08T00:05	10	0	0.1	-1	0	374	0.2	373	374	13.2	93.4
2022-10-08T00:06	10	0	0.1	0	0	373	0.2	373	374	13.3	93.1
2022-10-08T00:07	10	0	0.1	-1	0	374	0.3	373	374	13.2	92.9
2022-10-08T00:08	10	0	0.1	-1	0	373	0.2	373	374	13.3	93.1
2022-10-08T00:09	10	0	0.1	-1	0	373	0.4	373	374	13.3	93.0
2022-10-08T00:10	10	0	0.1	-1	0	373	0.2	373	374	13.8	92.2
2022-10-08T00:11	10	0	0.1	0	0	373	0.3	372	373	13.6	91.2
2022-10-08T00:12	10	0	0.1	0	0	373	0.3	372	374	13.7	91.4
2022-10-08T00:13	10	0	0.1	0	0	372	0.4	372	373	13.8	90.7
2022-10-08T00:14	10	0	0.1	0	1	371	0.3	371	372	13.4	91.0
2022-10-08T00:15	10	0	0.1	0	0	371	0.3	370	372	13.1	92.2
2022-10-08T00:16	10	0	0.1	0	1	370	0.3	370	371	13.0	92.8
2022-10-08T00:17	10	0	0.1	0	1	370	0.2	370	371	12.9	93.3
2022-10-08T00:18	10	0	0.1	0	1	370	0.2	370	371	12.9	93.8
2022-10-08T00:19	10	0	0.1	0	1	371	0.2	370	371	13.0	94.0
2022-10-08T00:20	10	1	0.1	0	1	370	0.2	370	371	13.2	93.9
2022-10-08T00:21	10	1	0.1	0	1	370	0.2	369	370	13.3	93.7
2022-10-08T00:22	10	1	0.1	0	1	370	0.2	369	370	13.3	93.3
2022-10-08T00:23	10	1	0.1	1	1	369	0.4	369	370	13.4	92.9
2022-10-08T00:24	10	1	0.1	1	1	369	0.3	369	370	13.4	92.5
2022-10-08T00:25	10	1	0.1	1	1	370	0.2	369	370	13.4	92.4
2022-10-08T00:26	10	1	0.1	1	1	370	0.2	369	371	13.4	92.3
2022-10-08T00:27	10	1	0.1	0	1	370	0.3	370	371	13.4	92.3
2022-10-08T00:28	10	0	0.1	0	1	370	0.3	370	371	13.4	92.1
2022-10-08T00:29	10	0	0.1	0	1	370	0.2	370	371	13.2	92.3
2022-10-08T00:30	10	0	0.1	0	0	371	0.3	370	371	13.1	92.8
2022-10-08T00:31	10	0	0.1	0	0	370	0.2	370	371	13.1	93.0
2022-10-08T00:32	10	0	0.1	0	0	370	0.2	370	371	13.1	93.2
2022-10-08T00:33	10	0	0.1	0	0	370	0.2	369	370	13.2	93.2
2022-10-08T00:34	10	0	0.1	-1	0	369	0.3	369	370	13.2	92.9
2022-10-08T00:35	10	0	0.1	-1	0	369	0.2	369	370	13.2	92.8
2022-10-08T00:36	10	0	0.1	-1	0	369	0.3	369	370	13.1	92.6
2022-10-08T00:37	10	0	0.1	-1	0	369	0.4	369	370	13.2	92.8
2022-10-08T00:38	10	0	0.1	-1	0	369	0.4	369	370	13.1	92.7
2022-10-08T00:39	10	0	0.1	-1	0	369	0.3	369	370	13.1	92.5
2022-10-08T00:40	10	0	0.1	-1	0	370	0.3	369	370	13.3	92.5
2022-10-08T00:41	10	0	0.1	-1	0	370	0.2	369	370	13.4	92.2
2022-10-08T00:42	10	0	0.1	-1	0	370	0.2	369	370	13.4	91.9
2022-10-08T00:43	10	0	0.1	0	0	370	0.2	369	371	13.5	91.7
2022-10-08T00:44	10	0	0.1	0	0	370	0.3	370	371	13.5	91.3
2022-10-08T00:45	10	0	0.1	0	0	370	0.2	370	371	13.6	91.0
2022-10-08T00:46	10	0	0.1	0	0	370	0.2	370	371	13.5	90.6
2022-10-08T00:47	10	0	0.1	0	0	370	0.2	370	371	13.4	90.9
2022-10-08T00:48	10	0	0.1	0	0	370	0.2	369	370	13.3	91.3
2022-10-08T00:49	10	0	0.1	0	0	370	0.2	369	370	13.1	91.8
2022-10-08T00:50	10	0	0.1	0	0	369	0.3	369	370	13.1	92.4
2022-10-08T00:51	10	0	0.1	0	0	369	0.2	368	369	12.9	92.9
2022-10-08T00:52	10	0	0.1	0	1	368	0.2	368	369	12.9	93.6
2022-10-08T00:53	10	0	0.1	0	1	369	0.2	368	369	12.9	93.9
2022-10-08T00:54	10	0	0.1	0	0	369	0.2	368	369	13.0	94.1
2022-10-08T00:55	10	0	0.1	0	1	369	0.3	368	369	13.1	93.9
2022-10-08T00:56	10	0	0.1	0	0	368	0.2	368	369	13.1	93.6
2022-10-08T00:57	10	0	0.1	0	0	368	0.3	367	369	13.2	93.5
2022-10-08T00:58	10	0	0.1	0	0	368	0.3	367	369	13.2	93.4
2022-10-08T00:59	10	0	0.1	0	1	368	0.2	367	369	13.3	93.0
2022-10-08T01:00	10	0	0.1	0	1	368	0.3	367	368	13.3	92.5
2022-10-08T01:01	10	0	0.1	0	1	367	0.3	367	368	13.2	92.5
2022-10-08T01:02	10	0	0.1	0	0	368	0.3	367	368	13.1	93.1
2022-10-08T01:03	10	0	0.1	0	0	367	0.3	367	368	13.1	93.4
2022-10-08T01:04	10	0	0.1	0	0	367	0.4	366	368	13.1	93.4
2022-10-08T01:05	10	0	0.1	0	0	366	0.4	366	367	13.0	93.3
2022-10-08T01:06	10	0	0.1	0	0	366	0.3	365	367	12.8	93.6
2022-10-08T01:07	10	0	0.1	0	0	366	0.3	366	367	12.9	94.0
2022-10-08T01:08	10	0	0.1	0	0	366	0.3	365	366	13.2	94.2
2022-10-08T01:09	10	0	0.1	0	1	366	0.2	366	366	13.2	93.6
2022-10-08T01:10	10	0	0.1	0	1	366	0.5	365	367	13.4	93.2
2022-10-08T01:11	10	1	0.1	0	1	366	0.2	365	366	13.1	92.5
2022-10-08T01:12	10	1	0.1	0	1	365	0.3	365	366	13.1	92.8
2022-10-08T01:13	10	1	0.1	0	1	365	0.3	365	366	13.0	92.9
2022-10-08T01:14	10	1	0.1	0	1	365	0.2	365	366	13.1	93.3
2022-10-08T01:15	10	1	0.1	0	1	366	0.3	365	366	13.2	93.0
2022-10-08T01:16	10	1	0.1	1	1	366	0.2	365	366	13.3	92.7
2022-10-08T01:17	10	1	0.1	1	1	366	0.2	365	366	13.2	92.6
2022-10-08T01:18	10	1	0.1	1	1	365	0.3	364	366	13.1	92.8
2022-10-08T01:19	10	1	0.1	1	1	365	0.2	364	366	13.2	92.9
2022-10-08T01:20	10	1	0.1	0	1	365	0.3	365	366	13.1	92.9
2022-10-08T01:21	10	1	0.1	1	1	365	0.2	364	365	13.1	92.9
2022-10-08T01:22	10	1	0.1	1	1	364	0.2	364	365	13.1	93.1
2022-10-08T01:23	10	1	0.1	1	1	365	0.3	364	365	13.1	93.1
2022-10-08T01:24	10	1	0.1	1	1	365	0.3	364	365	13.1	93.1
2022-10-08T01:25	10	1	0.1	1	1	365	0.2	364	365	13.0	93.1
2022-10-08T01:26	10	1	0.1	0	1	364	0.3	364	365	13.0	93.3
2022-10-08T01:27	10	1	0.1	0	1	364	0.2	364	364	12.9	93.4
2022-10-08T01:28	10	1	0.1	0	1	364	0.2	363	364	12.9	93.6
2022-10-08T01:29	10	1	0.1	0	1	364	0.3	363	364	12.9	93.6
2022-10-08T01:30	10	1	0.1	0	1	364	0.2	363	364	12.8	93.7
2022-10-08T01:31	10	0	0.1	0	1	364	0.2	364	364	12.8	94.0
2022-10-08T01:32	10	0	0.1	0	1	364	0.2	364	365	12.7	94.1
2022-10-08T01:33	10	0	0.1	0	1	364	0.3	363	365	12.7	94.4
2022-10-08T01:34	10	0	0.1	0	1	364	0.3	363	365	12.7	94.5
2022-10-08T01:35	10	0	0.1	0	0	364	0.2	364	365	12.6	94.7
2022-10-08T01:36	10	0	0.1	0	0	364	0.2	364	365	12.6	94.9
2022-10-08T01:37	10	0	0.1	0	0	364	0.3	364	365	12.7	95.1
2022-10-08T01:38	10	0	0.1	0	0	365	0.3	364	365	12.6	95.1
2022-10-08T01:39	10	0	0.1	0	0	365	0.2	364	365	12.6	95.2
2022-10-08T01:40	10	0	0.1	0	0	365	0.2	364	365	12.7	95.2
2022-10-08T01:41	10	0	0.1	0	0	365	0.2	364	365	12.7	95.0
2022-10-08T01:42	10	0	0.1	0	0	364	0.2	364	365	12.8	94.9
2022-10-08T01:43	10	0	0.1	0	0	364	0.2	364	365	12.7	94.7
2022-10-08T01:44	10	0	0.1	0	0	364	0.2	363	364	12.6	94.6
2022-10-08T01:45	10	0	0.1	0	0	364	0.3	363	365	12.5	94.5
2022-10-08T01:46	10	0	0.1	0	0	364	0.3	364	365	12.4	94.7
2022-10-08T01:47	10	0	0.1	0	0	364	0.6	363	365	12.6	95.1
2022-10-08T01:48	10	0	0.1	0	0	364	0.3	363	365	12.5	95.1
2022-10-08T01:49	10	0	0.1	0	0	364	0.4	364	366	12.7	95.4
2022-10-08T01:50	10	0	0.1	0	0	365	0.3	364	365	12.9	95.3
2022-10-08T01:51	10	0	0.1	0	0	365	0.3	364	365	13.1	94.8
2022-10-08T01:52	10	0	0.1	0	0	365	0.3	364	365	13.1	94.1
2022-10-08T01:53	10	0	0.1	0	0	365	0.2	364	365	13.1	93.6
2022-10-08T01:54	10	0	0.1	0	0	365	0.3	364	365	13.1	93.3
2022-10-08T01:55	10	0	0.1	0	0	365	0.2	364	365	13.0	93.3
2022-10-08T01:56	10	0	0.1	0	0	364	0.2	364	365	12.8	93.4
2022-10-08T01:57	10	0	0.1	0	0	364	0.3	363	364	12.6	93.6
2022-10-08T01:58	10	0	0.1	0	0	364	0.3	363	364	12.5	93.9
2022-10-08T01:59	10	0	0.1	0	0	363	0.2	363	364	12.4	94.3
2022-10-08T02:00	10	0	0.1	0	0	364	0.2	363	364	12.4	94.6
2022-10-08T02:01	10	0	0.1	0	1	363	0.2	363	364	12.4	94.8
2022-10-08T02:02	10	0	0.1	0	1	364	0.2	363	364	12.4	95.0
2022-10-08T02:03	10	0	0.1	0	1	364	0.3	363	364	12.4	95.2
2022-10-08T02:04	10	1	0.1	0	1	365	0.4	364	365	12.4	95.3
2022-10-08T02:05	10	0	0.0	0	1	365	0.3	364	366	12.4	95.3
2022-10-08T02:06	10	0	0.1	0	1	366	0.3	365	367	12.4	95.4
2022-10-08T02:07	10	0	0.1	0	0	366	0.3	366	367	12.5	95.6
2022-10-08T02:08	10	0	0.1	0	0	367	0.2	366	367	12.6	95.6
2022-10-08T02:09	10	0	0.1	0	0	367	0.3	366	368	12.6	95.3
2022-10-08T02:10	10	0	0.0	0	0	367	0.2	367	368	12.7	95.1
2022-10-08T02:11	10	0	0.1	0	0	368	0.3	367	368	12.8	95.0
2022-10-08T02:12	10	0	0.1	0	0	368	0.3	368	369	13.0	94.7
2022-10-08T02:13	10	0	0.1	0	1	368	0.2	368	369	13.2	93.7
2022-10-08T02:14	10	0	0.1	0	0	369	0.2	368	370	13.3	92.7
2022-10-08T02:15	10	0	0.1	0	1	369	0.2	369	370	13.3	92.3
2022-10-08T02:16	10	0	0.1	0	1	369	0.2	369	370	13.3	92.0
2022-10-08T02:17	10	1	0.1	0	1	369	0.2	369	370	13.4	91.8
2022-10-08T02:18	10	1	0.1	0	1	369	0.2	369	370	13.4	91.5
2022-10-08T02:19	10	1	0.1	0	1	369	0.2	369	370	13.3	91.4
2022-10-08T02:20	10	1	0.1	1	1	369	0.2	369	369	13.3	91.6
2022-10-08T02:21	10	1	0.1	1	1	369	0.2	369	370	13.3	91.6
2022-10-08T02:22	10	1	0.1	1	1	370	0.2	369	370	13.3	91.6
2022-10-08T02:23	10	1	0.1	1	1	369	0.3	369	370	13.4	91.5
2022-10-08T02:24	10	1	0.1	0	1	369	0.2	369	370	13.2	91.3
2022-10-08T02:25	10	1	0.1	0	1	369	0.2	368	369	13.0	91.7
2022-10-08T02:26	10	1	0.1	1	1	368	0.5	367	369	12.7	92.0
2022-10-08T02:27	10	1	0.1	0	1	368	0.3	367	369	12.3	92.6
2022-10-08T02:28	10	0	0.1	0	1	368	0.4	368	370	12.2	93.4
2022-10-08T02:29	10	0	0.1	0	0	369	0.5	368	370	12.3	94.1
2022-10-08T02:30	10	0	0.1	0	0	369	0.2	368	369	12.3	94.3
2022-10-08T02:31	10	0	0.1	-1	0	369	0.2	368	369	12.3	94.5
2022-10-08T02:32	10	-1	0.1	-1	0	369	0.3	368	369	12.3	94.7
2022-10-08T02:33	10	-1	0.1	-1	0	369	0.2	368	369	12.4	94.8
2022-10-08T02:34	10	0	0.1	-1	0	368	0.2	368	369	12.4	94.7
2022-10-08T02:35	10	0	0.1	-1	0	368	0.2	368	369	12.5	94.8
2022-10-08T02:36	10	0	0.1	0	0	368	0.2	368	368	12.6	94.6
2022-10-08T02:37	10	0	0.1	0	0	368	0.2	368	368	12.6	94.4
2022-10-08T02:38	10	0	0.1	0	0	368	0.3	367	369	12.7	94.3
2022-10-08T02:39	10	0	0.1	0	0	368	0.2	367	368	12.8	94.2
2022-10-08T02:40	10	0	0.1	0	0	368	0.3	367	368	12.6	93.9
2022-10-08T02:41	10	0	0.1	0	0	368	0.2	367	369	12.4	94.0
2022-10-08T02:42	10	0	0.1	0	0	368	0.2	368	369	12.5	94.6
2022-10-08T02:43	10	0	0.1	0	0	368	0.2	367	368	12.4	94.5
2022-10-08T02:44	10	0	0.1	0	0	368	0.2	368	369	12.4	94.7
2022-10-08T02:45	10	0	0.1	0	0	368	0.4	367	369	12.6	95.0
2022-10-08T02:46	10	0	0.1	0	0	368	0.2	367	368	12.4	94.6
2022-10-08T02:47	10	0	0.1	0	0	368	0.2	367	368	12.4	94.9
2022-10-08T02:48	10	0	0.1	0	0	368	0.2	367	368	12.7	95.1
2022-10-08T02:49	10	0	0.1	0	0	367	0.3	367	368	12.7	94.8
2022-10-08T02:50	10	0	0.1	0	0	367	0.2	367	368	12.3	94.3
2022-10-08T02:51	10	0	0.1	0	0	368	0.2	367	368	12.3	94.9
2022-10-08T02:52	10	0	0.1	0	0	367	0.2	367	368	12.3	95.2
2022-10-08T02:53	10	0	0.1	0	0	367	0.2	367	368	12.3	95.4
2022-10-08T02:54	10	0	0.1	0	0	367	0.3	367	368	12.4	95.7
2022-10-08T02:55	10	0	0.1	0	0	367	0.3	366	368	12.4	95.6
2022-10-08T02:56	10	0	0.1	0	0	367	0.3	367	368	12.4	95.7
2022-10-08T02:57	10	0	0.1	0	0	367	0.2	367	368	12.3	95.6
2022-10-08T02:58	10	0	0.1	0	0	367	0.2	366	367	12.2	95.5
2022-10-08T02:59	10	0	0.1	0	0	367	0.2	366	367	12.1	95.6
2022-10-08T03:00	10	0	0.1	0	0	367	0.2	366	367	12.1	96.0
2022-10-08T03:01	10	0	0.1	0	0	367	0.2	366	367	12.0	96.0
2022-10-08T03:02	10	0	0.1	0	0	367	0.2	367	367	12.0	96.3
2022-10-08T03:03	10	0	0.1	0	0	367	0.2	366	367	12.0	96.4
2022-10-08T03:04	10	0	0.1	0	0	367	0.3	366	368	11.9	96.4
2022-10-08T03:05	10	0	0.1	0	0	367	0.2	366	367	11.9	96.6
2022-10-08T03:06	10	0	0.1	-1	0	367	0.2	366	367	11.9	96.6
2022-10-08T03:07	10	0	0.1	0	0	366	0.2	366	367	11.9	96.6
2022-10-08T03:08	10	0	0.1	0	0	366	0.3	366	367	11.9	96.5
2022-10-08T03:09	10	0	0.1	0	0	366	0.2	366	367	11.9	96.5
2022-10-08T03:10	10	0	0.1	0	0	366	0.2	366	367	12.0	96.6
2022-10-08T03:11	10	0	0.1	0	0	366	0.3	366	367	12.1	96.6
2022-10-08T03:12	10	0	0.2	0	1	367	0.3	367	368	12.3	96.6
2022-10-08T03:13	10	0	0.1	0	0	367	0.3	366	367	12.3	96.2
2022-10-08T03:14	10	0	0.1	0	0	367	0.2	366	367	12.2	95.8
2022-10-08T03:15	10	0	0.1	0	1	367	0.2	367	367	12.5	96.1
2022-10-08T03:16	10	0	0.1	0	1	367	0.3	366	368	12.6	95.7
2022-10-08T03:17	10	0	0.1	0	1	367	0.2	366	367	12.5	95.2
2022-10-08T03:18	10	0	0.1	0	1	366	0.3	366	367	12.3	94.8
2022-10-08T03:19	10	0	0.1	0	1	366	0.2	366	367	12.4	95.0
2022-10-08T03:20	10	0	0.1	0	1	366	0.3	366	367	12.6	95.3
2022-10-08T03:21	10	0	0.1	0	1	366	0.2	365	366	12.8	95.1
2022-10-08T03:22	10	0	0.1	0	1	366	0.4	365	367	12.5	94.3
2022-10-08T03:23	10	0	0.1	0	1	367	0.2	366	367	12.9	94.8
2022-10-08T03:24	10	1	0.1	0	1	367	0.2	366	367	13.1	93.8
2022-10-08T03:25	10	1	0.1	0	1	366	0.3	366	367	13.1	92.9
2022-10-08T03:26	10	1	0.1	0	1	367	0.2	366	367	13.1	92.6
2022-10-08T03:27	10	1	0.2	0	1	367	0.3	366	368	13.2	92.4
2022-10-08T03:28	10	1	0.1	0	1	367	0.2	367	367	13.3	91.8
2022-10-08T03:29	10	1	0.2	0	1	367	0.2	366	367	13.3	91.4
2022-10-08T03:30	10	1	0.1	0	1	366	0.2	366	367	13.2	91.4
2022-10-08T03:31	10	1	0.1	0	1	367	0.3	366	367	13.2	91.5
2022-10-08T03:32	10	1	0.2	0	1	367	0.3	366	367	13.1	91.6
2022-10-08T03:33	10	1	0.1	1	1	366	0.2	366	367	13.1	92.0
2022-10-08T03:34	10	1	0.2	0	1	367	0.2	366	367	13.2	92.0
2022-10-08T03:35	10	1	0.1	0	1	367	0.3	366	367	13.2	91.8
2022-10-08T03:36	10	1	0.1	1	1	367	0.2	366	367	13.3	91.6
2022-10-08T03:37	10	1	0.1	1	1	367	0.2	367	368	13.4	91.2
2022-10-08T03:38	10	1	0.1	0	1	367	0.3	367	368	13.4	90.6
2022-10-08T03:39	10	1	0.1	0	1	367	0.2	367	368	13.4	90.4
2022-10-08T03:40	10	1	0.1	0	1	367	0.2	366	367	13.1	90.6
2022-10-08T03:41	10	1	0.1	0	1	367	0.3	366	367	12.7	91.7
2022-10-08T03:42	10	1	0.2	0	1	367	0.3	366	367	12.6	92.6
2022-10-08T03:43	10	1	0.1	0	1	366	0.3	366	367	12.6	93.3
2022-10-08T03:44	10	1	0.1	0	1	366	0.2	365	366	12.5	93.6
2022-10-08T03:45	10	1	0.2	0	1	366	0.3	366	367	12.5	94.0
2022-10-08T03:46	10	1	0.1	0	1	366	0.3	366	367	12.6	94.3
2022-10-08T03:47	10	1	0.2	0	1	366	0.3	366	367	12.7	94.3
2022-10-08T03:48	10	1	0.1	1	1	366	0.2	366	367	12.8	94.1
2022-10-08T03:49	10	1	0.2	0	1	366	0.3	366	367	12.9	93.9
2022-10-08T03:50	10	1	0.2	0	1	366	0.3	366	367	12.9	93.5
2022-10-08T03:51	10	1	0.1	0	1	366	0.3	365	367	12.9	93.4
2022-10-08T03:52	10	1	0.1	0	1	366	0.3	366	367	12.8	93.3
2022-10-08T03:53	10	1	0.1	0	1	366	0.2	365	366	12.8	93.2
2022-10-08T03:54	10	0	0.1	0	1	366	0.2	365	367	12.7	93.3
2022-10-08T03:55	10	1	0.2	0	1	366	0.2	365	367	12.6	93.3
2022-10-08T03:56	10	1	0.1	0	1	366	0.3	365	366	12.6	93.4
2022-10-08T03:57	10	1	0.2	0	1	365	0.3	365	366	12.5	93.6
2022-10-08T03:58	10	1	0.1	0	1	366	0.2	365	366	12.5	93.7
2022-10-08T03:59	10	1	0.1	0	1	366	0.2	365	367	12.4	93.9
2022-10-08T04:00	10	1	0.2	0	1	366	0.3	365	366	12.4	94.0
2022-10-08T04:01	10	1	0.1	0	1	366	0.3	365	367	12.4	94.2
2022-10-08T04:02	10	1	0.1	0	1	366	0.2	366	367	12.4	94.4
2022-10-08T04:03	10	1	0.1	0	1	366	0.2	366	367	12.5	94.6
2022-10-08T04:04	10	1	0.2	0	1	367	0.3	366	367	12.6	94.7
2022-10-08T04:05	10	1	0.1	0	1	367	0.2	367	368	12.6	94.8
2022-10-08T04:06	10	1	0.1	0	1	367	0.2	367	368	12.6	94.9
2022-10-08T04:07	10	1	0.1	0	1	367	0.2	367	368	12.5	94.9
2022-10-08T04:08	10	1	0.2	0	1	367	0.3	367	368	12.5	95.0
2022-10-08T04:09	10	1	0.1	0	1	368	0.2	367	368	12.6	95.3
2022-10-08T04:10	10	1	0.1	0	1	368	0.2	367	368	12.8	95.2
2022-10-08T04:11	10	1	0.1	0	1	368	0.3	368	369	12.8	94.9
2022-10-08T04:12	10	1	0.1	1	1	368	0.2	367	368	12.8	94.6
2022-10-08T04:13	10	1	0.2	0	2	368	0.2	367	369	12.8	94.4
2022-10-08T04:14	10	1	0.2	0	1	368	0.3	367	368	12.6	94.3
2022-10-08T04:15	10	1	0.1	0	1	368	0.3	367	369	12.7	94.6
2022-10-08T04:16	10	1	0.1	0	1	368	0.2	368	369	12.7	94.7
2022-10-08T04:17	10	1	0.2	0	1	368	0.3	368	369	12.8	94.7
2022-10-08T04:18	10	1	0.1	0	1	369	0.2	368	369	12.9	94.5
2022-10-08T04:19	10	1	0.2	0	1	369	0.3	368	369	12.8	94.2
2022-10-08T04:20	10	1	0.2	0	1	369	0.3	368	370	12.8	94.2
2022-10-08T04:21	10	1	0.2	0	1	369	0.2	369	370	12.9	94.1
2022-10-08T04:22	10	1	0.1	0	1	369	0.2	369	370	12.9	93.9
2022-10-08T04:23	10	1	0.1	0	1	369	0.2	369	370	12.9	93.7
2022-10-08T04:24	10	1	0.1	0	1	369	0.3	369	370	12.9	93.7
2022-10-08T04:25	10	1	0.2	0	1	370	0.3	369	371	12.9	93.8
2022-10-08T04:26	10	1	0.2	0	1	370	0.2	370	371	13.0	93.7
2022-10-08T04:27	10	1	0.2	0	1	370	0.3	370	371	12.9	93.6
2022-10-08T04:28	10	0	0.1	0	1	371	0.2	370	371	12.9	93.6
2022-10-08T04:29	10	0	0.1	0	1	371	0.3	370	371	12.9	93.5
2022-10-08T04:30	10	0	0.1	0	0	370	0.3	370	371	12.8	93.6
2022-10-08T04:31	10	0	0.2	0	0	370	0.2	370	371	12.8	93.7
2022-10-08T04:32	10	0	0.1	0	0	370	0.2	370	371	12.8	93.9
2022-10-08T04:33	10	0	0.1	-1	0	371	0.2	370	371	12.9	93.8
2022-10-08T04:34	10	0	0.2	-1	0	371	0.3	370	372	12.9	93.8
2022-10-08T04:35	10	0	0.1	-1	0	371	0.2	370	371	12.8	93.8
2022-10-08T04:36	10	0	0.1	-1	0	371	0.2	371	371	12.8	93.8
2022-10-08T04:37	10	0	0.3	0	2	370	0.2	370	371	12.7	93.8
2022-10-08T04:38	10	0	0.2	0	1	371	0.5	370	372	12.3	93.6
2022-10-08T04:39	10	0	0.2	0	1	371	0.3	370	372	12.3	94.3
2022-10-08T04:40	10	0	0.1	0	1	371	0.3	370	372	12.4	94.8
2022-10-08T04:41	10	1	0.1	0	1	372	0.2	371	372	12.5	95.0
2022-10-08T04:42	10	1	0.1	0	1	371	0.3	371	372	12.7	95.2
2022-10-08T04:43	10	1	0.1	0	1	371	0.2	371	372	12.8	95.0
2022-10-08T04:44	10	1	0.1	0	1	371	0.3	371	372	12.8	94.7
2022-10-08T04:45	10	1	0.1	0	1	371	0.3	371	372	12.9	94.5
2022-10-08T04:46	10	1	0.1	0	1	371	0.2	371	372	12.9	94.2
2022-10-08T04:47	10	1	0.1	0	1	371	0.2	371	372	12.9	94.0
2022-10-08T04:48	10	1	0.1	0	1	371	0.3	371	372	12.9	93.8
2022-10-08T04:49	10	1	0.1	0	1	371	0.3	371	372	12.8	93.6
2022-10-08T04:50	10	1	0.1	0	1	371	0.3	370	372	12.8	93.7
2022-10-08T04:51	10	1	0.1	0	1	371	0.2	371	372	12.7	93.8
2022-10-08T04:52	10	1	0.1	0	1	372	0.2	371	372	12.7	94.0
2022-10-08T04:53	10	1	0.1	0	1	371	0.2	371	372	12.7	94.2
2022-10-08T04:54	10	1	0.1	0	1	372	0.2	371	372	12.7	94.3
2022-10-08T04:55	10	1	0.1	0	1	372	0.2	371	372	12.7	94.4
2022-10-08T04:56	10	1	0.2	0	1	372	0.3	371	373	12.8	94.5
2022-10-08T04:57	10	0	0.1	0	1	372	0.2	371	372	12.8	94.3
2022-10-08T04:58	10	1	0.1	0	1	372	0.2	371	372	12.8	94.2
2022-10-08T04:59	10	1	0.1	0	1	372	0.2	371	372	12.7	94.2
2022-10-08T05:00	10	1	0.2	0	1	372	0.3	371	372	12.6	94.4
2022-10-08T05:01	10	1	0.1	0	1	372	0.3	371	372	12.6	94.6
2022-10-08T05:02	10	1	0.1	0	1	372	0.2	371	372	12.5	94.9
2022-10-08T05:03	10	1	0.1	0	1	372	0.3	371	372	12.5	95.0
2022-10-08T05:04	10	1	0.2	0	1	372	0.2	371	372	12.5	95.1
2022-10-08T05:05	10	0	0.2	0	1	372	0.2	371	372	12.4	95.1
2022-10-08T05:06	10	0	0.1	0	1	372	0.2	371	372	12.3	95.2
2022-10-08T05:07	10	0	0.1	0	1	372	0.2	372	373	12.5	95.7
2022-10-08T05:08	10	0	0.1	0	1	372	0.3	372	373	12.6	95.6
2022-10-08T05:09	10	0	0.1	0	0	372	0.3	372	373	12.7	95.4
2022-10-08T05:10	10	0	0.1	0	1	372	0.3	372	373	12.6	95.0
2022-10-08T05:11	10	0	0.1	0	1	372	0.3	372	373	12.8	94.9
2022-10-08T05:12	10	0	0.1	0	1	372	0.3	371	373	12.9	94.6
2022-10-08T05:13	10	1	0.1	0	1	373	0.3	372	373	13.0	94.2
2022-10-08T05:14	10	1	0.1	0	1	372	0.2	372	373	12.9	93.7
2022-10-08T05:15	10	1	0.1	0	1	373	0.2	372	373	12.9	93.6
2022-10-08T05:16	10	1	0.1	0	1	372	0.2	372	373	12.8	93.6
2022-10-08T05:17	10	1	0.1	0	1	372	0.2	372	373	12.8	93.6
2022-10-08T05:18	10	1	0.1	1	1	373	0.2	372	373	12.8	93.8
2022-10-08T05:19	10	1	0.1	1	1	373	0.3	372	373	12.8	93.8
2022-10-08T05:20	10	1	0.1	1	1	373	0.3	372	373	12.8	94.0
2022-10-08T05:21	10	1	0.1	1	1	372	0.2	372	373	12.7	93.9
2022-10-08T05:22	10	1	0.1	1	1	373	0.3	372	373	12.7	94.1
2022-10-08T05:23	10	1	0.1	1	1	373	0.2	372	373	12.7	94.2
2022-10-08T05:24	10	1	0.1	1	1	373	0.2	373	373	12.8	94.3
2022-10-08T05:25	10	1	0.1	1	1	373	0.2	372	373	12.9	94.2
2022-10-08T05:26	10	1	0.1	1	1	373	0.2	372	373	12.9	94.0
2022-10-08T05:27	10	1	0.1	1	1	373	0.3	372	373	12.9	93.9
2022-10-08T05:28	10	1	0.1	1	1	373	0.3	372	373	12.9	93.9
2022-10-08T05:29	10	1	0.1	1	1	373	0.2	372	373	12.9	93.6
2022-10-08T05:30	10	1	0.1	1	1	373	0.2	372	373	12.9	93.5
2022-10-08T05:31	10	1	0.1	1	1	372	0.2	372	373	12.8	93.7
2022-10-08T05:32	10	1	0.1	1	1	372	0.2	372	373	12.8	93.9
2022-10-08T05:33	10	1	0.1	1	1	372	0.2	372	373	12.7	94.1
2022-10-08T05:34	10	1	0.1	1	1	373	0.2	372	373	12.7	94.3
2022-10-08T05:35	10	1	0.1	1	1	373	0.2	372	373	12.6	94.3
2022-10-08T05:36	10	1	0.1	1	1	373	0.2	372	373	12.6	94.5
2022-10-08T05:37	10	1	0.1	1	1	373	0.2	372	373	12.7	94.7
2022-10-08T05:38	10	1	0.1	1	1	373	0.2	372	373	12.7	94.6
2022-10-08T05:39	10	1	0.1	1	2	373	0.2	373	374	12.7	94.6
2022-10-08T05:40	10	1	0.1	1	2	373	0.2	373	374	12.7	94.6
2022-10-08T05:41	10	2	0.1	1	2	373	0.2	373	373	12.7	94.5
2022-10-08T05:42	10	2	0.1	1	2	373	0.2	373	374	12.7	94.5
2022-10-08T05:43	10	2	0.1	2	2	373	0.2	373	374	12.7	94.5
2022-10-08T05:44	10	2	0.1	2	2	373	0.2	373	374	12.6	94.5
2022-10-08T05:45	10	2	0.1	2	2	373	0.2	373	374	12.6	94.6
2022-10-08T05:46	10	2	0.1	2	3	373	0.2	373	374	12.6	94.7
2022-10-08T05:47	10	2	0.1	2	3	373	0.3	373	374	12.6	94.8
2022-10-08T05:48	10	3	0.1	2	3	373	0.2	373	374	12.6	94.8
2022-10-08T05:49	10	3	0.1	3	3	373	0.2	373	374	12.6	94.8
2022-10-08T05:50	10	3	0.1	3	3	373	0.2	373	374	12.5	94.9
2022-10-08T05:51	10	3	0.1	3	3	373	0.2	373	373	12.5	95.1
2022-10-08T05:52	10	3	0.1	3	3	373	0.2	373	374	12.5	95.1
2022-10-08T05:53	10	3	0.1	3	3	373	0.2	372	373	12.4	95.2
2022-10-08T05:54	10	3	0.1	3	3	373	0.2	372	373	12.4	95.4
2022-10-08T05:55	10	3	0.1	3	3	373	0.3	373	374	12.4	95.7
2022-10-08T05:56	10	3	0.1	3	3	373	0.2	373	374	12.6	95.8
2022-10-08T05:57	10	3	0.1	3	3	374	0.2	373	374	12.7	95.7
2022-10-08T05:58	10	3	0.1	3	3	373	0.2	373	374	12.8	95.5
2022-10-08T05:59	10	3	0.1	3	4	374	0.2	373	374	12.7	95.2
2022-10-08T06:00	10	4	0.1	3	4	373	0.2	373	374	12.7	95.0
2022-10-08T06:01	10	4	0.1	3	4	373	0.3	373	374	12.6	95.0
2022-10-08T06:02	10	4	0.1	4	4	373	0.2	373	374	12.6	95.2
2022-10-08T06:03	10	4	0.1	4	4	374	0.3	373	374	12.6	95.4
2022-10-08T06:04	10	4	0.1	4	4	374	0.2	374	374	12.7	95.4
2022-10-08T06:05	10	4	0.1	4	5	374	0.3	374	375	12.8	95.3
2022-10-08T06:06	10	5	0.1	5	5	375	0.2	374	375	12.8	95.0
2022-10-08T06:07	10	5	0.1	5	5	375	0.2	374	375	12.9	94.8
2022-10-08T06:08	10	5	0.1	5	5	375	0.2	375	376	12.9	94.5
2022-10-08T06:09	10	5	0.1	5	5	375	0.3	375	376	12.9	94.2
2022-10-08T06:10	10	5	0.1	5	5	376	0.2	375	376	13.0	93.9
2022-10-08T06:11	10	5	0.1	5	5	375	0.2	375	376	13.0	93.7
2022-10-08T06:12	10	5	0.1	5	5	375	0.2	375	376	12.9	93.5
2022-10-08T06:13	10	5	0.1	5	5	375	0.3	375	376	12.7	93.5
2022-10-08T06:14	10	5	0.1	5	5	375	0.2	375	376	12.6	94.0
2022-10-08T06:15	10	5	0.1	5	5	376	0.3	375	376	12.6	94.5
2022-10-08T06:16	10	5	0.1	5	5	375	0.2	375	376	12.6	94.9
2022-10-08T06:17	10	5	0.1	5	5	376	0.3	375	376	12.6	95.1
2022-10-08T06:18	10	5	0.1	5	5	376	0.2	375	376	12.7	95.2
2022-10-08T06:19	10	5	0.1	5	5	376	0.2	375	376	12.8	95.0
2022-10-08T06:20	10	5	0.1	5	5	376	0.3	375	377	12.7	94.9
2022-10-08T06:21	10	5	0.1	5	5	376	0.3	375	377	12.8	94.8
2022-10-08T06:22	10	5	0.0	5	5	376	0.2	376	377	12.7	94.8
2022-10-08T06:23	10	5	0.0	5	5	376	0.3	376	377	12.7	94.9
2022-10-08T06:24	10	5	0.1	5	6	377	0.2	376	377	12.7	95.0
2022-10-08T06:25	10	6	0.1	6	6	377	0.2	376	377	12.7	95.1
2022-10-08T06:26	10	6	0.1	6	6	377	0.2	376	377	12.7	95.2
2022-10-08T06:27	10	6	0.1	6	7	377	0.2	377	378	12.7	95.2
2022-10-08T06:28	10	7	0.2	7	7	377	0.2	377	378	12.7	95.1
2022-10-08T06:29	10	8	0.3	7	8	377	0.3	377	378	12.7	95.2
2022-10-08T06:30	10	9	0.3	8	9	377	0.2	377	378	12.7	95.2
2022-10-08T06:31	10	10	0.3	9	11	378	0.2	377	378	12.7	95.3
2022-10-08T06:32	10	11	0.3	10	11	378	0.2	377	378	12.8	95.3
2022-10-08T06:33	10	12	0.2	11	12	378	0.2	378	379	12.8	95.3
2022-10-08T06:34	10	12	0.1	12	12	378	0.2	378	379	12.7	95.1
2022-10-08T06:35	10	12	0.1	12	12	378	0.2	378	379	12.6	95.1
2022-10-08T06:36	10	12	0.1	12	12	378	0.2	378	379	12.6	95.3
2022-10-08T06:37	10	12	0.1	12	12	378	0.2	378	379	12.6	95.5
2022-10-08T06:38	10	12	0.1	12	12	379	0.2	378	379	12.6	95.5
2022-10-08T06:39	10	12	0.1	12	12	379	0.2	378	379	12.7	95.4
2022-10-08T06:40	10	11	0.0	11	12	379	0.2	378	379	12.7	95.1
2022-10-08T06:41	10	11	0.1	11	12	379	0.2	378	380	12.6	95.1
2022-10-08T06:42	10	11	0.1	11	11	379	0.2	378	380	12.6	95.2
2022-10-08T06:43	10	10	0.2	10	11	379	0.2	379	380	12.6	95.2
2022-10-08T06:44	10	10	0.2	10	10	379	0.2	378	380	12.6	95.3
2022-10-08T06:45	10	10	0.1	9	10	379	0.1	379	379	12.7	95.4
2022-10-08T06:46	10	9	0.2	9	9	379	0.3	379	380	12.7	95.3
2022-10-08T06:47	10	9	0.2	8	9	379	0.2	379	380	12.7	95.1
2022-10-08T06:48	10	8	0.1	8	8	379	0.3	379	380	12.7	95.0
2022-10-08T06:49	10	8	0.1	7	8	380	0.2	379	380	12.8	94.9
2022-10-08T06:50	10	7	0.1	7	8	379	0.2	379	380	12.7	94.8
2022-10-08T06:51	10	7	0.1	7	7	379	0.3	379	380	12.9	94.6
2022-10-08T06:52	10	7	0.1	7	7	379	0.3	379	380	12.9	94.0
2022-10-08T06:53	10	7	0.1	7	7	379	0.2	379	380	12.9	93.5
2022-10-08T06:54	10	7	0.1	7	7	379	0.3	379	380	12.8	93.9
2022-10-08T06:55	10	8	0.1	7	8	379	0.2	379	380	12.8	94.3
2022-10-08T06:56	10	8	0.1	8	8	379	0.2	379	380	12.9	94.3
2022-10-08T06:57	10	8	0.1	8	8	380	0.2	379	380	12.9	94.3
2022-10-08T06:58	10	8	0.1	8	8	380	0.3	379	380	12.9	94.2
2022-10-08T06:59	10	8	0.1	8	9	380	0.3	379	380	12.9	94.1
2022-10-08T07:00	10	9	0.1	8	9	380	0.2	379	380	12.9	94.1
2022-10-08T07:01	10	9	0.1	9	9	380	0.2	379	380	12.9	93.7
2022-10-08T07:02	10	9	0.1	9	9	380	0.2	379	380	12.9	93.1
2022-10-08T07:03	10	9	0.1	9	9	380	0.2	379	380	12.9	93.0
2022-10-08T07:04	10	9	0.1	9	9	380	0.3	379	380	12.9	93.1
2022-10-08T07:05	10	9	0.1	9	9	380	0.3	379	381	13.0	93.1
2022-10-08T07:06	10	9	0.1	9	9	380	0.2	379	380	13.0	92.8
2022-10-08T07:07	10	9	0.1	9	9	380	0.2	380	381	13.1	92.7
2022-10-08T07:08	10	9	0.1	9	9	381	0.2	380	381	13.0	92.5
2022-10-08T07:09	10	9	0.1	9	10	381	0.3	380	381	13.0	92.8
2022-10-08T07:10	10	9	0.1	9	10	381	0.2	380	381	12.9	93.4
2022-10-08T07:11	10	9	0.1	9	10	380	0.3	380	381	12.9	93.7
2022-10-08T07:12	10	9	0.1	9	9	381	0.3	380	381	12.9	93.9
2022-10-08T07:13	10	9	0.1	9	9	381	0.3	380	381	13.0	93.7
2022-10-08T07:14	10	9	0.1	8	9	381	0.4	380	382	13.0	93.6
2022-10-08T07:15	10	8	0.1	8	9	380	0.5	379	381	12.9	93.8
2022-10-08T07:16	10	8	0.1	8	8	380	0.5	379	381	12.9	94.1
2022-10-08T07:17	10	8	0.1	8	8	380	0.3	379	381	12.9	94.2
2022-10-08T07:18	10	8	0.1	8	8	380	0.2	380	381	12.9	94.2
2022-10-08T07:19	10	7	0.1	7	8	380	0.3	379	380	12.9	94.2
2022-10-08T07:20	10	7	0.1	7	7	380	0.2	379	381	13.0	94.2
2022-10-08T07:21	10	7	0.1	7	7	380	0.3	380	381	13.0	94.3
2022-10-08T07:22	10	7	0.1	7	7	381	0.2	380	381	13.0	94.3
2022-10-08T07:23	10	7	0.1	7	8	381	0.2	380	381	13.0	94.4
2022-10-08T07:24	10	8	0.1	7	8	381	0.2	380	381	13.0	94.4
2022-10-08T07:25	10	8	0.1	8	8	380	0.2	380	381	13.0	94.4
2022-10-08T07:26	10	8	0.2	8	9	380	0.2	380	381	13.0	94.2
2022-10-08T07:27	10	9	0.2	9	9	381	0.2	380	381	13.0	94.0
2022-10-08T07:28	10	10	0.2	9	10	381	0.2	380	381	13.0	93.9
2022-10-08T07:29	10	10	0.2	10	10	381	0.2	381	381	13.1	93.8
2022-10-08T07:30	10	11	0.2	10	11	382	0.3	381	382	13.1	93.8
2022-10-08T07:31	10	11	0.1	11	11	382	0.2	382	382	13.1	93.9
2022-10-08T07:32	10	11	0.1	11	12	382	0.2	382	383	13.1	94.2
2022-10-08T07:33	10	12	0.1	12	12	383	0.2	382	383	13.1	94.4
2022-10-08T07:34	10	12	0.1	12	12	383	0.2	382	383	13.1	94.7
2022-10-08T07:35	10	12	0.1	12	12	383	0.2	382	383	13.1	94.6
2022-10-08T07:36	10	12	0.1	12	12	383	0.2	382	383	13.1	94.5
2022-10-08T07:37	10	12	0.1	12	12	383	0.3	382	383	13.1	94.3
2022-10-08T07:38	10	11	0.2	11	12	382	0.2	382	383	13.1	94.2
2022-10-08T07:39	10	11	0.3	10	11	382	0.4	382	383	13.1	94.4
2022-10-08T07:40	10	10	0.2	10	10	382	0.3	381	383	13.1	94.4
2022-10-08T07:41	10	10	0.2	9	10	382	0.2	381	382	13.1	94.3
2022-10-08T07:42	10	9	0.1	9	9	382	0.2	381	382	13.1	94.3
2022-10-08T07:43	10	9	0.1	8	9	382	0.3	381	382	13.1	94.4
2022-10-08T07:44	10	8	0.1	8	9	381	1.1	379	383	13.1	94.7
2022-10-08T07:45	10	8	0.2	8	8	381	0.4	380	382	13.0	94.8
2022-10-08T07:46	10	7	0.1	7	8	380	0.2	380	381	12.9	94.8
2022-10-08T07:47	10	7	0.1	7	7	380	0.5	380	382	12.9	94.9
2022-10-08T07:48	10	7	0.1	6	7	381	0.4	380	382	13.0	94.9
2022-10-08T07:49	10	6	0.1	6	7	381	0.3	380	381	13.0	94.8
2022-10-08T07:50	10	6	0.1	6	6	381	0.3	380	381	13.0	94.8
2022-10-08T07:51	10	6	0.1	6	6	380	0.3	380	381	13.0	94.7
2022-10-08T07:52	10	6	0.1	6	6	380	0.2	380	381	13.0	94.8
2022-10-08T07:53	10	5	0.1	5	6	380	0.3	379	381	13.0	94.8
2022-10-08T07:54	10	5	0.2	5	5	380	0.2	379	380	13.0	94.8
2022-10-08T07:55	10	5	0.1	5	5	380	0.2	379	380	13.0	94.9
2022-10-08T07:56	10	4	0.2	4	5	379	0.2	379	380	13.0	95.2
2022-10-08T07:57	10	4	0.1	4	5	379	0.3	379	380	13.0	95.5
2022-10-08T07:58	10	4	0.1	4	4	379	0.2	379	380	13.0	95.8
2022-10-08T07:59	10	4	0.1	4	4	379	0.2	379	380	13.1	95.9
2022-10-08T08:00	10	4	0.1	4	4	380	0.2	379	380	13.1	95.9
2022-10-08T08:01	10	4	0.1	4	5	380	0.3	379	380	13.1	95.9
2022-10-08T08:02	10	5	0.1	4	5	380	0.2	379	380	13.1	96.0
2022-10-08T08:03	10	5	0.1	5	5	380	0.2	380	381	13.1	96.1
2022-10-08T08:04	10	5	0.1	5	6	381	0.2	380	381	13.1	96.1
2022-10-08T08:05	10	6	0.1	6	6	381	0.2	380	381	13.1	96.2
2022-10-08T08:06	10	6	0.2	6	6	381	0.2	380	381	13.1	96.2
2022-10-08T08:07	10	6	0.1	6	7	381	0.5	380	382	13.2	96.2
2022-10-08T08:08	10	7	0.1	6	7	381	0.2	381	382	13.3	96.0
2022-10-08T08:09	10	7	0.1	7	7	381	0.4	380	382	13.3	95.8
2022-10-08T08:10	10	7	0.1	7	7	381	0.2	380	381	13.4	95.7
2022-10-08T08:11	10	7	0.1	7	7	381	0.2	381	381	13.3	95.6
2022-10-08T08:12	10	7	0.1	7	7	381	0.3	380	382	13.3	95.8
2022-10-08T08:13	10	7	0.1	7	7	381	0.4	380	382	13.3	96.0
2022-10-08T08:14	10	7	0.1	7	7	381	0.3	380	381	13.3	96.2
2022-10-08T08:15	10	7	0.1	6	7	381	0.3	380	382	13.3	96.3
2022-10-08T08:16	10	7	0.1	6	7	381	0.2	380	381	13.3	96.3
2022-10-08T08:17	10	7	0.1	6	7	381	0.2	381	382	13.3	96.5
2022-10-08T08:18	10	7	0.1	6	7	381	0.2	380	381	13.3	96.8
2022-10-08T08:19	10	7	0.1	6	7	381	0.2	380	381	13.3	96.9
2022-10-08T08:20	10	7	0.1	7	7	381	0.2	380	381	13.4	96.9
2022-10-08T08:21	10	7	0.1	7	7	381	0.3	380	382	13.4	96.8
2022-10-08T08:22	10	7	0.1	7	7	382	0.3	381	382	13.4	96.8
2022-10-08T08:23	10	7	0.1	7	7	382	0.2	381	382	13.6	96.7
2022-10-08T08:24	10	7	0.1	7	7	381	0.2	381	382	13.7	96.3
2022-10-08T08:25	10	7	0.1	7	7	382	0.3	381	382	13.7	96.0
2022-10-08T08:26	10	7	0.1	7	7	382	0.3	381	383	13.7	95.9
2022-10-08T08:27	10	7	0.1	7	7	382	0.2	381	382	13.8	95.9
2022-10-08T08:28	10	7	0.1	7	8	382	0.3	382	383	13.8	95.8
2022-10-08T08:29	10	8	0.1	7	8	382	0.2	382	383	13.9	95.7
2022-10-08T08:30	10	8	0.1	8	8	383	0.2	382	383	13.8	95.4
2022-10-08T08:31	10	8	0.2	8	9	383	0.2	382	383	13.8	95.4
2022-10-08T08:32	10	9	0.2	9	9	383	0.2	382	383	13.8	95.4
2022-10-08T08:33	10	9	0.1	9	10	383	0.3	383	384	13.9	95.2
2022-10-08T08:34	10	10	0.1	9	10	383	0.2	383	384	13.9	95.0
2022-10-08T08:35	10	10	0.1	10	10	383	0.3	382	384	13.8	94.9
2022-10-08T08:36	10	10	0.1	10	10	383	0.2	382	383	13.7	95.3
2022-10-08T08:37	10	10	0.1	10	10	383	0.2	382	383	13.6	95.6
2022-10-08T08:38	10	10	0.1	10	10	383	0.3	382	383	13.6	95.9
2022-10-08T08:39	10	10	0.1	10	10	383	0.3	382	383	13.5	96.2
2022-10-08T08:40	10	10	0.1	10	10	382	0.2	382	383	13.5	96.5
2022-10-08T08:41	10	10	0.1	10	10	383	0.2	382	383	13.6	96.8
2022-10-08T08:42	10	10	0.1	10	10	383	0.4	382	384	13.6	96.9
2022-10-08T08:43	10	11	0.2	10	11	383	0.4	382	384	13.6	97.0
2022-10-08T08:44	10	11	0.2	11	11	384	0.4	383	384	13.6	97.1
2022-10-08T08:45	10	12	0.2	11	12	383	0.5	383	384	13.6	97.1
2022-10-08T08:46	10	12	0.2	12	13	384	0.2	383	384	13.6	97.2
2022-10-08T08:47	10	13	0.3	12	13	384	0.5	383	385	13.6	97.2
2022-10-08T08:48	10	14	0.2	13	14	384	0.3	383	385	13.6	97.3
2022-10-08T08:49	10	14	0.2	14	15	384	0.6	383	385	13.5	97.3
2022-10-08T08:50	10	15	0.2	15	15	384	0.5	383	385	13.4	97.3
2022-10-08T08:51	10	15	0.2	15	16	384	0.4	384	385	13.4	97.3
2022-10-08T08:52	10	16	0.2	16	16	385	0.4	384	385	13.4	97.4
2022-10-08T08:53	10	16	0.2	16	17	385	0.5	384	386	13.4	97.5
2022-10-08T08:54	10	17	0.1	17	17	385	0.5	384	386	13.4	97.6
2022-10-08T08:55	10	17	0.1	17	17	385	0.3	385	386	13.4	97.6
2022-10-08T08:56	10	17	0.1	17	17	385	0.2	385	386	13.4	97.6
2022-10-08T08:57	10	17	0.1	17	18	385	0.3	385	386	13.4	97.6
2022-10-08T08:58	10	18	0.1	17	18	386	0.3	385	386	13.4	97.7
2022-10-08T08:59	10	18	0.1	18	18	386	0.2	386	387	13.5	97.8
2022-10-08T09:00	10	18	0.1	18	18	386	0.3	386	387	13.5	97.8
2022-10-08T09:01	10	18	0.1	18	19	386	0.3	386	387	13.5	97.9
2022-10-08T09:02	10	19	0.1	19	19	386	0.4	386	387	13.5	97.9
2022-10-08T09:03	10	19	0.1	19	19	386	0.6	385	387	13.4	97.9
2022-10-08T09:04	10	19	0.1	19	20	386	0.2	386	386	13.4	97.9
2022-10-08T09:05	10	20	0.1	19	20	386	0.4	385	387	13.4	97.9
2022-10-08T09:06	10	20	0.1	20	20	386	0.2	386	387	13.5	97.9
2022-10-08T09:07	10	20	0.1	20	20	386	0.4	385	387	13.4	98.0
2022-10-08T09:08	10	20	0.1	20	20	387	0.3	386	387	13.5	98.0
2022-10-08T09:09	10	20	0.1	20	21	387	0.2	386	387	13.5	98.0
2022-10-08T09:10	10	20	0.1	20	21	387	0.3	386	387	13.4	97.9
2022-10-08T09:11	10	21	0.1	20	21	387	0.7	385	388	13.4	98.0
2022-10-08T09:12	10	21	0.1	21	21	387	0.5	386	388	13.4	98.0
2022-10-08T09:13	10	21	0.2	21	22	387	0.4	386	387	13.4	97.9
2022-10-08T09:14	10	22	0.1	21	22	387	0.5	386	388	13.4	97.9
2022-10-08T09:15	10	22	0.2	22	22	387	0.4	386	388	13.4	97.9
2022-10-08T09:16	10	22	0.2	22	23	387	0.4	387	388	13.4	97.9
2022-10-08T09:17	10	23	0.2	23	23	388	0.3	387	388	13.4	97.9
2022-10-08T09:18	10	24	0.3	23	24	388	0.3	387	389	13.5	97.9
2022-10-08T09:19	10	25	0.2	24	25	388	0.5	387	389	13.6	97.9
2022-10-08T09:20	10	25	0.1	25	25	389	0.6	387	389	13.6	97.9
2022-10-08T09:21	10	25	0.1	25	26	389	0.2	388	389	13.6	97.9
2022-10-08T09:22	10	25	0.1	25	26	388	0.2	388	389	13.5	97.8
2022-10-08T09:23	10	25	0.1	25	26	389	0.8	387	390	13.5	97.8
2022-10-08T09:24	10	25	0.1	25	26	389	0.4	388	390	13.6	97.9
2022-10-08T09:25	10	25	0.1	25	26	389	0.5	388	390	13.6	97.8
2022-10-08T09:26	10	25	0.1	25	26	389	0.5	388	390	13.7	97.9
2022-10-08T09:27	10	25	0.1	25	26	389	0.5	388	390	13.6	97.8
2022-10-08T09:28	10	25	0.2	24	25	389	0.8	388	391	13.7	97.8
2022-10-08T09:29	10	24	0.2	24	25	389	0.5	388	390	13.8	97.8
2022-10-08T09:30	10	23	0.2	23	24	389	0.5	388	391	13.8	97.7
2022-10-08T09:31	10	23	0.2	22	23	389	0.4	388	390	13.7	97.6
2022-10-08T09:32	10	22	0.1	22	23	389	0.3	388	389	13.8	97.5
2022-10-08T09:33	10	22	0.1	22	22	388	0.2	388	389	13.8	97.5
2022-10-08T09:34	10	22	0.1	22	22	389	0.3	388	389	13.8	97.5
2022-10-08T09:35	10	22	0.1	22	22	389	0.5	388	389	13.8	97.4
2022-10-08T09:36	10	22	0.1	22	22	389	0.2	389	389	13.9	97.5
2022-10-08T09:37	10	22	0.2	22	23	389	0.2	389	390	13.9	97.5
2022-10-08T09:38	10	23	0.2	22	23	390	0.2	389	390	13.9	97.4
2022-10-08T09:39	10	23	0.2	23	24	389	0.3	389	390	13.9	97.4
2022-10-08T09:40	10	24	0.2	24	24	389	0.2	389	390	13.9	97.3
2022-10-08T09:41	10	25	0.2	24	25	390	0.2	389	390	13.9	97.3
2022-10-08T09:42	10	25	0.2	25	25	390	0.3	390	391	13.9	97.2
2022-10-08T09:43	10	26	0.2	25	26	390	0.3	390	391	13.9	97.2
2022-10-08T09:44	10	27	0.2	26	27	391	0.3	390	391	14.0	97.2
2022-10-08T09:45	10	27	0.2	27	28	391	0.2	391	391	14.0	97.1
2022-10-08T09:46	10	28	0.3	28	29	391	0.3	390	392	14.1	97.2
2022-10-08T09:47	10	29	0.3	29	30	391	0.2	391	392	14.0	97.1
2022-10-08T09:48	10	30	0.4	30	31	392	0.2	391	392	14.0	97.0
2022-10-08T09:49	10	32	0.4	31	32	392	0.3	392	393	14.1	97.0
2022-10-08T09:50	10	33	0.3	32	34	393	0.2	393	394	14.2	97.0
2022-10-08T09:51	10	34	0.3	33	35	393	0.3	393	394	14.2	97.0
2022-10-08T09:52	10	35	0.2	34	35	394	0.4	393	394	14.1	96.9
2022-10-08T09:53	10	36	0.2	35	36	394	0.3	393	395	14.2	96.9
2022-10-08T09:54	10	36	0.1	36	36	395	0.2	394	395	14.2	96.7
2022-10-08T09:55	10	36	0.1	36	37	395	0.4	394	396	14.3	96.7
2022-10-08T09:56	10	37	0.1	36	37	395	0.2	394	395	14.3	96.7
2022-10-08T09:57	10	37	0.1	37	37	395	0.2	394	395	14.2	96.5
2022-10-08T09:58	10	37	0.1	37	37	395	0.3	394	395	14.2	96.5
2022-10-08T09:59	10	37	0.1	37	37	395	0.3	394	396	14.3	96.5
2022-10-08T10:00	10	37	0.1	37	37	395	0.3	394	396	14.3	96.7
2022-10-08T10:01	10	37	0.2	36	37	395	0.3	394	395	14.3	96.8
2022-10-08T10:02	10	36	0.2	36	36	394	0.4	394	395	14.2	96.8
2022-10-08T10:03	10	35	0.3	35	36	394	0.3	394	395	14.2	96.9
2022-10-08T10:04	10	34	0.3	34	35	394	0.4	393	394	14.1	97.0
2022-10-08T10:05	10	34	0.3	33	34	393	0.2	393	394	14.1	97.2
2022-10-08T10:06	10	33	0.3	32	33	393	0.2	393	394	14.2	97.3
2022-10-08T10:07	10	32	0.2	32	32	393	0.3	393	394	14.2	97.4
2022-10-08T10:08	10	31	0.1	31	32	393	0.3	392	393	14.2	97.4
2022-10-08T10:09	10	31	0.1	31	32	393	0.2	392	393	14.1	97.4
2022-10-08T10:10	10	32	0.1	31	32	393	0.3	392	393	14.3	97.5
2022-10-08T10:11	10	32	0.2	32	32	393	0.3	392	393	14.3	97.6
2022-10-08T10:12	10	33	0.2	32	33	392	0.2	392	393	14.2	97.5
2022-10-08T10:13	10	33	0.2	33	34	392	0.2	392	393	14.2	97.5
2022-10-08T10:14	10	34	0.3	34	35	393	0.2	392	393	14.3	97.5
2022-10-08T10:15	10	35	0.3	35	36	393	0.4	392	394	14.3	97.6
2022-10-08T10:16	10	37	0.3	36	37	394	0.3	393	394	14.4	97.7
2022-10-08T10:17	10	37	0.1	37	38	394	0.3	394	395	14.4	97.6
2022-10-08T10:18	10	37	0.1	37	38	395	0.3	394	395	14.4	97.6
2022-10-08T10:19	10	37	0.3	36	37	395	0.2	394	395	14.4	97.5
2022-10-08T10:20	10	36	0.2	36	37	395	0.3	394	396	14.6	97.1
2022-10-08T10:21	10	35	0.2	35	36	395	0.2	395	396	14.7	96.6
2022-10-08T10:22	10	35	0.1	35	35	396	0.3	395	396	14.7	96.2
2022-10-08T10:23	10	35	0.2	35	35	396	0.2	395	396	14.7	95.9
2022-10-08T10:24	10	36	0.3	35	36	396	0.2	395	396	14.8	95.8
2022-10-08T10:25	10	37	0.3	36	37	396	0.3	396	397	14.9	95.9
2022-10-08T10:26	10	37	0.2	37	38	397	0.3	396	398	14.9	95.8
2022-10-08T10:27	10	38	0.1	37	38	398	0.3	397	398	15.0	95.2
2022-10-08T10:28	10	38	0.2	38	38	398	0.4	397	398	15.1	94.4
2022-10-08T10:29	10	38	0.1	38	39	397	0.3	397	398	15.2	90.9
2022-10-08T10:30	10	39	0.2	38	39	397	0.2	397	398	15.3	88.6
2022-10-08T10:31	10	39	0.3	39	40	397	0.3	396	398	15.3	88.5
2022-10-08T10:32	10	41	0.4	40	41	397	0.2	397	398	15.3	88.6
2022-10-08T10:33	10	42	0.6	41	43	398	0.4	397	399	15.3	88.4
2022-10-08T10:34	10	44	0.6	43	45	399	0.7	397	400	15.3	89.1
2022-10-08T10:35	10	47	0.6	46	48	400	0.3	399	401	15.4	89.8
2022-10-08T10:36	10	48	0.5	48	50	400	0.4	399	401	15.5	88.3
2022-10-08T10:37	10	50	0.2	49	50	400	0.2	399	401	15.5	87.1
2022-10-08T10:38	10	49	0.2	49	50	401	0.5	400	402	15.6	87.3
2022-10-08T10:39	10	49	0.2	48	49	402	0.2	401	402	15.6	87.9
2022-10-08T10:40	10	48	0.3	48	49	402	0.4	401	403	15.7	87.7
2022-10-08T10:41	10	47	0.2	47	48	402	0.2	402	403	15.7	88.6
2022-10-08T10:42	10	47	0.2	46	47	402	0.3	402	403	15.7	88.3
2022-10-08T10:43	10	46	0.2	46	47	402	0.3	402	403	15.7	87.9
2022-10-08T10:44	10	46	0.4	45	46	402	0.2	402	403	15.7	88.5
2022-10-08T10:45	10	44	0.4	44	45	402	0.3	402	403	15.7	88.5
2022-10-08T10:46	10	43	0.4	42	44	403	0.4	402	403	15.8	89.1
2022-10-08T10:47	10	42	0.2	42	42	402	0.3	402	403	15.9	89.7
2022-10-08T10:48	10	41	0.2	41	42	402	0.3	401	403	15.9	88.3
2022-10-08T10:49	10	41	0.1	40	41	402	0.3	402	403	15.8	87.7
2022-10-08T10:50	10	41	0.1	41	41	402	0.2	402	403	15.8	87.5
2022-10-08T10:51	10	41	0.2	41	42	402	0.4	401	403	15.9	88.1
2022-10-08T10:52	10	42	0.2	42	42	402	0.2	401	402	15.8	87.7
2022-10-08T10:53	10	43	0.2	42	43	402	0.3	401	402	15.8	87.7
2022-10-08T10:54	10	43	0.1	43	43	402	0.3	401	403	15.8	87.5
2022-10-08T10:55	10	43	0.1	43	43	402	0.2	401	402	15.8	87.7
2022-10-08T10:56	10	43	0.1	43	43	402	0.2	402	403	15.9	88.3
2022-10-08T10:57	10	42	0.1	42	43	402	0.2	402	403	15.9	87.0
2022-10-08T10:58	10	42	0.1	42	42	402	0.3	401	402	15.9	87.1
2022-10-08T10:59	10	42	0.1	42	42	402	0.4	401	403	15.9	86.2
2022-10-08T11:00	10	42	0.1	42	42	401	0.3	401	402	16.0	83.2
2022-10-08T11:01	10	42	0.1	42	42	402	0.3	401	402	16.0	85.5
2022-10-08T11:02	10	42	0.1	42	42	402	0.2	401	402	16.0	85.3
2022-10-08T11:03	10	42	0.1	42	42	403	0.3	402	403	16.0	85.7
2022-10-08T11:04	10	42	0.1	42	42	402	0.3	402	403	16.0	84.3
2022-10-08T11:05	10	43	0.1	42	43	403	0.2	402	403	16.1	85.9
2022-10-08T11:06	10	43	0.1	43	43	403	0.3	402	403	16.0	84.0
2022-10-08T11:07	10	43	0.1	43	44	403	0.3	402	403	16.1	85.0
2022-10-08T11:08	10	43	0.1	43	44	403	0.2	403	404	16.1	84.1
2022-10-08T11:09	10	44	0.1	43	44	404	0.2	403	404	16.1	83.9
2022-10-08T11:10	10	44	0.1	44	44	404	0.2	403	404	16.1	84.1
2022-10-08T11:11	10	44	0.1	44	44	404	0.2	403	404	16.1	83.6
2022-10-08T11:12	10	44	0.2	44	45	404	0.3	403	404	16.1	84.5
2022-10-08T11:13	10	45	0.2	45	46	404	0.2	404	404	16.3	85.3
2022-10-08T11:14	10	46	0.3	46	47	404	0.2	404	405	16.3	82.3
2022-10-08T11:15	10	47	0.3	47	48	404	0.2	404	405	16.3	83.0
2022-10-08T11:16	10	48	0.3	48	49	405	0.3	404	406	16.3	83.4
2022-10-08T11:17	10	49	0.3	49	49	405	0.3	405	406	16.4	84.8
2022-10-08T11:18	10	50	0.2	49	50	405	0.3	405	406	16.2	84.3
2022-10-08T11:19	10	51	0.3	50	51	405	0.3	404	406	16.2	82.8
2022-10-08T11:20	10	52	0.5	51	53	406	0.4	405	406	16.2	83.3
2022-10-08T11:21	10	54	0.8	53	56	406	0.3	406	407	16.3	84.0
2022-10-08T11:22	10	57	0.8	56	59	407	0.5	406	408	16.3	84.8
2022-10-08T11:23	10	60	0.8	59	61	409	0.3	408	409	16.5	86.6
2022-10-08T11:24	10	62	0.6	61	63	409	0.3	409	410	16.5	86.6
2022-10-08T11:25	10	64	0.3	63	64	410	0.3	409	411	16.4	85.2
2022-10-08T11:26	10	64	0.1	64	64	410	0.8	409	411	16.5	85.0
2022-10-08T11:27	10	64	0.2	63	64	410	0.3	410	411	16.4	83.9
2022-10-08T11:28	10	63	0.2	62	63	410	0.3	410	411	16.4	84.6
2022-10-08T11:29	10	62	0.2	62	63	411	0.5	410	412	16.5	85.0
2022-10-08T11:30	10	63	0.1	63	63	411	0.2	411	412	16.4	84.0
2022-10-08T11:31	10	63	0.1	63	63	411	0.2	410	411	16.4	84.8
2022-10-08T11:32	10	63	0.1	62	63	411	0.4	410	412	16.4	85.3
2022-10-08T11:33	10	62	0.4	61	63	411	0.5	410	412	16.4	86.6
2022-10-08T11:34	10	61	0.4	60	61	410	0.3	410	411	16.3	85.2
2022-10-08T11:35	10	59	0.4	59	60	410	0.3	409	410	16.3	83.8
2022-10-08T11:36	10	58	0.3	58	59	409	1.3	407	412	16.3	85.2
2022-10-08T11:37	10	57	0.4	57	58	408	0.3	408	409	16.1	86.8
2022-10-08T11:38	10	56	0.3	56	57	408	0.6	407	409	16.1	87.7
2022-10-08T11:39	10	55	0.1	55	56	408	0.3	407	409	16.0	88.0
2022-10-08T11:40	10	55	0.1	55	55	408	0.6	407	410	16.2	88.4
2022-10-08T11:41	10	55	0.1	55	56	409	0.3	408	410	16.4	89.3
2022-10-08T11:42	10	56	0.3	55	56	408	0.4	407	409	16.0	87.8
2022-10-08T11:43	10	57	0.3	56	58	408	0.3	408	409	16.1	88.3
2022-10-08T11:44	10	58	0.2	57	58	408	0.5	407	409	16.1	88.7
2022-10-08T11:45	10	57	0.1	57	58	408	0.5	407	409	16.0	88.3
2022-10-08T11:46	10	57	0.3	56	57	409	0.5	408	410	16.1	87.9
2022-10-08T11:47	10	55	0.4	55	56	409	0.3	408	409	16.1	87.9
2022-10-08T11:48	10	54	0.4	53	55	409	0.4	408	410	16.1	88.2
2022-10-08T11:49	10	53	0.1	53	53	409	0.3	408	410	16.2	88.0
2022-10-08T11:50	10	53	0.1	53	54	409	0.3	408	409	16.3	88.0
2022-10-08T11:51	10	53	0.1	53	54	409	0.3	409	410	16.4	88.1
2022-10-08T11:52	10	53	0.2	52	53	409	0.3	409	410	16.3	87.7
2022-10-08T11:53	10	52	0.5	51	52	409	0.2	408	409	16.3	87.5
2022-10-08T11:54	10	49	0.8	48	51	408	0.3	407	409	16.2	86.0
2022-10-08T11:55	10	47	0.6	46	48	408	0.3	407	409	16.3	85.3
2022-10-08T11:56	10	45	0.4	44	46	408	0.3	407	408	16.3	84.8
2022-10-08T11:57	10	45	0.2	44	45	408	0.3	407	408	16.4	85.1
2022-10-08T11:58	10	45	0.2	44	45	408	0.3	407	408	16.4	84.8
2022-10-08T11:59	10	45	0.2	45	46	408	0.2	408	409	16.4	84.8
2022-10-08T12:00	10	46	0.2	45	46	408	0.2	408	409	16.5	85.5
2022-10-08T12:01	10	47	0.3	46	47	408	0.4	407	409	16.5	85.7
2022-10-08T12:02	10	48	0.7	47	52	408	0.3	407	409	16.5	85.5
2022-10-08T12:03	10	49	0.4	48	50	408	0.3	407	409	16.5	85.7
2022-10-08T12:04	10	50	0.4	50	51	408	0.2	408	409	16.7	85.9
2022-10-08T12:05	10	52	0.4	51	53	409	0.4	408	410	16.6	85.2
2022-10-08T12:06	10	53	0.5	52	54	408	0.3	408	409	16.5	84.0
2022-10-08T12:07	10	55	0.6	54	56	409	0.3	408	409	16.5	82.8
2022-10-08T12:08	10	57	0.8	56	59	410	0.4	409	411	16.5	83.5
2022-10-08T12:09	10	60	0.8	59	62	410	0.2	410	410	16.5	83.1
2022-10-08T12:10	10	63	0.8	62	64	411	0.3	410	411	16.5	82.1
2022-10-08T12:11	10	66	0.8	64	67	411	0.3	410	411	16.6	81.8
2022-10-08T12:12	10	70	3.6	67	79	411	0.5	410	413	16.6	81.3
2022-10-08T12:13	10	73	1.2	71	76	413	0.2	412	413	16.6	81.4
2022-10-08T12:14	10	77	2.1	75	81	413	0.6	412	414	16.8	82.3
2022-10-08T12:15	10	74	0.6	73	75	413	0.3	413	414	16.7	81.5
2022-10-08T12:16	10	76	5.5	73	90	414	0.4	413	415	16.6	81.1
2022-10-08T12:17	10	78	2.6	75	87	415	0.2	415	415	16.8	81.1
2022-10-08T12:18	10	76	1.6	73	79	415	0.5	413	416	16.7	81.1
2022-10-08T12:19	10	73	0.9	71	75	415	0.4	414	416	16.8	82.4
2022-10-08T12:20	10	67	2.1	64	70	414	0.5	413	415	16.8	81.2
2022-10-08T12:21	10	62	1.1	60	64	413	0.5	412	414	16.8	81.4
2022-10-08T12:22	10	59	0.9	57	60	412	0.5	411	413	16.8	81.4
2022-10-08T12:23	10	56	0.7	55	57	411	0.4	411	412	16.8	82.1
2022-10-08T12:24	10	54	0.5	53	55	411	0.3	411	412	16.8	82.3
2022-10-08T12:25	10	52	0.3	52	53	411	0.3	410	411	16.8	82.2
2022-10-08T12:26	10	52	0.2	51	52	411	0.7	409	412	16.7	82.5
2022-10-08T12:27	10	51	0.1	51	51	411	0.7	410	413	16.7	82.3
2022-10-08T12:28	10	51	0.1	51	51	411	0.2	410	411	16.6	82.1
2022-10-08T12:29	10	51	0.2	51	52	410	0.3	409	410	16.6	82.2
2022-10-08T12:30	10	52	0.2	52	53	410	0.2	409	410	16.6	82.2
2022-10-08T12:31	10	53	0.2	53	53	410	0.4	409	411	16.7	82.5
2022-10-08T12:32	10	53	0.1	53	53	410	0.3	409	411	16.6	82.0
2022-10-08T12:33	10	53	0.2	52	53	410	0.3	410	411	16.6	81.9
2022-10-08T12:34	10	52	0.4	51	52	411	0.3	410	411	16.7	82.2
2022-10-08T12:35	10	50	0.4	50	51	411	0.3	411	412	16.9	83.1
2022-10-08T12:36	10	49	0.4	48	50	411	0.6	410	412	16.8	82.2
2022-10-08T12:37	10	47	0.5	46	48	409	0.6	409	411	16.8	81.8
2022-10-08T12:38	10	45	0.5	44	46	409	0.3	408	410	16.7	80.1
2022-10-08T12:39	10	44	0.4	43	45	408	0.3	408	409	16.7	79.9
2022-10-08T12:40	10	42	0.5	41	43	408	0.4	407	409	16.7	79.5
2022-10-08T12:41	10	40	0.5	39	41	408	0.3	407	408	16.8	80.9
2022-10-08T12:42	10	39	0.3	38	40	407	0.4	406	408	16.8	80.7
2022-10-08T12:43	10	38	0.2	38	39	407	0.6	406	408	16.7	80.1
2022-10-08T12:44	10	38	0.1	38	38	408	0.2	407	408	16.8	81.0
2022-10-08T12:45	10	38	0.1	38	39	408	0.3	407	408	16.9	83.3
2022-10-08T12:46	10	38	0.1	38	39	407	0.5	406	408	16.8	83.9
2022-10-08T12:47	10	38	0.2	38	38	407	0.3	406	408	16.7	83.3
2022-10-08T12:48	10	37	0.2	37	38	406	0.4	405	407	16.6	83.4
2022-10-08T12:49	10	37	0.1	37	37	406	0.3	406	407	16.6	83.5
2022-10-08T12:50	10	37	0.1	37	37	406	0.2	405	406	16.6	83.7
2022-10-08T12:51	10	37	0.1	36	37	406	0.3	405	406	16.6	83.5
2022-10-08T12:52	10	37	0.1	37	37	406	0.3	405	406	16.6	83.5
2022-10-08T12:53	10	38	0.3	37	38	406	0.3	405	407	16.7	83.7
2022-10-08T12:54	10	39	0.4	38	40	406	0.3	406	407	16.7	84.3
2022-10-08T12:55	10	40	0.5	40	41	406	0.4	406	407	16.7	83.2
2022-10-08T12:56	10	42	0.5	41	43	407	0.3	406	407	16.6	82.4
2022-10-08T12:57	10	43	0.3	43	44	407	0.3	406	408	16.7	82.0
2022-10-08T12:58	10	44	0.1	44	44	408	0.2	407	408	16.7	81.8
2022-10-08T12:59	10	44	0.2	43	44	408	0.2	407	408	16.7	81.3
2022-10-08T13:00	10	43	0.3	42	43	408	0.2	408	409	16.8	80.9
2022-10-08T13:01	10	42	0.2	42	42	408	0.2	408	409	16.8	81.4
2022-10-08T13:02	10	42	0.1	41	42	408	0.2	408	409	16.8	81.8
2022-10-08T13:03	10	42	0.1	41	42	408	0.2	408	409	16.8	82.7
2022-10-08T13:04	10	42	0.1	41	42	408	0.3	407	408	16.8	83.0
2022-10-08T13:05	10	42	0.1	41	42	407	0.3	406	408	16.7	83.9
2022-10-08T13:06	10	41	0.1	41	42	407	0.2	406	407	16.7	84.4
2022-10-08T13:07	10	41	0.1	41	41	407	0.2	406	407	16.7	84.6
2022-10-08T13:08	10	41	0.1	41	41	407	0.3	407	408	16.7	84.7
2022-10-08T13:09	10	41	0.1	41	41	407	0.3	407	408	16.8	84.5
2022-10-08T13:10	10	41	0.1	41	41	407	0.3	406	408	16.7	84.2
2022-10-08T13:11	10	41	0.1	40	41	407	0.3	406	407	16.8	84.4
2022-10-08T13:12	10	41	0.1	41	41	407	0.3	406	408	16.8	83.8
2022-10-08T13:13	10	41	0.1	41	41	407	0.2	406	407	16.7	83.8
2022-10-08T13:14	10	41	0.1	41	42	407	0.2	406	407	16.7	83.3
2022-10-08T13:15	10	41	0.1	41	42	407	0.3	406	407	16.8	83.9
2022-10-08T13:16	10	41	0.1	41	41	408	0.3	407	408	16.8	83.4
2022-10-08T13:17	10	41	0.2	40	41	408	0.2	407	408	16.8	83.7
2022-10-08T13:18	10	40	0.3	39	40	407	0.2	407	407	16.8	83.4
2022-10-08T13:19	10	39	0.3	38	39	407	0.3	406	407	16.8	83.6
2022-10-08T13:20	10	37	0.4	37	38	407	0.4	407	408	16.8	83.4
2022-10-08T13:21	10	36	0.4	35	37	407	0.3	406	408	16.9	83.7
2022-10-08T13:22	10	35	0.4	34	35	408	0.3	407	408	17.0	85.0
2022-10-08T13:23	10	33	0.3	33	34	407	0.4	406	407	17.0	85.1
2022-10-08T13:24	10	32	0.3	32	33	406	0.7	404	407	16.9	84.3
2022-10-08T13:25	10	31	0.3	31	32	405	0.3	404	406	16.8	83.5
2022-10-08T13:26	10	30	0.3	30	31	404	0.2	404	405	16.8	83.8
2022-10-08T13:27	10	30	0.1	29	30	404	0.4	404	405	16.8	84.2
2022-10-08T13:28	10	29	0.1	29	30	404	0.3	403	404	16.8	83.6
2022-10-08T13:29	10	30	0.2	29	30	403	0.3	403	404	16.8	83.9
2022-10-08T13:30	10	31	0.3	30	31	403	0.3	403	404	16.8	83.2
2022-10-08T13:31	10	32	0.3	31	32	404	0.5	402	404	16.8	83.2
2022-10-08T13:32	10	33	0.4	32	33	403	0.2	403	404	16.8	82.8
2022-10-08T13:33	10	34	0.3	33	35	404	0.4	403	404	16.8	83.2
2022-10-08T13:34	10	35	0.2	34	35	404	0.3	403	405	16.8	83.5
2022-10-08T13:35	10	35	0.2	35	36	404	0.4	403	405	16.8	84.0
2022-10-08T13:36	10	36	0.2	36	36	405	0.3	404	406	16.8	83.6
2022-10-08T13:37	10	36	0.2	36	37	405	0.5	404	406	16.9	84.2
2022-10-08T13:38	10	37	0.1	37	37	405	0.3	404	406	16.9	84.5
2022-10-08T13:39	10	37	0.1	37	37	405	0.4	404	405	16.8	84.9
2022-10-08T13:40	10	37	0.1	37	37	404	0.2	403	404	16.7	83.9
2022-10-08T13:41	10	38	0.2	37	38	403	0.2	403	404	16.7	85.6
2022-10-08T13:42	10	39	0.3	38	39	404	0.4	403	405	16.6	86.0
2022-10-08T13:43	10	40	0.2	39	40	404	0.3	403	405	16.7	86.9
2022-10-08T13:44	10	40	0.1	40	40	404	0.5	403	405	16.6	87.5
2022-10-08T13:45	10	41	0.4	40	42	403	0.3	402	403	16.4	88.2
2022-10-08T13:46	10	42	0.2	42	43	402	0.4	402	403	16.3	89.1
2022-10-08T13:47	10	42	0.2	41	42	402	0.3	401	403	16.2	89.2
2022-10-08T13:48	10	41	0.3	40	41	403	0.6	401	404	16.3	89.3
2022-10-08T13:49	10	39	0.6	38	40	403	0.3	402	404	16.2	88.9
2022-10-08T13:50	10	36	1.0	35	38	402	0.5	402	403	16.2	88.3
2022-10-08T13:51	10	33	1.0	31	35	401	0.3	400	402	16.1	87.7
2022-10-08T13:52	10	30	0.8	28	31	401	0.2	401	402	16.2	88.7
2022-10-08T13:53	10	27	0.7	26	28	401	0.3	400	401	16.2	88.8
2022-10-08T13:54	10	25	0.7	23	26	400	0.3	399	401	16.1	88.2
2022-10-08T13:55	10	22	0.5	22	23	399	0.3	399	400	16.1	87.3
2022-10-08T13:56	10	21	0.3	21	22	398	0.4	398	399	16.0	87.0
2022-10-08T13:57	10	21	0.1	20	21	398	0.3	398	399	16.0	87.2
2022-10-08T13:58	10	21	0.1	20	21	398	0.3	397	398	16.0	87.2
2022-10-08T13:59	10	21	0.2	21	21	398	0.4	397	399	16.0	87.8
2022-10-08T14:00	10	21	0.1	21	22	398	0.4	397	399	15.9	87.9
2022-10-08T14:01	10	22	0.1	21	22	397	0.5	397	398	15.9	88.1
2022-10-08T14:02	10	22	0.1	22	22	398	0.4	397	399	16.0	89.1
2022-10-08T14:03	10	22	0.1	22	22	398	0.2	398	399	16.0	89.4
2022-10-08T14:04	10	22	0.2	21	22	398	0.3	398	399	15.9	88.7
2022-10-08T14:05	10	21	0.3	20	21	398	0.3	397	398	16.0	88.4
2022-10-08T14:06	10	19	0.4	19	20	397	0.2	397	397	16.0	88.1
2022-10-08T14:07	10	18	0.4	17	19	397	0.3	396	397	15.9	87.5
2022-10-08T14:08	10	17	0.3	16	17	396	0.3	396	397	15.9	87.1
2022-10-08T14:09	10	16	0.1	16	16	396	0.3	396	397	15.9	87.2
2022-10-08T14:10	10	16	0.1	16	16	396	0.3	395	397	15.9	86.1
2022-10-08T14:11	10	16	0.1	16	16	396	0.2	395	396	15.9	85.6
2022-10-08T14:12	10	16	0.1	16	16	395	0.3	394	396	15.9	85.2
2022-10-08T14:13	10	16	0.1	16	16	395	0.2	394	395	15.8	84.2
2022-10-08T14:14	10	16	0.1	16	16	394	0.3	394	395	15.8	84.3
2022-10-08T14:15	10	16	0.1	15	16	395	0.4	394	396	15.9	85.0
2022-10-08T14:16	10	15	0.2	15	15	395	0.3	395	396	15.9	85.4
2022-10-08T14:17	10	14	0.3	14	15	395	0.3	394	395	15.9	84.7
2022-10-08T14:18	10	13	0.3	13	14	394	0.3	394	395	15.9	85.2
2022-10-08T14:19	10	12	0.3	12	13	394	0.2	394	395	15.9	84.9
2022-10-08T14:20	10	11	0.2	11	12	394	0.5	393	395	15.8	84.7
2022-10-08T14:21	10	11	0.1	11	11	394	0.3	393	395	15.8	84.6
2022-10-08T14:22	10	11	0.1	10	11	394	0.3	393	394	15.8	83.3
2022-10-08T14:23	10	10	0.1	10	11	393	0.2	393	394	15.8	83.4
2022-10-08T14:24	10	10	0.1	10	10	393	0.4	392	394	15.8	82.8
2022-10-08T14:25	10	10	0.2	9	10	393	0.4	392	393	15.8	82.2
2022-10-08T14:26	10	9	0.2	9	9	392	0.3	392	393	15.8	81.8
2022-10-08T14:27	10	9	0.1	8	9	392	0.4	392	394	15.8	81.7
2022-10-08T14:28	10	9	0.1	8	9	392	0.2	392	393	15.7	82.3
2022-10-08T14:29	10	9	0.1	9	9	391	0.3	391	392	15.7	81.5
2022-10-08T14:30	10	9	0.1	9	9	390	0.6	389	391	15.6	81.5
2022-10-08T14:31	10	9	0.1	9	9	390	0.3	389	390	15.5	82.2
2022-10-08T14:32	10	9	0.1	9	9	389	0.2	389	390	15.4	82.6
2022-10-08T14:33	10	9	0.1	9	9	389	0.3	389	390	15.3	83.4
2022-10-08T14:34	10	9	0.1	8	9	389	0.4	388	390	15.3	83.4
2022-10-08T14:35	10	9	0.2	8	9	388	0.4	388	389	15.2	83.6
2022-10-08T14:36	10	9	0.2	8	9	388	0.3	387	389	15.1	84.5
2022-10-08T14:37	10	9	0.2	8	9	388	0.5	387	389	15.1	85.2
2022-10-08T14:38	10	9	0.2	9	10	388	0.3	388	389	15.1	85.1
2022-10-08T14:39	10	9	0.1	9	10	388	0.2	387	388	15.1	84.7
2022-10-08T14:40	10	9	0.1	9	9	388	0.2	388	389	15.1	84.7
2022-10-08T14:41	10	8	0.1	8	9	388	0.2	387	388	15.1	84.5
2022-10-08T14:42	10	8	0.1	8	8	388	0.3	387	388	15.0	85.3
2022-10-08T14:43	10	8	0.1	8	8	388	0.3	387	388	15.0	85.8
2022-10-08T14:44	10	9	0.2	8	9	388	0.3	387	388	15.1	84.8
2022-10-08T14:45	10	9	0.2	9	10	388	0.3	387	389	15.1	84.8
2022-10-08T14:46	10	10	0.2	10	10	388	0.3	387	389	15.0	85.6
2022-10-08T14:47	10	11	0.2	10	11	388	0.4	388	389	15.1	84.2
2022-10-08T14:48	10	12	0.2	11	12	388	0.2	388	389	15.1	84.3
2022-10-08T14:49	10	12	0.2	12	13	388	0.3	388	389	15.2	83.2
2022-10-08T14:50	10	13	0.2	13	13	388	0.3	388	389	15.2	83.0
2022-10-08T14:51	10	13	0.1	13	14	389	0.3	388	389	15.2	83.3
2022-10-08T14:52	10	14	0.1	13	14	389	0.2	388	389	15.2	83.2
2022-10-08T14:53	10	14	0.1	14	14	390	0.3	389	390	15.2	83.4
2022-10-08T14:54	10	14	0.1	13	14	390	0.3	389	390	15.2	83.6
2022-10-08T14:55	10	14	0.1	13	14	390	0.3	389	391	15.2	83.8
2022-10-08T14:56	10	14	0.1	13	14	390	0.2	390	391	15.3	83.1
2022-10-08T14:57	10	13	0.1	13	14	390	0.3	390	391	15.4	82.2
2022-10-08T14:58	10	13	0.2	12	13	390	0.2	389	391	15.4	81.5
2022-10-08T14:59	10	12	0.1	12	13	390	0.3	390	391	15.4	82.5
2022-10-08T15:00	10	12	0.1	12	12	390	0.3	390	391	15.4	82.5
2022-10-08T15:01	10	12	0.1	11	12	391	0.3	390	391	15.4	83.0
2022-10-08T15:02	10	12	0.1	11	12	391	0.2	390	391	15.3	83.3
2022-10-08T15:03	10	11	0.1	11	12	391	0.3	390	391	15.4	82.2
2022-10-08T15:04	10	11	0.1	11	12	390	0.4	389	391	15.5	81.4
2022-10-08T15:05	10	11	0.1	11	12	390	0.3	390	391	15.4	82.6
2022-10-08T15:06	10	11	0.1	11	12	391	0.2	390	391	15.5	81.4
2022-10-08T15:07	10	12	0.1	12	12	390	0.3	390	391	15.4	82.1
2022-10-08T15:08	10	12	0.1	12	12	391	0.3	390	391	15.4	82.5
2022-10-08T15:09	10	12	0.1	12	12	391	0.3	391	392	15.4	82.6
2022-10-08T15:10	10	12	0.1	12	12	391	0.3	390	392	15.4	81.7
2022-10-08T15:11	10	12	0.1	12	12	391	0.6	389	392	15.6	79.2
2022-10-08T15:12	10	12	0.2	12	13	390	0.4	390	391	15.7	78.8
2022-10-08T15:13	10	13	0.2	12	13	390	0.4	389	391	15.6	79.3
2022-10-08T15:14	10	13	0.2	13	13	390	0.3	390	391	15.6	79.3
2022-10-08T15:15	10	13	0.1	13	14	390	0.3	390	391	15.6	78.2
2022-10-08T15:16	10	14	0.1	13	14	390	0.3	389	391	15.6	78.1
2022-10-08T15:17	10	14	0.1	13	14	390	0.3	389	390	15.7	76.8
2022-10-08T15:18	10	13	0.1	13	14	389	0.3	388	390	15.7	76.8
2022-10-08T15:19	10	13	0.1	13	13	389	0.2	389	390	15.5	79.4
2022-10-08T15:20	10	13	0.1	13	13	389	0.5	389	390	15.6	77.7
2022-10-08T15:21	10	13	0.1	13	13	389	0.3	389	390	15.6	79.0
2022-10-08T15:22	10	13	0.1	13	14	389	0.3	389	390	15.6	78.7
2022-10-08T15:23	10	14	0.2	13	14	390	0.2	389	390	15.6	78.2
2022-10-08T15:24	10	15	0.3	14	15	390	0.3	389	390	15.6	77.5
2022-10-08T15:25	10	16	0.3	15	16	390	0.3	389	390	15.6	77.8
2022-10-08T15:26	10	17	0.5	16	18	390	0.3	389	390	15.6	77.5
2022-10-08T15:27	10	18	0.4	18	19	390	0.2	389	390	15.6	76.5
2022-10-08T15:28	10	20	0.4	19	20	390	0.3	389	390	15.6	77.0
2022-10-08T15:29	10	21	0.2	20	21	390	0.2	389	390	15.6	76.3
2022-10-08T15:30	10	21	0.1	21	22	390	0.3	389	391	15.6	76.1
2022-10-08T15:31	10	22	0.1	21	22	390	0.3	389	390	15.5	77.1
2022-10-08T15:32	10	22	0.1	21	22	390	0.3	389	390	15.6	76.4
2022-10-08T15:33	10	21	0.1	21	22	390	0.3	389	390	15.5	76.2
2022-10-08T15:34	10	22	0.2	21	22	389	0.2	389	390	15.6	76.0
2022-10-08T15:35	10	22	0.2	22	23	389	0.4	389	390	15.6	75.3
2022-10-08T15:36	10	23	0.2	23	23	389	0.2	389	390	15.6	75.2
2022-10-08T15:37	10	23	0.2	23	24	389	0.2	389	390	15.6	75.7
2022-10-08T15:38	10	24	0.5	24	26	389	0.3	389	390	15.5	76.2
2022-10-08T15:39	10	27	0.6	26	28	390	0.3	389	390	15.5	76.3
2022-10-08T15:40	10	28	0.1	28	28	390	0.2	389	390	15.6	75.5
2022-10-08T15:41	10	28	0.1	27	28	390	0.2	389	390	15.5	75.9
2022-10-08T15:42	10	27	0.1	27	28	390	0.4	389	391	15.5	75.7
2022-10-08T15:43	10	27	0.3	26	27	390	0.3	389	390	15.5	75.9
2022-10-08T15:44	10	25	0.6	24	26	390	0.2	390	391	15.6	74.6
2022-10-08T15:45	10	23	0.5	22	24	390	0.3	389	390	15.6	74.0
2022-10-08T15:46	10	21	0.5	20	22	389	0.2	389	390	15.6	74.6
2022-10-08T15:47	10	20	0.4	19	20	389	0.2	389	389	15.6	74.1
2022-10-08T15:48	10	19	0.2	18	19	389	0.2	389	390	15.6	74.7
2022-10-08T15:49	10	18	0.2	18	18	389	0.3	388	390	15.5	74.9
2022-10-08T15:50	10	17	0.2	17	18	389	0.3	389	390	15.6	73.7
2022-10-08T15:51	10	17	0.1	17	17	389	0.2	388	390	15.6	72.6
2022-10-08T15:52	10	17	0.1	17	17	389	0.4	388	389	15.6	73.3
2022-10-08T15:53	10	17	0.1	17	17	389	0.3	388	389	15.5	74.5
2022-10-08T15:54	10	17	0.1	17	17	388	0.5	388	389	15.6	72.9
2022-10-08T15:55	10	18	0.1	17	18	389	0.3	388	389	15.6	72.9
2022-10-08T15:56	10	18	0.2	18	19	389	0.3	388	389	15.5	73.2
2022-10-08T15:57	10	19	0.2	18	19	388	0.3	388	389	15.5	72.5
2022-10-08T15:58	10	19	0.1	19	19	388	0.2	388	389	15.5	72.4
2022-10-08T15:59	10	19	0.1	19	19	389	0.2	388	389	15.6	71.2
2022-10-08T16:00	10	19	0.1	19	19	388	0.2	388	389	15.5	72.5
2022-10-08T16:01	10	19	0.1	19	19	389	0.3	388	389	15.5	72.7
2022-10-08T16:02	10	19	0.2	19	19	389	0.3	388	389	15.6	71.0
2022-10-08T16:03	10	18	0.4	18	19	389	0.3	388	389	15.5	70.8
2022-10-08T16:04	10	17	0.2	17	18	389	0.4	388	390	15.5	70.5
2022-10-08T16:05	10	17	0.1	16	17	389	0.3	388	389	15.5	71.2
2022-10-08T16:06	10	16	0.1	16	17	388	0.3	387	389	15.6	69.8
2022-10-08T16:07	10	16	0.1	16	16	388	0.6	386	389	15.8	64.4
2022-10-08T16:08	10	16	0.3	15	16	387	0.4	386	387	15.7	65.8
2022-10-08T16:09	10	15	0.2	15	15	387	0.3	386	387	15.7	67.3
2022-10-08T16:10	10	15	0.1	14	15	387	0.3	386	387	15.8	63.6
2022-10-08T16:11	10	14	0.2	14	15	386	0.3	386	387	15.8	64.3
2022-10-08T16:12	10	14	0.1	13	14	386	1.1	384	388	15.8	64.7
2022-10-08T16:13	10	13	0.2	13	14	386	0.3	386	387	15.7	66.0
2022-10-08T16:14	10	13	0.2	12	13	386	0.5	385	387	15.8	63.7
2022-10-08T16:15	10	12	0.1	12	12	385	0.4	384	385	15.7	65.0
2022-10-08T16:16	10	12	0.1	12	12	384	0.2	384	385	15.7	65.1
2022-10-08T16:17	10	12	0.1	11	12	384	0.3	383	385	15.6	66.9
2022-10-08T16:18	10	11	0.1	11	12	384	0.3	384	385	15.5	67.9
2022-10-08T16:19	10	11	0.1	11	11	384	0.4	383	385	15.6	66.1
2022-10-08T16:20	10	11	0.1	11	11	384	0.2	383	384	15.5	66.9
2022-10-08T16:21	10	11	0.1	10	11	383	0.5	382	384	15.4	67.7
2022-10-08T16:22	10	10	0.1	10	10	383	0.2	382	383	15.4	67.8
2022-10-08T16:23	10	10	0.4	10	13	383	0.2	382	383	15.5	67.5
2022-10-08T16:24	10	10	0.1	10	10	383	0.3	382	383	15.6	66.7
2022-10-08T16:25	10	10	0.1	9	10	383	0.3	382	383	15.5	67.1
2022-10-08T16:26	10	9	0.2	9	10	382	0.3	381	383	15.4	67.7
2022-10-08T16:27	10	9	0.1	9	9	382	0.3	381	382	15.4	67.7
2022-10-08T16:28	10	9	0.1	8	9	382	0.2	381	382	15.4	67.7
2022-10-08T16:29	10	9	0.1	8	9	381	0.3	381	382	15.4	67.7
2022-10-08T16:30	10	9	0.1	8	9	381	0.3	381	382	15.4	67.7
2022-10-08T16:31	10	8	0.1	8	8	381	0.2	380	381	15.3	68.4
2022-10-08T16:32	10	8	0.1	7	8	380	0.3	380	381	15.2	69.6
2022-10-08T16:33	10	7	0.1	7	8	380	0.4	380	381	15.2	69.7
2022-10-08T16:34	10	7	0.1	7	7	380	0.3	379	381	15.4	67.4
2022-10-08T16:35	10	6	0.2	6	7	379	0.3	379	380	15.1	69.7
2022-10-08T16:36	10	6	0.1	6	6	379	0.3	378	379	15.2	69.4
2022-10-08T16:37	10	5	0.2	5	6	379	0.2	379	380	15.3	66.9
2022-10-08T16:38	10	5	0.2	5	5	379	0.3	378	379	15.2	66.9
2022-10-08T16:39	10	4	0.2	4	5	378	0.4	378	379	15.1	67.8
2022-10-08T16:40	10	4	0.1	4	4	378	0.4	377	379	15.0	68.9
2022-10-08T16:41	10	4	0.1	3	4	378	0.3	377	378	15.1	68.2
2022-10-08T16:42	10	3	0.1	3	3	378	0.2	377	378	15.1	68.4
2022-10-08T16:43	10	3	0.1	3	3	377	0.3	377	378	15.1	68.3
2022-10-08T16:44	10	3	0.1	3	3	377	0.2	376	377	14.9	69.8
2022-10-08T16:45	10	3	0.1	3	3	377	0.5	376	378	15.0	69.0
2022-10-08T16:46	10	3	0.1	2	3	377	0.4	376	378	15.0	68.1
2022-10-08T16:47	10	2	0.1	2	3	378	0.3	377	378	15.0	67.2
2022-10-08T16:48	10	2	0.1	2	3	377	0.5	377	379	14.9	67.8
2022-10-08T16:49	10	2	0.1	2	2	378	0.4	377	378	14.9	67.9
2022-10-08T16:50	10	2	0.1	2	2	378	0.3	377	379	15.0	66.5
2022-10-08T16:51	10	2	0.1	2	2	378	0.5	377	379	15.0	66.9
2022-10-08T16:52	10	2	0.1	2	2	378	0.2	377	378	14.8	68.5
2022-10-08T16:53	10	2	0.0	2	2	378	0.3	377	378	14.9	67.8
2022-10-08T16:54	10	2	0.1	1	2	378	0.2	378	379	15.0	66.4
2022-10-08T16:55	10	2	0.1	1	2	378	0.3	377	378	14.9	67.5
2022-10-08T16:56	10	2	0.1	1	2	377	0.3	377	378	14.9	68.3
2022-10-08T16:57	10	2	0.1	2	2	378	0.3	377	378	14.8	68.9
2022-10-08T16:58	10	2	0.1	2	2	378	0.3	377	378	14.8	68.7
2022-10-08T16:59	10	2	0.1	2	2	378	0.2	377	378	14.8	68.9
2022-10-08T17:00	10	2	0.1	2	2	378	0.5	376	379	14.8	68.6
2022-10-08T17:01	10	2	0.1	2	2	378	0.2	377	379	14.7	69.9
2022-10-08T17:02	10	2	0.1	2	2	378	0.2	377	378	14.7	70.1
2022-10-08T17:03	10	2	0.1	2	2	378	0.2	377	378	14.6	70.1
2022-10-08T17:04	10	2	0.0	2	2	377	0.2	377	378	14.6	70.7
2022-10-08T17:05	10	2	0.1	2	2	377	0.2	377	378	14.6	70.2
2022-10-08T17:06	10	2	0.1	1	2	377	0.3	376	377	14.6	70.1
2022-10-08T17:07	10	2	0.1	1	2	376	0.3	376	377	14.6	70.6
2022-10-08T17:08	10	2	0.1	1	2	376	0.4	375	377	14.6	70.3
2022-10-08T17:09	10	1	0.1	1	2	376	0.5	375	377	14.5	70.9
2022-10-08T17:10	10	1	0.1	1	1	376	0.2	375	376	14.4	71.4
2022-10-08T17:11	10	1	0.1	1	1	376	0.3	375	376	14.6	70.2
2022-10-08T17:12	10	1	0.1	0	1	376	0.3	375	376	14.5	70.7
2022-10-08T17:13	10	1	0.1	0	1	376	0.2	375	376	14.5	71.1
2022-10-08T17:14	10	0	0.1	0	1	376	0.2	375	376	14.5	70.5
2022-10-08T17:15	10	0	0.1	0	1	376	0.2	375	376	14.5	70.6
2022-10-08T17:16	10	0	0.1	0	0	376	0.2	375	376	14.5	70.9
2022-10-08T17:17	10	0	0.0	0	0	376	0.3	375	376	14.5	70.8
2022-10-08T17:18	10	0	0.1	0	0	376	0.3	375	376	14.4	71.5
2022-10-08T17:19	10	0	0.1	0	0	375	0.2	375	376	14.4	71.6
2022-10-08T17:20	10	0	0.1	0	0	376	0.3	375	376	14.5	70.9
2022-10-08T17:21	10	0	0.1	0	0	375	0.3	374	376	14.6	70.2
2022-10-08T17:22	10	0	0.1	0	1	375	0.3	375	376	14.6	69.3
2022-10-08T17:23	10	0	0.0	0	1	375	0.3	375	376	14.6	69.5
2022-10-08T17:24	10	0	0.1	0	0	375	0.4	374	376	14.4	70.4
2022-10-08T17:25	10	0	0.1	0	0	375	0.3	374	375	14.4	71.4
2022-10-08T17:26	10	0	0.1	0	1	375	0.2	374	375	14.4	71.1
2022-10-08T17:27	10	0	0.1	0	1	374	0.2	374	375	14.4	71.5
2022-10-08T17:28	10	0	0.1	0	0	375	0.3	374	375	14.4	71.4
2022-10-08T17:29	10	0	0.1	0	0	375	0.2	374	375	14.4	71.0
2022-10-08T17:30	10	0	0.1	0	0	375	0.3	374	375	14.3	72.1
2022-10-08T17:31	10	0	0.1	0	0	375	0.3	374	375	14.4	70.6
2022-10-08T17:32	10	0	0.1	0	1	374	0.2	374	375	14.3	71.8
2022-10-08T17:33	10	0	0.1	0	1	374	0.3	374	375	14.4	71.6
2022-10-08T17:34	10	0	0.1	0	1	374	0.2	374	375	14.4	71.7
2022-10-08T17:35	10	0	0.1	0	1	374	0.2	373	374	14.4	71.3
2022-10-08T17:36	10	0	0.1	0	1	374	0.2	373	374	14.3	71.8
2022-10-08T17:37	10	0	0.1	0	1	374	0.2	374	374	14.2	73.0
2022-10-08T17:38	10	0	0.1	0	1	374	0.3	374	375	14.3	71.7
2022-10-08T17:39	10	0	0.1	0	1	375	0.4	374	376	14.2	72.3
2022-10-08T17:40	10	0	0.1	0	1	375	0.4	375	376	14.3	72.4
2022-10-08T17:41	10	0	0.1	0	1	376	0.4	375	377	14.3	71.2
2022-10-08T17:42	10	0	0.1	0	1	376	0.4	376	377	14.2	72.4
2022-10-08T17:43	10	0	0.1	0	1	377	0.3	376	377	14.3	71.4
2022-10-08T17:44	10	0	0.2	0	1	377	0.4	376	378	14.3	70.8
2022-10-08T17:45	10	0	0.1	0	1	377	0.3	377	378	14.4	70.6
2022-10-08T17:46	10	0	0.2	0	1	377	0.2	377	378	14.3	71.3
2022-10-08T17:47	10	0	0.1	0	1	378	0.3	377	378	14.4	70.4
2022-10-08T17:48	10	0	0.1	0	1	377	0.3	377	378	14.4	70.5
2022-10-08T17:49	10	0	0.2	0	1	377	0.3	377	378	14.3	71.7
2022-10-08T17:50	10	1	0.2	0	1	377	0.3	377	378	14.3	71.9
2022-10-08T17:51	10	1	0.1	1	1	377	0.3	377	378	14.2	72.1
2022-10-08T17:52	10	1	0.2	1	1	377	0.3	376	378	14.2	72.4
2022-10-08T17:53	10	1	0.2	1	1	377	0.3	376	378	14.2	73.0
2022-10-08T17:54	10	1	0.2	1	1	377	0.3	377	378	14.2	73.8
2022-10-08T17:55	10	1	0.1	1	1	377	0.2	377	377	14.1	75.0
2022-10-08T17:56	10	1	0.2	1	1	377	0.3	376	378	13.9	77.5
2022-10-08T17:57	10	1	0.2	1	2	377	0.3	377	378	13.8	78.1
2022-10-08T17:58	10	1	0.2	1	1	377	0.2	377	378	13.7	79.3
2022-10-08T17:59	10	1	0.4	0	4	378	0.3	377	378	13.8	78.0
2022-10-08T18:00	10	1	0.2	1	1	378	0.3	377	379	13.9	77.6
2022-10-08T18:01	10	1	0.1	1	1	378	0.2	377	378	13.9	77.8
2022-10-08T18:02	10	1	0.2	0	1	378	0.3	377	378	13.7	79.2
2022-10-08T18:03	10	1	0.2	1	1	378	0.2	377	378	13.7	80.8
2022-10-08T18:04	10	1	0.1	0	1	378	0.2	377	379	13.8	78.7
2022-10-08T18:05	10	1	0.1	1	1	378	0.2	377	378	13.9	78.1
2022-10-08T18:06	10	1	0.1	0	1	378	0.2	378	379	14.0	76.6
2022-10-08T18:07	10	1	0.1	0	1	379	0.2	378	379	14.0	76.7
2022-10-08T18:08	10	1	0.1	1	1	379	0.2	379	379	14.0	76.6
2022-10-08T18:09	10	1	0.1	1	1	379	0.3	378	380	14.0	76.6
2022-10-08T18:10	10	1	0.2	0	1	379	0.3	378	379	13.9	78.1
2022-10-08T18:11	10	1	0.2	0	1	379	0.3	379	380	13.9	78.6
2022-10-08T18:12	10	1	0.2	1	1	379	0.2	378	379	13.6	81.4
2022-10-08T18:13	10	1	0.1	1	1	379	0.3	378	380	13.6	81.1
2022-10-08T18:14	10	1	0.1	1	1	379	0.3	379	380	13.9	78.7
2022-10-08T18:15	10	1	0.1	1	1	379	0.2	379	380	13.9	78.3
2022-10-08T18:16	10	1	0.1	1	1	380	0.3	379	380	13.9	78.6
2022-10-08T18:17	10	1	0.1	1	1	380	0.2	379	380	13.9	78.5
2022-10-08T18:18	10	1	0.1	1	1	380	0.2	380	381	13.9	78.8
2022-10-08T18:19	10	1	0.1	1	1	380	0.2	380	380	14.0	78.9
2022-10-08T18:20	10	1	0.1	1	1	380	0.3	380	381	14.0	79.0
2022-10-08T18:21	10	1	0.2	1	2	380	0.3	379	381	13.8	79.9
2022-10-08T18:22	10	1	0.2	1	1	380	0.3	379	381	13.8	80.7
2022-10-08T18:23	10	1	0.1	0	1	380	0.3	380	381	14.0	79.8
2022-10-08T18:24	10	1	0.1	0	1	380	0.3	380	381	14.1	79.0
2022-10-08T18:25	10	1	0.1	0	1	380	0.4	379	381	14.1	78.9
2022-10-08T18:26	10	1	0.1	0	1	380	0.2	379	380	14.3	78.3
2022-10-08T18:27	10	1	0.1	0	1	380	0.3	379	380	14.2	78.3
2022-10-08T18:28	10	1	0.1	0	1	379	0.2	379	380	14.3	76.8
2022-10-08T18:29	10	0	0.1	0	1	379	0.3	379	380	14.3	76.5
2022-10-08T18:30	10	1	0.2	0	1	379	0.2	379	380	14.4	76.2
2022-10-08T18:31	10	1	0.1	0	1	379	0.3	378	379	14.3	76.5
2022-10-08T18:32	10	1	0.1	0	1	379	0.3	378	380	14.4	74.7
2022-10-08T18:33	10	1	0.1	0	1	379	0.3	378	380	14.4	73.6
2022-10-08T18:34	10	1	0.1	0	1	379	0.3	378	380	14.4	73.4
2022-10-08T18:35	10	1	0.1	0	1	379	0.4	378	380	14.4	72.8
2022-10-08T18:36	10	1	0.1	0	1	379	0.2	379	380	14.4	73.1
2022-10-08T18:37	10	1	0.1	0	1	379	0.3	378	380	14.4	73.0
2022-10-08T18:38	10	1	0.1	0	1	379	0.2	378	379	14.4	73.2
2022-10-08T18:39	10	0	0.1	0	1	379	0.2	378	379	14.4	73.2
2022-10-08T18:40	10	1	0.4	0	3	378	0.3	378	379	14.3	74.2
2022-10-08T18:41	10	1	0.1	0	1	379	0.1	378	379	14.3	73.9
2022-10-08T18:42	10	0	0.1	0	1	379	0.2	378	379	14.3	73.3
2022-10-08T18:43	10	1	0.3	0	3	378	0.3	378	379	14.3	73.7
2022-10-08T18:44	10	0	0.1	0	1	378	0.2	378	379	14.2	74.3
2022-10-08T18:45	10	0	0.1	0	1	378	0.3	378	379	14.2	74.9
2022-10-08T18:46	10	0	0.1	0	1	378	0.3	378	379	14.1	75.7
2022-10-08T18:47	10	0	0.1	0	1	378	0.2	377	378	14.1	76.9
2022-10-08T18:48	10	0	0.1	0	0	378	0.2	377	378	14.1	77.3
2022-10-08T18:49	10	0	0.1	0	0	378	0.3	378	379	14.1	76.9
2022-10-08T18:50	10	0	0.1	0	1	378	0.3	378	379	14.1	76.0
2022-10-08T18:51	10	0	0.1	0	0	378	0.2	378	379	14.0	76.9
2022-10-08T18:52	10	0	0.1	0	1	378	0.3	377	379	14.0	76.5
2022-10-08T18:53	10	0	0.1	0	0	378	0.3	377	379	14.0	76.5
2022-10-08T18:54	10	0	0.0	0	0	378	0.2	378	379	14.0	76.2
2022-10-08T18:55	10	0	0.1	0	0	378	0.2	377	378	13.9	76.4
2022-10-08T18:56	10	0	0.1	0	0	378	0.2	378	379	13.9	75.9
2022-10-08T18:57	10	0	0.1	0	0	378	0.2	377	378	14.0	74.3
2022-10-08T18:58	10	0	0.1	0	0	378	0.3	377	378	14.0	72.7
2022-10-08T18:59	10	0	0.1	0	0	378	0.2	377	378	14.1	71.5
2022-10-08T19:00	10	0	0.1	0	0	377	0.2	377	378	14.1	71.6
2022-10-08T19:01	10	0	0.1	0	0	377	0.3	376	378	14.0	71.6
2022-10-08T19:02	10	0	0.1	0	0	377	0.2	377	377	14.0	72.1
2022-10-08T19:03	10	0	0.1	0	0	377	0.2	376	377	13.9	72.7
2022-10-08T19:04	10	0	0.1	0	0	377	0.2	376	377	13.9	72.3
2022-10-08T19:05	10	0	0.0	0	0	377	0.2	376	377	13.9	72.2
2022-10-08T19:06	10	0	0.1	0	0	377	0.3	376	377	13.9	71.9
2022-10-08T19:07	10	0	0.1	0	0	377	0.3	376	377	13.9	71.8
2022-10-08T19:08	10	0	0.1	0	0	377	0.3	376	377	13.9	72.1
2022-10-08T19:09	10	0	0.0	0	0	377	0.2	376	377	13.9	71.9
2022-10-08T19:10	10	0	0.1	0	0	376	0.2	376	377	13.9	71.7
2022-10-08T19:11	10	0	0.1	0	0	376	0.2	376	377	13.9	72.2
2022-10-08T19:12	10	0	0.1	0	0	376	0.2	376	377	13.9	72.5
2022-10-08T19:13	10	0	0.1	0	0	376	0.2	376	377	13.9	73.0
2022-10-08T19:14	10	0	0.1	0	0	377	0.3	376	377	13.9	73.1
2022-10-08T19:15	10	0	0.1	0	0	376	0.3	376	377	13.9	73.5
2022-10-08T19:16	10	0	0.1	0	0	376	0.4	376	377	13.8	74.0
2022-10-08T19:17	10	0	0.1	0	0	376	0.3	376	377	13.9	73.5
2022-10-08T19:18	10	0	0.1	0	0	376	0.3	376	377	13.9	74.1
2022-10-08T19:19	10	0	0.1	0	0	376	0.2	376	377	13.9	73.9
2022-10-08T19:20	10	0	0.1	0	0	376	0.2	376	377	13.9	74.3
2022-10-08T19:21	10	0	0.0	0	0	376	0.3	376	377	13.9	74.7
2022-10-08T19:22	10	0	0.1	0	0	376	0.3	376	377	13.9	74.8
2022-10-08T19:23	10	0	0.1	0	0	376	0.2	376	377	13.8	75.5
2022-10-08T19:24	10	0	0.1	0	0	377	0.3	376	377	13.8	75.7
2022-10-08T19:25	10	0	0.1	0	0	376	0.3	376	377	13.8	75.7
2022-10-08T19:26	10	0	0.1	0	0	377	0.2	376	377	13.8	75.9
2022-10-08T19:27	10	0	0.1	0	0	377	0.3	376	377	13.8	75.7
2022-10-08T19:28	10	0	0.1	0	0	376	0.3	376	377	13.8	76.0
2022-10-08T19:29	10	0	0.1	0	0	376	0.2	376	377	13.8	76.4
2022-10-08T19:30	10	0	0.1	0	0	376	0.2	376	377	13.8	76.1
2022-10-08T19:31	10	0	0.1	0	0	376	0.2	376	377	13.8	76.6
2022-10-08T19:32	10	0	0.1	0	0	376	0.3	376	377	13.8	76.9
2022-10-08T19:33	10	0	0.1	0	0	376	0.2	376	377	13.8	76.8
2022-10-08T19:34	10	0	0.1	0	0	376	0.3	376	377	13.8	76.8
2022-10-08T19:35	10	0	0.1	0	0	376	0.3	376	377	13.8	76.8
2022-10-08T19:36	10	0	0.1	0	0	376	0.3	376	377	13.8	77.0
2022-10-08T19:37	10	0	0.1	0	0	376	0.3	376	377	13.8	77.3
2022-10-08T19:38	10	0	0.1	0	0	376	0.3	376	377	13.8	77.6
2022-10-08T19:39	10	0	0.1	0	0	376	0.3	376	377	13.8	77.6
2022-10-08T19:40	10	0	0.1	0	0	376	0.2	376	377	13.7	78.0
2022-10-08T19:41	10	0	0.1	0	0	376	0.2	376	376	13.8	77.7
2022-10-08T19:42	10	0	0.1	0	0	376	0.3	376	377	13.8	77.7
2022-10-08T19:43	10	0	0.1	0	0	376	0.3	375	376	13.7	78.1
2022-10-08T19:44	10	0	0.1	0	0	376	0.3	375	376	13.7	78.3
2022-10-08T19:45	10	0	0.1	0	0	376	0.2	375	376	13.7	78.2
2022-10-08T19:46	10	0	0.1	0	0	376	0.3	375	376	13.7	78.9
2022-10-08T19:47	10	0	0.1	0	0	376	0.2	375	376	13.7	78.7
2022-10-08T19:48	10	0	0.1	0	0	376	0.3	375	377	13.7	78.8
2022-10-08T19:49	10	0	0.1	0	0	376	0.3	375	376	13.7	78.7
2022-10-08T19:50	10	0	0.0	0	0	376	0.2	375	376	13.7	78.6
2022-10-08T19:51	10	0	0.1	0	0	376	0.2	375	376	13.7	78.8
2022-10-08T19:52	10	0	0.1	0	0	375	0.2	375	376	13.7	79.0
2022-10-08T19:53	10	0	0.1	0	0	375	0.2	375	376	13.7	79.1
2022-10-08T19:54	10	0	0.1	0	0	375	0.2	375	376	13.7	78.7
2022-10-08T19:55	10	0	0.1	0	0	375	0.3	375	376	13.8	78.1
2022-10-08T19:56	10	0	0.1	0	0	375	0.2	374	376	13.7	78.5
2022-10-08T19:57	10	0	0.1	0	0	374	0.2	374	375	13.7	78.5
2022-10-08T19:58	10	0	0.1	0	0	374	0.2	374	375	13.7	78.3
2022-10-08T19:59	10	0	0.1	0	0	374	0.2	373	374	13.6	79.1
2022-10-08T20:00	10	0	0.1	0	0	374	0.2	373	374	13.6	79.4
2022-10-08T20:01	10	0	0.1	0	0	374	0.2	373	374	13.7	78.8
2022-10-08T20:02	10	0	0.1	0	0	373	0.3	372	374	13.6	79.2
2022-10-08T20:03	10	0	0.1	0	0	373	0.2	373	374	13.6	80.2
2022-10-08T20:04	10	0	0.1	0	0	373	0.3	372	373	13.5	80.3
2022-10-08T20:05	10	0	0.1	0	0	373	0.3	372	373	13.5	80.6
2022-10-08T20:06	10	0	0.1	0	0	373	0.3	372	373	13.6	80.3
2022-10-08T20:07	10	0	0.1	0	0	373	0.2	372	373	13.5	80.9
2022-10-08T20:08	10	0	0.1	0	0	372	0.4	371	373	13.5	80.9
2022-10-08T20:09	10	0	0.1	0	0	372	0.2	372	373	13.5	80.3
2022-10-08T20:10	10	0	0.1	0	0	372	0.3	371	373	13.5	80.5
2022-10-08T20:11	10	0	0.1	-1	0	372	0.3	372	373	13.5	80.8
2022-10-08T20:12	10	0	0.1	0	0	372	0.4	371	373	13.5	80.5
2022-10-08T20:13	10	0	0.1	0	0	373	0.2	372	373	13.5	80.6
2022-10-08T20:14	10	0	0.1	-1	0	373	0.3	372	373	13.4	80.7
2022-10-08T20:15	10	0	0.1	0	0	373	0.3	372	373	13.4	80.7
2022-10-08T20:16	10	0	0.1	0	0	373	0.2	373	374	13.4	80.8
2022-10-08T20:17	10	0	0.1	-1	0	373	0.3	373	374	13.5	80.4
2022-10-08T20:18	10	0	0.1	0	0	373	0.2	373	374	13.5	80.0
2022-10-08T20:19	10	0	0.1	0	0	373	0.2	373	374	13.5	79.9
2022-10-08T20:20	10	0	0.1	0	0	373	0.2	373	374	13.5	80.1
2022-10-08T20:21	10	0	0.1	0	0	373	0.3	373	374	13.5	79.8
2022-10-08T20:22	10	0	0.1	0	0	373	0.2	373	374	13.6	79.5
2022-10-08T20:23	10	0	0.1	-1	0	374	0.3	373	374	13.5	79.8
2022-10-08T20:24	10	0	0.1	0	0	374	0.3	373	375	13.6	79.6
2022-10-08T20:25	10	0	0.1	-1	0	374	0.3	373	374	13.5	79.8
2022-10-08T20:26	10	0	0.4	0	3	374	0.3	374	375	13.5	79.9
2022-10-08T20:27	10	0	0.1	0	0	375	0.2	374	375	13.5	79.9
2022-10-08T20:28	10	0	0.1	0	0	375	0.3	374	375	13.5	79.9
2022-10-08T20:29	10	0	0.1	0	0	375	0.3	374	375	13.4	80.6
2022-10-08T20:30	10	0	0.1	0	0	375	0.2	374	375	13.4	80.7
2022-10-08T20:31	10	0	0.1	0	0	375	0.2	374	375	13.4	80.7
2022-10-08T20:32	10	0	0.1	0	0	375	0.2	374	375	13.4	80.5
2022-10-08T20:33	10	0	0.1	0	0	375	0.2	374	375	13.4	80.3
2022-10-08T20:34	10	0	0.1	0	0	375	0.3	374	376	13.4	80.7
2022-10-08T20:35	10	0	0.1	0	0	375	0.2	374	375	13.4	80.9
2022-10-08T20:36	10	0	0.1	0	0	375	0.2	374	375	13.4	80.9
2022-10-08T20:37	10	0	0.1	0	0	375	0.2	374	375	13.4	80.6
2022-10-08T20:38	10	0	0.1	0	0	375	0.3	374	375	13.4	80.8
2022-10-08T20:39	10	0	0.1	0	0	375	0.2	374	376	13.4	80.7
2022-10-08T20:40	10	0	0.1	0	0	375	0.2	374	375	13.4	81.1
2022-10-08T20:41	10	0	0.1	0	0	375	0.2	374	375	13.4	80.8
2022-10-08T20:42	10	0	0.1	0	0	375	0.2	374	375	13.4	80.6
2022-10-08T20:43	10	0	0.1	0	0	375	0.2	374	375	13.4	80.6
2022-10-08T20:44	10	0	0.1	0	0	375	0.2	374	375	13.4	80.7
2022-10-08T20:45	10	0	0.1	0	0	375	0.2	374	375	13.4	80.6
2022-10-08T20:46	10	0	0.1	0	0	375	0.2	374	375	13.4	80.6
2022-10-08T20:47	10	0	0.1	0	0	374	0.3	374	375	13.4	80.7
2022-10-08T20:48	10	0	0.1	0	0	375	0.2	374	375	13.3	81.1
2022-10-08T20:49	10	0	0.1	0	0	375	0.2	374	375	13.3	81.0
2022-10-08T20:50	10	0	0.1	0	0	374	0.3	374	375	13.3	81.0
2022-10-08T20:51	10	0	0.1	0	0	374	0.2	374	375	13.3	81.2
2022-10-08T20:52	10	0	0.1	0	0	374	0.2	374	375	13.3	81.0
2022-10-08T20:53	10	0	0.1	0	0	374	0.3	373	375	13.3	81.1
2022-10-08T20:54	10	0	0.1	0	0	374	0.2	373	374	13.2	81.3
2022-10-08T20:55	10	0	0.1	0	0	373	0.4	372	374	13.3	81.3
2022-10-08T20:56	10	0	0.1	0	0	373	0.3	373	374	13.2	81.1
2022-10-08T20:57	10	0	0.1	0	0	373	0.3	372	373	13.2	81.0
2022-10-08T20:58	10	0	0.1	0	0	373	0.2	372	374	13.2	81.0
2022-10-08T20:59	10	0	0.1	0	0	373	0.2	372	373	13.2	81.3
2022-10-08T21:00	10	0	0.1	0	0	372	0.3	372	373	13.2	81.6
2022-10-08T21:01	10	0	0.1	0	0	372	0.2	371	373	13.2	81.5
2022-10-08T21:02	10	0	0.1	0	0	372	0.3	371	372	13.2	81.5
2022-10-08T21:03	10	0	0.1	0	0	371	0.3	371	372	13.2	81.4
2022-10-08T21:04	10	0	0.1	0	0	371	0.3	371	372	13.1	81.7
2022-10-08T21:05	10	0	0.1	0	0	371	0.2	370	371	13.1	81.7
2022-10-08T21:06	10	0	0.1	0	0	371	0.3	370	371	13.1	81.8
2022-10-08T21:07	10	0	0.1	0	0	371	0.2	370	371	13.1	81.7
2022-10-08T21:08	10	0	0.1	0	0	371	0.2	370	371	13.1	81.4
2022-10-08T21:09	10	0	0.1	0	0	371	0.2	370	371	13.1	80.9
2022-10-08T21:10	10	0	0.1	0	0	371	0.3	370	371	13.1	81.2
2022-10-08T21:11	10	0	0.1	-1	0	371	0.3	370	371	13.0	81.8
2022-10-08T21:12	10	0	0.1	-1	0	370	0.2	370	371	13.1	81.8
2022-10-08T21:13	10	0	0.1	0	0	370	0.3	369	371	13.1	81.9
2022-10-08T21:14	10	0	0.1	-1	0	370	0.3	369	371	13.0	82.1
2022-10-08T21:15	10	0	0.1	-1	0	370	0.2	370	371	13.0	82.0
2022-10-08T21:16	10	-1	0.1	-1	0	370	0.3	370	371	13.0	82.4
2022-10-08T21:17	10	-1	0.1	-1	-1	370	0.4	370	371	13.0	82.9
2022-10-08T21:18	10	-1	0.1	-1	0	370	0.3	369	371	13.0	82.6
2022-10-08T21:19	10	-1	0.1	-1	0	369	0.3	369	370	12.9	83.0
2022-10-08T21:20	10	-1	0.1	-1	-1	369	0.3	368	370	12.9	83.7
2022-10-08T21:21	10	-1	0.1	-1	-1	369	0.2	368	369	12.9	84.0
2022-10-08T21:22	10	-1	0.1	-1	-1	368	0.2	368	369	12.8	84.2
2022-10-08T21:23	10	-1	0.1	-1	-1	368	0.2	368	368	12.8	84.5
2022-10-08T21:24	10	-1	0.1	-1	-1	368	0.2	368	369	12.7	84.8
2022-10-08T21:25	10	-1	0.1	-1	-1	368	0.3	367	368	12.7	85.3
2022-10-08T21:26	10	-1	0.1	-1	0	368	0.2	367	368	12.7	85.4
2022-10-08T21:27	10	-1	0.1	-1	0	368	0.2	367	368	12.6	85.7
2022-10-08T21:28	10	-1	0.1	-1	0	368	0.3	367	369	12.7	85.4
2022-10-08T21:29	10	-1	0.1	-1	0	368	0.3	368	369	12.7	85.1
2022-10-08T21:30	10	-1	0.1	-1	-1	368	0.3	367	369	12.6	85.5
2022-10-08T21:31	10	-1	0.1	-1	-1	368	0.3	367	369	12.6	85.5
2022-10-08T21:32	10	-1	0.1	-1	-1	368	0.2	368	368	12.6	85.5
2022-10-08T21:33	10	-1	0.1	-1	0	368	0.2	367	368	12.6	85.8
2022-10-08T21:34	10	-1	0.1	-1	0	368	0.3	367	368	12.6	85.9
2022-10-08T21:35	10	-1	0.1	-1	-1	367	0.3	367	368	12.6	85.4
2022-10-08T21:36	10	-1	0.1	-1	0	368	0.3	367	368	12.6	85.4
2022-10-08T21:37	10	-1	0.1	-1	0	367	0.4	366	368	12.5	85.8
2022-10-08T21:38	10	-1	0.0	-1	0	366	0.3	365	367	12.5	86.0
2022-10-08T21:39	10	-1	0.1	-1	0	367	0.3	366	367	12.5	86.0
2022-10-08T21:40	10	-1	0.0	-1	0	366	0.4	365	367	12.6	85.6
2022-10-08T21:41	10	-1	0.1	-1	0	366	0.3	365	366	12.5	85.7
2022-10-08T21:42	10	-1	0.1	-1	0	366	0.3	365	367	12.6	85.7
2022-10-08T21:43	10	-1	0.0	-1	-1	366	0.2	366	367	12.6	85.2
2022-10-08T21:44	10	-1	0.1	-1	0	366	0.3	365	366	12.5	85.6
2022-10-08T21:45	10	-1	0.0	-1	-1	366	0.3	365	366	12.4	86.0
2022-10-08T21:46	10	-1	0.1	-1	-1	366	0.3	365	366	12.5	86.0
2022-10-08T21:47	10	-1	0.1	-1	-1	366	0.3	365	367	12.4	86.3
2022-10-08T21:48	10	-1	0.1	-1	-1	366	0.2	365	366	12.4	86.5
2022-10-08T21:49	10	-1	0.1	-1	-1	366	0.5	365	367	12.4	86.6
2022-10-08T21:50	10	-1	0.1	-1	-1	366	0.3	365	366	12.4	86.3
2022-10-08T21:51	10	-1	0.1	-1	-1	365	0.3	365	366	12.3	86.8
2022-10-08T21:52	10	-1	0.1	-1	-1	365	0.3	365	366	12.4	86.7
2022-10-08T21:53	10	-1	0.1	-1	-1	366	0.3	365	366	12.4	86.5
2022-10-08T21:54	10	-1	0.1	-1	-1	365	0.3	365	366	12.3	86.8
2022-10-08T21:55	10	-1	0.1	-1	-1	365	0.3	364	366	12.3	87.2
2022-10-08T21:56	10	-1	0.0	-1	-1	365	0.2	364	365	12.2	87.5
2022-10-08T21:57	10	-1	0.1	-1	-1	365	0.2	364	365	12.2	87.5
2022-10-08T21:58	10	-1	0.1	-1	-1	364	0.2	364	365	12.2	87.8
2022-10-08T21:59	10	-1	0.1	-1	-1	364	0.3	363	365	12.2	87.9
2022-10-08T22:00	10	-1	0.1	-1	-1	364	0.3	363	365	12.3	87.8
2022-10-08T22:01	10	-1	0.1	-1	-1	364	0.2	364	365	12.3	87.6
2022-10-08T22:02	10	-1	0.1	-1	-1	364	0.2	364	364	12.2	87.7
2022-10-08T22:03	10	-1	0.1	-1	-1	364	0.3	363	364	12.2	87.8
2022-10-08T22:04	10	-1	0.1	-1	-1	364	0.2	363	364	12.1	88.1
2022-10-08T22:05	10	-1	0.1	-1	-1	363	0.3	362	364	12.1	88.3
2022-10-08T22:06	10	-1	0.1	-1	-1	363	0.2	362	364	12.1	88.3
2022-10-08T22:07	10	-1	0.1	-1	-1	362	0.2	362	363	12.1	88.4
2022-10-08T22:08	10	-1	0.1	-1	-1	362	0.2	361	362	12.0	88.6
2022-10-08T22:09	10	-1	0.1	-1	-1	361	0.3	360	362	12.0	88.8
2022-10-08T22:10	10	-1	0.1	-1	-1	361	0.3	360	362	12.0	88.9
2022-10-08T22:11	10	-1	0.1	-1	-1	361	0.3	360	362	12.1	88.8
2022-10-08T22:12	10	-1	0.1	-1	-1	361	0.4	360	362	12.0	88.8
2022-10-08T22:13	10	-1	0.1	-1	-1	361	0.3	360	361	12.0	89.0
2022-10-08T22:14	10	-1	0.1	-1	-1	361	0.3	360	361	12.0	89.1
2022-10-08T22:15	10	-1	0.1	-1	-1	361	0.5	360	362	12.0	89.3
2022-10-08T22:16	10	-1	0.1	-1	-1	361	0.4	360	362	12.0	89.2
2022-10-08T22:17	10	-1	0.1	-1	-1	361	0.2	361	362	12.0	89.2
2022-10-08T22:18	10	-1	0.1	-1	-1	361	0.2	361	362	12.0	89.1
2022-10-08T22:19	10	-1	0.1	-1	-1	362	0.3	361	362	11.9	89.2
2022-10-08T22:20	10	-1	0.1	-1	-1	362	0.3	361	363	11.9	89.4
2022-10-08T22:21	10	-1	0.1	-1	-1	362	0.3	361	362	11.9	89.3
2022-10-08T22:22	10	-1	0.1	-1	-1	361	0.2	361	362	11.9	89.4
2022-10-08T22:23	10	-1	0.1	-2	-1	361	0.2	360	361	11.8	89.7
2022-10-08T22:24	10	-1	0.1	-1	-1	361	0.4	360	361	11.8	89.9
2022-10-08T22:25	10	-1	0.1	-1	-1	360	0.2	360	361	11.8	89.9
2022-10-08T22:26	10	-1	0.1	-1	-1	360	0.3	360	361	11.8	90.0
2022-10-08T22:27	10	-1	0.1	-2	-1	360	0.3	360	361	11.8	90.1
2022-10-08T22:28	10	-1	0.2	-1	-1	360	0.3	359	361	11.8	90.2
2022-10-08T22:29	10	-1	0.1	-2	-1	360	0.2	360	361	11.8	90.3
2022-10-08T22:30	10	-1	0.1	-2	-1	360	0.2	360	361	11.8	90.3
2022-10-08T22:31	10	-1	0.1	-2	-1	360	0.2	359	360	11.7	90.4
2022-10-08T22:32	10	-1	0.1	-2	-1	360	0.2	359	360	11.7	90.5
2022-10-08T22:33	10	-1	0.1	-2	-1	359	0.3	358	360	11.7	90.7
2022-10-08T22:34	10	-1	0.2	-1	-1	359	0.2	358	359	11.6	90.7
2022-10-08T22:35	10	-1	0.1	-1	-1	359	0.3	358	359	11.7	90.8
2022-10-08T22:36	10	-1	0.2	-1	-1	358	0.2	357	358	11.7	90.7
2022-10-08T22:37	10	-1	0.1	-1	0	358	0.3	357	359	11.6	90.5
2022-10-08T22:38	10	-1	0.2	-1	0	357	0.3	357	358	11.7	90.7
2022-10-08T22:39	10	-1	0.1	-1	0	357	0.3	357	358	11.7	90.6
2022-10-08T22:40	10	-1	0.1	-1	-1	357	0.3	356	357	11.7	90.5
2022-10-08T22:41	10	-1	0.1	-1	0	357	0.3	356	357	11.7	90.3
2022-10-08T22:42	10	-1	0.1	-1	0	356	0.2	356	357	11.6	90.2
2022-10-08T22:43	10	-1	0.1	-1	0	356	0.2	355	356	11.4	90.5
2022-10-08T22:44	10	-1	0.1	-1	0	356	0.2	355	356	11.4	91.2
2022-10-08T22:45	10	0	0.1	-1	0	356	0.3	355	356	11.5	91.2
2022-10-08T22:46	10	0	0.1	0	0	356	0.3	356	357	11.5	91.0
2022-10-08T22:47	10	0	0.1	0	0	356	0.3	356	357	11.5	90.6
2022-10-08T22:48	10	0	0.1	0	0	356	0.2	355	356	11.4	90.8
2022-10-08T22:49	10	0	0.1	0	0	355	0.2	355	356	11.4	90.9
2022-10-08T22:50	10	0	0.1	0	0	355	0.3	355	356	11.5	91.1
2022-10-08T22:51	10	0	0.1	0	0	355	0.2	354	355	11.6	90.8
2022-10-08T22:52	10	0	0.1	0	0	355	0.2	354	355	11.6	90.3
2022-10-08T22:53	10	0	0.1	0	0	355	0.2	354	355	11.6	90.2
2022-10-08T22:54	10	0	0.1	0	0	354	0.4	354	355	11.6	90.2
2022-10-08T22:55	10	0	0.1	-1	0	354	0.3	354	355	11.6	90.4
2022-10-08T22:56	10	0	0.1	-1	0	354	0.2	353	354	11.6	90.4
2022-10-08T22:57	10	-1	0.1	-1	0	354	0.2	353	354	11.5	90.3
2022-10-08T22:58	10	0	0.1	-1	0	354	0.2	353	354	11.5	90.6
2022-10-08T22:59	10	0	0.1	-1	0	354	0.2	353	354	11.4	90.7
2022-10-08T23:00	10	0	0.1	-1	0	353	0.3	353	354	11.5	90.9
2022-10-08T23:01	10	0	0.1	-1	0	353	0.2	353	354	11.5	90.8
2022-10-08T23:02	10	0	0.1	-1	0	353	0.4	353	354	11.6	90.7
2022-10-08T23:03	10	-1	0.1	-1	0	353	0.3	353	354	11.6	90.3
2022-10-08T23:04	10	-1	0.1	-1	-1	354	0.2	353	354	11.4	90.3
2022-10-08T23:05	10	-1	0.1	-1	-1	354	0.4	353	354	11.5	90.5
2022-10-08T23:06	10	-1	0.1	-1	-1	354	0.6	353	356	11.5	90.2
2022-10-08T23:07	10	-1	0.1	-1	-1	356	0.5	355	357	11.5	89.6
2022-10-08T23:08	10	-1	0.1	-1	-1	356	0.4	356	357	11.4	89.7
2022-10-08T23:09	10	-1	0.1	-1	-1	356	0.2	356	356	11.4	89.6
2022-10-08T23:10	10	-1	0.1	-1	-1	356	0.5	355	357	11.5	88.9
2022-10-08T23:11	10	-1	0.1	-1	-1	357	0.2	357	358	11.5	88.6
2022-10-08T23:12	10	-1	0.1	-1	-1	357	0.3	357	358	11.4	88.5
2022-10-08T23:13	10	-1	0.1	-1	-1	357	0.4	356	357	11.4	88.4
2022-10-08T23:14	10	-1	0.1	-1	-1	357	0.2	356	357	11.4	87.9
2022-10-08T23:15	10	-1	0.1	-1	-1	356	0.3	356	357	11.3	87.8
2022-10-08T23:16	10	-1	0.1	-1	-1	356	0.4	356	357	11.4	87.5
2022-10-08T23:17	10	-1	0.1	-1	-1	357	0.2	356	357	11.3	87.6
2022-10-08T23:18	10	-1	0.1	-1	-1	357	0.4	355	357	11.4	87.5
2022-10-08T23:19	10	-1	0.1	-1	-1	357	0.4	356	358	11.5	86.8
2022-10-08T23:20	10	-1	0.1	-1	-1	357	0.4	356	358	11.4	86.5
2022-10-08T23:21	10	-1	0.1	-1	-1	357	0.2	356	358	11.4	86.6
2022-10-08T23:22	10	-1	0.1	-1	-1	357	0.4	356	358	11.4	86.5
2022-10-08T23:23	10	-1	0.1	-1	-1	357	0.3	357	358	11.4	86.5
2022-10-08T23:24	10	-1	0.1	-1	-1	357	0.3	356	358	11.4	86.5
2022-10-08T23:25	10	-1	0.1	-1	-1	357	0.2	356	357	11.4	86.5
2022-10-08T23:26	10	-1	0.1	-1	-1	356	0.2	355	356	11.4	86.5
2022-10-08T23:27	10	-1	0.1	-1	-1	356	0.3	355	357	11.3	86.6
2022-10-08T23:28	10	-1	0.1	-1	-1	356	0.2	355	356	11.4	86.4
2022-10-08T23:29	10	-1	0.1	-1	-1	356	0.2	356	357	11.4	85.7
2022-10-08T23:30	10	-1	0.1	-1	-1	356	0.3	356	357	11.4	85.8
2022-10-08T23:31	10	-1	0.1	-1	-1	356	0.2	356	357	11.4	85.9
2022-10-08T23:32	10	-1	0.1	-1	-1	357	0.3	356	357	11.4	85.7
2022-10-08T23:33	10	-1	0.1	-1	-1	356	0.4	355	357	11.4	85.5
2022-10-08T23:34	10	-1	0.0	-1	-1	356	0.3	355	356	11.3	85.8
2022-10-08T23:35	10	-1	0.1	-1	-1	356	0.3	355	357	11.3	85.9
2022-10-08T23:36	10	-1	0.1	-1	-1	356	0.3	356	357	11.4	85.6
2022-10-08T23:37	10	-1	0.1	-1	-1	356	0.3	355	357	11.3	85.6
2022-10-08T23:38	10	-1	0.1	-1	-1	356	0.2	355	356	11.3	85.9
2022-10-08T23:39	10	-1	0.1	-1	-1	356	0.2	355	356	11.3	85.6
2022-10-08T23:40	10	-1	0.1	-1	-1	356	0.3	355	356	11.2	85.7
2022-10-08T23:41	10	-1	0.1	-1	-1	356	0.9	355	358	11.3	85.6
2022-10-08T23:42	10	-1	0.1	-1	-1	357	0.4	356	358	11.3	85.5
2022-10-08T23:43	10	-1	0.1	-1	-1	357	0.6	356	358	11.3	85.6
2022-10-08T23:44	10	-1	0.1	-2	-1	358	0.4	357	359	11.3	85.2
2022-10-08T23:45	10	-2	0.1	-2	-1	357	0.2	357	358	11.2	85.4
2022-10-08T23:46	10	-2	0.1	-2	-1	357	0.3	357	358	11.2	85.6
2022-10-08T23:47	10	-2	0.1	-2	-1	358	0.7	357	359	11.3	85.3
2022-10-08T23:48	10	-2	0.1	-2	-1	359	0.2	358	359	11.3	84.7
2022-10-08T23:49	10	-2	0.1	-2	-2	359	0.3	358	359	11.3	84.9
2022-10-08T23:50	10	-2	0.1	-2	-1	359	0.5	359	361	11.4	84.4
2022-10-08T23:51	10	-2	0.1	-2	-2	360	0.2	359	360	11.4	84.6
2022-10-08T23:52	10	-2	0.1	-2	-2	360	0.3	359	361	11.3	84.8
2022-10-08T23:53	10	-2	0.1	-2	-2	360	0.3	360	361	11.3	84.9
2022-10-08T23:54	10	-2	0.1	-2	-2	360	0.3	359	361	11.4	84.4
2022-10-08T23:55	10	-2	0.1	-2	-2	360	0.3	359	360	11.3	84.9
2022-10-08T23:56	10	-2	0.1	-2	-2	360	0.4	359	360	11.3	84.9
2022-10-08T23:57	10	-2	0.1	-2	-1	359	0.3	359	360	11.3	84.8
2022-10-08T23:58	10	-2	0.1	-2	-2	359	0.2	359	359	11.3	84.7
2022-10-08T23:59	10	-2	0.1	-2	-1	359	0.3	358	360	11.3	84.7
2022-10-09T00:00	10	-2	0.1	-2	-1	359	0.3	358	359	11.4	84.7
2022-10-09T00:01	10	-2	0.1	-2	-1	359	0.2	359	360	11.4	84.3
2022-10-09T00:02	10	-2	0.1	-2	-1	359	0.2	358	359	11.4	84.3
2022-10-09T00:03	10	-2	0.1	-2	-1	359	0.2	358	359	11.3	84.8
2022-10-09T00:04	10	-2	0.1	-2	-1	359	0.3	358	359	11.3	84.8
2022-10-09T00:05	10	-1	0.1	-2	-1	358	0.3	358	360	11.3	84.9
2022-10-09T00:06	10	-1	0.1	-2	-1	359	0.3	358	359	11.3	84.9
2022-10-09T00:07	10	-1	0.1	-2	-1	359	0.3	358	359	11.3	84.7
2022-10-09T00:08	10	-2	0.1	-2	-1	359	0.2	358	360	11.4	84.3
2022-10-09T00:09	10	-2	0.1	-2	-1	359	0.3	358	359	11.3	84.6
2022-10-09T00:10	10	-2	0.1	-2	-1	359	0.3	358	359	11.3	84.6
2022-10-09T00:11	10	-2	0.1	-2	-1	359	0.3	358	360	11.3	84.7
2022-10-09T00:12	10	-2	0.1	-2	-1	359	0.2	358	359	11.4	84.4
2022-10-09T00:13	10	-1	0.1	-2	-1	359	0.2	358	359	11.3	84.8
2022-10-09T00:14	10	-1	0.1	-2	-1	359	0.3	358	360	11.3	84.6
2022-10-09T00:15	10	-1	0.1	-2	-1	359	0.3	358	360	11.4	84.5
2022-10-09T00:16	10	-1	0.1	-2	-1	359	0.4	358	360	11.4	83.9
2022-10-09T00:17	10	-2	0.1	-2	-1	360	0.2	359	360	11.4	84.1
2022-10-09T00:18	10	-2	0.1	-2	-1	360	0.4	359	360	11.4	84.1
2022-10-09T00:19	10	-2	0.1	-2	-1	360	0.3	359	360	11.4	84.2
2022-10-09T00:20	10	-2	0.1	-2	-1	359	0.3	359	360	11.4	84.2
2022-10-09T00:21	10	-2	0.1	-2	-1	360	0.2	359	360	11.4	84.0
2022-10-09T00:22	10	-2	0.1	-2	-1	360	0.3	359	360	11.4	84.1
2022-10-09T00:23	10	-2	0.1	-2	-1	359	0.2	359	360	11.4	84.2
2022-10-09T00:24	10	-2	0.1	-2	-1	359	0.2	359	360	11.3	84.3
2022-10-09T00:25	10	-2	0.1	-2	-1	359	0.2	359	360	11.3	84.3
2022-10-09T00:26	10	-2	0.1	-2	-1	359	0.3	359	360	11.4	84.1
2022-10-09T00:27	10	-2	0.1	-2	-1	360	0.4	359	360	11.3	84.2
2022-10-09T00:28	10	-2	0.1	-2	-1	360	0.2	359	360	11.3	84.2
2022-10-09T00:29	10	-2	0.1	-2	-1	360	0.3	359	360	11.3	84.1
2022-10-09T00:30	10	-2	0.1	-2	-1	359	0.3	359	360	11.3	84.3
2022-10-09T00:31	10	-2	0.1	-2	-1	359	0.2	359	360	11.4	83.9
2022-10-09T00:32	10	-2	0.1	-2	-1	359	0.3	358	360	11.3	84.1
2022-10-09T00:33	10	-2	0.1	-2	-1	360	0.3	359	360	11.4	83.5
2022-10-09T00:34	10	-2	0.1	-2	-1	360	0.3	359	360	11.4	83.3
2022-10-09T00:35	10	-2	0.1	-2	-1	359	0.3	358	360	11.3	83.9
2022-10-09T00:36	10	-2	0.1	-2	-1	359	0.2	358	359	11.3	84.1
2022-10-09T00:37	10	-2	0.1	-2	-1	359	0.3	358	359	11.3	84.2
2022-10-09T00:38	10	-2	0.1	-2	-1	359	0.3	358	359	11.2	84.2
2022-10-09T00:39	10	-2	0.1	-2	-1	358	0.2	358	359	11.2	84.6
2022-10-09T00:40	10	-2	0.1	-2	-1	358	0.2	358	359	11.3	84.3
2022-10-09T00:41	10	-2	0.1	-2	-2	358	0.2	358	359	11.2	84.3
2022-10-09T00:42	10	-2	0.1	-2	-1	357	0.3	357	358	11.2	84.6
2022-10-09T00:43	10	-2	0.1	-2	-1	358	0.3	357	358	11.2	84.5
2022-10-09T00:44	10	-2	0.1	-2	-1	357	0.3	357	358	11.1	84.7
2022-10-09T00:45	10	-2	0.1	-2	-1	358	0.3	357	358	11.1	84.7
2022-10-09T00:46	10	-2	0.1	-2	-1	357	0.3	357	358	11.1	84.7
2022-10-09T00:47	10	-2	0.1	-2	-1	357	0.3	356	358	11.1	85.0
2022-10-09T00:48	10	-2	0.1	-2	-1	357	0.2	357	357	11.1	85.0
2022-10-09T00:49	10	-1	0.1	-1	-1	356	0.2	356	357	11.0	85.2
2022-10-09T00:50	10	-1	0.1	-1	-1	356	0.4	355	357	11.1	85.1
2022-10-09T00:51	10	-1	0.1	-1	-1	356	0.3	355	356	11.1	85.1
2022-10-09T00:52	10	-1	0.1	-1	-1	356	0.3	355	356	11.0	85.0
2022-10-09T00:53	10	-1	0.1	-1	-1	356	0.2	355	356	11.0	85.2
2022-10-09T00:54	10	-1	0.1	-1	-1	355	0.3	355	356	11.0	85.2
2022-10-09T00:55	10	-1	0.1	-1	-1	355	0.3	355	356	11.0	85.1
2022-10-09T00:56	10	-1	0.1	-1	-1	355	0.4	354	356	11.0	85.1
2022-10-09T00:57	10	-1	0.1	-1	-1	354	0.3	354	355	11.0	85.1
2022-10-09T00:58	10	-1	0.1	-1	-1	354	0.2	354	355	11.0	84.9
2022-10-09T00:59	10	-1	0.1	-1	-1	355	0.3	354	355	10.9	84.9
2022-10-09T01:00	10	-1	0.1	-1	-1	355	0.3	354	356	10.9	85.1
2022-10-09T01:01	10	-1	0.1	-1	-1	355	0.2	354	355	10.9	85.0
2022-10-09T01:02	10	-1	0.1	-1	-1	355	0.2	354	356	11.0	84.6
2022-10-09T01:03	10	-1	0.1	-1	-1	355	0.3	354	355	11.0	84.4
2022-10-09T01:04	10	-1	0.1	-1	-1	354	0.2	354	355	10.9	84.5
2022-10-09T01:05	10	-1	0.1	-1	-1	354	0.3	354	355	10.9	84.5
2022-10-09T01:06	10	-1	0.1	-1	-1	355	0.4	354	356	11.0	83.7
2022-10-09T01:07	10	-1	0.1	-1	-1	355	0.2	355	356	11.0	83.4
2022-10-09T01:08	10	-1	0.1	-2	-1	356	0.3	355	356	11.0	83.5
2022-10-09T01:09	10	-1	0.1	-2	-1	355	0.3	355	356	10.9	83.4
2022-10-09T01:10	10	-1	0.1	-2	-1	356	0.2	355	356	11.0	83.4
2022-10-09T01:11	10	-1	0.1	-2	-1	355	0.3	354	355	10.9	83.4
2022-10-09T01:12	10	-1	0.1	-2	-1	355	0.3	354	356	10.9	83.1
2022-10-09T01:13	10	-1	0.1	-2	-1	355	0.3	354	355	11.0	82.8
2022-10-09T01:14	10	-1	0.1	-2	-1	354	0.2	354	355	10.9	83.0
2022-10-09T01:15	10	-1	0.1	-2	-1	354	0.3	354	355	10.8	83.3
2022-10-09T01:16	10	-1	0.1	-2	-1	355	0.2	354	355	10.9	82.7
2022-10-09T01:17	10	-1	0.1	-2	-1	355	0.4	354	356	10.9	82.3
2022-10-09T01:18	10	-1	0.1	-2	-1	355	0.3	354	356	10.9	82.3
2022-10-09T01:19	10	-1	0.1	-1	-1	355	0.3	354	355	10.8	82.7
2022-10-09T01:20	10	-1	0.1	-2	-1	355	0.3	354	355	10.8	82.7
2022-10-09T01:21	10	-1	0.1	-2	-1	354	0.3	354	355	10.8	82.5
2022-10-09T01:22	10	-1	0.1	-2	-1	354	0.4	353	355	10.8	82.8
2022-10-09T01:23	10	-1	0.1	-2	-1	354	0.2	353	354	10.8	82.8
2022-10-09T01:24	10	-1	0.1	-2	-1	354	0.2	353	354	10.8	82.5
2022-10-09T01:25	10	-1	0.1	-2	-1	354	0.2	353	354	10.8	82.5
2022-10-09T01:26	10	-1	0.1	-2	-1	354	0.2	353	354	10.7	82.5
2022-10-09T01:27	10	-1	0.1	-2	-1	354	0.3	353	355	10.8	82.6
2022-10-09T01:28	10	-1	0.1	-2	-1	354	0.2	354	355	10.8	81.9
2022-10-09T01:29	10	-1	0.1	-2	-1	354	0.3	353	355	10.9	81.7
2022-10-09T01:30	10	-1	0.1	-2	-1	354	0.2	354	354	10.9	81.2
2022-10-09T01:31	10	-1	0.1	-1	-1	353	0.3	353	354	10.8	81.6
2022-10-09T01:32	10	-1	0.1	-1	-1	353	0.3	352	354	10.8	81.8
2022-10-09T01:33	10	-1	0.1	-1	-1	352	0.2	352	353	10.7	82.2
2022-10-09T01:34	10	-1	0.1	-1	-1	352	0.2	352	353	10.6	82.3
2022-10-09T01:35	10	-1	0.1	-2	-1	353	0.2	352	354	10.8	82.1
2022-10-09T01:36	10	-1	0.1	-1	-1	354	0.4	353	355	10.8	81.8
2022-10-09T01:37	10	-1	0.1	-2	-1	354	0.4	353	354	10.8	81.7
2022-10-09T01:38	10	-1	0.1	-2	-1	353	0.4	352	354	10.8	81.7
2022-10-09T01:39	10	-1	0.1	-2	-1	354	0.3	353	354	10.9	81.2
2022-10-09T01:40	10	-1	0.1	-2	-1	354	0.2	354	355	10.9	81.1
2022-10-09T01:41	10	-2	0.1	-2	-1	354	0.2	354	355	10.9	81.3
2022-10-09T01:42	10	-1	0.1	-2	-1	354	0.2	354	355	10.9	81.0
2022-10-09T01:43	10	-1	0.1	-2	-1	354	0.3	353	354	10.9	81.2
2022-10-09T01:44	10	-1	0.1	-2	-1	354	0.2	354	354	10.9	81.4
2022-10-09T01:45	10	-1	0.1	-2	-1	354	0.3	353	355	10.8	81.4
2022-10-09T01:46	10	-1	0.1	-2	-1	354	0.3	353	354	10.8	81.8
2022-10-09T01:47	10	-1	0.1	-2	-1	354	0.2	353	354	10.8	81.7
2022-10-09T01:48	10	-1	0.1	-2	-1	353	0.3	353	354	10.8	81.6
2022-10-09T01:49	10	-1	0.1	-2	-1	353	0.4	352	354	10.8	81.3
2022-10-09T01:50	10	-1	0.1	-2	-1	352	0.3	352	353	10.8	81.6
2022-10-09T01:51	10	-1	0.1	-1	-1	352	0.3	351	353	10.8	81.6
2022-10-09T01:52	10	-1	0.1	-1	-1	352	0.5	351	353	10.7	82.0
2022-10-09T01:53	10	-1	0.1	-1	-1	351	0.3	350	352	10.6	82.5
2022-10-09T01:54	10	-1	0.1	-1	-1	350	0.2	350	351	10.6	82.9
2022-10-09T01:55	10	-1	0.1	-1	-1	349	0.3	349	350	10.6	83.0
2022-10-09T01:56	10	-1	0.1	-1	-1	349	0.4	348	350	10.6	83.4
2022-10-09T01:57	10	-1	0.1	-1	-1	349	0.3	348	349	10.6	82.7
2022-10-09T01:58	10	-1	0.1	-1	-1	349	0.4	348	349	10.6	83.1
2022-10-09T01:59	10	-1	0.0	-1	-1	349	0.2	348	349	10.6	83.3
2022-10-09T02:00	10	-1	0.0	-1	-1	348	0.3	348	349	10.6	83.0
2022-10-09T02:01	10	-1	0.1	-1	-1	348	0.3	348	349	10.6	82.8
2022-10-09T02:02	10	-1	0.1	-1	-1	349	0.2	348	349	10.6	83.2
2022-10-09T02:03	10	-1	0.1	-1	-1	348	0.4	348	349	10.7	82.7
2022-10-09T02:04	10	-1	0.1	-1	-1	348	0.2	348	349	10.5	82.7
2022-10-09T02:05	10	-1	0.0	-1	-1	348	0.2	347	348	10.5	83.3
2022-10-09T02:06	10	-1	0.1	-1	-1	348	0.3	347	349	10.5	83.2
2022-10-09T02:07	10	-1	0.1	-1	-1	348	0.2	347	348	10.5	83.1
2022-10-09T02:08	10	-1	0.1	-1	-1	348	0.3	347	348	10.5	83.2
2022-10-09T02:09	10	-1	0.1	-1	-1	347	0.3	346	348	10.6	83.0
2022-10-09T02:10	10	-1	0.1	-1	-1	347	0.2	347	348	10.6	83.0
2022-10-09T02:11	10	-1	0.1	-1	-1	347	0.2	347	347	10.5	83.1
2022-10-09T02:12	10	-1	0.0	-1	-1	347	0.2	346	347	10.6	83.2
2022-10-09T02:13	10	-1	0.1	-1	-1	347	0.2	346	347	10.6	82.8
2022-10-09T02:14	10	-1	0.1	-1	-1	347	0.4	346	347	10.5	83.2
2022-10-09T02:15	10	-1	0.1	-1	-1	346	0.2	346	347	10.4	83.6
2022-10-09T02:16	10	-1	0.1	-1	-1	346	0.3	346	347	10.3	83.7
2022-10-09T02:17	10	-1	0.1	-1	-1	346	0.2	346	347	10.1	84.3
2022-10-09T02:18	10	-1	0.1	-1	-1	347	0.3	346	347	10.1	84.8
2022-10-09T02:19	10	-1	0.1	-1	-1	347	0.2	346	347	10.0	84.9
2022-10-09T02:20	10	-1	0.1	-1	0	346	0.3	346	347	10.0	85.2
2022-10-09T02:21	10	0	0.1	-1	0	346	0.3	345	347	10.0	85.2
2022-10-09T02:22	10	0	0.1	0	0	346	0.2	345	346	9.9	85.8
2022-10-09T02:23	10	0	0.1	0	0	346	0.3	345	346	9.8	86.3
2022-10-09T02:24	10	0	0.1	0	0	346	0.2	345	346	9.8	86.9
2022-10-09T02:25	10	0	0.1	0	0	346	0.2	345	346	9.8	87.4
2022-10-09T02:26	10	0	0.1	0	0	346	0.2	345	346	9.8	87.7
2022-10-09T02:27	10	0	0.1	0	0	345	0.2	345	346	9.8	87.5
2022-10-09T02:28	10	0	0.1	0	0	345	0.2	345	346	9.7	87.7
2022-10-09T02:29	10	0	0.1	0	0	346	0.2	345	346	9.8	87.6
2022-10-09T02:30	10	0	0.1	0	0	346	0.2	345	346	9.9	86.9
2022-10-09T02:31	10	0	0.1	0	0	346	0.2	345	346	9.9	86.8
2022-10-09T02:32	10	0	0.1	0	0	346	0.2	345	346	10.0	86.9
2022-10-09T02:33	10	0	0.1	0	0	345	0.2	345	346	10.2	86.3
2022-10-09T02:34	10	0	0.1	0	0	345	0.3	345	346	10.4	85.4
2022-10-09T02:35	10	0	0.1	-1	0	345	0.2	345	346	10.3	85.1
2022-10-09T02:36	10	-1	0.1	-1	0	345	0.3	345	346	10.3	85.0
2022-10-09T02:37	10	-1	0.1	-1	-1	345	0.4	344	346	10.4	84.6
2022-10-09T02:38	10	-1	0.1	-1	-1	345	0.4	345	346	10.2	85.0
2022-10-09T02:39	10	-1	0.1	-1	-1	345	0.3	345	346	10.2	85.6
2022-10-09T02:40	10	-1	0.1	-1	-1	345	0.3	345	346	10.3	85.4
2022-10-09T02:41	10	-1	0.1	-1	-1	345	0.2	345	346	10.4	84.7
2022-10-09T02:42	10	-1	0.1	-1	-1	345	0.3	345	346	10.3	84.9
2022-10-09T02:43	10	-1	0.1	-1	-1	345	0.3	344	346	10.4	84.7
2022-10-09T02:44	10	-1	0.1	-1	-1	345	0.3	344	346	10.4	84.2
2022-10-09T02:45	10	-1	0.1	-2	-1	345	0.3	344	345	10.4	84.6
2022-10-09T02:46	10	-1	0.1	-2	-1	345	0.4	344	346	10.4	84.6
2022-10-09T02:47	10	-1	0.1	-2	-1	345	0.4	344	345	10.1	85.1
2022-10-09T02:48	10	-2	0.2	-2	-1	346	0.5	345	347	10.3	85.5
2022-10-09T02:49	10	-2	0.1	-2	-1	345	0.4	345	346	10.3	84.8
2022-10-09T02:50	10	-2	0.1	-2	-1	346	0.3	345	347	10.3	84.7
2022-10-09T02:51	10	-2	0.1	-2	-1	346	0.3	346	347	10.3	84.8
2022-10-09T02:52	10	-1	0.1	-2	-1	346	0.3	345	347	10.2	85.1
2022-10-09T02:53	10	-1	0.1	-2	-1	346	0.2	346	347	10.3	85.1
2022-10-09T02:54	10	-1	0.1	-2	-1	346	0.2	346	347	10.3	84.9
2022-10-09T02:55	10	-1	0.1	-2	-1	347	0.3	346	348	10.3	84.9
2022-10-09T02:56	10	-1	0.1	-2	-1	347	0.2	347	348	10.3	84.7
2022-10-09T02:57	10	-1	0.1	-2	-1	347	0.3	346	348	10.2	85.0
2022-10-09T02:58	10	-1	0.1	-2	-1	347	0.5	345	347	10.0	85.4
2022-10-09T02:59	10	-1	0.1	-2	-1	346	0.2	346	347	9.9	86.0
2022-10-09T03:00	10	-1	0.2	-2	-1	347	0.3	346	347	10.1	86.2
2022-10-09T03:01	10	-1	0.1	-2	-1	346	0.5	345	347	10.3	85.2
2022-10-09T03:02	10	-1	0.1	-2	-1	346	0.3	345	347	10.2	85.3
2022-10-09T03:03	10	-1	0.2	-2	-1	346	0.3	345	347	10.3	85.3
2022-10-09T03:04	10	-1	0.1	-2	-1	346	0.3	345	346	10.2	84.7
2022-10-09T03:05	10	-1	0.1	-2	-1	345	0.3	345	346	10.2	85.5
2022-10-09T03:06	10	-1	0.1	-1	-1	345	0.3	345	346	10.2	85.5
2022-10-09T03:07	10	-1	0.1	-1	-1	345	0.3	345	346	10.2	85.4
2022-10-09T03:08	10	-1	0.1	-1	-1	345	0.3	345	346	10.2	85.4
2022-10-09T03:09	10	-1	0.1	-1	0	345	0.3	345	346	10.1	85.6
2022-10-09T03:10	10	-1	0.1	-1	-1	346	0.3	345	346	10.0	86.4
2022-10-09T03:11	10	-1	0.1	-1	-1	346	0.2	345	346	10.1	86.5
2022-10-09T03:12	10	-1	0.1	-1	-1	346	0.2	345	346	10.1	86.3
2022-10-09T03:13	10	-1	0.2	-1	0	346	0.3	345	346	10.1	86.3
2022-10-09T03:14	10	-1	0.1	-1	0	346	0.3	345	346	10.0	86.6
2022-10-09T03:15	10	-1	0.2	-1	0	346	0.2	345	346	9.9	87.2
2022-10-09T03:16	10	-1	0.1	-1	0	346	0.4	345	347	9.7	87.6
2022-10-09T03:17	10	0	0.1	-1	0	347	0.3	346	348	9.4	88.2
2022-10-09T03:18	10	0	0.1	-1	0	348	0.4	347	349	9.3	89.4
2022-10-09T03:19	10	0	0.1	-1	0	349	0.5	348	350	9.2	90.2
2022-10-09T03:20	10	0	0.1	0	0	350	0.4	350	351	9.2	90.5
2022-10-09T03:21	10	0	0.2	-1	0	351	0.3	350	351	9.3	90.6
2022-10-09T03:22	10	0	0.2	-1	0	352	0.3	351	353	9.3	90.7
2022-10-09T03:23	10	0	0.1	0	0	352	0.2	352	353	9.3	90.8
2022-10-09T03:24	10	0	0.2	0	0	352	0.2	352	353	9.3	90.6
2022-10-09T03:25	10	0	0.2	-1	0	353	0.3	352	353	9.2	90.6
2022-10-09T03:26	10	0	0.1	0	0	353	0.3	353	354	9.4	90.8
2022-10-09T03:27	10	0	0.2	0	0	354	0.3	353	354	9.4	90.6
2022-10-09T03:28	10	0	0.1	0	0	354	0.3	354	355	9.4	90.5
2022-10-09T03:29	10	0	0.1	0	0	355	0.4	354	356	9.4	90.3
2022-10-09T03:30	10	0	0.2	0	1	356	0.3	355	356	9.4	90.1
2022-10-09T03:31	10	0	0.1	0	0	356	0.3	355	357	9.4	90.2
2022-10-09T03:32	10	0	0.1	0	1	356	0.3	356	357	9.6	90.2
2022-10-09T03:33	10	0	0.1	0	1	357	0.2	356	357	9.6	89.8
2022-10-09T03:34	10	0	0.1	0	0	357	0.3	356	358	9.6	89.7
2022-10-09T03:35	10	0	0.1	0	1	357	0.2	357	358	9.6	89.6
2022-10-09T03:36	10	0	0.1	0	0	357	0.2	357	358	9.6	89.4
2022-10-09T03:37	10	0	0.2	0	1	358	0.2	357	358	9.7	89.3
2022-10-09T03:38	10	0	0.1	0	0	358	0.2	357	358	9.6	89.2
2022-10-09T03:39	10	0	0.2	0	1	358	0.3	357	359	9.7	89.3
2022-10-09T03:40	10	0	0.1	0	0	358	0.3	357	359	9.7	89.2
2022-10-09T03:41	10	0	0.2	0	1	358	0.2	357	359	9.5	89.6
2022-10-09T03:42	10	0	0.1	0	0	358	0.2	358	359	9.5	90.2
2022-10-09T03:43	10	0	0.1	0	0	359	0.2	358	359	9.6	90.2
2022-10-09T03:44	10	0	0.1	-1	0	359	0.2	358	359	9.5	90.0
2022-10-09T03:45	10	0	0.2	0	0	359	0.3	358	359	9.5	90.0
2022-10-09T03:46	10	0	0.2	-1	0	359	0.2	358	359	9.4	90.4
2022-10-09T03:47	10	0	0.1	-1	0	359	0.3	358	359	9.4	91.0
2022-10-09T03:48	10	0	0.1	-1	0	359	0.3	358	360	9.4	91.5
2022-10-09T03:49	10	0	0.1	0	0	359	0.3	358	359	9.3	91.7
2022-10-09T03:50	10	0	0.1	0	1	359	0.3	358	359	9.3	92.0
2022-10-09T03:51	10	0	0.2	0	0	359	0.2	358	359	9.3	92.0
2022-10-09T03:52	10	0	0.1	0	0	359	0.2	358	359	9.3	92.1
2022-10-09T03:53	10	0	0.1	-1	0	359	0.3	358	360	9.3	92.1
2022-10-09T03:54	10	0	0.1	-1	0	359	0.2	358	359	9.3	92.1
2022-10-09T03:55	10	0	0.1	0	0	359	0.2	359	359	9.3	91.9
2022-10-09T03:56	10	0	0.1	0	0	359	0.2	358	359	9.4	91.8
2022-10-09T03:57	10	0	0.1	0	0	359	0.2	358	359	9.3	91.6
2022-10-09T03:58	10	0	0.2	-1	0	359	0.3	358	360	9.1	92.2
2022-10-09T03:59	10	0	0.1	-1	0	359	0.3	358	360	9.1	92.6
2022-10-09T04:00	10	0	0.1	-1	0	359	0.3	358	360	9.2	92.9
2022-10-09T04:01	10	0	0.2	-1	0	359	0.3	358	360	9.3	92.8
2022-10-09T04:02	10	0	0.1	-1	0	359	0.3	359	360	9.3	92.5
2022-10-09T04:03	10	0	0.2	-1	0	360	0.3	359	360	9.3	92.2
2022-10-09T04:04	10	0	0.1	-1	0	359	0.2	359	360	9.3	92.1
2022-10-09T04:05	10	0	0.2	-1	0	359	0.3	359	360	9.3	92.3
2022-10-09T04:06	10	0	0.2	-1	0	360	0.2	359	360	9.4	92.1
2022-10-09T04:07	10	0	0.1	-1	0	360	0.2	359	360	9.6	91.6
2022-10-09T04:08	10	0	0.1	-1	0	360	0.4	359	361	9.6	90.9
2022-10-09T04:09	10	0	0.1	-1	0	360	0.2	360	361	9.6	90.8
2022-10-09T04:10	10	0	0.1	-1	0	360	0.3	360	361	9.6	90.6
2022-10-09T04:11	10	0	0.2	-1	0	360	0.3	359	361	9.5	90.6
2022-10-09T04:12	10	0	0.2	0	0	360	0.3	359	361	9.6	90.7
2022-10-09T04:13	10	0	0.2	0	0	360	0.2	359	361	9.6	90.6
2022-10-09T04:14	10	0	0.1	0	0	360	0.4	359	361	9.5	91.2
2022-10-09T04:15	10	0	0.1	0	0	360	0.2	360	361	9.4	92.0
2022-10-09T04:16	10	0	0.2	0	1	360	0.3	359	361	9.4	92.3
2022-10-09T04:17	10	0	0.2	0	0	360	0.3	360	361	9.5	92.3
2022-10-09T04:18	10	0	0.1	0	0	360	0.3	360	361	9.5	92.2
2022-10-09T04:19	10	0	0.2	0	1	360	0.2	359	360	9.4	92.3
2022-10-09T04:20	10	0	0.1	0	0	360	0.2	360	361	9.4	92.4
2022-10-09T04:21	10	0	0.2	0	0	360	0.2	360	361	9.5	92.4
2022-10-09T04:22	10	0	0.1	0	0	360	0.2	360	361	9.5	92.4
2022-10-09T04:23	10	0	0.2	0	1	361	0.3	360	361	9.4	92.5
2022-10-09T04:24	10	0	0.2	0	0	361	0.2	360	361	9.5	92.5
2022-10-09T04:25	10	0	0.1	0	0	361	0.3	360	362	9.5	92.4
2022-10-09T04:26	10	0	0.1	0	0	361	0.2	360	361	9.5	92.4
2022-10-09T04:27	10	0	0.2	0	0	361	0.2	360	361	9.5	92.5
2022-10-09T04:28	10	0	0.2	0	0	361	0.2	360	361	9.5	92.6
2022-10-09T04:29	10	0	0.1	0	1	361	0.3	360	361	9.5	92.7
2022-10-09T04:30	10	0	0.1	0	0	361	0.3	361	362	9.5	92.6
2022-10-09T04:31	10	0	0.2	0	0	361	0.3	360	361	9.5	92.6
2022-10-09T04:32	10	0	0.1	-1	0	361	0.2	360	361	9.5	92.6
2022-10-09T04:33	10	0	0.2	-1	0	361	0.2	360	362	9.4	92.8
2022-10-09T04:34	10	-1	0.1	-1	0	361	0.2	360	361	9.5	93.1
2022-10-09T04:35	10	-1	0.2	-1	-1	360	0.3	360	361	9.5	92.9
2022-10-09T04:36	10	-1	0.2	-1	-1	361	0.3	360	361	9.5	92.8
2022-10-09T04:37	10	-1	0.2	-1	-1	361	0.4	360	361	9.5	93.0
2022-10-09T04:38	10	-1	0.2	-1	0	360	0.2	360	361	9.5	93.2
2022-10-09T04:39	10	-1	0.1	-1	-1	361	0.3	360	362	9.5	93.2
2022-10-09T04:40	10	-1	0.1	-1	0	361	0.3	360	361	9.6	92.9
2022-10-09T04:41	10	-1	0.1	-1	0	361	0.2	360	361	9.6	92.8
2022-10-09T04:42	10	-1	0.2	-1	0	360	0.3	360	361	9.6	92.6
2022-10-09T04:43	10	0	0.2	-1	0	360	0.2	360	361	9.6	92.5
2022-10-09T04:44	10	0	0.2	-1	0	360	0.2	360	361	9.6	92.5
2022-10-09T04:45	10	0	0.2	-1	0	360	0.3	359	361	9.6	92.5
2022-10-09T04:46	10	0	0.1	0	0	360	0.2	360	361	9.6	92.5
2022-10-09T04:47	10	0	0.1	0	0	360	0.3	359	360	9.6	92.3
2022-10-09T04:48	10	0	0.2	0	0	359	0.4	359	360	9.6	92.3
2022-10-09T04:49	10	0	0.2	-1	0	359	0.3	359	360	9.6	92.0
2022-10-09T04:50	10	0	0.1	-1	0	359	0.3	358	359	9.6	91.9
2022-10-09T04:51	10	0	0.1	-1	0	358	0.3	358	359	9.6	92.2
2022-10-09T04:52	10	0	0.1	-1	0	358	0.3	357	358	9.5	92.6
2022-10-09T04:53	10	0	0.2	-1	0	357	0.3	356	357	9.6	92.8
2022-10-09T04:54	10	0	0.2	-1	0	356	0.3	356	357	9.6	92.7
2022-10-09T04:55	10	0	0.2	-1	0	355	0.4	354	356	9.6	92.6
2022-10-09T04:56	10	0	0.2	-1	0	354	0.3	354	355	9.6	92.3
2022-10-09T04:57	10	0	0.1	0	0	354	0.3	353	355	9.6	92.1
2022-10-09T04:58	10	0	0.2	0	0	353	0.2	353	354	9.6	92.2
2022-10-09T04:59	10	0	0.2	0	0	353	0.2	353	354	9.6	92.4
2022-10-09T05:00	10	0	0.2	-1	0	353	0.3	352	353	9.6	92.2
2022-10-09T05:01	10	0	0.1	0	0	353	0.2	352	353	9.6	91.9
2022-10-09T05:02	10	0	0.2	0	0	352	0.3	352	353	9.7	91.5
2022-10-09T05:03	10	0	0.1	-1	0	352	0.3	351	352	9.6	91.3
2022-10-09T05:04	10	0	0.1	-1	0	351	0.3	351	352	9.6	91.4
2022-10-09T05:05	10	0	0.1	-1	0	351	0.2	351	352	9.6	91.7
2022-10-09T05:06	10	0	0.1	-1	0	351	0.3	351	352	9.6	91.8
2022-10-09T05:07	10	0	0.1	-1	0	351	0.3	351	352	9.6	91.9
2022-10-09T05:08	10	0	0.1	-1	0	351	0.2	351	352	9.6	91.9
2022-10-09T05:09	10	0	0.1	-1	0	351	0.2	351	352	9.6	91.8
2022-10-09T05:10	10	0	0.2	-1	0	351	0.3	350	352	9.6	91.7
2022-10-09T05:11	10	0	0.1	-1	0	351	0.2	351	352	9.6	91.8
2022-10-09T05:12	10	0	0.1	-1	0	351	0.2	351	352	9.6	91.9
2022-10-09T05:13	10	0	0.1	-1	0	351	0.3	350	352	9.6	91.9
2022-10-09T05:14	10	0	0.1	-1	0	351	0.2	350	351	9.6	91.8
2022-10-09T05:15	10	0	0.1	-1	0	351	0.2	351	352	9.6	91.5
2022-10-09T05:16	10	0	0.1	-1	0	352	0.2	351	352	9.6	91.6
2022-10-09T05:17	10	0	0.2	-1	0	352	0.3	351	352	9.6	92.0
2022-10-09T05:18	10	0	0.1	-1	0	352	0.3	351	353	9.6	91.9
2022-10-09T05:19	10	0	0.1	-1	0	352	0.3	351	353	9.6	91.9
2022-10-09T05:20	10	0	0.2	-1	0	353	0.3	352	353	9.6	92.1
2022-10-09T05:21	10	-1	0.1	-1	0	353	0.3	353	354	9.6	91.9
2022-10-09T05:22	10	-1	0.1	-1	0	353	0.3	353	354	9.6	91.9
2022-10-09T05:23	10	-1	0.1	-1	0	354	0.3	353	354	9.6	92.1
2022-10-09T05:24	10	-1	0.2	-1	0	355	0.3	354	355	9.6	92.4
2022-10-09T05:25	10	-1	0.1	-1	0	355	0.3	354	355	9.7	91.9
2022-10-09T05:26	10	-1	0.2	-1	0	355	0.3	354	356	9.7	91.8
2022-10-09T05:27	10	-1	0.2	-1	0	356	0.2	355	356	9.7	91.7
2022-10-09T05:28	10	0	0.2	-1	0	355	0.3	355	356	9.7	91.8
2022-10-09T05:29	10	0	0.2	-1	0	356	0.3	355	356	9.7	91.6
2022-10-09T05:30	10	0	0.2	0	0	356	0.3	354	357	9.8	90.7
2022-10-09T05:31	10	0	0.2	0	0	356	0.3	356	357	9.9	89.8
2022-10-09T05:32	10	0	0.1	0	0	357	0.2	356	357	9.9	89.0
2022-10-09T05:33	10	0	0.2	0	0	357	0.2	356	357	9.9	88.6
2022-10-09T05:34	10	0	0.2	0	0	356	0.2	356	357	9.9	89.0
2022-10-09T05:35	10	0	0.2	0	1	357	0.3	356	357	9.9	89.3
2022-10-09T05:36	10	0	0.2	0	1	357	0.3	356	357	9.7	89.7
2022-10-09T05:37	10	0	0.2	0	1	357	0.2	356	357	9.6	91.0
2022-10-09T05:38	10	0	0.2	0	1	357	0.2	357	357	9.6	91.7
2022-10-09T05:39	10	0	0.2	0	1	357	0.3	356	358	9.8	91.0
2022-10-09T05:40	10	1	0.2	0	1	357	0.3	356	358	9.8	90.1
2022-10-09T05:41	10	0	0.2	0	1	357	0.3	356	358	9.9	89.5
2022-10-09T05:42	10	1	0.2	0	1	357	0.4	356	358	9.9	89.2
2022-10-09T05:43	10	1	0.2	0	1	357	0.2	356	357	9.8	89.6
2022-10-09T05:44	10	1	0.2	0	1	357	0.2	356	357	9.9	89.6
2022-10-09T05:45	10	1	0.1	0	1	357	0.2	357	358	10.0	88.8
2022-10-09T05:46	10	1	0.2	0	1	357	0.2	357	358	10.0	88.1
2022-10-09T05:47	10	0	0.1	0	1	357	0.2	357	358	9.9	88.4
2022-10-09T05:48	10	0	0.1	0	1	358	0.2	358	358	9.9	88.9
2022-10-09T05:49	10	0	0.1	0	1	358	0.3	357	359	9.8	89.3
2022-10-09T05:50	10	1	0.1	0	1	358	0.3	358	359	10.0	88.9
2022-10-09T05:51	10	0	0.2	0	1	359	0.2	358	359	10.0	88.4
2022-10-09T05:52	10	0	0.1	0	1	359	0.4	358	360	10.0	88.0
2022-10-09T05:53	10	0	0.2	0	1	360	0.4	358	360	10.1	87.6
2022-10-09T05:54	10	1	0.1	0	1	360	0.3	359	360	10.1	87.0
2022-10-09T05:55	10	1	0.2	0	1	360	0.4	359	361	10.0	88.3
2022-10-09T05:56	10	1	0.1	0	1	360	0.2	360	361	10.1	88.2
2022-10-09T05:57	10	1	0.2	0	1	361	0.3	360	361	10.2	87.7
2022-10-09T05:58	10	1	0.2	0	1	361	0.2	360	361	10.3	86.7
2022-10-09T05:59	10	1	0.1	1	1	361	0.3	360	362	10.3	86.6
2022-10-09T06:00	10	1	0.2	1	2	362	0.3	361	362	10.3	86.8
2022-10-09T06:01	10	1	0.2	1	1	362	0.3	361	363	10.4	86.4
2022-10-09T06:02	10	1	0.1	1	2	362	0.3	361	362	10.3	86.8
2022-10-09T06:03	10	1	0.2	1	2	362	0.2	361	362	10.3	86.8
2022-10-09T06:04	10	1	0.1	1	2	362	0.3	361	363	10.3	87.0
2022-10-09T06:05	10	1	0.1	1	1	362	0.2	362	363	10.3	87.3
2022-10-09T06:06	10	1	0.2	1	2	363	0.3	362	363	10.3	87.4
2022-10-09T06:07	10	2	0.1	1	2	363	0.3	362	363	10.3	87.3
2022-10-09T06:08	10	2	0.2	1	2	363	0.3	362	364	10.2	87.5
2022-10-09T06:09	10	2	0.2	2	2	363	0.3	362	364	10.2	87.9
2022-10-09T06:10	10	2	0.2	2	2	364	0.3	363	364	10.2	88.1
2022-10-09T06:11	10	2	0.2	2	3	364	0.3	363	365	10.2	88.4
2022-10-09T06:12	10	3	0.1	2	3	363	0.3	363	364	10.2	88.6
2022-10-09T06:13	10	3	0.2	2	3	364	0.3	363	364	10.2	88.4
2022-10-09T06:14	10	3	0.2	2	3	364	0.4	363	365	10.2	88.2
2022-10-09T06:15	10	3	0.2	3	3	364	0.3	363	364	10.3	88.3
2022-10-09T06:16	10	3	0.1	3	3	364	0.3	363	365	10.2	88.3
2022-10-09T06:17	10	3	0.1	3	3	364	0.2	364	365	10.2	88.7
2022-10-09T06:18	10	3	0.2	3	4	364	0.3	364	365	10.3	88.8
2022-10-09T06:19	10	3	0.2	3	4	365	0.2	364	365	10.2	89.0
2022-10-09T06:20	10	4	0.2	3	4	365	0.3	363	365	10.2	89.1
2022-10-09T06:21	10	4	0.2	4	4	365	0.2	364	365	10.2	89.6
2022-10-09T06:22	10	4	0.2	4	4	365	0.3	364	365	10.3	89.3
2022-10-09T06:23	10	4	0.2	4	5	364	0.2	364	365	10.1	89.4
2022-10-09T06:24	10	4	0.2	4	5	365	0.2	364	365	10.1	90.5
2022-10-09T06:25	10	5	0.1	4	5	365	0.2	364	365	10.0	91.0
2022-10-09T06:26	10	5	0.2	5	5	365	0.2	364	365	10.1	91.1
2022-10-09T06:27	10	5	0.1	5	6	365	0.3	364	365	10.1	91.0
2022-10-09T06:28	10	6	0.2	5	6	365	0.3	364	366	10.2	90.4
2022-10-09T06:29	10	6	0.2	6	7	365	0.3	364	366	10.1	90.7
2022-10-09T06:30	10	7	0.2	7	7	365	0.3	364	365	10.1	91.1
2022-10-09T06:31	10	7	0.1	7	8	365	0.2	364	365	10.0	91.4
2022-10-09T06:32	10	7	0.1	7	8	365	0.2	364	365	10.0	91.4
2022-10-09T06:33	10	8	0.2	8	8	365	0.3	364	366	10.0	91.6
2022-10-09T06:34	10	8	0.2	8	9	365	0.2	364	365	9.9	92.2
2022-10-09T06:35	10	9	0.1	8	9	365	0.2	364	365	9.9	92.1
2022-10-09T06:36	10	9	0.1	8	9	365	0.2	365	365	9.9	91.6
2022-10-09T06:37	10	9	0.3	9	10	365	0.2	364	365	9.9	91.5
2022-10-09T06:38	10	10	0.4	10	11	365	0.3	364	366	9.9	91.8
2022-10-09T06:39	10	12	0.4	11	12	365	0.3	365	366	9.9	91.8
2022-10-09T06:40	10	13	0.4	12	14	365	0.3	365	366	9.9	91.9
2022-10-09T06:41	10	14	0.3	14	15	366	0.2	365	366	9.9	92.3
2022-10-09T06:42	10	15	0.1	15	15	366	0.3	365	367	9.9	92.5
2022-10-09T06:43	10	15	0.1	14	15	366	0.2	365	367	10.0	92.1
2022-10-09T06:44	10	15	0.1	14	15	366	0.2	366	366	10.0	91.6
2022-10-09T06:45	10	15	0.1	14	15	366	0.2	366	367	10.0	91.4
2022-10-09T06:46	10	15	0.1	15	15	366	0.2	366	367	10.0	91.6
2022-10-09T06:47	10	15	0.1	15	15	367	0.2	366	367	10.1	92.2
2022-10-09T06:48	10	15	0.2	15	16	367	0.2	366	367	10.0	92.6
2022-10-09T06:49	10	16	0.3	16	17	367	0.2	366	367	10.0	92.5
2022-10-09T06:50	10	17	0.2	17	18	367	0.2	367	368	10.0	92.4
2022-10-09T06:51	10	18	0.2	18	18	367	0.2	367	368	10.0	92.6
2022-10-09T06:52	10	19	0.2	18	19	368	0.2	367	368	9.9	92.6
2022-10-09T06:53	10	20	0.3	19	20	368	0.2	368	369	10.0	92.6
2022-10-09T06:54	10	20	0.1	20	21	369	0.2	368	369	9.9	92.7
2022-10-09T06:55	10	20	0.2	20	20	368	0.2	368	369	10.0	92.5
2022-10-09T06:56	10	19	0.2	19	20	369	0.2	368	369	10.0	92.1
2022-10-09T06:57	10	19	0.2	18	19	369	0.2	368	369	9.9	91.8
2022-10-09T06:58	10	18	0.4	17	18	368	0.2	368	369	9.9	91.8
2022-10-09T06:59	10	16	0.4	16	17	369	0.4	368	369	9.9	91.7
2022-10-09T07:00	10	16	0.1	16	16	368	0.3	367	369	9.8	91.9
2022-10-09T07:01	10	16	0.2	16	17	368	0.2	368	369	9.8	92.7
2022-10-09T07:02	10	17	0.5	16	18	368	0.4	367	369	9.7	93.2
2022-10-09T07:03	10	19	0.5	18	20	368	0.2	368	369	9.8	93.3
2022-10-09T07:04	10	21	0.4	20	21	369	0.2	368	369	9.9	93.5
2022-10-09T07:05	10	22	0.3	21	22	369	0.3	369	370	9.9	93.6
2022-10-09T07:06	10	22	0.1	22	22	370	0.3	369	370	10.0	93.3
2022-10-09T07:07	10	21	0.4	21	22	370	0.3	369	370	10.1	92.7
2022-10-09T07:08	10	20	0.3	19	21	370	0.3	369	370	10.1	92.0
2022-10-09T07:09	10	19	0.3	18	20	370	0.3	369	370	10.2	91.7
2022-10-09T07:10	10	18	0.4	17	18	369	0.2	369	370	10.2	91.6
2022-10-09T07:11	10	17	0.4	16	17	369	0.2	369	370	10.3	91.0
2022-10-09T07:12	10	15	0.3	15	16	369	0.2	368	369	10.3	90.5
2022-10-09T07:13	10	14	0.3	14	15	369	0.2	368	369	10.4	90.2
2022-10-09T07:14	10	14	0.2	13	14	369	0.2	368	369	10.4	89.2
2022-10-09T07:15	10	13	0.1	13	13	369	0.3	368	369	10.4	89.1
2022-10-09T07:16	10	13	0.1	13	13	368	0.3	368	369	10.4	88.8
2022-10-09T07:17	10	12	0.1	12	13	368	0.4	368	369	10.5	89.0
2022-10-09T07:18	10	12	0.1	12	12	369	0.3	368	369	10.5	89.0
2022-10-09T07:19	10	12	0.1	12	13	368	0.3	368	369	10.5	89.1
2022-10-09T07:20	10	13	0.2	13	13	368	0.2	368	369	10.5	89.0
2022-10-09T07:21	10	14	0.3	13	14	368	0.2	368	369	10.5	89.1
2022-10-09T07:22	10	15	0.2	14	15	368	0.3	368	369	10.5	89.3
2022-10-09T07:23	10	15	0.1	15	15	368	0.3	368	369	10.5	89.3
2022-10-09T07:24	10	15	0.1	15	15	368	0.3	367	368	10.4	89.1
2022-10-09T07:25	10	15	0.1	15	15	368	0.3	367	368	10.4	89.0
2022-10-09T07:26	10	15	0.1	15	15	367	0.2	367	368	10.5	89.1
2022-10-09T07:27	10	16	0.2	15	16	367	0.3	366	368	10.5	88.8
2022-10-09T07:28	10	17	0.3	16	18	367	0.3	366	367	10.5	89.1
2022-10-09T07:29	10	18	0.3	18	19	367	0.3	366	367	10.5	89.1
2022-10-09T07:30	10	19	0.3	18	20	367	0.4	366	367	10.5	88.9
2022-10-09T07:31	10	20	0.2	19	20	367	0.3	366	368	10.5	89.0
2022-10-09T07:32	10	20	0.2	20	21	367	0.3	366	367	10.5	88.9
2022-10-09T07:33	10	19	0.1	19	20	366	0.4	365	367	10.5	88.8
2022-10-09T07:34	10	20	0.5	19	21	366	0.3	366	367	10.5	88.8
2022-10-09T07:35	10	20	0.2	20	21	366	0.2	365	366	10.5	88.1
2022-10-09T07:36	10	21	0.9	20	23	366	0.3	365	366	10.6	88.1
2022-10-09T07:37	10	25	1.3	23	27	366	0.3	365	367	10.6	87.9
2022-10-09T07:38	10	28	0.4	27	29	366	0.3	366	367	10.6	87.6
2022-10-09T07:39	10	28	0.6	27	29	367	0.4	366	368	10.6	87.7
2022-10-09T07:40	10	28	0.7	27	30	367	0.2	366	367	10.6	87.6
2022-10-09T07:41	10	31	1.0	30	33	367	0.2	367	368	10.6	87.4
2022-10-09T07:42	10	35	0.5	33	35	368	0.5	367	368	10.7	87.3
2022-10-09T07:43	10	38	1.5	35	40	368	0.3	368	369	10.7	87.1
2022-10-09T07:44	10	38	1.2	37	40	369	0.3	368	370	10.7	87.8
2022-10-09T07:45	10	39	1.0	38	41	369	0.3	369	370	10.7	87.3
2022-10-09T07:46	10	45	2.5	41	49	370	0.3	369	370	10.7	86.8
2022-10-09T07:47	10	52	2.1	49	56	370	0.3	370	371	10.8	87.0
2022-10-09T07:48	10	54	4.1	44	57	371	0.3	371	372	10.8	87.0
2022-10-09T07:49	10	47	2.7	44	52	372	0.4	371	373	10.8	87.8
2022-10-09T07:50	10	50	4.1	43	54	373	0.3	372	373	10.8	87.0
2022-10-09T07:51	10	49	3.4	43	54	372	0.3	372	373	10.9	86.7
2022-10-09T07:52	10	42	11.2	27	54	373	0.7	371	374	10.9	87.0
2022-10-09T07:53	10	27	0.1	27	27	372	0.3	371	372	10.9	86.9
2022-10-09T07:54	10	28	0.3	27	28	371	0.3	370	371	10.9	86.5
2022-10-09T07:55	10	29	0.3	28	29	371	0.4	370	372	10.9	86.4
2022-10-09T07:56	10	30	0.2	29	30	371	0.2	371	372	10.9	85.8
2022-10-09T07:57	10	30	0.1	30	30	371	0.3	371	372	10.9	86.3
2022-10-09T07:58	10	30	0.1	30	30	371	0.3	371	372	10.9	86.0
2022-10-09T07:59	10	30	0.1	30	31	372	0.3	371	372	10.9	86.0
2022-10-09T08:00	10	31	0.1	31	31	372	0.2	371	372	10.9	85.8
2022-10-09T08:01	10	31	0.1	31	31	372	0.3	372	373	11.0	85.8
2022-10-09T08:02	10	31	0.1	31	31	373	0.4	372	373	11.0	85.7
2022-10-09T08:03	10	31	0.2	30	31	373	0.3	372	374	11.0	86.1
2022-10-09T08:04	10	30	0.2	30	30	373	0.2	373	374	11.0	86.1
2022-10-09T08:05	10	29	0.1	29	30	374	0.2	373	374	11.0	85.7
2022-10-09T08:06	10	29	0.1	29	30	374	0.4	374	375	11.0	85.9
2022-10-09T08:07	10	30	0.2	30	30	374	0.3	374	375	11.0	85.7
2022-10-09T08:08	10	30	0.1	30	31	373	0.2	373	374	11.0	85.2
2022-10-09T08:09	10	31	0.3	30	31	374	0.3	373	375	11.1	84.9
2022-10-09T08:10	10	32	0.3	31	33	374	0.3	373	374	11.1	84.2
2022-10-09T08:11	10	33	0.2	32	33	374	0.4	373	375	11.1	84.4
2022-10-09T08:12	10	34	0.3	33	35	375	0.5	374	376	11.1	84.2
2022-10-09T08:13	10	35	0.4	35	36	376	0.3	375	377	11.2	84.8
2022-10-09T08:14	10	36	0.3	36	37	377	0.3	376	378	11.1	84.4
2022-10-09T08:15	10	37	0.3	37	38	378	0.4	377	378	11.2	84.3
2022-10-09T08:16	10	38	0.3	38	39	378	0.2	377	378	11.4	85.3
2022-10-09T08:17	10	39	0.2	38	39	378	0.4	377	379	11.3	84.8
2022-10-09T08:18	10	39	0.1	39	39	379	0.3	378	379	11.3	84.2
2022-10-09T08:19	10	38	0.3	38	39	379	0.4	378	380	11.3	84.0
2022-10-09T08:20	10	38	0.2	37	38	379	0.4	378	379	11.3	83.5
2022-10-09T08:21	10	38	0.2	37	38	378	0.3	378	379	11.3	83.0
2022-10-09T08:22	10	39	0.3	38	39	379	0.3	378	379	11.3	82.9
2022-10-09T08:23	10	40	0.4	39	41	379	0.2	378	380	11.2	82.3
2022-10-09T08:24	10	41	0.3	40	42	379	0.3	378	380	11.2	82.5
2022-10-09T08:25	10	42	0.3	42	43	380	0.3	379	380	11.3	82.8
2022-10-09T08:26	10	43	0.2	43	44	380	0.2	379	380	11.3	82.6
2022-10-09T08:27	10	44	0.1	43	44	380	0.3	379	380	11.3	82.6
2022-10-09T08:28	10	44	0.1	43	44	380	0.2	379	381	11.3	82.8
2022-10-09T08:29	10	43	0.2	43	43	380	0.3	380	381	11.3	82.9
2022-10-09T08:30	10	43	0.1	42	43	380	0.3	380	381	11.3	82.9
2022-10-09T08:31	10	43	0.3	43	44	380	0.2	380	381	11.3	83.0
2022-10-09T08:32	10	44	0.4	44	45	381	0.3	380	381	11.3	82.9
2022-10-09T08:33	10	46	0.4	45	47	381	0.3	380	381	11.3	82.6
2022-10-09T08:34	10	47	0.3	47	47	381	0.4	381	382	11.4	83.2
2022-10-09T08:35	10	48	0.1	48	48	382	0.3	382	383	11.4	82.7
2022-10-09T08:36	10	48	0.1	48	48	383	0.4	382	384	11.4	82.9
2022-10-09T08:37	10	48	0.2	48	48	383	0.6	382	384	11.5	83.0
2022-10-09T08:38	10	49	0.3	48	49	383	0.2	382	383	11.5	83.0
2022-10-09T08:39	10	50	0.1	49	50	383	0.3	382	383	11.4	82.5
2022-10-09T08:40	10	49	0.2	49	50	383	0.3	382	384	11.4	82.6
2022-10-09T08:41	10	48	0.2	48	49	384	0.4	383	385	11.4	82.5
2022-10-09T08:42	10	48	0.1	48	48	384	0.3	383	385	11.5	82.8
2022-10-09T08:43	10	48	0.2	47	48	384	0.3	383	385	11.5	83.0
2022-10-09T08:44	10	47	0.4	46	47	384	0.4	383	385	11.5	82.8
2022-10-09T08:45	10	45	0.4	45	46	383	0.4	382	384	11.4	82.7
2022-10-09T08:46	10	44	0.5	43	45	383	0.3	383	384	11.4	82.3
2022-10-09T08:47	10	42	0.6	41	43	383	0.3	383	384	11.4	82.4
2022-10-09T08:48	10	40	0.7	39	41	383	0.4	383	384	11.4	82.4
2022-10-09T08:49	10	37	1.0	35	39	383	0.3	382	383	11.5	82.0
2022-10-09T08:50	10	33	1.1	32	35	382	0.3	381	383	11.5	82.0
2022-10-09T08:51	10	30	0.6	30	32	382	0.3	381	383	11.5	82.6
2022-10-09T08:52	10	28	0.6	28	29	382	0.5	381	382	11.5	82.9
2022-10-09T08:53	10	26	0.7	25	28	381	0.4	380	381	11.4	82.8
2022-10-09T08:54	10	24	0.5	23	25	379	0.5	378	380	11.4	82.7
2022-10-09T08:55	10	23	0.1	23	24	379	0.3	378	379	11.3	82.7
2022-10-09T08:56	10	23	0.3	23	24	378	0.2	378	379	11.3	82.7
2022-10-09T08:57	10	25	0.8	24	27	379	0.3	378	379	11.3	82.6
2022-10-09T08:58	10	29	1.1	27	31	379	0.3	378	379	11.3	82.5
2022-10-09T08:59	10	33	1.4	31	35	380	0.6	378	381	11.4	82.5
2022-10-09T09:00	10	37	1.1	35	39	381	0.3	380	382	11.4	82.9
2022-10-09T09:01	10	40	0.7	39	41	381	0.3	381	382	11.4	83.0
2022-10-09T09:02	10	42	0.3	41	42	382	0.3	381	382	11.4	82.7
2022-10-09T09:03	10	42	0.2	42	43	383	0.5	382	384	11.5	83.4
2022-10-09T09:04	10	43	0.5	43	44	383	0.3	383	384	11.7	84.4
2022-10-09T09:05	10	46	0.9	44	47	384	0.4	384	385	11.8	84.0
2022-10-09T09:06	10	49	1.1	47	51	384	0.3	384	385	11.6	82.7
2022-10-09T09:07	10	53	0.9	51	54	385	0.5	384	386	11.8	83.4
2022-10-09T09:08	10	55	0.5	54	56	384	0.4	384	386	11.6	82.6
2022-10-09T09:09	10	56	0.3	56	57	385	0.3	384	385	11.6	82.7
2022-10-09T09:10	10	57	0.2	57	57	386	0.4	385	386	11.7	82.7
2022-10-09T09:11	10	57	0.3	57	58	387	0.3	386	387	11.8	83.3
2022-10-09T09:12	10	58	0.4	58	59	387	0.4	387	388	11.8	83.2
2022-10-09T09:13	10	59	0.3	59	60	388	0.3	387	389	11.6	82.4
2022-10-09T09:14	10	61	0.6	60	62	388	0.5	387	389	11.7	81.9
2022-10-09T09:15	10	63	0.7	62	65	389	0.4	389	390	11.9	82.9
2022-10-09T09:16	10	65	0.4	64	66	390	0.6	389	392	12.1	83.5
2022-10-09T09:17	10	66	0.1	66	66	390	0.8	388	392	12.0	82.5
2022-10-09T09:18	10	66	0.2	66	66	389	0.5	389	391	11.9	82.4
2022-10-09T09:19	10	66	0.1	65	66	389	0.3	389	390	11.8	82.3
2022-10-09T09:20	10	66	0.1	66	66	390	0.4	389	391	11.9	82.2
2022-10-09T09:21	10	66	0.1	66	66	391	0.4	390	392	12.0	82.4
2022-10-09T09:22	10	67	0.2	66	67	390	0.2	390	391	11.9	81.9
2022-10-09T09:23	10	67	0.1	67	67	391	0.3	390	391	12.0	82.4
2022-10-09T09:24	10	66	0.3	65	67	390	0.7	388	391	12.0	82.3
2022-10-09T09:25	10	65	0.5	64	65	389	0.5	389	390	11.9	82.0
2022-10-09T09:26	10	63	0.2	63	64	390	0.3	390	391	12.1	82.4
2022-10-09T09:27	10	63	0.3	62	63	390	0.6	389	391	11.9	81.6
2022-10-09T09:28	10	61	0.8	60	62	389	0.4	388	390	11.8	81.4
2022-10-09T09:29	10	58	0.7	57	60	389	0.4	388	390	11.8	81.6
2022-10-09T09:30	10	57	0.2	56	57	389	0.2	388	389	11.9	81.9
2022-10-09T09:31	10	57	0.1	56	57	389	0.3	389	390	12.0	81.8
2022-10-09T09:32	10	57	0.1	57	57	389	0.9	387	390	12.1	82.8
2022-10-09T09:33	10	56	0.2	56	57	388	0.5	387	389	12.2	83.0
2022-10-09T09:34	10	56	0.2	55	56	388	0.2	388	389	12.3	83.1
2022-10-09T09:35	10	55	0.2	55	55	388	0.3	387	389	12.1	82.3
2022-10-09T09:36	10	54	0.2	54	55	389	0.4	388	390	12.1	82.5
2022-10-09T09:37	10	54	0.1	54	54	389	0.3	389	390	12.1	82.5
2022-10-09T09:38	10	54	0.1	53	54	389	0.4	388	390	12.1	82.5
2022-10-09T09:39	10	53	0.1	53	54	389	0.4	388	390	12.2	82.9
2022-10-09T09:40	10	53	0.1	53	53	388	0.5	387	389	12.0	81.9
2022-10-09T09:41	10	53	0.1	53	54	388	0.3	387	388	12.0	82.2
2022-10-09T09:42	10	54	0.1	53	54	387	0.3	387	388	11.9	81.9
2022-10-09T09:43	10	54	0.1	54	54	387	0.2	387	388	11.9	82.0
2022-10-09T09:44	10	54	0.2	54	54	388	0.5	387	389	12.1	82.5
2022-10-09T09:45	10	55	0.1	54	55	389	0.2	388	389	12.1	81.8
2022-10-09T09:46	10	55	0.2	55	56	388	0.2	388	389	12.0	81.4
2022-10-09T09:47	10	56	0.2	56	56	389	0.3	388	390	12.0	81.0
2022-10-09T09:48	10	57	0.2	56	57	390	0.3	389	391	12.1	81.0
2022-10-09T09:49	10	57	0.1	57	57	390	0.4	389	391	12.2	81.5
2022-10-09T09:50	10	56	0.8	54	57	391	0.3	390	392	12.2	81.6
2022-10-09T09:51	10	52	1.0	50	54	390	0.7	389	391	12.0	81.0
2022-10-09T09:52	10	49	0.6	48	50	389	0.3	388	390	12.1	81.2
2022-10-09T09:53	10	48	0.2	47	48	390	0.8	388	391	12.2	81.7
2022-10-09T09:54	10	47	0.2	47	48	389	1.0	388	392	12.2	81.9
2022-10-09T09:55	10	47	0.2	46	47	388	0.3	387	389	12.1	81.5
2022-10-09T09:56	10	46	0.1	46	47	388	0.3	387	388	12.1	81.6
2022-10-09T09:57	10	47	0.2	46	47	388	0.3	387	389	12.1	81.6
2022-10-09T09:58	10	47	0.2	47	48	388	0.3	387	389	12.1	81.5
2022-10-09T09:59	10	48	0.1	48	48	388	0.3	387	388	12.0	81.1
2022-10-09T10:00	10	48	0.1	48	48	387	0.5	387	389	12.0	80.9
2022-10-09T10:01	10	48	0.1	48	48	388	0.5	387	389	12.0	81.1
2022-10-09T10:02	10	49	0.2	48	49	388	0.5	387	389	12.1	81.3
2022-10-09T10:03	10	50	0.4	49	51	388	0.9	387	390	12.3	82.3
2022-10-09T10:04	10	51	0.4	51	52	389	0.3	388	390	12.2	81.8
2022-10-09T10:05	10	52	0.2	52	53	389	0.3	388	389	12.2	81.4
2022-10-09T10:06	10	52	0.4	51	53	389	0.4	388	390	12.1	81.0
2022-10-09T10:07	10	50	0.6	49	51	388	0.3	387	389	12.1	80.9
2022-10-09T10:08	10	49	0.1	49	49	389	0.5	388	389	12.2	80.6
2022-10-09T10:09	10	49	0.2	49	50	389	0.3	389	390	12.4	80.1
2022-10-09T10:10	10	50	0.4	49	51	390	0.5	389	391	12.4	80.5
2022-10-09T10:11	10	51	0.1	51	51	390	0.7	389	391	12.3	80.6
2022-10-09T10:12	10	50	0.4	50	51	388	0.8	387	390	12.2	80.0
2022-10-09T10:13	10	50	0.1	50	50	387	0.2	387	388	12.1	79.9
2022-10-09T10:14	10	50	0.2	50	50	387	0.4	387	388	12.2	80.9
2022-10-09T10:15	10	51	0.1	50	51	388	0.3	387	388	12.1	80.1
2022-10-09T10:16	10	50	0.1	50	51	388	0.5	388	389	12.3	80.4
2022-10-09T10:17	10	50	0.1	50	51	389	0.4	388	390	12.4	80.8
2022-10-09T10:18	10	51	0.1	50	51	389	0.3	389	390	12.4	81.5
2022-10-09T10:19	10	51	0.1	51	51	389	0.3	389	390	12.4	81.2
2022-10-09T10:20	10	51	0.1	51	51	390	0.4	388	390	12.6	81.6
2022-10-09T10:21	10	51	0.1	51	52	390	0.3	389	391	12.5	81.1
2022-10-09T10:22	10	51	0.4	50	51	390	0.3	390	391	12.4	80.4
2022-10-09T10:23	10	49	0.7	48	50	390	0.4	389	390	12.5	80.8
2022-10-09T10:24	10	47	0.1	47	48	389	0.7	388	390	12.5	80.6
2022-10-09T10:25	10	47	0.3	46	47	389	0.3	388	390	12.4	80.2
2022-10-09T10:26	10	45	0.2	45	46	389	0.4	388	390	12.3	80.4
2022-10-09T10:27	10	46	0.3	45	47	389	0.4	388	390	12.3	80.4
2022-10-09T10:28	10	47	0.5	46	48	390	0.5	389	390	12.5	81.2
2022-10-09T10:29	10	49	0.7	48	51	391	0.3	390	392	12.5	80.8
2022-10-09T10:30	10	52	0.6	51	53	392	0.3	391	392	12.8	82.1
2022-10-09T10:31	10	54	0.4	53	54	391	0.5	390	392	12.6	81.3
2022-10-09T10:32	10	55	0.3	54	55	390	0.5	389	391	12.4	80.6
2022-10-09T10:33	10	55	0.1	55	56	391	0.4	390	391	12.5	81.4
2022-10-09T10:34	10	55	0.2	55	55	390	0.5	389	391	12.4	80.5
2022-10-09T10:35	10	55	0.1	54	55	390	0.5	389	391	12.3	79.9
2022-10-09T10:36	10	54	0.1	54	54	391	0.4	390	392	12.4	80.6
2022-10-09T10:37	10	54	0.3	53	54	392	0.2	391	392	12.5	80.9
2022-10-09T10:38	10	52	0.6	51	53	391	0.2	391	392	12.6	81.0
2022-10-09T10:39	10	51	0.2	51	52	391	0.3	390	392	12.5	79.9
2022-10-09T10:40	10	52	0.1	52	52	392	0.2	391	392	12.6	80.6
2022-10-09T10:41	10	52	0.3	52	53	391	0.2	391	392	12.5	80.3
2022-10-09T10:42	10	54	0.7	53	55	392	0.4	391	393	12.6	81.2
2022-10-09T10:43	10	56	0.3	55	57	391	0.6	390	392	12.5	79.3
2022-10-09T10:44	10	57	0.1	57	57	391	0.2	391	392	12.4	78.9
2022-10-09T10:45	10	57	0.3	57	58	392	0.3	391	392	12.5	78.9
2022-10-09T10:46	10	58	0.2	58	58	392	0.3	392	393	12.6	79.4
2022-10-09T10:47	10	58	0.3	57	58	393	0.2	392	394	12.6	79.1
2022-10-09T10:48	10	56	0.7	55	57	393	0.2	393	394	12.7	78.6
2022-10-09T10:49	10	54	0.4	54	55	393	0.3	392	393	12.7	78.5
2022-10-09T10:50	10	54	0.2	53	54	393	0.5	392	394	12.9	79.5
2022-10-09T10:51	10	55	0.4	54	56	394	0.3	393	394	12.8	79.8
2022-10-09T10:52	10	56	0.3	56	57	393	0.2	393	394	12.6	78.6
2022-10-09T10:53	10	57	0.2	57	57	393	0.3	393	394	12.6	78.9
2022-10-09T10:54	10	57	0.1	57	58	393	0.2	393	393	12.6	78.1
2022-10-09T10:55	10	58	0.3	57	59	393	0.4	392	394	12.6	78.0
2022-10-09T10:56	10	59	0.4	58	60	394	0.2	394	395	12.6	77.6
2022-10-09T10:57	10	60	0.4	59	61	394	0.3	393	395	12.7	77.9
2022-10-09T10:58	10	62	0.3	61	62	394	0.7	393	395	12.8	78.5
2022-10-09T10:59	10	62	0.1	62	63	396	0.7	394	397	12.9	78.3
2022-10-09T11:00	10	62	0.3	61	63	396	0.3	395	396	12.9	77.9
2022-10-09T11:01	10	61	0.3	61	62	395	0.2	395	396	12.9	78.7
2022-10-09T11:02	10	61	0.2	60	61	396	0.3	395	396	12.9	78.3
2022-10-09T11:03	10	60	0.4	59	60	395	0.3	394	396	13.0	78.3
2022-10-09T11:04	10	58	0.5	57	59	395	0.4	395	396	13.0	77.5
2022-10-09T11:05	10	57	0.3	56	57	394	0.6	393	395	12.9	77.4
2022-10-09T11:06	10	56	0.2	55	56	395	0.3	394	395	12.9	77.3
2022-10-09T11:07	10	55	0.2	55	56	394	0.3	393	395	12.9	77.4
2022-10-09T11:08	10	56	0.3	55	57	394	0.3	393	394	12.9	77.2
2022-10-09T11:09	10	57	0.7	56	59	394	0.2	393	394	12.9	77.3
2022-10-09T11:10	10	60	0.8	58	61	395	0.6	394	396	12.9	78.8
2022-10-09T11:11	10	62	0.3	61	62	395	0.4	394	396	12.9	78.3
2022-10-09T11:12	10	63	0.6	62	64	395	0.3	395	396	12.9	78.2
2022-10-09T11:13	10	65	0.3	64	65	395	0.3	395	396	12.8	77.7
2022-10-09T11:14	10	65	0.2	65	66	396	0.2	395	397	12.9	77.6
2022-10-09T11:15	10	66	0.2	65	66	397	0.3	396	397	13.0	77.8
2022-10-09T11:16	10	63	1.3	61	65	397	0.6	396	398	13.0	77.2
2022-10-09T11:17	10	58	1.9	54	61	396	0.4	396	397	13.2	78.1
2022-10-09T11:18	10	51	1.6	49	54	395	0.3	394	396	13.1	76.1
2022-10-09T11:19	10	47	1.0	45	49	394	0.5	393	395	13.2	77.1
2022-10-09T11:20	10	44	0.3	44	45	393	0.3	393	394	13.1	76.4
2022-10-09T11:21	10	45	0.4	44	45	393	0.2	393	394	13.1	76.9
2022-10-09T11:22	10	46	0.6	45	48	393	0.3	393	394	13.0	77.7
2022-10-09T11:23	10	49	0.6	48	50	394	0.4	393	395	13.2	78.1
2022-10-09T11:24	10	50	0.1	49	50	394	0.4	392	394	13.0	76.7
2022-10-09T11:25	10	49	0.4	49	50	393	0.3	392	394	12.9	76.2
2022-10-09T11:26	10	48	0.2	48	49	393	0.3	392	393	13.0	75.9
2022-10-09T11:27	10	48	0.2	48	49	394	0.5	392	395	13.1	77.1
2022-10-09T11:28	10	49	0.3	49	50	394	0.3	393	394	13.1	77.0
2022-10-09T11:29	10	50	0.2	50	51	393	0.4	393	394	13.0	76.0
2022-10-09T11:30	10	50	0.1	50	51	394	0.3	393	394	13.1	76.7
2022-10-09T11:31	10	50	0.1	50	50	394	0.4	393	395	13.1	77.0
2022-10-09T11:32	10	50	0.2	50	51	394	0.4	393	395	13.2	77.8
2022-10-09T11:33	10	50	0.3	50	51	394	0.3	393	395	13.2	76.6
2022-10-09T11:34	10	50	0.2	49	50	394	0.2	394	395	13.2	77.1
2022-10-09T11:35	10	50	0.2	49	50	394	0.2	394	395	13.2	77.2
2022-10-09T11:36	10	50	0.1	49	50	394	0.2	394	395	13.1	76.6
2022-10-09T11:37	10	49	0.2	49	50	394	0.3	393	395	13.2	77.6
2022-10-09T11:38	10	49	0.1	49	49	394	0.4	393	395	13.1	77.2
2022-10-09T11:39	10	49	0.1	49	49	393	0.2	393	394	13.0	76.9
2022-10-09T11:40	10	49	0.2	48	49	393	0.2	392	394	13.0	77.3
2022-10-09T11:41	10	47	0.3	47	48	393	0.3	392	394	13.0	77.2
2022-10-09T11:42	10	47	0.1	47	47	392	0.3	392	393	13.1	77.0
2022-10-09T11:43	10	48	0.5	47	49	393	0.5	392	394	13.1	77.5
2022-10-09T11:44	10	50	0.5	49	50	394	0.4	393	394	13.2	77.8
2022-10-09T11:45	10	51	0.5	50	52	394	0.4	393	395	13.2	78.0
2022-10-09T11:46	10	53	0.7	52	55	395	0.4	394	395	13.3	79.1
2022-10-09T11:47	10	57	1.3	55	59	396	0.8	395	397	13.3	79.1
2022-10-09T11:48	10	62	1.3	59	64	395	0.3	394	396	13.2	77.9
2022-10-09T11:49	10	65	0.6	64	66	395	0.3	395	396	13.2	78.1
2022-10-09T11:50	10	66	0.1	65	66	396	0.2	395	396	13.2	77.8
2022-10-09T11:51	10	66	0.6	65	68	396	0.5	396	398	13.1	77.7
2022-10-09T11:52	10	70	1.3	67	72	398	0.7	397	400	13.3	78.4
2022-10-09T11:53	10	75	1.5	72	77	399	0.4	398	400	13.3	78.4
2022-10-09T11:54	10	80	1.5	77	83	398	0.5	397	399	13.1	77.6
2022-10-09T11:55	10	86	1.9	83	89	401	0.7	399	402	13.3	78.1
2022-10-09T11:56	10	96	4.8	89	103	403	1.0	401	405	13.4	78.2
2022-10-09T11:57	10	99	1.8	97	104	404	0.3	404	405	13.4	77.6
2022-10-09T11:58	10	108	1.6	104	110	406	0.8	404	407	13.5	77.6
2022-10-09T11:59	10	111	2.5	108	114	407	0.5	406	409	13.6	78.1
2022-10-09T12:00	10	107	2.7	103	113	408	0.8	406	409	13.6	77.9
2022-10-09T12:01	10	102	1.2	101	105	406	0.5	405	407	13.4	77.4
2022-10-09T12:02	10	90	6.4	82	103	405	0.3	404	406	13.4	78.0
2022-10-09T12:03	10	78	2.1	75	82	403	1.8	400	406	13.7	78.7
2022-10-09T12:04	10	73	0.9	71	75	400	0.6	399	401	13.4	77.5
2022-10-09T12:05	10	71	0.6	69	72	399	0.4	398	400	13.3	77.3
2022-10-09T12:06	10	68	0.5	68	69	398	0.3	397	398	13.3	77.1
2022-10-09T12:07	10	69	0.9	68	71	398	0.3	397	398	13.3	77.3
2022-10-09T12:08	10	74	2.1	71	77	398	0.4	397	399	13.3	77.3
2022-10-09T12:09	10	78	0.6	77	79	398	0.3	398	399	13.4	76.9
2022-10-09T12:10	10	79	0.8	78	80	399	0.3	399	400	13.3	76.3
2022-10-09T12:11	10	78	1.4	76	81	400	0.5	399	401	13.4	76.6
2022-10-09T12:12	10	76	0.1	76	76	400	0.3	399	401	13.4	77.0
2022-10-09T12:13	10	77	0.3	76	77	401	0.3	400	402	13.5	77.1
2022-10-09T12:14	10	76	0.3	76	77	402	0.5	401	403	13.8	78.4
2022-10-09T12:15	10	78	1.0	76	79	402	0.4	401	403	13.6	76.6
2022-10-09T12:16	10	81	0.5	79	81	403	0.5	402	404	13.5	76.6
2022-10-09T12:17	10	80	0.3	80	81	404	0.8	402	405	13.6	77.2
2022-10-09T12:18	10	80	0.3	79	80	404	0.4	403	405	13.9	78.6
2022-10-09T12:19	10	79	0.2	79	79	404	0.6	402	405	13.8	77.8
2022-10-09T12:20	10	79	0.3	79	80	403	0.5	402	403	13.8	77.2
2022-10-09T12:21	10	82	0.8	80	83	402	0.5	401	403	13.6	75.9
2022-10-09T12:22	10	83	0.2	83	84	402	0.2	402	403	13.7	77.0
2022-10-09T12:23	10	84	0.4	83	85	403	0.3	402	403	13.7	77.3
2022-10-09T12:24	10	85	0.2	85	86	404	0.3	403	404	13.7	76.5
2022-10-09T12:25	10	86	0.6	85	87	405	0.3	404	405	13.6	75.8
2022-10-09T12:26	10	87	0.3	87	88	405	0.6	404	406	13.8	76.2
2022-10-09T12:27	10	87	0.2	86	87	406	0.7	404	407	13.9	77.0
2022-10-09T12:28	10	84	1.0	83	86	406	0.4	405	407	13.9	76.9
2022-10-09T12:29	10	81	0.8	80	83	406	0.3	405	406	14.0	77.3
2022-10-09T12:30	10	80	0.3	79	80	405	0.5	404	406	13.9	75.9
2022-10-09T12:31	10	79	0.1	79	79	405	0.3	404	405	13.8	75.6
2022-10-09T12:32	10	80	0.7	79	81	405	0.4	404	406	14.0	76.6
2022-10-09T12:33	10	84	1.6	82	87	406	0.3	406	407	13.9	76.6
2022-10-09T12:34	10	90	1.8	87	94	406	0.2	406	407	13.9	76.4
2022-10-09T12:35	10	99	3.5	94	106	406	0.5	405	407	13.7	75.3
2022-10-09T12:36	10	109	0.9	106	110	407	0.4	406	408	13.8	75.2
2022-10-09T12:37	10	106	0.7	105	108	408	0.6	406	409	13.8	75.5
2022-10-09T12:38	10	102	3.0	99	106	407	0.5	406	407	13.7	74.9
2022-10-09T12:39	10	97	1.3	94	99	408	0.5	407	408	13.8	75.8
2022-10-09T12:40	10	94	1.2	92	96	408	0.3	407	408	14.0	76.0
2022-10-09T12:41	10	90	2.3	86	93	407	0.4	406	408	13.9	76.1
2022-10-09T12:42	10	84	1.0	83	86	406	1.0	405	408	14.1	76.9
2022-10-09T12:43	10	81	1.6	78	83	405	0.5	404	406	14.0	75.6
2022-10-09T12:44	10	75	1.8	72	78	405	0.5	404	406	13.9	75.8
2022-10-09T12:45	10	69	1.1	68	72	405	0.2	404	405	14.0	76.3
2022-10-09T12:46	10	67	0.5	66	68	404	0.5	402	405	14.3	77.3
2022-10-09T12:47	10	66	0.7	65	67	403	0.2	402	403	14.1	75.9
2022-10-09T12:48	10	66	0.8	65	67	402	0.4	402	403	14.1	76.1
2022-10-09T12:49	10	69	1.1	68	71	402	0.4	401	403	14.1	76.4
2022-10-09T12:50	10	67	0.8	66	68	402	0.3	401	402	14.0	74.7
2022-10-09T12:51	10	66	0.2	66	66	402	0.6	400	402	14.1	75.7
2022-10-09T12:52	10	66	0.1	66	67	402	0.5	401	403	14.1	76.0
2022-10-09T12:53	10	66	0.1	66	67	403	0.8	402	404	14.2	75.3
2022-10-09T12:54	10	67	0.2	66	67	402	0.3	401	403	14.0	75.5
2022-10-09T12:55	10	67	0.2	67	68	402	0.3	401	402	13.9	75.1
2022-10-09T12:56	10	68	0.3	67	68	401	0.3	401	402	14.0	75.1
2022-10-09T12:57	10	70	1.2	68	71	403	0.6	401	404	14.0	74.9
2022-10-09T12:58	10	72	1.1	70	73	403	0.3	402	404	14.1	75.1
2022-10-09T12:59	10	70	0.3	69	70	403	0.2	402	403	14.1	75.2
2022-10-09T13:00	10	70	0.2	69	70	403	0.2	403	404	14.2	75.6
2022-10-09T13:01	10	69	0.3	68	70	403	0.2	403	404	14.2	74.7
2022-10-09T13:02	10	70	1.0	69	72	403	0.3	403	404	14.3	74.9
2022-10-09T13:03	10	73	1.5	72	77	404	0.5	403	404	14.2	75.6
2022-10-09T13:04	10	80	1.3	77	82	405	0.2	404	405	14.1	74.9
2022-10-09T13:05	10	87	1.9	83	90	405	0.3	404	406	14.1	74.9
2022-10-09T13:06	10	91	1.5	87	93	406	0.4	405	406	14.1	75.2
2022-10-09T13:07	10	82	3.1	77	87	406	0.6	405	407	14.1	74.6
2022-10-09T13:08	10	75	0.8	74	77	405	0.4	404	406	14.1	74.7
2022-10-09T13:09	10	76	1.4	74	78	405	0.4	405	406	14.2	74.6
2022-10-09T13:10	10	82	2.4	78	86	406	0.5	404	406	14.4	75.7
2022-10-09T13:11	10	90	2.2	86	94	407	0.6	406	408	14.6	76.6
2022-10-09T13:12	10	85	1.2	84	88	407	0.3	406	407	14.2	74.8
2022-10-09T13:13	10	84	0.6	83	85	407	0.3	406	408	14.2	74.5
2022-10-09T13:14	10	82	1.1	80	84	406	0.3	406	407	14.2	74.2
2022-10-09T13:15	10	79	0.5	78	80	407	0.6	405	408	14.4	75.4
2022-10-09T13:16	10	77	1.3	76	80	405	0.9	403	407	14.3	74.5
2022-10-09T13:17	10	78	0.6	77	79	404	0.4	404	405	14.3	74.0
2022-10-09T13:18	10	84	4.1	78	89	405	0.7	404	406	14.3	73.8
2022-10-09T13:19	10	81	1.8	79	87	406	0.4	405	407	14.4	74.3
2022-10-09T13:20	10	77	0.9	76	79	405	0.4	404	406	14.4	74.3
2022-10-09T13:21	10	72	2.7	68	77	404	0.5	404	405	14.3	74.1
2022-10-09T13:22	10	65	1.5	62	68	403	0.3	402	404	14.3	73.5
2022-10-09T13:23	10	60	1.5	57	62	403	0.6	401	403	14.3	74.5
2022-10-09T13:24	10	55	1.0	54	57	401	0.4	400	402	14.2	74.6
2022-10-09T13:25	10	53	0.3	53	54	400	0.3	400	401	14.1	73.5
2022-10-09T13:26	10	53	0.2	53	54	400	0.2	399	400	14.2	73.7
2022-10-09T13:27	10	53	0.1	53	54	400	0.3	399	401	14.3	74.1
2022-10-09T13:28	10	53	0.1	53	53	400	0.3	399	401	14.3	74.2
2022-10-09T13:29	10	53	0.1	53	53	401	0.5	400	402	14.5	75.2
2022-10-09T13:30	10	53	0.2	53	54	400	0.3	400	401	14.3	75.0
2022-10-09T13:31	10	54	0.3	54	55	401	0.2	400	401	14.4	74.6
2022-10-09T13:32	10	55	0.2	55	55	401	0.3	400	402	14.5	75.4
2022-10-09T13:33	10	56	0.3	55	56	400	0.3	400	401	14.6	74.3
2022-10-09T13:34	10	57	0.2	56	57	401	0.3	400	402	14.7	74.5
2022-10-09T13:35	10	58	0.4	57	58	401	0.3	400	402	14.7	74.0
2022-10-09T13:36	10	58	0.1	57	58	401	0.2	400	402	14.8	74.1
2022-10-09T13:37	10	57	0.1	57	57	402	0.2	401	402	14.6	74.8
2022-10-09T13:38	10	57	0.1	57	58	402	0.2	401	402	14.5	74.7
2022-10-09T13:39	10	57	0.3	57	58	402	0.3	401	402	14.6	74.5
2022-10-09T13:40	10	55	1.1	53	57	401	0.5	400	402	14.6	75.2
2022-10-09T13:41	10	51	1.3	49	53	401	0.2	400	401	14.6	74.9
2022-10-09T13:42	10	47	0.7	46	48	400	0.5	398	401	14.6	76.0
2022-10-09T13:43	10	45	0.5	44	46	400	0.4	399	400	14.6	75.5
2022-10-09T13:44	10	43	0.5	43	44	399	0.4	398	400	14.5	75.1
2022-10-09T13:45	10	42	0.4	41	43	398	0.2	398	399	14.4	75.2
2022-10-09T13:46	10	41	0.3	41	41	398	0.3	397	399	14.4	75.4
2022-10-09T13:47	10	40	0.3	40	41	398	0.4	397	399	14.5	76.0
2022-10-09T13:48	10	39	0.3	39	40	397	0.6	397	399	14.5	75.8
2022-10-09T13:49	10	38	0.3	38	39	397	0.3	396	398	14.4	75.9
2022-10-09T13:50	10	37	0.4	36	38	396	0.4	396	397	14.4	75.6
2022-10-09T13:51	10	36	0.3	35	36	395	0.2	395	396	14.3	75.7
2022-10-09T13:52	10	35	0.1	35	36	396	0.2	395	396	14.4	76.0
2022-10-09T13:53	10	36	0.3	35	36	396	0.4	396	398	14.5	76.5
2022-10-09T13:54	10	37	0.3	36	37	397	0.3	396	398	14.5	75.9
2022-10-09T13:55	10	38	0.3	37	38	397	0.2	397	398	14.5	76.1
2022-10-09T13:56	10	38	0.3	38	39	398	0.3	397	398	14.5	76.3
2022-10-09T13:57	10	39	0.2	39	39	398	0.4	397	399	14.6	77.4
2022-10-09T13:58	10	39	0.1	39	39	398	0.4	397	399	14.6	76.2
2022-10-09T13:59	10	39	0.1	39	39	398	0.2	398	399	14.6	75.7
2022-10-09T14:00	10	39	0.1	39	39	398	0.2	398	399	14.6	75.3
2022-10-09T14:01	10	39	0.1	39	39	398	0.2	397	398	14.6	75.2
2022-10-09T14:02	10	38	0.3	38	39	397	0.3	397	398	14.5	75.4
2022-10-09T14:03	10	37	0.3	36	38	398	0.3	397	398	14.6	76.0
2022-10-09T14:04	10	36	0.4	35	37	397	0.4	396	398	14.6	75.5
2022-10-09T14:05	10	35	0.3	34	35	397	0.3	396	398	14.5	75.0
2022-10-09T14:06	10	34	0.2	34	34	397	0.4	396	398	14.6	75.4
2022-10-09T14:07	10	34	0.1	33	34	396	0.3	396	397	14.6	76.1
2022-10-09T14:08	10	34	0.1	33	34	396	0.3	396	397	14.6	76.9
2022-10-09T14:09	10	34	0.1	33	34	396	0.3	395	397	14.6	76.2
2022-10-09T14:10	10	34	0.1	33	34	396	0.3	395	396	14.5	75.2
2022-10-09T14:11	10	34	0.1	33	34	396	0.4	395	397	14.6	76.1
2022-10-09T14:12	10	34	0.2	34	35	396	0.2	396	397	14.7	77.4
2022-10-09T14:13	10	35	0.3	34	35	396	0.2	396	397	14.7	76.8
2022-10-09T14:14	10	36	0.3	35	36	396	0.2	395	396	14.5	75.5
2022-10-09T14:15	10	37	0.1	36	37	395	0.4	394	396	14.5	75.5
2022-10-09T14:16	10	36	0.1	36	37	394	0.3	394	395	14.6	75.8
2022-10-09T14:17	10	36	0.1	36	37	394	0.3	394	395	14.5	75.0
2022-10-09T14:18	10	37	0.3	37	38	394	0.3	394	395	14.5	75.3
2022-10-09T14:19	10	38	0.2	37	38	395	0.6	394	396	14.6	76.0
2022-10-09T14:20	10	38	0.2	38	38	395	0.3	394	395	14.7	76.5
2022-10-09T14:21	10	38	0.2	38	39	395	0.3	395	396	14.6	75.7
2022-10-09T14:22	10	39	0.1	39	39	395	0.3	394	396	14.6	75.4
2022-10-09T14:23	10	39	0.3	39	40	396	0.6	395	397	14.6	75.4
2022-10-09T14:24	10	40	0.2	40	41	397	0.3	396	397	14.6	76.2
2022-10-09T14:25	10	40	0.3	40	41	397	0.3	397	398	14.7	76.6
2022-10-09T14:26	10	39	0.4	38	40	397	0.4	396	397	14.7	76.0
2022-10-09T14:27	10	37	0.4	37	38	396	0.4	395	397	14.6	74.9
2022-10-09T14:28	10	36	0.2	36	37	396	0.3	395	396	14.6	75.2
2022-10-09T14:29	10	36	0.1	36	36	396	0.2	395	396	14.7	76.0
2022-10-09T14:30	10	36	0.1	36	36	395	0.3	395	396	14.6	75.6
2022-10-09T14:31	10	36	0.1	35	36	395	0.3	394	396	14.6	75.0
2022-10-09T14:32	10	35	0.1	35	35	395	0.3	394	396	14.6	74.9
2022-10-09T14:33	10	35	0.1	35	35	395	0.3	395	396	14.6	75.1
2022-10-09T14:34	10	34	0.2	34	35	395	0.5	394	396	14.6	74.8
2022-10-09T14:35	10	33	0.3	33	34	395	0.4	394	396	14.6	75.0
2022-10-09T14:36	10	32	0.3	32	33	395	0.2	394	395	14.6	74.2
2022-10-09T14:37	10	32	0.2	31	32	395	0.2	394	395	14.7	74.1
2022-10-09T14:38	10	31	0.2	30	31	394	0.2	394	395	14.7	74.4
2022-10-09T14:39	10	30	0.1	30	31	394	0.2	394	395	14.7	74.4
2022-10-09T14:40	10	30	0.1	30	30	394	0.2	394	395	14.7	75.1
2022-10-09T14:41	10	30	0.1	29	30	394	0.4	393	395	14.7	75.7
2022-10-09T14:42	10	29	0.1	29	30	393	0.2	393	394	14.7	75.1
2022-10-09T14:43	10	29	0.1	29	29	393	0.3	392	394	14.6	75.2
2022-10-09T14:44	10	28	0.1	28	29	393	0.2	392	393	14.6	75.3
2022-10-09T14:45	10	28	0.1	28	28	393	0.2	392	393	14.6	75.6
2022-10-09T14:46	10	28	0.1	28	28	393	0.3	393	394	14.7	75.1
2022-10-09T14:47	10	27	0.1	27	28	394	0.4	393	395	14.7	76.6
2022-10-09T14:48	10	27	0.2	27	27	393	0.3	393	394	14.7	76.6
2022-10-09T14:49	10	26	0.3	26	27	393	0.3	392	393	14.7	76.5
2022-10-09T14:50	10	25	0.2	25	26	393	0.2	392	394	14.7	76.5
2022-10-09T14:51	10	25	0.2	24	25	392	0.2	392	393	14.7	76.2
2022-10-09T14:52	10	24	0.1	24	25	393	0.3	392	393	14.6	75.7
2022-10-09T14:53	10	24	0.2	23	24	393	0.2	392	393	14.6	74.9
2022-10-09T14:54	10	23	0.3	22	23	392	0.2	392	393	14.7	76.2
2022-10-09T14:55	10	22	0.2	22	23	392	0.2	392	393	14.7	76.3
2022-10-09T14:56	10	22	0.2	21	22	392	0.2	392	393	14.7	75.2
2022-10-09T14:57	10	21	0.1	21	22	392	0.3	391	392	14.6	75.1
2022-10-09T14:58	10	21	0.1	21	21	392	0.2	391	392	14.7	75.3
2022-10-09T14:59	10	21	0.2	20	21	391	0.2	391	392	14.7	75.9
2022-10-09T15:00	10	20	0.1	20	20	391	0.3	390	392	14.6	75.7
2022-10-09T15:01	10	20	0.1	20	20	391	0.2	390	391	14.6	75.9
2022-10-09T15:02	10	20	0.1	20	21	391	0.2	390	392	14.6	76.9
2022-10-09T15:03	10	20	0.1	20	21	391	0.3	390	391	14.6	77.9
2022-10-09T15:04	10	20	0.1	20	20	391	0.3	390	391	14.6	76.1
2022-10-09T15:05	10	20	0.1	20	20	390	0.3	390	391	14.6	75.5
2022-10-09T15:06	10	20	0.1	19	20	390	0.2	390	391	14.6	75.6
2022-10-09T15:07	10	19	0.2	19	19	390	0.2	390	391	14.6	75.6
2022-10-09T15:08	10	19	0.2	18	19	390	0.3	390	391	14.6	75.7
2022-10-09T15:09	10	18	0.1	18	18	390	0.3	390	391	14.6	76.7
2022-10-09T15:10	10	18	0.2	17	18	390	0.2	389	391	14.6	77.1
2022-10-09T15:11	10	17	0.1	17	18	390	0.2	389	390	14.6	76.4
2022-10-09T15:12	10	17	0.1	17	17	389	0.4	388	390	14.6	76.3
2022-10-09T15:13	10	17	0.2	16	17	389	0.2	389	390	14.6	77.1
2022-10-09T15:14	10	16	0.1	16	16	389	0.2	389	390	14.6	76.5
2022-10-09T15:15	10	16	0.1	15	16	389	0.4	388	390	14.6	77.2
2022-10-09T15:16	10	15	0.1	15	16	390	0.2	389	390	14.6	76.8
2022-10-09T15:17	10	15	0.1	15	15	389	0.2	389	390	14.6	76.9
2022-10-09T15:18	10	15	0.1	15	15	389	0.3	389	390	14.6	76.6
2022-10-09T15:19	10	15	0.1	15	15	389	0.3	389	390	14.6	77.0
2022-10-09T15:20	10	15	0.1	14	15	389	0.2	389	390	14.6	76.7
2022-10-09T15:21	10	14	0.1	14	15	389	0.2	389	390	14.6	77.3
2022-10-09T15:22	10	14	0.1	14	14	389	0.2	388	390	14.6	77.3
2022-10-09T15:23	10	14	0.1	14	14	389	0.2	389	389	14.6	77.1
2022-10-09T15:24	10	14	0.1	14	14	389	0.2	388	389	14.6	76.3
2022-10-09T15:25	10	14	0.1	14	15	388	0.2	388	389	14.6	76.0
2022-10-09T15:26	10	14	0.2	14	15	388	0.3	388	389	14.6	75.9
2022-10-09T15:27	10	14	0.2	14	15	389	0.3	388	390	14.6	76.1
2022-10-09T15:28	10	14	0.1	14	15	388	0.2	388	389	14.6	76.1
2022-10-09T15:29	10	14	0.1	14	15	388	0.3	388	389	14.6	76.0
2022-10-09T15:30	10	14	0.2	14	15	388	0.3	388	389	14.6	76.3
2022-10-09T15:31	10	14	0.2	13	14	388	0.2	388	389	14.6	76.7
2022-10-09T15:32	10	13	0.2	13	14	388	0.2	388	389	14.6	76.1
2022-10-09T15:33	10	13	0.1	13	14	388	0.3	387	389	14.6	77.1
2022-10-09T15:34	10	13	0.2	13	13	388	0.3	387	389	14.6	76.9
2022-10-09T15:35	10	13	0.2	12	13	388	0.3	388	389	14.6	76.8
2022-10-09T15:36	10	12	0.2	12	13	388	0.2	388	389	14.6	76.0
2022-10-09T15:37	10	12	0.2	12	12	388	0.3	387	388	14.6	76.2
2022-10-09T15:38	10	12	0.2	12	12	388	0.2	387	388	14.6	76.2
2022-10-09T15:39	10	11	0.2	11	12	388	0.3	387	388	14.6	75.6
2022-10-09T15:40	10	11	0.1	11	11	387	0.4	386	388	14.6	76.8
2022-10-09T15:41	10	11	0.2	11	11	387	0.3	386	388	14.6	77.3
2022-10-09T15:42	10	11	0.1	10	11	387	0.3	386	388	14.6	77.6
2022-10-09T15:43	10	11	0.2	10	11	387	0.4	387	388	14.6	78.1
2022-10-09T15:44	10	11	0.2	10	11	387	0.4	386	388	14.6	77.5
2022-10-09T15:45	10	10	0.1	10	11	387	0.2	387	388	14.6	76.3
2022-10-09T15:46	10	11	0.1	10	11	387	0.2	386	387	14.6	77.2
2022-10-09T15:47	10	11	0.1	10	11	387	0.2	386	387	14.6	77.8
2022-10-09T15:48	10	11	0.1	10	11	387	0.3	386	387	14.6	78.3
2022-10-09T15:49	10	11	0.1	11	11	387	0.3	386	388	14.6	78.0
2022-10-09T15:50	10	11	0.1	11	11	387	0.3	386	388	14.5	78.5
2022-10-09T15:51	10	11	0.1	11	11	387	0.2	387	387	14.5	78.9
2022-10-09T15:52	10	11	0.1	11	11	387	0.3	386	388	14.6	78.1
2022-10-09T15:53	10	11	0.1	11	11	386	0.2	386	387	14.6	77.9
2022-10-09T15:54	10	11	0.1	11	11	387	0.2	386	387	14.6	78.3
2022-10-09T15:55	10	11	0.1	11	11	387	0.2	386	387	14.6	77.6
2022-10-09T15:56	10	11	0.1	11	12	386	0.3	386	387	14.5	78.3
2022-10-09T15:57	10	12	0.1	12	12	387	0.3	386	387	14.5	78.6
2022-10-09T15:58	10	12	0.2	12	13	386	0.3	386	387	14.5	76.9
2022-10-09T15:59	10	14	0.5	13	15	386	0.2	386	387	14.5	76.4
2022-10-09T16:00	10	15	0.6	14	16	386	0.2	386	387	14.5	76.4
2022-10-09T16:01	10	12	0.4	12	13	386	0.2	386	387	14.6	76.6
2022-10-09T16:02	10	12	0.1	12	12	386	0.3	386	387	14.6	77.4
2022-10-09T16:03	10	12	0.1	12	12	386	0.3	386	387	14.5	77.6
2022-10-09T16:04	10	12	0.2	12	12	386	0.2	386	387	14.5	77.7
2022-10-09T16:05	10	12	0.1	11	12	386	0.2	385	386	14.5	77.8
2022-10-09T16:06	10	11	0.1	11	12	386	0.3	385	386	14.5	77.9
2022-10-09T16:07	10	11	0.1	11	11	385	0.3	385	386	14.5	78.6
2022-10-09T16:08	10	11	0.1	11	11	385	0.2	385	386	14.5	79.0
2022-10-09T16:09	10	11	0.1	11	11	385	0.2	385	386	14.5	79.4
2022-10-09T16:10	10	11	0.1	11	11	385	0.3	385	386	14.4	79.6
2022-10-09T16:11	10	11	0.1	11	11	385	0.2	385	386	14.4	80.2
2022-10-09T16:12	10	11	0.1	11	11	385	0.2	385	386	14.4	80.2
2022-10-09T16:13	10	11	0.1	11	11	385	0.3	384	385	14.4	79.7
2022-10-09T16:14	10	11	0.1	10	11	384	0.4	384	385	14.3	79.6
2022-10-09T16:15	10	10	0.2	10	10	384	0.3	383	384	14.3	79.1
2022-10-09T16:16	10	10	0.2	9	10	383	0.3	382	384	14.3	79.2
2022-10-09T16:17	10	9	0.1	9	9	383	0.3	382	383	14.2	79.5
2022-10-09T16:18	10	9	0.1	8	9	382	0.3	382	383	14.2	79.9
2022-10-09T16:19	10	8	0.1	8	8	382	0.3	382	383	14.2	79.6
2022-10-09T16:20	10	8	0.2	8	8	382	0.2	381	382	14.2	79.7
2022-10-09T16:21	10	8	0.1	7	8	381	0.3	381	382	14.2	79.8
2022-10-09T16:22	10	7	0.1	7	8	381	0.3	381	382	14.2	79.7
2022-10-09T16:23	10	7	0.1	7	7	381	0.2	380	381	14.2	79.6
2022-10-09T16:24	10	7	0.1	7	7	381	0.2	380	381	14.2	79.1
2022-10-09T16:25	10	6	0.1	6	7	380	0.3	379	381	14.1	79.1
2022-10-09T16:26	10	6	0.1	6	6	380	0.3	379	380	14.2	79.3
2022-10-09T16:27	10	6	0.1	6	6	380	0.3	379	380	14.1	79.3
2022-10-09T16:28	10	6	0.1	5	6	379	0.2	378	380	14.1	79.3
2022-10-09T16:29	10	5	0.1	5	6	379	0.3	378	379	14.1	79.6
2022-10-09T16:30	10	5	0.1	5	6	378	0.3	378	379	14.1	79.6
2022-10-09T16:31	10	5	0.2	5	5	378	0.2	378	379	14.1	79.8
2022-10-09T16:32	10	5	0.1	4	5	378	0.2	377	378	14.1	80.0
2022-10-09T16:33	10	4	0.1	4	5	378	0.3	377	378	14.1	79.4
2022-10-09T16:34	10	4	0.2	4	4	378	0.3	377	378	14.0	79.6
2022-10-09T16:35	10	4	0.2	3	4	378	0.3	377	378	14.0	79.6
2022-10-09T16:36	10	3	0.1	3	3	377	0.2	377	378	14.0	79.4
2022-10-09T16:37	10	3	0.1	3	3	377	0.2	377	378	14.1	79.3
2022-10-09T16:38	10	3	0.1	2	3	377	0.3	376	377	14.0	79.7
2022-10-09T16:39	10	3	0.1	2	3	377	0.3	376	377	14.1	79.5
2022-10-09T16:40	10	2	0.1	2	3	376	0.2	376	377	14.0	79.7
2022-10-09T16:41	10	2	0.1	2	3	376	0.2	375	376	14.0	80.0
2022-10-09T16:42	10	2	0.1	2	3	375	0.3	375	376	14.0	79.9
2022-10-09T16:43	10	3	0.1	2	3	375	0.2	375	376	14.0	79.8
2022-10-09T16:44	10	2	0.1	2	3	375	0.2	375	376	14.0	80.1
2022-10-09T16:45	10	2	0.1	2	3	375	0.3	374	376	14.0	80.1
2022-10-09T16:46	10	2	0.1	2	2	375	0.2	374	375	14.0	80.2
2022-10-09T16:47	10	2	0.1	2	2	375	0.3	374	375	14.0	80.4
2022-10-09T16:48	10	2	0.1	2	2	375	0.3	374	376	14.1	80.1
2022-10-09T16:49	10	2	0.1	1	2	375	0.2	375	376	14.0	80.4
2022-10-09T16:50	10	2	0.1	1	2	375	0.2	375	376	14.0	80.3
2022-10-09T16:51	10	1	0.1	1	2	376	0.4	375	377	14.1	79.8
2022-10-09T16:52	10	1	0.1	1	1	376	0.2	376	377	14.1	79.9
2022-10-09T16:53	10	1	0.1	1	1	376	0.3	375	377	14.0	80.5
2022-10-09T16:54	10	1	0.1	1	1	376	0.3	376	377	14.1	80.2
2022-10-09T16:55	10	1	0.1	1	1	377	0.4	376	377	14.1	79.8
2022-10-09T16:56	10	1	0.1	1	1	377	0.3	376	378	14.1	79.7
2022-10-09T16:57	10	1	0.1	1	1	377	0.3	376	377	14.0	80.1
2022-10-09T16:58	10	1	0.1	1	1	377	0.3	376	377	13.9	80.8
2022-10-09T16:59	10	1	0.1	1	1	377	0.3	376	377	13.9	80.9
2022-10-09T17:00	10	1	0.1	1	1	377	0.2	376	377	13.9	81.2
2022-10-09T17:01	10	1	0.1	1	1	377	0.2	377	377	13.9	81.4
2022-10-09T17:02	10	1	0.1	1	1	377	0.2	376	377	13.9	81.6
2022-10-09T17:03	10	1	0.1	1	1	377	0.2	376	377	13.8	82.0
2022-10-09T17:04	10	1	0.1	1	1	377	0.2	376	377	13.8	82.2
2022-10-09T17:05	10	1	0.1	1	1	377	0.2	376	377	13.8	82.5
2022-10-09T17:06	10	1	0.1	1	1	377	0.2	376	377	13.7	82.7
2022-10-09T17:07	10	1	0.1	1	2	376	0.3	376	377	13.7	82.9
2022-10-09T17:08	10	1	0.1	1	1	376	0.2	376	377	13.6	83.1
2022-10-09T17:09	10	1	0.1	1	1	376	0.2	375	376	13.6	83.5
2022-10-09T17:10	10	1	0.1	1	2	376	0.2	376	376	13.5	83.9
2022-10-09T17:11	10	1	0.1	1	1	376	0.2	376	376	13.5	84.0
2022-10-09T17:12	10	1	0.1	1	2	376	0.2	376	376	13.5	84.3
2022-10-09T17:13	10	1	0.1	1	1	376	0.2	375	376	13.5	84.6
2022-10-09T17:14	10	1	0.1	1	2	376	0.2	375	376	13.5	84.6
2022-10-09T17:15	10	1	0.1	1	1	376	0.2	375	376	13.5	84.5
2022-10-09T17:16	10	1	0.1	1	1	376	0.2	375	376	13.5	84.6
2022-10-09T17:17	10	1	0.1	1	1	375	0.3	375	376	13.4	85.2
2022-10-09T17:18	10	1	0.1	1	1	375	0.2	375	376	13.4	85.5
2022-10-09T17:19	10	1	0.1	1	1	375	0.2	375	376	13.4	85.4
2022-10-09T17:20	10	1	0.1	1	1	375	0.3	375	376	13.4	85.4
2022-10-09T17:21	10	1	0.1	1	1	376	0.2	375	376	13.4	85.5
2022-10-09T17:22	10	1	0.1	1	1	375	0.2	375	376	13.4	85.7
2022-10-09T17:23	10	1	0.1	1	1	376	0.2	375	376	13.4	85.8
2022-10-09T17:24	10	1	0.2	1	1	376	0.2	375	376	13.4	85.7
2022-10-09T17:25	10	1	0.1	1	1	375	0.3	375	376	13.3	85.9
2022-10-09T17:26	10	1	0.2	1	2	376	0.3	375	376	13.3	86.3
2022-10-09T17:27	10	1	0.2	1	2	376	0.2	375	376	13.3	86.1
2022-10-09T17:28	10	1	0.2	1	1	376	0.2	375	376	13.3	85.9
2022-10-09T17:29	10	1	0.1	1	1	375	0.2	375	376	13.3	85.9
2022-10-09T17:30	10	1	0.1	1	1	375	0.2	375	376	13.3	86.2
2022-10-09T17:31	10	1	0.1	1	1	375	0.3	375	376	13.3	86.4
2022-10-09T17:32	10	1	0.2	1	2	375	0.3	375	376	13.3	86.6
2022-10-09T17:33	10	1	0.1	1	1	376	0.3	375	376	13.3	86.6
2022-10-09T17:34	10	1	0.2	1	1	375	0.2	375	376	13.3	86.3
2022-10-09T17:35	10	1	0.1	1	1	376	0.2	375	376	13.3	85.9
2022-10-09T17:36	10	1	0.2	1	2	375	0.3	375	376	13.3	85.9
2022-10-09T17:37	10	1	0.1	1	2	375	0.2	375	376	13.3	85.9
2022-10-09T17:38	10	1	0.2	1	1	375	0.2	375	376	13.3	85.9
2022-10-09T17:39	10	1	0.2	1	1	375	0.2	375	376	13.3	86.1
2022-10-09T17:40	10	1	0.1	1	2	375	0.2	375	376	13.3	86.2
2022-10-09T17:41	10	1	0.1	1	1	375	0.2	374	375	13.2	86.8
2022-10-09T17:42	10	1	0.2	1	2	375	0.2	374	376	13.2	87.4
2022-10-09T17:43	10	1	0.1	1	2	375	0.3	374	376	13.1	87.6
2022-10-09T17:44	10	1	0.2	1	2	375	0.3	374	376	13.2	87.6
2022-10-09T17:45	10	1	0.1	1	2	375	0.2	375	376	13.2	87.1
2022-10-09T17:46	10	1	0.1	1	1	375	0.2	375	376	13.2	86.9
2022-10-09T17:47	10	1	0.1	1	1	375	0.2	375	375	13.1	87.1
2022-10-09T17:48	10	1	0.1	1	1	375	0.2	374	375	13.1	87.8
2022-10-09T17:49	10	1	0.1	1	1	375	0.2	374	375	13.1	88.0
2022-10-09T17:50	10	1	0.1	1	1	375	0.2	374	375	13.1	87.8
2022-10-09T17:51	10	1	0.1	1	1	375	0.2	374	375	13.2	87.4
2022-10-09T17:52	10	1	0.1	1	1	375	0.2	374	375	13.2	87.2
2022-10-09T17:53	10	1	0.1	1	1	374	0.2	374	375	13.2	87.4
2022-10-09T17:54	10	1	0.1	1	1	374	0.3	374	375	13.2	87.3
2022-10-09T17:55	10	1	0.1	1	1	374	0.2	374	375	13.2	87.4
2022-10-09T17:56	10	1	0.1	1	1	374	0.2	373	374	13.2	87.2
2022-10-09T17:57	10	1	0.1	1	1	374	0.2	374	374	13.1	87.3
2022-10-09T17:58	10	1	0.1	1	1	374	0.2	374	374	13.1	87.5
2022-10-09T17:59	10	1	0.0	1	1	374	0.2	373	374	13.1	87.5
2022-10-09T18:00	10	1	0.1	1	1	374	0.2	373	375	13.1	87.8
2022-10-09T18:01	10	1	0.1	1	1	374	0.2	374	374	13.1	88.2
2022-10-09T18:02	10	1	0.1	1	1	374	0.2	374	375	13.1	88.3
2022-10-09T18:03	10	1	0.1	1	1	374	0.2	373	374	13.0	88.6
2022-10-09T18:04	10	1	0.1	1	1	374	0.2	373	374	13.0	88.8
2022-10-09T18:05	10	1	0.3	1	3	374	0.2	374	375	13.0	89.1
2022-10-09T18:06	10	1	0.1	1	1	374	0.2	373	374	12.9	89.3
2022-10-09T18:07	10	1	0.1	1	1	374	0.2	373	374	12.9	89.5
2022-10-09T18:08	10	1	0.1	1	1	374	0.3	373	374	12.9	89.6
2022-10-09T18:09	10	1	0.1	1	1	374	0.2	373	374	12.9	89.7
2022-10-09T18:10	10	1	0.1	1	1	374	0.2	373	374	12.9	89.9
2022-10-09T18:11	10	1	0.1	1	1	373	0.3	373	374	12.8	90.1
2022-10-09T18:12	10	1	0.1	1	1	374	0.2	373	374	12.8	90.2
2022-10-09T18:13	10	1	0.1	1	1	373	0.2	373	374	12.8	90.3
2022-10-09T18:14	10	1	0.1	1	1	373	0.3	373	374	12.7	90.6
2022-10-09T18:15	10	1	0.1	1	1	373	0.2	373	374	12.7	90.9
2022-10-09T18:16	10	1	0.1	1	1	373	0.2	373	374	12.7	91.0
2022-10-09T18:17	10	1	0.1	1	1	373	0.2	373	374	12.7	90.9
2022-10-09T18:18	10	1	0.1	1	1	373	0.2	373	374	12.7	90.9
2022-10-09T18:19	10	1	0.1	1	1	373	0.2	373	374	12.7	91.0
2022-10-09T18:20	10	1	0.1	1	1	374	0.3	373	374	12.7	91.1
2022-10-09T18:21	10	1	0.1	1	1	374	0.3	373	374	12.7	91.2
2022-10-09T18:22	10	1	0.1	1	1	374	0.3	373	374	12.7	91.0
2022-10-09T18:23	10	1	0.1	1	1	374	0.3	373	374	12.8	90.3
2022-10-09T18:24	10	1	0.1	1	1	374	0.3	373	375	12.8	90.0
2022-10-09T18:25	10	1	0.1	1	1	374	0.2	374	374	12.8	89.8
2022-10-09T18:26	10	1	0.1	1	1	374	0.2	373	374	12.9	89.6
2022-10-09T18:27	10	1	0.1	1	1	374	0.2	373	375	12.9	89.4
2022-10-09T18:28	10	1	0.1	1	1	374	0.2	373	374	12.9	89.3
2022-10-09T18:29	10	1	0.1	1	1	374	0.2	374	375	12.9	89.2
2022-10-09T18:30	10	1	0.1	1	1	374	0.3	373	374	12.9	89.3
2022-10-09T18:31	10	1	0.1	1	1	374	0.2	374	375	12.8	90.2
2022-10-09T18:32	10	1	0.1	1	1	374	0.3	373	374	12.8	91.0
2022-10-09T18:33	10	1	0.1	1	1	374	0.2	373	374	12.8	90.7
2022-10-09T18:34	10	1	0.1	1	1	374	0.2	373	374	12.8	90.6
2022-10-09T18:35	10	1	0.1	1	1	374	0.2	373	374	12.8	90.6
2022-10-09T18:36	10	1	0.1	1	1	374	0.2	373	374	12.8	90.4
2022-10-09T18:37	10	1	0.1	1	1	374	0.2	374	374	12.8	90.2
2022-10-09T18:38	10	1	0.1	1	1	374	0.2	374	374	12.9	89.7
2022-10-09T18:39	10	1	0.1	1	1	374	0.2	373	375	12.9	89.1
2022-10-09T18:40	10	1	0.1	1	1	374	0.2	374	375	12.9	88.5
2022-10-09T18:41	10	1	0.1	1	1	374	0.2	374	375	12.9	88.1
2022-10-09T18:42	10	1	0.1	1	1	374	0.2	373	374	12.9	88.2
2022-10-09T18:43	10	1	0.1	1	1	374	0.2	373	374	12.9	88.6
2022-10-09T18:44	10	1	0.1	1	1	374	0.2	373	374	12.8	89.2
2022-10-09T18:45	10	1	0.1	1	1	374	0.2	373	374	12.8	89.2
2022-10-09T18:46	10	1	0.1	1	1	374	0.3	373	375	12.8	89.1
2022-10-09T18:47	10	1	0.1	1	1	374	0.2	373	374	12.7	89.5
2022-10-09T18:48	10	1	0.1	1	1	374	0.2	373	374	12.7	90.5
2022-10-09T18:49	10	1	0.1	1	1	374	0.2	373	374	12.7	90.9
2022-10-09T18:50	10	1	0.1	1	1	374	0.3	373	374	12.7	91.7
2022-10-09T18:51	10	1	0.1	1	1	374	0.2	373	374	12.6	92.3
2022-10-09T18:52	10	1	0.1	0	1	374	0.2	373	374	12.6	92.7
2022-10-09T18:53	10	0	0.1	0	1	374	0.2	373	374	12.6	92.5
2022-10-09T18:54	10	0	0.1	0	1	374	0.3	373	374	12.7	92.1
2022-10-09T18:55	10	0	0.1	0	0	374	0.2	373	374	12.6	92.3
2022-10-09T18:56	10	0	0.1	0	0	374	0.2	373	374	12.6	92.8
2022-10-09T18:57	10	0	0.1	0	0	374	0.2	373	374	12.6	93.0
2022-10-09T18:58	10	0	0.1	0	0	374	0.2	373	374	12.6	93.0
2022-10-09T18:59	10	0	0.1	0	0	374	0.2	373	374	12.6	92.7
2022-10-09T19:00	10	0	0.1	0	0	374	0.2	373	374	12.6	92.5
2022-10-09T19:01	10	0	0.1	0	0	374	0.2	373	374	12.6	92.3
2022-10-09T19:02	10	0	0.1	0	0	374	0.3	373	375	12.6	91.6
2022-10-09T19:03	10	0	0.1	0	0	374	0.2	373	374	12.8	90.9
2022-10-09T19:04	10	0	0.1	0	0	374	0.2	373	374	12.8	89.9
2022-10-09T19:05	10	0	0.3	0	2	374	0.3	374	375	13.0	89.0
2022-10-09T19:06	10	1	0.7	0	5	374	0.3	373	375	12.9	88.7
2022-10-09T19:07	10	0	0.1	0	1	374	0.3	374	375	12.9	88.4
2022-10-09T19:08	10	0	0.1	0	1	374	0.2	373	374	12.9	88.7
2022-10-09T19:09	10	0	0.1	0	1	374	0.3	373	375	12.9	89.2
2022-10-09T19:10	10	0	0.1	0	1	374	0.3	373	374	12.9	88.7
2022-10-09T19:11	10	1	0.1	0	1	374	0.3	373	374	13.0	88.3
2022-10-09T19:12	10	1	0.1	0	1	374	0.3	373	375	13.0	87.9
2022-10-09T19:13	10	1	0.1	0	1	373	0.2	373	374	12.9	88.7
2022-10-09T19:14	10	1	0.1	0	1	374	0.4	373	374	12.7	89.9
2022-10-09T19:15	10	1	0.1	0	1	373	0.3	373	374	12.6	90.8
2022-10-09T19:16	10	1	0.1	0	1	374	0.2	373	374	12.7	91.0
2022-10-09T19:17	10	1	0.1	0	1	374	0.2	373	374	12.6	91.2
2022-10-09T19:18	10	0	0.1	0	1	373	0.2	373	374	12.6	91.3
2022-10-09T19:19	10	0	0.1	0	1	374	0.2	373	374	12.7	91.1
2022-10-09T19:20	10	0	0.1	0	1	374	0.2	373	374	12.6	91.3
2022-10-09T19:21	10	0	0.1	0	1	373	0.2	373	374	12.5	91.8
2022-10-09T19:22	10	0	0.1	0	1	373	0.2	373	374	12.5	92.2
2022-10-09T19:23	10	1	0.1	0	1	373	0.2	373	374	12.5	92.3
2022-10-09T19:24	10	1	0.1	0	1	373	0.3	372	374	12.5	92.6
2022-10-09T19:25	10	1	0.1	0	1	373	0.2	373	374	12.5	92.8
2022-10-09T19:26	10	1	0.1	0	1	373	0.2	373	374	12.5	93.0
2022-10-09T19:27	10	1	0.1	0	1	373	0.2	373	373	12.5	93.0
2022-10-09T19:28	10	1	0.1	0	1	373	0.2	372	373	12.5	93.1
2022-10-09T19:29	10	0	0.1	0	1	373	0.2	372	374	12.4	93.2
2022-10-09T19:30	10	0	0.1	0	1	373	0.2	372	373	12.4	93.3
2022-10-09T19:31	10	0	0.1	0	1	373	0.2	373	373	12.4	93.4
2022-10-09T19:32	10	0	0.1	0	1	373	0.2	372	374	12.4	93.5
2022-10-09T19:33	10	1	0.1	0	1	373	0.2	373	374	12.4	93.5
2022-10-09T19:34	10	1	0.1	0	1	373	0.2	373	374	12.4	93.4
2022-10-09T19:35	10	1	0.1	0	1	373	0.2	373	374	12.4	93.2
2022-10-09T19:36	10	1	0.1	0	1	373	0.2	373	374	12.5	92.9
2022-10-09T19:37	10	1	0.1	1	1	373	0.2	373	374	12.5	92.6
2022-10-09T19:38	10	1	0.1	1	1	373	0.3	373	374	12.5	92.5
2022-10-09T19:39	10	1	0.1	1	1	373	0.2	373	374	12.5	92.5
2022-10-09T19:40	10	1	0.1	1	1	373	0.2	373	374	12.5	92.5
2022-10-09T19:41	10	1	0.1	1	1	373	0.2	373	374	12.5	92.5
2022-10-09T19:42	10	1	0.1	1	1	374	0.3	373	374	12.5	92.5
2022-10-09T19:43	10	1	0.1	1	1	373	0.2	373	374	12.5	92.2
2022-10-09T19:44	10	1	0.1	1	1	373	0.2	373	374	12.5	92.3
2022-10-09T19:45	10	1	0.1	1	1	373	0.2	373	374	12.4	92.3
2022-10-09T19:46	10	1	0.1	1	1	374	0.2	373	374	12.4	92.4
2022-10-09T19:47	10	1	0.1	1	1	373	0.2	373	374	12.5	92.4
2022-10-09T19:48	10	1	0.1	0	1	374	0.3	373	375	12.5	92.1
2022-10-09T19:49	10	1	0.1	1	1	374	0.2	373	374	12.6	91.4
2022-10-09T19:50	10	1	0.1	1	1	374	0.2	373	374	12.6	90.9
2022-10-09T19:51	10	1	0.1	1	1	374	0.2	373	374	12.6	90.8
2022-10-09T19:52	10	1	0.1	1	1	374	0.2	373	374	12.6	90.8
2022-10-09T19:53	10	1	0.1	1	1	374	0.3	373	374	12.6	91.0
2022-10-09T19:54	10	1	0.1	1	1	374	0.2	373	375	12.6	91.1
2022-10-09T19:55	10	1	0.0	1	1	374	0.2	373	374	12.6	91.1
2022-10-09T19:56	10	1	0.1	1	1	374	0.2	373	374	12.5	91.2
2022-10-09T19:57	10	1	0.1	1	1	374	0.2	373	374	12.4	91.5
2022-10-09T19:58	10	1	0.1	1	1	374	0.3	373	374	12.4	91.9
2022-10-09T19:59	10	1	0.1	0	1	373	0.3	373	374	12.3	92.4
2022-10-09T20:00	10	1	0.1	0	1	373	0.2	373	374	12.3	92.9
2022-10-09T20:01	10	1	0.1	0	1	373	0.2	373	374	12.3	93.0
2022-10-09T20:02	10	1	0.1	0	1	373	0.3	373	374	12.3	92.9
2022-10-09T20:03	10	0	0.1	0	1	373	0.2	372	373	12.4	92.7
2022-10-09T20:04	10	0	0.1	0	1	373	0.2	372	373	12.4	92.6
2022-10-09T20:05	10	0	0.1	0	1	373	0.2	372	373	12.3	92.7
2022-10-09T20:06	10	0	0.1	0	1	373	0.2	372	373	12.2	93.1
2022-10-09T20:07	10	0	0.1	0	1	372	0.2	372	373	12.2	93.5
2022-10-09T20:08	10	1	0.1	0	1	372	0.2	372	373	12.3	93.7
2022-10-09T20:09	10	1	0.1	1	1	372	0.2	372	373	12.3	93.7
2022-10-09T20:10	10	1	0.1	1	1	372	0.2	372	373	12.3	93.7
2022-10-09T20:11	10	1	0.1	1	1	372	0.2	372	373	12.2	93.8
2022-10-09T20:12	10	1	0.1	1	1	372	0.2	371	372	12.2	93.8
2022-10-09T20:13	10	1	0.1	1	1	372	0.2	372	372	12.3	93.6
2022-10-09T20:14	10	1	0.1	1	1	372	0.2	371	372	12.4	93.1
2022-10-09T20:15	10	1	0.1	1	1	372	0.2	371	373	12.5	92.3
2022-10-09T20:16	10	1	0.1	1	1	372	0.3	371	373	12.5	91.5
2022-10-09T20:17	10	1	0.1	1	1	372	0.2	371	372	12.6	91.2
2022-10-09T20:18	10	1	0.1	0	1	372	0.2	371	372	12.6	90.9
2022-10-09T20:19	10	1	0.1	0	1	372	0.3	371	372	12.6	90.7
2022-10-09T20:20	10	1	0.1	0	1	372	0.2	372	372	12.6	90.6
2022-10-09T20:21	10	0	0.1	0	1	372	0.4	371	373	12.6	90.6
2022-10-09T20:22	10	0	0.0	0	0	372	0.2	372	372	12.6	90.7
2022-10-09T20:23	10	0	0.1	0	1	372	0.2	372	373	12.5	90.8
2022-10-09T20:24	10	0	0.1	0	1	372	0.2	372	373	12.5	91.0
2022-10-09T20:25	10	0	0.1	0	0	373	0.2	372	373	12.5	91.1
2022-10-09T20:26	10	0	0.1	0	1	373	0.2	372	373	12.5	91.2
2022-10-09T20:27	10	0	0.1	0	0	373	0.2	372	373	12.5	91.3
2022-10-09T20:28	10	0	0.1	0	0	373	0.2	372	373	12.5	91.3
2022-10-09T20:29	10	0	0.0	0	0	373	0.2	372	373	12.5	91.4
2022-10-09T20:30	10	0	0.1	0	0	373	0.2	372	373	12.4	91.6
2022-10-09T20:31	10	0	0.1	0	0	373	0.3	372	373	12.4	91.9
2022-10-09T20:32	10	0	0.0	0	0	372	0.2	372	373	12.4	92.1
2022-10-09T20:33	10	0	0.1	0	0	373	0.2	372	373	12.4	92.0
2022-10-09T20:34	10	0	0.1	0	0	373	0.2	372	373	12.4	92.0
2022-10-09T20:35	10	0	0.1	0	0	372	0.3	372	373	12.4	92.1
2022-10-09T20:36	10	0	0.1	0	0	372	0.3	372	373	12.4	92.1
2022-10-09T20:37	10	0	0.1	0	0	372	0.2	372	373	12.4	92.1
2022-10-09T20:38	10	0	0.1	0	0	372	0.2	372	373	12.4	92.1
2022-10-09T20:39	10	0	0.1	0	0	372	0.2	372	372	12.4	92.0
2022-10-09T20:40	10	0	0.1	0	0	372	0.3	371	373	12.4	92.1
2022-10-09T20:41	10	0	0.0	0	0	372	0.2	371	373	12.4	92.2
2022-10-09T20:42	10	0	0.1	0	0	372	0.3	371	373	12.4	92.2
2022-10-09T20:43	10	0	0.1	0	0	372	0.2	372	373	12.4	92.1
2022-10-09T20:44	10	0	0.1	0	0	372	0.2	371	372	12.4	92.0
2022-10-09T20:45	10	0	0.1	0	0	372	0.2	371	372	12.4	92.0
2022-10-09T20:46	10	0	0.1	0	0	372	0.2	371	372	12.3	92.1
2022-10-09T20:47	10	0	0.1	0	0	372	0.3	371	372	12.4	92.2
2022-10-09T20:48	10	0	0.1	0	0	372	0.2	371	372	12.3	92.3
2022-10-09T20:49	10	0	0.0	0	0	372	0.2	371	372	12.4	92.3
2022-10-09T20:50	10	0	0.1	0	0	371	0.2	371	372	12.3	92.3
2022-10-09T20:51	10	0	0.1	0	0	371	0.2	371	372	12.3	92.6
2022-10-09T20:52	10	0	0.1	0	0	371	0.2	370	372	12.3	92.9
2022-10-09T20:53	10	0	0.1	0	0	371	0.3	371	372	12.3	92.9
2022-10-09T20:54	10	0	0.1	0	0	371	0.2	371	372	12.3	92.8
2022-10-09T20:55	10	0	0.1	0	0	371	0.2	370	371	12.3	92.9
2022-10-09T20:56	10	0	0.1	0	0	371	0.2	370	371	12.3	92.9
2022-10-09T20:57	10	0	0.1	0	0	371	0.3	370	371	12.3	92.9
2022-10-09T20:58	10	0	0.1	0	0	370	0.3	370	371	12.3	92.9
2022-10-09T20:59	10	0	0.1	0	0	370	0.2	370	371	12.4	92.9
2022-10-09T21:00	10	0	0.1	0	0	370	0.3	370	371	12.3	92.7
2022-10-09T21:01	10	0	0.1	0	0	370	0.2	370	371	12.3	92.8
2022-10-09T21:02	10	0	0.1	0	0	370	0.3	369	371	12.3	92.8
2022-10-09T21:03	10	0	0.1	0	1	369	0.2	369	370	12.3	92.8
2022-10-09T21:04	10	0	0.1	0	0	369	0.2	369	370	12.3	92.9
2022-10-09T21:05	10	0	0.0	0	1	369	0.2	368	369	12.3	93.0
2022-10-09T21:06	10	0	0.1	0	1	368	0.3	368	369	12.3	93.0
2022-10-09T21:07	10	0	0.1	0	1	368	0.3	367	368	12.2	93.1
2022-10-09T21:08	10	0	0.1	0	1	368	0.2	367	368	12.2	93.2
2022-10-09T21:09	10	0	0.1	0	1	367	0.3	367	368	12.2	93.3
2022-10-09T21:10	10	0	0.1	0	1	367	0.5	366	368	12.2	93.4
2022-10-09T21:11	10	0	0.1	0	1	367	0.3	366	368	12.2	93.4
2022-10-09T21:12	10	0	0.1	0	1	367	0.4	366	368	12.2	93.4
2022-10-09T21:13	10	0	0.1	0	1	367	0.3	366	368	12.2	93.5
2022-10-09T21:14	10	0	0.1	0	0	367	0.2	367	367	12.2	93.5
2022-10-09T21:15	10	0	0.1	0	0	367	0.2	366	367	12.2	93.5
2022-10-09T21:16	10	0	0.1	0	0	367	0.3	366	367	12.1	93.6
2022-10-09T21:17	10	0	0.1	0	0	366	0.3	365	367	12.1	93.7
2022-10-09T21:18	10	0	0.1	0	1	366	0.3	365	367	12.2	93.7
2022-10-09T21:19	10	0	0.1	0	1	366	0.3	365	366	12.1	93.8
2022-10-09T21:20	10	0	0.1	0	1	366	0.2	365	366	12.1	93.9
2022-10-09T21:21	10	0	0.1	0	1	365	0.3	365	366	12.1	94.0
2022-10-09T21:22	10	0	0.1	0	1	365	0.2	365	366	12.1	94.1
2022-10-09T21:23	10	1	0.1	0	1	365	0.2	364	365	12.1	94.2
2022-10-09T21:24	10	0	0.1	0	1	365	0.3	364	365	12.1	94.3
2022-10-09T21:25	10	0	0.1	0	1	365	0.3	364	365	12.1	94.3
2022-10-09T21:26	10	0	0.1	0	1	365	0.2	364	365	12.1	94.4
2022-10-09T21:27	10	0	0.1	0	1	365	0.2	364	365	12.1	94.5
2022-10-09T21:28	10	0	0.1	0	1	365	0.2	364	365	12.1	94.5
2022-10-09T21:29	10	0	0.1	0	1	365	0.2	364	365	12.0	94.6
2022-10-09T21:30	10	0	0.1	0	1	365	0.2	364	365	12.1	94.7
2022-10-09T21:31	10	0	0.2	0	1	365	0.2	364	366	12.1	94.7
2022-10-09T21:32	10	0	0.1	0	1	365	0.2	364	365	12.1	94.7
2022-10-09T21:33	10	0	0.0	0	0	365	0.2	365	366	12.1	94.6
2022-10-09T21:34	10	0	0.1	0	1	366	0.2	365	366	12.0	94.6
2022-10-09T21:35	10	0	0.1	0	1	366	0.2	365	367	11.9	94.8
2022-10-09T21:36	10	0	0.2	0	1	366	0.3	366	367	11.9	94.8
2022-10-09T21:37	10	0	0.1	0	1	367	0.2	366	367	11.9	94.9
2022-10-09T21:38	10	0	0.1	0	1	367	0.3	366	367	11.8	95.0
2022-10-09T21:39	10	0	0.1	0	1	367	0.3	367	368	11.8	95.3
2022-10-09T21:40	10	0	0.1	0	1	368	0.2	367	368	11.8	95.4
2022-10-09T21:41	10	0	0.1	0	1	368	0.3	367	368	11.8	95.4
2022-10-09T21:42	10	1	0.2	0	1	368	0.3	367	369	11.8	95.5
2022-10-09T21:43	10	1	0.1	0	1	368	0.2	368	369	11.7	95.4
2022-10-09T21:44	10	1	0.1	0	1	368	0.3	368	369	11.7	95.6
2022-10-09T21:45	10	1	0.1	0	1	368	0.2	368	369	11.7	95.7
2022-10-09T21:46	10	1	0.1	0	1	369	0.2	368	369	11.7	95.8
2022-10-09T21:47	10	1	0.1	0	1	368	0.2	368	369	11.8	95.8
2022-10-09T21:48	10	1	0.1	0	1	368	0.2	368	369	11.8	95.8
2022-10-09T21:49	10	1	0.2	0	1	368	0.2	368	369	11.9	95.7
2022-10-09T21:50	10	1	0.2	0	1	368	0.2	368	369	11.9	95.5
2022-10-09T21:51	10	1	0.2	0	1	368	0.2	367	368	11.9	95.3
2022-10-09T21:52	10	1	0.1	0	1	368	0.3	367	368	12.0	95.2
2022-10-09T21:53	10	1	0.1	0	1	367	0.3	367	368	12.0	95.0
2022-10-09T21:54	10	1	0.1	0	1	367	0.2	367	368	12.0	94.9
2022-10-09T21:55	10	1	0.1	0	1	367	0.3	367	368	12.0	94.7
2022-10-09T21:56	10	1	0.1	0	1	367	0.2	367	368	12.0	94.5
2022-10-09T21:57	10	1	0.2	0	1	367	0.3	366	368	12.0	94.4
2022-10-09T21:58	10	1	0.1	0	1	367	0.3	366	367	12.0	94.4
2022-10-09T21:59	10	1	0.1	0	1	367	0.2	366	368	12.0	94.3
2022-10-09T22:00	10	1	0.1	0	1	367	0.2	366	368	12.0	94.4
2022-10-09T22:01	10	1	0.1	0	1	367	0.2	366	367	12.0	94.4
2022-10-09T22:02	10	1	0.1	0	1	367	0.2	366	367	11.9	94.4
2022-10-09T22:03	10	1	0.1	0	1	367	0.3	366	368	11.9	94.5
2022-10-09T22:04	10	1	0.1	0	1	367	0.2	367	368	11.9	94.6
2022-10-09T22:05	10	1	0.1	0	1	368	0.2	367	368	11.9	94.7
2022-10-09T22:06	10	0	0.2	0	1	368	0.3	367	369	11.9	94.8
2022-10-09T22:07	10	0	0.1	0	1	368	0.2	367	368	11.9	94.9
2022-10-09T22:08	10	0	0.1	0	1	368	0.2	368	369	11.9	94.9
2022-10-09T22:09	10	0	0.2	0	1	368	0.2	368	369	11.9	95.0
2022-10-09T22:10	10	0	0.2	0	1	368	0.2	368	369	11.9	95.1
2022-10-09T22:11	10	0	0.2	0	1	368	0.3	368	369	11.9	95.1
2022-10-09T22:12	10	0	0.1	0	1	369	0.2	368	369	12.0	95.2
2022-10-09T22:13	10	0	0.1	0	1	369	0.2	368	369	11.9	95.3
2022-10-09T22:14	10	0	0.1	0	1	369	0.2	369	370	11.9	95.3
2022-10-09T22:15	10	0	0.2	0	1	369	0.2	368	369	11.9	95.3
2022-10-09T22:16	10	0	0.1	0	1	369	0.3	369	370	11.9	95.3
2022-10-09T22:17	10	0	0.1	0	1	369	0.2	369	370	11.9	95.3
2022-10-09T22:18	10	0	0.1	0	1	369	0.2	369	370	11.9	95.4
2022-10-09T22:19	10	0	0.1	0	1	369	0.2	369	370	11.9	95.4
2022-10-09T22:20	10	0	0.1	0	1	370	0.3	369	370	11.9	95.4
2022-10-09T22:21	10	0	0.2	0	1	370	0.3	369	370	11.9	95.3
2022-10-09T22:22	10	0	0.1	0	1	370	0.2	369	370	11.9	95.2
2022-10-09T22:23	10	0	0.1	0	1	369	0.3	369	370	11.9	95.1
2022-10-09T22:24	10	0	0.1	0	1	369	0.2	369	370	11.9	95.0
2022-10-09T22:25	10	0	0.2	0	1	369	0.2	369	370	11.9	94.8
2022-10-09T22:26	10	0	0.1	0	1	369	0.2	368	370	11.9	94.6
2022-10-09T22:27	10	0	0.2	0	1	369	0.4	368	370	12.0	94.6
2022-10-09T22:28	10	0	0.2	0	1	369	0.2	368	369	11.9	94.3
2022-10-09T22:29	10	0	0.1	0	1	369	0.2	368	369	11.7	94.6
2022-10-09T22:30	10	0	0.1	0	1	369	0.3	368	370	11.8	94.9
2022-10-09T22:31	10	0	0.1	0	1	369	0.2	368	369	11.9	95.0
2022-10-09T22:32	10	0	0.1	0	1	369	0.2	368	370	11.9	94.8
2022-10-09T22:33	10	0	0.2	0	1	369	0.3	368	369	11.9	94.7
2022-10-09T22:34	10	0	0.1	0	1	368	0.3	368	369	11.9	94.5
2022-10-09T22:35	10	0	0.2	0	1	369	0.3	368	369	11.9	94.4
2022-10-09T22:36	10	0	0.1	0	1	368	0.2	368	369	11.9	94.4
2022-10-09T22:37	10	0	0.1	0	1	368	0.3	368	369	11.8	94.5
2022-10-09T22:38	10	0	0.2	0	1	368	0.2	368	369	11.8	94.6
2022-10-09T22:39	10	1	0.1	0	1	368	0.2	368	369	11.8	94.7
2022-10-09T22:40	10	1	0.1	0	1	368	0.2	368	369	11.9	94.7
2022-10-09T22:41	10	1	0.1	0	1	368	0.2	368	369	11.9	94.6
2022-10-09T22:42	10	1	0.1	0	1	368	0.2	368	369	11.8	94.6
2022-10-09T22:43	10	1	0.2	0	1	368	0.3	367	369	11.8	94.7
2022-10-09T22:44	10	1	0.1	0	1	368	0.2	368	369	11.8	94.7
2022-10-09T22:45	10	1	0.1	0	1	368	0.2	368	369	11.8	94.6
2022-10-09T22:46	10	1	0.1	0	1	368	0.2	368	369	11.8	94.6
2022-10-09T22:47	10	1	0.2	0	2	368	0.2	368	369	11.8	94.7
2022-10-09T22:48	10	1	0.1	0	1	368	0.2	368	369	11.7	94.9
2022-10-09T22:49	10	1	0.1	0	1	368	0.2	367	369	11.7	95.0
2022-10-09T22:50	10	1	0.1	0	1	368	0.3	367	369	11.7	95.0
2022-10-09T22:51	10	1	0.1	0	1	368	0.2	367	368	11.8	95.1
2022-10-09T22:52	10	0	0.1	0	1	368	0.3	367	368	11.8	95.2
2022-10-09T22:53	10	0	0.1	0	1	368	0.2	367	368	11.8	95.2
2022-10-09T22:54	10	0	0.1	0	1	367	0.2	367	368	11.8	95.2
2022-10-09T22:55	10	0	0.1	0	1	367	0.2	367	368	11.7	95.3
2022-10-09T22:56	10	0	0.1	0	1	367	0.3	367	368	11.7	95.4
2022-10-09T22:57	10	0	0.1	0	1	367	0.3	367	368	11.7	95.5
2022-10-09T22:58	10	0	0.1	0	1	367	0.3	367	368	11.7	95.5
2022-10-09T22:59	10	0	0.1	0	1	367	0.2	367	368	11.7	95.5
2022-10-09T23:00	10	0	0.1	0	1	368	0.3	367	368	11.8	95.5
2022-10-09T23:01	10	0	0.1	0	1	368	0.3	367	368	11.8	95.4
2022-10-09T23:02	10	0	0.1	0	1	368	0.3	367	368	11.8	95.3
2022-10-09T23:03	10	0	0.1	0	1	368	0.3	367	368	11.8	95.2
2022-10-09T23:04	10	0	0.2	0	1	367	0.2	367	368	11.7	95.2
2022-10-09T23:05	10	0	0.1	0	1	368	0.3	367	369	11.7	95.1
2022-10-09T23:06	10	0	0.1	0	0	367	0.3	367	368	11.6	95.1
2022-10-09T23:07	10	0	0.1	0	0	367	0.2	367	368	11.6	95.2
2022-10-09T23:08	10	0	0.1	0	0	367	0.3	366	368	11.7	95.2
2022-10-09T23:09	10	0	0.1	0	0	367	0.3	367	368	11.7	95.2
2022-10-09T23:10	10	0	0.1	-1	0	367	0.2	366	367	11.7	95.2
2022-10-09T23:11	10	0	0.1	-1	0	367	0.2	366	367	11.6	95.3
2022-10-09T23:12	10	0	0.1	-1	0	367	0.3	366	367	11.6	95.3
2022-10-09T23:13	10	-1	0.1	-1	0	366	0.2	366	367	11.6	95.4
2022-10-09T23:14	10	-1	0.1	-1	0	367	0.2	366	367	11.5	95.6
2022-10-09T23:15	10	0	0.1	-1	0	366	0.3	365	367	11.5	95.8
2022-10-09T23:16	10	0	0.1	-1	0	366	0.3	366	367	11.5	96.0
2022-10-09T23:17	10	0	0.1	-1	0	366	0.2	366	367	11.6	96.1
2022-10-09T23:18	10	0	0.1	-1	0	366	0.2	366	367	11.6	96.2
2022-10-09T23:19	10	-1	0.1	-1	0	367	0.2	366	367	11.7	96.2
2022-10-09T23:20	10	-1	0.1	-1	-1	367	0.4	366	368	11.8	96.1
2022-10-09T23:21	10	-1	0.1	-1	-1	367	0.2	367	368	11.9	96.0
2022-10-09T23:22	10	-1	0.1	-1	-1	368	0.3	367	368	11.9	95.7
2022-10-09T23:23	10	-1	0.1	-1	-1	367	0.2	367	368	11.8	95.3
2022-10-09T23:24	10	-1	0.1	-1	-1	367	0.2	367	368	11.8	95.2
2022-10-09T23:25	10	-1	0.1	-1	-1	367	0.2	366	368	11.8	95.2
2022-10-09T23:26	10	-1	0.1	-1	-1	367	0.3	366	368	11.8	95.2
2022-10-09T23:27	10	-1	0.1	-1	-1	367	0.2	366	367	11.7	95.1
2022-10-09T23:28	10	-1	0.1	-1	-1	367	0.2	366	367	11.7	95.1
2022-10-09T23:29	10	-1	0.1	-1	-1	367	0.2	366	367	11.7	95.1
2022-10-09T23:30	10	-1	0.1	-1	0	367	0.3	366	368	11.8	95.0
2022-10-09T23:31	10	-1	0.1	-1	-1	367	0.3	366	367	11.8	94.9
2022-10-09T23:32	10	-1	0.1	-1	0	367	0.3	367	368	11.7	94.8
2022-10-09T23:33	10	-1	0.1	-1	-1	367	0.2	366	367	11.7	94.9
2022-10-09T23:34	10	-1	0.1	-1	0	367	0.2	367	368	11.7	94.9
2022-10-09T23:35	10	0	0.1	-1	0	367	0.3	366	367	11.8	95.0
2022-10-09T23:36	10	0	0.1	-1	0	367	0.2	367	368	11.7	94.9
2022-10-09T23:37	10	0	0.1	-1	0	367	0.2	366	367	11.7	94.8
2022-10-09T23:38	10	0	0.1	-1	0	366	0.2	366	367	11.6	94.8
2022-10-09T23:39	10	0	0.1	0	0	366	0.3	365	367	11.5	95.1
2022-10-09T23:40	10	0	0.1	0	0	366	0.3	365	366	11.5	95.5
2022-10-09T23:41	10	0	0.1	0	0	366	0.2	366	367	11.5	95.6
2022-10-09T23:42	10	0	0.1	0	0	366	0.2	365	366	11.5	95.7
2022-10-09T23:43	10	0	0.1	0	0	366	0.2	365	366	11.5	95.8
2022-10-09T23:44	10	0	0.1	0	0	366	0.2	365	366	11.6	95.9
2022-10-09T23:45	10	0	0.1	0	0	366	0.2	365	366	11.6	95.9
2022-10-09T23:46	10	0	0.1	0	0	366	0.3	365	367	11.7	95.8
2022-10-09T23:47	10	0	0.1	0	0	366	0.3	365	366	11.8	95.6
2022-10-09T23:48	10	0	0.0	0	0	366	0.2	365	366	11.8	95.4
2022-10-09T23:49	10	0	0.1	0	0	366	0.3	365	367	11.7	95.2
2022-10-09T23:50	10	0	0.1	0	0	366	0.2	365	366	11.7	95.2
2022-10-09T23:51	10	0	0.1	0	0	366	0.3	365	367	11.7	95.2
2022-10-09T23:52	10	0	0.1	0	0	366	0.2	366	367	11.7	95.1
2022-10-09T23:53	10	0	0.1	0	0	366	0.2	366	367	11.8	95.0
2022-10-09T23:54	10	0	0.1	0	0	366	0.3	366	367	11.7	95.0
2022-10-09T23:55	10	0	0.1	0	0	366	0.2	366	367	11.8	94.9
2022-10-09T23:56	10	0	0.1	0	0	366	0.2	366	367	11.7	94.9
2022-10-09T23:57	10	0	0.1	-1	0	366	0.3	366	366	11.7	94.9
2022-10-09T23:58	10	0	0.1	-1	0	366	0.2	365	366	11.8	94.9
2022-10-09T23:59	10	-1	0.1	-1	0	366	0.2	365	366	11.8	94.8
2022-10-10T00:00	10	-1	0.1	-1	0	366	0.2	365	366	11.7	94.7
2022-10-10T00:01	10	-1	0.1	-1	0	365	0.2	365	366	11.7	94.8
2022-10-10T00:02	10	-1	0.1	-1	-1	365	0.2	365	366	11.7	94.8
2022-10-10T00:03	10	-1	0.1	-1	-1	365	0.2	365	366	11.8	94.8
2022-10-10T00:04	10	-1	0.1	-1	0	365	0.3	365	366	11.7	94.7
2022-10-10T00:05	10	-1	0.1	-1	0	365	0.3	364	366	11.8	94.8
2022-10-10T00:06	10	0	0.1	-1	0	365	0.2	364	365	11.8	94.8
2022-10-10T00:07	10	-1	0.1	-1	0	365	0.2	364	365	11.8	94.8
2022-10-10T00:08	10	-1	0.1	-1	0	364	0.3	364	365	11.7	94.9
2022-10-10T00:09	10	-1	0.1	-1	0	364	0.3	364	365	11.7	94.9
2022-10-10T00:10	10	-1	0.0	-1	-1	365	0.3	364	365	11.6	95.1
2022-10-10T00:11	10	-1	0.1	-1	-1	364	0.2	364	365	11.6	95.1
2022-10-10T00:12	10	-1	0.1	-1	-1	365	0.3	364	365	11.6	95.3
2022-10-10T00:13	10	-1	0.1	-1	-1	365	0.3	364	365	11.6	95.4
2022-10-10T00:14	10	-1	0.1	-1	-1	365	0.3	364	365	11.6	95.5
2022-10-10T00:15	10	-1	0.1	-1	-1	365	0.3	364	366	11.6	95.6
2022-10-10T00:16	10	-1	0.1	-1	-1	365	0.3	364	365	11.6	95.6
2022-10-10T00:17	10	-1	0.1	-1	-1	365	0.3	364	365	11.6	95.6
2022-10-10T00:18	10	-1	0.1	-1	-1	365	0.3	364	365	11.6	95.6
2022-10-10T00:19	10	-1	0.1	-1	-1	365	0.2	364	365	11.7	95.6
2022-10-10T00:20	10	-1	0.0	-1	-1	365	0.3	364	366	11.6	95.4
2022-10-10T00:21	10	-1	0.1	-1	-1	366	0.3	365	366	11.6	95.5
2022-10-10T00:22	10	-1	0.1	-1	-1	366	0.3	365	366	11.6	95.5
2022-10-10T00:23	10	-1	0.1	-1	-1	366	0.3	365	367	11.6	95.5
2022-10-10T00:24	10	-1	0.1	-1	-1	366	0.2	365	366	11.6	95.4
2022-10-10T00:25	10	-1	0.1	-1	-1	366	0.2	365	366	11.6	95.5
2022-10-10T00:26	10	-1	0.1	-1	-1	366	0.3	365	366	11.6	95.4
2022-10-10T00:27	10	-1	0.1	-1	-1	366	0.3	366	367	11.7	95.4
2022-10-10T00:28	10	-1	0.1	-1	-1	366	0.2	366	367	11.7	95.3
2022-10-10T00:29	10	-1	0.1	-1	-1	366	0.2	366	367	11.7	95.3
2022-10-10T00:30	10	-1	0.1	-1	-1	366	0.2	366	367	11.7	95.3
2022-10-10T00:31	10	-1	0.1	-1	-1	366	0.2	366	367	11.6	95.2
2022-10-10T00:32	10	-1	0.1	-1	-1	367	0.2	366	367	11.7	95.3
2022-10-10T00:33	10	-1	0.1	-1	-1	367	0.2	366	367	11.7	95.3
2022-10-10T00:34	10	-1	0.1	-1	-1	367	0.2	366	367	11.7	95.3
2022-10-10T00:35	10	-1	0.1	-1	-1	367	0.2	366	367	11.7	95.3
2022-10-10T00:36	10	-1	0.1	-1	-1	367	0.3	366	367	11.7	95.3
2022-10-10T00:37	10	-1	0.1	-1	-1	367	0.2	366	367	11.7	95.3
2022-10-10T00:38	10	-1	0.1	-1	-1	367	0.3	366	367	11.7	95.2
2022-10-10T00:39	10	-1	0.1	-1	0	367	0.2	366	367	11.7	95.2
2022-10-10T00:40	10	-1	0.1	-1	0	367	0.2	366	367	11.7	95.2
2022-10-10T00:41	10	-1	0.1	-1	0	367	0.2	366	367	11.7	95.2
2022-10-10T00:42	10	-1	0.1	-1	0	367	0.3	366	367	11.8	95.2
2022-10-10T00:43	10	-1	0.1	-1	-1	367	0.3	366	367	11.7	95.1
2022-10-10T00:44	10	-1	0.1	-1	-1	367	0.2	367	367	11.7	95.2
2022-10-10T00:45	10	-1	0.1	-1	-1	367	0.2	366	368	11.7	95.2
2022-10-10T00:46	10	-1	0.1	-1	-1	367	0.2	366	368	11.7	95.2
2022-10-10T00:47	10	-1	0.0	-1	-1	367	0.2	366	367	11.7	95.2
2022-10-10T00:48	10	-1	0.1	-1	0	367	0.2	367	368	11.8	95.2
2022-10-10T00:49	10	0	0.1	-1	0	367	0.2	367	368	11.8	95.2
2022-10-10T00:50	10	0	0.1	-1	0	367	0.2	367	368	11.8	95.2
2022-10-10T00:51	10	0	0.1	0	0	367	0.2	367	368	11.7	95.0
2022-10-10T00:52	10	0	0.1	0	0	367	0.3	367	368	11.8	95.1
2022-10-10T00:53	10	0	0.1	0	0	368	0.3	367	368	11.8	95.1
2022-10-10T00:54	10	0	0.1	0	0	368	0.2	367	368	11.9	94.9
2022-10-10T00:55	10	0	0.1	0	0	368	0.3	367	368	11.9	94.7
2022-10-10T00:56	10	0	0.1	0	0	368	0.2	368	369	12.0	94.4
2022-10-10T00:57	10	0	0.1	0	0	368	0.2	368	369	12.0	94.2
2022-10-10T00:58	10	0	0.1	0	0	368	0.2	368	369	12.0	94.0
2022-10-10T00:59	10	0	0.1	0	0	368	0.3	368	369	12.0	93.9
2022-10-10T01:00	10	0	0.1	0	0	368	0.2	367	368	12.0	93.8
2022-10-10T01:01	10	0	0.1	0	0	368	0.2	367	369	11.9	93.8
2022-10-10T01:02	10	0	0.1	0	0	368	0.3	367	369	11.9	93.8
2022-10-10T01:03	10	0	0.1	0	0	368	0.3	367	368	11.7	94.0
2022-10-10T01:04	10	0	0.1	0	0	368	0.2	367	368	11.6	94.4
2022-10-10T01:05	10	0	0.1	0	0	368	0.2	368	368	11.6	94.7
2022-10-10T01:06	10	0	0.1	0	0	368	0.3	367	369	11.6	94.9
2022-10-10T01:07	10	0	0.1	0	0	368	0.3	367	369	11.6	95.1
2022-10-10T01:08	10	0	0.1	0	0	368	0.2	368	368	11.7	95.3
2022-10-10T01:09	10	0	0.1	0	0	368	0.2	368	369	11.8	95.2
2022-10-10T01:10	10	0	0.1	0	0	368	0.2	368	368	11.8	95.1
2022-10-10T01:11	10	0	0.1	0	0	368	0.2	368	369	11.8	95.0
2022-10-10T01:12	10	0	0.1	0	1	368	0.3	367	369	11.8	94.9
2022-10-10T01:13	10	0	0.0	0	0	368	0.2	367	368	11.6	94.7
2022-10-10T01:14	10	0	0.1	0	1	368	0.3	368	369	11.5	95.0
2022-10-10T01:15	10	0	0.1	0	1	369	0.2	369	369	11.6	95.5
2022-10-10T01:16	10	0	0.1	0	1	369	0.2	369	370	11.7	95.5
2022-10-10T01:17	10	0	0.1	0	1	369	0.3	368	370	11.7	95.4
2022-10-10T01:18	10	0	0.1	0	1	369	0.2	369	370	11.7	95.4
2022-10-10T01:19	10	0	0.1	0	1	369	0.3	369	370	11.8	95.3
2022-10-10T01:20	10	0	0.1	0	1	369	0.3	368	370	11.6	95.1
2022-10-10T01:21	10	0	0.1	0	0	369	0.2	369	370	11.5	95.3
2022-10-10T01:22	10	0	0.1	0	0	370	0.2	369	370	11.5	95.6
2022-10-10T01:23	10	0	0.1	0	0	370	0.3	369	371	11.5	95.7
2022-10-10T01:24	10	0	0.1	0	0	370	0.3	369	371	11.5	95.8
2022-10-10T01:25	10	0	0.1	0	0	371	0.3	370	371	11.6	95.8
2022-10-10T01:26	10	0	0.1	0	0	371	0.3	370	371	11.6	95.8
2022-10-10T01:27	10	0	0.1	0	0	371	0.3	370	372	11.6	95.8
2022-10-10T01:28	10	0	0.1	0	0	371	0.5	370	372	11.5	95.8
2022-10-10T01:29	10	0	0.1	0	0	371	0.4	370	371	11.5	95.8
2022-10-10T01:30	10	0	0.1	0	0	371	0.7	369	372	11.5	95.9
2022-10-10T01:31	10	0	0.1	0	0	371	0.5	370	372	11.5	96.0
2022-10-10T01:32	10	0	0.1	0	0	371	0.6	369	372	11.5	96.1
2022-10-10T01:33	10	0	0.1	0	0	370	0.4	370	371	11.5	96.2
2022-10-10T01:34	10	0	0.1	0	0	370	0.3	369	371	11.5	96.2
2022-10-10T01:35	10	0	0.1	0	0	370	0.3	370	371	11.5	96.3
2022-10-10T01:36	10	0	0.1	-1	0	370	0.3	370	371	11.6	96.3
2022-10-10T01:37	10	0	0.1	-1	0	370	0.2	370	371	11.5	96.2
2022-10-10T01:38	10	0	0.1	0	0	370	0.2	369	370	11.5	96.2
2022-10-10T01:39	10	0	0.1	-1	0	370	0.2	370	370	11.5	96.2
2022-10-10T01:40	10	0	0.1	0	0	370	0.2	369	370	11.5	96.2
2022-10-10T01:41	10	0	0.1	0	0	370	0.2	369	370	11.4	96.2
2022-10-10T01:42	10	0	0.1	0	0	370	0.2	369	370	11.4	96.4
2022-10-10T01:43	10	0	0.1	0	0	369	0.3	369	370	11.4	96.4
2022-10-10T01:44	10	0	0.1	-1	0	369	0.3	368	370	11.4	96.5
2022-10-10T01:45	10	-1	0.1	-1	0	369	0.3	369	370	11.4	96.5
2022-10-10T01:46	10	-1	0.1	-1	-1	369	0.2	369	370	11.4	96.5
2022-10-10T01:47	10	-1	0.1	-1	-1	369	0.2	369	370	11.4	96.6
2022-10-10T01:48	10	-1	0.1	-1	-1	369	0.2	369	370	11.4	96.6
2022-10-10T01:49	10	-1	0.1	-1	-1	369	0.2	369	370	11.4	96.6
2022-10-10T01:50	10	-1	0.1	-1	-1	369	0.3	369	370	11.4	96.7
2022-10-10T01:51	10	-1	0.1	-1	-1	369	0.2	369	370	11.4	96.7
2022-10-10T01:52	10	-1	0.1	-1	-1	369	0.2	369	370	11.4	96.7
2022-10-10T01:53	10	-1	0.1	-1	-1	369	0.2	369	370	11.4	96.6
2022-10-10T01:54	10	-1	0.1	-1	-1	369	0.3	369	370	11.4	96.6
2022-10-10T01:55	10	-1	0.1	-2	-1	369	0.2	369	370	11.4	96.6
2022-10-10T01:56	10	-1	0.1	-1	-1	369	0.2	369	370	11.4	96.6
2022-10-10T01:57	10	-1	0.0	-2	-1	369	0.3	368	370	11.4	96.6
2022-10-10T01:58	10	-2	0.1	-2	-1	369	0.2	369	369	11.4	96.6
2022-10-10T01:59	10	-2	0.1	-2	-1	369	0.2	369	370	11.4	96.6
2022-10-10T02:00	10	-2	0.1	-2	-1	369	0.3	368	370	11.4	96.6
2022-10-10T02:01	10	-1	0.1	-2	-1	369	0.3	368	369	11.4	96.6
2022-10-10T02:02	10	-1	0.1	-1	-1	369	0.2	369	369	11.4	96.6
2022-10-10T02:03	10	-1	0.1	-1	-1	369	0.2	368	369	11.3	96.6
2022-10-10T02:04	10	-1	0.1	-1	-1	369	0.3	368	370	11.3	96.7
2022-10-10T02:05	10	-1	0.1	-1	-1	369	0.2	368	369	11.3	96.7
2022-10-10T02:06	10	-1	0.0	-1	-1	369	0.2	368	369	11.3	96.8
2022-10-10T02:07	10	-1	0.1	-1	0	369	0.2	368	369	11.3	96.8
2022-10-10T02:08	10	-1	0.1	-1	-1	369	0.2	368	369	11.3	96.8
2022-10-10T02:09	10	-1	0.1	-1	-1	369	0.2	368	369	11.3	96.9
2022-10-10T02:10	10	-1	0.1	-1	-1	369	0.2	368	369	11.3	96.9
2022-10-10T02:11	10	-1	0.1	-1	-1	369	0.2	368	369	11.3	96.9
2022-10-10T02:12	10	-1	0.1	-1	-1	369	0.2	368	369	11.3	96.9
2022-10-10T02:13	10	-1	0.1	-1	-1	369	0.2	368	369	11.4	96.9
2022-10-10T02:14	10	-1	0.1	-1	0	369	0.2	368	369	11.4	96.9
2022-10-10T02:15	10	-1	0.1	-1	0	369	0.2	368	369	11.4	96.8
2022-10-10T02:16	10	0	0.1	-1	0	369	0.2	368	369	11.4	96.8
2022-10-10T02:17	10	0	0.1	-1	0	369	0.2	368	369	11.3	96.8
2022-10-10T02:18	10	0	0.1	-1	0	369	0.3	368	369	11.4	96.8
2022-10-10T02:19	10	-1	0.1	-1	0	369	0.3	368	369	11.4	96.7
2022-10-10T02:20	10	-1	0.1	-1	-1	369	0.2	368	369	11.4	96.7
2022-10-10T02:21	10	-1	0.1	-1	-1	369	0.3	368	370	11.4	96.6
2022-10-10T02:22	10	-1	0.1	-1	-1	369	0.2	368	369	11.3	96.6
2022-10-10T02:23	10	-1	0.1	-1	-1	369	0.2	368	369	11.3	96.6
2022-10-10T02:24	10	-1	0.1	-1	-1	369	0.2	368	369	11.4	96.7
2022-10-10T02:25	10	-1	0.0	-1	-1	369	0.2	368	369	11.4	96.7
2022-10-10T02:26	10	-1	0.1	-1	0	369	0.2	368	369	11.4	96.7
2022-10-10T02:27	10	-1	0.1	-1	0	369	0.2	368	369	11.4	96.6
2022-10-10T02:28	10	0	0.1	-1	0	369	0.2	368	369	11.4	96.6
2022-10-10T02:29	10	0	0.1	0	0	369	0.2	368	369	11.4	96.6
2022-10-10T02:30	10	0	0.1	0	0	369	0.2	368	369	11.4	96.6
2022-10-10T02:31	10	0	0.1	0	0	369	0.2	368	369	11.4	96.6
2022-10-10T02:32	10	0	0.1	0	0	369	0.2	368	369	11.4	96.5
2022-10-10T02:33	10	0	0.1	0	0	369	0.2	368	369	11.4	96.5
2022-10-10T02:34	10	0	0.1	0	0	368	0.2	368	369	11.4	96.5
2022-10-10T02:35	10	0	0.1	0	0	368	0.3	368	369	11.4	96.5
2022-10-10T02:36	10	0	0.1	0	0	368	0.2	368	369	11.4	96.5
2022-10-10T02:37	10	0	0.0	0	0	369	0.3	368	369	11.4	96.6
2022-10-10T02:38	10	0	0.1	0	0	369	0.2	368	369	11.4	96.6
2022-10-10T02:39	10	0	0.1	0	0	369	0.2	369	370	11.4	96.7
2022-10-10T02:40	10	0	0.1	0	0	369	0.3	369	370	11.4	96.7
2022-10-10T02:41	10	0	0.1	0	1	369	0.2	369	370	11.4	96.7
2022-10-10T02:42	10	1	0.1	0	1	370	0.2	369	370	11.5	96.8
2022-10-10T02:43	10	1	0.1	0	1	370	0.2	369	370	11.6	96.7
2022-10-10T02:44	10	1	0.1	0	1	370	0.2	370	370	11.6	96.6
2022-10-10T02:45	10	1	0.1	0	1	370	0.2	369	370	11.6	96.4
2022-10-10T02:46	10	1	0.1	1	1	370	0.2	369	370	11.6	96.2
2022-10-10T02:47	10	1	0.1	1	1	370	0.2	370	370	11.6	96.1
2022-10-10T02:48	10	1	0.1	1	1	370	0.3	369	371	11.5	96.0
2022-10-10T02:49	10	1	0.1	1	1	370	0.2	369	370	11.5	96.0
2022-10-10T02:50	10	1	0.1	1	1	370	0.2	370	371	11.5	96.1
2022-10-10T02:51	10	1	0.1	1	1	370	0.2	370	371	11.5	96.1
2022-10-10T02:52	10	1	0.1	1	1	370	0.2	370	371	11.5	96.2
2022-10-10T02:53	10	1	0.1	1	1	370	0.3	370	371	11.5	96.2
2022-10-10T02:54	10	1	0.0	1	1	370	0.2	370	371	11.5	96.3
2022-10-10T02:55	10	1	0.1	1	1	370	0.3	370	371	11.5	96.3
2022-10-10T02:56	10	1	0.1	0	1	370	0.2	370	371	11.6	96.3
2022-10-10T02:57	10	0	0.1	0	1	370	0.4	370	371	11.5	96.2
2022-10-10T02:58	10	0	0.1	0	0	370	0.2	370	371	11.5	96.2
2022-10-10T02:59	10	0	0.1	0	0	370	0.2	370	371	11.5	96.2
2022-10-10T03:00	10	0	0.1	0	0	370	0.3	370	371	11.5	96.3
2022-10-10T03:01	10	0	0.1	0	0	370	0.2	370	371	11.5	96.3
2022-10-10T03:02	10	0	0.1	0	0	371	0.2	370	371	11.4	96.3
2022-10-10T03:03	10	0	0.1	0	0	370	0.2	370	371	11.4	96.3
2022-10-10T03:04	10	0	0.1	0	0	370	0.3	370	371	11.4	96.3
2022-10-10T03:05	10	0	0.1	0	0	371	0.3	370	371	11.4	96.4
2022-10-10T03:06	10	0	0.1	0	0	370	0.2	370	371	11.4	96.4
2022-10-10T03:07	10	0	0.1	0	0	370	0.2	370	371	11.4	96.4
2022-10-10T03:08	10	0	0.1	0	0	370	0.2	370	371	11.4	96.4
2022-10-10T03:09	10	0	0.1	0	0	370	0.2	370	371	11.4	96.5
2022-10-10T03:10	10	0	0.1	0	0	370	0.2	370	371	11.4	96.5
2022-10-10T03:11	10	0	0.1	0	0	370	0.2	370	371	11.4	96.6
2022-10-10T03:12	10	0	0.1	0	0	370	0.3	370	371	11.4	96.6
2022-10-10T03:13	10	0	0.1	0	0	371	0.2	370	371	11.4	96.6
2022-10-10T03:14	10	0	0.1	0	0	371	0.3	370	371	11.4	96.7
2022-10-10T03:15	10	0	0.1	0	0	371	0.3	370	372	11.4	96.7
2022-10-10T03:16	10	0	0.0	0	1	371	0.2	371	372	11.4	96.7
2022-10-10T03:17	10	1	0.1	0	1	371	0.3	370	371	11.4	96.7
2022-10-10T03:18	10	1	0.1	1	1	371	0.2	371	372	11.4	96.8
2022-10-10T03:19	10	1	0.1	1	1	371	0.2	371	371	11.4	96.8
2022-10-10T03:20	10	1	0.1	1	1	371	0.3	371	372	11.4	96.8
2022-10-10T03:21	10	1	0.1	1	1	371	0.2	371	372	11.4	96.8
2022-10-10T03:22	10	1	0.1	1	1	371	0.3	370	372	11.4	96.8
2022-10-10T03:23	10	1	0.1	1	1	371	0.2	371	371	11.4	96.8
2022-10-10T03:24	10	1	0.1	1	1	371	0.2	371	372	11.4	96.8
2022-10-10T03:25	10	1	0.1	1	1	371	0.2	371	372	11.4	96.8
2022-10-10T03:26	10	1	0.1	1	1	371	0.2	371	372	11.4	96.8
2022-10-10T03:27	10	1	0.1	1	1	371	0.2	371	372	11.4	96.8
2022-10-10T03:28	10	1	0.1	1	1	372	0.2	371	372	11.4	96.8
2022-10-10T03:29	10	1	0.1	1	1	372	0.2	371	372	11.4	96.8
2022-10-10T03:30	10	1	0.1	1	1	372	0.2	372	372	11.4	96.8
2022-10-10T03:31	10	1	0.1	0	1	372	0.2	371	372	11.4	96.9
2022-10-10T03:32	10	1	0.1	0	1	372	0.3	371	373	11.4	96.9
2022-10-10T03:33	10	1	0.1	1	1	372	0.2	371	372	11.4	96.9
2022-10-10T03:34	10	1	0.1	1	1	372	0.2	371	372	11.4	97.0
2022-10-10T03:35	10	1	0.1	1	1	372	0.2	371	372	11.4	97.0
2022-10-10T03:36	10	1	0.1	1	1	372	0.2	371	372	11.4	97.1
2022-10-10T03:37	10	1	0.1	1	1	372	0.3	371	372	11.4	97.1
2022-10-10T03:38	10	1	0.1	1	1	372	0.3	371	372	11.3	97.2
2022-10-10T03:39	10	1	0.1	1	1	371	0.2	371	372	11.3	97.2
2022-10-10T03:40	10	1	0.1	0	1	372	0.2	371	372	11.3	97.2
2022-10-10T03:41	10	1	0.1	1	1	371	0.2	371	372	11.3	97.2
2022-10-10T03:42	10	1	0.1	1	1	371	0.3	371	372	11.3	97.2
2022-10-10T03:43	10	1	0.1	1	1	372	0.2	371	372	11.4	97.2
2022-10-10T03:44	10	1	0.1	1	1	372	0.2	371	372	11.4	97.2
2022-10-10T03:45	10	1	0.1	1	1	371	0.2	371	372	11.4	97.2
2022-10-10T03:46	10	1	0.1	1	1	372	0.2	371	372	11.4	97.2
2022-10-10T03:47	10	1	0.1	1	1	371	0.2	371	372	11.3	97.2
2022-10-10T03:48	10	1	0.0	1	1	371	0.2	371	372	11.3	97.2
2022-10-10T03:49	10	1	0.1	1	1	371	0.2	371	372	11.3	97.3
2022-10-10T03:50	10	1	0.1	1	1	371	0.2	371	372	11.4	97.3
2022-10-10T03:51	10	1	0.1	1	1	372	0.2	371	372	11.4	97.3
2022-10-10T03:52	10	1	0.1	1	1	372	0.2	371	372	11.4	97.3
2022-10-10T03:53	10	1	0.1	1	1	372	0.2	371	372	11.4	97.3
2022-10-10T03:54	10	1	0.1	1	1	372	0.2	371	372	11.4	97.3
2022-10-10T03:55	10	1	0.1	1	1	372	0.2	371	372	11.4	97.4
2022-10-10T03:56	10	1	0.1	1	1	372	0.3	371	372	11.4	97.4
2022-10-10T03:57	10	1	0.0	1	1	372	0.2	371	372	11.4	97.4
2022-10-10T03:58	10	1	0.1	0	1	372	0.2	372	372	11.4	97.4
2022-10-10T03:59	10	0	0.1	0	1	372	0.3	371	373	11.4	97.5
2022-10-10T04:00	10	0	0.1	0	0	372	0.2	371	372	11.4	97.5
2022-10-10T04:01	10	0	0.1	0	0	372	0.3	371	372	11.5	97.5
2022-10-10T04:02	10	0	0.1	0	0	372	0.2	371	372	11.5	97.4
2022-10-10T04:03	10	0	0.1	0	0	372	0.3	371	372	11.5	97.4
2022-10-10T04:04	10	0	0.1	0	0	372	0.2	372	373	11.5	97.3
2022-10-10T04:05	10	0	0.1	0	0	372	0.3	372	373	11.5	97.3
2022-10-10T04:06	10	0	0.1	0	0	372	0.2	372	373	11.5	97.2
2022-10-10T04:07	10	0	0.1	0	1	372	0.2	372	373	11.6	97.2
2022-10-10T04:08	10	0	0.1	0	1	372	0.2	372	372	11.6	97.1
2022-10-10T04:09	10	1	0.1	0	1	372	0.2	372	372	11.6	96.9
2022-10-10T04:10	10	1	0.1	1	1	372	0.2	372	372	11.6	96.8
2022-10-10T04:11	10	1	0.1	0	1	372	0.2	371	372	11.6	96.8
2022-10-10T04:12	10	1	0.1	1	1	372	0.2	371	372	11.6	96.8
2022-10-10T04:13	10	1	0.1	1	1	372	0.2	371	372	11.6	96.7
2022-10-10T04:14	10	1	0.1	0	1	371	0.2	371	372	11.5	96.7
2022-10-10T04:15	10	1	0.0	1	1	371	0.2	371	372	11.5	96.7
2022-10-10T04:16	10	1	0.1	0	1	371	0.2	371	372	11.6	96.7
2022-10-10T04:17	10	1	0.1	0	1	371	0.2	371	372	11.6	96.7
2022-10-10T04:18	10	1	0.1	0	1	372	0.2	371	372	11.5	96.7
2022-10-10T04:19	10	1	0.1	0	1	372	0.2	371	372	11.6	96.7
2022-10-10T04:20	10	1	0.1	0	1	372	0.3	371	372	11.6	96.8
2022-10-10T04:21	10	1	0.1	0	1	371	0.2	371	372	11.6	96.8
2022-10-10T04:22	10	1	0.1	1	1	372	0.2	371	372	11.6	96.8
2022-10-10T04:23	10	1	0.1	1	1	371	0.2	371	372	11.5	96.8
2022-10-10T04:24	10	1	0.1	1	1	372	0.3	371	372	11.5	96.8
2022-10-10T04:25	10	1	0.1	1	1	371	0.2	371	372	11.5	96.8
2022-10-10T04:26	10	1	0.1	1	1	371	0.2	371	372	11.5	96.9
2022-10-10T04:27	10	1	0.1	0	1	372	0.2	371	372	11.5	96.9
2022-10-10T04:28	10	1	0.1	0	1	371	0.2	371	372	11.5	96.9
2022-10-10T04:29	10	1	0.1	0	1	371	0.2	371	372	11.5	96.9
2022-10-10T04:30	10	1	0.1	0	1	371	0.2	371	372	11.5	97.0
2022-10-10T04:31	10	1	0.1	0	1	371	0.2	371	372	11.5	96.9
2022-10-10T04:32	10	1	0.0	1	1	371	0.3	371	372	11.5	97.0
2022-10-10T04:33	10	1	0.1	0	1	371	0.2	371	372	11.5	97.0
2022-10-10T04:34	10	1	0.0	1	1	371	0.2	371	372	11.5	97.0
2022-10-10T04:35	10	1	0.1	1	1	371	0.2	371	372	11.5	97.0
2022-10-10T04:36	10	1	0.1	1	1	371	0.2	370	372	11.5	97.1
2022-10-10T04:37	10	1	0.1	1	1	371	0.2	371	372	11.5	97.1
2022-10-10T04:38	10	1	0.1	1	1	372	0.2	371	372	11.5	97.2
2022-10-10T04:39	10	1	0.1	0	1	372	0.2	371	372	11.5	97.2
2022-10-10T04:40	10	1	0.1	1	1	372	0.2	371	372	11.5	97.3
2022-10-10T04:41	10	1	0.1	0	1	372	0.2	371	372	11.5	97.3
2022-10-10T04:42	10	1	0.1	0	1	371	0.2	371	372	11.5	97.3
2022-10-10T04:43	10	1	0.1	0	1	371	0.2	371	372	11.5	97.3
2022-10-10T04:44	10	1	0.1	0	1	371	0.2	371	372	11.5	97.3
2022-10-10T04:45	10	1	0.1	0	1	371	0.2	371	372	11.5	97.3
2022-10-10T04:46	10	1	0.1	0	1	371	0.2	371	372	11.5	97.3
2022-10-10T04:47	10	1	0.1	1	1	371	0.2	371	372	11.6	97.3
2022-10-10T04:48	10	1	0.1	1	1	371	0.2	371	372	11.6	97.2
2022-10-10T04:49	10	1	0.1	1	1	371	0.2	371	372	11.6	97.2
2022-10-10T04:50	10	1	0.1	0	1	371	0.2	371	372	11.6	97.1
2022-10-10T04:51	10	0	0.1	0	1	371	0.3	371	372	11.6	97.1
2022-10-10T04:52	10	0	0.1	0	0	371	0.2	371	372	11.5	97.1
2022-10-10T04:53	10	0	0.1	0	0	371	0.3	371	372	11.5	97.1
2022-10-10T04:54	10	0	0.1	0	0	371	0.3	370	371	11.5	97.1
2022-10-10T04:55	10	0	0.1	0	0	371	0.2	371	372	11.5	97.1
2022-10-10T04:56	10	0	0.1	0	0	371	0.3	371	372	11.5	97.1
2022-10-10T04:57	10	0	0.1	0	0	371	0.2	371	372	11.5	97.1
2022-10-10T04:58	10	0	0.1	0	0	371	0.2	371	371	11.5	97.1
2022-10-10T04:59	10	0	0.0	0	0	371	0.2	371	371	11.5	97.1
2022-10-10T05:00	10	0	0.1	0	0	371	0.2	370	371	11.5	97.1
2022-10-10T05:01	10	0	0.1	0	0	371	0.2	371	372	11.5	97.1
2022-10-10T05:02	10	0	0.1	0	0	371	0.2	371	372	11.5	97.1
2022-10-10T05:03	10	0	0.1	0	0	371	0.2	371	372	11.5	97.1
2022-10-10T05:04	10	0	0.1	0	1	371	0.2	371	372	11.5	97.1
2022-10-10T05:05	10	0	0.1	0	1	371	0.2	371	372	11.5	97.2
2022-10-10T05:06	10	1	0.1	0	1	371	0.2	371	372	11.5	97.2
2022-10-10T05:07	10	1	0.1	0	1	372	0.2	371	372	11.5	97.2
2022-10-10T05:08	10	1	0.1	0	1	371	0.2	371	372	11.5	97.2
2022-10-10T05:09	10	1	0.0	0	1	371	0.2	371	372	11.5	97.2
2022-10-10T05:10	10	1	0.1	0	1	371	0.3	371	372	11.5	97.2
2022-10-10T05:11	10	0	0.0	0	1	372	0.2	371	372	11.5	97.2
2022-10-10T05:12	10	1	0.1	0	1	371	0.2	371	372	11.4	97.3
2022-10-10T05:13	10	0	0.1	0	1	371	0.2	371	372	11.4	97.4
2022-10-10T05:14	10	0	0.1	0	1	371	0.2	371	372	11.4	97.5
2022-10-10T05:15	10	0	0.1	0	1	371	0.2	371	372	11.4	97.5
2022-10-10T05:16	10	0	0.1	0	0	371	0.2	371	372	11.4	97.6
2022-10-10T05:17	10	0	0.1	0	1	371	0.2	371	372	11.4	97.6
2022-10-10T05:18	10	0	0.1	0	1	372	0.1	371	372	11.4	97.7
2022-10-10T05:19	10	0	0.1	0	1	371	0.2	371	372	11.5	97.8
2022-10-10T05:20	10	0	0.1	0	0	372	0.2	371	372	11.5	97.8
2022-10-10T05:21	10	0	0.1	0	0	371	0.2	371	372	11.5	97.9
2022-10-10T05:22	10	0	0.1	0	0	371	0.2	371	372	11.5	97.9
2022-10-10T05:23	10	0	0.1	0	0	372	0.3	371	373	11.5	97.9
2022-10-10T05:24	10	0	0.1	0	0	372	0.3	371	372	11.5	97.9
2022-10-10T05:25	10	0	0.0	0	0	371	0.2	371	372	11.5	97.9
2022-10-10T05:26	10	0	0.1	0	0	372	0.2	371	372	11.6	98.0
2022-10-10T05:27	10	0	0.1	0	0	372	0.3	371	372	11.6	98.0
2022-10-10T05:28	10	0	0.1	0	0	372	0.2	371	372	11.6	98.0
2022-10-10T05:29	10	0	0.1	0	0	372	0.2	371	372	11.7	98.0
2022-10-10T05:30	10	0	0.1	0	0	371	0.2	371	372	11.8	97.9
2022-10-10T05:31	10	0	0.1	0	1	371	0.3	371	372	11.7	97.7
2022-10-10T05:32	10	0	0.1	0	1	371	0.2	371	372	11.7	97.6
2022-10-10T05:33	10	0	0.1	0	1	371	0.2	371	372	11.7	97.5
2022-10-10T05:34	10	1	0.0	0	1	371	0.3	370	372	11.7	97.5
2022-10-10T05:35	10	1	0.1	0	1	371	0.2	371	371	11.7	97.4
2022-10-10T05:36	10	1	0.1	1	1	371	0.2	371	372	11.7	97.4
2022-10-10T05:37	10	1	0.1	1	1	371	0.2	371	372	11.7	97.3
2022-10-10T05:38	10	1	0.1	1	1	371	0.2	370	371	11.7	97.3
2022-10-10T05:39	10	1	0.1	1	1	371	0.2	370	371	11.7	97.2
2022-10-10T05:40	10	1	0.1	1	1	371	0.2	371	371	11.7	97.2
2022-10-10T05:41	10	1	0.1	1	1	371	0.2	370	372	11.7	97.2
2022-10-10T05:42	10	1	0.1	1	1	371	0.2	370	371	11.7	97.2
2022-10-10T05:43	10	1	0.1	1	1	371	0.2	371	371	11.7	97.2
2022-10-10T05:44	10	1	0.1	1	1	371	0.3	370	372	11.8	97.1
2022-10-10T05:45	10	1	0.1	1	1	371	0.2	371	371	11.8	97.0
2022-10-10T05:46	10	1	0.1	1	1	371	0.2	371	372	11.8	96.9
2022-10-10T05:47	10	1	0.1	1	1	371	0.2	371	371	11.8	96.8
2022-10-10T05:48	10	1	0.1	1	1	371	0.3	370	371	11.8	96.7
2022-10-10T05:49	10	1	0.1	1	1	371	0.3	370	371	11.8	96.6
2022-10-10T05:50	10	1	0.1	1	1	371	0.2	371	372	11.8	96.6
2022-10-10T05:51	10	1	0.1	1	1	371	0.2	371	372	11.8	96.4
2022-10-10T05:52	10	1	0.1	1	1	371	0.2	370	371	11.8	96.3
2022-10-10T05:53	10	1	0.1	1	1	371	0.2	370	371	11.8	96.2
2022-10-10T05:54	10	1	0.1	1	1	371	0.3	370	371	11.8	96.1
2022-10-10T05:55	10	1	0.0	1	1	371	0.3	370	371	11.8	96.1
2022-10-10T05:56	10	1	0.0	1	1	371	0.3	370	371	11.8	96.1
2022-10-10T05:57	10	1	0.1	1	1	371	0.4	370	372	11.9	96.0
2022-10-10T05:58	10	1	0.1	1	1	371	0.2	371	372	11.9	95.8
2022-10-10T05:59	10	1	0.1	1	1	371	0.3	371	372	11.9	95.7
2022-10-10T06:00	10	1	0.1	1	1	372	0.2	371	372	11.9	95.5
2022-10-10T06:01	10	1	0.1	1	1	372	0.3	371	372	11.9	95.4
2022-10-10T06:02	10	1	0.1	1	1	372	0.3	371	372	11.9	95.4
2022-10-10T06:03	10	1	0.1	1	1	372	0.4	371	373	11.8	95.4
2022-10-10T06:04	10	1	0.1	1	1	372	0.4	371	373	11.8	95.6
2022-10-10T06:05	10	1	0.1	1	1	372	0.2	372	373	11.8	95.8
2022-10-10T06:06	10	1	0.1	1	1	373	0.2	372	373	11.8	95.8
2022-10-10T06:07	10	1	0.1	1	2	372	0.3	371	373	11.8	95.9
2022-10-10T06:08	10	2	0.1	1	2	372	0.2	372	373	11.7	96.0
2022-10-10T06:09	10	2	0.1	2	2	372	0.2	372	373	11.7	96.1
2022-10-10T06:10	10	2	0.1	2	2	372	0.2	372	373	11.7	96.2
2022-10-10T06:11	10	2	0.1	2	2	372	0.3	372	373	11.7	96.2
2022-10-10T06:12	10	2	0.0	2	2	372	0.2	372	373	11.7	96.3
2022-10-10T06:13	10	2	0.1	2	2	372	0.2	371	372	11.7	96.3
2022-10-10T06:14	10	2	0.0	2	2	372	0.2	372	373	11.7	96.3
2022-10-10T06:15	10	2	0.0	2	2	372	0.2	371	372	11.7	96.3
2022-10-10T06:16	10	2	0.0	2	2	372	0.3	371	372	11.7	96.4
2022-10-10T06:17	10	2	0.0	2	2	372	0.3	371	372	11.7	96.4
2022-10-10T06:18	10	2	0.1	2	2	372	0.3	371	372	11.7	96.4
2022-10-10T06:19	10	2	0.1	2	2	372	0.2	371	372	11.7	96.5
2022-10-10T06:20	10	2	0.1	2	2	372	0.2	371	372	11.7	96.5
2022-10-10T06:21	10	3	0.1	2	3	372	0.3	371	372	11.7	96.6
2022-10-10T06:22	10	3	0.1	3	3	372	0.2	372	372	11.7	96.6
2022-10-10T06:23	10	3	0.1	3	3	372	0.2	372	373	11.7	96.6
2022-10-10T06:24	10	3	0.1	3	4	372	0.2	372	373	11.7	96.7
2022-10-10T06:25	10	4	0.1	4	4	372	0.3	372	373	11.7	96.7
2022-10-10T06:26	10	4	0.1	4	4	372	0.2	372	373	11.7	96.7
2022-10-10T06:27	10	4	0.1	4	4	372	0.4	372	373	11.7	96.7
2022-10-10T06:28	10	4	0.1	4	4	372	0.3	372	373	11.8	96.7
2022-10-10T06:29	10	4	0.1	4	4	372	0.2	372	373	11.8	96.7
2022-10-10T06:30	10	4	0.1	4	4	372	0.3	372	373	11.8	96.6
2022-10-10T06:31	10	4	0.1	4	4	372	0.2	372	373	11.8	96.5
2022-10-10T06:32	10	4	0.0	4	4	372	0.2	372	373	11.8	96.4
2022-10-10T06:33	10	4	0.1	4	4	373	0.3	372	374	11.9	96.3
2022-10-10T06:34	10	4	0.1	4	4	372	0.2	372	373	11.9	96.2
2022-10-10T06:35	10	4	0.1	4	4	373	0.3	372	373	11.9	96.2
2022-10-10T06:36	10	4	0.1	4	5	373	0.4	372	374	11.9	96.2
2022-10-10T06:37	10	5	0.1	4	5	373	0.3	373	374	11.8	96.2
2022-10-10T06:38	10	5	0.1	5	5	373	0.4	372	374	11.9	96.2
2022-10-10T06:39	10	5	0.1	5	5	374	0.3	373	374	11.9	96.3
2022-10-10T06:40	10	5	0.1	5	5	373	0.5	372	374	11.8	96.3
2022-10-10T06:41	10	5	0.1	5	5	373	0.4	372	374	11.8	96.3
2022-10-10T06:42	10	5	0.1	5	5	373	0.7	372	374	11.7	96.4
2022-10-10T06:43	10	5	0.1	5	5	373	0.4	372	374	11.7	96.5
2022-10-10T06:44	10	5	0.1	5	5	373	0.3	373	374	11.7	96.5
2022-10-10T06:45	10	5	0.1	5	5	373	0.3	373	374	11.7	96.6
2022-10-10T06:46	10	5	0.1	5	6	373	0.2	373	374	11.7	96.6
2022-10-10T06:47	10	6	0.1	6	6	373	0.3	373	374	11.7	96.7
2022-10-10T06:48	10	6	0.1	6	6	373	0.3	373	374	11.7	96.8
2022-10-10T06:49	10	7	0.2	6	7	373	0.2	373	374	11.7	96.8
2022-10-10T06:50	10	7	0.2	7	8	374	0.2	373	374	11.7	96.8
2022-10-10T06:51	10	8	0.2	7	8	374	0.2	373	374	11.7	96.9
2022-10-10T06:52	10	8	0.1	8	9	374	0.2	373	374	11.8	96.9
2022-10-10T06:53	10	9	0.1	8	9	374	0.2	374	375	11.8	96.9
2022-10-10T06:54	10	9	0.2	9	9	374	0.2	374	375	11.8	96.9
2022-10-10T06:55	10	9	0.2	9	10	375	0.2	374	375	11.8	96.9
2022-10-10T06:56	10	10	0.1	9	10	375	0.2	375	376	11.9	96.8
2022-10-10T06:57	10	10	0.1	10	10	375	0.2	375	376	11.9	96.8
2022-10-10T06:58	10	11	0.1	10	11	376	0.2	375	376	11.9	96.8
2022-10-10T06:59	10	11	0.1	11	11	376	0.2	375	377	11.9	96.8
2022-10-10T07:00	10	11	0.1	11	11	376	0.2	375	377	11.9	96.8
2022-10-10T07:01	10	11	0.1	11	11	377	0.2	376	377	11.9	96.8
2022-10-10T07:02	10	11	0.1	11	12	377	0.2	376	377	11.9	96.8
2022-10-10T07:03	10	12	0.1	11	12	377	0.2	376	377	12.0	96.8
2022-10-10T07:04	10	12	0.1	12	12	377	0.2	376	377	12.0	96.8
2022-10-10T07:05	10	12	0.1	12	12	377	0.2	377	377	12.0	96.8
2022-10-10T07:06	10	12	0.1	12	12	377	0.2	376	377	12.0	96.8
2022-10-10T07:07	10	12	0.1	12	13	377	0.2	376	377	12.0	96.8
2022-10-10T07:08	10	13	0.2	13	13	377	0.2	377	378	12.1	96.8
2022-10-10T07:09	10	13	0.1	13	13	377	0.2	377	378	12.1	96.8
2022-10-10T07:10	10	13	0.2	13	14	377	0.3	377	378	12.1	96.7
2022-10-10T07:11	10	14	0.2	14	14	378	0.2	378	378	12.1	96.6
2022-10-10T07:12	10	15	0.2	14	15	378	0.3	378	379	12.1	96.6
2022-10-10T07:13	10	15	0.2	15	16	379	0.2	378	379	12.2	96.7
2022-10-10T07:14	10	16	0.2	15	16	379	0.2	378	379	12.2	96.7
2022-10-10T07:15	10	16	0.1	16	16	379	0.3	379	380	12.2	96.7
2022-10-10T07:16	10	16	0.2	16	17	379	0.2	379	380	12.3	96.8
2022-10-10T07:17	10	17	0.2	16	17	379	0.2	379	380	12.2	96.7
2022-10-10T07:18	10	17	0.2	16	17	380	0.2	379	380	12.3	96.7
2022-10-10T07:19	10	17	0.1	17	17	380	0.2	380	380	12.3	96.8
2022-10-10T07:20	10	17	0.1	17	17	380	0.2	380	381	12.3	96.7
2022-10-10T07:21	10	18	0.2	17	18	380	0.3	379	381	12.4	96.8
2022-10-10T07:22	10	18	0.2	18	19	380	0.3	380	381	12.3	96.6
2022-10-10T07:23	10	18	0.2	18	19	380	0.2	380	380	12.4	96.5
2022-10-10T07:24	10	19	0.3	19	20	380	0.3	379	381	12.4	96.4
2022-10-10T07:25	10	20	0.3	20	21	380	0.2	380	381	12.4	96.4
2022-10-10T07:26	10	21	0.3	21	22	381	0.2	380	381	12.4	96.4
2022-10-10T07:27	10	22	0.1	22	22	381	0.3	380	381	12.4	96.3
2022-10-10T07:28	10	22	0.1	21	22	381	0.2	381	382	12.4	96.3
2022-10-10T07:29	10	21	0.2	21	21	381	0.2	381	382	12.4	96.3
2022-10-10T07:30	10	21	0.2	20	21	381	0.2	381	382	12.5	96.2
2022-10-10T07:31	10	20	0.1	20	21	382	0.3	381	382	12.5	96.3
2022-10-10T07:32	10	20	0.2	20	21	382	0.3	381	383	12.5	96.3
2022-10-10T07:33	10	20	0.1	20	20	382	0.2	381	382	12.5	96.1
2022-10-10T07:34	10	20	0.1	20	20	381	0.3	381	382	12.5	95.8
2022-10-10T07:35	10	20	0.1	20	20	381	0.4	381	383	12.5	95.3
2022-10-10T07:36	10	20	0.2	20	21	382	0.3	381	382	12.6	95.0
2022-10-10T07:37	10	20	0.2	19	20	381	0.3	381	382	12.5	94.8
2022-10-10T07:38	10	19	0.2	19	20	381	0.3	380	382	12.6	94.6
2022-10-10T07:39	10	20	0.2	19	20	381	0.4	380	382	12.6	94.6
2022-10-10T07:40	10	20	0.2	20	21	381	0.3	381	382	12.6	94.8
2022-10-10T07:41	10	21	0.3	21	22	382	0.3	381	382	12.6	94.7
2022-10-10T07:42	10	22	0.3	22	23	382	0.5	380	383	12.6	94.5
2022-10-10T07:43	10	23	0.3	23	24	382	0.8	381	384	12.6	94.3
2022-10-10T07:44	10	24	0.3	24	25	382	0.7	381	383	12.6	94.2
2022-10-10T07:45	10	25	0.3	25	26	382	0.6	381	384	12.6	94.0
2022-10-10T07:46	10	26	0.3	26	27	382	0.6	381	383	12.6	94.0
2022-10-10T07:47	10	27	0.3	27	28	383	0.4	382	384	12.6	94.2
2022-10-10T07:48	10	28	0.2	28	29	383	0.3	382	383	12.6	94.3
2022-10-10T07:49	10	29	0.2	28	29	383	0.2	382	383	12.5	94.3
2022-10-10T07:50	10	30	0.2	29	30	383	0.4	382	384	12.5	94.3
2022-10-10T07:51	10	30	0.3	30	31	383	0.6	382	385	12.5	94.3
2022-10-10T07:52	10	31	0.3	31	32	384	0.4	383	384	12.5	94.4
2022-10-10T07:53	10	32	0.3	32	32	384	0.4	383	385	12.5	94.4
2022-10-10T07:54	10	32	0.1	32	33	384	0.5	383	385	12.6	94.6
2022-10-10T07:55	10	32	0.2	32	33	384	0.3	384	385	12.6	94.7
2022-10-10T07:56	10	32	0.2	31	32	384	0.6	383	386	12.5	94.7
2022-10-10T07:57	10	31	0.3	31	32	384	0.6	383	386	12.5	94.4
2022-10-10T07:58	10	30	0.3	29	30	384	0.3	384	385	12.6	94.3
2022-10-10T07:59	10	29	0.4	28	30	384	0.3	383	384	12.6	94.1
2022-10-10T08:00	10	28	0.3	27	28	383	0.2	383	384	12.6	93.5
2022-10-10T08:01	10	27	0.2	26	27	383	0.4	383	384	12.6	93.5
2022-10-10T08:02	10	26	0.1	26	27	383	0.2	383	384	12.6	93.4
2022-10-10T08:03	10	30	3.2	27	37	383	0.4	383	384	12.7	93.6
2022-10-10T08:04	10	27	0.3	27	28	384	0.5	383	385	12.7	93.6
2022-10-10T08:05	10	27	0.1	27	27	384	0.4	383	385	12.8	93.8
2022-10-10T08:06	10	28	0.2	27	28	384	0.5	383	385	12.8	93.6
2022-10-10T08:07	10	28	0.2	28	29	384	0.3	383	385	12.8	93.2
2022-10-10T08:08	10	29	0.2	29	29	384	0.6	383	385	12.8	92.8
2022-10-10T08:09	10	29	0.1	29	30	385	0.3	384	385	12.9	92.5
2022-10-10T08:10	10	30	0.1	29	30	385	0.3	385	386	12.9	92.1
2022-10-10T08:11	10	30	0.1	30	30	386	0.2	385	386	12.9	92.3
2022-10-10T08:12	10	30	0.1	30	30	386	0.3	385	386	12.9	92.4
2022-10-10T08:13	10	30	0.1	30	30	386	0.3	385	387	12.9	92.3
2022-10-10T08:14	10	30	0.1	30	31	386	0.5	385	387	12.9	92.6
2022-10-10T08:15	10	31	0.1	30	31	386	0.2	385	387	13.0	92.3
2022-10-10T08:16	10	31	0.1	30	31	387	0.3	386	387	13.0	92.3
2022-10-10T08:17	10	31	0.1	31	31	386	0.3	386	387	13.0	92.3
2022-10-10T08:18	10	31	0.1	31	31	386	0.4	385	387	13.0	91.7
2022-10-10T08:19	10	31	0.1	31	32	386	0.4	385	387	13.1	92.2
2022-10-10T08:20	10	32	0.1	31	32	387	0.4	386	388	13.1	92.4
2022-10-10T08:21	10	32	0.1	32	32	387	0.4	386	387	13.0	92.1
2022-10-10T08:22	10	32	0.2	32	33	387	0.5	386	388	13.0	91.9
2022-10-10T08:23	10	33	0.3	33	34	387	0.4	386	388	13.0	91.6
2022-10-10T08:24	10	34	0.3	34	35	387	0.3	386	388	13.0	91.4
2022-10-10T08:25	10	35	0.3	35	36	387	0.3	386	388	13.1	91.3
2022-10-10T08:26	10	36	0.2	35	36	388	0.4	387	388	13.1	91.5
2022-10-10T08:27	10	36	0.1	36	36	388	0.2	388	389	13.2	91.9
2022-10-10T08:28	10	36	0.1	36	37	389	0.5	387	389	13.2	91.9
2022-10-10T08:29	10	36	0.1	36	37	389	0.5	388	390	13.2	91.5
2022-10-10T08:30	10	37	0.1	36	37	389	0.8	387	390	13.1	91.6
2022-10-10T08:31	10	37	0.1	36	37	389	0.4	388	390	13.1	91.6
2022-10-10T08:32	10	36	0.1	36	37	389	0.7	387	390	13.1	91.1
2022-10-10T08:33	10	36	0.1	36	36	388	0.6	387	389	13.2	90.6
2022-10-10T08:34	10	35	0.1	35	36	389	0.3	388	389	13.2	90.5
2022-10-10T08:35	10	35	0.2	35	35	389	0.4	388	390	13.3	91.2
2022-10-10T08:36	10	35	0.1	34	35	389	0.2	388	389	13.3	91.3
2022-10-10T08:37	10	34	0.1	34	34	389	0.3	388	389	13.3	91.3
2022-10-10T08:38	10	34	0.1	34	34	389	0.3	388	390	13.3	91.3
2022-10-10T08:39	10	34	0.1	33	34	389	0.6	388	390	13.2	91.0
2022-10-10T08:40	10	34	0.1	33	34	389	0.3	388	390	13.2	91.1
2022-10-10T08:41	10	34	0.1	33	34	389	0.3	388	390	13.2	90.6
2022-10-10T08:42	10	34	0.3	34	35	388	0.2	388	389	13.2	89.9
2022-10-10T08:43	10	35	0.4	35	36	389	0.3	388	389	13.3	90.2
2022-10-10T08:44	10	37	0.5	36	38	389	0.2	389	390	13.3	90.0
2022-10-10T08:45	10	39	0.5	38	39	390	0.3	389	390	13.3	89.9
2022-10-10T08:46	10	40	0.6	39	41	390	0.3	390	391	13.4	90.0
2022-10-10T08:47	10	43	1.0	41	45	391	0.5	390	392	13.4	90.5
2022-10-10T08:48	10	45	0.4	44	46	391	0.4	391	392	13.4	90.2
2022-10-10T08:49	10	47	0.6	46	48	392	0.2	392	393	13.4	89.9
2022-10-10T08:50	10	49	0.5	48	49	393	0.3	392	393	13.4	89.8
2022-10-10T08:51	10	50	0.3	49	50	393	0.2	393	394	13.3	90.1
2022-10-10T08:52	10	50	0.1	50	51	393	0.4	393	394	13.4	90.1
2022-10-10T08:53	10	50	0.1	50	51	394	0.3	393	395	13.4	90.5
2022-10-10T08:54	10	51	0.2	50	51	394	0.2	393	394	13.3	90.1
2022-10-10T08:55	10	51	0.4	51	52	394	0.2	394	395	13.3	89.9
2022-10-10T08:56	10	53	0.4	52	54	394	0.2	394	395	13.4	89.7
2022-10-10T08:57	10	53	0.4	52	54	395	0.3	395	396	13.5	89.9
2022-10-10T08:58	10	56	2.6	53	62	396	0.3	395	396	13.6	89.7
2022-10-10T08:59	10	53	0.1	53	54	396	0.2	395	396	13.7	89.7
2022-10-10T09:00	10	53	0.1	53	53	396	0.2	395	396	13.8	90.2
2022-10-10T09:01	10	53	0.1	53	53	396	0.4	395	397	13.8	89.6
2022-10-10T09:02	10	53	0.3	52	53	396	0.2	396	397	13.7	89.1
2022-10-10T09:03	10	52	0.2	52	53	396	0.3	396	397	13.7	88.9
2022-10-10T09:04	10	53	0.3	52	53	396	0.3	395	396	13.7	88.7
2022-10-10T09:05	10	55	0.9	53	57	396	0.2	396	397	13.8	88.8
2022-10-10T09:06	10	58	0.6	57	59	397	0.3	396	397	13.9	88.6
2022-10-10T09:07	10	65	4.5	59	72	398	0.5	397	399	13.8	88.6
2022-10-10T09:08	10	75	7.3	66	89	399	0.5	398	401	13.7	88.5
2022-10-10T09:09	10	70	2.1	66	73	400	0.5	399	401	13.9	88.9
2022-10-10T09:10	10	69	1.4	68	72	400	0.4	399	401	13.9	88.7
2022-10-10T09:11	10	82	12.2	72	114	401	0.8	400	402	13.8	88.1
2022-10-10T09:12	10	101	21.6	76	140	403	2.0	401	407	13.9	87.9
2022-10-10T09:13	10	132	14.1	112	157	408	0.9	405	409	14.1	88.4
2022-10-10T09:14	10	157	13.6	116	170	412	1.6	409	414	14.3	89.1
2022-10-10T09:15	10	117	29.8	84	167	412	2.2	409	415	14.3	89.0
2022-10-10T09:16	10	79	4.4	76	94	407	2.3	404	411	14.3	89.1
2022-10-10T09:17	10	75	2.6	71	80	403	1.5	401	406	13.9	88.5
2022-10-10T09:18	10	68	2.1	66	72	401	0.8	400	403	13.9	88.7
2022-10-10T09:19	10	68	0.5	67	69	401	0.3	400	401	13.9	88.8
2022-10-10T09:20	10	72	2.0	69	75	401	0.4	401	402	13.8	87.9
2022-10-10T09:21	10	76	4.8	73	95	402	0.4	401	403	13.9	87.6
2022-10-10T09:22	10	79	7.6	73	102	403	0.3	402	404	14.0	87.8
2022-10-10T09:23	10	118	21.5	82	149	406	2.6	402	411	14.2	87.9
2022-10-10T09:24	10	135	13.6	120	163	411	1.3	409	413	14.4	87.5
2022-10-10T09:25	10	106	15.4	89	141	411	1.4	408	414	14.5	87.8
2022-10-10T09:26	10	91	2.4	88	98	409	0.5	408	410	14.2	87.1
2022-10-10T09:27	10	86	6.5	79	101	408	2.1	405	411	14.3	87.9
2022-10-10T09:28	10	87	11.7	78	116	407	0.3	406	407	14.2	86.8
2022-10-10T09:29	10	82	2.7	80	89	406	0.3	405	406	14.3	86.7
2022-10-10T09:30	10	82	3.4	78	88	406	0.4	405	407	14.3	87.0
2022-10-10T09:31	10	84	4.4	74	92	406	0.5	405	407	14.3	86.7
2022-10-10T09:32	10	72	1.8	70	77	406	0.6	404	407	14.5	87.5
2022-10-10T09:33	10	73	4.5	69	82	405	0.3	404	405	14.4	86.1
2022-10-10T09:34	10	67	0.8	66	69	405	0.4	404	406	14.5	86.7
2022-10-10T09:35	10	69	1.7	67	73	404	0.3	403	405	14.3	86.1
2022-10-10T09:36	10	72	0.3	72	73	404	0.2	403	404	14.3	86.2
2022-10-10T09:37	10	80	5.1	73	90	404	0.4	404	405	14.4	86.2
2022-10-10T09:38	10	75	0.7	74	76	404	0.7	403	406	14.4	86.6
2022-10-10T09:39	10	75	0.9	74	78	404	0.3	403	404	14.4	87.1
2022-10-10T09:40	10	88	9.6	78	114	405	1.0	403	407	14.4	86.7
2022-10-10T09:41	10	78	2.4	75	83	406	0.4	404	407	14.5	87.0
2022-10-10T09:42	10	82	5.1	78	95	406	0.5	405	406	14.5	86.8
2022-10-10T09:43	10	78	3.3	75	86	405	0.6	404	407	14.5	86.8
2022-10-10T09:44	10	80	2.5	77	86	406	0.5	405	407	14.6	87.0
2022-10-10T09:45	10	77	4.1	74	86	406	1.5	404	408	14.8	87.9
2022-10-10T09:46	10	82	12.5	71	111	405	0.9	404	407	14.5	86.6
2022-10-10T09:47	10	72	8.5	63	88	404	0.9	403	406	14.5	86.8
2022-10-10T09:48	10	62	2.3	57	66	403	0.5	402	404	14.6	87.2
2022-10-10T09:49	10	54	1.3	53	57	401	0.9	400	403	14.5	86.3
2022-10-10T09:50	10	56	2.0	53	60	400	0.6	399	401	14.5	86.3
2022-10-10T09:51	10	91	29.3	56	133	402	2.5	398	406	14.5	86.6
2022-10-10T09:52	10	78	30.5	55	144	402	1.5	400	405	14.4	86.0
2022-10-10T09:53	10	87	35.9	50	144	402	2.5	399	406	14.3	85.5
2022-10-10T09:54	10	113	13.7	89	141	406	1.5	403	409	14.5	85.4
2022-10-10T09:55	10	132	9.7	112	143	409	1.0	408	411	14.7	85.5
2022-10-10T09:56	10	138	0.3	137	138	412	0.4	411	413	14.9	86.0
2022-10-10T09:57	10	138	0.3	137	138	412	0.3	412	413	14.6	84.8
2022-10-10T09:58	10	138	0.2	138	139	413	0.4	412	414	14.8	86.1
2022-10-10T09:59	10	134	4.9	122	139	413	0.6	412	414	14.6	85.5
2022-10-10T10:00	10	136	4.4	128	142	414	0.4	413	415	14.7	86.2
2022-10-10T10:01	10	142	0.8	141	143	415	0.8	413	416	14.9	85.9
2022-10-10T10:02	10	143	0.2	143	143	416	0.4	415	417	15.1	85.9
2022-10-10T10:03	10	142	0.5	141	143	417	0.7	416	418	15.2	86.3
2022-10-10T10:04	10	140	0.5	140	141	416	0.3	416	417	15.0	84.8
2022-10-10T10:05	10	139	0.3	139	140	417	0.3	416	417	14.9	84.6
2022-10-10T10:06	10	138	0.6	137	139	417	0.3	416	417	15.1	85.3
2022-10-10T10:07	10	136	0.4	135	137	417	1.5	415	419	15.4	85.6
2022-10-10T10:08	10	136	0.1	135	136	417	1.2	415	419	15.1	84.8
2022-10-10T10:09	10	136	0.1	136	136	417	0.3	416	417	15.0	84.3
2022-10-10T10:10	10	137	0.3	136	137	417	0.9	415	419	15.1	84.8
2022-10-10T10:11	10	136	0.2	136	137	416	0.3	416	417	14.9	83.9
2022-10-10T10:12	10	136	0.6	134	137	417	0.4	416	418	15.0	84.3
2022-10-10T10:13	10	138	0.9	137	140	417	0.6	416	418	14.9	83.7
2022-10-10T10:14	10	140	0.2	140	141	418	0.6	416	419	15.3	84.2
2022-10-10T10:15	10	139	0.4	139	140	418	0.6	417	420	15.0	83.0
2022-10-10T10:16	10	139	0.2	138	139	419	0.3	418	419	15.3	84.1
2022-10-10T10:17	10	140	0.6	139	141	419	0.3	418	420	15.6	85.2
2022-10-10T10:18	10	141	0.5	140	142	419	0.7	417	420	15.5	84.2
2022-10-10T10:19	10	144	1.3	141	146	420	0.5	419	421	15.7	84.8
2022-10-10T10:20	10	143	3.2	135	146	421	1.0	419	422	15.6	84.0
2022-10-10T10:21	10	148	0.7	146	148	420	0.7	418	421	15.1	82.8
2022-10-10T10:22	10	147	0.3	147	148	420	0.9	418	422	15.3	83.4
2022-10-10T10:23	10	147	0.5	146	147	420	0.3	420	421	15.3	83.6
2022-10-10T10:24	10	145	0.7	144	146	420	0.3	420	421	15.6	83.3
2022-10-10T10:25	10	144	1.9	140	147	421	0.4	420	422	15.7	83.6
2022-10-10T10:26	10	149	0.8	147	150	422	0.4	421	423	15.6	82.4
2022-10-10T10:27	10	146	1.3	144	148	422	0.4	421	422	15.7	81.8
2022-10-10T10:28	10	146	0.9	144	147	421	0.3	421	422	15.9	81.6
2022-10-10T10:29	10	147	0.8	145	148	422	0.4	421	423	16.0	80.8
2022-10-10T10:30	10	134	15.7	109	148	421	1.1	420	423	15.7	81.1
2022-10-10T10:31	10	134	9.7	120	150	421	0.7	420	422	15.7	83.0
2022-10-10T10:32	10	135	13.2	112	149	421	0.7	419	422	15.6	83.1
2022-10-10T10:33	10	149	12.9	118	161	422	1.5	420	425	15.7	83.1
2022-10-10T10:34	10	161	0.9	156	162	425	1.2	422	427	16.1	83.9
2022-10-10T10:35	10	65	27.8	49	154	419	5.3	411	428	16.0	83.8
2022-10-10T10:36	10	84	18.3	58	128	416	1.6	413	419	16.0	83.6
2022-10-10T10:37	10	118	42.4	54	158	420	2.5	416	423	16.1	83.7
2022-10-10T10:38	10	79	24.6	55	135	414	1.1	413	416	15.9	82.3
2022-10-10T10:39	10	159	7.0	136	166	420	2.8	415	425	15.9	82.2
2022-10-10T10:40	10	105	43.5	64	166	421	3.9	415	426	15.9	82.1
2022-10-10T10:41	10	93	22.3	73	138	418	1.5	416	420	15.9	82.3
2022-10-10T10:42	10	80	10.8	68	100	416	0.8	415	418	15.9	82.8
2022-10-10T10:43	10	103	8.0	78	113	417	0.7	416	418	16.2	83.5
2022-10-10T10:44	10	65	2.3	63	75	414	2.7	410	419	16.3	81.4
2022-10-10T10:45	10	66	1.4	64	69	412	0.4	411	413	16.1	81.5
2022-10-10T10:46	10	74	2.5	69	78	412	0.5	411	413	16.1	81.6
2022-10-10T10:47	10	73	3.7	69	79	413	0.5	412	414	16.0	81.6
2022-10-10T10:48	10	78	3.9	70	85	412	0.7	411	414	16.0	81.0
2022-10-10T10:49	10	112	20.2	85	146	416	2.4	412	419	16.1	81.3
2022-10-10T10:50	10	87	17.6	73	123	416	1.5	414	419	16.1	80.6
2022-10-10T10:51	10	65	1.8	64	72	412	2.0	410	415	16.1	80.9
2022-10-10T10:52	10	66	0.7	64	67	411	0.9	409	412	16.0	82.0
2022-10-10T10:53	10	68	1.2	66	71	410	0.4	409	411	15.9	82.8
2022-10-10T10:54	10	72	2.5	69	77	410	0.9	408	411	16.0	83.3
2022-10-10T10:55	10	130	25.2	78	156	416	4.3	409	422	16.1	84.3
2022-10-10T10:56	10	140	30.0	82	165	419	1.4	415	420	15.9	83.2
2022-10-10T10:57	10	108	5.5	91	116	417	0.9	415	418	15.8	83.6
2022-10-10T10:58	10	70	16.4	56	107	414	2.7	410	418	15.8	83.8
2022-10-10T10:59	10	91	30.9	45	143	412	2.6	409	417	15.7	83.4
2022-10-10T11:00	10	38	1.3	37	44	409	2.3	405	414	15.7	83.1
2022-10-10T11:01	10	55	10.7	38	87	408	1.2	406	409	15.9	84.5
2022-10-10T11:02	10	105	13.3	76	124	410	1.9	406	413	15.8	84.1
2022-10-10T11:03	10	133	5.3	119	138	415	1.6	412	417	15.7	83.9
2022-10-10T11:04	10	132	5.0	121	136	417	1.1	415	419	15.8	83.8
2022-10-10T11:05	10	135	0.3	135	136	419	0.7	417	420	15.8	83.9
2022-10-10T11:06	10	135	0.4	134	135	420	0.4	419	421	16.0	83.7
2022-10-10T11:07	10	135	0.2	134	135	419	0.3	419	420	16.1	83.5
2022-10-10T11:08	10	134	0.3	134	135	420	0.9	418	421	16.2	83.5
2022-10-10T11:09	10	135	0.3	134	136	420	0.6	419	422	16.1	82.4
2022-10-10T11:10	10	136	0.3	136	137	422	0.9	420	424	16.2	82.1
2022-10-10T11:11	10	137	0.1	137	137	423	0.6	422	424	16.4	82.9
2022-10-10T11:12	10	137	0.1	136	137	423	0.3	422	424	16.5	82.5
2022-10-10T11:13	10	138	0.5	137	139	423	0.4	422	424	16.4	81.8
2022-10-10T11:14	10	139	0.5	138	140	424	0.4	423	425	16.5	82.3
2022-10-10T11:15	10	140	0.1	140	140	423	0.8	422	425	16.2	81.4
2022-10-10T11:16	10	140	0.2	139	140	424	0.3	423	424	16.3	81.8
2022-10-10T11:17	10	140	0.2	140	140	424	0.8	423	426	16.3	81.1
2022-10-10T11:18	10	141	0.2	140	141	426	0.5	425	427	16.6	82.2
2022-10-10T11:19	10	140	0.1	140	140	425	0.3	425	426	16.3	80.0
2022-10-10T11:20	10	140	0.2	140	141	426	0.4	425	426	16.5	81.0
2022-10-10T11:21	10	139	0.2	139	140	425	0.8	424	427	16.5	80.7
2022-10-10T11:22	10	140	0.4	140	141	425	0.3	425	426	16.6	80.0
2022-10-10T11:23	10	141	0.1	141	141	426	0.5	425	427	16.7	80.1
2022-10-10T11:24	10	141	0.1	141	141	427	0.4	426	428	17.0	80.8
2022-10-10T11:25	10	140	0.4	140	141	428	0.4	427	428	17.0	80.2
2022-10-10T11:26	10	139	0.4	138	140	428	0.8	426	429	16.8	79.4
2022-10-10T11:27	10	138	0.3	138	139	428	0.4	427	429	17.0	80.8
2022-10-10T11:28	10	139	0.3	139	140	429	0.6	428	430	17.3	80.8
2022-10-10T11:29	10	137	1.2	134	139	426	1.8	423	429	16.8	78.7
2022-10-10T11:30	10	134	4.1	125	138	424	0.7	423	425	16.5	79.1
2022-10-10T11:31	10	137	0.4	136	137	426	0.5	425	427	16.7	79.8
2022-10-10T11:32	10	136	0.4	136	137	423	1.1	421	425	16.7	80.2
2022-10-10T11:33	10	136	0.1	136	136	423	1.2	421	425	16.7	79.6
2022-10-10T11:34	10	136	0.1	136	136	426	0.7	424	427	16.8	80.0
2022-10-10T11:35	10	136	0.1	136	136	427	0.4	426	427	17.0	79.7
2022-10-10T11:36	10	136	0.1	135	136	428	0.3	427	428	17.1	79.7
2022-10-10T11:37	10	135	0.1	135	136	429	1.0	427	430	17.5	80.8
2022-10-10T11:38	10	135	0.1	135	136	427	0.9	425	429	17.0	78.4
2022-10-10T11:39	10	135	0.2	135	135	425	0.4	424	425	16.7	77.3
2022-10-10T11:40	10	135	0.1	134	135	424	0.4	424	426	16.8	77.8
2022-10-10T11:41	10	135	0.3	135	136	425	1.5	424	428	16.8	77.8
2022-10-10T11:42	10	137	0.5	136	137	428	0.4	427	428	17.2	80.0
2022-10-10T11:43	10	137	0.1	137	138	426	0.9	425	428	16.9	78.3
2022-10-10T11:44	10	137	0.3	136	137	425	0.3	425	426	16.9	79.3
2022-10-10T11:45	10	136	0.4	135	137	425	0.3	425	426	17.0	79.9
2022-10-10T11:46	10	135	0.1	135	136	426	0.4	426	427	17.0	79.5
2022-10-10T11:47	10	136	0.1	135	136	426	0.3	425	426	17.0	79.8
2022-10-10T11:48	10	136	0.1	135	136	425	0.4	425	426	17.1	80.0
2022-10-10T11:49	10	135	0.2	135	136	426	0.6	425	427	17.0	79.5
2022-10-10T11:50	10	135	0.1	135	135	427	0.3	426	428	17.1	79.5
2022-10-10T11:51	10	135	0.2	135	136	427	0.4	426	428	17.0	78.5
2022-10-10T11:52	10	136	0.1	135	136	426	0.3	425	426	16.9	79.0
2022-10-10T11:53	10	135	0.1	135	136	427	0.6	426	428	16.9	79.0
2022-10-10T11:54	10	135	0.2	134	135	428	0.3	427	428	17.0	79.0
2022-10-10T11:55	10	135	0.2	134	135	428	0.6	427	429	17.3	79.8
2022-10-10T11:56	10	135	0.3	134	135	429	0.7	427	430	17.3	79.2
2022-10-10T11:57	10	136	0.5	135	137	427	0.5	426	428	16.9	78.2
2022-10-10T11:58	10	137	0.2	136	137	427	0.3	427	428	17.0	78.8
2022-10-10T11:59	10	137	0.1	136	137	427	0.3	426	428	17.1	78.8
2022-10-10T12:00	10	136	0.2	136	137	427	0.6	426	428	17.3	79.2
2022-10-10T12:01	10	137	0.3	136	137	428	1.0	426	430	17.4	79.4
2022-10-10T12:02	10	137	0.1	137	137	429	1.0	427	430	17.3	78.2
2022-10-10T12:03	10	137	0.4	136	137	428	0.4	427	429	17.2	77.7
2022-10-10T12:04	10	137	0.2	136	137	427	0.5	426	428	17.1	77.5
2022-10-10T12:05	10	137	0.1	137	137	427	0.3	427	428	17.1	78.1
2022-10-10T12:06	10	137	0.1	137	137	428	0.3	427	429	17.3	78.3
2022-10-10T12:07	10	137	0.2	137	137	429	0.4	428	429	17.5	79.3
2022-10-10T12:08	10	137	0.2	137	138	429	0.2	429	429	17.4	77.4
2022-10-10T12:09	10	138	0.2	138	139	429	0.2	428	429	17.5	76.7
2022-10-10T12:10	10	139	0.1	138	139	429	0.3	428	430	17.7	76.0
2022-10-10T12:11	10	139	0.2	139	139	430	0.5	429	431	17.8	76.0
2022-10-10T12:12	10	139	0.2	139	140	430	0.3	430	431	17.8	77.5
2022-10-10T12:13	10	138	0.1	138	139	430	0.4	429	431	17.7	76.5
2022-10-10T12:14	10	138	0.1	138	138	430	0.3	429	431	17.7	77.3
2022-10-10T12:15	10	138	0.1	138	138	431	0.5	429	431	17.8	77.1
2022-10-10T12:16	10	138	0.2	138	138	431	0.6	430	432	17.8	76.1
2022-10-10T12:17	10	138	0.2	138	139	431	0.7	430	433	17.7	75.6
2022-10-10T12:18	10	138	0.2	138	139	430	0.5	429	431	17.7	76.2
2022-10-10T12:19	10	138	0.1	138	139	431	0.3	430	432	17.8	76.9
2022-10-10T12:20	10	139	0.2	138	139	431	0.7	430	433	18.0	77.3
2022-10-10T12:21	10	138	0.1	138	139	432	0.4	431	433	17.9	76.6
2022-10-10T12:22	10	138	0.2	137	138	432	0.6	430	433	17.8	75.4
2022-10-10T12:23	10	137	0.1	137	138	431	0.3	430	431	17.7	75.0
2022-10-10T12:24	10	137	0.2	136	137	430	0.9	429	431	17.7	75.2
2022-10-10T12:25	10	136	0.1	136	137	429	0.6	428	430	17.8	74.8
2022-10-10T12:26	10	136	0.1	136	136	429	0.3	429	430	17.8	74.1
2022-10-10T12:27	10	136	0.1	136	136	431	1.2	430	434	18.1	75.6
2022-10-10T12:28	10	137	0.2	136	137	431	0.8	430	433	18.2	75.3
2022-10-10T12:29	10	137	0.1	137	137	431	0.4	430	432	18.0	73.6
2022-10-10T12:30	10	136	1.4	133	137	432	1.0	430	433	18.1	73.3
2022-10-10T12:31	10	131	0.8	130	133	431	0.5	431	433	18.5	74.6
2022-10-10T12:32	10	130	1.3	128	132	430	0.3	430	431	18.4	72.6
2022-10-10T12:33	10	127	0.4	126	128	431	0.4	430	432	18.4	72.2
2022-10-10T12:34	10	131	1.7	128	133	430	0.4	429	431	18.3	72.7
2022-10-10T12:35	10	134	0.7	133	135	431	0.5	430	432	18.4	73.8
2022-10-10T12:36	10	136	0.5	135	137	431	0.4	430	432	18.3	73.3
2022-10-10T12:37	10	135	1.4	133	137	432	0.5	431	433	18.4	73.5
2022-10-10T12:38	10	132	0.4	131	133	433	0.8	431	434	18.4	74.4
2022-10-10T12:39	10	131	0.3	131	132	432	0.3	431	432	18.0	74.2
2022-10-10T12:40	10	129	1.2	127	131	431	0.3	430	432	18.0	74.1
2022-10-10T12:41	10	128	1.0	127	130	431	0.3	431	432	18.0	74.1
2022-10-10T12:42	10	126	1.6	123	130	432	0.9	430	434	18.4	75.3
2022-10-10T12:43	10	126	2.7	122	130	432	0.7	431	434	18.5	75.2
2022-10-10T12:44	10	124	1.1	122	126	432	0.3	431	432	18.7	74.1
2022-10-10T12:45	10	124	2.2	119	126	432	0.3	431	432	18.6	71.9
2022-10-10T12:46	10	111	5.4	104	119	431	0.8	429	432	18.7	72.3
2022-10-10T12:47	10	104	2.0	101	108	430	1.7	428	433	19.0	75.2
2022-10-10T12:48	10	106	2.8	100	109	429	0.9	427	431	18.5	74.1
2022-10-10T12:49	10	102	1.0	100	103	427	0.6	426	428	18.2	73.0
2022-10-10T12:50	10	102	0.9	99	103	427	0.5	426	428	18.3	74.2
2022-10-10T12:51	10	99	2.1	96	102	426	0.4	425	427	18.2	72.8
2022-10-10T12:52	10	101	0.9	99	102	425	0.7	424	427	18.2	72.6
2022-10-10T12:53	10	107	2.3	101	110	425	1.3	423	427	18.4	72.8
2022-10-10T12:54	10	103	1.9	101	108	426	0.5	424	427	18.4	72.1
2022-10-10T12:55	10	102	0.9	101	104	426	0.5	425	427	18.5	72.4
2022-10-10T12:56	10	107	1.2	104	109	427	1.0	425	429	18.5	72.3
2022-10-10T12:57	10	105	0.3	104	106	427	0.3	426	428	18.5	71.9
2022-10-10T12:58	10	100	1.6	98	104	426	0.2	426	427	18.6	72.1
2022-10-10T12:59	10	100	1.3	99	103	426	0.2	426	427	18.6	71.9
2022-10-10T13:00	10	98	4.2	90	103	427	1.3	425	429	18.8	73.7
2022-10-10T13:01	10	95	3.9	90	102	427	1.0	425	428	18.6	73.5
2022-10-10T13:02	10	105	0.9	102	107	428	0.5	427	428	18.7	72.7
2022-10-10T13:03	10	111	1.9	107	114	429	0.5	428	429	18.8	71.8
2022-10-10T13:04	10	116	5.0	111	124	430	0.6	429	431	18.9	71.9
2022-10-10T13:05	10	125	1.3	124	127	431	0.4	430	432	19.1	72.1
2022-10-10T13:06	10	125	1.0	124	127	432	0.7	431	433	19.1	72.9
2022-10-10T13:07	10	122	0.7	121	124	432	0.4	431	433	19.1	73.8
2022-10-10T13:08	10	122	0.7	121	123	432	0.5	431	433	19.1	72.5
2022-10-10T13:09	10	117	2.7	113	122	432	1.1	429	433	19.1	73.8
2022-10-10T13:10	10	110	2.0	107	113	432	0.7	430	433	18.7	73.0
2022-10-10T13:11	10	110	2.3	107	113	428	0.5	427	430	18.4	73.3
2022-10-10T13:12	10	113	0.2	112	113	428	0.3	427	429	18.5	73.6
2022-10-10T13:13	10	115	0.6	113	116	427	0.3	426	428	18.5	73.4
2022-10-10T13:14	10	117	1.3	115	120	429	0.5	428	430	18.8	72.6
2022-10-10T13:15	10	123	0.9	120	124	431	1.0	429	433	18.8	72.1
2022-10-10T13:16	10	123	0.5	122	124	431	0.3	431	432	18.9	72.3
2022-10-10T13:17	10	122	0.3	122	123	431	0.2	431	432	19.0	72.1
2022-10-10T13:18	10	121	0.6	120	122	431	0.5	430	432	18.9	72.2
2022-10-10T13:19	10	122	0.7	121	123	430	0.9	428	432	18.7	73.3
2022-10-10T13:20	10	123	0.3	122	123	429	0.5	428	430	18.6	72.9
2022-10-10T13:21	10	123	0.2	123	124	431	0.4	430	431	18.7	73.1
2022-10-10T13:22	10	123	0.4	122	124	431	0.3	431	432	18.7	73.2
2022-10-10T13:23	10	121	0.9	120	122	431	0.5	430	432	18.7	73.2
2022-10-10T13:24	10	120	0.2	120	120	430	0.4	430	431	18.8	73.8
2022-10-10T13:25	10	121	0.2	120	121	431	1.8	427	432	19.0	74.4
2022-10-10T13:26	10	120	0.2	120	121	428	0.9	427	430	18.7	73.2
2022-10-10T13:27	10	119	0.4	118	120	429	0.5	428	430	18.7	73.3
2022-10-10T13:28	10	119	0.1	118	119	430	0.6	429	431	18.8	74.3
2022-10-10T13:29	10	117	0.7	116	118	429	0.4	428	430	19.0	74.3
2022-10-10T13:30	10	118	0.4	117	119	426	1.2	424	428	18.7	73.3
2022-10-10T13:31	10	117	0.3	116	118	425	0.9	424	427	18.6	74.3
2022-10-10T13:32	10	116	0.3	116	117	427	0.3	426	427	18.7	74.7
2022-10-10T13:33	10	116	0.1	116	116	426	0.4	425	427	18.8	75.5
2022-10-10T13:34	10	116	0.1	116	116	426	0.4	425	426	18.4	73.6
2022-10-10T13:35	10	115	0.1	115	116	426	0.5	425	427	18.5	74.6
2022-10-10T13:36	10	114	1.3	111	115	425	0.6	424	426	18.4	73.7
2022-10-10T13:37	10	113	1.1	112	115	426	1.6	424	428	18.5	74.3
2022-10-10T13:38	10	114	0.1	114	114	427	0.6	426	428	18.5	74.2
2022-10-10T13:39	10	114	0.1	113	114	427	0.5	426	428	18.5	74.3
2022-10-10T13:40	10	114	0.2	114	114	427	0.4	425	427	18.5	73.8
2022-10-10T13:41	10	114	0.1	114	115	426	0.3	425	427	18.4	73.4
2022-10-10T13:42	10	114	0.1	114	115	427	0.4	426	428	18.5	73.9
2022-10-10T13:43	10	114	0.1	114	114	427	0.3	426	427	18.6	74.3
2022-10-10T13:44	10	114	0.1	114	114	427	0.4	426	428	18.6	74.7
2022-10-10T13:45	10	114	0.1	114	114	426	0.3	425	427	18.5	74.3
2022-10-10T13:46	10	114	0.1	114	114	425	0.6	424	427	18.5	73.6
2022-10-10T13:47	10	114	0.3	113	115	427	0.6	426	428	18.7	74.4
2022-10-10T13:48	10	111	1.2	109	113	428	0.5	427	429	18.7	73.9
2022-10-10T13:49	10	113	0.3	113	114	428	0.4	427	429	18.8	73.6
2022-10-10T13:50	10	110	2.1	108	114	428	0.3	427	429	18.8	73.3
2022-10-10T13:51	10	107	3.7	102	110	427	0.4	426	428	18.8	73.1
2022-10-10T13:52	10	108	3.1	103	112	427	0.8	426	428	18.9	72.7
2022-10-10T13:53	10	112	0.8	110	113	429	0.6	428	430	19.1	73.8
2022-10-10T13:54	10	107	3.7	100	113	429	0.4	428	429	19.1	72.9
2022-10-10T13:55	10	91	2.7	88	99	428	0.7	426	429	19.3	74.0
2022-10-10T13:56	10	87	1.8	83	89	427	0.9	426	428	19.1	73.6
2022-10-10T13:57	10	89	4.5	76	93	425	0.3	424	426	18.9	72.3
2022-10-10T13:58	10	71	2.4	68	75	423	1.3	421	425	19.0	72.5
2022-10-10T13:59	10	68	1.5	64	70	421	0.8	420	422	18.9	73.5
2022-10-10T14:00	10	68	4.1	61	73	420	0.2	419	421	18.7	74.4
2022-10-10T14:01	10	66	4.8	61	74	419	0.8	418	420	18.8	74.4
2022-10-10T14:02	10	47	10.4	31	62	417	1.1	415	419	18.8	74.6
2022-10-10T14:03	10	27	2.5	24	31	414	1.2	412	416	18.8	74.4
2022-10-10T14:04	10	24	0.8	23	26	412	0.4	412	413	18.7	75.0
2022-10-10T14:05	10	20	1.7	18	23	411	0.5	410	412	18.8	75.3
2022-10-10T14:06	10	17	0.2	17	18	409	0.5	409	410	18.7	74.9
2022-10-10T14:07	10	18	0.9	17	20	409	0.5	408	410	18.6	75.3
2022-10-10T14:08	10	22	1.4	20	25	408	0.5	407	409	18.5	75.3
2022-10-10T14:09	10	32	9.0	24	54	409	1.3	407	412	18.5	76.4
2022-10-10T14:10	10	78	11.4	56	94	414	2.9	409	418	18.6	75.0
2022-10-10T14:11	10	96	3.1	92	105	418	1.2	416	421	18.7	74.8
2022-10-10T14:12	10	106	1.8	104	109	421	0.9	420	423	18.8	75.3
2022-10-10T14:13	10	106	2.0	103	108	422	0.4	422	423	18.8	74.3
2022-10-10T14:14	10	101	1.8	98	103	423	0.3	422	424	18.8	74.3
2022-10-10T14:15	10	106	1.4	104	109	424	0.4	423	424	18.9	74.4
2022-10-10T14:16	10	109	0.8	108	110	424	0.5	423	425	19.0	74.4
2022-10-10T14:17	10	111	0.2	110	111	426	0.6	424	427	19.0	74.9
2022-10-10T14:18	10	111	0.2	111	111	425	0.3	424	426	18.8	73.4
2022-10-10T14:19	10	111	0.1	110	111	425	0.3	424	425	18.8	72.9
2022-10-10T14:20	10	111	0.1	111	111	426	0.5	425	427	19.0	73.7
2022-10-10T14:21	10	111	0.1	111	111	427	0.5	425	427	19.2	74.3
2022-10-10T14:22	10	110	0.4	109	111	425	0.9	423	426	19.1	72.5
2022-10-10T14:23	10	109	0.2	108	109	424	0.5	423	425	19.0	72.6
2022-10-10T14:24	10	108	0.1	108	108	425	1.0	423	426	19.2	73.5
2022-10-10T14:25	10	108	0.4	107	108	425	0.4	425	426	19.1	72.1
2022-10-10T14:26	10	106	0.5	106	107	425	0.3	425	426	19.2	72.0
2022-10-10T14:27	10	99	6.0	87	106	423	1.5	420	426	19.0	71.7
2022-10-10T14:28	10	83	2.0	80	87	421	0.6	420	422	19.1	73.1
2022-10-10T14:29	10	79	1.8	76	83	420	0.8	419	421	19.1	72.8
2022-10-10T14:30	10	86	1.6	83	89	419	0.6	418	421	18.9	71.5
2022-10-10T14:31	10	84	0.9	83	86	420	0.4	419	421	19.1	72.7
2022-10-10T14:32	10	76	6.9	64	85	419	0.9	417	420	19.0	71.6
2022-10-10T14:33	10	81	3.4	75	85	418	0.4	417	419	19.0	71.9
2022-10-10T14:34	10	87	6.3	74	93	419	1.2	417	421	19.0	72.5
2022-10-10T14:35	10	79	5.7	72	88	419	0.4	418	420	19.0	71.1
2022-10-10T14:36	10	75	1.5	72	76	419	0.3	418	419	19.1	72.4
2022-10-10T14:37	10	72	1.3	69	74	418	0.4	417	419	19.0	71.9
2022-10-10T14:38	10	68	0.7	67	69	417	0.3	417	418	19.1	72.3
2022-10-10T14:39	10	65	3.1	61	68	417	0.3	416	417	19.0	71.4
2022-10-10T14:40	10	56	2.9	51	62	415	0.6	414	416	19.0	71.0
2022-10-10T14:41	10	48	1.2	47	51	414	0.3	413	415	19.0	70.9
2022-10-10T14:42	10	48	0.8	46	49	413	0.4	412	414	18.9	70.9
2022-10-10T14:43	10	47	1.7	44	49	413	0.3	413	414	19.0	71.3
2022-10-10T14:44	10	51	2.2	45	53	413	0.3	412	414	19.0	71.3
2022-10-10T14:45	10	56	3.8	50	60	413	0.9	412	414	18.9	70.8
2022-10-10T14:46	10	47	8.1	35	59	414	0.3	413	415	19.0	71.6
2022-10-10T14:47	10	38	3.0	35	45	412	0.3	412	413	19.1	73.0
2022-10-10T14:48	10	54	4.6	45	62	413	0.9	411	415	19.0	72.7
2022-10-10T14:49	10	58	4.9	50	64	414	0.5	413	415	19.1	73.2
2022-10-10T14:50	10	51	0.7	50	52	414	0.3	413	414	19.0	73.6
2022-10-10T14:51	10	49	2.1	47	56	413	0.5	412	414	19.0	72.7
2022-10-10T14:52	10	74	8.1	56	81	415	1.5	412	417	19.1	73.4
2022-10-10T14:53	10	82	3.7	78	89	416	0.4	416	417	19.0	72.9
2022-10-10T14:54	10	92	1.2	89	93	417	0.4	416	418	19.0	72.3
2022-10-10T14:55	10	92	0.8	90	93	418	0.3	417	418	19.0	72.0
2022-10-10T14:56	10	75	9.5	61	90	417	0.5	416	418	19.1	72.1
2022-10-10T14:57	10	54	8.2	36	61	416	0.9	413	417	19.1	73.1
2022-10-10T14:58	10	38	2.0	34	40	412	1.0	411	415	19.0	72.3
2022-10-10T14:59	10	34	0.7	33	36	411	0.8	410	412	19.0	72.2
2022-10-10T15:00	10	39	3.0	34	42	410	0.3	409	410	19.0	72.1
2022-10-10T15:01	10	52	7.0	42	62	411	0.9	409	412	19.0	71.9
2022-10-10T15:02	10	67	1.6	62	68	413	0.3	412	413	19.0	72.2
2022-10-10T15:03	10	68	0.7	67	69	414	0.6	413	415	19.0	73.0
2022-10-10T15:04	10	65	2.5	62	69	413	0.6	412	414	18.9	73.4
2022-10-10T15:05	10	61	0.3	60	62	412	0.3	412	413	18.8	72.6
2022-10-10T15:06	10	55	3.8	48	60	411	0.6	410	413	18.8	72.9
2022-10-10T15:07	10	46	1.1	44	48	411	0.4	410	412	18.9	73.2
2022-10-10T15:08	10	45	1.8	43	49	410	0.3	409	411	18.9	73.8
2022-10-10T15:09	10	51	0.8	49	53	410	0.3	409	411	18.9	73.9
2022-10-10T15:10	10	61	3.7	53	67	411	0.5	410	411	18.9	73.8
2022-10-10T15:11	10	69	1.4	67	71	411	0.5	410	412	18.9	73.9
2022-10-10T15:12	10	70	0.4	69	71	412	0.5	411	413	18.8	73.6
2022-10-10T15:13	10	72	1.1	70	74	412	0.5	411	413	18.8	73.6
2022-10-10T15:14	10	73	0.8	71	74	412	0.2	412	413	18.8	73.1
2022-10-10T15:15	10	63	3.9	57	70	412	0.3	411	413	18.8	73.2
2022-10-10T15:16	10	51	3.5	45	57	411	0.7	409	412	18.8	72.8
2022-10-10T15:17	10	44	1.3	42	47	409	0.4	408	410	18.8	72.9
2022-10-10T15:18	10	52	2.0	47	55	409	0.4	408	410	18.8	73.2
2022-10-10T15:19	10	56	1.0	55	57	410	0.3	409	410	18.8	72.5
2022-10-10T15:20	10	58	2.1	56	62	410	0.3	409	411	18.8	72.8
2022-10-10T15:21	10	66	2.2	62	69	411	0.5	410	413	18.9	72.4
2022-10-10T15:22	10	72	1.1	69	73	412	0.3	411	413	18.9	72.3
2022-10-10T15:23	10	73	0.7	70	74	413	0.2	412	413	18.9	72.5
2022-10-10T15:24	10	69	1.5	67	72	412	0.2	412	413	18.9	73.1
2022-10-10T15:25	10	71	1.2	68	72	413	0.2	412	413	18.9	72.4
2022-10-10T15:26	10	63	3.5	56	68	412	0.5	411	413	18.9	72.3
2022-10-10T15:27	10	60	4.0	55	66	411	0.2	411	412	18.9	72.4
2022-10-10T15:28	10	63	1.5	61	66	411	0.2	411	412	18.9	73.0
2022-10-10T15:29	10	51	6.0	42	61	411	1.8	408	413	19.0	75.4
2022-10-10T15:30	10	34	4.7	24	42	409	0.7	407	410	19.0	74.2
2022-10-10T15:31	10	17	2.3	15	24	406	1.2	404	409	18.9	73.1
2022-10-10T15:32	10	20	2.4	16	23	405	0.5	404	405	19.0	72.7
2022-10-10T15:33	10	23	0.2	23	24	404	0.2	404	405	18.9	73.3
2022-10-10T15:34	10	28	3.4	24	35	404	0.3	404	405	18.9	73.9
2022-10-10T15:35	10	44	3.8	35	47	406	0.7	404	407	18.8	74.4
2022-10-10T15:36	10	42	1.8	40	46	406	0.3	406	407	18.8	74.6
2022-10-10T15:37	10	39	2.0	37	42	406	0.3	405	407	18.8	74.6
2022-10-10T15:38	10	39	0.7	37	40	406	0.2	405	406	18.8	73.0
2022-10-10T15:39	10	44	2.7	40	49	405	0.3	404	406	18.8	73.3
2022-10-10T15:40	10	48	1.3	46	50	406	0.3	405	406	18.8	73.4
2022-10-10T15:41	10	50	1.9	47	53	406	0.3	405	407	18.8	73.1
2022-10-10T15:42	10	52	0.8	51	53	406	0.2	406	407	18.8	73.0
2022-10-10T15:43	10	49	1.1	47	51	406	0.3	406	407	18.7	73.7
2022-10-10T15:44	10	36	8.9	24	49	405	0.9	403	406	18.7	73.8
2022-10-10T15:45	10	17	4.1	11	24	403	1.0	401	405	18.6	74.5
2022-10-10T15:46	10	9	0.5	9	11	401	0.5	400	402	18.6	73.8
2022-10-10T15:47	10	9	0.2	8	9	399	0.5	398	400	18.6	73.8
2022-10-10T15:48	10	8	0.2	8	8	398	0.3	398	399	18.6	74.0
2022-10-10T15:49	10	7	0.2	7	8	397	0.2	397	398	18.5	73.7
2022-10-10T15:50	10	7	0.1	7	7	397	0.3	396	397	18.5	73.9
2022-10-10T15:51	10	7	0.1	7	7	396	0.3	395	397	18.5	74.4
2022-10-10T15:52	10	7	0.1	6	7	395	0.3	394	396	18.4	75.3
2022-10-10T15:53	10	6	0.1	6	7	394	0.2	394	395	18.5	74.8
2022-10-10T15:54	10	6	0.1	6	6	394	0.2	393	394	18.4	75.0
2022-10-10T15:55	10	6	0.1	6	6	393	0.2	393	394	18.4	75.1
2022-10-10T15:56	10	6	0.1	5	6	393	0.2	393	394	18.4	75.0
2022-10-10T15:57	10	5	0.1	5	6	393	0.2	392	393	18.4	75.0
2022-10-10T15:58	10	5	0.1	5	5	393	0.2	392	393	18.4	75.5
2022-10-10T15:59	10	5	0.1	5	5	392	0.2	392	393	18.4	75.7
2022-10-10T16:00	10	5	0.1	5	5	392	0.2	391	392	18.3	75.8
2022-10-10T16:01	10	5	0.1	5	5	391	0.3	391	392	18.2	76.5
2022-10-10T16:02	10	5	0.1	4	5	391	0.2	390	391	18.2	77.0
2022-10-10T16:03	10	4	0.1	4	5	390	0.2	390	391	18.2	76.5
2022-10-10T16:04	10	4	0.1	4	4	390	0.2	389	390	18.2	76.4
2022-10-10T16:05	10	4	0.1	4	4	389	0.3	389	390	18.2	77.0
2022-10-10T16:06	10	4	0.1	4	4	389	0.2	388	389	18.2	76.9
2022-10-10T16:07	10	4	0.1	4	4	388	0.2	388	389	18.1	77.5
2022-10-10T16:08	10	4	0.1	3	4	389	0.4	388	389	18.0	78.1
2022-10-10T16:09	10	3	0.1	3	4	388	0.2	388	389	17.8	79.0
2022-10-10T16:10	10	3	0.1	3	3	388	0.2	388	389	17.8	79.1
2022-10-10T16:11	10	3	0.1	3	3	388	0.2	387	388	17.8	79.2
2022-10-10T16:12	10	3	0.1	3	3	388	0.2	387	388	17.8	79.8
2022-10-10T16:13	10	3	0.1	3	3	387	0.2	386	387	17.8	80.0
2022-10-10T16:14	10	3	0.1	2	3	387	0.3	386	387	17.7	80.7
2022-10-10T16:15	10	3	0.1	2	3	386	0.2	386	387	17.7	81.0
2022-10-10T16:16	10	3	0.2	2	3	387	0.3	386	387	17.9	80.2
2022-10-10T16:17	10	3	0.1	2	3	387	0.2	386	387	17.9	79.6
2022-10-10T16:18	10	2	0.2	2	3	387	0.3	386	387	18.0	79.3
2022-10-10T16:19	10	2	0.2	2	3	386	0.3	385	387	18.0	78.8
2022-10-10T16:20	10	2	0.2	2	3	385	0.2	385	386	18.0	78.4
2022-10-10T16:21	10	2	0.2	2	3	385	0.3	384	386	18.0	77.8
2022-10-10T16:22	10	2	0.1	2	2	385	0.2	384	385	18.0	77.6
2022-10-10T16:23	10	2	0.1	2	2	385	0.2	384	385	18.0	77.2
2022-10-10T16:24	10	3	0.1	3	3	385	0.2	385	386	18.0	77.5
2022-10-10T16:25	10	3	0.1	3	3	385	0.2	384	385	18.0	77.3
2022-10-10T16:26	10	3	0.1	3	3	384	0.2	384	385	17.9	77.6
2022-10-10T16:27	10	3	0.1	3	3	384	0.2	384	384	17.5	79.6
2022-10-10T16:28	10	3	0.1	3	3	384	0.2	383	384	17.3	81.6
2022-10-10T16:29	10	3	0.1	3	3	383	0.2	383	384	17.2	83.3
2022-10-10T16:30	10	3	0.1	2	3	384	0.3	383	384	17.1	84.6
2022-10-10T16:31	10	2	0.1	2	3	384	0.2	384	384	17.0	85.1
2022-10-10T16:32	10	2	0.1	2	3	384	0.3	384	385	17.0	85.3
2022-10-10T16:33	10	3	0.1	2	3	384	0.3	383	385	16.9	85.4
2022-10-10T16:34	10	2	0.1	2	2	384	0.3	383	384	16.7	86.0
2022-10-10T16:35	10	2	0.1	2	2	384	0.4	383	385	16.8	86.0
2022-10-10T16:36	10	2	0.1	2	2	383	0.3	383	384	16.8	85.1
2022-10-10T16:37	10	2	0.1	2	2	383	0.3	382	384	16.7	85.4
2022-10-10T16:38	10	2	0.1	2	2	383	0.3	382	384	16.7	85.4
2022-10-10T16:39	10	2	0.1	2	2	383	0.3	382	383	16.8	84.5
2022-10-10T16:40	10	2	0.1	2	2	382	0.2	382	383	16.8	84.7
2022-10-10T16:41	10	2	0.1	2	2	382	0.2	382	383	16.7	85.2
2022-10-10T16:42	10	2	0.1	1	2	382	0.3	381	382	16.8	84.5
2022-10-10T16:43	10	2	0.1	1	2	381	0.2	381	382	16.7	84.7
2022-10-10T16:44	10	1	0.1	1	2	381	0.3	381	382	16.6	85.2
2022-10-10T16:45	10	1	0.1	1	1	382	0.2	381	382	16.7	84.7
2022-10-10T16:46	10	1	0.1	1	1	382	0.3	381	382	16.9	83.1
2022-10-10T16:47	10	1	0.1	1	1	382	0.2	381	382	17.0	82.5
2022-10-10T16:48	10	1	0.1	1	1	382	0.3	381	382	17.0	82.5
2022-10-10T16:49	10	1	0.1	1	1	382	0.2	381	383	17.0	82.7
2022-10-10T16:50	10	1	0.1	1	1	382	0.2	382	383	17.0	82.6
2022-10-10T16:51	10	1	0.1	1	1	382	0.2	382	382	16.9	82.6
2022-10-10T16:52	10	1	0.1	1	1	382	0.2	382	383	16.8	83.2
2022-10-10T16:53	10	1	0.1	1	1	382	0.2	382	383	16.7	84.1
2022-10-10T16:54	10	1	0.1	1	1	382	0.3	381	382	16.6	84.2
2022-10-10T16:55	10	1	0.1	0	1	381	0.3	381	382	16.6	84.1
2022-10-10T16:56	10	1	0.2	0	1	382	0.2	381	382	16.5	85.0
2022-10-10T16:57	10	0	0.2	0	1	382	0.3	381	382	16.7	84.5
2022-10-10T16:58	10	1	0.2	0	1	381	0.3	381	382	16.9	83.5
2022-10-10T16:59	10	0	0.1	0	1	381	0.3	380	381	16.8	83.4
2022-10-10T17:00	10	1	0.2	0	1	381	0.2	380	381	16.9	83.2
2022-10-10T17:01	10	1	0.2	0	1	380	0.2	380	381	16.8	83.6
2022-10-10T17:02	10	1	0.2	0	1	380	0.3	379	380	16.8	83.7
2022-10-10T17:03	10	1	0.2	0	1	379	0.3	378	380	16.8	83.7
2022-10-10T17:04	10	1	0.1	0	1	379	0.2	378	379	16.8	83.8
2022-10-10T17:05	10	1	0.1	0	1	378	0.3	378	379	16.8	83.9
2022-10-10T17:06	10	1	0.1	0	1	378	0.3	378	379	16.8	83.9
2022-10-10T17:07	10	1	0.1	0	1	378	0.2	377	378	16.7	84.1
2022-10-10T17:08	10	1	0.1	0	1	377	0.5	376	378	16.6	84.2
2022-10-10T17:09	10	0	0.1	0	1	377	0.4	377	379	16.2	85.6
2022-10-10T17:10	10	0	0.1	0	0	378	0.3	377	379	16.7	85.7
2022-10-10T17:11	10	0	0.1	0	0	377	0.3	377	378	16.6	85.1
2022-10-10T17:12	10	0	0.1	0	0	377	0.2	376	377	16.4	85.4
2022-10-10T17:13	10	0	0.1	0	0	376	0.2	375	376	16.1	85.9
2022-10-10T17:14	10	0	0.1	0	1	376	0.3	375	376	16.0	86.6
2022-10-10T17:15	10	0	0.0	0	0	375	0.2	375	376	15.9	87.0
2022-10-10T17:16	10	0	0.1	0	1	376	0.4	376	377	15.8	87.5
2022-10-10T17:17	10	0	0.1	0	1	377	0.3	376	378	15.8	88.0
2022-10-10T17:18	10	0	0.1	0	1	378	0.5	377	379	15.8	88.3
2022-10-10T17:19	10	0	0.1	0	1	379	0.2	378	379	15.8	88.4
2022-10-10T17:20	10	0	0.1	0	1	379	0.3	378	379	15.8	88.7
2022-10-10T17:21	10	0	0.1	0	1	379	0.2	379	380	15.7	89.6
2022-10-10T17:22	10	0	0.1	0	1	379	0.3	379	380	15.7	90.4
2022-10-10T17:23	10	0	0.1	0	1	380	0.2	380	381	15.7	90.9
2022-10-10T17:24	10	0	0.1	0	1	380	0.2	380	381	15.8	91.0
2022-10-10T17:25	10	0	0.1	0	1	379	0.2	379	380	15.6	90.8
2022-10-10T17:26	10	0	0.1	0	1	379	0.2	378	379	15.5	90.8
2022-10-10T17:27	10	0	0.1	0	1	379	0.3	378	379	15.5	91.1
2022-10-10T17:28	10	0	0.1	0	1	379	0.3	378	379	15.5	91.4
2022-10-10T17:29	10	0	0.1	0	1	379	0.3	378	379	15.6	91.7
2022-10-10T17:30	10	1	0.1	0	1	378	0.2	378	378	15.5	91.3
2022-10-10T17:31	10	1	0.1	0	1	378	0.3	377	378	15.4	91.5
2022-10-10T17:32	10	1	0.1	0	1	378	0.2	378	378	15.6	91.9
2022-10-10T17:33	10	1	0.1	0	1	378	0.3	378	379	15.6	91.8
2022-10-10T17:34	10	0	0.1	0	1	379	0.4	378	379	15.6	91.1
2022-10-10T17:35	10	0	0.1	0	1	379	0.2	379	380	15.7	90.7
2022-10-10T17:36	10	0	0.1	0	1	380	0.3	379	380	15.8	90.6
2022-10-10T17:37	10	0	0.1	0	0	379	0.2	379	380	15.6	90.6
2022-10-10T17:38	10	0	0.1	0	1	379	0.2	379	379	15.6	90.3
2022-10-10T17:39	10	0	0.1	0	1	378	0.2	378	379	15.4	90.1
2022-10-10T17:40	10	0	0.0	0	0	378	0.3	377	379	15.4	90.5
2022-10-10T17:41	10	0	0.1	0	0	377	0.2	377	378	15.4	90.8
2022-10-10T17:42	10	0	0.1	0	1	377	0.2	377	378	15.6	90.8
2022-10-10T17:43	10	0	0.1	0	1	377	0.2	377	378	15.7	90.3
2022-10-10T17:44	10	1	0.1	0	1	377	0.2	377	378	15.7	89.9
2022-10-10T17:45	10	1	0.1	0	1	377	0.3	376	378	15.7	89.6
2022-10-10T17:46	10	1	0.1	0	1	376	0.3	375	377	15.7	89.5
2022-10-10T17:47	10	1	0.1	1	1	376	0.2	375	376	15.5	89.6
2022-10-10T17:48	10	1	0.0	1	1	375	0.3	374	376	15.3	90.1
2022-10-10T17:49	10	1	0.1	1	1	375	0.2	374	375	15.3	91.1
2022-10-10T17:50	10	1	0.1	1	1	375	0.3	374	375	15.5	91.1
2022-10-10T17:51	10	1	0.1	1	1	375	0.3	374	376	15.6	90.4
2022-10-10T17:52	10	1	0.1	1	1	375	0.2	375	376	15.5	90.4
2022-10-10T17:53	10	1	0.1	1	1	375	0.2	374	375	15.4	90.8
2022-10-10T17:54	10	1	0.1	0	1	374	0.2	374	375	15.4	90.8
2022-10-10T17:55	10	1	0.1	0	1	374	0.2	374	375	15.4	91.1
2022-10-10T17:56	10	1	0.1	1	1	375	0.3	374	375	15.4	91.5
2022-10-10T17:57	10	1	0.2	0	1	375	0.2	375	375	15.4	91.4
2022-10-10T17:58	10	1	0.2	0	1	374	0.3	374	375	15.3	91.5
2022-10-10T17:59	10	1	0.1	0	1	374	0.3	373	374	15.1	91.7
2022-10-10T18:00	10	1	0.1	0	1	374	0.2	373	374	14.9	92.7
2022-10-10T18:01	10	0	0.2	0	1	374	0.2	373	374	14.9	93.1
2022-10-10T18:02	10	1	0.1	0	1	373	0.3	373	374	14.9	93.2
2022-10-10T18:03	10	1	0.1	0	1	373	0.3	372	373	14.8	93.1
2022-10-10T18:04	10	1	0.1	0	1	372	0.2	372	373	14.7	93.1
2022-10-10T18:05	10	1	0.1	0	1	372	0.2	371	372	14.6	93.2
2022-10-10T18:06	10	1	0.1	0	1	372	0.2	371	372	14.6	93.2
2022-10-10T18:07	10	1	0.1	0	1	372	0.3	371	372	14.6	93.0
2022-10-10T18:08	10	0	0.1	0	1	372	0.4	371	373	14.9	92.9
2022-10-10T18:09	10	0	0.1	0	1	372	0.2	372	373	15.0	92.2
2022-10-10T18:10	10	0	0.1	0	1	372	0.2	371	373	14.9	91.7
2022-10-10T18:11	10	0	0.1	0	1	372	0.2	372	373	14.8	91.9
2022-10-10T18:12	10	1	0.1	0	1	372	0.3	372	373	14.9	92.1
2022-10-10T18:13	10	1	0.1	0	1	372	0.3	371	372	14.7	91.7
2022-10-10T18:14	10	1	0.0	1	1	371	0.2	371	372	14.5	92.2
2022-10-10T18:15	10	1	0.1	1	1	371	0.3	371	372	14.4	93.0
2022-10-10T18:16	10	1	0.0	1	1	371	0.2	370	371	14.4	93.2
2022-10-10T18:17	10	1	0.1	1	1	371	0.2	370	371	14.4	93.4
2022-10-10T18:18	10	1	0.1	0	1	370	0.2	370	371	14.5	93.7
2022-10-10T18:19	10	1	0.1	0	1	370	0.2	370	371	14.6	93.9
2022-10-10T18:20	10	1	0.1	0	1	371	0.3	371	372	14.8	94.0
2022-10-10T18:21	10	0	0.1	0	1	372	0.2	371	372	14.7	93.7
2022-10-10T18:22	10	0	0.1	0	1	372	0.2	371	372	14.5	93.6
2022-10-10T18:23	10	0	0.1	0	0	372	0.2	371	372	14.6	93.9
2022-10-10T18:24	10	0	0.1	0	0	372	0.3	372	373	14.6	93.6
2022-10-10T18:25	10	0	0.1	0	0	372	0.3	372	373	14.4	93.4
2022-10-10T18:26	10	0	0.1	0	0	372	0.2	371	372	14.2	93.4
2022-10-10T18:27	10	0	0.1	0	0	372	0.2	371	372	14.2	93.8
2022-10-10T18:28	10	0	0.1	0	0	372	0.3	372	373	14.1	93.9
2022-10-10T18:29	10	0	0.1	0	0	372	0.3	371	373	14.2	94.3
2022-10-10T18:30	10	0	0.1	0	0	372	0.4	371	373	14.3	94.3
2022-10-10T18:31	10	0	0.1	0	0	373	0.3	372	374	14.2	94.0
2022-10-10T18:32	10	0	0.1	0	0	373	0.2	373	374	14.2	93.9
2022-10-10T18:33	10	0	0.1	0	0	373	0.2	373	374	14.2	93.6
2022-10-10T18:34	10	0	0.1	-1	0	373	0.2	373	374	14.0	93.6
2022-10-10T18:35	10	0	0.1	-1	0	372	0.2	372	373	13.8	93.8
2022-10-10T18:36	10	0	0.1	-1	0	372	0.4	372	373	13.8	94.0
2022-10-10T18:37	10	0	0.1	0	0	372	0.2	372	372	14.1	94.5
2022-10-10T18:38	10	0	0.1	0	0	372	0.3	371	373	14.2	94.3
2022-10-10T18:39	10	0	0.1	0	0	372	0.3	371	373	14.3	94.0
2022-10-10T18:40	10	0	0.1	0	1	372	0.2	371	372	14.3	93.2
2022-10-10T18:41	10	0	0.1	0	1	371	0.3	371	372	14.1	93.2
2022-10-10T18:42	10	0	0.1	0	1	371	0.2	370	371	13.9	93.3
2022-10-10T18:43	10	0	0.1	0	1	370	0.3	369	370	13.7	93.6
2022-10-10T18:44	10	0	0.1	0	1	369	0.3	368	370	13.6	93.8
2022-10-10T18:45	10	0	0.1	0	0	369	0.2	369	370	13.8	94.3
2022-10-10T18:46	10	0	0.1	0	0	369	0.2	368	370	13.9	94.4
2022-10-10T18:47	10	0	0.1	0	0	370	0.4	369	370	14.1	94.3
2022-10-10T18:48	10	0	0.1	0	0	370	0.3	370	371	14.2	93.7
2022-10-10T18:49	10	0	0.1	0	0	370	0.3	369	370	14.1	93.1
2022-10-10T18:50	10	0	0.1	0	0	369	0.2	369	369	14.0	93.2
2022-10-10T18:51	10	0	0.1	0	0	368	0.2	368	369	13.8	93.3
2022-10-10T18:52	10	0	0.1	0	1	368	0.2	367	368	13.8	93.7
2022-10-10T18:53	10	0	0.1	0	0	368	0.2	368	369	13.9	94.4
2022-10-10T18:54	10	0	0.1	0	1	369	0.4	368	370	14.2	94.6
2022-10-10T18:55	10	0	0.1	0	0	370	0.3	369	370	14.4	94.1
2022-10-10T18:56	10	0	0.1	0	0	370	0.3	370	371	14.5	93.5
2022-10-10T18:57	10	0	0.1	0	1	370	0.2	370	371	14.5	92.6
2022-10-10T18:58	10	0	0.1	0	0	370	0.2	370	370	14.4	92.0
2022-10-10T18:59	10	0	0.1	0	1	370	0.4	369	371	14.3	91.8
2022-10-10T19:00	10	0	0.1	0	0	371	0.2	370	371	14.2	92.0
2022-10-10T19:01	10	0	0.1	0	1	370	0.2	370	371	14.1	92.0
2022-10-10T19:02	10	0	0.1	0	1	370	0.2	369	371	14.1	92.1
2022-10-10T19:03	10	0	0.1	0	1	370	0.3	370	371	14.3	91.6
2022-10-10T19:04	10	1	0.1	0	1	371	0.2	370	371	14.4	90.4
2022-10-10T19:05	10	0	0.1	0	1	371	0.2	370	371	14.3	90.0
2022-10-10T19:06	10	0	0.1	0	1	371	0.3	370	371	14.2	90.2
2022-10-10T19:07	10	0	0.1	0	1	372	0.3	371	372	14.2	90.5
2022-10-10T19:08	10	0	0.1	0	1	371	0.3	371	372	14.2	90.7
2022-10-10T19:09	10	0	0.1	0	1	372	0.3	371	372	14.1	90.9
2022-10-10T19:10	10	0	0.1	0	1	371	0.2	371	372	14.0	91.3
2022-10-10T19:11	10	1	0.1	0	1	372	0.5	371	373	13.9	91.8
2022-10-10T19:12	10	0	0.1	0	1	372	0.3	372	373	13.9	92.1
2022-10-10T19:13	10	0	0.1	0	1	373	0.3	372	373	13.9	92.4
2022-10-10T19:14	10	0	0.1	0	0	372	0.3	372	373	13.7	92.6
2022-10-10T19:15	10	0	0.1	0	0	372	0.2	372	373	13.8	92.8
2022-10-10T19:16	10	0	0.1	0	1	372	0.3	371	373	13.7	92.7
2022-10-10T19:17	10	0	0.1	0	0	372	0.2	371	372	13.7	93.1
2022-10-10T19:18	10	0	0.1	0	0	371	0.2	371	372	13.6	93.3
2022-10-10T19:19	10	0	0.1	0	0	371	0.2	371	372	13.6	93.5
2022-10-10T19:20	10	0	0.1	-1	0	371	0.2	371	372	13.7	93.7
2022-10-10T19:21	10	0	0.1	0	0	371	0.3	371	372	13.7	93.6
2022-10-10T19:22	10	0	0.1	0	0	371	0.2	370	371	13.7	93.6
2022-10-10T19:23	10	0	0.1	-1	0	371	0.3	370	372	13.7	93.6
2022-10-10T19:24	10	0	0.1	0	0	370	0.4	369	371	13.6	93.8
2022-10-10T19:25	10	0	0.1	0	0	369	0.4	369	370	13.6	94.0
2022-10-10T19:26	10	0	0.1	0	0	368	0.4	367	369	13.6	94.2
2022-10-10T19:27	10	0	0.1	0	0	368	0.3	367	369	13.5	94.2
2022-10-10T19:28	10	0	0.1	-1	0	368	0.2	367	368	13.5	94.4
2022-10-10T19:29	10	0	0.1	0	0	368	0.2	367	368	13.6	94.6
2022-10-10T19:30	10	0	0.2	0	1	368	0.3	367	368	13.6	94.3
2022-10-10T19:31	10	0	0.1	0	0	367	0.4	367	368	13.5	93.8
2022-10-10T19:32	10	0	0.2	0	0	368	0.4	367	368	13.6	93.4
2022-10-10T19:33	10	0	0.2	0	1	367	0.3	367	368	13.6	92.9
2022-10-10T19:34	10	0	0.1	0	1	368	0.2	367	368	13.6	92.2
2022-10-10T19:35	10	0	0.2	0	1	368	0.3	367	368	13.7	91.8
2022-10-10T19:36	10	0	0.2	0	1	368	0.3	367	368	13.7	91.4
2022-10-10T19:37	10	0	0.2	0	1	368	0.4	367	369	13.7	91.0
2022-10-10T19:38	10	0	0.2	0	0	369	0.5	368	370	13.7	91.1
2022-10-10T19:39	10	0	0.1	0	0	370	0.4	370	371	13.7	91.9
2022-10-10T19:40	10	0	0.1	0	0	371	0.5	370	372	13.9	91.3
2022-10-10T19:41	10	0	0.1	0	0	372	0.5	371	373	14.0	90.3
2022-10-10T19:42	10	0	0.1	0	1	372	0.2	371	372	14.0	89.4
2022-10-10T19:43	10	0	0.1	0	1	372	0.2	371	372	14.1	89.0
2022-10-10T19:44	10	0	0.1	0	1	371	0.3	371	372	14.0	89.0
2022-10-10T19:45	10	0	0.1	0	1	371	0.2	370	371	13.9	89.5
2022-10-10T19:46	10	0	0.1	0	1	370	0.2	370	371	13.8	90.1
2022-10-10T19:47	10	0	0.1	0	0	370	0.2	369	370	13.8	91.0
2022-10-10T19:48	10	0	0.1	0	0	369	0.2	369	370	13.6	91.4
2022-10-10T19:49	10	0	0.1	0	0	369	0.2	368	369	13.7	91.7
2022-10-10T19:50	10	0	0.1	0	0	369	0.3	368	369	13.8	91.4
2022-10-10T19:51	10	0	0.1	0	0	368	0.2	368	369	13.9	90.8
2022-10-10T19:52	10	0	0.1	0	0	368	0.3	367	369	14.0	90.1
2022-10-10T19:53	10	0	0.1	0	0	369	0.3	368	370	14.0	89.5
2022-10-10T19:54	10	0	0.1	0	0	370	0.3	369	370	14.1	89.1
2022-10-10T19:55	10	0	0.1	0	0	370	0.2	369	370	14.1	88.7
2022-10-10T19:56	10	0	0.1	0	0	370	0.3	370	371	14.0	88.6
2022-10-10T19:57	10	0	0.1	0	0	370	0.2	370	371	14.0	88.5
2022-10-10T19:58	10	0	0.1	0	0	370	0.3	369	370	13.9	88.5
2022-10-10T19:59	10	0	0.1	0	0	369	0.3	368	370	13.8	88.7
2022-10-10T20:00	10	0	0.1	0	0	368	0.4	367	369	13.8	88.9
2022-10-10T20:01	10	0	0.1	0	0	367	0.2	367	368	13.7	89.1
2022-10-10T20:02	10	0	0.1	0	0	367	0.4	366	367	13.6	89.5
2022-10-10T20:03	10	0	0.1	0	0	366	0.2	366	367	13.5	89.9
2022-10-10T20:04	10	0	0.1	0	0	366	0.2	366	367	13.6	90.4
2022-10-10T20:05	10	0	0.1	0	0	366	0.2	366	367	13.7	89.9
2022-10-10T20:06	10	0	0.1	0	0	366	0.2	366	367	13.8	89.4
2022-10-10T20:07	10	0	0.1	0	0	366	0.2	365	367	13.9	89.0
2022-10-10T20:08	10	0	0.1	0	0	366	0.2	365	366	13.9	88.8
2022-10-10T20:09	10	0	0.1	0	0	365	0.2	365	366	13.9	88.6
2022-10-10T20:10	10	0	0.1	0	0	365	0.4	365	366	13.9	88.4
2022-10-10T20:11	10	0	0.1	0	0	366	0.4	365	367	13.9	88.3
2022-10-10T20:12	10	0	0.1	0	0	367	0.3	366	367	13.9	88.2
2022-10-10T20:13	10	0	0.1	0	0	367	0.2	367	367	13.9	88.1
2022-10-10T20:14	10	0	0.1	0	0	367	0.3	367	368	13.9	88.2
2022-10-10T20:15	10	0	0.1	0	0	367	0.2	367	368	13.9	87.9
2022-10-10T20:16	10	0	0.1	0	0	367	0.4	366	368	13.9	87.6
2022-10-10T20:17	10	0	0.1	0	0	367	0.3	366	367	13.7	88.1
2022-10-10T20:18	10	0	0.1	0	0	366	0.4	366	367	13.7	88.3
2022-10-10T20:19	10	0	0.1	0	0	367	0.4	366	368	13.8	88.5
2022-10-10T20:20	10	0	0.1	0	0	367	0.4	366	368	13.9	87.5
2022-10-10T20:21	10	0	0.1	0	0	366	0.3	366	367	13.7	87.5
2022-10-10T20:22	10	0	0.1	0	1	366	0.3	365	366	13.6	87.9
2022-10-10T20:23	10	0	0.1	0	1	365	0.4	364	366	13.6	88.1
2022-10-10T20:24	10	1	0.1	0	1	364	0.2	364	365	13.5	88.4
2022-10-10T20:25	10	1	0.1	0	1	364	0.2	364	365	13.6	88.5
2022-10-10T20:26	10	1	0.1	0	1	364	0.3	364	365	14.0	88.3
2022-10-10T20:27	10	1	0.1	0	1	364	0.4	363	365	14.1	87.2
2022-10-10T20:28	10	1	0.1	0	1	365	0.4	364	365	13.9	86.8
2022-10-10T20:29	10	1	0.1	0	1	365	0.2	364	365	13.7	87.7
2022-10-10T20:30	10	0	0.1	0	1	366	0.7	365	367	13.5	89.1
2022-10-10T20:31	10	0	0.1	0	0	366	0.2	366	367	13.3	89.0
2022-10-10T20:32	10	0	0.1	0	0	367	0.2	366	367	13.2	90.2
2022-10-10T20:33	10	0	0.1	0	0	366	0.3	365	367	12.9	90.3
2022-10-10T20:34	10	0	0.1	-1	0	365	0.3	365	366	12.7	91.4
2022-10-10T20:35	10	-1	0.1	-1	0	365	0.3	364	365	12.6	91.8
2022-10-10T20:36	10	-1	0.1	-1	0	364	0.4	364	365	12.7	92.3
2022-10-10T20:37	10	-1	0.1	-1	-1	365	0.3	364	365	12.9	92.6
2022-10-10T20:38	10	-1	0.1	-1	-1	364	0.4	363	365	13.1	92.4
2022-10-10T20:39	10	-1	0.1	-1	0	363	0.5	362	364	12.8	90.9
2022-10-10T20:40	10	-1	0.1	-1	0	362	0.2	362	363	12.6	91.9
2022-10-10T20:41	10	-1	0.1	-1	0	363	0.4	362	364	12.6	92.5
2022-10-10T20:42	10	-1	0.1	-1	-1	362	0.3	362	363	12.6	92.4
2022-10-10T20:43	10	-1	0.1	-1	-1	363	0.4	362	364	12.4	93.1
2022-10-10T20:44	10	-1	0.1	-1	-1	364	0.7	363	366	12.6	93.8
2022-10-10T20:45	10	-1	0.1	-1	-1	365	0.2	364	365	12.9	93.8
2022-10-10T20:46	10	-1	0.1	-1	0	364	0.2	364	365	13.4	92.2
2022-10-10T20:47	10	0	0.1	0	0	364	0.3	363	364	13.5	90.2
2022-10-10T20:48	10	0	0.1	0	0	364	0.3	363	364	13.5	90.0
2022-10-10T20:49	10	0	0.1	0	0	364	0.2	363	364	13.9	89.2
2022-10-10T20:50	10	0	0.1	0	0	363	0.3	362	364	14.2	87.5
2022-10-10T20:51	10	0	0.1	0	1	363	0.3	362	363	14.1	87.0
2022-10-10T20:52	10	0	0.1	0	1	362	0.4	362	363	14.1	87.1
2022-10-10T20:53	10	1	0.1	0	1	362	0.3	361	362	13.9	87.5
2022-10-10T20:54	10	1	0.1	0	1	362	0.5	360	363	13.7	87.9
2022-10-10T20:55	10	1	0.1	1	1	361	0.5	360	362	13.1	88.6
2022-10-10T20:56	10	1	0.1	0	1	361	0.2	360	361	12.8	90.2
2022-10-10T20:57	10	0	0.1	0	1	361	0.3	361	362	12.8	91.3
2022-10-10T20:58	10	0	0.1	0	0	362	0.3	361	363	12.6	91.6
2022-10-10T20:59	10	0	0.1	-1	0	363	0.3	362	363	12.5	92.3
2022-10-10T21:00	10	0	0.1	-1	0	363	0.3	362	363	12.6	92.6
2022-10-10T21:01	10	-1	0.1	-1	0	362	0.3	362	363	12.5	92.7
2022-10-10T21:02	10	-1	0.1	-1	0	362	0.2	361	363	12.3	93.1
2022-10-10T21:03	10	-1	0.1	-1	0	361	0.5	360	362	12.2	93.5
2022-10-10T21:04	10	-1	0.1	-1	0	361	0.3	360	361	12.1	93.9
2022-10-10T21:05	10	-1	0.1	-1	0	360	0.2	360	361	12.0	94.1
2022-10-10T21:06	10	0	0.1	-1	0	360	0.2	359	360	12.0	94.2
2022-10-10T21:07	10	0	0.1	-1	0	359	0.5	358	360	12.1	94.5
2022-10-10T21:08	10	0	0.1	0	0	359	0.4	358	360	12.1	94.7
2022-10-10T21:09	10	0	0.1	0	0	359	0.4	358	360	12.1	94.7
2022-10-10T21:10	10	0	0.1	0	0	359	0.3	358	360	12.1	94.7
2022-10-10T21:11	10	0	0.1	0	0	359	0.3	358	360	12.0	94.7
2022-10-10T21:12	10	0	0.1	0	0	359	0.2	358	359	12.1	94.8
2022-10-10T21:13	10	0	0.1	0	0	359	0.3	358	360	12.0	94.8
2022-10-10T21:14	10	0	0.1	0	0	359	0.2	359	359	11.9	94.6
2022-10-10T21:15	10	0	0.1	0	0	359	0.2	359	360	11.9	94.8
2022-10-10T21:16	10	0	0.1	0	0	359	0.2	358	359	11.9	94.9
2022-10-10T21:17	10	0	0.1	0	0	359	0.2	358	359	11.9	95.0
2022-10-10T21:18	10	0	0.1	0	0	359	0.2	358	359	11.9	95.1
2022-10-10T21:19	10	0	0.1	0	0	359	0.2	359	360	11.9	95.1
2022-10-10T21:20	10	0	0.1	0	0	359	0.3	359	360	12.0	95.3
2022-10-10T21:21	10	0	0.1	0	0	360	0.3	360	361	11.9	95.3
2022-10-10T21:22	10	0	0.1	0	0	361	0.3	361	362	11.9	95.3
2022-10-10T21:23	10	0	0.1	0	0	361	0.3	361	362	11.9	95.4
2022-10-10T21:24	10	0	0.1	-1	0	361	0.3	361	362	11.9	95.5
2022-10-10T21:25	10	-1	0.1	-1	0	361	0.2	360	361	11.7	95.4
2022-10-10T21:26	10	-1	0.1	-1	0	361	0.2	360	361	11.7	95.6
2022-10-10T21:27	10	-1	0.1	-1	0	360	0.2	359	360	11.6	95.7
2022-10-10T21:28	10	-1	0.0	-1	0	360	0.2	360	361	11.6	95.9
2022-10-10T21:29	10	-1	0.1	-1	0	360	0.2	360	361	11.8	96.2
2022-10-10T21:30	10	0	0.1	-1	0	360	0.2	359	360	11.7	96.0
2022-10-10T21:31	10	0	0.0	0	0	359	0.2	359	360	11.7	96.0
2022-10-10T21:32	10	0	0.1	0	0	359	0.2	359	359	11.6	96.1
2022-10-10T21:33	10	0	0.1	0	0	359	0.2	359	360	11.7	96.3
2022-10-10T21:34	10	0	0.1	0	0	359	0.3	358	359	11.8	96.4
2022-10-10T21:35	10	0	0.1	0	0	359	0.3	358	359	11.8	96.3
2022-10-10T21:36	10	0	0.1	0	0	358	0.2	358	359	11.8	96.3
2022-10-10T21:37	10	0	0.1	0	0	359	0.2	358	359	11.8	96.2
2022-10-10T21:38	10	0	0.1	0	0	359	0.2	358	359	11.9	96.2
2022-10-10T21:39	10	0	0.1	0	0	359	0.2	358	359	12.1	96.2
2022-10-10T21:40	10	0	0.1	0	0	359	0.3	358	359	12.1	95.9
2022-10-10T21:41	10	0	0.0	0	0	359	0.3	358	360	12.4	95.9
2022-10-10T21:42	10	0	0.1	0	0	358	0.3	358	359	12.3	95.3
2022-10-10T21:43	10	0	0.1	0	0	359	0.2	358	359	12.2	95.0
2022-10-10T21:44	10	0	0.1	0	0	359	0.3	358	359	12.1	94.9
2022-10-10T21:45	10	0	0.1	0	0	359	0.3	358	360	12.3	95.2
2022-10-10T21:46	10	0	0.1	0	0	359	0.3	359	360	12.4	94.9
2022-10-10T21:47	10	0	0.1	0	0	359	0.3	358	359	12.4	94.5
2022-10-10T21:48	10	0	0.1	0	0	359	0.3	358	360	12.4	94.3
2022-10-10T21:49	10	0	0.1	0	0	359	0.2	358	359	12.4	94.2
2022-10-10T21:50	10	0	0.1	0	0	359	0.3	358	360	12.4	94.3
2022-10-10T21:51	10	0	0.1	0	0	358	0.3	358	359	12.3	94.2
2022-10-10T21:52	10	0	0.0	0	0	359	0.2	358	359	12.1	94.1
2022-10-10T21:53	10	0	0.1	0	0	359	0.2	359	360	12.1	94.3
2022-10-10T21:54	10	0	0.6	0	4	360	0.3	359	360	12.1	94.7
2022-10-10T21:55	10	0	0.1	0	0	360	0.2	359	361	12.2	94.8
2022-10-10T21:56	10	0	0.1	-1	0	360	0.2	359	360	12.2	94.8
2022-10-10T21:57	10	0	0.1	-1	0	360	0.2	359	360	12.1	94.8
2022-10-10T21:58	10	0	0.1	0	0	360	0.2	359	360	12.2	94.8
2022-10-10T21:59	10	0	0.1	0	0	360	0.2	359	360	12.2	94.8
2022-10-10T22:00	10	0	0.1	0	0	360	0.2	359	360	12.2	94.8
2022-10-10T22:01	10	0	0.1	0	0	360	0.2	359	360	12.2	94.7
2022-10-10T22:02	10	0	0.1	0	0	360	0.2	360	360	12.1	94.7
2022-10-10T22:03	10	0	0.1	0	0	360	0.2	360	361	12.1	94.8
2022-10-10T22:04	10	0	0.1	0	0	361	0.2	360	361	12.1	94.8
2022-10-10T22:05	10	0	0.1	0	1	361	0.2	360	361	12.1	94.9
2022-10-10T22:06	10	0	0.1	0	0	361	0.3	360	361	12.1	95.0
2022-10-10T22:07	10	0	0.1	0	1	360	0.5	360	362	12.1	94.7
2022-10-10T22:08	10	0	0.1	0	1	360	0.2	360	361	12.1	94.7
2022-10-10T22:09	10	0	0.1	0	1	360	0.3	360	361	12.5	94.4
2022-10-10T22:10	10	0	0.1	0	1	361	0.6	359	362	12.6	93.2
2022-10-10T22:11	10	0	0.1	0	1	360	0.5	359	361	11.9	92.3
2022-10-10T22:12	10	0	0.1	0	1	360	0.5	359	361	11.8	93.4
2022-10-10T22:13	10	0	0.1	0	1	360	0.4	359	361	11.7	93.9
2022-10-10T22:14	10	0	0.1	0	0	360	0.5	359	361	11.7	94.4
2022-10-10T22:15	10	0	0.2	-1	0	360	0.4	359	361	11.7	94.6
2022-10-10T22:16	10	0	0.1	0	0	360	0.5	359	361	11.7	94.9
2022-10-10T22:17	10	0	0.1	0	0	360	0.2	359	361	11.7	95.2
2022-10-10T22:18	10	0	0.2	0	0	360	0.3	360	361	11.6	95.2
2022-10-10T22:19	10	0	0.2	0	0	360	0.3	359	361	11.6	95.2
2022-10-10T22:20	10	0	0.2	0	0	361	0.2	360	361	11.6	95.4
2022-10-10T22:21	10	0	0.1	0	0	361	0.4	360	362	11.6	95.5
2022-10-10T22:22	10	0	0.2	0	1	361	0.3	361	362	11.5	95.6
2022-10-10T22:23	10	0	0.2	0	1	361	0.2	361	362	11.4	95.7
2022-10-10T22:24	10	0	0.1	0	0	362	0.4	361	362	11.5	96.0
2022-10-10T22:25	10	0	0.1	0	0	362	0.4	361	363	11.6	96.2
2022-10-10T22:26	10	0	0.2	0	0	362	0.3	361	363	11.7	96.2
2022-10-10T22:27	10	0	0.1	0	0	362	0.2	362	363	11.7	96.2
2022-10-10T22:28	10	0	0.1	-1	0	362	0.2	361	362	11.5	95.9
2022-10-10T22:29	10	0	0.1	-1	0	362	0.2	362	363	11.5	96.1
2022-10-10T22:30	10	0	0.1	0	0	363	0.3	362	363	11.4	96.1
2022-10-10T22:31	10	0	0.1	-1	0	363	0.2	362	363	11.5	96.2
2022-10-10T22:32	10	0	0.2	-1	0	363	0.3	363	364	11.6	96.2
2022-10-10T22:33	10	0	0.2	-1	0	363	0.2	363	364	11.6	96.0
2022-10-10T22:34	10	0	0.2	0	0	364	0.3	363	364	11.6	95.9
2022-10-10T22:35	10	0	0.1	0	0	364	0.3	363	365	11.7	95.9
2022-10-10T22:36	10	0	0.2	0	0	365	0.3	364	365	12.0	96.0
2022-10-10T22:37	10	0	0.2	0	0	365	0.3	364	365	12.2	95.3
2022-10-10T22:38	10	0	0.1	0	1	365	0.5	364	366	12.0	94.6
2022-10-10T22:39	10	0	0.1	0	0	365	0.3	364	366	12.2	94.0
2022-10-10T22:40	10	0	0.2	0	0	365	0.3	364	366	11.9	93.5
2022-10-10T22:41	10	0	0.1	0	0	365	0.3	365	366	11.9	93.8
2022-10-10T22:42	10	0	0.1	0	0	365	0.2	365	366	12.0	93.3
2022-10-10T22:43	10	0	0.2	-1	0	365	0.5	364	366	12.1	92.5
2022-10-10T22:44	10	0	0.2	-1	0	366	0.3	365	366	12.4	90.2
2022-10-10T22:45	10	0	0.2	-1	0	366	0.3	365	367	12.5	89.4
2022-10-10T22:46	10	0	0.2	-1	0	366	0.2	365	367	12.5	88.7
2022-10-10T22:47	10	0	0.1	-1	0	366	0.2	366	367	12.3	89.2
2022-10-10T22:48	10	0	0.1	-1	0	366	0.4	365	367	12.1	90.3
2022-10-10T22:49	10	0	0.2	-1	0	366	0.3	366	367	12.4	89.6
2022-10-10T22:50	10	0	0.1	-1	0	367	0.2	366	367	12.7	88.5
2022-10-10T22:51	10	0	0.1	-1	0	367	0.3	366	367	12.8	87.0
2022-10-10T22:52	10	0	0.1	0	0	366	0.3	366	367	12.8	87.1
2022-10-10T22:53	10	0	0.1	0	1	366	0.3	365	367	12.6	87.7
2022-10-10T22:54	10	0	0.1	0	1	366	0.3	365	366	12.4	88.2
2022-10-10T22:55	10	0	0.1	0	1	366	0.2	366	366	12.2	89.6
2022-10-10T22:56	10	0	0.1	0	1	366	0.3	365	366	12.2	90.7
2022-10-10T22:57	10	0	0.1	0	1	365	0.9	364	366	12.0	91.1
2022-10-10T22:58	10	0	0.1	0	1	366	0.6	365	366	11.9	92.0
2022-10-10T22:59	10	0	0.1	0	1	366	0.6	364	367	12.1	92.9
2022-10-10T23:00	10	0	0.1	0	0	366	0.2	365	366	11.9	93.1
2022-10-10T23:01	10	0	0.1	0	0	366	0.6	365	367	11.8	93.3
2022-10-10T23:02	10	0	0.1	0	0	366	0.2	365	366	11.7	93.6
2022-10-10T23:03	10	0	0.1	0	0	366	0.4	365	366	11.5	93.8
2022-10-10T23:04	10	0	0.1	0	0	366	0.3	365	366	11.5	94.2
2022-10-10T23:05	10	0	0.1	0	0	366	0.3	365	367	11.4	94.5
2022-10-10T23:06	10	0	0.1	0	0	366	0.3	365	367	11.4	94.9
2022-10-10T23:07	10	0	0.1	0	0	366	0.6	365	367	11.4	95.1
2022-10-10T23:08	10	0	0.1	0	0	366	0.2	365	366	11.4	95.3
2022-10-10T23:09	10	0	0.1	0	0	366	0.3	365	366	11.4	95.3
2022-10-10T23:10	10	0	0.1	0	0	365	0.3	364	366	11.4	95.4
2022-10-10T23:11	10	0	0.1	0	0	365	0.4	365	366	11.3	95.4
2022-10-10T23:12	10	0	0.1	-1	0	366	0.2	365	366	11.3	95.5
2022-10-10T23:13	10	0	0.1	-1	0	366	0.2	365	366	11.3	95.6
2022-10-10T23:14	10	-1	0.2	-1	0	366	0.2	366	367	11.3	95.6
2022-10-10T23:15	10	-1	0.1	-1	-1	367	0.3	366	367	11.3	95.6
2022-10-10T23:16	10	-1	0.1	-1	-1	366	0.3	366	367	11.2	95.7
2022-10-10T23:17	10	-1	0.1	-2	-1	366	0.3	365	367	11.2	95.8
2022-10-10T23:18	10	-1	0.1	-1	-1	366	0.5	365	367	11.2	95.9
2022-10-10T23:19	10	-1	0.1	-1	-1	365	0.2	365	366	11.1	95.9
2022-10-10T23:20	10	-1	0.1	-1	-1	366	0.4	365	367	11.1	96.0
2022-10-10T23:21	10	-1	0.1	-1	-1	365	0.2	365	366	11.0	96.1
2022-10-10T23:22	10	-1	0.1	-1	-1	365	0.3	365	366	10.9	96.2
2022-10-10T23:23	10	-1	0.1	-1	-1	366	0.2	365	366	11.1	96.6
2022-10-10T23:24	10	-1	0.1	-1	-1	366	0.2	365	366	11.1	96.7
2022-10-10T23:25	10	-1	0.1	-1	-1	366	0.2	366	367	11.2	96.8
2022-10-10T23:26	10	-1	0.1	-1	-1	367	0.2	366	367	11.2	96.7
2022-10-10T23:27	10	-1	0.1	-1	-1	367	0.2	366	367	11.2	96.7
2022-10-10T23:28	10	-1	0.1	-1	-1	367	0.2	366	367	11.4	96.7
2022-10-10T23:29	10	-1	0.1	-1	-1	367	0.2	367	368	11.7	96.7
2022-10-10T23:30	10	-1	0.1	-1	-1	367	0.2	367	368	11.9	96.0
2022-10-10T23:31	10	-1	0.1	-1	-1	367	0.2	367	367	11.9	95.2
2022-10-10T23:32	10	-1	0.1	-1	-1	367	0.2	366	367	11.9	94.6
2022-10-10T23:33	10	-1	0.1	-1	0	367	0.3	367	368	12.0	94.3
2022-10-10T23:34	10	-1	0.1	-1	0	367	0.2	367	368	12.1	93.7
2022-10-10T23:35	10	0	0.1	-1	0	367	0.2	367	368	12.0	93.3
2022-10-10T23:36	10	0	0.1	-1	0	367	0.2	367	368	12.0	93.4
2022-10-10T23:37	10	0	0.1	0	0	367	0.2	367	368	12.1	93.3
2022-10-10T23:38	10	0	0.1	0	0	367	0.4	366	367	12.0	93.0
2022-10-10T23:39	10	0	0.1	0	0	366	0.3	366	367	11.9	93.1
2022-10-10T23:40	10	0	0.1	0	0	366	0.5	365	367	11.8	93.4
2022-10-10T23:41	10	0	0.1	0	0	366	0.6	365	367	11.6	93.6
2022-10-10T23:42	10	0	0.1	0	0	366	0.2	366	366	11.4	93.8
2022-10-10T23:43	10	-1	0.1	-1	0	366	0.3	365	367	11.3	94.2
2022-10-10T23:44	10	-1	0.1	-1	-1	366	0.3	365	366	11.3	94.6
2022-10-10T23:45	10	-1	0.1	-1	-1	366	0.2	365	366	11.4	94.9
2022-10-10T23:46	10	-1	0.1	-1	-1	365	0.3	365	366	11.3	95.1
2022-10-10T23:47	10	-1	0.1	-1	-1	365	0.3	364	366	11.3	95.2
2022-10-10T23:48	10	-1	0.1	-1	-1	364	0.3	364	365	11.5	95.5
2022-10-10T23:49	10	-1	0.1	-1	-1	364	0.3	363	364	11.4	95.4
2022-10-10T23:50	10	-1	0.1	-1	-1	364	0.3	363	364	11.5	95.5
2022-10-10T23:51	10	-1	0.1	-1	-1	363	0.2	363	364	11.6	95.3
2022-10-10T23:52	10	-1	0.1	-1	-1	363	0.2	363	364	11.6	94.9
2022-10-10T23:53	10	-1	0.1	-1	-1	363	0.4	362	363	11.6	94.9
2022-10-10T23:54	10	-1	0.1	-1	-1	362	0.2	361	362	11.4	94.7
2022-10-10T23:55	10	-1	0.1	-1	-1	361	0.2	361	361	11.3	94.8
2022-10-10T23:56	10	-1	0.1	-1	-1	361	0.2	360	361	11.2	95.2
2022-10-10T23:57	10	-1	0.1	-1	-1	360	0.3	360	361	11.3	95.6
2022-10-10T23:58	10	-1	0.1	-1	-1	360	0.2	360	361	11.3	95.7
2022-10-10T23:59	10	-1	0.1	-1	0	360	0.3	359	361	11.2	95.7
2022-10-11T00:00	10	-1	0.1	-1	0	360	0.3	359	360	11.2	95.8
2022-10-11T00:01	10	-1	0.1	-1	0	360	0.3	359	360	11.3	96.0
2022-10-11T00:02	10	-1	0.1	-1	0	360	0.3	359	361	11.4	96.1
2022-10-11T00:03	10	-1	0.1	-1	-1	360	0.2	359	360	11.4	96.1
2022-10-11T00:04	10	-1	0.0	-1	-1	359	0.2	359	360	11.4	95.9
2022-10-11T00:05	10	-1	0.1	-1	-1	359	0.3	359	360	11.3	95.8
2022-10-11T00:06	10	-1	0.0	-1	-1	360	0.2	359	360	11.3	95.9
2022-10-11T00:07	10	-1	0.1	-1	-1	360	0.2	359	360	11.4	95.9
2022-10-11T00:08	10	-1	0.0	-1	-1	360	0.2	359	360	11.4	96.0
2022-10-11T00:09	10	-1	0.1	-1	-1	360	0.2	360	360	11.4	95.8
2022-10-11T00:10	10	-1	0.1	-1	-1	361	0.3	360	361	11.4	95.9
2022-10-11T00:11	10	-1	0.1	-1	-1	361	0.3	360	362	11.4	95.8
2022-10-11T00:12	10	-1	0.1	-1	-1	362	0.3	361	362	11.4	95.8
2022-10-11T00:13	10	-1	0.1	-1	-1	362	0.3	362	363	11.6	95.8
2022-10-11T00:14	10	-1	0.1	-1	-1	362	0.2	362	363	11.6	95.4
2022-10-11T00:15	10	-1	0.1	-1	-1	363	0.3	362	363	11.7	95.0
2022-10-11T00:16	10	-1	0.1	-1	-1	363	0.2	363	363	11.9	94.5
2022-10-11T00:17	10	-1	0.1	-1	-1	363	0.4	362	363	12.0	93.8
2022-10-11T00:18	10	-1	0.1	-1	-1	362	0.3	361	363	12.0	93.2
2022-10-11T00:19	10	-1	0.1	-1	-1	362	0.3	361	362	12.0	93.0
2022-10-11T00:20	10	-1	0.1	-1	0	361	0.2	361	362	11.9	93.1
2022-10-11T00:21	10	0	0.1	-1	0	361	0.2	361	362	11.9	93.2
2022-10-11T00:22	10	0	0.1	0	0	361	0.3	360	362	11.9	93.3
2022-10-11T00:23	10	0	0.1	0	0	360	0.2	360	361	11.8	93.4
2022-10-11T00:24	10	0	0.1	0	0	360	0.2	359	360	11.7	93.6
2022-10-11T00:25	10	0	0.1	0	0	360	0.4	359	360	11.6	93.9
2022-10-11T00:26	10	0	0.0	0	0	359	0.3	359	360	11.4	94.0
2022-10-11T00:27	10	0	0.1	0	0	359	0.4	358	359	11.4	94.3
2022-10-11T00:28	10	0	0.1	0	0	358	0.3	358	359	11.1	94.2
2022-10-11T00:29	10	0	0.1	0	0	359	0.4	358	359	11.0	94.6
2022-10-11T00:30	10	0	0.1	0	0	359	0.3	358	359	11.0	95.1
2022-10-11T00:31	10	0	0.1	-1	0	358	0.2	358	359	11.1	95.4
2022-10-11T00:32	10	0	0.1	-1	0	358	0.4	357	359	11.1	95.5
2022-10-11T00:33	10	0	0.1	-1	0	358	0.3	357	358	11.0	95.7
2022-10-11T00:34	10	0	0.1	-1	0	358	0.5	356	359	11.0	95.7
2022-10-11T00:35	10	-1	0.1	-1	0	357	0.4	356	358	10.9	95.8
2022-10-11T00:36	10	-1	0.1	-1	-1	358	0.3	357	358	10.9	96.0
2022-10-11T00:37	10	-1	0.1	-1	-1	357	0.3	357	358	10.9	96.2
2022-10-11T00:38	10	-1	0.1	-1	0	357	0.2	357	358	10.9	96.2
2022-10-11T00:39	10	0	0.1	-1	0	357	0.4	356	357	10.9	96.4
2022-10-11T00:40	10	0	0.1	-1	0	357	0.4	356	358	10.8	96.4
2022-10-11T00:41	10	0	0.1	0	0	357	0.3	356	357	10.8	96.5
2022-10-11T00:42	10	0	0.1	-1	0	357	0.3	356	358	10.8	96.6
2022-10-11T00:43	10	0	0.1	0	0	357	0.3	356	358	10.8	96.7
2022-10-11T00:44	10	0	0.1	-1	0	356	0.3	356	357	10.8	96.8
2022-10-11T00:45	10	0	0.1	-1	0	356	0.2	356	357	10.8	96.9
2022-10-11T00:46	10	0	0.1	-1	0	356	0.3	356	357	10.9	97.0
2022-10-11T00:47	10	-1	0.1	-1	0	357	0.2	356	357	10.9	97.0
2022-10-11T00:48	10	-1	0.1	-1	0	357	0.2	356	357	10.8	97.0
2022-10-11T00:49	10	-1	0.1	-1	-1	357	0.3	356	357	10.8	97.1
2022-10-11T00:50	10	-1	0.1	-1	-1	357	0.3	357	358	10.8	97.2
2022-10-11T00:51	10	-1	0.1	-1	-1	357	0.2	357	358	10.8	97.3
2022-10-11T00:52	10	-1	0.1	-1	-1	357	0.2	357	358	10.8	97.3
2022-10-11T00:53	10	-1	0.1	-2	-1	357	0.3	356	357	10.8	97.4
2022-10-11T00:54	10	-2	0.1	-2	-1	357	0.2	356	357	10.8	97.4
2022-10-11T00:55	10	-2	0.1	-2	-2	357	0.2	357	358	10.8	97.4
2022-10-11T00:56	10	-2	0.1	-2	-2	357	0.2	357	358	10.8	97.4
2022-10-11T00:57	10	-2	0.1	-2	-2	357	0.3	357	358	10.8	97.4
2022-10-11T00:58	10	-2	0.1	-2	-2	357	0.2	357	358	10.7	97.3
2022-10-11T00:59	10	-2	0.1	-2	-2	358	0.2	357	358	10.6	97.3
2022-10-11T01:00	10	-2	0.1	-2	-2	357	0.2	357	358	10.6	97.3
2022-10-11T01:01	10	-2	0.1	-2	-2	357	0.2	357	358	10.6	97.3
2022-10-11T01:02	10	-2	0.1	-2	-2	357	0.3	357	358	10.7	97.4
2022-10-11T01:03	10	-2	0.1	-2	-2	357	0.2	357	358	10.8	97.5
2022-10-11T01:04	10	-2	0.1	-2	-2	358	0.2	357	358	10.9	97.6
2022-10-11T01:05	10	-2	0.1	-2	-2	358	0.2	357	358	10.9	97.6
2022-10-11T01:06	10	-2	0.1	-2	-2	358	0.2	357	358	10.8	97.5
2022-10-11T01:07	10	-2	0.1	-2	-2	357	0.2	357	358	10.8	97.4
2022-10-11T01:08	10	-2	0.1	-2	-2	357	0.2	357	358	10.7	97.4
2022-10-11T01:09	10	-2	0.1	-2	-2	357	0.3	357	358	10.7	97.4
2022-10-11T01:10	10	-2	0.1	-2	-2	357	0.2	356	357	10.7	97.3
2022-10-11T01:11	10	-2	0.1	-2	-1	356	0.4	355	357	10.7	97.4
2022-10-11T01:12	10	-1	0.1	-2	-1	356	0.4	355	356	10.8	97.4
2022-10-11T01:13	10	-1	0.1	-1	-1	356	0.3	355	356	10.8	97.4
2022-10-11T01:14	10	-1	0.1	-1	-1	356	0.2	355	356	10.7	97.3
2022-10-11T01:15	10	-1	0.1	-1	-1	356	0.3	355	356	10.8	97.3
2022-10-11T01:16	10	-1	0.1	-1	-1	356	0.4	355	357	10.8	97.4
2022-10-11T01:17	10	-1	0.1	-1	-1	356	0.2	356	357	10.9	97.5
2022-10-11T01:18	10	-1	0.1	-1	0	356	0.3	356	357	10.9	97.4
2022-10-11T01:19	10	0	0.1	-1	0	356	0.3	356	357	11.0	97.4
2022-10-11T01:20	10	0	0.1	-1	0	357	0.2	356	357	11.0	97.4
2022-10-11T01:21	10	0	0.1	-1	0	357	0.2	356	357	11.0	97.4
2022-10-11T01:22	10	-1	0.1	-1	0	357	0.2	356	357	10.9	97.3
2022-10-11T01:23	10	-1	0.1	-1	-1	356	0.3	356	357	10.9	97.2
2022-10-11T01:24	10	-1	0.1	-1	-1	356	0.2	356	357	10.9	97.2
2022-10-11T01:25	10	-1	0.1	-1	0	356	0.3	355	356	10.8	97.2
2022-10-11T01:26	10	-1	0.1	-1	0	355	0.3	354	356	10.7	97.1
2022-10-11T01:27	10	-1	0.1	-1	0	355	0.3	354	355	10.7	97.2
2022-10-11T01:28	10	-1	0.1	-1	0	354	0.3	354	355	10.7	97.3
2022-10-11T01:29	10	-1	0.1	-1	0	355	0.3	354	355	10.7	97.3
2022-10-11T01:30	10	-1	0.1	-1	-1	355	0.3	355	356	10.7	97.4
2022-10-11T01:31	10	-1	0.1	-1	-1	356	0.3	356	357	10.7	97.4
2022-10-11T01:32	10	-1	0.1	-1	-1	357	0.2	356	357	10.7	97.4
2022-10-11T01:33	10	-1	0.1	-2	-1	357	0.3	357	358	10.9	97.6
2022-10-11T01:34	10	-2	0.1	-2	-1	358	0.3	357	359	11.0	97.5
2022-10-11T01:35	10	-2	0.1	-2	-2	359	0.3	358	359	10.9	97.4
2022-10-11T01:36	10	-2	0.1	-2	-2	359	0.3	358	360	11.0	97.3
2022-10-11T01:37	10	-2	0.1	-2	-2	359	0.3	359	360	11.2	97.2
2022-10-11T01:38	10	-2	0.1	-2	-2	360	0.3	359	361	11.4	97.1
2022-10-11T01:39	10	-2	0.1	-2	-1	360	0.2	360	361	11.5	96.7
2022-10-11T01:40	10	-2	0.1	-2	-1	360	0.4	359	361	11.5	96.2
2022-10-11T01:41	10	-1	0.1	-2	-1	359	0.3	359	360	11.4	95.8
2022-10-11T01:42	10	-1	0.1	-1	-1	359	0.3	358	359	11.4	95.7
2022-10-11T01:43	10	-1	0.1	-1	-1	358	0.4	357	359	11.3	95.6
2022-10-11T01:44	10	-1	0.1	-1	-1	358	0.3	357	358	11.2	95.5
2022-10-11T01:45	10	-1	0.1	-1	0	357	0.3	356	358	11.2	95.6
2022-10-11T01:46	10	0	0.1	-1	0	357	0.4	356	357	11.2	95.6
2022-10-11T01:47	10	0	0.1	0	0	357	0.2	356	357	11.1	95.6
2022-10-11T01:48	10	0	0.1	0	0	356	0.3	356	357	11.0	95.6
2022-10-11T01:49	10	0	0.1	0	0	356	0.3	356	357	10.9	95.7
2022-10-11T01:50	10	0	0.1	0	0	356	0.3	356	357	11.0	95.8
2022-10-11T01:51	10	0	0.1	0	0	356	0.3	356	357	11.0	95.8
2022-10-11T01:52	10	0	0.1	0	0	356	0.4	355	357	10.9	95.7
2022-10-11T01:53	10	0	0.1	0	0	356	0.3	355	356	10.9	95.8
2022-10-11T01:54	10	0	0.1	-1	0	356	0.3	355	356	10.9	95.9
2022-10-11T01:55	10	0	0.1	0	0	355	0.2	355	356	10.8	95.9
2022-10-11T01:56	10	0	0.1	-1	0	356	0.2	355	356	10.8	95.9
2022-10-11T01:57	10	0	0.1	0	0	355	0.2	355	356	10.8	96.0
2022-10-11T01:58	10	0	0.1	-1	0	355	0.3	354	356	10.7	95.9
2022-10-11T01:59	10	0	0.1	0	0	355	0.3	354	355	10.7	95.9
2022-10-11T02:00	10	0	0.1	-1	0	355	0.2	354	355	10.6	96.0
2022-10-11T02:01	10	0	0.1	-1	0	355	0.2	354	355	10.6	96.0
2022-10-11T02:02	10	0	0.1	-1	0	355	0.2	354	355	10.6	96.1
2022-10-11T02:03	10	0	0.1	0	0	355	0.3	354	355	10.5	96.1
2022-10-11T02:04	10	0	0.1	0	0	355	0.2	354	355	10.6	96.3
2022-10-11T02:05	10	0	0.1	0	0	354	0.3	354	355	10.6	96.4
2022-10-11T02:06	10	0	0.1	0	0	354	0.2	354	355	10.6	96.4
2022-10-11T02:07	10	0	0.1	0	0	354	0.3	354	355	10.5	96.4
2022-10-11T02:08	10	0	0.1	0	0	354	0.2	354	355	10.5	96.4
2022-10-11T02:09	10	0	0.1	0	0	354	0.3	354	355	10.5	96.5
2022-10-11T02:10	10	0	0.1	-1	0	354	0.2	354	354	10.5	96.6
2022-10-11T02:11	10	-1	0.1	-1	-1	354	0.2	353	354	10.5	96.7
2022-10-11T02:12	10	-1	0.1	-1	-1	354	0.2	354	355	10.5	96.7
2022-10-11T02:13	10	-1	0.1	-1	-1	354	0.2	354	355	10.4	96.7
2022-10-11T02:14	10	-1	0.1	-1	-1	354	0.2	354	355	10.4	96.8
2022-10-11T02:15	10	-1	0.1	-1	0	354	0.3	354	355	10.4	96.8
2022-10-11T02:16	10	-1	0.1	-1	0	354	0.2	354	354	10.4	96.8
2022-10-11T02:17	10	0	0.1	-1	0	354	0.3	354	355	10.3	96.8
2022-10-11T02:18	10	0	0.1	-1	0	354	0.2	354	355	10.4	96.9
2022-10-11T02:19	10	0	0.1	-1	0	354	0.2	354	355	10.3	96.9
2022-10-11T02:20	10	-1	0.1	-1	0	355	0.3	354	355	10.2	97.0
2022-10-11T02:21	10	0	0.1	-1	0	355	0.3	354	355	10.3	97.1
2022-10-11T02:22	10	-1	0.1	-1	0	355	0.3	354	355	10.3	97.3
2022-10-11T02:23	10	-1	0.1	-1	0	355	0.2	354	355	10.3	97.5
2022-10-11T02:24	10	-1	0.1	-1	0	355	0.2	354	355	10.5	97.6
2022-10-11T02:25	10	-1	0.1	-1	-1	355	0.2	355	356	10.5	97.7
2022-10-11T02:26	10	-1	0.1	-1	0	355	0.2	355	356	10.6	97.8
2022-10-11T02:27	10	-1	0.1	-1	0	355	0.2	355	356	10.7	97.7
2022-10-11T02:28	10	-1	0.1	-1	0	355	0.2	355	356	10.7	97.6
2022-10-11T02:29	10	-1	0.1	-1	0	356	0.2	355	356	10.7	97.5
2022-10-11T02:30	10	-1	0.1	-1	0	355	0.3	355	356	10.7	97.4
2022-10-11T02:31	10	-1	0.1	-1	0	355	0.4	354	355	10.7	97.2
2022-10-11T02:32	10	0	0.1	-1	0	354	0.2	354	355	10.5	97.1
2022-10-11T02:33	10	0	0.1	-1	0	354	0.3	354	355	10.5	97.1
2022-10-11T02:34	10	-1	0.1	-1	0	355	0.3	354	356	10.8	97.4
2022-10-11T02:35	10	-1	0.1	-1	0	355	0.3	354	356	10.8	97.3
2022-10-11T02:36	10	-1	0.1	-1	0	355	0.3	354	356	10.7	97.2
2022-10-11T02:37	10	-1	0.1	-1	-1	354	0.3	354	355	10.7	97.1
2022-10-11T02:38	10	-1	0.1	-1	0	354	0.2	353	354	10.6	97.1
2022-10-11T02:39	10	-1	0.1	-1	-1	354	0.3	353	355	10.6	97.2
2022-10-11T02:40	10	-1	0.1	-1	-1	354	0.3	354	355	10.5	97.2
2022-10-11T02:41	10	-1	0.1	-1	-1	354	0.2	354	355	10.5	97.3
2022-10-11T02:42	10	-1	0.1	-1	-1	354	0.2	354	355	10.6	97.4
2022-10-11T02:43	10	-1	0.1	-1	-1	354	0.3	354	355	10.5	97.4
2022-10-11T02:44	10	-1	0.1	-2	-1	354	0.2	354	355	10.5	97.5
2022-10-11T02:45	10	-1	0.1	-1	-1	354	0.3	353	354	10.6	97.5
2022-10-11T02:46	10	-1	0.1	-1	-1	353	0.3	353	354	10.4	97.4
2022-10-11T02:47	10	-1	0.1	-1	-1	352	0.2	352	353	10.2	97.3
2022-10-11T02:48	10	-1	0.1	-1	-1	353	0.3	352	354	10.1	97.3
2022-10-11T02:49	10	-1	0.1	-1	-1	353	0.3	353	354	10.3	97.6
2022-10-11T02:50	10	-1	0.1	-1	-1	353	0.2	352	353	10.2	97.6
2022-10-11T02:51	10	-1	0.1	-1	-1	353	0.2	352	354	10.2	97.6
2022-10-11T02:52	10	-1	0.1	-1	-1	353	0.2	352	353	10.4	97.8
2022-10-11T02:53	10	-1	0.1	-1	-1	353	0.3	352	353	10.4	97.9
2022-10-11T02:54	10	-1	0.1	-1	0	352	0.3	351	353	10.4	97.9
2022-10-11T02:55	10	-1	0.1	-1	0	352	0.3	351	352	10.2	97.8
2022-10-11T02:56	10	-1	0.1	-1	0	351	0.2	351	352	10.3	97.8
2022-10-11T02:57	10	0	0.1	-1	0	351	0.7	350	352	10.3	97.9
2022-10-11T02:58	10	0	0.1	-1	0	351	0.3	350	351	10.2	97.8
2022-10-11T02:59	10	0	0.1	-1	0	351	0.3	350	352	10.2	97.8
2022-10-11T03:00	10	-1	0.1	-1	0	351	0.3	350	352	10.3	97.9
2022-10-11T03:01	10	-1	0.1	-1	0	351	0.3	350	351	10.3	97.8
2022-10-11T03:02	10	-1	0.1	-1	0	351	0.3	350	351	10.2	97.8
2022-10-11T03:03	10	-1	0.1	-1	0	351	0.4	350	352	10.3	97.8
2022-10-11T03:04	10	0	0.1	-1	0	351	0.2	351	352	10.4	97.8
2022-10-11T03:05	10	0	0.0	-1	0	351	0.2	351	352	10.4	97.8
2022-10-11T03:06	10	0	0.1	0	0	351	0.2	351	352	10.4	97.7
2022-10-11T03:07	10	0	0.1	0	0	351	0.2	351	352	10.4	97.7
2022-10-11T03:08	10	0	0.1	0	0	351	0.2	350	351	10.3	97.5
2022-10-11T03:09	10	0	0.1	0	0	351	0.2	350	351	10.1	97.4
2022-10-11T03:10	10	0	0.1	0	0	351	0.2	350	351	10.2	97.4
2022-10-11T03:11	10	0	0.1	-1	0	351	0.2	350	351	10.2	97.4
2022-10-11T03:12	10	-1	0.1	-1	0	351	0.2	350	351	10.2	97.4
2022-10-11T03:13	10	-1	0.1	-1	-1	351	0.3	350	352	10.2	97.4
2022-10-11T03:14	10	-1	0.1	-1	-1	352	0.4	351	353	10.0	97.3
2022-10-11T03:15	10	-1	0.1	-1	-1	352	0.4	352	353	9.9	97.3
2022-10-11T03:16	10	-2	0.1	-2	-1	353	0.3	352	353	9.9	97.3
2022-10-11T03:17	10	-2	0.1	-2	-2	353	0.4	352	353	9.9	97.3
2022-10-11T03:18	10	-2	0.1	-2	-2	352	0.3	352	353	9.9	97.3
2022-10-11T03:19	10	-2	0.1	-2	-2	352	0.2	351	352	9.9	97.4
2022-10-11T03:20	10	-2	0.1	-2	-2	352	0.3	351	352	9.9	97.4
2022-10-11T03:21	10	-2	0.1	-2	-1	352	0.2	351	352	9.9	97.4
2022-10-11T03:22	10	-1	0.1	-2	-1	352	0.2	351	352	9.9	97.5
2022-10-11T03:23	10	-1	0.1	-1	-1	351	0.3	351	352	9.9	97.5
2022-10-11T03:24	10	-1	0.1	-1	-1	351	0.3	351	352	9.9	97.5
2022-10-11T03:25	10	-1	0.1	-1	0	351	0.2	351	352	9.9	97.5
2022-10-11T03:26	10	0	0.1	-1	0	352	0.3	351	352	9.9	97.5
2022-10-11T03:27	10	0	0.1	-1	0	352	0.2	351	352	9.9	97.5
2022-10-11T03:28	10	0	0.0	-1	0	352	0.2	352	353	9.9	97.5
2022-10-11T03:29	10	-1	0.1	-1	0	353	0.2	352	353	9.9	97.5
2022-10-11T03:30	10	-1	0.1	-1	0	352	0.2	352	353	9.9	97.5
2022-10-11T03:31	10	-1	0.1	-1	-1	352	0.2	352	353	9.8	97.5
2022-10-11T03:32	10	-1	0.1	-1	-1	352	0.3	352	353	9.8	97.5
2022-10-11T03:33	10	-1	0.1	-1	-1	352	0.2	352	353	9.8	97.5
2022-10-11T03:34	10	-1	0.1	-1	-1	352	0.3	352	353	9.7	97.4
2022-10-11T03:35	10	-1	0.1	-1	-1	353	0.2	352	353	9.8	97.6
2022-10-11T03:36	10	-1	0.1	-1	-1	352	0.2	352	353	9.6	97.5
2022-10-11T03:37	10	-1	0.1	-1	-1	352	0.3	351	353	9.6	97.6
2022-10-11T03:38	10	-1	0.1	-1	-1	352	0.2	352	353	9.7	97.7
2022-10-11T03:39	10	-1	0.1	-1	-1	352	0.3	352	353	9.7	97.8
2022-10-11T03:40	10	-1	0.1	-1	-1	353	0.2	352	353	9.9	97.9
2022-10-11T03:41	10	-1	0.1	-2	-1	353	0.2	352	353	9.9	98.0
2022-10-11T03:42	10	-2	0.1	-2	-1	353	0.2	352	353	9.8	98.0
2022-10-11T03:43	10	-2	0.1	-2	-2	353	0.2	352	353	9.8	98.0
2022-10-11T03:44	10	-2	0.1	-2	-2	352	0.2	352	353	9.7	98.0
2022-10-11T03:45	10	-2	0.0	-2	-2	352	0.2	352	353	9.9	98.1
2022-10-11T03:46	10	-2	0.1	-2	-2	352	0.2	352	353	9.8	98.1
2022-10-11T03:47	10	-2	0.1	-2	-2	352	0.2	352	353	9.8	98.1
2022-10-11T03:48	10	-2	0.1	-2	-2	352	0.2	352	353	9.7	98.1
2022-10-11T03:49	10	-2	0.1	-2	-1	352	0.3	351	352	9.7	98.1
2022-10-11T03:50	10	-1	0.1	-2	-1	351	0.3	351	352	9.7	98.1
2022-10-11T03:51	10	-1	0.1	-1	-1	351	0.2	350	351	9.6	98.1
2022-10-11T03:52	10	-1	0.1	-1	-1	350	0.2	350	351	9.6	98.0
2022-10-11T03:53	10	-1	0.1	-1	-1	351	0.3	350	351	9.8	98.1
2022-10-11T03:54	10	-1	0.1	-1	0	351	0.3	350	351	10.0	98.2
2022-10-11T03:55	10	-1	0.1	-1	0	350	0.2	350	351	9.9	98.2
2022-10-11T03:56	10	0	0.1	-1	0	350	0.3	350	351	10.0	98.2
2022-10-11T03:57	10	-1	0.1	-1	0	351	0.2	350	351	10.1	98.3
2022-10-11T03:58	10	-1	0.1	-1	-1	351	0.3	350	351	10.1	98.3
2022-10-11T03:59	10	-1	0.1	-1	-1	351	0.3	351	352	10.2	98.3
2022-10-11T04:00	10	-1	0.1	-1	-1	351	0.3	351	352	10.2	98.3
2022-10-11T04:01	10	-1	0.1	-1	-1	351	0.3	351	352	10.2	98.2
2022-10-11T04:02	10	-1	0.1	-2	-1	352	0.2	352	353	10.3	98.1
2022-10-11T04:03	10	-2	0.1	-2	-1	352	0.2	352	353	10.3	97.9
2022-10-11T04:04	10	-2	0.1	-2	-1	352	0.3	351	353	10.4	97.7
2022-10-11T04:05	10	-2	0.1	-2	-1	352	0.3	352	353	10.5	97.4
2022-10-11T04:06	10	-2	0.1	-2	-1	352	0.2	352	353	10.6	97.0
2022-10-11T04:07	10	-1	0.1	-2	-1	352	0.2	352	353	10.6	96.4
2022-10-11T04:08	10	-1	0.1	-2	-1	352	0.2	352	353	10.6	95.9
2022-10-11T04:09	10	-1	0.1	-2	-1	352	0.3	351	352	10.6	95.5
2022-10-11T04:10	10	-1	0.1	-1	-1	352	0.3	352	353	10.5	95.3
2022-10-11T04:11	10	-1	0.1	-1	-1	353	0.2	352	353	10.4	95.3
2022-10-11T04:12	10	-1	0.2	-1	0	353	0.3	352	354	10.5	95.5
2022-10-11T04:13	10	-1	0.2	-1	0	354	0.2	353	354	10.7	95.6
2022-10-11T04:14	10	-1	0.1	-1	0	354	0.3	352	354	10.9	95.3
2022-10-11T04:15	10	-1	0.1	-1	0	354	0.3	353	355	11.0	94.9
2022-10-11T04:16	10	0	0.1	-1	0	354	0.3	353	355	10.9	94.3
2022-10-11T04:17	10	0	0.1	-1	0	354	0.2	353	354	10.8	94.2
2022-10-11T04:18	10	0	0.1	-1	0	354	0.2	353	355	10.8	94.3
2022-10-11T04:19	10	0	0.1	-1	0	354	0.2	354	355	10.9	94.5
2022-10-11T04:20	10	0	0.1	-1	0	354	0.3	354	355	10.9	94.3
2022-10-11T04:21	10	0	0.1	-1	0	354	0.2	354	355	10.9	94.3
2022-10-11T04:22	10	0	0.1	0	0	354	0.2	353	354	11.0	94.3
2022-10-11T04:23	10	0	0.1	0	0	354	0.3	353	354	10.9	94.2
2022-10-11T04:24	10	0	0.1	0	0	353	0.3	352	353	10.8	94.1
2022-10-11T04:25	10	0	0.1	0	0	352	0.4	351	353	10.6	94.1
2022-10-11T04:26	10	0	0.1	0	1	352	0.7	350	353	9.8	93.5
2022-10-11T04:27	10	0	0.1	-1	0	352	0.2	351	352	9.8	94.1
2022-10-11T04:28	10	-1	0.1	-1	-1	352	0.3	351	353	9.9	94.8
2022-10-11T04:29	10	-1	0.1	-1	-1	352	0.3	351	352	9.8	95.2
2022-10-11T04:30	10	-1	0.1	-1	-1	351	0.3	351	352	9.8	95.6
2022-10-11T04:31	10	-1	0.1	-1	-1	351	0.3	351	352	9.7	95.8
2022-10-11T04:32	10	-1	0.1	-1	-1	351	0.2	350	351	9.6	96.0
2022-10-11T04:33	10	-1	0.1	-1	-1	351	0.2	350	351	9.5	96.1
2022-10-11T04:34	10	-1	0.1	-1	0	351	0.2	350	351	9.5	96.4
2022-10-11T04:35	10	-1	0.1	-1	0	351	0.2	350	351	9.5	96.6
2022-10-11T04:36	10	-1	0.1	-1	0	351	0.2	350	351	9.5	96.7
2022-10-11T04:37	10	-1	0.1	-1	0	351	0.2	351	352	9.6	96.9
2022-10-11T04:38	10	-1	0.1	-1	-1	351	0.4	350	352	9.6	97.0
2022-10-11T04:39	10	-1	0.1	-1	-1	351	0.2	351	352	9.6	97.1
2022-10-11T04:40	10	-1	0.1	-1	-1	351	0.2	351	351	9.6	97.1
2022-10-11T04:41	10	-1	0.1	-1	-1	351	0.3	350	351	9.5	97.2
2022-10-11T04:42	10	-1	0.1	-1	-1	351	0.3	350	352	9.4	97.2
2022-10-11T04:43	10	-1	0.1	-1	-1	351	0.3	350	352	9.5	97.2
2022-10-11T04:44	10	-1	0.1	-1	-1	351	0.3	351	352	9.6	97.3
2022-10-11T04:45	10	-1	0.2	-1	-1	351	0.2	351	352	9.6	97.4
2022-10-11T04:46	10	-1	0.1	-1	-1	351	0.2	350	351	9.6	97.4
2022-10-11T04:47	10	-1	0.1	-1	0	351	0.3	350	351	9.6	97.5
2022-10-11T04:48	10	0	0.2	-1	0	350	0.3	350	351	9.6	97.5
2022-10-11T04:49	10	0	0.2	-1	0	350	0.3	349	351	9.6	97.5
2022-10-11T04:50	10	0	0.1	-1	0	350	0.2	350	350	9.5	97.5
2022-10-11T04:51	10	0	0.1	-1	0	350	0.3	349	351	9.5	97.5
2022-10-11T04:52	10	0	0.2	-1	0	350	0.3	349	351	9.4	97.5
2022-10-11T04:53	10	-1	0.2	-1	0	350	0.3	349	351	9.4	97.5
2022-10-11T04:54	10	-1	0.2	-1	0	350	0.2	349	350	9.4	97.6
2022-10-11T04:55	10	-1	0.1	-1	0	350	0.2	349	350	9.5	97.7
2022-10-11T04:56	10	-1	0.1	-1	-1	350	0.3	349	351	9.5	97.7
2022-10-11T04:57	10	-1	0.1	-1	0	350	0.3	350	351	9.5	97.8
2022-10-11T04:58	10	-1	0.2	-1	0	350	0.3	350	351	9.5	97.8
2022-10-11T04:59	10	-1	0.1	-1	0	351	0.3	350	352	9.5	97.9
2022-10-11T05:00	10	-1	0.1	-1	-1	351	0.2	351	351	9.6	97.9
2022-10-11T05:01	10	-1	0.2	-1	0	351	0.2	351	351	9.6	98.0
2022-10-11T05:02	10	-1	0.2	-2	-1	351	0.3	350	351	9.5	97.9
2022-10-11T05:03	10	-1	0.2	-2	-1	351	0.2	350	351	9.5	97.9
2022-10-11T05:04	10	-1	0.2	-1	-1	351	0.3	350	351	9.5	97.9
2022-10-11T05:05	10	-1	0.1	-2	-1	350	0.3	350	351	9.4	97.9
2022-10-11T05:06	10	-1	0.2	-2	-1	351	0.3	350	351	9.4	97.9
2022-10-11T05:07	10	-1	0.2	-2	-1	351	0.3	350	351	9.6	98.0
2022-10-11T05:08	10	-2	0.1	-2	-1	351	0.3	350	351	9.5	98.0
2022-10-11T05:09	10	-2	0.1	-2	-1	350	0.3	350	351	9.4	98.0
2022-10-11T05:10	10	-2	0.1	-2	-1	350	0.3	349	351	9.5	98.0
2022-10-11T05:11	10	-2	0.2	-2	-1	350	0.3	350	351	9.6	98.1
2022-10-11T05:12	10	-2	0.1	-2	-1	351	0.3	350	352	9.7	98.2
2022-10-11T05:13	10	-2	0.2	-2	-1	351	0.3	350	352	9.7	98.2
2022-10-11T05:14	10	-1	0.1	-2	-1	351	0.2	350	351	9.7	98.2
2022-10-11T05:15	10	-1	0.1	-2	-1	351	0.2	350	351	9.6	98.1
2022-10-11T05:16	10	-1	0.1	-1	-1	351	0.3	350	351	9.7	98.1
2022-10-11T05:17	10	-1	0.2	-1	-1	350	0.3	350	351	9.7	98.1
2022-10-11T05:18	10	-1	0.1	-1	-1	350	0.4	349	351	9.6	98.1
2022-10-11T05:19	10	-1	0.1	-1	-1	349	0.2	349	350	9.5	98.0
2022-10-11T05:20	10	-1	0.1	-1	-1	350	0.3	349	350	9.6	98.0
2022-10-11T05:21	10	-1	0.2	-1	-1	350	0.2	349	350	9.7	98.0
2022-10-11T05:22	10	-1	0.1	-1	-1	350	0.3	349	350	9.8	98.1
2022-10-11T05:23	10	-1	0.1	-1	-1	350	0.3	349	350	9.8	98.1
2022-10-11T05:24	10	-1	0.1	-1	-1	350	0.3	349	350	9.9	98.1
2022-10-11T05:25	10	-1	0.1	-1	0	349	0.3	348	350	9.7	97.9
2022-10-11T05:26	10	-1	0.1	-1	0	349	0.3	348	349	9.1	97.6
2022-10-11T05:27	10	-1	0.1	-1	0	349	0.2	348	349	9.1	97.5
2022-10-11T05:28	10	-1	0.2	-1	0	349	0.2	348	349	9.2	97.5
2022-10-11T05:29	10	-1	0.1	-1	0	349	0.2	348	349	9.3	97.6
2022-10-11T05:30	10	0	0.1	-1	0	348	0.5	348	350	9.4	97.8
2022-10-11T05:31	10	0	0.1	-1	0	349	0.3	348	350	9.6	97.9
2022-10-11T05:32	10	0	0.2	0	0	348	0.3	348	349	9.7	97.9
2022-10-11T05:33	10	0	0.2	0	0	348	0.2	348	349	9.6	97.9
2022-10-11T05:34	10	0	0.1	0	0	348	0.4	347	349	9.7	97.9
2022-10-11T05:35	10	0	0.1	0	1	348	0.3	347	349	9.6	97.9
2022-10-11T05:36	10	0	0.1	0	0	348	0.3	348	349	9.6	97.9
2022-10-11T05:37	10	0	0.1	0	1	349	0.3	348	350	9.6	97.8
2022-10-11T05:38	10	0	0.2	0	1	349	0.2	348	349	9.6	97.8
2022-10-11T05:39	10	0	0.1	0	1	349	0.3	348	350	9.5	97.8
2022-10-11T05:40	10	0	0.2	0	1	349	0.2	348	349	9.4	97.8
2022-10-11T05:41	10	0	0.1	0	1	349	0.2	349	349	9.4	97.8
2022-10-11T05:42	10	0	0.1	0	1	349	0.2	349	350	9.3	97.8
2022-10-11T05:43	10	0	0.2	0	1	350	0.3	349	351	9.2	97.8
2022-10-11T05:44	10	0	0.1	0	0	350	0.4	350	351	9.2	97.8
2022-10-11T05:45	10	0	0.1	0	0	351	0.3	350	351	9.2	97.9
2022-10-11T05:46	10	0	0.1	0	0	351	0.3	351	352	9.3	98.0
2022-10-11T05:47	10	0	0.1	0	0	352	0.3	352	353	9.3	98.0
2022-10-11T05:48	10	0	0.1	0	0	353	0.4	353	354	9.3	98.0
2022-10-11T05:49	10	0	0.1	0	0	354	0.3	354	355	9.3	98.1
2022-10-11T05:50	10	0	0.1	0	0	355	0.3	354	355	9.3	98.1
2022-10-11T05:51	10	0	0.1	0	0	355	0.3	355	356	9.4	98.2
2022-10-11T05:52	10	0	0.1	0	0	356	0.3	355	357	9.5	98.3
2022-10-11T05:53	10	0	0.1	0	0	357	0.3	356	357	9.5	98.3
2022-10-11T05:54	10	0	0.1	0	0	358	0.2	357	358	9.6	98.3
2022-10-11T05:55	10	0	0.1	0	1	359	0.3	358	359	9.6	98.4
2022-10-11T05:56	10	0	0.1	0	1	359	0.2	359	360	9.7	98.4
2022-10-11T05:57	10	1	0.1	0	1	360	0.4	359	361	9.9	98.5
2022-10-11T05:58	10	1	0.1	1	1	361	0.3	360	362	9.9	98.6
2022-10-11T05:59	10	1	0.1	1	1	361	0.3	361	362	9.9	98.6
2022-10-11T06:00	10	1	0.2	1	2	362	0.3	361	362	10.0	98.7
2022-10-11T06:01	10	2	0.1	1	2	362	0.2	362	362	9.9	98.8
2022-10-11T06:02	10	2	0.1	2	2	362	0.2	362	363	9.9	98.8
2022-10-11T06:03	10	2	0.1	2	2	362	0.2	362	363	9.9	98.8
2022-10-11T06:04	10	2	0.1	2	3	363	0.2	362	363	9.9	98.8
2022-10-11T06:05	10	3	0.1	2	3	363	0.3	362	364	9.9	98.9
2022-10-11T06:06	10	3	0.1	3	3	363	0.2	363	363	9.9	98.9
2022-10-11T06:07	10	3	0.1	3	3	363	0.2	362	363	9.9	98.9
2022-10-11T06:08	10	3	0.2	3	4	363	0.3	362	364	10.0	99.0
2022-10-11T06:09	10	4	0.2	3	4	363	0.2	363	364	10.0	99.0
2022-10-11T06:10	10	4	0.2	4	5	364	0.2	363	364	10.1	99.1
2022-10-11T06:11	10	5	0.1	4	5	364	0.2	364	364	10.1	99.1
2022-10-11T06:12	10	4	0.1	4	5	364	0.3	363	364	10.0	99.2
2022-10-11T06:13	10	4	0.1	4	5	364	0.2	363	364	9.9	99.2
2022-10-11T06:14	10	5	0.1	4	5	364	0.4	363	364	9.5	99.2
2022-10-11T06:15	10	4	0.1	4	5	363	0.3	362	364	9.5	99.2
2022-10-11T06:16	10	4	0.1	4	5	363	0.2	363	364	9.6	99.2
2022-10-11T06:17	10	4	0.1	4	5	363	0.3	363	364	9.6	99.2
2022-10-11T06:18	10	5	0.2	4	5	363	0.2	363	363	9.6	99.2
2022-10-11T06:19	10	5	0.2	5	5	363	0.2	362	363	9.4	99.2
2022-10-11T06:20	10	5	0.2	5	6	363	0.2	362	363	9.3	99.2
2022-10-11T06:21	10	5	0.1	5	6	363	0.3	362	364	9.3	99.2
2022-10-11T06:22	10	6	0.2	5	6	363	0.2	362	364	9.3	99.2
2022-10-11T06:23	10	6	0.1	6	6	363	0.3	363	364	9.3	99.2
2022-10-11T06:24	10	6	0.2	6	7	363	0.2	363	364	9.2	99.2
2022-10-11T06:25	10	6	0.2	6	7	363	0.3	363	364	9.3	99.2
2022-10-11T06:26	10	7	0.2	6	7	363	0.3	362	364	9.4	99.2
2022-10-11T06:27	10	7	0.2	7	8	364	0.3	363	364	9.5	99.2
2022-10-11T06:28	10	8	0.2	7	8	364	0.3	363	364	9.6	99.2
2022-10-11T06:29	10	8	0.2	8	8	364	0.2	364	365	9.6	99.2
2022-10-11T06:30	10	9	0.2	8	9	364	0.3	363	365	9.7	99.2
2022-10-11T06:31	10	9	0.1	9	9	364	0.3	363	365	9.7	99.2
2022-10-11T06:32	10	11	0.9	9	12	364	0.3	363	365	9.8	99.2
2022-10-11T06:33	10	12	0.2	11	12	365	0.2	364	365	9.8	99.2
2022-10-11T06:34	10	11	0.3	11	12	365	0.2	365	365	9.9	99.2
2022-10-11T06:35	10	11	0.2	10	11	365	0.3	364	366	9.9	99.2
2022-10-11T06:36	10	11	0.2	10	11	365	0.2	365	366	9.9	99.2
2022-10-11T06:37	10	11	0.2	10	11	365	0.4	364	366	9.9	99.2
2022-10-11T06:38	10	11	0.2	11	11	365	0.3	365	366	10.0	99.2
2022-10-11T06:39	10	12	0.4	11	12	365	0.3	365	366	10.0	99.2
2022-10-11T06:40	10	13	0.4	12	14	365	0.4	365	366	10.0	99.2
2022-10-11T06:41	10	14	0.4	13	15	365	0.2	365	366	10.0	99.2
2022-10-11T06:42	10	15	0.2	14	15	365	0.3	364	366	10.0	99.2
2022-10-11T06:43	10	17	0.8	15	18	365	0.4	365	366	10.0	99.2
2022-10-11T06:44	10	19	0.7	18	21	366	0.3	365	366	10.1	99.2
2022-10-11T06:45	10	26	3.1	21	31	366	0.5	365	367	10.1	99.2
2022-10-11T06:46	10	32	0.6	31	34	367	0.4	366	368	10.1	99.2
2022-10-11T06:47	10	32	1.0	30	33	367	0.3	366	368	10.1	99.2
2022-10-11T06:48	10	30	0.5	29	31	368	0.4	367	368	10.1	99.2
2022-10-11T06:49	10	32	1.0	30	34	368	0.3	367	368	10.1	99.2
2022-10-11T06:50	10	32	1.0	30	33	368	0.4	367	369	10.2	99.2
2022-10-11T06:51	10	28	2.0	24	30	368	0.5	366	369	10.2	99.2
2022-10-11T06:52	10	25	0.9	24	27	367	0.3	367	368	10.2	99.2
2022-10-11T06:53	10	27	0.4	26	27	367	0.2	367	368	10.3	99.2
2022-10-11T06:54	10	24	0.6	23	26	368	0.3	367	368	10.3	99.2
2022-10-11T06:55	10	23	0.1	23	24	368	0.6	367	368	10.3	99.2
2022-10-11T06:56	10	24	1.2	22	26	368	0.3	367	368	10.3	99.2
2022-10-11T06:57	10	28	0.9	26	29	368	0.3	367	369	10.3	99.2
2022-10-11T06:58	10	32	1.2	29	33	368	0.3	368	369	10.4	99.2
2022-10-11T06:59	10	36	1.6	33	38	369	0.3	368	369	10.2	99.2
2022-10-11T07:00	10	32	0.8	30	33	369	0.3	368	369	10.2	99.2
2022-10-11T07:01	10	28	1.1	26	30	369	0.2	368	369	10.2	99.2
2022-10-11T07:02	10	26	0.3	26	27	369	0.5	368	370	10.3	99.2
2022-10-11T07:03	10	26	0.3	25	27	369	0.6	368	370	10.3	99.2
2022-10-11T07:04	10	22	1.5	20	25	369	0.7	368	370	10.3	99.2
2022-10-11T07:05	10	19	1.2	17	20	368	0.3	368	369	10.0	99.2
2022-10-11T07:06	10	16	0.1	16	16	368	0.5	367	369	10.0	99.2
2022-10-11T07:07	10	17	0.8	16	19	368	0.3	367	368	9.9	99.2
2022-10-11T07:08	10	21	1.1	19	22	367	0.4	367	368	9.9	99.2
2022-10-11T07:09	10	24	1.1	22	26	368	0.3	367	368	9.9	99.2
2022-10-11T07:10	10	23	1.5	21	26	368	0.3	367	368	9.9	99.2
2022-10-11T07:11	10	21	0.4	20	22	368	0.6	366	369	9.9	99.2
2022-10-11T07:12	10	22	1.0	21	24	368	0.2	367	368	9.9	99.2
2022-10-11T07:13	10	25	0.8	23	26	368	0.3	367	368	9.9	99.2
2022-10-11T07:14	10	25	0.4	24	26	368	0.3	367	369	9.9	99.2
2022-10-11T07:15	10	28	2.3	25	33	368	0.2	368	369	10.0	99.2
2022-10-11T07:16	10	38	1.9	33	42	369	0.5	368	370	10.0	99.2
2022-10-11T07:17	10	46	2.9	42	52	370	0.4	369	370	10.1	99.2
2022-10-11T07:18	10	54	1.2	52	56	370	0.5	369	371	10.2	99.2
2022-10-11T07:19	10	55	2.7	51	58	372	0.4	371	373	10.3	99.2
2022-10-11T07:20	10	49	2.3	46	53	371	0.4	370	372	10.1	99.2
2022-10-11T07:21	10	47	0.9	46	48	371	0.3	370	371	10.1	99.2
2022-10-11T07:22	10	46	1.1	44	48	371	0.3	370	371	10.2	99.2
2022-10-11T07:23	10	48	1.2	45	50	372	0.3	371	373	10.4	99.2
2022-10-11T07:24	10	51	1.2	49	53	372	0.3	372	373	10.4	99.2
2022-10-11T07:25	10	55	0.9	53	56	373	0.3	372	374	10.6	99.2
2022-10-11T07:26	10	51	3.2	46	56	374	0.3	373	374	10.6	99.2
2022-10-11T07:27	10	45	1.0	43	46	374	0.2	373	374	10.6	99.2
2022-10-11T07:28	10	44	1.3	42	47	374	0.2	373	374	10.7	99.2
2022-10-11T07:29	10	52	2.6	47	56	374	0.3	374	375	10.7	99.2
2022-10-11T07:30	10	55	3.1	49	58	375	0.4	374	376	10.8	99.2
2022-10-11T07:31	10	55	3.4	49	59	376	0.3	375	377	10.8	99.2
2022-10-11T07:32	10	61	0.6	59	62	377	0.2	376	378	11.0	99.2
2022-10-11T07:33	10	63	0.6	62	64	378	0.3	377	378	11.1	99.2
2022-10-11T07:34	10	64	0.8	62	65	378	0.2	378	379	11.0	99.2
2022-10-11T07:35	10	63	0.6	62	65	378	0.2	378	379	11.0	99.2
2022-10-11T07:36	10	69	1.8	65	72	379	0.4	378	380	11.1	99.2
2022-10-11T07:37	10	68	1.5	66	70	380	0.2	379	380	11.1	99.2
2022-10-11T07:38	10	64	0.9	62	65	380	0.3	379	380	11.1	99.2
2022-10-11T07:39	10	62	0.4	61	62	380	0.3	379	380	11.1	99.2
2022-10-11T07:40	10	59	0.9	58	61	379	0.5	378	380	11.1	99.2
2022-10-11T07:41	10	59	1.0	57	61	379	0.3	378	380	11.0	99.2
2022-10-11T07:42	10	55	0.6	54	57	379	1.2	376	380	10.9	99.2
2022-10-11T07:43	10	56	0.9	55	58	378	0.9	376	379	10.8	99.2
2022-10-11T07:44	10	55	0.6	54	56	377	0.3	376	377	10.8	99.2
2022-10-11T07:45	10	59	1.7	57	62	378	0.4	377	379	10.7	99.2
2022-10-11T07:46	10	63	0.8	62	65	377	0.4	377	379	10.7	99.2
2022-10-11T07:47	10	63	1.4	62	65	377	0.3	377	378	10.6	99.2
2022-10-11T07:48	10	63	0.5	62	63	377	0.3	377	378	10.6	99.2
2022-10-11T07:49	10	59	2.0	56	62	378	0.3	377	378	10.7	99.2
2022-10-11T07:50	10	56	0.2	56	56	378	0.3	377	378	10.7	99.2
2022-10-11T07:51	10	56	0.6	55	57	378	0.5	377	379	10.7	99.2
2022-10-11T07:52	10	56	1.2	54	58	379	0.3	378	379	10.9	99.2
2022-10-11T07:53	10	60	2.0	58	64	379	0.2	378	379	10.8	99.2
2022-10-11T07:54	10	64	0.7	63	65	380	0.4	379	381	10.9	99.2
2022-10-11T07:55	10	64	0.3	63	64	380	0.3	380	381	11.0	99.2
2022-10-11T07:56	10	63	0.8	62	65	381	0.3	380	381	11.0	99.2
2022-10-11T07:57	10	65	0.6	64	66	381	0.3	380	381	11.0	99.2
2022-10-11T07:58	10	66	0.8	64	67	381	0.3	380	381	10.9	99.2
2022-10-11T07:59	10	68	1.8	65	71	381	0.3	380	381	10.9	99.2
2022-10-11T08:00	10	67	1.2	66	71	381	0.2	381	382	10.9	99.2
2022-10-11T08:01	10	73	0.6	71	74	382	0.2	381	382	11.0	99.2
2022-10-11T08:02	10	65	4.2	56	72	382	0.3	381	383	11.1	99.2
2022-10-11T08:03	10	59	3.9	55	65	382	0.3	381	382	11.1	99.2
2022-10-11T08:04	10	66	2.4	64	74	382	0.3	381	383	11.2	99.2
2022-10-11T08:05	10	78	1.3	74	80	383	0.5	382	384	11.2	99.2
2022-10-11T08:06	10	81	0.6	80	82	384	0.3	384	385	11.2	99.2
2022-10-11T08:07	10	82	0.2	81	82	385	0.2	384	385	11.3	99.2
2022-10-11T08:08	10	83	0.8	82	84	385	0.3	384	386	11.4	99.2
2022-10-11T08:09	10	84	1.1	83	86	386	0.4	385	387	11.4	99.2
2022-10-11T08:10	10	85	1.0	84	86	387	0.2	386	387	11.6	99.2
2022-10-11T08:11	10	83	0.2	83	84	387	0.2	387	388	11.6	99.2
2022-10-11T08:12	10	83	0.2	83	84	388	0.3	387	388	11.7	99.2
2022-10-11T08:13	10	83	0.6	82	84	389	0.2	388	389	12.0	99.2
2022-10-11T08:14	10	84	0.6	83	85	389	0.2	388	389	12.1	99.2
2022-10-11T08:15	10	87	0.9	85	88	390	0.3	389	390	12.2	99.2
2022-10-11T08:16	10	88	0.4	87	89	390	0.2	389	390	12.2	99.2
2022-10-11T08:17	10	90	0.7	89	91	391	0.2	390	391	12.4	99.2
2022-10-11T08:18	10	92	0.2	91	92	391	0.3	391	392	12.5	99.2
2022-10-11T08:19	10	94	0.8	92	95	392	0.3	391	392	12.5	99.2
2022-10-11T08:20	10	95	0.6	94	96	392	0.3	392	393	12.5	99.2
2022-10-11T08:21	10	96	0.4	95	97	393	0.2	392	393	12.8	99.2
2022-10-11T08:22	10	89	3.9	83	95	393	0.5	392	394	12.9	99.2
2022-10-11T08:23	10	81	0.6	80	83	392	1.6	389	394	12.8	99.2
2022-10-11T08:24	10	76	2.4	73	80	392	0.8	391	394	12.7	99.2
2022-10-11T08:25	10	88	6.3	76	96	392	0.5	391	393	12.6	99.2
2022-10-11T08:26	10	97	0.4	96	98	393	0.2	393	393	12.7	99.2
2022-10-11T08:27	10	97	1.2	95	98	394	0.4	393	395	12.9	99.2
2022-10-11T08:28	10	91	3.1	86	95	394	0.2	394	395	13.0	99.2
2022-10-11T08:29	10	90	2.3	86	93	394	0.4	393	395	12.9	99.2
2022-10-11T08:30	10	92	1.0	91	94	395	0.3	394	395	12.8	99.2
2022-10-11T08:31	10	94	0.2	93	95	395	0.7	393	396	12.9	99.2
2022-10-11T08:32	10	96	0.9	94	97	396	0.6	394	397	12.8	99.2
2022-10-11T08:33	10	97	0.4	96	98	395	0.5	394	396	12.7	99.2
2022-10-11T08:34	10	97	0.6	96	98	395	0.6	394	397	12.7	99.2
2022-10-11T08:35	10	100	2.0	96	103	395	0.3	394	396	12.8	99.2
2022-10-11T08:36	10	105	0.9	103	106	396	0.5	395	397	12.9	99.2
2022-10-11T08:37	10	102	0.7	102	104	396	0.6	395	397	12.9	99.2
2022-10-11T08:38	10	103	0.7	102	104	397	0.5	396	398	12.9	99.2
2022-10-11T08:39	10	104	0.8	103	105	397	0.4	397	398	13.0	99.2
2022-10-11T08:40	10	104	1.2	103	106	398	0.4	397	399	13.0	99.2
2022-10-11T08:41	10	108	1.6	106	111	398	0.3	397	398	12.8	99.2
2022-10-11T08:42	10	112	0.5	111	113	399	0.8	397	400	12.9	99.2
2022-10-11T08:43	10	112	1.0	110	114	400	0.3	399	400	13.0	99.2
2022-10-11T08:44	10	114	0.2	114	114	401	0.3	400	401	13.4	99.2
2022-10-11T08:45	10	114	0.7	113	116	401	0.4	401	402	13.6	99.2
2022-10-11T08:46	10	117	0.6	116	118	401	0.3	401	402	13.3	99.2
2022-10-11T08:47	10	118	0.3	118	119	402	0.3	401	403	13.4	99.2
2022-10-11T08:48	10	120	0.4	119	121	402	0.6	401	403	13.5	99.2
2022-10-11T08:49	10	116	7.9	99	121	403	0.4	402	404	13.4	99.2
2022-10-11T08:50	10	112	10.0	99	124	402	0.5	401	403	13.5	99.2
2022-10-11T08:51	10	124	0.5	123	125	404	0.6	403	405	13.6	99.2
2022-10-11T08:52	10	123	4.9	110	126	405	0.5	404	406	13.7	99.2
2022-10-11T08:53	10	115	3.0	110	120	404	0.3	403	405	13.6	99.2
2022-10-11T08:54	10	116	4.3	113	126	404	0.5	403	405	13.7	99.2
2022-10-11T08:55	10	129	0.8	127	130	406	0.5	404	406	13.6	99.0
2022-10-11T08:56	10	130	0.2	130	130	406	0.4	405	407	13.6	98.8
2022-10-11T08:57	10	122	6.5	113	131	406	0.5	405	407	13.6	98.5
2022-10-11T08:58	10	132	0.7	129	132	407	0.4	406	408	13.7	98.3
2022-10-11T08:59	10	132	0.4	131	132	408	0.4	407	409	13.8	97.8
2022-10-11T09:00	10	128	1.6	126	131	408	0.2	407	408	13.9	96.4
2022-10-11T09:01	10	126	1.0	124	127	408	0.5	407	409	14.0	94.2
2022-10-11T09:02	10	129	0.8	128	130	408	0.6	407	410	14.0	90.5
2022-10-11T09:03	10	131	1.4	130	134	408	0.3	407	409	13.9	88.0
2022-10-11T09:04	10	136	0.7	134	137	409	0.8	408	411	14.0	86.8
2022-10-11T09:05	10	135	0.2	134	135	411	0.5	410	412	14.4	86.2
2022-10-11T09:06	10	141	3.3	135	147	412	0.6	410	413	14.2	83.9
2022-10-11T09:07	10	148	0.4	147	149	412	0.6	410	413	14.2	83.8
2022-10-11T09:08	10	149	0.4	148	150	412	0.4	411	413	14.3	83.2
2022-10-11T09:09	10	148	2.0	145	151	412	1.1	410	414	14.4	83.7
2022-10-11T09:10	10	150	1.4	147	151	412	0.5	411	413	14.2	82.3
2022-10-11T09:11	10	151	0.3	150	151	412	0.4	411	413	14.2	81.7
2022-10-11T09:12	10	152	0.3	151	153	414	0.4	413	414	14.3	81.7
2022-10-11T09:13	10	144	4.3	137	152	413	0.9	411	414	14.4	81.7
2022-10-11T09:14	10	134	1.2	132	136	411	0.3	410	412	14.3	80.8
2022-10-11T09:15	10	133	3.4	124	136	413	1.3	410	414	14.6	82.1
2022-10-11T09:16	10	113	4.5	109	123	411	1.1	410	414	14.8	81.5
2022-10-11T09:17	10	114	0.7	112	115	410	0.8	409	412	14.7	81.3
2022-10-11T09:18	10	116	4.1	106	121	410	1.0	408	412	14.6	81.6
2022-10-11T09:19	10	102	1.8	100	106	408	0.7	407	410	14.4	81.5
2022-10-11T09:20	10	100	0.6	100	102	409	0.8	407	410	14.7	82.9
2022-10-11T09:21	10	87	6.0	82	100	406	1.5	404	409	14.6	80.4
2022-10-11T09:22	10	87	1.5	85	90	405	0.3	404	405	14.6	81.5
2022-10-11T09:23	10	85	1.5	83	89	404	0.3	404	405	14.6	81.9
2022-10-11T09:24	10	93	3.0	90	101	404	0.2	404	405	14.5	81.5
2022-10-11T09:25	10	97	7.2	84	103	405	0.3	404	405	14.5	82.1
2022-10-11T09:26	10	87	1.7	84	89	405	0.5	404	406	14.6	82.4
2022-10-11T09:27	10	89	6.7	76	97	406	0.9	404	407	14.6	82.1
2022-10-11T09:28	10	74	0.9	73	76	404	0.3	404	405	14.7	82.9
2022-10-11T09:29	10	82	10.2	75	109	404	0.5	403	405	14.8	83.7
2022-10-11T09:30	10	101	14.8	78	115	406	0.8	404	407	14.6	82.1
2022-10-11T09:31	10	85	4.6	78	92	404	0.6	403	405	14.6	81.5
2022-10-11T09:32	10	80	2.4	77	85	403	0.3	402	403	14.5	81.4
2022-10-11T09:33	10	76	3.6	71	81	402	0.5	401	403	14.5	81.3
2022-10-11T09:34	10	72	0.8	70	73	401	0.3	401	402	14.6	82.1
2022-10-11T09:35	10	76	7.3	71	99	401	0.5	400	402	14.8	82.9
2022-10-11T09:36	10	104	2.2	100	108	403	0.7	401	404	14.6	82.2
2022-10-11T09:37	10	88	7.8	81	103	403	0.3	402	404	14.4	81.6
2022-10-11T09:38	10	95	10.7	78	111	405	0.7	404	406	14.4	82.2
2022-10-11T09:39	10	81	3.2	78	94	403	0.8	401	404	14.6	81.4
2022-10-11T09:40	10	94	7.9	81	102	402	0.3	402	403	14.5	80.9
2022-10-11T09:41	10	90	8.4	78	99	404	1.3	402	406	14.6	81.4
2022-10-11T09:42	10	95	8.9	79	107	404	0.3	404	405	14.5	81.1
2022-10-11T09:43	10	89	3.7	80	96	405	0.5	403	406	14.6	81.8
2022-10-11T09:44	10	100	7.4	83	112	407	1.2	405	409	14.9	82.5
2022-10-11T09:45	10	87	4.9	79	94	408	0.7	406	409	15.2	83.2
2022-10-11T09:46	10	108	12.5	94	130	408	0.7	407	411	15.3	82.6
2022-10-11T09:47	10	146	12.9	125	162	412	1.9	409	415	15.0	81.2
2022-10-11T09:48	10	102	13.2	90	139	410	2.3	407	415	15.1	81.2
2022-10-11T09:49	10	95	4.2	89	103	407	0.7	406	409	14.8	80.9
2022-10-11T09:50	10	91	1.9	88	95	406	0.8	404	407	14.8	81.5
2022-10-11T09:51	10	86	1.0	83	88	405	0.4	404	406	14.6	81.4
2022-10-11T09:52	10	78	3.5	73	83	405	0.3	404	405	14.7	81.4
2022-10-11T09:53	10	81	8.0	74	104	405	1.2	403	408	14.9	81.6
2022-10-11T09:54	10	111	15.7	80	127	409	1.9	405	412	15.2	82.0
2022-10-11T09:55	10	79	1.8	76	81	408	0.9	407	410	15.4	82.3
2022-10-11T09:56	10	83	3.1	78	88	406	0.8	404	407	15.2	79.7
2022-10-11T09:57	10	96	5.9	88	111	405	0.7	404	406	15.1	80.0
2022-10-11T09:58	10	119	8.9	104	134	408	1.0	406	409	15.1	79.5
2022-10-11T09:59	10	80	8.4	71	103	407	1.4	405	409	15.1	79.7
2022-10-11T10:00	10	82	12.5	71	103	406	0.7	405	408	15.3	80.1
2022-10-11T10:01	10	96	6.7	89	115	407	0.7	407	410	15.2	79.0
2022-10-11T10:02	10	89	16.3	74	118	408	1.8	405	411	15.5	79.7
2022-10-11T10:03	10	78	5.6	72	98	406	0.6	405	407	15.3	79.3
2022-10-11T10:04	10	100	11.0	82	114	408	1.2	406	410	15.5	80.2
2022-10-11T10:05	10	89	9.7	78	104	406	0.6	405	407	15.4	79.3
2022-10-11T10:06	10	92	4.2	85	98	406	0.4	405	407	15.3	78.9
2022-10-11T10:07	10	84	5.0	76	91	404	1.3	402	407	15.3	78.8
2022-10-11T10:08	10	88	4.5	79	94	403	0.6	402	404	15.4	78.8
2022-10-11T10:09	10	100	9.3	87	116	403	1.2	402	406	15.3	78.8
2022-10-11T10:10	10	121	1.4	117	123	408	1.9	405	411	15.4	79.2
2022-10-11T10:11	10	123	2.6	119	126	410	0.8	409	412	15.6	79.8
2022-10-11T10:12	10	126	1.5	123	129	411	0.4	411	412	15.6	78.9
2022-10-11T10:13	10	131	1.3	129	133	413	0.7	412	414	15.8	79.4
2022-10-11T10:14	10	133	1.1	131	135	415	0.7	414	416	15.8	78.7
2022-10-11T10:15	10	133	0.2	133	134	415	0.8	414	417	15.8	78.9
2022-10-11T10:16	10	125	6.2	113	133	414	0.8	413	415	16.1	78.9
2022-10-11T10:17	10	124	2.3	119	127	413	0.3	413	414	16.3	78.5
2022-10-11T10:18	10	123	1.6	120	126	412	0.9	411	414	16.0	76.8
2022-10-11T10:19	10	122	2.9	118	126	412	0.6	410	413	15.9	77.0
2022-10-11T10:20	10	129	2.2	125	131	412	1.1	411	415	15.9	77.3
2022-10-11T10:21	10	130	1.1	128	132	414	0.6	413	414	16.0	77.7
2022-10-11T10:22	10	125	1.4	122	128	412	0.5	411	413	16.1	77.7
2022-10-11T10:23	10	127	2.6	123	132	410	0.5	409	412	16.0	77.8
2022-10-11T10:24	10	132	1.0	130	134	412	1.5	410	415	16.0	78.0
2022-10-11T10:25	10	123	7.7	113	133	414	1.4	411	416	16.2	79.0
2022-10-11T10:26	10	126	3.0	120	129	413	0.4	412	414	16.3	78.2
2022-10-11T10:27	10	123	0.9	121	125	412	1.2	410	414	16.0	77.7
2022-10-11T10:28	10	121	0.6	120	123	411	0.6	410	412	16.2	78.6
2022-10-11T10:29	10	127	1.9	123	129	412	0.9	410	413	16.2	78.3
2022-10-11T10:30	10	129	0.5	128	130	414	1.5	412	417	16.2	78.6
2022-10-11T10:31	10	127	1.8	125	130	416	0.5	415	417	16.5	78.8
2022-10-11T10:32	10	128	0.9	127	130	417	0.8	415	418	16.6	78.5
2022-10-11T10:33	10	128	0.6	126	129	415	0.4	414	416	16.1	77.3
2022-10-11T10:34	10	122	3.0	119	130	414	0.4	413	415	16.1	78.3
2022-10-11T10:35	10	133	0.8	130	134	413	0.3	413	414	16.1	78.2
2022-10-11T10:36	10	131	2.2	128	134	413	0.5	412	414	16.0	78.2
2022-10-11T10:37	10	139	1.5	134	141	414	0.7	413	415	15.9	77.8
2022-10-11T10:38	10	139	0.6	138	140	414	0.4	413	415	15.9	77.9
2022-10-11T10:39	10	140	0.3	139	140	415	1.0	414	418	16.2	78.2
2022-10-11T10:40	10	141	0.8	140	143	418	0.5	417	419	16.4	78.0
2022-10-11T10:41	10	132	11.4	117	144	418	1.3	416	420	16.3	77.9
2022-10-11T10:42	10	122	3.1	119	131	417	0.5	416	418	16.1	77.9
2022-10-11T10:43	10	136	1.0	132	137	419	0.7	417	421	16.4	79.1
2022-10-11T10:44	10	139	2.2	131	143	420	0.6	420	422	16.4	77.9
2022-10-11T10:45	10	135	9.0	119	147	421	0.7	420	423	16.6	78.4
2022-10-11T10:46	10	146	1.1	144	147	420	0.5	419	421	16.5	77.2
2022-10-11T10:47	10	144	0.5	143	145	421	0.3	420	421	16.6	77.5
2022-10-11T10:48	10	143	1.5	141	145	420	0.6	419	421	16.5	76.8
2022-10-11T10:49	10	129	5.5	123	141	422	0.4	421	423	16.7	77.9
2022-10-11T10:50	10	135	1.5	132	138	421	0.6	419	422	17.0	77.6
2022-10-11T10:51	10	139	2.2	135	144	422	0.6	420	423	17.0	76.9
2022-10-11T10:52	10	144	0.6	143	145	421	0.3	421	422	16.8	77.0
2022-10-11T10:53	10	142	1.8	138	144	421	1.4	419	423	17.0	77.4
2022-10-11T10:54	10	143	3.3	137	146	420	0.5	419	421	16.7	76.6
2022-10-11T10:55	10	143	1.2	141	146	422	0.6	421	423	16.6	76.9
2022-10-11T10:56	10	123	10.6	109	144	420	2.1	418	424	16.7	76.1
2022-10-11T10:57	10	147	0.7	145	148	424	1.6	421	426	16.9	76.6
2022-10-11T10:58	10	150	3.2	145	157	426	0.6	424	427	17.1	76.3
2022-10-11T10:59	10	160	1.2	157	162	425	1.4	423	427	17.0	75.2
2022-10-11T11:00	10	159	4.3	149	164	424	0.5	423	425	16.8	75.7
2022-10-11T11:01	10	149	4.3	143	156	424	0.8	423	426	16.9	75.3
2022-10-11T11:02	10	149	2.5	145	155	426	0.4	426	427	17.1	75.7
2022-10-11T11:03	10	140	7.3	129	149	424	1.5	422	427	17.1	75.4
2022-10-11T11:04	10	148	5.6	129	154	422	0.7	421	423	17.0	74.7
2022-10-11T11:05	10	130	9.7	119	147	420	0.5	420	422	16.7	75.2
2022-10-11T11:06	10	136	10.2	120	146	420	1.0	418	421	17.0	76.4
2022-10-11T11:07	10	139	6.3	123	149	421	1.3	419	423	17.1	76.3
2022-10-11T11:08	10	133	7.8	118	141	421	0.4	420	422	17.0	76.0
2022-10-11T11:09	10	128	10.6	106	140	421	0.5	420	422	16.8	74.6
2022-10-11T11:10	10	102	4.1	97	109	419	0.5	418	420	16.8	75.3
2022-10-11T11:11	10	106	5.1	98	115	420	0.3	420	421	17.0	76.0
2022-10-11T11:12	10	106	5.2	98	116	420	1.1	418	421	17.3	76.2
2022-10-11T11:13	10	121	3.6	116	126	419	0.5	418	420	17.1	74.7
2022-10-11T11:14	10	130	3.9	124	137	421	0.5	420	422	17.2	74.8
2022-10-11T11:15	10	135	4.1	128	139	423	0.8	422	424	17.2	74.1
2022-10-11T11:16	10	146	5.0	138	154	423	0.9	421	425	17.2	73.1
2022-10-11T11:17	10	150	1.5	148	154	423	0.4	422	424	17.1	72.7
2022-10-11T11:18	10	152	1.1	150	154	422	0.6	421	423	17.1	73.1
2022-10-11T11:19	10	145	2.9	141	150	423	0.5	422	424	17.1	73.7
2022-10-11T11:20	10	143	1.5	139	145	421	0.6	420	422	17.2	73.5
2022-10-11T11:21	10	126	12.0	107	140	422	0.9	420	424	17.3	72.9
2022-10-11T11:22	10	116	9.7	104	131	420	1.1	418	422	17.3	72.8
2022-10-11T11:23	10	133	5.6	117	142	419	0.4	418	420	17.1	72.3
2022-10-11T11:24	10	128	6.7	119	142	419	0.9	417	420	17.1	72.2
2022-10-11T11:25	10	114	2.5	111	123	416	1.1	414	418	17.2	72.1
2022-10-11T11:26	10	110	2.9	105	114	416	0.7	414	417	17.2	71.9
2022-10-11T11:27	10	101	5.1	90	110	416	0.5	415	417	17.3	72.3
2022-10-11T11:28	10	105	4.2	99	112	413	1.1	411	415	17.2	71.8
2022-10-11T11:29	10	117	17.2	95	148	414	2.3	412	420	16.9	71.5
2022-10-11T11:30	10	151	2.3	147	154	422	2.4	417	426	17.1	71.8
2022-10-11T11:31	10	156	1.7	153	159	425	0.6	424	427	17.4	72.7
2022-10-11T11:32	10	159	0.8	158	161	427	0.7	425	428	17.4	72.9
2022-10-11T11:33	10	156	6.1	146	161	426	1.2	424	428	17.3	71.7
2022-10-11T11:34	10	149	1.6	146	152	424	0.6	423	425	17.2	72.2
2022-10-11T11:35	10	152	0.6	150	153	426	0.6	425	427	17.6	73.7
2022-10-11T11:36	10	155	0.8	153	156	425	0.8	423	426	17.8	73.1
2022-10-11T11:37	10	154	1.0	152	156	424	0.4	423	425	17.5	72.4
2022-10-11T11:38	10	145	5.3	135	152	423	1.7	420	425	17.3	71.0
2022-10-11T11:39	10	119	7.6	104	134	419	1.3	418	422	17.2	69.6
2022-10-11T11:40	10	95	3.5	92	103	417	1.0	416	419	17.3	71.0
2022-10-11T11:41	10	88	2.4	83	92	416	0.8	414	417	17.3	71.3
2022-10-11T11:42	10	79	2.2	76	83	413	0.5	412	414	17.2	70.1
2022-10-11T11:43	10	75	1.2	73	77	412	0.5	411	413	17.3	70.5
2022-10-11T11:44	10	73	0.4	73	74	412	0.4	411	413	17.4	71.1
2022-10-11T11:45	10	77	1.3	74	80	410	0.4	410	411	17.3	71.8
2022-10-11T11:46	10	90	8.7	80	109	413	1.2	411	415	17.3	72.3
2022-10-11T11:47	10	104	5.4	97	112	415	0.5	414	416	17.4	72.0
2022-10-11T11:48	10	101	3.4	97	110	416	0.7	415	417	17.3	71.7
2022-10-11T11:49	10	97	6.5	90	110	417	0.2	416	418	17.5	71.5
2022-10-11T11:50	10	103	9.7	92	118	419	0.6	418	420	17.6	71.3
2022-10-11T11:51	10	109	4.7	102	117	419	1.0	418	421	17.7	71.6
2022-10-11T11:52	10	124	7.3	108	131	420	0.7	418	421	17.6	70.7
2022-10-11T11:53	10	110	5.7	102	119	419	0.8	418	420	17.6	71.7
2022-10-11T11:54	10	113	10.9	93	129	421	0.9	419	422	17.8	71.7
2022-10-11T11:55	10	87	2.4	84	92	419	1.3	417	421	17.9	71.8
2022-10-11T11:56	10	93	4.4	86	100	417	0.6	416	418	17.7	71.3
2022-10-11T11:57	10	105	10.6	91	122	418	1.8	415	420	17.5	71.5
2022-10-11T11:58	10	104	8.9	93	119	419	0.5	418	420	17.7	71.6
2022-10-11T11:59	10	101	12.7	85	119	419	1.4	416	421	17.7	70.6
2022-10-11T12:00	10	85	0.9	84	87	417	0.5	415	418	17.7	70.9
2022-10-11T12:01	10	86	2.6	82	89	415	0.7	414	417	17.5	70.4
2022-10-11T12:02	10	82	0.2	82	82	415	0.7	414	416	17.4	71.3
2022-10-11T12:03	10	87	5.1	82	104	416	0.5	416	418	17.7	72.7
2022-10-11T12:04	10	110	3.2	105	118	418	0.5	417	419	17.7	72.1
2022-10-11T12:05	10	142	15.8	118	158	421	2.5	418	425	17.7	71.8
2022-10-11T12:06	10	115	19.8	96	156	422	2.0	418	425	17.9	71.6
2022-10-11T12:07	10	120	15.0	98	141	420	1.5	418	422	17.9	70.7
2022-10-11T12:08	10	88	3.6	84	99	418	1.2	416	421	17.9	70.6
2022-10-11T12:09	10	83	0.3	83	84	417	0.3	416	418	18.0	71.6
2022-10-11T12:10	10	86	0.8	84	87	417	0.4	416	417	18.0	72.2
2022-10-11T12:11	10	86	0.4	85	86	415	0.6	414	416	17.9	71.5
2022-10-11T12:12	10	88	0.8	86	90	416	0.6	415	417	17.8	71.0
2022-10-11T12:13	10	99	6.7	90	108	417	0.5	417	418	17.9	70.7
2022-10-11T12:14	10	112	3.7	106	117	417	0.4	416	418	17.8	70.3
2022-10-11T12:15	10	109	2.3	105	113	418	0.8	416	420	17.8	70.7
2022-10-11T12:16	10	102	3.3	97	106	418	1.0	416	420	17.9	70.3
2022-10-11T12:17	10	95	2.0	92	100	417	0.4	416	418	17.9	70.4
2022-10-11T12:18	10	112	5.6	100	120	419	1.1	417	421	18.0	70.3
2022-10-11T12:19	10	120	7.2	107	126	421	1.1	419	422	18.0	70.6
2022-10-11T12:20	10	125	0.6	124	126	422	0.5	421	423	18.1	69.7
2022-10-11T12:21	10	119	4.1	114	126	421	1.2	419	423	18.0	67.6
2022-10-11T12:22	10	122	2.3	118	125	422	0.7	421	423	18.1	67.9
2022-10-11T12:23	10	118	2.0	114	120	420	0.4	420	422	18.0	67.8
2022-10-11T12:24	10	111	1.4	109	113	421	0.3	420	422	18.0	67.8
2022-10-11T12:25	10	110	3.1	103	113	422	0.6	421	423	18.1	68.3
2022-10-11T12:26	10	101	1.3	99	103	421	0.5	420	422	18.3	69.3
2022-10-11T12:27	10	97	2.7	94	103	418	0.9	417	421	18.1	69.2
2022-10-11T12:28	10	88	2.4	86	95	419	0.3	419	420	18.2	69.6
2022-10-11T12:29	10	99	5.1	91	106	420	0.7	419	422	18.4	70.2
2022-10-11T12:30	10	108	1.2	106	110	420	0.4	419	421	18.3	68.0
2022-10-11T12:31	10	98	6.3	92	110	418	0.7	417	420	18.3	68.3
2022-10-11T12:32	10	93	1.0	92	95	419	0.5	418	420	18.3	67.8
2022-10-11T12:33	10	102	4.5	96	109	419	0.8	418	421	18.2	67.1
2022-10-11T12:34	10	111	0.5	109	111	421	0.3	420	421	18.2	66.5
2022-10-11T12:35	10	113	1.7	111	116	422	0.4	421	423	18.3	67.0
2022-10-11T12:36	10	120	1.4	117	122	422	0.8	421	423	18.2	66.7
2022-10-11T12:37	10	123	0.9	121	124	424	0.8	422	425	18.4	67.1
2022-10-11T12:38	10	124	0.6	123	125	425	0.3	424	426	18.5	67.5
2022-10-11T12:39	10	125	0.9	123	127	425	0.9	424	426	18.5	67.3
2022-10-11T12:40	10	126	0.4	125	127	424	0.4	423	425	18.5	67.7
2022-10-11T12:41	10	126	0.4	125	127	423	0.3	422	424	18.4	67.3
2022-10-11T12:42	10	125	0.7	124	126	425	0.6	424	426	18.5	68.3
2022-10-11T12:43	10	122	1.2	119	124	423	0.6	422	425	18.5	67.3
2022-10-11T12:44	10	116	0.9	115	119	422	0.6	421	423	18.3	67.4
2022-10-11T12:45	10	111	2.7	108	116	423	0.5	422	424	18.2	67.9
2022-10-11T12:46	10	102	3.5	94	107	422	0.3	421	423	18.3	67.2
2022-10-11T12:47	10	83	4.6	76	93	420	1.0	418	423	18.3	67.8
2022-10-11T12:48	10	73	1.7	71	76	419	0.6	417	420	18.4	68.0
2022-10-11T12:49	10	76	1.5	72	78	416	0.9	415	418	18.4	67.5
2022-10-11T12:50	10	76	0.4	75	76	416	0.4	415	416	18.4	67.2
2022-10-11T12:51	10	75	1.5	74	80	414	0.4	413	415	18.4	67.3
2022-10-11T12:52	10	83	1.4	80	85	415	0.5	414	416	18.5	67.9
2022-10-11T12:53	10	84	0.9	82	85	417	0.4	416	418	18.5	67.7
2022-10-11T12:54	10	82	0.4	81	82	416	0.3	415	417	18.4	66.7
2022-10-11T12:55	10	83	1.8	81	85	417	0.7	415	418	18.4	67.5
2022-10-11T12:56	10	84	0.6	83	85	418	0.2	417	418	18.5	68.3
2022-10-11T12:57	10	88	1.1	85	90	417	0.5	416	418	18.4	67.8
2022-10-11T12:58	10	88	1.1	87	90	417	0.4	417	418	18.4	67.9
2022-10-11T12:59	10	90	0.7	88	91	418	0.5	417	419	18.4	68.0
2022-10-11T13:00	10	87	1.8	84	90	418	0.3	417	419	18.4	67.9
2022-10-11T13:01	10	86	0.7	85	88	418	1.3	415	419	18.5	68.2
2022-10-11T13:02	10	87	0.3	86	87	416	0.3	415	417	18.4	67.9
2022-10-11T13:03	10	84	1.1	83	86	415	0.8	413	416	18.4	67.8
2022-10-11T13:04	10	79	2.0	76	82	414	0.3	413	415	18.3	68.0
2022-10-11T13:05	10	76	0.2	75	76	413	0.9	411	414	18.4	67.8
2022-10-11T13:06	10	75	0.3	74	75	412	0.7	411	413	18.4	68.2
2022-10-11T13:07	10	74	0.2	73	74	413	0.4	412	413	18.4	68.0
2022-10-11T13:08	10	72	0.8	71	73	413	0.5	412	414	18.4	68.4
2022-10-11T13:09	10	71	0.2	71	71	414	0.2	413	414	18.4	68.3
2022-10-11T13:10	10	70	0.7	69	71	414	0.3	413	415	18.4	68.7
2022-10-11T13:11	10	67	0.7	66	69	413	0.5	412	414	18.4	68.2
2022-10-11T13:12	10	65	0.6	64	66	412	0.2	411	412	18.3	68.9
2022-10-11T13:13	10	65	0.3	64	65	411	0.3	411	412	18.4	68.8
2022-10-11T13:14	10	64	0.3	63	64	411	0.2	410	411	18.3	68.4
2022-10-11T13:15	10	62	0.2	62	63	411	0.3	411	412	18.3	68.3
2022-10-11T13:16	10	62	0.1	62	62	410	0.4	410	411	18.3	67.4
2022-10-11T13:17	10	61	0.2	61	62	410	0.5	409	411	18.3	68.2
2022-10-11T13:18	10	62	0.2	61	62	410	0.3	409	410	18.3	67.7
2022-10-11T13:19	10	61	0.1	60	61	410	0.5	409	411	18.3	67.9
2022-10-11T13:20	10	61	0.2	61	61	410	0.3	409	411	18.4	68.2
2022-10-11T13:21	10	60	0.4	60	61	409	0.4	408	410	18.3	67.6
2022-10-11T13:22	10	59	0.5	58	60	408	0.2	408	409	18.3	67.8
2022-10-11T13:23	10	57	0.5	56	58	408	0.3	408	409	18.2	67.8
2022-10-11T13:24	10	56	0.3	55	56	408	0.2	407	408	18.2	67.8
2022-10-11T13:25	10	55	0.2	54	55	407	0.3	407	408	18.2	67.3
2022-10-11T13:26	10	56	0.7	55	57	408	0.6	407	409	18.2	67.9
2022-10-11T13:27	10	58	0.5	57	59	409	0.4	408	410	18.2	68.8
2022-10-11T13:28	10	60	1.0	59	62	410	0.3	409	411	18.3	69.2
2022-10-11T13:29	10	64	0.9	62	65	410	0.2	410	411	18.3	68.8
2022-10-11T13:30	10	66	0.3	65	66	411	0.3	410	411	18.3	67.6
2022-10-11T13:31	10	66	1.3	63	68	411	0.5	410	412	18.3	68.7
2022-10-11T13:32	10	70	2.5	65	74	412	0.8	411	413	18.3	69.0
2022-10-11T13:33	10	75	0.6	74	76	414	0.6	412	415	18.4	69.5
2022-10-11T13:34	10	76	0.5	75	77	415	0.2	414	415	18.5	69.1
2022-10-11T13:35	10	77	0.5	77	78	415	0.5	414	416	18.5	69.2
2022-10-11T13:36	10	79	0.7	78	80	416	0.3	416	417	18.5	68.6
2022-10-11T13:37	10	81	0.7	80	82	417	0.6	416	418	18.7	69.4
2022-10-11T13:38	10	81	0.7	80	82	415	1.1	413	417	18.6	67.7
2022-10-11T13:39	10	85	2.6	82	89	414	0.3	413	415	18.6	66.6
2022-10-11T13:40	10	87	1.0	85	89	414	0.2	413	415	18.6	66.8
2022-10-11T13:41	10	83	1.2	82	86	413	0.5	413	414	18.6	66.3
2022-10-11T13:42	10	89	1.9	86	92	415	0.8	414	416	18.6	66.9
2022-10-11T13:43	10	95	1.8	92	97	417	0.4	416	417	18.6	67.4
2022-10-11T13:44	10	100	1.4	97	103	418	0.6	417	419	18.7	67.5
2022-10-11T13:45	10	103	0.8	102	105	420	0.4	419	420	18.8	67.1
2022-10-11T13:46	10	102	1.1	100	103	419	0.3	419	420	18.8	67.2
2022-10-11T13:47	10	102	0.6	100	103	419	1.2	416	420	18.8	67.0
2022-10-11T13:48	10	104	1.0	102	105	418	0.3	417	418	18.9	67.6
2022-10-11T13:49	10	101	0.8	98	102	418	0.6	417	419	18.9	66.6
2022-10-11T13:50	10	92	1.6	91	97	418	0.8	417	419	18.8	66.3
2022-10-11T13:51	10	96	0.7	94	98	418	0.5	417	419	18.8	65.7
2022-10-11T13:52	10	94	3.6	89	98	416	1.1	414	417	18.7	65.6
2022-10-11T13:53	10	92	2.3	89	96	416	0.5	414	416	18.7	65.4
2022-10-11T13:54	10	99	1.3	96	100	416	0.3	415	417	18.8	65.3
2022-10-11T13:55	10	96	2.8	91	100	417	0.4	416	417	18.9	66.0
2022-10-11T13:56	10	81	4.8	76	91	415	0.5	414	416	18.9	66.0
2022-10-11T13:57	10	83	3.6	76	87	415	0.3	414	415	18.9	65.8
2022-10-11T13:58	10	86	5.5	74	91	414	0.4	413	415	18.9	65.1
2022-10-11T13:59	10	65	4.8	59	73	413	1.0	411	415	18.7	64.8
2022-10-11T14:00	10	57	1.1	56	59	410	0.5	409	411	18.6	65.5
2022-10-11T14:01	10	55	1.1	53	58	409	0.4	408	410	18.6	66.6
2022-10-11T14:02	10	51	0.7	50	53	409	0.3	408	409	18.6	66.2
2022-10-11T14:03	10	50	0.8	48	51	408	0.3	408	409	18.6	66.8
2022-10-11T14:04	10	48	0.5	47	49	408	0.2	407	408	18.6	66.3
2022-10-11T14:05	10	47	0.4	47	48	408	0.5	408	409	18.6	66.3
2022-10-11T14:06	10	47	0.2	47	47	408	0.3	408	409	18.6	67.3
2022-10-11T14:07	10	46	0.4	46	47	407	0.8	406	408	18.6	66.2
2022-10-11T14:08	10	45	0.3	45	46	406	0.4	405	407	18.5	65.7
2022-10-11T14:09	10	45	0.3	45	46	406	0.2	405	406	18.5	66.7
2022-10-11T14:10	10	46	0.1	45	46	406	0.4	405	407	18.5	66.8
2022-10-11T14:11	10	46	0.2	46	46	405	0.3	405	406	18.5	66.2
2022-10-11T14:12	10	47	0.8	46	49	405	0.5	404	406	18.5	66.3
2022-10-11T14:13	10	53	1.8	49	55	405	0.5	405	407	18.5	66.5
2022-10-11T14:14	10	58	1.3	56	60	406	0.4	405	407	18.5	67.3
2022-10-11T14:15	10	62	2.9	59	69	407	0.6	406	409	18.5	67.1
2022-10-11T14:16	10	73	2.1	69	76	409	0.7	407	410	18.5	67.1
2022-10-11T14:17	10	72	1.9	70	75	409	0.4	408	410	18.6	67.3
2022-10-11T14:18	10	73	4.7	67	81	410	0.3	409	411	18.6	66.9
2022-10-11T14:19	10	73	2.6	69	78	409	0.5	408	410	18.6	66.2
2022-10-11T14:20	10	76	6.9	69	90	410	1.2	408	413	18.6	67.5
2022-10-11T14:21	10	77	9.9	63	91	413	0.5	412	414	18.7	67.7
2022-10-11T14:22	10	60	3.5	54	64	410	1.3	408	412	18.7	66.7
2022-10-11T14:23	10	53	0.4	53	54	407	0.4	407	408	18.6	66.5
2022-10-11T14:24	10	52	0.2	52	53	407	0.3	406	408	18.5	67.1
2022-10-11T14:25	10	54	0.9	52	55	407	0.4	407	408	18.5	67.9
2022-10-11T14:26	10	52	1.0	49	53	408	0.3	407	408	18.5	67.6
2022-10-11T14:27	10	48	0.8	47	49	406	0.4	405	407	18.5	66.8
2022-10-11T14:28	10	46	0.6	45	47	406	0.3	405	406	18.5	67.7
2022-10-11T14:29	10	43	0.7	42	45	406	0.2	406	407	18.5	68.9
2022-10-11T14:30	10	42	0.6	41	43	405	0.4	404	406	18.6	67.9
2022-10-11T14:31	10	41	0.3	41	41	405	0.2	404	405	18.6	67.6
2022-10-11T14:32	10	41	0.6	40	42	405	0.2	404	405	18.6	67.6
2022-10-11T14:33	10	38	1.0	37	40	405	0.2	404	405	18.5	67.9
2022-10-11T14:34	10	36	0.5	35	37	404	0.4	404	405	18.5	68.7
2022-10-11T14:35	10	34	0.5	33	35	404	0.3	403	404	18.5	68.7
2022-10-11T14:36	10	33	0.3	32	33	404	0.4	402	404	18.5	67.8
2022-10-11T14:37	10	32	0.2	31	32	402	0.3	402	403	18.4	66.9
2022-10-11T14:38	10	31	0.1	31	31	402	0.2	401	402	18.4	66.9
2022-10-11T14:39	10	31	0.1	31	31	402	0.3	401	402	18.3	67.6
2022-10-11T14:40	10	31	0.2	31	32	402	0.2	402	403	18.3	68.4
2022-10-11T14:41	10	32	0.1	32	32	402	0.3	401	402	18.3	67.7
2022-10-11T14:42	10	32	0.1	32	32	402	0.2	401	402	18.3	67.9
2022-10-11T14:43	10	32	0.1	32	32	402	0.3	401	403	18.3	68.2
2022-10-11T14:44	10	33	0.2	32	33	402	0.2	401	402	18.3	68.5
2022-10-11T14:45	10	33	0.2	33	34	402	0.3	401	403	18.3	68.7
2022-10-11T14:46	10	34	0.3	34	35	402	0.2	402	403	18.3	68.7
2022-10-11T14:47	10	36	0.4	35	36	402	0.2	402	403	18.2	68.9
2022-10-11T14:48	10	36	0.1	36	36	402	0.3	402	403	18.3	68.6
2022-10-11T14:49	10	37	0.4	36	38	403	0.3	402	403	18.3	68.7
2022-10-11T14:50	10	42	2.6	38	46	403	0.5	402	404	18.3	69.0
2022-10-11T14:51	10	47	1.4	44	48	404	0.4	403	405	18.3	68.6
2022-10-11T14:52	10	47	3.0	44	53	405	0.5	404	406	18.3	69.2
2022-10-11T14:53	10	53	0.9	52	54	406	0.2	405	406	18.3	69.5
2022-10-11T14:54	10	51	1.7	47	53	406	0.6	405	407	18.3	69.0
2022-10-11T14:55	10	47	0.2	47	47	404	0.3	404	405	18.3	68.8
2022-10-11T14:56	10	50	1.9	47	53	404	0.3	404	405	18.3	68.5
2022-10-11T14:57	10	55	0.8	53	56	405	0.3	404	405	18.3	68.9
2022-10-11T14:58	10	56	0.7	54	56	406	0.2	405	406	18.3	69.6
2022-10-11T14:59	10	54	0.1	54	54	405	0.4	404	406	18.3	69.4
2022-10-11T15:00	10	55	1.1	54	57	405	0.3	404	406	18.2	69.4
2022-10-11T15:01	10	60	1.7	57	62	405	0.5	404	406	18.3	69.5
2022-10-11T15:02	10	57	4.9	47	62	406	0.3	405	407	18.2	70.3
2022-10-11T15:03	10	45	0.9	43	47	405	0.6	404	406	18.3	69.7
2022-10-11T15:04	10	42	1.7	39	45	404	0.4	403	405	18.2	69.7
2022-10-11T15:05	10	36	1.5	34	39	403	0.5	402	404	18.2	69.5
2022-10-11T15:06	10	35	2.2	33	40	402	0.3	402	403	18.2	69.4
2022-10-11T15:07	10	37	2.5	33	40	402	0.4	401	403	18.2	70.2
2022-10-11T15:08	10	29	2.0	26	33	401	0.5	400	402	18.1	70.4
2022-10-11T15:09	10	24	0.8	23	26	401	0.4	400	402	18.1	69.8
2022-10-11T15:10	10	22	0.4	22	23	400	0.3	399	400	18.1	69.5
2022-10-11T15:11	10	21	0.3	21	22	399	0.4	398	400	18.1	69.6
2022-10-11T15:12	10	20	0.3	20	21	399	0.4	398	399	18.1	69.7
2022-10-11T15:13	10	20	0.2	19	20	399	0.4	398	400	18.1	70.3
2022-10-11T15:14	10	19	0.2	19	20	398	0.3	398	399	18.1	70.1
2022-10-11T15:15	10	19	0.2	18	19	398	0.3	397	399	18.1	70.5
2022-10-11T15:16	10	18	0.2	18	19	398	0.3	397	399	18.0	70.9
2022-10-11T15:17	10	18	0.2	18	18	398	0.4	397	399	18.0	71.3
2022-10-11T15:18	10	18	0.2	17	18	398	0.3	397	398	18.0	70.6
2022-10-11T15:19	10	17	0.2	17	18	397	0.2	397	398	18.0	70.9
2022-10-11T15:20	10	17	0.2	17	18	397	0.3	396	398	17.9	71.6
2022-10-11T15:21	10	17	0.2	17	18	397	0.3	396	397	17.9	71.6
2022-10-11T15:22	10	17	0.1	17	17	397	0.3	396	397	17.9	71.4
2022-10-11T15:23	10	17	0.2	17	18	397	0.2	396	397	17.9	71.2
2022-10-11T15:24	10	17	0.1	17	18	396	0.2	396	397	17.9	71.2
2022-10-11T15:25	10	17	0.1	17	18	396	0.2	395	396	17.8	71.7
2022-10-11T15:26	10	18	0.1	17	18	396	0.3	396	397	17.9	71.0
2022-10-11T15:27	10	18	0.3	18	19	396	0.3	395	397	17.8	71.3
2022-10-11T15:28	10	20	0.6	19	21	396	0.2	396	397	17.9	70.7
2022-10-11T15:29	10	22	0.9	21	23	396	0.3	396	397	17.9	70.7
2022-10-11T15:30	10	23	1.1	21	25	396	0.3	396	397	17.8	71.2
2022-10-11T15:31	10	21	0.2	20	21	396	0.2	395	397	17.8	71.4
2022-10-11T15:32	10	20	0.2	20	21	396	0.3	396	397	17.9	70.9
2022-10-11T15:33	10	21	0.4	20	22	396	0.3	395	396	17.9	70.9
2022-10-11T15:34	10	18	0.7	17	20	395	0.2	395	396	17.9	71.1
2022-10-11T15:35	10	16	0.7	15	17	395	0.2	395	395	17.8	71.4
2022-10-11T15:36	10	14	0.4	13	15	395	0.3	394	396	17.8	71.3
2022-10-11T15:37	10	13	0.1	13	13	395	0.2	394	395	17.8	71.3
2022-10-11T15:38	10	13	0.2	12	13	394	0.2	394	395	17.8	71.7
2022-10-11T15:39	10	13	0.1	12	13	394	0.3	393	395	17.7	71.8
2022-10-11T15:40	10	12	0.1	12	13	394	0.2	394	395	17.8	71.4
2022-10-11T15:41	10	12	0.1	12	13	394	0.3	393	395	17.7	71.7
2022-10-11T15:42	10	12	0.1	12	12	394	0.3	393	394	17.7	71.8
2022-10-11T15:43	10	12	0.1	12	12	394	0.2	393	394	17.8	71.6
2022-10-11T15:44	10	12	0.1	12	12	393	0.2	392	394	17.7	71.7
2022-10-11T15:45	10	12	0.1	12	12	393	0.3	392	394	17.6	72.2
2022-10-11T15:46	10	12	0.1	12	12	393	0.3	393	394	17.6	72.2
2022-10-11T15:47	10	12	0.1	12	12	393	0.2	393	394	17.7	71.8
2022-10-11T15:48	10	12	0.1	12	12	393	0.2	393	394	17.7	72.0
2022-10-11T15:49	10	12	0.1	12	12	393	0.3	392	394	17.6	72.3
2022-10-11T15:50	10	12	0.1	12	12	393	0.4	392	394	17.6	72.4
2022-10-11T15:51	10	12	0.1	12	12	393	0.3	392	393	17.6	72.1
2022-10-11T15:52	10	12	0.1	12	12	393	0.2	392	393	17.6	72.6
2022-10-11T15:53	10	12	0.1	12	12	393	0.2	392	393	17.6	72.5
2022-10-11T15:54	10	12	0.1	11	12	392	0.2	392	393	17.5	73.2
2022-10-11T15:55	10	11	0.1	11	12	392	0.4	391	393	17.4	73.5
2022-10-11T15:56	10	11	0.2	11	11	392	0.3	391	393	17.4	73.9
2022-10-11T15:57	10	10	0.2	10	11	392	0.2	391	392	17.5	73.4
2022-10-11T15:58	10	10	0.2	9	10	392	0.4	391	393	17.5	73.3
2022-10-11T15:59	10	9	0.2	9	10	391	0.2	391	392	17.4	73.6
2022-10-11T16:00	10	8	0.2	8	9	391	0.4	390	392	17.4	73.9
2022-10-11T16:01	10	8	0.2	7	8	391	0.3	391	392	17.4	73.8
2022-10-11T16:02	10	7	0.2	7	8	391	0.3	390	391	17.4	73.8
2022-10-11T16:03	10	7	0.2	6	7	390	0.2	390	391	17.4	74.1
2022-10-11T16:04	10	6	0.2	6	6	390	0.2	389	391	17.5	73.4
2022-10-11T16:05	10	6	0.2	5	6	391	0.3	390	391	17.5	73.4
2022-10-11T16:06	10	5	0.1	5	5	390	0.3	390	391	17.4	74.0
2022-10-11T16:07	10	5	0.1	5	5	390	0.3	389	390	17.3	74.3
2022-10-11T16:08	10	5	0.1	4	5	389	0.3	389	390	17.4	74.2
2022-10-11T16:09	10	4	0.1	4	5	389	0.3	389	390	17.4	74.2
2022-10-11T16:10	10	4	0.1	4	4	389	0.3	388	390	17.4	74.2
2022-10-11T16:11	10	4	0.1	4	4	388	0.3	387	389	17.3	74.4
2022-10-11T16:12	10	4	0.1	4	4	387	0.3	387	388	17.2	75.2
2022-10-11T16:13	10	4	0.1	4	4	387	0.3	386	387	17.2	75.1
2022-10-11T16:14	10	4	0.1	3	4	386	0.2	386	387	17.2	75.4
2022-10-11T16:15	10	3	0.1	3	4	386	0.3	386	387	17.1	75.8
2022-10-11T16:16	10	3	0.1	3	4	385	0.2	385	386	17.0	76.4
2022-10-11T16:17	10	3	0.1	3	4	385	0.2	385	386	17.0	76.3
2022-10-11T16:18	10	3	0.1	3	3	385	0.3	384	385	16.9	77.1
2022-10-11T16:19	10	3	0.1	3	3	384	0.2	384	385	16.9	77.7
2022-10-11T16:20	10	3	0.1	3	3	384	0.3	383	384	16.8	78.2
2022-10-11T16:21	10	3	0.1	3	3	383	0.2	383	384	16.8	78.6
2022-10-11T16:22	10	3	0.1	3	3	383	0.3	383	384	16.8	78.8
2022-10-11T16:23	10	3	0.1	2	3	383	0.3	382	384	16.8	78.9
2022-10-11T16:24	10	3	0.1	3	3	383	0.2	382	383	16.7	79.1
2022-10-11T16:25	10	3	0.1	3	3	383	0.3	382	384	16.8	79.2
2022-10-11T16:26	10	3	0.1	2	3	383	0.2	382	383	16.9	78.4
2022-10-11T16:27	10	3	0.1	2	3	382	0.3	382	383	16.8	78.8
2022-10-11T16:28	10	2	0.1	2	3	382	0.3	382	383	16.7	79.4
2022-10-11T16:29	10	2	0.1	2	3	382	0.3	382	383	16.6	80.0
2022-10-11T16:30	10	2	0.1	2	2	383	0.3	382	383	16.5	80.7
2022-10-11T16:31	10	2	0.1	2	2	383	0.3	382	383	16.5	81.2
2022-10-11T16:32	10	2	0.1	2	2	383	0.2	382	383	16.5	81.0
2022-10-11T16:33	10	2	0.1	2	3	383	0.2	383	384	16.5	81.5
2022-10-11T16:34	10	2	0.1	2	3	383	0.3	383	384	16.4	81.6
2022-10-11T16:35	10	2	0.1	2	2	383	0.3	383	384	16.4	82.0
2022-10-11T16:36	10	2	0.1	2	2	384	0.2	383	384	16.3	82.6
2022-10-11T16:37	10	2	0.0	2	2	384	0.2	384	385	16.4	82.2
2022-10-11T16:38	10	2	0.0	2	2	384	0.2	384	385	16.5	81.5
2022-10-11T16:39	10	2	0.1	2	2	384	0.2	383	384	16.4	81.5
2022-10-11T16:40	10	2	0.1	2	2	384	0.2	383	384	16.3	82.7
2022-10-11T16:41	10	2	0.1	2	2	384	0.2	383	384	16.3	82.8
2022-10-11T16:42	10	2	0.1	1	2	383	0.3	383	384	16.5	81.5
2022-10-11T16:43	10	1	0.1	1	2	383	0.2	383	384	16.5	80.5
2022-10-11T16:44	10	1	0.1	1	1	383	0.2	383	384	16.4	81.7
2022-10-11T16:45	10	1	0.1	1	1	383	0.3	382	384	16.5	81.5
2022-10-11T16:46	10	1	0.1	1	1	383	0.4	382	384	16.8	79.1
2022-10-11T16:47	10	1	0.1	0	1	383	0.2	382	383	16.8	78.5
2022-10-11T16:48	10	1	0.1	0	1	383	0.3	383	384	16.9	76.9
2022-10-11T16:49	10	0	0.1	0	1	383	0.2	383	384	16.8	77.1
2022-10-11T16:50	10	0	0.1	0	1	383	0.2	383	384	16.8	77.3
2022-10-11T16:51	10	0	0.1	0	1	383	0.3	383	384	16.7	77.9
2022-10-11T16:52	10	0	0.1	0	1	383	0.2	383	384	16.7	77.6
2022-10-11T16:53	10	1	0.1	1	1	384	0.3	383	384	16.8	77.6
2022-10-11T16:54	10	1	0.1	1	1	384	0.2	383	384	16.8	77.3
2022-10-11T16:55	10	1	0.1	1	1	384	0.2	384	384	16.8	77.5
2022-10-11T16:56	10	1	0.1	1	1	384	0.2	384	384	16.9	77.6
2022-10-11T16:57	10	1	0.1	1	1	384	0.2	384	385	16.9	77.1
2022-10-11T16:58	10	1	0.1	1	1	385	0.2	384	385	16.9	77.5
2022-10-11T16:59	10	1	0.1	1	1	384	0.3	384	385	16.8	77.4
2022-10-11T17:00	10	1	0.1	1	1	385	0.3	384	385	16.8	77.4
2022-10-11T17:01	10	1	0.1	0	1	385	0.2	384	385	16.8	77.1
2022-10-11T17:02	10	1	0.1	1	1	384	0.3	384	385	16.8	77.4
2022-10-11T17:03	10	1	0.1	1	1	385	0.3	384	385	16.8	77.3
2022-10-11T17:04	10	1	0.1	1	1	384	0.2	384	385	16.8	76.9
2022-10-11T17:05	10	1	0.1	1	1	385	0.2	384	385	16.8	76.9
2022-10-11T17:06	10	1	0.1	0	1	384	0.3	383	385	16.8	76.9
2022-10-11T17:07	10	1	0.1	1	1	384	0.4	383	385	16.8	76.8
2022-10-11T17:08	10	1	0.1	1	1	384	0.3	383	384	16.6	77.6
2022-10-11T17:09	10	1	0.1	0	1	384	0.4	383	384	16.6	77.7
2022-10-11T17:10	10	1	0.1	1	1	383	0.2	383	384	16.4	78.8
2022-10-11T17:11	10	1	0.1	1	1	383	0.2	383	384	16.5	78.8
2022-10-11T17:12	10	1	0.1	1	1	383	0.3	382	384	16.5	78.2
2022-10-11T17:13	10	1	0.1	0	1	383	0.3	382	383	16.5	77.8
2022-10-11T17:14	10	1	0.1	0	1	383	0.3	382	383	16.5	78.3
2022-10-11T17:15	10	1	0.1	0	1	383	0.3	382	383	16.7	77.8
2022-10-11T17:16	10	1	0.2	0	1	383	0.4	382	383	16.7	77.9
2022-10-11T17:17	10	1	0.1	0	1	382	0.3	382	383	16.7	78.0
2022-10-11T17:18	10	0	0.2	0	1	382	0.2	382	383	16.6	78.4
2022-10-11T17:19	10	0	0.1	0	0	383	0.3	382	383	16.5	78.9
2022-10-11T17:20	10	1	0.1	0	1	383	0.2	382	383	16.5	79.7
2022-10-11T17:21	10	1	0.2	0	1	382	0.2	382	383	16.4	80.3
2022-10-11T17:22	10	0	0.1	0	1	383	0.2	382	383	16.3	80.8
2022-10-11T17:23	10	0	0.2	0	1	383	0.3	382	383	16.3	81.3
2022-10-11T17:24	10	0	0.2	0	1	382	0.2	382	383	16.2	81.4
2022-10-11T17:25	10	0	0.1	0	1	382	0.3	382	383	16.1	81.8
2022-10-11T17:26	10	0	0.2	0	1	382	0.2	382	383	16.0	82.5
2022-10-11T17:27	10	0	0.2	0	1	383	0.2	382	383	15.9	82.8
2022-10-11T17:28	10	0	0.1	0	1	382	0.2	382	383	15.9	82.8
2022-10-11T17:29	10	0	0.1	0	1	382	0.2	382	383	15.9	82.8
2022-10-11T17:30	10	0	0.2	0	1	382	0.3	381	383	15.9	82.7
2022-10-11T17:31	10	0	0.1	0	1	382	0.3	381	382	15.9	82.6
2022-10-11T17:32	10	0	0.1	0	1	382	0.2	382	382	15.9	82.6
2022-10-11T17:33	10	0	0.1	0	1	381	0.3	381	382	15.8	83.0
2022-10-11T17:34	10	0	0.1	0	1	381	0.2	381	382	15.8	83.9
2022-10-11T17:35	10	0	0.1	0	1	381	0.2	381	382	15.9	83.3
2022-10-11T17:36	10	0	0.1	0	1	381	0.2	381	382	15.9	82.5
2022-10-11T17:37	10	0	0.1	0	1	381	0.3	380	382	15.8	82.9
2022-10-11T17:38	10	0	0.1	0	1	381	0.2	380	381	15.9	82.6
2022-10-11T17:39	10	0	0.1	0	1	380	0.3	380	381	16.1	81.7
2022-10-11T17:40	10	0	0.1	0	1	380	0.2	379	380	16.0	81.9
2022-10-11T17:41	10	0	0.1	0	1	380	0.2	380	381	16.0	82.0
2022-10-11T17:42	10	0	0.1	0	0	380	0.2	380	381	16.0	82.0
2022-10-11T17:43	10	0	0.1	0	0	380	0.2	379	380	16.0	82.3
2022-10-11T17:44	10	0	0.1	0	0	380	0.3	380	381	16.0	82.5
2022-10-11T17:45	10	0	0.1	0	0	380	0.3	380	381	16.0	82.2
2022-10-11T17:46	10	0	0.1	0	0	380	0.2	380	381	15.9	82.6
2022-10-11T17:47	10	0	0.1	0	0	380	0.3	379	380	15.8	83.1
2022-10-11T17:48	10	0	0.1	0	0	380	0.3	379	381	15.8	83.2
2022-10-11T17:49	10	0	0.1	0	0	380	0.3	380	381	15.9	82.2
2022-10-11T17:50	10	0	0.1	0	0	380	0.3	380	381	16.0	81.5
2022-10-11T17:51	10	0	0.1	0	0	380	0.3	380	381	16.0	81.3
2022-10-11T17:52	10	0	0.1	0	0	381	0.2	380	381	15.9	81.6
2022-10-11T17:53	10	0	0.1	0	0	380	0.2	380	381	15.6	82.7
2022-10-11T17:54	10	0	0.1	0	0	380	0.2	379	380	15.4	84.4
2022-10-11T17:55	10	0	0.1	0	0	379	0.1	379	380	14.9	86.9
2022-10-11T17:56	10	0	0.1	0	0	379	0.2	379	380	14.6	88.8
2022-10-11T17:57	10	0	0.1	0	0	379	0.3	379	380	14.5	89.5
2022-10-11T17:58	10	0	0.1	0	0	379	0.2	379	380	14.4	90.3
2022-10-11T17:59	10	0	0.1	-1	0	379	0.2	379	380	14.3	90.9
2022-10-11T18:00	10	-1	0.1	-1	0	380	0.3	379	380	14.2	91.2
2022-10-11T18:01	10	-1	0.1	-1	-1	380	0.3	379	380	14.2	91.6
2022-10-11T18:02	10	-1	0.1	-1	0	380	0.3	379	381	14.2	91.9
2022-10-11T18:03	10	-1	0.1	-1	0	380	0.2	379	380	14.2	91.9
2022-10-11T18:04	10	-1	0.1	-1	0	380	0.2	380	381	14.2	91.9
2022-10-11T18:05	10	0	0.1	-1	0	380	0.2	379	380	14.3	91.9
2022-10-11T18:06	10	0	0.1	0	0	380	0.3	379	381	14.4	91.7
2022-10-11T18:07	10	0	0.1	0	0	380	0.2	380	380	14.6	91.2
2022-10-11T18:08	10	0	0.1	-1	0	380	0.2	380	381	14.6	90.8
2022-10-11T18:09	10	0	0.1	0	0	380	0.3	379	381	14.6	90.6
2022-10-11T18:10	10	0	0.1	0	0	380	0.2	380	381	14.8	89.4
2022-10-11T18:11	10	0	0.1	0	0	380	0.2	380	381	14.8	89.1
2022-10-11T18:12	10	0	0.1	0	0	380	0.2	380	381	14.7	89.2
2022-10-11T18:13	10	0	0.1	0	0	381	0.2	380	381	14.8	88.9
2022-10-11T18:14	10	0	0.1	0	0	380	0.2	379	381	14.9	87.9
2022-10-11T18:15	10	0	0.1	0	0	380	0.3	379	380	14.9	88.0
2022-10-11T18:16	10	0	0.1	0	0	379	0.2	379	380	14.9	87.9
2022-10-11T18:17	10	0	0.1	0	1	379	0.2	379	380	14.8	88.0
2022-10-11T18:18	10	0	0.1	0	0	379	0.3	379	380	14.9	87.6
2022-10-11T18:19	10	0	0.1	0	1	379	0.2	379	380	15.1	86.4
2022-10-11T18:20	10	0	0.1	0	1	379	0.2	379	380	15.1	85.8
2022-10-11T18:21	10	0	0.1	0	1	379	0.3	379	380	15.1	85.8
2022-10-11T18:22	10	1	0.1	0	1	379	0.2	378	379	15.1	85.6
2022-10-11T18:23	10	1	0.1	0	1	379	0.2	378	379	15.1	85.2
2022-10-11T18:24	10	1	0.1	0	1	379	0.2	378	379	15.2	84.9
2022-10-11T18:25	10	1	0.1	0	1	379	0.3	378	379	15.2	84.4
2022-10-11T18:26	10	1	0.1	0	1	378	0.2	378	379	15.2	84.6
2022-10-11T18:27	10	1	0.1	0	1	378	0.3	378	379	15.2	84.4
2022-10-11T18:28	10	1	0.1	0	1	378	0.3	377	379	15.2	84.7
2022-10-11T18:29	10	1	0.1	1	1	378	0.2	377	378	15.2	84.3
2022-10-11T18:30	10	1	0.1	1	1	378	0.2	377	378	15.2	84.3
2022-10-11T18:31	10	1	0.1	0	1	378	0.3	377	379	15.3	84.0
2022-10-11T18:32	10	1	0.1	0	1	379	0.3	378	379	15.3	83.7
2022-10-11T18:33	10	1	0.1	0	1	379	0.2	378	379	15.3	83.3
2022-10-11T18:34	10	1	0.1	0	1	379	0.3	379	380	15.4	83.2
2022-10-11T18:35	10	1	0.1	0	1	380	0.3	379	380	15.4	82.6
2022-10-11T18:36	10	1	0.1	0	1	380	0.2	380	381	15.4	82.5
2022-10-11T18:37	10	1	0.1	0	1	380	0.3	380	381	15.4	82.5
2022-10-11T18:38	10	1	0.1	0	1	380	0.3	380	381	15.4	82.5
2022-10-11T18:39	10	0	0.1	0	1	380	0.2	380	381	15.4	82.5
2022-10-11T18:40	10	0	0.1	0	1	380	0.3	380	381	15.4	82.8
2022-10-11T18:41	10	0	0.1	0	1	380	0.2	380	381	15.4	82.7
2022-10-11T18:42	10	0	0.1	0	1	380	0.3	379	381	15.4	82.6
2022-10-11T18:43	10	0	0.1	0	1	380	0.3	380	381	15.4	82.7
2022-10-11T18:44	10	0	0.1	0	1	381	0.2	380	381	15.4	82.6
2022-10-11T18:45	10	0	0.1	0	1	381	0.3	380	381	15.4	82.6
2022-10-11T18:46	10	0	0.1	0	1	381	0.3	380	382	15.4	82.4
2022-10-11T18:47	10	0	0.1	0	1	381	0.2	380	381	15.4	82.4
2022-10-11T18:48	10	0	0.1	0	0	381	0.2	381	381	15.4	82.7
2022-10-11T18:49	10	0	0.1	0	1	381	0.3	380	381	15.3	83.1
2022-10-11T18:50	10	0	0.1	0	0	381	0.4	380	381	15.4	82.9
2022-10-11T18:51	10	0	0.1	0	1	381	0.3	380	381	15.4	82.6
2022-10-11T18:52	10	0	0.0	0	1	380	0.2	380	381	15.3	82.8
2022-10-11T18:53	10	0	0.1	0	1	380	0.4	379	381	15.3	82.9
2022-10-11T18:54	10	0	0.1	0	1	379	0.3	379	380	15.3	82.8
2022-10-11T18:55	10	0	0.1	0	1	379	0.3	378	380	15.4	82.6
2022-10-11T18:56	10	0	0.1	0	1	379	0.4	378	379	15.3	82.5
2022-10-11T18:57	10	0	0.1	0	1	379	0.3	378	379	15.4	82.4
2022-10-11T18:58	10	0	0.1	0	1	379	0.3	378	379	15.4	82.2
2022-10-11T18:59	10	0	0.1	0	1	379	0.2	379	380	15.4	81.9
2022-10-11T19:00	10	0	0.1	0	1	378	0.3	378	379	15.4	82.3
2022-10-11T19:01	10	0	0.1	0	1	378	0.3	378	379	15.4	82.1
2022-10-11T19:02	10	0	0.1	0	1	379	0.3	378	379	15.5	81.6
2022-10-11T19:03	10	0	0.0	0	1	379	0.4	378	379	15.4	81.8
2022-10-11T19:04	10	0	0.1	0	1	379	0.2	378	379	15.5	81.4
2022-10-11T19:05	10	0	0.1	0	1	379	0.3	378	379	15.4	81.6
2022-10-11T19:06	10	0	0.1	0	0	378	0.3	377	379	15.3	82.4
2022-10-11T19:07	10	0	0.1	0	1	379	0.3	378	379	15.3	82.3
2022-10-11T19:08	10	0	0.1	0	0	378	0.3	378	379	15.3	82.3
2022-10-11T19:09	10	0	0.1	0	0	378	0.3	377	379	15.2	82.6
2022-10-11T19:10	10	0	0.1	0	0	377	0.5	377	378	15.2	82.8
2022-10-11T19:11	10	0	0.1	0	0	377	0.3	376	378	15.2	83.2
2022-10-11T19:12	10	0	0.1	0	0	376	0.3	375	377	15.1	83.5
2022-10-11T19:13	10	0	0.1	0	0	376	0.4	375	376	15.1	83.6
2022-10-11T19:14	10	0	0.1	0	0	375	0.3	375	376	15.1	83.6
2022-10-11T19:15	10	0	0.1	0	0	375	0.2	375	376	15.1	83.6
2022-10-11T19:16	10	0	0.1	0	0	375	0.3	374	375	15.1	83.8
2022-10-11T19:17	10	0	0.1	0	0	374	0.4	373	375	15.2	83.8
2022-10-11T19:18	10	0	0.1	0	0	374	0.2	373	374	15.2	83.6
2022-10-11T19:19	10	0	0.1	0	0	373	0.4	372	373	15.2	83.6
2022-10-11T19:20	10	0	0.1	0	0	372	0.3	371	373	15.2	83.5
2022-10-11T19:21	10	0	0.1	0	0	371	0.4	371	372	15.1	83.3
2022-10-11T19:22	10	0	0.1	0	1	371	0.2	371	372	15.2	83.3
2022-10-11T19:23	10	0	0.1	0	1	371	0.3	370	372	15.2	83.4
2022-10-11T19:24	10	0	0.1	0	1	370	0.2	370	371	15.0	83.9
2022-10-11T19:25	10	1	0.1	0	1	370	0.2	369	370	15.0	84.4
2022-10-11T19:26	10	1	0.1	0	1	369	0.2	369	370	14.8	84.6
2022-10-11T19:27	10	1	0.1	0	1	369	0.2	369	370	14.7	85.4
2022-10-11T19:28	10	1	0.4	0	3	369	0.3	369	370	14.6	85.9
2022-10-11T19:29	10	1	0.1	0	1	369	0.2	369	370	14.5	86.3
2022-10-11T19:30	10	1	0.1	1	1	370	0.2	369	370	14.5	86.7
2022-10-11T19:31	10	1	0.1	0	1	369	0.3	369	370	14.6	86.8
2022-10-11T19:32	10	1	0.1	0	1	369	0.2	369	370	14.6	86.9
2022-10-11T19:33	10	1	0.1	0	1	369	0.2	369	370	14.5	87.1
2022-10-11T19:34	10	1	0.1	0	1	369	0.3	368	369	14.5	87.3
2022-10-11T19:35	10	1	0.1	0	1	368	0.4	367	369	14.5	87.3
2022-10-11T19:36	10	0	0.1	0	1	368	0.2	367	368	14.5	87.4
2022-10-11T19:37	10	0	0.1	0	1	368	0.3	367	368	14.5	87.5
2022-10-11T19:38	10	0	0.1	0	1	368	0.2	368	369	14.4	87.7
2022-10-11T19:39	10	0	0.1	0	1	368	0.1	368	368	14.4	87.8
2022-10-11T19:40	10	0	0.1	0	0	368	0.2	368	369	14.4	87.9
2022-10-11T19:41	10	0	0.1	0	0	369	0.2	368	369	14.4	87.9
2022-10-11T19:42	10	0	0.1	0	0	369	0.3	368	370	14.5	88.0
2022-10-11T19:43	10	0	0.1	0	0	369	0.3	368	370	14.5	87.6
2022-10-11T19:44	10	0	0.1	0	0	369	0.2	369	370	14.5	87.6
2022-10-11T19:45	10	0	0.2	0	1	369	0.4	368	370	14.5	87.7
2022-10-11T19:46	10	0	0.1	0	0	369	0.3	368	369	14.6	87.6
2022-10-11T19:47	10	0	0.2	0	1	368	0.2	368	369	14.6	87.3
2022-10-11T19:48	10	0	0.2	0	1	368	0.3	367	369	14.6	87.1
2022-10-11T19:49	10	0	0.2	0	0	368	0.3	367	368	14.6	86.9
2022-10-11T19:50	10	0	0.1	0	1	368	0.2	367	368	14.5	87.2
2022-10-11T19:51	10	0	0.2	0	1	368	0.3	367	368	14.4	87.7
2022-10-11T19:52	10	0	0.2	0	1	368	0.3	367	369	14.3	87.9
2022-10-11T19:53	10	0	0.2	0	1	368	0.3	368	369	14.1	88.4
2022-10-11T19:54	10	0	0.1	0	1	368	0.3	367	368	13.9	89.0
2022-10-11T19:55	10	0	0.1	0	1	368	0.3	367	368	13.9	89.3
2022-10-11T19:56	10	0	0.2	0	1	368	0.2	367	368	14.0	89.5
2022-10-11T19:57	10	0	0.1	0	1	368	0.3	367	368	14.0	89.5
2022-10-11T19:58	10	1	0.2	0	1	367	0.4	366	368	14.0	89.5
2022-10-11T19:59	10	0	0.2	0	1	366	0.3	366	367	13.8	90.0
2022-10-11T20:00	10	0	0.2	0	1	366	0.2	366	367	13.9	90.2
2022-10-11T20:01	10	1	0.2	0	1	366	0.2	366	367	14.0	90.1
2022-10-11T20:02	10	1	0.2	0	1	366	0.3	365	367	14.1	89.9
2022-10-11T20:03	10	1	0.1	0	1	366	0.2	365	367	14.1	89.6
2022-10-11T20:04	10	1	0.1	0	1	366	0.2	365	366	14.1	89.4
2022-10-11T20:05	10	1	0.1	0	1	366	0.2	365	366	14.1	89.3
2022-10-11T20:06	10	1	0.1	0	1	366	0.2	365	366	14.1	89.1
2022-10-11T20:07	10	1	0.1	0	1	366	0.3	365	367	14.1	89.1
2022-10-11T20:08	10	0	0.1	0	1	367	0.4	366	368	14.1	89.4
2022-10-11T20:09	10	0	0.1	0	1	367	0.2	367	368	14.3	88.9
2022-10-11T20:10	10	0	0.1	0	1	368	0.3	367	368	14.3	88.3
2022-10-11T20:11	10	0	0.1	0	1	368	0.3	367	369	14.3	88.1
2022-10-11T20:12	10	0	0.1	0	1	368	0.2	368	368	14.3	88.2
2022-10-11T20:13	10	0	0.1	0	1	368	0.2	367	369	14.2	88.4
2022-10-11T20:14	10	0	0.1	0	1	368	0.2	367	368	14.1	88.9
2022-10-11T20:15	10	0	0.1	0	1	368	0.2	367	368	14.0	89.3
2022-10-11T20:16	10	0	0.1	0	1	368	0.2	367	368	14.0	89.2
2022-10-11T20:17	10	0	0.1	0	1	368	0.2	367	368	13.9	89.6
2022-10-11T20:18	10	0	0.1	0	0	368	0.2	367	368	13.9	89.6
2022-10-11T20:19	10	0	0.1	0	0	368	0.2	367	368	13.9	89.6
2022-10-11T20:20	10	0	0.1	0	0	368	0.3	367	368	13.8	89.9
2022-10-11T20:21	10	0	0.1	0	0	368	0.3	367	368	13.7	90.1
2022-10-11T20:22	10	0	0.1	0	0	368	0.3	367	369	13.7	90.4
2022-10-11T20:23	10	0	0.1	0	0	367	0.3	367	369	13.4	90.2
2022-10-11T20:24	10	0	0.1	0	0	368	0.3	367	368	13.4	91.4
2022-10-11T20:25	10	0	0.1	0	0	367	0.3	367	368	13.4	91.5
2022-10-11T20:26	10	0	0.1	0	0	368	0.3	367	368	13.6	91.2
2022-10-11T20:27	10	0	0.1	0	0	368	0.2	367	368	13.5	90.6
2022-10-11T20:28	10	0	0.1	0	0	368	0.3	367	368	13.5	91.2
2022-10-11T20:29	10	0	0.1	0	0	368	0.2	367	368	13.8	90.9
2022-10-11T20:30	10	0	0.1	0	0	368	0.3	367	368	13.7	90.4
2022-10-11T20:31	10	0	0.1	0	0	367	0.2	367	368	13.7	90.4
2022-10-11T20:32	10	0	0.1	0	0	367	0.2	367	368	13.7	90.4
2022-10-11T20:33	10	0	0.1	0	0	367	0.2	366	367	13.7	90.5
2022-10-11T20:34	10	0	0.1	0	0	367	0.3	366	367	13.6	90.4
2022-10-11T20:35	10	0	0.1	0	0	366	0.3	366	367	13.5	90.7
2022-10-11T20:36	10	0	0.1	0	0	366	0.3	365	366	13.4	91.1
2022-10-11T20:37	10	0	0.1	0	0	365	0.5	364	366	13.2	91.8
2022-10-11T20:38	10	0	0.1	0	0	364	0.3	363	365	13.0	92.2
2022-10-11T20:39	10	0	0.1	0	0	364	0.2	363	364	13.0	92.7
2022-10-11T20:40	10	0	0.1	0	0	363	0.2	363	364	12.9	93.0
2022-10-11T20:41	10	0	0.1	0	0	363	0.2	363	364	12.8	93.3
2022-10-11T20:42	10	0	0.1	0	0	363	0.2	363	364	12.9	93.7
2022-10-11T20:43	10	0	0.1	0	0	363	0.3	363	364	13.2	93.6
2022-10-11T20:44	10	0	0.1	0	0	364	0.3	363	364	13.2	93.2
2022-10-11T20:45	10	0	0.1	0	0	364	0.2	363	364	13.2	92.8
2022-10-11T20:46	10	0	0.1	0	0	364	0.2	363	364	13.0	92.7
2022-10-11T20:47	10	0	0.1	0	0	364	0.2	364	365	13.1	93.3
2022-10-11T20:48	10	0	0.1	0	0	364	0.2	363	364	13.1	93.1
2022-10-11T20:49	10	0	0.1	0	0	364	0.3	363	364	12.9	92.9
2022-10-11T20:50	10	0	0.1	0	0	364	0.2	364	365	12.8	93.3
2022-10-11T20:51	10	0	0.1	0	0	364	0.2	364	365	12.8	93.6
2022-10-11T20:52	10	0	0.1	0	0	364	0.2	363	364	12.8	94.0
2022-10-11T20:53	10	0	0.1	0	0	363	0.3	363	364	12.9	94.0
2022-10-11T20:54	10	0	0.1	0	0	363	0.2	362	363	12.9	93.9
2022-10-11T20:55	10	0	0.1	0	0	363	0.2	363	363	13.0	93.9
2022-10-11T20:56	10	0	0.1	0	1	363	0.2	362	364	13.1	93.7
2022-10-11T20:57	10	0	0.1	0	1	363	0.3	362	363	13.1	93.4
2022-10-11T20:58	10	0	0.1	0	1	363	0.2	362	363	13.1	93.5
2022-10-11T20:59	10	0	0.1	0	1	363	0.7	362	365	13.4	93.4
2022-10-11T21:00	10	0	0.1	0	1	364	0.3	363	365	13.6	91.8
2022-10-11T21:01	10	0	0.1	0	1	364	0.2	363	364	13.2	91.8
2022-10-11T21:02	10	1	0.1	0	1	364	0.2	364	364	13.1	92.5
2022-10-11T21:03	10	1	0.1	0	1	363	0.3	363	364	13.0	92.5
2022-10-11T21:04	10	1	0.1	0	1	363	0.2	362	364	12.8	92.9
2022-10-11T21:05	10	0	0.1	0	1	363	0.2	362	363	12.9	93.6
2022-10-11T21:06	10	0	0.1	0	1	363	0.2	362	363	12.8	93.7
2022-10-11T21:07	10	0	0.1	0	0	363	0.2	362	363	12.7	94.0
2022-10-11T21:08	10	0	0.1	0	1	363	0.2	363	364	12.8	94.5
2022-10-11T21:09	10	0	0.1	0	0	363	0.2	363	364	12.9	94.4
2022-10-11T21:10	10	0	0.1	0	0	364	0.2	363	364	12.9	94.3
2022-10-11T21:11	10	0	0.1	0	0	364	0.2	363	364	12.9	94.4
2022-10-11T21:12	10	0	0.1	-1	0	364	0.3	363	364	12.9	94.3
2022-10-11T21:13	10	0	0.1	0	0	364	0.3	363	364	13.0	94.3
2022-10-11T21:14	10	0	0.1	0	0	363	0.2	363	364	13.0	94.1
2022-10-11T21:15	10	0	0.1	0	0	364	0.2	363	364	12.9	94.1
2022-10-11T21:16	10	0	0.1	0	0	363	0.3	362	364	13.0	94.2
2022-10-11T21:17	10	0	0.1	0	0	362	0.3	362	363	12.8	93.8
2022-10-11T21:18	10	0	0.1	0	0	362	0.4	361	363	12.5	94.0
2022-10-11T21:19	10	0	0.1	0	0	362	0.3	361	363	12.6	94.6
2022-10-11T21:20	10	0	0.1	0	0	362	0.3	361	363	12.9	94.9
2022-10-11T21:21	10	0	0.1	0	0	362	0.3	361	363	13.0	94.7
2022-10-11T21:22	10	0	0.1	0	0	361	0.3	360	362	12.8	94.3
2022-10-11T21:23	10	0	0.1	0	0	361	0.3	360	361	12.6	94.1
2022-10-11T21:24	10	0	0.1	0	1	361	0.4	361	362	12.6	94.4
2022-10-11T21:25	10	0	0.1	0	0	362	0.3	361	362	12.8	94.8
2022-10-11T21:26	10	0	0.1	0	0	361	0.3	361	362	13.0	94.8
2022-10-11T21:27	10	0	0.1	0	0	362	0.2	361	362	13.0	94.6
2022-10-11T21:28	10	0	0.1	0	1	362	0.2	361	362	13.0	94.4
2022-10-11T21:29	10	0	0.3	0	2	362	0.4	361	363	12.9	94.3
2022-10-11T21:30	10	0	0.1	0	1	362	0.2	362	363	12.8	94.2
2022-10-11T21:31	10	0	0.1	0	1	362	0.4	361	363	12.8	94.3
2022-10-11T21:32	10	0	0.1	0	1	361	0.2	361	362	12.9	94.6
2022-10-11T21:33	10	0	0.1	0	1	361	0.4	360	362	12.9	94.6
2022-10-11T21:34	10	0	0.1	0	1	361	0.3	360	362	12.9	94.7
2022-10-11T21:35	10	0	0.1	0	1	361	0.2	360	361	13.0	94.7
2022-10-11T21:36	10	0	0.1	0	1	361	0.2	360	362	13.0	94.7
2022-10-11T21:37	10	0	0.1	0	1	361	0.2	360	362	12.9	94.7
2022-10-11T21:38	10	0	0.1	0	1	361	0.3	360	362	12.9	94.7
2022-10-11T21:39	10	0	0.1	0	1	361	0.4	360	362	13.0	94.8
2022-10-11T21:40	10	0	0.1	0	0	361	0.3	360	362	12.8	94.6
2022-10-11T21:41	10	0	0.1	0	0	361	0.3	361	362	12.8	94.7
2022-10-11T21:42	10	0	0.1	0	0	361	0.2	361	362	12.8	94.8
2022-10-11T21:43	10	0	0.1	0	1	361	0.3	361	362	12.8	94.9
2022-10-11T21:44	10	0	0.1	0	1	361	0.2	361	362	12.8	95.1
2022-10-11T21:45	10	0	0.1	0	1	361	0.2	360	362	12.8	95.2
2022-10-11T21:46	10	0	0.1	0	1	361	0.2	361	362	12.9	95.2
2022-10-11T21:47	10	0	0.1	0	1	361	0.2	361	362	12.8	95.2
2022-10-11T21:48	10	0	0.1	0	1	361	0.3	360	362	12.9	95.2
2022-10-11T21:49	10	0	0.1	0	1	361	0.2	360	361	12.7	94.9
2022-10-11T21:50	10	0	0.1	0	1	360	0.2	360	361	12.6	95.0
2022-10-11T21:51	10	0	0.1	0	1	360	0.2	360	361	12.5	95.3
2022-10-11T21:52	10	0	0.1	0	0	360	0.3	360	361	12.6	95.6
2022-10-11T21:53	10	0	0.1	0	0	361	0.3	360	361	12.7	95.8
2022-10-11T21:54	10	0	0.1	0	0	361	0.2	360	361	12.7	95.7
2022-10-11T21:55	10	0	0.1	0	0	361	0.3	360	361	12.6	95.7
2022-10-11T21:56	10	0	0.1	0	0	361	0.2	360	361	12.6	95.8
2022-10-11T21:57	10	0	0.1	0	0	360	0.2	360	361	12.6	95.9
2022-10-11T21:58	10	0	0.1	0	0	361	0.2	360	361	12.6	96.0
2022-10-11T21:59	10	0	0.1	0	0	360	0.2	360	361	12.6	96.0
2022-10-11T22:00	10	0	0.1	0	0	361	0.3	360	361	12.5	96.0
2022-10-11T22:01	10	0	0.1	0	0	361	0.2	361	362	12.4	96.0
2022-10-11T22:02	10	0	0.1	0	1	362	0.2	361	362	12.5	96.2
2022-10-11T22:03	10	0	0.1	0	0	362	0.3	361	363	12.6	96.3
2022-10-11T22:04	10	0	0.1	0	0	362	0.3	362	363	12.6	96.3
2022-10-11T22:05	10	0	0.1	0	0	362	0.2	361	363	12.6	96.3
2022-10-11T22:06	10	0	0.1	0	1	362	0.2	361	362	12.6	96.3
2022-10-11T22:07	10	0	0.1	0	1	362	0.3	362	363	12.6	96.2
2022-10-11T22:08	10	0	0.1	0	1	362	0.2	362	362	12.7	96.2
2022-10-11T22:09	10	1	0.1	0	1	362	0.3	361	363	12.7	96.2
2022-10-11T22:10	10	1	0.1	0	1	362	0.3	361	362	12.7	96.0
2022-10-11T22:11	10	1	0.1	0	1	361	0.3	361	362	12.6	95.9
2022-10-11T22:12	10	0	0.1	0	1	361	0.3	361	362	12.5	96.0
2022-10-11T22:13	10	1	0.0	0	1	361	0.2	361	362	12.6	96.2
2022-10-11T22:14	10	0	0.1	0	1	362	0.2	361	362	12.7	96.2
2022-10-11T22:15	10	1	0.1	0	1	362	0.2	361	362	12.8	96.1
2022-10-11T22:16	10	1	0.1	0	1	362	0.2	362	363	12.8	96.0
2022-10-11T22:17	10	1	0.0	0	1	362	0.2	361	362	12.8	95.9
2022-10-11T22:18	10	1	0.1	0	1	362	0.3	361	362	12.7	95.7
2022-10-11T22:19	10	1	0.1	0	1	362	0.3	361	363	12.6	95.7
2022-10-11T22:20	10	1	0.1	0	1	362	0.2	361	362	12.6	95.8
2022-10-11T22:21	10	1	0.1	0	1	362	0.2	361	362	12.5	95.9
2022-10-11T22:22	10	0	0.1	0	1	361	0.2	361	362	12.6	96.0
2022-10-11T22:23	10	0	0.1	0	1	361	0.3	361	362	12.7	96.2
2022-10-11T22:24	10	0	0.1	0	0	362	0.9	361	364	12.6	96.0
2022-10-11T22:25	10	0	0.1	0	0	363	0.6	362	364	12.9	95.9
2022-10-11T22:26	10	0	0.1	0	0	362	0.4	361	363	12.4	95.3
2022-10-11T22:27	10	0	0.1	0	0	362	0.3	361	362	12.3	95.5
2022-10-11T22:28	10	0	0.1	0	0	361	0.3	361	362	12.3	95.8
2022-10-11T22:29	10	0	0.1	0	0	361	0.2	361	362	12.3	96.0
2022-10-11T22:30	10	0	0.1	0	0	361	0.2	361	362	12.4	96.2
2022-10-11T22:31	10	0	0.1	0	0	361	0.2	361	362	12.5	96.2
2022-10-11T22:32	10	0	0.1	0	0	361	0.2	360	362	12.6	96.3
2022-10-11T22:33	10	0	0.1	0	0	362	0.3	361	362	12.6	96.3
2022-10-11T22:34	10	0	0.1	0	1	362	0.2	361	362	12.6	96.3
2022-10-11T22:35	10	0	0.1	0	1	362	0.3	361	363	12.5	96.2
2022-10-11T22:36	10	0	0.1	0	1	362	0.2	362	363	12.6	96.3
2022-10-11T22:37	10	0	0.1	0	1	363	0.2	362	363	12.8	96.3
2022-10-11T22:38	10	0	0.1	0	1	362	0.2	362	363	12.6	96.0
2022-10-11T22:39	10	0	0.1	0	1	362	0.2	362	363	12.7	96.1
2022-10-11T22:40	10	0	0.1	0	1	362	0.3	362	363	12.5	95.9
2022-10-11T22:41	10	0	0.1	0	1	363	0.5	362	364	12.4	95.9
2022-10-11T22:42	10	0	0.1	0	1	363	0.3	362	364	12.6	96.2
2022-10-11T22:43	10	0	0.1	0	1	363	0.3	362	364	12.8	96.3
2022-10-11T22:44	10	0	0.1	0	0	364	0.4	363	365	12.8	96.1
2022-10-11T22:45	10	0	0.1	0	1	364	0.3	363	364	12.9	95.9
2022-10-11T22:46	10	0	0.1	0	1	363	0.2	363	364	12.5	95.2
2022-10-11T22:47	10	0	0.0	0	1	363	0.2	363	364	12.4	95.6
2022-10-11T22:48	10	0	0.1	0	1	363	0.3	362	363	12.3	95.8
2022-10-11T22:49	10	0	0.1	0	1	363	0.5	362	365	12.3	96.1
2022-10-11T22:50	10	0	0.1	0	1	364	0.6	363	365	12.4	96.2
2022-10-11T22:51	10	0	0.1	0	1	364	0.5	364	366	12.3	96.1
2022-10-11T22:52	10	0	0.1	0	0	365	0.3	364	366	13.0	96.6
2022-10-11T22:53	10	0	0.1	0	0	364	0.6	363	365	12.5	95.5
2022-10-11T22:54	10	0	0.1	0	1	365	0.5	364	366	12.3	95.4
2022-10-11T22:55	10	0	0.1	0	1	364	0.2	363	364	12.2	95.5
2022-10-11T22:56	10	0	0.1	0	1	365	0.6	364	366	12.5	96.0
2022-10-11T22:57	10	0	0.1	0	0	364	0.6	363	365	13.1	96.2
2022-10-11T22:58	10	0	0.1	0	1	364	0.2	364	365	13.0	95.3
2022-10-11T22:59	10	0	0.1	0	1	364	0.3	363	365	12.8	94.8
2022-10-11T23:00	10	0	0.1	0	1	364	0.4	363	365	12.8	94.7
2022-10-11T23:01	10	0	0.1	0	1	364	0.3	363	364	12.8	94.6
2022-10-11T23:02	10	0	0.1	0	1	364	0.2	363	364	12.5	94.4
2022-10-11T23:03	10	1	0.1	0	1	364	0.2	363	364	12.4	94.8
2022-10-11T23:04	10	1	0.1	0	1	364	0.2	363	364	12.3	95.1
2022-10-11T23:05	10	0	0.1	0	1	364	0.3	363	364	12.4	95.5
2022-10-11T23:06	10	0	0.1	0	1	364	0.2	363	364	12.5	95.7
2022-10-11T23:07	10	0	0.1	0	1	364	0.2	363	364	12.6	95.7
2022-10-11T23:08	10	0	0.1	0	1	364	0.2	363	364	12.7	95.7
2022-10-11T23:09	10	1	0.1	0	1	364	0.3	363	364	12.6	95.5
2022-10-11T23:10	10	1	0.1	0	1	364	0.3	363	364	12.4	95.4
2022-10-11T23:11	10	0	0.1	0	1	364	0.2	363	364	12.3	95.3
2022-10-11T23:12	10	1	0.1	0	1	364	0.5	363	365	12.1	95.7
2022-10-11T23:13	10	0	0.1	0	1	364	0.3	363	364	12.0	95.9
2022-10-11T23:14	10	0	0.1	0	1	364	0.3	363	365	12.1	96.3
2022-10-11T23:15	10	0	0.1	0	1	364	0.2	363	364	12.1	96.6
2022-10-11T23:16	10	0	0.1	0	1	364	0.3	363	364	12.1	96.7
2022-10-11T23:17	10	0	0.1	0	1	364	0.3	364	365	12.3	96.9
2022-10-11T23:18	10	0	0.1	0	1	364	0.4	363	365	12.4	97.1
2022-10-11T23:19	10	0	0.1	0	1	364	0.2	364	365	12.4	96.9
2022-10-11T23:20	10	0	0.1	0	1	364	0.2	363	364	12.3	96.8
2022-10-11T23:21	10	0	0.1	0	1	364	0.3	363	364	12.4	96.7
2022-10-11T23:22	10	1	0.1	0	1	364	0.3	363	365	12.4	96.8
2022-10-11T23:23	10	0	0.1	0	1	364	0.4	363	365	12.3	96.6
2022-10-11T23:24	10	0	0.1	0	1	365	0.2	364	365	12.3	96.7
2022-10-11T23:25	10	0	0.1	0	0	365	0.4	364	366	12.3	96.8
2022-10-11T23:26	10	0	0.1	0	0	365	0.3	364	366	12.4	96.9
2022-10-11T23:27	10	0	0.1	0	0	365	0.3	364	366	12.4	96.8
2022-10-11T23:28	10	0	0.2	0	0	365	0.4	364	366	12.3	96.8
2022-10-11T23:29	10	0	0.2	0	0	365	0.3	365	366	12.4	96.8
2022-10-11T23:30	10	0	0.1	0	0	365	0.3	364	366	12.4	96.9
2022-10-11T23:31	10	0	0.2	0	0	364	0.2	364	365	12.2	96.8
2022-10-11T23:32	10	0	0.2	0	1	365	0.3	364	366	12.3	96.8
2022-10-11T23:33	10	0	0.1	0	0	365	0.3	365	366	12.3	96.9
2022-10-11T23:34	10	0	0.1	0	1	365	0.3	365	365	12.4	97.0
2022-10-11T23:35	10	0	0.1	0	1	365	0.2	364	365	12.4	97.0
2022-10-11T23:36	10	0	0.1	0	1	364	0.2	364	365	12.3	96.8
2022-10-11T23:37	10	0	0.1	0	1	365	0.2	364	365	12.2	96.7
2022-10-11T23:38	10	0	0.1	0	1	365	0.2	365	366	12.2	96.8
2022-10-11T23:39	10	0	0.1	0	1	365	0.2	365	366	12.2	96.9
2022-10-11T23:40	10	0	0.1	0	1	366	0.3	365	367	12.4	97.1
2022-10-11T23:41	10	0	0.1	0	1	366	0.3	366	367	12.4	97.1
2022-10-11T23:42	10	0	0.1	0	1	366	0.2	366	367	12.4	97.0
2022-10-11T23:43	10	0	0.1	0	1	367	0.2	366	367	12.5	97.0
2022-10-11T23:44	10	0	0.1	0	1	367	0.3	367	368	12.5	96.9
2022-10-11T23:45	10	0	0.1	0	0	368	0.3	367	368	12.4	96.8
2022-10-11T23:46	10	0	0.1	0	0	368	0.2	368	369	12.4	96.8
2022-10-11T23:47	10	0	0.2	0	1	368	0.3	367	368	12.3	96.7
2022-10-11T23:48	10	0	0.2	0	1	368	0.2	368	369	12.1	96.7
2022-10-11T23:49	10	0	0.2	0	1	369	0.3	368	369	12.3	96.9
2022-10-11T23:50	10	0	0.2	0	1	369	0.3	368	370	12.3	97.1
2022-10-11T23:51	10	0	0.1	0	1	369	0.2	369	370	12.4	97.1
2022-10-11T23:52	10	1	0.2	0	1	369	0.3	369	370	12.4	97.1
2022-10-11T23:53	10	1	0.2	0	1	370	0.3	369	371	12.4	97.1
2022-10-11T23:54	10	1	0.1	0	1	370	0.3	369	371	12.4	97.1
2022-10-11T23:55	10	0	0.1	0	1	370	0.2	370	371	12.4	97.1
2022-10-11T23:56	10	1	0.1	0	1	370	0.2	370	371	12.4	97.0
2022-10-11T23:57	10	1	0.1	0	1	370	0.2	370	371	12.4	96.9
2022-10-11T23:58	10	1	0.1	0	1	370	0.2	370	371	12.4	96.9
2022-10-11T23:59	10	1	0.2	0	1	370	0.3	370	371	12.3	96.8
2022-10-12T00:00	10	1	0.1	0	1	370	0.3	370	371	12.3	96.7
2022-10-12T00:01	10	1	0.2	0	1	371	0.2	370	371	12.4	96.9
2022-10-12T00:02	10	1	0.1	0	1	371	0.2	370	371	12.3	96.9
2022-10-12T00:03	10	1	0.1	0	1	371	0.2	370	371	12.3	96.9
2022-10-12T00:04	10	1	0.1	1	1	371	0.2	370	371	12.3	97.0
2022-10-12T00:05	10	1	0.1	0	1	371	0.2	371	372	12.3	97.0
2022-10-12T00:06	10	1	0.1	0	1	372	0.2	371	372	12.4	97.0
2022-10-12T00:07	10	1	0.1	0	1	372	0.3	371	372	12.4	97.1
2022-10-12T00:08	10	1	0.2	0	1	372	0.3	371	372	12.5	97.1
2022-10-12T00:09	10	1	0.2	0	1	372	0.2	372	373	12.5	97.0
2022-10-12T00:10	10	1	0.2	0	1	372	0.3	372	373	12.5	96.9
2022-10-12T00:11	10	1	0.1	0	1	373	0.2	372	373	12.6	96.9
2022-10-12T00:12	10	1	0.1	0	1	373	0.2	372	374	12.6	96.8
2022-10-12T00:13	10	1	0.1	0	1	373	0.3	372	374	12.6	96.7
2022-10-12T00:14	10	1	0.2	1	1	373	0.2	373	374	12.6	96.6
2022-10-12T00:15	10	1	0.1	1	1	373	0.2	373	374	12.6	96.5
2022-10-12T00:16	10	1	0.1	1	1	373	0.2	373	374	12.6	96.4
2022-10-12T00:17	10	1	0.1	0	1	373	0.2	373	374	12.5	96.4
2022-10-12T00:18	10	1	0.1	0	1	374	0.3	373	374	12.5	96.4
2022-10-12T00:19	10	0	0.1	0	1	374	0.3	373	374	12.6	96.5
2022-10-12T00:20	10	0	0.1	0	1	373	0.2	373	374	12.6	96.5
2022-10-12T00:21	10	0	0.1	0	1	374	0.2	373	374	12.6	96.5
2022-10-12T00:22	10	0	0.1	0	1	374	0.2	373	374	12.6	96.6
2022-10-12T00:23	10	0	0.1	0	1	374	0.3	373	374	12.7	96.5
2022-10-12T00:24	10	0	0.1	0	1	373	0.2	373	374	12.7	96.3
2022-10-12T00:25	10	1	0.1	0	1	373	0.2	373	374	12.8	96.2
2022-10-12T00:26	10	1	0.1	0	1	373	0.3	373	374	12.7	96.0
2022-10-12T00:27	10	1	0.1	0	1	373	0.2	373	373	12.6	96.0
2022-10-12T00:28	10	1	0.1	0	1	373	0.2	373	374	12.7	96.1
2022-10-12T00:29	10	1	0.1	0	1	373	0.2	373	374	12.7	96.1
2022-10-12T00:30	10	1	0.1	0	1	373	0.3	373	374	12.7	96.1
2022-10-12T00:31	10	1	0.1	0	1	374	0.3	373	374	12.7	96.1
2022-10-12T00:32	10	1	0.1	0	1	374	0.2	373	374	12.7	96.1
2022-10-12T00:33	10	1	0.1	0	1	374	0.2	373	374	12.7	96.1
2022-10-12T00:34	10	1	0.1	0	1	374	0.2	374	374	12.8	96.1
2022-10-12T00:35	10	1	0.1	0	1	374	0.2	374	375	12.8	96.0
2022-10-12T00:36	10	1	0.1	1	1	375	0.3	374	375	12.8	95.9
2022-10-12T00:37	10	1	0.1	1	1	375	0.2	374	375	12.8	95.8
2022-10-12T00:38	10	1	0.1	0	1	375	0.3	374	375	12.8	95.7
2022-10-12T00:39	10	1	0.1	1	1	375	0.2	375	376	12.8	95.7
2022-10-12T00:40	10	1	0.1	1	1	375	0.2	375	376	12.8	95.5
2022-10-12T00:41	10	1	0.1	1	1	376	0.2	375	376	12.8	95.4
2022-10-12T00:42	10	1	0.1	1	1	376	0.2	375	376	12.8	95.4
2022-10-12T00:43	10	1	0.1	0	1	376	0.3	375	377	12.8	95.4
2022-10-12T00:44	10	1	0.1	1	1	376	0.3	375	377	12.8	95.4
2022-10-12T00:45	10	1	0.2	0	1	376	0.3	375	376	12.8	95.4
2022-10-12T00:46	10	1	0.2	1	1	375	0.3	375	376	12.8	95.3
2022-10-12T00:47	10	1	0.2	1	1	375	0.3	374	376	12.8	95.3
2022-10-12T00:48	10	1	0.1	1	1	375	0.2	374	375	12.7	95.3
2022-10-12T00:49	10	1	0.2	1	1	375	0.3	374	375	12.7	95.5
2022-10-12T00:50	10	1	0.1	0	1	374	0.3	374	375	12.7	95.6
2022-10-12T00:51	10	1	0.1	0	1	374	0.3	372	374	12.6	95.7
2022-10-12T00:52	10	1	0.1	0	1	373	0.3	373	374	12.6	95.8
2022-10-12T00:53	10	1	0.1	0	1	373	0.3	372	374	12.6	95.9
2022-10-12T00:54	10	1	0.1	0	1	373	0.2	372	373	12.7	96.0
2022-10-12T00:55	10	1	0.1	0	1	373	0.3	372	373	12.7	96.1
2022-10-12T00:56	10	1	0.2	0	1	373	0.2	373	374	12.7	96.1
2022-10-12T00:57	10	1	0.1	1	1	373	0.2	372	373	12.7	96.1
2022-10-12T00:58	10	1	0.2	0	1	372	0.2	372	373	12.7	96.1
2022-10-12T00:59	10	1	0.1	1	1	372	0.2	372	373	12.7	96.1
2022-10-12T01:00	10	1	0.1	1	1	372	0.2	372	373	12.7	96.1
2022-10-12T01:01	10	1	0.1	1	1	372	0.2	372	373	12.7	96.1
2022-10-12T01:02	10	1	0.1	1	1	372	0.2	372	372	12.7	96.2
2022-10-12T01:03	10	1	0.1	1	1	371	0.2	371	372	12.6	96.2
2022-10-12T01:04	10	1	0.1	1	1	371	0.3	371	372	12.5	96.2
2022-10-12T01:05	10	1	0.1	1	1	371	0.3	370	372	12.6	96.4
2022-10-12T01:06	10	1	0.1	1	1	371	0.2	370	371	12.7	96.5
2022-10-12T01:07	10	1	0.1	1	1	370	0.2	370	371	12.7	96.5
2022-10-12T01:08	10	1	0.1	1	1	370	0.2	370	371	12.7	96.4
2022-10-12T01:09	10	1	0.1	1	1	371	0.2	370	371	12.7	96.4
2022-10-12T01:10	10	1	0.1	0	1	371	0.2	371	372	12.8	96.4
2022-10-12T01:11	10	1	0.1	0	1	372	0.3	371	373	12.8	96.3
2022-10-12T01:12	10	1	0.2	0	1	372	0.7	371	374	12.7	96.2
2022-10-12T01:13	10	0	0.1	0	1	373	0.4	372	374	12.7	96.1
2022-10-12T01:14	10	0	0.1	0	1	373	0.3	373	374	12.8	96.1
2022-10-12T01:15	10	0	0.1	0	0	374	0.2	373	374	12.7	95.9
2022-10-12T01:16	10	0	0.1	0	0	374	0.2	373	374	12.7	95.9
2022-10-12T01:17	10	0	0.1	0	0	373	0.3	372	374	12.6	95.9
2022-10-12T01:18	10	0	0.1	-1	0	373	0.3	372	373	12.5	95.9
2022-10-12T01:19	10	0	0.1	-1	0	372	0.2	372	373	12.3	95.9
2022-10-12T01:20	10	-1	0.1	-1	0	372	0.3	371	373	12.2	95.9
2022-10-12T01:21	10	-1	0.1	-1	-1	372	0.2	371	372	12.1	96.0
2022-10-12T01:22	10	-1	0.1	-1	-1	372	0.3	371	372	12.0	96.0
2022-10-12T01:23	10	-1	0.1	-2	-1	371	0.2	371	372	11.9	96.2
2022-10-12T01:24	10	-2	0.1	-2	-1	371	0.2	371	371	11.9	96.3
2022-10-12T01:25	10	-2	0.1	-2	-1	371	0.2	370	372	11.9	96.4
2022-10-12T01:26	10	-2	0.1	-2	-1	371	0.3	370	371	12.0	96.7
2022-10-12T01:27	10	-1	0.1	-2	-1	371	0.2	370	371	12.1	96.9
2022-10-12T01:28	10	-1	0.1	-1	-1	370	0.3	370	371	12.1	97.1
2022-10-12T01:29	10	-1	0.1	-1	-1	370	0.3	369	371	12.2	97.1
2022-10-12T01:30	10	-1	0.1	-1	-1	370	0.2	370	370	12.3	97.2
2022-10-12T01:31	10	-1	0.1	-1	-1	370	0.2	369	370	12.3	97.1
2022-10-12T01:32	10	-1	0.1	-1	-1	370	0.3	369	370	12.3	97.0
2022-10-12T01:33	10	-1	0.1	-1	0	369	0.2	369	370	12.3	96.9
2022-10-12T01:34	10	0	0.1	-1	0	369	0.2	369	370	12.3	96.9
2022-10-12T01:35	10	0	0.1	0	0	369	0.2	369	370	12.2	96.8
2022-10-12T01:36	10	0	0.1	0	0	369	0.3	369	370	12.1	96.8
2022-10-12T01:37	10	0	0.1	0	0	369	0.2	369	370	12.0	96.8
2022-10-12T01:38	10	0	0.1	0	0	369	0.2	369	370	12.0	96.9
2022-10-12T01:39	10	0	0.1	0	0	369	0.3	369	370	12.0	97.1
2022-10-12T01:40	10	0	0.1	0	1	369	0.2	369	370	12.0	97.3
2022-10-12T01:41	10	0	0.1	0	0	369	0.2	369	370	12.1	97.4
2022-10-12T01:42	10	0	0.1	0	0	369	0.2	369	370	12.1	97.5
2022-10-12T01:43	10	0	0.1	0	1	369	0.2	369	370	12.2	97.5
2022-10-12T01:44	10	0	0.1	0	1	369	0.2	369	370	12.2	97.5
2022-10-12T01:45	10	0	0.1	0	1	369	0.2	369	370	12.2	97.4
2022-10-12T01:46	10	0	0.1	0	1	369	0.2	369	369	12.1	97.4
2022-10-12T01:47	10	0	0.1	0	1	369	0.2	368	369	12.1	97.4
2022-10-12T01:48	10	0	0.1	0	1	369	0.2	368	369	12.2	97.5
2022-10-12T01:49	10	0	0.1	0	1	369	0.2	368	369	12.1	97.5
2022-10-12T01:50	10	0	0.1	0	0	369	0.2	368	369	12.1	97.5
2022-10-12T01:51	10	0	0.1	0	0	369	0.2	368	369	12.1	97.5
2022-10-12T01:52	10	0	0.1	0	0	369	0.2	368	369	12.1	97.5
2022-10-12T01:53	10	0	0.1	0	1	369	0.3	369	370	12.2	97.7
2022-10-12T01:54	10	0	0.1	0	0	369	0.3	369	370	12.3	97.7
2022-10-12T01:55	10	0	0.1	0	0	370	0.3	369	370	12.3	97.6
2022-10-12T01:56	10	0	0.1	0	0	370	0.2	369	370	12.3	97.6
2022-10-12T01:57	10	0	0.1	0	0	370	0.3	370	371	12.4	97.5
2022-10-12T01:58	10	0	0.0	0	0	370	0.2	370	371	12.2	97.3
2022-10-12T01:59	10	0	0.1	0	0	371	0.3	370	371	12.3	97.3
2022-10-12T02:00	10	0	0.1	0	0	371	0.3	370	372	12.3	97.4
2022-10-12T02:01	10	0	0.1	0	0	371	0.2	371	372	12.4	97.4
2022-10-12T02:02	10	0	0.1	0	0	371	0.2	371	372	12.4	97.3
2022-10-12T02:03	10	0	0.1	0	0	372	0.2	371	372	12.3	97.2
2022-10-12T02:04	10	0	0.1	0	0	372	0.2	371	372	12.3	97.2
2022-10-12T02:05	10	0	0.1	0	0	372	0.2	371	372	12.3	97.2
2022-10-12T02:06	10	0	0.1	0	0	372	0.2	371	372	12.3	97.3
2022-10-12T02:07	10	0	0.1	0	0	372	0.2	371	372	12.3	97.3
2022-10-12T02:08	10	0	0.1	0	0	371	0.2	371	372	12.2	97.3
2022-10-12T02:09	10	0	0.1	0	0	371	0.2	371	372	12.2	97.3
2022-10-12T02:10	10	0	0.1	0	0	371	0.2	371	372	12.2	97.4
2022-10-12T02:11	10	0	0.1	0	0	371	0.3	371	372	12.2	97.4
2022-10-12T02:12	10	0	0.1	0	0	371	0.2	371	372	12.2	97.4
2022-10-12T02:13	10	0	0.1	0	1	372	0.2	371	372	12.2	97.5
2022-10-12T02:14	10	0	0.1	0	0	372	0.3	372	373	12.1	97.5
2022-10-12T02:15	10	0	0.1	0	0	372	0.3	371	373	12.1	97.6
2022-10-12T02:16	10	0	0.1	0	0	373	0.2	372	373	12.1	97.6
2022-10-12T02:17	10	0	0.1	0	0	373	0.2	373	373	12.0	97.7
2022-10-12T02:18	10	0	0.1	0	0	373	0.2	373	374	12.0	97.7
2022-10-12T02:19	10	0	0.1	0	0	373	0.2	373	374	12.0	97.7
2022-10-12T02:20	10	0	0.1	0	0	373	0.2	373	374	12.0	97.7
2022-10-12T02:21	10	0	0.1	0	0	373	0.2	373	374	12.0	97.7
2022-10-12T02:22	10	0	0.1	0	0	373	0.2	373	374	12.0	97.7
2022-10-12T02:23	10	0	0.1	0	0	373	0.2	372	373	12.0	97.7
2022-10-12T02:24	10	0	0.1	0	0	373	0.3	372	373	12.0	97.7
2022-10-12T02:25	10	0	0.1	0	0	373	0.2	372	373	12.0	97.7
2022-10-12T02:26	10	0	0.1	0	0	372	0.2	372	373	12.0	97.7
2022-10-12T02:27	10	0	0.1	0	0	372	0.2	372	372	12.0	97.7
2022-10-12T02:28	10	0	0.1	0	1	372	0.2	372	373	12.2	97.8
2022-10-12T02:29	10	0	0.1	0	0	372	0.3	371	373	12.1	97.7
2022-10-12T02:30	10	0	0.1	0	0	372	0.2	371	372	12.1	97.6
2022-10-12T02:31	10	0	0.1	0	1	372	0.2	371	372	12.1	97.6
2022-10-12T02:32	10	0	0.1	0	1	372	0.2	371	372	12.2	97.6
2022-10-12T02:33	10	0	0.2	0	1	371	0.2	371	372	12.1	97.5
2022-10-12T02:34	10	0	0.1	0	0	371	0.2	371	372	12.1	97.5
2022-10-12T02:35	10	0	0.1	0	1	372	0.2	371	372	12.2	97.6
2022-10-12T02:36	10	0	0.1	0	0	372	0.2	372	372	12.1	97.5
2022-10-12T02:37	10	0	0.1	0	1	372	0.2	372	373	12.1	97.5
2022-10-12T02:38	10	0	0.1	0	0	373	0.3	372	373	12.2	97.6
2022-10-12T02:39	10	0	0.2	0	1	373	0.3	373	374	12.2	97.5
2022-10-12T02:40	10	0	0.1	0	0	373	0.2	373	374	12.2	97.4
2022-10-12T02:41	10	0	0.1	0	0	374	0.3	373	375	12.2	97.4
2022-10-12T02:42	10	0	0.1	0	0	374	0.3	373	375	12.2	97.4
2022-10-12T02:43	10	0	0.1	0	1	374	0.2	374	375	12.3	97.4
2022-10-12T02:44	10	0	0.1	0	1	375	0.2	374	375	12.3	97.3
2022-10-12T02:45	10	0	0.1	0	1	375	0.2	374	375	12.4	97.2
2022-10-12T02:46	10	0	0.2	0	1	375	0.3	374	375	12.3	97.1
2022-10-12T02:47	10	0	0.2	0	1	375	0.2	374	375	12.3	96.9
2022-10-12T02:48	10	0	0.2	0	1	375	0.3	374	376	12.4	96.8
2022-10-12T02:49	10	1	0.1	0	1	375	0.2	375	376	12.4	96.8
2022-10-12T02:50	10	1	0.1	0	1	375	0.2	374	376	12.3	96.6
2022-10-12T02:51	10	1	0.1	1	1	375	0.2	374	375	12.4	96.6
2022-10-12T02:52	10	1	0.1	1	1	375	0.2	375	376	12.3	96.5
2022-10-12T02:53	10	1	0.1	1	1	375	0.2	375	376	12.4	96.5
2022-10-12T02:54	10	1	0.1	1	1	375	0.2	375	376	12.4	96.5
2022-10-12T02:55	10	1	0.1	1	1	375	0.2	374	375	12.4	96.4
2022-10-12T02:56	10	1	0.1	1	1	375	0.3	374	376	12.4	96.2
2022-10-12T02:57	10	1	0.1	1	1	375	0.2	374	375	12.3	96.2
2022-10-12T02:58	10	1	0.1	1	1	375	0.2	375	375	12.3	96.2
2022-10-12T02:59	10	1	0.1	1	1	375	0.2	374	376	12.3	96.3
2022-10-12T03:00	10	1	0.1	1	1	375	0.2	375	376	12.3	96.3
2022-10-12T03:01	10	1	0.2	1	1	375	0.2	375	376	12.3	96.4
2022-10-12T03:02	10	1	0.1	1	1	375	0.3	375	376	12.3	96.4
2022-10-12T03:03	10	1	0.1	1	1	375	0.2	375	376	12.3	96.5
2022-10-12T03:04	10	1	0.2	1	1	375	0.2	375	376	12.3	96.5
2022-10-12T03:05	10	1	0.1	1	1	375	0.2	375	376	12.3	96.6
2022-10-12T03:06	10	1	0.1	1	1	375	0.2	375	376	12.3	96.6
2022-10-12T03:07	10	1	0.1	1	1	376	0.2	375	376	12.4	96.6
2022-10-12T03:08	10	1	0.1	1	1	376	0.2	375	376	12.4	96.6
2022-10-12T03:09	10	1	0.1	1	1	376	0.2	375	376	12.4	96.7
2022-10-12T03:10	10	1	0.1	1	1	376	0.2	376	376	12.4	96.7
2022-10-12T03:11	10	1	0.1	1	1	376	0.2	376	377	12.4	96.7
2022-10-12T03:12	10	1	0.2	1	2	376	0.3	375	377	12.4	96.7
2022-10-12T03:13	10	1	0.1	1	1	376	0.3	375	377	12.4	96.6
2022-10-12T03:14	10	1	0.1	1	1	376	0.2	376	377	12.4	96.6
2022-10-12T03:15	10	1	0.1	1	1	376	0.3	375	377	12.4	96.5
2022-10-12T03:16	10	1	0.1	1	1	376	0.2	376	377	12.4	96.4
2022-10-12T03:17	10	1	0.2	0	1	376	0.2	376	377	12.4	96.4
2022-10-12T03:18	10	1	0.2	0	1	376	0.2	376	377	12.4	96.4
2022-10-12T03:19	10	0	0.1	0	1	376	0.2	376	377	12.4	96.4
2022-10-12T03:20	10	0	0.2	0	1	376	0.2	376	377	12.4	96.3
2022-10-12T03:21	10	1	0.1	0	1	377	0.2	376	377	12.4	96.1
2022-10-12T03:22	10	1	0.1	0	1	377	0.2	376	377	12.4	96.0
2022-10-12T03:23	10	1	0.1	0	1	376	0.2	376	377	12.4	96.0
2022-10-12T03:24	10	1	0.1	0	1	376	0.2	376	377	12.4	96.1
2022-10-12T03:25	10	0	0.1	0	1	377	0.2	376	377	12.4	96.3
2022-10-12T03:26	10	0	0.1	0	1	376	0.2	376	377	12.4	96.3
2022-10-12T03:27	10	1	0.1	0	1	376	0.2	376	377	12.4	96.3
2022-10-12T03:28	10	1	0.1	0	1	376	0.2	376	377	12.4	96.2
2022-10-12T03:29	10	1	0.1	0	1	376	0.2	376	377	12.4	96.2
2022-10-12T03:30	10	1	0.1	0	1	376	0.2	375	376	12.3	96.3
2022-10-12T03:31	10	1	0.1	0	1	376	0.2	375	376	12.3	96.4
2022-10-12T03:32	10	1	0.1	0	1	376	0.2	375	376	12.3	96.6
2022-10-12T03:33	10	1	0.1	0	1	376	0.2	375	376	12.2	96.7
2022-10-12T03:34	10	0	0.1	0	1	376	0.2	375	376	12.2	96.7
2022-10-12T03:35	10	0	0.1	0	0	376	0.2	375	376	12.2	96.8
2022-10-12T03:36	10	0	0.1	0	0	376	0.3	375	376	12.1	96.9
2022-10-12T03:37	10	0	0.1	0	0	375	0.2	375	376	12.1	96.9
2022-10-12T03:38	10	0	0.1	0	0	375	0.2	375	376	12.0	97.0
2022-10-12T03:39	10	0	0.1	0	0	375	0.3	374	375	12.0	97.1
2022-10-12T03:40	10	0	0.1	0	0	375	0.3	375	376	12.0	97.2
2022-10-12T03:41	10	0	0.1	-1	0	375	0.5	374	376	12.0	97.2
2022-10-12T03:42	10	-1	0.1	-1	0	375	0.3	374	376	12.0	97.3
2022-10-12T03:43	10	-1	0.1	-1	0	375	0.2	375	376	12.0	97.4
2022-10-12T03:44	10	-1	0.1	-1	0	375	0.2	375	376	12.1	97.4
2022-10-12T03:45	10	-1	0.1	-1	0	375	0.2	375	376	12.1	97.4
2022-10-12T03:46	10	0	0.1	-1	0	375	0.2	375	376	12.1	97.4
2022-10-12T03:47	10	0	0.1	-1	0	375	0.5	374	376	12.1	97.3
2022-10-12T03:48	10	0	0.1	0	0	375	0.3	374	375	12.1	97.3
2022-10-12T03:49	10	0	0.1	0	0	375	0.4	374	375	12.1	97.2
2022-10-12T03:50	10	0	0.1	0	0	375	0.4	374	376	12.1	97.2
2022-10-12T03:51	10	0	0.1	0	0	375	0.4	374	375	12.1	97.1
2022-10-12T03:52	10	0	0.1	0	0	375	0.3	374	375	12.1	97.1
2022-10-12T03:53	10	0	0.1	0	0	375	0.3	374	375	12.1	97.1
2022-10-12T03:54	10	0	0.1	0	0	375	0.3	374	375	12.1	97.0
2022-10-12T03:55	10	0	0.1	0	0	375	0.5	374	376	12.1	97.0
2022-10-12T03:56	10	0	0.1	0	0	375	0.2	374	375	12.1	97.0
2022-10-12T03:57	10	0	0.1	0	0	375	0.2	374	375	12.1	97.0
2022-10-12T03:58	10	0	0.1	0	0	375	0.2	374	375	12.1	97.0
2022-10-12T03:59	10	0	0.0	0	0	375	0.2	374	375	12.1	97.0
2022-10-12T04:00	10	0	0.1	0	0	375	0.2	374	375	12.1	97.0
2022-10-12T04:01	10	0	0.1	0	1	375	0.4	374	375	12.1	97.0
2022-10-12T04:02	10	0	0.1	0	1	375	0.5	374	376	12.1	97.1
2022-10-12T04:03	10	0	0.1	0	1	375	0.2	374	375	12.1	97.0
2022-10-12T04:04	10	1	0.1	0	1	375	0.2	375	376	12.1	97.0
2022-10-12T04:05	10	1	0.0	0	1	375	0.2	374	376	12.1	97.0
2022-10-12T04:06	10	1	0.1	1	1	375	0.2	375	376	12.1	97.0
2022-10-12T04:07	10	1	0.1	1	1	375	0.2	375	376	12.1	97.0
2022-10-12T04:08	10	1	0.1	1	1	375	0.2	375	376	12.1	97.1
2022-10-12T04:09	10	1	0.1	1	1	375	0.3	375	376	12.1	97.0
2022-10-12T04:10	10	1	0.1	0	1	375	0.2	375	376	12.2	97.0
2022-10-12T04:11	10	1	0.1	0	1	375	0.2	374	376	12.1	97.0
2022-10-12T04:12	10	1	0.1	0	1	375	0.2	375	376	12.1	96.9
2022-10-12T04:13	10	1	0.1	1	1	375	0.2	375	376	12.1	96.9
2022-10-12T04:14	10	1	0.1	1	1	375	0.1	375	376	12.2	96.9
2022-10-12T04:15	10	1	0.1	0	1	375	0.2	375	376	12.2	96.9
2022-10-12T04:16	10	1	0.1	0	1	375	0.2	375	376	12.2	96.8
2022-10-12T04:17	10	1	0.1	1	1	376	0.2	375	376	12.2	96.8
2022-10-12T04:18	10	1	0.1	1	1	376	0.2	375	377	12.2	96.8
2022-10-12T04:19	10	1	0.1	1	1	376	0.2	375	376	12.2	96.8
2022-10-12T04:20	10	1	0.1	1	1	376	0.2	375	376	12.2	96.9
2022-10-12T04:21	10	1	0.1	1	1	375	0.3	375	376	12.2	96.9
2022-10-12T04:22	10	1	0.1	1	1	376	0.3	375	376	12.2	97.0
2022-10-12T04:23	10	1	0.1	1	1	376	0.2	375	376	12.2	97.0
2022-10-12T04:24	10	1	0.1	1	1	375	0.2	375	376	12.1	97.1
2022-10-12T04:25	10	1	0.1	1	1	375	0.2	375	376	12.1	97.1
2022-10-12T04:26	10	1	0.1	1	1	375	0.3	375	376	12.1	97.2
2022-10-12T04:27	10	1	0.1	1	1	375	0.2	375	376	12.2	97.2
2022-10-12T04:28	10	1	0.1	1	1	376	0.2	375	376	12.2	97.2
2022-10-12T04:29	10	1	0.1	1	1	376	0.2	375	376	12.2	97.2
2022-10-12T04:30	10	1	0.1	1	1	376	0.2	375	376	12.2	97.2
2022-10-12T04:31	10	1	0.1	1	1	376	0.2	375	376	12.2	97.2
2022-10-12T04:32	10	1	0.1	1	1	376	0.2	375	376	12.2	97.2
2022-10-12T04:33	10	1	0.1	1	1	376	0.2	375	376	12.2	97.2
2022-10-12T04:34	10	1	0.1	1	1	376	0.2	376	376	12.2	97.1
2022-10-12T04:35	10	1	0.1	1	1	376	0.2	375	376	12.2	97.1
2022-10-12T04:36	10	1	0.1	1	1	376	0.2	375	376	12.2	97.1
2022-10-12T04:37	10	1	0.1	1	1	376	0.2	376	377	12.2	97.0
2022-10-12T04:38	10	1	0.1	1	1	376	0.3	376	377	12.2	97.0
2022-10-12T04:39	10	1	0.1	1	1	376	0.2	376	377	12.2	97.0
2022-10-12T04:40	10	1	0.1	1	1	376	0.2	376	377	12.3	96.9
2022-10-12T04:41	10	1	0.1	1	1	376	0.2	376	377	12.3	96.9
2022-10-12T04:42	10	1	0.1	1	1	376	0.2	376	377	12.3	96.8
2022-10-12T04:43	10	1	0.1	1	1	376	0.2	376	376	12.3	96.8
2022-10-12T04:44	10	1	0.0	1	1	376	0.2	375	376	12.3	96.8
2022-10-12T04:45	10	1	0.1	1	1	376	0.2	376	377	12.3	96.8
2022-10-12T04:46	10	1	0.1	1	1	376	0.2	376	377	12.3	96.8
2022-10-12T04:47	10	1	0.0	1	1	376	0.2	375	376	12.3	96.8
2022-10-12T04:48	10	1	0.1	1	1	376	0.2	375	376	12.3	96.7
2022-10-12T04:49	10	1	0.1	1	1	376	0.2	375	377	12.3	96.7
2022-10-12T04:50	10	1	0.1	1	1	376	0.2	376	376	12.3	96.7
2022-10-12T04:51	10	1	0.1	1	1	376	0.2	375	376	12.3	96.7
2022-10-12T04:52	10	1	0.1	1	1	376	0.2	376	376	12.3	96.7
2022-10-12T04:53	10	1	0.1	1	1	376	0.2	376	376	12.3	96.6
2022-10-12T04:54	10	1	0.1	1	1	376	0.2	375	377	12.3	96.6
2022-10-12T04:55	10	1	0.1	1	1	376	0.2	376	377	12.3	96.6
2022-10-12T04:56	10	1	0.1	1	1	376	0.2	375	377	12.3	96.6
2022-10-12T04:57	10	1	0.1	1	1	376	0.2	376	377	12.3	96.6
2022-10-12T04:58	10	1	0.1	1	1	376	0.2	376	377	12.3	96.5
2022-10-12T04:59	10	1	0.1	1	1	376	0.2	376	377	12.3	96.5
2022-10-12T05:00	10	1	0.1	1	1	376	0.2	376	377	12.3	96.5
2022-10-12T05:01	10	1	0.1	1	1	376	0.2	376	377	12.3	96.5
2022-10-12T05:02	10	1	0.1	1	1	376	0.2	376	376	12.3	96.5
2022-10-12T05:03	10	1	0.1	1	1	376	0.2	376	377	12.4	96.4
2022-10-12T05:04	10	1	0.1	1	1	376	0.2	375	376	12.4	96.4
2022-10-12T05:05	10	1	0.1	1	1	376	0.2	376	377	12.4	96.4
2022-10-12T05:06	10	1	0.1	1	1	376	0.2	376	377	12.3	96.4
2022-10-12T05:07	10	1	0.1	1	1	376	0.2	375	376	12.4	96.4
2022-10-12T05:08	10	1	0.1	1	1	376	0.2	376	377	12.3	96.4
2022-10-12T05:09	10	1	0.1	1	1	376	0.2	376	377	12.3	96.4
2022-10-12T05:10	10	1	0.1	1	1	376	0.2	375	376	12.3	96.4
2022-10-12T05:11	10	1	0.1	1	1	376	0.3	376	376	12.3	96.4
2022-10-12T05:12	10	1	0.0	1	1	376	0.2	376	376	12.3	96.4
2022-10-12T05:13	10	1	0.1	1	1	376	0.2	375	376	12.3	96.5
2022-10-12T05:14	10	1	0.1	1	1	376	0.2	375	376	12.3	96.6
2022-10-12T05:15	10	1	0.1	1	1	376	0.2	375	376	12.3	96.6
2022-10-12T05:16	10	1	0.1	1	1	376	0.3	375	376	12.3	96.6
2022-10-12T05:17	10	1	0.1	1	1	376	0.2	375	376	12.3	96.5
2022-10-12T05:18	10	1	0.1	1	1	376	0.2	376	376	12.4	96.4
2022-10-12T05:19	10	1	0.1	1	1	376	0.2	375	376	12.4	96.3
2022-10-12T05:20	10	1	0.1	1	1	376	0.2	376	376	12.4	96.2
2022-10-12T05:21	10	1	0.1	1	1	376	0.2	375	376	12.4	96.1
2022-10-12T05:22	10	1	0.1	1	1	376	0.2	376	376	12.4	96.0
2022-10-12T05:23	10	1	0.1	1	1	376	0.2	375	377	12.4	95.9
2022-10-12T05:24	10	1	0.1	1	1	376	0.2	376	376	12.4	95.8
2022-10-12T05:25	10	1	0.1	1	1	376	0.2	375	377	12.4	95.9
2022-10-12T05:26	10	1	0.1	1	1	376	0.2	376	376	12.4	95.9
2022-10-12T05:27	10	1	0.1	1	1	376	0.2	376	376	12.4	96.0
2022-10-12T05:28	10	1	0.1	1	1	376	0.2	376	376	12.4	95.9
2022-10-12T05:29	10	1	0.1	1	1	376	0.2	376	377	12.4	95.9
2022-10-12T05:30	10	1	0.1	1	1	376	0.2	375	376	12.4	95.9
2022-10-12T05:31	10	1	0.1	1	1	376	0.2	376	376	12.4	95.9
2022-10-12T05:32	10	1	0.1	1	1	376	0.2	376	377	12.4	96.0
2022-10-12T05:33	10	1	0.1	1	1	376	0.2	376	376	12.4	96.0
2022-10-12T05:34	10	1	0.1	1	1	376	0.2	376	376	12.4	96.0
2022-10-12T05:35	10	1	0.1	1	1	376	0.2	376	377	12.5	95.9
2022-10-12T05:36	10	1	0.1	1	1	376	0.2	376	376	12.5	95.8
2022-10-12T05:37	10	1	0.1	1	1	376	0.2	376	377	12.5	95.7
2022-10-12T05:38	10	1	0.1	1	1	376	0.2	376	377	12.5	95.6
2022-10-12T05:39	10	1	0.1	1	1	377	0.2	376	377	12.5	95.5
2022-10-12T05:40	10	1	0.1	1	1	377	0.3	376	377	12.5	95.5
2022-10-12T05:41	10	1	0.1	1	1	377	0.2	376	377	12.5	95.4
2022-10-12T05:42	10	1	0.1	1	1	377	0.2	376	377	12.6	95.3
2022-10-12T05:43	10	1	0.1	1	1	377	0.2	376	377	12.6	95.3
2022-10-12T05:44	10	1	0.1	1	1	377	0.2	376	377	12.6	95.2
2022-10-12T05:45	10	1	0.1	1	1	376	0.2	376	377	12.6	95.2
2022-10-12T05:46	10	1	0.0	1	1	377	0.2	376	377	12.6	95.3
2022-10-12T05:47	10	1	0.1	1	1	376	0.3	376	377	12.6	95.4
2022-10-12T05:48	10	1	0.1	1	2	377	0.2	376	377	12.6	95.4
2022-10-12T05:49	10	1	0.1	1	2	377	0.2	376	377	12.6	95.4
2022-10-12T05:50	10	1	0.1	1	1	376	0.2	376	377	12.6	95.4
2022-10-12T05:51	10	1	0.1	1	1	376	0.3	376	377	12.6	95.4
2022-10-12T05:52	10	1	0.1	1	1	376	0.3	376	377	12.6	95.4
2022-10-12T05:53	10	1	0.1	1	1	376	0.3	376	377	12.6	95.3
2022-10-12T05:54	10	1	0.1	1	2	377	0.2	376	377	12.6	95.3
2022-10-12T05:55	10	1	0.1	1	1	377	0.2	376	377	12.6	95.3
2022-10-12T05:56	10	1	0.0	1	1	377	0.2	376	377	12.6	95.3
2022-10-12T05:57	10	1	0.1	1	2	377	0.3	376	377	12.6	95.3
2022-10-12T05:58	10	1	0.1	1	2	377	0.2	376	377	12.6	95.3
2022-10-12T05:59	10	1	0.1	1	2	377	0.2	377	377	12.6	95.2
2022-10-12T06:00	10	2	0.1	1	2	377	0.2	376	377	12.6	95.2
2022-10-12T06:01	10	2	0.1	1	2	377	0.2	376	377	12.6	95.1
2022-10-12T06:02	10	2	0.1	2	2	377	0.2	377	378	12.6	95.1
2022-10-12T06:03	10	2	0.1	2	2	377	0.2	377	378	12.6	95.1
2022-10-12T06:04	10	2	0.0	2	2	377	0.2	377	378	12.6	95.2
2022-10-12T06:05	10	2	0.0	2	2	378	0.2	377	378	12.7	95.2
2022-10-12T06:06	10	2	0.1	2	2	378	0.2	377	378	12.7	95.2
2022-10-12T06:07	10	2	0.1	2	2	378	0.2	377	378	12.7	95.2
2022-10-12T06:08	10	2	0.1	2	3	378	0.2	378	378	12.7	95.2
2022-10-12T06:09	10	2	0.1	2	3	378	0.2	377	378	12.7	95.2
2022-10-12T06:10	10	3	0.1	2	3	378	0.3	377	379	12.7	95.2
2022-10-12T06:11	10	3	0.1	3	3	378	0.2	378	379	12.7	95.1
2022-10-12T06:12	10	3	0.2	3	4	378	0.2	378	379	12.7	95.1
2022-10-12T06:13	10	4	0.1	4	4	378	0.2	378	378	12.7	95.1
2022-10-12T06:14	10	4	0.1	4	4	379	0.2	378	379	12.7	95.0
2022-10-12T06:15	10	4	0.1	4	5	378	0.2	378	379	12.7	95.0
2022-10-12T06:16	10	5	0.2	5	5	379	0.2	378	379	12.7	95.2
2022-10-12T06:17	10	5	0.1	5	6	379	0.2	378	380	12.7	95.3
2022-10-12T06:18	10	6	0.1	6	6	379	0.2	379	380	12.7	95.2
2022-10-12T06:19	10	6	0.1	6	6	379	0.2	379	380	12.7	95.2
2022-10-12T06:20	10	6	0.1	6	6	380	0.2	379	380	12.7	95.2
2022-10-12T06:21	10	6	0.1	6	6	380	0.2	379	380	12.8	95.2
2022-10-12T06:22	10	6	0.1	6	7	380	0.2	379	380	12.8	95.1
2022-10-12T06:23	10	7	0.1	6	7	379	0.2	379	380	12.8	95.1
2022-10-12T06:24	10	7	0.1	7	7	380	0.3	379	380	12.8	95.1
2022-10-12T06:25	10	7	0.1	7	8	380	0.2	379	380	12.8	95.1
2022-10-12T06:26	10	7	0.1	7	8	380	0.2	379	380	12.8	95.0
2022-10-12T06:27	10	8	0.1	8	8	380	0.2	379	380	12.8	95.0
2022-10-12T06:28	10	8	0.1	8	8	380	0.2	379	380	12.8	95.1
2022-10-12T06:29	10	8	0.1	8	9	380	0.2	379	380	12.7	95.3
2022-10-12T06:30	10	9	0.1	9	9	380	0.2	379	380	12.7	95.3
2022-10-12T06:31	10	9	0.1	9	9	380	0.2	379	380	12.8	95.2
2022-10-12T06:32	10	10	0.1	9	10	380	0.2	380	381	12.8	95.1
2022-10-12T06:33	10	10	0.1	10	10	380	0.2	380	381	12.8	95.1
2022-10-12T06:34	10	10	0.2	10	11	381	0.2	380	381	12.8	95.2
2022-10-12T06:35	10	11	0.2	11	11	381	0.2	380	381	12.8	95.4
2022-10-12T06:36	10	12	0.2	11	12	381	0.3	380	381	12.8	95.5
2022-10-12T06:37	10	12	0.2	12	12	381	0.2	380	382	12.8	95.4
2022-10-12T06:38	10	13	0.2	12	13	381	0.3	380	382	12.8	95.4
2022-10-12T06:39	10	13	0.2	13	14	382	0.2	381	382	12.8	95.5
2022-10-12T06:40	10	14	0.2	14	14	382	0.2	381	382	12.8	95.4
2022-10-12T06:41	10	14	0.2	14	15	382	0.2	381	382	12.8	95.3
2022-10-12T06:42	10	15	0.1	15	15	382	0.3	381	383	12.9	95.3
2022-10-12T06:43	10	15	0.2	15	16	382	0.2	382	383	12.9	95.1
2022-10-12T06:44	10	16	0.2	16	16	382	0.2	382	383	12.9	95.1
2022-10-12T06:45	10	16	0.2	16	17	383	0.2	382	383	12.9	95.2
2022-10-12T06:46	10	17	0.2	17	17	383	0.2	382	383	12.9	95.1
2022-10-12T06:47	10	17	0.1	17	18	383	0.2	383	383	12.9	95.0
2022-10-12T06:48	10	18	0.1	18	18	383	0.3	382	383	12.9	94.8
2022-10-12T06:49	10	18	0.1	18	19	383	0.2	383	384	13.0	94.6
2022-10-12T06:50	10	19	0.1	19	19	384	0.2	383	384	13.0	94.5
2022-10-12T06:51	10	19	0.1	19	19	384	0.2	383	385	13.0	94.5
2022-10-12T06:52	10	19	0.1	19	20	384	0.2	384	385	13.0	94.6
2022-10-12T06:53	10	20	0.1	20	20	384	0.3	384	385	13.1	94.6
2022-10-12T06:54	10	20	0.1	20	20	385	0.2	384	385	13.1	94.6
2022-10-12T06:55	10	20	0.1	20	20	385	0.2	384	385	13.1	94.5
2022-10-12T06:56	10	20	0.1	20	20	385	0.2	384	385	13.1	94.3
2022-10-12T06:57	10	19	0.2	19	20	385	0.2	385	385	13.1	94.2
2022-10-12T06:58	10	19	0.2	18	19	385	0.2	384	385	13.1	94.4
2022-10-12T06:59	10	18	0.2	18	18	385	0.2	385	385	13.1	94.3
2022-10-12T07:00	10	17	0.2	17	18	385	0.3	384	385	13.1	94.0
2022-10-12T07:01	10	16	0.2	16	17	385	0.3	384	385	13.2	93.9
2022-10-12T07:02	10	15	0.3	15	16	384	0.3	384	385	13.1	93.9
2022-10-12T07:03	10	15	0.2	14	15	384	0.2	384	385	13.1	93.8
2022-10-12T07:04	10	14	0.2	13	14	384	0.2	384	385	13.1	94.0
2022-10-12T07:05	10	13	0.1	13	14	384	0.2	384	385	13.1	94.0
2022-10-12T07:06	10	13	0.1	13	13	384	0.3	383	385	13.1	93.9
2022-10-12T07:07	10	13	0.1	13	13	384	0.2	383	384	13.1	93.9
2022-10-12T07:08	10	13	0.1	13	13	384	0.2	383	384	13.2	94.1
2022-10-12T07:09	10	14	0.1	13	14	384	0.2	384	385	13.2	93.9
2022-10-12T07:10	10	14	0.2	14	15	384	0.2	384	385	13.2	94.0
2022-10-12T07:11	10	15	0.2	14	15	384	0.2	384	385	13.2	93.9
2022-10-12T07:12	10	16	0.3	15	16	385	0.2	384	385	13.2	93.8
2022-10-12T07:13	10	17	0.3	16	17	385	0.2	384	385	13.2	93.7
2022-10-12T07:14	10	17	0.2	17	18	385	0.2	384	385	13.2	93.7
2022-10-12T07:15	10	18	0.1	18	18	385	0.3	385	386	13.2	93.7
2022-10-12T07:16	10	18	0.1	18	18	386	0.2	385	386	13.2	93.7
2022-10-12T07:17	10	18	0.1	18	18	386	0.2	385	386	13.2	93.7
2022-10-12T07:18	10	18	0.1	17	18	386	0.4	385	387	13.2	93.8
2022-10-12T07:19	10	17	0.1	17	18	386	0.3	385	387	13.2	93.8
2022-10-12T07:20	10	17	0.1	17	17	386	0.2	386	387	13.2	93.8
2022-10-12T07:21	10	17	0.1	17	18	386	0.3	385	387	13.2	93.7
2022-10-12T07:22	10	17	0.1	17	17	386	0.3	385	387	13.3	93.9
2022-10-12T07:23	10	17	0.1	17	18	386	0.5	385	387	13.3	94.2
2022-10-12T07:24	10	18	0.1	17	18	386	0.3	386	387	13.3	94.3
2022-10-12T07:25	10	18	0.1	18	18	386	0.2	386	387	13.2	94.6
2022-10-12T07:26	10	18	0.1	18	18	386	0.3	385	387	13.2	94.7
2022-10-12T07:27	10	18	0.1	18	18	386	0.3	386	387	13.2	94.8
2022-10-12T07:28	10	18	0.1	18	18	386	0.2	386	387	13.2	94.7
2022-10-12T07:29	10	18	0.1	18	18	386	0.3	386	387	13.2	94.7
2022-10-12T07:30	10	18	0.1	18	18	386	0.2	386	387	13.2	94.5
2022-10-12T07:31	10	18	0.1	18	18	387	0.2	386	387	13.2	94.5
2022-10-12T07:32	10	18	0.1	18	19	386	0.2	386	387	13.2	94.5
2022-10-12T07:33	10	19	0.2	18	19	386	0.2	386	387	13.3	94.4
2022-10-12T07:34	10	19	0.2	19	20	387	0.4	386	387	13.3	94.4
2022-10-12T07:35	10	20	0.2	20	20	387	0.5	386	388	13.4	94.5
2022-10-12T07:36	10	20	0.1	20	21	387	0.2	387	388	13.3	94.1
2022-10-12T07:37	10	20	0.1	20	21	387	0.2	386	387	13.4	93.9
2022-10-12T07:38	10	20	0.1	20	20	387	0.3	386	387	13.4	94.0
2022-10-12T07:39	10	20	0.1	20	20	387	0.4	386	387	13.5	94.1
2022-10-12T07:40	10	20	0.1	19	20	386	0.3	386	387	13.5	93.7
2022-10-12T07:41	10	20	0.1	19	20	386	0.4	385	387	13.4	93.4
2022-10-12T07:42	10	20	0.1	20	20	385	0.4	384	386	13.4	93.4
2022-10-12T07:43	10	20	0.1	20	20	386	0.3	385	386	13.5	93.6
2022-10-12T07:44	10	20	0.1	20	20	385	0.4	384	386	13.4	93.4
2022-10-12T07:45	10	20	0.2	20	21	385	0.3	384	385	13.4	93.2
2022-10-12T07:46	10	21	0.4	21	22	384	0.4	384	385	13.4	93.3
2022-10-12T07:47	10	23	0.7	22	24	384	0.3	383	384	13.3	93.5
2022-10-12T07:48	10	26	0.7	24	27	384	0.4	383	385	13.4	93.7
2022-10-12T07:49	10	28	0.5	27	28	385	0.4	384	385	13.4	93.7
2022-10-12T07:50	10	28	0.5	27	29	385	0.3	384	386	13.4	93.5
2022-10-12T07:51	10	26	0.5	25	27	385	0.4	385	386	13.3	93.0
2022-10-12T07:52	10	25	0.4	24	26	386	0.3	385	386	13.4	92.8
2022-10-12T07:53	10	24	0.2	24	24	386	0.3	385	387	13.4	93.1
2022-10-12T07:54	10	24	0.2	24	24	386	0.5	385	387	13.3	93.0
2022-10-12T07:55	10	25	0.2	24	25	387	0.2	386	387	13.3	93.0
2022-10-12T07:56	10	25	0.2	25	26	387	0.4	386	387	13.4	93.2
2022-10-12T07:57	10	26	0.2	25	26	387	0.3	387	388	13.4	93.2
2022-10-12T07:58	10	27	0.4	26	27	387	0.3	386	388	13.5	93.2
2022-10-12T07:59	10	28	0.3	27	29	388	0.4	387	389	13.4	92.9
2022-10-12T08:00	10	29	0.4	28	30	388	0.4	388	389	13.4	92.9
2022-10-12T08:01	10	30	0.4	30	31	388	0.4	387	389	13.4	92.7
2022-10-12T08:02	10	32	0.3	31	32	389	0.3	388	390	13.4	92.8
2022-10-12T08:03	10	33	0.2	32	33	389	0.2	389	390	13.5	93.1
2022-10-12T08:04	10	33	0.1	33	33	390	0.4	389	390	13.5	93.0
2022-10-12T08:05	10	33	0.1	33	34	389	0.3	389	390	13.4	92.4
2022-10-12T08:06	10	34	0.2	34	34	390	0.3	389	390	13.4	92.3
2022-10-12T08:07	10	34	0.1	34	34	390	0.2	389	390	13.4	92.3
2022-10-12T08:08	10	34	0.1	34	35	390	0.3	389	390	13.4	92.4
2022-10-12T08:09	10	34	0.2	34	35	390	0.3	389	390	13.4	92.4
2022-10-12T08:10	10	34	0.3	33	34	390	0.3	390	391	13.4	92.5
2022-10-12T08:11	10	32	0.4	32	33	390	0.5	389	391	13.4	92.6
2022-10-12T08:12	10	32	0.2	31	32	390	0.3	389	391	13.4	92.6
2022-10-12T08:13	10	31	0.1	31	31	390	0.2	389	390	13.4	92.7
2022-10-12T08:14	10	31	0.2	31	32	390	0.6	388	391	13.4	92.7
2022-10-12T08:15	10	32	0.3	32	33	390	0.4	390	391	13.4	92.9
2022-10-12T08:16	10	33	0.3	33	34	391	0.6	389	392	13.4	92.9
2022-10-12T08:17	10	34	0.3	34	35	391	0.4	390	392	13.6	93.2
2022-10-12T08:18	10	36	0.3	35	36	391	0.3	391	392	13.5	93.0
2022-10-12T08:19	10	37	0.2	36	37	391	0.4	390	392	13.5	92.8
2022-10-12T08:20	10	37	0.1	37	37	392	0.4	391	393	13.6	92.9
2022-10-12T08:21	10	37	0.1	37	37	393	0.3	392	393	13.7	93.1
2022-10-12T08:22	10	37	0.2	36	37	393	0.3	392	394	13.7	92.9
2022-10-12T08:23	10	36	0.1	36	36	393	0.3	392	394	13.7	92.9
2022-10-12T08:24	10	36	0.1	36	36	392	0.5	391	393	13.6	92.5
2022-10-12T08:25	10	36	0.1	36	36	392	0.4	391	393	13.6	92.1
2022-10-12T08:26	10	36	0.1	36	36	392	0.3	392	393	13.7	92.4
2022-10-12T08:27	10	36	0.1	35	36	392	0.3	392	393	13.6	92.2
2022-10-12T08:28	10	36	0.1	35	36	392	0.3	391	393	13.6	92.0
2022-10-12T08:29	10	35	0.1	35	36	393	0.3	392	393	13.7	92.2
2022-10-12T08:30	10	35	0.1	35	36	393	0.5	392	395	13.9	92.7
2022-10-12T08:31	10	36	0.2	35	36	394	0.5	393	394	13.9	92.6
2022-10-12T08:32	10	36	0.2	36	37	393	0.3	393	394	13.7	91.9
2022-10-12T08:33	10	37	0.2	37	38	393	0.3	393	394	13.8	92.2
2022-10-12T08:34	10	38	0.2	38	38	393	0.5	392	394	13.8	92.2
2022-10-12T08:35	10	39	0.2	38	39	393	0.3	392	393	13.8	92.0
2022-10-12T08:36	10	39	0.1	39	40	392	0.3	392	393	13.7	91.6
2022-10-12T08:37	10	40	0.1	39	40	393	0.4	393	394	13.7	91.4
2022-10-12T08:38	10	40	0.1	40	40	393	0.3	393	394	13.7	91.5
2022-10-12T08:39	10	40	0.1	40	41	393	0.3	393	394	13.8	91.6
2022-10-12T08:40	10	41	0.2	40	41	393	0.3	392	394	13.9	91.7
2022-10-12T08:41	10	41	0.1	41	41	393	0.2	393	394	13.9	91.6
2022-10-12T08:42	10	41	0.2	41	41	393	0.3	393	394	13.8	91.3
2022-10-12T08:43	10	41	0.2	41	42	394	0.3	394	395	13.9	91.8
2022-10-12T08:44	10	42	0.2	41	42	394	0.3	394	395	13.8	91.3
2022-10-12T08:45	10	42	0.3	42	43	395	0.3	394	396	13.8	91.5
2022-10-12T08:46	10	43	0.2	43	43	395	0.2	395	396	13.8	91.4
2022-10-12T08:47	10	43	0.1	43	44	395	0.3	394	396	14.0	91.9
2022-10-12T08:48	10	43	0.3	42	43	396	0.3	395	397	14.1	92.0
2022-10-12T08:49	10	41	0.4	41	43	396	0.2	396	397	14.1	91.1
2022-10-12T08:50	10	40	0.4	40	41	396	0.3	395	397	14.2	90.7
2022-10-12T08:51	10	39	0.2	39	40	396	0.3	395	396	14.2	90.9
2022-10-12T08:52	10	39	0.2	39	40	396	0.3	395	397	14.1	90.5
2022-10-12T08:53	10	40	0.3	39	40	395	0.7	394	397	14.1	90.2
2022-10-12T08:54	10	41	0.5	40	42	396	0.3	395	396	14.1	90.3
2022-10-12T08:55	10	42	0.3	42	43	396	0.4	395	397	14.2	90.9
2022-10-12T08:56	10	43	0.3	43	44	396	0.2	396	397	14.1	90.8
2022-10-12T08:57	10	44	0.1	43	44	397	0.4	396	398	14.2	91.1
2022-10-12T08:58	10	43	0.2	43	44	397	0.3	396	398	14.2	90.2
2022-10-12T08:59	10	43	0.2	43	44	397	0.4	396	397	14.3	90.3
2022-10-12T09:00	10	43	0.1	43	44	396	0.8	395	398	14.1	89.7
2022-10-12T09:01	10	43	0.1	43	44	395	0.5	394	396	14.0	89.6
2022-10-12T09:02	10	44	0.3	43	44	395	0.4	394	396	14.0	89.8
2022-10-12T09:03	10	45	0.6	44	46	396	0.3	395	396	14.0	89.9
2022-10-12T09:04	10	47	0.5	46	48	396	0.3	396	397	14.1	89.8
2022-10-12T09:05	10	49	0.6	48	49	397	0.4	396	397	14.2	89.5
2022-10-12T09:06	10	49	0.1	49	50	396	0.4	396	397	14.3	89.3
2022-10-12T09:07	10	50	0.1	49	50	396	0.3	396	397	14.2	88.9
2022-10-12T09:08	10	49	0.2	49	49	397	0.4	396	398	14.3	89.5
2022-10-12T09:09	10	48	0.3	48	49	398	0.2	397	398	14.4	89.2
2022-10-12T09:10	10	48	0.1	48	48	398	0.6	395	398	14.4	89.1
2022-10-12T09:11	10	48	0.1	48	48	398	0.9	395	399	14.4	88.6
2022-10-12T09:12	10	48	0.1	48	48	396	0.3	396	397	14.3	88.3
2022-10-12T09:13	10	48	0.1	48	49	397	0.3	396	397	14.3	88.5
2022-10-12T09:14	10	48	0.1	48	48	397	0.3	396	398	14.4	88.3
2022-10-12T09:15	10	48	0.1	48	48	397	0.3	396	398	14.4	88.1
2022-10-12T09:16	10	48	0.1	48	48	398	0.3	397	398	14.4	88.0
2022-10-12T09:17	10	48	0.1	48	48	397	0.3	396	398	14.4	87.2
2022-10-12T09:18	10	48	0.1	48	48	397	0.3	397	398	14.4	87.5
2022-10-12T09:19	10	48	0.1	48	48	397	0.4	396	398	14.3	86.9
2022-10-12T09:20	10	48	0.1	48	48	398	0.5	397	399	14.4	87.6
2022-10-12T09:21	10	48	0.1	48	48	398	0.3	397	398	14.4	87.2
2022-10-12T09:22	10	48	0.2	47	48	397	0.3	397	398	14.3	87.0
2022-10-12T09:23	10	47	0.3	46	47	397	0.3	396	397	14.2	86.6
2022-10-12T09:24	10	46	0.3	46	46	397	0.3	397	398	14.3	86.9
2022-10-12T09:25	10	45	0.2	45	46	397	0.3	397	398	14.4	87.3
2022-10-12T09:26	10	45	0.1	44	45	397	0.2	396	398	14.4	87.6
2022-10-12T09:27	10	45	0.1	45	45	397	0.3	396	397	14.4	88.2
2022-10-12T09:28	10	45	0.1	45	45	395	0.5	394	397	14.3	87.8
2022-10-12T09:29	10	45	0.1	45	45	396	0.4	395	396	14.3	87.3
2022-10-12T09:30	10	45	0.2	45	45	396	0.3	396	397	14.4	87.1
2022-10-12T09:31	10	45	0.1	44	45	396	0.3	395	396	14.3	87.3
2022-10-12T09:32	10	45	0.1	44	45	396	0.4	395	397	14.3	87.6
2022-10-12T09:33	10	45	0.2	45	45	396	0.4	395	397	14.4	87.6
2022-10-12T09:34	10	45	0.1	45	45	397	0.2	396	397	14.4	87.5
2022-10-12T09:35	10	45	0.1	45	45	397	0.2	396	397	14.4	87.2
2022-10-12T09:36	10	45	0.1	45	45	397	0.3	396	397	14.4	85.7
2022-10-12T09:37	10	45	0.1	45	45	396	0.2	396	397	14.4	85.2
2022-10-12T09:38	10	45	0.1	45	45	397	0.5	396	398	14.5	85.5
2022-10-12T09:39	10	45	0.1	45	45	397	0.2	397	397	14.5	85.8
2022-10-12T09:40	10	45	0.1	45	45	397	0.4	396	397	14.5	86.4
2022-10-12T09:41	10	46	0.2	45	46	396	0.2	396	397	14.5	86.5
2022-10-12T09:42	10	46	0.1	46	46	396	0.3	396	397	14.6	86.1
2022-10-12T09:43	10	46	0.2	46	46	395	0.4	395	396	14.5	85.2
2022-10-12T09:44	10	46	0.1	46	46	396	0.2	395	396	14.5	85.3
2022-10-12T09:45	10	46	0.1	45	46	396	0.4	395	397	14.6	85.5
2022-10-12T09:46	10	46	0.2	46	46	397	0.3	396	397	14.6	85.6
2022-10-12T09:47	10	47	0.3	46	47	397	0.2	396	397	14.6	85.4
2022-10-12T09:48	10	48	0.3	47	48	396	0.3	395	397	14.5	84.8
2022-10-12T09:49	10	49	0.2	48	49	396	0.3	396	397	14.5	84.8
2022-10-12T09:50	10	50	0.2	49	50	396	0.3	396	397	14.5	85.0
2022-10-12T09:51	10	50	0.1	50	50	397	0.6	396	398	14.6	85.0
2022-10-12T09:52	10	50	0.1	50	50	399	0.4	398	399	14.7	85.3
2022-10-12T09:53	10	50	0.2	49	50	398	0.9	397	400	14.7	84.5
2022-10-12T09:54	10	49	0.1	49	50	398	0.4	397	398	14.7	83.9
2022-10-12T09:55	10	49	0.1	49	50	397	0.3	397	398	14.7	83.7
2022-10-12T09:56	10	50	0.2	50	50	397	0.4	396	398	14.7	82.7
2022-10-12T09:57	10	51	0.2	50	51	397	0.2	396	398	14.7	81.7
2022-10-12T09:58	10	51	0.2	51	52	397	0.3	397	398	14.7	80.8
2022-10-12T09:59	10	52	0.2	51	52	397	0.5	396	398	14.6	81.6
2022-10-12T10:00	10	52	0.2	52	53	398	0.3	398	399	14.8	82.6
2022-10-12T10:01	10	53	0.2	52	53	399	0.4	398	400	14.8	82.6
2022-10-12T10:02	10	54	0.2	53	54	400	0.4	399	400	14.8	82.7
2022-10-12T10:03	10	54	0.1	53	54	400	0.3	400	401	14.9	82.8
2022-10-12T10:04	10	53	0.2	53	54	400	0.5	399	401	14.9	83.0
2022-10-12T10:05	10	53	0.2	52	53	401	0.5	399	401	15.0	84.0
2022-10-12T10:06	10	52	0.1	52	52	401	0.4	400	402	15.1	84.2
2022-10-12T10:07	10	52	0.1	52	52	400	0.7	399	401	15.0	82.6
2022-10-12T10:08	10	52	0.1	52	52	400	0.3	399	401	14.9	82.7
2022-10-12T10:09	10	52	0.2	52	52	400	0.4	399	400	14.8	82.1
2022-10-12T10:10	10	53	0.2	52	53	399	0.4	399	400	14.7	82.0
2022-10-12T10:11	10	53	0.2	53	54	400	0.3	400	401	14.8	81.6
2022-10-12T10:12	10	54	0.2	54	55	400	0.7	398	401	14.8	80.8
2022-10-12T10:13	10	55	0.2	54	55	400	0.4	399	401	14.8	81.1
2022-10-12T10:14	10	55	0.1	55	55	401	0.3	401	402	14.9	81.9
2022-10-12T10:15	10	55	0.2	55	56	401	0.3	400	402	15.0	82.7
2022-10-12T10:16	10	56	0.2	56	56	401	0.6	400	402	14.9	82.8
2022-10-12T10:17	10	56	0.2	56	57	401	0.6	400	402	14.8	82.4
2022-10-12T10:18	10	57	0.2	57	57	401	0.3	400	401	14.8	82.2
2022-10-12T10:19	10	57	0.1	57	58	401	0.4	400	402	14.9	81.8
2022-10-12T10:20	10	57	0.1	57	57	402	0.6	401	403	14.9	82.2
2022-10-12T10:21	10	57	0.1	57	57	401	0.3	400	402	15.1	82.1
2022-10-12T10:22	10	57	0.1	57	58	401	0.5	400	402	14.9	80.9
2022-10-12T10:23	10	57	0.1	57	58	401	0.3	401	402	14.8	80.6
2022-10-12T10:24	10	58	0.2	57	58	401	0.3	400	402	14.9	80.8
2022-10-12T10:25	10	58	0.1	58	59	402	0.5	401	403	14.9	80.7
2022-10-12T10:26	10	58	0.1	58	59	402	0.3	402	403	14.9	80.3
2022-10-12T10:27	10	58	0.2	58	58	403	0.5	402	404	15.0	80.1
2022-10-12T10:28	10	58	0.1	57	58	403	0.3	403	404	15.1	80.5
2022-10-12T10:29	10	57	0.2	57	57	402	0.6	401	403	15.2	81.7
2022-10-12T10:30	10	56	0.2	56	57	401	0.4	400	402	15.1	80.7
2022-10-12T10:31	10	56	0.2	55	56	402	0.2	401	402	14.9	79.7
2022-10-12T10:32	10	55	0.2	55	56	402	0.3	402	403	14.9	79.9
2022-10-12T10:33	10	55	0.1	55	55	403	0.4	402	403	15.0	80.3
2022-10-12T10:34	10	55	0.1	55	55	403	0.3	402	403	15.0	80.6
2022-10-12T10:35	10	55	0.2	55	56	402	0.2	402	403	15.0	80.2
2022-10-12T10:36	10	56	0.2	56	56	403	0.3	402	404	15.0	80.1
2022-10-12T10:37	10	57	0.3	56	57	404	0.5	403	404	15.1	81.0
2022-10-12T10:38	10	57	0.2	57	58	404	0.5	403	404	15.3	81.8
2022-10-12T10:39	10	57	0.1	57	58	403	0.3	403	404	15.1	81.4
2022-10-12T10:40	10	57	0.3	56	57	403	0.2	403	404	15.1	80.7
2022-10-12T10:41	10	56	0.3	55	56	403	0.4	402	404	15.1	80.8
2022-10-12T10:42	10	55	0.2	54	55	404	0.6	403	405	15.2	81.1
2022-10-12T10:43	10	55	0.1	54	55	404	0.6	403	406	15.4	82.1
2022-10-12T10:44	10	55	0.1	54	55	403	0.5	402	404	15.4	81.5
2022-10-12T10:45	10	55	0.1	55	55	403	0.5	402	404	15.3	80.3
2022-10-12T10:46	10	55	0.1	55	56	403	0.3	403	404	15.4	80.7
2022-10-12T10:47	10	55	0.1	55	56	403	0.4	402	404	15.2	80.0
2022-10-12T10:48	10	55	0.4	54	55	403	0.2	403	404	15.1	80.0
2022-10-12T10:49	10	53	0.4	53	54	403	0.3	403	404	15.2	79.7
2022-10-12T10:50	10	52	0.4	51	53	404	0.2	403	404	15.3	79.2
2022-10-12T10:51	10	50	0.5	50	51	404	0.4	403	405	15.2	79.3
2022-10-12T10:52	10	49	0.4	48	50	403	0.5	402	404	15.2	79.4
2022-10-12T10:53	10	47	0.3	47	48	402	0.8	401	404	15.1	79.9
2022-10-12T10:54	10	46	0.3	46	47	401	0.3	400	402	15.0	79.3
2022-10-12T10:55	10	46	0.1	46	46	401	0.4	400	402	15.0	79.4
2022-10-12T10:56	10	46	0.1	46	46	401	0.3	401	402	15.1	79.9
2022-10-12T10:57	10	45	0.1	45	46	402	0.3	402	403	15.2	80.1
2022-10-12T10:58	10	45	0.1	45	45	403	0.3	402	404	15.3	79.5
2022-10-12T10:59	10	45	0.1	45	45	403	1.0	402	405	15.4	80.4
2022-10-12T11:00	10	45	0.1	45	45	403	0.2	403	403	15.4	79.4
2022-10-12T11:01	10	44	0.1	44	45	403	0.2	403	403	15.5	79.6
2022-10-12T11:02	10	45	0.1	44	45	403	0.2	402	403	15.4	79.8
2022-10-12T11:03	10	45	0.1	45	45	402	0.4	401	403	15.4	81.3
2022-10-12T11:04	10	45	0.1	45	45	400	1.7	398	403	15.4	81.6
2022-10-12T11:05	10	45	0.0	45	45	400	0.3	399	400	15.2	80.1
2022-10-12T11:06	10	45	0.2	45	45	400	0.3	399	401	15.1	79.8
2022-10-12T11:07	10	46	0.1	46	46	401	0.5	400	402	15.1	79.8
2022-10-12T11:08	10	46	0.2	46	47	401	0.4	400	402	15.1	79.7
2022-10-12T11:09	10	47	0.3	47	48	402	0.5	401	403	15.2	79.7
2022-10-12T11:10	10	48	0.4	48	49	403	0.3	402	403	15.3	79.8
2022-10-12T11:11	10	50	0.4	49	51	403	0.3	403	404	15.4	80.4
2022-10-12T11:12	10	51	0.3	51	52	404	0.6	403	405	15.4	80.0
2022-10-12T11:13	10	52	0.1	52	52	403	0.3	402	404	15.3	79.2
2022-10-12T11:14	10	52	0.1	52	52	404	0.4	403	404	15.4	80.0
2022-10-12T11:15	10	52	0.1	52	52	403	0.4	403	404	15.2	79.6
2022-10-12T11:16	10	52	0.2	52	53	403	0.3	402	403	15.1	78.9
2022-10-12T11:17	10	53	0.3	53	54	403	0.4	402	404	15.2	79.5
2022-10-12T11:18	10	54	0.4	54	55	404	0.6	403	405	15.2	78.8
2022-10-12T11:19	10	55	0.3	55	56	404	0.2	404	405	15.3	78.8
2022-10-12T11:20	10	56	0.2	56	56	405	0.3	404	406	15.3	79.2
2022-10-12T11:21	10	57	0.2	56	57	405	0.2	405	406	15.3	78.5
2022-10-12T11:22	10	57	0.4	57	58	405	0.2	405	406	15.3	78.4
2022-10-12T11:23	10	59	0.7	58	61	406	0.5	404	406	15.4	78.5
2022-10-12T11:24	10	62	0.8	61	63	407	0.4	406	407	15.4	78.1
2022-10-12T11:25	10	64	0.5	63	65	407	0.2	407	408	15.4	77.2
2022-10-12T11:26	10	66	0.4	65	66	407	0.2	407	408	15.4	76.4
2022-10-12T11:27	10	67	0.3	66	67	407	0.3	406	408	15.4	75.6
2022-10-12T11:28	10	68	0.3	67	68	408	0.4	407	408	15.5	75.5
2022-10-12T11:29	10	69	0.3	68	70	409	0.3	408	409	15.6	76.0
2022-10-12T11:30	10	70	0.5	69	71	409	0.4	408	410	15.7	76.6
2022-10-12T11:31	10	72	0.9	71	74	410	0.5	409	411	15.6	75.8
2022-10-12T11:32	10	77	2.4	74	82	410	0.3	409	410	15.6	76.2
2022-10-12T11:33	10	91	6.3	82	100	411	0.9	410	413	15.6	77.0
2022-10-12T11:34	10	78	0.9	77	81	412	0.5	411	413	16.0	78.6
2022-10-12T11:35	10	79	0.6	78	80	412	0.4	412	413	16.0	77.3
2022-10-12T11:36	10	80	0.3	79	80	413	0.4	412	413	16.0	76.8
2022-10-12T11:37	10	78	0.5	77	79	412	0.3	412	413	16.0	76.6
2022-10-12T11:38	10	78	0.4	77	79	411	0.6	410	412	15.8	76.6
2022-10-12T11:39	10	83	1.8	79	85	412	0.5	411	413	15.8	77.6
2022-10-12T11:40	10	77	2.9	73	82	411	0.7	410	412	15.8	76.2
2022-10-12T11:41	10	72	0.8	71	73	411	0.3	410	411	15.9	76.0
2022-10-12T11:42	10	70	0.6	69	71	411	0.4	410	412	16.0	76.0
2022-10-12T11:43	10	68	0.3	68	69	411	0.3	410	411	16.0	75.3
2022-10-12T11:44	10	67	0.2	67	68	409	0.6	408	411	15.9	75.1
2022-10-12T11:45	10	67	0.2	67	67	408	0.4	408	409	15.8	75.4
2022-10-12T11:46	10	68	0.3	67	69	409	0.4	408	410	15.7	76.5
2022-10-12T11:47	10	69	0.1	68	69	410	0.4	409	410	15.6	76.4
2022-10-12T11:48	10	69	0.1	68	69	410	0.4	409	411	15.7	76.7
2022-10-12T11:49	10	69	0.1	69	69	410	0.2	409	410	15.7	76.1
2022-10-12T11:50	10	68	0.3	68	69	410	0.3	409	410	15.7	76.1
2022-10-12T11:51	10	68	0.1	67	68	410	0.3	409	410	15.8	77.3
2022-10-12T11:52	10	68	0.1	67	68	410	0.3	409	410	15.7	76.7
2022-10-12T11:53	10	68	0.3	67	68	409	0.5	408	410	15.8	77.0
2022-10-12T11:54	10	69	0.1	68	69	408	0.4	407	409	15.6	75.8
2022-10-12T11:55	10	68	0.2	68	69	407	0.4	406	408	15.6	75.9
2022-10-12T11:56	10	70	0.6	69	71	408	0.8	407	410	15.6	76.1
2022-10-12T11:57	10	74	2.5	71	80	410	0.3	409	410	15.8	76.0
2022-10-12T11:58	10	84	4.9	80	100	410	0.5	410	412	15.7	75.6
2022-10-12T11:59	10	119	14.2	101	149	415	2.3	411	419	15.9	76.6
2022-10-12T12:00	10	147	2.9	138	150	420	1.2	417	421	15.9	75.9
2022-10-12T12:01	10	143	7.7	135	156	420	0.5	419	421	15.8	75.6
2022-10-12T12:02	10	137	17.7	109	157	421	1.2	418	423	15.9	75.3
2022-10-12T12:03	10	98	4.3	93	108	417	1.1	416	420	15.8	74.9
2022-10-12T12:04	10	114	6.1	105	122	417	0.8	416	419	16.0	75.7
2022-10-12T12:05	10	84	11.6	72	114	415	1.9	413	419	15.8	74.7
2022-10-12T12:06	10	70	1.2	68	72	413	0.7	411	414	15.8	75.6
2022-10-12T12:07	10	67	0.9	66	68	410	1.2	409	412	15.8	75.5
2022-10-12T12:08	10	64	0.6	63	65	408	0.6	408	410	15.8	75.7
2022-10-12T12:09	10	63	0.4	62	63	407	0.3	407	408	15.8	75.5
2022-10-12T12:10	10	62	0.2	61	62	408	0.2	407	408	15.7	75.3
2022-10-12T12:11	10	61	0.3	60	62	408	0.2	407	409	15.8	75.6
2022-10-12T12:12	10	60	0.4	59	60	408	0.5	407	408	15.8	75.4
2022-10-12T12:13	10	58	0.4	58	59	407	0.4	406	408	15.8	75.3
2022-10-12T12:14	10	57	0.2	57	58	407	0.3	406	408	15.8	75.9
2022-10-12T12:15	10	57	0.1	56	57	407	0.4	406	408	16.0	77.4
2022-10-12T12:16	10	56	0.1	56	57	407	0.6	406	408	15.8	75.0
2022-10-12T12:17	10	56	0.1	56	57	407	0.3	406	407	15.8	75.1
2022-10-12T12:18	10	56	0.1	56	57	407	0.3	406	408	15.8	75.7
2022-10-12T12:19	10	56	0.1	56	57	407	0.5	406	408	15.7	75.4
2022-10-12T12:20	10	56	0.2	56	57	406	0.2	406	407	15.6	75.4
2022-10-12T12:21	10	55	0.3	55	56	406	0.3	406	407	15.7	75.3
2022-10-12T12:22	10	54	0.4	54	55	407	0.2	407	407	15.9	75.8
2022-10-12T12:23	10	53	0.2	53	54	407	0.3	406	407	15.9	75.4
2022-10-12T12:24	10	53	0.1	52	53	406	0.3	406	407	15.8	75.7
2022-10-12T12:25	10	53	0.2	53	53	406	0.3	405	407	15.9	76.2
2022-10-12T12:26	10	54	0.2	53	54	407	0.5	405	407	15.9	76.8
2022-10-12T12:27	10	54	0.1	54	54	406	0.3	405	406	15.9	77.4
2022-10-12T12:28	10	54	0.2	53	54	406	0.4	405	406	16.0	78.1
2022-10-12T12:29	10	53	0.4	52	54	406	0.3	405	407	16.0	77.9
2022-10-12T12:30	10	51	0.8	50	52	405	0.9	403	406	15.9	78.1
2022-10-12T12:31	10	48	1.1	46	50	404	0.4	403	405	16.0	78.3
2022-10-12T12:32	10	44	1.1	42	46	403	0.8	402	404	15.8	77.5
2022-10-12T12:33	10	40	1.1	39	42	402	0.7	400	403	15.7	77.8
2022-10-12T12:34	10	38	0.3	38	39	400	0.4	399	401	15.7	77.3
2022-10-12T12:35	10	43	2.7	39	48	400	0.6	398	401	15.7	76.9
2022-10-12T12:36	10	61	10.2	48	88	401	1.3	399	404	15.7	76.9
2022-10-12T12:37	10	119	13.9	90	137	408	3.6	402	414	15.8	76.8
2022-10-12T12:38	10	129	8.0	116	138	413	0.8	411	415	16.0	76.1
2022-10-12T12:39	10	135	4.2	124	139	415	0.9	413	416	16.0	75.2
2022-10-12T12:40	10	139	0.2	139	139	417	0.4	416	417	16.2	75.3
2022-10-12T12:41	10	139	0.2	138	139	417	0.4	416	418	16.1	75.0
2022-10-12T12:42	10	138	0.5	137	139	418	0.2	418	419	16.1	75.1
2022-10-12T12:43	10	137	0.1	137	137	419	0.3	418	419	16.3	75.5
2022-10-12T12:44	10	137	0.1	137	137	420	0.2	419	420	16.5	74.6
2022-10-12T12:45	10	137	0.1	137	137	421	0.3	420	421	16.6	74.2
2022-10-12T12:46	10	137	0.1	137	137	421	0.4	421	422	16.8	76.4
2022-10-12T12:47	10	137	0.1	137	137	421	0.2	421	422	16.8	72.3
2022-10-12T12:48	10	137	0.2	137	137	422	0.3	421	422	16.7	72.6
2022-10-12T12:49	10	136	0.4	135	137	422	0.3	422	423	16.7	72.6
2022-10-12T12:50	10	135	0.2	134	135	422	0.4	421	423	16.5	73.2
2022-10-12T12:51	10	134	0.3	134	134	421	0.2	421	422	16.6	73.9
2022-10-12T12:52	10	133	0.3	133	134	422	0.4	421	422	16.6	73.9
2022-10-12T12:53	10	132	0.2	132	133	421	0.5	420	422	16.5	73.8
2022-10-12T12:54	10	132	0.1	132	132	422	0.3	421	422	16.5	74.3
2022-10-12T12:55	10	132	0.2	131	132	422	0.6	421	423	16.8	74.3
2022-10-12T12:56	10	131	0.3	130	132	421	0.4	420	422	16.8	72.9
2022-10-12T12:57	10	130	0.5	129	130	422	0.4	421	423	16.7	72.4
2022-10-12T12:58	10	128	0.5	127	129	422	0.3	421	423	16.8	73.3
2022-10-12T12:59	10	127	0.3	126	127	422	0.6	421	423	16.7	73.6
2022-10-12T13:00	10	125	0.2	125	126	422	0.4	421	422	16.8	74.5
2022-10-12T13:01	10	125	0.2	125	126	421	0.4	420	421	17.0	75.4
2022-10-12T13:02	10	125	0.2	125	126	421	0.6	420	422	16.9	74.1
2022-10-12T13:03	10	124	0.4	123	125	420	0.9	418	421	16.8	74.4
2022-10-12T13:04	10	123	0.3	122	124	420	0.4	419	421	16.7	73.3
2022-10-12T13:05	10	122	0.3	122	123	420	0.8	418	421	16.5	72.6
2022-10-12T13:06	10	121	0.3	121	122	419	0.7	418	421	16.4	72.9
2022-10-12T13:07	10	121	0.1	121	121	419	0.4	418	420	16.5	72.6
2022-10-12T13:08	10	120	0.2	120	121	420	0.7	418	421	16.7	72.9
2022-10-12T13:09	10	120	0.2	120	120	421	0.9	419	423	16.7	73.3
2022-10-12T13:10	10	120	0.1	119	120	420	0.6	419	421	17.0	74.3
2022-10-12T13:11	10	119	0.2	119	120	419	0.5	418	420	16.8	72.5
2022-10-12T13:12	10	119	0.2	118	119	421	0.6	419	422	17.0	73.1
2022-10-12T13:13	10	118	0.1	118	119	420	0.6	418	421	17.0	73.6
2022-10-12T13:14	10	118	0.2	118	118	418	0.5	417	419	16.6	73.1
2022-10-12T13:15	10	118	0.1	117	118	418	0.5	418	420	16.6	73.6
2022-10-12T13:16	10	117	0.2	117	118	419	0.6	417	420	16.8	73.4
2022-10-12T13:17	10	115	0.7	114	117	416	0.8	415	418	16.7	72.6
2022-10-12T13:18	10	115	0.3	115	116	416	0.4	416	417	16.5	72.6
2022-10-12T13:19	10	116	0.1	116	116	418	0.5	417	419	16.7	73.3
2022-10-12T13:20	10	116	0.1	116	116	418	0.4	418	419	16.7	72.8
2022-10-12T13:21	10	116	0.1	116	116	419	0.3	418	419	16.7	72.4
2022-10-12T13:22	10	115	0.3	114	116	418	0.5	417	419	16.7	71.7
2022-10-12T13:23	10	113	1.4	110	114	418	0.2	418	419	16.8	71.4
2022-10-12T13:24	10	111	2.8	104	114	418	0.3	418	419	17.0	71.1
2022-10-12T13:25	10	106	2.2	102	109	418	0.3	417	418	16.9	70.8
2022-10-12T13:26	10	103	6.0	94	110	418	0.5	417	419	17.1	70.9
2022-10-12T13:27	10	107	6.2	95	114	418	1.0	416	420	16.9	71.4
2022-10-12T13:28	10	115	0.3	114	115	419	0.3	418	420	16.9	71.8
2022-10-12T13:29	10	115	0.3	114	115	419	0.4	418	420	16.7	71.2
2022-10-12T13:30	10	114	0.3	113	114	418	0.4	417	419	16.7	71.4
2022-10-12T13:31	10	113	0.3	113	114	417	0.4	417	419	16.8	71.1
2022-10-12T13:32	10	113	0.1	112	113	419	0.3	418	419	16.9	71.3
2022-10-12T13:33	10	112	0.1	112	113	418	0.3	417	419	17.0	70.3
2022-10-12T13:34	10	112	0.2	112	112	418	0.3	418	419	17.1	69.9
2022-10-12T13:35	10	112	0.1	112	112	419	0.3	418	419	17.1	69.9
2022-10-12T13:36	10	112	0.2	111	112	417	0.3	417	418	17.1	70.1
2022-10-12T13:37	10	111	0.1	111	111	418	0.4	417	418	17.2	69.8
2022-10-12T13:38	10	111	0.3	110	111	418	0.8	417	420	17.1	71.1
2022-10-12T13:39	10	110	0.3	109	111	418	0.3	417	419	17.0	70.8
2022-10-12T13:40	10	109	0.2	108	109	418	1.1	416	419	17.1	70.8
2022-10-12T13:41	10	108	0.2	108	109	418	0.9	417	420	17.1	71.3
2022-10-12T13:42	10	108	0.1	108	108	419	0.5	417	420	17.3	71.7
2022-10-12T13:43	10	108	0.1	107	108	418	0.3	417	418	17.3	71.4
2022-10-12T13:44	10	107	0.2	107	107	418	0.5	417	419	17.3	70.7
2022-10-12T13:45	10	107	0.1	107	107	418	0.5	417	420	17.2	70.1
2022-10-12T13:46	10	107	0.1	106	107	418	0.3	418	419	17.3	71.5
2022-10-12T13:47	10	106	0.1	106	106	418	0.3	417	418	17.2	71.1
2022-10-12T13:48	10	106	1.3	106	115	416	0.6	415	418	17.1	71.1
2022-10-12T13:49	10	106	0.1	105	106	416	0.4	415	417	17.2	71.9
2022-10-12T13:50	10	105	0.2	105	105	415	0.3	415	416	17.2	70.9
2022-10-12T13:51	10	105	0.2	104	105	415	0.2	415	416	17.2	70.8
2022-10-12T13:52	10	104	0.2	103	105	416	0.5	415	417	17.2	70.6
2022-10-12T13:53	10	104	0.2	103	104	417	0.5	416	418	17.3	71.0
2022-10-12T13:54	10	103	0.2	103	104	416	0.4	415	417	17.3	70.1
2022-10-12T13:55	10	103	0.2	102	103	416	0.3	415	416	17.2	70.8
2022-10-12T13:56	10	103	0.9	102	110	415	0.5	414	416	17.2	71.0
2022-10-12T13:57	10	102	0.8	102	108	415	0.5	414	416	17.2	70.8
2022-10-12T13:58	10	102	0.2	102	103	415	0.3	415	416	17.1	70.0
2022-10-12T13:59	10	102	0.2	102	103	416	0.5	415	417	17.2	71.0
2022-10-12T14:00	10	102	0.3	101	103	416	0.3	415	416	17.2	70.6
2022-10-12T14:01	10	101	0.2	101	102	414	0.5	414	415	17.3	71.0
2022-10-12T14:02	10	101	0.2	100	101	415	0.3	415	416	17.4	71.7
2022-10-12T14:03	10	101	0.2	100	101	415	0.4	414	416	17.4	71.5
2022-10-12T14:04	10	100	0.1	100	101	416	0.3	415	416	17.3	71.9
2022-10-12T14:05	10	100	0.2	99	100	415	1.0	414	417	17.2	71.1
2022-10-12T14:06	10	99	0.3	99	100	414	0.5	413	415	17.2	71.6
2022-10-12T14:07	10	99	0.3	98	99	415	0.3	414	416	17.3	71.5
2022-10-12T14:08	10	98	0.3	97	98	414	0.4	414	415	17.3	71.4
2022-10-12T14:09	10	97	0.4	96	97	414	0.4	413	415	17.2	71.9
2022-10-12T14:10	10	96	0.3	95	96	413	0.4	412	414	17.0	71.4
2022-10-12T14:11	10	95	0.2	94	95	413	0.3	412	413	17.0	72.1
2022-10-12T14:12	10	94	0.1	94	95	413	0.4	412	413	17.0	71.2
2022-10-12T14:13	10	94	0.1	94	94	412	0.8	411	414	17.0	70.5
2022-10-12T14:14	10	94	0.2	93	94	414	0.3	413	415	17.1	71.4
2022-10-12T14:15	10	93	0.2	93	94	414	0.4	412	414	17.2	71.7
2022-10-12T14:16	10	93	0.1	93	93	413	0.3	413	414	17.3	71.7
2022-10-12T14:17	10	93	0.1	93	93	413	0.3	413	414	17.2	71.4
2022-10-12T14:18	10	92	0.1	92	93	414	0.6	413	415	17.1	71.2
2022-10-12T14:19	10	92	0.1	92	92	414	0.7	413	415	17.0	71.1
2022-10-12T14:20	10	92	0.2	91	92	413	0.5	412	414	17.0	71.3
2022-10-12T14:21	10	91	0.2	91	91	413	0.3	413	414	17.1	71.7
2022-10-12T14:22	10	90	0.2	90	91	414	0.5	413	415	17.3	72.3
2022-10-12T14:23	10	90	0.2	89	90	413	0.8	412	414	17.2	70.9
2022-10-12T14:24	10	89	0.1	89	90	412	0.4	411	413	17.1	70.8
2022-10-12T14:25	10	89	0.1	89	89	412	0.4	412	413	17.1	70.5
2022-10-12T14:26	10	89	0.1	89	89	413	0.4	412	414	17.2	71.4
2022-10-12T14:27	10	89	0.2	88	89	414	0.4	413	414	17.3	71.5
2022-10-12T14:28	10	88	0.2	88	89	412	0.9	410	413	17.3	70.8
2022-10-12T14:29	10	88	0.2	87	88	411	0.3	410	411	17.0	70.2
2022-10-12T14:30	10	87	0.2	87	87	412	0.3	411	412	17.0	70.9
2022-10-12T14:31	10	87	0.1	86	87	412	0.5	411	413	17.0	70.7
2022-10-12T14:32	10	86	0.1	86	86	412	0.4	411	413	17.2	70.7
2022-10-12T14:33	10	86	0.1	86	86	412	0.3	411	413	17.4	72.0
2022-10-12T14:34	10	85	0.2	85	86	412	0.3	411	412	17.4	71.1
2022-10-12T14:35	10	85	0.2	84	85	411	0.3	410	412	17.4	71.3
2022-10-12T14:36	10	84	0.2	84	84	412	0.8	410	413	17.5	72.0
2022-10-12T14:37	10	84	0.1	83	84	412	0.8	411	413	17.6	72.3
2022-10-12T14:38	10	83	0.2	83	84	411	0.3	411	412	17.5	72.0
2022-10-12T14:39	10	83	0.1	83	83	410	0.3	410	411	17.3	71.6
2022-10-12T14:40	10	83	0.2	82	83	409	0.3	409	410	17.3	71.9
2022-10-12T14:41	10	82	0.1	82	82	410	0.9	409	412	17.5	73.5
2022-10-12T14:42	10	82	0.2	81	82	410	0.9	409	411	17.4	72.3
2022-10-12T14:43	10	81	0.2	81	81	408	0.3	408	409	17.2	71.5
2022-10-12T14:44	10	81	0.1	81	81	409	0.4	408	410	17.3	71.9
2022-10-12T14:45	10	80	0.1	80	81	409	0.4	408	409	17.4	72.1
2022-10-12T14:46	10	80	0.2	80	80	408	0.5	407	409	17.4	72.8
2022-10-12T14:47	10	79	0.2	79	80	408	0.4	407	408	17.3	72.1
2022-10-12T14:48	10	79	0.2	78	79	408	0.3	408	409	17.3	72.1
2022-10-12T14:49	10	78	0.2	78	78	408	0.6	407	409	17.2	72.0
2022-10-12T14:50	10	78	0.2	77	78	408	0.2	407	408	17.1	71.8
2022-10-12T14:51	10	77	0.1	77	77	408	0.3	407	409	17.4	72.5
2022-10-12T14:52	10	77	0.1	76	77	409	0.3	408	410	17.5	72.4
2022-10-12T14:53	10	76	0.2	76	77	408	0.3	408	409	17.3	72.1
2022-10-12T14:54	10	76	0.2	75	76	408	0.2	408	409	17.3	72.3
2022-10-12T14:55	10	75	0.2	75	75	407	0.4	406	408	17.3	72.3
2022-10-12T14:56	10	74	0.2	74	75	408	0.3	407	408	17.2	72.4
2022-10-12T14:57	10	73	0.2	73	74	407	0.2	407	408	17.2	72.4
2022-10-12T14:58	10	73	0.3	72	73	407	0.4	406	408	17.2	72.5
2022-10-12T14:59	10	72	0.3	71	72	406	0.3	405	407	17.3	72.6
2022-10-12T15:00	10	71	0.3	70	71	405	0.2	405	406	17.1	72.6
2022-10-12T15:01	10	70	0.2	70	71	405	0.5	404	406	17.2	73.1
2022-10-12T15:02	10	69	0.2	69	70	405	0.2	405	406	17.2	72.9
2022-10-12T15:03	10	68	0.3	68	69	405	0.3	405	406	17.2	73.2
2022-10-12T15:04	10	68	0.2	67	68	405	0.6	404	406	17.1	73.2
2022-10-12T15:05	10	67	0.2	66	67	405	0.7	404	407	17.0	73.1
2022-10-12T15:06	10	66	0.2	66	67	405	0.3	404	405	17.1	73.4
2022-10-12T15:07	10	65	0.2	65	66	404	0.4	404	405	17.1	73.8
2022-10-12T15:08	10	65	0.2	64	65	404	0.4	404	405	17.1	73.6
2022-10-12T15:09	10	64	0.2	63	64	404	0.3	403	404	17.0	73.2
2022-10-12T15:10	10	63	0.2	63	64	403	0.3	402	404	16.9	72.9
2022-10-12T15:11	10	62	0.3	62	63	403	0.3	403	404	17.0	73.5
2022-10-12T15:12	10	62	0.3	61	62	402	0.3	402	403	16.9	73.0
2022-10-12T15:13	10	61	0.3	60	61	402	0.2	402	403	17.0	73.4
2022-10-12T15:14	10	60	0.2	60	61	402	0.3	402	403	17.0	73.8
2022-10-12T15:15	10	60	0.3	60	61	403	0.8	401	404	17.1	74.7
2022-10-12T15:16	10	60	0.2	59	60	402	0.3	402	403	17.1	73.9
2022-10-12T15:17	10	59	0.2	59	60	402	0.3	401	403	17.1	73.9
2022-10-12T15:18	10	59	0.2	58	59	402	0.4	401	403	17.1	74.0
2022-10-12T15:19	10	58	0.2	58	59	402	0.3	402	403	17.1	74.3
2022-10-12T15:20	10	58	0.2	57	58	401	0.3	400	402	17.0	73.8
2022-10-12T15:21	10	57	0.3	57	58	401	0.3	400	402	17.1	74.0
2022-10-12T15:22	10	56	0.3	56	57	401	0.3	400	402	17.1	74.6
2022-10-12T15:23	10	56	0.2	55	56	401	0.5	400	402	17.0	74.3
2022-10-12T15:24	10	55	0.3	54	55	401	0.3	400	401	17.0	74.7
2022-10-12T15:25	10	54	0.2	54	55	400	0.2	399	400	16.9	74.1
2022-10-12T15:26	10	54	0.2	53	54	399	0.2	399	400	16.9	73.8
2022-10-12T15:27	10	53	0.2	52	53	399	0.3	398	400	16.9	73.9
2022-10-12T15:28	10	52	0.2	52	52	399	0.2	399	400	17.0	74.1
2022-10-12T15:29	10	51	0.3	51	52	399	0.3	398	399	17.0	74.3
2022-10-12T15:30	10	50	0.3	50	51	399	0.2	398	399	16.9	74.5
2022-10-12T15:31	10	50	0.2	49	50	399	0.3	398	399	17.0	74.5
2022-10-12T15:32	10	49	0.2	49	50	399	0.3	398	399	17.0	74.4
2022-10-12T15:33	10	49	0.2	48	49	398	0.2	397	398	17.0	74.6
2022-10-12T15:34	10	48	0.2	48	48	398	0.3	398	399	16.9	75.3
2022-10-12T15:35	10	47	0.2	47	48	398	0.3	397	399	17.0	75.3
2022-10-12T15:36	10	47	0.1	46	47	398	0.3	397	399	16.9	75.1
2022-10-12T15:37	10	46	0.2	46	46	398	0.3	397	398	16.9	75.1
2022-10-12T15:38	10	45	0.3	44	46	398	0.2	397	398	17.0	75.6
2022-10-12T15:39	10	44	0.3	44	45	397	0.3	396	398	16.9	75.5
2022-10-12T15:40	10	43	0.2	43	44	396	0.2	396	397	16.8	75.4
2022-10-12T15:41	10	43	0.2	43	43	396	0.3	395	397	16.8	75.3
2022-10-12T15:42	10	42	0.3	42	43	396	0.2	395	396	16.8	75.5
2022-10-12T15:43	10	41	0.3	41	42	396	0.3	395	397	16.7	76.4
2022-10-12T15:44	10	40	0.3	40	41	396	0.3	395	396	16.7	76.5
2022-10-12T15:45	10	39	0.3	39	40	395	0.3	394	396	16.7	75.8
2022-10-12T15:46	10	38	0.3	37	38	395	0.2	394	395	16.7	75.7
2022-10-12T15:47	10	37	0.4	36	38	394	0.2	394	395	16.7	75.7
2022-10-12T15:48	10	35	0.4	34	36	394	0.2	394	394	16.7	75.6
2022-10-12T15:49	10	34	0.7	32	35	394	0.2	393	394	16.7	75.6
2022-10-12T15:50	10	31	1.0	29	32	393	0.2	393	394	16.7	75.3
2022-10-12T15:51	10	24	3.7	16	29	393	0.4	392	394	16.8	75.1
2022-10-12T15:52	10	9	2.1	8	16	392	0.7	390	393	16.7	74.9
2022-10-12T15:53	10	8	0.2	8	9	390	0.4	389	391	16.7	75.4
2022-10-12T15:54	10	8	0.4	8	9	390	0.2	389	390	16.6	75.3
2022-10-12T15:55	10	8	0.5	8	9	389	0.2	389	390	16.6	75.2
2022-10-12T15:56	10	8	0.4	7	9	389	0.2	388	389	16.5	76.3
2022-10-12T15:57	10	7	0.1	7	7	388	0.4	387	389	16.4	77.1
2022-10-12T15:58	10	7	0.1	7	7	388	0.2	387	388	16.4	77.0
2022-10-12T15:59	10	7	0.1	7	7	387	0.2	387	388	16.4	76.7
2022-10-12T16:00	10	7	0.1	7	7	387	0.3	386	388	16.4	77.1
2022-10-12T16:01	10	7	0.1	7	7	387	0.4	386	388	16.4	76.9
2022-10-12T16:02	10	8	0.6	7	10	387	0.3	386	387	16.3	77.1
2022-10-12T16:03	10	15	2.5	10	18	387	0.4	386	388	16.3	77.1
2022-10-12T16:04	10	11	1.5	10	15	387	0.2	387	388	16.4	76.8
2022-10-12T16:05	10	11	1.0	9	13	387	0.3	386	387	16.3	77.2
2022-10-12T16:06	10	17	2.0	13	20	387	0.4	386	388	16.3	77.0
2022-10-12T16:07	10	21	0.3	20	21	387	0.3	386	388	16.3	77.3
2022-10-12T16:08	10	21	0.2	20	21	387	0.3	387	388	16.3	77.2
2022-10-12T16:09	10	20	0.3	19	20	387	0.3	387	388	16.3	77.4
2022-10-12T16:10	10	16	1.9	13	19	387	0.3	386	388	16.3	77.4
2022-10-12T16:11	10	13	0.3	12	13	387	0.2	386	387	16.2	77.8
2022-10-12T16:12	10	12	1.5	8	13	386	0.3	385	387	16.2	77.7
2022-10-12T16:13	10	7	0.5	6	8	386	0.3	385	386	16.2	77.8
2022-10-12T16:14	10	6	0.2	6	6	385	0.3	385	386	16.2	77.5
2022-10-12T16:15	10	5	0.2	5	6	385	0.2	384	385	16.2	77.7
2022-10-12T16:16	10	5	0.1	5	5	384	0.3	384	385	16.2	77.4
2022-10-12T16:17	10	5	0.1	4	5	384	0.2	384	385	16.2	77.4
2022-10-12T16:18	10	4	0.1	4	5	384	0.2	383	384	16.3	77.0
2022-10-12T16:19	10	4	0.1	4	4	383	0.2	383	384	16.2	77.2
2022-10-12T16:20	10	4	0.1	4	4	383	0.2	383	384	16.3	76.9
2022-10-12T16:21	10	4	0.2	4	5	383	0.2	382	383	16.2	77.1
2022-10-12T16:22	10	4	0.2	4	5	383	0.3	382	383	16.2	77.2
2022-10-12T16:23	10	4	0.1	4	4	383	0.5	382	383	16.2	77.1
2022-10-12T16:24	10	4	0.1	4	4	383	0.3	382	383	16.2	77.1
2022-10-12T16:25	10	4	0.1	4	4	382	0.3	382	383	16.1	77.4
2022-10-12T16:26	10	5	0.3	4	5	382	0.2	382	383	16.1	77.5
2022-10-12T16:27	10	6	0.3	5	7	382	0.2	381	382	16.1	77.8
2022-10-12T16:28	10	6	0.1	6	6	382	0.3	381	382	16.0	78.0
2022-10-12T16:29	10	6	0.2	5	6	381	0.3	380	382	16.0	78.1
2022-10-12T16:30	10	5	0.2	5	6	381	0.3	380	382	16.0	78.1
2022-10-12T16:31	10	5	0.2	5	6	381	0.4	381	382	15.9	78.6
2022-10-12T16:32	10	5	0.2	4	5	381	0.3	380	382	15.8	78.9
2022-10-12T16:33	10	4	0.2	4	5	381	0.3	381	382	15.8	79.0
2022-10-12T16:34	10	4	0.2	4	5	381	0.2	381	382	15.7	79.3
2022-10-12T16:35	10	4	0.2	4	4	381	0.3	380	382	15.7	79.5
2022-10-12T16:36	10	4	0.2	3	4	381	0.2	380	381	15.6	79.5
2022-10-12T16:37	10	3	0.1	3	4	380	0.3	379	380	15.7	79.5
2022-10-12T16:38	10	3	0.2	3	3	380	0.3	379	380	15.5	80.2
2022-10-12T16:39	10	3	0.1	3	3	379	0.2	379	379	15.4	81.7
2022-10-12T16:40	10	3	0.2	2	3	379	0.3	378	379	15.4	81.8
2022-10-12T16:41	10	2	0.1	2	2	378	0.2	377	378	15.3	82.7
2022-10-12T16:42	10	2	0.1	2	2	378	0.2	377	378	15.3	83.0
2022-10-12T16:43	10	2	0.1	2	2	377	0.2	377	378	15.3	83.1
2022-10-12T16:44	10	2	0.1	1	2	377	0.2	377	378	15.3	82.8
2022-10-12T16:45	10	2	0.1	1	2	377	0.2	377	378	15.3	83.2
2022-10-12T16:46	10	2	0.1	1	2	377	0.3	376	378	15.2	84.0
2022-10-12T16:47	10	1	0.1	1	2	378	0.3	377	378	15.2	84.0
2022-10-12T16:48	10	1	0.1	1	1	378	0.2	377	378	15.3	83.4
2022-10-12T16:49	10	1	0.1	1	2	378	0.3	377	379	15.3	83.8
2022-10-12T16:50	10	1	0.1	1	2	377	0.2	377	378	15.2	84.4
2022-10-12T16:51	10	1	0.1	1	1	377	0.2	377	378	15.1	84.8
2022-10-12T16:52	10	1	0.1	1	1	377	0.3	376	377	15.1	84.4
2022-10-12T16:53	10	1	0.1	1	1	376	0.3	376	377	15.1	84.3
2022-10-12T16:54	10	1	0.1	1	1	376	0.3	375	376	15.0	85.3
2022-10-12T16:55	10	1	0.1	1	1	375	0.3	375	376	15.1	84.0
2022-10-12T16:56	10	1	0.1	0	1	375	0.2	375	376	15.2	83.3
2022-10-12T16:57	10	1	0.1	1	1	375	0.2	375	376	15.2	83.3
2022-10-12T16:58	10	1	0.1	0	1	375	0.3	374	375	15.2	83.0
2022-10-12T16:59	10	1	0.1	0	1	374	0.2	374	375	15.2	82.9
2022-10-12T17:00	10	1	0.1	0	1	374	0.2	374	375	15.2	82.9
2022-10-12T17:01	10	1	0.1	0	1	374	0.3	374	375	15.3	82.1
2022-10-12T17:02	10	1	0.1	0	1	374	0.4	374	375	15.3	81.2
2022-10-12T17:03	10	0	0.1	0	1	374	0.3	374	375	15.4	80.7
2022-10-12T17:04	10	0	0.1	0	1	374	0.3	373	375	15.4	80.4
2022-10-12T17:05	10	0	0.1	0	1	374	0.2	373	374	15.5	80.1
2022-10-12T17:06	10	0	0.1	0	1	374	0.2	373	374	15.5	80.0
2022-10-12T17:07	10	0	0.1	0	1	373	0.2	373	374	15.4	80.1
2022-10-12T17:08	10	1	0.1	0	1	373	0.3	373	374	15.4	80.3
2022-10-12T17:09	10	0	0.1	0	1	373	0.3	373	374	15.3	80.9
2022-10-12T17:10	10	1	0.1	0	1	374	0.3	373	374	15.1	81.6
2022-10-12T17:11	10	0	0.1	0	1	374	0.3	373	375	15.0	82.2
2022-10-12T17:12	10	0	0.1	0	1	374	0.2	373	374	14.9	83.5
2022-10-12T17:13	10	0	0.1	0	1	374	0.4	373	375	14.8	84.9
2022-10-12T17:14	10	0	0.1	0	1	373	0.3	372	373	14.8	84.9
2022-10-12T17:15	10	0	0.1	0	1	372	0.2	372	373	14.8	85.1
2022-10-12T17:16	10	0	0.1	0	1	372	0.3	371	373	14.7	85.5
2022-10-12T17:17	10	0	0.1	0	0	372	0.2	371	372	14.6	85.8
2022-10-12T17:18	10	0	0.1	0	1	371	0.3	371	372	14.6	86.4
2022-10-12T17:19	10	0	0.1	0	1	372	0.3	371	372	14.5	87.2
2022-10-12T17:20	10	0	0.1	0	1	372	0.3	371	373	14.5	87.6
2022-10-12T17:21	10	0	0.2	0	1	372	0.2	372	372	14.5	87.7
2022-10-12T17:22	10	0	0.1	0	1	372	0.3	371	372	14.6	86.9
2022-10-12T17:23	10	0	0.1	0	1	372	0.3	371	373	14.6	86.3
2022-10-12T17:24	10	0	0.1	0	1	372	0.2	372	372	14.7	85.8
2022-10-12T17:25	10	0	0.2	0	1	372	0.3	371	372	14.7	85.6
2022-10-12T17:26	10	0	0.2	0	1	371	0.3	370	372	14.7	85.5
2022-10-12T17:27	10	0	0.2	0	1	371	0.2	371	372	14.7	85.6
2022-10-12T17:28	10	0	0.2	0	1	371	0.3	370	371	14.7	85.4
2022-10-12T17:29	10	0	0.2	0	1	370	0.3	370	371	14.7	85.2
2022-10-12T17:30	10	0	0.2	0	1	370	0.2	369	370	14.7	85.3
2022-10-12T17:31	10	0	0.1	0	1	369	0.2	369	370	14.6	85.6
2022-10-12T17:32	10	0	0.1	0	1	369	0.2	369	369	14.6	85.9
2022-10-12T17:33	10	0	0.1	0	1	369	0.2	368	369	14.6	85.7
2022-10-12T17:34	10	0	0.1	0	1	369	0.2	368	369	14.8	84.4
2022-10-12T17:35	10	0	0.1	0	0	368	0.3	368	369	14.7	84.6
2022-10-12T17:36	10	0	0.1	0	0	368	0.2	368	369	14.7	84.7
2022-10-12T17:37	10	0	0.1	0	0	368	0.2	367	369	14.8	84.3
2022-10-12T17:38	10	0	0.1	0	1	367	0.2	367	368	14.6	84.9
2022-10-12T17:39	10	0	0.1	0	1	367	0.3	366	368	14.4	86.6
2022-10-12T17:40	10	0	0.1	0	1	367	0.2	367	368	14.4	86.8
2022-10-12T17:41	10	0	0.1	0	0	367	0.2	366	367	14.4	86.9
2022-10-12T17:42	10	0	0.1	0	0	367	0.3	366	367	14.3	87.5
2022-10-12T17:43	10	0	0.1	0	0	366	0.2	366	367	14.2	88.3
2022-10-12T17:44	10	0	0.1	0	1	366	0.2	366	367	14.4	87.3
2022-10-12T17:45	10	0	0.1	0	1	366	0.3	365	367	14.4	86.1
2022-10-12T17:46	10	0	0.1	0	1	365	0.4	365	366	14.2	86.7
2022-10-12T17:47	10	0	0.1	0	1	365	0.2	364	366	13.9	88.2
2022-10-12T17:48	10	0	0.1	0	0	365	0.3	364	365	13.7	89.4
2022-10-12T17:49	10	0	0.1	0	0	366	0.2	365	366	14.4	88.7
2022-10-12T17:50	10	0	0.1	0	0	366	0.3	366	367	14.8	86.3
2022-10-12T17:51	10	0	0.1	0	0	366	0.2	366	367	14.8	85.4
2022-10-12T17:52	10	0	0.1	0	0	366	0.3	366	367	14.8	84.8
2022-10-12T17:53	10	0	0.1	0	0	367	0.3	366	367	14.7	84.9
2022-10-12T17:54	10	0	0.1	0	0	367	0.2	366	367	14.7	85.2
2022-10-12T17:55	10	0	0.1	0	1	367	0.2	366	367	14.5	85.4
2022-10-12T17:56	10	0	0.1	0	0	367	0.2	366	367	14.4	86.0
2022-10-12T17:57	10	0	0.1	0	1	366	0.4	365	367	14.3	86.1
2022-10-12T17:58	10	0	0.1	0	1	365	0.2	365	365	14.0	87.0
2022-10-12T17:59	10	1	0.1	0	1	365	0.3	364	366	13.9	88.3
2022-10-12T18:00	10	0	0.1	0	1	365	0.3	364	365	14.0	88.6
2022-10-12T18:01	10	1	0.1	0	1	365	0.3	364	365	14.0	88.4
2022-10-12T18:02	10	0	0.1	0	1	364	0.3	364	365	13.9	88.6
2022-10-12T18:03	10	0	0.1	0	1	364	0.4	363	364	13.8	88.9
2022-10-12T18:04	10	0	0.1	0	1	364	0.3	363	364	13.7	89.6
2022-10-12T18:05	10	0	0.1	0	0	364	0.3	363	365	13.6	90.0
2022-10-12T18:06	10	0	0.1	0	0	364	0.3	364	365	13.6	90.8
2022-10-12T18:07	10	0	0.1	0	1	365	0.3	364	365	13.5	91.0
2022-10-12T18:08	10	0	0.1	0	1	365	0.2	364	365	13.6	91.3
2022-10-12T18:09	10	0	0.1	0	1	365	0.3	364	365	13.6	91.3
2022-10-12T18:10	10	1	0.1	0	1	364	0.2	364	365	13.6	91.3
2022-10-12T18:11	10	1	0.1	0	1	365	0.2	364	365	13.5	91.5
2022-10-12T18:12	10	1	0.1	0	1	364	0.3	363	364	13.5	91.7
2022-10-12T18:13	10	1	0.1	0	1	364	0.2	363	364	13.3	91.8
2022-10-12T18:14	10	1	0.1	0	1	364	0.2	363	364	13.3	92.2
2022-10-12T18:15	10	1	0.1	0	1	363	0.2	363	364	13.3	92.6
2022-10-12T18:16	10	1	0.1	0	1	363	0.3	363	364	13.1	92.6
2022-10-12T18:17	10	1	0.1	0	1	364	0.2	363	364	13.0	92.8
2022-10-12T18:18	10	0	0.1	0	1	364	0.2	364	365	13.1	93.3
2022-10-12T18:19	10	0	0.1	0	1	364	0.2	363	364	13.0	93.1
2022-10-12T18:20	10	0	0.1	0	0	364	0.2	363	364	13.0	93.2
2022-10-12T18:21	10	0	0.1	0	0	364	0.2	363	364	13.0	93.3
2022-10-12T18:22	10	0	0.0	0	0	364	0.3	363	364	13.0	93.1
2022-10-12T18:23	10	0	0.1	0	0	363	0.2	363	364	13.0	93.2
2022-10-12T18:24	10	0	0.1	0	0	363	0.2	363	364	13.1	92.9
2022-10-12T18:25	10	0	0.1	0	0	363	0.2	362	363	13.2	92.6
2022-10-12T18:26	10	0	0.1	0	0	362	0.2	361	362	13.1	92.4
2022-10-12T18:27	10	0	0.1	0	1	362	0.3	361	362	12.9	92.7
2022-10-12T18:28	10	0	0.1	0	0	362	0.2	362	363	13.1	93.0
2022-10-12T18:29	10	0	0.1	0	1	362	0.2	361	362	13.3	92.6
2022-10-12T18:30	10	0	0.1	0	1	362	0.3	361	362	13.2	92.3
2022-10-12T18:31	10	1	0.1	0	1	361	0.3	361	362	13.2	91.9
2022-10-12T18:32	10	0	0.1	0	1	361	0.3	361	362	13.1	91.7
2022-10-12T18:33	10	0	0.1	0	1	361	0.2	361	362	13.2	92.0
2022-10-12T18:34	10	0	0.1	0	1	361	0.2	361	362	13.3	92.1
2022-10-12T18:35	10	0	0.1	0	1	362	0.2	361	362	13.3	91.9
2022-10-12T18:36	10	0	0.1	0	1	361	0.2	361	362	13.3	91.9
2022-10-12T18:37	10	0	0.1	0	1	361	0.2	361	362	13.3	91.9
2022-10-12T18:38	10	0	0.1	0	1	361	0.3	360	362	13.3	92.1
2022-10-12T18:39	10	0	0.1	0	1	362	0.3	361	362	13.3	92.1
2022-10-12T18:40	10	0	0.1	0	1	362	0.3	361	362	13.3	92.2
2022-10-12T18:41	10	0	0.2	0	1	362	0.3	362	362	13.5	92.3
2022-10-12T18:42	10	0	0.2	0	1	362	0.3	361	362	13.6	92.0
2022-10-12T18:43	10	0	0.2	0	1	361	0.6	360	362	13.2	91.3
2022-10-12T18:44	10	0	0.1	0	1	360	0.3	360	361	12.7	91.7
2022-10-12T18:45	10	0	0.1	0	1	360	0.3	359	361	12.7	92.6
2022-10-12T18:46	10	0	0.2	0	1	360	0.3	359	360	12.6	93.0
2022-10-12T18:47	10	0	0.1	0	1	360	0.3	359	361	12.6	93.2
2022-10-12T18:48	10	0	0.1	0	1	360	0.2	360	361	12.8	93.8
2022-10-12T18:49	10	0	0.1	0	1	361	0.3	360	362	13.0	93.9
2022-10-12T18:50	10	0	0.1	0	1	360	0.3	360	361	13.1	93.7
2022-10-12T18:51	10	0	0.1	0	1	361	0.2	360	361	13.1	93.5
2022-10-12T18:52	10	0	0.1	0	1	361	0.2	360	361	13.1	93.3
2022-10-12T18:53	10	0	0.1	0	1	361	0.2	360	361	13.1	93.2
2022-10-12T18:54	10	0	0.1	0	1	360	0.2	360	361	13.1	93.1
2022-10-12T18:55	10	0	0.1	0	0	361	0.2	360	361	13.1	93.1
2022-10-12T18:56	10	0	0.1	0	1	360	0.3	360	361	13.1	93.0
2022-10-12T18:57	10	0	0.1	0	0	360	0.2	360	360	12.9	92.9
2022-10-12T18:58	10	0	0.1	0	1	361	0.3	360	361	12.8	93.0
2022-10-12T18:59	10	0	0.0	0	0	361	0.2	361	362	12.9	93.4
2022-10-12T19:00	10	0	0.0	0	1	361	0.2	361	362	13.0	93.4
2022-10-12T19:01	10	0	0.1	0	1	361	0.2	361	362	13.0	93.3
2022-10-12T19:02	10	0	0.1	0	1	361	0.2	361	362	13.0	93.3
2022-10-12T19:03	10	0	0.1	0	1	361	0.2	360	361	12.7	93.1
2022-10-12T19:04	10	0	0.0	0	0	360	0.2	360	361	12.5	93.5
2022-10-12T19:05	10	0	0.1	0	1	360	0.2	360	360	12.4	93.9
2022-10-12T19:06	10	0	0.0	0	0	360	0.3	360	361	12.3	94.5
2022-10-12T19:07	10	0	0.1	0	0	361	0.3	360	361	12.5	94.9
2022-10-12T19:08	10	0	0.1	0	0	361	0.3	360	362	12.6	95.1
2022-10-12T19:09	10	0	0.1	0	0	361	0.2	361	362	12.6	94.8
2022-10-12T19:10	10	0	0.1	0	0	361	0.2	360	361	12.8	94.8
2022-10-12T19:11	10	0	0.1	0	0	361	0.2	360	361	12.9	94.6
2022-10-12T19:12	10	0	0.1	0	0	361	0.2	360	361	12.9	94.3
2022-10-12T19:13	10	0	0.1	0	0	361	0.2	360	361	12.8	94.1
2022-10-12T19:14	10	0	0.1	0	0	360	0.2	360	361	12.8	94.2
2022-10-12T19:15	10	0	0.1	0	0	360	0.4	359	361	12.8	94.3
2022-10-12T19:16	10	0	0.1	0	0	359	0.3	358	360	12.8	94.2
2022-10-12T19:17	10	0	0.1	0	0	359	0.3	358	359	12.6	94.1
2022-10-12T19:18	10	0	0.1	0	0	358	0.2	358	359	12.5	94.2
2022-10-12T19:19	10	0	0.1	0	0	358	0.2	357	359	12.5	94.4
2022-10-12T19:20	10	0	0.1	0	0	358	0.2	358	359	12.6	94.6
2022-10-12T19:21	10	0	0.1	0	0	359	0.2	358	359	12.9	94.8
2022-10-12T19:22	10	0	0.1	0	0	359	0.2	358	359	13.2	94.4
2022-10-12T19:23	10	0	0.1	0	0	359	0.2	359	360	13.4	93.7
2022-10-12T19:24	10	0	0.1	0	0	359	0.2	358	359	13.2	93.1
2022-10-12T19:25	10	0	0.1	0	0	359	0.2	358	359	13.1	93.1
2022-10-12T19:26	10	0	0.1	0	0	359	0.2	358	359	13.1	93.2
2022-10-12T19:27	10	0	0.1	0	0	359	0.2	358	359	12.9	93.3
2022-10-12T19:28	10	0	0.1	0	0	359	0.4	358	359	13.0	93.7
2022-10-12T19:29	10	0	0.1	0	0	359	0.3	358	359	13.2	93.7
2022-10-12T19:30	10	0	0.1	0	0	359	0.2	358	359	13.2	93.4
2022-10-12T19:31	10	0	0.1	0	0	359	0.2	358	359	13.1	93.2
2022-10-12T19:32	10	0	0.1	0	0	359	0.2	358	359	13.1	93.2
2022-10-12T19:33	10	0	0.1	0	0	359	0.2	358	359	13.0	93.3
2022-10-12T19:34	10	0	0.1	0	0	359	0.4	358	360	12.7	93.3
2022-10-12T19:35	10	0	0.1	0	0	360	0.3	359	360	12.6	93.8
2022-10-12T19:36	10	0	0.1	0	0	360	0.2	359	360	12.6	94.2
2022-10-12T19:37	10	0	0.1	0	0	360	0.3	359	361	12.7	94.6
2022-10-12T19:38	10	0	0.1	0	0	359	0.2	359	360	12.8	94.7
2022-10-12T19:39	10	0	0.1	0	0	359	0.3	358	360	12.7	94.5
2022-10-12T19:40	10	0	0.1	0	0	359	0.2	358	359	12.7	94.6
2022-10-12T19:41	10	0	0.1	0	0	358	0.2	358	359	12.8	94.7
2022-10-12T19:42	10	0	0.1	0	1	358	0.3	357	359	12.7	94.6
2022-10-12T19:43	10	0	0.1	0	1	358	0.3	357	358	12.5	94.5
2022-10-12T19:44	10	0	0.1	0	1	357	0.3	356	358	12.2	94.5
2022-10-12T19:45	10	0	0.1	0	0	357	0.2	357	358	12.1	94.8
2022-10-12T19:46	10	0	0.1	0	0	358	0.3	357	358	12.0	95.3
2022-10-12T19:47	10	0	0.1	0	0	358	0.2	357	358	12.0	95.5
2022-10-12T19:48	10	0	0.1	0	0	358	0.2	357	358	12.2	95.6
2022-10-12T19:49	10	0	0.1	0	0	357	0.2	357	358	12.1	95.5
2022-10-12T19:50	10	0	0.1	0	0	357	0.3	357	358	12.1	95.3
2022-10-12T19:51	10	0	0.1	0	0	357	0.2	357	358	12.0	95.3
2022-10-12T19:52	10	0	0.1	0	0	357	0.3	357	358	11.9	95.3
2022-10-12T19:53	10	0	0.1	0	0	358	0.3	358	359	11.8	95.5
2022-10-12T19:54	10	0	0.1	0	0	359	0.2	358	359	11.7	95.7
2022-10-12T19:55	10	0	0.1	-1	0	359	0.3	359	360	11.8	96.2
2022-10-12T19:56	10	-1	0.1	-1	0	360	0.2	359	360	12.0	96.7
2022-10-12T19:57	10	-1	0.1	-1	-1	359	0.3	358	360	11.9	96.8
2022-10-12T19:58	10	-1	0.1	-1	-1	358	0.3	357	359	11.8	96.8
2022-10-12T19:59	10	-1	0.1	-1	-1	357	0.3	357	358	11.6	96.8
2022-10-12T20:00	10	-1	0.1	-1	-1	357	0.3	357	358	11.6	97.0
2022-10-12T20:01	10	-1	0.1	-1	-1	357	0.2	356	357	11.7	97.2
2022-10-12T20:02	10	-1	0.1	-1	-1	357	0.3	356	357	11.8	97.3
2022-10-12T20:03	10	-1	0.1	-1	0	356	0.2	356	357	11.8	97.4
2022-10-12T20:04	10	-1	0.1	-1	0	357	0.3	356	357	11.8	97.4
2022-10-12T20:05	10	0	0.1	-1	0	357	0.3	356	358	11.9	97.5
2022-10-12T20:06	10	0	0.1	-1	0	357	0.4	356	358	12.1	97.6
2022-10-12T20:07	10	0	0.1	-1	0	357	0.3	357	358	12.1	97.5
2022-10-12T20:08	10	0	0.1	-1	0	357	0.3	357	358	12.0	97.3
2022-10-12T20:09	10	0	0.1	-1	0	358	0.3	357	358	11.9	97.0
2022-10-12T20:10	10	-1	0.1	-1	0	358	0.2	357	358	11.8	96.8
2022-10-12T20:11	10	-1	0.1	-1	-1	357	0.3	357	358	11.8	96.7
2022-10-12T20:12	10	-1	0.1	-1	-1	357	0.2	357	358	11.8	96.5
2022-10-12T20:13	10	-1	0.1	-1	-1	358	0.2	357	358	11.8	96.4
2022-10-12T20:14	10	-1	0.1	-1	-1	358	0.2	358	358	11.9	96.5
2022-10-12T20:15	10	-1	0.1	-1	-1	357	0.3	357	358	11.6	96.1
2022-10-12T20:16	10	-1	0.0	-2	-1	358	0.5	357	359	11.6	96.2
2022-10-12T20:17	10	-1	0.1	-1	-1	358	0.3	358	359	11.8	96.6
2022-10-12T20:18	10	-1	0.1	-1	-1	358	0.2	358	359	11.7	96.4
2022-10-12T20:19	10	-1	0.1	-1	-1	358	0.3	357	358	11.9	96.6
2022-10-12T20:20	10	-1	0.1	-1	-1	357	0.2	357	358	11.9	96.7
2022-10-12T20:21	10	-1	0.1	-1	-1	356	0.3	356	357	11.8	96.6
2022-10-12T20:22	10	-1	0.1	-1	-1	357	0.2	356	357	11.7	96.6
2022-10-12T20:23	10	-1	0.1	-1	0	356	0.2	356	357	11.7	96.7
2022-10-12T20:24	10	0	0.1	-1	0	356	0.2	356	356	11.8	96.9
2022-10-12T20:25	10	0	0.1	0	0	356	0.2	356	356	11.9	96.9
2022-10-12T20:26	10	0	0.1	0	0	356	0.2	355	356	12.0	96.9
2022-10-12T20:27	10	0	0.0	0	0	356	0.2	355	356	12.1	96.9
2022-10-12T20:28	10	0	0.1	0	0	356	0.3	355	356	12.0	96.7
2022-10-12T20:29	10	0	0.1	0	0	355	0.4	355	356	11.9	96.6
2022-10-12T20:30	10	0	0.1	0	0	356	0.2	355	356	12.1	96.6
2022-10-12T20:31	10	0	0.1	-1	0	356	0.3	355	357	12.0	96.5
2022-10-12T20:32	10	0	0.1	-1	0	356	0.3	355	357	11.9	96.4
2022-10-12T20:33	10	-1	0.1	-1	0	356	0.2	355	356	11.8	96.4
2022-10-12T20:34	10	-1	0.1	-1	-1	355	0.2	355	356	11.7	96.3
2022-10-12T20:35	10	-1	0.1	-1	-1	355	0.2	355	356	11.4	96.2
2022-10-12T20:36	10	-1	0.0	-1	-1	355	0.2	354	356	11.3	96.2
2022-10-12T20:37	10	-1	0.1	-1	-1	355	0.2	355	356	11.2	96.3
2022-10-12T20:38	10	-1	0.1	-1	-1	355	0.2	355	356	11.3	96.6
2022-10-12T20:39	10	-1	0.1	-1	-1	355	0.2	355	356	11.4	96.8
2022-10-12T20:40	10	-1	0.1	-1	0	355	0.3	355	356	11.4	96.9
2022-10-12T20:41	10	-1	0.1	-1	0	355	0.2	355	355	11.5	97.0
2022-10-12T20:42	10	0	0.1	-1	0	355	0.2	354	355	11.5	97.1
2022-10-12T20:43	10	0	0.1	-1	0	355	0.2	354	355	11.4	97.0
2022-10-12T20:44	10	0	0.1	-1	0	355	0.2	355	355	11.6	97.2
2022-10-12T20:45	10	0	0.1	0	0	355	0.2	354	355	11.7	97.3
2022-10-12T20:46	10	0	0.1	0	0	354	0.2	354	355	11.6	97.2
2022-10-12T20:47	10	0	0.1	0	0	354	0.2	354	355	11.5	97.2
2022-10-12T20:48	10	0	0.1	0	0	354	0.2	354	355	11.3	97.0
2022-10-12T20:49	10	0	0.1	0	0	354	0.2	354	355	11.3	97.1
2022-10-12T20:50	10	0	0.1	0	0	355	0.3	354	355	11.3	97.3
2022-10-12T20:51	10	0	0.1	-1	0	355	0.2	354	356	11.4	97.4
2022-10-12T20:52	10	0	0.1	0	0	356	0.3	355	356	11.5	97.6
2022-10-12T20:53	10	0	0.1	-1	0	356	0.2	355	356	11.6	97.7
2022-10-12T20:54	10	-1	0.1	-1	0	356	0.2	355	356	11.6	97.7
2022-10-12T20:55	10	0	0.2	-1	0	356	0.4	356	357	11.6	97.7
2022-10-12T20:56	10	0	0.2	-1	0	357	0.2	357	358	11.8	97.9
2022-10-12T20:57	10	0	0.2	-1	0	357	0.2	357	358	11.8	97.8
2022-10-12T20:58	10	0	0.1	-1	0	357	0.3	356	357	11.6	97.6
2022-10-12T20:59	10	0	0.2	-1	0	356	0.3	355	357	11.6	97.5
2022-10-12T21:00	10	0	0.1	-1	0	356	0.3	355	357	11.7	97.5
2022-10-12T21:01	10	0	0.1	0	0	356	0.3	355	356	11.8	97.6
2022-10-12T21:02	10	0	0.1	-1	0	355	0.3	355	356	11.8	97.5
2022-10-12T21:03	10	0	0.1	-1	0	355	0.3	354	356	11.8	97.4
2022-10-12T21:04	10	0	0.1	0	0	356	0.2	355	356	11.8	97.3
2022-10-12T21:05	10	0	0.2	-1	0	356	0.3	355	357	11.8	97.2
2022-10-12T21:06	10	0	0.1	-1	0	356	0.3	356	357	11.7	97.1
2022-10-12T21:07	10	0	0.1	-1	0	357	0.2	356	357	11.8	97.1
2022-10-12T21:08	10	0	0.2	-1	0	357	0.2	356	357	11.8	97.2
2022-10-12T21:09	10	0	0.1	-1	0	357	0.2	356	357	11.8	97.1
2022-10-12T21:10	10	0	0.1	0	0	356	0.3	355	357	11.8	97.1
2022-10-12T21:11	10	0	0.1	0	0	356	0.2	356	357	11.8	97.2
2022-10-12T21:12	10	0	0.2	-1	0	356	0.3	355	357	11.8	97.2
2022-10-12T21:13	10	0	0.1	-1	0	355	0.3	355	356	11.8	97.3
2022-10-12T21:14	10	0	0.1	0	0	355	0.2	355	356	11.7	97.3
2022-10-12T21:15	10	0	0.1	0	0	355	0.2	355	356	11.8	97.3
2022-10-12T21:16	10	0	0.1	0	0	355	0.3	355	356	11.8	97.4
2022-10-12T21:17	10	0	0.1	-1	0	355	0.2	355	356	11.7	97.4
2022-10-12T21:18	10	0	0.1	0	0	356	0.3	355	356	11.8	97.5
2022-10-12T21:19	10	0	0.1	-1	0	356	0.3	355	357	11.8	97.5
2022-10-12T21:20	10	0	0.1	0	0	356	0.2	355	356	11.8	97.4
2022-10-12T21:21	10	0	0.1	0	0	356	0.2	356	357	11.9	97.4
2022-10-12T21:22	10	0	0.1	0	0	356	0.3	355	356	11.9	97.4
2022-10-12T21:23	10	0	0.2	0	0	356	0.3	355	356	11.9	97.4
2022-10-12T21:24	10	0	0.1	0	0	355	0.3	354	356	11.8	97.3
2022-10-12T21:25	10	0	0.1	0	0	355	0.3	355	356	11.8	97.3
2022-10-12T21:26	10	0	0.1	-1	0	354	0.4	353	355	11.6	97.2
2022-10-12T21:27	10	0	0.1	-1	0	354	0.2	354	354	11.5	97.0
2022-10-12T21:28	10	0	0.1	-1	0	354	0.2	354	354	11.5	97.0
2022-10-12T21:29	10	0	0.1	-1	0	354	0.5	353	354	11.6	97.1
2022-10-12T21:30	10	0	0.1	-1	0	354	0.3	353	354	11.6	97.2
2022-10-12T21:31	10	0	0.1	-1	0	354	0.6	353	355	11.5	97.1
2022-10-12T21:32	10	-1	0.1	-1	0	354	0.3	354	355	11.4	97.1
2022-10-12T21:33	10	-1	0.1	-1	-1	356	0.6	355	357	11.3	97.1
2022-10-12T21:34	10	-1	0.1	-1	-1	357	0.4	356	358	11.2	97.1
2022-10-12T21:35	10	-2	0.1	-2	-1	358	0.3	357	358	11.1	97.2
2022-10-12T21:36	10	-2	0.1	-2	-1	358	0.3	357	358	11.1	97.3
2022-10-12T21:37	10	-2	0.1	-2	-1	357	0.3	356	358	11.0	97.4
2022-10-12T21:38	10	-1	0.1	-2	-1	356	0.2	356	357	11.0	97.5
2022-10-12T21:39	10	-1	0.1	-2	-1	355	0.3	354	356	11.0	97.6
2022-10-12T21:40	10	-1	0.1	-1	-1	354	0.4	354	355	10.9	97.6
2022-10-12T21:41	10	-1	0.1	-1	-1	354	0.2	353	354	10.9	97.6
2022-10-12T21:42	10	-1	0.1	-1	-1	354	0.2	353	354	10.8	97.6
2022-10-12T21:43	10	-1	0.1	-1	0	353	0.3	352	354	10.9	97.8
2022-10-12T21:44	10	-1	0.1	-1	0	353	0.3	352	354	10.8	97.8
2022-10-12T21:45	10	-1	0.1	-1	0	353	0.3	353	354	10.8	97.9
2022-10-12T21:46	10	-1	0.1	-1	0	353	0.3	353	354	10.6	97.9
2022-10-12T21:47	10	-1	0.1	-1	-1	354	0.3	353	354	10.6	98.0
2022-10-12T21:48	10	-1	0.1	-1	-1	354	0.2	354	354	10.7	98.2
2022-10-12T21:49	10	-1	0.1	-1	-1	354	0.3	354	355	10.7	98.3
2022-10-12T21:50	10	-1	0.1	-1	-1	355	0.2	354	355	10.7	98.3
2022-10-12T21:51	10	-1	0.1	-1	-1	355	0.2	354	355	10.8	98.5
2022-10-12T21:52	10	-1	0.0	-1	-1	355	0.2	354	355	10.8	98.6
2022-10-12T21:53	10	-1	0.1	-1	-1	355	0.2	354	355	10.8	98.6
2022-10-12T21:54	10	-1	0.1	-1	-1	355	0.2	355	356	10.9	98.7
2022-10-12T21:55	10	-1	0.1	-1	-1	355	0.2	355	356	11.0	98.8
2022-10-12T21:56	10	-1	0.1	-2	-1	355	0.3	355	356	11.1	98.8
2022-10-12T21:57	10	-1	0.1	-2	-1	355	0.2	355	355	11.1	98.8
2022-10-12T21:58	10	-1	0.1	-2	-1	355	0.2	354	355	11.2	98.8
2022-10-12T21:59	10	-1	0.1	-1	-1	354	0.3	354	355	11.2	98.8
2022-10-12T22:00	10	-1	0.1	-1	-1	354	0.2	353	354	11.3	98.8
2022-10-12T22:01	10	-1	0.1	-1	-1	354	0.4	353	354	11.3	98.8
2022-10-12T22:02	10	-1	0.1	-1	-1	353	0.3	352	353	11.2	98.7
2022-10-12T22:03	10	-1	0.1	-1	-1	353	0.3	352	353	11.2	98.7
2022-10-12T22:04	10	-1	0.1	-1	-1	353	0.2	352	353	11.4	98.7
2022-10-12T22:05	10	-1	0.1	-1	-1	353	0.3	352	353	11.5	98.7
2022-10-12T22:06	10	-1	0.1	-1	-1	353	0.3	352	354	11.4	98.6
2022-10-12T22:07	10	-1	0.0	-1	-1	353	0.3	352	354	11.4	98.5
2022-10-12T22:08	10	-1	0.1	-1	-1	353	0.3	352	354	11.2	98.3
2022-10-12T22:09	10	-1	0.1	-1	-1	353	0.3	353	354	11.4	98.3
2022-10-12T22:10	10	-1	0.1	-1	-1	353	0.3	353	354	11.4	98.3
2022-10-12T22:11	10	-1	0.1	-1	-1	353	0.3	352	354	11.4	98.1
2022-10-12T22:12	10	-1	0.1	-1	-1	353	0.3	353	354	11.6	98.1
2022-10-12T22:13	10	-1	0.1	-1	-1	354	0.2	353	354	11.6	98.0
2022-10-12T22:14	10	-1	0.1	-1	-1	353	0.3	353	354	11.5	97.8
2022-10-12T22:15	10	-1	0.1	-1	-1	353	0.2	353	354	11.4	97.7
2022-10-12T22:16	10	-1	0.1	-1	-1	353	0.3	352	354	11.3	97.6
2022-10-12T22:17	10	-1	0.1	-1	-1	352	0.3	352	353	11.2	97.6
2022-10-12T22:18	10	-1	0.1	-1	-1	352	0.3	351	353	11.2	97.6
2022-10-12T22:19	10	-1	0.1	-1	-1	352	0.3	351	352	11.1	97.7
2022-10-12T22:20	10	-1	0.1	-1	-1	352	0.3	351	352	11.1	97.7
2022-10-12T22:21	10	-1	0.1	-1	0	352	0.2	351	352	10.9	97.6
2022-10-12T22:22	10	-1	0.1	-1	0	352	0.2	351	352	10.9	97.6
2022-10-12T22:23	10	-1	0.1	-1	-1	351	0.3	351	352	10.9	97.7
2022-10-12T22:24	10	-1	0.1	-1	0	351	0.3	351	352	10.7	97.7
2022-10-12T22:25	10	-1	0.1	-1	0	352	0.2	351	352	10.8	97.7
2022-10-12T22:26	10	-1	0.1	-1	0	352	0.3	351	353	10.8	97.8
2022-10-12T22:27	10	-1	0.1	-1	0	352	0.3	352	353	10.8	97.9
2022-10-12T22:28	10	-1	0.1	-1	0	352	0.3	352	353	10.9	98.1
2022-10-12T22:29	10	-1	0.1	-1	0	353	0.3	353	354	10.9	98.2
2022-10-12T22:30	10	-1	0.1	-1	-1	353	0.2	353	354	10.9	98.2
2022-10-12T22:31	10	-1	0.1	-1	-1	353	0.3	353	354	10.9	98.2
2022-10-12T22:32	10	-1	0.2	-1	-1	354	0.4	353	354	11.0	98.3
2022-10-12T22:33	10	-1	0.1	-2	-1	354	0.3	353	354	11.0	98.3
2022-10-12T22:34	10	-2	0.1	-2	-2	354	0.2	353	354	10.9	98.3
2022-10-12T22:35	10	-2	0.1	-2	-2	353	0.2	353	354	10.9	98.3
2022-10-12T22:36	10	-2	0.1	-2	-1	353	0.2	353	354	10.8	98.2
2022-10-12T22:37	10	-1	0.1	-2	-1	353	0.2	353	353	10.8	98.2
2022-10-12T22:38	10	-1	0.1	-2	-1	353	0.2	352	353	10.9	98.3
2022-10-12T22:39	10	-1	0.1	-1	-1	353	0.2	353	354	10.8	98.3
2022-10-12T22:40	10	-1	0.1	-1	-1	354	0.3	353	354	11.0	98.4
2022-10-12T22:41	10	-1	0.1	-2	-1	354	0.3	353	355	11.1	98.4
2022-10-12T22:42	10	-1	0.1	-1	-1	354	0.3	353	354	11.0	98.4
2022-10-12T22:43	10	-1	0.1	-2	-1	353	0.2	352	353	11.0	98.4
2022-10-12T22:44	10	-1	0.1	-2	-1	353	0.3	353	354	11.1	98.5
2022-10-12T22:45	10	-1	0.1	-2	-1	353	0.2	353	353	11.1	98.4
2022-10-12T22:46	10	-1	0.1	-1	-1	353	0.2	353	354	11.0	98.3
2022-10-12T22:47	10	-1	0.1	-1	-1	353	0.2	353	354	11.0	98.3
2022-10-12T22:48	10	-1	0.1	-1	-1	353	0.2	353	353	11.0	98.3
2022-10-12T22:49	10	-1	0.1	-1	-1	353	0.2	353	354	11.0	98.3
2022-10-12T22:50	10	-1	0.1	-1	-1	353	0.2	352	353	11.0	98.3
2022-10-12T22:51	10	-1	0.1	-1	0	352	0.3	351	353	10.9	98.3
2022-10-12T22:52	10	-1	0.1	-1	-1	352	0.2	352	353	10.9	98.3
2022-10-12T22:53	10	-1	0.1	-1	0	352	0.2	352	353	10.9	98.3
2022-10-12T22:54	10	-1	0.1	-1	0	352	0.2	352	353	11.0	98.3
2022-10-12T22:55	10	-1	0.1	-1	0	352	0.2	352	353	10.9	98.3
2022-10-12T22:56	10	-1	0.1	-1	0	353	0.3	352	353	10.8	98.3
2022-10-12T22:57	10	-1	0.1	-1	0	352	0.2	352	353	10.8	98.3
2022-10-12T22:58	10	0	0.1	-1	0	352	0.3	351	353	10.7	98.3
2022-10-12T22:59	10	0	0.1	-1	0	351	0.2	351	352	10.7	98.3
2022-10-12T23:00	10	-1	0.1	-1	0	351	0.3	350	351	10.5	98.3
2022-10-12T23:01	10	-1	0.1	-1	0	350	0.4	350	351	10.4	98.2
2022-10-12T23:02	10	-1	0.1	-1	0	350	0.3	349	350	10.2	98.2
2022-10-12T23:03	10	-1	0.1	-1	0	350	0.3	349	351	10.4	98.2
2022-10-12T23:04	10	-1	0.1	-1	0	350	0.3	349	351	10.5	98.3
2022-10-12T23:05	10	-1	0.1	-1	-1	350	0.2	349	350	10.5	98.4
2022-10-12T23:06	10	-1	0.1	-1	-1	350	0.4	349	350	10.6	98.5
2022-10-12T23:07	10	-1	0.1	-1	0	349	0.5	349	350	10.6	98.5
2022-10-12T23:08	10	-1	0.1	-1	0	349	0.4	349	350	10.6	98.5
2022-10-12T23:09	10	-1	0.1	-1	0	349	0.3	349	350	10.6	98.5
2022-10-12T23:10	10	-1	0.1	-1	-1	349	0.3	349	350	10.6	98.5
2022-10-12T23:11	10	-1	0.1	-1	-1	349	0.4	348	350	10.6	98.5
2022-10-12T23:12	10	-1	0.1	-1	-1	349	0.5	348	350	10.6	98.5
2022-10-12T23:13	10	-1	0.1	-1	-1	349	0.5	348	350	10.6	98.5
2022-10-12T23:14	10	-1	0.1	-1	-1	349	0.3	349	350	10.5	98.5
2022-10-12T23:15	10	-1	0.1	-1	-1	349	0.4	348	350	10.4	98.5
2022-10-12T23:16	10	-1	0.1	-1	-1	349	0.2	349	350	10.4	98.5
2022-10-12T23:17	10	-1	0.1	-1	-1	349	0.2	348	350	10.4	98.5
2022-10-12T23:18	10	-1	0.1	-1	-1	349	0.2	349	350	10.3	98.5
2022-10-12T23:19	10	-1	0.1	-1	0	349	0.2	348	350	10.3	98.5
2022-10-12T23:20	10	-1	0.1	-1	-1	349	0.4	348	350	10.3	98.6
2022-10-12T23:21	10	-1	0.1	-1	-1	349	0.4	348	350	10.3	98.6
2022-10-12T23:22	10	-1	0.1	-1	-1	349	0.4	349	351	10.4	98.7
2022-10-12T23:23	10	-1	0.1	-1	-1	350	0.5	349	351	10.3	98.7
2022-10-12T23:24	10	-1	0.1	-1	-1	350	0.3	350	351	10.2	98.6
2022-10-12T23:25	10	-1	0.1	-1	-1	351	0.3	350	351	10.2	98.6
2022-10-12T23:26	10	-1	0.1	-1	-1	351	0.2	350	351	10.2	98.7
2022-10-12T23:27	10	-1	0.1	-1	-1	351	0.2	351	352	10.4	98.8
2022-10-12T23:28	10	-1	0.1	-2	-1	352	0.3	351	353	10.4	98.8
2022-10-12T23:29	10	-1	0.1	-2	-1	352	0.3	351	352	10.4	98.9
2022-10-12T23:30	10	-1	0.1	-2	-1	352	0.2	351	352	10.4	98.9
2022-10-12T23:31	10	-1	0.1	-2	-1	352	0.2	351	352	10.3	98.9
2022-10-12T23:32	10	-2	0.1	-2	-1	351	0.3	351	352	10.2	98.9
2022-10-12T23:33	10	-2	0.1	-2	-1	351	0.3	351	352	10.1	98.9
2022-10-12T23:34	10	-2	0.1	-2	-1	352	0.2	351	352	10.3	98.9
2022-10-12T23:35	10	-2	0.1	-2	-2	352	0.2	352	352	10.2	98.9
2022-10-12T23:36	10	-2	0.1	-2	-2	352	0.3	351	353	10.3	99.0
2022-10-12T23:37	10	-2	0.1	-2	-2	353	0.3	352	353	10.3	99.0
2022-10-12T23:38	10	-2	0.1	-2	-2	354	0.4	353	354	10.4	99.1
2022-10-12T23:39	10	-2	0.1	-3	-2	355	0.5	354	356	10.5	99.1
2022-10-12T23:40	10	-2	0.1	-3	-2	356	0.5	355	357	10.6	99.1
2022-10-12T23:41	10	-2	0.1	-3	-2	357	0.3	356	358	10.8	99.2
2022-10-12T23:42	10	-2	0.1	-2	-2	358	0.4	357	359	10.7	99.2
2022-10-12T23:43	10	-2	0.2	-2	-1	359	0.4	358	359	10.8	99.2
2022-10-12T23:44	10	-2	0.1	-2	-2	359	0.3	359	360	10.8	99.2
2022-10-12T23:45	10	-2	0.1	-2	-2	360	0.4	359	361	10.8	99.1
2022-10-12T23:46	10	-2	0.1	-2	-2	361	0.2	360	361	10.9	99.1
2022-10-12T23:47	10	-2	0.1	-2	-2	361	0.3	360	362	10.8	99.0
2022-10-12T23:48	10	-2	0.1	-2	-2	361	0.2	361	362	10.7	98.9
2022-10-12T23:49	10	-2	0.1	-2	-2	361	0.2	361	362	10.6	98.8
2022-10-12T23:50	10	-2	0.1	-2	-2	361	0.4	361	362	10.6	98.7
2022-10-12T23:51	10	-2	0.1	-2	-2	362	0.2	361	362	10.7	98.7
2022-10-12T23:52	10	-2	0.1	-2	-2	361	0.3	360	362	10.6	98.7
2022-10-12T23:53	10	-2	0.1	-2	-2	361	0.3	360	362	10.6	98.6
2022-10-12T23:54	10	-2	0.1	-2	-2	361	0.2	360	361	10.7	98.6
2022-10-12T23:55	10	-2	0.1	-2	-2	361	0.2	360	361	10.7	98.6
2022-10-12T23:56	10	-2	0.1	-2	-2	360	0.2	360	361	10.8	98.6
2022-10-12T23:57	10	-2	0.1	-2	-2	360	0.2	360	361	10.8	98.5
2022-10-12T23:58	10	-2	0.1	-2	-2	360	0.3	360	361	10.8	98.5
2022-10-12T23:59	10	-2	0.1	-2	-2	360	0.2	360	361	10.7	98.4
2022-10-13T00:00	10	-2	0.1	-2	-2	360	0.2	360	361	10.7	98.4
2022-10-13T00:01	10	-2	0.1	-2	-2	361	0.2	360	361	10.8	98.4
2022-10-13T00:02	10	-2	0.1	-2	-1	361	0.3	360	361	10.9	98.4
2022-10-13T00:03	10	-1	0.1	-2	-1	361	0.2	360	361	10.9	98.4
2022-10-13T00:04	10	-1	0.1	-1	-1	361	0.3	360	361	10.8	98.3
2022-10-13T00:05	10	-1	0.1	-1	-1	361	0.3	361	362	10.9	98.3
2022-10-13T00:06	10	-1	0.1	-1	-1	362	0.3	361	362	10.9	98.2
2022-10-13T00:07	10	-1	0.1	-1	-1	362	0.2	362	363	10.9	98.2
2022-10-13T00:08	10	-1	0.1	-1	-1	363	0.2	362	364	10.9	98.1
2022-10-13T00:09	10	-1	0.1	-1	-1	363	0.2	363	364	10.9	98.1
2022-10-13T00:10	10	-1	0.1	-2	-1	363	0.3	362	364	10.9	98.0
2022-10-13T00:11	10	-2	0.1	-2	-1	363	0.3	362	364	10.9	98.0
2022-10-13T00:12	10	-2	0.1	-2	-1	363	0.2	362	363	10.8	97.8
2022-10-13T00:13	10	-2	0.1	-2	-1	362	0.2	362	363	10.8	97.7
2022-10-13T00:14	10	-2	0.1	-2	-1	363	0.4	362	364	10.9	97.8
2022-10-13T00:15	10	-1	0.1	-1	-1	363	0.3	362	364	10.9	97.8
2022-10-13T00:16	10	-1	0.1	-1	-1	364	0.3	363	364	10.9	97.7
2022-10-13T00:17	10	-1	0.1	-1	-1	365	0.2	364	365	10.9	97.7
2022-10-13T00:18	10	-1	0.1	-1	-1	365	0.4	365	366	10.9	97.7
2022-10-13T00:19	10	-1	0.1	-1	-1	366	0.3	365	366	10.7	97.7
2022-10-13T00:20	10	-1	0.1	-1	-1	366	0.2	365	366	10.7	97.6
2022-10-13T00:21	10	-2	0.1	-2	-1	366	0.3	365	367	10.7	97.7
2022-10-13T00:22	10	-2	0.1	-2	-2	366	0.3	365	367	10.7	97.7
2022-10-13T00:23	10	-2	0.1	-2	-2	366	0.3	366	367	10.7	97.8
2022-10-13T00:24	10	-2	0.1	-2	-2	366	0.3	366	367	10.6	97.8
2022-10-13T00:25	10	-2	0.1	-2	-2	366	0.2	366	367	10.6	97.8
2022-10-13T00:26	10	-2	0.1	-2	-2	366	0.3	365	367	10.6	97.8
2022-10-13T00:27	10	-2	0.1	-2	-2	366	0.3	366	367	10.6	97.8
2022-10-13T00:28	10	-2	0.1	-2	-2	366	0.3	366	367	10.6	97.8
2022-10-13T00:29	10	-2	0.1	-2	-2	366	0.3	366	367	10.6	97.9
2022-10-13T00:30	10	-2	0.1	-2	-2	366	0.3	366	367	10.6	97.9
2022-10-13T00:31	10	-2	0.1	-2	-2	366	0.2	365	367	10.6	97.9
2022-10-13T00:32	10	-2	0.1	-2	-2	366	0.2	366	367	10.6	97.9
2022-10-13T00:33	10	-2	0.1	-2	-2	366	0.3	366	367	10.7	98.0
2022-10-13T00:34	10	-2	0.1	-2	-2	367	0.3	366	367	10.7	98.0
2022-10-13T00:35	10	-2	0.1	-2	-2	367	0.4	366	367	10.8	98.1
2022-10-13T00:36	10	-2	0.1	-2	-2	367	0.3	366	367	10.8	98.0
2022-10-13T00:37	10	-2	0.1	-2	-2	367	0.3	366	368	10.8	97.9
2022-10-13T00:38	10	-2	0.1	-2	-2	367	0.3	367	368	10.8	97.9
2022-10-13T00:39	10	-2	0.1	-2	-2	367	0.3	367	368	10.9	97.9
2022-10-13T00:40	10	-2	0.1	-2	-2	367	0.3	367	368	10.9	97.9
2022-10-13T00:41	10	-2	0.1	-2	-2	367	0.2	367	368	10.9	97.9
2022-10-13T00:42	10	-2	0.1	-2	-2	367	0.2	367	368	10.9	97.7
2022-10-13T00:43	10	-2	0.1	-2	-2	367	0.2	367	368	10.9	97.6
2022-10-13T00:44	10	-2	0.1	-2	-2	367	0.2	367	368	10.9	97.5
2022-10-13T00:45	10	-2	0.1	-2	-2	367	0.2	367	368	11.0	97.4
2022-10-13T00:46	10	-2	0.1	-2	-2	367	0.2	367	368	11.0	97.3
2022-10-13T00:47	10	-2	0.1	-2	-2	368	0.2	367	368	11.0	97.2
2022-10-13T00:48	10	-2	0.1	-2	-2	368	0.2	367	368	11.0	97.1
2022-10-13T00:49	10	-2	0.1	-2	-2	368	0.2	367	368	11.0	97.1
2022-10-13T00:50	10	-2	0.1	-2	-1	368	0.2	367	368	11.0	97.1
2022-10-13T00:51	10	-1	0.1	-2	-1	368	0.2	368	369	11.0	97.1
2022-10-13T00:52	10	-1	0.1	-2	-1	368	0.2	368	369	11.0	97.1
2022-10-13T00:53	10	-1	0.1	-1	-1	368	0.3	367	369	11.0	97.1
2022-10-13T00:54	10	-1	0.1	-1	-1	368	0.4	367	369	11.0	97.1
2022-10-13T00:55	10	-1	0.1	-1	-1	368	0.4	368	369	11.1	97.2
2022-10-13T00:56	10	-1	0.1	-1	-1	368	0.3	368	369	11.1	97.2
2022-10-13T00:57	10	-1	0.1	-1	-1	368	0.4	368	369	11.1	97.1
2022-10-13T00:58	10	-1	0.1	-1	-1	368	0.2	368	369	11.1	96.9
2022-10-13T00:59	10	-1	0.1	-2	-1	368	0.2	368	369	11.2	96.7
2022-10-13T01:00	10	-2	0.1	-2	-1	368	0.2	368	369	11.3	96.4
2022-10-13T01:01	10	-1	0.1	-2	-1	368	0.3	368	369	11.2	96.2
2022-10-13T01:02	10	-1	0.1	-2	-1	369	0.3	368	369	11.1	96.1
2022-10-13T01:03	10	-1	0.1	-1	-1	369	0.3	368	369	11.1	96.2
2022-10-13T01:04	10	-1	0.1	-1	-1	369	0.3	369	370	11.3	96.3
2022-10-13T01:05	10	-1	0.1	-1	0	369	0.3	369	370	11.3	96.1
2022-10-13T01:06	10	-1	0.1	-1	0	370	0.4	369	370	11.4	96.0
2022-10-13T01:07	10	0	0.1	-1	0	370	0.2	369	371	11.4	95.8
2022-10-13T01:08	10	0	0.1	-1	0	370	0.4	369	371	11.4	95.7
2022-10-13T01:09	10	0	0.1	0	0	370	0.2	369	370	11.5	95.6
2022-10-13T01:10	10	0	0.1	0	0	370	0.4	369	371	11.4	95.4
2022-10-13T01:11	10	0	0.1	0	0	370	0.2	370	370	11.4	95.3
2022-10-13T01:12	10	0	0.1	0	0	370	0.3	370	371	11.4	95.5
2022-10-13T01:13	10	0	0.1	-1	0	370	0.4	369	371	11.4	95.5
2022-10-13T01:14	10	0	0.1	0	0	370	0.2	370	370	11.4	95.6
2022-10-13T01:15	10	0	0.1	0	0	370	0.2	370	371	11.4	95.7
2022-10-13T01:16	10	0	0.1	0	0	370	0.3	369	371	11.4	95.8
2022-10-13T01:17	10	0	0.1	0	0	370	0.3	370	371	11.3	95.9
2022-10-13T01:18	10	0	0.1	0	0	370	0.3	369	371	11.3	96.1
2022-10-13T01:19	10	0	0.2	-1	0	370	0.2	370	370	11.3	96.2
2022-10-13T01:20	10	-1	0.2	-1	0	370	0.3	370	371	11.3	96.3
2022-10-13T01:21	10	-1	0.1	-1	0	370	0.2	369	370	11.3	96.4
2022-10-13T01:22	10	-1	0.1	-1	-1	370	0.2	370	370	11.4	96.4
2022-10-13T01:23	10	-1	0.1	-1	-1	370	0.2	369	370	11.3	96.3
2022-10-13T01:24	10	-1	0.1	-1	-1	370	0.3	369	370	11.4	96.2
2022-10-13T01:25	10	-1	0.1	-1	-1	370	0.3	369	371	11.4	96.1
2022-10-13T01:26	10	-1	0.1	-2	-1	370	0.3	369	371	11.4	96.0
2022-10-13T01:27	10	-1	0.1	-2	-1	370	0.3	369	370	11.4	95.9
2022-10-13T01:28	10	-1	0.1	-2	-1	370	0.2	370	371	11.5	95.8
2022-10-13T01:29	10	-1	0.1	-2	-1	370	0.3	370	371	11.5	95.5
2022-10-13T01:30	10	-1	0.1	-2	-1	370	0.3	370	371	11.6	95.4
2022-10-13T01:31	10	-1	0.1	-2	-1	370	0.3	369	371	11.5	95.4
2022-10-13T01:32	10	-1	0.1	-1	-1	370	0.3	370	371	11.5	95.5
2022-10-13T01:33	10	-1	0.1	-1	-1	370	0.3	370	371	11.5	95.6
2022-10-13T01:34	10	-1	0.1	-1	-1	370	0.2	370	371	11.6	95.6
2022-10-13T01:35	10	-1	0.1	-1	-1	371	0.2	370	371	11.6	95.5
2022-10-13T01:36	10	-1	0.1	-1	0	371	0.2	370	371	11.6	95.6
2022-10-13T01:37	10	-1	0.1	-1	0	371	0.3	370	371	11.6	95.6
2022-10-13T01:38	10	0	0.1	-1	0	371	0.3	370	371	11.6	95.6
2022-10-13T01:39	10	-1	0.1	-1	0	371	0.3	370	371	11.6	95.5
2022-10-13T01:40	10	-1	0.1	-1	-1	371	0.2	370	371	11.6	95.4
2022-10-13T01:41	10	-1	0.1	-1	-1	371	0.2	371	372	11.7	95.1
2022-10-13T01:42	10	-1	0.1	-1	-1	371	0.2	370	371	11.7	94.8
2022-10-13T01:43	10	-1	0.1	-1	-1	371	0.3	370	371	11.6	94.8
2022-10-13T01:44	10	-1	0.1	-1	0	371	0.2	370	371	11.6	95.0
2022-10-13T01:45	10	-1	0.1	-1	-1	371	0.2	370	371	11.7	95.1
2022-10-13T01:46	10	-1	0.1	-1	-1	371	0.3	370	371	11.8	95.0
2022-10-13T01:47	10	-1	0.1	-1	-1	371	0.3	370	372	11.9	94.5
2022-10-13T01:48	10	-1	0.1	-1	-1	371	0.2	371	372	11.9	94.3
2022-10-13T01:49	10	-1	0.1	-1	0	371	0.4	370	372	11.9	94.1
2022-10-13T01:50	10	-1	0.1	-1	0	371	0.3	371	372	11.9	94.2
2022-10-13T01:51	10	-1	0.1	-1	0	371	0.2	371	372	12.1	93.9
2022-10-13T01:52	10	-1	0.1	-1	0	372	0.2	371	372	12.1	93.5
2022-10-13T01:53	10	-1	0.1	-1	0	372	0.2	371	372	12.2	93.3
2022-10-13T01:54	10	-1	0.1	-1	0	372	0.2	371	372	12.1	93.1
2022-10-13T01:55	10	0	0.1	-1	0	372	0.2	371	372	12.0	93.3
2022-10-13T01:56	10	0	0.1	0	0	372	0.2	371	372	12.0	93.6
2022-10-13T01:57	10	0	0.1	0	0	372	0.2	371	372	12.1	93.7
2022-10-13T01:58	10	0	0.1	0	0	372	0.3	372	373	12.1	93.6
2022-10-13T01:59	10	0	0.1	0	0	372	0.2	372	373	12.1	93.7
2022-10-13T02:00	10	0	0.0	0	0	372	0.2	372	373	12.1	93.7
2022-10-13T02:01	10	0	0.1	0	1	373	0.5	372	374	12.1	93.7
2022-10-13T02:02	10	1	0.1	0	1	373	0.4	372	373	12.2	93.6
2022-10-13T02:03	10	0	0.1	0	1	372	0.5	372	373	12.1	93.4
2022-10-13T02:04	10	0	0.1	0	1	372	0.4	372	373	12.0	93.4
2022-10-13T02:05	10	0	0.1	0	0	372	0.2	372	373	11.8	93.7
2022-10-13T02:06	10	0	0.1	0	0	372	0.6	371	373	11.7	94.0
2022-10-13T02:07	10	0	0.1	0	0	371	0.3	371	372	11.6	94.2
2022-10-13T02:08	10	-1	0.1	-1	0	371	0.4	370	372	11.6	94.6
2022-10-13T02:09	10	-1	0.1	-1	0	371	0.3	371	372	11.6	94.8
2022-10-13T02:10	10	-1	0.1	-1	-1	371	0.4	370	372	11.6	95.0
2022-10-13T02:11	10	-1	0.1	-1	0	371	0.4	370	372	11.5	95.2
2022-10-13T02:12	10	-1	0.1	-1	-1	371	0.5	370	372	11.5	95.3
2022-10-13T02:13	10	-1	0.1	-1	0	371	0.2	370	371	11.5	95.4
2022-10-13T02:14	10	-1	0.1	-1	-1	371	0.3	370	371	11.5	95.5
2022-10-13T02:15	10	-1	0.1	-1	-1	371	0.7	370	372	11.5	95.6
2022-10-13T02:16	10	-1	0.1	-1	-1	371	0.4	370	372	11.5	95.6
2022-10-13T02:17	10	-1	0.1	-1	-1	371	0.6	370	372	11.4	95.7
2022-10-13T02:18	10	-1	0.1	-1	-1	371	0.4	370	372	11.4	95.8
2022-10-13T02:19	10	-1	0.1	-1	-1	371	0.3	370	372	11.5	95.9
2022-10-13T02:20	10	-1	0.1	-1	0	371	0.2	370	371	11.5	96.0
2022-10-13T02:21	10	0	0.1	-1	0	371	0.3	370	371	11.5	96.1
2022-10-13T02:22	10	0	0.1	0	0	371	0.2	371	372	11.5	96.2
2022-10-13T02:23	10	0	0.1	0	0	371	0.2	371	372	11.5	96.3
2022-10-13T02:24	10	0	0.1	0	0	371	0.2	370	372	11.5	96.3
2022-10-13T02:25	10	0	0.1	0	0	371	0.2	370	371	11.4	96.3
2022-10-13T02:26	10	0	0.0	0	0	371	0.2	370	372	11.4	96.3
2022-10-13T02:27	10	0	0.1	0	0	371	0.2	370	371	11.4	96.4
2022-10-13T02:28	10	0	0.1	0	0	371	0.3	370	371	11.4	96.4
2022-10-13T02:29	10	0	0.1	0	0	371	0.3	370	371	11.4	96.4
2022-10-13T02:30	10	0	0.1	0	0	371	0.3	370	371	11.4	96.5
2022-10-13T02:31	10	0	0.1	0	0	371	0.2	370	372	11.4	96.5
2022-10-13T02:32	10	0	0.1	0	0	371	0.2	371	372	11.4	96.5
2022-10-13T02:33	10	0	0.1	0	0	371	0.2	370	371	11.4	96.6
2022-10-13T02:34	10	0	0.1	0	0	371	0.2	370	371	11.4	96.7
2022-10-13T02:35	10	0	0.1	0	0	371	0.2	370	371	11.4	96.7
2022-10-13T02:36	10	0	0.1	0	0	371	0.2	370	371	11.5	96.8
2022-10-13T02:37	10	0	0.1	0	0	371	0.2	370	371	11.5	96.8
2022-10-13T02:38	10	0	0.1	0	0	371	0.2	371	371	11.6	96.8
2022-10-13T02:39	10	0	0.1	0	0	371	0.2	371	372	11.7	96.9
2022-10-13T02:40	10	0	0.1	0	0	371	0.2	371	372	11.8	96.5
2022-10-13T02:41	10	0	0.0	0	0	371	0.2	371	372	11.6	96.3
2022-10-13T02:42	10	0	0.1	0	0	371	0.2	371	372	11.6	96.4
2022-10-13T02:43	10	0	0.1	0	0	372	0.2	371	372	11.7	96.5
2022-10-13T02:44	10	0	0.1	0	0	372	0.2	371	372	11.7	96.5
2022-10-13T02:45	10	0	0.1	0	0	372	0.3	372	373	11.7	96.4
2022-10-13T02:46	10	0	0.1	0	0	372	0.3	371	372	11.7	96.4
2022-10-13T02:47	10	0	0.0	0	0	372	0.3	371	373	11.7	96.4
2022-10-13T02:48	10	0	0.1	0	1	372	0.3	372	373	11.7	96.5
2022-10-13T02:49	10	0	0.1	0	1	372	0.2	372	373	11.7	96.6
2022-10-13T02:50	10	1	0.1	0	1	372	0.2	372	373	11.7	96.6
2022-10-13T02:51	10	1	0.1	0	1	373	0.3	372	373	11.7	96.6
2022-10-13T02:52	10	1	0.1	0	1	373	0.2	372	373	11.8	96.6
2022-10-13T02:53	10	1	0.1	1	1	373	0.3	372	373	11.9	96.6
2022-10-13T02:54	10	1	0.1	1	1	373	0.2	372	373	11.9	96.5
2022-10-13T02:55	10	1	0.1	1	1	373	0.2	372	373	11.8	96.4
2022-10-13T02:56	10	1	0.1	1	1	372	0.2	372	373	11.8	96.3
2022-10-13T02:57	10	1	0.0	1	1	373	0.2	372	373	11.8	96.2
2022-10-13T02:58	10	1	0.1	1	1	372	0.2	372	373	11.8	96.2
2022-10-13T02:59	10	1	0.1	1	1	372	0.2	372	373	11.8	96.2
2022-10-13T03:00	10	1	0.1	1	1	372	0.3	372	373	11.8	96.3
2022-10-13T03:01	10	1	0.1	1	1	372	0.2	372	373	11.7	96.4
2022-10-13T03:02	10	1	0.1	1	1	372	0.2	372	372	11.7	96.5
2022-10-13T03:03	10	1	0.1	1	1	372	0.3	372	373	11.7	96.6
2022-10-13T03:04	10	1	0.1	1	1	372	0.2	372	373	11.7	96.7
2022-10-13T03:05	10	1	0.1	0	1	372	0.2	372	373	11.7	96.8
2022-10-13T03:06	10	0	0.1	0	1	372	0.2	372	372	11.8	96.8
2022-10-13T03:07	10	1	0.1	0	1	372	0.2	372	373	11.8	96.9
2022-10-13T03:08	10	0	0.1	0	1	372	0.2	371	372	11.8	96.9
2022-10-13T03:09	10	1	0.1	0	1	372	0.3	371	372	11.8	96.9
2022-10-13T03:10	10	1	0.1	0	1	371	0.4	371	372	11.7	97.0
2022-10-13T03:11	10	1	0.1	0	1	371	0.2	371	372	11.7	97.0
2022-10-13T03:12	10	1	0.1	0	1	371	0.3	371	372	11.7	97.0
2022-10-13T03:13	10	1	0.1	0	1	371	0.3	371	372	11.7	97.0
2022-10-13T03:14	10	1	0.1	0	1	371	0.2	371	372	11.8	97.0
2022-10-13T03:15	10	1	0.1	0	1	371	0.3	370	372	11.8	96.9
2022-10-13T03:16	10	1	0.1	0	1	371	0.2	371	371	11.7	96.8
2022-10-13T03:17	10	1	0.1	0	1	371	0.2	370	371	11.7	96.7
2022-10-13T03:18	10	1	0.1	0	1	371	0.2	370	371	11.7	96.7
2022-10-13T03:19	10	1	0.1	1	1	371	0.2	370	371	11.8	96.7
2022-10-13T03:20	10	1	0.0	1	1	371	0.3	370	371	11.8	96.7
2022-10-13T03:21	10	1	0.1	1	1	371	0.2	371	371	11.8	96.6
2022-10-13T03:22	10	1	0.1	1	1	371	0.2	371	372	11.8	96.6
2022-10-13T03:23	10	1	0.1	1	1	371	0.2	371	372	11.9	96.5
2022-10-13T03:24	10	1	0.1	1	1	371	0.2	371	372	11.9	96.4
2022-10-13T03:25	10	1	0.1	1	1	371	0.2	371	372	11.8	96.3
2022-10-13T03:26	10	1	0.1	1	1	371	0.2	371	372	11.8	96.2
2022-10-13T03:27	10	1	0.1	1	1	371	0.2	371	372	11.8	96.2
2022-10-13T03:28	10	1	0.1	1	1	371	0.2	371	372	11.8	96.2
2022-10-13T03:29	10	1	0.1	1	1	372	0.2	371	372	11.8	96.3
2022-10-13T03:30	10	1	0.1	1	1	372	0.3	371	372	11.7	96.4
2022-10-13T03:31	10	1	0.1	1	1	372	0.2	371	372	11.7	96.4
2022-10-13T03:32	10	1	0.1	1	1	372	0.2	371	373	11.7	96.5
2022-10-13T03:33	10	1	0.1	1	1	372	0.2	372	373	11.7	96.6
2022-10-13T03:34	10	1	0.1	1	1	372	0.3	371	373	11.8	96.7
2022-10-13T03:35	10	1	0.1	1	1	372	0.2	372	373	11.7	96.7
2022-10-13T03:36	10	1	0.1	1	1	372	0.2	372	373	11.8	96.7
2022-10-13T03:37	10	1	0.1	1	1	372	0.2	372	373	11.8	96.8
2022-10-13T03:38	10	1	0.1	0	1	372	0.2	372	373	11.8	96.8
2022-10-13T03:39	10	1	0.1	0	1	372	0.2	372	373	11.8	96.8
2022-10-13T03:40	10	0	0.1	0	1	372	0.2	372	373	11.8	96.8
2022-10-13T03:41	10	0	0.1	0	1	372	0.2	372	373	11.8	96.7
2022-10-13T03:42	10	0	0.1	0	1	372	0.2	372	373	11.9	96.6
2022-10-13T03:43	10	1	0.1	0	1	372	0.3	371	373	11.8	96.5
2022-10-13T03:44	10	0	0.1	0	1	372	0.2	372	373	11.9	96.4
2022-10-13T03:45	10	1	0.1	0	1	372	0.3	372	373	11.9	96.3
2022-10-13T03:46	10	1	0.1	0	1	372	0.3	371	373	11.9	96.2
2022-10-13T03:47	10	1	0.1	1	1	372	0.2	371	373	11.9	96.0
2022-10-13T03:48	10	1	0.1	0	1	372	0.4	371	373	11.9	95.8
2022-10-13T03:49	10	1	0.1	0	1	372	0.3	371	373	11.8	95.8
2022-10-13T03:50	10	1	0.1	1	1	372	0.2	372	372	11.8	95.8
2022-10-13T03:51	10	1	0.1	0	1	372	0.3	371	373	11.8	95.9
2022-10-13T03:52	10	1	0.1	0	1	372	0.2	372	373	11.8	95.9
2022-10-13T03:53	10	1	0.1	0	1	372	0.3	372	373	11.9	95.9
2022-10-13T03:54	10	1	0.1	0	1	372	0.2	372	373	11.9	95.8
2022-10-13T03:55	10	0	0.1	0	1	372	0.3	372	373	11.9	95.8
2022-10-13T03:56	10	0	0.1	0	0	372	0.2	372	373	11.8	95.8
2022-10-13T03:57	10	0	0.1	0	0	372	0.3	371	372	11.8	95.8
2022-10-13T03:58	10	0	0.1	0	0	372	0.2	371	372	11.7	96.0
2022-10-13T03:59	10	0	0.1	0	0	371	0.2	371	372	11.7	96.2
2022-10-13T04:00	10	0	0.1	0	0	371	0.3	371	372	11.7	96.4
2022-10-13T04:01	10	0	0.1	0	0	372	0.2	371	372	11.8	96.6
2022-10-13T04:02	10	0	0.1	0	0	371	0.2	371	372	11.8	96.7
2022-10-13T04:03	10	0	0.1	0	0	371	0.2	371	372	11.8	96.8
2022-10-13T04:04	10	0	0.1	0	0	371	0.2	371	372	11.8	96.9
2022-10-13T04:05	10	0	0.1	0	0	371	0.2	371	372	11.9	97.1
2022-10-13T04:06	10	0	0.1	0	0	371	0.2	371	372	11.9	97.1
2022-10-13T04:07	10	0	0.1	0	0	371	0.2	370	371	11.9	97.2
2022-10-13T04:08	10	0	0.1	0	1	371	0.2	370	371	12.0	97.3
2022-10-13T04:09	10	1	0.1	0	1	371	0.2	370	371	12.0	97.3
2022-10-13T04:10	10	1	0.1	0	1	371	0.2	370	371	12.0	97.3
2022-10-13T04:11	10	1	0.1	1	1	371	0.2	371	371	12.1	97.2
2022-10-13T04:12	10	1	0.1	0	1	371	0.3	370	371	12.1	97.2
2022-10-13T04:13	10	1	0.1	1	1	370	0.2	370	371	12.0	97.0
2022-10-13T04:14	10	1	0.1	0	1	371	0.2	370	371	12.1	97.1
2022-10-13T04:15	10	1	0.1	0	1	371	0.2	370	371	12.1	97.1
2022-10-13T04:16	10	1	0.1	0	1	371	0.3	370	372	12.0	97.0
2022-10-13T04:17	10	1	0.1	0	1	371	0.2	371	372	12.1	97.0
2022-10-13T04:18	10	0	0.1	0	1	372	0.3	371	372	12.1	96.8
2022-10-13T04:19	10	0	0.1	0	1	372	0.3	371	372	12.0	96.7
2022-10-13T04:20	10	0	0.1	0	1	372	0.3	371	372	12.0	96.5
2022-10-13T04:21	10	0	0.1	0	1	372	0.4	371	373	12.0	96.3
2022-10-13T04:22	10	0	0.1	0	1	372	0.5	371	373	12.0	96.2
2022-10-13T04:23	10	0	0.1	0	1	372	0.4	372	373	12.0	95.9
2022-10-13T04:24	10	0	0.1	0	1	372	0.4	371	373	12.0	95.7
2022-10-13T04:25	10	0	0.1	0	1	373	0.4	372	373	12.0	95.5
2022-10-13T04:26	10	0	0.1	0	1	373	0.3	372	373	12.0	95.4
2022-10-13T04:27	10	0	0.1	0	1	373	0.5	372	373	12.0	95.3
2022-10-13T04:28	10	0	0.1	0	1	373	0.2	372	373	12.0	95.4
2022-10-13T04:29	10	1	0.1	0	1	373	0.2	372	373	12.0	95.4
2022-10-13T04:30	10	1	0.1	0	1	372	0.4	372	373	12.0	95.4
2022-10-13T04:31	10	1	0.1	0	1	372	0.3	372	373	12.0	95.3
2022-10-13T04:32	10	1	0.1	0	1	373	0.3	372	373	11.9	95.3
2022-10-13T04:33	10	1	0.1	0	1	373	0.2	372	373	11.9	95.3
2022-10-13T04:34	10	0	0.1	0	1	372	0.3	372	373	11.9	95.3
2022-10-13T04:35	10	1	0.2	0	1	373	0.2	372	373	11.9	95.4
2022-10-13T04:36	10	1	0.1	0	1	373	0.3	372	373	11.9	95.5
2022-10-13T04:37	10	1	0.2	0	1	372	0.2	372	373	11.9	95.6
2022-10-13T04:38	10	1	0.1	1	1	373	0.3	372	374	11.9	95.6
2022-10-13T04:39	10	1	0.1	1	1	373	0.2	372	373	11.9	95.6
2022-10-13T04:40	10	1	0.1	1	1	373	0.2	372	373	11.9	95.7
2022-10-13T04:41	10	1	0.1	1	1	373	0.3	372	373	11.9	95.7
2022-10-13T04:42	10	1	0.1	1	1	373	0.3	372	373	11.9	95.7
2022-10-13T04:43	10	1	0.1	1	1	373	0.3	372	373	11.9	95.7
2022-10-13T04:44	10	1	0.1	1	1	373	0.3	372	374	11.9	95.7
2022-10-13T04:45	10	1	0.1	1	1	373	0.3	372	373	11.8	95.8
2022-10-13T04:46	10	1	0.1	0	1	373	0.2	373	374	11.8	95.9
2022-10-13T04:47	10	1	0.1	0	1	373	0.2	373	374	11.9	95.9
2022-10-13T04:48	10	0	0.2	0	1	373	0.3	372	374	11.9	95.9
2022-10-13T04:49	10	0	0.2	0	1	373	0.3	372	374	11.9	95.8
2022-10-13T04:50	10	0	0.1	0	0	373	0.2	372	373	11.9	95.7
2022-10-13T04:51	10	0	0.1	0	1	373	0.4	372	373	11.9	95.6
2022-10-13T04:52	10	0	0.1	0	1	373	0.4	372	373	11.9	95.5
2022-10-13T04:53	10	0	0.2	0	1	373	0.6	372	374	11.9	95.4
2022-10-13T04:54	10	0	0.1	0	0	373	0.4	372	373	11.9	95.4
2022-10-13T04:55	10	0	0.1	0	1	373	0.4	372	374	11.9	95.3
2022-10-13T04:56	10	0	0.1	0	1	373	0.2	372	373	12.0	95.2
2022-10-13T04:57	10	0	0.1	0	1	372	0.2	372	373	11.9	95.2
2022-10-13T04:58	10	0	0.2	0	1	372	0.2	371	373	11.9	95.2
2022-10-13T04:59	10	1	0.1	0	1	372	0.2	371	372	11.9	95.3
2022-10-13T05:00	10	1	0.1	0	1	372	0.2	371	372	11.9	95.3
2022-10-13T05:01	10	1	0.2	0	1	372	0.2	371	372	11.9	95.4
2022-10-13T05:02	10	1	0.2	0	1	372	0.3	371	372	11.9	95.4
2022-10-13T05:03	10	1	0.1	1	1	372	0.3	371	372	11.9	95.5
2022-10-13T05:04	10	1	0.2	1	1	372	0.2	371	372	11.8	95.6
2022-10-13T05:05	10	1	0.2	0	1	371	0.2	371	372	11.8	95.7
2022-10-13T05:06	10	1	0.1	1	1	372	0.2	371	372	11.8	95.7
2022-10-13T05:07	10	1	0.1	1	1	371	0.2	371	372	11.8	95.7
2022-10-13T05:08	10	1	0.1	0	1	371	0.2	370	371	11.8	95.7
2022-10-13T05:09	10	1	0.1	1	1	371	0.2	370	371	11.8	95.8
2022-10-13T05:10	10	1	0.2	0	1	371	0.2	370	371	11.8	95.9
2022-10-13T05:11	10	1	0.1	0	1	371	0.2	370	371	11.8	96.1
2022-10-13T05:12	10	1	0.1	0	1	371	0.3	370	371	11.8	96.2
2022-10-13T05:13	10	1	0.1	0	1	371	0.3	370	372	11.8	96.3
2022-10-13T05:14	10	1	0.1	0	1	371	0.2	371	372	11.8	96.4
2022-10-13T05:15	10	1	0.2	0	1	371	0.3	371	372	11.8	96.4
2022-10-13T05:16	10	1	0.2	0	1	371	0.3	371	372	11.8	96.5
2022-10-13T05:17	10	1	0.2	0	1	371	0.3	371	372	11.8	96.5
2022-10-13T05:18	10	1	0.2	0	1	371	0.3	371	372	11.8	96.4
2022-10-13T05:19	10	1	0.1	1	1	371	0.2	370	371	11.8	96.4
2022-10-13T05:20	10	1	0.1	1	1	370	0.3	370	371	11.8	96.4
2022-10-13T05:21	10	1	0.1	0	1	370	0.3	369	371	11.9	96.4
2022-10-13T05:22	10	1	0.2	0	1	370	0.3	369	370	11.9	96.3
2022-10-13T05:23	10	1	0.1	1	1	369	0.2	369	370	11.9	96.3
2022-10-13T05:24	10	1	0.1	0	1	369	0.3	368	369	11.9	96.3
2022-10-13T05:25	10	1	0.1	0	1	369	0.2	368	369	12.0	96.3
2022-10-13T05:26	10	1	0.1	1	1	368	0.5	368	369	12.0	96.2
2022-10-13T05:27	10	1	0.1	0	1	369	0.3	369	370	12.0	96.0
2022-10-13T05:28	10	1	0.2	0	1	370	0.2	369	370	12.0	95.8
2022-10-13T05:29	10	1	0.1	0	1	370	0.3	369	371	12.1	95.7
2022-10-13T05:30	10	0	0.2	0	1	370	0.2	370	371	12.1	95.5
2022-10-13T05:31	10	0	0.2	0	1	371	0.2	370	371	12.1	95.4
2022-10-13T05:32	10	0	0.1	0	1	371	0.6	370	372	12.1	95.2
2022-10-13T05:33	10	0	0.1	0	1	371	0.3	370	371	12.1	95.1
2022-10-13T05:34	10	0	0.2	0	1	371	0.4	370	371	12.1	95.1
2022-10-13T05:35	10	1	0.2	0	1	371	0.5	370	372	12.1	95.1
2022-10-13T05:36	10	1	0.1	1	1	371	0.4	370	371	12.1	95.0
2022-10-13T05:37	10	1	0.2	1	2	371	0.4	370	372	12.1	94.9
2022-10-13T05:38	10	2	0.1	1	2	370	0.3	370	371	12.1	94.8
2022-10-13T05:39	10	2	0.2	1	2	370	0.3	369	371	12.1	94.8
2022-10-13T05:40	10	2	0.1	2	2	370	0.2	369	370	12.0	94.8
2022-10-13T05:41	10	2	0.1	2	2	370	0.3	369	370	12.0	94.8
2022-10-13T05:42	10	2	0.1	2	3	370	0.2	369	370	12.0	94.9
2022-10-13T05:43	10	2	0.1	2	3	370	0.3	369	370	12.0	94.9
2022-10-13T05:44	10	2	0.2	2	3	370	0.2	370	371	12.0	94.9
2022-10-13T05:45	10	2	0.2	2	3	370	0.3	370	371	12.0	94.9
2022-10-13T05:46	10	2	0.1	2	3	370	0.2	370	371	12.0	94.8
2022-10-13T05:47	10	2	0.2	2	3	370	0.2	370	371	12.0	94.8
2022-10-13T05:48	10	2	0.1	2	2	371	0.2	370	371	11.9	94.9
2022-10-13T05:49	10	2	0.1	1	2	370	0.3	370	371	11.9	95.1
2022-10-13T05:50	10	2	0.1	1	2	370	0.2	370	371	11.9	95.3
2022-10-13T05:51	10	2	0.1	2	2	370	0.3	370	371	11.9	95.5
2022-10-13T05:52	10	2	0.1	2	2	370	0.2	370	371	11.9	95.7
2022-10-13T05:53	10	2	0.1	2	2	370	0.2	370	371	11.9	95.7
2022-10-13T05:54	10	2	0.1	2	3	370	0.2	370	371	11.9	95.7
2022-10-13T05:55	10	2	0.1	2	3	370	0.3	370	371	11.9	95.6
2022-10-13T05:56	10	3	0.1	2	3	370	0.3	370	371	11.9	95.6
2022-10-13T05:57	10	3	0.2	2	3	370	0.2	370	371	11.8	95.7
2022-10-13T05:58	10	3	0.2	2	3	370	0.2	370	371	11.8	95.9
2022-10-13T05:59	10	4	0.2	3	4	370	0.2	370	371	11.8	96.1
2022-10-13T06:00	10	4	0.1	4	4	371	0.2	370	371	11.8	96.2
2022-10-13T06:01	10	4	0.1	4	4	370	0.3	370	371	11.8	96.3
2022-10-13T06:02	10	4	0.1	4	4	371	0.2	370	371	11.8	96.5
2022-10-13T06:03	10	4	0.2	4	5	371	0.2	370	371	11.8	96.7
2022-10-13T06:04	10	5	0.2	4	5	371	0.3	370	372	11.8	96.9
2022-10-13T06:05	10	6	0.2	5	6	371	0.2	371	372	11.8	96.9
2022-10-13T06:06	10	6	0.2	5	6	371	0.3	370	371	11.9	96.8
2022-10-13T06:07	10	5	0.4	4	5	370	0.3	370	371	11.9	96.8
2022-10-13T06:08	10	3	0.3	3	4	370	0.2	370	371	11.9	96.7
2022-10-13T06:09	10	3	0.1	3	3	370	0.3	369	370	11.8	96.8
2022-10-13T06:10	10	3	0.1	2	3	370	0.2	369	370	11.8	96.9
2022-10-13T06:11	10	3	0.1	2	3	370	0.2	369	370	11.8	97.0
2022-10-13T06:12	10	3	0.1	2	3	370	0.2	369	370	11.8	97.1
2022-10-13T06:13	10	2	0.1	2	3	370	0.4	369	371	11.8	97.1
2022-10-13T06:14	10	3	0.1	2	3	371	0.2	370	371	11.8	97.1
2022-10-13T06:15	10	3	0.1	2	3	371	0.3	371	372	11.8	97.1
2022-10-13T06:16	10	2	0.1	2	3	372	0.3	371	372	11.8	97.1
2022-10-13T06:17	10	2	0.2	2	3	372	0.4	372	374	11.8	97.1
2022-10-13T06:18	10	2	0.1	2	3	373	0.2	372	373	11.8	97.1
2022-10-13T06:19	10	2	0.1	2	3	373	0.2	372	373	11.8	97.1
2022-10-13T06:20	10	2	0.1	2	3	373	0.2	373	374	11.8	97.1
2022-10-13T06:21	10	2	0.1	2	3	374	0.2	373	374	11.8	97.2
2022-10-13T06:22	10	2	0.1	2	3	374	0.3	373	374	11.9	97.2
2022-10-13T06:23	10	2	0.2	2	3	374	0.2	373	375	11.9	97.2
2022-10-13T06:24	10	3	0.2	2	3	374	0.3	373	375	11.9	97.1
2022-10-13T06:25	10	3	0.1	3	3	374	0.3	373	375	11.9	97.1
2022-10-13T06:26	10	3	0.2	3	3	374	0.3	373	375	11.9	97.0
2022-10-13T06:27	10	3	0.1	3	3	375	0.2	374	375	11.9	97.0
2022-10-13T06:28	10	3	0.1	2	3	375	0.2	374	375	11.9	96.9
2022-10-13T06:29	10	3	0.2	3	3	375	0.3	374	376	11.9	96.9
2022-10-13T06:30	10	3	0.1	3	3	375	0.3	374	375	11.9	96.9
2022-10-13T06:31	10	3	0.1	3	3	375	0.3	374	375	11.9	96.9
2022-10-13T06:32	10	3	0.2	3	4	375	0.2	375	376	11.9	96.9
2022-10-13T06:33	10	3	0.2	3	4	375	0.3	374	376	11.9	96.9
2022-10-13T06:34	10	4	0.2	3	4	375	0.2	375	375	12.0	96.8
2022-10-13T06:35	10	4	0.2	4	4	375	0.2	375	376	12.0	96.8
2022-10-13T06:36	10	4	0.1	4	5	375	0.3	375	376	11.9	96.7
2022-10-13T06:37	10	4	0.1	4	4	376	0.2	375	376	11.9	96.7
2022-10-13T06:38	10	4	0.2	4	5	375	0.3	375	376	11.9	96.7
2022-10-13T06:39	10	5	0.1	5	5	376	0.2	375	376	11.9	96.8
2022-10-13T06:40	10	5	0.2	5	5	375	0.2	375	376	11.9	96.7
2022-10-13T06:41	10	5	0.2	5	6	375	0.3	375	376	11.9	96.7
2022-10-13T06:42	10	5	0.1	5	6	376	0.2	375	376	11.9	96.8
2022-10-13T06:43	10	6	0.2	5	6	376	0.3	375	376	11.9	96.9
2022-10-13T06:44	10	6	0.2	6	7	376	0.3	375	376	11.9	97.0
2022-10-13T06:45	10	6	0.2	6	7	376	0.2	375	376	11.9	97.1
2022-10-13T06:46	10	7	0.2	6	7	376	0.2	375	376	11.9	97.1
2022-10-13T06:47	10	7	0.2	7	8	376	0.2	376	377	11.9	97.1
2022-10-13T06:48	10	8	0.2	7	8	377	0.3	376	377	11.9	97.1
2022-10-13T06:49	10	8	0.2	8	9	377	0.2	376	377	11.9	97.0
2022-10-13T06:50	10	9	0.3	8	10	377	0.2	376	377	12.0	96.8
2022-10-13T06:51	10	10	0.3	9	10	377	0.2	376	377	12.0	96.7
2022-10-13T06:52	10	10	0.2	10	11	377	0.2	376	377	12.0	96.5
2022-10-13T06:53	10	11	0.2	10	11	377	0.3	377	378	12.0	96.5
2022-10-13T06:54	10	12	0.2	11	12	377	0.2	377	378	12.1	96.5
2022-10-13T06:55	10	12	0.3	12	13	378	0.3	377	378	12.1	96.4
2022-10-13T06:56	10	13	0.2	12	13	378	0.2	378	378	12.1	96.4
2022-10-13T06:57	10	13	0.2	13	14	378	0.3	377	379	12.1	96.5
2022-10-13T06:58	10	13	0.1	13	14	378	0.3	377	379	12.2	96.6
2022-10-13T06:59	10	13	0.1	13	14	379	0.2	378	380	12.2	96.7
2022-10-13T07:00	10	13	0.1	13	14	379	0.3	378	380	12.2	96.7
2022-10-13T07:01	10	13	0.1	13	14	379	0.2	379	380	12.3	96.6
2022-10-13T07:02	10	13	0.2	13	14	379	0.2	379	380	12.3	96.4
2022-10-13T07:03	10	14	0.2	13	14	380	0.2	379	380	12.4	96.3
2022-10-13T07:04	10	14	0.1	13	14	380	0.3	380	381	12.4	96.1
2022-10-13T07:05	10	14	0.2	13	14	380	0.3	380	381	12.4	96.1
2022-10-13T07:06	10	14	0.1	13	14	380	0.1	380	381	12.5	95.9
2022-10-13T07:07	10	14	0.1	13	14	381	0.2	381	381	12.6	95.7
2022-10-13T07:08	10	14	0.3	14	15	381	0.2	380	382	12.6	95.5
2022-10-13T07:09	10	15	0.3	14	16	381	0.3	380	382	12.6	94.9
2022-10-13T07:10	10	16	0.2	15	16	381	0.2	381	382	12.7	94.2
2022-10-13T07:11	10	17	0.2	16	17	381	0.2	381	382	12.7	93.6
2022-10-13T07:12	10	17	0.1	17	17	382	0.2	381	382	12.8	93.3
2022-10-13T07:13	10	17	0.2	17	18	382	0.2	381	382	12.8	92.8
2022-10-13T07:14	10	18	0.2	17	18	382	0.2	382	382	12.8	93.2
2022-10-13T07:15	10	18	0.2	17	18	382	0.2	381	382	12.8	93.2
2022-10-13T07:16	10	17	0.2	17	17	382	0.3	381	382	12.8	92.6
2022-10-13T07:17	10	17	0.1	16	17	382	0.3	381	383	12.8	92.4
2022-10-13T07:18	10	16	0.1	16	17	382	0.2	381	382	12.8	92.5
2022-10-13T07:19	10	16	0.1	16	17	382	0.2	381	382	12.8	92.8
2022-10-13T07:20	10	16	0.3	15	17	382	0.3	382	383	12.8	92.8
2022-10-13T07:21	10	15	0.3	14	16	382	0.3	382	383	12.9	92.8
2022-10-13T07:22	10	14	0.3	13	14	382	0.3	382	383	12.8	92.4
2022-10-13T07:23	10	13	0.1	13	14	382	0.2	382	383	12.9	92.2
2022-10-13T07:24	10	14	0.2	13	14	382	0.3	381	382	12.9	92.3
2022-10-13T07:25	10	15	0.4	14	15	382	0.3	381	382	12.9	91.9
2022-10-13T07:26	10	16	0.4	15	17	381	0.3	381	382	12.8	92.3
2022-10-13T07:27	10	17	0.4	17	18	381	0.2	381	382	12.7	92.9
2022-10-13T07:28	10	18	0.3	18	19	381	0.3	380	381	12.6	93.3
2022-10-13T07:29	10	19	0.1	19	19	381	0.3	380	381	12.5	93.8
2022-10-13T07:30	10	19	0.3	18	19	380	0.3	380	381	12.4	94.1
2022-10-13T07:31	10	18	0.5	17	18	380	0.7	378	381	12.4	94.2
2022-10-13T07:32	10	16	0.5	15	17	380	0.3	380	381	12.4	94.4
2022-10-13T07:33	10	14	0.3	14	15	380	0.3	380	381	12.4	94.4
2022-10-13T07:34	10	14	0.2	13	14	380	0.4	379	381	12.4	94.4
2022-10-13T07:35	10	13	0.1	13	13	380	0.6	379	381	12.4	94.3
2022-10-13T07:36	10	13	0.1	13	14	380	0.5	379	381	12.4	94.3
2022-10-13T07:37	10	14	0.2	13	14	380	0.3	380	381	12.4	94.5
2022-10-13T07:38	10	15	0.2	14	15	380	0.5	379	381	12.4	94.6
2022-10-13T07:39	10	15	0.2	15	15	380	0.5	379	381	12.4	94.7
2022-10-13T07:40	10	16	0.1	15	16	380	0.4	380	381	12.4	94.8
2022-10-13T07:41	10	16	0.2	16	16	380	0.8	379	381	12.4	95.0
2022-10-13T07:42	10	17	0.2	16	17	381	0.4	379	381	12.3	94.9
2022-10-13T07:43	10	18	0.3	17	18	380	0.3	379	381	12.3	94.6
2022-10-13T07:44	10	19	0.4	18	19	380	1.1	378	382	12.3	94.5
2022-10-13T07:45	10	20	0.5	19	21	381	0.6	380	382	12.4	94.6
2022-10-13T07:46	10	22	0.6	21	23	381	0.3	380	382	12.4	94.5
2022-10-13T07:47	10	24	0.6	23	25	382	0.4	381	383	12.5	94.3
2022-10-13T07:48	10	26	0.4	25	27	382	0.4	382	383	12.5	94.2
2022-10-13T07:49	10	27	0.3	27	28	383	0.2	382	383	12.6	94.3
2022-10-13T07:50	10	28	0.2	28	28	383	0.3	383	384	12.6	94.3
2022-10-13T07:51	10	29	0.2	28	29	384	0.2	383	384	12.7	94.5
2022-10-13T07:52	10	29	0.2	29	29	384	0.3	384	385	12.7	94.7
2022-10-13T07:53	10	30	0.1	29	30	385	0.2	384	385	12.7	94.9
2022-10-13T07:54	10	29	0.3	29	30	385	0.2	385	386	12.8	94.8
2022-10-13T07:55	10	28	0.4	27	29	386	0.2	385	386	12.8	94.7
2022-10-13T07:56	10	27	0.4	26	27	386	0.2	385	386	12.9	94.7
2022-10-13T07:57	10	25	0.2	25	26	386	0.2	385	386	12.9	94.7
2022-10-13T07:58	10	25	0.2	25	25	386	0.2	385	386	12.8	94.6
2022-10-13T07:59	10	24	0.2	24	25	386	0.5	385	387	12.8	94.6
2022-10-13T08:00	10	24	0.2	23	24	385	0.3	385	386	12.7	94.5
2022-10-13T08:01	10	23	0.1	23	23	385	0.4	384	386	12.7	94.5
2022-10-13T08:02	10	24	0.2	23	24	385	0.2	384	386	12.7	94.3
2022-10-13T08:03	10	25	0.3	24	25	385	0.4	384	386	12.8	94.2
2022-10-13T08:04	10	26	0.4	25	28	385	0.3	384	386	12.8	93.9
2022-10-13T08:05	10	27	0.3	26	27	385	0.2	385	385	12.8	93.4
2022-10-13T08:06	10	27	0.2	27	28	385	0.3	384	386	12.9	93.2
2022-10-13T08:07	10	28	0.2	28	28	385	0.2	385	386	12.9	92.9
2022-10-13T08:08	10	29	0.2	28	29	386	0.3	385	386	13.0	93.0
2022-10-13T08:09	10	29	0.2	29	30	387	0.4	385	387	13.1	92.9
2022-10-13T08:10	10	30	0.2	29	30	387	0.3	386	387	13.0	92.4
2022-10-13T08:11	10	31	0.2	30	31	387	0.3	386	388	13.0	91.9
2022-10-13T08:12	10	31	0.3	30	31	387	0.3	387	388	13.1	91.7
2022-10-13T08:13	10	30	0.3	30	31	388	0.4	387	389	13.1	91.8
2022-10-13T08:14	10	29	0.2	29	30	388	0.2	387	388	13.1	91.0
2022-10-13T08:15	10	29	0.1	29	29	388	0.2	387	388	13.1	90.8
2022-10-13T08:16	10	30	0.3	29	30	388	0.3	387	388	13.2	91.0
2022-10-13T08:17	10	31	0.6	30	32	388	0.5	387	389	13.3	91.3
2022-10-13T08:18	10	33	0.6	32	35	388	0.2	388	389	13.3	91.3
2022-10-13T08:19	10	35	0.5	35	36	388	0.2	388	389	13.3	91.0
2022-10-13T08:20	10	36	0.2	36	37	389	0.3	388	389	13.4	91.6
2022-10-13T08:21	10	36	0.2	36	37	389	0.9	387	390	13.3	90.9
2022-10-13T08:22	10	36	0.2	35	36	389	0.4	388	390	13.4	90.9
2022-10-13T08:23	10	36	0.1	35	36	389	0.3	388	390	13.4	90.5
2022-10-13T08:24	10	36	0.2	36	37	389	0.4	388	390	13.3	90.5
2022-10-13T08:25	10	37	0.2	36	37	389	0.2	388	389	13.3	90.0
2022-10-13T08:26	10	38	0.2	37	38	389	0.4	388	390	13.3	90.3
2022-10-13T08:27	10	38	0.1	37	38	389	0.2	388	389	13.3	89.9
2022-10-13T08:28	10	38	0.1	38	38	389	0.2	388	389	13.3	89.7
2022-10-13T08:29	10	38	0.3	38	39	389	0.2	388	389	13.3	89.6
2022-10-13T08:30	10	39	0.1	39	39	389	0.2	388	389	13.3	89.7
2022-10-13T08:31	10	38	0.2	38	39	389	0.3	389	390	13.3	89.9
2022-10-13T08:32	10	38	0.2	37	38	390	0.3	389	390	13.3	90.2
2022-10-13T08:33	10	37	0.1	37	37	390	0.2	389	390	13.3	89.6
2022-10-13T08:34	10	37	0.3	37	38	390	0.4	389	391	13.4	89.4
2022-10-13T08:35	10	39	0.5	38	39	391	0.5	390	392	13.5	89.5
2022-10-13T08:36	10	41	0.6	39	42	391	0.2	390	391	13.5	89.9
2022-10-13T08:37	10	43	0.6	41	44	391	0.2	391	391	13.4	89.8
2022-10-13T08:38	10	44	0.3	43	45	391	0.2	391	392	13.4	89.5
2022-10-13T08:39	10	45	0.6	44	47	392	0.7	390	393	13.4	89.4
2022-10-13T08:40	10	48	0.7	47	49	393	0.5	391	393	13.5	89.6
2022-10-13T08:41	10	49	0.5	48	50	393	0.2	392	393	13.5	89.4
2022-10-13T08:42	10	49	0.3	48	49	393	0.3	392	393	13.6	90.0
2022-10-13T08:43	10	49	0.3	48	49	393	0.3	392	394	13.6	89.3
2022-10-13T08:44	10	49	0.3	49	50	393	0.2	392	393	13.5	89.0
2022-10-13T08:45	10	50	0.4	50	51	393	0.3	392	393	13.5	88.8
2022-10-13T08:46	10	51	0.8	50	53	393	0.4	393	394	13.6	88.9
2022-10-13T08:47	10	52	1.1	51	54	394	0.2	393	394	13.6	88.0
2022-10-13T08:48	10	51	0.1	51	51	394	0.4	393	395	13.8	88.6
2022-10-13T08:49	10	51	0.4	51	52	395	0.3	394	395	13.8	87.8
2022-10-13T08:50	10	53	0.7	52	55	395	0.4	394	396	13.9	88.8
2022-10-13T08:51	10	57	1.7	55	60	396	1.0	394	397	13.8	88.2
2022-10-13T08:52	10	60	0.3	59	60	396	0.3	396	397	13.9	88.5
2022-10-13T08:53	10	61	0.6	60	62	397	0.2	396	397	13.7	87.8
2022-10-13T08:54	10	63	0.4	62	64	398	0.3	397	398	13.8	87.7
2022-10-13T08:55	10	65	1.1	63	67	398	0.2	398	399	13.8	87.6
2022-10-13T08:56	10	65	1.0	63	67	399	0.3	398	399	13.9	87.7
2022-10-13T08:57	10	61	2.7	56	65	399	0.2	398	399	14.0	87.9
2022-10-13T08:58	10	53	1.8	50	56	398	0.6	396	399	13.9	88.3
2022-10-13T08:59	10	48	1.2	46	50	396	0.8	395	398	13.8	88.6
2022-10-13T09:00	10	45	0.7	43	46	395	0.5	394	396	13.8	88.6
2022-10-13T09:01	10	43	0.5	42	43	395	0.2	394	395	13.8	89.0
2022-10-13T09:02	10	41	0.3	41	42	395	0.3	394	395	13.9	89.1
2022-10-13T09:03	10	41	0.2	40	41	394	0.3	394	395	13.9	89.1
2022-10-13T09:04	10	40	0.2	39	40	394	0.2	394	395	13.9	89.5
2022-10-13T09:05	10	40	0.1	39	40	395	0.3	394	395	14.1	89.9
2022-10-13T09:06	10	39	0.2	39	40	394	0.2	394	395	14.2	89.8
2022-10-13T09:07	10	38	0.5	37	39	394	0.3	393	394	14.1	88.8
2022-10-13T09:08	10	36	0.5	35	37	394	0.2	393	395	14.1	88.5
2022-10-13T09:09	10	35	0.4	34	36	394	0.3	393	394	14.2	88.2
2022-10-13T09:10	10	34	0.3	33	34	393	0.6	392	395	14.2	88.4
2022-10-13T09:11	10	33	0.2	33	33	393	0.3	392	393	14.2	87.5
2022-10-13T09:12	10	33	0.2	32	33	392	0.4	391	393	14.2	87.3
2022-10-13T09:13	10	34	0.5	33	35	392	0.3	392	393	14.2	87.3
2022-10-13T09:14	10	36	0.8	35	37	393	0.3	392	394	14.2	87.4
2022-10-13T09:15	10	39	0.9	37	40	394	0.4	393	395	14.3	88.0
2022-10-13T09:16	10	41	0.9	40	43	394	0.3	394	395	14.4	88.7
2022-10-13T09:17	10	44	0.8	43	45	395	0.3	394	396	14.3	88.3
2022-10-13T09:18	10	47	0.8	45	48	396	0.3	395	397	14.3	88.0
2022-10-13T09:19	10	49	0.7	48	50	397	0.4	396	398	14.3	87.2
2022-10-13T09:20	10	51	0.6	50	52	397	0.4	396	398	14.4	87.8
2022-10-13T09:21	10	52	0.2	52	53	398	0.3	397	398	14.4	88.1
2022-10-13T09:22	10	51	0.5	50	52	398	0.3	397	399	14.3	88.0
2022-10-13T09:23	10	50	0.2	50	51	398	0.2	397	398	14.3	88.4
2022-10-13T09:24	10	50	0.1	50	50	398	0.2	397	398	14.3	87.9
2022-10-13T09:25	10	50	0.1	50	50	398	0.3	397	399	14.4	87.4
2022-10-13T09:26	10	49	0.2	49	50	398	0.2	398	399	14.5	86.5
2022-10-13T09:27	10	48	0.4	48	49	398	0.4	397	399	14.6	86.1
2022-10-13T09:28	10	47	0.4	46	48	398	0.3	397	399	14.6	86.3
2022-10-13T09:29	10	46	0.3	46	47	398	1.0	395	399	14.6	86.3
2022-10-13T09:30	10	45	0.2	45	46	397	0.6	396	398	14.5	86.2
2022-10-13T09:31	10	44	0.3	44	45	397	0.3	396	397	14.5	85.8
2022-10-13T09:32	10	43	0.4	42	44	396	0.2	396	397	14.5	84.8
2022-10-13T09:33	10	42	0.4	41	43	396	0.3	396	397	14.6	84.6
2022-10-13T09:34	10	40	0.5	39	41	396	0.3	396	397	14.6	84.1
2022-10-13T09:35	10	39	0.4	38	39	396	0.2	395	396	14.6	84.6
2022-10-13T09:36	10	37	0.4	36	38	396	0.3	395	396	14.6	84.9
2022-10-13T09:37	10	36	0.4	35	36	395	0.6	394	396	14.6	85.9
2022-10-13T09:38	10	34	0.5	33	35	395	0.8	393	396	14.6	85.6
2022-10-13T09:39	10	33	0.4	32	33	395	0.2	394	395	14.6	83.6
2022-10-13T09:40	10	32	0.2	32	32	394	0.4	393	395	14.5	83.0
2022-10-13T09:41	10	32	0.1	31	32	394	0.8	392	395	14.5	82.8
2022-10-13T09:42	10	31	0.1	31	32	393	0.5	392	393	14.5	81.3
2022-10-13T09:43	10	31	0.2	30	31	393	0.3	392	394	14.4	80.9
2022-10-13T09:44	10	30	0.1	30	31	393	0.3	393	394	14.4	82.2
2022-10-13T09:45	10	31	0.2	30	31	393	0.2	393	394	14.6	83.3
2022-10-13T09:46	10	32	0.3	31	32	393	0.6	392	394	14.5	82.3
2022-10-13T09:47	10	32	0.1	32	32	393	0.6	392	394	14.5	81.1
2022-10-13T09:48	10	32	0.1	32	32	393	0.3	392	394	14.5	81.6
2022-10-13T09:49	10	32	0.2	31	32	394	0.4	393	395	14.5	82.5
2022-10-13T09:50	10	31	0.1	31	32	393	0.5	392	394	14.5	81.6
2022-10-13T09:51	10	31	0.1	31	31	393	0.4	392	393	14.5	81.3
2022-10-13T09:52	10	31	0.1	31	31	393	0.4	392	394	14.5	81.5
2022-10-13T09:53	10	31	0.1	31	31	393	0.3	392	393	14.5	81.3
2022-10-13T09:54	10	30	0.1	30	31	393	0.3	393	394	14.5	81.2
2022-10-13T09:55	10	30	0.2	29	30	393	0.3	393	394	14.5	81.2
2022-10-13T09:56	10	29	0.3	28	29	393	0.2	392	393	14.5	81.2
2022-10-13T09:57	10	28	0.4	27	28	393	0.2	392	393	14.5	81.3
2022-10-13T09:58	10	26	0.5	25	27	393	0.4	392	394	14.6	82.1
2022-10-13T09:59	10	25	0.3	24	25	393	0.3	392	393	14.6	82.5
2022-10-13T10:00	10	24	0.1	24	24	392	0.2	391	392	14.6	81.8
2022-10-13T10:01	10	25	0.3	24	25	392	0.2	391	392	14.6	82.0
2022-10-13T10:02	10	26	0.5	25	27	392	0.3	391	393	14.6	81.9
2022-10-13T10:03	10	28	0.7	27	29	392	0.3	391	392	14.6	81.5
2022-10-13T10:04	10	31	0.9	29	32	392	0.4	392	393	14.6	82.3
2022-10-13T10:05	10	34	1.0	32	36	393	0.2	392	393	14.6	82.8
2022-10-13T10:06	10	37	0.7	36	38	393	0.3	392	394	14.6	82.3
2022-10-13T10:07	10	39	0.4	38	39	394	0.3	393	394	14.6	82.0
2022-10-13T10:08	10	40	0.1	39	40	395	0.4	394	395	14.7	82.4
2022-10-13T10:09	10	39	0.4	38	40	395	0.3	395	396	14.7	83.0
2022-10-13T10:10	10	37	0.6	36	38	395	0.2	395	395	14.7	81.9
2022-10-13T10:11	10	34	0.8	33	36	395	0.2	395	396	14.8	81.7
2022-10-13T10:12	10	33	0.3	32	33	395	0.3	394	395	14.8	82.0
2022-10-13T10:13	10	32	0.1	32	32	395	0.3	394	395	14.8	82.9
2022-10-13T10:14	10	32	0.1	32	32	395	0.2	394	395	14.8	81.7
2022-10-13T10:15	10	32	0.3	32	33	395	0.2	394	395	14.8	81.5
2022-10-13T10:16	10	33	0.2	33	34	395	0.2	394	395	14.8	81.3
2022-10-13T10:17	10	34	0.3	34	35	395	0.2	394	395	14.8	81.3
2022-10-13T10:18	10	35	0.3	34	36	395	0.2	395	396	14.8	81.4
2022-10-13T10:19	10	36	0.2	35	36	395	0.2	395	396	14.8	82.3
2022-10-13T10:20	10	36	0.1	36	36	396	0.3	395	396	14.8	82.3
2022-10-13T10:21	10	36	0.1	35	36	395	0.2	395	396	14.8	81.3
2022-10-13T10:22	10	35	0.1	35	35	395	0.4	394	396	14.8	81.5
2022-10-13T10:23	10	35	0.2	34	35	395	0.2	395	396	14.8	81.4
2022-10-13T10:24	10	34	0.2	34	35	395	0.2	395	396	14.8	81.4
2022-10-13T10:25	10	34	0.1	34	34	396	0.2	395	396	14.9	80.9
2022-10-13T10:26	10	34	0.1	34	34	395	0.3	395	396	15.0	80.4
2022-10-13T10:27	10	34	0.2	34	34	396	0.3	395	396	15.0	80.7
2022-10-13T10:28	10	34	0.1	33	34	396	0.2	395	396	15.0	80.6
2022-10-13T10:29	10	33	0.2	33	33	396	0.3	395	397	15.0	81.6
2022-10-13T10:30	10	32	0.2	32	33	396	0.2	395	396	14.9	81.0
2022-10-13T10:31	10	32	0.1	32	32	396	0.2	396	397	15.0	80.8
2022-10-13T10:32	10	33	0.3	32	33	396	0.2	396	397	15.1	80.9
2022-10-13T10:33	10	34	0.6	33	35	396	0.2	395	396	15.0	80.0
2022-10-13T10:34	10	37	0.8	35	38	396	0.2	396	397	15.0	80.1
2022-10-13T10:35	10	39	0.8	38	41	396	0.2	396	397	15.0	80.4
2022-10-13T10:36	10	41	0.6	40	42	398	0.3	397	398	15.0	80.6
2022-10-13T10:37	10	43	0.2	42	43	398	0.2	398	399	15.1	80.4
2022-10-13T10:38	10	43	0.3	42	43	399	0.3	398	399	15.1	80.1
2022-10-13T10:39	10	41	0.4	41	42	399	0.2	399	399	15.1	80.2
2022-10-13T10:40	10	40	0.5	39	41	399	0.3	398	400	15.2	79.5
2022-10-13T10:41	10	38	0.7	37	39	399	0.4	398	399	15.1	79.0
2022-10-13T10:42	10	35	0.8	34	37	398	0.4	398	400	15.1	80.1
2022-10-13T10:43	10	33	0.5	33	34	398	0.4	397	399	15.1	80.0
2022-10-13T10:44	10	32	0.4	31	33	397	0.2	397	398	15.1	79.8
2022-10-13T10:45	10	31	0.2	31	31	397	0.3	396	398	15.1	79.5
2022-10-13T10:46	10	31	0.2	30	31	396	1.2	395	398	15.1	79.9
2022-10-13T10:47	10	31	0.3	31	32	396	0.6	395	397	15.1	79.2
2022-10-13T10:48	10	33	0.4	32	33	396	0.5	395	397	15.1	78.7
2022-10-13T10:49	10	34	0.7	33	36	397	0.4	396	398	15.2	78.7
2022-10-13T10:50	10	37	0.8	36	39	398	0.3	397	398	15.2	80.0
2022-10-13T10:51	10	40	0.6	38	40	398	0.4	397	399	15.1	80.2
2022-10-13T10:52	10	41	0.5	41	42	398	0.2	398	398	15.1	79.4
2022-10-13T10:53	10	43	0.4	42	43	398	0.3	398	399	15.1	79.6
2022-10-13T10:54	10	43	0.1	43	43	398	0.3	398	399	15.1	79.0
2022-10-13T10:55	10	43	0.6	43	47	398	0.3	398	399	15.1	79.0
2022-10-13T10:56	10	42	0.3	41	43	398	0.9	397	400	15.1	78.6
2022-10-13T10:57	10	41	0.3	40	42	398	0.9	396	399	15.1	78.2
2022-10-13T10:58	10	40	0.4	39	41	398	0.3	398	399	15.2	78.3
2022-10-13T10:59	10	38	0.3	38	39	398	0.2	398	399	15.2	78.6
2022-10-13T11:00	10	37	0.4	37	38	399	0.6	397	400	15.2	79.3
2022-10-13T11:01	10	36	0.3	36	37	398	0.3	398	399	15.1	78.7
2022-10-13T11:02	10	36	0.2	35	36	398	0.3	398	399	15.2	78.8
2022-10-13T11:03	10	35	0.1	35	36	398	0.2	398	399	15.3	78.9
2022-10-13T11:04	10	36	0.4	35	37	398	0.2	398	399	15.3	78.2
2022-10-13T11:05	10	38	0.5	37	38	398	0.4	398	399	15.3	78.3
2022-10-13T11:06	10	39	0.5	38	40	399	0.3	398	399	15.3	78.3
2022-10-13T11:07	10	40	0.3	40	41	400	0.3	399	400	15.4	79.8
2022-10-13T11:08	10	41	0.3	41	42	400	0.2	400	400	15.4	79.4
2022-10-13T11:09	10	43	0.4	42	43	400	0.4	399	401	15.4	79.4
2022-10-13T11:10	10	44	0.7	43	46	400	0.2	400	401	15.4	79.2
2022-10-13T11:11	10	47	0.9	46	49	401	0.2	400	401	15.4	78.5
2022-10-13T11:12	10	50	0.8	49	51	401	0.2	400	401	15.4	78.6
2022-10-13T11:13	10	53	0.7	52	54	402	0.4	401	403	15.5	78.8
2022-10-13T11:14	10	55	0.8	54	57	402	0.2	402	403	15.6	79.1
2022-10-13T11:15	10	58	0.7	57	59	403	0.3	403	404	15.5	79.2
2022-10-13T11:16	10	60	0.6	59	61	404	0.2	403	404	15.6	80.4
2022-10-13T11:17	10	63	0.6	62	63	404	0.2	404	405	15.6	79.6
2022-10-13T11:18	10	64	0.2	63	64	405	0.2	404	405	15.7	78.9
2022-10-13T11:19	10	64	0.1	64	65	405	0.2	405	406	15.7	78.6
2022-10-13T11:20	10	64	0.1	64	65	405	0.2	405	406	15.7	78.2
2022-10-13T11:21	10	65	0.2	64	65	406	0.3	406	407	15.7	78.3
2022-10-13T11:22	10	66	0.3	65	67	407	0.2	406	407	15.9	78.9
2022-10-13T11:23	10	66	0.1	66	66	407	0.2	407	407	15.9	77.9
2022-10-13T11:24	10	66	0.1	66	67	407	0.2	406	408	15.9	78.1
2022-10-13T11:25	10	67	0.3	66	67	407	0.2	407	408	15.9	76.8
2022-10-13T11:26	10	68	0.5	67	69	408	0.3	407	408	15.9	77.5
2022-10-13T11:27	10	70	0.5	69	71	408	0.4	407	409	15.8	77.4
2022-10-13T11:28	10	72	0.4	71	72	407	0.6	406	409	15.7	77.5
2022-10-13T11:29	10	73	0.2	72	73	407	0.4	406	408	15.6	77.1
2022-10-13T11:30	10	73	0.2	73	73	408	0.5	407	408	15.8	76.6
2022-10-13T11:31	10	74	0.1	73	74	409	0.6	407	409	15.9	77.2
2022-10-13T11:32	10	74	0.3	73	75	408	0.4	407	409	15.8	77.4
2022-10-13T11:33	10	75	0.2	74	75	408	0.6	407	409	15.8	77.5
2022-10-13T11:34	10	74	0.1	74	75	408	0.6	407	410	15.8	77.8
2022-10-13T11:35	10	74	0.2	74	74	409	0.5	408	409	15.7	77.6
2022-10-13T11:36	10	74	0.2	73	74	409	0.4	408	410	15.9	78.1
2022-10-13T11:37	10	73	0.2	73	73	409	0.5	408	410	15.8	78.2
2022-10-13T11:38	10	75	2.7	72	82	409	0.5	408	410	15.8	78.3
2022-10-13T11:39	10	71	0.6	70	72	409	0.6	408	410	15.9	79.0
2022-10-13T11:40	10	69	0.5	68	70	409	0.8	407	411	16.0	80.0
2022-10-13T11:41	10	67	0.6	66	69	410	0.6	408	410	15.9	78.8
2022-10-13T11:42	10	65	0.6	64	66	409	0.6	409	411	15.9	78.9
2022-10-13T11:43	10	63	0.7	62	64	408	0.3	407	408	15.8	77.5
2022-10-13T11:44	10	60	0.9	59	62	408	0.4	407	409	15.9	78.0
2022-10-13T11:45	10	57	1.0	55	59	408	0.5	407	409	16.0	78.4
2022-10-13T11:46	10	54	0.9	52	55	407	0.5	407	408	15.9	78.0
2022-10-13T11:47	10	51	0.8	50	53	407	0.3	406	407	15.9	78.5
2022-10-13T11:48	10	49	0.5	48	50	406	0.3	405	407	16.0	77.9
2022-10-13T11:49	10	48	0.3	47	48	406	0.2	405	406	16.0	78.3
2022-10-13T11:50	10	47	0.2	46	47	405	0.2	405	406	16.0	78.2
2022-10-13T11:51	10	46	0.1	46	46	405	0.5	404	406	16.0	79.5
2022-10-13T11:52	10	46	0.1	46	46	405	0.3	404	406	16.0	81.1
2022-10-13T11:53	10	46	0.2	45	46	405	0.4	404	406	15.9	79.5
2022-10-13T11:54	10	45	0.3	44	46	404	0.4	404	405	15.7	80.3
2022-10-13T11:55	10	44	0.2	44	45	404	0.5	403	405	15.7	80.7
2022-10-13T11:56	10	44	0.1	44	44	404	0.6	402	405	15.7	81.3
2022-10-13T11:57	10	44	0.1	44	44	404	0.3	403	404	15.7	80.7
2022-10-13T11:58	10	44	0.1	44	44	403	0.2	403	404	15.7	80.3
2022-10-13T11:59	10	44	0.3	44	45	403	0.3	402	404	15.7	80.4
2022-10-13T12:00	10	46	0.7	45	47	404	0.6	402	405	15.8	80.2
2022-10-13T12:01	10	49	1.1	47	51	404	0.4	403	405	15.8	80.2
2022-10-13T12:02	10	53	1.0	51	55	405	0.6	404	406	15.8	79.7
2022-10-13T12:03	10	56	0.4	55	56	406	0.4	405	407	15.8	79.7
2022-10-13T12:04	10	56	0.1	56	57	407	0.2	406	407	15.9	80.4
2022-10-13T12:05	10	56	0.2	55	56	407	0.3	406	407	15.8	79.7
2022-10-13T12:06	10	55	0.2	55	55	407	0.2	407	408	15.9	80.5
2022-10-13T12:07	10	54	0.4	53	55	407	0.3	407	408	15.9	80.1
2022-10-13T12:08	10	51	1.1	50	53	407	0.5	406	408	15.9	80.1
2022-10-13T12:09	10	52	1.7	49	54	407	0.3	406	407	15.8	79.9
2022-10-13T12:10	10	47	4.3	42	55	406	0.4	405	407	15.9	79.6
2022-10-13T12:11	10	41	0.4	41	42	405	0.3	405	406	15.9	79.5
2022-10-13T12:12	10	41	0.1	40	41	405	0.5	404	406	15.9	79.8
2022-10-13T12:13	10	41	0.1	40	41	405	0.9	403	407	15.9	80.1
2022-10-13T12:14	10	41	0.1	41	41	405	0.3	404	405	15.9	80.8
2022-10-13T12:15	10	41	0.2	40	41	404	0.4	403	405	16.0	81.8
2022-10-13T12:16	10	40	0.4	39	41	403	0.4	402	404	15.8	81.1
2022-10-13T12:17	10	38	0.5	37	39	403	0.2	402	403	15.9	81.4
2022-10-13T12:18	10	37	0.5	36	37	402	0.5	401	403	15.8	81.4
2022-10-13T12:19	10	35	0.4	34	36	401	0.2	401	402	15.8	81.6
2022-10-13T12:20	10	34	0.2	34	35	400	0.6	399	401	15.8	81.6
2022-10-13T12:21	10	34	0.1	33	34	399	0.4	398	400	15.8	81.6
2022-10-13T12:22	10	34	0.3	34	34	399	0.2	399	400	15.8	81.5
2022-10-13T12:23	10	35	0.4	34	36	399	0.3	399	400	15.8	81.3
2022-10-13T12:24	10	36	0.4	36	37	400	0.3	400	401	15.8	81.6
2022-10-13T12:25	10	38	0.4	37	39	401	0.3	400	401	15.9	81.4
2022-10-13T12:26	10	39	0.2	38	39	401	0.5	400	402	15.8	81.0
2022-10-13T12:27	10	39	0.1	39	40	402	0.3	401	402	15.8	81.3
2022-10-13T12:28	10	39	0.3	38	39	402	0.3	401	402	15.8	81.1
2022-10-13T12:29	10	37	0.4	37	38	402	0.2	401	402	15.8	81.6
2022-10-13T12:30	10	36	0.6	34	37	401	0.3	400	402	15.8	81.0
2022-10-13T12:31	10	33	0.6	32	34	401	0.3	401	402	15.8	80.9
2022-10-13T12:32	10	32	0.3	31	32	401	0.2	400	402	15.9	80.8
2022-10-13T12:33	10	31	0.1	31	31	401	0.2	401	401	15.9	80.8
2022-10-13T12:34	10	32	0.3	31	32	400	0.2	400	401	16.0	80.4
2022-10-13T12:35	10	33	0.5	32	34	401	0.3	400	401	16.0	80.1
2022-10-13T12:36	10	35	0.8	34	37	400	0.3	400	401	16.0	80.4
2022-10-13T12:37	10	38	1.0	37	40	401	0.4	400	402	16.1	80.6
2022-10-13T12:38	10	42	1.1	40	44	401	1.2	399	403	16.0	81.3
2022-10-13T12:39	10	46	1.5	44	49	403	1.1	401	405	16.0	80.9
2022-10-13T12:40	10	52	2.1	49	56	405	0.7	404	406	16.1	81.1
2022-10-13T12:41	10	60	1.8	56	63	406	0.6	405	407	16.2	81.1
2022-10-13T12:42	10	67	1.8	63	69	407	0.6	406	408	16.2	80.2
2022-10-13T12:43	10	70	0.4	69	70	409	0.4	408	409	16.2	79.4
2022-10-13T12:44	10	72	0.5	70	72	410	0.3	409	410	16.3	79.3
2022-10-13T12:45	10	73	0.6	72	75	410	0.4	409	410	16.2	79.6
2022-10-13T12:46	10	71	1.5	69	75	410	0.3	409	410	16.2	79.4
2022-10-13T12:47	10	66	1.7	63	69	410	0.3	409	410	16.3	79.4
2022-10-13T12:48	10	59	2.3	55	63	409	0.8	408	410	16.4	79.8
2022-10-13T12:49	10	52	2.1	48	55	408	0.5	407	409	16.3	79.0
2022-10-13T12:50	10	45	1.6	43	48	407	0.5	406	408	16.3	79.3
2022-10-13T12:51	10	41	1.1	39	43	406	0.4	405	407	16.3	79.2
2022-10-13T12:52	10	37	0.8	36	39	405	0.4	404	406	16.3	80.7
2022-10-13T12:53	10	35	0.6	34	36	404	0.8	403	406	16.4	81.3
2022-10-13T12:54	10	33	0.3	33	34	404	0.3	403	405	16.3	80.8
2022-10-13T12:55	10	33	0.2	32	33	403	0.2	403	404	16.3	81.3
2022-10-13T12:56	10	32	0.1	32	33	403	0.3	403	404	16.2	81.3
2022-10-13T12:57	10	32	0.1	32	33	402	0.7	401	403	16.1	81.0
2022-10-13T12:58	10	32	0.2	32	33	402	0.7	400	403	16.0	80.9
2022-10-13T12:59	10	32	0.2	32	32	401	0.2	401	402	16.0	80.6
2022-10-13T13:00	10	31	0.2	31	32	401	0.4	400	402	16.0	80.8
2022-10-13T13:01	10	31	0.1	31	31	401	0.4	400	402	16.1	81.1
2022-10-13T13:02	10	31	0.1	31	32	400	0.3	400	401	16.0	80.2
2022-10-13T13:03	10	32	0.2	32	33	401	0.3	400	401	16.0	80.2
2022-10-13T13:04	10	33	0.1	32	33	401	0.3	400	401	16.1	81.1
2022-10-13T13:05	10	33	0.1	32	33	401	0.3	400	402	16.1	80.4
2022-10-13T13:06	10	32	0.3	32	33	401	0.3	400	402	16.1	80.0
2022-10-13T13:07	10	31	0.3	31	32	401	0.3	401	402	16.1	80.1
2022-10-13T13:08	10	30	0.5	29	31	401	0.2	401	402	16.1	80.3
2022-10-13T13:09	10	29	0.3	28	30	401	0.5	400	402	16.1	81.3
2022-10-13T13:10	10	29	0.1	29	29	401	0.3	400	401	16.1	80.4
2022-10-13T13:11	10	30	0.3	29	30	401	0.3	400	401	16.1	80.3
2022-10-13T13:12	10	31	0.4	30	31	401	0.5	400	402	16.2	80.3
2022-10-13T13:13	10	32	0.3	31	33	401	0.3	401	402	16.2	81.9
2022-10-13T13:14	10	33	0.2	32	34	401	0.2	401	402	16.2	81.1
2022-10-13T13:15	10	33	0.2	33	34	401	0.3	401	402	16.2	80.7
2022-10-13T13:16	10	33	0.1	33	34	401	0.4	401	402	16.1	80.4
2022-10-13T13:17	10	33	0.1	33	34	401	0.2	401	402	16.1	80.0
2022-10-13T13:18	10	34	0.2	33	34	401	0.6	399	402	16.1	80.4
2022-10-13T13:19	10	34	0.3	34	35	402	0.7	401	403	16.2	80.8
2022-10-13T13:20	10	36	0.4	35	37	402	0.4	401	403	16.1	80.3
2022-10-13T13:21	10	37	0.4	36	38	402	0.7	400	403	16.0	81.8
2022-10-13T13:22	10	38	0.3	38	39	401	0.3	400	402	15.9	84.2
2022-10-13T13:23	10	39	0.2	38	39	401	0.2	400	401	15.9	84.6
2022-10-13T13:24	10	39	0.1	39	40	401	0.2	401	401	15.9	84.7
2022-10-13T13:25	10	40	0.1	39	40	401	0.3	400	401	15.9	84.4
2022-10-13T13:26	10	40	0.1	40	40	400	0.3	399	401	15.8	84.0
2022-10-13T13:27	10	40	0.1	40	40	401	0.6	400	402	15.8	84.2
2022-10-13T13:28	10	41	0.2	40	41	401	0.6	400	403	15.9	84.9
2022-10-13T13:29	10	41	0.2	41	42	402	0.5	401	403	15.9	84.7
2022-10-13T13:30	10	41	0.2	41	42	402	0.4	401	403	16.0	84.7
2022-10-13T13:31	10	40	0.5	40	41	402	0.3	401	403	16.0	84.4
2022-10-13T13:32	10	38	0.6	38	40	401	0.3	401	402	15.9	84.0
2022-10-13T13:33	10	37	0.5	36	37	402	0.4	401	403	16.0	84.2
2022-10-13T13:34	10	35	0.5	34	36	402	0.3	401	403	16.0	84.1
2022-10-13T13:35	10	33	0.5	32	34	401	0.3	401	402	16.0	83.5
2022-10-13T13:36	10	31	0.5	31	32	401	0.5	400	402	16.1	84.2
2022-10-13T13:37	10	30	0.5	29	31	401	0.3	400	401	16.2	85.2
2022-10-13T13:38	10	29	0.3	28	29	400	0.3	399	401	16.1	84.6
2022-10-13T13:39	10	28	0.2	27	28	400	0.3	399	400	16.0	84.5
2022-10-13T13:40	10	27	0.1	27	28	399	0.4	398	400	16.0	84.9
2022-10-13T13:41	10	28	0.1	27	28	398	0.2	398	399	16.0	84.2
2022-10-13T13:42	10	28	0.2	28	29	399	0.3	398	399	15.9	84.1
2022-10-13T13:43	10	29	0.4	28	30	399	0.2	398	399	15.9	84.5
2022-10-13T13:44	10	31	0.5	30	32	399	0.2	398	399	15.9	85.2
2022-10-13T13:45	10	33	0.6	32	34	398	0.2	398	399	15.9	86.0
2022-10-13T13:46	10	35	0.6	34	36	398	0.2	398	399	15.8	85.6
2022-10-13T13:47	10	36	0.5	36	37	398	0.2	398	399	15.8	85.6
2022-10-13T13:48	10	38	0.4	37	39	399	0.5	398	400	15.8	85.5
2022-10-13T13:49	10	39	0.3	39	40	400	0.6	399	401	15.9	85.8
2022-10-13T13:50	10	40	0.2	40	41	400	0.4	400	401	15.9	85.6
2022-10-13T13:51	10	41	0.2	41	41	401	0.2	400	401	15.9	85.6
2022-10-13T13:52	10	41	0.1	41	42	401	0.2	400	401	16.0	85.9
2022-10-13T13:53	10	42	0.1	41	42	402	0.4	401	403	16.0	85.5
2022-10-13T13:54	10	42	0.1	41	42	402	0.3	402	403	16.1	85.8
2022-10-13T13:55	10	42	0.1	41	42	402	0.3	402	403	16.0	85.6
2022-10-13T13:56	10	41	0.2	41	42	402	0.2	401	402	15.9	85.0
2022-10-13T13:57	10	41	0.1	41	41	402	0.4	401	403	15.9	85.1
2022-10-13T13:58	10	41	0.1	41	41	402	0.2	402	403	15.9	84.9
2022-10-13T13:59	10	41	0.1	41	41	403	0.3	402	403	16.0	85.3
2022-10-13T14:00	10	41	0.1	41	41	403	0.4	402	404	16.0	85.4
2022-10-13T14:01	10	41	0.1	41	41	402	0.3	401	403	15.9	85.2
2022-10-13T14:02	10	41	0.1	40	41	402	0.2	402	402	16.0	85.2
2022-10-13T14:03	10	40	0.2	40	41	402	0.4	401	403	16.1	86.0
2022-10-13T14:04	10	41	0.3	40	41	403	0.4	402	403	16.1	85.6
2022-10-13T14:05	10	40	0.3	40	41	402	0.3	402	403	16.0	85.2
2022-10-13T14:06	10	39	0.6	38	40	402	0.3	401	403	15.9	84.6
2022-10-13T14:07	10	37	0.4	36	38	401	0.3	401	402	16.0	85.1
2022-10-13T14:08	10	36	0.4	35	36	401	0.3	401	402	16.0	85.4
2022-10-13T14:09	10	34	0.4	34	35	401	0.3	400	402	16.1	85.3
2022-10-13T14:10	10	33	0.3	33	34	401	0.3	400	401	16.1	85.3
2022-10-13T14:11	10	32	0.4	31	33	400	0.3	400	401	16.0	84.3
2022-10-13T14:12	10	31	0.2	30	31	400	0.5	399	401	16.0	84.7
2022-10-13T14:13	10	30	0.2	30	31	400	0.3	399	400	16.0	85.3
2022-10-13T14:14	10	30	0.2	29	30	400	0.3	399	400	16.0	85.1
2022-10-13T14:15	10	29	0.2	29	30	399	0.4	398	400	16.0	85.6
2022-10-13T14:16	10	28	0.4	27	29	399	0.3	398	399	15.9	85.7
2022-10-13T14:17	10	27	0.4	26	28	398	0.3	398	399	15.8	85.7
2022-10-13T14:18	10	25	0.4	24	26	398	0.2	398	399	15.8	85.8
2022-10-13T14:19	10	24	0.3	24	25	398	0.4	397	398	15.8	85.5
2022-10-13T14:20	10	23	0.2	23	24	397	0.3	396	398	15.8	85.4
2022-10-13T14:21	10	22	0.2	22	23	396	0.2	396	397	15.8	85.3
2022-10-13T14:22	10	22	0.2	22	22	396	0.2	395	396	15.8	85.5
2022-10-13T14:23	10	21	0.2	21	22	396	0.2	395	396	15.8	85.8
2022-10-13T14:24	10	21	0.1	21	21	396	0.2	396	397	15.9	86.0
2022-10-13T14:25	10	21	0.1	21	21	396	0.3	395	397	15.9	86.3
2022-10-13T14:26	10	21	0.1	21	21	396	0.3	396	397	15.9	85.8
2022-10-13T14:27	10	21	0.1	21	21	396	0.3	395	397	15.9	85.7
2022-10-13T14:28	10	21	0.2	21	21	396	0.3	396	397	15.9	85.7
2022-10-13T14:29	10	21	0.1	20	21	396	0.2	396	397	15.9	86.0
2022-10-13T14:30	10	21	0.1	21	21	396	0.2	395	396	15.8	86.2
2022-10-13T14:31	10	21	0.1	21	21	395	0.2	395	396	15.8	86.1
2022-10-13T14:32	10	21	0.1	21	21	396	0.2	395	396	15.8	85.6
2022-10-13T14:33	10	21	0.1	21	21	396	0.3	395	397	15.8	85.7
2022-10-13T14:34	10	21	0.1	21	21	396	0.2	396	397	15.8	86.1
2022-10-13T14:35	10	21	0.1	21	21	396	0.2	395	396	15.8	85.9
2022-10-13T14:36	10	21	0.1	21	21	395	0.2	395	396	15.8	85.9
2022-10-13T14:37	10	21	0.2	21	22	395	0.2	395	396	15.8	86.4
2022-10-13T14:38	10	22	0.3	22	23	395	0.2	394	395	15.8	86.2
2022-10-13T14:39	10	23	0.6	23	25	395	0.2	394	396	15.8	86.0
2022-10-13T14:40	10	25	0.5	24	26	395	0.4	394	396	15.8	86.1
2022-10-13T14:41	10	26	0.4	25	27	396	0.4	396	397	15.7	87.1
2022-10-13T14:42	10	28	0.4	27	28	397	0.4	396	397	15.7	87.3
2022-10-13T14:43	10	29	0.5	28	30	398	0.4	397	398	15.8	87.5
2022-10-13T14:44	10	30	0.3	30	31	398	0.2	397	398	15.8	87.2
2022-10-13T14:45	10	32	0.3	31	32	398	0.3	397	399	15.8	87.0
2022-10-13T14:46	10	33	0.3	32	33	398	0.2	398	399	15.7	86.1
2022-10-13T14:47	10	34	0.3	33	34	398	0.3	398	399	15.8	86.2
2022-10-13T14:48	10	35	0.3	34	35	399	0.3	398	399	15.8	86.4
2022-10-13T14:49	10	35	0.2	35	36	400	0.3	399	400	15.9	86.4
2022-10-13T14:50	10	36	0.1	36	36	400	0.2	399	400	15.8	85.7
2022-10-13T14:51	10	36	0.1	36	37	400	0.3	399	400	15.8	85.9
2022-10-13T14:52	10	36	0.2	36	36	399	0.2	399	400	15.8	85.8
2022-10-13T14:53	10	35	0.3	35	36	399	0.2	399	400	15.8	85.9
2022-10-13T14:54	10	34	0.4	33	35	399	0.3	399	400	15.8	85.9
2022-10-13T14:55	10	32	0.5	31	33	400	0.3	399	401	15.9	86.4
2022-10-13T14:56	10	30	0.7	29	31	400	0.3	399	401	15.9	86.5
2022-10-13T14:57	10	28	0.7	26	29	399	0.3	399	400	15.9	86.7
2022-10-13T14:58	10	25	0.7	24	27	399	0.3	398	399	15.9	85.8
2022-10-13T14:59	10	23	0.7	22	24	398	0.4	397	399	15.9	85.6
2022-10-13T15:00	10	20	0.6	20	22	398	0.4	397	399	15.9	85.3
2022-10-13T15:01	10	19	0.5	18	19	398	0.2	397	398	15.9	85.8
2022-10-13T15:02	10	17	0.5	17	18	397	0.4	396	398	15.9	86.0
2022-10-13T15:03	10	16	0.5	15	17	397	0.3	397	398	15.8	85.4
2022-10-13T15:04	10	14	0.4	13	15	396	0.3	396	397	15.8	85.5
2022-10-13T15:05	10	13	0.4	12	14	396	0.2	395	397	15.9	85.4
2022-10-13T15:06	10	12	0.3	11	12	396	0.2	395	396	15.9	85.2
2022-10-13T15:07	10	11	0.3	10	11	395	0.3	395	396	15.9	85.1
2022-10-13T15:08	10	10	0.2	9	10	395	0.2	394	395	15.9	85.3
2022-10-13T15:09	10	9	0.2	8	9	395	0.2	394	396	15.9	85.3
2022-10-13T15:10	10	8	0.2	8	9	395	0.2	394	395	15.8	85.5
2022-10-13T15:11	10	7	0.3	7	8	394	0.2	394	395	15.8	85.7
2022-10-13T15:12	10	6	0.3	6	7	394	0.2	394	395	15.8	85.7
2022-10-13T15:13	10	5	0.3	5	6	394	0.3	393	394	15.8	86.1
2022-10-13T15:14	10	5	0.2	4	5	394	0.3	393	394	15.8	86.4
2022-10-13T15:15	10	4	0.2	4	4	394	0.2	393	394	15.8	86.0
2022-10-13T15:16	10	3	0.2	3	4	393	0.3	392	394	15.8	85.0
2022-10-13T15:17	10	3	0.2	2	3	393	0.3	392	393	15.8	84.5
2022-10-13T15:18	10	2	0.2	2	3	392	0.3	391	393	15.9	84.3
2022-10-13T15:19	10	2	0.2	1	2	392	0.2	391	392	15.9	84.5
2022-10-13T15:20	10	1	0.2	1	2	391	0.2	391	392	15.8	84.6
2022-10-13T15:21	10	1	0.2	1	1	391	0.2	391	392	15.8	85.2
2022-10-13T15:22	10	0	0.1	0	1	391	0.2	390	391	15.9	85.2
2022-10-13T15:23	10	0	0.1	0	0	391	0.5	389	391	15.8	85.7
2022-10-13T15:24	10	0	0.1	0	0	390	0.4	389	391	15.7	85.4
2022-10-13T15:25	10	0	0.1	0	0	389	0.3	388	390	15.6	85.8
2022-10-13T15:26	10	0	0.1	0	0	388	0.9	387	390	15.4	86.3
2022-10-13T15:27	10	0	0.1	0	0	388	0.5	387	389	15.2	87.0
2022-10-13T15:28	10	0	0.1	0	0	387	0.8	386	389	15.1	88.2
2022-10-13T15:29	10	0	0.1	0	0	386	0.6	384	387	15.0	89.2
2022-10-13T15:30	10	0	0.2	0	0	386	1.2	384	388	14.9	90.0
2022-10-13T15:31	10	0	0.2	-1	0	386	0.7	385	387	14.8	90.8
2022-10-13T15:32	10	0	0.1	-1	0	385	0.4	385	386	14.6	91.6
2022-10-13T15:33	10	0	0.1	0	0	385	0.3	385	386	14.6	92.3
2022-10-13T15:34	10	0	0.2	0	1	385	0.3	384	386	14.5	92.7
2022-10-13T15:35	10	1	0.2	0	1	385	0.9	383	387	14.3	92.9
2022-10-13T15:36	10	1	0.2	1	2	385	0.5	384	386	14.5	93.0
2022-10-13T15:37	10	2	0.2	1	2	385	0.3	384	385	14.5	93.1
2022-10-13T15:38	10	2	0.2	2	2	385	0.3	385	386	14.6	92.6
2022-10-13T15:39	10	3	0.2	2	3	385	0.3	384	386	14.6	92.4
2022-10-13T15:40	10	3	0.2	3	3	385	0.2	385	386	14.5	92.7
2022-10-13T15:41	10	4	0.2	3	4	385	0.2	384	385	14.5	92.1
2022-10-13T15:42	10	4	0.1	4	4	385	0.2	384	385	14.5	92.7
2022-10-13T15:43	10	4	0.1	4	5	385	0.2	384	385	14.4	93.4
2022-10-13T15:44	10	5	0.1	4	5	385	0.3	385	386	14.5	93.9
2022-10-13T15:45	10	5	0.1	5	5	385	0.2	384	385	14.5	93.4
2022-10-13T15:46	10	5	0.1	5	5	385	0.2	385	386	14.4	94.0
2022-10-13T15:47	10	5	0.1	5	5	385	0.2	384	386	14.4	94.3
2022-10-13T15:48	10	5	0.1	5	6	385	0.3	384	386	14.4	94.5
2022-10-13T15:49	10	6	0.1	5	6	385	0.2	385	386	14.5	94.1
2022-10-13T15:50	10	6	0.1	6	6	385	0.2	385	386	14.5	93.7
2022-10-13T15:51	10	6	0.1	6	6	386	0.2	385	386	14.6	93.1
2022-10-13T15:52	10	6	0.1	6	6	386	0.2	385	386	14.5	93.0
2022-10-13T15:53	10	6	0.1	6	6	386	0.2	385	386	14.5	93.7
2022-10-13T15:54	10	6	0.1	6	6	386	0.2	385	387	14.5	94.3
2022-10-13T15:55	10	6	0.1	5	6	386	0.2	385	386	14.4	94.7
2022-10-13T15:56	10	6	0.1	5	6	386	0.2	386	386	14.4	95.1
2022-10-13T15:57	10	6	0.1	6	6	386	0.3	385	387	14.4	95.4
2022-10-13T15:58	10	6	0.1	6	6	386	0.3	386	387	14.4	95.6
2022-10-13T15:59	10	6	0.1	6	6	386	0.2	386	387	14.4	95.8
2022-10-13T16:00	10	7	0.1	6	7	386	0.2	386	387	14.4	95.9
2022-10-13T16:01	10	7	0.1	7	7	387	0.2	386	387	14.4	96.0
2022-10-13T16:02	10	7	0.1	7	7	386	0.2	386	387	14.4	96.0
2022-10-13T16:03	10	7	0.1	7	8	386	0.2	386	387	14.4	95.9
2022-10-13T16:04	10	8	0.1	7	8	386	0.2	386	387	14.4	95.7
2022-10-13T16:05	10	8	0.1	8	8	387	0.2	386	387	14.4	95.5
2022-10-13T16:06	10	8	0.1	8	9	387	0.2	386	387	14.5	94.9
2022-10-13T16:07	10	9	0.1	8	9	387	0.2	386	387	14.5	94.8
2022-10-13T16:08	10	9	0.1	9	9	387	0.2	386	387	14.5	94.8
2022-10-13T16:09	10	9	0.1	9	9	387	0.2	386	387	14.4	95.3
2022-10-13T16:10	10	8	0.2	8	9	387	0.2	386	387	14.4	95.4
2022-10-13T16:11	10	8	0.1	8	8	387	0.2	386	388	14.5	95.3
2022-10-13T16:12	10	7	0.2	7	8	387	0.3	386	388	14.4	95.2
2022-10-13T16:13	10	7	0.1	7	7	387	0.2	386	387	14.4	95.6
2022-10-13T16:14	10	7	0.1	7	7	387	0.2	386	387	14.4	95.9
2022-10-13T16:15	10	7	0.1	7	7	387	0.2	386	387	14.4	96.0
2022-10-13T16:16	10	7	0.1	7	7	387	0.2	386	387	14.4	96.1
2022-10-13T16:17	10	7	0.1	6	7	387	0.2	386	387	14.4	96.2
2022-10-13T16:18	10	6	0.1	6	7	386	0.2	386	387	14.4	96.1
2022-10-13T16:19	10	6	0.2	6	6	386	0.3	386	387	14.5	95.8
2022-10-13T16:20	10	5	0.2	5	6	387	0.2	386	387	14.4	95.6
2022-10-13T16:21	10	5	0.2	5	5	387	0.2	386	387	14.5	95.4
2022-10-13T16:22	10	4	0.2	4	5	387	0.3	386	387	14.6	94.7
2022-10-13T16:23	10	4	0.1	4	4	386	0.3	386	387	14.6	93.9
2022-10-13T16:24	10	4	0.1	4	4	386	0.2	386	387	14.6	93.4
2022-10-13T16:25	10	4	0.1	3	4	386	0.2	386	387	14.6	93.5
2022-10-13T16:26	10	3	0.1	3	4	386	0.2	386	386	14.5	93.9
2022-10-13T16:27	10	3	0.1	3	4	386	0.2	385	386	14.5	94.0
2022-10-13T16:28	10	4	0.1	3	4	385	0.3	385	386	14.5	94.1
2022-10-13T16:29	10	4	0.1	4	4	386	0.3	385	386	14.5	94.0
2022-10-13T16:30	10	4	0.1	4	4	385	0.3	385	386	14.5	93.9
2022-10-13T16:31	10	4	0.1	4	4	385	0.3	385	386	14.5	93.8
2022-10-13T16:32	10	4	0.1	4	4	385	0.3	384	386	14.6	93.3
2022-10-13T16:33	10	3	0.1	3	4	385	0.2	384	385	14.8	91.8
2022-10-13T16:34	10	3	0.1	3	3	385	0.3	384	385	14.8	91.1
2022-10-13T16:35	10	3	0.1	3	3	384	0.2	384	385	14.7	91.3
2022-10-13T16:36	10	3	0.1	3	3	384	0.3	384	385	14.7	91.6
2022-10-13T16:37	10	2	0.2	2	3	385	0.3	384	385	14.8	90.9
2022-10-13T16:38	10	2	0.1	2	2	384	0.2	384	385	15.0	88.9
2022-10-13T16:39	10	2	0.1	2	2	385	0.2	384	385	15.0	88.3
2022-10-13T16:40	10	2	0.1	1	2	384	0.3	384	385	14.9	88.5
2022-10-13T16:41	10	1	0.1	1	2	384	0.2	383	385	14.8	89.7
2022-10-13T16:42	10	1	0.1	1	2	384	0.2	383	384	14.7	90.4
2022-10-13T16:43	10	1	0.1	1	1	384	0.4	383	385	14.6	90.9
2022-10-13T16:44	10	1	0.1	1	1	384	0.2	384	385	14.6	91.4
2022-10-13T16:45	10	1	0.1	1	1	384	0.3	383	385	14.6	91.3
2022-10-13T16:46	10	1	0.1	1	1	384	0.2	384	385	14.7	91.2
2022-10-13T16:47	10	1	0.1	1	1	384	0.2	383	384	14.6	91.4
2022-10-13T16:48	10	1	0.1	1	1	384	0.2	384	385	14.6	91.8
2022-10-13T16:49	10	1	0.1	1	1	384	0.3	383	384	14.5	92.3
2022-10-13T16:50	10	1	0.1	1	1	383	0.2	383	384	14.5	92.7
2022-10-13T16:51	10	1	0.1	1	1	383	0.2	383	384	14.5	93.0
2022-10-13T16:52	10	1	0.1	1	1	383	0.2	382	383	14.5	93.4
2022-10-13T16:53	10	1	0.1	1	1	383	0.2	382	383	14.4	93.6
2022-10-13T16:54	10	1	0.1	1	1	382	0.3	382	383	14.4	94.1
2022-10-13T16:55	10	1	0.1	1	1	382	0.2	382	383	14.4	94.3
2022-10-13T16:56	10	1	0.1	1	1	382	0.2	382	383	14.4	94.4
2022-10-13T16:57	10	1	0.1	1	1	382	0.3	382	383	14.4	94.6
2022-10-13T16:58	10	1	0.1	1	1	382	0.3	382	383	14.3	94.8
2022-10-13T16:59	10	1	0.1	1	1	382	0.2	382	382	14.4	94.9
2022-10-13T17:00	10	1	0.1	1	1	382	0.3	382	383	14.4	94.8
2022-10-13T17:01	10	1	0.0	1	1	382	0.2	382	383	14.4	94.7
2022-10-13T17:02	10	1	0.1	1	1	382	0.2	382	383	14.5	94.2
2022-10-13T17:03	10	1	0.1	1	1	382	0.2	382	383	14.6	93.4
2022-10-13T17:04	10	1	0.1	1	1	382	0.2	382	382	14.6	92.6
2022-10-13T17:05	10	1	0.1	1	1	382	0.3	382	383	14.6	92.5
2022-10-13T17:06	10	1	0.1	1	1	382	0.2	382	383	14.6	92.3
2022-10-13T17:07	10	1	0.1	0	1	382	0.2	382	383	14.6	92.2
2022-10-13T17:08	10	1	0.1	1	1	382	0.2	382	383	14.7	91.8
2022-10-13T17:09	10	1	0.1	1	1	382	0.2	382	383	14.7	91.4
2022-10-13T17:10	10	1	0.1	1	1	382	0.3	381	383	14.8	91.1
2022-10-13T17:11	10	1	0.1	1	1	382	0.3	382	383	14.7	91.2
2022-10-13T17:12	10	1	0.2	0	2	382	0.2	382	383	14.6	91.9
2022-10-13T17:13	10	1	0.1	1	1	383	0.3	382	384	14.7	91.8
2022-10-13T17:14	10	1	0.1	1	1	382	0.3	382	383	14.7	91.7
2022-10-13T17:15	10	1	0.1	0	1	382	0.2	382	383	14.6	92.0
2022-10-13T17:16	10	1	0.1	0	1	382	0.2	382	383	14.5	92.5
2022-10-13T17:17	10	1	0.1	1	1	382	0.2	381	382	14.5	93.0
2022-10-13T17:18	10	1	0.1	0	1	382	0.3	381	382	14.5	93.5
2022-10-13T17:19	10	1	0.1	0	1	381	0.3	381	382	14.4	94.1
2022-10-13T17:20	10	1	0.2	0	1	381	0.3	380	382	14.4	94.3
2022-10-13T17:21	10	1	0.1	0	1	380	0.2	380	381	14.3	94.7
2022-10-13T17:22	10	1	0.2	0	1	380	0.3	379	381	14.3	95.0
2022-10-13T17:23	10	1	0.1	0	1	380	0.2	380	381	14.3	95.2
2022-10-13T17:24	10	1	0.2	0	1	380	0.2	380	381	14.2	95.4
2022-10-13T17:25	10	0	0.1	0	1	380	0.3	380	381	14.2	95.5
2022-10-13T17:26	10	0	0.1	0	1	380	0.3	379	381	14.2	95.8
2022-10-13T17:27	10	0	0.1	0	0	380	0.2	380	381	14.2	95.9
2022-10-13T17:28	10	0	0.1	0	1	381	0.2	380	381	14.2	96.0
2022-10-13T17:29	10	0	0.1	0	1	381	0.3	380	382	14.3	96.0
2022-10-13T17:30	10	0	0.2	0	1	381	0.2	380	381	14.2	95.9
2022-10-13T17:31	10	0	0.1	0	0	381	0.2	380	381	14.3	95.9
2022-10-13T17:32	10	0	0.2	0	1	381	0.3	380	381	14.3	95.7
2022-10-13T17:33	10	0	0.2	0	1	381	0.2	380	381	14.3	95.5
2022-10-13T17:34	10	0	0.2	0	1	381	0.3	380	381	14.3	95.4
2022-10-13T17:35	10	0	0.1	0	1	381	0.3	380	381	14.3	95.3
2022-10-13T17:36	10	0	0.1	0	1	380	0.3	380	381	14.2	95.3
2022-10-13T17:37	10	0	0.2	0	1	380	0.3	379	381	14.1	95.7
2022-10-13T17:38	10	0	0.1	0	1	379	0.3	379	380	14.0	96.0
2022-10-13T17:39	10	0	0.2	0	1	379	0.2	379	380	13.9	96.3
2022-10-13T17:40	10	0	0.2	0	1	379	0.3	378	380	13.9	96.6
2022-10-13T17:41	10	0	0.2	0	1	379	0.3	378	380	14.0	96.8
2022-10-13T17:42	10	0	0.2	0	1	379	0.2	379	380	13.9	96.8
2022-10-13T17:43	10	0	0.2	0	1	380	0.3	379	380	14.1	96.9
2022-10-13T17:44	10	0	0.1	0	1	379	0.3	379	380	14.1	96.8
2022-10-13T17:45	10	0	0.1	0	1	379	0.2	379	380	14.1	96.6
2022-10-13T17:46	10	0	0.1	0	1	379	0.2	379	380	14.1	96.4
2022-10-13T17:47	10	0	0.1	0	1	379	0.3	379	380	14.2	96.1
2022-10-13T17:48	10	0	0.1	0	1	379	0.3	378	379	14.1	96.0
2022-10-13T17:49	10	0	0.2	0	1	379	0.2	378	379	14.0	96.1
2022-10-13T17:50	10	1	0.1	0	1	378	0.3	377	379	14.0	96.3
2022-10-13T17:51	10	0	0.1	0	1	378	0.3	377	378	13.9	96.4
2022-10-13T17:52	10	0	0.1	0	1	378	0.3	377	378	13.9	96.5
2022-10-13T17:53	10	0	0.1	0	1	378	0.2	377	378	13.8	96.6
2022-10-13T17:54	10	0	0.1	0	1	377	0.3	376	378	13.8	96.7
2022-10-13T17:55	10	0	0.2	0	1	377	0.2	376	377	13.8	96.8
2022-10-13T17:56	10	0	0.1	0	1	377	0.3	376	377	13.8	96.9
2022-10-13T17:57	10	0	0.1	0	1	376	0.3	376	377	13.8	97.1
2022-10-13T17:58	10	0	0.1	0	1	376	0.2	376	377	13.8	97.2
2022-10-13T17:59	10	0	0.1	0	0	376	0.2	376	377	13.9	97.3
2022-10-13T18:00	10	0	0.1	0	1	376	0.3	376	377	13.9	97.2
2022-10-13T18:01	10	0	0.1	0	1	376	0.2	376	376	14.0	97.1
2022-10-13T18:02	10	0	0.1	0	1	376	0.3	375	376	14.0	96.9
2022-10-13T18:03	10	1	0.1	0	1	375	0.2	375	376	13.9	96.8
2022-10-13T18:04	10	1	0.1	1	1	375	0.3	374	376	13.8	96.8
2022-10-13T18:05	10	1	0.1	1	1	375	0.2	375	376	13.8	96.9
2022-10-13T18:06	10	1	0.1	1	1	376	0.2	375	376	13.8	97.0
2022-10-13T18:07	10	1	0.1	1	2	376	0.2	375	376	13.8	97.1
2022-10-13T18:08	10	1	0.1	1	1	376	0.2	375	376	13.7	97.2
2022-10-13T18:09	10	1	0.1	1	1	376	0.2	375	376	13.7	97.2
2022-10-13T18:10	10	1	0.1	1	1	376	0.2	376	377	13.7	97.3
2022-10-13T18:11	10	1	0.1	1	1	376	0.2	376	377	13.7	97.4
2022-10-13T18:12	10	1	0.1	1	1	377	0.3	376	377	13.7	97.4
2022-10-13T18:13	10	1	0.1	1	1	377	0.2	377	377	13.7	97.5
2022-10-13T18:14	10	1	0.1	1	1	377	0.5	376	378	13.7	97.5
2022-10-13T18:15	10	1	0.1	1	1	378	0.3	377	379	13.8	97.4
2022-10-13T18:16	10	1	0.1	1	1	378	0.4	377	379	13.9	97.3
2022-10-13T18:17	10	1	0.1	1	1	379	0.4	378	379	14.0	97.1
2022-10-13T18:18	10	1	0.0	1	1	379	0.2	379	380	14.1	96.7
2022-10-13T18:19	10	1	0.1	1	1	379	0.2	379	380	14.1	96.3
2022-10-13T18:20	10	1	0.1	1	1	380	0.3	379	381	14.1	95.9
2022-10-13T18:21	10	1	0.1	1	1	380	0.2	379	380	14.1	95.7
2022-10-13T18:22	10	1	0.0	1	1	380	0.2	379	380	14.1	95.5
2022-10-13T18:23	10	1	0.1	1	1	380	0.3	379	380	14.1	95.4
2022-10-13T18:24	10	1	0.1	1	1	379	0.3	379	380	14.2	95.1
2022-10-13T18:25	10	1	0.1	1	1	379	0.4	378	380	14.2	94.9
2022-10-13T18:26	10	1	0.1	1	1	379	0.3	378	379	14.2	94.9
2022-10-13T18:27	10	1	0.1	1	1	379	0.2	379	380	14.2	95.1
2022-10-13T18:28	10	1	0.1	1	1	379	0.4	378	380	14.2	95.2
2022-10-13T18:29	10	1	0.1	1	1	379	0.2	378	379	14.2	95.1
2022-10-13T18:30	10	1	0.1	1	1	379	0.4	378	379	14.1	95.2
2022-10-13T18:31	10	1	0.1	1	1	379	0.3	378	380	14.1	95.4
2022-10-13T18:32	10	1	0.1	1	1	379	0.3	378	379	14.1	95.6
2022-10-13T18:33	10	1	0.1	1	1	379	0.3	378	379	14.1	95.5
2022-10-13T18:34	10	1	0.1	1	1	378	0.3	378	379	14.1	95.4
2022-10-13T18:35	10	1	0.1	1	1	378	0.2	378	379	14.0	95.4
2022-10-13T18:36	10	1	0.1	1	1	378	0.2	378	379	14.0	95.6
2022-10-13T18:37	10	1	0.1	1	1	378	0.2	378	379	14.1	95.6
2022-10-13T18:38	10	1	0.1	1	1	378	0.2	377	378	14.0	95.4
2022-10-13T18:39	10	1	0.1	1	1	378	0.3	377	378	14.0	95.5
2022-10-13T18:40	10	1	0.1	1	1	378	0.2	377	378	13.9	95.4
2022-10-13T18:41	10	1	0.1	1	1	378	0.3	377	378	13.8	95.4
2022-10-13T18:42	10	1	0.1	1	1	377	0.3	377	378	13.7	95.5
2022-10-13T18:43	10	1	0.0	1	1	377	0.3	377	378	13.6	95.9
2022-10-13T18:44	10	1	0.1	0	1	378	0.3	377	379	13.8	96.2
2022-10-13T18:45	10	1	0.1	0	1	378	0.2	377	378	13.8	96.1
2022-10-13T18:46	10	1	0.1	0	1	378	0.3	378	379	13.9	96.1
2022-10-13T18:47	10	1	0.1	0	1	379	0.3	378	379	14.3	95.6
2022-10-13T18:48	10	1	0.1	1	1	379	0.2	379	379	14.5	93.3
2022-10-13T18:49	10	1	0.1	1	1	379	0.3	378	380	14.3	92.7
2022-10-13T18:50	10	1	0.1	1	1	379	0.2	379	379	14.2	93.5
2022-10-13T18:51	10	1	0.1	1	1	379	0.3	378	379	14.1	94.1
2022-10-13T18:52	10	1	0.1	1	1	378	0.3	378	379	14.0	94.4
2022-10-13T18:53	10	1	0.1	1	1	378	0.2	377	378	13.9	94.8
2022-10-13T18:54	10	1	0.1	1	1	377	0.2	377	378	13.9	95.1
2022-10-13T18:55	10	1	0.1	1	1	378	0.2	377	378	13.9	95.5
2022-10-13T18:56	10	1	0.1	1	1	378	0.2	377	378	13.9	95.5
2022-10-13T18:57	10	1	0.1	1	1	378	0.3	377	378	14.0	95.6
2022-10-13T18:58	10	1	0.1	1	1	378	0.2	377	379	14.0	95.6
2022-10-13T18:59	10	1	0.1	1	1	378	0.3	377	378	14.0	95.5
2022-10-13T19:00	10	1	0.1	1	1	378	0.3	378	379	14.1	95.5
2022-10-13T19:01	10	1	0.1	1	1	378	0.2	378	379	14.1	95.4
2022-10-13T19:02	10	1	0.1	1	1	379	0.2	378	379	14.1	95.2
2022-10-13T19:03	10	1	0.1	1	1	379	0.2	378	379	14.2	95.1
2022-10-13T19:04	10	1	0.1	1	1	379	0.2	378	379	14.1	95.1
2022-10-13T19:05	10	1	0.1	1	1	379	0.3	378	379	14.1	95.1
2022-10-13T19:06	10	1	0.1	1	1	379	0.2	378	379	14.2	94.9
2022-10-13T19:07	10	1	0.1	1	1	379	0.2	378	379	14.2	94.6
2022-10-13T19:08	10	1	0.1	1	1	379	0.2	379	379	14.1	94.6
2022-10-13T19:09	10	1	0.1	1	1	379	0.2	379	379	14.2	94.6
2022-10-13T19:10	10	1	0.1	1	1	379	0.3	378	379	14.1	94.6
2022-10-13T19:11	10	1	0.1	1	1	379	0.2	378	379	14.0	94.7
2022-10-13T19:12	10	1	0.1	1	1	379	0.2	378	379	14.0	95.0
2022-10-13T19:13	10	1	0.1	1	1	379	0.2	379	380	14.1	95.1
2022-10-13T19:14	10	1	0.1	0	1	379	0.2	379	380	14.1	94.6
2022-10-13T19:15	10	1	0.1	0	1	379	0.3	379	380	14.0	94.6
2022-10-13T19:16	10	1	0.1	0	1	379	0.2	379	380	14.0	94.8
2022-10-13T19:17	10	1	0.1	1	1	380	0.3	379	380	14.2	94.3
2022-10-13T19:18	10	1	0.1	1	1	380	0.3	379	380	14.2	93.4
2022-10-13T19:19	10	1	0.1	1	1	379	0.3	379	380	14.2	93.1
2022-10-13T19:20	10	1	0.1	1	1	380	0.3	379	380	14.1	93.2
2022-10-13T19:21	10	1	0.1	1	1	379	0.3	379	380	13.9	93.7
2022-10-13T19:22	10	1	0.1	0	1	380	0.2	379	380	13.9	94.3
2022-10-13T19:23	10	0	0.1	0	1	380	0.2	379	380	13.9	94.7
2022-10-13T19:24	10	0	0.1	0	1	380	0.3	379	380	14.0	94.8
2022-10-13T19:25	10	0	0.1	0	0	379	0.3	379	380	13.9	94.6
2022-10-13T19:26	10	0	0.1	0	0	379	0.3	379	380	13.9	94.7
2022-10-13T19:27	10	0	0.1	0	0	379	0.3	379	380	13.9	94.6
2022-10-13T19:28	10	0	0.1	0	0	379	0.2	378	379	13.8	94.8
2022-10-13T19:29	10	0	0.1	0	0	379	0.2	378	379	13.8	95.2
2022-10-13T19:30	10	0	0.1	0	0	378	0.3	378	379	13.8	95.3
2022-10-13T19:31	10	0	0.1	0	0	379	0.2	378	379	13.8	95.3
2022-10-13T19:32	10	0	0.1	0	0	379	0.3	378	379	13.8	95.3
2022-10-13T19:33	10	0	0.1	0	0	378	0.4	377	379	13.8	95.4
2022-10-13T19:34	10	0	0.1	0	0	379	0.3	378	379	13.8	95.4
2022-10-13T19:35	10	0	0.1	0	0	379	0.2	378	379	13.9	95.3
2022-10-13T19:36	10	0	0.1	0	0	379	0.2	378	379	13.9	95.2
2022-10-13T19:37	10	0	0.1	0	0	379	0.2	379	380	13.9	95.0
2022-10-13T19:38	10	0	0.1	0	0	379	0.4	378	380	13.8	95.0
2022-10-13T19:39	10	0	0.1	0	0	379	0.2	379	379	13.9	95.2
2022-10-13T19:40	10	0	0.1	0	0	379	0.3	378	380	13.9	95.0
2022-10-13T19:41	10	0	0.1	0	0	379	0.2	378	380	13.8	95.1
2022-10-13T19:42	10	0	0.1	0	0	379	0.3	378	379	13.8	95.3
2022-10-13T19:43	10	0	0.1	0	1	379	0.2	378	379	13.8	95.4
2022-10-13T19:44	10	0	0.1	0	1	379	0.3	378	379	13.7	95.6
2022-10-13T19:45	10	0	0.1	0	1	379	0.3	378	380	13.7	95.8
2022-10-13T19:46	10	0	0.1	0	1	379	0.3	378	379	13.7	95.8
2022-10-13T19:47	10	0	0.1	0	1	379	0.3	378	379	13.7	95.9
2022-10-13T19:48	10	0	0.1	0	1	379	0.2	378	379	13.7	96.0
2022-10-13T19:49	10	0	0.1	0	1	379	0.2	379	380	13.7	96.0
2022-10-13T19:50	10	0	0.1	0	1	379	0.3	379	380	13.7	96.0
2022-10-13T19:51	10	0	0.1	0	1	379	0.3	378	380	13.6	96.0
2022-10-13T19:52	10	0	0.1	0	1	379	0.2	378	379	13.6	96.1
2022-10-13T19:53	10	0	0.1	0	1	379	0.3	378	379	13.6	96.3
2022-10-13T19:54	10	0	0.1	0	1	379	0.2	378	379	13.6	96.3
2022-10-13T19:55	10	0	0.1	0	1	379	0.2	378	379	13.6	96.4
2022-10-13T19:56	10	0	0.1	0	1	379	0.2	378	379	13.5	96.5
2022-10-13T19:57	10	0	0.1	0	0	379	0.3	378	379	13.5	96.6
2022-10-13T19:58	10	0	0.1	0	0	379	0.3	378	379	13.5	96.7
2022-10-13T19:59	10	0	0.1	0	0	378	0.3	378	379	13.4	96.9
2022-10-13T20:00	10	0	0.1	0	0	378	0.2	378	379	13.4	97.0
2022-10-13T20:01	10	0	0.1	0	0	378	0.3	377	379	13.4	97.1
2022-10-13T20:02	10	0	0.1	0	0	378	0.3	377	379	13.4	97.2
2022-10-13T20:03	10	0	0.1	0	0	378	0.3	377	378	13.5	97.3
2022-10-13T20:04	10	0	0.1	0	0	378	0.2	377	378	13.5	97.3
2022-10-13T20:05	10	0	0.1	0	0	377	0.3	376	378	13.4	97.3
2022-10-13T20:06	10	0	0.1	0	0	377	0.3	376	377	13.4	97.2
2022-10-13T20:07	10	0	0.1	0	0	376	0.3	376	377	13.4	97.3
2022-10-13T20:08	10	0	0.1	0	0	376	0.3	375	377	13.4	97.3
2022-10-13T20:09	10	0	0.1	0	0	376	0.3	375	377	13.4	97.3
2022-10-13T20:10	10	0	0.1	0	0	376	0.2	375	376	13.4	97.3
2022-10-13T20:11	10	0	0.1	0	0	375	0.4	375	376	13.4	97.3
2022-10-13T20:12	10	0	0.1	0	0	375	0.3	375	376	13.4	97.3
2022-10-13T20:13	10	0	0.1	0	1	375	0.4	374	375	13.4	97.3
2022-10-13T20:14	10	0	0.1	0	1	375	0.4	374	376	13.5	97.2
2022-10-13T20:15	10	0	0.1	0	1	375	0.3	375	376	13.5	96.8
2022-10-13T20:16	10	0	0.1	0	1	375	0.3	375	376	13.4	96.6
2022-10-13T20:17	10	0	0.1	0	0	376	0.2	375	376	13.4	96.6
2022-10-13T20:18	10	0	0.1	0	0	375	0.3	375	376	13.4	96.7
2022-10-13T20:19	10	0	0.1	0	0	375	0.3	374	376	13.4	96.7
2022-10-13T20:20	10	0	0.1	0	0	375	0.3	374	376	13.4	96.8
2022-10-13T20:21	10	0	0.1	0	0	375	0.3	374	376	13.5	96.7
2022-10-13T20:22	10	0	0.1	0	0	376	0.3	375	376	13.5	96.4
2022-10-13T20:23	10	0	0.1	0	0	375	0.2	375	376	13.4	96.3
2022-10-13T20:24	10	0	0.1	0	0	375	0.2	375	376	13.5	96.3
2022-10-13T20:25	10	0	0.1	0	0	375	0.5	374	376	13.4	96.2
2022-10-13T20:26	10	0	0.1	0	0	374	0.5	373	375	13.3	96.3
2022-10-13T20:27	10	0	0.1	0	0	375	0.3	374	375	13.4	96.4
2022-10-13T20:28	10	0	0.1	0	0	374	0.3	374	375	13.4	96.3
2022-10-13T20:29	10	0	0.1	0	0	374	0.3	374	375	13.4	96.1
2022-10-13T20:30	10	0	0.1	0	0	374	0.2	373	374	13.4	95.9
2022-10-13T20:31	10	0	0.1	0	0	374	0.3	373	374	13.4	95.8
2022-10-13T20:32	10	0	0.1	0	0	374	0.3	373	374	13.4	95.8
2022-10-13T20:33	10	0	0.1	0	0	373	0.2	373	374	13.4	95.8
2022-10-13T20:34	10	0	0.1	-1	0	373	0.2	373	374	13.4	95.9
2022-10-13T20:35	10	0	0.1	0	0	373	0.3	373	374	13.4	95.7
2022-10-13T20:36	10	0	0.1	0	0	373	0.2	372	373	13.4	95.6
2022-10-13T20:37	10	0	0.1	0	0	373	0.2	373	374	13.4	95.5
2022-10-13T20:38	10	0	0.1	0	0	373	0.3	372	374	13.3	95.4
2022-10-13T20:39	10	0	0.1	0	0	373	0.3	372	374	13.2	95.6
2022-10-13T20:40	10	0	0.1	0	0	373	0.3	373	374	13.2	95.9
2022-10-13T20:41	10	0	0.1	0	0	374	0.3	373	374	13.3	96.1
2022-10-13T20:42	10	0	0.1	0	0	374	0.2	373	374	13.2	96.2
2022-10-13T20:43	10	0	0.1	0	0	373	0.4	373	374	13.2	96.3
2022-10-13T20:44	10	0	0.1	0	0	373	0.3	373	374	13.2	96.5
2022-10-13T20:45	10	0	0.1	-1	0	373	0.3	373	374	13.2	96.7
2022-10-13T20:46	10	0	0.1	-1	0	373	0.4	373	374	13.1	96.8
2022-10-13T20:47	10	0	0.1	-1	0	373	0.5	372	374	13.1	96.9
2022-10-13T20:48	10	0	0.1	-1	0	374	0.3	373	374	13.1	97.1
2022-10-13T20:49	10	0	0.1	0	0	373	0.4	372	374	13.1	97.2
2022-10-13T20:50	10	0	0.1	0	0	373	0.4	372	374	13.0	97.3
2022-10-13T20:51	10	0	0.1	0	0	373	0.3	372	373	13.1	97.4
2022-10-13T20:52	10	0	0.1	0	0	373	0.3	372	373	13.1	97.5
2022-10-13T20:53	10	0	0.1	0	0	373	0.3	372	373	13.1	97.6
2022-10-13T20:54	10	0	0.1	-1	0	373	0.2	373	373	13.1	97.6
2022-10-13T20:55	10	0	0.1	-1	0	373	0.3	373	374	13.1	97.6
2022-10-13T20:56	10	0	0.1	-1	0	373	0.3	373	374	13.1	97.6
2022-10-13T20:57	10	0	0.1	-1	0	374	0.3	373	374	13.1	97.6
2022-10-13T20:58	10	0	0.1	0	0	374	0.3	373	374	13.1	97.7
2022-10-13T20:59	10	0	0.1	0	0	374	0.4	374	375	13.1	97.7
2022-10-13T21:00	10	0	0.1	0	0	374	0.4	374	375	13.1	97.7
2022-10-13T21:01	10	0	0.1	0	0	374	0.3	374	375	13.0	97.7
2022-10-13T21:02	10	0	0.1	0	0	374	0.2	374	375	13.0	97.8
2022-10-13T21:03	10	0	0.1	0	0	375	0.2	374	375	13.0	97.8
2022-10-13T21:04	10	0	0.1	-1	0	374	0.2	374	375	13.0	97.8
2022-10-13T21:05	10	0	0.1	-1	0	375	0.3	374	375	13.1	97.8
2022-10-13T21:06	10	0	0.1	-1	0	375	0.3	374	376	13.1	97.8
2022-10-13T21:07	10	0	0.1	-1	0	375	0.3	374	375	13.1	97.8
2022-10-13T21:08	10	0	0.1	-1	0	375	0.3	374	376	13.1	97.7
2022-10-13T21:09	10	-1	0.1	-1	0	375	0.2	375	376	13.2	97.6
2022-10-13T21:10	10	0	0.3	-1	2	375	0.2	375	376	13.2	97.4
2022-10-13T21:11	10	0	0.1	-1	0	375	0.2	375	376	13.2	97.3
2022-10-13T21:12	10	-1	0.1	-1	0	376	0.2	375	376	13.2	97.2
2022-10-13T21:13	10	0	0.1	-1	0	376	0.2	375	376	13.2	97.1
2022-10-13T21:14	10	0	0.1	-1	0	375	0.2	375	376	13.2	97.0
2022-10-13T21:15	10	0	0.1	-1	0	375	0.2	375	376	13.2	96.9
2022-10-13T21:16	10	0	0.1	0	0	376	0.2	375	376	13.2	96.9
2022-10-13T21:17	10	0	0.1	0	0	376	0.2	375	376	13.3	96.8
2022-10-13T21:18	10	0	0.1	0	0	376	0.2	375	376	13.3	96.7
2022-10-13T21:19	10	0	0.1	0	0	376	0.2	375	376	13.3	96.6
2022-10-13T21:20	10	0	0.1	0	0	376	0.2	375	376	13.3	96.4
2022-10-13T21:21	10	0	0.1	0	0	376	0.2	375	376	13.3	96.3
2022-10-13T21:22	10	0	0.1	0	1	376	0.2	375	376	13.3	96.2
2022-10-13T21:23	10	0	0.1	0	1	376	0.2	375	376	13.3	96.2
2022-10-13T21:24	10	1	0.1	0	1	376	0.2	375	376	13.3	96.1
2022-10-13T21:25	10	1	0.1	0	1	375	0.2	375	376	13.3	96.1
2022-10-13T21:26	10	1	0.1	0	1	375	0.2	375	376	13.3	96.0
2022-10-13T21:27	10	1	0.1	0	1	375	0.2	375	375	13.3	95.9
2022-10-13T21:28	10	1	0.1	0	1	375	0.2	375	376	13.4	95.7
2022-10-13T21:29	10	1	0.1	1	1	375	0.1	375	376	13.4	95.5
2022-10-13T21:30	10	1	0.1	0	1	375	0.3	374	376	13.4	95.1
2022-10-13T21:31	10	1	0.1	0	1	375	0.3	375	376	13.4	95.0
2022-10-13T21:32	10	1	0.1	0	1	375	0.3	375	376	13.4	94.8
2022-10-13T21:33	10	1	0.1	0	1	375	0.3	375	376	13.4	94.7
2022-10-13T21:34	10	1	0.1	0	1	375	0.3	375	376	13.5	94.3
2022-10-13T21:35	10	0	0.1	0	1	375	0.2	375	376	13.5	93.9
2022-10-13T21:36	10	1	0.1	0	1	375	0.2	375	376	13.5	93.8
2022-10-13T21:37	10	1	0.1	0	1	375	0.2	374	375	13.4	93.8
2022-10-13T21:38	10	1	0.1	0	1	375	0.3	374	375	13.4	93.9
2022-10-13T21:39	10	1	0.1	1	1	375	0.2	374	375	13.4	94.1
2022-10-13T21:40	10	1	0.1	0	1	375	0.3	374	375	13.4	93.9
2022-10-13T21:41	10	1	0.1	0	1	375	0.2	374	375	13.4	93.9
2022-10-13T21:42	10	1	0.1	0	1	375	0.2	374	375	13.4	94.0
2022-10-13T21:43	10	0	0.1	0	1	375	0.3	374	376	13.5	93.7
2022-10-13T21:44	10	0	0.1	0	1	375	0.2	375	376	13.4	93.7
2022-10-13T21:45	10	0	0.1	0	0	375	0.2	375	376	13.5	93.8
2022-10-13T21:46	10	0	0.1	0	0	376	0.3	375	376	13.5	93.8
2022-10-13T21:47	10	0	0.1	0	0	376	0.2	376	377	13.6	93.7
2022-10-13T21:48	10	0	0.1	0	0	376	0.2	376	377	13.6	93.3
2022-10-13T21:49	10	0	0.1	0	0	376	0.2	376	377	13.6	93.2
2022-10-13T21:50	10	0	0.1	0	0	376	0.2	376	377	13.7	92.9
2022-10-13T21:51	10	0	0.1	0	0	376	0.2	376	377	13.6	92.8
2022-10-13T21:52	10	0	0.1	0	0	377	0.3	376	377	13.6	92.8
2022-10-13T21:53	10	0	0.1	0	0	377	0.4	375	377	13.7	92.8
2022-10-13T21:54	10	0	0.1	0	0	376	0.2	376	377	13.7	92.4
2022-10-13T21:55	10	0	0.1	0	1	376	0.3	375	377	13.8	92.0
2022-10-13T21:56	10	0	0.1	0	0	376	0.3	376	377	13.8	92.1
2022-10-13T21:57	10	0	0.1	0	0	376	0.2	376	377	13.8	91.7
2022-10-13T21:58	10	0	0.1	0	0	377	0.2	376	377	13.9	91.8
2022-10-13T21:59	10	0	0.1	0	0	377	0.2	376	377	13.9	91.3
2022-10-13T22:00	10	0	0.1	0	0	377	0.2	376	377	13.9	91.1
2022-10-13T22:01	10	0	0.1	0	0	376	0.2	376	377	13.9	91.3
2022-10-13T22:02	10	0	0.1	0	0	376	0.3	376	377	13.9	91.1
2022-10-13T22:03	10	0	0.1	0	1	377	0.2	376	377	13.9	91.0
2022-10-13T22:04	10	0	0.2	0	2	377	0.2	376	377	14.0	90.8
2022-10-13T22:05	10	0	0.1	0	1	377	0.3	376	377	13.9	90.7
2022-10-13T22:06	10	1	0.1	0	1	376	0.2	376	377	14.0	90.6
2022-10-13T22:07	10	1	0.1	0	1	376	0.2	375	376	13.9	90.7
2022-10-13T22:08	10	1	0.1	0	1	376	0.2	375	376	13.8	91.4
2022-10-13T22:09	10	1	0.1	0	1	375	0.2	375	376	13.8	91.6
2022-10-13T22:10	10	1	0.1	0	1	375	0.3	374	376	13.7	91.8
2022-10-13T22:11	10	1	0.1	0	1	375	0.4	374	375	13.6	92.1
2022-10-13T22:12	10	1	0.1	1	1	374	0.3	374	375	13.5	92.5
2022-10-13T22:13	10	1	0.1	1	1	374	0.3	373	374	13.4	93.1
2022-10-13T22:14	10	1	0.1	1	1	373	0.3	373	374	13.4	93.5
2022-10-13T22:15	10	1	0.1	1	1	373	0.4	372	373	13.6	93.2
2022-10-13T22:16	10	1	0.1	1	1	372	0.4	371	373	13.4	93.3
2022-10-13T22:17	10	1	0.1	0	1	373	0.2	372	373	13.4	93.6
2022-10-13T22:18	10	1	0.1	0	1	373	0.2	372	373	13.4	93.9
2022-10-13T22:19	10	0	0.1	0	1	372	0.3	372	373	13.3	93.9
2022-10-13T22:20	10	0	0.1	0	0	372	0.3	372	373	13.3	94.1
2022-10-13T22:21	10	0	0.1	0	0	373	0.4	372	373	13.3	94.3
2022-10-13T22:22	10	0	0.1	0	0	373	0.2	373	374	13.2	94.2
2022-10-13T22:23	10	0	0.1	0	0	373	0.3	372	373	13.3	94.3
2022-10-13T22:24	10	0	0.1	0	0	373	0.2	372	373	13.3	94.3
2022-10-13T22:25	10	0	0.1	0	0	372	0.4	372	373	13.2	94.2
2022-10-13T22:26	10	0	0.1	-1	0	372	0.2	371	372	13.1	94.6
2022-10-13T22:27	10	0	0.1	0	0	371	0.2	371	372	13.1	94.8
2022-10-13T22:28	10	0	0.1	-1	0	370	0.3	370	371	13.1	95.0
2022-10-13T22:29	10	0	0.1	0	0	370	0.2	369	370	13.1	95.0
2022-10-13T22:30	10	0	0.1	0	0	370	0.3	369	370	13.1	95.0
2022-10-13T22:31	10	0	0.1	0	0	370	0.2	369	370	13.2	94.8
2022-10-13T22:32	10	0	0.1	0	0	370	0.3	369	370	13.3	94.4
2022-10-13T22:33	10	0	0.1	0	0	370	0.2	369	371	13.3	93.9
2022-10-13T22:34	10	0	0.1	0	0	370	0.3	369	370	13.4	93.5
2022-10-13T22:35	10	0	0.1	0	0	370	0.2	369	370	13.3	93.2
2022-10-13T22:36	10	0	0.1	0	0	370	0.3	369	370	13.3	93.1
2022-10-13T22:37	10	0	0.1	0	0	370	0.2	369	370	13.5	92.4
2022-10-13T22:38	10	0	0.1	0	0	370	0.2	369	370	13.4	92.1
2022-10-13T22:39	10	0	0.1	0	0	370	0.2	369	370	13.4	92.2
2022-10-13T22:40	10	0	0.1	0	0	369	0.2	369	370	13.3	92.2
2022-10-13T22:41	10	0	0.1	0	0	369	0.3	369	370	13.3	92.2
2022-10-13T22:42	10	0	0.1	0	0	369	0.3	368	370	13.2	92.6
2022-10-13T22:43	10	0	0.1	0	0	369	0.2	368	369	13.0	93.2
2022-10-13T22:44	10	0	0.1	0	0	369	0.2	368	369	12.9	94.2
2022-10-13T22:45	10	0	0.1	0	0	368	0.2	368	369	12.9	94.8
2022-10-13T22:46	10	0	0.1	0	0	368	0.2	368	369	12.8	95.2
2022-10-13T22:47	10	0	0.1	0	0	369	0.2	368	369	12.5	95.6
2022-10-13T22:48	10	0	0.1	0	0	369	0.3	368	369	12.5	96.3
2022-10-13T22:49	10	0	0.1	0	0	369	0.3	369	370	12.6	96.6
2022-10-13T22:50	10	0	0.1	0	0	369	0.2	369	370	12.6	96.8
2022-10-13T22:51	10	0	0.1	0	0	369	0.2	369	370	12.7	96.8
2022-10-13T22:52	10	0	0.1	0	0	369	0.2	369	370	12.6	96.8
2022-10-13T22:53	10	0	0.1	0	0	369	0.2	369	369	12.5	96.8
2022-10-13T22:54	10	0	0.1	0	0	369	0.4	369	371	12.5	96.8
2022-10-13T22:55	10	0	0.1	0	0	370	0.3	369	371	12.9	96.8
2022-10-13T22:56	10	0	0.1	0	0	370	0.2	370	371	13.1	96.0
2022-10-13T22:57	10	0	0.1	0	0	371	0.2	370	371	13.1	94.7
2022-10-13T22:58	10	0	0.1	0	0	371	0.2	370	371	12.9	93.8
2022-10-13T22:59	10	0	0.0	0	0	371	0.3	371	372	12.8	94.3
2022-10-13T23:00	10	0	0.1	0	1	372	0.2	371	372	12.9	94.2
2022-10-13T23:01	10	0	0.1	0	0	372	0.4	372	373	12.9	93.8
2022-10-13T23:02	10	0	0.1	0	0	372	0.2	372	373	12.9	93.4
2022-10-13T23:03	10	0	0.1	0	1	373	0.2	372	373	12.8	93.5
2022-10-13T23:04	10	0	0.0	0	1	373	0.2	372	373	12.8	93.8
2022-10-13T23:05	10	1	0.1	0	1	373	0.3	372	373	12.7	93.8
2022-10-13T23:06	10	1	0.1	0	1	373	0.5	372	374	12.7	94.4
2022-10-13T23:07	10	1	0.1	0	1	373	0.4	373	374	12.8	94.6
2022-10-13T23:08	10	1	0.1	0	1	373	0.3	373	374	12.9	94.8
2022-10-13T23:09	10	0	0.1	0	1	374	0.4	373	374	12.9	94.7
2022-10-13T23:10	10	1	0.1	0	1	374	0.2	373	374	12.9	94.9
2022-10-13T23:11	10	0	0.1	0	1	374	0.3	373	375	12.8	95.1
2022-10-13T23:12	10	0	0.1	0	0	374	0.3	373	374	12.8	95.4
2022-10-13T23:13	10	0	0.1	0	0	374	0.5	373	375	12.8	95.6
2022-10-13T23:14	10	0	0.1	0	0	374	0.3	373	374	12.7	95.8
2022-10-13T23:15	10	0	0.1	0	1	374	0.3	373	375	12.7	96.0
2022-10-13T23:16	10	0	0.1	0	1	374	0.3	373	374	12.6	96.1
2022-10-13T23:17	10	0	0.1	0	1	374	0.2	373	374	12.5	96.1
2022-10-13T23:18	10	0	0.1	0	1	373	0.2	373	374	12.4	96.3
2022-10-13T23:19	10	0	0.1	0	0	373	0.3	373	374	12.4	96.6
2022-10-13T23:20	10	0	0.1	0	0	374	0.2	373	374	12.4	96.7
2022-10-13T23:21	10	0	0.1	0	0	374	0.3	373	374	12.5	96.9
2022-10-13T23:22	10	0	0.1	0	0	374	0.2	373	374	12.5	97.0
2022-10-13T23:23	10	0	0.1	0	0	374	0.2	373	374	12.5	97.0
2022-10-13T23:24	10	0	0.1	0	0	374	0.2	373	374	12.5	96.9
2022-10-13T23:25	10	0	0.1	0	0	374	0.3	373	375	12.5	96.8
2022-10-13T23:26	10	0	0.1	0	0	374	0.2	373	374	12.5	96.5
2022-10-13T23:27	10	0	0.1	0	0	374	0.3	373	374	12.4	96.3
2022-10-13T23:28	10	0	0.1	0	0	374	0.3	373	374	12.4	96.3
2022-10-13T23:29	10	0	0.1	0	0	374	0.2	373	374	12.4	96.6
2022-10-13T23:30	10	0	0.1	0	0	374	0.2	373	374	12.4	96.7
2022-10-13T23:31	10	0	0.1	0	0	373	0.2	373	374	12.5	96.6
2022-10-13T23:32	10	0	0.1	0	0	374	0.2	373	374	12.7	96.3
2022-10-13T23:33	10	0	0.0	0	0	374	0.2	374	375	12.9	95.2
2022-10-13T23:34	10	0	0.0	0	0	374	0.3	373	374	12.9	94.0
2022-10-13T23:35	10	0	0.1	0	0	373	0.2	373	374	12.8	93.5
2022-10-13T23:36	10	0	0.1	0	0	373	0.2	373	374	12.6	94.3
2022-10-13T23:37	10	0	0.1	0	0	374	0.2	373	374	12.8	94.5
2022-10-13T23:38	10	0	0.1	0	0	374	0.2	373	374	12.9	93.8
2022-10-13T23:39	10	0	0.1	0	0	374	0.2	373	374	12.8	93.5
2022-10-13T23:40	10	0	0.1	0	1	374	0.2	373	374	12.7	93.9
2022-10-13T23:41	10	0	0.1	0	1	373	0.2	373	374	12.6	94.4
2022-10-13T23:42	10	0	0.1	0	1	373	0.2	373	374	12.6	94.8
2022-10-13T23:43	10	1	0.1	0	1	374	0.2	373	374	12.6	95.1
2022-10-13T23:44	10	1	0.0	0	1	373	0.2	373	374	12.6	95.3
2022-10-13T23:45	10	1	0.1	0	1	374	0.3	373	374	12.6	95.5
2022-10-13T23:46	10	1	0.0	1	1	374	0.2	373	374	12.7	95.5
2022-10-13T23:47	10	1	0.1	0	1	374	0.3	373	374	12.7	95.4
2022-10-13T23:48	10	1	0.1	1	1	374	0.2	373	374	12.7	95.4
2022-10-13T23:49	10	1	0.0	1	1	374	0.2	373	374	12.8	95.4
2022-10-13T23:50	10	1	0.1	1	1	374	0.2	373	374	12.7	95.2
2022-10-13T23:51	10	1	0.0	1	1	374	0.3	373	375	12.8	95.2
2022-10-13T23:52	10	1	0.1	0	1	374	0.3	373	375	12.9	94.8
2022-10-13T23:53	10	1	0.1	0	1	374	0.3	374	375	12.9	94.6
2022-10-13T23:54	10	1	0.1	0	1	374	0.2	374	375	13.0	94.1
2022-10-13T23:55	10	0	0.1	0	1	374	0.2	374	375	13.0	93.7
2022-10-13T23:56	10	0	0.1	0	1	375	0.2	374	375	13.0	93.5
2022-10-13T23:57	10	0	0.1	0	1	375	0.2	374	375	13.0	93.5
2022-10-13T23:58	10	0	0.1	0	1	375	0.2	374	375	13.0	93.6
2022-10-13T23:59	10	0	0.1	0	1	375	0.2	374	375	13.0	93.6
2022-10-14T00:00	10	0	0.1	0	1	375	0.2	374	376	13.0	93.5
2022-10-14T00:01	10	0	0.1	0	0	375	0.2	375	376	13.1	93.2
2022-10-14T00:02	10	0	0.1	0	0	375	0.3	374	376	13.0	93.1
2022-10-14T00:03	10	0	0.1	0	1	375	0.3	374	375	13.0	93.2
2022-10-14T00:04	10	0	0.1	0	1	375	0.3	374	375	12.9	93.6
2022-10-14T00:05	10	0	0.1	0	1	374	0.3	374	375	12.8	94.0
2022-10-14T00:06	10	0	0.1	0	1	374	0.3	374	375	12.9	94.3
2022-10-14T00:07	10	0	0.1	0	1	374	0.2	374	374	12.8	94.3
2022-10-14T00:08	10	0	0.1	0	0	374	0.2	373	374	12.7	94.5
2022-10-14T00:09	10	0	0.1	0	0	374	0.3	373	374	12.6	94.9
2022-10-14T00:10	10	0	0.1	0	0	374	0.3	373	374	12.6	95.4
2022-10-14T00:11	10	0	0.1	0	0	374	0.3	373	374	12.6	95.7
2022-10-14T00:12	10	0	0.1	0	0	373	0.2	373	374	12.7	95.7
2022-10-14T00:13	10	0	0.1	0	1	373	0.2	373	374	12.6	95.6
2022-10-14T00:14	10	0	0.1	0	1	374	0.2	373	374	12.7	95.7
2022-10-14T00:15	10	1	0.1	0	1	374	0.2	373	374	12.7	95.6
2022-10-14T00:16	10	1	0.1	0	1	374	0.2	373	374	12.8	95.4
2022-10-14T00:17	10	1	0.1	0	1	374	0.2	373	374	12.8	95.2
2022-10-14T00:18	10	1	0.1	0	1	374	0.2	373	374	12.8	95.2
2022-10-14T00:19	10	1	0.0	1	1	374	0.3	373	375	12.8	95.1
2022-10-14T00:20	10	1	0.1	1	1	374	0.3	373	374	12.8	95.0
2022-10-14T00:21	10	1	0.1	1	1	373	0.3	373	374	12.8	94.9
2022-10-14T00:22	10	1	0.1	1	1	373	0.3	373	374	12.9	94.6
2022-10-14T00:23	10	1	0.1	1	1	374	0.2	373	374	12.9	94.3
2022-10-14T00:24	10	1	0.1	0	1	374	0.3	373	374	12.9	94.1
2022-10-14T00:25	10	1	0.1	0	1	374	0.3	373	374	12.9	94.1
2022-10-14T00:26	10	1	0.1	1	1	374	0.2	373	374	12.8	94.1
2022-10-14T00:27	10	1	0.1	1	1	374	0.2	373	374	12.8	94.3
2022-10-14T00:28	10	1	0.0	1	1	373	0.2	373	374	12.8	94.4
2022-10-14T00:29	10	1	0.0	1	1	373	0.2	373	374	12.8	94.5
2022-10-14T00:30	10	1	0.1	1	1	374	0.3	373	374	12.8	94.5
2022-10-14T00:31	10	1	0.1	1	1	374	0.2	373	374	12.8	94.6
2022-10-14T00:32	10	1	0.1	1	1	374	0.2	373	374	12.8	94.8
2022-10-14T00:33	10	1	0.0	1	1	374	0.2	373	374	12.7	94.8
2022-10-14T00:34	10	1	0.1	1	1	374	0.2	373	374	12.7	94.9
2022-10-14T00:35	10	1	0.1	1	1	374	0.2	373	374	12.7	95.0
2022-10-14T00:36	10	1	0.1	1	1	374	0.3	373	374	12.6	95.1
2022-10-14T00:37	10	1	0.1	0	1	373	0.2	373	374	12.6	95.5
2022-10-14T00:38	10	0	0.1	0	1	373	0.3	373	374	12.5	95.8
2022-10-14T00:39	10	0	0.1	0	0	373	0.2	373	374	12.3	96.1
2022-10-14T00:40	10	0	0.1	0	0	373	0.2	373	374	12.3	96.5
2022-10-14T00:41	10	0	0.1	0	0	374	0.2	373	374	12.3	96.8
2022-10-14T00:42	10	0	0.1	0	0	374	0.2	373	374	12.5	97.0
2022-10-14T00:43	10	0	0.1	0	0	374	0.2	373	374	12.5	96.9
2022-10-14T00:44	10	0	0.1	0	0	374	0.2	373	374	12.5	96.9
2022-10-14T00:45	10	0	0.1	0	0	374	0.2	373	374	12.5	96.9
2022-10-14T00:46	10	0	0.1	0	0	374	0.3	373	374	12.5	96.8
2022-10-14T00:47	10	0	0.1	0	0	374	0.2	374	374	12.4	96.8
2022-10-14T00:48	10	0	0.1	0	0	374	0.2	373	374	12.4	96.9
2022-10-14T00:49	10	0	0.1	0	0	373	0.2	373	374	12.4	97.0
2022-10-14T00:50	10	0	0.1	0	0	373	0.2	373	374	12.5	97.1
2022-10-14T00:51	10	0	0.1	0	0	373	0.2	373	374	12.4	97.1
2022-10-14T00:52	10	0	0.1	0	0	373	0.2	373	374	12.3	97.0
2022-10-14T00:53	10	0	0.1	0	0	373	0.2	373	374	12.2	97.1
2022-10-14T00:54	10	0	0.1	0	0	373	0.2	373	374	12.2	97.2
2022-10-14T00:55	10	0	0.1	0	1	374	0.2	373	374	12.3	97.4
2022-10-14T00:56	10	0	0.1	0	1	373	0.2	373	374	12.3	97.5
2022-10-14T00:57	10	0	0.1	0	0	373	0.2	373	374	12.3	97.6
2022-10-14T00:58	10	0	0.1	0	0	373	0.3	373	374	12.3	97.7
2022-10-14T00:59	10	0	0.1	0	0	373	0.2	373	374	12.3	97.6
2022-10-14T01:00	10	0	0.1	-1	0	373	0.2	373	374	12.4	97.5
2022-10-14T01:01	10	-1	0.1	-1	0	373	0.3	373	374	12.5	97.3
2022-10-14T01:02	10	-1	0.1	-1	0	374	0.2	373	374	12.7	96.8
2022-10-14T01:03	10	0	0.1	-1	0	374	0.3	373	374	12.9	95.7
2022-10-14T01:04	10	0	0.1	0	0	374	0.3	373	375	12.8	94.6
2022-10-14T01:05	10	0	0.1	0	0	374	0.3	373	374	12.9	94.2
2022-10-14T01:06	10	0	0.1	0	0	374	0.2	373	374	13.0	93.5
2022-10-14T01:07	10	0	0.1	0	0	374	0.2	373	374	13.0	92.9
2022-10-14T01:08	10	0	0.1	0	1	374	0.2	373	374	12.9	92.7
2022-10-14T01:09	10	1	0.1	0	1	373	0.2	373	374	12.6	93.7
2022-10-14T01:10	10	1	0.1	0	1	373	0.2	373	373	12.4	94.5
2022-10-14T01:11	10	1	0.1	1	1	373	0.2	372	373	12.4	95.2
2022-10-14T01:12	10	1	0.0	1	1	374	0.2	373	374	12.6	95.6
2022-10-14T01:13	10	1	0.1	1	1	373	0.3	373	374	12.7	95.0
2022-10-14T01:14	10	1	0.1	0	1	373	0.4	372	374	12.6	94.3
2022-10-14T01:15	10	1	0.1	0	1	373	0.2	372	374	12.3	94.6
2022-10-14T01:16	10	1	0.1	1	1	373	0.2	373	374	12.3	95.4
2022-10-14T01:17	10	1	0.1	1	1	373	0.2	373	374	12.5	95.8
2022-10-14T01:18	10	1	0.1	1	1	374	0.3	373	374	12.6	95.7
2022-10-14T01:19	10	1	0.1	1	1	374	0.2	373	374	12.7	95.2
2022-10-14T01:20	10	1	0.1	1	1	374	0.2	373	374	12.6	94.7
2022-10-14T01:21	10	1	0.1	1	1	374	0.2	373	374	12.6	94.7
2022-10-14T01:22	10	1	0.1	1	1	374	0.2	373	374	12.6	94.8
2022-10-14T01:23	10	1	0.1	1	1	374	0.3	374	375	12.7	94.5
2022-10-14T01:24	10	1	0.1	1	1	374	0.3	373	375	12.7	94.4
2022-10-14T01:25	10	1	0.1	1	1	374	0.4	373	374	12.6	94.3
2022-10-14T01:26	10	1	0.1	1	1	374	0.2	373	374	12.5	94.7
2022-10-14T01:27	10	1	0.1	1	1	374	0.2	373	374	12.6	94.8
2022-10-14T01:28	10	1	0.1	1	1	374	0.2	373	374	12.5	94.9
2022-10-14T01:29	10	1	0.1	1	1	374	0.2	373	374	12.5	95.1
2022-10-14T01:30	10	1	0.0	1	1	374	0.2	374	374	12.6	95.1
2022-10-14T01:31	10	1	0.1	1	1	374	0.3	373	374	12.5	95.1
2022-10-14T01:32	10	1	0.1	1	1	374	0.2	373	375	12.5	95.3
2022-10-14T01:33	10	1	0.1	0	1	374	0.2	374	375	12.5	95.6
2022-10-14T01:34	10	1	0.1	0	1	374	0.2	373	374	12.4	95.8
2022-10-14T01:35	10	0	0.1	0	1	374	0.2	374	375	12.4	96.0
2022-10-14T01:36	10	0	0.1	0	1	374	0.2	374	374	12.4	96.2
2022-10-14T01:37	10	0	0.1	0	1	374	0.2	373	374	12.4	96.3
2022-10-14T01:38	10	0	0.1	0	1	374	0.3	373	374	12.4	96.4
2022-10-14T01:39	10	0	0.1	0	1	374	0.2	373	374	12.4	96.6
2022-10-14T01:40	10	1	0.1	0	1	374	0.2	373	374	12.4	96.7
2022-10-14T01:41	10	1	0.1	0	1	374	0.2	373	374	12.4	96.8
2022-10-14T01:42	10	1	0.1	1	1	374	0.2	373	374	12.4	96.8
2022-10-14T01:43	10	1	0.0	1	1	374	0.2	373	374	12.4	96.9
2022-10-14T01:44	10	1	0.1	1	1	374	0.2	373	374	12.4	97.0
2022-10-14T01:45	10	1	0.1	1	1	374	0.2	373	374	12.4	97.0
2022-10-14T01:46	10	1	0.1	1	1	374	0.2	373	375	12.3	97.1
2022-10-14T01:47	10	1	0.1	1	1	374	0.2	373	374	12.4	97.2
2022-10-14T01:48	10	1	0.1	1	1	374	0.2	373	374	12.4	97.2
2022-10-14T01:49	10	1	0.1	1	1	374	0.2	373	374	12.4	97.2
2022-10-14T01:50	10	1	0.1	1	1	374	0.2	373	374	12.4	97.2
2022-10-14T01:51	10	1	0.1	1	1	374	0.2	373	374	12.4	97.2
2022-10-14T01:52	10	1	0.1	1	1	374	0.2	373	374	12.4	97.2
2022-10-14T01:53	10	1	0.1	1	1	374	0.2	373	374	12.4	97.2
2022-10-14T01:54	10	1	0.1	1	1	374	0.2	373	374	12.4	97.2
2022-10-14T01:55	10	1	0.1	1	1	374	0.2	374	375	12.4	97.2
2022-10-14T01:56	10	1	0.1	1	1	374	0.3	373	374	12.4	97.2
2022-10-14T01:57	10	1	0.1	1	1	374	0.2	374	374	12.4	97.2
2022-10-14T01:58	10	1	0.1	1	1	374	0.2	374	374	12.4	97.2
2022-10-14T01:59	10	1	0.1	1	1	374	0.2	374	375	12.4	97.2
2022-10-14T02:00	10	1	0.1	1	1	374	0.2	374	374	12.5	97.1
2022-10-14T02:01	10	1	0.1	1	1	374	0.2	374	375	12.5	97.0
2022-10-14T02:02	10	1	0.1	1	1	374	0.2	373	375	12.4	96.9
2022-10-14T02:03	10	1	0.1	1	1	374	0.2	374	374	12.4	96.9
2022-10-14T02:04	10	1	0.1	1	1	374	0.2	374	375	12.4	96.8
2022-10-14T02:05	10	1	0.1	1	1	374	0.3	373	375	12.4	96.8
2022-10-14T02:06	10	1	0.1	1	1	374	0.2	374	375	12.4	96.8
2022-10-14T02:07	10	1	0.1	1	1	374	0.2	373	375	12.4	96.8
2022-10-14T02:08	10	1	0.1	1	1	374	0.2	373	374	12.4	96.8
2022-10-14T02:09	10	1	0.1	1	1	374	0.2	373	374	12.4	96.8
2022-10-14T02:10	10	1	0.1	0	1	374	0.2	373	374	12.4	96.9
2022-10-14T02:11	10	0	0.1	0	1	374	0.3	373	374	12.4	96.9
2022-10-14T02:12	10	0	0.1	0	0	374	0.2	373	374	12.4	97.0
2022-10-14T02:13	10	0	0.1	0	0	374	0.2	373	374	12.4	97.0
2022-10-14T02:14	10	0	0.1	0	0	374	0.2	373	374	12.3	97.0
2022-10-14T02:15	10	0	0.1	0	0	374	0.2	373	374	12.3	97.2
2022-10-14T02:16	10	0	0.1	0	0	374	0.2	373	374	12.3	97.3
2022-10-14T02:17	10	0	0.0	0	0	373	0.2	373	374	12.2	97.4
2022-10-14T02:18	10	0	0.1	0	0	373	0.2	373	374	12.2	97.6
2022-10-14T02:19	10	0	0.1	0	0	373	0.2	373	374	12.2	97.7
2022-10-14T02:20	10	0	0.0	0	0	373	0.3	372	374	12.2	97.8
2022-10-14T02:21	10	0	0.1	0	0	373	0.3	372	374	12.1	98.0
2022-10-14T02:22	10	0	0.1	0	1	373	0.2	372	374	12.1	98.0
2022-10-14T02:23	10	0	0.1	0	0	373	0.2	373	374	12.1	98.1
2022-10-14T02:24	10	0	0.1	0	0	373	0.2	372	373	12.1	98.2
2022-10-14T02:25	10	0	0.1	0	0	373	0.2	373	374	12.1	98.2
2022-10-14T02:26	10	0	0.1	0	0	373	0.2	373	374	12.1	98.3
2022-10-14T02:27	10	0	0.1	0	0	373	0.2	373	374	12.1	98.3
2022-10-14T02:28	10	0	0.1	0	0	373	0.2	372	373	12.1	98.4
2022-10-14T02:29	10	0	0.1	0	0	373	0.2	373	374	12.1	98.4
2022-10-14T02:30	10	0	0.1	0	0	373	0.2	373	373	12.1	98.5
2022-10-14T02:31	10	0	0.1	0	0	373	0.2	372	373	12.1	98.5
2022-10-14T02:32	10	0	0.1	0	0	373	0.2	372	373	12.1	98.6
2022-10-14T02:33	10	0	0.1	0	0	373	0.2	372	373	12.1	98.6
2022-10-14T02:34	10	0	0.1	0	0	373	0.2	372	373	12.1	98.6
2022-10-14T02:35	10	0	0.1	0	0	373	0.2	372	373	12.1	98.7
2022-10-14T02:36	10	0	0.1	0	0	373	0.2	373	373	12.1	98.7
2022-10-14T02:37	10	0	0.1	0	0	373	0.2	373	373	12.1	98.7
2022-10-14T02:38	10	0	0.1	0	0	373	0.2	372	373	12.1	98.7
2022-10-14T02:39	10	0	0.1	0	0	373	0.3	372	373	12.1	98.7
2022-10-14T02:40	10	0	0.1	0	0	373	0.2	373	373	12.1	98.7
2022-10-14T02:41	10	0	0.1	0	0	373	0.3	373	374	12.1	98.7
2022-10-14T02:42	10	0	0.1	0	0	373	0.2	373	373	12.0	98.7
2022-10-14T02:43	10	0	0.0	0	0	373	0.2	372	373	12.1	98.7
2022-10-14T02:44	10	0	0.1	0	0	373	0.2	372	373	12.1	98.8
2022-10-14T02:45	10	0	0.1	0	0	373	0.2	372	373	12.2	98.8
2022-10-14T02:46	10	0	0.1	0	0	373	0.2	372	373	12.2	98.8
2022-10-14T02:47	10	0	0.1	0	0	372	0.3	372	373	12.2	98.8
2022-10-14T02:48	10	0	0.1	0	1	372	0.2	372	373	12.2	98.8
2022-10-14T02:49	10	0	0.1	0	1	372	0.2	371	372	12.2	98.7
2022-10-14T02:50	10	0	0.1	0	1	372	0.2	371	372	12.2	98.7
2022-10-14T02:51	10	0	0.1	0	0	372	0.2	371	372	12.3	98.7
2022-10-14T02:52	10	0	0.1	0	0	371	0.2	371	372	12.3	98.6
2022-10-14T02:53	10	0	0.1	0	0	371	0.2	371	372	12.3	98.6
2022-10-14T02:54	10	0	0.1	0	0	371	0.3	370	372	12.3	98.5
2022-10-14T02:55	10	0	0.1	0	0	371	0.3	370	371	12.3	98.4
2022-10-14T02:56	10	0	0.1	0	0	370	0.2	370	371	12.2	98.4
2022-10-14T02:57	10	0	0.1	0	1	370	0.2	370	371	12.2	98.4
2022-10-14T02:58	10	0	0.1	0	0	371	0.3	370	371	12.2	98.4
2022-10-14T02:59	10	0	0.1	0	0	371	0.3	370	372	12.3	98.4
2022-10-14T03:00	10	0	0.1	0	0	371	0.3	371	372	12.2	98.4
2022-10-14T03:01	10	0	0.1	0	0	371	0.2	371	371	12.2	98.5
2022-10-14T03:02	10	0	0.1	0	0	371	0.3	370	372	12.3	98.5
2022-10-14T03:03	10	0	0.1	0	0	371	0.2	370	372	12.3	98.6
2022-10-14T03:04	10	0	0.1	0	0	371	0.2	371	372	12.3	98.5
2022-10-14T03:05	10	0	0.1	0	0	371	0.2	370	372	12.3	98.5
2022-10-14T03:06	10	0	0.1	0	0	371	0.2	370	371	12.4	98.5
2022-10-14T03:07	10	0	0.1	0	0	371	0.2	370	371	12.4	98.5
2022-10-14T03:08	10	0	0.1	0	0	371	0.2	370	371	12.4	98.4
2022-10-14T03:09	10	0	0.1	0	0	370	0.2	370	371	12.4	98.4
2022-10-14T03:10	10	0	0.1	0	1	370	0.2	369	370	12.3	98.3
2022-10-14T03:11	10	0	0.1	0	1	370	0.3	369	370	12.3	98.3
2022-10-14T03:12	10	1	0.1	0	1	370	0.2	369	370	12.3	98.3
2022-10-14T03:13	10	1	0.1	0	1	369	0.2	369	370	12.3	98.3
2022-10-14T03:14	10	0	0.1	0	1	369	0.2	369	370	12.3	98.3
2022-10-14T03:15	10	0	0.1	0	1	369	0.2	369	369	12.3	98.3
2022-10-14T03:16	10	0	0.1	0	1	369	0.2	369	369	12.3	98.3
2022-10-14T03:17	10	0	0.1	0	1	369	0.2	368	369	12.3	98.3
2022-10-14T03:18	10	0	0.1	0	1	369	0.3	368	369	12.3	98.4
2022-10-14T03:19	10	0	0.1	0	0	369	0.3	368	369	12.3	98.4
2022-10-14T03:20	10	0	0.1	0	0	368	0.2	368	369	12.3	98.4
2022-10-14T03:21	10	0	0.1	0	0	368	0.2	368	369	12.2	98.4
2022-10-14T03:22	10	0	0.1	0	0	368	0.3	368	369	12.2	98.4
2022-10-14T03:23	10	0	0.1	0	0	368	0.2	368	369	12.2	98.5
2022-10-14T03:24	10	0	0.1	0	1	368	0.2	368	368	12.1	98.5
2022-10-14T03:25	10	0	0.1	0	1	368	0.2	368	369	12.1	98.5
2022-10-14T03:26	10	1	0.1	0	1	368	0.3	368	369	12.1	98.5
2022-10-14T03:27	10	1	0.1	0	1	368	0.2	368	369	12.1	98.6
2022-10-14T03:28	10	1	0.1	0	1	368	0.2	367	369	12.1	98.6
2022-10-14T03:29	10	1	0.1	1	1	368	0.2	367	368	12.1	98.6
2022-10-14T03:30	10	1	0.1	0	1	368	0.2	367	368	12.0	98.7
2022-10-14T03:31	10	1	0.1	1	1	367	0.2	367	368	12.1	98.7
2022-10-14T03:32	10	1	0.1	1	1	367	0.2	367	368	12.0	98.8
2022-10-14T03:33	10	1	0.1	0	1	367	0.3	366	367	12.1	98.8
2022-10-14T03:34	10	1	0.1	0	1	367	0.2	366	367	12.1	98.8
2022-10-14T03:35	10	1	0.1	0	1	367	0.2	366	367	12.0	98.8
2022-10-14T03:36	10	1	0.1	0	1	367	0.2	366	367	12.0	98.9
2022-10-14T03:37	10	1	0.1	0	1	367	0.3	366	368	12.1	98.9
2022-10-14T03:38	10	1	0.1	0	1	367	0.3	366	368	12.0	98.9
2022-10-14T03:39	10	1	0.2	0	2	367	0.2	367	368	12.0	98.9
2022-10-14T03:40	10	1	0.1	0	1	368	0.2	367	369	12.0	98.9
2022-10-14T03:41	10	1	0.1	0	1	368	0.3	368	369	12.0	98.9
2022-10-14T03:42	10	1	0.1	0	1	368	0.3	368	369	12.0	98.9
2022-10-14T03:43	10	1	0.1	0	1	369	0.2	368	369	12.0	99.0
2022-10-14T03:44	10	1	0.1	0	1	369	0.2	369	370	12.0	99.0
2022-10-14T03:45	10	1	0.1	0	1	369	0.2	369	370	12.0	99.0
2022-10-14T03:46	10	1	0.1	0	1	370	0.3	369	370	12.0	99.0
2022-10-14T03:47	10	1	0.1	0	1	370	0.3	369	370	12.0	99.0
2022-10-14T03:48	10	1	0.1	1	1	370	0.2	369	370	12.1	99.1
2022-10-14T03:49	10	1	0.1	0	1	370	0.3	370	371	12.1	99.1
2022-10-14T03:50	10	1	0.2	0	1	370	0.2	370	371	12.1	99.1
2022-10-14T03:51	10	1	0.1	0	1	370	0.2	370	371	12.1	99.1
2022-10-14T03:52	10	1	0.1	0	1	370	0.3	370	371	12.0	99.1
2022-10-14T03:53	10	1	0.2	0	1	371	0.3	370	371	12.0	99.1
2022-10-14T03:54	10	1	0.2	0	1	371	0.3	370	371	12.0	99.1
2022-10-14T03:55	10	1	0.2	0	1	371	0.3	371	372	12.1	99.1
2022-10-14T03:56	10	1	0.1	0	1	371	0.2	370	372	12.1	99.1
2022-10-14T03:57	10	1	0.1	0	1	371	0.3	370	372	12.1	99.1
2022-10-14T03:58	10	1	0.2	0	1	371	0.3	370	372	12.0	99.1
2022-10-14T03:59	10	1	0.2	0	1	371	0.3	371	372	12.0	99.1
2022-10-14T04:00	10	1	0.2	0	1	371	0.3	370	372	12.0	99.1
2022-10-14T04:01	10	1	0.2	0	1	371	0.3	371	372	12.0	99.1
2022-10-14T04:02	10	0	0.1	0	1	372	0.2	371	372	12.0	99.1
2022-10-14T04:03	10	1	0.1	0	1	372	0.3	371	372	12.0	99.1
2022-10-14T04:04	10	1	0.1	0	1	372	0.3	371	373	11.9	99.1
2022-10-14T04:05	10	1	0.1	0	1	372	0.3	371	373	11.9	99.1
2022-10-14T04:06	10	1	0.2	0	1	372	0.2	371	372	11.9	99.1
2022-10-14T04:07	10	1	0.2	0	1	372	0.3	371	372	11.9	99.0
2022-10-14T04:08	10	0	0.1	0	1	372	0.3	371	372	12.0	99.0
2022-10-14T04:09	10	0	0.1	0	0	372	0.4	371	373	12.1	99.1
2022-10-14T04:10	10	0	0.1	0	0	372	0.3	371	373	12.1	99.1
2022-10-14T04:11	10	0	0.2	0	1	372	0.3	371	372	12.0	99.0
2022-10-14T04:12	10	0	0.1	0	0	372	0.3	371	373	12.0	99.0
2022-10-14T04:13	10	0	0.2	0	1	372	0.4	371	372	12.0	99.0
2022-10-14T04:14	10	0	0.1	0	1	371	0.3	371	372	11.9	98.9
2022-10-14T04:15	10	0	0.1	0	0	372	0.2	371	372	11.9	98.9
2022-10-14T04:16	10	0	0.1	0	0	372	0.3	371	373	11.9	98.8
2022-10-14T04:17	10	0	0.1	0	0	372	0.2	371	372	11.9	98.8
2022-10-14T04:18	10	0	0.2	0	1	372	0.2	372	373	11.9	98.8
2022-10-14T04:19	10	0	0.1	0	1	372	0.4	371	373	11.9	98.8
2022-10-14T04:20	10	0	0.1	0	0	372	0.3	372	373	11.9	98.8
2022-10-14T04:21	10	0	0.2	0	1	372	0.3	372	373	11.9	98.8
2022-10-14T04:22	10	0	0.2	0	0	373	0.2	372	373	11.9	98.8
2022-10-14T04:23	10	0	0.1	-1	0	373	0.3	372	373	11.9	98.8
2022-10-14T04:24	10	0	0.2	-1	0	373	0.2	372	373	12.0	98.8
2022-10-14T04:25	10	-1	0.1	-1	0	373	0.3	372	373	12.1	98.7
2022-10-14T04:26	10	0	0.1	-1	0	373	0.3	372	374	12.0	98.6
2022-10-14T04:27	10	0	0.1	-1	0	373	0.2	372	373	12.0	98.5
2022-10-14T04:28	10	0	0.1	-1	0	372	0.3	372	373	12.0	98.5
2022-10-14T04:29	10	-1	0.1	-1	0	372	0.3	372	373	12.0	98.4
2022-10-14T04:30	10	0	0.1	-1	0	373	0.3	372	373	12.0	98.4
2022-10-14T04:31	10	0	0.2	-1	0	373	0.3	372	373	12.0	98.4
2022-10-14T04:32	10	0	0.1	-1	0	373	0.2	372	373	12.0	98.4
2022-10-14T04:33	10	0	0.2	-1	0	373	0.2	372	374	12.1	98.4
2022-10-14T04:34	10	0	0.2	-1	0	373	0.3	372	374	12.1	98.4
2022-10-14T04:35	10	0	0.1	-1	0	373	0.3	372	374	12.1	98.4
2022-10-14T04:36	10	0	0.1	-1	0	373	0.3	372	374	12.1	98.4
2022-10-14T04:37	10	0	0.1	-1	0	373	0.3	373	374	12.1	98.4
2022-10-14T04:38	10	0	0.1	-1	0	373	0.2	373	374	12.1	98.4
2022-10-14T04:39	10	0	0.1	-1	0	373	0.3	373	374	12.1	98.4
2022-10-14T04:40	10	0	0.1	0	0	373	0.3	372	374	12.2	98.4
2022-10-14T04:41	10	0	0.1	0	0	373	0.2	373	374	12.2	98.3
2022-10-14T04:42	10	0	0.2	0	0	373	0.2	373	374	12.2	98.3
2022-10-14T04:43	10	0	0.1	0	0	373	0.2	373	374	12.2	98.3
2022-10-14T04:44	10	0	0.1	0	0	373	0.2	373	374	12.2	98.2
2022-10-14T04:45	10	0	0.1	0	0	373	0.3	372	374	12.2	98.2
2022-10-14T04:46	10	0	0.1	0	0	373	0.3	372	374	12.2	98.2
2022-10-14T04:47	10	0	0.2	0	0	373	0.2	372	373	12.3	98.1
2022-10-14T04:48	10	0	0.2	0	0	373	0.3	373	374	12.3	98.0
2022-10-14T04:49	10	0	0.1	0	0	373	0.3	372	374	12.3	97.9
2022-10-14T04:50	10	0	0.1	0	0	373	0.2	373	374	12.3	97.8
2022-10-14T04:51	10	0	0.2	-1	0	373	0.2	373	374	12.3	97.6
2022-10-14T04:52	10	0	0.2	-1	0	373	0.2	373	374	12.3	97.5
2022-10-14T04:53	10	0	0.2	-1	0	373	0.3	373	374	12.3	97.4
2022-10-14T04:54	10	0	0.2	0	0	373	0.2	373	374	12.3	97.3
2022-10-14T04:55	10	0	0.2	-1	0	373	0.3	373	374	12.3	97.3
2022-10-14T04:56	10	0	0.1	0	0	374	0.4	373	374	12.3	97.2
2022-10-14T04:57	10	0	0.1	0	0	373	0.2	373	374	12.3	97.2
2022-10-14T04:58	10	0	0.2	0	0	374	0.3	373	375	12.3	97.2
2022-10-14T04:59	10	0	0.1	0	0	374	0.3	373	374	12.3	97.2
2022-10-14T05:00	10	0	0.1	0	1	373	0.3	373	374	12.3	97.0
2022-10-14T05:01	10	0	0.1	0	0	374	0.3	373	374	12.3	96.9
2022-10-14T05:02	10	0	0.2	0	1	374	0.3	373	374	12.3	96.9
2022-10-14T05:03	10	0	0.1	0	0	374	0.3	373	374	12.3	96.9
2022-10-14T05:04	10	0	0.1	0	0	374	0.3	373	374	12.3	96.9
2022-10-14T05:05	10	0	0.1	0	1	374	0.2	373	374	12.4	96.8
2022-10-14T05:06	10	0	0.1	0	0	374	0.3	373	374	12.4	96.5
2022-10-14T05:07	10	0	0.1	0	0	374	0.2	373	374	12.5	96.2
2022-10-14T05:08	10	0	0.2	0	0	374	0.2	373	374	12.4	95.9
2022-10-14T05:09	10	0	0.1	0	0	374	0.3	373	374	12.5	95.8
2022-10-14T05:10	10	0	0.1	0	0	374	0.3	373	374	12.5	95.4
2022-10-14T05:11	10	0	0.1	0	0	374	0.2	373	374	12.5	95.1
2022-10-14T05:12	10	0	0.1	0	0	374	0.3	373	374	12.4	95.1
2022-10-14T05:13	10	0	0.1	0	0	374	0.3	373	374	12.4	95.3
2022-10-14T05:14	10	0	0.2	0	0	374	0.4	373	375	12.5	95.2
2022-10-14T05:15	10	0	0.2	0	1	374	0.3	373	375	12.5	95.1
2022-10-14T05:16	10	0	0.1	0	1	374	0.2	374	375	12.6	95.0
2022-10-14T05:17	10	0	0.2	0	1	374	0.3	374	375	12.5	94.7
2022-10-14T05:18	10	0	0.1	0	1	374	0.3	373	375	12.4	95.0
2022-10-14T05:19	10	1	0.1	0	1	374	0.3	374	375	12.4	95.2
2022-10-14T05:20	10	1	0.2	0	1	374	0.5	373	375	12.4	95.3
2022-10-14T05:21	10	0	0.2	0	1	374	0.2	374	375	12.4	95.5
2022-10-14T05:22	10	1	0.1	0	1	374	0.3	374	375	12.4	95.8
2022-10-14T05:23	10	1	0.1	0	1	374	0.2	374	375	12.4	95.9
2022-10-14T05:24	10	1	0.1	0	1	374	0.3	374	375	12.4	96.0
2022-10-14T05:25	10	1	0.2	0	1	374	0.2	374	375	12.3	96.1
2022-10-14T05:26	10	1	0.1	1	1	374	0.2	374	375	12.3	96.1
2022-10-14T05:27	10	1	0.1	0	1	374	0.3	373	375	12.3	96.3
2022-10-14T05:28	10	1	0.1	0	1	374	0.2	373	374	12.3	96.4
2022-10-14T05:29	10	1	0.1	1	1	374	0.2	374	375	12.2	96.6
2022-10-14T05:30	10	1	0.2	1	1	374	0.2	373	374	12.2	96.8
2022-10-14T05:31	10	1	0.1	1	1	374	0.2	374	375	12.2	96.9
2022-10-14T05:32	10	1	0.1	1	1	374	0.3	373	375	12.2	97.0
2022-10-14T05:33	10	1	0.1	1	1	374	0.3	373	375	12.2	97.1
2022-10-14T05:34	10	1	0.2	1	2	374	0.3	374	375	12.3	97.1
2022-10-14T05:35	10	1	0.2	1	1	374	0.2	374	375	12.4	97.1
2022-10-14T05:36	10	1	0.1	1	1	374	0.3	373	374	12.5	96.8
2022-10-14T05:37	10	1	0.1	1	1	374	0.3	373	375	12.4	96.5
2022-10-14T05:38	10	1	0.1	1	1	374	0.3	373	375	12.4	96.5
2022-10-14T05:39	10	1	0.1	1	1	374	0.3	374	375	12.5	96.5
2022-10-14T05:40	10	1	0.2	1	2	374	0.2	374	375	12.6	96.2
2022-10-14T05:41	10	2	0.2	1	2	375	0.3	373	375	12.6	95.8
2022-10-14T05:42	10	2	0.1	1	2	374	0.3	374	375	12.6	95.4
2022-10-14T05:43	10	2	0.1	2	2	374	0.2	374	375	12.6	95.2
2022-10-14T05:44	10	2	0.1	2	2	374	0.2	374	375	12.4	95.4
2022-10-14T05:45	10	2	0.2	2	2	375	0.3	374	375	12.3	95.9
2022-10-14T05:46	10	2	0.1	2	2	375	0.2	374	375	12.4	96.3
2022-10-14T05:47	10	2	0.2	1	2	375	0.3	374	376	12.4	96.4
2022-10-14T05:48	10	1	0.2	1	2	375	0.3	374	375	12.4	96.5
2022-10-14T05:49	10	1	0.1	1	1	375	0.3	374	376	12.5	96.5
2022-10-14T05:50	10	1	0.1	1	2	375	0.2	375	376	12.6	96.2
2022-10-14T05:51	10	1	0.1	1	2	375	0.2	375	376	12.5	96.1
2022-10-14T05:52	10	1	0.2	1	2	375	0.3	374	376	12.5	96.0
2022-10-14T05:53	10	1	0.1	1	2	375	0.3	374	376	12.5	96.1
2022-10-14T05:54	10	1	0.1	1	2	375	0.2	375	376	12.5	96.2
2022-10-14T05:55	10	1	0.2	1	2	375	0.3	374	376	12.4	96.3
2022-10-14T05:56	10	1	0.2	1	2	375	0.3	374	376	12.4	96.5
2022-10-14T05:57	10	1	0.2	1	2	375	0.3	375	376	12.4	96.7
2022-10-14T05:58	10	1	0.1	1	2	375	0.2	375	376	12.4	96.8
2022-10-14T05:59	10	1	0.2	1	2	375	0.2	375	376	12.4	96.8
2022-10-14T06:00	10	1	0.1	1	2	376	0.2	375	376	12.4	96.9
2022-10-14T06:01	10	2	0.1	1	2	376	0.2	375	376	12.4	97.0
2022-10-14T06:02	10	2	0.1	2	2	376	0.3	375	376	12.4	97.1
2022-10-14T06:03	10	2	0.1	1	2	376	0.2	375	376	12.4	97.1
2022-10-14T06:04	10	2	0.1	2	2	376	0.3	375	376	12.4	97.1
2022-10-14T06:05	10	2	0.1	2	2	376	0.2	375	376	12.4	97.1
2022-10-14T06:06	10	2	0.1	2	3	376	0.2	375	376	12.4	97.1
2022-10-14T06:07	10	2	0.1	2	3	376	0.2	375	376	12.4	97.1
2022-10-14T06:08	10	3	0.1	2	3	376	0.3	375	377	12.4	97.1
2022-10-14T06:09	10	3	0.1	2	3	376	0.2	375	376	12.4	97.1
2022-10-14T06:10	10	3	0.1	3	3	376	0.3	375	376	12.4	97.2
2022-10-14T06:11	10	3	0.1	3	4	376	0.2	376	377	12.4	97.3
2022-10-14T06:12	10	3	0.1	3	4	376	0.2	375	376	12.4	97.4
2022-10-14T06:13	10	4	0.1	3	4	376	0.3	376	377	12.4	97.4
2022-10-14T06:14	10	4	0.2	4	4	376	0.2	375	377	12.4	97.5
2022-10-14T06:15	10	4	0.2	4	5	376	0.2	376	377	12.3	97.5
2022-10-14T06:16	10	4	0.1	4	5	376	0.3	375	377	12.3	97.6
2022-10-14T06:17	10	4	0.1	4	5	376	0.2	376	377	12.3	97.6
2022-10-14T06:18	10	5	0.1	4	5	376	0.2	376	377	12.4	97.6
2022-10-14T06:19	10	5	0.1	5	5	376	0.3	376	377	12.4	97.6
2022-10-14T06:20	10	5	0.1	5	5	376	0.2	376	377	12.3	97.7
2022-10-14T06:21	10	5	0.1	5	5	376	0.2	376	377	12.3	97.8
2022-10-14T06:22	10	5	0.1	5	5	376	0.2	376	377	12.4	97.8
2022-10-14T06:23	10	5	0.1	5	5	376	0.2	376	377	12.4	97.8
2022-10-14T06:24	10	5	0.1	5	5	376	0.2	376	377	12.4	97.8
2022-10-14T06:25	10	5	0.3	5	6	376	0.2	376	377	12.5	97.7
2022-10-14T06:26	10	6	0.2	6	7	377	0.2	376	377	12.6	97.6
2022-10-14T06:27	10	6	0.1	6	6	377	0.2	376	378	12.6	97.4
2022-10-14T06:28	10	6	0.1	6	6	377	0.2	376	378	12.6	97.2
2022-10-14T06:29	10	6	0.1	6	6	377	0.2	376	377	12.6	97.0
2022-10-14T06:30	10	6	0.1	5	6	377	0.2	376	377	12.6	96.9
2022-10-14T06:31	10	5	0.1	5	6	377	0.2	376	378	12.6	97.0
2022-10-14T06:32	10	5	0.1	5	6	377	0.3	376	378	12.6	97.0
2022-10-14T06:33	10	6	0.1	5	6	377	0.2	376	377	12.6	97.0
2022-10-14T06:34	10	6	0.1	5	6	377	0.3	377	378	12.6	97.0
2022-10-14T06:35	10	6	0.1	5	6	377	0.3	377	378	12.6	96.9
2022-10-14T06:36	10	6	0.1	6	6	378	0.3	377	379	12.7	97.0
2022-10-14T06:37	10	6	0.1	6	6	378	0.2	377	378	12.8	97.0
2022-10-14T06:38	10	6	0.1	6	6	378	0.3	377	379	12.8	96.8
2022-10-14T06:39	10	6	0.1	5	6	378	0.2	378	379	12.9	96.6
2022-10-14T06:40	10	6	0.1	6	6	379	0.3	378	380	12.9	96.4
2022-10-14T06:41	10	6	0.1	6	6	379	0.3	378	379	13.0	96.2
2022-10-14T06:42	10	6	0.1	6	6	379	0.3	378	379	13.1	95.9
2022-10-14T06:43	10	6	0.1	6	6	379	0.3	378	379	13.1	95.4
2022-10-14T06:44	10	6	0.1	5	6	379	0.6	378	380	13.1	95.2
2022-10-14T06:45	10	6	0.1	5	6	379	0.3	379	380	13.2	94.9
2022-10-14T06:46	10	5	0.1	5	6	379	0.3	378	380	13.3	94.4
2022-10-14T06:47	10	5	0.1	5	5	379	0.2	379	380	13.3	94.1
2022-10-14T06:48	10	5	0.1	5	5	379	0.3	379	380	13.4	93.5
2022-10-14T06:49	10	5	0.1	5	5	379	0.3	378	380	13.4	92.9
2022-10-14T06:50	10	5	0.1	5	5	379	0.2	379	379	13.4	92.9
2022-10-14T06:51	10	6	0.1	5	6	379	0.3	378	380	13.4	93.0
2022-10-14T06:52	10	6	0.1	6	6	379	0.3	379	380	13.4	92.9
2022-10-14T06:53	10	6	0.1	5	6	379	0.3	378	380	13.4	93.1
2022-10-14T06:54	10	5	0.1	5	6	379	0.2	379	380	13.4	93.1
2022-10-14T06:55	10	5	0.1	5	5	379	0.2	379	380	13.4	93.2
2022-10-14T06:56	10	5	0.1	5	5	379	0.3	379	380	13.3	93.4
2022-10-14T06:57	10	5	0.1	5	5	379	0.3	378	380	13.3	93.5
2022-10-14T06:58	10	5	0.1	5	5	379	0.2	379	380	13.3	93.7
2022-10-14T06:59	10	5	0.1	5	5	379	0.3	379	380	13.3	93.8
2022-10-14T07:00	10	5	0.1	5	5	379	0.3	379	380	13.3	93.9
2022-10-14T07:01	10	5	0.1	5	5	379	0.3	379	380	13.3	94.1
2022-10-14T07:02	10	5	0.2	5	6	379	0.3	379	380	13.3	94.3
2022-10-14T07:03	10	6	0.2	5	6	380	0.4	379	380	13.3	94.4
2022-10-14T07:04	10	6	0.2	6	7	380	0.2	380	380	13.3	94.5
2022-10-14T07:05	10	7	0.2	7	8	380	0.2	380	381	13.3	94.6
2022-10-14T07:06	10	8	0.4	8	9	380	0.2	380	381	13.3	94.6
2022-10-14T07:07	10	10	0.4	9	10	381	0.3	381	382	13.3	94.7
2022-10-14T07:08	10	11	0.3	10	11	381	0.2	381	382	13.3	94.7
2022-10-14T07:09	10	11	0.3	11	12	382	0.3	381	382	13.3	94.8
2022-10-14T07:10	10	13	0.5	12	14	382	0.2	381	382	13.3	94.8
2022-10-14T07:11	10	15	0.8	14	16	382	0.2	382	382	13.3	94.9
2022-10-14T07:12	10	18	1.0	16	20	383	0.3	382	383	13.2	95.0
2022-10-14T07:13	10	21	0.8	20	22	383	0.2	383	384	13.1	95.2
2022-10-14T07:14	10	23	0.2	22	23	384	0.2	383	384	13.1	95.4
2022-10-14T07:15	10	23	0.3	22	23	384	0.3	383	384	13.1	95.5
2022-10-14T07:16	10	22	0.3	21	22	384	0.5	382	385	13.0	95.6
2022-10-14T07:17	10	21	0.3	20	21	384	0.4	383	384	13.0	95.6
2022-10-14T07:18	10	20	0.2	20	20	384	0.5	383	385	13.0	95.6
2022-10-14T07:19	10	19	0.2	19	20	383	0.4	382	384	12.9	95.7
2022-10-14T07:20	10	19	0.2	18	19	383	0.5	382	384	12.9	95.7
2022-10-14T07:21	10	18	0.1	18	18	383	0.4	383	384	13.0	95.8
2022-10-14T07:22	10	18	0.1	18	18	383	0.5	382	384	13.0	95.8
2022-10-14T07:23	10	18	0.1	18	18	383	0.6	382	384	13.0	95.7
2022-10-14T07:24	10	18	0.1	18	18	383	0.5	383	385	13.0	95.8
2022-10-14T07:25	10	18	0.1	18	18	384	0.5	382	384	13.1	95.9
2022-10-14T07:26	10	18	0.1	18	18	384	0.4	383	384	13.1	96.0
2022-10-14T07:27	10	19	0.2	18	19	383	0.5	383	384	13.1	95.8
2022-10-14T07:28	10	20	0.3	19	20	384	0.7	382	385	13.2	95.7
2022-10-14T07:29	10	21	0.4	20	22	384	0.8	383	385	13.2	95.4
2022-10-14T07:30	10	22	0.4	22	23	384	0.6	383	385	13.3	95.2
2022-10-14T07:31	10	24	0.5	23	25	384	0.3	383	385	13.4	94.8
2022-10-14T07:32	10	26	0.5	25	27	384	0.3	384	385	13.5	94.2
2022-10-14T07:33	10	28	0.5	27	29	384	0.2	384	385	13.6	93.6
2022-10-14T07:34	10	30	0.6	29	31	384	0.3	384	385	13.7	92.9
2022-10-14T07:35	10	32	0.6	31	33	384	0.4	383	385	13.8	92.4
2022-10-14T07:36	10	38	2.5	34	41	385	0.5	384	386	13.8	92.0
2022-10-14T07:37	10	44	2.3	40	49	386	0.4	385	387	13.9	91.4
2022-10-14T07:38	10	48	0.4	47	49	387	0.7	386	388	13.9	91.4
2022-10-14T07:39	10	44	2.1	41	47	388	0.3	387	388	13.9	91.2
2022-10-14T07:40	10	39	1.7	38	43	387	0.3	387	388	13.9	91.3
2022-10-14T07:41	10	39	1.4	37	42	388	0.3	388	389	13.9	91.4
2022-10-14T07:42	10	36	0.6	35	37	388	0.3	387	388	13.9	91.1
2022-10-14T07:43	10	38	2.7	35	43	388	0.6	388	390	14.0	91.5
2022-10-14T07:44	10	37	1.1	36	39	389	0.3	388	389	14.0	91.4
2022-10-14T07:45	10	36	0.2	36	37	388	0.2	388	389	14.0	91.2
2022-10-14T07:46	10	37	0.1	36	37	388	0.2	388	389	14.0	91.1
2022-10-14T07:47	10	37	0.2	36	37	389	0.3	388	389	14.0	91.0
2022-10-14T07:48	10	38	0.4	37	38	389	0.3	389	390	13.9	91.0
2022-10-14T07:49	10	36	0.2	36	37	389	0.3	388	389	13.9	91.0
2022-10-14T07:50	10	36	0.1	36	36	389	0.3	388	389	14.0	91.1
2022-10-14T07:51	10	37	0.6	36	38	388	0.8	387	390	14.0	91.0
2022-10-14T07:52	10	41	2.7	37	45	389	0.8	388	391	14.1	92.0
2022-10-14T07:53	10	41	1.4	40	45	390	0.5	389	391	14.0	91.9
2022-10-14T07:54	10	51	3.1	45	56	390	0.3	390	391	14.1	91.6
2022-10-14T07:55	10	50	3.4	45	55	391	0.4	390	392	14.1	91.2
2022-10-14T07:56	10	43	0.5	42	45	391	0.4	390	392	14.1	90.7
2022-10-14T07:57	10	43	0.5	42	44	391	0.4	390	392	14.1	90.6
2022-10-14T07:58	10	44	1.1	43	46	391	0.3	391	392	14.1	90.6
2022-10-14T07:59	10	39	1.4	37	43	392	0.3	391	392	14.2	90.4
2022-10-14T08:00	10	36	0.6	35	37	391	0.3	391	392	14.2	90.7
2022-10-14T08:01	10	34	0.5	33	35	391	0.3	390	392	14.2	90.6
2022-10-14T08:02	10	33	0.2	33	33	391	0.5	390	392	14.3	90.4
2022-10-14T08:03	10	32	0.1	32	33	391	0.6	389	392	14.3	89.6
2022-10-14T08:04	10	32	0.3	32	33	390	0.3	389	391	14.4	89.4
2022-10-14T08:05	10	31	0.3	31	32	390	0.4	389	391	14.4	89.6
2022-10-14T08:06	10	30	0.6	29	31	390	0.3	389	391	14.5	89.6
2022-10-14T08:07	10	28	0.4	28	29	390	0.3	389	390	14.5	88.7
2022-10-14T08:08	10	28	0.2	27	28	390	0.2	390	391	14.5	88.9
2022-10-14T08:09	10	27	0.1	27	28	389	0.3	389	390	14.5	88.8
2022-10-14T08:10	10	27	0.2	27	28	389	0.2	389	390	14.5	88.5
2022-10-14T08:11	10	28	0.6	28	30	390	0.4	389	390	14.6	88.2
2022-10-14T08:12	10	31	0.8	29	32	389	0.4	388	390	14.6	87.7
2022-10-14T08:13	10	33	0.6	32	34	390	0.3	389	390	14.6	87.6
2022-10-14T08:14	10	35	0.6	34	36	390	0.3	389	390	14.7	87.9
2022-10-14T08:15	10	37	0.7	36	39	391	0.8	390	392	14.7	88.3
2022-10-14T08:16	10	41	2.3	39	46	392	0.6	391	393	14.8	87.4
2022-10-14T08:17	10	48	1.5	46	51	391	0.4	391	392	14.8	86.2
2022-10-14T08:18	10	55	2.4	51	60	393	0.9	391	395	14.8	87.0
2022-10-14T08:19	10	78	10.1	60	94	395	0.9	393	396	14.9	86.4
2022-10-14T08:20	10	55	4.9	50	69	394	0.9	393	396	14.9	85.1
2022-10-14T08:21	10	49	0.4	48	50	393	0.4	392	394	14.9	85.3
2022-10-14T08:22	10	48	0.1	48	48	393	0.4	393	394	14.9	84.7
2022-10-14T08:23	10	48	0.3	47	48	394	0.4	393	394	15.0	85.3
2022-10-14T08:24	10	47	0.4	46	47	394	0.3	393	395	15.0	86.1
2022-10-14T08:25	10	45	0.3	45	46	394	0.5	393	395	14.9	85.6
2022-10-14T08:26	10	45	0.2	44	45	394	0.4	394	395	15.0	85.9
2022-10-14T08:27	10	44	0.3	43	44	394	0.5	393	395	15.0	85.3
2022-10-14T08:28	10	42	0.6	41	43	392	0.4	392	394	15.0	84.3
2022-10-14T08:29	10	40	0.5	40	41	392	0.4	391	392	15.0	84.4
2022-10-14T08:30	10	40	0.1	39	40	392	0.3	391	392	15.0	85.1
2022-10-14T08:31	10	40	0.4	40	41	392	0.3	391	393	15.1	85.2
2022-10-14T08:32	10	42	0.7	41	43	392	0.3	391	393	15.1	84.6
2022-10-14T08:33	10	44	0.2	43	44	393	0.4	392	393	15.1	84.4
2022-10-14T08:34	10	43	0.6	42	44	393	0.4	392	393	15.1	84.2
2022-10-14T08:35	10	41	0.7	40	42	393	0.3	392	393	15.1	84.4
2022-10-14T08:36	10	39	0.4	38	39	392	0.3	391	393	15.1	84.1
2022-10-14T08:37	10	39	0.2	38	39	392	0.2	391	392	15.1	84.4
2022-10-14T08:38	10	40	0.4	39	40	392	0.2	391	392	15.1	84.2
2022-10-14T08:39	10	41	0.2	41	41	392	0.5	392	394	15.1	84.2
2022-10-14T08:40	10	42	0.2	41	42	393	0.3	393	394	15.1	84.0
2022-10-14T08:41	10	42	0.2	41	42	393	0.3	393	394	15.1	84.6
2022-10-14T08:42	10	40	0.8	39	41	394	0.2	393	394	15.1	84.8
2022-10-14T08:43	10	37	0.5	37	38	394	0.5	393	395	15.2	85.2
2022-10-14T08:44	10	37	0.4	37	38	393	0.3	392	394	15.2	84.4
2022-10-14T08:45	10	38	0.3	38	39	392	0.5	391	393	15.3	83.3
2022-10-14T08:46	10	36	1.2	33	38	392	0.3	391	393	15.2	83.3
2022-10-14T08:47	10	32	0.9	30	34	393	0.4	391	393	15.2	83.2
2022-10-14T08:48	10	31	0.3	30	31	392	0.2	392	393	15.2	83.8
2022-10-14T08:49	10	30	0.8	29	31	393	0.4	392	393	15.2	84.9
2022-10-14T08:50	10	28	0.3	27	29	392	0.6	390	393	15.2	84.4
2022-10-14T08:51	10	26	0.9	25	28	392	0.6	391	393	15.2	84.5
2022-10-14T08:52	10	24	0.4	23	25	391	0.5	390	392	15.3	83.7
2022-10-14T08:53	10	23	0.2	23	24	390	0.6	389	392	15.2	84.0
2022-10-14T08:54	10	24	0.6	23	25	391	0.8	389	392	15.2	84.1
2022-10-14T08:55	10	27	1.1	25	29	391	0.4	390	392	15.2	84.7
2022-10-14T08:56	10	32	1.1	29	33	393	0.8	392	394	15.2	85.3
2022-10-14T08:57	10	33	0.2	33	33	394	0.5	393	394	15.3	85.1
2022-10-14T08:58	10	33	0.4	33	34	393	0.3	392	393	15.3	83.6
2022-10-14T08:59	10	32	1.0	30	34	393	0.3	392	393	15.4	82.6
2022-10-14T09:00	10	30	0.5	30	32	392	0.4	391	393	15.3	82.9
2022-10-14T09:01	10	33	0.5	31	33	392	0.4	391	392	15.3	83.0
2022-10-14T09:02	10	31	0.8	30	33	392	0.3	391	393	15.3	83.2
2022-10-14T09:03	10	31	0.3	30	31	391	0.4	390	392	15.2	83.1
2022-10-14T09:04	10	30	1.0	28	31	391	0.3	391	392	15.2	83.3
2022-10-14T09:05	10	26	1.0	25	28	390	0.4	389	391	15.2	82.9
2022-10-14T09:06	10	25	0.3	25	26	390	0.5	389	391	15.2	83.2
2022-10-14T09:07	10	26	0.3	26	27	389	0.3	389	390	15.2	82.9
2022-10-14T09:08	10	28	0.7	27	29	390	0.4	389	391	15.2	83.0
2022-10-14T09:09	10	30	0.6	29	31	390	0.4	389	391	15.2	83.2
2022-10-14T09:10	10	31	0.3	31	32	391	0.6	391	393	15.2	84.3
2022-10-14T09:11	10	32	0.2	31	32	392	0.3	391	392	15.2	83.8
2022-10-14T09:12	10	32	0.2	32	33	391	0.4	390	392	15.3	82.6
2022-10-14T09:13	10	32	0.1	32	32	391	0.3	390	392	15.3	83.2
2022-10-14T09:14	10	31	0.3	30	32	391	0.6	389	392	15.3	82.6
2022-10-14T09:15	10	30	0.1	30	30	391	0.5	390	392	15.3	82.7
2022-10-14T09:16	10	31	0.2	30	31	392	0.3	391	393	15.3	83.0
2022-10-14T09:17	10	31	0.2	31	32	392	0.3	392	393	15.3	83.3
2022-10-14T09:18	10	32	0.2	31	32	392	0.4	391	393	15.4	83.1
2022-10-14T09:19	10	32	0.2	32	32	392	0.4	391	393	15.4	82.4
2022-10-14T09:20	10	32	0.1	31	32	392	0.3	391	393	15.4	82.4
2022-10-14T09:21	10	32	0.1	32	33	392	0.4	391	393	15.4	82.3
2022-10-14T09:22	10	33	0.4	32	34	392	0.4	391	393	15.4	82.8
2022-10-14T09:23	10	34	0.3	34	35	393	0.3	393	394	15.4	83.0
2022-10-14T09:24	10	36	0.4	35	36	393	0.3	392	394	15.4	82.4
2022-10-14T09:25	10	38	0.9	36	39	393	0.3	393	394	15.4	82.7
2022-10-14T09:26	10	42	1.5	39	45	394	0.3	393	395	15.4	82.1
2022-10-14T09:27	10	47	1.7	45	51	394	0.4	393	395	15.5	82.1
2022-10-14T09:28	10	53	1.4	51	56	394	0.7	393	396	15.5	81.6
2022-10-14T09:29	10	58	1.2	56	60	396	0.6	394	397	15.5	82.6
2022-10-14T09:30	10	63	2.1	60	67	396	0.3	395	397	15.6	82.1
2022-10-14T09:31	10	71	2.7	64	75	398	1.0	396	399	15.6	81.1
2022-10-14T09:32	10	61	1.6	59	64	399	0.5	397	399	15.7	82.6
2022-10-14T09:33	10	55	2.0	52	59	397	0.6	395	398	15.7	80.2
2022-10-14T09:34	10	50	0.8	49	52	396	0.2	395	396	15.7	79.4
2022-10-14T09:35	10	49	0.2	48	49	395	0.5	394	396	15.7	79.4
2022-10-14T09:36	10	49	0.4	48	50	394	0.3	394	395	15.7	78.9
2022-10-14T09:37	10	49	0.4	49	50	395	0.3	394	396	15.7	79.7
2022-10-14T09:38	10	51	0.7	50	52	394	1.1	392	396	15.7	78.2
2022-10-14T09:39	10	54	0.8	52	55	393	0.4	393	394	15.7	78.3
2022-10-14T09:40	10	57	0.9	56	59	394	0.6	393	395	15.7	78.6
2022-10-14T09:41	10	61	1.0	59	62	395	0.6	394	396	15.7	79.2
2022-10-14T09:42	10	62	0.4	61	63	396	0.6	394	397	15.7	78.9
2022-10-14T09:43	10	61	1.0	59	62	395	0.2	394	395	15.7	78.5
2022-10-14T09:44	10	57	1.1	55	59	395	0.3	395	396	15.7	79.4
2022-10-14T09:45	10	53	1.0	52	55	394	0.4	394	396	15.7	78.8
2022-10-14T09:46	10	51	0.5	50	52	393	1.0	392	395	15.7	78.4
2022-10-14T09:47	10	50	0.3	50	51	392	0.4	391	393	15.7	78.1
2022-10-14T09:48	10	51	0.2	51	52	393	0.4	392	394	15.7	78.1
2022-10-14T09:49	10	53	0.4	52	54	393	0.5	392	394	15.6	78.4
2022-10-14T09:50	10	55	0.8	54	56	394	0.3	393	395	15.7	78.7
2022-10-14T09:51	10	59	1.6	56	61	395	0.7	393	396	15.7	78.8
2022-10-14T09:52	10	61	0.9	60	63	396	0.7	394	397	15.7	79.5
2022-10-14T09:53	10	62	1.0	59	63	396	0.4	395	396	15.7	78.5
2022-10-14T09:54	10	59	0.9	58	61	395	1.3	393	398	15.7	78.6
2022-10-14T09:55	10	58	0.7	56	60	395	0.7	394	397	15.7	78.4
2022-10-14T09:56	10	55	0.7	54	56	395	0.5	394	396	15.7	78.7
2022-10-14T09:57	10	55	0.8	54	57	395	0.8	393	396	15.7	79.1
2022-10-14T09:58	10	59	1.0	57	61	396	0.4	395	396	15.7	79.3
2022-10-14T09:59	10	64	2.7	61	70	395	0.4	394	396	15.7	78.7
2022-10-14T10:00	10	71	0.8	70	72	396	0.6	394	397	15.7	78.4
2022-10-14T10:01	10	73	1.0	71	74	397	0.9	394	398	15.7	78.8
2022-10-14T10:02	10	76	0.9	74	77	397	0.7	394	398	15.7	78.3
2022-10-14T10:03	10	73	1.5	72	76	397	0.8	395	398	15.8	78.3
2022-10-14T10:04	10	71	0.4	70	72	396	0.9	395	398	15.8	77.8
2022-10-14T10:05	10	71	0.5	70	71	396	0.3	396	397	15.8	77.8
2022-10-14T10:06	10	69	0.9	67	70	396	0.6	395	398	15.8	77.7
2022-10-14T10:07	10	64	1.3	62	67	396	1.2	394	399	15.9	78.1
2022-10-14T10:08	10	61	0.8	60	62	396	0.5	395	397	15.9	78.2
2022-10-14T10:09	10	59	0.4	59	60	395	0.5	394	396	15.9	77.6
2022-10-14T10:10	10	58	0.2	58	59	395	1.9	392	398	15.8	77.3
2022-10-14T10:11	10	57	0.5	56	58	394	0.7	393	395	15.8	77.2
2022-10-14T10:12	10	55	0.7	54	56	396	0.5	394	396	15.8	78.2
2022-10-14T10:13	10	52	0.9	50	53	396	0.5	394	397	15.9	78.6
2022-10-14T10:14	10	49	0.5	48	50	396	0.4	395	397	15.9	78.8
2022-10-14T10:15	10	49	0.5	48	50	396	0.5	395	397	15.9	79.2
2022-10-14T10:16	10	49	0.4	49	50	395	0.7	394	396	15.9	78.5
2022-10-14T10:17	10	48	0.2	48	49	396	0.5	395	397	15.9	79.0
2022-10-14T10:18	10	48	0.1	47	48	396	0.7	394	396	15.9	78.1
2022-10-14T10:19	10	49	0.7	48	50	396	0.4	395	397	15.9	78.7
2022-10-14T10:20	10	53	1.4	50	55	396	0.3	396	397	15.9	78.6
2022-10-14T10:21	10	57	1.3	55	59	396	0.4	395	397	15.9	77.6
2022-10-14T10:22	10	61	0.8	59	61	397	0.5	396	398	16.0	77.3
2022-10-14T10:23	10	61	0.8	60	63	397	1.1	394	398	16.0	77.8
2022-10-14T10:24	10	64	0.3	63	64	397	0.5	395	398	16.0	77.3
2022-10-14T10:25	10	61	1.1	60	63	396	1.4	393	398	16.0	76.3
2022-10-14T10:26	10	59	0.5	58	59	396	1.0	394	397	16.0	76.9
2022-10-14T10:27	10	58	0.1	58	58	396	0.5	395	396	16.0	76.9
2022-10-14T10:28	10	59	0.7	58	60	396	0.6	395	397	16.0	76.6
2022-10-14T10:29	10	62	0.9	60	64	396	0.6	395	397	16.0	76.7
2022-10-14T10:30	10	64	0.3	64	65	397	0.6	396	398	16.0	77.1
2022-10-14T10:31	10	64	0.4	63	64	398	0.3	397	399	16.0	78.0
2022-10-14T10:32	10	62	0.6	61	63	398	0.7	395	399	16.0	77.6
2022-10-14T10:33	10	60	0.7	58	61	397	0.6	395	398	16.0	76.8
2022-10-14T10:34	10	57	0.6	56	58	397	0.7	395	398	16.0	77.5
2022-10-14T10:35	10	56	0.3	56	57	397	0.3	396	398	16.1	78.0
2022-10-14T10:36	10	55	0.4	54	56	397	0.7	395	398	16.1	77.6
2022-10-14T10:37	10	54	0.3	53	54	396	0.3	395	397	16.1	76.9
2022-10-14T10:38	10	53	0.1	53	54	395	0.6	394	396	16.0	76.3
2022-10-14T10:39	10	53	0.1	53	53	395	0.8	393	396	16.0	76.7
2022-10-14T10:40	10	53	0.1	53	53	396	0.9	394	397	16.0	77.5
2022-10-14T10:41	10	53	0.1	53	53	396	0.7	395	397	16.0	77.4
2022-10-14T10:42	10	53	0.1	53	53	396	0.5	395	397	16.0	77.3
2022-10-14T10:43	10	53	0.1	52	53	396	0.4	396	397	16.0	77.2
2022-10-14T10:44	10	52	0.5	51	53	397	0.4	396	398	16.0	77.6
2022-10-14T10:45	10	50	0.6	49	51	397	0.5	396	398	16.1	78.2
2022-10-14T10:46	10	47	1.1	45	49	397	0.6	395	398	16.1	78.6
2022-10-14T10:47	10	43	1.1	41	45	396	0.9	394	397	16.1	77.5
2022-10-14T10:48	10	40	0.9	38	41	395	0.9	393	396	16.0	77.2
2022-10-14T10:49	10	38	0.5	37	38	395	0.5	394	396	16.0	77.4
2022-10-14T10:50	10	36	0.2	36	37	394	1.2	392	396	16.0	76.4
2022-10-14T10:51	10	36	0.1	35	36	394	0.5	392	394	16.0	76.9
2022-10-14T10:52	10	36	0.4	36	37	394	0.4	393	395	16.0	77.7
2022-10-14T10:53	10	38	0.8	37	40	393	0.7	392	394	16.0	76.3
2022-10-14T10:54	10	41	0.8	40	42	394	0.6	392	395	16.0	76.8
2022-10-14T10:55	10	43	0.6	42	44	394	0.3	394	395	16.0	77.0
2022-10-14T10:56	10	45	0.4	44	46	393	1.0	392	396	16.0	76.1
2022-10-14T10:57	10	46	0.2	45	46	394	1.0	392	395	16.0	76.3
2022-10-14T10:58	10	46	0.2	46	47	394	0.5	393	395	16.0	76.9
2022-10-14T10:59	10	47	0.1	46	47	395	0.6	393	395	16.0	77.3
2022-10-14T11:00	10	47	0.1	47	47	395	0.4	393	396	16.0	77.2
2022-10-14T11:01	10	47	0.1	47	47	395	0.5	394	396	16.0	77.0
2022-10-14T11:02	10	48	0.1	47	48	395	1.2	392	396	16.1	77.1
2022-10-14T11:03	10	47	0.2	47	48	395	0.7	394	396	16.1	77.7
2022-10-14T11:04	10	47	0.3	46	47	395	0.5	394	396	16.1	76.9
2022-10-14T11:05	10	46	0.2	46	47	396	0.6	395	397	16.1	77.4
2022-10-14T11:06	10	48	0.4	47	48	396	0.5	395	397	16.1	77.7
2022-10-14T11:07	10	49	0.3	48	49	396	0.4	395	397	16.1	77.5
2022-10-14T11:08	10	49	0.2	49	50	396	0.5	395	397	16.1	76.9
2022-10-14T11:09	10	50	0.3	49	51	395	0.3	394	396	16.1	76.6
2022-10-14T11:10	10	51	0.3	50	51	395	0.3	395	396	16.1	77.0
2022-10-14T11:11	10	52	0.3	51	52	396	0.3	395	396	16.2	76.8
2022-10-14T11:12	10	53	0.2	52	53	396	0.4	395	396	16.2	76.5
2022-10-14T11:13	10	53	0.3	53	54	396	0.3	395	396	16.2	76.8
2022-10-14T11:14	10	55	0.4	54	56	396	0.6	396	398	16.2	77.1
2022-10-14T11:15	10	56	0.4	55	57	397	0.7	396	398	16.3	77.0
2022-10-14T11:16	10	58	0.6	57	59	398	0.4	397	399	16.3	77.3
2022-10-14T11:17	10	60	0.6	59	61	398	0.5	397	399	16.3	76.7
2022-10-14T11:18	10	63	0.9	61	64	398	0.4	397	399	16.3	76.3
2022-10-14T11:19	10	66	1.2	64	68	398	0.4	397	398	16.3	76.1
2022-10-14T11:20	10	70	1.2	68	72	398	0.8	397	400	16.3	76.0
2022-10-14T11:21	10	74	1.1	72	76	400	1.0	398	401	16.3	76.4
2022-10-14T11:22	10	78	1.1	76	79	401	0.6	400	402	16.4	76.9
2022-10-14T11:23	10	80	0.4	79	81	401	0.7	400	402	16.4	76.3
2022-10-14T11:24	10	81	0.1	81	81	401	0.6	400	402	16.4	75.5
2022-10-14T11:25	10	80	0.3	80	81	401	0.4	400	402	16.5	75.4
2022-10-14T11:26	10	79	0.7	78	80	401	0.3	400	402	16.5	75.7
2022-10-14T11:27	10	76	0.7	75	78	401	0.4	400	402	16.5	75.4
2022-10-14T11:28	10	74	0.4	74	75	401	0.7	400	402	16.5	75.6
2022-10-14T11:29	10	72	1.4	70	74	401	0.6	400	402	16.5	75.7
2022-10-14T11:30	10	69	0.2	69	69	401	0.6	400	402	16.5	75.2
2022-10-14T11:31	10	66	1.4	64	69	401	0.4	400	401	16.6	74.9
2022-10-14T11:32	10	63	0.8	61	64	400	0.4	400	401	16.6	75.0
2022-10-14T11:33	10	59	1.6	56	61	400	0.7	398	401	16.6	74.4
2022-10-14T11:34	10	54	1.4	51	56	398	0.9	397	400	16.6	74.3
2022-10-14T11:35	10	49	1.0	48	51	397	0.7	396	399	16.6	73.9
2022-10-14T11:36	10	47	0.2	47	48	398	0.6	396	399	16.6	74.8
2022-10-14T11:37	10	48	0.4	47	49	398	0.5	397	399	16.6	75.4
2022-10-14T11:38	10	49	0.5	49	50	398	0.4	397	399	16.5	75.1
2022-10-14T11:39	10	51	0.7	50	53	399	0.8	398	400	16.6	75.6
2022-10-14T11:40	10	54	0.8	53	56	400	0.7	398	401	16.6	75.9
2022-10-14T11:41	10	56	0.4	56	57	399	0.6	398	400	16.6	76.0
2022-10-14T11:42	10	56	0.3	56	57	399	0.3	398	400	16.6	75.5
2022-10-14T11:43	10	56	0.2	56	57	400	0.6	399	402	16.6	76.2
2022-10-14T11:44	10	58	1.0	57	60	400	1.0	398	402	16.6	75.6
2022-10-14T11:45	10	60	0.8	59	61	400	0.4	399	400	16.5	74.6
2022-10-14T11:46	10	55	3.0	51	60	400	0.8	398	401	16.5	75.4
2022-10-14T11:47	10	47	1.6	45	51	398	0.8	396	399	16.5	74.3
2022-10-14T11:48	10	43	0.9	42	45	398	0.4	397	399	16.5	74.8
2022-10-14T11:49	10	40	1.0	39	42	397	0.4	396	398	16.5	74.7
2022-10-14T11:50	10	37	0.7	36	39	398	1.1	395	399	16.5	75.7
2022-10-14T11:51	10	35	0.4	35	36	396	0.4	395	397	16.4	74.9
2022-10-14T11:52	10	35	0.3	35	36	396	0.6	394	397	16.4	75.2
2022-10-14T11:53	10	38	1.3	36	40	395	0.6	394	397	16.4	75.2
2022-10-14T11:54	10	44	1.6	41	46	396	1.0	394	398	16.4	75.9
2022-10-14T11:55	10	48	1.0	46	49	396	1.1	394	398	16.4	75.8
2022-10-14T11:56	10	51	0.6	49	52	397	1.1	394	398	16.4	75.3
2022-10-14T11:57	10	52	0.3	52	53	397	0.6	396	398	16.4	75.1
2022-10-14T11:58	10	53	0.3	53	54	398	0.7	396	398	16.4	75.2
2022-10-14T11:59	10	55	0.6	54	56	397	0.6	396	399	16.4	74.9
2022-10-14T12:00	10	55	0.3	54	55	398	0.5	397	399	16.4	76.2
2022-10-14T12:01	10	55	0.2	54	55	398	1.2	396	400	16.5	75.5
2022-10-14T12:02	10	55	0.2	55	56	397	0.5	396	398	16.5	75.1
2022-10-14T12:03	10	57	0.4	56	57	398	0.7	397	399	16.5	75.6
2022-10-14T12:04	10	58	0.9	57	60	398	0.6	397	399	16.5	75.6
2022-10-14T12:05	10	60	0.8	59	61	399	0.9	397	400	16.5	75.8
2022-10-14T12:06	10	61	0.2	60	61	399	0.6	398	400	16.5	75.9
2022-10-14T12:07	10	60	0.4	59	61	399	0.3	398	399	16.5	75.4
2022-10-14T12:08	10	59	0.4	58	59	399	0.6	397	400	16.5	75.8
2022-10-14T12:09	10	57	0.5	56	58	398	0.6	397	400	16.6	75.0
2022-10-14T12:10	10	55	0.4	54	56	399	0.6	398	400	16.5	75.4
2022-10-14T12:11	10	54	0.5	53	55	399	0.4	398	399	16.6	75.6
2022-10-14T12:12	10	51	0.7	50	53	399	0.4	398	400	16.6	76.0
2022-10-14T12:13	10	49	0.6	48	50	399	0.9	397	400	16.6	76.0
2022-10-14T12:14	10	47	0.5	47	48	397	0.2	397	398	16.6	75.9
2022-10-14T12:15	10	46	0.3	45	47	397	1.0	396	399	16.6	75.8
2022-10-14T12:16	10	45	0.2	45	46	397	0.5	396	398	16.6	75.7
2022-10-14T12:17	10	45	0.2	45	45	396	0.8	394	398	16.6	75.9
2022-10-14T12:18	10	45	0.2	45	45	397	0.6	395	398	16.6	76.6
2022-10-14T12:19	10	44	0.2	44	45	397	0.6	395	398	16.5	76.3
2022-10-14T12:20	10	44	0.3	43	44	397	0.3	396	398	16.5	77.1
2022-10-14T12:21	10	43	0.1	43	44	397	0.4	396	398	16.5	76.5
2022-10-14T12:22	10	43	0.1	43	43	397	0.8	395	398	16.5	76.2
2022-10-14T12:23	10	43	0.1	43	43	397	0.4	396	398	16.6	76.5
2022-10-14T12:24	10	43	0.1	43	43	397	0.3	396	398	16.6	76.9
2022-10-14T12:25	10	43	0.2	42	43	398	0.5	396	399	16.6	76.7
2022-10-14T12:26	10	42	0.2	42	42	398	0.2	398	399	16.6	76.9
2022-10-14T12:27	10	42	0.2	41	42	398	0.3	397	399	16.6	76.7
2022-10-14T12:28	10	41	0.2	41	42	398	0.3	397	398	16.6	76.2
2022-10-14T12:29	10	41	0.2	40	41	397	0.2	397	398	16.6	76.1
2022-10-14T12:30	10	40	0.2	40	40	398	0.5	396	398	16.6	76.6
2022-10-14T12:31	10	39	0.2	39	40	397	0.3	396	397	16.6	76.0
2022-10-14T12:32	10	39	0.2	38	39	397	0.6	396	398	16.6	77.0
2022-10-14T12:33	10	38	0.2	37	38	397	0.5	396	398	16.6	76.3
2022-10-14T12:34	10	37	0.2	36	37	397	0.3	396	397	16.7	76.2
2022-10-14T12:35	10	36	0.2	36	37	396	0.5	395	397	16.7	75.5
2022-10-14T12:36	10	36	0.1	36	36	396	0.3	395	396	16.6	75.9
2022-10-14T12:37	10	35	0.2	35	36	397	0.5	396	397	16.6	76.5
2022-10-14T12:38	10	35	0.2	34	35	396	0.4	395	397	16.7	76.1
2022-10-14T12:39	10	34	0.1	34	34	396	0.5	395	397	16.6	76.9
2022-10-14T12:40	10	34	0.1	34	35	396	0.4	395	397	16.7	75.7
2022-10-14T12:41	10	35	0.1	35	35	396	0.4	395	397	16.7	75.4
2022-10-14T12:42	10	35	0.1	35	35	396	0.8	395	398	16.7	75.8
2022-10-14T12:43	10	35	0.1	35	35	397	0.5	396	398	16.7	76.5
2022-10-14T12:44	10	35	0.1	35	35	397	0.3	396	397	16.7	76.1
2022-10-14T12:45	10	35	0.1	35	35	396	0.3	396	397	16.7	75.8
2022-10-14T12:46	10	35	0.1	34	35	397	0.4	396	397	16.7	75.9
2022-10-14T12:47	10	34	0.2	34	34	397	0.6	396	398	16.7	76.1
2022-10-14T12:48	10	34	0.2	33	34	397	0.3	396	398	16.7	76.6
2022-10-14T12:49	10	33	0.3	32	33	397	0.4	397	398	16.7	76.6
2022-10-14T12:50	10	32	0.3	31	32	397	0.4	396	398	16.7	76.3
2022-10-14T12:51	10	31	0.3	30	31	397	0.4	396	398	16.8	75.9
2022-10-14T12:52	10	30	0.2	30	30	397	0.4	397	398	16.8	76.1
2022-10-14T12:53	10	30	0.1	29	30	397	0.4	397	398	16.8	76.3
2022-10-14T12:54	10	29	0.1	29	29	397	0.3	396	398	16.8	76.2
2022-10-14T12:55	10	29	0.1	29	29	397	0.3	396	397	16.8	76.3
2022-10-14T12:56	10	29	0.1	29	29	397	0.4	396	398	16.8	76.4
2022-10-14T12:57	10	29	0.1	29	29	397	0.3	396	398	16.8	76.3
2022-10-14T12:58	10	29	0.1	28	29	397	0.3	396	397	16.8	76.4
2022-10-14T12:59	10	28	0.1	28	29	396	0.6	396	398	16.8	76.4
2022-10-14T13:00	10	28	0.2	28	28	396	0.2	396	397	16.8	75.7
2022-10-14T13:01	10	27	0.3	27	28	396	0.2	396	397	16.8	76.0
2022-10-14T13:02	10	26	0.3	26	27	396	0.3	395	397	16.8	76.0
2022-10-14T13:03	10	26	0.2	25	26	396	0.3	395	397	16.8	75.9
2022-10-14T13:04	10	25	0.1	25	26	396	0.3	396	397	16.8	76.1
2022-10-14T13:05	10	26	0.1	25	26	396	0.2	396	397	16.8	76.0
2022-10-14T13:06	10	26	0.1	26	26	396	0.3	396	397	16.8	76.6
2022-10-14T13:07	10	26	0.1	26	26	397	0.3	396	397	16.8	76.5
2022-10-14T13:08	10	26	0.2	26	27	396	0.3	396	397	16.8	76.6
2022-10-14T13:09	10	27	0.2	27	27	397	0.4	396	397	16.8	76.7
2022-10-14T13:10	10	27	0.2	27	28	396	0.3	396	397	16.8	76.0
2022-10-14T13:11	10	28	0.2	28	28	397	0.2	396	397	16.8	76.3
2022-10-14T13:12	10	29	0.2	28	29	396	0.3	396	397	16.8	76.2
2022-10-14T13:13	10	29	0.3	29	30	397	0.5	396	398	16.8	76.9
2022-10-14T13:14	10	30	0.3	30	31	397	0.3	396	397	16.8	76.9
2022-10-14T13:15	10	31	0.3	31	32	397	0.8	396	398	16.8	77.0
2022-10-14T13:16	10	32	0.1	32	32	397	0.4	396	398	16.9	75.1
2022-10-14T13:17	10	32	0.1	32	32	397	0.3	396	398	16.9	75.3
2022-10-14T13:18	10	32	0.2	31	32	397	0.3	396	398	16.9	75.5
2022-10-14T13:19	10	31	0.2	31	32	397	0.3	396	397	16.9	75.6
2022-10-14T13:20	10	31	0.1	31	31	397	0.2	396	398	16.9	76.0
2022-10-14T13:21	10	31	0.1	31	31	397	0.4	396	398	16.9	76.0
2022-10-14T13:22	10	32	0.2	31	32	397	0.4	396	398	16.9	75.7
2022-10-14T13:23	10	32	0.2	32	32	398	0.3	397	398	16.9	76.3
2022-10-14T13:24	10	33	0.1	32	33	397	0.2	397	398	16.9	76.7
2022-10-14T13:25	10	33	0.1	33	33	397	0.3	396	398	16.9	76.5
2022-10-14T13:26	10	33	0.1	33	33	397	0.2	396	397	16.9	76.1
2022-10-14T13:27	10	33	0.1	33	33	398	0.2	397	398	16.9	76.9
2022-10-14T13:28	10	33	0.2	32	33	397	0.4	396	398	16.9	76.4
2022-10-14T13:29	10	32	0.3	31	32	397	0.3	397	398	16.9	76.5
2022-10-14T13:30	10	30	0.4	30	31	398	0.3	397	398	16.9	77.2
2022-10-14T13:31	10	29	0.3	29	30	397	0.2	396	397	16.9	77.0
2022-10-14T13:32	10	28	0.3	28	29	396	0.4	395	397	16.9	77.2
2022-10-14T13:33	10	28	0.2	27	28	396	0.2	396	397	16.9	76.4
2022-10-14T13:34	10	27	0.1	27	27	396	0.4	395	396	16.9	76.7
2022-10-14T13:35	10	27	0.1	27	27	395	0.3	394	396	16.9	77.2
2022-10-14T13:36	10	27	0.2	26	27	395	0.8	393	396	16.9	75.8
2022-10-14T13:37	10	26	0.3	25	26	394	0.3	394	395	16.9	74.2
2022-10-14T13:38	10	25	0.2	24	25	394	0.5	393	395	16.9	74.7
2022-10-14T13:39	10	24	0.1	24	24	395	0.4	394	396	16.8	75.7
2022-10-14T13:40	10	24	0.3	23	24	395	0.4	394	395	16.8	76.3
2022-10-14T13:41	10	23	0.3	22	24	395	0.3	394	396	16.8	77.2
2022-10-14T13:42	10	22	0.5	21	22	395	0.3	395	396	16.7	78.1
2022-10-14T13:43	10	20	0.4	19	21	395	0.2	394	396	16.7	78.1
2022-10-14T13:44	10	20	0.5	19	21	394	0.4	394	395	16.7	78.3
2022-10-14T13:45	10	22	0.5	21	23	394	0.4	393	395	16.7	78.4
2022-10-14T13:46	10	23	0.2	23	23	395	0.3	394	395	16.6	78.9
2022-10-14T13:47	10	23	0.1	23	23	395	0.4	394	396	16.6	79.3
2022-10-14T13:48	10	23	0.1	23	24	395	0.4	394	396	16.6	78.9
2022-10-14T13:49	10	24	0.2	24	24	394	0.4	393	395	16.6	78.6
2022-10-14T13:50	10	24	0.1	24	24	394	0.3	393	394	16.6	78.6
2022-10-14T13:51	10	24	0.1	24	24	394	0.2	393	394	16.6	78.6
2022-10-14T13:52	10	24	0.1	24	24	394	0.3	393	395	16.5	78.9
2022-10-14T13:53	10	24	0.2	23	24	394	0.3	394	395	16.5	79.7
2022-10-14T13:54	10	23	0.2	23	23	394	0.3	394	395	16.5	79.6
2022-10-14T13:55	10	22	0.1	22	23	394	0.7	392	395	16.5	78.9
2022-10-14T13:56	10	22	0.1	22	23	394	0.5	393	395	16.5	79.4
2022-10-14T13:57	10	23	0.6	22	24	394	0.4	393	395	16.4	80.9
2022-10-14T13:58	10	24	0.1	24	25	395	0.2	394	395	16.5	80.2
2022-10-14T13:59	10	24	0.2	24	24	394	0.3	393	395	16.4	79.9
2022-10-14T14:00	10	25	0.7	24	27	394	0.3	393	395	16.4	80.3
2022-10-14T14:01	10	27	0.3	26	28	394	0.5	393	395	16.5	79.9
2022-10-14T14:02	10	28	0.1	27	28	394	0.3	394	395	16.5	79.7
2022-10-14T14:03	10	27	0.1	27	27	394	0.4	393	395	16.5	80.0
2022-10-14T14:04	10	27	0.1	27	27	394	0.2	394	395	16.5	80.0
2022-10-14T14:05	10	27	0.1	26	27	394	0.4	393	395	16.4	80.4
2022-10-14T14:06	10	27	0.1	26	27	394	0.4	393	395	16.4	80.6
2022-10-14T14:07	10	27	0.1	27	27	394	0.3	394	395	16.4	80.7
2022-10-14T14:08	10	27	0.1	27	27	394	0.2	394	394	16.4	80.1
2022-10-14T14:09	10	26	0.2	26	27	395	0.2	394	395	16.4	81.1
2022-10-14T14:10	10	26	0.3	25	26	395	0.3	394	396	16.4	81.6
2022-10-14T14:11	10	25	0.3	24	25	394	0.4	393	395	16.4	81.5
2022-10-14T14:12	10	23	0.3	23	24	394	0.3	394	395	16.4	81.0
2022-10-14T14:13	10	22	0.3	22	23	394	0.4	393	395	16.4	81.0
2022-10-14T14:14	10	21	0.2	21	22	394	0.3	393	394	16.4	80.8
2022-10-14T14:15	10	20	0.2	20	21	394	0.2	393	394	16.3	81.2
2022-10-14T14:16	10	20	0.2	20	20	393	0.3	393	394	16.3	81.3
2022-10-14T14:17	10	20	0.1	19	20	393	0.3	392	394	16.3	80.9
2022-10-14T14:18	10	19	0.1	19	20	393	0.3	392	393	16.3	81.0
2022-10-14T14:19	10	20	0.1	19	20	393	0.2	392	393	16.3	81.3
2022-10-14T14:20	10	20	0.1	20	20	393	0.5	392	394	16.3	81.0
2022-10-14T14:21	10	20	0.1	20	20	393	0.3	392	394	16.2	82.4
2022-10-14T14:22	10	20	0.1	20	21	393	0.8	391	394	16.2	82.7
2022-10-14T14:23	10	21	0.1	20	21	393	0.3	393	394	16.2	82.5
2022-10-14T14:24	10	21	0.1	21	21	393	0.3	393	394	16.3	81.9
2022-10-14T14:25	10	21	0.2	21	22	393	0.4	392	393	16.3	81.8
2022-10-14T14:26	10	22	0.3	22	23	393	0.3	392	394	16.2	82.7
2022-10-14T14:27	10	23	0.2	22	23	393	0.4	392	394	16.2	82.5
2022-10-14T14:28	10	23	0.1	23	23	393	0.4	392	394	16.2	82.6
2022-10-14T14:29	10	23	0.2	22	23	393	0.3	392	394	16.2	82.5
2022-10-14T14:30	10	21	0.5	21	22	393	0.3	392	394	16.2	82.7
2022-10-14T14:31	10	20	0.4	19	21	393	0.3	392	394	16.2	83.1
2022-10-14T14:32	10	19	0.3	18	19	393	0.3	392	394	16.1	83.8
2022-10-14T14:33	10	18	0.2	18	19	393	0.3	392	393	16.1	83.6
2022-10-14T14:34	10	18	0.1	17	18	392	0.6	391	393	16.2	82.6
2022-10-14T14:35	10	17	0.1	17	18	392	0.5	391	393	16.3	81.9
2022-10-14T14:36	10	17	0.1	17	17	392	0.3	391	393	16.2	82.5
2022-10-14T14:37	10	16	0.2	16	17	392	0.3	391	392	16.2	82.7
2022-10-14T14:38	10	16	0.3	15	16	392	0.2	391	392	16.2	82.7
2022-10-14T14:39	10	15	0.2	14	15	392	0.2	391	392	16.2	82.9
2022-10-14T14:40	10	14	0.2	14	15	392	0.3	391	392	16.1	83.1
2022-10-14T14:41	10	13	0.3	13	14	391	0.3	391	392	16.2	83.0
2022-10-14T14:42	10	12	0.2	12	13	391	0.2	391	392	16.1	83.5
2022-10-14T14:43	10	12	0.2	11	12	391	0.3	390	392	16.1	83.8
2022-10-14T14:44	10	11	0.1	11	11	391	0.2	391	392	16.1	83.7
2022-10-14T14:45	10	11	0.1	11	11	391	0.2	390	391	16.1	83.6
2022-10-14T14:46	10	11	0.1	10	11	391	0.4	390	391	16.1	83.3
2022-10-14T14:47	10	10	0.1	10	11	391	0.4	390	392	16.1	83.9
2022-10-14T14:48	10	11	0.1	10	11	391	0.4	390	392	16.0	84.1
2022-10-14T14:49	10	10	0.1	10	11	390	0.3	390	391	16.0	84.5
2022-10-14T14:50	10	10	0.1	10	11	390	0.3	390	391	16.0	84.3
2022-10-14T14:51	10	11	0.1	10	11	391	0.2	390	391	16.0	84.5
2022-10-14T14:52	10	10	0.1	10	11	391	0.3	390	391	16.0	84.7
2022-10-14T14:53	10	10	0.1	10	11	391	0.4	390	391	16.1	84.6
2022-10-14T14:54	10	10	0.1	10	11	390	0.2	390	391	16.0	84.6
2022-10-14T14:55	10	10	0.1	10	10	391	0.3	390	391	16.0	85.0
2022-10-14T14:56	10	10	0.1	9	10	391	0.3	390	391	16.0	85.3
2022-10-14T14:57	10	9	0.1	9	9	391	0.3	390	391	15.9	85.6
2022-10-14T14:58	10	9	0.1	9	9	391	0.4	390	391	15.9	86.1
2022-10-14T14:59	10	9	0.1	9	9	391	0.3	390	391	15.9	86.0
2022-10-14T15:00	10	9	0.1	8	9	390	0.4	389	391	16.0	85.3
2022-10-14T15:01	10	8	0.1	8	9	390	0.3	390	391	16.0	85.6
2022-10-14T15:02	10	8	0.1	8	8	390	0.3	389	391	16.1	84.6
2022-10-14T15:03	10	8	0.1	8	9	390	0.4	389	391	16.0	84.7
2022-10-14T15:04	10	8	0.1	8	9	390	0.3	389	390	16.1	84.3
2022-10-14T15:05	10	8	0.1	8	9	390	0.9	387	391	16.1	83.2
2022-10-14T15:06	10	8	0.1	8	9	389	0.4	388	390	16.1	82.9
2022-10-14T15:07	10	8	0.1	8	8	389	1.2	386	391	16.1	83.3
2022-10-14T15:08	10	8	0.1	8	8	389	0.4	388	390	16.1	83.0
2022-10-14T15:09	10	9	0.2	8	9	389	0.4	388	390	16.1	82.6
2022-10-14T15:10	10	9	0.1	9	9	389	0.4	388	390	16.0	83.1
2022-10-14T15:11	10	9	0.1	9	9	389	0.6	388	390	15.9	83.7
2022-10-14T15:12	10	9	0.1	9	9	389	0.3	389	390	15.9	83.9
2022-10-14T15:13	10	9	0.1	8	9	389	0.2	389	390	15.9	84.0
2022-10-14T15:14	10	8	0.1	8	9	389	1.8	385	391	16.0	83.5
2022-10-14T15:15	10	8	0.1	8	9	389	0.9	387	390	16.0	82.8
2022-10-14T15:16	10	9	0.1	8	9	388	0.5	387	389	16.0	82.7
2022-10-14T15:17	10	8	0.1	8	9	388	0.4	388	389	15.9	82.7
2022-10-14T15:18	10	8	0.1	8	8	388	1.2	385	390	15.9	83.0
2022-10-14T15:19	10	8	0.1	8	8	388	0.6	387	389	15.9	82.8
2022-10-14T15:20	10	8	0.1	8	8	388	0.4	387	389	15.9	83.3
2022-10-14T15:21	10	8	0.1	8	8	388	1.0	385	389	15.8	83.7
2022-10-14T15:22	10	8	0.1	7	8	388	0.8	386	389	15.8	83.6
2022-10-14T15:23	10	7	0.1	7	8	388	0.5	386	389	15.8	83.4
2022-10-14T15:24	10	7	0.1	7	7	387	0.5	386	388	15.8	83.5
2022-10-14T15:25	10	7	0.1	6	7	387	1.0	386	389	15.7	84.1
2022-10-14T15:26	10	6	0.2	6	7	388	0.6	386	389	15.7	84.7
2022-10-14T15:27	10	6	0.1	6	6	387	0.8	386	389	15.7	84.8
2022-10-14T15:28	10	6	0.1	5	6	387	0.3	387	388	15.7	84.5
2022-10-14T15:29	10	5	0.1	5	6	387	0.4	386	388	15.6	84.4
2022-10-14T15:30	10	5	0.1	5	6	387	0.4	386	388	15.6	85.1
2022-10-14T15:31	10	5	0.1	5	5	387	0.4	386	388	15.6	84.8
2022-10-14T15:32	10	5	0.1	5	5	387	0.5	386	388	15.6	84.6
2022-10-14T15:33	10	5	0.1	5	5	387	0.5	385	388	15.6	84.6
2022-10-14T15:34	10	5	0.1	5	5	386	0.5	385	387	15.5	85.0
2022-10-14T15:35	10	5	0.1	5	5	387	0.4	386	388	15.5	85.2
2022-10-14T15:36	10	5	0.1	5	5	387	0.5	385	387	15.6	84.9
2022-10-14T15:37	10	5	0.1	4	5	387	0.3	386	387	15.6	84.9
2022-10-14T15:38	10	5	0.1	5	5	387	0.5	385	388	15.5	85.1
2022-10-14T15:39	10	5	0.1	5	5	387	0.3	386	387	15.5	85.4
2022-10-14T15:40	10	5	0.1	5	5	387	0.4	386	387	15.5	85.2
2022-10-14T15:41	10	5	0.1	5	5	386	0.5	385	387	15.5	85.4
2022-10-14T15:42	10	5	0.1	5	5	387	0.5	385	387	15.5	85.5
2022-10-14T15:43	10	5	0.1	5	5	387	1.0	385	388	15.5	85.0
2022-10-14T15:44	10	5	0.1	5	5	386	1.1	384	388	15.5	84.4
2022-10-14T15:45	10	5	0.1	5	5	386	0.4	385	387	15.5	84.2
2022-10-14T15:46	10	5	0.1	5	5	386	0.6	385	387	15.5	83.5
2022-10-14T15:47	10	5	0.1	5	5	386	1.1	384	387	15.5	83.2
2022-10-14T15:48	10	5	0.1	5	5	386	0.5	384	387	15.4	83.5
2022-10-14T15:49	10	4	0.1	4	5	386	1.6	382	388	15.4	83.4
2022-10-14T15:50	10	4	0.1	4	4	385	0.6	384	386	15.4	82.6
2022-10-14T15:51	10	4	0.1	4	4	385	0.4	384	386	15.4	82.7
2022-10-14T15:52	10	4	0.1	4	5	385	0.3	385	386	15.3	83.2
2022-10-14T15:53	10	4	0.1	4	4	385	0.8	384	387	15.3	83.0
2022-10-14T15:54	10	4	0.1	4	4	385	0.3	384	386	15.3	82.7
2022-10-14T15:55	10	4	0.1	4	4	385	1.0	383	386	15.3	82.6
2022-10-14T15:56	10	4	0.1	4	4	384	0.4	383	385	15.3	82.2
2022-10-14T15:57	10	5	0.2	4	5	384	0.6	383	385	15.3	82.2
2022-10-14T15:58	10	5	0.1	5	5	384	0.7	383	386	15.2	82.6
2022-10-14T15:59	10	5	0.1	5	5	384	0.3	384	385	15.2	83.1
2022-10-14T16:00	10	6	0.1	5	6	384	0.3	384	385	15.2	83.1
2022-10-14T16:01	10	6	0.1	6	6	384	0.3	384	385	15.2	83.1
2022-10-14T16:02	10	6	0.1	6	6	384	0.4	384	386	15.2	82.8
2022-10-14T16:03	10	6	0.1	6	6	384	0.4	384	385	15.1	83.0
2022-10-14T16:04	10	6	0.1	5	6	384	0.7	383	385	15.2	82.9
2022-10-14T16:05	10	6	0.1	5	6	384	0.5	383	385	15.2	83.0
2022-10-14T16:06	10	5	0.1	5	6	384	0.4	383	385	15.2	83.0
2022-10-14T16:07	10	5	0.1	5	5	384	0.3	384	385	15.1	83.0
2022-10-14T16:08	10	5	0.1	5	5	384	0.2	384	385	15.1	83.6
2022-10-14T16:09	10	5	0.1	5	5	384	0.4	383	385	15.1	83.4
2022-10-14T16:10	10	5	0.1	4	5	384	0.4	383	385	15.1	82.7
2022-10-14T16:11	10	4	0.1	4	5	384	0.3	383	384	15.1	82.4
2022-10-14T16:12	10	4	0.1	4	4	384	0.8	383	385	15.1	82.9
2022-10-14T16:13	10	4	0.1	4	4	384	0.2	384	385	15.1	82.5
2022-10-14T16:14	10	4	0.1	3	4	384	1.0	382	386	15.1	81.6
2022-10-14T16:15	10	3	0.1	3	4	383	0.7	381	384	15.1	81.6
2022-10-14T16:16	10	3	0.1	3	4	383	0.4	382	384	15.1	81.7
2022-10-14T16:17	10	3	0.1	3	3	383	0.2	383	384	15.0	82.1
2022-10-14T16:18	10	3	0.1	3	3	383	0.2	383	384	15.0	81.8
2022-10-14T16:19	10	3	0.1	2	3	383	0.3	382	384	15.0	81.5
2022-10-14T16:20	10	3	0.1	2	3	383	0.3	383	384	15.0	81.3
2022-10-14T16:21	10	2	0.1	2	3	383	0.3	383	384	15.0	81.3
2022-10-14T16:22	10	2	0.1	2	2	383	1.0	381	384	15.0	80.8
2022-10-14T16:23	10	2	0.1	2	2	383	1.3	380	384	15.0	81.2
2022-10-14T16:24	10	2	0.1	2	2	383	0.4	382	384	15.0	81.3
2022-10-14T16:25	10	2	0.1	2	2	383	0.3	382	384	15.0	80.9
2022-10-14T16:26	10	2	0.1	2	2	383	0.3	382	383	15.0	80.7
2022-10-14T16:27	10	2	0.1	2	2	383	0.5	382	384	15.0	80.7
2022-10-14T16:28	10	2	0.1	2	2	382	0.6	381	383	15.0	80.7
2022-10-14T16:29	10	2	0.1	1	2	383	0.5	381	384	15.0	80.5
2022-10-14T16:30	10	2	0.1	2	2	382	0.2	382	383	15.0	80.6
2022-10-14T16:31	10	2	0.1	1	2	382	0.3	382	383	15.0	80.4
2022-10-14T16:32	10	2	0.1	1	2	382	0.3	382	383	14.9	80.8
2022-10-14T16:33	10	1	0.1	1	2	382	0.3	382	383	14.9	81.4
2022-10-14T16:34	10	1	0.1	1	1	382	0.3	382	383	14.9	81.6
2022-10-14T16:35	10	1	0.1	1	1	382	0.3	382	383	14.9	81.6
2022-10-14T16:36	10	1	0.1	0	1	382	0.5	381	383	14.8	81.8
2022-10-14T16:37	10	1	0.1	1	1	382	0.3	382	383	14.8	82.1
2022-10-14T16:38	10	1	0.1	1	1	382	0.2	382	383	14.9	81.7
2022-10-14T16:39	10	1	0.1	0	1	382	0.4	381	383	14.9	81.4
2022-10-14T16:40	10	1	0.1	0	1	382	0.4	381	383	14.9	80.7
2022-10-14T16:41	10	1	0.1	0	1	382	0.3	382	383	14.9	80.7
2022-10-14T16:42	10	0	0.1	0	1	382	0.2	382	383	14.9	80.7
2022-10-14T16:43	10	0	0.2	0	1	382	0.2	382	383	14.9	80.6
2022-10-14T16:44	10	0	0.1	0	1	382	0.3	381	383	14.8	81.2
2022-10-14T16:45	10	0	0.1	0	1	382	0.3	381	383	14.9	80.8
2022-10-14T16:46	10	0	0.1	0	0	382	0.3	382	383	14.9	80.9
2022-10-14T16:47	10	0	0.2	0	1	382	0.3	381	383	14.9	80.8
2022-10-14T16:48	10	0	0.1	0	0	382	0.3	381	383	14.8	81.2
2022-10-14T16:49	10	0	0.1	0	1	382	0.3	381	383	14.8	81.5
2022-10-14T16:50	10	0	0.1	0	1	382	0.2	381	382	14.9	81.3
2022-10-14T16:51	10	0	0.1	0	0	382	0.3	382	383	14.9	81.3
2022-10-14T16:52	10	0	0.2	0	1	382	0.4	381	382	14.8	81.5
2022-10-14T16:53	10	0	0.1	0	1	382	0.4	381	383	14.8	81.6
2022-10-14T16:54	10	0	0.1	0	0	382	0.3	381	383	14.8	81.9
2022-10-14T16:55	10	0	0.1	0	1	382	0.3	382	383	14.8	81.6
2022-10-14T16:56	10	0	0.1	0	0	382	0.6	381	383	14.8	81.6
2022-10-14T16:57	10	0	0.1	0	0	382	0.3	381	383	14.7	82.1
2022-10-14T16:58	10	0	0.1	0	0	382	0.3	381	382	14.8	82.0
2022-10-14T16:59	10	0	0.1	0	0	382	0.3	381	382	14.8	81.7
2022-10-14T17:00	10	0	0.1	0	1	382	0.3	382	383	14.8	81.8
2022-10-14T17:01	10	0	0.2	0	1	382	0.4	381	383	14.7	82.3
2022-10-14T17:02	10	0	0.1	0	0	382	0.4	380	383	14.9	81.7
2022-10-14T17:03	10	0	0.1	0	0	382	0.7	381	383	14.8	81.5
2022-10-14T17:04	10	0	0.1	0	0	382	0.3	381	382	14.8	81.9
2022-10-14T17:05	10	0	0.1	0	0	382	0.4	381	383	14.8	81.8
2022-10-14T17:06	10	0	0.1	0	0	382	0.5	381	383	14.8	81.8
2022-10-14T17:07	10	0	0.1	0	0	382	0.4	381	383	14.8	81.9
2022-10-14T17:08	10	0	0.1	0	0	382	0.3	381	383	14.8	81.9
2022-10-14T17:09	10	0	0.1	0	0	382	0.3	382	383	14.8	82.1
2022-10-14T17:10	10	0	0.2	0	0	382	0.3	381	383	14.7	82.7
2022-10-14T17:11	10	0	0.1	0	0	382	0.3	382	383	14.8	82.6
2022-10-14T17:12	10	0	0.2	0	0	382	0.4	381	383	14.8	82.2
2022-10-14T17:13	10	0	0.2	0	0	382	0.3	381	383	14.8	82.3
2022-10-14T17:14	10	0	0.1	0	0	382	0.3	382	383	14.9	82.2
2022-10-14T17:15	10	0	0.2	0	1	382	0.4	381	383	14.8	82.3
2022-10-14T17:16	10	0	0.1	0	0	383	0.2	382	383	14.9	82.1
2022-10-14T17:17	10	0	0.1	0	1	382	0.3	381	383	14.8	82.2
2022-10-14T17:18	10	0	0.1	0	0	382	0.4	382	383	14.8	82.6
2022-10-14T17:19	10	0	0.1	0	0	383	0.3	382	383	14.8	82.6
2022-10-14T17:20	10	0	0.1	0	1	382	0.3	382	383	14.8	82.6
2022-10-14T17:21	10	0	0.1	0	0	383	0.4	382	383	14.8	82.8
2022-10-14T17:22	10	0	0.2	0	1	382	0.3	382	383	14.9	82.5
2022-10-14T17:23	10	0	0.1	0	1	383	0.3	382	383	14.9	82.4
2022-10-14T17:24	10	0	0.2	0	0	383	0.8	381	384	14.9	82.5
2022-10-14T17:25	10	0	0.2	0	1	383	0.3	382	383	14.9	82.5
2022-10-14T17:26	10	0	0.2	0	1	383	0.5	382	384	14.9	82.6
2022-10-14T17:27	10	0	0.2	0	1	383	0.8	381	384	15.1	82.4
2022-10-14T17:28	10	0	0.1	0	1	383	0.3	382	384	15.0	82.2
2022-10-14T17:29	10	0	0.2	0	1	383	0.3	382	383	14.9	82.7
2022-10-14T17:30	10	0	0.1	0	0	383	0.3	382	384	15.0	82.8
2022-10-14T17:31	10	0	0.2	0	1	383	0.4	382	384	15.0	83.0
2022-10-14T17:32	10	0	0.2	0	1	383	0.3	382	384	14.9	83.5
2022-10-14T17:33	10	0	0.2	0	1	383	0.4	382	384	15.0	83.6
2022-10-14T17:34	10	0	0.2	0	1	383	0.3	382	384	15.0	83.7
2022-10-14T17:35	10	0	0.2	0	1	383	0.3	382	384	15.0	83.8
2022-10-14T17:36	10	0	0.2	0	1	383	0.3	382	384	14.9	84.0
2022-10-14T17:37	10	0	0.2	0	1	383	0.4	383	384	14.9	84.3
2022-10-14T17:38	10	0	0.2	0	1	383	0.2	382	383	14.9	84.7
2022-10-14T17:39	10	0	0.2	0	0	383	0.3	382	383	14.9	85.1
2022-10-14T17:40	10	0	0.1	0	1	383	0.3	382	384	14.9	85.3
2022-10-14T17:41	10	0	0.2	0	1	383	0.4	382	384	14.9	85.2
2022-10-14T17:42	10	0	0.2	0	1	382	0.3	381	383	14.9	85.7
2022-10-14T17:43	10	0	0.4	0	2	383	0.3	382	383	14.8	86.2
2022-10-14T17:44	10	0	0.2	0	0	382	0.3	382	383	14.8	86.3
2022-10-14T17:45	10	0	0.1	0	0	382	0.3	382	383	14.7	86.8
2022-10-14T17:46	10	0	0.2	0	0	383	0.6	381	383	14.7	87.2
2022-10-14T17:47	10	0	0.2	0	0	382	0.4	381	383	14.8	87.2
2022-10-14T17:48	10	0	0.2	0	0	382	0.4	381	383	14.8	87.3
2022-10-14T17:49	10	0	0.2	0	1	382	0.5	381	383	14.7	87.4
2022-10-14T17:50	10	0	0.1	0	1	382	0.3	382	383	14.7	87.5
2022-10-14T17:51	10	0	0.2	0	1	383	0.4	382	384	14.8	87.5
2022-10-14T17:52	10	0	0.1	0	1	383	0.3	382	383	14.9	87.2
2022-10-14T17:53	10	1	0.2	0	1	383	0.4	382	384	14.9	87.2
2022-10-14T17:54	10	1	0.1	0	1	383	0.3	382	384	14.9	87.2
2022-10-14T17:55	10	1	0.1	0	1	383	0.3	382	383	14.8	87.4
2022-10-14T17:56	10	1	0.1	1	1	383	0.3	382	383	14.7	87.9
2022-10-14T17:57	10	1	0.1	1	1	383	0.3	382	384	14.8	87.8
2022-10-14T17:58	10	1	0.1	1	1	383	0.2	383	384	14.8	87.8
2022-10-14T17:59	10	1	0.1	0	1	383	0.3	382	384	14.8	87.6
2022-10-14T18:00	10	1	0.1	1	1	383	0.3	382	383	14.8	87.8
2022-10-14T18:01	10	1	0.2	0	1	383	0.5	382	384	14.8	87.8
2022-10-14T18:02	10	1	0.1	0	1	383	0.5	382	384	14.8	87.9
2022-10-14T18:03	10	1	0.1	0	1	383	0.3	383	384	14.8	87.7
2022-10-14T18:04	10	1	0.1	0	1	383	0.3	382	384	14.8	87.7
2022-10-14T18:05	10	1	0.2	0	1	383	0.4	382	384	14.9	87.5
2022-10-14T18:06	10	1	0.2	0	1	383	0.4	382	384	14.9	87.2
2022-10-14T18:07	10	1	0.1	0	1	383	0.3	382	384	14.8	87.4
2022-10-14T18:08	10	1	0.1	0	1	383	0.3	383	384	14.9	87.3
2022-10-14T18:09	10	1	0.1	0	1	383	0.6	382	384	14.8	87.1
2022-10-14T18:10	10	1	0.2	0	1	383	0.3	382	384	14.8	87.4
2022-10-14T18:11	10	1	0.1	0	1	383	0.2	383	383	14.8	87.3
2022-10-14T18:12	10	1	0.1	0	1	383	0.4	382	384	14.8	87.5
2022-10-14T18:13	10	1	0.1	0	1	383	0.4	383	384	14.9	87.4
2022-10-14T18:14	10	1	0.1	0	1	383	0.5	382	384	14.9	87.2
2022-10-14T18:15	10	1	0.1	0	1	383	0.3	383	384	14.9	87.2
2022-10-14T18:16	10	1	0.1	0	1	383	0.4	383	384	14.9	87.2
2022-10-14T18:17	10	1	0.1	0	1	383	0.4	382	384	14.9	87.1
2022-10-14T18:18	10	1	0.2	0	1	383	0.3	383	384	14.9	87.1
2022-10-14T18:19	10	1	0.2	0	1	383	0.4	382	384	14.9	87.2
2022-10-14T18:20	10	1	0.1	0	1	383	0.4	383	384	15.0	86.9
2022-10-14T18:21	10	1	0.1	1	1	383	0.3	383	384	15.0	86.6
2022-10-14T18:22	10	1	0.1	0	1	383	0.3	383	384	15.0	86.7
2022-10-14T18:23	10	1	0.1	0	1	383	0.4	383	384	15.0	86.5
2022-10-14T18:24	10	1	0.1	0	1	383	0.5	382	384	15.0	86.4
2022-10-14T18:25	10	1	0.1	1	1	383	0.4	383	384	15.0	86.5
2022-10-14T18:26	10	1	0.1	1	1	383	0.4	382	384	15.1	86.1
2022-10-14T18:27	10	1	0.1	1	1	383	0.4	383	384	15.1	85.9
2022-10-14T18:28	10	1	0.2	0	1	384	0.3	383	384	15.1	86.0
2022-10-14T18:29	10	1	0.1	0	1	383	0.6	382	385	15.0	86.2
2022-10-14T18:30	10	1	0.1	0	1	384	0.3	383	384	15.1	85.9
2022-10-14T18:31	10	0	0.1	0	1	383	0.3	383	384	15.1	85.8
2022-10-14T18:32	10	0	0.1	0	1	384	0.2	383	384	15.0	86.2
2022-10-14T18:33	10	0	0.1	0	1	384	0.4	383	384	15.1	86.2
2022-10-14T18:34	10	0	0.1	0	1	383	0.3	383	384	15.1	85.9
2022-10-14T18:35	10	0	0.1	0	1	384	0.7	382	385	15.1	86.0
2022-10-14T18:36	10	0	0.1	0	1	384	0.4	383	384	15.1	85.6
2022-10-14T18:37	10	0	0.1	0	1	384	0.6	383	385	15.1	85.7
2022-10-14T18:38	10	0	0.1	0	1	384	0.4	383	385	15.1	85.5
2022-10-14T18:39	10	1	0.1	0	1	384	0.5	382	385	15.1	85.4
2022-10-14T18:40	10	0	0.1	0	1	384	0.2	383	384	15.1	85.8
2022-10-14T18:41	10	0	0.1	0	1	384	0.3	383	384	15.1	85.8
2022-10-14T18:42	10	0	0.1	0	1	384	0.4	383	384	15.1	86.1
2022-10-14T18:43	10	0	0.1	0	0	384	0.3	383	385	15.1	85.6
2022-10-14T18:44	10	0	0.1	0	1	384	0.3	383	384	15.1	85.5
2022-10-14T18:45	10	0	0.1	0	1	384	0.4	383	385	15.1	85.5
2022-10-14T18:46	10	0	0.1	0	1	384	0.4	383	385	15.1	85.4
2022-10-14T18:47	10	0	0.1	0	1	384	0.4	383	385	15.1	85.5
2022-10-14T18:48	10	0	0.1	0	1	384	0.3	383	385	15.2	84.8
2022-10-14T18:49	10	0	0.1	0	1	384	0.4	383	385	15.1	85.1
2022-10-14T18:50	10	0	0.1	0	1	384	0.4	383	385	15.1	85.3
2022-10-14T18:51	10	0	0.1	0	1	384	0.7	382	385	15.2	85.1
2022-10-14T18:52	10	0	0.1	0	1	384	0.5	382	385	15.2	84.9
2022-10-14T18:53	10	0	0.1	0	0	384	0.5	383	385	15.2	84.9
2022-10-14T18:54	10	0	0.1	0	0	384	0.3	383	385	15.2	84.8
2022-10-14T18:55	10	0	0.2	0	1	384	0.3	383	384	15.2	84.9
2022-10-14T18:56	10	0	0.1	0	1	384	0.5	383	385	15.1	85.0
2022-10-14T18:57	10	0	0.1	0	1	384	0.4	383	384	15.1	85.0
2022-10-14T18:58	10	0	0.1	0	1	384	0.4	383	384	15.2	84.8
2022-10-14T18:59	10	0	0.1	0	1	384	0.6	383	385	15.2	84.7
2022-10-14T19:00	10	0	0.2	0	1	384	0.4	383	385	15.2	84.6
2022-10-14T19:01	10	0	0.2	0	1	384	0.3	383	385	15.1	84.7
2022-10-14T19:02	10	0	0.2	0	1	384	0.4	383	385	15.1	84.8
2022-10-14T19:03	10	0	0.1	0	0	384	0.3	383	385	15.1	84.8
2022-10-14T19:04	10	0	0.1	0	1	384	0.4	383	385	15.2	84.4
2022-10-14T19:05	10	0	0.2	0	1	384	0.3	383	385	15.2	84.2
2022-10-14T19:06	10	0	0.2	0	1	384	0.3	383	385	15.2	84.3
2022-10-14T19:07	10	0	0.2	0	1	384	0.3	383	385	15.2	84.2
2022-10-14T19:08	10	0	0.1	0	0	384	0.3	383	385	15.2	84.5
2022-10-14T19:09	10	0	0.1	0	1	384	0.8	382	385	15.2	84.3
2022-10-14T19:10	10	0	0.1	0	1	384	0.5	383	385	15.2	84.3
2022-10-14T19:11	10	0	0.1	0	0	384	0.3	383	385	15.1	84.6
2022-10-14T19:12	10	0	0.1	0	0	384	0.3	383	384	15.1	84.6
2022-10-14T19:13	10	0	0.1	0	0	384	0.3	383	385	15.2	84.4
2022-10-14T19:14	10	0	0.1	0	0	384	0.3	383	385	15.2	84.1
2022-10-14T19:15	10	0	0.1	0	0	384	0.3	383	384	15.2	84.2
2022-10-14T19:16	10	0	0.1	0	1	384	0.3	383	384	15.1	84.5
2022-10-14T19:17	10	0	0.1	0	1	384	0.2	383	384	15.1	84.8
2022-10-14T19:18	10	0	0.1	0	0	384	0.7	382	385	15.1	84.8
2022-10-14T19:19	10	0	0.1	0	0	384	0.6	383	385	15.2	84.4
2022-10-14T19:20	10	0	0.1	0	0	384	0.3	383	385	15.1	84.4
2022-10-14T19:21	10	0	0.1	0	0	384	0.2	383	384	15.1	84.6
2022-10-14T19:22	10	0	0.1	0	0	384	0.2	383	384	15.1	85.0
2022-10-14T19:23	10	0	0.1	0	1	383	0.2	383	384	15.1	85.2
2022-10-14T19:24	10	0	0.1	0	0	383	0.3	383	384	15.1	84.7
2022-10-14T19:25	10	0	0.1	0	0	383	0.3	382	384	15.1	84.7
2022-10-14T19:26	10	0	0.1	0	0	383	0.9	381	384	15.1	84.8
2022-10-14T19:27	10	0	0.1	0	0	383	0.3	382	383	15.0	85.2
2022-10-14T19:28	10	0	0.1	0	1	383	0.3	382	383	15.0	85.4
2022-10-14T19:29	10	0	0.1	0	0	383	0.3	382	383	15.0	85.9
2022-10-14T19:30	10	0	0.1	0	0	383	0.3	382	383	15.0	85.6
2022-10-14T19:31	10	0	0.1	0	0	383	0.7	381	383	15.1	85.4
2022-10-14T19:32	10	0	0.1	0	1	383	0.5	381	384	15.0	85.5
2022-10-14T19:33	10	0	0.1	0	0	383	0.5	382	384	15.1	85.4
2022-10-14T19:34	10	0	0.2	0	0	383	0.3	382	383	15.0	85.5
2022-10-14T19:35	10	1	0.2	0	1	383	0.3	382	384	15.0	85.9
2022-10-14T19:36	10	0	0.1	0	1	383	0.8	381	384	14.9	86.2
2022-10-14T19:37	10	0	0.2	0	1	383	0.3	382	383	14.9	86.6
2022-10-14T19:38	10	0	0.1	0	1	383	0.3	382	384	14.9	86.4
2022-10-14T19:39	10	0	0.1	0	1	383	0.3	382	383	14.9	86.6
2022-10-14T19:40	10	0	0.1	0	1	382	0.3	382	383	14.9	86.6
2022-10-14T19:41	10	0	0.1	0	0	382	0.4	381	383	14.9	86.9
2022-10-14T19:42	10	0	0.1	0	1	382	0.3	381	383	14.8	87.4
2022-10-14T19:43	10	0	0.1	0	0	383	0.5	381	383	14.7	87.8
2022-10-14T19:44	10	0	0.1	0	0	382	0.3	381	383	14.7	88.0
2022-10-14T19:45	10	0	0.1	0	0	382	0.3	381	383	14.7	88.4
2022-10-14T19:46	10	0	0.1	0	0	382	0.3	381	383	14.6	89.1
2022-10-14T19:47	10	0	0.1	0	0	382	0.4	381	383	14.6	89.4
2022-10-14T19:48	10	0	0.1	0	0	382	0.2	381	382	14.5	89.7
2022-10-14T19:49	10	0	0.1	0	0	382	0.3	381	382	14.6	89.7
2022-10-14T19:50	10	0	0.1	0	0	382	0.5	381	382	14.6	89.7
2022-10-14T19:51	10	0	0.1	0	0	382	0.3	381	382	14.5	89.9
2022-10-14T19:52	10	0	0.1	0	0	382	0.3	381	382	14.5	90.3
2022-10-14T19:53	10	0	0.1	0	0	382	0.3	381	383	14.5	90.5
2022-10-14T19:54	10	0	0.1	0	0	382	0.3	381	382	14.4	90.6
2022-10-14T19:55	10	0	0.1	0	0	382	0.4	380	382	14.4	90.9
2022-10-14T19:56	10	0	0.1	0	1	382	0.4	381	383	14.4	90.9
2022-10-14T19:57	10	0	0.1	0	1	382	0.3	381	382	14.4	91.1
2022-10-14T19:58	10	0	0.1	0	1	382	0.3	381	382	14.4	91.3
2022-10-14T19:59	10	0	0.1	0	0	382	0.3	381	383	14.4	91.2
2022-10-14T20:00	10	0	0.1	0	1	382	0.3	381	382	14.4	91.4
2022-10-14T20:01	10	0	0.1	0	1	382	0.3	382	383	14.4	91.5
2022-10-14T20:02	10	0	0.1	0	1	382	0.2	381	382	14.4	91.4
2022-10-14T20:03	10	0	0.1	0	1	382	0.3	381	383	14.4	91.6
2022-10-14T20:04	10	0	0.1	0	1	382	0.3	381	382	14.3	91.8
2022-10-14T20:05	10	0	0.1	0	1	382	0.3	381	383	14.3	92.0
2022-10-14T20:06	10	0	0.1	0	1	382	0.2	381	382	14.3	92.1
2022-10-14T20:07	10	0	0.1	0	1	382	0.3	381	382	14.3	92.2
2022-10-14T20:08	10	0	0.1	0	0	381	0.3	381	382	14.3	92.2
2022-10-14T20:09	10	0	0.1	0	0	382	0.3	381	382	14.3	92.3
2022-10-14T20:10	10	0	0.1	0	0	381	0.2	381	382	14.3	92.4
2022-10-14T20:11	10	0	0.1	0	0	382	0.4	381	382	14.2	92.6
2022-10-14T20:12	10	0	0.1	0	0	381	0.3	381	382	14.2	92.8
2022-10-14T20:13	10	0	0.1	0	0	381	0.3	381	382	14.2	93.0
2022-10-14T20:14	10	0	0.1	0	0	382	0.4	381	382	14.2	93.0
2022-10-14T20:15	10	0	0.1	0	0	381	0.6	380	382	14.2	93.1
2022-10-14T20:16	10	0	0.1	0	0	381	0.3	381	382	14.1	93.3
2022-10-14T20:17	10	0	0.1	0	0	382	0.5	380	382	14.1	93.5
2022-10-14T20:18	10	0	0.1	0	0	381	0.3	381	382	14.1	93.6
2022-10-14T20:19	10	0	0.1	0	0	382	0.3	381	382	14.1	93.7
2022-10-14T20:20	10	0	0.1	0	0	381	0.5	380	382	14.2	93.7
2022-10-14T20:21	10	0	0.1	0	0	382	0.5	381	383	14.2	93.6
2022-10-14T20:22	10	0	0.1	0	0	381	0.3	381	382	14.2	93.5
2022-10-14T20:23	10	0	0.1	0	0	381	0.3	381	382	14.2	93.5
2022-10-14T20:24	10	0	0.0	0	0	381	0.4	381	382	14.2	93.5
2022-10-14T20:25	10	0	0.1	0	0	381	0.4	380	382	14.2	93.6
2022-10-14T20:26	10	0	0.1	0	0	381	0.7	380	382	14.2	93.6
2022-10-14T20:27	10	0	0.1	0	0	381	0.7	379	382	14.2	93.7
2022-10-14T20:28	10	0	0.1	0	0	381	1.2	379	383	14.2	93.6
2022-10-14T20:29	10	0	0.1	0	0	382	0.4	380	382	14.2	93.4
2022-10-14T20:30	10	0	0.1	0	1	382	0.3	381	382	14.2	93.4
2022-10-14T20:31	10	0	0.1	0	1	382	0.4	381	382	14.3	93.3
2022-10-14T20:32	10	0	0.1	0	1	382	0.3	381	382	14.2	93.3
2022-10-14T20:33	10	1	0.1	0	1	382	0.4	381	382	14.3	93.3
2022-10-14T20:34	10	1	0.1	0	1	382	0.2	381	382	14.3	93.1
2022-10-14T20:35	10	1	0.1	1	1	382	0.5	381	383	14.3	93.1
2022-10-14T20:36	10	1	0.1	0	1	382	0.4	381	382	14.3	92.9
2022-10-14T20:37	10	1	0.1	0	1	381	0.2	381	382	14.3	92.8
2022-10-14T20:38	10	0	0.1	0	1	381	0.4	381	382	14.2	93.0
2022-10-14T20:39	10	0	0.1	0	1	382	0.7	380	383	14.3	93.1
2022-10-14T20:40	10	0	0.1	0	1	382	1.1	380	383	14.3	92.9
2022-10-14T20:41	10	0	0.1	0	0	381	0.4	381	382	14.2	93.0
2022-10-14T20:42	10	0	0.1	0	1	381	0.5	380	382	14.3	93.1
2022-10-14T20:43	10	0	0.1	0	1	382	0.5	381	382	14.3	92.9
2022-10-14T20:44	10	0	0.1	0	1	382	0.5	381	383	14.3	93.0
2022-10-14T20:45	10	0	0.1	0	1	382	0.5	380	382	14.3	93.1
2022-10-14T20:46	10	0	0.0	0	0	382	0.3	381	382	14.2	93.2
2022-10-14T20:47	10	0	0.0	0	1	382	0.4	380	382	14.2	93.3
2022-10-14T20:48	10	0	0.1	0	1	382	0.7	379	382	14.3	93.3
2022-10-14T20:49	10	0	0.1	0	1	382	0.4	381	382	14.3	93.3
2022-10-14T20:50	10	0	0.1	0	1	382	0.5	380	383	14.3	93.1
2022-10-14T20:51	10	1	0.1	0	1	382	0.6	380	383	14.3	93.0
2022-10-14T20:52	10	1	0.1	0	1	382	0.5	380	383	14.3	93.0
2022-10-14T20:53	10	1	0.1	1	1	382	0.5	380	382	14.3	93.1
2022-10-14T20:54	10	1	0.1	1	1	382	0.4	381	383	14.3	93.0
2022-10-14T20:55	10	1	0.1	1	1	382	0.3	381	382	14.3	93.0
2022-10-14T20:56	10	1	0.1	1	1	382	0.4	381	383	14.3	93.1
2022-10-14T20:57	10	1	0.1	1	1	381	0.8	380	383	14.3	93.1
2022-10-14T20:58	10	1	0.1	0	1	382	0.9	379	383	14.3	93.1
2022-10-14T20:59	10	1	0.1	0	1	382	0.6	380	383	14.3	93.0
2022-10-14T21:00	10	1	0.1	0	1	381	1.3	379	383	14.3	93.0
2022-10-14T21:01	10	1	0.1	0	1	382	1.1	379	383	14.3	93.0
2022-10-14T21:02	10	0	0.1	0	1	382	0.4	380	382	14.3	92.9
2022-10-14T21:03	10	0	0.1	0	1	381	0.6	380	382	14.3	92.9
2022-10-14T21:04	10	0	0.1	0	1	382	0.2	381	382	14.3	92.9
2022-10-14T21:05	10	1	0.1	0	1	382	0.5	381	383	14.3	92.9
2022-10-14T21:06	10	1	0.1	0	1	382	0.7	381	383	14.4	92.8
2022-10-14T21:07	10	1	0.1	0	1	382	0.5	381	383	14.3	92.8
2022-10-14T21:08	10	1	0.1	1	1	381	0.6	380	382	14.3	92.8
2022-10-14T21:09	10	1	0.1	1	1	382	1.4	379	383	14.3	92.8
2022-10-14T21:10	10	1	0.1	1	1	382	0.7	380	383	14.3	92.8
2022-10-14T21:11	10	1	0.1	1	1	382	0.7	380	383	14.4	92.6
2022-10-14T21:12	10	1	0.1	1	1	382	0.5	381	383	14.4	92.3
2022-10-14T21:13	10	1	0.1	1	1	382	1.1	380	384	14.4	92.2
2022-10-14T21:14	10	1	0.1	1	1	382	0.4	381	382	14.4	92.1
2022-10-14T21:15	10	1	0.1	1	1	382	0.9	379	383	14.4	92.1
2022-10-14T21:16	10	1	0.1	1	1	382	1.1	380	383	14.4	92.0
2022-10-14T21:17	10	1	0.1	1	1	382	1.0	380	384	14.4	91.9
2022-10-14T21:18	10	1	0.1	1	1	382	0.4	381	383	14.4	91.8
2022-10-14T21:19	10	1	0.1	1	1	382	0.4	381	383	14.4	91.8
2022-10-14T21:20	10	1	0.1	1	1	382	0.4	381	382	14.4	91.9
2022-10-14T21:21	10	1	0.1	1	1	381	0.4	381	382	14.4	92.0
2022-10-14T21:22	10	1	0.1	1	1	382	0.4	381	382	14.4	91.8
2022-10-14T21:23	10	1	0.1	1	1	382	0.7	380	382	14.4	91.8
2022-10-14T21:24	10	1	0.1	1	1	382	0.8	380	383	14.4	91.7
2022-10-14T21:25	10	1	0.1	1	1	382	0.5	381	383	14.5	91.6
2022-10-14T21:26	10	1	0.1	1	1	382	0.4	381	382	14.5	91.2
2022-10-14T21:27	10	1	0.1	1	1	382	0.6	380	383	14.5	91.2
2022-10-14T21:28	10	1	0.1	1	1	382	1.2	379	383	14.5	91.3
2022-10-14T21:29	10	1	0.1	1	1	382	0.7	380	383	14.5	91.3
2022-10-14T21:30	10	1	0.1	1	1	382	0.4	381	382	14.5	91.1
2022-10-14T21:31	10	1	0.1	1	1	381	0.9	380	384	14.5	91.1
2022-10-14T21:32	10	1	0.1	1	1	382	0.7	381	383	14.5	91.1
2022-10-14T21:33	10	1	0.1	1	1	382	0.6	380	382	14.5	91.0
2022-10-14T21:34	10	1	0.1	1	1	382	1.0	379	383	14.6	90.9
2022-10-14T21:35	10	1	0.1	1	1	382	0.9	379	383	14.6	90.8
2022-10-14T21:36	10	1	0.1	1	1	382	0.4	381	382	14.5	90.8
2022-10-14T21:37	10	1	0.1	1	1	382	0.4	381	382	14.6	90.8
2022-10-14T21:38	10	1	0.1	1	1	381	0.9	379	383	14.6	90.7
2022-10-14T21:39	10	1	0.1	1	1	382	0.5	381	383	14.5	90.8
2022-10-14T21:40	10	1	0.1	1	1	382	0.5	381	383	14.6	90.8
2022-10-14T21:41	10	1	0.1	1	1	382	0.5	381	383	14.6	90.7
2022-10-14T21:42	10	1	0.1	1	1	382	0.2	381	382	14.5	90.7
2022-10-14T21:43	10	1	0.1	1	1	382	0.6	381	383	14.6	90.7
2022-10-14T21:44	10	1	0.1	1	1	382	0.6	380	383	14.6	90.7
2022-10-14T21:45	10	1	0.1	1	1	382	0.4	381	383	14.5	90.7
2022-10-14T21:46	10	1	0.1	1	1	382	0.3	381	382	14.6	90.7
2022-10-14T21:47	10	1	0.1	1	1	382	0.4	381	383	14.6	90.4
2022-10-14T21:48	10	1	0.1	1	1	382	0.5	380	382	14.6	90.4
2022-10-14T21:49	10	1	0.1	1	1	382	0.3	381	382	14.6	90.5
2022-10-14T21:50	10	1	0.1	1	1	382	0.7	380	383	14.6	90.5
2022-10-14T21:51	10	1	0.1	1	1	382	0.3	382	383	14.7	90.3
2022-10-14T21:52	10	1	0.1	1	1	382	0.5	381	383	14.7	90.1
2022-10-14T21:53	10	1	0.1	1	1	382	1.2	380	384	14.7	89.9
2022-10-14T21:54	10	1	0.1	1	1	382	0.3	382	383	14.7	89.8
2022-10-14T21:55	10	1	0.1	1	1	382	0.7	381	383	14.7	89.8
2022-10-14T21:56	10	1	0.1	1	1	382	0.4	381	383	14.8	89.3
2022-10-14T21:57	10	1	0.1	1	1	382	0.4	381	383	14.8	89.3
2022-10-14T21:58	10	1	0.1	1	1	382	0.4	381	383	14.8	89.3
2022-10-14T21:59	10	1	0.1	1	1	382	0.3	381	383	14.8	89.3
2022-10-14T22:00	10	1	0.1	1	1	382	0.5	381	383	14.8	89.1
2022-10-14T22:01	10	1	0.1	1	1	382	0.4	381	383	14.9	88.7
2022-10-14T22:02	10	1	0.1	1	1	382	0.7	380	383	14.8	88.8
2022-10-14T22:03	10	1	0.1	1	1	382	0.4	381	383	14.8	88.8
2022-10-14T22:04	10	1	0.1	1	1	382	0.8	381	384	14.8	88.8
2022-10-14T22:05	10	1	0.1	1	1	382	0.4	381	383	14.8	88.9
2022-10-14T22:06	10	1	0.1	1	1	383	0.4	382	383	14.9	88.9
2022-10-14T22:07	10	1	0.1	1	1	382	0.4	381	383	14.8	88.9
2022-10-14T22:08	10	1	0.1	1	1	382	0.3	382	383	14.8	89.0
2022-10-14T22:09	10	1	0.1	1	1	382	0.4	381	383	14.8	89.1
2022-10-14T22:10	10	1	0.1	1	1	382	0.5	381	383	14.8	89.1
2022-10-14T22:11	10	1	0.1	1	1	382	0.3	382	383	14.8	89.1
2022-10-14T22:12	10	1	0.1	1	1	382	0.9	381	384	14.8	89.1
2022-10-14T22:13	10	1	0.1	1	1	383	0.5	381	383	14.8	89.1
2022-10-14T22:14	10	1	0.1	1	1	382	0.3	382	383	14.8	89.1
2022-10-14T22:15	10	1	0.0	1	1	382	1.2	380	384	14.8	89.3
2022-10-14T22:16	10	1	0.1	1	1	383	0.5	381	383	14.8	89.3
2022-10-14T22:17	10	1	0.1	1	1	382	0.9	380	384	14.8	89.2
2022-10-14T22:18	10	1	0.1	1	1	382	0.3	382	383	14.7	89.3
2022-10-14T22:19	10	1	0.1	1	1	383	0.5	382	384	14.8	89.4
2022-10-14T22:20	10	1	0.1	1	1	382	0.5	381	383	14.8	89.2
2022-10-14T22:21	10	1	0.1	1	1	383	0.3	382	383	14.8	89.3
2022-10-14T22:22	10	1	0.0	1	1	383	0.5	381	384	14.8	89.3
2022-10-14T22:23	10	1	0.1	1	1	383	0.5	381	383	14.8	89.0
2022-10-14T22:24	10	1	0.1	1	1	382	0.6	381	383	14.8	88.9
2022-10-14T22:25	10	1	0.1	1	1	382	1.2	380	384	14.8	88.9
2022-10-14T22:26	10	1	0.1	1	1	383	0.5	381	384	14.8	88.7
2022-10-14T22:27	10	1	0.1	1	1	383	0.5	382	384	14.9	88.6
2022-10-14T22:28	10	1	0.1	1	1	383	0.6	381	383	14.9	88.4
2022-10-14T22:29	10	1	0.1	1	1	383	0.5	382	384	14.8	88.7
2022-10-14T22:30	10	1	0.1	1	1	383	0.5	382	384	14.9	88.4
2022-10-14T22:31	10	1	0.1	1	1	383	0.7	380	384	14.9	87.9
2022-10-14T22:32	10	1	0.1	1	1	383	0.7	381	384	15.0	87.6
2022-10-14T22:33	10	1	0.1	1	1	383	0.4	382	383	14.9	87.5
2022-10-14T22:34	10	1	0.1	1	1	383	0.4	382	384	15.0	87.4
2022-10-14T22:35	10	1	0.1	1	1	383	0.5	382	384	15.0	87.3
2022-10-14T22:36	10	1	0.1	1	1	383	0.7	381	384	15.0	87.2
2022-10-14T22:37	10	1	0.1	1	1	383	0.4	382	384	15.0	87.1
2022-10-14T22:38	10	1	0.1	1	1	383	0.6	381	384	15.0	86.9
2022-10-14T22:39	10	1	0.1	1	1	383	0.8	382	384	14.9	87.0
2022-10-14T22:40	10	1	0.1	1	1	382	0.6	381	383	14.9	87.1
2022-10-14T22:41	10	1	0.1	1	1	383	0.2	382	383	14.9	87.3
2022-10-14T22:42	10	1	0.0	1	1	383	0.6	380	384	15.0	86.9
2022-10-14T22:43	10	1	0.1	1	1	383	0.8	381	384	15.0	86.7
2022-10-14T22:44	10	1	0.1	1	1	383	1.0	380	384	15.0	86.8
2022-10-14T22:45	10	1	0.1	1	1	383	0.4	382	384	15.0	86.6
2022-10-14T22:46	10	1	0.1	1	1	383	0.9	381	385	15.0	86.6
2022-10-14T22:47	10	1	0.1	1	1	383	0.6	382	384	15.0	86.6
2022-10-14T22:48	10	1	0.1	1	1	383	0.5	382	384	15.0	86.5
2022-10-14T22:49	10	1	0.1	1	1	383	0.5	382	384	15.0	86.6
2022-10-14T22:50	10	1	0.1	1	1	383	0.8	381	384	15.0	86.7
2022-10-14T22:51	10	1	0.1	1	1	383	0.3	382	384	15.1	86.4
2022-10-14T22:52	10	1	0.1	1	1	383	0.6	382	384	15.1	86.2
2022-10-14T22:53	10	1	0.1	1	1	383	0.4	382	384	15.0	86.4
2022-10-14T22:54	10	1	0.1	1	1	383	0.3	382	384	15.1	86.4
2022-10-14T22:55	10	1	0.1	1	1	383	0.4	382	384	15.1	86.4
2022-10-14T22:56	10	1	0.1	1	1	383	0.2	383	384	15.1	86.3
2022-10-14T22:57	10	1	0.1	1	1	383	0.5	382	384	15.2	85.9
2022-10-14T22:58	10	1	0.1	1	1	383	0.4	383	384	15.1	86.0
2022-10-14T22:59	10	1	0.1	1	1	383	0.2	383	384	15.1	86.1
2022-10-14T23:00	10	1	0.1	1	1	383	0.3	382	384	15.1	86.2
2022-10-14T23:01	10	1	0.1	1	1	383	0.3	383	384	15.1	86.6
2022-10-14T23:02	10	1	0.1	1	1	383	1.1	381	385	15.2	86.2
2022-10-14T23:03	10	1	0.1	1	1	384	0.5	382	385	15.2	85.7
2022-10-14T23:04	10	1	0.1	1	1	383	0.3	383	384	15.2	85.8
2022-10-14T23:05	10	1	0.1	1	1	383	0.6	382	384	15.1	86.3
2022-10-14T23:06	10	1	0.1	0	1	383	0.4	382	384	15.2	86.3
2022-10-14T23:07	10	1	0.1	0	1	383	0.5	382	384	15.1	86.6
2022-10-14T23:08	10	0	0.1	0	1	383	0.5	382	384	15.1	86.8
2022-10-14T23:09	10	0	0.1	0	0	383	0.5	381	384	15.1	87.0
2022-10-14T23:10	10	0	0.1	0	0	383	0.6	382	384	15.1	86.9
2022-10-14T23:11	10	0	0.1	0	1	383	0.3	382	384	15.1	86.8
2022-10-14T23:12	10	0	0.1	0	0	383	0.6	382	384	15.1	86.9
2022-10-14T23:13	10	0	0.0	0	0	383	0.7	381	384	15.1	86.7
2022-10-14T23:14	10	0	0.1	0	0	383	0.4	381	383	15.1	86.8
2022-10-14T23:15	10	0	0.1	0	0	383	1.0	380	384	15.1	87.0
2022-10-14T23:16	10	0	0.0	0	0	383	0.9	381	384	15.1	87.1
2022-10-14T23:17	10	0	0.1	0	1	383	1.0	381	385	15.1	86.8
2022-10-14T23:18	10	0	0.1	0	0	383	1.1	380	384	15.1	86.7
2022-10-14T23:19	10	0	0.1	0	1	383	2.0	379	385	15.0	87.1
2022-10-14T23:20	10	0	0.1	0	1	383	0.8	381	384	15.1	87.1
2022-10-14T23:21	10	0	0.1	0	0	383	1.5	380	385	15.0	87.1
2022-10-14T23:22	10	0	0.1	0	0	383	0.4	382	383	15.0	87.5
2022-10-14T23:23	10	0	0.1	0	0	382	0.8	380	384	14.9	87.8
2022-10-14T23:24	10	0	0.0	0	0	382	0.5	382	384	14.9	88.0
2022-10-14T23:25	10	0	0.1	0	0	382	1.1	380	384	14.9	88.2
2022-10-14T23:26	10	0	0.1	0	0	382	0.5	381	383	14.9	88.4
2022-10-14T23:27	10	0	0.1	0	0	382	0.9	380	383	14.8	88.6
2022-10-14T23:28	10	0	0.1	0	0	382	1.0	379	383	14.9	88.7
2022-10-14T23:29	10	0	0.1	0	0	382	1.4	379	384	14.9	88.7
2022-10-14T23:30	10	0	0.1	0	0	382	1.0	380	384	14.9	88.8
2022-10-14T23:31	10	0	0.1	0	0	382	0.7	381	384	14.9	88.7
2022-10-14T23:32	10	0	0.1	0	1	382	1.0	380	384	14.9	88.5
2022-10-14T23:33	10	1	0.1	0	1	382	0.9	380	384	14.9	88.6
2022-10-14T23:34	10	1	0.1	1	1	383	0.6	382	384	15.0	88.4
2022-10-14T23:35	10	1	0.1	1	1	382	0.8	381	384	14.9	88.4
2022-10-14T23:36	10	1	0.1	1	1	383	0.8	380	384	14.9	88.4
2022-10-14T23:37	10	1	0.1	1	1	382	0.8	380	384	14.9	88.5
2022-10-14T23:38	10	1	0.1	1	1	383	0.5	381	384	14.9	88.7
2022-10-14T23:39	10	1	0.1	1	1	382	0.4	381	383	14.9	88.6
2022-10-14T23:40	10	1	0.1	1	1	382	0.3	382	383	14.9	88.8
2022-10-14T23:41	10	1	0.1	1	1	382	0.7	381	384	14.9	88.8
2022-10-14T23:42	10	1	0.1	1	1	383	0.3	382	384	14.9	88.7
2022-10-14T23:43	10	1	0.1	1	1	383	0.8	381	384	14.9	88.5
2022-10-14T23:44	10	1	0.1	1	1	383	0.3	382	383	14.9	88.6
2022-10-14T23:45	10	1	0.1	1	1	382	0.2	382	383	14.9	88.7
2022-10-14T23:46	10	1	0.1	1	1	383	0.3	382	383	14.9	88.7
2022-10-14T23:47	10	1	0.1	1	1	383	0.7	382	384	15.0	88.3
2022-10-14T23:48	10	1	0.1	1	1	383	0.4	382	384	15.0	88.1
2022-10-14T23:49	10	1	0.1	1	1	383	0.3	382	384	15.0	88.2
2022-10-14T23:50	10	1	0.1	1	1	383	0.3	382	384	15.0	88.0
2022-10-14T23:51	10	1	0.1	1	1	383	0.6	382	384	15.1	87.9
2022-10-14T23:52	10	1	0.1	1	1	383	1.1	381	385	15.1	87.8
2022-10-14T23:53	10	1	0.1	1	1	383	0.5	382	384	15.1	87.4
2022-10-14T23:54	10	1	0.1	1	1	383	0.3	382	384	15.1	87.5
2022-10-14T23:55	10	1	0.1	1	1	383	0.4	382	384	15.1	87.1
2022-10-14T23:56	10	1	0.1	1	1	383	0.3	383	384	15.1	87.1
2022-10-14T23:57	10	1	0.0	1	1	383	0.5	382	384	15.1	87.3
2022-10-14T23:58	10	1	0.1	1	1	383	0.4	383	384	15.1	87.4
2022-10-14T23:59	10	1	0.1	1	1	383	0.2	383	384	15.1	87.3
2022-10-15T00:00	10	1	0.1	1	1	383	0.3	382	384	15.1	87.2
2022-10-15T00:01	10	1	0.1	1	1	383	0.4	383	384	15.1	87.2
2022-10-15T00:02	10	1	0.1	1	1	383	0.2	383	384	15.0	87.4
2022-10-15T00:03	10	1	0.1	1	1	383	0.5	382	384	15.1	87.4
2022-10-15T00:04	10	1	0.1	1	1	383	0.5	382	384	15.1	87.2
2022-10-15T00:05	10	1	0.1	1	1	383	0.4	382	384	15.1	87.0
2022-10-15T00:06	10	1	0.1	1	1	383	0.5	382	384	15.3	86.4
2022-10-15T00:07	10	1	0.1	1	1	384	0.3	383	384	15.3	85.8
2022-10-15T00:08	10	1	0.1	1	1	383	0.2	383	384	15.2	85.9
2022-10-15T00:09	10	1	0.1	1	1	383	0.3	382	384	15.2	86.2
2022-10-15T00:10	10	1	0.1	1	1	383	0.2	383	384	15.2	86.1
2022-10-15T00:11	10	1	0.1	1	1	384	0.4	383	384	15.2	86.1
2022-10-15T00:12	10	1	0.1	1	1	383	0.2	383	384	15.2	85.9
2022-10-15T00:13	10	1	0.1	1	1	383	0.3	383	384	15.2	86.3
2022-10-15T00:14	10	1	0.1	1	1	384	0.4	382	384	15.2	86.2
2022-10-15T00:15	10	1	0.1	1	1	383	0.3	383	384	15.2	86.0
2022-10-15T00:16	10	1	0.1	1	1	384	0.4	383	384	15.2	86.0
2022-10-15T00:17	10	1	0.1	1	1	383	0.5	383	384	15.2	85.9
2022-10-15T00:18	10	1	0.1	1	1	383	0.3	382	384	15.2	86.2
2022-10-15T00:19	10	1	0.1	1	1	384	0.3	383	384	15.2	86.3
2022-10-15T00:20	10	1	0.1	1	1	384	0.3	383	384	15.2	86.5
2022-10-15T00:21	10	1	0.1	1	1	383	0.4	382	384	15.1	86.8
2022-10-15T00:22	10	1	0.1	1	1	383	0.2	383	384	15.1	87.0
2022-10-15T00:23	10	1	0.1	1	1	384	0.5	383	385	15.1	87.1
2022-10-15T00:24	10	1	0.1	1	1	384	0.3	383	384	15.1	87.1
2022-10-15T00:25	10	1	0.1	1	1	384	1.3	381	385	15.1	87.0
2022-10-15T00:26	10	1	0.1	1	1	384	0.4	383	385	15.2	86.7
2022-10-15T00:27	10	1	0.0	1	1	384	0.3	383	385	15.3	86.3
2022-10-15T00:28	10	1	0.0	1	1	384	0.3	383	385	15.3	86.2
2022-10-15T00:29	10	1	0.1	1	1	384	0.3	384	385	15.4	86.0
2022-10-15T00:30	10	1	0.1	1	1	384	0.5	383	385	15.4	85.8
2022-10-15T00:31	10	1	0.1	1	1	384	0.4	384	385	15.4	85.6
2022-10-15T00:32	10	1	0.1	1	1	384	0.7	383	386	15.4	85.5
2022-10-15T00:33	10	1	0.1	1	1	384	0.6	383	385	15.4	85.5
2022-10-15T00:34	10	1	0.1	1	1	384	0.5	383	385	15.4	85.4
2022-10-15T00:35	10	1	0.1	1	1	384	0.3	383	385	15.4	85.3
2022-10-15T00:36	10	1	0.1	1	1	384	0.3	383	385	15.3	85.7
2022-10-15T00:37	10	1	0.1	1	1	384	0.3	383	385	15.4	85.6
2022-10-15T00:38	10	1	0.1	1	1	384	0.3	383	385	15.3	85.7
2022-10-15T00:39	10	1	0.1	1	1	384	0.3	384	385	15.3	85.6
2022-10-15T00:40	10	1	0.1	1	1	384	0.5	383	385	15.3	85.8
2022-10-15T00:41	10	1	0.1	1	1	384	0.4	383	385	15.3	85.9
2022-10-15T00:42	10	1	0.1	1	1	384	0.2	384	385	15.4	85.5
2022-10-15T00:43	10	1	0.1	1	1	384	0.4	383	385	15.3	85.6
2022-10-15T00:44	10	1	0.1	1	1	384	0.4	383	385	15.3	85.7
2022-10-15T00:45	10	1	0.1	1	1	384	0.3	384	385	15.3	85.9
2022-10-15T00:46	10	1	0.1	1	1	384	0.3	383	384	15.3	86.2
2022-10-15T00:47	10	1	0.1	1	1	384	0.5	383	386	15.3	86.0
2022-10-15T00:48	10	1	0.1	1	1	384	0.2	383	385	15.3	85.9
2022-10-15T00:49	10	1	0.1	0	1	384	0.3	384	385	15.3	86.1
2022-10-15T00:50	10	1	0.1	0	1	384	0.4	383	385	15.3	86.1
2022-10-15T00:51	10	1	0.1	1	1	384	0.6	383	385	15.3	86.1
2022-10-15T00:52	10	1	0.1	0	1	384	0.7	382	385	15.3	85.8
2022-10-15T00:53	10	1	0.1	0	1	384	0.3	384	385	15.3	85.9
2022-10-15T00:54	10	1	0.1	0	1	384	0.2	384	385	15.3	85.9
2022-10-15T00:55	10	1	0.1	0	1	384	0.4	384	385	15.3	85.9
2022-10-15T00:56	10	1	0.1	1	1	384	0.6	383	385	15.3	85.9
2022-10-15T00:57	10	0	0.1	0	0	384	0.5	383	385	15.3	85.7
2022-10-15T00:58	10	0	0.1	0	0	385	0.4	384	385	15.4	85.6
2022-10-15T00:59	10	0	0.1	0	0	385	0.3	384	385	15.4	85.1
2022-10-15T01:00	10	0	0.1	0	1	384	0.4	383	385	15.4	85.2
2022-10-15T01:01	10	0	0.1	0	0	385	0.7	383	386	15.4	85.0
2022-10-15T01:02	10	0	0.1	0	0	385	0.4	384	386	15.4	84.9
2022-10-15T01:03	10	0	0.1	0	1	385	0.4	384	385	15.4	84.9
2022-10-15T01:04	10	0	0.1	0	1	385	0.2	384	385	15.4	84.7
2022-10-15T01:05	10	0	0.1	0	1	384	0.3	384	385	15.4	84.9
2022-10-15T01:06	10	0	0.1	0	1	384	0.3	384	385	15.3	85.3
2022-10-15T01:07	10	0	0.1	0	1	384	0.5	383	385	15.4	85.2
2022-10-15T01:08	10	0	0.1	0	1	384	0.4	384	385	15.4	84.9
2022-10-15T01:09	10	0	0.1	0	0	384	0.5	383	385	15.3	85.2
2022-10-15T01:10	10	0	0.1	0	1	384	0.6	383	386	15.4	85.1
2022-10-15T01:11	10	0	0.1	0	0	384	0.3	384	385	15.4	85.1
2022-10-15T01:12	10	0	0.1	0	0	385	0.3	384	385	15.4	85.1
2022-10-15T01:13	10	0	0.1	0	0	385	0.3	384	385	15.4	84.8
2022-10-15T01:14	10	0	0.1	0	0	385	0.4	384	386	15.4	84.8
2022-10-15T01:15	10	0	0.1	0	1	385	0.3	384	385	15.4	84.7
2022-10-15T01:16	10	0	0.1	0	0	385	0.2	384	385	15.4	84.8
2022-10-15T01:17	10	0	0.1	0	0	384	0.3	384	385	15.4	85.1
2022-10-15T01:18	10	0	0.1	0	0	384	0.3	384	385	15.3	85.1
2022-10-15T01:19	10	0	0.1	0	0	384	1.1	382	386	15.4	85.1
2022-10-15T01:20	10	0	0.1	0	0	385	0.5	384	386	15.5	84.3
2022-10-15T01:21	10	0	0.1	0	0	384	0.6	383	385	15.4	84.2
2022-10-15T01:22	10	0	0.1	0	1	384	0.4	384	385	15.4	84.3
2022-10-15T01:23	10	0	0.1	0	0	384	0.4	383	385	15.4	84.6
2022-10-15T01:24	10	0	0.1	0	0	384	0.4	384	385	15.4	84.6
2022-10-15T01:25	10	0	0.1	0	0	384	0.2	384	385	15.4	84.7
2022-10-15T01:26	10	0	0.1	0	0	384	0.5	383	385	15.3	84.7
2022-10-15T01:27	10	0	0.1	0	0	384	0.4	383	385	15.3	85.1
2022-10-15T01:28	10	0	0.1	0	0	384	0.4	384	385	15.3	85.0
2022-10-15T01:29	10	0	0.2	0	1	384	0.4	383	385	15.3	85.1
2022-10-15T01:30	10	0	0.1	0	0	384	0.3	383	385	15.3	85.2
2022-10-15T01:31	10	0	0.2	0	1	384	0.3	384	385	15.3	85.0
2022-10-15T01:32	10	0	0.1	0	0	384	0.3	383	385	15.3	85.2
2022-10-15T01:33	10	0	0.1	0	0	384	0.3	383	385	15.2	85.3
2022-10-15T01:34	10	0	0.2	0	1	384	0.4	383	385	15.3	85.4
2022-10-15T01:35	10	0	0.2	0	0	384	0.3	384	385	15.3	85.0
2022-10-15T01:36	10	0	0.1	0	0	384	0.3	383	385	15.2	85.6
2022-10-15T01:37	10	0	0.1	0	0	384	0.5	383	385	15.3	85.5
2022-10-15T01:38	10	0	0.2	0	0	384	0.5	383	385	15.2	85.7
2022-10-15T01:39	10	0	0.2	0	1	384	0.5	382	384	15.2	85.9
2022-10-15T01:40	10	0	0.1	0	0	384	0.5	383	385	15.3	85.3
2022-10-15T01:41	10	0	0.2	0	1	384	0.3	384	385	15.3	85.1
2022-10-15T01:42	10	0	0.1	0	0	384	0.5	382	385	15.2	85.5
2022-10-15T01:43	10	0	0.1	0	0	384	0.4	383	385	15.2	85.5
2022-10-15T01:44	10	0	0.2	0	0	384	0.3	383	385	15.2	85.7
2022-10-15T01:45	10	0	0.1	0	0	384	0.4	383	384	15.2	85.8
2022-10-15T01:46	10	0	0.2	0	0	384	0.2	384	385	15.1	86.0
2022-10-15T01:47	10	0	0.2	0	1	384	0.3	383	385	15.3	85.3
2022-10-15T01:48	10	0	0.2	0	1	384	0.3	383	385	15.2	85.6
2022-10-15T01:49	10	0	0.2	0	0	384	0.3	383	385	15.1	85.7
2022-10-15T01:50	10	0	0.1	0	0	384	0.4	383	384	15.2	85.9
2022-10-15T01:51	10	0	0.1	0	0	384	0.4	383	385	15.2	85.6
2022-10-15T01:52	10	0	0.2	0	1	384	0.3	383	385	15.1	85.7
2022-10-15T01:53	10	0	0.1	0	0	384	0.4	383	385	15.1	86.1
2022-10-15T01:54	10	0	0.1	0	0	384	0.4	383	385	15.1	86.1
2022-10-15T01:55	10	0	0.2	0	1	384	0.3	383	384	15.1	86.1
2022-10-15T01:56	10	0	0.1	0	0	384	0.4	383	385	15.1	86.0
2022-10-15T01:57	10	0	0.1	0	0	384	0.6	383	385	15.2	85.8
2022-10-15T01:58	10	0	0.1	0	0	384	0.4	383	385	15.1	85.9
2022-10-15T01:59	10	0	0.1	0	0	384	0.3	383	384	15.1	86.1
2022-10-15T02:00	10	0	0.1	0	0	384	0.3	383	384	15.1	86.1
2022-10-15T02:01	10	0	0.2	0	0	384	0.3	383	384	15.1	85.9
2022-10-15T02:02	10	0	0.2	0	0	384	0.4	383	385	15.2	85.7
2022-10-15T02:03	10	0	0.2	0	0	384	0.5	383	385	15.2	85.4
2022-10-15T02:04	10	0	0.2	0	0	384	0.3	383	385	15.2	85.6
2022-10-15T02:05	10	0	0.2	0	0	384	0.3	383	385	15.2	85.4
2022-10-15T02:06	10	0	0.2	0	0	384	0.3	383	385	15.2	85.4
2022-10-15T02:07	10	0	0.2	0	0	384	0.3	383	385	15.2	85.6
2022-10-15T02:08	10	0	0.1	0	0	384	0.3	383	385	15.1	85.6
2022-10-15T02:09	10	0	0.2	0	0	384	0.6	383	385	15.1	85.9
2022-10-15T02:10	10	0	0.2	0	0	384	0.4	383	385	15.2	85.8
2022-10-15T02:11	10	0	0.1	0	0	384	0.4	383	385	15.1	85.6
2022-10-15T02:12	10	0	0.1	0	0	384	0.3	383	384	15.1	85.9
2022-10-15T02:13	10	0	0.1	0	0	384	0.2	383	384	15.1	85.9
2022-10-15T02:14	10	0	0.1	0	0	384	0.3	383	385	15.2	85.6
2022-10-15T02:15	10	0	0.1	0	0	384	0.3	383	384	15.2	85.3
2022-10-15T02:16	10	0	0.2	-1	0	384	0.4	382	384	15.2	85.5
2022-10-15T02:17	10	0	0.1	0	0	384	0.3	383	385	15.4	84.7
2022-10-15T02:18	10	0	0.2	0	1	384	0.3	383	385	15.3	84.4
2022-10-15T02:19	10	0	0.1	0	0	384	0.3	383	384	15.4	84.2
2022-10-15T02:20	10	0	0.2	0	0	384	0.3	384	385	15.4	83.8
2022-10-15T02:21	10	0	0.1	0	0	384	0.3	383	385	15.3	84.0
2022-10-15T02:22	10	0	0.2	0	1	384	0.2	383	384	15.3	84.5
2022-10-15T02:23	10	0	0.2	0	1	383	0.4	382	384	15.2	84.8
2022-10-15T02:24	10	0	0.2	0	1	383	0.2	383	384	15.1	85.4
2022-10-15T02:25	10	0	0.2	0	1	383	0.3	382	384	15.2	85.3
2022-10-15T02:26	10	0	0.2	0	1	383	0.3	382	384	15.2	85.0
2022-10-15T02:27	10	0	0.2	0	1	383	0.3	382	383	15.2	84.8
2022-10-15T02:28	10	0	0.1	0	1	383	0.3	382	384	15.2	84.8
2022-10-15T02:29	10	0	0.1	0	1	383	0.2	382	383	15.2	85.0
2022-10-15T02:30	10	0	0.1	0	1	383	0.3	382	383	15.2	84.8
2022-10-15T02:31	10	0	0.2	0	1	383	0.3	382	383	15.2	84.8
2022-10-15T02:32	10	0	0.2	0	1	383	0.2	382	383	15.2	84.9
2022-10-15T02:33	10	0	0.1	0	1	383	0.4	382	384	15.2	85.1
2022-10-15T02:34	10	0	0.2	0	1	383	0.5	382	384	15.2	84.9
2022-10-15T02:35	10	0	0.2	0	0	383	0.3	383	384	15.3	84.4
2022-10-15T02:36	10	0	0.2	0	1	384	0.2	383	384	15.3	84.1
2022-10-15T02:37	10	0	0.1	0	0	384	0.3	383	384	15.3	84.0
2022-10-15T02:38	10	0	0.2	0	1	384	0.3	383	384	15.2	84.6
2022-10-15T02:39	10	0	0.2	0	1	384	0.4	383	385	15.3	84.2
2022-10-15T02:40	10	0	0.2	0	1	383	0.3	383	384	15.3	84.1
2022-10-15T02:41	10	0	0.1	0	1	383	0.3	382	384	15.2	84.9
2022-10-15T02:42	10	0	0.2	0	1	383	0.5	382	384	15.3	84.2
2022-10-15T02:43	10	0	0.2	0	1	383	0.4	382	384	15.3	84.2
2022-10-15T02:44	10	0	0.1	0	0	383	0.4	382	383	15.3	84.3
2022-10-15T02:45	10	0	0.2	0	1	383	0.3	382	383	15.3	83.9
2022-10-15T02:46	10	0	0.2	0	1	382	0.3	382	383	15.3	83.8
2022-10-15T02:47	10	0	0.2	0	0	382	0.3	382	383	15.3	83.9
2022-10-15T02:48	10	0	0.2	0	1	382	0.3	382	383	15.3	83.9
2022-10-15T02:49	10	0	0.1	0	1	383	0.3	382	383	15.4	83.3
2022-10-15T02:50	10	0	0.2	0	1	382	0.4	382	383	15.4	83.1
2022-10-15T02:51	10	0	0.2	0	1	382	0.3	381	383	15.3	83.5
2022-10-15T02:52	10	0	0.2	0	1	382	0.2	382	383	15.4	83.1
2022-10-15T02:53	10	0	0.2	0	1	382	0.3	381	383	15.2	83.7
2022-10-15T02:54	10	0	0.1	0	0	382	0.4	381	383	15.2	84.2
2022-10-15T02:55	10	0	0.2	0	0	382	0.3	382	383	15.3	83.7
2022-10-15T02:56	10	0	0.1	0	0	382	0.4	381	383	15.2	83.5
2022-10-15T02:57	10	0	0.2	0	0	382	0.3	382	383	15.2	83.9
2022-10-15T02:58	10	0	0.2	0	0	382	0.3	381	383	15.2	83.7
2022-10-15T02:59	10	0	0.1	0	0	382	0.6	381	383	15.2	83.9
2022-10-15T03:00	10	0	0.2	0	0	382	0.4	381	383	15.2	83.9
2022-10-15T03:01	10	0	0.1	0	0	382	0.4	381	382	15.2	83.9
2022-10-15T03:02	10	0	0.2	0	0	382	0.4	381	383	15.2	83.7
2022-10-15T03:03	10	0	0.2	0	0	382	0.3	381	383	15.2	83.7
2022-10-15T03:04	10	0	0.2	0	1	382	0.4	381	382	15.1	84.0
2022-10-15T03:05	10	0	0.2	0	0	382	0.3	381	382	15.1	84.3
2022-10-15T03:06	10	0	0.1	0	0	382	0.3	381	382	15.1	84.3
2022-10-15T03:07	10	0	0.1	0	0	381	1.3	378	383	15.1	84.1
2022-10-15T03:08	10	0	0.2	0	0	381	0.6	380	382	15.1	84.3
2022-10-15T03:09	10	0	0.2	-1	0	381	0.7	380	382	15.1	84.4
2022-10-15T03:10	10	0	0.2	-1	0	381	0.7	380	383	15.1	84.5
2022-10-15T03:11	10	0	0.1	0	0	381	0.4	380	382	15.1	84.3
2022-10-15T03:12	10	0	0.2	0	0	381	0.3	381	382	15.1	84.3
2022-10-15T03:13	10	0	0.2	0	0	382	0.4	381	382	15.2	83.8
2022-10-15T03:14	10	0	0.1	0	0	382	0.6	380	383	15.2	83.7
2022-10-15T03:15	10	0	0.1	0	1	382	0.6	381	383	15.2	83.7
2022-10-15T03:16	10	0	0.1	0	0	382	0.2	381	383	15.2	83.6
2022-10-15T03:17	10	0	0.2	0	1	382	0.3	381	383	15.2	83.7
2022-10-15T03:18	10	0	0.2	0	1	382	0.3	382	383	15.2	83.5
2022-10-15T03:19	10	0	0.2	0	1	382	0.4	381	383	15.2	83.3
2022-10-15T03:20	10	0	0.2	0	1	383	0.4	382	383	15.2	83.3
2022-10-15T03:21	10	0	0.1	0	1	382	0.5	381	383	15.2	83.6
2022-10-15T03:22	10	0	0.2	0	1	383	0.6	381	384	15.3	83.1
2022-10-15T03:23	10	0	0.2	0	1	382	0.6	381	383	15.2	83.2
2022-10-15T03:24	10	0	0.2	0	1	382	0.4	382	383	15.3	83.0
2022-10-15T03:25	10	0	0.1	0	1	383	0.3	382	384	15.3	82.7
2022-10-15T03:26	10	0	0.2	0	1	383	0.3	382	383	15.3	82.7
2022-10-15T03:27	10	0	0.1	0	1	383	0.5	381	384	15.3	82.8
2022-10-15T03:28	10	0	0.1	0	0	383	0.3	382	383	15.3	82.7
2022-10-15T03:29	10	0	0.1	0	1	383	0.3	382	383	15.3	82.8
2022-10-15T03:30	10	0	0.2	0	1	383	0.3	382	384	15.3	82.7
2022-10-15T03:31	10	0	0.2	0	1	383	0.6	382	384	15.4	82.2
2022-10-15T03:32	10	0	0.2	0	1	383	0.3	383	384	15.4	82.0
2022-10-15T03:33	10	0	0.2	0	1	383	0.5	382	384	15.3	82.2
2022-10-15T03:34	10	0	0.2	0	1	383	0.4	382	384	15.3	82.7
2022-10-15T03:35	10	0	0.1	0	1	383	0.4	382	384	15.3	82.4
2022-10-15T03:36	10	0	0.2	0	1	383	0.6	382	384	15.4	82.0
2022-10-15T03:37	10	0	0.2	0	1	383	0.3	382	384	15.4	81.9
2022-10-15T03:38	10	0	0.2	0	1	383	0.4	381	384	15.4	82.1
2022-10-15T03:39	10	0	0.2	0	1	383	0.3	382	383	15.4	82.2
2022-10-15T03:40	10	0	0.2	0	1	383	0.7	382	384	15.4	81.9
2022-10-15T03:41	10	0	0.2	0	1	383	0.5	381	384	15.4	81.9
2022-10-15T03:42	10	0	0.2	0	1	382	0.3	382	383	15.4	81.9
2022-10-15T03:43	10	0	0.2	0	1	382	0.3	381	383	15.4	82.0
2022-10-15T03:44	10	0	0.2	0	1	382	0.4	381	383	15.4	82.1
2022-10-15T03:45	10	0	0.2	0	1	382	0.3	381	382	15.3	82.1
2022-10-15T03:46	10	0	0.2	0	1	382	0.3	381	383	15.4	82.0
2022-10-15T03:47	10	0	0.2	0	1	382	0.4	381	383	15.3	82.1
2022-10-15T03:48	10	0	0.1	0	1	382	0.3	382	383	15.3	82.2
2022-10-15T03:49	10	0	0.2	0	1	382	0.3	381	383	15.3	82.2
2022-10-15T03:50	10	0	0.2	0	1	382	0.3	381	383	15.3	82.3
2022-10-15T03:51	10	0	0.1	0	1	382	0.4	381	383	15.3	82.4
2022-10-15T03:52	10	0	0.2	0	1	382	0.4	381	383	15.3	82.4
2022-10-15T03:53	10	0	0.1	0	1	382	0.4	381	383	15.3	82.1
2022-10-15T03:54	10	0	0.1	0	0	382	0.3	381	383	15.3	82.2
2022-10-15T03:55	10	0	0.2	0	1	382	0.5	381	383	15.3	82.0
2022-10-15T03:56	10	0	0.2	0	1	382	0.3	381	382	15.3	81.9
2022-10-15T03:57	10	0	0.1	0	0	382	0.7	380	383	15.2	82.4
2022-10-15T03:58	10	0	0.2	0	1	382	0.6	380	383	15.3	82.3
2022-10-15T03:59	10	0	0.2	0	1	382	0.5	381	383	15.3	82.0
2022-10-15T04:00	10	0	0.1	0	0	382	0.3	381	383	15.3	82.0
2022-10-15T04:01	10	0	0.2	0	1	382	0.3	381	382	15.3	81.9
2022-10-15T04:02	10	0	0.2	0	1	382	0.4	381	383	15.4	81.8
2022-10-15T04:03	10	0	0.1	0	1	382	0.3	381	383	15.4	81.2
2022-10-15T04:04	10	0	0.2	0	1	382	0.5	381	383	15.5	80.8
2022-10-15T04:05	10	0	0.2	0	1	383	0.5	382	383	15.6	80.5
2022-10-15T04:06	10	0	0.1	0	1	382	0.3	382	383	15.5	80.4
2022-10-15T04:07	10	0	0.1	0	1	382	0.4	381	383	15.4	81.0
2022-10-15T04:08	10	0	0.2	0	1	382	0.3	382	383	15.5	80.9
2022-10-15T04:09	10	0	0.1	0	1	382	0.3	381	383	15.4	80.9
2022-10-15T04:10	10	0	0.1	0	1	382	0.4	381	383	15.4	81.3
2022-10-15T04:11	10	0	0.1	0	1	382	0.4	381	383	15.4	81.2
2022-10-15T04:12	10	0	0.1	0	1	382	0.3	382	383	15.5	80.6
2022-10-15T04:13	10	0	0.1	0	1	382	0.3	382	383	15.6	80.4
2022-10-15T04:14	10	0	0.1	0	1	383	0.3	382	383	15.5	80.3
2022-10-15T04:15	10	0	0.2	0	1	383	0.3	382	383	15.5	80.5
2022-10-15T04:16	10	0	0.2	0	1	382	0.3	382	383	15.5	80.8
2022-10-15T04:17	10	0	0.1	0	1	383	0.3	382	383	15.5	80.4
2022-10-15T04:18	10	0	0.1	0	1	382	1.0	379	384	15.5	80.7
2022-10-15T04:19	10	0	0.2	0	1	382	0.4	381	383	15.4	80.8
2022-10-15T04:20	10	0	0.1	0	1	382	0.4	381	383	15.4	81.1
2022-10-15T04:21	10	0	0.1	0	1	382	0.4	381	383	15.4	81.0
2022-10-15T04:22	10	0	0.1	0	1	382	0.3	381	383	15.4	81.0
2022-10-15T04:23	10	0	0.1	0	1	382	0.4	381	383	15.3	81.4
2022-10-15T04:24	10	0	0.1	0	0	382	0.5	381	383	15.3	81.7
2022-10-15T04:25	10	0	0.1	0	1	382	0.3	382	383	15.2	81.9
2022-10-15T04:26	10	0	0.2	0	0	382	0.5	381	383	15.3	81.8
2022-10-15T04:27	10	0	0.1	0	0	382	0.9	380	383	15.3	81.8
2022-10-15T04:28	10	0	0.2	0	0	382	0.3	381	383	15.3	81.8
2022-10-15T04:29	10	0	0.2	-1	0	382	0.5	381	383	15.3	81.8
2022-10-15T04:30	10	0	0.1	0	0	382	0.5	381	383	15.3	81.8
2022-10-15T04:31	10	0	0.1	0	0	382	0.4	381	383	15.2	82.0
2022-10-15T04:32	10	0	0.2	0	1	382	0.6	381	383	15.2	82.3
2022-10-15T04:33	10	0	0.2	0	0	382	0.6	381	383	15.3	81.9
2022-10-15T04:34	10	0	0.2	0	1	382	0.3	381	382	15.2	82.2
2022-10-15T04:35	10	0	0.2	0	0	381	0.5	381	382	15.1	82.8
2022-10-15T04:36	10	0	0.2	0	0	381	0.4	380	382	15.2	82.7
2022-10-15T04:37	10	0	0.2	0	0	381	0.3	381	382	15.1	82.6
2022-10-15T04:38	10	0	0.1	0	0	381	0.2	381	382	15.1	82.9
2022-10-15T04:39	10	0	0.1	0	0	381	0.7	379	382	15.1	83.1
2022-10-15T04:40	10	0	0.2	-1	0	381	0.3	380	381	15.0	83.1
2022-10-15T04:41	10	0	0.2	0	0	380	0.3	380	381	15.0	83.3
2022-10-15T04:42	10	0	0.1	-1	0	380	0.3	379	381	15.0	83.3
2022-10-15T04:43	10	0	0.1	-1	0	380	0.5	379	381	15.0	83.4
2022-10-15T04:44	10	0	0.2	-1	0	380	0.5	379	381	15.1	83.3
2022-10-15T04:45	10	0	0.1	-1	0	380	0.3	379	380	15.0	83.3
2022-10-15T04:46	10	0	0.1	0	0	380	0.3	379	380	15.0	83.4
2022-10-15T04:47	10	0	0.1	-1	0	380	0.3	379	381	15.0	83.4
2022-10-15T04:48	10	0	0.1	-1	0	380	0.3	379	381	15.0	83.5
2022-10-15T04:49	10	0	0.1	0	0	380	0.4	378	380	15.0	83.4
2022-10-15T04:50	10	0	0.2	-1	0	379	0.4	379	381	14.9	83.6
2022-10-15T04:51	10	0	0.1	-1	0	379	0.3	379	380	14.9	83.8
2022-10-15T04:52	10	0	0.1	-1	0	379	0.4	378	380	14.9	83.7
2022-10-15T04:53	10	0	0.1	-1	0	379	0.3	378	380	14.9	84.0
2022-10-15T04:54	10	0	0.1	-1	0	379	0.4	378	380	14.9	84.1
2022-10-15T04:55	10	0	0.1	-1	0	379	0.5	378	380	14.9	84.1
2022-10-15T04:56	10	0	0.1	-1	0	380	0.3	379	381	14.9	84.1
2022-10-15T04:57	10	0	0.1	-1	0	380	0.3	379	381	14.9	83.9
2022-10-15T04:58	10	0	0.1	-1	0	380	0.4	379	381	14.8	84.2
2022-10-15T04:59	10	0	0.1	-1	0	380	0.4	379	381	14.9	84.4
2022-10-15T05:00	10	0	0.1	-1	0	380	0.3	380	381	14.8	84.5
2022-10-15T05:01	10	0	0.1	0	0	380	0.4	380	381	14.9	84.3
2022-10-15T05:02	10	0	0.1	0	0	381	0.3	380	381	14.9	84.0
2022-10-15T05:03	10	0	0.1	0	0	381	0.2	380	381	14.9	84.2
2022-10-15T05:04	10	0	0.1	0	0	380	0.3	380	381	14.9	84.3
2022-10-15T05:05	10	0	0.1	0	0	381	0.4	380	381	14.8	84.6
2022-10-15T05:06	10	0	0.1	0	0	381	0.3	380	382	14.9	84.4
2022-10-15T05:07	10	0	0.1	0	0	381	0.5	380	382	14.8	84.5
2022-10-15T05:08	10	0	0.1	0	0	381	0.4	380	382	14.8	84.5
2022-10-15T05:09	10	0	0.1	0	0	381	0.4	380	381	14.8	84.6
2022-10-15T05:10	10	0	0.1	0	0	381	0.2	380	381	14.8	84.6
2022-10-15T05:11	10	0	0.1	0	0	381	0.2	380	381	14.8	84.5
2022-10-15T05:12	10	0	0.1	0	0	381	0.3	380	382	14.8	84.5
2022-10-15T05:13	10	0	0.1	0	0	381	0.3	380	381	14.8	84.7
2022-10-15T05:14	10	0	0.1	0	0	381	0.3	380	381	14.8	84.7
2022-10-15T05:15	10	0	0.1	0	0	381	0.3	380	382	14.9	84.3
2022-10-15T05:16	10	0	0.1	0	0	381	0.3	380	382	14.9	84.2
2022-10-15T05:17	10	0	0.1	0	0	381	0.5	380	382	14.9	84.1
2022-10-15T05:18	10	0	0.1	0	0	381	0.2	381	381	14.9	84.0
2022-10-15T05:19	10	0	0.1	0	0	381	0.3	380	382	14.9	84.0
2022-10-15T05:20	10	0	0.1	0	0	381	0.3	380	381	14.9	84.0
2022-10-15T05:21	10	0	0.1	0	0	381	0.2	381	382	14.9	83.7
2022-10-15T05:22	10	0	0.1	0	0	381	0.3	380	381	14.9	84.1
2022-10-15T05:23	10	0	0.1	0	0	381	0.3	380	381	14.9	84.2
2022-10-15T05:24	10	0	0.1	0	0	381	0.3	380	381	14.8	84.4
2022-10-15T05:25	10	0	0.1	0	0	381	0.4	380	382	14.8	84.6
2022-10-15T05:26	10	0	0.1	0	0	380	0.5	379	381	14.8	84.7
2022-10-15T05:27	10	0	0.1	0	0	381	0.3	380	382	14.8	84.7
2022-10-15T05:28	10	0	0.1	0	0	381	0.4	380	382	14.8	84.4
2022-10-15T05:29	10	0	0.1	0	0	381	0.4	380	382	14.9	84.4
2022-10-15T05:30	10	0	0.1	0	0	381	0.3	381	382	15.0	83.8
2022-10-15T05:31	10	0	0.1	0	0	381	0.3	381	382	14.9	83.8
2022-10-15T05:32	10	0	0.1	0	0	381	0.4	380	382	14.9	83.7
2022-10-15T05:33	10	0	0.1	0	0	381	0.3	381	382	14.9	84.0
2022-10-15T05:34	10	0	0.1	0	0	381	0.3	380	382	14.9	84.1
2022-10-15T05:35	10	0	0.1	0	0	381	0.2	380	381	14.9	84.3
2022-10-15T05:36	10	0	0.1	0	0	381	0.3	380	382	14.9	84.1
2022-10-15T05:37	10	0	0.1	0	0	381	0.2	380	382	14.8	84.5
2022-10-15T05:38	10	0	0.1	0	0	381	0.3	380	381	14.8	84.6
2022-10-15T05:39	10	0	0.1	0	0	381	0.2	380	381	14.8	84.6
2022-10-15T05:40	10	0	0.1	0	0	381	0.3	380	382	14.8	84.5
2022-10-15T05:41	10	0	0.1	0	1	381	0.3	380	382	14.8	84.7
2022-10-15T05:42	10	0	0.1	0	0	381	0.3	380	382	14.8	84.5
2022-10-15T05:43	10	0	0.1	0	0	381	0.3	381	382	14.8	84.7
2022-10-15T05:44	10	0	0.1	0	0	381	0.3	381	382	14.9	84.3
2022-10-15T05:45	10	0	0.1	0	0	381	0.3	381	382	14.9	84.1
2022-10-15T05:46	10	0	0.1	0	1	381	0.4	380	382	14.9	84.2
2022-10-15T05:47	10	0	0.1	0	0	381	0.4	380	382	14.8	84.3
2022-10-15T05:48	10	0	0.1	0	1	381	0.2	381	381	14.9	84.3
2022-10-15T05:49	10	0	0.1	0	1	381	0.4	380	382	14.9	83.9
2022-10-15T05:50	10	0	0.1	0	1	381	0.3	380	381	14.9	83.7
2022-10-15T05:51	10	0	0.1	0	1	381	0.4	380	382	14.9	83.8
2022-10-15T05:52	10	1	0.1	1	1	381	0.3	380	382	15.0	83.4
2022-10-15T05:53	10	1	0.1	1	1	382	0.3	381	382	14.9	83.7
2022-10-15T05:54	10	1	0.1	1	1	381	0.3	381	382	14.9	83.6
2022-10-15T05:55	10	1	0.1	1	1	381	0.3	381	382	15.1	83.3
2022-10-15T05:56	10	1	0.1	1	1	382	0.3	381	382	15.1	82.8
2022-10-15T05:57	10	1	0.1	1	1	382	0.3	381	382	15.1	82.8
2022-10-15T05:58	10	1	0.1	1	1	382	0.3	381	383	15.1	82.8
2022-10-15T05:59	10	1	0.1	1	1	382	0.3	381	383	15.1	82.6
2022-10-15T06:00	10	1	0.1	1	1	382	0.3	382	383	15.1	82.7
2022-10-15T06:01	10	1	0.1	1	2	382	0.3	381	383	15.2	82.4
2022-10-15T06:02	10	1	0.1	1	2	382	0.5	381	383	15.2	82.3
2022-10-15T06:03	10	1	0.1	1	2	383	0.4	382	384	15.3	81.7
2022-10-15T06:04	10	2	0.1	1	2	382	0.3	382	383	15.3	81.5
2022-10-15T06:05	10	2	0.1	2	2	383	0.3	382	383	15.2	81.8
2022-10-15T06:06	10	2	0.1	2	2	383	0.3	382	383	15.3	81.7
2022-10-15T06:07	10	2	0.1	2	2	383	0.3	382	383	15.3	81.5
2022-10-15T06:08	10	2	0.1	2	3	383	0.3	382	384	15.3	81.5
2022-10-15T06:09	10	3	0.1	3	3	383	0.3	383	384	15.4	81.1
2022-10-15T06:10	10	3	0.1	2	3	383	0.5	382	384	15.4	81.0
2022-10-15T06:11	10	3	0.1	3	3	383	0.5	382	384	15.4	80.8
2022-10-15T06:12	10	3	0.1	3	3	383	0.3	383	384	15.4	81.0
2022-10-15T06:13	10	3	0.1	3	3	383	0.3	382	384	15.3	81.2
2022-10-15T06:14	10	3	0.1	3	3	383	0.3	383	384	15.4	81.0
2022-10-15T06:15	10	3	0.1	3	3	383	0.2	382	384	15.4	81.0
2022-10-15T06:16	10	3	0.1	3	3	383	0.4	383	384	15.3	81.1
2022-10-15T06:17	10	3	0.1	3	3	383	0.4	383	384	15.4	81.0
2022-10-15T06:18	10	3	0.1	3	3	383	0.3	383	384	15.4	80.8
2022-10-15T06:19	10	3	0.1	3	3	383	0.4	382	384	15.4	80.8
2022-10-15T06:20	10	3	0.1	3	3	383	0.3	383	384	15.3	81.1
2022-10-15T06:21	10	3	0.1	3	3	383	0.4	382	384	15.4	80.7
2022-10-15T06:22	10	3	0.1	3	3	384	0.5	383	384	15.4	80.7
2022-10-15T06:23	10	3	0.1	3	4	384	0.3	382	384	15.4	80.7
2022-10-15T06:24	10	4	0.2	4	4	384	0.4	383	384	15.5	80.5
2022-10-15T06:25	10	5	0.2	4	5	384	0.5	383	385	15.4	80.5
2022-10-15T06:26	10	5	0.2	5	6	384	0.3	383	385	15.4	80.5
2022-10-15T06:27	10	6	0.2	6	6	384	0.4	383	385	15.5	80.3
2022-10-15T06:28	10	6	0.1	6	7	384	0.2	384	385	15.4	80.3
2022-10-15T06:29	10	6	0.1	6	7	384	0.4	383	385	15.4	80.5
2022-10-15T06:30	10	6	0.1	6	6	384	0.4	383	385	15.4	80.6
2022-10-15T06:31	10	6	0.1	6	6	384	0.4	384	385	15.4	80.4
2022-10-15T06:32	10	6	0.1	5	6	384	0.4	383	385	15.4	80.8
2022-10-15T06:33	10	6	0.1	5	6	384	0.3	383	385	15.4	80.6
2022-10-15T06:34	10	5	0.1	5	6	384	0.5	383	385	15.5	80.2
2022-10-15T06:35	10	5	0.1	5	6	384	0.3	384	385	15.5	80.2
2022-10-15T06:36	10	5	0.1	5	5	385	0.3	384	385	15.5	80.0
2022-10-15T06:37	10	5	0.1	5	5	384	0.4	383	385	15.5	80.1
2022-10-15T06:38	10	5	0.1	5	5	384	0.4	383	385	15.4	80.5
2022-10-15T06:39	10	5	0.1	5	5	384	0.3	384	385	15.5	80.2
2022-10-15T06:40	10	4	0.1	4	5	385	0.3	384	385	15.6	79.6
2022-10-15T06:41	10	4	0.1	4	5	384	0.4	384	385	15.5	79.8
2022-10-15T06:42	10	5	0.1	4	5	384	0.2	384	385	15.6	79.8
2022-10-15T06:43	10	5	0.2	5	5	385	0.4	384	385	15.7	78.9
2022-10-15T06:44	10	5	0.2	5	6	385	0.3	384	385	15.6	79.0
2022-10-15T06:45	10	6	0.1	6	6	385	0.4	384	386	15.7	78.7
2022-10-15T06:46	10	6	0.2	6	7	385	0.2	384	385	15.7	78.8
2022-10-15T06:47	10	7	0.1	6	7	385	0.6	384	386	15.7	78.7
2022-10-15T06:48	10	7	0.2	7	8	385	0.3	384	386	15.7	78.7
2022-10-15T06:49	10	8	0.2	7	8	385	0.3	384	386	15.7	78.7
2022-10-15T06:50	10	8	0.2	8	8	385	0.3	384	386	15.7	78.8
2022-10-15T06:51	10	8	0.1	8	9	385	0.5	384	386	15.7	78.5
2022-10-15T06:52	10	9	0.1	8	9	385	0.2	385	386	15.6	78.9
2022-10-15T06:53	10	8	0.1	8	9	385	0.3	385	386	15.6	79.3
2022-10-15T06:54	10	8	0.1	8	9	386	0.3	385	386	15.8	78.4
2022-10-15T06:55	10	8	0.1	8	8	385	0.4	385	386	15.8	77.6
2022-10-15T06:56	10	8	0.1	8	9	386	0.4	385	387	15.9	77.0
2022-10-15T06:57	10	8	0.1	8	9	386	0.9	384	387	15.9	77.0
2022-10-15T06:58	10	9	0.2	8	9	385	0.5	384	386	15.9	77.0
2022-10-15T06:59	10	9	0.2	8	9	386	0.5	384	387	15.8	77.4
2022-10-15T07:00	10	9	0.1	9	10	385	0.9	384	387	15.8	77.4
2022-10-15T07:01	10	9	0.1	9	10	386	0.6	384	386	15.8	77.5
2022-10-15T07:02	10	10	0.2	9	10	386	0.4	385	387	15.8	77.3
2022-10-15T07:03	10	10	0.2	10	11	386	0.2	385	386	15.8	77.5
2022-10-15T07:04	10	11	0.4	10	12	386	0.3	385	387	15.8	77.8
2022-10-15T07:05	10	12	0.3	11	12	386	0.3	385	387	15.7	77.9
2022-10-15T07:06	10	13	0.3	12	14	386	0.4	385	387	15.7	78.0
2022-10-15T07:07	10	13	0.2	13	14	386	0.3	386	387	15.8	78.1
2022-10-15T07:08	10	14	0.2	13	14	387	0.3	386	387	15.8	77.6
2022-10-15T07:09	10	15	0.2	14	15	387	0.9	385	388	15.7	78.0
2022-10-15T07:10	10	15	0.2	15	16	387	0.6	385	388	15.7	78.4
2022-10-15T07:11	10	16	0.3	15	16	387	0.2	387	388	15.8	77.5
2022-10-15T07:12	10	16	0.3	16	17	387	0.4	386	388	15.8	77.4
2022-10-15T07:13	10	17	0.3	17	18	387	0.4	386	388	15.8	77.6
2022-10-15T07:14	10	18	0.3	18	19	387	0.5	386	388	15.8	77.4
2022-10-15T07:15	10	19	0.4	18	20	388	0.3	387	389	15.9	77.2
2022-10-15T07:16	10	20	0.3	19	21	388	0.4	387	389	15.9	77.0
2022-10-15T07:17	10	20	0.2	20	21	388	0.3	388	389	15.9	77.0
2022-10-15T07:18	10	20	0.2	20	21	388	0.3	388	389	15.9	77.0
2022-10-15T07:19	10	20	0.2	20	21	388	0.3	388	389	15.9	77.1
2022-10-15T07:20	10	20	0.2	20	21	388	0.2	388	389	15.8	77.5
2022-10-15T07:21	10	21	0.3	20	22	388	0.4	387	389	15.9	77.4
2022-10-15T07:22	10	22	0.3	21	22	389	0.4	388	389	15.9	77.1
2022-10-15T07:23	10	23	0.5	22	24	388	0.9	386	390	15.9	77.2
2022-10-15T07:24	10	25	0.8	24	26	389	0.5	387	389	15.9	76.9
2022-10-15T07:25	10	28	0.9	26	30	389	0.3	388	390	15.9	76.8
2022-10-15T07:26	10	31	1.0	30	33	389	0.4	388	390	15.9	76.8
2022-10-15T07:27	10	34	0.7	33	35	390	0.6	388	391	15.9	77.2
2022-10-15T07:28	10	36	0.3	35	36	390	0.5	389	391	15.9	76.9
2022-10-15T07:29	10	36	0.3	35	37	391	0.4	390	392	15.9	77.0
2022-10-15T07:30	10	35	0.6	34	36	391	0.3	390	392	15.9	77.8
2022-10-15T07:31	10	34	0.3	34	35	391	0.3	391	392	15.9	77.7
2022-10-15T07:32	10	37	3.8	34	47	392	0.3	391	392	15.9	77.7
2022-10-15T07:33	10	35	0.4	34	35	391	0.4	391	392	15.9	77.4
2022-10-15T07:34	10	35	0.9	33	36	391	0.4	391	392	15.9	77.5
2022-10-15T07:35	10	33	2.2	29	35	392	0.4	391	393	15.9	78.0
2022-10-15T07:36	10	28	0.4	27	29	391	0.2	391	392	15.9	77.6
2022-10-15T07:37	10	28	0.2	27	28	391	0.3	390	391	15.9	77.6
2022-10-15T07:38	10	29	0.5	28	30	391	0.3	390	391	15.9	78.0
2022-10-15T07:39	10	30	0.3	29	31	391	0.5	390	392	15.9	78.4
2022-10-15T07:40	10	31	0.5	31	32	391	0.2	391	392	15.9	78.4
2022-10-15T07:41	10	33	0.4	32	34	391	0.2	391	392	15.9	79.0
2022-10-15T07:42	10	34	0.1	33	34	391	0.4	390	392	15.9	78.6
2022-10-15T07:43	10	33	0.3	32	33	391	0.4	390	392	15.9	78.1
2022-10-15T07:44	10	31	0.5	30	32	390	0.5	389	391	15.9	78.4
2022-10-15T07:45	10	30	0.5	29	31	390	0.4	389	391	15.9	78.2
2022-10-15T07:46	10	28	0.5	27	29	389	0.2	389	390	15.9	78.3
2022-10-15T07:47	10	26	0.3	26	27	389	0.3	389	390	15.8	79.2
2022-10-15T07:48	10	30	2.9	26	34	389	0.4	389	390	15.9	78.2
2022-10-15T07:49	10	33	1.2	31	35	389	0.4	389	390	16.0	77.4
2022-10-15T07:50	10	29	1.1	27	31	389	0.3	389	390	16.0	77.4
2022-10-15T07:51	10	27	0.7	27	29	389	0.4	388	390	16.0	77.4
2022-10-15T07:52	10	31	1.2	29	34	390	0.5	388	391	16.1	76.9
2022-10-15T07:53	10	42	4.7	34	48	390	0.6	389	391	16.1	76.9
2022-10-15T07:54	10	33	0.5	32	35	390	0.2	390	391	16.2	77.1
2022-10-15T07:55	10	36	1.3	33	37	391	0.4	390	391	16.3	76.3
2022-10-15T07:56	10	39	0.9	38	40	392	0.4	391	393	16.3	76.4
2022-10-15T07:57	10	39	0.3	38	40	392	0.3	392	393	16.3	76.7
2022-10-15T07:58	10	41	0.5	39	41	393	0.4	392	394	16.4	76.1
2022-10-15T07:59	10	44	1.1	41	45	393	0.3	392	394	16.4	75.9
2022-10-15T08:00	10	42	1.7	40	45	394	0.3	393	394	16.4	76.5
2022-10-15T08:01	10	40	0.4	39	40	394	0.2	394	395	16.4	76.3
2022-10-15T08:02	10	37	1.1	35	39	394	0.4	393	395	16.4	76.9
2022-10-15T08:03	10	34	0.7	33	35	393	0.4	392	394	16.4	76.7
2022-10-15T08:04	10	33	0.2	32	33	393	0.3	392	393	16.4	76.7
2022-10-15T08:05	10	32	0.0	32	32	393	0.3	392	393	16.4	76.6
2022-10-15T08:06	10	32	0.1	32	32	393	0.5	392	393	16.4	77.1
2022-10-15T08:07	10	32	0.1	32	32	393	0.2	392	393	16.3	77.2
2022-10-15T08:08	10	32	0.3	32	33	393	0.5	392	394	16.3	77.3
2022-10-15T08:09	10	33	0.3	33	34	394	0.4	393	394	16.3	77.6
2022-10-15T08:10	10	35	0.4	34	35	393	0.4	392	394	16.3	76.9
2022-10-15T08:11	10	35	0.1	35	36	394	0.3	393	394	16.4	76.2
2022-10-15T08:12	10	35	0.2	34	35	394	0.3	393	395	16.3	76.3
2022-10-15T08:13	10	34	0.1	34	34	394	0.4	393	395	16.3	76.4
2022-10-15T08:14	10	34	0.2	34	34	394	0.4	393	395	16.4	75.9
2022-10-15T08:15	10	33	0.2	33	34	394	0.4	393	394	16.4	76.2
2022-10-15T08:16	10	33	0.1	33	33	393	0.3	392	394	16.3	75.9
2022-10-15T08:17	10	33	0.1	33	33	393	0.3	393	394	16.4	75.7
2022-10-15T08:18	10	33	0.1	32	33	393	0.3	392	394	16.3	76.2
2022-10-15T08:19	10	33	0.3	33	34	394	0.4	392	394	16.3	76.6
2022-10-15T08:20	10	34	0.4	34	35	394	0.3	393	394	16.3	76.4
2022-10-15T08:21	10	35	0.2	35	36	394	0.3	393	395	16.3	76.7
2022-10-15T08:22	10	36	0.1	36	36	394	0.3	393	395	16.3	76.1
2022-10-15T08:23	10	36	0.1	36	36	394	0.3	393	394	16.4	75.7
2022-10-15T08:24	10	36	0.3	36	37	394	0.6	393	395	16.4	75.5
2022-10-15T08:25	10	38	0.5	37	39	394	0.3	393	395	16.4	75.7
2022-10-15T08:26	10	39	0.3	39	40	394	0.5	393	395	16.4	75.0
2022-10-15T08:27	10	40	0.2	39	40	394	0.4	393	395	16.4	74.8
2022-10-15T08:28	10	38	0.6	37	39	394	0.3	393	395	16.4	75.3
2022-10-15T08:29	10	36	0.5	35	37	394	0.3	393	395	16.4	75.2
2022-10-15T08:30	10	35	0.1	35	35	394	0.3	393	395	16.4	75.5
2022-10-15T08:31	10	35	0.1	35	35	394	0.3	394	395	16.4	75.6
2022-10-15T08:32	10	35	0.2	34	35	394	0.3	394	395	16.4	75.3
2022-10-15T08:33	10	34	0.3	33	34	394	0.4	393	395	16.4	75.6
2022-10-15T08:34	10	32	0.4	32	33	394	0.5	393	395	16.4	75.7
2022-10-15T08:35	10	31	0.4	30	32	394	0.3	394	395	16.4	75.9
2022-10-15T08:36	10	30	0.2	30	31	394	0.3	394	395	16.4	76.5
2022-10-15T08:37	10	30	0.1	30	30	394	0.6	393	395	16.4	76.6
2022-10-15T08:38	10	29	0.3	28	30	394	0.6	392	394	16.4	75.5
2022-10-15T08:39	10	28	0.5	27	29	393	0.4	392	394	16.4	75.7
2022-10-15T08:40	10	26	0.4	25	27	393	0.4	392	394	16.4	76.3
2022-10-15T08:41	10	25	0.2	25	25	393	0.3	392	393	16.4	75.6
2022-10-15T08:42	10	25	0.1	24	25	392	0.4	391	393	16.4	75.6
2022-10-15T08:43	10	25	0.1	24	25	392	0.2	392	393	16.3	75.8
2022-10-15T08:44	10	25	0.2	25	25	392	0.8	391	393	16.3	76.1
2022-10-15T08:45	10	25	0.2	25	26	392	0.3	392	393	16.3	76.1
2022-10-15T08:46	10	26	0.4	26	27	392	0.4	392	393	16.3	75.6
2022-10-15T08:47	10	28	0.5	27	29	392	0.4	391	393	16.3	75.8
2022-10-15T08:48	10	29	0.5	29	30	392	0.3	391	393	16.4	75.5
2022-10-15T08:49	10	31	0.4	30	31	393	0.3	392	393	16.4	75.4
2022-10-15T08:50	10	32	0.3	31	33	393	0.4	392	394	16.4	75.4
2022-10-15T08:51	10	33	0.5	32	34	393	0.6	392	394	16.4	75.5
2022-10-15T08:52	10	35	0.5	34	36	394	0.5	393	395	16.4	75.3
2022-10-15T08:53	10	37	0.4	36	37	394	0.3	393	395	16.4	75.6
2022-10-15T08:54	10	37	0.1	37	37	395	0.5	394	396	16.4	75.3
2022-10-15T08:55	10	36	0.3	36	37	394	0.5	393	395	16.4	75.5
2022-10-15T08:56	10	35	0.3	35	36	394	0.3	394	395	16.5	74.5
2022-10-15T08:57	10	35	0.2	34	35	394	0.3	393	395	16.5	74.4
2022-10-15T08:58	10	34	0.2	33	34	394	0.3	393	394	16.5	74.9
2022-10-15T08:59	10	34	0.1	33	34	394	0.3	393	394	16.5	74.0
2022-10-15T09:00	10	34	0.3	34	35	394	0.4	393	395	16.5	74.4
2022-10-15T09:01	10	36	0.6	35	37	394	0.3	393	394	16.5	74.3
2022-10-15T09:02	10	38	0.7	37	39	395	0.4	394	396	16.5	74.1
2022-10-15T09:03	10	40	0.6	39	41	395	0.4	394	396	16.5	74.7
2022-10-15T09:04	10	41	0.2	41	42	396	0.3	395	396	16.5	74.7
2022-10-15T09:05	10	42	0.2	42	43	396	0.3	395	397	16.5	74.1
2022-10-15T09:06	10	43	0.4	42	44	396	0.4	395	396	16.6	74.0
2022-10-15T09:07	10	45	0.8	44	46	396	0.3	395	397	16.6	72.5
2022-10-15T09:08	10	46	0.4	46	47	396	0.4	395	397	16.6	73.6
2022-10-15T09:09	10	47	0.2	47	47	397	0.3	396	398	16.6	74.5
2022-10-15T09:10	10	50	2.7	47	56	398	0.5	397	399	16.6	74.1
2022-10-15T09:11	10	50	0.8	49	52	397	0.6	396	399	16.7	73.2
2022-10-15T09:12	10	55	3.2	52	67	398	1.1	396	399	16.7	73.2
2022-10-15T09:13	10	94	22.8	68	138	402	1.8	398	404	16.7	73.8
2022-10-15T09:14	10	77	7.5	65	88	401	0.7	399	402	16.8	72.6
2022-10-15T09:15	10	64	0.5	63	65	400	0.4	399	400	16.8	72.6
2022-10-15T09:16	10	66	1.5	64	68	401	0.6	399	402	16.8	73.8
2022-10-15T09:17	10	81	16.7	68	121	402	1.4	401	406	16.8	73.1
2022-10-15T09:18	10	90	10.6	78	120	405	0.8	404	406	16.8	73.4
2022-10-15T09:19	10	109	20.1	76	140	406	1.0	404	408	16.9	72.7
2022-10-15T09:20	10	72	18.0	53	106	405	1.7	403	408	16.9	73.1
2022-10-15T09:21	10	50	1.8	47	53	402	1.1	400	404	16.9	73.9
2022-10-15T09:22	10	46	0.8	44	47	400	0.4	400	401	16.8	72.7
2022-10-15T09:23	10	43	0.6	42	44	399	0.6	398	401	16.8	73.3
2022-10-15T09:24	10	42	0.4	41	43	399	0.3	398	400	16.8	73.7
2022-10-15T09:25	10	41	0.2	40	41	399	0.3	399	400	16.7	74.6
2022-10-15T09:26	10	41	0.1	40	41	400	0.4	399	400	16.8	74.2
2022-10-15T09:27	10	41	0.4	41	42	399	0.3	398	400	16.8	73.8
2022-10-15T09:28	10	43	0.3	42	43	399	0.5	398	400	16.8	74.8
2022-10-15T09:29	10	43	0.1	43	43	399	0.3	398	399	16.8	74.3
2022-10-15T09:30	10	43	0.1	43	43	397	0.4	397	398	16.7	72.8
2022-10-15T09:31	10	44	0.4	43	45	398	0.4	397	399	16.7	73.3
2022-10-15T09:32	10	46	0.7	45	47	398	0.6	397	399	16.7	73.6
2022-10-15T09:33	10	48	0.7	47	50	399	0.3	398	400	16.7	73.4
2022-10-15T09:34	10	50	0.5	50	51	399	0.4	398	399	16.7	73.4
2022-10-15T09:35	10	51	0.2	51	51	398	0.3	397	398	16.8	72.6
2022-10-15T09:36	10	50	0.7	48	51	398	0.3	397	399	16.7	72.8
2022-10-15T09:37	10	48	0.4	47	48	398	0.4	397	399	16.7	73.7
2022-10-15T09:38	10	48	0.4	47	49	399	0.4	398	400	16.7	73.8
2022-10-15T09:39	10	50	1.2	49	52	399	0.4	399	400	16.8	74.1
2022-10-15T09:40	10	55	1.6	52	58	401	0.4	400	402	16.8	74.4
2022-10-15T09:41	10	60	1.0	58	61	401	0.2	401	402	16.8	73.8
2022-10-15T09:42	10	62	0.4	61	63	401	0.5	400	402	16.8	73.2
2022-10-15T09:43	10	62	0.2	62	63	403	0.7	402	404	16.9	73.4
2022-10-15T09:44	10	61	0.5	60	62	404	0.4	403	405	16.9	74.4
2022-10-15T09:45	10	59	0.3	59	60	403	0.3	403	404	16.9	73.8
2022-10-15T09:46	10	62	4.2	59	74	403	0.7	402	404	16.9	73.3
2022-10-15T09:47	10	84	9.5	66	96	405	1.2	402	406	17.0	72.7
2022-10-15T09:48	10	64	2.3	62	71	403	1.0	401	405	17.0	71.4
2022-10-15T09:49	10	78	3.1	71	84	402	0.5	401	403	17.0	70.6
2022-10-15T09:50	10	104	15.6	84	135	404	2.4	401	408	17.1	71.5
2022-10-15T09:51	10	148	12.3	128	166	409	2.4	406	412	17.1	71.0
2022-10-15T09:52	10	135	15.0	106	152	413	0.9	411	414	17.2	71.5
2022-10-15T09:53	10	116	6.1	104	130	411	1.7	409	414	17.3	71.3
2022-10-15T09:54	10	113	8.6	103	132	411	1.0	409	412	17.3	71.7
2022-10-15T09:55	10	120	9.0	107	134	410	1.0	409	413	17.3	70.2
2022-10-15T09:56	10	93	18.7	78	134	411	1.4	408	413	17.4	71.7
2022-10-15T09:57	10	75	5.3	70	86	407	1.4	405	410	17.3	70.6
2022-10-15T09:58	10	73	2.0	70	77	406	0.6	405	407	17.3	71.0
2022-10-15T09:59	10	83	3.6	77	90	406	0.9	405	408	17.3	70.0
2022-10-15T10:00	10	104	20.4	81	139	408	1.2	407	411	17.3	70.9
2022-10-15T10:01	10	93	15.7	75	128	409	0.7	408	410	17.3	70.3
2022-10-15T10:02	10	76	1.7	74	79	407	0.6	406	409	17.3	70.8
2022-10-15T10:03	10	89	4.9	80	96	408	0.5	406	409	17.4	71.1
2022-10-15T10:04	10	92	5.8	86	107	408	0.3	407	408	17.4	70.7
2022-10-15T10:05	10	113	9.8	99	130	410	1.6	407	413	17.4	70.9
2022-10-15T10:06	10	119	7.4	105	134	412	0.3	411	413	17.5	70.8
2022-10-15T10:07	10	174	14.0	127	185	417	2.4	412	420	17.6	70.5
2022-10-15T10:08	10	178	0.8	176	179	420	1.0	418	422	17.7	69.7
2022-10-15T10:09	10	175	1.0	173	177	422	0.5	422	424	17.7	69.7
2022-10-15T10:10	10	175	0.6	174	176	425	0.9	423	427	18.0	71.2
2022-10-15T10:11	10	176	3.9	163	180	423	0.8	422	426	18.0	69.6
2022-10-15T10:12	10	171	20.7	113	182	425	1.0	423	427	18.1	69.2
2022-10-15T10:13	10	100	13.0	88	128	419	3.4	415	426	17.9	68.0
2022-10-15T10:14	10	112	32.4	87	177	414	1.8	411	417	17.9	67.7
2022-10-15T10:15	10	167	6.1	151	173	419	2.7	415	424	17.9	67.7
2022-10-15T10:16	10	165	4.1	155	168	425	0.9	423	426	18.1	69.8
2022-10-15T10:17	10	168	4.1	160	177	424	0.7	422	425	18.0	68.2
2022-10-15T10:18	10	135	15.2	99	166	420	2.4	416	424	17.9	66.8
2022-10-15T10:19	10	90	14.9	71	125	415	1.8	411	418	17.9	67.7
2022-10-15T10:20	10	61	4.8	56	70	409	2.9	404	414	17.8	67.7
2022-10-15T10:21	10	54	0.8	53	56	408	0.4	407	409	17.8	68.0
2022-10-15T10:22	10	52	0.6	51	53	405	0.9	404	408	17.7	68.0
2022-10-15T10:23	10	61	22.9	50	142	405	0.6	404	408	17.6	68.7
2022-10-15T10:24	10	145	17.0	107	162	413	2.7	406	418	17.7	68.8
2022-10-15T10:25	10	152	4.2	142	158	417	0.6	416	418	17.8	68.3
2022-10-15T10:26	10	145	1.6	141	147	418	1.1	416	420	17.9	68.8
2022-10-15T10:27	10	146	0.6	145	147	418	0.3	417	419	17.9	68.0
2022-10-15T10:28	10	132	16.0	93	147	418	0.9	416	419	18.0	67.8
2022-10-15T10:29	10	89	6.8	76	102	415	1.6	413	418	18.1	69.0
2022-10-15T10:30	10	125	22.0	92	154	416	1.5	413	418	18.2	68.7
2022-10-15T10:31	10	110	35.2	75	159	415	2.3	411	419	18.2	67.4
2022-10-15T10:32	10	78	25.9	60	146	410	1.7	408	414	18.2	67.7
2022-10-15T10:33	10	140	23.6	96	172	416	3.5	411	421	18.2	67.8
2022-10-15T10:34	10	163	16.9	110	179	419	1.3	417	422	18.3	66.9
2022-10-15T10:35	10	127	20.3	93	157	416	1.7	414	418	18.3	65.9
2022-10-15T10:36	10	154	7.7	138	164	417	1.7	414	420	18.3	65.5
2022-10-15T10:37	10	144	6.7	130	155	418	1.0	416	420	18.3	66.5
2022-10-15T10:38	10	154	1.4	150	156	419	1.7	416	422	18.3	66.2
2022-10-15T10:39	10	155	1.2	154	158	421	0.9	419	422	18.4	66.7
2022-10-15T10:40	10	148	6.0	137	158	420	1.8	417	423	18.4	65.9
2022-10-15T10:41	10	164	4.2	154	168	423	1.7	419	425	18.5	67.1
2022-10-15T10:42	10	160	18.9	118	174	422	1.4	418	424	18.5	66.3
2022-10-15T10:43	10	161	11.8	137	179	421	1.0	419	423	18.4	66.2
2022-10-15T10:44	10	181	1.8	179	185	423	1.4	420	425	18.5	65.8
2022-10-15T10:45	10	172	17.2	142	188	426	1.1	423	427	18.5	66.5
2022-10-15T10:46	10	185	12.4	143	191	428	1.5	424	430	18.6	66.7
2022-10-15T10:47	10	191	0.7	190	192	427	0.5	426	428	18.5	65.3
2022-10-15T10:48	10	191	0.5	190	192	428	0.7	426	429	18.5	65.7
2022-10-15T10:49	10	190	5.1	178	194	428	1.7	425	430	18.6	65.6
2022-10-15T10:50	10	186	3.7	179	191	428	0.6	427	429	18.6	66.2
2022-10-15T10:51	10	193	2.5	187	195	429	1.8	426	431	18.6	65.3
2022-10-15T10:52	10	196	1.1	194	197	431	1.0	430	434	18.5	64.9
2022-10-15T10:53	10	158	31.1	97	193	431	3.4	424	435	18.6	65.7
2022-10-15T10:54	10	183	20.5	135	201	430	3.4	423	434	18.8	66.5
2022-10-15T10:55	10	149	14.1	132	191	431	1.9	429	435	18.9	66.7
2022-10-15T10:56	10	117	20.6	96	158	426	3.7	421	431	18.8	65.9
2022-10-15T10:57	10	142	21.0	105	174	423	1.0	421	425	18.7	64.9
2022-10-15T10:58	10	85	6.9	80	117	419	2.1	417	424	18.6	64.6
2022-10-15T10:59	10	83	1.5	81	86	419	0.8	417	420	18.7	65.8
2022-10-15T11:00	10	117	28.4	81	169	420	2.8	416	423	18.5	64.6
2022-10-15T11:01	10	98	6.2	89	111	419	1.2	418	422	18.7	64.9
2022-10-15T11:02	10	147	32.8	97	197	421	2.4	417	426	18.7	64.5
2022-10-15T11:03	10	152	24.0	126	197	425	1.2	423	427	18.7	63.9
2022-10-15T11:04	10	111	30.5	80	177	422	3.7	417	428	18.6	64.1
2022-10-15T11:05	10	104	15.0	87	141	419	1.0	417	421	18.7	65.0
2022-10-15T11:06	10	85	19.8	60	119	417	1.3	414	419	18.6	64.0
2022-10-15T11:07	10	56	1.0	56	59	414	1.1	413	417	18.6	65.8
2022-10-15T11:08	10	57	1.0	56	60	413	0.4	412	414	18.6	65.5
2022-10-15T11:09	10	88	26.7	60	163	414	2.7	411	421	18.5	64.1
2022-10-15T11:10	10	163	21.7	120	185	425	2.7	418	428	18.6	64.8
2022-10-15T11:11	10	119	17.1	89	145	426	1.2	424	428	18.8	66.2
2022-10-15T11:12	10	86	14.8	71	122	422	2.9	418	427	18.9	66.0
2022-10-15T11:13	10	79	3.2	71	84	419	0.5	418	420	18.8	66.2
2022-10-15T11:14	10	76	4.6	70	85	419	0.9	418	421	18.9	65.5
2022-10-15T11:15	10	101	12.0	76	116	419	1.1	417	420	18.7	65.0
2022-10-15T11:16	10	131	21.5	95	162	423	2.4	419	427	18.6	64.7
2022-10-15T11:17	10	73	19.7	58	140	419	3.9	414	427	18.6	65.2
2022-10-15T11:18	10	70	18.7	57	119	415	1.0	414	418	18.6	65.8
2022-10-15T11:19	10	107	12.7	85	141	418	0.8	416	419	18.6	64.7
2022-10-15T11:20	10	96	28.7	60	144	418	2.2	415	421	18.6	64.6
2022-10-15T11:21	10	114	40.3	63	160	418	4.5	413	426	18.6	65.3
2022-10-15T11:22	10	157	2.2	153	160	426	0.8	424	427	18.7	64.9
2022-10-15T11:23	10	149	2.3	145	153	427	1.0	426	429	18.7	65.0
2022-10-15T11:24	10	142	1.5	140	145	426	1.0	425	428	18.7	65.0
2022-10-15T11:25	10	138	0.8	137	140	426	0.5	425	427	18.8	65.4
2022-10-15T11:26	10	136	0.5	135	137	427	0.6	426	428	18.9	65.9
2022-10-15T11:27	10	135	0.4	134	135	426	1.5	423	428	18.8	64.8
2022-10-15T11:28	10	133	3.7	121	136	425	1.0	424	427	18.8	64.4
2022-10-15T11:29	10	125	13.8	91	134	425	0.8	423	426	18.9	64.8
2022-10-15T11:30	10	133	0.2	133	134	428	1.6	425	432	19.0	65.6
2022-10-15T11:31	10	134	0.5	134	135	430	1.6	427	433	19.2	66.1
2022-10-15T11:32	10	136	0.2	135	136	428	0.5	427	429	19.1	64.5
2022-10-15T11:33	10	136	0.1	136	136	430	1.5	427	432	19.1	65.1
2022-10-15T11:34	10	137	0.2	136	137	429	0.6	429	431	19.2	64.8
2022-10-15T11:35	10	137	0.3	137	138	427	1.9	425	431	19.1	63.4
2022-10-15T11:36	10	139	0.4	138	139	427	1.1	425	428	18.9	62.9
2022-10-15T11:37	10	141	0.8	139	142	429	1.0	427	430	19.0	64.1
2022-10-15T11:38	10	144	1.2	142	146	428	1.4	425	429	19.0	63.5
2022-10-15T11:39	10	149	1.9	146	153	427	1.4	425	429	19.0	63.6
2022-10-15T11:40	10	157	2.5	153	161	428	0.7	427	430	19.1	63.4
2022-10-15T11:41	10	162	5.5	150	172	432	2.4	427	435	19.3	64.4
2022-10-15T11:42	10	136	7.7	121	148	429	1.3	427	432	19.2	63.2
2022-10-15T11:43	10	113	8.5	97	130	426	1.9	423	429	19.1	63.2
2022-10-15T11:44	10	90	10.6	78	114	423	1.9	421	426	19.2	63.9
2022-10-15T11:45	10	91	5.6	85	106	420	1.1	419	422	19.0	61.8
2022-10-15T11:46	10	90	3.7	85	97	419	0.4	419	420	18.9	61.9
2022-10-15T11:47	10	92	7.5	83	105	421	0.9	419	422	19.0	62.9
2022-10-15T11:48	10	95	10.5	82	117	422	1.1	420	424	19.1	64.1
2022-10-15T11:49	10	107	14.8	86	139	422	1.2	420	424	19.2	63.8
2022-10-15T11:50	10	144	13.7	107	167	427	1.6	423	428	19.1	62.5
2022-10-15T11:51	10	162	21.0	128	188	429	2.1	426	433	19.2	62.2
2022-10-15T11:52	10	172	14.7	144	195	431	1.2	429	433	19.3	61.6
2022-10-15T11:53	10	146	22.5	123	195	431	1.3	429	434	19.3	61.5
2022-10-15T11:54	10	124	17.9	101	153	430	1.2	427	432	19.4	62.2
2022-10-15T11:55	10	132	20.9	99	173	428	1.1	426	430	19.3	61.4
2022-10-15T11:56	10	151	21.7	117	185	429	1.6	426	432	19.4	61.3
2022-10-15T11:57	10	160	20.7	125	191	432	1.3	429	434	19.5	61.5
2022-10-15T11:58	10	111	11.7	92	132	428	1.6	425	431	19.5	60.9
2022-10-15T11:59	10	99	6.4	87	111	425	1.0	423	427	19.4	61.5
2022-10-15T12:00	10	88	2.0	85	93	424	0.9	423	426	19.6	62.8
2022-10-15T12:01	10	87	5.0	81	99	422	1.8	419	425	19.5	61.7
2022-10-15T12:02	10	91	6.6	82	105	420	0.6	419	421	19.4	60.9
2022-10-15T12:03	10	108	27.0	79	167	420	3.2	416	427	19.3	60.7
2022-10-15T12:04	10	95	8.8	82	111	422	1.6	420	425	19.3	61.9
2022-10-15T12:05	10	118	19.4	92	161	423	2.5	420	427	19.3	62.4
2022-10-15T12:06	10	112	11.6	92	140	423	0.5	422	424	19.3	61.8
2022-10-15T12:07	10	142	29.0	87	175	429	2.8	423	433	19.4	62.7
2022-10-15T12:08	10	112	21.4	87	163	427	1.1	425	430	19.5	63.4
2022-10-15T12:09	10	84	11.4	71	118	426	2.8	421	430	19.6	63.0
2022-10-15T12:10	10	117	27.4	82	173	427	2.5	422	431	19.5	62.3
2022-10-15T12:11	10	117	21.1	83	154	427	1.3	425	430	19.5	61.8
2022-10-15T12:12	10	140	26.7	96	177	429	1.5	426	431	19.6	62.4
2022-10-15T12:13	10	116	25.1	75	151	428	1.8	423	431	19.6	61.8
2022-10-15T12:14	10	153	20.0	94	168	431	4.2	424	437	19.6	61.1
2022-10-15T12:15	10	150	10.1	132	163	435	0.5	434	436	19.8	61.4
2022-10-15T12:16	10	136	21.7	87	154	432	1.2	430	435	19.8	61.3
2022-10-15T12:17	10	147	2.3	144	152	433	0.2	432	433	19.8	60.3
2022-10-15T12:18	10	141	1.6	138	144	434	0.6	432	435	19.9	59.9
2022-10-15T12:19	10	136	1.3	134	138	435	1.1	433	436	20.1	61.0
2022-10-15T12:20	10	132	0.9	130	134	435	0.3	434	435	20.2	59.0
2022-10-15T12:21	10	129	0.8	128	131	431	2.7	427	436	20.3	56.3
2022-10-15T12:22	10	128	0.2	127	128	428	1.0	426	429	20.3	55.8
2022-10-15T12:23	10	127	0.2	127	127	427	0.9	425	428	20.4	55.7
2022-10-15T12:24	10	127	0.1	127	127	428	0.3	427	428	20.4	55.6
2022-10-15T12:25	10	127	0.1	126	127	426	1.5	424	429	20.3	54.5
2022-10-15T12:26	10	126	0.1	126	127	427	1.1	425	428	20.3	54.9
2022-10-15T12:27	10	126	0.1	126	126	427	0.8	426	429	20.3	55.3
2022-10-15T12:28	10	126	0.1	126	127	427	1.1	426	429	20.3	55.1
2022-10-15T12:29	10	126	0.2	126	126	429	0.7	428	430	20.4	55.3
2022-10-15T12:30	10	125	0.2	125	126	427	0.5	426	428	20.4	54.9
2022-10-15T12:31	10	125	0.1	125	125	429	1.2	427	431	20.4	56.0
2022-10-15T12:32	10	125	0.1	125	125	431	0.5	430	432	20.5	56.3
2022-10-15T12:33	10	125	0.1	125	125	431	0.4	430	432	20.5	55.9
2022-10-15T12:34	10	125	0.2	124	125	430	1.0	428	432	20.5	55.7
2022-10-15T12:35	10	124	0.3	123	124	429	0.7	427	431	20.5	55.9
2022-10-15T12:36	10	123	0.2	123	124	428	0.6	426	429	20.5	54.3
2022-10-15T12:37	10	122	0.1	122	123	427	1.0	423	428	20.5	54.5
2022-10-15T12:38	10	122	0.1	122	122	424	1.5	421	426	20.5	52.3
2022-10-15T12:39	10	122	0.1	121	122	424	0.9	422	425	20.5	53.1
2022-10-15T12:40	10	121	0.1	121	122	425	1.4	422	427	20.5	53.4
2022-10-15T12:41	10	121	0.1	121	122	422	0.5	421	424	20.5	52.2
2022-10-15T12:42	10	121	0.1	121	121	423	1.1	421	424	20.5	52.0
2022-10-15T12:43	10	121	0.1	121	121	423	1.2	421	425	20.5	52.8
2022-10-15T12:44	10	121	0.1	121	121	422	1.0	420	423	20.4	52.2
2022-10-15T12:45	10	121	0.1	121	121	423	1.3	420	425	20.5	52.7
2022-10-15T12:46	10	121	0.1	121	121	423	0.5	422	424	20.5	52.6
2022-10-15T12:47	10	121	0.1	121	121	422	0.5	421	423	20.5	51.8
2022-10-15T12:48	10	121	0.1	121	121	423	0.6	422	424	20.5	51.9
2022-10-15T12:49	10	121	0.1	121	122	423	0.4	422	424	20.5	52.1
2022-10-15T12:50	10	121	0.1	121	122	424	1.0	422	426	20.5	52.5
2022-10-15T12:51	10	122	0.1	121	122	426	0.4	425	426	20.6	53.3
2022-10-15T12:52	10	122	0.2	122	123	427	0.7	426	429	20.6	53.9
2022-10-15T12:53	10	123	0.2	123	123	427	0.4	426	428	20.6	53.5
2022-10-15T12:54	10	123	0.2	122	123	426	0.6	425	427	20.7	53.6
2022-10-15T12:55	10	122	0.2	122	122	426	1.7	423	428	20.7	53.2
2022-10-15T12:56	10	121	0.3	121	122	423	0.8	421	425	20.7	51.2
2022-10-15T12:57	10	120	0.2	120	121	424	1.1	423	427	20.7	52.7
2022-10-15T12:58	10	120	0.1	120	120	427	0.5	426	428	20.7	53.8
2022-10-15T12:59	10	120	0.1	120	120	426	0.4	425	427	20.7	52.8
2022-10-15T13:00	10	120	0.1	120	120	425	0.8	423	426	20.8	52.5
2022-10-15T13:01	10	121	0.1	120	121	427	0.9	425	429	20.9	53.3
2022-10-15T13:02	10	121	0.2	120	121	428	0.8	427	429	20.8	52.9
2022-10-15T13:03	10	122	0.2	121	122	429	0.4	428	429	20.8	53.2
2022-10-15T13:04	10	122	0.3	122	123	430	0.9	428	431	20.9	54.5
2022-10-15T13:05	10	124	0.5	123	125	431	0.8	430	432	20.9	54.5
2022-10-15T13:06	10	126	0.6	125	127	432	1.0	430	434	20.9	54.3
2022-10-15T13:07	10	128	0.6	127	129	432	0.7	431	433	20.9	54.5
2022-10-15T13:08	10	130	0.4	129	130	432	0.5	431	433	20.9	53.8
2022-10-15T13:09	10	131	0.2	130	131	431	0.7	429	432	20.9	53.2
2022-10-15T13:10	10	131	0.2	131	131	431	1.0	430	433	21.0	53.2
2022-10-15T13:11	10	131	0.1	131	132	430	0.8	429	432	21.0	53.7
2022-10-15T13:12	10	131	0.2	130	131	433	1.0	431	434	21.0	53.6
2022-10-15T13:13	10	130	0.2	130	130	431	1.3	428	433	21.1	53.5
2022-10-15T13:14	10	129	0.2	129	130	429	1.3	427	431	21.0	51.7
2022-10-15T13:15	10	107	24.9	64	131	427	1.9	424	430	21.0	52.3
2022-10-15T13:16	10	126	7.4	109	134	429	1.5	425	431	21.0	52.4
2022-10-15T13:17	10	127	3.2	120	130	429	1.1	428	431	20.9	52.7
2022-10-15T13:18	10	102	18.2	72	127	427	1.8	424	430	20.8	52.3
2022-10-15T13:19	10	124	5.8	95	127	428	1.1	426	430	20.9	53.6
2022-10-15T13:20	10	124	1.3	122	126	430	0.9	428	431	21.0	53.5
2022-10-15T13:21	10	114	15.4	90	127	429	2.5	424	432	20.9	53.3
2022-10-15T13:22	10	122	6.3	97	125	426	1.3	424	428	20.8	52.4
2022-10-15T13:23	10	126	0.8	125	128	428	0.7	427	430	20.9	53.4
2022-10-15T13:24	10	128	0.7	126	129	431	0.7	429	432	20.9	54.1
2022-10-15T13:25	10	128	0.3	127	128	429	1.1	427	432	20.9	53.5
2022-10-15T13:26	10	129	0.3	128	129	429	0.6	427	429	20.8	52.4
2022-10-15T13:27	10	128	6.7	102	132	427	0.6	426	428	20.8	52.6
2022-10-15T13:28	10	103	17.4	66	125	426	1.6	423	429	20.8	53.4
2022-10-15T13:29	10	92	11.4	78	120	423	0.7	422	425	20.8	52.8
2022-10-15T13:30	10	115	9.0	93	129	426	0.8	424	427	20.8	53.2
2022-10-15T13:31	10	79	9.1	64	94	424	0.9	422	426	20.8	53.7
2022-10-15T13:32	10	57	7.8	45	72	422	0.9	421	424	20.8	55.4
2022-10-15T13:33	10	58	8.9	44	70	420	1.0	419	422	20.8	55.0
2022-10-15T13:34	10	46	4.3	39	57	418	1.1	416	420	20.7	54.7
2022-10-15T13:35	10	36	0.9	35	39	415	0.9	414	417	20.5	54.5
2022-10-15T13:36	10	44	4.0	36	48	415	0.3	414	415	20.5	54.5
2022-10-15T13:37	10	51	5.9	43	64	415	0.4	414	416	20.4	54.9
2022-10-15T13:38	10	59	20.5	35	103	416	1.3	414	418	20.4	55.1
2022-10-15T13:39	10	56	21.4	35	99	415	1.8	413	419	20.4	55.4
2022-10-15T13:40	10	84	11.2	68	103	418	0.7	417	419	20.4	54.8
2022-10-15T13:41	10	111	12.5	83	120	422	2.5	417	425	20.3	55.9
2022-10-15T13:42	10	117	0.4	116	117	424	0.9	423	426	20.5	55.2
2022-10-15T13:43	10	117	0.3	116	117	425	0.9	423	426	20.5	54.9
2022-10-15T13:44	10	118	0.8	116	119	424	0.5	423	426	20.6	53.9
2022-10-15T13:45	10	82	18.2	55	118	422	2.7	419	426	20.6	54.2
2022-10-15T13:46	10	71	11.3	47	85	419	2.1	413	421	20.6	53.0
2022-10-15T13:47	10	32	3.8	28	45	413	1.4	411	416	20.6	52.3
2022-10-15T13:48	10	30	1.6	28	33	410	0.4	410	411	20.5	52.5
2022-10-15T13:49	10	35	2.0	31	39	410	0.3	409	411	20.5	52.3
2022-10-15T13:50	10	29	0.9	28	31	409	0.3	409	410	20.4	53.2
2022-10-15T13:51	10	34	1.4	31	36	409	0.8	408	410	20.4	53.0
2022-10-15T13:52	10	35	2.2	32	39	409	0.7	408	410	20.5	51.8
2022-10-15T13:53	10	45	4.1	39	54	410	1.0	409	412	20.4	53.0
2022-10-15T13:54	10	52	2.1	50	60	411	0.8	409	412	20.4	54.2
2022-10-15T13:55	10	65	6.3	59	77	413	1.3	411	415	20.4	54.4
2022-10-15T13:56	10	54	6.0	45	64	413	1.3	411	415	20.5	53.7
2022-10-15T13:57	10	45	1.5	43	48	412	0.3	411	412	20.5	54.5
2022-10-15T13:58	10	45	1.2	43	48	412	0.2	411	413	20.5	54.5
2022-10-15T13:59	10	55	5.7	45	63	412	0.9	411	414	20.4	54.5
2022-10-15T14:00	10	66	8.1	55	78	414	0.4	413	414	20.5	54.9
2022-10-15T14:01	10	95	8.2	77	109	416	1.1	413	417	20.6	53.4
2022-10-15T14:02	10	107	6.5	99	120	418	1.1	416	422	20.7	52.6
2022-10-15T14:03	10	119	0.7	118	120	421	0.8	419	422	20.7	52.8
2022-10-15T14:04	10	117	0.2	117	118	422	0.8	421	424	20.8	52.0
2022-10-15T14:05	10	118	1.5	109	120	423	1.1	421	425	20.9	51.9
2022-10-15T14:06	10	90	19.2	63	126	422	1.6	419	425	20.9	52.0
2022-10-15T14:07	10	93	15.3	61	122	421	2.2	416	424	20.9	51.5
2022-10-15T14:08	10	72	14.5	58	99	420	1.1	418	422	21.0	52.2
2022-10-15T14:09	10	109	23.9	59	132	422	3.6	416	427	21.0	51.6
2022-10-15T14:10	10	129	1.2	127	131	425	0.5	424	426	21.0	51.6
2022-10-15T14:11	10	126	0.6	125	127	426	0.6	425	428	21.1	51.3
2022-10-15T14:12	10	125	0.2	125	125	428	0.8	426	429	21.1	51.7
2022-10-15T14:13	10	126	0.2	125	126	429	0.3	428	429	21.2	51.4
2022-10-15T14:14	10	126	0.3	125	126	429	0.4	428	430	21.2	51.2
2022-10-15T14:15	10	126	1.2	121	126	429	0.2	428	429	21.2	50.6
2022-10-15T14:16	10	105	8.9	92	120	426	1.3	424	429	21.3	50.6
2022-10-15T14:17	10	89	3.7	80	94	425	0.5	424	426	21.3	51.3
2022-10-15T14:18	10	74	3.5	68	80	423	0.9	422	425	21.3	51.3
2022-10-15T14:19	10	67	6.2	58	76	420	1.8	418	424	21.2	51.0
2022-10-15T14:20	10	93	9.2	72	102	421	1.2	418	423	21.2	50.5
2022-10-15T14:21	10	109	4.3	100	113	423	0.9	421	424	21.2	51.0
2022-10-15T14:22	10	103	6.2	92	112	423	0.9	422	425	21.2	50.6
2022-10-15T14:23	10	102	5.4	93	109	422	0.8	421	423	21.2	49.8
2022-10-15T14:24	10	100	2.5	96	104	422	0.9	420	423	21.2	50.3
2022-10-15T14:25	10	91	8.5	79	101	421	0.8	420	423	21.2	49.6
2022-10-15T14:26	10	71	6.3	63	80	419	0.7	417	420	21.1	48.5
2022-10-15T14:27	10	94	9.5	73	103	421	2.2	417	424	21.1	50.5
2022-10-15T14:28	10	103	0.4	102	104	424	0.5	422	425	21.2	51.5
2022-10-15T14:29	10	102	0.4	101	102	425	0.5	424	426	21.2	50.8
2022-10-15T14:30	10	100	0.4	100	101	423	1.9	420	425	21.3	50.2
2022-10-15T14:31	10	99	0.3	99	100	421	0.9	418	422	21.2	48.9
2022-10-15T14:32	10	98	0.3	97	99	421	0.4	420	422	21.2	49.5
2022-10-15T14:33	10	96	0.6	95	97	422	0.3	421	422	21.2	50.4
2022-10-15T14:34	10	94	1.1	92	96	422	0.7	421	424	21.2	50.8
2022-10-15T14:35	10	94	0.2	94	95	421	0.7	420	423	21.2	49.9
2022-10-15T14:36	10	94	0.2	94	95	421	0.3	420	422	21.3	49.3
2022-10-15T14:37	10	93	0.2	93	94	422	0.7	421	423	21.2	49.6
2022-10-15T14:38	10	93	0.2	93	94	423	0.3	423	424	21.3	50.6
2022-10-15T14:39	10	93	0.3	92	94	423	0.4	422	424	21.3	51.2
2022-10-15T14:40	10	92	0.6	91	93	422	0.6	421	423	21.3	50.5
2022-10-15T14:41	10	90	0.6	89	91	422	0.5	421	423	21.3	49.7
2022-10-15T14:42	10	89	0.4	88	89	420	0.5	419	421	21.4	48.8
2022-10-15T14:43	10	88	0.3	88	89	421	0.4	420	422	21.3	50.4
2022-10-15T14:44	10	88	0.2	87	88	422	0.4	421	423	21.3	51.3
2022-10-15T14:45	10	88	0.2	88	89	423	0.3	423	424	21.3	51.1
2022-10-15T14:46	10	88	0.2	87	88	422	0.4	421	423	21.3	50.8
2022-10-15T14:47	10	88	0.1	87	88	422	0.4	421	423	21.3	50.7
2022-10-15T14:48	10	87	0.2	87	88	423	0.4	422	423	21.3	51.3
2022-10-15T14:49	10	87	0.2	87	88	423	0.4	422	423	21.3	51.0
2022-10-15T14:50	10	87	0.3	86	88	422	0.4	421	423	21.4	50.4
2022-10-15T14:51	10	84	0.9	83	86	421	0.4	421	422	21.4	50.2
2022-10-15T14:52	10	82	0.3	82	83	421	0.6	420	422	21.3	50.2
2022-10-15T14:53	10	83	0.2	83	83	421	0.4	420	421	21.3	50.0
2022-10-15T14:54	10	82	0.2	82	83	421	0.5	420	422	21.4	50.3
2022-10-15T14:55	10	81	0.5	81	83	420	0.2	420	421	21.4	50.0
2022-10-15T14:56	10	79	1.3	77	81	420	0.6	419	421	21.3	50.0
2022-10-15T14:57	10	75	0.7	74	77	419	0.3	418	420	21.4	49.4
2022-10-15T14:58	10	77	0.4	76	78	418	0.3	417	419	21.4	49.4
2022-10-15T14:59	10	79	1.2	77	81	418	0.3	417	419	21.4	48.2
2022-10-15T15:00	10	79	1.0	76	80	417	0.5	416	418	21.4	48.1
2022-10-15T15:01	10	62	9.3	48	76	416	1.0	415	417	21.4	48.5
2022-10-15T15:02	10	78	1.5	73	79	417	1.0	414	418	21.4	48.5
2022-10-15T15:03	10	78	0.6	77	79	417	0.3	416	418	21.4	48.5
2022-10-15T15:04	10	77	0.4	76	77	417	0.4	416	418	21.4	48.2
2022-10-15T15:05	10	75	0.4	75	76	417	0.3	416	417	21.3	48.4
2022-10-15T15:06	10	74	0.2	74	75	417	0.2	416	417	21.4	48.6
2022-10-15T15:07	10	74	0.2	73	74	416	0.3	416	417	21.4	48.6
2022-10-15T15:08	10	73	0.2	73	73	416	0.2	415	416	21.3	48.7
2022-10-15T15:09	10	72	0.2	72	73	416	0.4	415	417	21.3	49.5
2022-10-15T15:10	10	72	0.2	72	72	416	0.3	415	417	21.3	49.2
2022-10-15T15:11	10	71	0.4	70	72	416	0.3	415	416	21.3	49.7
2022-10-15T15:12	10	70	0.5	69	70	415	0.4	414	416	21.3	48.7
2022-10-15T15:13	10	68	0.5	67	69	415	0.2	414	415	21.3	48.8
2022-10-15T15:14	10	66	0.4	66	67	415	0.2	414	415	21.3	49.5
2022-10-15T15:15	10	66	0.2	65	66	415	0.2	414	415	21.2	50.6
2022-10-15T15:16	10	65	0.2	64	65	415	0.4	414	415	21.2	50.2
2022-10-15T15:17	10	64	0.3	63	65	414	0.4	413	415	21.3	49.1
2022-10-15T15:18	10	63	0.4	62	63	413	0.4	412	414	21.2	49.6
2022-10-15T15:19	10	62	0.3	61	62	413	0.3	412	414	21.3	49.1
2022-10-15T15:20	10	61	0.3	60	61	413	0.3	412	413	21.2	50.1
2022-10-15T15:21	10	60	0.2	59	60	413	0.2	412	413	21.2	49.5
2022-10-15T15:22	10	59	0.3	58	59	412	0.7	410	413	21.2	49.4
2022-10-15T15:23	10	58	0.2	58	59	412	1.3	409	414	21.2	50.2
2022-10-15T15:24	10	58	0.2	57	58	412	0.3	411	412	21.1	50.3
2022-10-15T15:25	10	57	0.5	56	58	411	0.3	411	412	21.2	49.2
2022-10-15T15:26	10	56	0.6	55	57	411	0.3	410	411	21.2	49.3
2022-10-15T15:27	10	56	0.2	56	57	411	0.3	411	412	21.2	50.1
2022-10-15T15:28	10	55	0.3	55	56	411	0.3	410	411	21.3	49.1
2022-10-15T15:29	10	55	0.2	54	55	410	0.3	410	411	21.2	49.4
2022-10-15T15:30	10	54	0.2	53	54	410	0.5	409	411	21.2	49.6
2022-10-15T15:31	10	53	0.4	52	54	410	0.3	409	411	21.1	50.1
2022-10-15T15:32	10	49	1.1	48	52	410	0.3	409	410	21.1	50.0
2022-10-15T15:33	10	48	0.1	48	48	409	0.5	408	410	21.1	50.2
2022-10-15T15:34	10	49	0.5	48	50	409	0.4	408	410	21.1	50.1
2022-10-15T15:35	10	50	0.2	49	50	409	0.3	408	410	21.0	50.3
2022-10-15T15:36	10	49	0.4	48	49	409	0.5	408	410	21.0	51.1
2022-10-15T15:37	10	46	0.7	45	48	409	0.3	408	409	21.0	50.8
2022-10-15T15:38	10	45	0.9	41	46	408	0.3	408	409	20.9	51.5
2022-10-15T15:39	10	30	5.3	21	41	407	1.0	405	409	20.9	51.2
2022-10-15T15:40	10	11	4.1	7	21	405	0.9	404	407	21.0	50.8
2022-10-15T15:41	10	34	10.9	13	45	405	1.0	404	407	20.9	50.7
2022-10-15T15:42	10	45	0.3	44	45	407	0.4	405	408	20.8	51.7
2022-10-15T15:43	10	43	0.4	43	44	407	0.4	406	408	20.8	51.5
2022-10-15T15:44	10	40	3.0	32	43	407	0.4	405	407	20.7	52.4
2022-10-15T15:45	10	15	8.0	7	31	405	1.6	402	407	20.8	52.2
2022-10-15T15:46	10	8	0.3	7	8	403	0.4	402	404	20.7	52.2
2022-10-15T15:47	10	14	6.4	7	24	403	0.5	401	404	20.7	52.8
2022-10-15T15:48	10	17	5.9	8	25	402	0.3	401	403	20.6	53.6
2022-10-15T15:49	10	8	0.2	7	8	402	0.4	401	403	20.5	53.5
2022-10-15T15:50	10	7	0.1	7	8	401	0.6	400	403	20.5	53.7
2022-10-15T15:51	10	7	0.1	7	8	401	0.2	400	401	20.5	53.9
2022-10-15T15:52	10	7	0.1	7	8	401	0.3	400	401	20.6	53.1
2022-10-15T15:53	10	8	0.4	7	9	400	0.3	400	401	20.5	53.8
2022-10-15T15:54	10	12	1.7	9	14	400	0.3	400	401	20.5	53.8
2022-10-15T15:55	10	14	0.5	13	14	401	0.2	400	401	20.4	54.1
2022-10-15T15:56	10	12	0.7	10	13	400	0.3	399	401	20.4	54.4
2022-10-15T15:57	10	9	0.4	9	10	400	0.3	399	400	20.4	54.4
2022-10-15T15:58	10	9	0.1	9	9	400	0.3	399	400	20.3	54.8
2022-10-15T15:59	10	9	0.1	8	9	400	0.6	399	401	20.2	55.2
2022-10-15T16:00	10	9	0.3	9	10	399	0.3	398	399	20.1	56.0
2022-10-15T16:01	10	11	0.8	10	12	398	0.5	397	399	20.1	56.1
2022-10-15T16:02	10	11	1.2	8	12	398	0.4	398	399	20.2	55.4
2022-10-15T16:03	10	6	1.2	4	8	398	0.5	397	399	20.2	55.4
2022-10-15T16:04	10	4	0.3	3	4	397	0.4	396	398	20.2	55.6
2022-10-15T16:05	10	3	0.1	3	4	396	0.4	395	397	20.1	56.0
2022-10-15T16:06	10	3	0.1	3	4	396	0.3	395	396	20.1	56.2
2022-10-15T16:07	10	4	0.2	3	4	395	0.4	394	396	19.9	57.0
2022-10-15T16:08	10	6	1.4	4	9	395	0.3	394	395	20.0	56.8
2022-10-15T16:09	10	10	0.5	9	11	395	0.4	394	396	20.0	56.7
2022-10-15T16:10	10	6	1.6	4	9	395	0.3	394	396	20.0	56.4
2022-10-15T16:11	10	7	1.7	4	10	394	0.3	394	395	19.9	56.9
2022-10-15T16:12	10	13	1.2	10	14	394	0.4	394	395	19.9	57.1
2022-10-15T16:13	10	10	2.4	6	14	394	0.6	393	395	19.9	57.1
2022-10-15T16:14	10	4	0.5	4	6	394	0.4	393	394	19.8	57.6
2022-10-15T16:15	10	5	1.0	3	7	393	0.3	393	394	19.7	57.9
2022-10-15T16:16	10	10	1.9	7	13	393	0.7	392	394	19.8	57.5
2022-10-15T16:17	10	13	0.7	12	14	394	0.5	393	396	19.9	57.0
2022-10-15T16:18	10	9	1.2	8	12	395	0.3	394	395	19.9	57.0
2022-10-15T16:19	10	7	0.6	6	8	394	0.3	393	394	19.8	57.6
2022-10-15T16:20	10	5	0.3	5	6	393	0.4	392	394	19.8	57.9
2022-10-15T16:21	10	6	0.4	5	6	393	0.3	392	394	19.7	58.3
2022-10-15T16:22	10	7	0.3	6	8	393	0.4	391	393	19.7	58.3
2022-10-15T16:23	10	7	0.2	7	8	393	0.3	392	393	19.6	58.8
2022-10-15T16:24	10	6	0.4	6	7	392	0.5	391	393	19.5	59.3
2022-10-15T16:25	10	5	0.5	4	6	393	0.4	392	394	19.6	58.7
2022-10-15T16:26	10	4	0.2	4	4	392	0.3	391	392	19.5	59.0
2022-10-15T16:27	10	5	0.8	4	10	392	0.3	391	392	19.5	59.1
2022-10-15T16:28	10	4	0.2	4	5	391	0.5	390	392	19.3	60.0
2022-10-15T16:29	10	3	0.2	3	4	391	0.3	391	392	19.3	60.1
2022-10-15T16:30	10	3	0.1	3	3	392	0.3	391	392	19.3	60.5
2022-10-15T16:31	10	2	0.2	2	3	392	0.3	391	392	19.2	60.6
2022-10-15T16:32	10	1	0.3	1	2	391	0.4	390	392	19.1	61.2
2022-10-15T16:33	10	1	0.1	1	1	390	0.3	390	391	19.0	61.9
2022-10-15T16:34	10	1	0.1	1	1	391	0.4	390	391	19.0	61.9
2022-10-15T16:35	10	1	0.1	1	1	390	0.3	389	391	19.0	62.2
2022-10-15T16:36	10	1	0.1	0	1	390	0.3	389	390	18.8	62.6
2022-10-15T16:37	10	0	0.1	0	1	390	0.3	389	391	18.8	62.9
2022-10-15T16:38	10	0	0.1	0	1	389	0.4	388	390	18.8	63.0
2022-10-15T16:39	10	0	0.1	0	1	389	0.3	389	390	18.7	63.1
2022-10-15T16:40	10	0	0.1	0	0	389	0.4	389	391	18.7	63.2
2022-10-15T16:41	10	0	0.1	0	0	390	0.2	389	390	18.7	63.3
2022-10-15T16:42	10	0	0.1	0	0	389	0.3	389	390	18.6	63.3
2022-10-15T16:43	10	0	0.1	0	0	389	0.5	389	391	18.7	62.9
2022-10-15T16:44	10	0	0.1	0	0	390	0.4	389	390	18.7	62.7
2022-10-15T16:45	10	0	0.1	0	0	389	0.5	388	390	18.5	63.3
2022-10-15T16:46	10	0	0.1	0	0	389	0.5	388	390	18.5	63.4
2022-10-15T16:47	10	0	0.1	-1	0	389	0.3	389	390	18.5	63.2
2022-10-15T16:48	10	0	0.1	-1	0	389	0.5	388	390	18.5	63.3
2022-10-15T16:49	10	0	0.1	0	0	390	0.4	389	391	18.6	63.0
2022-10-15T16:50	10	0	0.1	-1	0	389	0.3	388	389	18.5	63.2
2022-10-15T16:51	10	0	0.1	0	0	389	0.3	388	389	18.5	63.4
2022-10-15T16:52	10	0	0.1	0	0	389	0.4	388	389	18.5	63.3
2022-10-15T16:53	10	0	0.1	0	0	389	0.4	388	389	18.5	63.3
2022-10-15T16:54	10	0	0.1	0	0	389	0.3	388	389	18.4	63.6
2022-10-15T16:55	10	0	0.1	0	0	388	0.2	388	389	18.4	63.5
2022-10-15T16:56	10	0	0.1	0	0	388	0.4	388	389	18.5	63.1
2022-10-15T16:57	10	0	0.1	0	0	388	0.2	388	389	18.4	63.4
2022-10-15T16:58	10	0	0.1	0	0	388	0.4	387	389	18.3	63.5
2022-10-15T16:59	10	0	0.1	0	0	388	0.3	387	389	18.5	63.1
2022-10-15T17:00	10	0	0.1	0	0	388	0.3	387	388	18.3	63.3
2022-10-15T17:01	10	0	0.1	0	0	387	0.4	386	388	18.3	63.4
2022-10-15T17:02	10	0	0.1	0	0	387	0.4	386	388	18.3	63.2
2022-10-15T17:03	10	0	0.1	0	0	386	0.2	386	387	18.3	63.1
2022-10-15T17:04	10	0	0.1	0	0	386	0.4	386	387	18.2	63.3
2022-10-15T17:05	10	0	0.0	0	0	386	0.4	385	386	18.1	63.7
2022-10-15T17:06	10	0	0.1	0	0	385	0.2	385	386	18.1	63.9
2022-10-15T17:07	10	0	0.1	-1	0	385	0.3	384	385	18.1	63.4
2022-10-15T17:08	10	0	0.1	-1	0	385	0.3	384	386	18.2	63.2
2022-10-15T17:09	10	0	0.1	0	0	384	0.3	384	385	18.2	63.2
2022-10-15T17:10	10	0	0.1	0	0	384	0.3	383	385	18.0	64.0
2022-10-15T17:11	10	0	0.1	0	0	384	0.3	383	384	18.1	63.4
2022-10-15T17:12	10	0	0.1	0	0	384	0.2	384	385	18.1	63.4
2022-10-15T17:13	10	0	0.1	0	0	384	0.2	384	385	18.0	63.9
2022-10-15T17:14	10	0	0.1	0	0	384	0.4	384	385	18.0	64.3
2022-10-15T17:15	10	0	0.1	0	0	384	0.3	384	385	18.0	64.3
2022-10-15T17:16	10	0	0.8	0	6	385	0.4	384	385	18.0	64.3
2022-10-15T17:17	10	0	0.1	0	0	385	0.4	385	386	17.9	64.5
2022-10-15T17:18	10	0	0.1	-1	0	386	0.2	385	386	17.9	64.9
2022-10-15T17:19	10	0	0.1	0	0	385	0.5	384	386	17.9	64.8
2022-10-15T17:20	10	0	0.2	-1	0	386	0.5	385	387	17.9	64.8
2022-10-15T17:21	10	0	0.1	0	0	386	0.3	385	386	17.8	65.3
2022-10-15T17:22	10	0	0.1	-1	0	386	0.3	385	387	17.9	65.0
2022-10-15T17:23	10	0	0.2	0	0	385	0.2	385	386	17.7	65.7
2022-10-15T17:24	10	0	0.2	-1	0	384	0.4	383	385	17.6	65.9
2022-10-15T17:25	10	0	0.2	-1	0	385	0.5	384	386	17.8	65.5
2022-10-15T17:26	10	0	0.2	-1	0	385	0.5	384	386	17.8	64.9
2022-10-15T17:27	10	0	0.2	0	0	385	0.4	384	386	17.8	65.3
2022-10-15T17:28	10	0	0.2	-1	0	386	0.4	384	387	18.0	64.3
2022-10-15T17:29	10	0	0.2	-1	1	385	0.4	384	386	17.9	64.4
2022-10-15T17:30	10	0	0.2	0	0	385	0.3	384	385	18.0	64.1
2022-10-15T17:31	10	0	0.1	0	0	385	0.3	384	386	18.0	64.0
2022-10-15T17:32	10	0	0.1	0	0	384	0.3	384	385	18.0	63.8
2022-10-15T17:33	10	0	0.1	0	0	384	0.3	383	385	17.8	64.6
2022-10-15T17:34	10	0	0.1	0	0	384	0.3	383	384	17.8	64.8
2022-10-15T17:35	10	0	0.1	0	0	383	0.3	383	384	17.8	64.7
2022-10-15T17:36	10	0	0.1	0	0	383	0.3	383	384	17.8	65.0
2022-10-15T17:37	10	0	0.1	0	0	385	0.8	383	386	18.0	64.5
2022-10-15T17:38	10	0	0.0	0	0	385	0.3	384	386	17.9	64.7
2022-10-15T17:39	10	0	0.1	0	0	384	0.4	383	385	17.7	65.2
2022-10-15T17:40	10	0	0.1	0	0	384	0.4	383	385	17.7	65.6
2022-10-15T17:41	10	0	0.1	0	0	384	0.4	383	385	17.7	65.4
2022-10-15T17:42	10	0	0.1	0	0	384	0.2	383	384	17.6	65.8
2022-10-15T17:43	10	0	0.1	0	0	384	0.3	383	384	17.7	65.5
2022-10-15T17:44	10	0	0.1	0	0	382	0.4	381	383	17.4	66.5
2022-10-15T17:45	10	0	0.1	0	0	382	0.4	381	383	17.3	67.4
2022-10-15T17:46	10	0	0.1	0	0	382	0.6	381	383	17.5	66.8
2022-10-15T17:47	10	0	0.1	0	0	382	0.3	381	383	17.4	66.9
2022-10-15T17:48	10	0	0.1	0	0	382	0.5	381	383	17.4	67.1
2022-10-15T17:49	10	0	0.1	0	0	383	0.2	382	383	17.4	66.8
2022-10-15T17:50	10	0	0.1	0	0	382	0.3	382	383	17.4	67.1
2022-10-15T17:51	10	0	0.1	-1	0	382	0.3	381	382	17.3	67.2
2022-10-15T17:52	10	0	0.1	0	0	381	0.4	380	382	17.3	67.2
2022-10-15T17:53	10	0	0.1	0	0	381	0.3	380	381	17.4	67.1
2022-10-15T17:54	10	0	0.1	-1	0	381	0.3	380	382	17.5	66.6
2022-10-15T17:55	10	0	0.1	-1	0	383	0.4	382	383	17.6	66.4
2022-10-15T17:56	10	0	0.1	0	0	383	0.4	382	384	17.7	65.8
2022-10-15T17:57	10	0	0.1	0	0	384	0.2	383	384	17.7	65.6
2022-10-15T17:58	10	0	0.1	0	0	383	0.3	383	384	17.7	65.7
2022-10-15T17:59	10	0	0.1	0	0	384	0.3	383	384	17.7	65.6
2022-10-15T18:00	10	0	0.1	0	0	383	0.3	382	384	17.5	66.3
2022-10-15T18:01	10	0	0.1	0	0	383	0.3	382	383	17.4	66.8
2022-10-15T18:02	10	0	0.1	0	0	383	0.3	383	384	17.5	66.7
2022-10-15T18:03	10	0	0.1	0	0	383	0.6	382	384	17.3	66.7
2022-10-15T18:04	10	0	0.1	-1	0	382	0.2	382	383	17.1	67.9
2022-10-15T18:05	10	0	0.1	0	0	382	0.3	381	382	17.3	67.5
2022-10-15T18:06	10	0	0.1	-1	0	381	0.5	380	382	17.0	68.2
2022-10-15T18:07	10	0	0.1	-1	0	381	0.3	380	381	17.1	68.7
2022-10-15T18:08	10	0	0.1	-1	0	380	0.4	379	381	17.1	68.2
2022-10-15T18:09	10	0	0.1	-1	0	380	0.2	379	380	17.0	68.6
2022-10-15T18:10	10	0	0.1	-1	0	379	0.3	379	380	16.9	69.1
2022-10-15T18:11	10	0	0.1	-1	0	380	0.5	379	381	16.9	69.3
2022-10-15T18:12	10	0	0.1	-1	0	380	0.4	380	381	17.0	69.1
2022-10-15T18:13	10	0	0.1	0	0	380	0.3	380	381	17.0	69.0
2022-10-15T18:14	10	0	0.1	0	0	379	0.4	378	380	16.9	69.1
2022-10-15T18:15	10	0	0.1	0	0	380	0.6	378	381	16.9	69.4
2022-10-15T18:16	10	0	0.1	0	0	380	0.4	380	381	16.9	69.3
2022-10-15T18:17	10	0	0.1	0	0	380	0.4	380	381	16.8	69.7
2022-10-15T18:18	10	0	0.1	0	0	381	0.2	381	382	17.0	69.6
2022-10-15T18:19	10	0	0.1	0	0	381	0.3	381	382	17.0	68.9
2022-10-15T18:20	10	0	0.1	0	0	382	0.3	381	383	17.1	68.8
2022-10-15T18:21	10	0	0.1	0	0	382	0.4	381	383	17.0	69.0
2022-10-15T18:22	10	0	0.1	0	0	381	0.4	380	382	16.9	69.4
2022-10-15T18:23	10	0	0.1	0	0	381	0.5	380	381	16.9	69.8
2022-10-15T18:24	10	0	0.1	0	0	380	0.3	379	380	16.8	70.1
2022-10-15T18:25	10	0	0.1	0	0	379	0.2	379	380	16.8	70.0
2022-10-15T18:26	10	0	0.1	0	0	379	0.4	378	379	16.7	70.5
2022-10-15T18:27	10	0	0.1	0	0	379	0.3	379	380	16.8	70.2
2022-10-15T18:28	10	0	0.1	0	0	380	0.3	379	380	16.8	70.5
2022-10-15T18:29	10	0	0.1	0	0	380	0.3	380	381	16.9	70.0
2022-10-15T18:30	10	0	0.1	0	0	380	0.2	379	380	16.7	70.4
2022-10-15T18:31	10	0	0.1	0	0	380	0.3	379	380	16.7	70.7
2022-10-15T18:32	10	0	0.1	0	0	380	0.4	379	380	16.7	70.6
2022-10-15T18:33	10	0	0.1	0	0	380	0.3	379	380	16.8	70.3
2022-10-15T18:34	10	0	0.1	0	0	381	0.5	380	381	16.9	70.1
2022-10-15T18:35	10	0	0.1	0	0	380	0.3	379	380	16.7	70.4
2022-10-15T18:36	10	0	0.1	0	0	380	0.3	379	381	16.8	70.5
2022-10-15T18:37	10	0	0.1	0	0	379	0.4	378	380	16.8	70.3
2022-10-15T18:38	10	0	0.1	0	0	379	0.5	378	380	16.7	70.5
2022-10-15T18:39	10	0	0.1	0	0	379	0.2	378	379	16.7	70.6
2022-10-15T18:40	10	0	0.1	0	1	378	0.3	377	378	16.6	70.9
2022-10-15T18:41	10	0	0.1	0	0	377	0.6	375	377	16.6	71.1
2022-10-15T18:42	10	0	0.2	0	1	376	0.4	375	377	16.5	71.1
2022-10-15T18:43	10	0	0.2	0	1	375	0.4	374	375	16.5	71.4
2022-10-15T18:44	10	0	0.2	0	0	374	0.6	373	376	16.6	71.3
2022-10-15T18:45	10	0	0.2	0	0	375	0.2	375	376	16.6	71.0
2022-10-15T18:46	10	0	0.2	0	0	375	0.2	375	376	16.7	71.1
2022-10-15T18:47	10	0	0.2	0	1	375	0.3	375	376	16.7	70.6
2022-10-15T18:48	10	0	0.2	0	1	375	0.3	374	375	16.5	71.4
2022-10-15T18:49	10	0	0.2	0	0	375	0.4	373	375	16.5	71.8
2022-10-15T18:50	10	0	0.1	0	0	375	0.2	375	376	16.4	71.8
2022-10-15T18:51	10	0	0.1	0	0	375	0.3	374	376	16.3	72.5
2022-10-15T18:52	10	0	0.2	-1	0	376	0.2	375	376	16.5	72.2
2022-10-15T18:53	10	0	0.2	-1	0	375	0.3	375	376	16.2	72.4
2022-10-15T18:54	10	0	0.2	-1	0	376	0.3	375	376	16.1	73.3
2022-10-15T18:55	10	0	0.1	-1	0	375	0.3	374	376	16.0	73.7
2022-10-15T18:56	10	0	0.2	-1	0	375	0.3	374	375	16.0	73.9
2022-10-15T18:57	10	0	0.2	0	0	374	0.3	374	375	16.0	73.9
2022-10-15T18:58	10	0	0.2	-1	0	374	0.3	374	375	16.1	73.6
2022-10-15T18:59	10	0	0.1	-1	0	375	0.4	374	376	16.2	73.5
2022-10-15T19:00	10	0	0.1	0	0	375	0.3	375	376	16.2	73.0
2022-10-15T19:01	10	0	0.1	0	0	375	0.3	375	376	16.2	73.2
2022-10-15T19:02	10	0	0.1	0	0	375	0.3	375	376	16.2	73.1
2022-10-15T19:03	10	0	0.1	0	0	376	0.3	375	376	16.1	73.6
2022-10-15T19:04	10	0	0.1	0	0	376	0.3	375	376	16.1	73.4
2022-10-15T19:05	10	0	0.1	0	0	375	0.2	375	376	16.0	74.1
2022-10-15T19:06	10	0	0.1	0	0	375	0.3	375	376	16.1	73.6
2022-10-15T19:07	10	0	0.1	0	0	376	0.3	375	376	16.0	73.8
2022-10-15T19:08	10	0	0.1	0	0	375	0.3	375	376	15.9	74.3
2022-10-15T19:09	10	0	0.1	0	0	376	0.3	375	376	15.9	74.3
2022-10-15T19:10	10	0	0.1	0	0	376	0.5	376	377	16.1	73.7
2022-10-15T19:11	10	0	0.1	0	0	377	0.3	376	377	16.4	72.7
2022-10-15T19:12	10	0	0.1	0	0	377	0.4	376	378	16.3	72.5
2022-10-15T19:13	10	0	0.1	0	0	377	0.3	377	378	16.5	71.8
2022-10-15T19:14	10	0	0.1	0	0	378	0.5	377	379	16.6	71.4
2022-10-15T19:15	10	0	0.1	0	0	379	0.3	378	379	16.8	70.8
2022-10-15T19:16	10	0	0.1	0	0	379	0.4	379	380	16.7	70.6
2022-10-15T19:17	10	0	0.1	0	1	379	0.2	379	380	16.8	70.5
2022-10-15T19:18	10	0	0.1	0	1	380	0.3	379	380	16.6	70.9
2022-10-15T19:19	10	0	0.1	0	1	380	0.3	379	380	16.5	71.3
2022-10-15T19:20	10	0	0.1	0	0	380	0.3	379	380	16.4	71.7
2022-10-15T19:21	10	0	0.1	0	1	379	0.5	378	380	16.5	71.6
2022-10-15T19:22	10	0	0.1	0	0	379	0.4	378	380	16.4	71.8
2022-10-15T19:23	10	0	0.1	0	0	379	0.3	378	380	16.4	71.5
2022-10-15T19:24	10	0	0.1	0	0	379	0.4	378	380	16.5	71.6
2022-10-15T19:25	10	0	0.1	0	0	379	0.5	378	380	16.4	71.7
2022-10-15T19:26	10	0	0.1	0	0	378	0.3	378	379	16.4	72.0
2022-10-15T19:27	10	0	0.1	0	0	378	0.3	378	379	16.4	71.6
2022-10-15T19:28	10	0	0.1	0	0	378	0.3	378	379	16.5	71.7
2022-10-15T19:29	10	0	0.1	0	0	379	0.4	378	379	16.5	71.5
2022-10-15T19:30	10	0	0.1	0	0	379	0.3	379	380	16.7	70.9
2022-10-15T19:31	10	0	0.1	0	0	379	0.4	378	380	16.5	71.2
2022-10-15T19:32	10	0	0.1	0	0	378	0.4	377	379	16.5	71.2
2022-10-15T19:33	10	0	0.1	0	0	379	0.3	378	379	16.6	71.0
2022-10-15T19:34	10	0	0.1	0	0	379	0.3	379	380	16.7	70.6
2022-10-15T19:35	10	0	0.1	0	0	380	0.3	379	380	16.6	70.7
2022-10-15T19:36	10	0	0.1	0	0	379	0.3	379	380	16.6	71.0
2022-10-15T19:37	10	0	0.1	0	0	379	0.3	379	380	16.6	70.8
2022-10-15T19:38	10	0	0.1	0	0	379	0.3	378	379	16.5	71.1
2022-10-15T19:39	10	0	0.1	0	0	379	0.4	379	380	16.6	70.8
2022-10-15T19:40	10	0	0.1	0	0	379	0.3	378	379	16.5	71.1
2022-10-15T19:41	10	0	0.1	0	0	379	0.5	378	380	16.5	71.2
2022-10-15T19:42	10	0	0.1	0	0	380	0.3	379	380	16.5	71.2
2022-10-15T19:43	10	0	0.1	0	0	380	0.4	379	381	16.5	71.3
2022-10-15T19:44	10	0	0.1	0	0	379	0.3	379	380	16.5	71.3
2022-10-15T19:45	10	0	0.1	0	0	379	0.3	378	379	16.4	71.4
2022-10-15T19:46	10	0	0.1	0	0	379	0.3	378	379	16.5	71.3
2022-10-15T19:47	10	0	0.1	0	0	378	0.4	378	379	16.4	71.7
2022-10-15T19:48	10	0	0.1	0	0	378	0.3	378	379	16.5	71.5
2022-10-15T19:49	10	0	0.1	0	0	378	0.3	377	378	16.2	72.2
2022-10-15T19:50	10	0	0.1	0	1	378	0.3	377	378	16.2	72.7
2022-10-15T19:51	10	0	0.1	0	0	379	0.4	378	380	16.4	72.3
2022-10-15T19:52	10	0	0.1	0	0	378	0.4	377	379	16.4	71.9
2022-10-15T19:53	10	0	0.1	0	0	378	0.3	377	379	16.3	72.2
2022-10-15T19:54	10	0	0.1	0	0	378	0.3	377	379	16.2	72.4
2022-10-15T19:55	10	0	0.1	0	0	378	0.3	377	378	16.1	72.8
2022-10-15T19:56	10	0	0.1	0	0	377	0.5	376	378	16.0	73.3
2022-10-15T19:57	10	0	0.1	0	0	378	0.3	377	378	16.1	73.2
2022-10-15T19:58	10	0	0.1	0	0	378	0.3	377	378	16.2	72.8
2022-10-15T19:59	10	0	0.1	0	0	378	0.3	378	379	16.3	72.4
2022-10-15T20:00	10	0	0.1	0	0	378	0.3	378	379	16.2	72.6
2022-10-15T20:01	10	0	0.1	0	0	378	0.3	377	379	16.1	73.0
2022-10-15T20:02	10	0	0.1	0	0	378	0.3	378	379	15.9	73.7
2022-10-15T20:03	10	0	0.1	0	0	378	0.3	377	378	15.8	74.4
2022-10-15T20:04	10	0	0.1	0	0	378	0.3	377	378	15.8	74.5
2022-10-15T20:05	10	0	0.1	0	0	378	0.5	377	379	15.9	74.5
2022-10-15T20:06	10	0	0.1	0	0	379	0.3	378	380	16.2	73.2
2022-10-15T20:07	10	0	0.1	0	0	379	0.4	378	380	16.0	73.1
2022-10-15T20:08	10	0	0.1	0	0	379	0.3	378	379	15.9	74.3
2022-10-15T20:09	10	0	0.1	-1	0	379	0.2	378	379	15.8	74.6
2022-10-15T20:10	10	0	0.1	-1	0	379	0.3	379	380	15.7	75.3
2022-10-15T20:11	10	-1	0.1	-1	0	380	0.4	379	380	15.8	74.7
2022-10-15T20:12	10	0	0.1	-1	0	380	0.2	379	380	15.8	74.6
2022-10-15T20:13	10	-1	0.1	-1	0	380	0.2	379	381	15.8	74.8
2022-10-15T20:14	10	-1	0.1	-1	0	380	0.3	379	381	15.8	74.9
2022-10-15T20:15	10	0	0.1	-1	0	380	0.3	379	380	15.8	74.9
2022-10-15T20:16	10	0	0.1	-1	0	380	0.3	379	381	15.8	74.8
2022-10-15T20:17	10	0	0.1	-1	0	380	0.2	380	381	15.8	74.5
2022-10-15T20:18	10	0	0.1	-1	0	380	0.2	379	380	15.7	74.9
2022-10-15T20:19	10	0	0.1	-1	0	380	0.3	379	381	15.7	75.3
2022-10-15T20:20	10	0	0.1	-1	0	380	0.3	379	380	15.7	75.2
2022-10-15T20:21	10	0	0.1	-1	0	379	0.2	379	380	15.7	75.4
2022-10-15T20:22	10	0	0.1	-1	0	379	0.3	379	380	15.6	75.3
2022-10-15T20:23	10	0	0.1	-1	0	379	0.3	378	379	15.5	76.1
2022-10-15T20:24	10	0	0.1	-1	0	379	0.2	378	379	15.6	75.9
2022-10-15T20:25	10	0	0.1	-1	0	378	0.3	378	379	15.6	75.7
2022-10-15T20:26	10	0	0.1	-1	0	378	0.2	377	378	15.6	75.9
2022-10-15T20:27	10	0	0.1	-1	0	378	0.3	377	379	15.6	75.8
2022-10-15T20:28	10	0	0.1	0	0	377	0.3	377	378	15.4	76.3
2022-10-15T20:29	10	0	0.1	0	0	377	0.4	376	378	15.5	76.3
2022-10-15T20:30	10	0	0.1	0	0	376	0.3	376	377	15.5	76.1
2022-10-15T20:31	10	0	0.1	0	0	376	0.3	376	377	15.6	76.2
2022-10-15T20:32	10	0	0.1	0	0	376	0.3	375	376	15.5	76.2
2022-10-15T20:33	10	0	0.1	0	0	376	0.6	375	377	15.6	76.1
2022-10-15T20:34	10	0	0.1	0	0	376	0.2	375	376	15.5	76.0
2022-10-15T20:35	10	0	0.1	0	0	376	0.3	375	377	15.5	76.2
2022-10-15T20:36	10	0	0.1	0	0	376	0.3	375	377	15.6	76.1
2022-10-15T20:37	10	0	0.1	0	0	376	0.4	375	377	15.5	76.2
2022-10-15T20:38	10	0	0.1	0	0	377	0.4	376	378	15.7	75.8
2022-10-15T20:39	10	0	0.1	0	0	377	0.5	376	378	15.7	75.6
2022-10-15T20:40	10	0	0.1	0	0	377	0.3	376	377	15.6	75.7
2022-10-15T20:41	10	0	0.1	0	0	377	0.2	377	378	15.5	76.0
2022-10-15T20:42	10	0	0.1	0	1	378	0.2	377	378	15.6	76.0
2022-10-15T20:43	10	0	0.1	0	1	377	0.2	377	378	15.5	76.2
2022-10-15T20:44	10	0	0.1	0	1	377	0.2	377	378	15.4	76.7
2022-10-15T20:45	10	0	0.1	0	1	377	0.3	376	377	15.3	77.0
2022-10-15T20:46	10	0	0.1	0	1	377	0.2	376	377	15.2	77.4
2022-10-15T20:47	10	0	0.1	0	1	377	0.2	376	377	15.2	77.9
2022-10-15T20:48	10	1	0.1	0	1	377	0.3	376	377	15.2	78.1
2022-10-15T20:49	10	1	0.1	0	1	377	0.2	376	377	15.2	78.1
2022-10-15T20:50	10	1	0.1	0	1	377	0.3	377	378	15.1	78.3
2022-10-15T20:51	10	1	0.1	0	1	377	0.3	376	378	15.0	78.5
2022-10-15T20:52	10	1	0.1	0	1	378	0.3	377	378	15.1	78.7
2022-10-15T20:53	10	0	0.1	0	1	378	0.2	377	378	15.2	78.1
2022-10-15T20:54	10	0	0.1	0	1	378	0.2	377	378	15.1	78.0
2022-10-15T20:55	10	0	0.1	0	1	378	0.2	377	378	15.1	78.2
2022-10-15T20:56	10	0	0.1	0	1	378	0.3	377	378	15.1	78.2
2022-10-15T20:57	10	0	0.1	0	0	378	0.2	377	378	15.1	78.1
2022-10-15T20:58	10	0	0.1	0	1	378	0.3	377	378	15.0	78.5
2022-10-15T20:59	10	0	0.1	0	0	378	0.2	378	379	15.2	78.3
2022-10-15T21:00	10	0	0.1	0	0	378	0.2	378	379	15.3	77.4
2022-10-15T21:01	10	0	0.1	0	0	378	0.2	378	379	15.4	77.0
2022-10-15T21:02	10	0	0.1	0	0	378	0.2	378	379	15.5	76.3
2022-10-15T21:03	10	0	0.1	0	0	378	0.3	377	379	15.6	76.0
2022-10-15T21:04	10	0	0.1	0	0	378	0.3	377	379	15.5	76.0
2022-10-15T21:05	10	0	0.1	0	0	377	0.4	377	378	14.9	78.1
2022-10-15T21:06	10	0	0.1	0	0	378	0.2	377	378	14.4	81.4
2022-10-15T21:07	10	0	0.1	0	0	377	0.5	376	378	14.3	82.5
2022-10-15T21:08	10	0	0.1	0	0	377	0.4	376	377	14.4	83.0
2022-10-15T21:09	10	0	0.1	-1	0	377	0.4	376	377	14.8	81.6
2022-10-15T21:10	10	0	0.1	0	0	377	0.2	377	378	15.1	79.4
2022-10-15T21:11	10	0	0.1	0	0	377	0.4	376	378	15.1	79.1
2022-10-15T21:12	10	0	0.1	0	0	378	0.5	377	378	15.4	77.2
2022-10-15T21:13	10	0	0.1	0	0	378	0.2	377	379	15.5	76.3
2022-10-15T21:14	10	1	0.1	0	1	378	0.5	377	379	15.5	76.2
2022-10-15T21:15	10	1	0.1	1	1	377	0.3	376	377	15.0	78.4
2022-10-15T21:16	10	1	0.1	0	1	377	0.3	376	377	15.0	78.8
2022-10-15T21:17	10	1	0.1	1	1	377	0.2	376	377	15.0	78.8
2022-10-15T21:18	10	1	0.1	0	1	377	0.4	376	377	14.8	79.6
2022-10-15T21:19	10	1	0.1	0	1	378	0.3	377	378	15.0	79.2
2022-10-15T21:20	10	1	0.1	0	1	378	0.3	377	378	15.3	77.6
2022-10-15T21:21	10	1	0.1	0	1	378	0.2	378	378	15.4	77.0
2022-10-15T21:22	10	1	0.1	0	1	378	0.2	378	378	15.3	77.1
2022-10-15T21:23	10	1	0.1	1	1	378	0.2	378	379	15.4	76.9
2022-10-15T21:24	10	1	0.1	0	1	379	0.3	378	379	15.4	76.7
2022-10-15T21:25	10	0	0.1	0	1	379	0.2	378	379	15.3	76.9
2022-10-15T21:26	10	0	0.1	0	1	379	0.2	378	379	15.3	77.2
2022-10-15T21:27	10	0	0.1	0	1	379	0.2	378	379	15.3	77.2
2022-10-15T21:28	10	0	0.0	0	1	378	0.2	378	379	15.3	77.1
2022-10-15T21:29	10	0	0.1	0	1	378	0.2	378	379	15.3	77.0
2022-10-15T21:30	10	0	0.1	0	1	379	0.2	378	379	15.5	76.2
2022-10-15T21:31	10	1	0.1	0	1	379	0.3	378	379	15.4	76.3
2022-10-15T21:32	10	1	0.1	0	1	379	0.3	378	379	15.4	76.4
2022-10-15T21:33	10	1	0.1	0	1	379	0.3	378	379	15.4	76.4
2022-10-15T21:34	10	1	0.1	1	1	379	0.2	378	379	15.4	76.2
2022-10-15T21:35	10	1	0.1	1	1	379	0.2	379	379	15.4	76.3
2022-10-15T21:36	10	1	0.1	1	1	379	0.2	379	380	15.4	76.5
2022-10-15T21:37	10	1	0.1	1	1	379	0.3	378	380	15.3	76.6
2022-10-15T21:38	10	1	0.1	1	1	379	0.2	379	379	15.4	76.6
2022-10-15T21:39	10	1	0.1	1	1	379	0.3	379	380	15.4	76.4
2022-10-15T21:40	10	1	0.1	1	1	379	0.2	379	380	15.4	76.2
2022-10-15T21:41	10	1	0.1	1	1	380	0.2	379	380	15.4	76.1
2022-10-15T21:42	10	1	0.1	1	1	380	0.3	379	380	15.5	75.9
2022-10-15T21:43	10	1	0.1	1	1	380	0.2	379	380	15.5	75.8
2022-10-15T21:44	10	1	0.1	1	1	380	0.2	379	381	15.6	75.5
2022-10-15T21:45	10	1	0.1	1	1	380	0.2	380	380	15.6	75.0
2022-10-15T21:46	10	1	0.1	1	1	380	0.2	380	381	15.7	74.6
2022-10-15T21:47	10	1	0.1	1	1	380	0.2	380	381	15.8	74.2
2022-10-15T21:48	10	1	0.1	1	1	381	0.3	380	381	15.8	73.7
2022-10-15T21:49	10	1	0.2	1	1	381	0.2	380	381	15.9	73.3
2022-10-15T21:50	10	1	0.1	1	1	380	0.2	380	381	15.9	73.5
2022-10-15T21:51	10	1	0.1	1	1	380	0.2	380	381	15.8	73.8
2022-10-15T21:52	10	1	0.1	1	1	380	0.3	380	381	15.8	73.5
2022-10-15T21:53	10	1	0.1	1	1	379	0.4	379	380	15.4	75.2
2022-10-15T21:54	10	1	0.1	1	1	379	0.3	379	380	15.2	76.9
2022-10-15T21:55	10	1	0.1	1	1	379	0.2	378	379	14.9	78.5
2022-10-15T21:56	10	1	0.1	1	1	379	0.2	379	380	14.8	80.0
2022-10-15T21:57	10	1	0.1	0	1	379	0.3	379	380	14.8	79.7
2022-10-15T21:58	10	1	0.1	1	1	379	0.5	378	380	14.8	80.0
2022-10-15T21:59	10	1	0.1	1	1	379	0.3	379	380	14.8	80.0
2022-10-15T22:00	10	1	0.1	1	1	379	0.2	379	380	14.8	80.0
2022-10-15T22:01	10	1	0.1	1	1	379	0.3	379	380	14.8	80.1
2022-10-15T22:02	10	1	0.1	1	1	380	0.2	379	380	14.8	80.2
2022-10-15T22:03	10	1	0.1	1	1	379	0.3	378	380	14.8	80.1
2022-10-15T22:04	10	1	0.1	1	1	379	0.3	379	380	14.7	80.3
2022-10-15T22:05	10	1	0.1	1	1	379	0.2	379	380	14.6	81.1
2022-10-15T22:06	10	1	0.1	1	1	379	0.2	378	379	14.6	81.4
2022-10-15T22:07	10	1	0.1	1	1	379	0.2	378	379	14.5	81.7
2022-10-15T22:08	10	1	0.1	0	1	379	0.2	378	379	14.5	81.8
2022-10-15T22:09	10	1	0.1	1	1	379	0.2	378	379	14.6	81.3
2022-10-15T22:10	10	1	0.1	1	1	379	0.2	378	379	14.6	81.0
2022-10-15T22:11	10	1	0.1	1	2	379	0.2	378	379	14.6	81.1
2022-10-15T22:12	10	1	0.1	1	1	379	0.2	378	379	14.6	81.1
2022-10-15T22:13	10	1	0.1	1	1	378	0.2	378	379	14.6	81.3
2022-10-15T22:14	10	1	0.0	0	1	379	0.2	378	379	14.6	81.5
2022-10-15T22:15	10	1	0.1	0	1	379	0.3	378	379	14.7	81.0
2022-10-15T22:16	10	0	0.1	0	1	379	0.2	378	379	14.8	80.5
2022-10-15T22:17	10	0	0.1	0	1	379	0.2	378	379	14.8	80.3
2022-10-15T22:18	10	0	0.1	0	1	379	0.2	378	379	14.8	80.1
2022-10-15T22:19	10	0	0.1	0	1	379	0.2	378	379	14.9	79.8
2022-10-15T22:20	10	0	0.1	0	1	379	0.2	379	379	14.9	79.7
2022-10-15T22:21	10	0	0.1	0	0	379	0.2	378	379	14.9	79.7
2022-10-15T22:22	10	0	0.1	0	0	379	0.2	378	379	14.7	80.5
2022-10-15T22:23	10	0	0.1	0	0	379	0.2	378	379	14.7	81.3
2022-10-15T22:24	10	0	0.1	0	0	379	0.2	379	379	14.7	81.4
2022-10-15T22:25	10	1	0.1	0	1	379	0.2	378	379	14.7	81.1
2022-10-15T22:26	10	1	0.1	0	1	379	0.2	378	379	14.7	81.2
2022-10-15T22:27	10	0	0.1	0	1	379	0.2	378	379	14.6	81.7
2022-10-15T22:28	10	0	0.1	0	1	378	0.2	378	379	14.6	82.1
2022-10-15T22:29	10	0	0.1	0	1	378	0.2	377	378	14.4	82.6
2022-10-15T22:30	10	1	0.1	0	1	377	0.2	377	378	14.4	83.2
2022-10-15T22:31	10	1	0.1	0	1	377	0.2	377	378	14.4	83.3
2022-10-15T22:32	10	1	0.1	0	1	377	0.2	377	378	14.4	83.1
2022-10-15T22:33	10	1	0.1	1	1	377	0.2	377	377	14.4	83.2
2022-10-15T22:34	10	1	0.1	1	1	377	0.2	377	378	14.3	83.6
2022-10-15T22:35	10	1	0.1	1	1	377	0.2	377	377	14.4	83.6
2022-10-15T22:36	10	1	0.1	1	1	377	0.2	376	378	14.3	83.8
2022-10-15T22:37	10	1	0.1	1	1	377	0.2	376	377	14.3	83.9
2022-10-15T22:38	10	1	0.1	1	1	377	0.2	376	378	14.4	83.4
2022-10-15T22:39	10	1	0.1	1	1	377	0.2	376	377	14.4	83.6
2022-10-15T22:40	10	1	0.1	1	1	376	0.3	376	377	14.3	84.0
2022-10-15T22:41	10	1	0.1	0	1	376	0.2	376	377	14.4	83.6
2022-10-15T22:42	10	1	0.1	0	1	376	0.3	375	376	14.4	83.4
2022-10-15T22:43	10	1	0.1	0	1	376	0.3	375	376	14.3	83.7
2022-10-15T22:44	10	1	0.1	1	1	375	0.2	375	376	14.3	83.6
2022-10-15T22:45	10	1	0.2	0	1	375	0.2	375	376	13.9	85.4
2022-10-15T22:46	10	1	0.1	1	1	375	0.2	375	376	13.9	86.6
2022-10-15T22:47	10	1	0.1	0	1	376	0.2	375	376	14.1	86.0
2022-10-15T22:48	10	1	0.1	1	1	375	0.2	375	376	14.4	83.6
2022-10-15T22:49	10	1	0.1	1	1	375	0.3	375	376	14.1	84.5
2022-10-15T22:50	10	1	0.1	1	1	375	0.3	374	376	14.1	84.5
2022-10-15T22:51	10	1	0.1	0	1	374	0.2	374	375	13.9	85.8
2022-10-15T22:52	10	1	0.1	0	1	374	0.2	374	375	14.0	85.9
2022-10-15T22:53	10	1	0.1	0	1	374	0.2	374	375	13.9	86.1
2022-10-15T22:54	10	1	0.1	0	1	374	0.2	374	375	13.8	87.2
2022-10-15T22:55	10	0	0.2	0	1	374	0.2	373	374	13.7	87.7
2022-10-15T22:56	10	0	0.2	0	1	374	0.3	373	374	13.9	87.1
2022-10-15T22:57	10	0	0.2	0	1	374	0.2	373	374	13.9	86.8
2022-10-15T22:58	10	0	0.2	0	1	373	0.2	373	374	14.0	86.8
2022-10-15T22:59	10	0	0.2	0	1	373	0.4	372	374	14.0	86.3
2022-10-15T23:00	10	0	0.2	0	1	372	0.4	372	373	14.0	86.4
2022-10-15T23:01	10	1	0.2	0	1	372	0.2	372	373	13.8	86.8
2022-10-15T23:02	10	0	0.2	0	1	373	0.4	372	374	13.9	87.3
2022-10-15T23:03	10	0	0.1	0	1	373	0.2	372	373	14.3	85.5
2022-10-15T23:04	10	0	0.2	0	1	373	0.2	373	373	14.5	83.2
2022-10-15T23:05	10	1	0.2	0	1	373	0.3	373	374	14.8	81.6
2022-10-15T23:06	10	1	0.2	0	1	373	0.3	373	374	14.9	80.8
2022-10-15T23:07	10	1	0.2	0	1	373	0.3	373	374	14.9	80.5
2022-10-15T23:08	10	1	0.2	0	1	374	0.2	373	374	15.0	80.1
2022-10-15T23:09	10	1	0.2	0	1	373	0.3	373	374	14.9	80.1
2022-10-15T23:10	10	1	0.1	1	1	373	0.3	372	373	14.5	81.7
2022-10-15T23:11	10	1	0.1	0	1	373	0.3	372	374	14.4	83.2
2022-10-15T23:12	10	1	0.2	0	1	373	0.3	373	374	14.5	82.3
2022-10-15T23:13	10	1	0.1	1	1	373	0.3	372	374	14.5	82.8
2022-10-15T23:14	10	1	0.1	1	1	373	0.3	373	374	14.7	82.1
2022-10-15T23:15	10	1	0.2	1	2	373	0.2	373	374	14.5	82.0
2022-10-15T23:16	10	1	0.1	1	1	373	0.3	372	374	14.3	83.4
2022-10-15T23:17	10	1	0.2	1	1	373	0.2	373	374	14.1	84.0
2022-10-15T23:18	10	1	0.2	1	1	374	0.3	373	374	14.2	84.4
2022-10-15T23:19	10	1	0.1	1	1	373	0.2	372	373	14.1	84.1
2022-10-15T23:20	10	1	0.2	0	1	372	0.2	371	373	14.0	84.8
2022-10-15T23:21	10	1	0.2	0	1	372	0.2	371	372	13.9	85.3
2022-10-15T23:22	10	1	0.2	0	1	371	0.3	371	372	13.6	86.5
2022-10-15T23:23	10	1	0.1	0	1	371	0.2	371	372	13.6	87.3
2022-10-15T23:24	10	1	0.1	0	1	371	0.3	371	372	13.6	87.5
2022-10-15T23:25	10	1	0.1	0	1	372	0.2	371	372	13.8	87.1
2022-10-15T23:26	10	1	0.1	0	1	372	0.3	371	373	14.1	85.3
2022-10-15T23:27	10	1	0.1	1	1	372	0.2	371	372	14.3	83.9
2022-10-15T23:28	10	1	0.1	1	1	372	0.2	371	372	14.3	83.2
2022-10-15T23:29	10	1	0.1	1	1	372	0.4	371	373	14.4	83.3
2022-10-15T23:30	10	1	0.1	1	1	373	0.2	372	373	14.5	82.5
2022-10-15T23:31	10	1	0.1	1	1	372	0.4	372	373	14.6	81.6
2022-10-15T23:32	10	1	0.1	1	1	372	0.3	371	373	14.9	80.7
2022-10-15T23:33	10	1	0.1	1	1	372	0.4	371	373	14.9	79.6
2022-10-15T23:34	10	1	0.1	1	1	372	0.3	372	373	15.3	77.8
2022-10-15T23:35	10	1	0.1	1	1	372	0.3	371	373	15.3	77.0
2022-10-15T23:36	10	1	0.1	1	2	372	0.3	371	373	15.4	76.4
2022-10-15T23:37	10	1	0.1	1	2	372	0.3	371	372	14.9	78.2
2022-10-15T23:38	10	1	0.1	1	2	372	0.5	371	373	14.8	79.8
2022-10-15T23:39	10	1	0.1	1	1	373	0.2	372	373	15.1	78.2
2022-10-15T23:40	10	1	0.1	1	2	372	0.3	372	373	14.6	79.6
2022-10-15T23:41	10	1	0.1	1	1	373	0.2	373	374	14.8	80.3
2022-10-15T23:42	10	1	0.1	1	1	373	0.3	373	374	14.9	79.1
2022-10-15T23:43	10	1	0.1	1	1	373	0.3	372	373	14.7	79.6
2022-10-15T23:44	10	1	0.1	1	1	372	0.2	372	373	14.2	81.8
2022-10-15T23:45	10	1	0.1	1	1	372	0.6	370	373	14.0	83.3
2022-10-15T23:46	10	1	0.1	1	1	372	0.3	371	372	13.9	84.3
2022-10-15T23:47	10	1	0.1	1	1	372	0.3	371	373	14.0	84.5
2022-10-15T23:48	10	1	0.1	1	1	372	0.4	371	373	14.0	84.4
2022-10-15T23:49	10	1	0.1	1	1	372	0.2	371	373	13.9	85.1
2022-10-15T23:50	10	1	0.1	1	1	372	0.2	371	372	13.9	85.2
2022-10-15T23:51	10	1	0.1	1	1	371	0.2	371	372	13.7	85.9
2022-10-15T23:52	10	1	0.0	1	1	371	0.3	371	372	13.8	86.3
2022-10-15T23:53	10	1	0.1	1	1	371	0.2	370	371	13.8	86.1
2022-10-15T23:54	10	1	0.1	1	1	370	0.3	370	371	13.6	86.6
2022-10-15T23:55	10	1	0.1	1	1	370	0.3	370	371	13.5	87.3
2022-10-15T23:56	10	1	0.1	1	1	370	0.3	370	371	13.5	87.4
2022-10-15T23:57	10	1	0.1	1	1	371	0.2	370	371	13.5	87.6
2022-10-15T23:58	10	1	0.1	1	1	371	0.2	370	371	13.8	87.1
2022-10-15T23:59	10	1	0.1	1	1	371	0.3	370	371	13.8	86.3
2022-10-16T00:00	10	1	0.1	1	1	371	0.3	371	372	13.7	86.5
2022-10-16T00:01	10	1	0.1	1	1	372	0.2	371	372	13.7	86.6
2022-10-16T00:02	10	1	0.1	1	1	371	0.2	371	372	13.8	86.4
2022-10-16T00:03	10	1	0.1	1	1	371	0.2	370	371	13.8	86.2
2022-10-16T00:04	10	1	0.1	1	1	371	0.2	370	371	13.7	86.5
2022-10-16T00:05	10	1	0.1	1	1	371	0.2	370	371	13.5	87.3
2022-10-16T00:06	10	1	0.1	1	1	371	0.2	370	371	13.6	87.5
2022-10-16T00:07	10	1	0.1	1	1	371	0.2	370	371	13.7	86.9
2022-10-16T00:08	10	1	0.1	1	1	370	0.3	370	371	13.6	86.7
2022-10-16T00:09	10	1	0.1	1	1	370	0.2	370	370	13.5	87.5
2022-10-16T00:10	10	1	0.1	1	1	370	0.2	370	371	13.5	87.8
2022-10-16T00:11	10	1	0.1	1	1	370	0.3	370	371	13.7	87.4
2022-10-16T00:12	10	1	0.1	1	1	370	0.2	370	371	13.8	86.5
2022-10-16T00:13	10	1	0.1	1	1	370	0.2	370	371	14.0	85.6
2022-10-16T00:14	10	1	0.1	1	1	370	0.3	369	371	14.0	85.0
2022-10-16T00:15	10	1	0.1	1	1	369	0.2	369	370	14.0	85.0
2022-10-16T00:16	10	1	0.1	1	1	369	0.2	369	370	14.0	85.0
2022-10-16T00:17	10	1	0.1	1	1	369	0.2	369	370	13.9	85.1
2022-10-16T00:18	10	1	0.1	1	1	369	0.2	369	370	13.9	85.3
2022-10-16T00:19	10	1	0.1	1	1	369	0.2	369	369	13.8	85.6
2022-10-16T00:20	10	1	0.1	1	1	369	0.2	369	369	13.7	86.0
2022-10-16T00:21	10	1	0.1	1	1	369	0.4	368	369	13.6	86.4
2022-10-16T00:22	10	1	0.1	1	1	369	0.2	368	369	13.5	86.9
2022-10-16T00:23	10	1	0.1	1	1	369	0.3	368	369	13.5	87.4
2022-10-16T00:24	10	1	0.1	1	1	368	0.2	368	369	13.5	87.6
2022-10-16T00:25	10	1	0.1	1	1	368	0.2	368	369	13.3	88.1
2022-10-16T00:26	10	1	0.1	1	1	368	0.2	367	368	13.2	88.8
2022-10-16T00:27	10	1	0.1	1	1	368	0.2	367	368	13.2	89.3
2022-10-16T00:28	10	1	0.1	0	1	368	0.2	367	368	13.3	89.3
2022-10-16T00:29	10	1	0.1	1	1	368	0.2	367	368	13.4	88.8
2022-10-16T00:30	10	1	0.1	1	1	368	0.2	367	368	13.4	88.5
2022-10-16T00:31	10	1	0.0	1	1	367	0.2	367	368	13.4	88.2
2022-10-16T00:32	10	1	0.1	1	1	367	0.8	366	369	13.4	88.3
2022-10-16T00:33	10	1	0.1	1	1	367	0.3	367	368	13.6	88.1
2022-10-16T00:34	10	1	0.1	1	1	368	0.3	367	368	13.8	87.2
2022-10-16T00:35	10	1	0.1	1	1	368	0.3	367	368	13.7	86.8
2022-10-16T00:36	10	1	0.1	1	1	368	0.2	368	369	13.6	87.1
2022-10-16T00:37	10	1	0.1	1	1	369	0.4	368	369	13.5	87.6
2022-10-16T00:38	10	1	0.1	1	1	369	0.2	368	369	13.6	87.7
2022-10-16T00:39	10	1	0.1	1	1	368	0.4	368	369	13.5	87.5
2022-10-16T00:40	10	1	0.1	1	1	368	0.3	368	369	13.5	87.9
2022-10-16T00:41	10	1	0.1	1	1	369	0.2	368	369	13.5	88.2
2022-10-16T00:42	10	1	0.1	0	1	369	0.2	368	369	13.5	87.8
2022-10-16T00:43	10	0	0.1	0	1	369	0.3	369	370	13.5	88.0
2022-10-16T00:44	10	0	0.1	0	1	369	0.2	369	370	13.5	87.9
2022-10-16T00:45	10	0	0.1	0	0	369	0.2	369	370	13.7	87.4
2022-10-16T00:46	10	0	0.1	0	0	369	0.3	368	369	13.7	86.8
2022-10-16T00:47	10	0	0.1	0	0	368	0.2	368	369	13.7	87.0
2022-10-16T00:48	10	0	0.1	0	0	368	0.3	367	368	13.6	86.9
2022-10-16T00:49	10	0	0.1	0	0	368	0.3	367	369	13.6	87.3
2022-10-16T00:50	10	0	0.1	0	0	368	0.3	367	369	13.7	87.0
2022-10-16T00:51	10	0	0.1	0	0	369	0.2	368	369	13.6	87.0
2022-10-16T00:52	10	0	0.1	0	0	369	0.3	368	370	13.7	86.9
2022-10-16T00:53	10	0	0.1	0	0	369	0.3	368	369	13.5	87.0
2022-10-16T00:54	10	0	0.1	0	0	369	0.2	368	369	13.6	87.1
2022-10-16T00:55	10	0	0.1	0	0	369	0.2	368	369	13.6	86.8
2022-10-16T00:56	10	0	0.1	0	0	369	0.3	368	370	13.7	86.4
2022-10-16T00:57	10	0	0.1	0	0	369	0.2	369	369	13.7	86.2
2022-10-16T00:58	10	0	0.1	0	0	369	0.2	368	369	13.8	85.9
2022-10-16T00:59	10	0	0.1	0	1	369	0.3	368	369	13.8	85.5
2022-10-16T01:00	10	0	0.1	0	0	368	0.2	368	369	13.7	85.6
2022-10-16T01:01	10	0	0.1	0	1	367	0.3	367	368	13.9	85.0
2022-10-16T01:02	10	0	0.1	0	1	367	0.2	366	367	13.8	84.8
2022-10-16T01:03	10	1	0.1	0	1	367	0.2	366	367	14.0	84.3
2022-10-16T01:04	10	1	0.1	0	1	367	0.2	366	367	14.0	84.2
2022-10-16T01:05	10	1	0.1	0	1	367	0.3	367	368	14.0	84.4
2022-10-16T01:06	10	1	0.1	0	1	367	0.4	366	368	14.1	84.2
2022-10-16T01:07	10	1	0.1	0	1	366	0.3	366	367	13.9	84.2
2022-10-16T01:08	10	1	0.1	1	1	366	0.3	365	366	13.4	85.2
2022-10-16T01:09	10	1	0.1	1	1	366	0.2	365	366	13.3	86.4
2022-10-16T01:10	10	1	0.1	0	1	366	0.2	365	366	13.5	86.4
2022-10-16T01:11	10	1	0.1	0	1	366	0.3	365	366	13.5	86.1
2022-10-16T01:12	10	1	0.1	0	1	365	0.3	365	366	13.6	85.8
2022-10-16T01:13	10	1	0.1	0	1	365	0.5	364	366	13.6	85.6
2022-10-16T01:14	10	1	0.1	0	1	365	0.4	364	366	13.7	85.6
2022-10-16T01:15	10	1	0.1	1	1	366	0.5	365	366	13.7	85.6
2022-10-16T01:16	10	1	0.1	0	1	366	0.2	365	366	13.6	85.8
2022-10-16T01:17	10	1	0.1	0	1	366	0.4	365	367	13.5	86.0
2022-10-16T01:18	10	1	0.1	0	1	367	0.3	366	367	13.3	86.6
2022-10-16T01:19	10	1	0.1	0	1	366	0.3	366	367	13.1	87.4
2022-10-16T01:20	10	1	0.1	0	1	366	0.3	366	367	13.3	88.1
2022-10-16T01:21	10	0	0.1	0	1	367	0.4	366	368	13.4	87.4
2022-10-16T01:22	10	0	0.1	0	1	368	0.4	367	369	13.7	86.7
2022-10-16T01:23	10	0	0.1	0	0	369	0.5	368	370	13.8	85.7
2022-10-16T01:24	10	0	0.1	0	1	370	0.4	369	371	13.6	86.3
2022-10-16T01:25	10	0	0.1	0	1	371	0.5	369	371	13.6	86.6
2022-10-16T01:26	10	0	0.1	0	0	371	0.2	370	371	13.6	86.0
2022-10-16T01:27	10	0	0.1	0	1	371	0.4	371	372	13.5	86.7
2022-10-16T01:28	10	0	0.1	0	0	372	0.2	371	372	13.5	86.6
2022-10-16T01:29	10	0	0.1	0	0	372	0.2	371	372	13.3	87.5
2022-10-16T01:30	10	0	0.1	0	0	372	0.2	371	372	13.3	87.7
2022-10-16T01:31	10	0	0.1	0	0	371	0.3	371	372	13.2	87.7
2022-10-16T01:32	10	0	0.1	0	0	371	0.3	370	372	13.1	88.0
2022-10-16T01:33	10	0	0.1	0	0	372	0.4	371	373	13.1	88.4
2022-10-16T01:34	10	0	0.1	0	0	372	0.3	371	372	13.1	88.6
2022-10-16T01:35	10	0	0.1	0	0	372	0.4	371	373	13.4	87.5
2022-10-16T01:36	10	0	0.1	0	1	372	0.3	371	373	13.5	86.1
2022-10-16T01:37	10	0	0.1	0	1	372	0.3	372	373	13.6	85.7
2022-10-16T01:38	10	0	0.1	0	1	372	0.6	371	373	13.4	85.5
2022-10-16T01:39	10	1	0.1	0	1	372	0.3	372	373	13.3	86.7
2022-10-16T01:40	10	0	0.1	0	1	372	0.2	372	373	13.2	87.2
2022-10-16T01:41	10	0	0.1	0	1	373	0.2	372	373	13.1	87.7
2022-10-16T01:42	10	0	0.1	0	1	373	0.2	372	373	13.2	87.6
2022-10-16T01:43	10	0	0.1	0	1	373	0.3	372	373	13.1	87.8
2022-10-16T01:44	10	0	0.1	0	1	373	0.3	372	373	13.1	88.2
2022-10-16T01:45	10	0	0.1	0	0	373	0.3	372	374	12.9	89.1
2022-10-16T01:46	10	0	0.1	0	0	373	0.2	372	373	12.6	90.1
2022-10-16T01:47	10	0	0.1	-1	0	373	0.4	372	374	12.7	91.0
2022-10-16T01:48	10	-1	0.1	-1	0	373	0.3	373	373	12.9	90.7
2022-10-16T01:49	10	0	0.1	-1	0	373	0.3	373	374	13.3	89.3
2022-10-16T01:50	10	0	0.1	0	0	373	0.3	373	374	13.4	87.8
2022-10-16T01:51	10	0	0.1	0	0	373	0.2	372	374	13.3	86.9
2022-10-16T01:52	10	0	0.1	0	0	372	0.3	372	373	12.9	88.4
2022-10-16T01:53	10	0	0.1	0	1	372	0.2	372	373	12.6	90.3
2022-10-16T01:54	10	0	0.1	0	0	372	0.3	371	373	12.6	90.8
2022-10-16T01:55	10	0	0.1	0	0	372	0.2	371	372	12.5	90.9
2022-10-16T01:56	10	0	0.1	0	0	371	0.2	371	372	12.3	91.4
2022-10-16T01:57	10	0	0.1	0	0	371	0.3	371	372	12.2	92.1
2022-10-16T01:58	10	0	0.1	0	0	371	0.2	371	372	12.3	92.2
2022-10-16T01:59	10	0	0.1	0	0	371	0.3	370	372	12.3	92.2
2022-10-16T02:00	10	0	0.1	0	0	371	0.2	370	371	12.3	92.2
2022-10-16T02:01	10	0	0.1	0	0	371	0.2	370	371	12.3	92.2
2022-10-16T02:02	10	0	0.1	0	0	371	0.2	371	372	12.3	92.1
2022-10-16T02:03	10	0	0.1	0	1	371	0.3	370	372	12.3	92.0
2022-10-16T02:04	10	0	0.1	0	1	371	0.2	371	371	12.3	92.0
2022-10-16T02:05	10	0	0.1	0	1	371	0.2	370	372	12.3	91.9
2022-10-16T02:06	10	1	0.2	0	2	371	0.3	370	372	12.4	91.8
2022-10-16T02:07	10	1	0.1	0	1	371	0.3	370	372	12.4	91.7
2022-10-16T02:08	10	1	0.1	0	1	371	0.2	371	372	12.5	91.6
2022-10-16T02:09	10	1	0.1	0	1	371	0.3	371	372	12.6	91.2
2022-10-16T02:10	10	0	0.1	0	1	372	0.3	371	372	12.8	91.0
2022-10-16T02:11	10	0	0.1	0	1	372	0.2	371	373	13.1	89.8
2022-10-16T02:12	10	0	0.1	0	1	372	0.3	372	373	13.0	89.2
2022-10-16T02:13	10	0	0.1	0	1	372	0.2	372	373	13.1	88.8
2022-10-16T02:14	10	1	0.1	0	1	372	0.2	372	373	13.1	88.6
2022-10-16T02:15	10	1	0.1	1	1	372	0.2	372	373	13.1	88.5
2022-10-16T02:16	10	1	0.1	1	1	372	0.3	372	373	13.1	88.4
2022-10-16T02:17	10	1	0.1	1	1	372	0.2	372	373	13.1	88.4
2022-10-16T02:18	10	1	0.1	1	1	372	0.2	371	372	12.9	88.5
2022-10-16T02:19	10	1	0.1	1	1	372	0.2	371	372	12.9	89.1
2022-10-16T02:20	10	1	0.1	1	1	372	0.2	371	372	12.9	89.0
2022-10-16T02:21	10	1	0.1	1	1	372	0.2	371	372	13.0	89.0
2022-10-16T02:22	10	1	0.1	1	1	372	0.3	371	373	13.1	88.7
2022-10-16T02:23	10	1	0.1	1	1	372	0.2	372	373	13.2	87.9
2022-10-16T02:24	10	1	0.1	0	1	373	0.2	372	373	13.3	87.1
2022-10-16T02:25	10	1	0.1	0	1	372	0.2	372	373	13.2	87.3
2022-10-16T02:26	10	1	0.1	0	1	372	0.2	372	373	13.1	87.7
2022-10-16T02:27	10	1	0.1	0	1	372	0.3	372	373	13.0	88.0
2022-10-16T02:28	10	0	0.1	0	1	372	0.2	372	373	12.8	88.7
2022-10-16T02:29	10	0	0.1	0	1	372	0.2	371	372	12.9	89.2
2022-10-16T02:30	10	0	0.1	0	1	372	0.3	371	372	12.7	89.2
2022-10-16T02:31	10	0	0.1	0	0	372	0.3	371	373	12.7	90.0
2022-10-16T02:32	10	0	0.1	0	0	372	0.2	372	373	12.9	89.4
2022-10-16T02:33	10	0	0.1	0	0	372	0.2	372	373	12.9	89.2
2022-10-16T02:34	10	0	0.1	0	0	373	0.2	372	373	13.2	89.0
2022-10-16T02:35	10	0	0.1	0	0	373	0.3	372	374	13.1	88.2
2022-10-16T02:36	10	0	0.1	0	0	373	0.3	373	374	13.3	88.3
2022-10-16T02:37	10	0	0.1	0	0	373	0.3	373	374	13.4	87.4
2022-10-16T02:38	10	0	0.1	0	0	373	0.2	373	373	13.3	87.0
2022-10-16T02:39	10	0	0.1	0	0	373	0.2	372	373	13.2	87.8
2022-10-16T02:40	10	0	0.1	0	1	373	0.3	372	373	13.2	87.9
2022-10-16T02:41	10	0	0.1	0	0	373	0.2	372	373	13.0	88.6
2022-10-16T02:42	10	0	0.1	0	1	373	0.3	372	373	12.9	89.3
2022-10-16T02:43	10	0	0.1	0	0	372	0.3	371	373	12.8	89.8
2022-10-16T02:44	10	0	0.1	0	0	372	0.3	372	373	12.9	89.9
2022-10-16T02:45	10	0	0.1	0	0	372	0.2	372	373	12.9	89.6
2022-10-16T02:46	10	0	0.1	0	0	372	0.2	372	373	12.9	89.3
2022-10-16T02:47	10	0	0.1	0	0	372	0.2	372	372	12.8	89.4
2022-10-16T02:48	10	0	0.1	0	0	372	0.2	372	373	12.7	90.0
2022-10-16T02:49	10	0	0.1	0	0	372	0.2	372	373	12.7	90.2
2022-10-16T02:50	10	0	0.1	0	0	372	0.3	372	373	12.7	90.1
2022-10-16T02:51	10	0	0.1	0	0	372	0.2	372	373	12.7	89.7
2022-10-16T02:52	10	0	0.1	0	0	372	0.3	371	372	12.6	90.1
2022-10-16T02:53	10	0	0.1	0	0	371	0.2	371	372	12.5	90.6
2022-10-16T02:54	10	0	0.1	0	0	372	0.2	371	372	12.7	90.8
2022-10-16T02:55	10	0	0.1	0	0	372	0.3	372	373	12.9	89.9
2022-10-16T02:56	10	0	0.1	0	0	373	0.4	372	374	13.5	87.9
2022-10-16T02:57	10	0	0.1	0	0	372	0.4	372	373	13.0	87.3
2022-10-16T02:58	10	0	0.1	0	0	373	0.3	372	373	12.8	88.5
2022-10-16T02:59	10	0	0.1	0	0	373	0.3	372	373	12.9	89.0
2022-10-16T03:00	10	0	0.1	0	1	373	0.2	372	373	12.9	88.7
2022-10-16T03:01	10	0	0.1	0	0	373	0.3	372	374	13.4	87.8
2022-10-16T03:02	10	0	0.1	0	0	373	0.4	373	374	13.5	86.5
2022-10-16T03:03	10	0	0.1	0	0	373	0.3	372	373	13.3	86.8
2022-10-16T03:04	10	0	0.1	0	1	373	0.2	372	373	13.2	87.1
2022-10-16T03:05	10	0	0.1	0	1	373	0.2	372	373	13.2	87.4
2022-10-16T03:06	10	1	0.1	0	1	373	0.2	373	373	13.1	87.5
2022-10-16T03:07	10	1	0.1	1	1	373	0.2	373	374	13.2	87.6
2022-10-16T03:08	10	1	0.1	1	1	373	0.2	373	374	13.4	87.1
2022-10-16T03:09	10	1	0.1	1	1	373	0.3	373	374	13.5	86.3
2022-10-16T03:10	10	1	0.1	1	1	373	0.3	372	373	13.3	86.3
2022-10-16T03:11	10	1	0.1	1	1	372	0.2	372	373	13.1	87.0
2022-10-16T03:12	10	1	0.1	1	1	373	0.3	373	374	13.4	86.8
2022-10-16T03:13	10	1	0.1	1	1	373	0.3	373	374	13.6	85.7
2022-10-16T03:14	10	1	0.1	1	1	374	0.3	373	374	13.6	85.5
2022-10-16T03:15	10	1	0.0	1	1	373	0.2	372	373	13.7	85.1
2022-10-16T03:16	10	1	0.1	1	1	373	0.2	372	373	13.5	85.2
2022-10-16T03:17	10	1	0.1	1	1	372	0.3	372	373	13.1	86.6
2022-10-16T03:18	10	1	0.1	1	1	373	0.2	372	373	13.1	87.8
2022-10-16T03:19	10	1	0.1	1	1	373	0.3	372	374	13.4	87.0
2022-10-16T03:20	10	1	0.1	1	1	373	0.2	373	374	13.6	85.5
2022-10-16T03:21	10	1	0.1	1	1	373	0.3	372	373	13.5	85.5
2022-10-16T03:22	10	1	0.1	1	1	372	0.2	372	373	13.3	86.1
2022-10-16T03:23	10	1	0.1	1	1	372	0.2	372	373	13.3	86.7
2022-10-16T03:24	10	1	0.1	1	1	373	0.3	372	373	13.5	86.0
2022-10-16T03:25	10	1	0.1	1	1	373	0.2	372	374	13.7	84.7
2022-10-16T03:26	10	1	0.1	1	1	373	0.2	373	374	13.7	84.3
2022-10-16T03:27	10	1	0.1	1	1	373	0.2	373	374	13.8	84.2
2022-10-16T03:28	10	1	0.1	1	1	373	0.2	373	374	13.8	83.8
2022-10-16T03:29	10	1	0.1	1	1	373	0.2	372	373	13.9	83.5
2022-10-16T03:30	10	1	0.1	1	1	373	0.2	373	374	13.9	83.1
2022-10-16T03:31	10	1	0.1	1	1	373	0.2	373	373	14.0	82.8
2022-10-16T03:32	10	1	0.1	1	1	373	0.2	373	374	14.1	82.3
2022-10-16T03:33	10	1	0.1	1	1	373	0.2	373	374	14.2	81.6
2022-10-16T03:34	10	1	0.1	1	1	373	0.2	373	373	14.3	80.9
2022-10-16T03:35	10	1	0.1	1	1	373	0.3	372	373	14.1	81.4
2022-10-16T03:36	10	1	0.1	1	1	373	0.2	372	373	13.9	82.4
2022-10-16T03:37	10	1	0.1	1	1	373	0.2	373	373	13.9	82.8
2022-10-16T03:38	10	1	0.1	1	1	373	0.3	372	373	14.0	82.4
2022-10-16T03:39	10	1	0.1	1	1	372	0.3	372	373	13.8	82.6
2022-10-16T03:40	10	1	0.1	1	1	372	0.2	372	372	13.7	83.6
2022-10-16T03:41	10	1	0.1	1	1	372	0.2	371	372	13.6	84.2
2022-10-16T03:42	10	1	0.1	1	1	372	0.3	371	372	13.7	84.4
2022-10-16T03:43	10	1	0.1	1	1	372	0.3	372	373	14.0	83.4
2022-10-16T03:44	10	1	0.1	1	1	373	0.3	372	374	14.2	81.8
2022-10-16T03:45	10	1	0.1	1	1	373	0.2	372	373	14.0	81.6
2022-10-16T03:46	10	1	0.1	1	1	373	0.3	372	373	13.8	83.2
2022-10-16T03:47	10	1	0.1	1	1	373	0.3	372	373	13.9	82.9
2022-10-16T03:48	10	1	0.1	1	1	373	0.3	372	373	13.9	82.8
2022-10-16T03:49	10	1	0.1	1	1	372	0.2	372	373	13.8	83.4
2022-10-16T03:50	10	1	0.1	1	1	372	0.2	372	373	13.7	84.3
2022-10-16T03:51	10	1	0.1	1	1	372	0.3	372	373	13.7	84.4
2022-10-16T03:52	10	1	0.1	1	1	372	0.3	372	373	13.8	83.8
2022-10-16T03:53	10	1	0.1	1	1	373	0.3	372	373	13.9	82.9
2022-10-16T03:54	10	1	0.1	1	1	372	0.4	371	373	13.7	83.1
2022-10-16T03:55	10	1	0.1	1	1	373	0.4	372	374	13.7	84.7
2022-10-16T03:56	10	1	0.1	1	1	373	0.3	372	374	14.1	82.4
2022-10-16T03:57	10	1	0.0	1	1	372	0.4	371	372	13.5	83.3
2022-10-16T03:58	10	1	0.1	1	1	372	0.4	371	373	13.4	85.6
2022-10-16T03:59	10	1	0.1	1	1	372	0.3	371	372	13.6	84.9
2022-10-16T04:00	10	1	0.1	1	1	372	0.2	371	372	13.7	84.5
2022-10-16T04:01	10	1	0.1	1	1	371	0.3	371	372	13.6	84.6
2022-10-16T04:02	10	1	0.0	1	1	371	0.2	370	371	13.5	85.2
2022-10-16T04:03	10	1	0.1	1	1	371	0.2	370	371	13.5	85.5
2022-10-16T04:04	10	1	0.1	1	1	371	0.2	371	372	13.5	85.7
2022-10-16T04:05	10	1	0.1	1	1	371	0.3	370	372	13.4	86.0
2022-10-16T04:06	10	1	0.1	1	1	371	0.2	371	371	13.4	86.1
2022-10-16T04:07	10	1	0.1	1	1	371	0.3	371	372	13.3	86.4
2022-10-16T04:08	10	1	0.1	1	1	371	0.2	370	372	13.1	87.2
2022-10-16T04:09	10	1	0.1	1	1	371	0.2	371	371	13.0	88.0
2022-10-16T04:10	10	1	0.1	1	1	371	0.3	371	372	13.1	88.3
2022-10-16T04:11	10	1	0.1	1	1	371	0.3	371	372	13.1	88.3
2022-10-16T04:12	10	1	0.1	1	1	371	0.2	371	372	13.1	88.2
2022-10-16T04:13	10	1	0.1	1	1	371	0.2	370	371	13.0	88.4
2022-10-16T04:14	10	1	0.1	1	1	371	0.2	371	371	13.1	88.6
2022-10-16T04:15	10	1	0.1	1	1	371	0.2	371	372	13.2	88.2
2022-10-16T04:16	10	1	0.1	1	1	371	0.3	370	372	13.4	86.6
2022-10-16T04:17	10	1	0.1	1	1	371	0.3	370	371	13.3	86.5
2022-10-16T04:18	10	1	0.1	0	1	371	0.3	370	372	13.1	87.9
2022-10-16T04:19	10	1	0.1	0	1	371	0.2	370	371	13.2	87.9
2022-10-16T04:20	10	1	0.1	0	1	371	0.3	370	371	13.2	87.2
2022-10-16T04:21	10	1	0.1	0	1	371	0.2	370	371	13.1	87.9
2022-10-16T04:22	10	0	0.1	0	1	370	0.3	370	371	13.0	88.1
2022-10-16T04:23	10	1	0.1	0	1	370	0.3	370	371	12.9	88.7
2022-10-16T04:24	10	1	0.1	0	1	370	0.2	370	371	12.6	89.7
2022-10-16T04:25	10	0	0.1	0	1	370	0.3	369	371	12.4	90.8
2022-10-16T04:26	10	0	0.1	0	0	370	0.3	370	371	12.6	91.4
2022-10-16T04:27	10	0	0.1	0	0	370	0.3	369	371	12.7	91.0
2022-10-16T04:28	10	0	0.1	0	0	370	0.2	370	371	12.8	90.5
2022-10-16T04:29	10	0	0.1	0	0	370	0.3	370	371	12.9	89.8
2022-10-16T04:30	10	0	0.1	0	0	370	0.2	370	371	13.0	89.5
2022-10-16T04:31	10	0	0.1	0	1	370	0.2	370	370	13.1	88.9
2022-10-16T04:32	10	0	0.1	0	1	369	0.3	369	370	12.9	88.9
2022-10-16T04:33	10	0	0.1	0	1	370	0.3	369	370	12.9	89.7
2022-10-16T04:34	10	0	0.1	0	1	370	0.2	369	370	13.2	88.7
2022-10-16T04:35	10	0	0.1	0	1	370	0.2	369	370	13.1	88.0
2022-10-16T04:36	10	0	0.1	0	1	369	0.2	369	370	12.9	88.7
2022-10-16T04:37	10	0	0.1	0	1	369	0.2	369	370	12.9	89.0
2022-10-16T04:38	10	0	0.1	0	0	369	0.3	368	370	12.8	89.5
2022-10-16T04:39	10	0	0.1	0	0	369	0.3	369	370	12.8	90.0
2022-10-16T04:40	10	0	0.1	0	0	369	0.2	369	370	12.8	90.1
2022-10-16T04:41	10	0	0.1	0	0	369	0.3	368	370	12.8	89.9
2022-10-16T04:42	10	0	0.1	0	0	369	0.3	368	370	12.7	90.0
2022-10-16T04:43	10	0	0.1	0	1	369	0.2	369	370	12.7	90.0
2022-10-16T04:44	10	0	0.1	0	1	369	0.2	369	369	12.7	90.3
2022-10-16T04:45	10	0	0.1	0	1	369	0.3	368	369	12.8	90.2
2022-10-16T04:46	10	0	0.1	0	1	368	0.2	368	369	12.8	89.9
2022-10-16T04:47	10	0	0.1	0	1	368	0.2	368	369	12.6	90.3
2022-10-16T04:48	10	0	0.1	0	1	368	0.3	367	369	12.7	90.6
2022-10-16T04:49	10	0	0.1	0	1	368	0.2	368	368	12.6	90.6
2022-10-16T04:50	10	0	0.1	0	1	368	0.2	368	369	12.6	91.0
2022-10-16T04:51	10	1	0.1	0	1	368	0.2	368	369	12.6	91.1
2022-10-16T04:52	10	1	0.1	0	1	368	0.2	368	369	12.4	91.2
2022-10-16T04:53	10	1	0.1	0	1	368	0.2	368	369	12.4	91.8
2022-10-16T04:54	10	0	0.1	0	1	368	0.2	368	369	12.4	92.0
2022-10-16T04:55	10	0	0.1	0	1	369	0.2	368	369	12.5	91.9
2022-10-16T04:56	10	0	0.1	0	1	369	0.3	369	370	12.6	91.5
2022-10-16T04:57	10	0	0.1	0	1	370	0.3	370	371	12.9	90.6
2022-10-16T04:58	10	0	0.1	0	1	370	0.2	370	371	13.0	89.1
2022-10-16T04:59	10	0	0.1	0	1	370	0.3	369	370	12.9	89.2
2022-10-16T05:00	10	0	0.1	0	1	370	0.2	369	370	12.8	89.9
2022-10-16T05:01	10	0	0.1	0	1	370	0.2	369	370	12.7	90.4
2022-10-16T05:02	10	0	0.1	0	1	370	0.3	369	370	12.7	90.7
2022-10-16T05:03	10	0	0.1	0	1	370	0.2	369	370	12.7	90.7
2022-10-16T05:04	10	0	0.1	0	1	370	0.3	370	371	12.4	91.1
2022-10-16T05:05	10	0	0.1	0	0	370	0.2	370	371	12.4	91.7
2022-10-16T05:06	10	0	0.1	0	0	371	0.2	370	371	12.5	92.0
2022-10-16T05:07	10	0	0.1	0	0	371	0.5	370	372	12.6	91.7
2022-10-16T05:08	10	0	0.1	0	0	371	0.3	371	372	12.9	90.9
2022-10-16T05:09	10	0	0.1	0	0	371	0.2	371	372	12.9	90.1
2022-10-16T05:10	10	0	0.1	0	0	371	0.2	371	372	12.9	89.6
2022-10-16T05:11	10	0	0.1	0	0	371	0.2	370	371	12.9	89.5
2022-10-16T05:12	10	0	0.1	0	0	370	0.3	370	371	12.8	89.5
2022-10-16T05:13	10	0	0.1	0	0	370	0.4	369	371	12.7	90.3
2022-10-16T05:14	10	0	0.1	0	1	370	0.2	369	370	12.6	90.5
2022-10-16T05:15	10	1	0.1	0	1	370	0.3	369	370	12.6	90.7
2022-10-16T05:16	10	1	0.1	0	1	369	0.2	369	370	12.6	90.8
2022-10-16T05:17	10	0	0.1	0	1	370	0.3	369	370	12.7	90.8
2022-10-16T05:18	10	0	0.1	0	1	370	0.3	369	370	12.9	90.4
2022-10-16T05:19	10	0	0.1	0	0	369	0.2	369	370	12.9	89.8
2022-10-16T05:20	10	0	0.1	0	0	369	0.3	369	370	12.8	89.8
2022-10-16T05:21	10	0	0.1	0	0	369	0.2	369	370	12.6	90.4
2022-10-16T05:22	10	0	0.1	0	0	369	0.2	369	370	12.5	91.3
2022-10-16T05:23	10	0	0.1	0	0	369	0.2	369	370	12.5	91.7
2022-10-16T05:24	10	0	0.1	0	0	369	0.2	369	370	12.6	91.7
2022-10-16T05:25	10	0	0.1	0	0	369	0.2	369	370	12.7	91.4
2022-10-16T05:26	10	0	0.2	0	1	369	0.2	369	370	12.6	91.4
2022-10-16T05:27	10	0	0.1	0	0	369	0.2	369	370	12.6	91.5
2022-10-16T05:28	10	0	0.1	0	0	370	0.2	369	370	12.7	91.3
2022-10-16T05:29	10	0	0.1	0	0	370	0.2	369	370	12.7	91.3
2022-10-16T05:30	10	0	0.1	0	0	369	0.2	369	370	12.7	91.2
2022-10-16T05:31	10	0	0.1	0	1	369	0.3	369	370	12.7	91.1
2022-10-16T05:32	10	1	0.1	0	1	369	0.2	369	370	12.8	90.8
2022-10-16T05:33	10	1	0.1	0	1	370	0.3	369	370	12.9	90.2
2022-10-16T05:34	10	1	0.1	0	1	370	0.2	369	370	13.0	89.5
2022-10-16T05:35	10	1	0.1	0	1	370	0.2	369	370	12.9	89.4
2022-10-16T05:36	10	1	0.1	0	1	369	0.2	369	370	12.8	89.8
2022-10-16T05:37	10	1	0.1	0	1	369	0.2	369	370	12.8	90.1
2022-10-16T05:38	10	1	0.1	1	1	370	0.3	369	370	12.8	90.3
2022-10-16T05:39	10	1	0.1	0	1	369	0.3	369	370	12.6	90.4
2022-10-16T05:40	10	1	0.1	0	1	369	0.6	368	370	12.2	91.2
2022-10-16T05:41	10	0	0.1	0	1	369	0.4	368	370	12.0	92.6
2022-10-16T05:42	10	0	0.1	0	0	369	0.2	369	370	12.2	93.4
2022-10-16T05:43	10	0	0.1	0	1	369	0.2	369	370	12.4	93.1
2022-10-16T05:44	10	0	0.1	0	1	369	0.2	368	370	12.5	92.5
2022-10-16T05:45	10	0	0.1	0	1	369	0.2	369	370	12.6	91.9
2022-10-16T05:46	10	1	0.1	1	1	369	0.3	368	369	12.6	91.3
2022-10-16T05:47	10	1	0.1	1	1	368	0.2	368	369	12.5	91.3
2022-10-16T05:48	10	1	0.1	1	1	368	0.3	368	369	12.4	91.6
2022-10-16T05:49	10	1	0.1	1	1	368	0.2	368	369	12.5	91.8
2022-10-16T05:50	10	1	0.1	1	1	368	0.2	368	369	12.6	91.8
2022-10-16T05:51	10	1	0.1	1	1	368	0.2	368	369	12.6	91.8
2022-10-16T05:52	10	1	0.1	1	1	368	0.2	368	369	12.6	91.7
2022-10-16T05:53	10	1	0.1	1	1	368	0.2	368	369	12.6	91.3
2022-10-16T05:54	10	1	0.1	1	1	368	0.2	368	369	12.5	91.1
2022-10-16T05:55	10	1	0.1	1	2	368	0.2	368	369	12.4	91.4
2022-10-16T05:56	10	1	0.1	1	2	368	0.2	368	369	12.3	92.1
2022-10-16T05:57	10	2	0.1	1	2	369	0.2	368	369	12.2	92.7
2022-10-16T05:58	10	2	0.1	2	2	369	0.2	368	369	12.2	93.0
2022-10-16T05:59	10	2	0.1	2	2	368	0.2	368	369	12.3	93.0
2022-10-16T06:00	10	2	0.0	2	2	369	0.2	368	369	12.4	92.5
2022-10-16T06:01	10	2	0.1	2	2	369	0.2	368	369	12.5	92.1
2022-10-16T06:02	10	2	0.1	2	2	369	0.2	368	369	12.5	91.4
2022-10-16T06:03	10	2	0.1	2	3	369	0.3	368	369	12.5	91.3
2022-10-16T06:04	10	2	0.1	2	3	368	0.2	368	369	12.3	91.4
2022-10-16T06:05	10	3	0.1	2	3	369	0.2	368	369	12.3	92.1
2022-10-16T06:06	10	3	0.1	2	3	369	0.3	368	369	12.3	92.4
2022-10-16T06:07	10	3	0.1	3	3	369	0.2	368	369	12.3	92.5
2022-10-16T06:08	10	3	0.1	3	3	369	0.2	368	369	12.3	92.4
2022-10-16T06:09	10	3	0.1	3	4	369	0.2	369	369	12.3	92.3
2022-10-16T06:10	10	3	0.1	3	4	369	0.3	368	370	12.3	92.3
2022-10-16T06:11	10	4	0.1	3	4	369	0.2	369	370	12.3	92.3
2022-10-16T06:12	10	4	0.1	4	4	369	0.2	369	370	12.2	92.5
2022-10-16T06:13	10	4	0.1	4	4	370	0.3	369	370	12.3	92.7
2022-10-16T06:14	10	4	0.1	4	4	370	0.2	369	370	12.3	92.6
2022-10-16T06:15	10	4	0.1	4	5	370	0.2	370	371	12.3	92.6
2022-10-16T06:16	10	4	0.2	4	5	370	0.2	370	371	12.3	92.7
2022-10-16T06:17	10	5	0.1	5	5	370	0.2	370	371	12.2	92.7
2022-10-16T06:18	10	5	0.1	5	5	370	0.2	370	371	12.3	92.8
2022-10-16T06:19	10	5	0.1	5	6	371	0.2	370	371	12.3	92.8
2022-10-16T06:20	10	6	0.1	5	6	371	0.2	370	371	12.4	92.6
2022-10-16T06:21	10	6	0.1	6	6	371	0.2	371	371	12.4	92.3
2022-10-16T06:22	10	6	0.1	6	6	371	0.2	371	372	12.5	92.1
2022-10-16T06:23	10	6	0.1	6	7	371	0.3	371	372	12.5	91.9
2022-10-16T06:24	10	6	0.1	6	7	372	0.2	371	372	12.5	91.6
2022-10-16T06:25	10	7	0.1	6	7	372	0.2	371	372	12.5	91.5
2022-10-16T06:26	10	7	0.1	7	7	372	0.2	371	372	12.5	91.5
2022-10-16T06:27	10	7	0.1	7	7	372	0.2	372	373	12.6	91.6
2022-10-16T06:28	10	7	0.2	7	8	373	0.3	372	373	12.8	91.5
2022-10-16T06:29	10	8	0.1	7	8	373	0.2	372	373	12.8	90.9
2022-10-16T06:30	10	8	0.1	8	8	373	0.2	373	374	12.9	90.6
2022-10-16T06:31	10	8	0.1	8	9	373	0.3	372	374	12.8	89.9
2022-10-16T06:32	10	8	0.1	8	8	373	0.5	372	374	12.7	90.1
2022-10-16T06:33	10	8	0.1	8	9	373	0.3	373	374	12.6	90.2
2022-10-16T06:34	10	8	0.1	8	9	373	0.4	373	374	12.6	90.6
2022-10-16T06:35	10	8	0.1	8	9	374	0.7	372	375	12.5	90.9
2022-10-16T06:36	10	9	0.1	8	9	374	0.9	372	375	12.5	91.3
2022-10-16T06:37	10	9	0.2	8	9	374	0.3	373	374	12.4	91.6
2022-10-16T06:38	10	9	0.2	9	10	374	0.2	373	375	12.4	91.9
2022-10-16T06:39	10	10	0.2	9	10	374	0.2	373	374	12.4	92.1
2022-10-16T06:40	10	10	0.2	10	11	374	0.3	374	375	12.4	92.3
2022-10-16T06:41	10	11	0.1	10	11	374	0.2	374	375	12.5	92.4
2022-10-16T06:42	10	11	0.2	10	11	374	0.2	374	375	12.5	92.3
2022-10-16T06:43	10	11	0.1	11	11	374	0.3	374	375	12.5	92.1
2022-10-16T06:44	10	11	0.1	11	12	375	0.2	374	375	12.5	92.1
2022-10-16T06:45	10	12	0.1	11	12	375	0.2	375	376	12.5	92.0
2022-10-16T06:46	10	12	0.1	12	12	375	0.2	375	376	12.5	92.0
2022-10-16T06:47	10	12	0.1	12	13	376	0.3	375	376	12.6	92.1
2022-10-16T06:48	10	13	0.1	13	13	376	0.2	375	376	12.7	91.7
2022-10-16T06:49	10	13	0.1	13	13	376	0.2	376	377	12.8	91.1
2022-10-16T06:50	10	13	0.1	13	14	376	0.2	376	376	12.8	90.7
2022-10-16T06:51	10	13	0.1	13	14	376	0.4	376	377	12.8	90.3
2022-10-16T06:52	10	14	0.1	13	14	376	0.2	376	377	12.8	90.2
2022-10-16T06:53	10	14	0.1	13	14	377	0.6	376	378	12.7	90.6
2022-10-16T06:54	10	14	0.1	13	14	377	0.3	376	377	12.7	91.0
2022-10-16T06:55	10	14	0.1	14	14	377	0.3	377	378	12.7	90.9
2022-10-16T06:56	10	14	0.1	14	14	378	0.3	377	379	12.7	91.1
2022-10-16T06:57	10	14	0.1	14	15	378	0.2	378	378	12.7	91.4
2022-10-16T06:58	10	15	0.1	14	15	378	0.1	377	378	12.7	91.6
2022-10-16T06:59	10	15	0.1	15	15	378	0.2	377	378	12.6	91.9
2022-10-16T07:00	10	15	0.1	15	16	378	0.2	377	378	12.7	91.8
2022-10-16T07:01	10	16	0.1	15	16	378	0.2	378	378	12.6	91.8
2022-10-16T07:02	10	16	0.1	15	16	378	0.2	378	378	12.7	91.8
2022-10-16T07:03	10	16	0.1	16	16	379	0.2	378	379	12.7	91.6
2022-10-16T07:04	10	16	0.1	15	16	379	0.2	378	379	12.7	91.4
2022-10-16T07:05	10	16	0.1	15	16	379	0.3	379	380	12.7	91.4
2022-10-16T07:06	10	15	0.1	15	16	379	0.2	379	380	12.7	91.4
2022-10-16T07:07	10	15	0.1	15	15	379	0.3	379	380	12.7	91.3
2022-10-16T07:08	10	15	0.1	15	15	379	0.2	379	379	12.7	91.1
2022-10-16T07:09	10	15	0.1	15	15	379	0.2	379	380	12.7	90.6
2022-10-16T07:10	10	15	0.1	14	15	379	0.2	379	379	12.7	90.5
2022-10-16T07:11	10	14	0.1	14	15	379	0.2	379	380	12.7	90.7
2022-10-16T07:12	10	14	0.1	14	14	379	0.2	379	380	12.7	90.9
2022-10-16T07:13	10	14	0.1	14	15	379	0.2	379	380	12.8	91.2
2022-10-16T07:14	10	14	0.1	14	14	380	0.2	379	380	12.8	91.3
2022-10-16T07:15	10	14	0.1	14	14	380	0.3	379	380	12.9	91.0
2022-10-16T07:16	10	14	0.1	14	14	380	0.3	379	380	13.1	89.7
2022-10-16T07:17	10	14	0.1	14	14	380	0.2	379	380	13.3	88.3
2022-10-16T07:18	10	14	0.1	14	14	380	0.2	379	380	13.2	87.8
2022-10-16T07:19	10	14	0.1	14	15	379	0.2	379	380	13.1	88.7
2022-10-16T07:20	10	14	0.1	14	14	379	0.2	379	380	13.1	89.0
2022-10-16T07:21	10	14	0.1	14	14	379	0.2	378	380	13.1	89.1
2022-10-16T07:22	10	14	0.1	14	14	379	0.3	378	379	12.9	89.7
2022-10-16T07:23	10	14	0.1	14	14	378	0.3	377	378	12.8	91.3
2022-10-16T07:24	10	14	0.2	13	14	377	0.3	377	378	12.7	92.3
2022-10-16T07:25	10	13	0.2	13	13	377	0.3	376	378	12.7	92.8
2022-10-16T07:26	10	12	0.2	12	13	377	0.2	376	377	12.8	92.4
2022-10-16T07:27	10	12	0.1	12	12	376	0.3	376	377	12.8	91.8
2022-10-16T07:28	10	11	0.1	11	12	376	0.2	376	377	12.9	91.0
2022-10-16T07:29	10	11	0.1	11	12	376	0.2	375	376	13.1	89.8
2022-10-16T07:30	10	11	0.1	11	12	375	0.3	375	376	13.0	89.9
2022-10-16T07:31	10	12	0.1	12	12	375	0.2	374	376	13.0	90.3
2022-10-16T07:32	10	12	0.1	12	12	375	0.2	375	376	13.2	88.9
2022-10-16T07:33	10	12	0.1	12	12	375	0.3	374	376	13.3	87.6
2022-10-16T07:34	10	12	0.1	12	13	375	0.2	374	376	13.3	87.3
2022-10-16T07:35	10	12	0.1	12	13	375	0.2	374	375	13.1	88.8
2022-10-16T07:36	10	13	0.1	12	13	375	0.3	374	375	13.1	90.0
2022-10-16T07:37	10	13	0.1	12	13	375	0.2	375	375	13.1	90.4
2022-10-16T07:38	10	13	0.1	13	13	375	0.2	374	375	13.1	90.3
2022-10-16T07:39	10	13	0.1	13	13	375	0.3	374	375	13.2	89.5
2022-10-16T07:40	10	13	0.1	13	13	375	0.2	374	375	13.3	88.5
2022-10-16T07:41	10	13	0.1	13	13	375	0.2	374	375	13.3	88.3
2022-10-16T07:42	10	13	0.1	13	14	375	0.2	374	375	13.2	88.8
2022-10-16T07:43	10	13	0.1	13	14	374	0.2	374	375	13.1	89.5
2022-10-16T07:44	10	13	0.2	13	13	374	0.4	374	375	13.0	90.3
2022-10-16T07:45	10	13	0.2	12	13	374	0.3	374	375	13.0	90.7
2022-10-16T07:46	10	12	0.1	12	13	374	0.2	374	375	13.1	90.7
2022-10-16T07:47	10	12	0.1	12	12	374	0.2	374	375	13.1	90.3
2022-10-16T07:48	10	12	0.1	12	12	374	0.4	373	375	13.2	89.8
2022-10-16T07:49	10	12	0.1	12	12	374	0.3	373	374	13.1	90.0
2022-10-16T07:50	10	12	0.1	12	13	374	0.5	373	375	13.1	90.1
2022-10-16T07:51	10	13	0.1	12	13	374	0.3	373	375	13.1	89.7
2022-10-16T07:52	10	13	0.1	13	13	374	0.4	373	375	13.0	89.8
2022-10-16T07:53	10	13	0.1	13	14	374	0.2	373	374	13.1	89.8
2022-10-16T07:54	10	13	0.1	13	14	374	0.5	373	375	13.1	89.4
2022-10-16T07:55	10	14	0.1	13	14	374	0.2	374	374	13.1	89.1
2022-10-16T07:56	10	13	0.1	13	14	374	0.3	373	374	13.1	88.7
2022-10-16T07:57	10	13	0.1	13	13	374	0.2	373	374	13.1	88.9
2022-10-16T07:58	10	13	0.2	13	14	373	0.2	373	374	13.0	89.0
2022-10-16T07:59	10	13	0.1	13	14	373	0.3	373	374	12.8	90.3
2022-10-16T08:00	10	13	0.0	13	13	373	0.2	373	374	12.7	91.5
2022-10-16T08:01	10	13	0.1	13	13	373	0.2	373	373	12.7	91.9
2022-10-16T08:02	10	13	0.1	13	13	373	0.2	372	374	12.7	92.0
2022-10-16T08:03	10	13	0.1	13	13	373	0.2	372	374	12.7	92.2
2022-10-16T08:04	10	14	0.1	13	14	373	0.2	373	374	12.7	92.4
2022-10-16T08:05	10	14	0.2	14	15	373	0.3	372	374	12.8	92.4
2022-10-16T08:06	10	14	0.1	14	15	374	0.3	373	374	12.9	92.0
2022-10-16T08:07	10	14	0.1	14	15	374	0.2	373	374	12.9	91.8
2022-10-16T08:08	10	15	0.1	14	15	374	0.2	373	374	12.9	92.1
2022-10-16T08:09	10	17	1.4	15	21	374	0.3	374	375	12.8	92.2
2022-10-16T08:10	10	24	5.4	19	36	375	0.8	374	376	12.8	92.4
2022-10-16T08:11	10	31	7.1	22	43	377	1.0	375	379	13.0	92.3
2022-10-16T08:12	10	23	2.5	19	27	378	0.2	378	379	13.4	90.2
2022-10-16T08:13	10	21	2.7	18	27	379	0.3	378	379	13.5	87.4
2022-10-16T08:14	10	22	3.5	19	31	378	0.3	378	379	13.5	86.9
2022-10-16T08:15	10	45	8.5	32	58	381	1.3	378	382	13.6	87.0
2022-10-16T08:16	10	45	8.8	33	60	383	0.5	382	384	13.6	86.3
2022-10-16T08:17	10	63	9.8	40	80	385	1.2	383	387	13.6	86.4
2022-10-16T08:18	10	90	5.4	72	92	390	1.7	387	392	13.6	89.2
2022-10-16T08:19	10	92	0.1	92	92	392	0.7	391	394	13.7	90.5
2022-10-16T08:20	10	92	0.1	92	93	394	0.4	393	395	13.9	89.1
2022-10-16T08:21	10	93	0.2	93	93	396	0.5	395	397	14.1	87.1
2022-10-16T08:22	10	94	0.9	91	95	397	0.3	396	397	14.3	85.4
2022-10-16T08:23	10	96	0.4	95	96	398	0.7	396	399	14.5	85.4
2022-10-16T08:24	10	96	0.1	96	97	399	0.5	398	400	14.6	87.8
2022-10-16T08:25	10	97	0.1	97	97	400	0.5	399	401	14.7	87.8
2022-10-16T08:26	10	98	0.1	97	98	401	0.5	399	401	14.6	85.1
2022-10-16T08:27	10	98	0.2	98	99	401	0.3	400	401	14.7	82.8
2022-10-16T08:28	10	98	0.8	97	99	401	0.3	400	402	14.8	83.0
2022-10-16T08:29	10	100	0.3	99	100	402	0.5	401	403	14.9	82.3
2022-10-16T08:30	10	101	0.4	100	102	402	0.2	402	403	14.9	82.6
2022-10-16T08:31	10	102	0.3	102	103	403	1.2	401	404	14.8	81.8
2022-10-16T08:32	10	103	0.2	103	103	404	0.8	401	404	14.9	82.6
2022-10-16T08:33	10	104	0.2	103	104	404	0.6	403	405	14.9	83.4
2022-10-16T08:34	10	104	0.2	104	104	404	0.3	404	405	14.7	83.5
2022-10-16T08:35	10	105	0.2	104	105	404	0.3	403	405	14.8	84.3
2022-10-16T08:36	10	106	0.4	105	107	404	0.3	404	405	14.6	83.6
2022-10-16T08:37	10	107	0.4	107	108	405	0.4	405	406	14.8	84.3
2022-10-16T08:38	10	109	0.5	108	110	406	0.2	405	407	14.8	83.4
2022-10-16T08:39	10	111	0.6	110	112	407	0.3	406	408	15.0	83.6
2022-10-16T08:40	10	113	0.5	112	114	408	0.4	407	409	15.0	83.7
2022-10-16T08:41	10	114	0.2	113	114	409	0.4	408	409	14.9	83.5
2022-10-16T08:42	10	115	0.4	114	116	410	0.4	409	411	15.2	83.3
2022-10-16T08:43	10	117	0.7	116	118	410	0.4	409	411	15.2	80.6
2022-10-16T08:44	10	119	0.7	118	121	411	0.4	410	412	15.4	81.0
2022-10-16T08:45	10	122	0.8	121	123	412	0.5	411	414	15.4	80.0
2022-10-16T08:46	10	124	0.6	123	126	413	0.6	412	414	15.8	82.0
2022-10-16T08:47	10	116	9.7	101	126	414	1.0	412	416	15.5	79.8
2022-10-16T08:48	10	107	6.4	101	125	414	0.3	413	414	15.8	81.0
2022-10-16T08:49	10	104	12.9	86	124	413	0.7	412	414	15.9	80.4
2022-10-16T08:50	10	127	6.0	116	136	416	0.7	414	417	16.1	81.1
2022-10-16T08:51	10	102	17.6	74	131	415	1.7	412	417	16.1	81.7
2022-10-16T08:52	10	87	16.9	60	108	413	2.1	409	415	16.0	80.6
2022-10-16T08:53	10	60	1.1	59	63	408	1.1	406	410	15.8	81.3
2022-10-16T08:54	10	85	11.3	62	104	409	0.9	407	410	15.6	81.3
2022-10-16T08:55	10	114	17.7	70	133	413	2.7	408	417	15.8	81.1
2022-10-16T08:56	10	78	11.0	59	105	412	1.8	410	417	15.9	81.1
2022-10-16T08:57	10	65	11.0	55	90	410	0.8	408	411	16.0	81.8
2022-10-16T08:58	10	69	19.1	48	103	410	1.8	406	413	15.9	81.2
2022-10-16T08:59	10	47	0.5	46	48	406	1.0	405	408	16.0	81.3
2022-10-16T09:00	10	62	11.3	48	97	406	0.5	406	408	15.8	78.7
2022-10-16T09:01	10	94	13.1	68	118	411	1.1	409	413	16.0	78.5
2022-10-16T09:02	10	71	5.2	55	78	411	0.3	410	411	16.1	78.7
2022-10-16T09:03	10	48	2.1	45	54	408	1.7	405	411	16.0	78.4
2022-10-16T09:04	10	44	2.3	41	49	406	0.4	405	407	15.9	78.4
2022-10-16T09:05	10	40	0.2	40	41	404	0.8	403	405	16.0	78.8
2022-10-16T09:06	10	40	0.2	39	40	403	0.6	402	404	16.0	79.9
2022-10-16T09:07	10	39	0.1	39	40	403	0.5	402	404	15.9	79.7
2022-10-16T09:08	10	41	0.8	40	42	402	0.4	402	403	15.8	78.7
2022-10-16T09:09	10	40	0.5	39	41	402	0.3	401	402	15.8	79.0
2022-10-16T09:10	10	45	3.4	40	50	401	0.4	401	402	15.8	79.3
2022-10-16T09:11	10	54	6.6	50	82	402	0.4	401	403	15.7	79.0
2022-10-16T09:12	10	121	16.2	85	140	408	4.0	402	415	15.8	79.2
2022-10-16T09:13	10	135	6.2	122	140	414	1.1	411	416	15.9	78.1
2022-10-16T09:14	10	136	1.2	134	138	417	0.6	416	418	16.2	80.0
2022-10-16T09:15	10	132	0.9	131	134	419	0.4	418	420	16.6	80.3
2022-10-16T09:16	10	130	0.2	130	131	420	0.7	418	421	16.5	78.7
2022-10-16T09:17	10	130	0.3	129	130	420	0.3	419	421	16.5	76.7
2022-10-16T09:18	10	129	0.4	128	129	420	0.2	419	420	16.3	75.1
2022-10-16T09:19	10	127	0.5	125	128	419	0.4	418	420	16.4	76.7
2022-10-16T09:20	10	126	0.5	125	127	419	0.9	417	420	16.5	77.5
2022-10-16T09:21	10	124	0.8	122	125	418	0.5	417	419	16.3	76.0
2022-10-16T09:22	10	121	0.6	120	122	419	0.5	418	420	16.4	77.2
2022-10-16T09:23	10	120	0.4	119	120	418	0.6	417	419	16.4	76.3
2022-10-16T09:24	10	119	0.2	118	119	418	0.5	417	419	16.5	76.7
2022-10-16T09:25	10	118	0.2	118	119	418	0.3	418	419	16.5	75.8
2022-10-16T09:26	10	118	0.1	118	119	418	0.4	417	419	16.5	75.2
2022-10-16T09:27	10	119	0.1	118	119	417	0.4	417	418	16.4	74.3
2022-10-16T09:28	10	119	0.2	118	119	417	0.6	416	418	16.4	74.2
2022-10-16T09:29	10	119	0.1	119	120	418	0.4	417	419	16.5	74.6
2022-10-16T09:30	10	119	0.1	119	120	418	0.4	418	419	16.5	74.1
2022-10-16T09:31	10	119	0.1	119	119	420	0.5	419	421	16.6	74.3
2022-10-16T09:32	10	119	0.1	119	120	420	0.4	419	421	16.6	74.1
2022-10-16T09:33	10	119	0.1	119	119	421	1.4	419	423	16.8	74.8
2022-10-16T09:34	10	120	0.1	119	120	422	0.7	421	423	16.7	74.3
2022-10-16T09:35	10	120	0.2	119	120	421	0.7	420	422	16.7	74.8
2022-10-16T09:36	10	120	0.1	120	121	421	0.4	420	421	16.8	75.1
2022-10-16T09:37	10	121	0.1	120	121	421	0.3	420	422	16.7	75.7
2022-10-16T09:38	10	121	0.4	121	122	422	0.7	421	423	16.8	75.4
2022-10-16T09:39	10	120	4.0	109	123	423	0.4	421	423	17.0	75.5
2022-10-16T09:40	10	116	5.2	105	124	422	0.9	421	424	16.9	74.6
2022-10-16T09:41	10	122	6.1	109	128	423	0.3	422	424	16.9	75.2
2022-10-16T09:42	10	120	7.6	103	129	421	1.2	420	423	16.7	74.2
2022-10-16T09:43	10	100	8.6	84	119	419	1.4	417	422	16.6	74.2
2022-10-16T09:44	10	98	7.6	82	110	420	0.9	418	421	17.0	75.0
2022-10-16T09:45	10	98	10.2	83	120	419	0.6	418	420	16.7	73.6
2022-10-16T09:46	10	109	7.6	100	123	421	1.0	419	422	16.7	74.5
2022-10-16T09:47	10	122	0.7	119	122	422	0.3	422	423	16.6	74.3
2022-10-16T09:48	10	121	0.3	121	122	422	0.3	422	423	16.8	73.9
2022-10-16T09:49	10	120	0.8	119	121	423	0.3	422	424	16.9	74.2
2022-10-16T09:50	10	119	2.2	115	122	422	1.4	420	425	16.8	74.5
2022-10-16T09:51	10	112	4.2	106	119	419	0.9	417	421	16.6	74.4
2022-10-16T09:52	10	121	0.4	120	121	419	0.4	419	420	16.7	74.3
2022-10-16T09:53	10	120	0.2	120	121	420	0.4	419	420	16.6	73.9
2022-10-16T09:54	10	120	0.2	120	120	422	1.1	419	424	16.7	74.4
2022-10-16T09:55	10	120	0.1	120	121	423	0.4	422	424	16.8	74.2
2022-10-16T09:56	10	121	0.1	120	121	424	0.7	422	425	16.9	74.3
2022-10-16T09:57	10	121	0.2	121	121	425	0.5	423	425	16.9	74.5
2022-10-16T09:58	10	121	0.1	121	122	425	0.3	424	425	16.9	74.8
2022-10-16T09:59	10	122	0.3	121	122	425	0.6	424	426	17.3	76.2
2022-10-16T10:00	10	122	0.3	121	122	424	0.9	423	426	17.0	74.0
2022-10-16T10:01	10	122	0.5	121	122	424	0.7	423	425	17.0	73.7
2022-10-16T10:02	10	122	0.1	122	122	424	0.3	423	425	17.1	73.6
2022-10-16T10:03	10	122	0.1	122	122	425	0.6	423	426	17.0	73.1
2022-10-16T10:04	10	122	0.1	122	123	425	0.5	424	426	17.2	73.0
2022-10-16T10:05	10	122	0.4	122	123	427	0.5	426	428	17.3	72.8
2022-10-16T10:06	10	123	0.5	122	124	426	0.4	426	427	17.0	72.6
2022-10-16T10:07	10	123	0.6	122	124	426	0.2	426	427	17.1	72.9
2022-10-16T10:08	10	120	2.0	116	122	427	0.6	426	428	17.3	73.5
2022-10-16T10:09	10	113	1.2	112	116	427	0.5	426	428	17.4	73.4
2022-10-16T10:10	10	116	1.9	113	122	427	0.5	426	428	17.4	72.2
2022-10-16T10:11	10	124	0.4	122	125	429	0.6	427	430	17.6	71.9
2022-10-16T10:12	10	124	0.2	124	125	429	0.7	427	430	17.6	72.5
2022-10-16T10:13	10	123	0.9	122	124	430	0.6	429	431	17.6	71.6
2022-10-16T10:14	10	124	0.6	122	125	430	0.5	429	431	17.7	71.8
2022-10-16T10:15	10	121	0.7	120	123	429	0.5	428	430	17.8	71.9
2022-10-16T10:16	10	118	2.1	115	122	430	0.7	428	431	17.7	72.9
2022-10-16T10:17	10	122	1.7	119	125	429	0.4	428	430	17.7	72.8
2022-10-16T10:18	10	125	0.4	124	126	429	0.3	428	430	17.7	72.8
2022-10-16T10:19	10	125	0.3	125	126	429	0.4	428	430	17.6	72.2
2022-10-16T10:20	10	125	0.5	124	125	430	0.3	429	430	17.6	72.5
2022-10-16T10:21	10	124	0.7	122	125	430	0.4	429	431	17.7	71.3
2022-10-16T10:22	10	120	1.7	118	123	430	0.3	429	431	17.8	71.6
2022-10-16T10:23	10	123	1.2	121	125	430	0.5	429	432	17.7	70.9
2022-10-16T10:24	10	124	0.2	124	125	430	0.3	430	431	17.8	72.1
2022-10-16T10:25	10	125	0.5	124	125	429	0.5	428	430	17.7	72.3
2022-10-16T10:26	10	125	0.6	125	126	430	1.2	428	432	17.9	72.5
2022-10-16T10:27	10	127	0.2	126	127	431	0.3	431	432	17.9	71.4
2022-10-16T10:28	10	127	0.1	127	127	432	0.3	432	433	17.8	71.3
2022-10-16T10:29	10	127	0.1	127	128	433	0.6	432	434	18.0	72.1
2022-10-16T10:30	10	127	0.4	126	128	431	0.9	430	433	18.0	72.9
2022-10-16T10:31	10	127	0.1	127	128	433	0.8	431	434	18.2	73.2
2022-10-16T10:32	10	127	0.4	126	128	432	1.2	430	434	18.2	72.5
2022-10-16T10:33	10	127	0.3	126	127	430	0.3	429	431	18.2	72.4
2022-10-16T10:34	10	127	0.4	127	128	431	0.4	429	431	18.3	72.3
2022-10-16T10:35	10	128	0.2	128	129	432	0.8	430	433	18.2	72.5
2022-10-16T10:36	10	127	0.7	126	129	432	0.5	431	433	18.3	72.5
2022-10-16T10:37	10	128	0.2	128	129	433	0.6	431	433	18.3	72.4
2022-10-16T10:38	10	128	0.3	127	129	433	0.3	432	433	18.5	72.8
2022-10-16T10:39	10	128	0.3	128	129	434	0.5	432	435	18.5	71.0
2022-10-16T10:40	10	129	0.3	128	130	435	0.7	433	437	18.4	70.6
2022-10-16T10:41	10	129	0.2	129	130	436	1.0	435	438	18.7	70.9
2022-10-16T10:42	10	130	0.2	129	130	438	0.5	436	439	18.9	70.6
2022-10-16T10:43	10	128	2.6	121	130	436	0.5	435	437	18.7	69.7
2022-10-16T10:44	10	126	5.4	117	131	436	0.6	435	437	18.8	68.5
2022-10-16T10:45	10	130	0.3	129	130	437	0.5	436	438	18.9	69.9
2022-10-16T10:46	10	130	0.2	129	130	437	0.2	436	437	18.9	70.0
2022-10-16T10:47	10	129	0.2	129	130	435	1.0	434	437	18.8	69.3
2022-10-16T10:48	10	129	0.2	129	130	434	0.4	433	435	18.6	68.0
2022-10-16T10:49	10	129	0.1	129	129	436	0.7	434	437	18.6	68.2
2022-10-16T10:50	10	129	0.1	128	129	437	0.9	435	438	18.6	68.7
2022-10-16T10:51	10	129	0.3	128	129	435	0.4	434	436	18.8	69.0
2022-10-16T10:52	10	128	0.3	127	128	434	0.4	433	435	18.7	68.3
2022-10-16T10:53	10	126	0.5	126	127	435	0.8	433	436	18.7	68.6
2022-10-16T10:54	10	126	0.3	125	126	434	0.8	433	436	18.6	68.4
2022-10-16T10:55	10	125	0.9	124	127	436	0.3	435	436	18.8	69.4
2022-10-16T10:56	10	123	0.6	122	125	436	0.5	435	437	18.8	69.4
2022-10-16T10:57	10	127	0.6	125	127	435	0.4	435	437	18.8	69.1
2022-10-16T10:58	10	128	0.4	127	128	435	0.6	434	436	18.8	68.6
2022-10-16T10:59	10	128	0.4	128	129	436	0.4	435	437	19.0	70.0
2022-10-16T11:00	10	128	0.7	125	129	436	0.5	435	437	18.8	68.8
2022-10-16T11:01	10	124	4.8	115	129	436	0.4	436	437	19.0	70.2
2022-10-16T11:02	10	129	0.3	129	130	437	0.8	436	439	19.0	69.2
2022-10-16T11:03	10	129	0.4	128	130	437	0.9	435	438	19.0	68.5
2022-10-16T11:04	10	129	0.6	128	130	437	1.2	435	439	19.1	68.3
2022-10-16T11:05	10	129	0.2	129	130	438	0.3	437	439	19.2	69.3
2022-10-16T11:06	10	129	0.2	129	130	437	0.4	436	438	19.4	69.6
2022-10-16T11:07	10	128	1.0	126	130	436	0.4	435	437	19.3	69.6
2022-10-16T11:08	10	125	0.9	124	127	436	0.8	434	437	19.3	70.2
2022-10-16T11:09	10	126	1.3	124	128	437	1.0	436	439	19.3	69.2
2022-10-16T11:10	10	128	1.2	126	129	437	0.7	435	438	19.3	70.0
2022-10-16T11:11	10	128	1.1	126	129	437	0.5	436	438	19.1	68.6
2022-10-16T11:12	10	129	0.6	128	130	437	0.6	435	438	19.0	68.0
2022-10-16T11:13	10	127	1.6	125	130	436	0.4	435	437	19.3	69.3
2022-10-16T11:14	10	126	1.3	124	128	437	0.6	436	439	19.4	70.1
2022-10-16T11:15	10	126	0.9	123	127	436	1.2	434	438	19.4	69.9
2022-10-16T11:16	10	118	2.2	115	123	435	0.3	434	435	19.2	68.9
2022-10-16T11:17	10	122	2.4	120	128	435	0.4	434	436	19.2	68.9
2022-10-16T11:18	10	128	0.6	126	128	437	0.9	435	438	19.3	69.4
2022-10-16T11:19	10	127	0.8	126	128	438	0.5	438	440	19.3	67.7
2022-10-16T11:20	10	127	0.8	125	128	436	1.3	434	438	19.2	67.8
2022-10-16T11:21	10	124	1.1	122	125	435	0.6	433	436	18.9	66.8
2022-10-16T11:22	10	123	0.4	122	123	436	0.5	435	437	19.0	67.0
2022-10-16T11:23	10	121	1.6	119	124	437	0.4	436	438	19.1	67.8
2022-10-16T11:24	10	122	0.5	121	123	435	0.7	434	437	19.0	66.6
2022-10-16T11:25	10	121	0.7	120	122	437	0.9	436	439	19.2	67.4
2022-10-16T11:26	10	121	0.6	120	123	438	0.4	437	439	19.3	67.3
2022-10-16T11:27	10	124	0.4	123	125	438	0.6	437	439	19.1	66.8
2022-10-16T11:28	10	123	1.0	121	124	438	1.2	436	440	19.4	68.7
2022-10-16T11:29	10	120	1.9	117	123	438	0.7	437	439	19.5	68.1
2022-10-16T11:30	10	125	0.6	124	126	439	0.6	438	440	19.7	68.7
2022-10-16T11:31	10	126	0.4	125	127	440	0.3	439	441	19.6	67.7
2022-10-16T11:32	10	126	1.0	124	128	439	0.7	438	441	19.8	67.4
2022-10-16T11:33	10	123	0.5	122	124	438	0.5	437	439	19.4	65.5
2022-10-16T11:34	10	121	3.4	116	125	439	0.3	438	439	19.5	66.4
2022-10-16T11:35	10	123	2.3	118	126	439	0.4	439	440	19.4	66.4
2022-10-16T11:36	10	124	0.6	123	125	438	0.3	437	439	19.4	66.1
2022-10-16T11:37	10	126	0.5	125	127	439	0.6	438	440	19.4	65.4
2022-10-16T11:38	10	127	0.7	126	128	441	0.9	439	442	19.5	65.8
2022-10-16T11:39	10	128	0.3	127	128	442	0.9	441	444	19.7	66.4
2022-10-16T11:40	10	128	0.5	126	128	441	0.9	439	443	19.8	66.2
2022-10-16T11:41	10	128	1.6	125	130	440	0.3	439	441	19.6	65.5
2022-10-16T11:42	10	130	0.5	128	131	442	0.6	441	443	19.8	65.3
2022-10-16T11:43	10	130	1.6	127	132	443	0.4	442	444	19.9	65.5
2022-10-16T11:44	10	129	0.6	129	131	442	0.8	440	443	20.0	65.5
2022-10-16T11:45	10	126	1.3	124	129	439	0.8	438	441	19.9	65.1
2022-10-16T11:46	10	125	1.0	122	126	440	0.5	439	441	19.9	64.8
2022-10-16T11:47	10	123	1.1	121	125	438	1.0	437	441	19.8	64.8
2022-10-16T11:48	10	123	0.8	121	125	439	0.9	438	441	19.8	64.5
2022-10-16T11:49	10	124	0.4	123	125	440	0.6	439	441	19.9	63.9
2022-10-16T11:50	10	124	0.7	122	125	442	0.6	441	443	20.1	64.4
2022-10-16T11:51	10	123	1.1	121	125	443	0.4	442	443	20.2	63.6
2022-10-16T11:52	10	121	2.0	117	124	442	0.8	441	444	20.2	62.6
2022-10-16T11:53	10	120	1.5	118	123	441	0.9	439	442	20.1	63.4
2022-10-16T11:54	10	118	1.4	116	120	440	0.3	439	440	20.1	63.2
2022-10-16T11:55	10	120	1.6	117	122	441	0.8	439	442	20.2	63.8
2022-10-16T11:56	10	121	1.5	118	123	441	0.2	440	441	20.1	62.5
2022-10-16T11:57	10	124	0.5	123	125	442	0.4	441	442	20.1	61.7
2022-10-16T11:58	10	123	1.1	120	124	441	0.8	440	443	20.2	62.3
2022-10-16T11:59	10	120	0.6	119	121	441	0.3	441	442	20.2	63.1
2022-10-16T12:00	10	119	0.5	118	120	441	0.3	440	442	20.2	62.6
2022-10-16T12:01	10	116	1.8	113	119	441	0.7	440	442	20.4	62.7
2022-10-16T12:02	10	116	1.6	113	119	441	1.0	439	443	20.5	60.6
2022-10-16T12:03	10	121	1.1	117	122	440	0.4	439	441	20.4	60.2
2022-10-16T12:04	10	120	2.1	116	123	441	0.5	440	442	20.5	61.8
2022-10-16T12:05	10	122	1.5	119	124	442	0.6	441	443	20.7	61.5
2022-10-16T12:06	10	119	1.9	116	121	443	0.5	442	444	21.0	60.8
2022-10-16T12:07	10	124	2.5	119	128	443	0.8	441	445	21.1	59.0
2022-10-16T12:08	10	127	0.4	127	128	443	0.3	442	443	21.0	57.6
2022-10-16T12:09	10	127	0.7	126	128	444	0.9	442	445	21.0	58.1
2022-10-16T12:10	10	127	0.9	126	128	444	0.9	442	445	21.0	57.8
2022-10-16T12:11	10	128	0.8	127	129	445	0.5	443	445	21.1	57.7
2022-10-16T12:12	10	129	0.3	128	129	445	0.5	444	446	21.1	57.6
2022-10-16T12:13	10	130	0.2	130	131	446	0.3	445	447	21.3	57.7
2022-10-16T12:14	10	128	1.6	126	130	446	0.3	445	447	21.4	57.9
2022-10-16T12:15	10	125	0.9	125	128	445	1.0	443	446	21.5	58.6
2022-10-16T12:16	10	124	0.6	123	125	443	0.7	441	444	21.7	53.5
2022-10-16T12:17	10	124	1.7	121	126	441	1.4	439	443	21.8	52.3
2022-10-16T12:18	10	124	1.0	122	125	443	0.8	441	445	22.1	51.6
2022-10-16T12:19	10	115	5.2	106	122	441	1.6	438	443	22.3	50.6
2022-10-16T12:20	10	111	8.5	97	122	437	0.7	435	439	22.2	48.0
2022-10-16T12:21	10	110	5.6	99	116	435	0.7	433	436	22.1	46.9
2022-10-16T12:22	10	117	1.6	113	119	436	0.3	435	437	22.1	47.5
2022-10-16T12:23	10	120	0.5	118	120	437	0.5	436	438	22.1	47.1
2022-10-16T12:24	10	120	1.1	118	122	436	0.5	435	437	22.0	45.6
2022-10-16T12:25	10	122	0.8	121	123	435	0.7	434	436	22.1	46.1
2022-10-16T12:26	10	121	0.7	119	122	436	0.6	435	437	22.2	47.1
2022-10-16T12:27	10	119	1.5	116	121	435	0.6	434	436	22.0	45.3
2022-10-16T12:28	10	122	0.7	121	123	436	0.6	435	437	22.0	45.8
2022-10-16T12:29	10	122	0.8	120	123	437	0.5	436	438	22.1	47.3
2022-10-16T12:30	10	119	1.2	115	120	436	0.4	435	437	22.1	46.7
2022-10-16T12:31	10	116	2.9	112	120	433	0.6	433	435	22.0	45.9
2022-10-16T12:32	10	124	1.4	120	126	432	0.7	431	434	22.0	45.7
2022-10-16T12:33	10	123	0.9	121	124	432	0.4	431	433	22.0	44.5
2022-10-16T12:34	10	126	1.3	123	127	434	1.3	432	436	22.0	45.2
2022-10-16T12:35	10	126	1.1	125	128	436	0.4	435	437	22.1	46.3
2022-10-16T12:36	10	121	2.8	116	126	434	0.8	433	436	22.0	46.0
2022-10-16T12:37	10	119	3.9	112	123	433	1.2	432	435	21.9	45.9
2022-10-16T12:38	10	124	1.0	122	126	435	0.9	433	437	22.0	47.0
2022-10-16T12:39	10	118	3.6	111	124	436	0.3	435	436	22.1	47.3
2022-10-16T12:40	10	114	3.1	109	118	435	0.4	434	436	22.1	47.4
2022-10-16T12:41	10	116	2.4	113	120	434	0.7	433	436	22.0	46.3
2022-10-16T12:42	10	116	1.9	113	119	433	0.3	433	434	22.0	46.2
2022-10-16T12:43	10	120	0.9	119	122	433	0.6	432	434	22.0	45.9
2022-10-16T12:44	10	121	0.5	120	122	434	0.7	433	435	22.1	46.8
2022-10-16T12:45	10	120	0.2	119	120	435	0.3	434	435	22.1	47.4
2022-10-16T12:46	10	121	0.5	120	122	435	0.8	433	436	22.1	46.4
2022-10-16T12:47	10	117	2.6	113	120	434	0.5	432	434	22.1	47.1
2022-10-16T12:48	10	119	2.4	115	122	434	0.4	433	435	22.1	47.0
2022-10-16T12:49	10	121	1.2	119	122	435	0.5	434	436	22.1	46.7
2022-10-16T12:50	10	119	0.8	118	121	435	0.5	434	436	22.0	45.9
2022-10-16T12:51	10	118	0.7	117	119	435	0.4	434	435	22.0	46.2
2022-10-16T12:52	10	118	0.6	117	119	434	0.5	433	435	22.0	45.9
2022-10-16T12:53	10	118	1.0	117	120	436	0.7	434	437	22.1	46.8
2022-10-16T12:54	10	112	2.3	110	117	433	1.1	431	436	22.1	45.4
2022-10-16T12:55	10	115	2.4	112	119	433	0.5	432	434	22.1	46.0
2022-10-16T12:56	10	117	0.4	116	118	433	0.2	433	434	22.0	45.9
2022-10-16T12:57	10	113	4.7	104	118	433	0.4	432	433	22.0	45.6
2022-10-16T12:58	10	106	1.9	102	108	432	0.6	431	433	22.0	46.3
2022-10-16T12:59	10	108	1.3	106	110	431	0.3	430	432	22.1	46.2
2022-10-16T13:00	10	113	3.0	105	116	432	1.0	430	433	22.1	46.0
2022-10-16T13:01	10	106	2.4	103	111	433	0.2	432	433	22.1	47.0
2022-10-16T13:02	10	115	1.4	111	117	432	0.5	431	433	22.0	46.2
2022-10-16T13:03	10	115	1.5	113	117	432	0.4	432	433	22.1	45.6
2022-10-16T13:04	10	118	1.3	115	120	432	0.5	431	433	22.0	45.0
2022-10-16T13:05	10	118	2.9	107	120	433	0.5	432	434	22.1	46.0
2022-10-16T13:06	10	112	4.5	103	117	435	1.3	433	437	22.2	47.3
2022-10-16T13:07	10	115	0.7	114	117	435	1.1	433	437	22.2	46.3
2022-10-16T13:08	10	118	0.8	117	119	433	0.4	432	434	22.1	46.3
2022-10-16T13:09	10	115	1.5	113	118	432	0.3	432	433	22.1	45.4
2022-10-16T13:10	10	111	3.1	107	115	433	0.3	432	434	22.1	46.8
2022-10-16T13:11	10	114	1.7	110	117	433	0.6	432	434	22.1	45.9
2022-10-16T13:12	10	100	6.1	90	110	431	1.0	430	433	22.1	46.0
2022-10-16T13:13	10	97	7.2	87	108	431	0.8	430	432	22.2	46.1
2022-10-16T13:14	10	111	1.5	108	113	434	0.8	432	435	22.2	46.4
2022-10-16T13:15	10	106	3.8	99	110	432	0.8	431	434	22.2	45.9
2022-10-16T13:16	10	111	0.5	109	112	435	0.8	433	436	22.3	46.4
2022-10-16T13:17	10	107	3.9	101	116	434	0.8	433	436	22.3	46.7
2022-10-16T13:18	10	118	2.1	113	120	434	0.7	433	435	22.3	46.0
2022-10-16T13:19	10	120	0.3	119	120	434	0.5	434	435	22.2	46.1
2022-10-16T13:20	10	117	0.6	116	119	434	0.3	433	435	22.2	45.7
2022-10-16T13:21	10	115	1.1	114	117	434	0.4	433	435	22.2	46.0
2022-10-16T13:22	10	116	0.7	114	116	435	0.6	434	437	22.3	46.4
2022-10-16T13:23	10	116	0.2	116	117	435	0.7	434	437	22.3	46.4
2022-10-16T13:24	10	116	0.3	115	116	435	0.7	434	436	22.4	46.0
2022-10-16T13:25	10	113	1.2	109	115	435	1.6	432	437	22.4	45.0
2022-10-16T13:26	10	101	4.3	94	109	432	0.3	432	433	22.3	44.6
2022-10-16T13:27	10	97	0.8	95	98	432	0.5	431	433	22.4	45.2
2022-10-16T13:28	10	101	5.2	95	109	432	0.4	432	433	22.4	45.7
2022-10-16T13:29	10	101	6.3	86	108	433	0.3	433	434	22.4	46.0
2022-10-16T13:30	10	94	5.9	85	100	433	0.5	432	434	22.5	46.9
2022-10-16T13:31	10	100	1.5	97	102	434	0.5	433	435	22.5	47.3
2022-10-16T13:32	10	98	1.8	95	100	433	1.3	431	436	22.5	46.8
2022-10-16T13:33	10	100	0.8	98	101	431	0.3	430	432	22.5	44.4
2022-10-16T13:34	10	97	1.8	94	99	430	0.5	429	431	22.4	43.9
2022-10-16T13:35	10	101	1.2	99	104	431	0.5	430	432	22.4	44.9
2022-10-16T13:36	10	100	6.3	88	106	430	0.9	428	432	22.4	44.1
2022-10-16T13:37	10	94	2.4	88	98	430	0.5	429	431	22.4	45.3
2022-10-16T13:38	10	99	1.3	97	101	431	0.4	430	432	22.4	45.9
2022-10-16T13:39	10	98	1.1	96	99	430	0.6	429	431	22.4	44.9
2022-10-16T13:40	10	100	1.9	97	104	431	0.6	429	432	22.5	44.9
2022-10-16T13:41	10	95	1.9	93	98	431	0.4	430	432	22.5	44.7
2022-10-16T13:42	10	94	3.9	84	97	431	0.4	430	431	22.5	43.5
2022-10-16T13:43	10	86	3.1	81	90	431	0.5	429	432	22.5	44.6
2022-10-16T13:44	10	88	4.4	82	95	431	0.8	430	432	22.5	45.7
2022-10-16T13:45	10	95	1.9	92	97	432	0.5	431	433	22.5	46.0
2022-10-16T13:46	10	104	5.5	92	109	432	1.0	431	434	22.5	46.2
2022-10-16T13:47	10	105	1.4	104	108	435	0.4	434	435	22.5	45.5
2022-10-16T13:48	10	108	0.4	107	108	434	0.6	433	435	22.6	46.1
2022-10-16T13:49	10	108	0.2	107	108	433	1.4	431	435	22.6	44.9
2022-10-16T13:50	10	108	0.5	107	109	431	0.8	430	433	22.6	42.8
2022-10-16T13:51	10	105	2.9	101	109	432	0.3	431	433	22.5	43.3
2022-10-16T13:52	10	99	1.5	97	101	432	1.0	431	434	22.6	44.2
2022-10-16T13:53	10	93	4.1	86	97	431	0.6	429	432	22.5	44.2
2022-10-16T13:54	10	95	2.5	88	97	431	0.7	430	432	22.5	44.2
2022-10-16T13:55	10	92	2.7	87	95	432	0.4	431	433	22.6	45.5
2022-10-16T13:56	10	91	4.5	86	100	430	0.5	429	431	22.6	44.9
2022-10-16T13:57	10	99	1.6	97	103	431	0.7	430	432	22.6	44.2
2022-10-16T13:58	10	100	2.3	94	103	430	0.3	430	431	22.5	43.9
2022-10-16T13:59	10	95	3.6	90	100	430	0.4	429	431	22.5	44.0
2022-10-16T14:00	10	100	1.9	97	103	431	1.0	430	433	22.5	44.6
2022-10-16T14:01	10	101	0.4	101	102	434	0.5	432	434	22.6	46.0
2022-10-16T14:02	10	103	0.3	102	103	434	0.3	433	434	22.7	45.5
2022-10-16T14:03	10	103	0.2	102	103	434	0.5	433	435	22.7	44.9
2022-10-16T14:04	10	102	0.3	101	102	433	1.0	432	435	22.6	44.8
2022-10-16T14:05	10	101	0.2	101	102	434	1.0	432	436	22.7	45.4
2022-10-16T14:06	10	101	0.1	101	101	435	0.3	434	436	22.7	47.0
2022-10-16T14:07	10	101	0.1	101	101	435	0.4	435	436	22.7	45.5
2022-10-16T14:08	10	101	0.3	100	101	436	1.1	434	438	22.8	46.0
2022-10-16T14:09	10	100	0.2	100	101	437	0.3	436	437	22.9	45.9
2022-10-16T14:10	10	100	0.2	99	100	435	1.1	434	437	22.9	45.6
2022-10-16T14:11	10	99	0.6	97	99	434	1.1	431	435	22.8	44.2
2022-10-16T14:12	10	97	0.9	95	98	433	0.4	432	434	22.8	44.6
2022-10-16T14:13	10	97	0.4	96	97	434	0.4	433	435	22.8	44.5
2022-10-16T14:14	10	96	0.3	95	97	435	0.3	434	435	22.8	44.8
2022-10-16T14:15	10	91	5.9	81	97	435	0.4	434	436	22.9	46.1
2022-10-16T14:16	10	88	4.1	82	95	434	0.5	433	435	23.0	46.8
2022-10-16T14:17	10	96	0.5	95	97	435	0.3	434	436	22.9	46.5
2022-10-16T14:18	10	96	0.8	94	97	435	0.8	434	436	22.8	44.5
2022-10-16T14:19	10	87	6.6	76	95	433	1.2	431	434	22.8	45.5
2022-10-16T14:20	10	93	1.3	90	95	432	0.5	431	433	22.8	44.9
2022-10-16T14:21	10	96	0.7	94	97	433	0.6	432	434	22.9	45.6
2022-10-16T14:22	10	81	4.2	78	93	433	0.4	432	433	22.8	45.0
2022-10-16T14:23	10	80	1.3	78	82	431	1.6	428	433	22.9	45.0
2022-10-16T14:24	10	79	1.0	77	81	429	0.6	427	430	22.8	44.7
2022-10-16T14:25	10	79	2.0	77	83	427	0.5	426	428	22.8	43.7
2022-10-16T14:26	10	85	1.0	83	86	428	0.6	427	429	22.8	44.1
2022-10-16T14:27	10	82	0.9	81	85	428	0.2	428	429	22.8	45.0
2022-10-16T14:28	10	74	5.3	68	82	428	1.1	425	429	22.8	45.9
2022-10-16T14:29	10	66	1.7	64	69	425	0.7	424	426	22.8	44.6
2022-10-16T14:30	10	63	5.0	53	68	424	0.5	423	425	22.8	45.2
2022-10-16T14:31	10	59	3.0	53	64	424	0.4	423	425	22.7	45.6
2022-10-16T14:32	10	74	6.7	64	85	425	1.2	423	427	22.7	44.4
2022-10-16T14:33	10	81	4.3	74	86	427	0.5	426	428	22.8	44.4
2022-10-16T14:34	10	65	6.7	54	74	426	1.5	423	428	22.7	44.7
2022-10-16T14:35	10	62	7.1	52	70	425	0.8	424	426	22.7	45.8
2022-10-16T14:36	10	66	1.1	65	70	425	0.5	425	426	22.7	46.4
2022-10-16T14:37	10	75	2.2	70	78	425	0.5	425	427	22.7	45.5
2022-10-16T14:38	10	71	1.0	70	74	426	0.8	424	427	22.7	45.3
2022-10-16T14:39	10	75	2.3	70	77	426	0.2	426	427	22.7	45.6
2022-10-16T14:40	10	78	0.7	76	79	426	0.3	426	427	22.7	45.4
2022-10-16T14:41	10	71	2.5	68	76	426	0.3	425	426	22.7	45.2
2022-10-16T14:42	10	73	2.9	68	76	426	0.4	426	427	22.8	45.5
2022-10-16T14:43	10	72	6.2	61	79	426	0.7	425	427	22.7	46.7
2022-10-16T14:44	10	68	4.6	61	75	425	0.8	424	427	22.7	46.9
2022-10-16T14:45	10	70	6.4	58	77	426	0.7	424	427	22.7	47.8
2022-10-16T14:46	10	65	4.9	57	71	425	0.2	424	425	22.7	47.1
2022-10-16T14:47	10	66	7.8	55	75	426	0.5	425	427	22.7	46.7
2022-10-16T14:48	10	66	5.8	56	75	425	0.6	424	426	22.7	46.6
2022-10-16T14:49	10	77	0.7	75	78	427	0.4	426	427	22.7	47.1
2022-10-16T14:50	10	73	1.8	70	76	426	0.4	426	428	22.8	46.8
2022-10-16T14:51	10	67	3.3	62	71	426	0.9	424	427	22.8	46.9
2022-10-16T14:52	10	59	3.1	53	62	424	1.2	422	426	22.8	47.0
2022-10-16T14:53	10	52	1.2	50	53	423	0.3	422	423	22.7	47.0
2022-10-16T14:54	10	49	1.0	48	51	423	0.7	422	424	22.6	47.8
2022-10-16T14:55	10	43	2.9	38	49	422	1.0	421	424	22.6	47.8
2022-10-16T14:56	10	37	1.1	36	39	420	0.5	419	421	22.6	48.0
2022-10-16T14:57	10	40	1.2	38	41	420	0.3	419	421	22.6	48.3
2022-10-16T14:58	10	43	2.2	41	48	420	0.5	419	420	22.5	48.5
2022-10-16T14:59	10	45	2.8	40	48	419	0.5	418	420	22.6	48.0
2022-10-16T15:00	10	37	1.2	35	39	418	0.3	418	419	22.5	48.7
2022-10-16T15:01	10	41	0.9	39	42	418	0.2	418	419	22.5	47.9
2022-10-16T15:02	10	45	2.7	41	48	418	0.8	417	420	22.5	47.6
2022-10-16T15:03	10	50	2.0	47	52	419	0.8	418	421	22.5	48.3
2022-10-16T15:04	10	47	1.4	46	51	420	0.2	419	420	22.5	48.1
2022-10-16T15:05	10	52	0.9	50	53	420	0.8	419	421	22.5	48.9
2022-10-16T15:06	10	49	1.1	48	51	420	0.2	420	421	22.4	49.6
2022-10-16T15:07	10	58	2.5	51	60	421	0.5	420	422	22.5	48.9
2022-10-16T15:08	10	59	1.3	57	61	422	0.3	421	422	22.6	47.5
2022-10-16T15:09	10	58	0.5	57	58	421	0.3	421	422	22.6	47.7
2022-10-16T15:10	10	58	0.2	58	58	421	0.5	420	422	22.5	48.4
2022-10-16T15:11	10	59	0.9	58	60	422	0.4	421	423	22.5	49.5
2022-10-16T15:12	10	58	2.1	53	60	422	1.0	420	423	22.6	48.6
2022-10-16T15:13	10	48	2.3	45	53	420	0.5	419	421	22.5	48.0
2022-10-16T15:14	10	43	0.9	42	45	419	0.7	418	420	22.6	48.4
2022-10-16T15:15	10	41	0.8	39	42	418	0.4	417	419	22.5	48.7
2022-10-16T15:16	10	39	0.3	39	40	417	0.5	416	418	22.5	48.3
2022-10-16T15:17	10	41	0.9	40	43	417	0.7	416	418	22.4	49.3
2022-10-16T15:18	10	43	0.2	43	44	417	0.3	417	418	22.5	49.2
2022-10-16T15:19	10	46	1.5	44	49	418	0.3	417	419	22.4	50.3
2022-10-16T15:20	10	53	2.2	49	56	419	0.7	418	420	22.4	50.0
2022-10-16T15:21	10	55	1.8	51	57	420	0.2	420	421	22.4	50.1
2022-10-16T15:22	10	51	0.7	50	53	420	0.2	420	421	22.4	49.4
2022-10-16T15:23	10	56	1.5	53	58	421	0.3	420	421	22.5	50.2
2022-10-16T15:24	10	61	1.4	58	63	421	0.3	421	422	22.5	50.5
2022-10-16T15:25	10	64	0.6	63	65	422	0.5	421	423	22.4	49.6
2022-10-16T15:26	10	65	0.2	64	65	421	0.3	420	422	22.3	49.9
2022-10-16T15:27	10	64	0.3	63	64	421	0.3	420	421	22.4	49.6
2022-10-16T15:28	10	63	0.2	63	63	421	0.4	420	422	22.5	49.9
2022-10-16T15:29	10	62	0.2	62	63	421	0.5	420	422	22.5	49.8
2022-10-16T15:30	10	62	0.2	61	62	420	0.7	419	421	22.4	49.7
2022-10-16T15:31	10	59	1.1	57	61	420	0.7	418	421	22.4	49.7
2022-10-16T15:32	10	54	1.7	51	57	419	0.4	418	420	22.5	49.3
2022-10-16T15:33	10	52	0.8	50	53	418	0.3	418	419	22.6	48.0
2022-10-16T15:34	10	45	2.8	41	50	418	0.4	417	418	22.5	48.9
2022-10-16T15:35	10	40	0.3	39	40	417	0.3	416	418	22.5	49.1
2022-10-16T15:36	10	38	0.4	38	39	416	0.2	416	417	22.6	48.5
2022-10-16T15:37	10	39	0.9	38	41	416	0.3	415	417	22.6	48.1
2022-10-16T15:38	10	39	1.3	36	41	416	0.2	416	416	22.6	48.5
2022-10-16T15:39	10	34	1.2	33	36	416	0.3	415	416	22.4	50.4
2022-10-16T15:40	10	33	0.2	32	33	415	0.2	415	416	22.5	49.5
2022-10-16T15:41	10	32	0.8	31	33	415	0.2	415	416	22.5	50.2
2022-10-16T15:42	10	32	1.3	30	34	415	0.2	414	415	22.3	50.3
2022-10-16T15:43	10	37	1.8	34	41	415	0.3	414	415	22.4	49.5
2022-10-16T15:44	10	42	0.6	41	43	415	0.3	414	415	22.3	50.5
2022-10-16T15:45	10	38	1.9	35	42	414	0.3	414	415	22.3	50.4
2022-10-16T15:46	10	36	0.9	35	38	414	0.3	413	414	22.3	50.2
2022-10-16T15:47	10	42	2.0	38	45	414	0.2	413	414	22.2	50.8
2022-10-16T15:48	10	45	0.8	43	46	414	0.2	413	415	22.3	50.7
2022-10-16T15:49	10	37	3.5	31	43	413	0.6	412	414	22.2	51.2
2022-10-16T15:50	10	27	1.4	25	31	412	0.6	411	413	22.0	52.3
2022-10-16T15:51	10	31	2.1	27	34	411	0.3	411	412	22.1	51.6
2022-10-16T15:52	10	31	2.7	26	34	411	0.3	411	412	22.2	50.5
2022-10-16T15:53	10	20	2.5	18	26	410	0.4	410	411	22.3	49.9
2022-10-16T15:54	10	23	2.9	19	28	409	0.2	409	410	22.2	50.5
2022-10-16T15:55	10	31	1.2	28	32	410	0.4	409	410	22.1	51.4
2022-10-16T15:56	10	32	0.5	31	33	410	0.3	409	410	22.1	51.1
2022-10-16T15:57	10	30	0.6	29	31	410	0.3	409	411	22.0	51.8
2022-10-16T15:58	10	28	0.6	27	29	409	0.4	409	410	22.2	50.2
2022-10-16T15:59	10	26	0.4	26	27	409	0.2	409	410	22.3	49.5
2022-10-16T16:00	10	27	0.9	26	29	408	0.4	407	409	22.1	50.5
2022-10-16T16:01	10	30	0.3	29	30	408	0.3	408	409	22.1	50.4
2022-10-16T16:02	10	27	1.9	23	29	408	0.4	407	408	22.1	50.2
2022-10-16T16:03	10	18	2.3	15	23	407	0.6	406	408	22.1	50.0
2022-10-16T16:04	10	14	0.5	13	15	406	0.2	405	406	22.1	50.2
2022-10-16T16:05	10	13	0.6	12	14	405	0.4	404	406	22.0	50.8
2022-10-16T16:06	10	10	1.1	8	12	404	0.2	404	405	21.8	51.7
2022-10-16T16:07	10	8	0.1	8	8	404	0.2	403	404	22.0	50.5
2022-10-16T16:08	10	8	0.2	8	9	403	0.2	402	404	22.1	50.0
2022-10-16T16:09	10	9	0.1	8	9	402	0.2	401	402	21.9	50.8
2022-10-16T16:10	10	8	0.2	8	8	401	0.3	400	402	21.8	51.9
2022-10-16T16:11	10	9	0.6	8	10	400	0.2	400	401	21.7	52.3
2022-10-16T16:12	10	10	0.4	10	11	400	0.3	399	401	21.6	52.9
2022-10-16T16:13	10	10	0.7	9	11	400	0.2	399	400	21.6	52.9
2022-10-16T16:14	10	7	0.6	6	9	400	0.2	399	400	21.6	52.8
2022-10-16T16:15	10	6	0.2	5	6	400	0.2	399	400	21.6	52.4
2022-10-16T16:16	10	5	0.2	5	6	400	0.2	399	400	21.6	52.4
2022-10-16T16:17	10	5	0.1	4	5	400	0.3	399	400	21.6	52.6
2022-10-16T16:18	10	4	0.1	4	5	399	0.3	399	400	21.4	53.1
2022-10-16T16:19	10	4	0.1	4	4	399	0.2	399	400	21.2	54.1
2022-10-16T16:20	10	4	0.2	3	4	399	0.3	398	400	21.2	53.9
2022-10-16T16:21	10	4	0.2	3	4	399	0.4	398	400	21.3	53.5
2022-10-16T16:22	10	3	0.1	3	4	399	0.2	399	400	21.2	53.5
2022-10-16T16:23	10	3	0.1	3	4	399	0.5	398	400	21.1	54.0
2022-10-16T16:24	10	3	0.2	3	3	399	0.3	398	399	21.2	53.6
2022-10-16T16:25	10	3	0.2	2	3	399	0.4	398	399	21.2	53.5
2022-10-16T16:26	10	3	0.2	2	3	399	0.3	398	399	21.2	53.4
2022-10-16T16:27	10	2	0.2	2	3	398	0.4	397	399	21.1	53.7
2022-10-16T16:28	10	2	0.2	2	3	398	0.3	397	398	21.1	53.7
2022-10-16T16:29	10	2	0.2	2	3	397	0.2	397	398	21.1	53.6
2022-10-16T16:30	10	3	0.3	2	3	397	0.3	396	398	21.0	53.9
2022-10-16T16:31	10	3	0.2	3	4	397	0.4	396	398	21.0	53.9
2022-10-16T16:32	10	3	0.2	2	4	397	0.3	397	398	21.0	54.0
2022-10-16T16:33	10	2	0.2	2	3	397	0.4	396	397	21.0	53.9
2022-10-16T16:34	10	2	0.2	2	2	396	0.3	396	397	20.8	54.5
2022-10-16T16:35	10	2	0.1	1	2	396	0.2	396	397	20.9	53.8
2022-10-16T16:36	10	2	0.1	1	2	396	0.2	395	396	20.9	53.9
2022-10-16T16:37	10	1	0.1	1	2	396	0.4	395	397	20.9	53.8
2022-10-16T16:38	10	1	0.1	1	2	396	0.3	395	396	20.9	54.0
2022-10-16T16:39	10	1	0.1	1	1	396	0.2	395	397	20.7	54.5
2022-10-16T16:40	10	1	0.1	0	1	396	0.2	396	397	20.8	54.2
2022-10-16T16:41	10	1	0.1	1	1	395	0.3	395	396	20.8	54.0
2022-10-16T16:42	10	1	0.1	0	1	394	0.3	394	395	20.9	53.6
2022-10-16T16:43	10	1	0.1	0	1	395	0.3	395	396	20.9	53.6
2022-10-16T16:44	10	0	0.1	0	1	396	0.6	395	397	21.0	53.3
2022-10-16T16:45	10	0	0.1	0	1	396	0.4	395	397	21.0	52.8
2022-10-16T16:46	10	0	0.1	0	1	396	0.3	395	396	20.8	54.0
2022-10-16T16:47	10	0	0.1	0	1	396	0.4	395	396	20.9	53.5
2022-10-16T16:48	10	0	0.1	0	0	396	0.5	395	396	20.9	53.7
2022-10-16T16:49	10	0	0.1	0	1	396	0.6	395	397	21.0	53.2
2022-10-16T16:50	10	0	0.1	0	0	397	0.3	396	397	21.0	53.0
2022-10-16T16:51	10	0	0.1	0	1	396	0.3	395	397	20.9	53.3
2022-10-16T16:52	10	0	0.1	0	0	396	0.7	394	397	20.9	53.3
2022-10-16T16:53	10	0	0.1	0	1	394	0.4	393	395	20.7	54.3
2022-10-16T16:54	10	0	0.1	0	1	393	0.4	392	394	20.5	54.7
2022-10-16T16:55	10	0	0.1	0	0	391	0.5	390	392	20.5	55.1
2022-10-16T16:56	10	0	0.1	0	0	391	0.2	390	391	20.3	55.8
2022-10-16T16:57	10	0	0.1	0	0	390	0.3	390	391	20.2	56.0
2022-10-16T16:58	10	0	0.1	0	0	389	0.3	389	390	20.1	56.2
2022-10-16T16:59	10	0	0.1	0	0	389	0.3	389	390	20.2	55.9
2022-10-16T17:00	10	0	0.1	0	0	389	0.3	388	390	20.3	55.6
2022-10-16T17:01	10	0	0.1	0	0	388	0.3	388	389	20.1	56.3
2022-10-16T17:02	10	0	0.1	0	0	389	0.3	388	389	20.3	56.1
2022-10-16T17:03	10	0	0.1	0	0	389	0.2	388	389	20.3	55.8
2022-10-16T17:04	10	0	0.1	0	0	388	0.3	387	389	20.3	55.9
2022-10-16T17:05	10	0	0.1	0	0	387	0.6	385	388	20.1	56.3
2022-10-16T17:06	10	0	0.1	0	0	386	0.3	386	387	20.0	56.9
2022-10-16T17:07	10	0	0.1	0	0	386	0.6	385	387	20.0	57.2
2022-10-16T17:08	10	0	0.1	0	0	387	0.3	386	388	19.8	57.8
2022-10-16T17:09	10	0	0.1	0	0	388	0.6	387	389	19.6	58.5
2022-10-16T17:10	10	0	0.1	-1	0	388	0.4	386	389	19.5	59.1
2022-10-16T17:11	10	0	0.1	-1	0	388	0.4	387	389	19.3	60.0
2022-10-16T17:12	10	-1	0.1	-1	0	387	0.3	387	388	19.0	61.2
2022-10-16T17:13	10	-1	0.1	-1	-1	387	0.5	385	387	19.0	61.8
2022-10-16T17:14	10	-1	0.1	-1	-1	386	0.4	386	387	18.8	63.2
2022-10-16T17:15	10	-1	0.1	-1	-1	387	0.3	387	388	19.1	62.3
2022-10-16T17:16	10	-1	0.1	-1	0	387	0.3	386	388	19.0	63.4
2022-10-16T17:17	10	-1	0.1	-1	0	387	0.3	387	388	19.0	64.1
2022-10-16T17:18	10	-1	0.2	-1	-1	388	0.3	387	389	19.4	62.9
2022-10-16T17:19	10	-1	0.2	-1	0	387	0.3	387	388	19.2	63.2
2022-10-16T17:20	10	-1	0.2	-1	0	387	0.2	386	387	19.1	63.7
2022-10-16T17:21	10	-1	0.1	-1	0	386	0.3	385	387	18.9	64.8
2022-10-16T17:22	10	-1	0.1	-1	0	385	0.3	385	386	19.0	64.6
2022-10-16T17:23	10	0	0.1	-1	0	385	0.4	385	386	19.2	63.5
2022-10-16T17:24	10	0	0.1	-1	0	385	0.3	384	385	19.2	63.3
2022-10-16T17:25	10	0	0.1	0	0	384	0.5	383	385	19.1	63.5
2022-10-16T17:26	10	0	0.1	-1	0	384	0.3	383	384	19.1	63.5
2022-10-16T17:27	10	0	0.1	0	0	383	0.3	383	384	19.2	62.6
2022-10-16T17:28	10	0	0.1	0	0	383	0.2	383	384	19.2	62.6
2022-10-16T17:29	10	0	0.1	0	0	383	0.3	382	383	19.0	63.1
2022-10-16T17:30	10	0	0.1	0	0	383	0.3	382	383	19.2	62.7
2022-10-16T17:31	10	0	0.1	0	0	383	0.5	381	384	19.3	61.9
2022-10-16T17:32	10	0	0.1	0	0	382	0.3	382	383	19.2	62.3
2022-10-16T17:33	10	0	0.1	0	0	382	0.3	381	383	19.3	62.0
2022-10-16T17:34	10	0	0.1	0	0	382	0.3	381	383	19.3	62.0
2022-10-16T17:35	10	0	0.1	0	0	382	0.4	381	383	19.3	61.7
2022-10-16T17:36	10	0	0.1	0	0	382	0.2	381	382	19.4	61.1
2022-10-16T17:37	10	0	0.1	0	0	382	0.5	381	383	19.4	61.5
2022-10-16T17:38	10	0	0.1	0	0	382	0.3	381	382	19.4	61.3
2022-10-16T17:39	10	0	0.1	0	1	381	0.3	381	382	19.4	61.2
2022-10-16T17:40	10	0	0.1	0	1	381	0.3	381	382	19.5	60.6
2022-10-16T17:41	10	0	0.1	0	0	382	0.8	381	384	19.7	59.4
2022-10-16T17:42	10	0	0.1	0	1	383	0.3	382	384	19.6	59.2
2022-10-16T17:43	10	0	0.1	0	1	383	0.3	383	384	19.7	59.4
2022-10-16T17:44	10	0	0.1	0	1	383	0.3	383	384	19.7	59.1
2022-10-16T17:45	10	0	0.1	0	1	383	0.3	383	384	19.5	59.9
2022-10-16T17:46	10	1	0.1	0	1	383	0.3	382	383	18.9	62.3
2022-10-16T17:47	10	1	0.1	0	1	383	0.2	382	383	18.4	65.0
2022-10-16T17:48	10	0	0.1	0	1	383	0.3	382	383	18.5	65.3
2022-10-16T17:49	10	0	0.1	0	1	383	0.2	382	384	18.6	64.7
2022-10-16T17:50	10	0	0.1	0	1	384	0.2	383	384	18.9	63.4
2022-10-16T17:51	10	0	0.1	0	1	384	0.2	383	384	18.9	63.1
2022-10-16T17:52	10	0	0.1	0	1	383	0.3	382	383	18.6	64.0
2022-10-16T17:53	10	0	0.1	0	1	382	0.3	382	383	18.4	65.1
2022-10-16T17:54	10	0	0.1	0	0	383	0.2	382	383	18.4	64.8
2022-10-16T17:55	10	0	0.1	0	0	382	0.2	382	383	18.1	66.0
2022-10-16T17:56	10	0	0.1	0	0	382	0.3	381	383	17.7	67.9
2022-10-16T17:57	10	0	0.1	0	0	382	0.3	382	383	17.9	67.2
2022-10-16T17:58	10	0	0.1	0	0	382	0.3	382	383	17.9	67.1
2022-10-16T17:59	10	0	0.1	0	0	383	0.3	382	383	18.2	66.0
2022-10-16T18:00	10	0	0.1	0	0	383	0.4	382	383	18.1	66.1
2022-10-16T18:01	10	0	0.1	0	0	383	0.5	382	384	18.3	65.4
2022-10-16T18:02	10	0	0.1	0	0	384	0.2	383	384	18.5	64.1
2022-10-16T18:03	10	0	0.1	0	0	384	0.3	383	385	18.6	63.8
2022-10-16T18:04	10	0	0.1	0	0	383	0.2	383	384	18.5	64.1
2022-10-16T18:05	10	0	0.1	0	0	383	0.2	383	384	18.5	63.9
2022-10-16T18:06	10	0	0.1	0	1	383	0.3	382	383	18.5	64.1
2022-10-16T18:07	10	0	0.2	0	1	382	0.3	381	383	18.5	63.6
2022-10-16T18:08	10	0	0.2	0	1	381	0.3	381	382	18.5	63.7
2022-10-16T18:09	10	0	0.1	0	0	381	0.2	381	382	18.3	64.2
2022-10-16T18:10	10	0	0.1	0	1	382	0.3	381	382	18.3	64.7
2022-10-16T18:11	10	0	0.2	0	1	382	0.3	381	383	18.3	64.3
2022-10-16T18:12	10	0	0.2	0	1	382	0.3	381	382	18.2	64.6
2022-10-16T18:13	10	0	0.2	0	1	382	0.3	381	382	18.1	64.9
2022-10-16T18:14	10	0	0.1	0	1	382	0.4	382	383	18.3	64.2
2022-10-16T18:15	10	0	0.2	0	1	383	0.3	382	383	18.3	64.0
2022-10-16T18:16	10	0	0.2	0	1	383	0.3	382	383	18.1	64.9
2022-10-16T18:17	10	0	0.2	0	1	383	0.3	382	384	18.1	64.7
2022-10-16T18:18	10	0	0.2	0	1	382	0.4	381	383	18.0	65.5
2022-10-16T18:19	10	0	0.1	0	1	382	0.2	381	382	17.9	66.5
2022-10-16T18:20	10	0	0.1	0	0	382	0.2	381	382	17.9	66.0
2022-10-16T18:21	10	0	0.1	0	0	382	0.3	381	382	18.1	65.8
2022-10-16T18:22	10	0	0.1	0	0	382	0.2	382	382	18.1	65.6
2022-10-16T18:23	10	0	0.1	0	1	382	0.3	381	382	17.9	65.9
2022-10-16T18:24	10	0	0.1	0	1	381	0.2	381	382	17.9	66.4
2022-10-16T18:25	10	0	0.1	0	1	381	0.3	380	382	17.9	66.2
2022-10-16T18:26	10	0	0.1	0	1	380	0.4	380	381	17.8	66.6
2022-10-16T18:27	10	0	0.1	0	1	379	0.4	378	380	17.6	67.3
2022-10-16T18:28	10	0	0.1	0	1	378	0.3	378	379	17.5	67.9
2022-10-16T18:29	10	0	0.1	0	1	378	0.4	377	379	17.5	67.9
2022-10-16T18:30	10	0	0.1	0	1	377	0.2	377	378	17.4	68.3
2022-10-16T18:31	10	0	0.1	0	0	377	0.2	376	377	17.3	68.9
2022-10-16T18:32	10	0	0.1	0	1	376	0.4	376	377	17.1	69.5
2022-10-16T18:33	10	0	0.1	0	0	376	0.2	375	376	17.1	70.0
2022-10-16T18:34	10	0	0.1	0	0	376	0.2	375	376	17.2	69.6
2022-10-16T18:35	10	0	0.1	0	0	376	0.2	375	377	17.2	69.4
2022-10-16T18:36	10	0	0.1	0	0	376	0.3	375	377	17.1	69.7
2022-10-16T18:37	10	0	0.1	0	0	376	0.2	375	377	17.1	70.0
2022-10-16T18:38	10	0	0.1	0	0	376	0.2	376	376	17.0	70.5
2022-10-16T18:39	10	0	0.1	0	0	376	0.3	376	377	17.1	70.3
2022-10-16T18:40	10	0	0.1	0	0	377	0.2	376	377	17.2	69.8
2022-10-16T18:41	10	0	0.1	0	0	377	0.2	376	377	17.2	69.6
2022-10-16T18:42	10	0	0.1	0	1	377	0.3	376	377	17.1	70.0
2022-10-16T18:43	10	0	0.1	0	0	377	0.3	376	378	17.1	70.0
2022-10-16T18:44	10	0	0.1	0	1	377	0.2	377	378	17.2	69.7
2022-10-16T18:45	10	0	0.1	0	0	377	0.2	377	378	17.1	69.7
2022-10-16T18:46	10	0	0.1	0	0	377	0.2	376	377	16.9	70.7
2022-10-16T18:47	10	0	0.1	0	0	377	0.3	376	377	16.9	71.0
2022-10-16T18:48	10	0	0.1	0	0	377	0.2	377	378	17.0	70.5
2022-10-16T18:49	10	0	0.1	0	0	377	0.2	376	377	17.1	70.2
2022-10-16T18:50	10	0	0.1	0	0	376	0.3	375	377	17.4	69.0
2022-10-16T18:51	10	0	0.1	0	0	376	0.3	375	377	17.3	68.8
2022-10-16T18:52	10	0	0.1	0	0	376	0.4	374	376	17.0	70.1
2022-10-16T18:53	10	0	0.1	0	0	375	0.4	374	376	16.3	73.1
2022-10-16T18:54	10	0	0.1	0	0	375	0.4	374	376	16.2	74.4
2022-10-16T18:55	10	1	0.1	1	1	374	0.3	374	375	16.4	73.7
2022-10-16T18:56	10	1	0.1	1	1	374	0.4	373	375	16.4	73.6
2022-10-16T18:57	10	1	0.1	1	1	374	0.5	374	375	16.1	74.8
2022-10-16T18:58	10	1	0.1	1	1	375	0.2	374	375	16.3	75.0
2022-10-16T18:59	10	1	0.1	1	1	374	0.2	374	375	16.3	74.3
2022-10-16T19:00	10	1	0.1	1	1	374	0.2	373	375	15.9	75.7
2022-10-16T19:01	10	1	0.1	1	1	374	0.3	374	375	16.0	75.9
2022-10-16T19:02	10	1	0.1	1	1	374	0.2	374	375	15.9	76.4
2022-10-16T19:03	10	1	0.1	1	1	374	0.3	373	374	15.7	77.3
2022-10-16T19:04	10	1	0.1	1	1	373	0.3	373	374	15.7	77.9
2022-10-16T19:05	10	1	0.1	1	1	373	0.2	372	373	15.8	77.7
2022-10-16T19:06	10	1	0.1	1	1	373	0.3	372	374	15.8	77.7
2022-10-16T19:07	10	1	0.1	0	1	373	0.4	373	374	16.0	76.6
2022-10-16T19:08	10	1	0.1	0	1	374	0.2	373	374	16.0	76.2
2022-10-16T19:09	10	1	0.1	0	1	374	0.3	373	375	16.0	76.0
2022-10-16T19:10	10	0	0.1	0	1	374	0.3	374	375	16.0	76.0
2022-10-16T19:11	10	0	0.1	0	1	374	0.3	373	375	16.0	76.3
2022-10-16T19:12	10	0	0.1	0	1	374	0.3	373	375	15.8	77.4
2022-10-16T19:13	10	0	0.1	0	1	374	0.3	373	375	15.6	78.2
2022-10-16T19:14	10	0	0.1	0	0	374	0.2	373	375	15.6	78.4
2022-10-16T19:15	10	0	0.0	0	0	375	0.4	374	375	15.7	78.6
2022-10-16T19:16	10	0	0.1	0	0	375	0.5	374	376	16.2	76.8
2022-10-16T19:17	10	0	0.1	0	1	375	0.3	375	376	16.5	74.1
2022-10-16T19:18	10	1	0.1	0	1	375	0.2	375	376	16.4	74.2
2022-10-16T19:19	10	1	0.1	1	1	375	0.2	374	375	16.2	74.8
2022-10-16T19:20	10	1	0.1	0	1	376	0.6	374	377	16.2	75.7
2022-10-16T19:21	10	1	0.1	0	1	376	0.3	375	377	16.7	74.3
2022-10-16T19:22	10	1	0.1	1	1	376	0.4	375	377	16.6	73.9
2022-10-16T19:23	10	1	0.1	0	1	376	0.3	375	376	16.5	74.1
2022-10-16T19:24	10	1	0.1	0	1	375	0.2	374	376	16.3	75.2
2022-10-16T19:25	10	1	0.1	0	1	375	0.2	374	375	16.2	75.6
2022-10-16T19:26	10	1	0.2	0	1	375	0.4	374	376	16.0	76.3
2022-10-16T19:27	10	1	0.2	0	1	375	0.3	374	376	16.0	76.8
2022-10-16T19:28	10	0	0.2	0	1	375	0.3	374	376	16.2	76.3
2022-10-16T19:29	10	1	0.1	0	1	375	0.4	374	376	16.0	76.6
2022-10-16T19:30	10	1	0.2	0	1	375	0.3	374	375	16.1	76.7
2022-10-16T19:31	10	1	0.2	0	1	374	0.3	373	375	15.9	77.0
2022-10-16T19:32	10	1	0.1	0	1	374	0.5	373	375	16.1	77.1
2022-10-16T19:33	10	0	0.2	0	1	374	0.4	373	375	16.1	76.4
2022-10-16T19:34	10	1	0.2	0	1	375	0.5	374	376	16.2	76.4
2022-10-16T19:35	10	1	0.2	0	1	375	0.2	374	375	16.3	75.7
2022-10-16T19:36	10	1	0.1	0	1	375	0.5	374	376	16.3	75.8
2022-10-16T19:37	10	1	0.1	0	1	375	0.4	374	376	16.1	75.9
2022-10-16T19:38	10	1	0.1	0	1	375	0.3	374	375	16.0	76.4
2022-10-16T19:39	10	1	0.2	0	1	375	0.2	374	375	16.0	76.3
2022-10-16T19:40	10	1	0.1	0	1	374	0.3	374	375	16.0	76.2
2022-10-16T19:41	10	0	0.1	0	1	374	0.2	373	374	16.0	76.3
2022-10-16T19:42	10	0	0.1	0	1	373	0.2	373	374	15.9	76.5
2022-10-16T19:43	10	0	0.1	0	1	374	0.4	373	375	15.9	77.2
2022-10-16T19:44	10	0	0.1	0	1	374	0.2	374	375	16.0	76.5
2022-10-16T19:45	10	0	0.1	0	1	374	0.3	374	375	16.0	76.6
2022-10-16T19:46	10	0	0.1	0	1	375	0.3	374	375	16.0	76.5
2022-10-16T19:47	10	0	0.1	0	1	374	0.3	374	375	15.9	76.7
2022-10-16T19:48	10	0	0.1	0	1	374	0.3	374	375	15.9	77.1
2022-10-16T19:49	10	0	0.1	0	1	375	0.2	374	375	16.0	76.8
2022-10-16T19:50	10	0	0.1	0	1	374	0.3	374	375	16.0	76.8
2022-10-16T19:51	10	0	0.1	0	1	374	0.2	373	375	15.9	76.8
2022-10-16T19:52	10	0	0.1	0	1	374	0.3	373	374	15.9	77.2
2022-10-16T19:53	10	0	0.1	0	1	374	0.5	373	375	15.9	77.3
2022-10-16T19:54	10	0	0.1	0	1	374	0.2	374	375	15.9	77.0
2022-10-16T19:55	10	0	0.1	0	1	375	0.3	374	375	15.8	77.1
2022-10-16T19:56	10	0	0.1	0	1	375	0.3	374	375	15.8	77.4
2022-10-16T19:57	10	0	0.1	0	0	374	0.3	374	375	15.7	77.8
2022-10-16T19:58	10	0	0.1	0	0	375	0.3	375	376	15.8	78.0
2022-10-16T19:59	10	0	0.1	0	0	375	0.3	375	376	15.9	77.4
2022-10-16T20:00	10	0	0.1	0	0	376	0.3	375	376	15.8	77.5
2022-10-16T20:01	10	0	0.0	0	0	376	0.3	375	376	15.8	77.8
2022-10-16T20:02	10	0	0.1	0	0	376	0.2	375	377	15.8	77.6
2022-10-16T20:03	10	0	0.1	0	0	376	0.2	375	376	15.8	77.8
2022-10-16T20:04	10	0	0.1	0	0	375	0.3	375	376	15.7	77.7
2022-10-16T20:05	10	0	0.1	0	0	375	0.2	374	375	15.7	78.3
2022-10-16T20:06	10	0	0.1	0	0	374	0.3	374	375	15.7	78.3
2022-10-16T20:07	10	0	0.1	0	0	374	0.5	373	375	15.6	78.5
2022-10-16T20:08	10	0	0.1	0	0	373	0.7	372	374	15.6	78.8
2022-10-16T20:09	10	0	0.1	0	0	371	0.3	371	372	15.4	79.1
2022-10-16T20:10	10	0	0.1	0	0	371	0.4	371	372	15.3	79.6
2022-10-16T20:11	10	0	0.1	0	0	371	0.2	371	372	15.2	80.1
2022-10-16T20:12	10	0	0.1	0	0	371	0.3	370	371	14.9	80.8
2022-10-16T20:13	10	1	0.1	0	1	371	0.3	370	372	14.7	82.2
2022-10-16T20:14	10	0	0.1	0	1	372	0.3	371	372	14.8	82.5
2022-10-16T20:15	10	0	0.1	0	1	372	0.2	372	373	15.0	81.8
2022-10-16T20:16	10	0	0.1	0	0	372	0.4	371	373	15.1	81.1
2022-10-16T20:17	10	0	0.1	0	0	372	0.4	371	373	15.1	80.9
2022-10-16T20:18	10	0	0.1	0	0	372	0.3	371	373	15.1	80.1
2022-10-16T20:19	10	0	0.1	0	0	372	0.3	372	373	14.7	82.4
2022-10-16T20:20	10	0	0.1	0	0	373	0.3	373	374	15.2	80.7
2022-10-16T20:21	10	0	0.1	0	0	373	0.4	372	374	15.5	78.9
2022-10-16T20:22	10	0	0.1	0	1	373	0.5	372	373	15.7	77.7
2022-10-16T20:23	10	0	0.1	0	1	371	0.4	371	372	15.3	78.7
2022-10-16T20:24	10	0	0.1	0	1	371	0.3	370	371	14.9	81.1
2022-10-16T20:25	10	0	0.1	0	1	371	0.3	370	371	14.7	82.4
2022-10-16T20:26	10	0	0.1	0	0	370	0.3	369	371	14.7	82.4
2022-10-16T20:27	10	0	0.1	0	1	370	0.2	369	370	14.4	83.8
2022-10-16T20:28	10	0	0.1	0	1	370	0.2	370	371	14.7	83.3
2022-10-16T20:29	10	0	0.1	0	1	370	0.3	369	370	15.2	81.1
2022-10-16T20:30	10	0	0.1	0	1	369	0.3	369	370	15.6	79.1
2022-10-16T20:31	10	1	0.1	0	1	369	0.4	368	369	15.4	78.9
2022-10-16T20:32	10	1	0.1	0	1	368	0.4	368	369	15.1	80.2
2022-10-16T20:33	10	1	0.1	1	1	368	0.2	368	369	15.4	79.9
2022-10-16T20:34	10	1	0.1	1	1	368	0.2	368	369	15.4	79.3
2022-10-16T20:35	10	1	0.1	1	1	368	0.3	367	369	15.3	79.6
2022-10-16T20:36	10	1	0.1	1	1	368	0.2	367	368	15.1	80.1
2022-10-16T20:37	10	1	0.1	1	1	368	0.3	367	369	14.9	81.2
2022-10-16T20:38	10	1	0.1	1	1	369	0.3	368	369	15.2	81.1
2022-10-16T20:39	10	1	0.1	1	1	369	0.2	368	369	15.4	79.8
2022-10-16T20:40	10	1	0.1	1	1	369	0.4	368	369	15.5	79.4
2022-10-16T20:41	10	1	0.1	1	1	368	0.2	368	369	15.4	79.4
2022-10-16T20:42	10	1	0.1	1	1	369	0.2	368	369	15.1	80.3
2022-10-16T20:43	10	1	0.1	1	1	369	0.2	368	369	14.6	81.9
2022-10-16T20:44	10	1	0.1	0	1	369	0.3	368	369	14.4	83.4
2022-10-16T20:45	10	0	0.1	0	1	369	0.4	369	370	14.6	83.4
2022-10-16T20:46	10	0	0.1	0	0	370	0.4	369	370	14.7	82.4
2022-10-16T20:47	10	0	0.1	0	0	369	0.2	369	370	14.5	82.6
2022-10-16T20:48	10	0	0.1	0	0	369	0.3	369	370	14.5	83.4
2022-10-16T20:49	10	0	0.1	0	0	370	0.5	369	371	14.7	83.2
2022-10-16T20:50	10	0	0.1	0	0	371	0.3	371	372	14.9	82.4
2022-10-16T20:51	10	0	0.1	0	0	372	0.3	371	372	14.9	81.9
2022-10-16T20:52	10	0	0.1	0	0	372	0.3	371	372	15.0	81.7
2022-10-16T20:53	10	0	0.1	0	0	371	0.5	370	372	14.9	81.6
2022-10-16T20:54	10	0	0.1	0	0	370	0.3	370	371	14.9	82.1
2022-10-16T20:55	10	0	0.1	0	0	369	0.3	369	370	15.1	81.3
2022-10-16T20:56	10	0	0.1	0	1	369	0.2	369	370	15.3	80.3
2022-10-16T20:57	10	0	0.1	0	1	370	0.4	369	371	14.9	81.1
2022-10-16T20:58	10	0	0.0	0	1	371	0.4	370	371	14.8	82.0
2022-10-16T20:59	10	0	0.1	0	1	371	0.3	370	372	14.7	82.3
2022-10-16T21:00	10	0	0.1	0	1	371	0.2	370	371	14.8	82.4
2022-10-16T21:01	10	0	0.1	0	1	371	0.3	370	371	14.7	82.5
2022-10-16T21:02	10	0	0.1	0	1	370	0.2	370	371	14.6	82.9
2022-10-16T21:03	10	1	0.1	0	1	370	0.3	369	371	14.6	83.3
2022-10-16T21:04	10	1	0.1	0	1	370	0.2	369	370	14.6	83.6
2022-10-16T21:05	10	1	0.1	0	1	369	0.2	369	370	14.7	83.0
2022-10-16T21:06	10	1	0.1	0	1	368	0.2	368	368	14.3	83.7
2022-10-16T21:07	10	1	0.1	0	1	368	0.2	367	368	14.3	84.6
2022-10-16T21:08	10	1	0.1	0	1	368	0.3	367	368	14.4	84.6
2022-10-16T21:09	10	1	0.1	0	1	368	0.2	367	368	14.4	84.3
2022-10-16T21:10	10	1	0.1	0	1	367	0.2	367	368	14.4	84.2
2022-10-16T21:11	10	0	0.1	0	1	367	0.2	367	368	14.3	84.6
2022-10-16T21:12	10	0	0.1	0	1	367	0.2	366	367	14.2	84.8
2022-10-16T21:13	10	0	0.1	0	1	367	0.2	366	367	14.2	85.2
2022-10-16T21:14	10	1	0.1	0	1	367	0.4	366	368	14.0	85.4
2022-10-16T21:15	10	1	0.1	0	1	368	0.4	367	369	14.0	86.2
2022-10-16T21:16	10	1	0.1	0	1	368	0.4	367	369	14.2	85.5
2022-10-16T21:17	10	1	0.2	0	1	369	0.3	368	369	14.4	84.8
2022-10-16T21:18	10	1	0.2	0	1	369	0.3	368	369	14.6	83.8
2022-10-16T21:19	10	1	0.2	0	2	368	0.2	368	369	14.7	83.0
2022-10-16T21:20	10	1	0.2	0	1	369	0.2	368	369	14.9	82.2
2022-10-16T21:21	10	1	0.1	0	1	369	0.3	368	369	14.9	81.9
2022-10-16T21:22	10	1	0.2	1	1	368	0.3	367	369	14.8	82.0
2022-10-16T21:23	10	1	0.1	1	1	368	0.3	367	368	14.7	82.1
2022-10-16T21:24	10	1	0.1	0	1	368	0.2	368	369	14.7	82.5
2022-10-16T21:25	10	1	0.1	0	1	368	0.2	368	369	14.8	82.1
2022-10-16T21:26	10	1	0.2	0	1	368	0.3	367	369	14.7	81.8
2022-10-16T21:27	10	1	0.1	1	1	368	0.2	367	368	14.6	82.2
2022-10-16T21:28	10	1	0.2	1	1					14.6	82.3
2022-10-16T21:29	10	1	0.2	1	2					14.2	82.9
2022-10-16T21:30	10	1	0.1	1	1	367	0.3	366	368	14.1	84.2
2022-10-16T21:31	10	1	0.1	0	1					14.0	84.6
2022-10-16T21:32	10	1	0.1	0	1					14.1	85.1
2022-10-16T21:33	10	1	0.2	0	1					13.9	85.2
2022-10-16T21:34	10	1	0.2	0	1					13.9	85.8
2022-10-16T21:35	10	1	0.1	0	1	366	0.2	365	367	13.9	86.0
2022-10-16T21:36	10	1	0.2	0	1					13.9	86.2
2022-10-16T21:37	10	1	0.2	0	1					13.9	86.2
2022-10-16T21:38	10	1	0.1	0	1	364	0.3	363	365	13.7	86.6
2022-10-16T21:39	10	1	0.2	0	1	364	0.4	364	365	13.6	87.3
2022-10-16T21:40	10	1	0.1	0	1	365	0.4	364	366	13.7	87.4
2022-10-16T21:41	10	1	0.1	0	1					13.6	87.2
2022-10-16T21:42	10	1	0.1	0	1					13.4	87.7
2022-10-16T21:43	10	1	0.2	0	1					13.4	88.4
2022-10-16T21:44	10	0	0.1	0	1	366	0.3	365	366	13.7	88.3
2022-10-16T21:45	10	0	0.1	0	1					13.7	87.8
2022-10-16T21:46	10	0	0.2	0	1					13.6	87.6
2022-10-16T21:47	10	0	0.1	0	1					13.1	88.3
2022-10-16T21:48	10	0	0.2	0	1	366	0.2	365	366	13.1	89.7
2022-10-16T21:49	10	0	0.1	0	0					13.3	89.1
2022-10-16T21:50	10	0	0.1	0	0					13.4	88.6
2022-10-16T21:51	10	0	0.1	0	0					13.5	88.3
2022-10-16T21:52	10	0	0.1	0	1	366	0.3	365	367	13.5	88.2
2022-10-16T21:53	10	0	0.1	0	1					13.6	88.0
2022-10-16T21:54	10	0	0.1	0	1	367	0.3	366	367	13.7	87.8
2022-10-16T21:55	10	0	0.0	0	1	367	0.2	366	367	13.7	87.6
2022-10-16T21:56	10	0	0.1	0	1					13.7	87.4
2022-10-16T21:57	10	1	0.1	0	1					13.8	87.3
2022-10-16T21:58	10	1	0.1	0	1					13.7	87.2
2022-10-16T21:59	10	1	0.1	0	1					13.6	87.6
2022-10-16T22:00	10	1	0.1	0	1					13.5	87.9
2022-10-16T22:01	10	1	0.1	0	1					13.4	88.3
2022-10-16T22:02	10	1	0.1	0	1					13.4	88.4
2022-10-16T22:03	10	1	0.1	0	1					13.3	88.7
2022-10-16T22:04	10	1	0.1	0	1					13.2	89.0
2022-10-16T22:05	10	1	0.1	0	1					13.2	89.2
2022-10-16T22:06	10	0	0.1	0	1					13.3	89.2
2022-10-16T22:07	10	0	0.1	0	1					13.4	89.0
2022-10-16T22:08	10	0	0.1	0	1					13.3	89.0
2022-10-16T22:09	10	0	0.1	0	1					13.3	89.1
2022-10-16T22:10	10	0	0.1	0	1					13.3	89.0
2022-10-16T22:11	10	0	0.1	0	1					13.3	89.0
2022-10-16T22:12	10	0	0.1	0	1					13.3	89.0
2022-10-16T22:13	10	0	0.1	0	1					13.3	89.1
2022-10-16T22:14	10	0	0.1	0	1					13.3	89.2
2022-10-16T22:15	10	0	0.1	0	1					13.3	88.9
2022-10-16T22:16	10	0	0.1	0	1					13.2	89.0
2022-10-16T22:17	10	1	0.1	0	1					13.2	89.3
2022-10-16T22:18	10	1	0.1	0	1	363	0.2	363	364	13.4	89.4
2022-10-16T22:19	10	1	0.1	0	1	363	0.3	363	364	13.7	88.7
2022-10-16T22:20	10	1	0.1	0	1	363	0.3	362	363	13.6	87.8
2022-10-16T22:21	10	0	0.1	0	1	363	0.2	362	363	13.7	88.0
2022-10-16T22:22	10	0	0.1	0	1	364	0.4	363	364	13.9	87.4
2022-10-16T22:23	10	0	0.1	0	1	364	0.2	363	364	13.9	87.0
2022-10-16T22:24	10	1	0.1	0	1	363	0.2	363	364	13.8	87.0
2022-10-16T22:25	10	1	0.1	0	1	363	0.6	361	364	13.5	87.1
2022-10-16T22:26	10	0	0.1	0	1	362	0.2	362	363	13.2	87.8
2022-10-16T22:27	10	0	0.1	0	1	363	0.2	362	363	13.1	88.7
2022-10-16T22:28	10	0	0.1	0	0	362	0.3	362	363	12.9	89.1
2022-10-16T22:29	10	0	0.1	0	0	362	0.2	362	362	12.9	89.6
2022-10-16T22:30	10	0	0.1	0	0	362	0.2	362	363	13.0	89.9
2022-10-16T22:31	10	0	0.1	0	1	362	0.2	362	362	13.0	89.9
2022-10-16T22:32	10	0	0.1	0	1	362	0.2	362	363	13.0	90.1
2022-10-16T22:33	10	0	0.1	0	1	362	0.2	361	362	13.0	90.2
2022-10-16T22:34	10	0	0.1	0	1	361	0.3	360	362	13.0	90.2
2022-10-16T22:35	10	0	0.1	0	1	361	0.3	360	361	12.8	90.3
2022-10-16T22:36	10	0	0.1	0	1	361	0.2	360	361	12.8	90.9
2022-10-16T22:37	10	0	0.1	0	1	361	0.2	360	361	12.8	91.1
2022-10-16T22:38	10	0	0.1	0	1	361	0.3	360	361	13.0	91.2
2022-10-16T22:39	10	0	0.1	0	1	361	0.2	360	361	13.1	90.4
2022-10-16T22:40	10	0	0.1	0	1	361	0.2	360	361	13.1	90.1
2022-10-16T22:41	10	0	0.1	0	1	360	0.3	360	361	13.1	90.1
2022-10-16T22:42	10	0	0.1	0	1	361	0.3	360	361	13.2	89.9
2022-10-16T22:43	10	0	0.1	0	1	361	0.3	361	362	13.3	89.5
2022-10-16T22:44	10	0	0.1	0	1	361	0.2	360	361	13.2	89.3
2022-10-16T22:45	10	0	0.1	0	1	361	0.3	360	362	12.9	90.0
2022-10-16T22:46	10	0	0.1	0	1	361	0.3	360	361	12.8	91.1
2022-10-16T22:47	10	0	0.1	0	1	361	0.7	360	362	12.7	91.8
2022-10-16T22:48	10	0	0.1	0	0	362	0.3	362	363	13.6	90.2
2022-10-16T22:49	10	0	0.1	0	0	363	0.4	362	364	13.9	87.2
2022-10-16T22:50	10	0	0.1	0	0	363	0.3	363	364	14.0	85.6
2022-10-16T22:51	10	0	0.1	0	0	364	0.2	363	364	14.1	84.8
2022-10-16T22:52	10	0	0.1	0	1	364	0.2	363	364	14.2	84.2
2022-10-16T22:53	10	1	0.1	0	1	363	0.6	362	364	14.1	84.3
2022-10-16T22:54	10	1	0.1	0	1	361	0.9	360	363	13.6	84.7
2022-10-16T22:55	10	1	0.1	0	1	361	0.8	360	362	12.7	87.0
2022-10-16T22:56	10	0	0.1	0	0	362	0.3	361	363	13.0	88.6
2022-10-16T22:57	10	0	0.1	0	0	363	0.5	362	364	13.3	88.7
2022-10-16T22:58	10	0	0.1	0	0	364	0.2	363	364	13.5	87.8
2022-10-16T22:59	10	0	0.1	0	0	363	0.2	363	364	13.7	87.3
2022-10-16T23:00	10	0	0.1	0	1	363	0.5	361	363	13.9	86.7
2022-10-16T23:01	10	0	0.1	0	1	362	0.2	361	362	13.7	86.5
2022-10-16T23:02	10	1	0.1	0	1	361	0.8	359	362	13.6	87.3
2022-10-16T23:03	10	1	0.1	0	1	361	0.4	360	362	13.2	87.2
2022-10-16T23:04	10	1	0.1	0	1	361	0.2	361	362	13.0	88.6
2022-10-16T23:05	10	0	0.1	0	1	362	0.4	361	362	12.9	89.7
2022-10-16T23:06	10	0	0.1	0	0	361	0.2	361	362	13.0	90.0
2022-10-16T23:07	10	0	0.1	0	0	361	0.3	361	362	13.0	90.2
2022-10-16T23:08	10	0	0.1	0	0	361	0.3	360	362	13.0	90.3
2022-10-16T23:09	10	0	0.1	0	0	361	0.2	360	361	13.0	90.4
2022-10-16T23:10	10	0	0.1	0	0	361	0.2	360	361	13.0	90.4
2022-10-16T23:11	10	0	0.1	0	0	360	0.2	360	361	13.0	90.2
2022-10-16T23:12	10	0	0.1	0	0	360	0.3	359	360	12.9	90.3
2022-10-16T23:13	10	0	0.1	0	0	360	0.2	359	360	12.9	90.5
2022-10-16T23:14	10	0	0.1	0	0	360	0.2	359	360	13.0	90.6
2022-10-16T23:15	10	0	0.1	0	0	360	0.2	359	360	13.0	90.6
2022-10-16T23:16	10	0	0.1	0	0	360	0.2	359	360	13.1	90.4
2022-10-16T23:17	10	0	0.0	0	0	360	0.2	359	360	13.2	90.0
2022-10-16T23:18	10	0	0.1	0	0	360	0.2	359	360	13.0	89.9
2022-10-16T23:19	10	0	0.1	0	0	360	0.2	359	360	13.0	90.3
2022-10-16T23:20	10	0	0.1	0	1	360	0.2	360	361	13.2	90.2
2022-10-16T23:21	10	0	0.1	0	1	360	0.2	359	360	13.2	89.7
2022-10-16T23:22	10	0	0.1	0	1	359	0.3	359	360	13.1	89.6
2022-10-16T23:23	10	0	0.1	0	1	359	0.3	358	360	13.0	89.9
2022-10-16T23:24	10	0	0.1	0	1	358	0.7	357	359	13.1	90.0
2022-10-16T23:25	10	0	0.1	0	1	358	0.4	358	359	12.6	89.9
2022-10-16T23:26	10	0	0.1	0	1	358	0.4	357	359	12.4	90.9
2022-10-16T23:27	10	0	0.1	0	0	358	0.3	357	359	12.2	91.3
2022-10-16T23:28	10	0	0.1	0	0	358	0.3	357	358	12.1	91.7
2022-10-16T23:29	10	0	0.1	0	0	358	0.2	357	358	12.2	92.0
2022-10-16T23:30	10	0	0.1	0	0	357	0.4	356	358	12.1	92.4
2022-10-16T23:31	10	0	0.1	0	0	358	0.5	357	358	12.1	92.8
2022-10-16T23:32	10	0	0.1	0	0	358	0.2	358	359	12.2	92.9
2022-10-16T23:33	10	0	0.1	0	0	358	0.2	358	359	12.2	92.8
2022-10-16T23:34	10	0	0.1	0	0	358	0.2	357	358	12.2	92.7
2022-10-16T23:35	10	0	0.1	0	0	358	0.3	357	358	12.3	92.8
2022-10-16T23:36	10	0	0.1	0	0	357	0.2	357	358	12.4	92.8
2022-10-16T23:37	10	0	0.1	0	0	358	0.2	357	358	12.2	92.4
2022-10-16T23:38	10	0	0.1	0	0	358	0.3	357	358	12.3	92.8
2022-10-16T23:39	10	0	0.1	0	0	359	0.4	358	360	12.5	93.0
2022-10-16T23:40	10	0	0.1	0	0	359	0.2	359	360	12.7	92.4
2022-10-16T23:41	10	0	0.1	0	0	359	0.2	359	360	12.6	91.8
2022-10-16T23:42	10	0	0.1	0	0	359	0.2	359	360	12.5	91.6
2022-10-16T23:43	10	0	0.1	0	0	359	0.2	359	360	12.6	91.7
2022-10-16T23:44	10	0	0.1	0	0	359	0.5	358	360	12.8	91.7
2022-10-16T23:45	10	0	0.1	-1	0	359	0.5	358	360	12.8	91.3
2022-10-16T23:46	10	0	0.1	-1	0	360	0.6	359	361	12.6	91.2
2022-10-16T23:47	10	-1	0.1	-1	0	360	0.3	360	361	12.6	91.4
2022-10-16T23:48	10	-1	0.1	-1	0	360	0.3	359	361	12.4	91.2
2022-10-16T23:49	10	-1	0.1	-1	-1	360	0.3	360	361	12.3	91.8
2022-10-16T23:50	10	-1	0.1	-1	-1	361	0.3	360	362	12.4	92.0
2022-10-16T23:51	10	-1	0.1	-1	-1	361	0.3	360	362	12.0	91.5
2022-10-16T23:52	10	-1	0.1	-1	-1	361	0.2	361	362	11.8	92.9
2022-10-16T23:53	10	-1	0.1	-1	-1	361	0.4	361	362	11.7	93.2
2022-10-16T23:54	10	-1	0.1	-2	-1	362	0.2	361	362	11.6	93.5
2022-10-16T23:55	10	-1	0.1	-2	-1	361	0.3	361	362	11.8	94.1
2022-10-16T23:56	10	-1	0.1	-2	-1	361	0.3	361	362	11.9	94.1
2022-10-16T23:57	10	-1	0.1	-2	-1	361	0.2	360	361	11.6	93.7
2022-10-16T23:58	10	-1	0.1	-2	-1	360	0.3	360	361	11.7	94.3
2022-10-16T23:59	10	-1	0.1	-1	-1	360	0.2	360	360	11.7	94.2
2022-10-17T00:00	10	-1	0.1	-1	-1	360	0.3	360	361	12.0	94.3
2022-10-17T00:01	10	-1	0.1	-1	-1	360	0.2	360	361	12.2	93.4
2022-10-17T00:02	10	-1	0.1	-1	-1	360	0.2	360	361	12.2	92.5
2022-10-17T00:03	10	-1	0.1	-1	-1	360	0.2	359	361	12.4	92.5
2022-10-17T00:04	10	-1	0.1	-1	0	360	0.3	359	360	12.7	91.4
2022-10-17T00:05	10	-1	0.1	-1	0	360	0.4	359	361	12.7	90.7
2022-10-17T00:06	10	0	0.1	-1	0	360	0.6	358	361	12.8	90.5
2022-10-17T00:07	10	0	0.1	0	0	358	0.5	357	359	12.1	89.8
2022-10-17T00:08	10	0	0.1	0	0	359	0.4	358	360	11.8	91.7
2022-10-17T00:09	10	0	0.2	0	0	358	0.6	357	360	12.2	92.6
2022-10-17T00:10	10	0	0.2	0	1	358	0.4	357	359	12.0	92.2
2022-10-17T00:11	10	0	0.1	0	1	358	0.3	357	358	12.2	92.6
2022-10-17T00:12	10	0	0.2	0	0	357	0.5	356	358	11.9	92.2
2022-10-17T00:13	10	0	0.1	0	0	358	0.3	358	359	11.9	93.0
2022-10-17T00:14	10	0	0.2	-1	0	359	0.2	358	359	12.2	93.0
2022-10-17T00:15	10	-1	0.1	-1	0	359	0.2	358	359	12.3	92.5
2022-10-17T00:16	10	-1	0.1	-1	0	358	0.5	357	359	12.4	92.1
2022-10-17T00:17	10	-1	0.2	-1	0	358	0.3	357	358	12.3	91.7
2022-10-17T00:18	10	-1	0.1	-1	0	357	0.4	357	358	12.4	91.8
2022-10-17T00:19	10	0	0.1	-1	0	357	0.2	357	358	12.6	91.8
2022-10-17T00:20	10	0	0.1	-1	0	358	0.3	356	358	13.0	90.8
2022-10-17T00:21	10	0	0.1	-1	0	358	0.3	357	358	13.1	89.8
2022-10-17T00:22	10	0	0.2	-1	0	358	0.5	357	359	12.9	89.6
2022-10-17T00:23	10	0	0.1	-1	0	359	0.3	359	360	12.9	89.8
2022-10-17T00:24	10	0	0.1	-1	0	359	0.3	359	360	12.6	90.0
2022-10-17T00:25	10	0	0.2	-1	0	359	0.3	358	360	12.4	90.6
2022-10-17T00:26	10	0	0.1	-1	0	358	0.2	358	359	12.3	91.4
2022-10-17T00:27	10	0	0.1	-1	0	358	0.3	358	359	12.3	91.9
2022-10-17T00:28	10	-1	0.1	-1	0	358	0.5	357	359	12.3	92.1
2022-10-17T00:29	10	-1	0.1	-1	0	358	0.3	357	359	12.2	92.2
2022-10-17T00:30	10	-1	0.2	-1	0	358	0.2	358	359	12.3	92.2
2022-10-17T00:31	10	-1	0.1	-1	-1	358	0.2	357	359	12.4	92.0
2022-10-17T00:32	10	-1	0.1	-1	0	358	0.5	357	359	12.3	91.8
2022-10-17T00:33	10	-1	0.1	-1	-1	360	0.3	359	360	12.3	92.1
2022-10-17T00:34	10	-1	0.1	-1	-1	359	0.3	358	359	12.3	92.0
2022-10-17T00:35	10	-1	0.1	-1	-1	358	0.2	358	359	12.4	92.1
2022-10-17T00:36	10	-1	0.1	-1	-1	358	0.3	357	358	12.3	91.8
2022-10-17T00:37	10	-1	0.1	-1	-1	358	0.3	357	358	12.3	91.8
2022-10-17T00:38	10	-1	0.1	-1	-1	358	0.4	357	358	12.3	91.9
2022-10-17T00:39	10	-1	0.1	-1	-1	357	0.2	357	358	12.2	91.8
2022-10-17T00:40	10	-1	0.1	-1	-1	357	0.2	357	358	12.1	91.8
2022-10-17T00:41	10	-1	0.1	-1	-1	357	0.2	357	358	12.0	91.9
2022-10-17T00:42	10	-1	0.1	-1	-1	357	0.4	356	358	12.0	91.8
2022-10-17T00:43	10	-1	0.1	-1	-1	356	0.2	355	357	12.0	91.7
2022-10-17T00:44	10	-1	0.1	-1	-1	356	0.2	356	357	12.0	91.8
2022-10-17T00:45	10	-1	0.1	-1	0	356	0.3	355	356	12.0	91.9
2022-10-17T00:46	10	-1	0.1	-1	0	355	0.4	355	356	12.1	91.9
2022-10-17T00:47	10	-1	0.1	-1	0	355	0.2	355	356	12.2	92.1
2022-10-17T00:48	10	-1	0.1	-1	0	354	0.2	354	355	12.0	91.9
2022-10-17T00:49	10	0	0.2	-1	0	354	0.3	354	355	11.7	92.0
2022-10-17T00:50	10	0	0.1	-1	0	354	0.2	354	354	11.6	92.5
2022-10-17T00:51	10	0	0.1	0	0	354	0.2	353	354	11.6	93.1
2022-10-17T00:52	10	0	0.1	0	0	354	0.3	353	355	11.6	93.1
2022-10-17T00:53	10	0	0.1	0	0	354	0.3	353	355	11.8	93.2
2022-10-17T00:54	10	0	0.1	0	0	354	0.4	353	355	11.9	93.0
2022-10-17T00:55	10	0	0.1	0	0	354	0.6	353	355	12.0	92.5
2022-10-17T00:56	10	0	0.1	0	0	354	0.3	354	355	11.9	92.1
2022-10-17T00:57	10	0	0.1	0	0	354	0.2	354	355	11.8	91.9
2022-10-17T00:58	10	0	0.1	0	0	355	0.2	354	355	11.7	91.9
2022-10-17T00:59	10	0	0.1	0	0	354	0.2	354	355	11.6	92.2
2022-10-17T01:00	10	0	0.1	0	0	354	0.2	354	355	11.6	92.4
2022-10-17T01:01	10	0	0.1	0	0	354	0.2	353	354	11.5	92.7
2022-10-17T01:02	10	0	0.1	0	0	354	0.4	353	355	11.5	92.9
2022-10-17T01:03	10	0	0.1	0	0	355	0.3	354	355	11.4	93.1
2022-10-17T01:04	10	0	0.1	-1	0	356	0.3	355	356	11.3	93.7
2022-10-17T01:05	10	0	0.1	-1	0	356	0.2	355	356	11.4	94.4
2022-10-17T01:06	10	-1	0.1	-1	0	355	0.2	355	356	11.3	94.7
2022-10-17T01:07	10	0	0.1	-1	0	355	0.2	355	355	11.3	94.9
2022-10-17T01:08	10	0	0.1	-1	0	355	0.3	354	355	11.1	95.1
2022-10-17T01:09	10	0	0.1	-1	0	356	0.2	355	356	11.2	95.4
2022-10-17T01:10	10	0	0.1	-1	0	356	0.3	355	356	11.4	95.6
2022-10-17T01:11	10	0	0.1	-1	0	356	0.2	355	356	11.7	95.4
2022-10-17T01:12	10	0	0.1	-1	0	356	0.2	355	356	11.6	94.7
2022-10-17T01:13	10	0	0.1	0	0	356	0.3	355	356	11.5	94.3
2022-10-17T01:14	10	0	0.1	0	0	356	0.2	355	356	11.3	94.3
2022-10-17T01:15	10	0	0.1	0	0	355	0.3	355	356	11.3	94.8
2022-10-17T01:16	10	0	0.1	-1	0	355	0.2	354	355	11.6	94.6
2022-10-17T01:17	10	0	0.1	0	0	355	0.2	354	355	11.5	93.6
2022-10-17T01:18	10	0	0.1	0	0	354	0.2	354	355	11.3	93.5
2022-10-17T01:19	10	0	0.1	0	0	355	0.3	355	356	11.4	94.1
2022-10-17T01:20	10	0	0.1	0	0	356	0.4	355	357	11.6	94.2
2022-10-17T01:21	10	0	0.1	0	0	357	0.2	356	357	11.7	93.8
2022-10-17T01:22	10	0	0.1	0	0	356	0.4	355	357	11.5	93.0
2022-10-17T01:23	10	0	0.0	0	0	356	0.3	355	356	11.5	93.2
2022-10-17T01:24	10	0	0.1	0	0	356	0.3	356	357	11.7	93.6
2022-10-17T01:25	10	0	0.0	0	0	357	0.4	357	358	12.2	93.8
2022-10-17T01:26	10	0	0.1	0	0	357	0.5	356	358	12.4	93.0
2022-10-17T01:27	10	0	0.1	0	0	356	0.5	355	357	12.3	91.9
2022-10-17T01:28	10	0	0.1	0	0	355	0.3	355	356	11.8	91.6
2022-10-17T01:29	10	0	0.1	0	0	355	0.4	354	355	11.6	92.1
2022-10-17T01:30	10	0	0.1	0	0	354	0.3	354	355	11.5	92.4
2022-10-17T01:31	10	0	0.1	0	0	354	0.2	353	354	11.2	92.5
2022-10-17T01:32	10	0	0.1	0	0	354	0.3	353	354	11.4	93.3
2022-10-17T01:33	10	0	0.1	0	0	353	0.3	353	354	11.4	93.4
2022-10-17T01:34	10	0	0.1	0	0	353	0.3	353	354	11.3	93.5
2022-10-17T01:35	10	0	0.1	0	0	353	0.2	353	354	11.2	93.7
2022-10-17T01:36	10	0	0.1	0	0	354	0.3	353	355	11.1	93.9
2022-10-17T01:37	10	0	0.1	-1	0	354	0.2	353	354	10.9	94.3
2022-10-17T01:38	10	0	0.1	-1	0	353	0.3	352	353	10.8	94.6
2022-10-17T01:39	10	-1	0.1	-1	0	352	0.2	352	353	10.8	95.0
2022-10-17T01:40	10	-1	0.1	-1	0	352	0.3	351	353	10.8	95.2
2022-10-17T01:41	10	-1	0.0	-1	0	352	0.3	352	353	10.7	95.3
2022-10-17T01:42	10	-1	0.1	-1	0	352	0.2	351	352	10.7	95.5
2022-10-17T01:43	10	0	0.3	-1	2	352	0.3	351	353	10.7	95.8
2022-10-17T01:44	10	0	0.1	-1	0	353	0.3	353	354	10.8	96.1
2022-10-17T01:45	10	0	0.1	-1	0	353	0.2	352	353	10.7	96.1
2022-10-17T01:46	10	0	0.1	-1	0	353	0.2	352	353	10.8	96.1
2022-10-17T01:47	10	0	0.1	0	0	353	0.2	352	353	10.8	96.1
2022-10-17T01:48	10	0	0.1	-1	0	352	0.2	352	353	10.9	96.1
2022-10-17T01:49	10	0	0.1	0	0	352	0.2	352	353	11.1	96.2
2022-10-17T01:50	10	0	0.1	0	0	352	0.2	352	353	11.0	96.0
2022-10-17T01:51	10	0	0.1	0	0	352	0.3	351	352	11.0	96.0
2022-10-17T01:52	10	0	0.1	0	0	352	0.3	351	352	11.0	96.1
2022-10-17T01:53	10	0	0.1	0	0	352	0.3	351	352	11.0	96.1
2022-10-17T01:54	10	0	0.1	0	0	351	0.2	351	352	10.8	96.0
2022-10-17T01:55	10	0	0.1	0	0	352	0.3	351	352	10.9	96.1
2022-10-17T01:56	10	0	0.1	0	0	352	0.3	351	352	10.8	96.1
2022-10-17T01:57	10	0	0.1	0	0	352	0.3	351	352	10.8	96.1
2022-10-17T01:58	10	0	0.1	-1	0	352	0.4	352	353	10.9	96.1
2022-10-17T01:59	10	0	0.1	-1	0	353	0.2	353	353	10.8	95.9
2022-10-17T02:00	10	-1	0.1	-1	0	353	0.3	353	354	10.8	95.7
2022-10-17T02:01	10	-1	0.1	-1	-1	354	0.3	353	355	10.9	95.8
2022-10-17T02:02	10	-1	0.1	-1	-1	354	0.3	353	354	10.9	95.6
2022-10-17T02:03	10	-1	0.1	-2	-1	354	0.2	354	354	10.9	95.4
2022-10-17T02:04	10	-2	0.1	-2	-1	354	0.2	353	354	11.1	95.3
2022-10-17T02:05	10	-2	0.1	-2	-1	354	0.3	353	355	11.2	95.3
2022-10-17T02:06	10	-2	0.1	-2	-1	355	0.5	354	356	11.3	95.0
2022-10-17T02:07	10	-1	0.1	-2	-1	355	0.3	355	356	11.5	94.9
2022-10-17T02:08	10	-1	0.1	-2	-1	356	0.3	355	356	11.6	94.5
2022-10-17T02:09	10	-1	0.1	-1	-1	355	0.3	355	356	11.8	93.9
2022-10-17T02:10	10	-1	0.1	-1	-1	355	0.2	355	356	11.6	93.5
2022-10-17T02:11	10	-1	0.1	-1	-1	355	0.2	355	356	11.4	93.9
2022-10-17T02:12	10	-1	0.1	-1	-1	355	0.3	355	356	11.2	94.0
2022-10-17T02:13	10	-1	0.1	-1	-1	356	0.3	355	357	11.5	94.6
2022-10-17T02:14	10	-1	0.1	-1	-1	357	0.3	356	357	11.9	93.6
2022-10-17T02:15	10	-1	0.1	-1	-1	356	0.3	355	357	11.9	92.1
2022-10-17T02:16	10	-1	0.1	-1	-1	355	0.3	355	356	11.8	91.7
2022-10-17T02:17	10	-1	0.1	-1	-1	355	0.3	355	356	11.6	91.7
2022-10-17T02:18	10	-1	0.1	-1	0	355	0.3	355	356	11.8	92.4
2022-10-17T02:19	10	-1	0.1	-1	0	355	0.4	354	356	11.6	91.5
2022-10-17T02:20	10	-1	0.1	-1	0	354	0.3	354	355	10.9	91.7
2022-10-17T02:21	10	-1	0.1	-1	0	354	0.3	354	355	10.8	93.5
2022-10-17T02:22	10	-1	0.1	-1	0	354	0.3	354	355	11.1	94.0
2022-10-17T02:23	10	-1	0.1	-1	0	354	0.3	353	355	11.1	93.8
2022-10-17T02:24	10	-1	0.1	-1	-1	354	0.2	353	354	11.1	94.0
2022-10-17T02:25	10	-1	0.1	-1	0	354	0.3	353	354	11.4	94.4
2022-10-17T02:26	10	-1	0.1	-1	0	354	0.2	353	354	11.8	93.6
2022-10-17T02:27	10	0	0.1	-1	0	354	0.3	354	355	12.0	92.4
2022-10-17T02:28	10	0	0.1	-1	0	355	0.2	354	356	12.4	91.1
2022-10-17T02:29	10	0	0.1	-1	0	355	0.3	354	355	12.2	90.1
2022-10-17T02:30	10	0	0.1	-1	0	354	0.2	353	354	11.8	90.1
2022-10-17T02:31	10	0	0.1	0	0	354	0.3	353	355	11.9	91.0
2022-10-17T02:32	10	0	0.1	-1	0	353	0.3	352	354	11.3	90.7
2022-10-17T02:33	10	0	0.1	-1	0	353	0.4	352	354	11.0	92.2
2022-10-17T02:34	10	-1	0.1	-1	0	352	0.4	351	353	10.8	92.9
2022-10-17T02:35	10	-1	0.1	-1	-1	352	0.3	351	352	10.8	93.7
2022-10-17T02:36	10	-1	0.1	-1	-1	352	0.2	351	352	11.1	94.0
2022-10-17T02:37	10	-1	0.1	-1	-1	352	0.2	351	352	11.5	93.5
2022-10-17T02:38	10	-1	0.1	-1	-1	352	0.3	352	353	11.5	92.6
2022-10-17T02:39	10	-1	0.1	-1	-1	352	0.3	352	353	11.9	92.4
2022-10-17T02:40	10	-1	0.1	-1	-1	353	0.3	352	353	11.8	91.4
2022-10-17T02:41	10	-1	0.1	-1	-1	352	0.3	352	353	11.4	91.0
2022-10-17T02:42	10	-1	0.1	-1	-1	353	0.6	352	354	11.0	91.3
2022-10-17T02:43	10	-1	0.1	-1	-1	354	0.2	354	355	10.8	92.0
2022-10-17T02:44	10	-1	0.1	-2	-1	354	0.2	354	355	10.6	92.5
2022-10-17T02:45	10	-2	0.1	-2	-1	355	0.2	354	355	10.4	93.0
2022-10-17T02:46	10	-2	0.1	-2	-2	355	0.3	354	355	10.4	93.7
2022-10-17T02:47	10	-2	0.1	-2	-2	355	0.5	354	356	10.4	94.1
2022-10-17T02:48	10	-2	0.1	-2	-2	355	0.5	354	356	10.4	94.5
2022-10-17T02:49	10	-2	0.1	-2	-2	355	0.3	354	355	10.4	94.8
2022-10-17T02:50	10	-2	0.1	-2	-2	355	0.5	354	356	10.4	95.2
2022-10-17T02:51	10	-2	0.1	-2	-2	354	0.4	353	355	10.3	95.2
2022-10-17T02:52	10	-2	0.1	-2	-1	353	0.4	352	354	10.4	95.6
2022-10-17T02:53	10	-1	0.1	-2	-1	352	0.3	351	353	10.4	95.7
2022-10-17T02:54	10	-1	0.1	-1	-1	352	0.2	351	352	10.3	95.7
2022-10-17T02:55	10	-1	0.1	-1	-1	351	0.3	350	352	10.1	95.6
2022-10-17T02:56	10	-1	0.1	-1	-1	352	0.3	351	352	10.0	95.7
2022-10-17T02:57	10	-1	0.1	-1	-1	352	0.3	351	352	10.1	96.0
2022-10-17T02:58	10	-1	0.1	-1	0	352	0.4	351	352	10.2	96.3
2022-10-17T02:59	10	-1	0.1	-1	0	352	0.2	351	352	10.3	96.5
2022-10-17T03:00	10	-1	0.1	-1	-1	352	0.3	352	353	10.3	96.6
2022-10-17T03:01	10	-1	0.1	-1	-1	353	0.3	352	353	10.3	96.5
2022-10-17T03:02	10	-1	0.1	-1	-1	353	0.2	353	354	10.3	96.5
2022-10-17T03:03	10	-1	0.1	-1	-1	353	0.3	353	354	10.4	96.5
2022-10-17T03:04	10	-1	0.1	-2	-1	353	0.3	353	354	10.8	96.3
2022-10-17T03:05	10	-1	0.1	-2	-1	353	0.2	353	354	10.7	95.1
2022-10-17T03:06	10	-1	0.1	-2	-1	354	0.3	352	354	10.7	94.8
2022-10-17T03:07	10	-2	0.1	-2	-1	354	0.3	353	355	10.8	94.3
2022-10-17T03:08	10	-2	0.1	-2	-2	355	0.3	354	355	11.0	93.8
2022-10-17T03:09	10	-2	0.1	-2	-2	355	0.3	355	356	11.1	93.0
2022-10-17T03:10	10	-2	0.1	-2	-2	356	0.2	355	356	11.1	92.4
2022-10-17T03:11	10	-2	0.1	-2	-1	355	0.2	354	356	11.1	92.2
2022-10-17T03:12	10	-2	0.1	-2	-1	355	0.3	354	356	11.1	92.1
2022-10-17T03:13	10	-1	0.1	-1	-1	354	0.8	352	355	11.1	91.8
2022-10-17T03:14	10	-1	0.1	-1	-1	353	0.7	352	355	10.4	91.6
2022-10-17T03:15	10	-1	0.1	-1	-1	354	0.2	353	354	10.7	93.2
2022-10-17T03:16	10	-1	0.1	-1	-1	353	0.3	353	354	11.1	93.5
2022-10-17T03:17	10	0	0.1	-1	0	352	0.4	352	353	11.1	92.7
2022-10-17T03:18	10	0	0.1	0	0	352	0.2	352	353	11.0	92.4
2022-10-17T03:19	10	0	0.1	0	0	352	0.3	351	353	11.1	92.4
2022-10-17T03:20	10	0	0.1	0	0	352	0.3	351	353	11.0	92.2
2022-10-17T03:21	10	0	0.1	0	0	352	0.2	351	352	10.9	92.4
2022-10-17T03:22	10	0	0.1	0	0	352	0.3	351	352	10.9	92.5
2022-10-17T03:23	10	0	0.1	0	0	351	0.4	350	352	10.8	92.9
2022-10-17T03:24	10	0	0.1	0	0	351	0.2	351	352	10.7	93.0
2022-10-17T03:25	10	0	0.1	-1	0	352	0.2	351	352	10.7	93.2
2022-10-17T03:26	10	0	0.1	-1	0	351	0.3	351	352	10.6	93.4
2022-10-17T03:27	10	0	0.1	-1	0	351	0.2	350	351	10.4	93.4
2022-10-17T03:28	10	0	0.1	-1	0	351	0.2	350	351	10.6	94.2
2022-10-17T03:29	10	0	0.1	-1	0	351	0.3	350	351	10.6	94.3
2022-10-17T03:30	10	0	0.1	-1	0	351	0.2	350	351	10.7	94.4
2022-10-17T03:31	10	0	0.1	-1	0	350	0.2	350	351	10.5	94.2
2022-10-17T03:32	10	0	0.1	-1	0	350	0.2	350	351	10.4	94.3
2022-10-17T03:33	10	0	0.1	-1	0	350	0.2	349	351	10.4	94.4
2022-10-17T03:34	10	0	0.1	-1	0	350	0.3	349	351	10.4	94.6
2022-10-17T03:35	10	0	0.1	-1	0	350	0.2	350	351	10.6	94.7
2022-10-17T03:36	10	0	0.1	-1	0	351	0.2	350	351	10.5	94.6
2022-10-17T03:37	10	0	0.1	0	0	351	0.2	350	351	10.6	94.6
2022-10-17T03:38	10	0	0.1	0	0	351	0.2	351	352	10.9	94.8
2022-10-17T03:39	10	0	0.1	0	0	351	0.3	351	352	11.2	94.4
2022-10-17T03:40	10	0	0.1	0	0	352	0.2	351	352	11.4	93.6
2022-10-17T03:41	10	0	0.0	0	0	351	0.2	351	352	11.5	92.7
2022-10-17T03:42	10	0	0.1	-1	0	351	0.2	351	352	11.6	92.0
2022-10-17T03:43	10	0	0.1	-1	0	351	0.3	351	352	11.6	91.3
2022-10-17T03:44	10	-1	0.1	-1	0	351	0.2	351	352	11.5	90.8
2022-10-17T03:45	10	-1	0.1	-1	0	351	0.3	351	352	11.5	90.8
2022-10-17T03:46	10	-1	0.1	-1	-1	351	0.2	351	352	11.5	90.5
2022-10-17T03:47	10	-1	0.1	-1	-1	351	0.3	350	352	11.3	90.7
2022-10-17T03:48	10	-1	0.1	-1	-1	352	0.3	351	352	11.1	91.1
2022-10-17T03:49	10	-1	0.1	-1	-1	352	0.4	351	352	10.8	91.6
2022-10-17T03:50	10	-1	0.1	-2	-1	352	0.2	351	352	10.5	92.3
2022-10-17T03:51	10	-2	0.1	-2	-1	352	0.3	351	352	10.6	93.0
2022-10-17T03:52	10	-2	0.1	-2	-2	351	0.4	350	352	10.6	92.8
2022-10-17T03:53	10	-2	0.1	-2	-2	351	0.2	351	351	10.7	92.8
2022-10-17T03:54	10	-2	0.1	-2	-2	351	0.2	351	352	10.8	92.7
2022-10-17T03:55	10	-2	0.1	-2	-1	352	0.4	351	353	10.8	92.7
2022-10-17T03:56	10	-1	0.1	-2	-1	352	0.3	351	353	10.8	92.6
2022-10-17T03:57	10	-1	0.1	-1	-1	352	0.3	351	353	10.8	92.7
2022-10-17T03:58	10	-1	0.1	-1	-1	352	0.3	351	353	10.7	92.6
2022-10-17T03:59	10	-1	0.1	-1	-1	352	0.2	351	352	10.6	92.7
2022-10-17T04:00	10	-1	0.1	-1	-1	351	0.4	351	352	10.6	92.8
2022-10-17T04:01	10	-1	0.1	-1	-1	352	0.2	351	352	10.5	92.8
2022-10-17T04:02	10	-1	0.1	-2	-1	352	0.3	352	353	10.5	93.0
2022-10-17T04:03	10	-2	0.1	-2	-1	352	0.2	352	353	10.7	92.7
2022-10-17T04:04	10	-2	0.1	-2	-2	353	0.4	352	354	10.8	92.4
2022-10-17T04:05	10	-2	0.0	-2	-2	354	0.3	353	354	10.9	92.1
2022-10-17T04:06	10	-2	0.1	-2	-1	354	0.3	353	355	10.8	91.9
2022-10-17T04:07	10	-1	0.1	-1	-1	354	0.3	353	355	10.7	92.3
2022-10-17T04:08	10	-1	0.1	-1	-1	354	0.2	354	355	10.9	92.5
2022-10-17T04:09	10	-1	0.1	-1	-1	354	0.2	354	355	11.0	91.7
2022-10-17T04:10	10	-1	0.1	-1	-1	354	0.3	354	355	11.3	91.4
2022-10-17T04:11	10	-1	0.1	-1	-1	353	0.3	353	354	11.5	90.3
2022-10-17T04:12	10	-1	0.1	-1	-1	354	0.2	353	354	11.5	89.5
2022-10-17T04:13	10	-1	0.1	-1	-1	353	0.3	352	354	11.4	89.4
2022-10-17T04:14	10	-1	0.1	-1	-1	352	0.3	352	353	11.2	89.6
2022-10-17T04:15	10	-1	0.1	-1	-1	352	0.3	352	353	11.3	89.9
2022-10-17T04:16	10	-1	0.1	-1	-1	351	0.3	351	352	11.3	89.8
2022-10-17T04:17	10	-1	0.1	-1	-1	351	0.2	351	351	11.1	89.8
2022-10-17T04:18	10	-1	0.1	-1	-1	351	0.2	350	351	10.9	90.3
2022-10-17T04:19	10	-1	0.1	-1	-1	351	0.2	351	351	10.8	90.8
2022-10-17T04:20	10	-1	0.1	-1	-1	351	0.2	350	351	10.6	91.0
2022-10-17T04:21	10	-1	0.1	-1	-1	351	0.3	350	352	10.5	91.5
2022-10-17T04:22	10	-1	0.1	-1	-1	351	0.3	350	352	10.4	92.2
2022-10-17T04:23	10	-1	0.1	-1	0	352	0.3	352	353	10.4	92.6
2022-10-17T04:24	10	-1	0.1	-1	0	354	0.5	353	355	10.5	92.7
2022-10-17T04:25	10	-1	0.1	-1	0	355	0.3	354	356	10.6	92.8
2022-10-17T04:26	10	-1	0.1	-1	-1	356	0.3	355	357	10.7	92.7
2022-10-17T04:27	10	-1	0.1	-1	-1	357	0.3	356	357	10.8	92.4
2022-10-17T04:28	10	-1	0.1	-1	0	357	0.3	356	357	10.8	91.9
2022-10-17T04:29	10	-1	0.0	-1	0	357	0.2	356	358	10.7	92.2
2022-10-17T04:30	10	-1	0.1	-1	0	357	0.3	356	357	10.8	92.1
2022-10-17T04:31	10	-1	0.1	-1	0	357	0.2	356	357	10.5	92.1
2022-10-17T04:32	10	-1	0.1	-1	0	357	0.2	357	358	10.7	92.5
2022-10-17T04:33	10	-1	0.1	-1	0	357	0.2	356	357	11.0	91.9
2022-10-17T04:34	10	0	0.1	-1	0	357	0.2	356	357	11.2	90.8
2022-10-17T04:35	10	0	0.1	0	0	357	0.2	356	357	11.3	90.2
2022-10-17T04:36	10	0	0.1	0	0	356	0.3	355	357	11.3	89.7
2022-10-17T04:37	10	0	0.1	0	0	356	0.2	356	357	11.3	89.3
2022-10-17T04:38	10	0	0.1	0	0	357	0.2	356	357	11.3	89.4
2022-10-17T04:39	10	0	0.1	0	0	357	0.2	357	358	11.2	89.6
2022-10-17T04:40	10	0	0.1	0	0	357	0.3	357	358	11.3	89.8
2022-10-17T04:41	10	0	0.1	0	0	357	0.3	356	357	11.2	89.4
2022-10-17T04:42	10	0	0.1	0	1	357	0.2	356	357	11.2	89.6
2022-10-17T04:43	10	0	0.1	0	0	356	0.5	355	357	11.2	89.7
2022-10-17T04:44	10	0	0.1	0	0	356	0.2	355	356	10.6	89.7
2022-10-17T04:45	10	0	0.1	0	0	355	0.3	355	356	10.6	91.4
2022-10-17T04:46	10	0	0.1	0	0	355	0.2	355	356	10.8	92.0
2022-10-17T04:47	10	0	0.1	0	0	356	0.3	355	356	10.8	91.7
2022-10-17T04:48	10	0	0.1	0	0	356	0.3	356	357	11.0	91.6
2022-10-17T04:49	10	0	0.1	0	0	357	0.3	357	358	11.1	91.2
2022-10-17T04:50	10	0	0.1	0	0	357	0.5	356	358	11.2	90.8
2022-10-17T04:51	10	0	0.1	0	0	356	0.6	355	358	10.7	90.2
2022-10-17T04:52	10	0	0.1	0	0	357	0.4	356	358	11.0	90.9
2022-10-17T04:53	10	-1	0.1	-1	0	356	0.4	356	357	10.5	90.5
2022-10-17T04:54	10	-1	0.1	-1	-1	357	0.3	356	358	10.3	91.2
2022-10-17T04:55	10	-1	0.1	-1	-1	358	0.9	356	359	10.2	91.9
2022-10-17T04:56	10	-1	0.1	-1	-1	358	0.5	357	359	10.3	92.5
2022-10-17T04:57	10	-1	0.1	-1	-1	359	0.4	359	360	10.3	93.0
2022-10-17T04:58	10	-1	0.1	-1	-1	360	0.3	359	360	10.2	93.2
2022-10-17T04:59	10	-1	0.1	-1	-1	360	0.4	359	361	10.2	93.7
2022-10-17T05:00	10	-1	0.1	-1	-1	361	0.2	360	361	10.4	94.1
2022-10-17T05:01	10	-1	0.1	-1	-1	361	0.2	360	361	10.3	93.9
2022-10-17T05:02	10	-1	0.1	-1	-1	361	0.2	360	361	10.5	94.0
2022-10-17T05:03	10	-1	0.0	-1	-1	361	0.2	360	361	10.6	93.8
2022-10-17T05:04	10	-1	0.1	-1	0	361	0.3	360	361	10.7	93.4
2022-10-17T05:05	10	0	0.1	-1	0	360	0.2	359	360	10.6	93.1
2022-10-17T05:06	10	0	0.1	0	0	359	0.2	358	360	10.5	93.3
2022-10-17T05:07	10	0	0.1	0	0	359	0.2	358	359	10.4	93.5
2022-10-17T05:08	10	0	0.1	0	0	358	0.3	357	359	10.4	93.7
2022-10-17T05:09	10	0	0.1	0	0	357	0.3	357	358	10.4	93.7
2022-10-17T05:10	10	0	0.0	0	0	357	0.2	356	357	10.2	93.7
2022-10-17T05:11	10	0	0.1	0	0	356	0.3	355	357	10.2	94.0
2022-10-17T05:12	10	0	0.1	0	0	356	0.3	355	356	10.2	94.2
2022-10-17T05:13	10	0	0.1	0	0	355	0.2	355	356	10.4	94.3
2022-10-17T05:14	10	0	0.1	0	0	355	0.2	354	355	10.5	94.1
2022-10-17T05:15	10	0	0.1	-1	0	355	0.2	355	355	10.9	93.8
2022-10-17T05:16	10	0	0.1	-1	0	354	0.4	354	355	10.9	92.3
2022-10-17T05:17	10	-1	0.1	-1	0	354	0.2	353	354	10.7	92.2
2022-10-17T05:18	10	-1	0.1	-1	-1	353	0.2	353	354	10.9	92.7
2022-10-17T05:19	10	-1	0.1	-1	0	353	0.3	353	354	10.7	92.1
2022-10-17T05:20	10	-1	0.1	-1	-1	353	0.4	352	354	10.5	92.7
2022-10-17T05:21	10	-1	0.1	-1	-1	354	0.2	353	354	11.1	93.1
2022-10-17T05:22	10	-1	0.1	-1	-1	353	0.3	352	354	10.8	91.5
2022-10-17T05:23	10	-1	0.1	-1	-1	353	0.2	353	354	10.6	92.2
2022-10-17T05:24	10	-1	0.1	-1	-1	353	0.2	352	353	10.6	92.7
2022-10-17T05:25	10	-1	0.1	-2	-1	352	0.3	352	353	10.5	93.0
2022-10-17T05:26	10	-1	0.1	-2	-1	351	0.3	351	352	10.4	93.2
2022-10-17T05:27	10	-1	0.1	-2	-1	351	0.3	350	352	10.3	93.6
2022-10-17T05:28	10	-1	0.1	-2	-1	351	0.3	350	351	10.3	93.8
2022-10-17T05:29	10	-1	0.1	-1	-1	351	0.2	351	352	10.5	94.1
2022-10-17T05:30	10	-1	0.1	-1	-1	352	0.3	351	352	10.7	93.8
2022-10-17T05:31	10	-1	0.1	-1	-1	351	0.3	351	352	10.6	93.1
2022-10-17T05:32	10	-1	0.1	-1	-1	351	0.3	351	352	10.3	92.8
2022-10-17T05:33	10	-1	0.1	-1	-1	352	0.5	351	353	10.2	93.0
2022-10-17T05:34	10	-1	0.1	-1	-1	352	0.4	351	353	10.1	93.1
2022-10-17T05:35	10	-1	0.1	-1	-1	352	0.5	351	353	10.1	93.6
2022-10-17T05:36	10	-1	0.1	-1	-1	352	0.3	352	353	10.5	93.9
2022-10-17T05:37	10	-1	0.1	-1	0	351	0.5	350	352	10.3	93.1
2022-10-17T05:38	10	-1	0.1	-1	0	351	0.3	350	351	10.1	92.9
2022-10-17T05:39	10	0	0.1	0	0	351	0.3	350	351	10.2	93.2
2022-10-17T05:40	10	0	0.1	0	0	350	0.2	350	350	10.1	93.1
2022-10-17T05:41	10	0	0.1	0	0	350	0.2	350	351	10.1	93.2
2022-10-17T05:42	10	0	0.1	0	0	350	0.2	349	350	10.0	93.4
2022-10-17T05:43	10	0	0.1	0	0	350	0.3	349	351	10.0	93.6
2022-10-17T05:44	10	0	0.1	0	1	349	0.2	349	350	10.0	93.7
2022-10-17T05:45	10	1	0.1	0	1	349	0.2	349	350	9.9	93.8
2022-10-17T05:46	10	1	0.1	1	1	350	0.2	349	350	9.8	93.9
2022-10-17T05:47	10	1	0.1	1	1	350	0.3	349	350	9.8	94.2
2022-10-17T05:48	10	1	0.1	1	1	349	0.2	348	350	9.8	94.3
2022-10-17T05:49	10	1	0.1	1	1	349	0.2	348	349	9.6	94.4
2022-10-17T05:50	10	1	0.1	1	1	349	0.2	348	349	9.6	94.7
2022-10-17T05:51	10	1	0.1	1	1	349	0.2	348	349	9.6	94.8
2022-10-17T05:52	10	1	0.1	1	1	349	0.3	348	349	9.5	95.0
2022-10-17T05:53	10	1	0.1	1	1	348	0.2	348	348	9.4	95.0
2022-10-17T05:54	10	1	0.1	1	1	348	0.2	348	349	9.4	95.4
2022-10-17T05:55	10	1	0.1	1	1	348	0.2	348	348	9.4	95.5
2022-10-17T05:56	10	1	0.1	1	1	348	0.2	347	348	9.4	95.6
2022-10-17T05:57	10	1	0.1	1	2	348	0.2	347	349	9.3	95.8
2022-10-17T05:58	10	2	0.1	1	2	349	0.2	348	349	9.4	96.1
2022-10-17T05:59	10	2	0.1	2	2	349	0.3	348	349	9.3	96.2
2022-10-17T06:00	10	2	0.1	2	2	349	0.3	348	350	9.5	96.4
2022-10-17T06:01	10	2	0.1	2	2	349	0.2	349	350	9.6	96.6
2022-10-17T06:02	10	2	0.1	2	3	350	0.2	349	350	9.6	96.6
2022-10-17T06:03	10	3	0.1	2	3	350	0.2	349	350	9.6	96.6
2022-10-17T06:04	10	3	0.1	3	3	350	0.2	349	351	9.7	96.5
2022-10-17T06:05	10	3	0.1	3	3	350	0.3	350	351	9.8	96.4
2022-10-17T06:06	10	3	0.2	3	4	351	0.3	350	351	9.8	96.3
2022-10-17T06:07	10	3	0.1	3	4	350	0.3	350	351	9.8	96.4
2022-10-17T06:08	10	4	0.1	3	4	350	0.2	350	351	9.8	96.5
2022-10-17T06:09	10	4	0.1	4	4	350	0.2	350	351	9.8	96.6
2022-10-17T06:10	10	4	0.2	4	5	350	0.2	350	351	9.8	96.8
2022-10-17T06:11	10	4	0.1	4	5	350	0.2	350	351	9.8	96.8
2022-10-17T06:12	10	4	0.1	4	5	350	0.2	350	351	9.7	96.9
2022-10-17T06:13	10	4	0.1	4	5	351	0.2	350	351	9.7	96.9
2022-10-17T06:14	10	5	0.1	4	5	351	0.2	350	351	9.8	97.0
2022-10-17T06:15	10	5	0.2	4	5	351	0.3	350	351	9.8	97.2
2022-10-17T06:16	10	5	0.2	5	6	351	0.3	350	351	9.6	97.1
2022-10-17T06:17	10	5	0.2	5	6	350	0.3	350	351	9.5	97.1
2022-10-17T06:18	10	6	0.2	5	6	350	0.3	349	351	9.4	97.0
2022-10-17T06:19	10	6	0.1	6	6	350	0.3	350	351	9.4	97.0
2022-10-17T06:20	10	6	0.2	6	7	350	0.3	350	351	9.6	97.2
2022-10-17T06:21	10	6	0.1	6	7	351	0.2	351	351	9.6	97.3
2022-10-17T06:22	10	7	0.2	6	7	351	0.3	351	352	9.6	97.3
2022-10-17T06:23	10	7	0.2	7	7	351	0.2	351	352	9.6	97.4
2022-10-17T06:24	10	7	0.1	7	7	351	0.2	351	352	9.6	97.4
2022-10-17T06:25	10	7	0.1	7	8	352	0.3	351	353	9.6	97.4
2022-10-17T06:26	10	8	0.1	7	8	352	0.2	352	353	9.7	97.5
2022-10-17T06:27	10	9	0.5	8	9	353	0.3	352	353	9.7	97.4
2022-10-17T06:28	10	11	0.9	9	13	353	0.3	352	354	9.7	97.4
2022-10-17T06:29	10	15	1.1	13	17	353	0.3	353	354	9.8	97.4
2022-10-17T06:30	10	18	0.9	17	20	354	0.5	353	355	10.1	97.5
2022-10-17T06:31	10	21	0.4	20	21	355	0.3	354	355	10.2	97.5
2022-10-17T06:32	10	21	0.3	20	22	355	0.3	355	356	10.3	97.4
2022-10-17T06:33	10	20	0.3	19	21	356	0.3	355	356	10.4	97.3
2022-10-17T06:34	10	20	0.3	20	21	356	0.3	355	356	10.4	96.8
2022-10-17T06:35	10	21	0.4	20	22	356	0.3	356	356	10.4	96.3
2022-10-17T06:36	10	23	0.6	22	24	356	0.3	356	357	10.3	95.8
2022-10-17T06:37	10	24	0.2	23	24	357	0.3	356	358	10.5	95.3
2022-10-17T06:38	10	23	0.2	23	24	357	0.2	356	358	10.5	94.8
2022-10-17T06:39	10	23	0.2	22	23	357	0.2	357	358	10.6	94.7
2022-10-17T06:40	10	23	0.2	23	23	358	0.3	357	359	10.6	94.6
2022-10-17T06:41	10	22	0.3	22	23	358	0.2	358	359	10.5	94.4
2022-10-17T06:42	10	22	0.2	22	23	359	0.2	358	359	10.6	94.2
2022-10-17T06:43	10	23	0.3	22	23	359	0.3	358	360	10.9	92.5
2022-10-17T06:44	10	24	0.3	23	24	359	0.2	359	360	11.0	91.0
2022-10-17T06:45	10	26	0.6	24	27	360	0.4	359	360	10.9	90.6
2022-10-17T06:46	10	26	0.2	26	27	360	0.3	359	361	10.9	90.0
2022-10-17T06:47	10	25	0.3	25	26	361	0.3	360	361	10.9	90.0
2022-10-17T06:48	10	24	0.6	23	25	361	0.2	361	361	11.0	89.6
2022-10-17T06:49	10	21	0.8	20	23	361	0.3	361	362	11.0	89.3
2022-10-17T06:50	10	22	0.8	21	23	361	0.3	361	362	11.1	89.0
2022-10-17T06:51	10	24	0.4	23	24	362	0.3	361	362	11.1	89.1
2022-10-17T06:52	10	24	0.2	24	25	362	0.3	361	363	11.2	88.7
2022-10-17T06:53	10	24	0.5	24	25	362	0.3	361	363	11.2	88.4
2022-10-17T06:54	10	25	0.3	25	26	363	0.3	362	364	11.2	88.4
2022-10-17T06:55	10	26	0.4	25	27	363	0.3	362	363	11.2	88.5
2022-10-17T06:56	10	23	1.3	22	25	363	0.3	362	364	11.2	88.6
2022-10-17T06:57	10	25	1.6	22	27	363	0.2	363	364	11.2	88.5
2022-10-17T06:58	10	27	0.4	26	28	364	0.3	363	364	11.2	88.6
2022-10-17T06:59	10	29	0.5	28	29	364	0.2	364	365	11.1	88.7
2022-10-17T07:00	10	30	0.3	29	30	365	0.3	364	366	11.2	88.7
2022-10-17T07:01	10	28	1.1	26	30	365	0.2	365	366	11.2	88.5
2022-10-17T07:02	10	27	0.2	26	27	366	0.2	365	366	11.1	88.6
2022-10-17T07:03	10	27	0.8	26	29	366	0.3	366	367	11.2	88.7
2022-10-17T07:04	10	28	1.8	25	30	366	0.3	366	367	11.2	88.4
2022-10-17T07:05	10	24	0.2	24	25	366	0.3	366	367	11.3	88.2
2022-10-17T07:06	10	25	0.1	24	25	366	0.8	365	368	11.0	88.2
2022-10-17T07:07	10	24	0.3	24	25	366	0.3	365	366	11.0	88.8
2022-10-17T07:08	10	24	0.5	23	25	366	0.2	365	366	10.8	89.3
2022-10-17T07:09	10	24	0.4	24	25	366	0.3	365	366	10.8	89.9
2022-10-17T07:10	10	29	2.2	25	33	366	0.3	365	367	10.8	90.0
2022-10-17T07:11	10	40	3.1	33	43	367	0.7	365	367	10.7	90.1
2022-10-17T07:12	10	40	1.6	38	43	368	0.6	366	368	10.6	90.1
2022-10-17T07:13	10	44	1.3	41	46	368	0.2	367	368	10.4	90.1
2022-10-17T07:14	10	45	1.6	42	47	368	0.3	367	369	10.3	90.4
2022-10-17T07:15	10	41	1.6	39	45	368	0.5	367	369	10.2	90.6
2022-10-17T07:16	10	36	2.2	33	39	368	0.6	367	369	10.3	90.9
2022-10-17T07:17	10	37	2.8	33	41	368	0.5	367	369	10.4	91.2
2022-10-17T07:18	10	44	1.8	41	46	369	0.6	368	370	10.4	91.3
2022-10-17T07:19	10	44	0.5	44	45	370	0.2	370	371	10.5	91.6
2022-10-17T07:20	10	46	0.8	44	47	371	0.4	370	371	10.5	91.5
2022-10-17T07:21	10	45	1.8	42	47	371	0.5	370	372	10.5	91.8
2022-10-17T07:22	10	45	0.9	43	46	371	0.3	371	372	10.6	92.0
2022-10-17T07:23	10	35	3.8	31	43	371	0.5	370	372	10.7	91.9
2022-10-17T07:24	10	40	2.9	34	43	371	0.4	370	372	10.8	91.6
2022-10-17T07:25	10	47	2.8	43	51	372	0.4	371	373	10.8	91.0
2022-10-17T07:26	10	49	1.7	46	52	373	0.2	372	373	10.9	90.1
2022-10-17T07:27	10	40	3.6	34	45	372	0.4	371	373	10.9	89.7
2022-10-17T07:28	10	32	0.6	31	34	372	0.4	371	372	11.0	89.4
2022-10-17T07:29	10	33	0.5	32	34	371	0.4	370	372	11.1	89.7
2022-10-17T07:30	10	36	1.9	34	40	371	0.2	371	372	11.1	89.4
2022-10-17T07:31	10	45	2.8	40	50	372	0.4	371	372	11.1	89.9
2022-10-17T07:32	10	53	1.2	50	55	373	0.5	372	374	11.1	89.9
2022-10-17T07:33	10	55	1.3	52	57	374	0.4	373	374	11.1	89.6
2022-10-17T07:34	10	46	3.7	41	51	374	0.4	373	375	11.1	89.8
2022-10-17T07:35	10	55	5.3	43	61	374	0.5	373	375	11.2	90.1
2022-10-17T07:36	10	59	3.8	49	62	375	0.3	374	375	11.3	89.9
2022-10-17T07:37	10	39	3.4	35	48	374	0.7	372	375	11.3	89.8
2022-10-17T07:38	10	35	1.4	33	39	372	0.4	372	373	11.3	89.8
2022-10-17T07:39	10	46	4.0	40	54	373	0.6	372	374	11.2	89.7
2022-10-17T07:40	10	61	2.8	54	63	374	0.7	373	376	11.3	90.2
2022-10-17T07:41	10	61	1.6	59	64	375	0.3	375	376	11.3	90.3
2022-10-17T07:42	10	58	0.6	57	60	376	0.1	376	376	11.4	90.7
2022-10-17T07:43	10	55	1.4	53	58	376	0.3	375	376	11.4	91.0
2022-10-17T07:44	10	55	1.0	53	56	377	0.4	376	378	11.6	91.4
2022-10-17T07:45	10	55	0.4	54	55	378	0.3	377	379	11.7	91.5
2022-10-17T07:46	10	56	1.5	54	58	379	0.3	378	380	11.9	91.4
2022-10-17T07:47	10	57	1.1	54	59	380	0.2	380	381	12.0	90.9
2022-10-17T07:48	10	48	3.8	40	54	380	0.7	379	381	12.1	91.3
2022-10-17T07:49	10	36	1.9	33	40	379	0.8	378	381	12.0	90.8
2022-10-17T07:50	10	30	2.8	25	33	378	0.8	376	379	11.9	90.8
2022-10-17T07:51	10	25	0.3	24	25	376	0.6	375	377	11.9	90.7
2022-10-17T07:52	10	25	0.5	24	26	375	0.2	375	376	11.9	90.5
2022-10-17T07:53	10	26	0.2	26	27	375	0.3	375	376	11.9	90.3
2022-10-17T07:54	10	28	1.2	27	30	375	0.3	375	376	11.9	90.2
2022-10-17T07:55	10	32	1.0	30	34	376	0.3	375	376	12.0	89.8
2022-10-17T07:56	10	37	2.4	33	41	376	0.3	376	377	12.0	89.7
2022-10-17T07:57	10	49	2.9	42	54	377	0.5	376	378	11.7	89.7
2022-10-17T07:58	10	61	8.9	51	75	378	0.5	377	379	11.5	89.5
2022-10-17T07:59	10	73	1.3	71	75	378	0.3	378	379	11.4	89.3
2022-10-17T08:00	10	67	4.0	56	72	379	0.4	378	380	11.4	89.3
2022-10-17T08:01	10	56	3.0	51	60	379	0.5	378	380	11.4	89.7
2022-10-17T08:02	10	50	4.2	44	56	380	0.4	379	380	11.4	89.3
2022-10-17T08:03	10	51	7.3	42	65	379	0.6	378	380	11.6	89.5
2022-10-17T08:04	10	67	3.4	61	72	380	1.0	379	382	11.6	89.4
2022-10-17T08:05	10	60	5.0	53	69	381	1.0	379	382	11.5	88.9
2022-10-17T08:06	10	49	1.8	45	53	380	0.5	378	380	11.6	89.0
2022-10-17T08:07	10	40	3.3	35	45	378	0.5	377	379	11.6	89.1
2022-10-17T08:08	10	51	9.5	36	61	378	0.8	377	380	11.7	88.8
2022-10-17T08:09	10	58	2.4	54	61	380	0.4	378	380	11.6	88.2
2022-10-17T08:10	10	55	1.9	50	58	380	0.3	379	380	11.7	88.2
2022-10-17T08:11	10	46	1.7	42	50	379	0.5	378	381	11.8	88.3
2022-10-17T08:12	10	42	0.9	41	44	379	0.6	378	380	11.8	87.6
2022-10-17T08:13	10	41	2.1	39	47	379	0.5	378	380	11.7	87.4
2022-10-17T08:14	10	46	1.4	43	48	379	0.4	378	380	11.8	87.4
2022-10-17T08:15	10	43	0.5	42	45	379	0.3	378	379	11.8	87.1
2022-10-17T08:16	10	48	1.4	45	50	379	0.6	378	380	11.8	86.9
2022-10-17T08:17	10	48	1.9	45	50	380	0.3	379	381	11.9	86.6
2022-10-17T08:18	10	51	1.2	49	54	381	0.4	380	381	11.9	86.7
2022-10-17T08:19	10	52	2.5	48	55	382	0.2	381	382	12.1	87.0
2022-10-17T08:20	10	49	0.7	48	51	382	0.2	381	382	12.1	86.7
2022-10-17T08:21	10	56	2.4	51	58	382	0.3	382	383	12.0	86.8
2022-10-17T08:22	10	53	2.4	50	58	382	0.2	382	383	12.1	86.8
2022-10-17T08:23	10	50	0.8	49	51	382	0.4	381	383	12.1	86.7
2022-10-17T08:24	10	52	1.4	50	54	382	1.0	380	384	12.1	86.6
2022-10-17T08:25	10	49	2.6	45	53	382	0.5	381	383	12.0	86.8
2022-10-17T08:26	10	39	4.0	35	45	381	1.2	379	382	12.0	87.1
2022-10-17T08:27	10	42	1.3	38	43	380	0.4	379	381	12.0	88.3
2022-10-17T08:28	10	38	1.4	34	39	380	0.5	379	381	12.0	88.7
2022-10-17T08:29	10	36	2.4	33	39	379	0.3	379	380	11.9	88.8
2022-10-17T08:30	10	39	1.6	37	42	380	0.3	379	380	11.9	89.8
2022-10-17T08:31	10	36	2.8	32	40	379	0.4	378	380	11.9	90.2
2022-10-17T08:32	10	44	3.8	36	49	379	0.4	378	380	11.9	90.3
2022-10-17T08:33	10	45	2.0	42	49	380	0.6	379	382	11.9	90.4
2022-10-17T08:34	10	46	0.9	43	47	382	0.5	381	383	12.1	90.8
2022-10-17T08:35	10	46	2.5	42	49	382	0.3	382	383	12.2	91.0
2022-10-17T08:36	10	53	6.4	42	64	383	0.6	381	384	12.1	90.7
2022-10-17T08:37	10	62	3.6	54	67	385	0.4	384	385	12.2	90.9
2022-10-17T08:38	10	56	4.1	52	63	385	0.3	384	386	12.4	91.0
2022-10-17T08:39	10	60	2.4	56	63	386	0.4	385	387	12.3	90.9
2022-10-17T08:40	10	62	2.5	57	66	386	0.2	386	387	12.3	89.8
2022-10-17T08:41	10	55	0.7	53	57	386	0.3	385	386	12.3	88.9
2022-10-17T08:42	10	51	1.2	49	53	385	0.5	384	386	12.4	89.4
2022-10-17T08:43	10	48	1.2	46	50	384	0.4	384	385	12.3	89.7
2022-10-17T08:44	10	49	1.2	46	51	384	0.2	384	385	12.3	89.4
2022-10-17T08:45	10	43	1.0	42	45	384	0.4	383	385	12.4	89.4
2022-10-17T08:46	10	46	1.5	44	48	384	0.4	383	385	12.4	89.7
2022-10-17T08:47	10	46	1.3	44	47	384	0.3	384	385	12.4	89.1
2022-10-17T08:48	10	50	1.9	47	53	385	0.4	384	386	12.6	88.5
2022-10-17T08:49	10	55	1.7	52	57	386	0.5	385	387	12.6	88.5
2022-10-17T08:50	10	49	1.3	47	52	386	0.4	385	387	12.6	88.6
2022-10-17T08:51	10	50	1.3	47	51	386	0.2	385	387	12.6	89.7
2022-10-17T08:52	10	49	1.5	47	52	386	0.4	385	387	12.6	89.4
2022-10-17T08:53	10	50	1.4	48	54	385	0.6	384	386	12.6	89.3
2022-10-17T08:54	10	59	1.7	55	61	386	0.5	385	387	12.5	89.4
2022-10-17T08:55	10	58	1.8	56	60	387	0.6	386	388	12.6	89.4
2022-10-17T08:56	10	57	2.1	54	60	388	0.4	387	388	12.8	90.2
2022-10-17T08:57	10	52	1.0	51	54	387	0.3	387	388	12.7	89.5
2022-10-17T08:58	10	52	0.9	51	54	387	0.2	386	387	12.7	88.9
2022-10-17T08:59	10	54	0.8	53	55	387	0.3	386	387	12.7	88.6
2022-10-17T09:00	10	53	1.0	52	55	387	0.3	387	388	12.8	88.9
2022-10-17T09:01	10	55	1.6	53	60	388	0.3	387	388	12.9	89.6
2022-10-17T09:02	10	68	3.2	60	74	389	1.0	387	390	12.9	89.3
2022-10-17T09:03	10	73	1.9	68	75	391	0.6	389	392	12.9	88.5
2022-10-17T09:04	10	66	3.8	60	74	391	0.2	390	391	12.9	88.5
2022-10-17T09:05	10	72	4.1	61	76	392	0.3	392	393	13.0	88.7
2022-10-17T09:06	10	61	4.7	58	74	392	0.3	391	393	13.0	87.8
2022-10-17T09:07	10	78	3.8	73	85	393	0.5	392	394	13.1	88.5
2022-10-17T09:08	10	85	2.2	82	89	394	0.2	393	394	13.0	88.4
2022-10-17T09:09	10	82	1.1	80	84	394	0.2	394	395	12.9	88.2
2022-10-17T09:10	10	80	2.9	73	84	395	0.2	394	395	12.9	88.3
2022-10-17T09:11	10	75	2.8	71	79	394	0.3	394	395	13.1	88.4
2022-10-17T09:12	10	79	3.1	75	84	395	0.3	394	396	13.1	88.2
2022-10-17T09:13	10	79	1.6	77	83	396	0.2	396	396	13.3	88.0
2022-10-17T09:14	10	74	2.1	71	78	396	0.4	396	397	13.5	87.7
2022-10-17T09:15	10	89	9.2	73	102	398	1.4	396	401	13.6	88.1
2022-10-17T09:16	10	102	0.5	102	104	401	1.0	399	402	13.6	88.3
2022-10-17T09:17	10	105	1.9	99	107	401	0.2	401	402	13.6	87.5
2022-10-17T09:18	10	96	3.4	92	104	402	0.3	401	402	13.7	87.3
2022-10-17T09:19	10	107	2.6	104	112	402	0.3	402	403	13.9	87.9
2022-10-17T09:20	10	114	0.7	112	116	404	0.3	403	405	13.9	87.3
2022-10-17T09:21	10	117	0.5	116	117	406	0.5	405	407	14.1	87.5
2022-10-17T09:22	10	116	1.7	113	117	407	1.2	405	409	14.3	88.2
2022-10-17T09:23	10	116	3.7	109	120	407	0.6	406	408	14.2	87.2
2022-10-17T09:24	10	108	2.6	104	112	407	0.6	406	408	14.4	88.1
2022-10-17T09:25	10	101	4.3	95	110	407	0.5	406	408	14.6	88.4
2022-10-17T09:26	10	98	3.4	89	104	406	1.3	404	409	14.4	87.3
2022-10-17T09:27	10	81	1.7	80	88	405	1.1	403	407	14.2	86.5
2022-10-17T09:28	10	77	2.9	74	82	402	1.6	399	405	13.9	85.8
2022-10-17T09:29	10	78	1.3	76	82	400	0.3	399	400	13.7	84.7
2022-10-17T09:30	10	83	1.2	81	85	401	0.6	400	402	13.9	85.2
2022-10-17T09:31	10	77	2.6	74	82	401	0.6	400	402	13.9	85.1
2022-10-17T09:32	10	71	1.1	70	74	400	0.4	399	400	13.9	84.7
2022-10-17T09:33	10	71	2.4	68	77	400	0.8	398	401	14.0	85.1
2022-10-17T09:34	10	81	1.5	77	83	400	0.4	399	401	13.9	84.1
2022-10-17T09:35	10	74	2.6	70	78	400	0.6	399	401	14.0	84.6
2022-10-17T09:36	10	66	2.8	63	70	399	0.5	399	400	14.1	84.7
2022-10-17T09:37	10	69	1.7	65	71	399	0.4	399	400	14.2	84.2
2022-10-17T09:38	10	72	1.4	70	74	399	0.2	399	400	14.2	83.7
2022-10-17T09:39	10	68	1.7	65	72	399	0.4	398	400	14.2	82.7
2022-10-17T09:40	10	64	1.0	62	65	399	0.3	398	400	14.3	82.8
2022-10-17T09:41	10	71	4.1	62	77	400	0.8	398	401	14.2	81.8
2022-10-17T09:42	10	84	3.5	77	89	401	0.8	400	403	14.3	81.9
2022-10-17T09:43	10	94	2.8	89	97	403	0.6	402	404	14.4	82.8
2022-10-17T09:44	10	97	0.7	95	98	405	0.4	404	406	14.6	82.9
2022-10-17T09:45	10	98	1.7	96	100	405	0.2	405	406	14.4	81.8
2022-10-17T09:46	10	107	3.8	100	112	406	0.8	405	408	14.5	82.0
2022-10-17T09:47	10	109	3.1	102	111	408	0.5	407	409	14.7	81.8
2022-10-17T09:48	10	105	1.2	102	107	409	0.4	408	409	14.7	81.8
2022-10-17T09:49	10	105	1.0	103	106	409	0.3	409	410	14.9	82.5
2022-10-17T09:50	10	106	1.8	103	109	410	0.8	408	411	14.8	81.5
2022-10-17T09:51	10	107	1.9	104	110	410	0.4	409	411	14.8	81.1
2022-10-17T09:52	10	114	2.4	110	118	410	0.4	410	411	14.8	81.2
2022-10-17T09:53	10	115	1.3	113	118	411	0.4	410	411	14.8	81.2
2022-10-17T09:54	10	113	1.1	111	115	412	0.3	410	412	14.8	81.0
2022-10-17T09:55	10	114	2.6	110	119	412	0.3	411	413	14.9	81.7
2022-10-17T09:56	10	122	1.2	119	123	413	0.5	412	414	15.1	81.6
2022-10-17T09:57	10	121	1.3	120	123	414	0.6	413	415	15.0	80.8
2022-10-17T09:58	10	123	0.6	121	124	414	1.3	412	416	15.1	81.2
2022-10-17T09:59	10	121	1.9	119	123	412	0.9	411	414	14.9	79.4
2022-10-17T10:00	10	122	1.3	119	123	413	0.4	412	414	14.9	79.2
2022-10-17T10:01	10	123	0.5	122	123	413	0.4	412	413	15.0	79.1
2022-10-17T10:02	10	120	0.8	119	122	413	0.3	412	414	15.1	79.8
2022-10-17T10:03	10	121	0.5	120	122	414	0.5	413	415	15.1	79.9
2022-10-17T10:04	10	122	0.3	121	122	415	0.8	414	417	15.3	80.4
2022-10-17T10:05	10	121	0.7	120	122	417	1.0	415	418	15.4	80.0
2022-10-17T10:06	10	122	0.6	121	123	416	0.4	415	417	15.4	80.0
2022-10-17T10:07	10	120	1.6	117	122	414	0.5	414	416	15.2	79.7
2022-10-17T10:08	10	118	0.4	117	119	415	0.7	413	416	15.3	80.2
2022-10-17T10:09	10	118	0.8	117	120	415	0.3	415	416	15.5	79.8
2022-10-17T10:10	10	120	1.2	117	121	415	0.3	415	416	15.4	78.9
2022-10-17T10:11	10	119	1.0	116	120	416	0.5	414	416	15.4	79.6
2022-10-17T10:12	10	109	4.3	102	116	413	0.6	412	415	15.3	79.4
2022-10-17T10:13	10	103	2.8	100	108	413	0.3	412	413	15.3	79.6
2022-10-17T10:14	10	108	2.6	103	113	414	0.9	413	416	15.5	79.4
2022-10-17T10:15	10	117	1.5	113	118	417	0.5	416	418	15.7	79.5
2022-10-17T10:16	10	119	1.0	117	120	416	0.6	415	418	15.5	78.9
2022-10-17T10:17	10	121	0.7	119	122	416	0.5	416	418	15.6	78.8
2022-10-17T10:18	10	122	0.9	120	123	418	0.5	417	419	15.7	79.2
2022-10-17T10:19	10	120	0.4	119	121	417	0.9	416	419	15.8	79.8
2022-10-17T10:20	10	121	0.4	121	122	417	0.4	416	418	15.8	80.1
2022-10-17T10:21	10	123	0.5	122	124	417	0.3	416	418	15.9	79.2
2022-10-17T10:22	10	116	4.0	111	122	418	0.3	417	418	16.0	79.6
2022-10-17T10:23	10	122	0.4	122	123	417	0.4	416	418	15.9	78.6
2022-10-17T10:24	10	123	0.4	122	124	418	0.7	416	419	15.9	79.1
2022-10-17T10:25	10	123	0.6	122	124	419	0.7	417	420	15.8	78.2
2022-10-17T10:26	10	122	0.7	120	123	419	0.7	418	420	15.8	78.0
2022-10-17T10:27	10	120	0.4	119	120	420	0.4	419	421	16.0	79.0
2022-10-17T10:28	10	120	0.6	119	121	420	0.4	419	421	16.0	78.2
2022-10-17T10:29	10	121	0.6	120	123	420	0.3	419	421	16.0	77.0
2022-10-17T10:30	10	122	0.3	122	123	420	0.3	419	421	16.0	76.7
2022-10-17T10:31	10	122	0.7	120	123	421	0.4	420	422	16.2	76.9
2022-10-17T10:32	10	116	2.1	112	120	420	1.0	419	422	16.1	75.8
2022-10-17T10:33	10	120	0.5	119	122	421	0.5	420	422	16.2	76.1
2022-10-17T10:34	10	122	0.3	121	123	421	0.7	420	423	16.1	76.1
2022-10-17T10:35	10	123	0.4	122	124	422	0.6	421	423	16.3	76.3
2022-10-17T10:36	10	117	3.0	113	123	420	1.2	418	423	16.2	75.1
2022-10-17T10:37	10	121	0.5	120	122	420	0.6	419	421	16.3	75.8
2022-10-17T10:38	10	122	0.6	120	123	421	0.4	421	422	16.3	75.5
2022-10-17T10:39	10	118	0.8	116	120	422	0.4	421	422	16.3	75.5
2022-10-17T10:40	10	120	3.6	116	125	422	0.9	420	423	16.4	75.7
2022-10-17T10:41	10	125	0.3	125	126	424	0.5	422	425	16.5	75.5
2022-10-17T10:42	10	125	0.2	125	126	424	0.4	423	425	16.6	75.8
2022-10-17T10:43	10	125	0.4	124	125	424	0.7	422	425	16.6	75.5
2022-10-17T10:44	10	126	0.2	125	126	423	0.4	422	424	16.5	75.9
2022-10-17T10:45	10	121	2.9	118	126	422	0.5	421	423	16.4	76.0
2022-10-17T10:46	10	121	1.3	119	123	422	0.4	421	423	16.5	75.8
2022-10-17T10:47	10	123	0.6	122	124	423	0.5	422	424	16.5	74.8
2022-10-17T10:48	10	124	1.0	122	126	424	0.5	423	425	16.7	74.7
2022-10-17T10:49	10	126	0.4	126	127	427	0.6	425	428	16.9	74.6
2022-10-17T10:50	10	127	0.3	126	127	426	0.5	424	426	16.7	74.4
2022-10-17T10:51	10	127	0.2	127	128	424	0.4	423	425	16.6	74.4
2022-10-17T10:52	10	126	1.2	123	128	425	0.5	425	426	16.7	73.9
2022-10-17T10:53	10	121	0.9	120	123	426	0.6	425	427	16.8	73.3
2022-10-17T10:54	10	118	1.1	116	120	425	0.3	424	426	16.9	73.6
2022-10-17T10:55	10	123	1.8	120	125	426	0.7	425	428	17.1	74.7
2022-10-17T10:56	10	119	0.8	118	121	426	0.3	426	427	17.1	74.1
2022-10-17T10:57	10	124	0.9	121	126	426	0.7	425	428	17.2	74.2
2022-10-17T10:58	10	123	0.4	123	124	426	0.3	425	427	17.1	73.6
2022-10-17T10:59	10	123	0.6	122	124	426	0.4	425	427	17.2	73.6
2022-10-17T11:00	10	123	0.7	123	125	428	0.3	427	428	17.3	74.6
2022-10-17T11:01	10	126	1.3	124	128	429	1.1	426	431	17.9	75.4
2022-10-17T11:02	10	126	0.6	125	128	429	1.5	426	431	17.5	73.4
2022-10-17T11:03	10	126	1.3	123	128	427	0.5	426	428	17.1	72.8
2022-10-17T11:04	10	123	1.1	119	124	427	0.3	426	427	17.1	72.4
2022-10-17T11:05	10	112	2.8	108	118	425	1.6	423	428	17.1	72.8
2022-10-17T11:06	10	120	2.0	117	123	424	0.5	423	425	17.1	72.6
2022-10-17T11:07	10	126	1.6	122	127	425	1.0	423	427	17.2	71.7
2022-10-17T11:08	10	127	0.2	126	127	427	0.5	425	428	17.2	71.4
2022-10-17T11:09	10	127	0.3	126	127	426	0.4	425	427	17.1	71.1
2022-10-17T11:10	10	128	0.4	127	128	427	0.5	426	428	17.4	71.0
2022-10-17T11:11	10	128	0.4	127	128	428	0.3	427	429	17.5	70.5
2022-10-17T11:12	10	126	2.3	122	129	429	0.3	428	430	17.5	70.2
2022-10-17T11:13	10	123	0.4	122	124	428	0.6	427	429	17.6	70.7
2022-10-17T11:14	10	121	1.1	119	123	428	0.6	427	429	17.7	70.7
2022-10-17T11:15	10	117	2.7	113	120	429	1.0	427	431	17.9	71.4
2022-10-17T11:16	10	116	5.9	109	126	428	0.5	427	429	17.7	69.5
2022-10-17T11:17	10	125	0.5	124	126	431	0.3	430	431	17.9	70.0
2022-10-17T11:18	10	124	1.5	122	126	432	1.1	430	433	18.0	70.8
2022-10-17T11:19	10	123	1.0	121	124	430	0.8	429	432	17.9	71.6
2022-10-17T11:20	10	119	0.9	118	122	430	0.6	428	431	18.0	70.9
2022-10-17T11:21	10	119	1.5	116	121	430	0.7	428	431	18.3	71.8
2022-10-17T11:22	10	121	0.9	119	123	430	0.4	429	430	18.3	70.5
2022-10-17T11:23	10	118	2.8	113	122	428	0.2	428	429	18.0	69.6
2022-10-17T11:24	10	117	1.9	113	120	429	0.4	429	430	18.1	69.9
2022-10-17T11:25	10	116	1.3	114	119	429	0.4	428	430	18.0	69.3
2022-10-17T11:26	10	111	1.1	110	114	428	0.5	428	430	18.0	69.2
2022-10-17T11:27	10	109	1.4	107	111	429	0.3	428	430	18.1	69.9
2022-10-17T11:28	10	108	1.6	105	111	430	0.5	429	431	18.3	70.4
2022-10-17T11:29	10	101	1.8	98	105	427	0.7	426	429	18.2	69.2
2022-10-17T11:30	10	106	0.8	103	107	428	0.6	427	429	18.1	70.3
2022-10-17T11:31	10	109	2.4	105	113	428	0.5	426	429	18.0	70.4
2022-10-17T11:32	10	116	1.4	114	118	428	0.5	428	429	18.0	71.1
2022-10-17T11:33	10	119	1.6	116	122	429	0.6	428	430	18.0	69.7
2022-10-17T11:34	10	118	1.0	116	120	430	0.5	429	431	18.2	70.6
2022-10-17T11:35	10	121	1.7	118	124	430	0.9	428	431	18.1	69.3
2022-10-17T11:36	10	116	1.4	114	118	431	0.4	430	432	18.2	69.9
2022-10-17T11:37	10	114	1.1	112	116	430	0.3	430	431	18.3	69.2
2022-10-17T11:38	10	114	2.2	111	117	431	0.6	430	432	18.4	69.0
2022-10-17T11:39	10	119	2.4	112	121	432	0.7	431	433	18.6	69.5
2022-10-17T11:40	10	120	2.1	117	123	432	0.5	431	433	18.5	70.7
2022-10-17T11:41	10	123	1.1	121	125	432	0.2	431	433	18.5	70.2
2022-10-17T11:42	10	124	0.7	123	125	434	0.7	432	435	18.6	71.2
2022-10-17T11:43	10	125	0.7	123	126	434	0.5	433	435	18.6	69.9
2022-10-17T11:44	10	125	0.6	123	126	435	0.3	434	435	18.5	69.6
2022-10-17T11:45	10	122	1.1	120	123	435	0.4	434	436	18.7	70.4
2022-10-17T11:46	10	123	1.4	121	125	435	0.5	434	436	18.9	71.3
2022-10-17T11:47	10	125	0.5	124	126	434	0.2	434	435	19.0	70.2
2022-10-17T11:48	10	126	0.5	126	127	434	0.4	433	435	18.9	69.9
2022-10-17T11:49	10	128	0.6	125	128	432	0.5	431	433	18.8	69.4
2022-10-17T11:50	10	113	4.4	109	125	432	0.3	432	433	18.7	69.8
2022-10-17T11:51	10	115	2.5	111	120	432	0.6	431	433	18.7	69.8
2022-10-17T11:52	10	125	2.4	120	127	433	1.1	431	435	18.7	69.4
2022-10-17T11:53	10	123	2.3	120	127	435	0.6	434	436	18.9	69.7
2022-10-17T11:54	10	120	1.2	119	123	435	0.3	434	435	18.9	68.8
2022-10-17T11:55	10	119	2.4	115	122	435	0.5	435	437	19.0	68.8
2022-10-17T11:56	10	125	2.2	122	129	436	0.8	435	438	19.1	69.5
2022-10-17T11:57	10	128	0.2	128	129	437	1.0	435	438	19.1	68.9
2022-10-17T11:58	10	128	0.3	127	128	437	0.6	436	439	19.1	69.4
2022-10-17T11:59	10	129	0.2	128	129	437	0.5	436	438	19.2	69.5
2022-10-17T12:00	10	128	0.2	127	128	436	1.1	435	438	19.2	69.6
2022-10-17T12:01	10	127	0.2	127	128	437	0.4	436	438	19.2	68.8
2022-10-17T12:02	10	126	0.3	126	127	436	0.6	435	437	19.2	68.8
2022-10-17T12:03	10	125	0.6	124	126	436	0.3	435	437	19.2	68.8
2022-10-17T12:04	10	124	0.3	124	124	437	0.4	436	438	19.3	68.3
2022-10-17T12:05	10	124	0.4	122	124	437	0.3	436	437	19.2	68.2
2022-10-17T12:06	10	121	1.2	119	123	437	0.3	436	438	19.2	68.6
2022-10-17T12:07	10	121	3.4	114	125	436	1.5	434	438	19.3	68.7
2022-10-17T12:08	10	108	2.1	106	114	434	0.7	432	436	19.2	68.7
2022-10-17T12:09	10	107	0.6	106	109	433	0.3	432	434	19.3	68.3
2022-10-17T12:10	10	110	1.1	109	112	435	0.4	433	435	19.5	68.8
2022-10-17T12:11	10	115	1.6	111	118	436	0.4	435	436	19.2	67.8
2022-10-17T12:12	10	120	1.0	116	121	437	0.9	435	438	19.5	69.1
2022-10-17T12:13	10	124	1.8	121	127	438	0.5	437	439	19.6	68.9
2022-10-17T12:14	10	125	3.3	119	128	438	0.3	437	439	19.7	69.0
2022-10-17T12:15	10	118	1.3	117	120	436	1.0	434	438	19.6	68.2
2022-10-17T12:16	10	117	1.0	116	118	435	0.3	434	435	19.4	67.6
2022-10-17T12:17	10	118	1.2	117	120	436	0.6	435	437	19.5	67.6
2022-10-17T12:18	10	122	1.6	119	124	438	0.3	437	438	19.7	68.3
2022-10-17T12:19	10	121	0.7	120	122	437	0.7	436	438	19.5	67.6
2022-10-17T12:20	10	122	0.2	121	122	437	0.5	436	438	19.5	67.4
2022-10-17T12:21	10	121	0.7	120	122	437	0.4	436	437	19.5	66.3
2022-10-17T12:22	10	118	1.8	115	121	437	0.7	436	438	19.7	67.0
2022-10-17T12:23	10	114	0.8	112	115	437	0.5	436	438	19.7	67.1
2022-10-17T12:24	10	116	1.1	114	118	437	0.6	436	438	19.7	67.5
2022-10-17T12:25	10	117	0.6	116	118	437	0.5	436	438	20.0	68.1
2022-10-17T12:26	10	114	0.6	113	115	437	0.6	436	439	19.8	67.4
2022-10-17T12:27	10	116	2.4	113	120	436	0.4	436	437	19.7	66.6
2022-10-17T12:28	10	118	0.9	116	120	437	0.2	437	438	19.8	67.3
2022-10-17T12:29	10	117	1.5	115	120	437	0.3	437	438	19.6	66.0
2022-10-17T12:30	10	118	1.0	117	120	438	0.3	437	438	19.7	65.9
2022-10-17T12:31	10	116	1.2	114	118	438	0.3	437	438	19.8	65.6
2022-10-17T12:32	10	113	0.8	112	115	438	0.3	437	439	19.9	65.5
2022-10-17T12:33	10	110	1.8	107	114	438	0.3	437	439	20.1	66.6
2022-10-17T12:34	10	116	1.1	114	118	438	0.5	438	440	20.0	65.9
2022-10-17T12:35	10	119	0.6	118	120	438	0.4	437	439	20.0	64.9
2022-10-17T12:36	10	119	0.7	117	120	438	0.2	438	439	20.0	65.0
2022-10-17T12:37	10	115	1.4	114	118	439	0.7	438	440	20.1	65.4
2022-10-17T12:38	10	115	0.4	114	116	439	0.3	438	439	20.1	64.7
2022-10-17T12:39	10	116	1.7	113	117	439	0.4	438	440	20.3	65.0
2022-10-17T12:40	10	118	0.7	116	119	440	0.5	439	441	20.4	64.5
2022-10-17T12:41	10	118	1.3	114	119	441	0.4	440	441	20.5	64.8
2022-10-17T12:42	10	111	1.5	108	114	440	0.4	439	442	20.6	64.4
2022-10-17T12:43	10	114	5.2	108	121	439	0.3	439	440	20.5	64.0
2022-10-17T12:44	10	120	0.1	120	121	440	0.8	439	442	20.5	62.5
2022-10-17T12:45	10	120	0.3	119	120	440	0.5	439	441	20.6	61.8
2022-10-17T12:46	10	119	0.2	119	119	440	0.6	439	441	20.6	62.0
2022-10-17T12:47	10	119	0.2	119	120	440	0.9	438	442	20.6	61.6
2022-10-17T12:48	10	119	0.2	119	120	441	0.6	440	442	20.8	60.5
2022-10-17T12:49	10	120	0.2	119	120	441	0.5	440	442	20.8	61.0
2022-10-17T12:50	10	120	0.2	119	120	439	0.8	438	441	20.6	61.0
2022-10-17T12:51	10	119	0.3	119	120	440	0.9	439	442	20.7	61.1
2022-10-17T12:52	10	119	0.2	119	120	442	0.3	441	442	21.1	61.4
2022-10-17T12:53	10	119	0.3	118	119	441	0.2	441	442	20.8	59.8
2022-10-17T12:54	10	119	0.3	118	119	441	0.3	441	442	20.9	60.5
2022-10-17T12:55	10	119	0.1	119	119	441	0.3	440	442	20.7	59.6
2022-10-17T12:56	10	119	0.1	119	119	441	0.2	441	442	20.9	59.1
2022-10-17T12:57	10	119	0.1	118	119	442	0.3	441	442	21.0	59.2
2022-10-17T12:58	10	118	0.1	118	119	442	0.2	442	443	21.2	59.5
2022-10-17T12:59	10	118	0.1	118	118	442	0.3	442	443	21.1	59.0
2022-10-17T13:00	10	118	0.1	118	118	443	0.6	441	443	21.1	59.5
2022-10-17T13:01	10	118	0.1	117	118	442	0.4	441	443	21.0	60.1
2022-10-17T13:02	10	117	0.2	117	117	441	0.4	440	441	21.1	59.8
2022-10-17T13:03	10	117	0.1	117	117	442	0.3	441	443	21.2	59.7
2022-10-17T13:04	10	116	0.2	116	117	442	0.3	441	442	21.2	59.4
2022-10-17T13:05	10	116	0.2	116	117	442	0.3	442	443	21.4	59.1
2022-10-17T13:06	10	116	0.2	115	116	442	0.6	440	443	21.4	59.4
2022-10-17T13:07	10	115	0.2	115	116	441	0.2	440	441	21.1	59.0
2022-10-17T13:08	10	115	0.2	114	115	441	0.2	441	442	21.1	59.1
2022-10-17T13:09	10	115	0.1	114	115	442	0.3	441	442	21.4	59.0
2022-10-17T13:10	10	114	0.2	114	115	441	0.2	441	442	21.3	59.1
2022-10-17T13:11	10	114	0.1	114	114	442	0.9	440	443	21.3	59.4
2022-10-17T13:12	10	114	0.2	113	114	443	0.8	442	444	21.2	59.9
2022-10-17T13:13	10	113	0.1	113	114	442	0.3	441	443	21.2	59.8
2022-10-17T13:14	10	113	0.4	112	113					21.1	59.7
2022-10-17T13:15	10	112	0.2	112	113	441	0.3	440	441	21.3	60.0
2022-10-17T13:16	10	111	0.2	111	112	441	0.9	440	442	21.2	60.0
2022-10-17T13:17	10	111	0.2	111	111	441	0.3	440	442	21.3	60.0
2022-10-17T13:18	10	111	0.1	110	111					21.3	60.5
2022-10-17T13:19	10	110	0.3	109	110					21.2	61.6
2022-10-17T13:20	10	109	0.1	109	110					21.3	61.1
2022-10-17T13:21	10	109	0.2	108	109					21.5	62.5
2022-10-17T13:22	10	108	0.2	108	109	441	0.4	440	441	21.2	61.3
2022-10-17T13:23	10	108	0.1	107	108	441	0.3	440	441	21.3	61.5
2022-10-17T13:24	10	108	0.2	107	108	441	0.3	440	442	21.4	61.2
2022-10-17T13:25	10	107	0.2	106	108	441	0.5	439	441	21.3	60.5
2022-10-17T13:26	10	108	0.3	107	109	441	0.6	440	442	21.4	59.7
2022-10-17T13:27	10	107	0.2	107	108	442	0.4	441	442	21.6	60.5
2022-10-17T13:28	10	107	0.3	107	108	442	0.7	440	443	21.7	61.4
2022-10-17T13:29	10	107	0.2	106	107	440	0.4	439	441	21.5	59.0
2022-10-17T13:30	10	106	0.3	106	107	440	0.3	439	440	21.5	59.5
2022-10-17T13:31	10	106	0.2	105	106	440	0.7	439	442	21.5	59.2
2022-10-17T13:32	10	105	0.2	105	106	440	0.5	439	441	21.4	59.5
2022-10-17T13:33	10	105	0.2	105	105	441	0.4	440	441	21.4	58.4
2022-10-17T13:34	10	105	0.2	104	105	441	0.5	440	442	21.4	58.2
2022-10-17T13:35	10	104	0.2	104	104	440	0.2	440	441	21.5	58.0
2022-10-17T13:36	10	104	0.1	103	104	441	0.4	440	441	21.6	58.0
2022-10-17T13:37	10	104	0.2	103	104	441	0.2	440	441	21.8	57.8
2022-10-17T13:38	10	104	0.1	104	104	441	0.4	440	442	21.8	58.2
2022-10-17T13:39	10	104	0.1	104	104	440	0.5	439	441	21.7	57.5
2022-10-17T13:40	10	104	0.1	104	104	440	0.2	439	440	21.6	57.7
2022-10-17T13:41	10	104	0.2	103	104	440	0.5	439	441	21.6	58.5
2022-10-17T13:42	10	103	0.2	103	103	440	0.3	440	441	21.6	57.8
2022-10-17T13:43	10	103	0.1	102	103	440	0.3	440	441	21.8	57.3
2022-10-17T13:44	10	102	0.1	102	103	441	0.3	440	441	21.8	57.5
2022-10-17T13:45	10	102	0.1	102	102	440	1.2	437	442	21.8	56.6
2022-10-17T13:46	10	101	0.2	101	102	438	0.7	437	439	21.9	55.6
2022-10-17T13:47	10	101	0.4	100	101	438	0.5	436	439	22.0	55.7
2022-10-17T13:48	10	100	0.1	99	100	438	0.7	436	439	22.0	56.5
2022-10-17T13:49	10	99	0.1	99	100	438	0.6	436	439	21.9	56.3
2022-10-17T13:50	10	99	0.2	99	99	439	1.5	435	440	22.0	56.7
2022-10-17T13:51	10	98	0.3	98	99	439	0.5	438	440	21.8	57.4
2022-10-17T13:52	10	98	0.1	97	98	439	0.9	437	440	21.8	57.3
2022-10-17T13:53	10	97	0.2	97	98	439	0.9	437	440	21.9	59.0
2022-10-17T13:54	10	97	0.3	96	97	437	1.1	436	439	21.7	59.5
2022-10-17T13:55	10	96	0.2	95	96	436	0.3	436	437	21.5	57.6
2022-10-17T13:56	10	95	0.2	95	96	435	0.2	435	436	21.5	57.8
2022-10-17T13:57	10	95	0.3	94	95	437	1.2	434	438	21.6	58.5
2022-10-17T13:58	10	94	0.1	94	94	437	0.6	436	439	21.7	60.2
2022-10-17T13:59	10	94	0.1	94	94	437	0.7	436	438	21.7	59.0
2022-10-17T14:00	10	94	0.1	93	94	436	0.8	435	438	21.7	60.0
2022-10-17T14:01	10	93	0.1	93	93	436	0.7	435	438	21.6	60.4
2022-10-17T14:02	10	93	0.2	92	93	437	0.4	435	437	21.7	58.4
2022-10-17T14:03	10	93	0.1	92	93	437	0.5	436	438	21.9	57.9
2022-10-17T14:04	10	93	0.1	93	93	437	0.9	435	438	21.9	57.9
2022-10-17T14:05	10	93	0.1	93	93	438	0.7	436	439	21.7	58.2
2022-10-17T14:06	10	92	0.1	92	93	438	0.3	438	438	21.9	60.7
2022-10-17T14:07	10	92	0.3	91	92	437	0.5	436	438	21.8	59.9
2022-10-17T14:08	10	91	0.2	91	92	436	0.3	436	437	21.8	58.3
2022-10-17T14:09	10	91	0.2	90	91	437	0.2	436	437	21.8	59.0
2022-10-17T14:10	10	90	0.2	90	91	436	0.3	436	437	21.9	59.3
2022-10-17T14:11	10	90	0.2	89	90	435	0.8	434	437	21.7	59.9
2022-10-17T14:12	10	89	0.2	89	89	435	0.4	434	436	21.7	60.9
2022-10-17T14:13	10	88	0.2	88	89	435	0.9	433	436	21.7	60.2
2022-10-17T14:14	10	88	0.3	87	89	435	0.3	434	436	21.7	58.9
2022-10-17T14:15	10	87	0.2	87	88	435	0.3	435	436	21.8	59.7
2022-10-17T14:16	10	87	0.2	87	87	435	0.2	435	436	21.9	61.5
2022-10-17T14:17	10	87	0.2	86	87	435	0.4	435	436	22.0	61.8
2022-10-17T14:18	10	87	0.2	87	87	434	0.7	433	436	21.8	62.4
2022-10-17T14:19	10	87	0.2	87	87	433	0.3	432	434	21.5	60.4
2022-10-17T14:20	10	86	0.2	86	87	434	0.3	433	435	21.5	60.9
2022-10-17T14:21	10	86	0.3	85	87	434	0.4	433	435	21.6	61.8
2022-10-17T14:22	10	85	0.2	85	86	434	0.3	433	434	21.7	62.2
2022-10-17T14:23	10	85	0.2	85	86	434	0.3	434	435	21.8	61.8
2022-10-17T14:24	10	85	0.4	84	85	434	0.8	433	435	21.6	60.8
2022-10-17T14:25	10	84	0.3	83	84	432	0.3	432	433	21.5	60.3
2022-10-17T14:26	10	83	0.3	82	84	432	0.4	431	433	21.5	61.0
2022-10-17T14:27	10	82	0.3	82	83	432	0.4	431	433	21.5	61.6
2022-10-17T14:28	10	82	0.3	81	83	432	0.3	431	433	21.6	62.1
2022-10-17T14:29	10	81	0.2	81	82	431	0.5	431	432	21.6	61.8
2022-10-17T14:30	10	81	0.3	81	82	431	0.5	430	432	21.5	62.0
2022-10-17T14:31	10	81	0.3	80	81	430	0.3	429	431	21.6	62.1
2022-10-17T14:32	10	80	0.2	79	80	429	1.3	427	431	21.3	63.7
2022-10-17T14:33	10	79	0.4	78	80	427	0.5	427	428	21.0	65.6
2022-10-17T14:34	10	77	0.4	77	79	427	0.2	426	427	21.0	65.7
2022-10-17T14:35	10	76	0.3	76	77	427	0.3	427	428	21.0	66.4
2022-10-17T14:36	10	75	0.3	75	76	427	0.2	427	428	21.0	66.5
2022-10-17T14:37	10	75	0.2	74	76	428	0.5	426	429	21.0	66.4
2022-10-17T14:38	10	74	0.2	74	75	428	0.4	427	429	21.1	67.4
2022-10-17T14:39	10	74	0.2	73	74	428	0.3	427	429	21.0	66.3
2022-10-17T14:40	10	73	0.3	73	74	427	0.2	427	428	21.0	66.4
2022-10-17T14:41	10	73	0.2	72	73	427	0.3	426	428	21.0	65.9
2022-10-17T14:42	10	72	0.2	72	73	426	0.3	426	427	21.0	65.4
2022-10-17T14:43	10	72	0.2	72	73	427	0.8	425	428	21.0	65.9
2022-10-17T14:44	10	72	0.2	72	73	428	0.6	426	429	21.0	68.7
2022-10-17T14:45	10	72	0.3	72	73	427	0.6	426	428	21.0	69.4
2022-10-17T14:46	10	72	0.2	71	73	426	0.4	425	427	20.9	69.9
2022-10-17T14:47	10	71	0.3	70	72	425	0.3	424	426	20.7	67.8
2022-10-17T14:48	10	70	0.3	69	71	424	0.3	423	425	20.6	67.9
2022-10-17T14:49	10	69	0.3	68	70	423	0.3	423	424	20.6	68.0
2022-10-17T14:50	10	68	0.4	67	69	423	0.3	422	424	20.6	68.6
2022-10-17T14:51	10	67	0.3	66	67	422	0.3	422	423	20.5	68.8
2022-10-17T14:52	10	66	0.2	66	67	422	0.2	422	423	20.5	68.2
2022-10-17T14:53	10	66	0.2	66	67	423	0.9	421	424	20.5	68.8
2022-10-17T14:54	10	66	0.2	66	67	423	0.4	423	424	20.5	70.7
2022-10-17T14:55	10	66	0.2	65	66	423	0.5	422	424	20.5	69.6
2022-10-17T14:56	10	65	0.2	65	66	423	0.4	422	424	20.5	69.6
2022-10-17T14:57	10	65	0.4	64	65	422	0.5	421	423	20.4	68.7
2022-10-17T14:58	10	64	0.2	63	64	421	0.3	421	422	20.4	68.3
2022-10-17T14:59	10	63	0.2	63	64	421	0.2	420	421	20.4	68.1
2022-10-17T15:00	10	63	0.3	62	64	421	0.8	420	423	20.4	68.6
2022-10-17T15:01	10	62	0.2	62	63	421	0.4	421	422	20.5	68.7
2022-10-17T15:02	10	62	0.1	61	62	422	0.2	421	422	20.5	68.7
2022-10-17T15:03	10	62	0.1	61	62	421	0.3	420	422	20.4	70.1
2022-10-17T15:04	10	61	0.2	61	62	421	0.5	420	422	20.4	70.0
2022-10-17T15:05	10	61	0.2	60	61	421	0.3	420	421	20.4	69.8
2022-10-17T15:06	10	60	0.1	60	60	421	0.6	419	422	20.4	70.2
2022-10-17T15:07	10	59	0.2	59	60	420	0.3	419	421	20.3	70.1
2022-10-17T15:08	10	59	0.1	59	59	420	0.4	419	420	20.3	70.0
2022-10-17T15:09	10	59	0.2	58	59	419	0.3	418	420	20.3	69.3
2022-10-17T15:10	10	58	0.3	57	59	419	0.3	418	419	20.3	69.4
2022-10-17T15:11	10	57	0.1	57	58	419	0.3	418	420	20.4	69.4
2022-10-17T15:12	10	57	0.2	57	57	419	0.2	418	419	20.3	69.7
2022-10-17T15:13	10	57	0.2	56	57	418	0.3	418	419	20.3	69.3
2022-10-17T15:14	10	56	0.2	56	56	418	0.3	417	419	20.3	69.0
2022-10-17T15:15	10	56	0.2	55	56	417	0.2	417	418	20.3	69.2
2022-10-17T15:16	10	55	0.2	55	55	418	0.3	417	418	20.3	69.2
2022-10-17T15:17	10	54	0.5	53	55	417	0.2	416	417	20.3	69.0
2022-10-17T15:18	10	52	0.5	51	53	417	0.3	416	417	20.2	68.8
2022-10-17T15:19	10	50	0.7	49	51	416	0.2	416	417	20.2	69.0
2022-10-17T15:20	10	48	0.6	47	49	416	0.3	415	416	20.3	69.3
2022-10-17T15:21	10	47	0.3	46	47	415	0.3	415	416	20.3	69.3
2022-10-17T15:22	10	46	0.1	46	46	415	0.2	414	415	20.2	69.2
2022-10-17T15:23	10	45	0.5	44	46	415	0.3	414	415	20.2	69.4
2022-10-17T15:24	10	46	1.0	44	47	415	0.3	414	416	20.2	69.3
2022-10-17T15:25	10	48	0.2	47	48	415	0.3	415	416	20.2	69.1
2022-10-17T15:26	10	48	0.2	47	48	415	0.5	414	416	20.2	69.5
2022-10-17T15:27	10	47	0.4	46	48	414	0.5	413	415	20.1	69.3
2022-10-17T15:28	10	46	0.3	45	46	414	0.2	413	414	20.1	69.4
2022-10-17T15:29	10	45	0.2	44	45	413	0.4	412	414	20.1	70.0
2022-10-17T15:30	10	44	0.3	43	45	413	0.3	413	414	20.0	70.1
2022-10-17T15:31	10	43	0.3	43	44	413	0.3	412	414	20.0	70.3
2022-10-17T15:32	10	42	0.2	42	43	413	0.3	412	413	20.0	70.4
2022-10-17T15:33	10	42	0.3	41	42	412	0.5	411	413	19.9	70.1
2022-10-17T15:34	10	40	0.5	40	41	412	0.4	411	413	19.9	70.7
2022-10-17T15:35	10	39	0.7	37	40	412	0.3	411	412	19.9	70.4
2022-10-17T15:36	10	36	0.5	35	37	411	0.5	410	412	19.9	70.1
2022-10-17T15:37	10	36	0.7	35	37	410	0.2	410	411	19.8	69.9
2022-10-17T15:38	10	38	0.2	37	38	410	0.2	410	410	19.8	69.3
2022-10-17T15:39	10	37	0.3	36	38	410	0.2	409	410	19.8	69.2
2022-10-17T15:40	10	36	0.2	36	37	409	0.3	409	410	19.8	69.6
2022-10-17T15:41	10	36	0.3	35	36	409	0.3	408	410	19.8	70.3
2022-10-17T15:42	10	35	0.2	34	35	409	0.3	409	410	19.8	70.9
2022-10-17T15:43	10	34	0.2	34	35	409	0.3	408	409	19.7	71.3
2022-10-17T15:44	10	33	0.2	33	34	409	0.4	408	410	19.7	71.1
2022-10-17T15:45	10	33	0.2	32	33	409	0.4	407	409	19.7	70.8
2022-10-17T15:46	10	32	0.3	31	33	408	0.2	408	409	19.8	69.9
2022-10-17T15:47	10	31	0.5	30	32	408	0.4	407	409	19.8	70.2
2022-10-17T15:48	10	29	0.6	28	30	408	0.2	407	408	19.8	70.0
2022-10-17T15:49	10	27	0.4	26	28	407	0.4	406	408	19.8	69.7
2022-10-17T15:50	10	27	0.5	27	28	407	0.3	406	408	19.8	70.1
2022-10-17T15:51	10	28	0.2	27	28	406	0.4	406	407	19.7	70.7
2022-10-17T15:52	10	27	0.2	27	28	406	0.3	405	407	19.8	70.4
2022-10-17T15:53	10	26	0.3	26	27	406	0.3	405	406	19.8	70.7
2022-10-17T15:54	10	25	0.5	24	26	405	0.4	404	406	19.7	70.6
2022-10-17T15:55	10	24	0.4	23	24	405	0.2	405	406	19.7	70.8
2022-10-17T15:56	10	23	0.3	22	23	404	0.2	404	405	19.7	71.8
2022-10-17T15:57	10	22	0.4	21	22	404	0.4	403	405	19.6	72.1
2022-10-17T15:58	10	20	0.3	20	21	403	0.3	403	404	19.6	72.0
2022-10-17T15:59	10	19	0.3	19	20	403	0.4	402	404	19.5	72.1
2022-10-17T16:00	10	18	0.4	17	19	403	0.3	402	403	19.5	72.2
2022-10-17T16:01	10	17	0.2	17	17	402	0.3	401	403	19.4	72.7
2022-10-17T16:02	10	16	0.2	16	17	402	0.2	401	402	19.5	72.7
2022-10-17T16:03	10	15	0.3	15	16	401	0.2	401	402	19.4	73.0
2022-10-17T16:04	10	14	0.5	13	15	401	0.4	400	402	19.4	72.9
2022-10-17T16:05	10	13	0.4	12	14	400	0.3	400	401	19.4	72.8
2022-10-17T16:06	10	12	0.3	11	13	400	0.3	399	400	19.4	72.8
2022-10-17T16:07	10	11	0.2	11	12	400	0.2	399	400	19.4	72.8
2022-10-17T16:08	10	10	0.4	9	11	400	0.3	399	401	19.4	73.2
2022-10-17T16:09	10	9	0.4	8	10	399	0.4	399	400	19.4	73.4
2022-10-17T16:10	10	8	0.2	8	9	398	0.4	397	399	19.3	73.6
2022-10-17T16:11	10	7	0.2	7	8	397	0.4	397	398	19.2	73.9
2022-10-17T16:12	10	7	0.2	7	7	396	0.2	396	397	19.2	74.1
2022-10-17T16:13	10	7	0.2	6	7	396	0.3	395	397	19.2	74.2
2022-10-17T16:14	10	6	0.2	5	6	395	0.2	394	396	19.1	74.4
2022-10-17T16:15	10	5	0.1	5	6	395	0.3	394	396	19.1	74.1
2022-10-17T16:16	10	5	0.1	5	5	395	0.2	394	395	19.0	74.3
2022-10-17T16:17	10	5	0.1	4	5	395	0.3	394	395	19.1	74.2
2022-10-17T16:18	10	4	0.2	4	4	394	0.2	394	395	19.1	73.7
2022-10-17T16:19	10	4	0.2	3	4	394	0.3	394	395	19.0	73.7
2022-10-17T16:20	10	3	0.1	3	3	394	0.2	393	394	19.0	74.6
2022-10-17T16:21	10	3	0.1	2	3	393	0.2	393	394	18.9	74.6
2022-10-17T16:22	10	2	0.1	2	3	393	0.3	392	394	18.9	75.4
2022-10-17T16:23	10	2	0.1	2	2	392	0.3	391	393	18.7	76.4
2022-10-17T16:24	10	2	0.1	2	2	392	0.2	391	392	18.5	77.7
2022-10-17T16:25	10	2	0.1	2	2	391	0.2	391	392	18.5	77.8
2022-10-17T16:26	10	2	0.1	1	2	391	0.2	390	391	18.5	78.3
2022-10-17T16:27	10	1	0.1	1	2	390	0.2	390	391	18.5	78.4
2022-10-17T16:28	10	1	0.1	1	2	390	0.3	390	391	18.5	78.3
2022-10-17T16:29	10	1	0.1	1	1	390	0.3	390	391	18.6	78.1
2022-10-17T16:30	10	1	0.2	1	1	390	0.2	390	391	18.6	78.0
2022-10-17T16:31	10	1	0.1	1	1	390	0.2	390	391	18.5	78.7
2022-10-17T16:32	10	1	0.1	1	1	390	0.2	390	391	18.4	79.3
2022-10-17T16:33	10	1	0.1	1	1	390	0.3	389	390	18.3	79.9
2022-10-17T16:34	10	1	0.1	0	1	390	0.3	389	390	18.2	80.6
2022-10-17T16:35	10	0	0.1	0	1	389	0.2	389	390	18.1	81.0
2022-10-17T16:36	10	0	0.1	0	1	389	0.3	388	390	18.1	81.3
2022-10-17T16:37	10	0	0.1	0	0	389	0.3	388	390	18.0	81.7
2022-10-17T16:38	10	0	0.1	0	0	389	0.2	388	389	18.0	82.0
2022-10-17T16:39	10	0	0.1	0	0	388	0.2	388	389	18.0	81.7
2022-10-17T16:40	10	0	0.1	0	0	388	0.4	388	389	18.2	80.4
2022-10-17T16:41	10	0	0.1	0	0	389	0.2	388	389	18.1	80.1
2022-10-17T16:42	10	0	0.1	0	0	388	0.3	388	389	18.1	80.6
2022-10-17T16:43	10	0	0.1	0	0	388	0.2	388	389	18.2	79.7
2022-10-17T16:44	10	1	0.1	1	1	387	0.2	387	388	18.1	79.8
2022-10-17T16:45	10	1	0.1	0	1	387	0.2	386	387	17.9	81.2
2022-10-17T16:46	10	1	0.1	0	1	387	0.2	386	387	17.9	81.0
2022-10-17T16:47	10	1	0.2	0	1	386	0.2	386	387	18.1	80.2
2022-10-17T16:48	10	1	0.1	0	1	385	0.4	384	386	18.1	79.6
2022-10-17T16:49	10	1	0.2	0	1	385	0.3	384	386	18.0	80.2
2022-10-17T16:50	10	1	0.1	0	1	385	0.3	384	385	17.8	80.9
2022-10-17T16:51	10	1	0.1	0	1	384	0.2	384	385	17.8	81.2
2022-10-17T16:52	10	1	0.1	0	1	384	0.2	384	385	17.8	81.1
2022-10-17T16:53	10	1	0.1	0	1	384	0.2	384	385	18.0	79.8
2022-10-17T16:54	10	1	0.1	0	1	385	0.4	384	385	18.1	79.3
2022-10-17T16:55	10	1	0.1	0	1	385	0.3	384	385	18.1	79.1
2022-10-17T16:56	10	1	0.1	0	1	384	0.2	384	385	18.0	79.1
2022-10-17T16:57	10	1	0.1	1	1	384	0.3	384	385	18.0	78.9
2022-10-17T16:58	10	1	0.1	1	1	383	0.4	383	384	17.9	79.3
2022-10-17T16:59	10	1	0.1	1	1	383	0.2	382	383	17.5	81.2
2022-10-17T17:00	10	1	0.1	1	1	383	0.3	382	384	17.5	82.1
2022-10-17T17:01	10	1	0.1	1	1	383	0.2	383	384	17.4	82.9
2022-10-17T17:02	10	1	0.1	1	1	384	0.2	383	384	17.2	83.1
2022-10-17T17:03	10	1	0.1	0	1	384	0.2	383	384	17.4	82.7
2022-10-17T17:04	10	1	0.1	0	1	383	0.3	383	384	17.5	81.8
2022-10-17T17:05	10	1	0.1	0	1	383	0.3	383	384	17.7	81.0
2022-10-17T17:06	10	1	0.1	0	1	383	0.3	383	384	17.7	80.9
2022-10-17T17:07	10	1	0.1	0	1	383	0.2	383	383	17.7	80.8
2022-10-17T17:08	10	1	0.1	0	1	383	0.2	382	383	17.6	80.8
2022-10-17T17:09	10	1	0.1	0	1	382	0.3	382	383	17.5	81.3
2022-10-17T17:10	10	1	0.1	1	1	382	0.3	381	383	17.4	82.7
2022-10-17T17:11	10	1	0.1	0	1	381	0.3	380	382	17.2	83.7
2022-10-17T17:12	10	1	0.1	0	1	380	0.3	380	381	17.1	84.3
2022-10-17T17:13	10	1	0.1	0	1	380	0.2	379	380	17.1	84.4
2022-10-17T17:14	10	1	0.1	0	1	380	0.5	380	381	17.2	84.5
2022-10-17T17:15	10	1	0.1	0	1	382	0.7	381	383	17.7	82.6
2022-10-17T17:16	10	1	0.1	0	1	383	0.5	382	384	18.2	78.5
2022-10-17T17:17	10	1	0.1	1	1	384	0.3	383	385	18.4	77.2
2022-10-17T17:18	10	0	0.1	0	0	383	0.4	382	384	18.3	77.3
2022-10-17T17:19	10	0	0.1	0	1	381	1.0	380	383	17.4	79.2
2022-10-17T17:20	10	0	0.1	0	0	382	0.6	381	383	16.7	83.0
2022-10-17T17:21	10	0	0.1	0	0	382	0.4	381	382	17.0	83.9
2022-10-17T17:22	10	0	0.1	0	0	381	0.2	381	382	17.2	82.8
2022-10-17T17:23	10	1	0.1	1	1	381	0.4	381	382	17.3	81.3
2022-10-17T17:24	10	1	0.1	1	1	382	0.2	381	382	17.4	81.4
2022-10-17T17:25	10	1	0.1	1	1	382	0.2	382	382	17.5	80.4
2022-10-17T17:26	10	1	0.1	1	1	382	0.4	381	383	17.3	81.2
2022-10-17T17:27	10	1	0.1	1	1	382	0.7	381	383	17.0	83.0
2022-10-17T17:28	10	1	0.1	0	1	384	0.3	383	384	17.3	83.6
2022-10-17T17:29	10	0	0.1	0	1	384	0.2	383	384	17.4	82.9
2022-10-17T17:30	10	0	0.1	0	1	384	0.3	383	384	17.4	81.9
2022-10-17T17:31	10	0	0.1	0	1	383	0.3	382	384	17.6	81.4
2022-10-17T17:32	10	0	0.1	0	1	383	0.2	382	383	17.6	80.8
2022-10-17T17:33	10	1	0.2	0	1	382	0.2	382	383	17.7	80.4
2022-10-17T17:34	10	1	0.2	0	1	382	0.2	382	383	17.7	80.0
2022-10-17T17:35	10	1	0.2	1	1	382	0.2	381	382	17.6	80.2
2022-10-17T17:36	10	1	0.2	1	2	381	0.4	380	382	17.4	80.7
2022-10-17T17:37	10	1	0.1	1	1	381	0.5	380	382	17.3	81.3
2022-10-17T17:38	10	1	0.2	1	1	380	0.3	379	381	16.8	82.7
2022-10-17T17:39	10	1	0.2	1	1	380	0.2	379	380	16.7	84.4
2022-10-17T17:40	10	1	0.2	1	2	379	0.5	378	380	16.7	84.9
2022-10-17T17:41	10	1	0.1	1	1	378	0.3	377	379	16.4	85.8
2022-10-17T17:42	10	1	0.1	1	1	377	0.3	377	378	16.3	86.3
2022-10-17T17:43	10	1	0.1	0	1	377	0.2	377	378	16.3	86.7
2022-10-17T17:44	10	1	0.1	0	1	378	0.3	378	379	16.3	87.1
2022-10-17T17:45	10	0	0.1	0	1	379	0.4	378	380	16.4	86.9
2022-10-17T17:46	10	0	0.1	0	0	379	0.2	379	380	16.5	86.4
2022-10-17T17:47	10	0	0.1	0	0	380	0.2	379	380	16.6	86.0
2022-10-17T17:48	10	0	0.1	0	0	379	0.2	379	380	16.6	85.4
2022-10-17T17:49	10	0	0.1	0	0	379	0.4	378	380	16.4	85.5
2022-10-17T17:50	10	0	0.1	0	0	379	0.2	379	380	16.2	86.0
2022-10-17T17:51	10	0	0.1	0	0	379	0.3	379	380	16.1	87.0
2022-10-17T17:52	10	0	0.1	0	0	379	0.3	379	380	16.2	87.0
2022-10-17T17:53	10	0	0.1	0	0	379	0.3	378	380	16.4	87.2
2022-10-17T17:54	10	0	0.1	0	0	379	0.4	378	379	16.4	86.9
2022-10-17T17:55	10	0	0.1	0	0	377	0.4	377	378	16.3	86.9
2022-10-17T17:56	10	0	0.1	0	0	377	0.2	377	378	16.1	87.6
2022-10-17T17:57	10	0	0.1	0	1	377	0.2	376	377	15.9	87.9
2022-10-17T17:58	10	0	0.1	0	1	378	0.7	377	379	16.1	88.0
2022-10-17T17:59	10	0	0.1	0	1	378	0.3	377	378	16.3	87.4
2022-10-17T18:00	10	1	0.1	0	1	378	0.8	376	379	16.2	86.9
2022-10-17T18:01	10	0	0.1	0	1	378	0.3	377	379	16.3	87.0
2022-10-17T18:02	10	1	0.1	0	1	377	0.7	376	379	16.4	86.7
2022-10-17T18:03	10	1	0.1	0	1	377	0.3	376	378	16.3	86.3
2022-10-17T18:04	10	1	0.1	0	1	377	0.4	376	378	16.2	86.9
2022-10-17T18:05	10	1	0.1	0	1	378	0.3	377	378	16.4	86.8
2022-10-17T18:06	10	0	0.1	0	1	379	0.7	377	380	16.3	86.7
2022-10-17T18:07	10	0	0.1	0	1	379	0.2	378	379	16.2	86.8
2022-10-17T18:08	10	0	0.1	0	1	378	0.5	377	379	16.1	87.1
2022-10-17T18:09	10	0	0.1	0	0	378	0.3	377	379	16.0	87.7
2022-10-17T18:10	10	0	0.1	0	1	379	0.5	377	380	16.4	87.1
2022-10-17T18:11	10	0	0.1	0	1	379	0.3	379	380	16.5	86.2
2022-10-17T18:12	10	1	0.1	0	1	379	0.4	379	380	16.5	86.1
2022-10-17T18:13	10	1	0.1	0	1	379	0.2	378	380	16.4	86.1
2022-10-17T18:14	10	1	0.1	1	1	379	0.5	378	380	16.4	86.3
2022-10-17T18:15	10	1	0.1	1	1	378	0.4	377	379	16.2	86.2
2022-10-17T18:16	10	1	0.1	1	1	377	0.3	377	378	15.9	86.8
2022-10-17T18:17	10	1	0.1	1	1	377	0.3	376	378	16.0	87.8
2022-10-17T18:18	10	1	0.1	1	1	376	0.5	375	377	15.9	87.6
2022-10-17T18:19	10	1	0.1	1	1	375	0.4	375	376	15.4	88.5
2022-10-17T18:20	10	1	0.1	1	1	376	0.3	375	377	15.4	89.4
2022-10-17T18:21	10	1	0.1	0	1	375	0.3	375	376	15.4	89.6
2022-10-17T18:22	10	0	0.1	0	1	375	0.3	374	376	15.4	89.9
2022-10-17T18:23	10	0	0.1	0	1	375	0.2	375	376	15.4	89.8
2022-10-17T18:24	10	0	0.1	0	0	375	0.2	375	376	15.3	90.1
2022-10-17T18:25	10	0	0.1	0	0	375	0.3	374	376	15.3	90.3
2022-10-17T18:26	10	0	0.1	0	0	375	0.3	375	376	15.3	90.5
2022-10-17T18:27	10	0	0.1	0	0	375	0.2	375	376	15.4	90.3
2022-10-17T18:28	10	0	0.1	0	0	376	0.2	375	376	15.4	90.3
2022-10-17T18:29	10	0	0.1	0	0	375	0.3	375	376	15.4	90.1
2022-10-17T18:30	10	0	0.1	0	0	375	0.2	375	376	15.3	90.0
2022-10-17T18:31	10	0	0.1	0	0	376	0.3	375	377	15.4	90.2
2022-10-17T18:32	10	0	0.1	0	1	376	0.4	375	376	15.4	90.1
2022-10-17T18:33	10	0	0.1	0	0	376	0.3	375	376	15.4	90.0
2022-10-17T18:34	10	0	0.1	0	1	375	0.3	375	376	15.4	90.0
2022-10-17T18:35	10	0	0.1	0	0	375	0.3	375	376	15.4	90.2
2022-10-17T18:36	10	0	0.2	0	1	375	0.2	375	376	15.5	90.0
2022-10-17T18:37	10	0	0.1	0	1	375	0.2	374	376	15.6	89.7
2022-10-17T18:38	10	0	0.1	0	1	375	0.3	375	376	15.6	89.3
2022-10-17T18:39	10	0	0.2	0	1	375	0.3	374	376	15.5	89.2
2022-10-17T18:40	10	0	0.2	0	1	375	0.3	374	375	15.6	89.1
2022-10-17T18:41	10	0	0.1	0	1	375	0.2	374	375	15.7	88.4
2022-10-17T18:42	10	1	0.2	0	1	374	0.3	373	375	15.7	88.3
2022-10-17T18:43	10	1	0.2	0	1	374	0.2	374	375	15.9	87.9
2022-10-17T18:44	10	1	0.2	0	1	375	0.3	374	375	15.9	87.6
2022-10-17T18:45	10	1	0.2	0	1	375	0.4	374	376	16.2	87.2
2022-10-17T18:46	10	1	0.2	0	1	374	0.2	374	375	16.2	87.0
2022-10-17T18:47	10	1	0.1	1	1	374	0.3	374	375	16.1	87.0
2022-10-17T18:48	10	1	0.1	1	1	375	0.4	374	375	16.0	87.1
2022-10-17T18:49	10	1	0.1	0	1	375	0.3	374	375	16.0	87.3
2022-10-17T18:50	10	1	0.2	0	1	376	0.3	375	376	16.1	87.2
2022-10-17T18:51	10	1	0.2	0	1	375	0.1	375	376	16.2	86.9
2022-10-17T18:52	10	1	0.1	0	1	376	0.2	375	376	16.2	86.8
2022-10-17T18:53	10	1	0.1	1	1	376	0.2	375	376	16.2	86.8
2022-10-17T18:54	10	1	0.1	1	1	376	0.2	375	376	16.1	86.9
2022-10-17T18:55	10	1	0.1	1	1	376	0.2	375	376	16.1	86.9
2022-10-17T18:56	10	1	0.1	1	1	375	0.3	375	376	16.0	87.0
2022-10-17T18:57	10	1	0.1	0	1	375	0.2	374	376	15.9	87.1
2022-10-17T18:58	10	1	0.1	1	1	374	0.3	374	375	15.8	87.2
2022-10-17T18:59	10	1	0.1	1	1	374	0.2	373	374	15.6	87.7
2022-10-17T19:00	10	1	0.1	1	1	374	0.2	373	374	15.6	88.0
2022-10-17T19:01	10	1	0.6	1	5	373	0.2	373	374	15.6	88.2
2022-10-17T19:02	10	1	0.1	1	1	373	0.2	373	374	15.5	88.2
2022-10-17T19:03	10	1	0.1	1	1	373	0.9	372	375	15.5	88.6
2022-10-17T19:04	10	1	0.1	1	1	373	0.3	373	374	15.5	88.9
2022-10-17T19:05	10	1	0.1	1	1	374	0.4	373	374	15.8	88.6
2022-10-17T19:06	10	1	0.1	1	1	373	0.4	373	374	16.0	87.4
2022-10-17T19:07	10	1	0.1	1	1	374	0.3	373	374	16.1	86.7
2022-10-17T19:08	10	1	0.1	1	1	374	0.6	373	375	16.1	86.0
2022-10-17T19:09	10	1	0.1	1	1	375	0.3	374	376	16.0	85.9
2022-10-17T19:10	10	1	0.1	1	1	375	0.4	374	376	16.1	85.7
2022-10-17T19:11	10	1	0.1	1	1	375	0.4	375	376	15.8	85.9
2022-10-17T19:12	10	1	0.1	0	1	375	0.4	374	376	15.5	86.7
2022-10-17T19:13	10	1	0.1	0	1	375	0.3	374	375	15.1	87.3
2022-10-17T19:14	10	0	0.1	0	0	374	0.3	373	375	14.8	88.7
2022-10-17T19:15	10	0	0.1	0	0	374	0.4	373	374	14.6	89.9
2022-10-17T19:16	10	0	0.1	0	0	373	0.2	373	374	14.6	90.5
2022-10-17T19:17	10	0	0.1	0	0	373	0.3	373	374	14.8	90.7
2022-10-17T19:18	10	0	0.1	0	0	373	0.2	372	374	14.8	90.6
2022-10-17T19:19	10	0	0.1	0	0	373	0.4	372	373	14.7	90.7
2022-10-17T19:20	10	0	0.7	0	4	373	0.2	372	373	14.8	91.0
2022-10-17T19:21	10	0	0.1	0	1	372	0.2	372	373	14.7	90.7
2022-10-17T19:22	10	0	0.1	0	1	372	0.2	372	373	14.6	90.9
2022-10-17T19:23	10	0	0.1	0	1	372	0.2	372	373	14.6	91.0
2022-10-17T19:24	10	1	0.1	0	1	372	0.3	372	373	14.9	91.0
2022-10-17T19:25	10	1	0.1	1	1	372	0.2	371	372	15.0	90.3
2022-10-17T19:26	10	1	0.1	0	1	372	0.4	371	372	15.0	90.0
2022-10-17T19:27	10	1	0.1	1	1	371	0.3	371	372	14.9	89.9
2022-10-17T19:28	10	1	0.1	1	1	371	0.3	371	372	14.8	90.2
2022-10-17T19:29	10	1	0.1	0	1	372	0.2	372	373	14.8	90.4
2022-10-17T19:30	10	1	0.1	0	1	373	0.3	372	373	14.8	90.6
2022-10-17T19:31	10	0	0.1	0	1	373	0.3	372	374	14.8	90.8
2022-10-17T19:32	10	0	0.1	0	1	373	0.2	372	373	14.7	90.7
2022-10-17T19:33	10	0	0.6	0	5	373	0.4	372	373	14.5	90.6
2022-10-17T19:34	10	0	0.1	0	0	372	0.4	372	373	14.6	90.5
2022-10-17T19:35	10	0	0.1	0	0	372	0.3	371	373	14.5	90.0
2022-10-17T19:36	10	0	0.1	0	0	372	0.3	371	373	14.4	90.1
2022-10-17T19:37	10	0	0.1	0	0	372	0.2	372	373	14.5	89.8
2022-10-17T19:38	10	0	0.1	0	0	373	0.6	372	374	14.6	89.0
2022-10-17T19:39	10	0	0.1	0	0	373	0.5	372	374	14.5	88.8
2022-10-17T19:40	10	0	0.1	0	0	373	0.3	373	374	14.5	89.0
2022-10-17T19:41	10	0	0.6	0	4	373	0.3	372	373	14.4	89.0
2022-10-17T19:42	10	0	0.1	0	1	373	0.3	372	373	14.1	89.6
2022-10-17T19:43	10	0	0.1	0	0	373	0.2	372	373	14.1	90.2
2022-10-17T19:44	10	0	0.1	0	1	373	0.3	372	373	13.9	90.8
2022-10-17T19:45	10	0	0.1	0	0	373	0.2	373	374	14.0	91.5
2022-10-17T19:46	10	0	0.1	0	0	373	0.3	373	374	14.0	91.7
2022-10-17T19:47	10	0	0.1	0	0	374	0.2	373	374	14.1	91.3
2022-10-17T19:48	10	0	0.1	0	0	373	0.4	373	374	14.1	91.3
2022-10-17T19:49	10	0	0.1	0	0	373	0.2	373	373	14.1	91.5
2022-10-17T19:50	10	0	0.1	0	1	374	0.2	373	374	14.2	91.1
2022-10-17T19:51	10	0	0.1	0	1	374	0.3	373	374	14.2	90.4
2022-10-17T19:52	10	0	0.1	0	0	374	0.3	373	374	14.4	90.3
2022-10-17T19:53	10	0	0.1	0	0	374	0.4	373	375	14.4	89.1
2022-10-17T19:54	10	1	0.1	0	1	374	0.3	373	375	14.3	88.7
2022-10-17T19:55	10	1	0.1	0	1	373	0.3	373	374	14.3	88.6
2022-10-17T19:56	10	1	0.1	1	1	373	0.4	372	374	14.3	88.9
2022-10-17T19:57	10	1	0.1	0	1	373	0.4	372	374	14.2	89.3
2022-10-17T19:58	10	0	0.1	0	1	374	0.2	373	374	14.3	89.7
2022-10-17T19:59	10	0	0.1	0	1	373	0.2	373	374	14.4	89.4
2022-10-17T20:00	10	0	0.1	0	1	373	0.3	373	374	14.5	89.2
2022-10-17T20:01	10	0	0.1	0	1	373	0.2	373	374	14.5	88.8
2022-10-17T20:02	10	0	0.1	0	0	373	0.3	372	373	14.5	88.5
2022-10-17T20:03	10	0	0.1	0	0	373	0.3	372	374	14.4	88.5
2022-10-17T20:04	10	0	0.1	0	0	373	0.4	372	374	14.5	88.3
2022-10-17T20:05	10	0	0.1	0	0	373	0.4	373	374	14.4	88.0
2022-10-17T20:06	10	0	0.1	0	0	373	0.2	373	374	14.5	87.5
2022-10-17T20:07	10	0	0.1	0	0	374	0.3	373	374	14.6	87.0
2022-10-17T20:08	10	0	0.1	0	1	374	0.5	373	375	14.8	85.7
2022-10-17T20:09	10	0	0.1	0	1	374	0.3	374	375	14.9	84.6
2022-10-17T20:10	10	1	0.1	0	1	375	0.4	374	376	15.0	84.3
2022-10-17T20:11	10	1	0.1	1	1	376	0.2	375	376	14.9	84.0
2022-10-17T20:12	10	1	0.1	1	1	375	0.3	374	376	14.6	84.8
2022-10-17T20:13	10	1	0.1	1	1	374	0.3	374	375	14.5	85.8
2022-10-17T20:14	10	1	0.1	0	1	374	0.2	374	375	14.6	85.4
2022-10-17T20:15	10	1	0.1	0	1	374	0.2	374	375	14.6	85.1
2022-10-17T20:16	10	1	0.1	0	1	374	0.3	373	375	14.6	85.2
2022-10-17T20:17	10	1	0.2	0	1	374	0.4	373	375	14.3	85.7
2022-10-17T20:18	10	0	0.1	0	1	374	0.4	374	375	14.6	85.9
2022-10-17T20:19	10	0	0.1	0	1	375	0.3	374	375	14.8	84.8
2022-10-17T20:20	10	1	0.1	0	1	374	0.3	374	375	14.8	84.5
2022-10-17T20:21	10	1	0.1	1	1	374	0.4	373	375	14.7	84.3
2022-10-17T20:22	10	1	0.1	0	1	374	0.4	373	374	14.5	85.1
2022-10-17T20:23	10	1	0.1	1	1	374	0.3	373	374	14.3	85.8
2022-10-17T20:24	10	1	0.1	0	1	374	0.4	374	375	14.2	86.6
2022-10-17T20:25	10	1	0.1	0	1	375	0.4	375	376	14.2	87.0
2022-10-17T20:26	10	1	0.1	0	1	376	0.3	375	377	14.1	87.4
2022-10-17T20:27	10	1	0.2	0	1	376	0.4	376	377	14.1	87.5
2022-10-17T20:28	10	1	0.2	0	1	376	0.2	376	377	14.1	87.8
2022-10-17T20:29	10	1	0.1	0	1	377	0.3	376	378	14.1	87.9
2022-10-17T20:30	10	1	0.2	0	1	377	0.4	376	378	14.1	88.1
2022-10-17T20:31	10	1	0.2	0	1	377	0.4	376	378	14.2	87.9
2022-10-17T20:32	10	1	0.2	1	1	378	0.4	377	379	14.3	87.1
2022-10-17T20:33	10	1	0.1	1	1	378	0.4	377	378	14.4	86.2
2022-10-17T20:34	10	1	0.2	1	1	378	0.4	377	378	14.3	86.0
2022-10-17T20:35	10	1	0.2	1	2	378	0.4	377	379	14.4	86.2
2022-10-17T20:36	10	1	0.1	1	2	377	0.4	377	378	14.4	85.5
2022-10-17T20:37	10	1	0.2	1	2	377	0.4	376	378	14.4	85.8
2022-10-17T20:38	10	1	0.1	1	1	378	0.3	377	378	14.4	85.9
2022-10-17T20:39	10	1	0.2	1	2	378	0.3	377	378	14.6	85.0
2022-10-17T20:40	10	1	0.2	1	2	378	0.2	377	378	14.6	84.3
2022-10-17T20:41	10	1	0.2	1	1	377	0.2	377	378	14.3	85.2
2022-10-17T20:42	10	1	0.2	0	1	377	0.3	377	378	14.3	86.1
2022-10-17T20:43	10	1	0.2	0	1	377	0.2	377	378	14.3	86.0
2022-10-17T20:44	10	1	0.2	0	1	377	0.3	377	378	14.3	85.9
2022-10-17T20:45	10	1	0.2	0	1	377	0.3	376	378	14.3	85.9
2022-10-17T20:46	10	1	0.2	0	1	377	0.4	376	378	14.4	85.5
2022-10-17T20:47	10	1	0.2	0	1	377	0.4	376	378	14.5	85.4
2022-10-17T20:48	10	1	0.1	0	1	377	0.3	377	378	14.2	86.1
2022-10-17T20:49	10	1	0.1	0	1	378	0.4	377	379	14.1	87.0
2022-10-17T20:50	10	1	0.2	0	1	378	0.3	377	378	14.0	87.7
2022-10-17T20:51	10	1	0.2	0	1	378	0.3	377	378	13.9	88.2
2022-10-17T20:52	10	1	0.2	0	1	378	0.3	377	379	13.8	88.9
2022-10-17T20:53	10	1	0.1	1	1	378	0.3	377	379	13.9	89.1
2022-10-17T20:54	10	1	0.2	0	1	378	0.2	378	379	13.9	88.8
2022-10-17T20:55	10	1	0.1	0	1	379	0.2	378	379	14.0	88.5
2022-10-17T20:56	10	1	0.2	1	1	379	0.2	378	379	14.1	88.2
2022-10-17T20:57	10	1	0.1	1	1	379	0.2	378	380	14.0	88.6
2022-10-17T20:58	10	1	0.1	1	1	379	0.3	378	379	14.1	88.6
2022-10-17T20:59	10	1	0.2	1	1	379	0.2	378	379	13.9	88.9
2022-10-17T21:00	10	1	0.2	0	1	379	0.3	378	379	13.9	89.3
2022-10-17T21:01	10	1	0.1	0	1	379	0.6	378	380	13.7	89.5
2022-10-17T21:02	10	1	0.2	0	1	378	0.3	377	379	13.4	90.7
2022-10-17T21:03	10	0	0.2	0	1	378	0.3	377	378	13.3	91.4
2022-10-17T21:04	10	0	0.2	0	1	378	0.2	377	378	13.5	91.3
2022-10-17T21:05	10	0	0.1	0	1	378	0.2	378	379	13.4	91.1
2022-10-17T21:06	10	0	0.1	0	1	379	0.2	378	380	13.8	91.0
2022-10-17T21:07	10	1	0.2	0	1	379	0.2	378	379	14.2	88.8
2022-10-17T21:08	10	1	0.1	1	1	379	0.2	379	380	14.2	87.9
2022-10-17T21:09	10	1	0.1	1	1	380	0.3	379	380	14.4	87.1
2022-10-17T21:10	10	1	0.1	1	1	380	0.2	379	380	14.5	86.2
2022-10-17T21:11	10	1	0.1	1	1	379	0.2	379	380	14.3	85.9
2022-10-17T21:12	10	1	0.1	1	1	379	0.2	379	380	13.8	88.0
2022-10-17T21:13	10	1	0.1	1	1	379	0.2	378	379	13.8	89.2
2022-10-17T21:14	10	1	0.1	1	1	379	0.2	379	380	14.0	88.8
2022-10-17T21:15	10	1	0.1	1	1	380	0.3	379	380	14.5	87.5
2022-10-17T21:16	10	1	0.1	1	1	379	0.2	378	379	14.3	86.0
2022-10-17T21:17	10	1	0.1	1	1	380	0.3	379	380	14.2	87.6
2022-10-17T21:18	10	1	0.1	1	1	379	0.3	379	380	14.4	86.6
2022-10-17T21:19	10	1	0.1	1	2	379	0.3	379	380	14.2	87.0
2022-10-17T21:20	10	1	0.1	1	2	379	0.2	379	380	14.4	87.0
2022-10-17T21:21	10	1	0.1	1	2	379	0.2	379	380	14.7	86.1
2022-10-17T21:22	10	1	0.1	1	1	379	0.2	379	380	14.9	84.7
2022-10-17T21:23	10	1	0.1	1	2	379	0.2	379	380	14.9	83.6
2022-10-17T21:24	10	1	0.1	1	2	379	0.3	378	379	15.0	83.5
2022-10-17T21:25	10	2	0.1	1	2	378	0.3	378	379	14.9	83.6
2022-10-17T21:26	10	2	0.1	1	2	378	0.3	377	379	14.8	83.8
2022-10-17T21:27	10	1	0.1	1	2	378	0.2	377	378	14.6	84.7
2022-10-17T21:28	10	1	0.1	1	2	378	0.3	377	378	14.7	84.9
2022-10-17T21:29	10	1	0.1	1	2	377	0.3	377	378	14.5	84.9
2022-10-17T21:30	10	1	0.1	1	2	377	0.2	377	378	14.3	86.2
2022-10-17T21:31	10	1	0.1	1	2	377	0.3	377	378	14.4	86.2
2022-10-17T21:32	10	1	0.1	1	2	378	0.2	377	378	14.3	86.7
2022-10-17T21:33	10	1	0.1	1	1	378	0.2	377	378	14.4	86.3
2022-10-17T21:34	10	1	0.1	1	2	378	0.2	377	378	14.4	86.1
2022-10-17T21:35	10	1	0.1	1	1	378	0.2	378	378	14.5	85.6
2022-10-17T21:36	10	1	0.1	1	1	378	0.2	377	378	14.6	85.1
2022-10-17T21:37	10	1	0.1	1	2	378	0.2	378	379	14.7	84.7
2022-10-17T21:38	10	1	0.1	1	1	378	0.2	378	379	14.6	84.4
2022-10-17T21:39	10	1	0.1	1	1	379	0.2	378	379	14.6	84.9
2022-10-17T21:40	10	1	0.1	1	1	379	0.2	378	379	14.6	85.0
2022-10-17T21:41	10	1	0.1	1	1	379	0.2	379	379	14.6	85.1
2022-10-17T21:42	10	1	0.1	1	1	379	0.2	379	380	14.6	85.3
2022-10-17T21:43	10	1	0.1	1	1	379	0.2	378	380	14.5	85.6
2022-10-17T21:44	10	1	0.1	1	1	379	0.2	378	379	14.5	86.0
2022-10-17T21:45	10	1	0.1	1	1	379	0.2	379	380	14.4	85.9
2022-10-17T21:46	10	1	0.1	1	1	379	0.3	379	380	14.4	86.4
2022-10-17T21:47	10	1	0.1	1	1	379	0.2	379	380	14.4	86.6
2022-10-17T21:48	10	1	0.1	1	1	380	0.2	379	380	14.3	87.2
2022-10-17T21:49	10	1	0.1	1	1	379	0.3	379	380	14.2	87.8
2022-10-17T21:50	10	1	0.1	1	1	379	0.2	379	380	14.1	88.6
2022-10-17T21:51	10	1	0.1	1	1	380	0.3	379	380	14.2	89.1
2022-10-17T21:52	10	1	0.1	1	1	380	0.2	379	380	14.2	88.8
2022-10-17T21:53	10	1	0.1	1	1	380	0.2	379	380	14.3	88.3
2022-10-17T21:54	10	1	0.1	1	1	380	0.3	379	380	14.3	87.9
2022-10-17T21:55	10	1	0.1	1	1	380	0.3	379	381	14.4	87.3
2022-10-17T21:56	10	1	0.1	1	1	380	0.2	379	380	14.3	87.0
2022-10-17T21:57	10	1	0.1	1	1	380	0.2	380	380	14.3	87.6
2022-10-17T21:58	10	1	0.1	1	1	380	0.2	379	380	14.2	88.2
2022-10-17T21:59	10	1	0.1	1	1	380	0.2	380	381	14.4	88.1
2022-10-17T22:00	10	1	0.1	1	1	380	0.3	380	381	14.5	87.0
2022-10-17T22:01	10	1	0.1	1	1	380	0.3	380	381	14.6	86.8
2022-10-17T22:02	10	1	0.1	1	1	381	0.3	380	381	14.7	86.2
2022-10-17T22:03	10	1	0.1	1	1	381	0.2	380	382	14.9	85.5
2022-10-17T22:04	10	1	0.1	1	1	381	0.3	381	382	15.0	84.9
2022-10-17T22:05	10	1	0.1	1	1	381	0.2	380	381	14.9	85.1
2022-10-17T22:06	10	1	0.1	1	1	381	0.2	380	381	14.9	85.5
2022-10-17T22:07	10	1	0.1	1	1	381	0.2	380	381	14.9	85.8
2022-10-17T22:08	10	1	0.1	1	2	381	0.3	381	382	14.8	86.2
2022-10-17T22:09	10	1	0.1	1	1	381	0.2	381	382	14.8	86.4
2022-10-17T22:10	10	1	0.1	1	2	381	0.3	381	382	14.7	86.5
2022-10-17T22:11	10	1	0.1	1	2	381	0.2	380	381	14.7	86.9
2022-10-17T22:12	10	1	0.1	1	1	381	0.2	381	382	14.7	86.5
2022-10-17T22:13	10	1	0.1	1	1	381	0.6	380	382	14.8	85.4
2022-10-17T22:14	10	1	0.1	1	1	381	0.4	380	382	14.7	85.2
2022-10-17T22:15	10	1	0.1	1	1	381	0.4	380	382	14.6	85.6
2022-10-17T22:16	10	1	0.1	1	1	380	0.3	380	381	14.4	86.5
2022-10-17T22:17	10	1	0.1	1	1	381	0.2	380	381	14.4	87.1
2022-10-17T22:18	10	1	0.1	1	1	380	0.2	380	381	14.4	87.3
2022-10-17T22:19	10	1	0.1	1	1	380	0.2	380	381	14.3	87.6
2022-10-17T22:20	10	1	0.1	1	1	380	0.3	380	381	14.3	88.0
2022-10-17T22:21	10	1	0.1	1	1	380	0.4	379	381	14.4	87.6
2022-10-17T22:22	10	1	0.1	1	1	380	0.2	379	380	14.2	88.0
2022-10-17T22:23	10	1	0.1	1	1	380	0.2	379	380	14.2	88.8
2022-10-17T22:24	10	1	0.1	1	1	380	0.2	379	380	14.3	88.3
2022-10-17T22:25	10	1	0.1	1	2	379	0.3	379	380	14.3	88.0
2022-10-17T22:26	10	1	0.1	1	1	379	0.3	378	379	14.4	87.9
2022-10-17T22:27	10	1	0.1	1	1	378	0.3	377	379	14.3	87.7
2022-10-17T22:28	10	1	0.1	1	1	378	0.3	377	378	14.3	88.0
2022-10-17T22:29	10	1	0.1	1	1	377	0.2	377	378	14.2	88.4
2022-10-17T22:30	10	1	0.1	1	1	377	0.3	377	378	14.1	88.8
2022-10-17T22:31	10	1	0.1	1	1	377	0.3	376	378	14.1	89.2
2022-10-17T22:32	10	1	0.1	1	1	376	0.2	376	377	14.0	89.5
2022-10-17T22:33	10	1	0.1	1	1	377	0.3	376	377	14.0	89.8
2022-10-17T22:34	10	1	0.1	1	1	377	0.4	376	378	14.1	89.5
2022-10-17T22:35	10	0	0.1	0	1	377	0.2	376	377	13.9	89.7
2022-10-17T22:36	10	0	0.1	0	0	377	0.2	376	377	13.8	90.0
2022-10-17T22:37	10	0	0.1	0	0	377	0.3	376	377	13.7	90.3
2022-10-17T22:38	10	0	0.1	0	0	376	0.2	376	377	13.7	90.4
2022-10-17T22:39	10	0	0.1	0	0	376	0.2	376	377	13.6	90.6
2022-10-17T22:40	10	0	0.1	0	0	376	0.2	375	376	13.6	90.7
2022-10-17T22:41	10	0	0.0	0	0	376	0.1	375	376	13.6	90.7
2022-10-17T22:42	10	0	0.1	0	1	375	0.3	375	376	13.6	90.7
2022-10-17T22:43	10	0	0.1	0	0	375	0.2	375	376	13.6	90.8
2022-10-17T22:44	10	0	0.1	0	0	375	0.3	375	376	13.7	91.1
2022-10-17T22:45	10	0	0.1	0	0	375	0.2	375	376	13.8	91.0
2022-10-17T22:46	10	0	0.1	0	0	375	0.3	374	375	13.8	91.1
2022-10-17T22:47	10	0	0.1	0	1	375	0.2	374	375	13.9	91.0
2022-10-17T22:48	10	0	0.1	0	1	374	0.2	374	375	13.9	90.3
2022-10-17T22:49	10	1	0.1	1	1	374	0.3	373	374	14.0	90.0
2022-10-17T22:50	10	1	0.1	1	1	373	0.2	373	374	13.9	90.2
2022-10-17T22:51	10	1	0.1	1	1	373	0.2	373	374	14.0	90.1
2022-10-17T22:52	10	1	0.1	1	1	374	0.2	373	374	13.9	90.0
2022-10-17T22:53	10	1	0.1	1	1	374	0.2	374	374	13.8	90.6
2022-10-17T22:54	10	1	0.1	1	1	374	0.2	374	375	13.9	90.6
2022-10-17T22:55	10	1	0.1	1	1	375	0.2	374	375	13.9	90.4
2022-10-17T22:56	10	1	0.1	1	1	375	0.2	374	375	13.9	90.6
2022-10-17T22:57	10	1	0.1	1	1	375	0.3	374	375	13.8	90.7
2022-10-17T22:58	10	1	0.1	1	1	375	0.2	375	375	13.8	90.9
2022-10-17T22:59	10	1	0.1	1	1	375	0.2	375	376	13.8	90.9
2022-10-17T23:00	10	1	0.1	1	1	376	0.4	375	377	13.9	90.8
2022-10-17T23:01	10	1	0.1	1	1	376	0.3	376	377	13.9	90.6
2022-10-17T23:02	10	1	0.1	1	1	377	0.2	377	378	14.0	90.3
2022-10-17T23:03	10	1	0.1	1	1	377	0.3	377	378	14.1	90.0
2022-10-17T23:04	10	1	0.1	1	1	378	0.2	377	378	14.2	89.3
2022-10-17T23:05	10	1	0.1	1	1	378	0.2	377	378	14.3	88.5
2022-10-17T23:06	10	1	0.1	1	1	378	0.2	377	378	14.3	87.9
2022-10-17T23:07	10	1	0.1	1	1	378	0.3	377	378	14.3	87.7
2022-10-17T23:08	10	1	0.1	1	1	378	0.3	378	379	14.4	87.6
2022-10-17T23:09	10	1	0.1	1	1	378	0.2	378	379	14.6	86.8
2022-10-17T23:10	10	1	0.1	1	1	378	0.2	378	379	14.5	86.1
2022-10-17T23:11	10	1	0.1	1	1	379	0.2	378	379	14.6	86.0
2022-10-17T23:12	10	1	0.1	1	1	379	0.2	378	379	14.6	86.0
2022-10-17T23:13	10	1	0.1	1	1	379	0.2	378	379	14.4	86.6
2022-10-17T23:14	10	1	0.1	1	2	378	0.3	378	379	14.3	87.4
2022-10-17T23:15	10	1	0.1	1	1	379	0.2	379	380	14.5	87.6
2022-10-17T23:16	10	1	0.1	1	1	379	0.3	378	379	14.4	87.1
2022-10-17T23:17	10	1	0.1	1	1	379	0.2	379	380	14.6	87.1
2022-10-17T23:18	10	1	0.0	1	1	380	0.2	379	380	14.7	86.3
2022-10-17T23:19	10	1	0.1	1	1	380	0.3	379	380	14.8	85.3
2022-10-17T23:20	10	1	0.1	1	2	380	0.2	379	380	14.8	84.9
2022-10-17T23:21	10	2	0.5	1	5	380	0.2	380	380	14.9	84.6
2022-10-17T23:22	10	1	0.1	1	2	380	0.2	380	381	14.9	84.2
2022-10-17T23:23	10	1	0.1	1	2	380	0.3	379	380	14.8	84.2
2022-10-17T23:24	10	1	0.1	1	2	379	0.3	379	380	14.8	84.7
2022-10-17T23:25	10	1	0.1	1	2	379	0.2	379	380	14.8	84.9
2022-10-17T23:26	10	1	0.1	1	1	379	0.2	379	380	14.8	84.8
2022-10-17T23:27	10	1	0.1	1	1	380	0.2	379	380	14.8	84.6
2022-10-17T23:28	10	1	0.1	1	1	379	0.2	379	380	14.8	84.6
2022-10-17T23:29	10	1	0.1	1	2	379	0.2	379	380	14.8	84.8
2022-10-17T23:30	10	1	0.1	1	2	380	0.2	379	380	14.7	85.1
2022-10-17T23:31	10	1	0.1	1	2	380	0.3	379	380	14.6	85.5
2022-10-17T23:32	10	1	0.1	1	1	380	0.2	379	380	14.6	85.9
2022-10-17T23:33	10	1	0.1	1	2	380	0.2	379	380	14.6	85.7
2022-10-17T23:34	10	1	0.1	1	2	380	0.2	380	380	14.6	85.8
2022-10-17T23:35	10	1	0.0	1	2	380	0.3	380	381	14.5	86.1
2022-10-17T23:36	10	2	0.6	1	6	380	0.2	380	380	14.5	86.5
2022-10-17T23:37	10	1	0.1	1	2	380	0.2	380	380	14.4	86.9
2022-10-17T23:38	10	1	0.1	1	2	380	0.2	380	381	14.4	87.1
2022-10-17T23:39	10	1	0.1	1	2	380	0.3	379	381	14.4	87.1
2022-10-17T23:40	10	1	0.1	1	1	380	0.3	380	381	14.4	87.1
2022-10-17T23:41	10	1	0.1	1	1	380	0.3	380	381	14.4	87.2
2022-10-17T23:42	10	1	0.1	1	1	380	0.2	380	381	14.4	87.1
2022-10-17T23:43	10	1	0.1	1	1	380	0.2	380	381	14.5	86.7
2022-10-17T23:44	10	1	0.1	1	1	381	0.3	380	381	14.7	86.3
2022-10-17T23:45	10	1	0.1	1	1	381	0.2	380	381	14.8	85.5
2022-10-17T23:46	10	1	0.1	1	1	381	0.2	380	381	14.8	85.2
2022-10-17T23:47	10	1	0.1	1	1	380	0.3	380	381	14.7	85.3
2022-10-17T23:48	10	1	0.1	1	1	380	0.2	380	381	14.6	85.6
2022-10-17T23:49	10	1	0.1	1	1	380	0.2	380	381	14.6	86.0
2022-10-17T23:50	10	1	0.1	1	1	380	0.2	380	381	14.6	85.9
2022-10-17T23:51	10	1	0.1	1	1	380	0.2	380	381	14.7	85.6
2022-10-17T23:52	10	1	0.1	1	2	380	0.2	380	381	14.7	85.3
2022-10-17T23:53	10	1	0.1	1	1	380	0.2	380	381	14.8	85.0
2022-10-17T23:54	10	1	0.1	1	1	380	0.2	380	381	14.8	85.0
2022-10-17T23:55	10	1	0.1	1	1	380	0.2	380	381	14.7	85.2
2022-10-17T23:56	10	1	0.1	1	1	380	0.2	380	381	14.6	85.5
2022-10-17T23:57	10	1	0.1	1	1	380	0.2	379	380	14.6	85.8
2022-10-17T23:58	10	1	0.1	1	1	380	0.2	380	380	14.6	86.0
2022-10-17T23:59	10	1	0.1	1	1	380	0.2	379	381	14.5	86.2
2022-10-18T00:00	10	1	0.1	1	1	380	0.2	379	380	14.5	86.4
2022-10-18T00:01	10	1	0.1	1	1	379	0.3	379	380	14.5	86.6
2022-10-18T00:02	10	1	0.1	1	1	380	0.2	379	380	14.5	86.6
2022-10-18T00:03	10	1	0.1	1	1	380	0.2	379	380	14.5	86.6
2022-10-18T00:04	10	1	0.1	1	1	380	0.2	379	380	14.4	86.7
2022-10-18T00:05	10	1	0.1	1	1	380	0.3	379	380	14.5	86.8
2022-10-18T00:06	10	1	0.1	1	1	380	0.2	380	381	14.5	86.6
2022-10-18T00:07	10	1	0.1	1	1	380	0.2	380	381	14.6	86.1
2022-10-18T00:08	10	1	0.1	1	1	381	0.3	380	381	14.7	85.5
2022-10-18T00:09	10	1	0.1	1	1	381	0.3	380	381	14.8	84.9
2022-10-18T00:10	10	1	0.1	1	1	381	0.2	380	381	14.9	84.1
2022-10-18T00:11	10	1	0.1	1	2	381	0.3	380	381	15.0	83.6
2022-10-18T00:12	10	1	0.1	1	2	380	0.2	380	381	15.0	83.5
2022-10-18T00:13	10	1	0.1	1	1	380	0.3	380	381	14.9	83.8
2022-10-18T00:14	10	1	0.1	1	1	380	0.4	380	381	14.9	83.9
2022-10-18T00:15	10	1	0.1	1	1	380	0.4	379	381	14.7	84.7
2022-10-18T00:16	10	1	0.1	1	1	380	0.4	379	381	14.7	85.3
2022-10-18T00:17	10	1	0.0	1	1	380	0.3	379	381	14.6	85.3
2022-10-18T00:18	10	1	0.1	1	1	380	0.6	379	381	14.5	85.9
2022-10-18T00:19	10	1	0.1	1	1	380	0.3	379	380	14.4	86.7
2022-10-18T00:20	10	1	0.1	1	1	379	0.3	379	380	14.2	87.5
2022-10-18T00:21	10	1	0.1	1	1	379	0.2	379	379	14.1	88.3
2022-10-18T00:22	10	1	0.1	1	1	379	0.4	378	380	13.9	88.9
2022-10-18T00:23	10	1	0.1	1	1	379	0.2	378	379	13.8	89.6
2022-10-18T00:24	10	1	0.1	1	1	379	0.3	378	380	13.7	90.3
2022-10-18T00:25	10	1	0.1	1	1	379	0.2	378	379	13.7	90.4
2022-10-18T00:26	10	1	0.1	1	1	379	0.2	379	379	13.8	90.4
2022-10-18T00:27	10	1	0.1	0	1	379	0.2	378	379	13.8	90.1
2022-10-18T00:28	10	1	0.1	1	1	379	0.2	378	379	13.9	89.9
2022-10-18T00:29	10	1	0.1	1	1	379	0.2	378	379	13.8	89.9
2022-10-18T00:30	10	1	0.1	1	1	379	0.2	378	379	13.8	89.9
2022-10-18T00:31	10	1	0.1	1	1	378	0.2	378	379	13.9	89.8
2022-10-18T00:32	10	1	0.1	1	1	379	0.3	378	379	14.0	89.6
2022-10-18T00:33	10	1	0.1	1	1	378	0.2	378	379	13.9	89.6
2022-10-18T00:34	10	1	0.1	1	1	378	0.2	378	379	13.8	90.0
2022-10-18T00:35	10	1	0.1	1	1	378	0.2	378	379	13.7	90.8
2022-10-18T00:36	10	1	0.1	1	1	378	0.2	378	379	13.8	91.3
2022-10-18T00:37	10	1	0.1	1	1	379	0.2	378	379	13.8	91.4
2022-10-18T00:38	10	1	0.1	1	1	378	0.2	378	379	13.9	91.0
2022-10-18T00:39	10	1	0.1	1	1	379	0.2	378	379	14.0	90.4
2022-10-18T00:40	10	1	0.1	1	1	379	0.2	379	379	14.2	89.7
2022-10-18T00:41	10	1	0.1	1	1	379	0.2	379	379	14.3	88.9
2022-10-18T00:42	10	1	0.1	1	1	379	0.3	378	380	14.3	88.5
2022-10-18T00:43	10	1	0.0	1	1	379	0.3	378	379	14.2	88.6
2022-10-18T00:44	10	1	0.1	1	1	379	0.2	378	379	14.2	88.5
2022-10-18T00:45	10	1	0.1	1	1	379	0.3	378	380	14.2	88.8
2022-10-18T00:46	10	1	0.1	1	1	379	0.2	378	380	14.4	88.2
2022-10-18T00:47	10	1	0.1	1	1	379	0.4	378	379	14.3	88.1
2022-10-18T00:48	10	1	0.1	1	1	379	0.3	378	380	14.1	88.6
2022-10-18T00:49	10	1	0.1	1	1	379	0.2	378	379	13.9	89.3
2022-10-18T00:50	10	1	0.1	1	1	379	0.3	378	380	14.0	89.9
2022-10-18T00:51	10	1	0.1	1	1	379	0.3	378	380	14.2	89.6
2022-10-18T00:52	10	1	0.1	1	1	379	0.3	379	380	14.2	89.2
2022-10-18T00:53	10	1	0.1	1	1	379	0.2	379	380	14.2	89.0
2022-10-18T00:54	10	1	0.1	1	1	379	0.2	378	380	14.2	88.8
2022-10-18T00:55	10	1	0.1	1	1	379	0.2	379	380	14.3	88.6
2022-10-18T00:56	10	1	0.1	1	1	379	0.2	378	379	14.4	88.2
2022-10-18T00:57	10	1	0.1	1	1	379	0.3	378	379	14.3	88.3
2022-10-18T00:58	10	1	0.1	1	1	379	0.2	378	379	14.3	88.3
2022-10-18T00:59	10	1	0.1	1	1	379	0.2	378	379	14.2	88.5
2022-10-18T01:00	10	1	0.0	1	1	379	0.3	378	380	14.2	88.7
2022-10-18T01:01	10	1	0.1	1	1	379	0.2	378	379	14.3	88.6
2022-10-18T01:02	10	1	0.1	1	1	379	0.2	378	379	14.3	88.3
2022-10-18T01:03	10	1	0.1	1	1	379	0.2	378	379	14.2	88.4
2022-10-18T01:04	10	1	0.1	1	1	378	0.2	378	379	14.1	88.8
2022-10-18T01:05	10	1	0.1	1	1	378	0.2	378	379	14.1	89.1
2022-10-18T01:06	10	1	0.1	1	1	378	0.2	378	379	14.0	89.4
2022-10-18T01:07	10	1	0.1	1	1	378	0.3	378	379	14.1	89.7
2022-10-18T01:08	10	1	0.0	1	1	378	0.3	378	379	14.1	89.6
2022-10-18T01:09	10	1	0.1	1	1	378	0.2	377	378	14.1	89.5
2022-10-18T01:10	10	1	0.1	1	1	377	0.2	377	378	14.1	89.6
2022-10-18T01:11	10	1	0.1	1	1	377	0.2	377	378	14.1	89.6
2022-10-18T01:12	10	1	0.1	1	1	377	0.2	376	377	14.0	89.7
2022-10-18T01:13	10	1	0.1	1	1	377	0.3	376	377	14.0	89.8
2022-10-18T01:14	10	1	0.1	1	1	376	0.2	376	377	14.0	89.7
2022-10-18T01:15	10	1	0.0	1	1	376	0.2	376	377	13.9	89.8
2022-10-18T01:16	10	1	0.1	1	1	376	0.3	376	377	13.9	90.1
2022-10-18T01:17	10	1	0.1	1	1	376	0.2	376	377	13.9	90.3
2022-10-18T01:18	10	1	0.1	1	1	376	0.2	376	377	13.9	90.2
2022-10-18T01:19	10	1	0.1	1	1	376	0.2	376	377	13.9	90.3
2022-10-18T01:20	10	1	0.1	1	1	376	0.2	376	377	13.9	90.4
2022-10-18T01:21	10	1	0.1	1	1	376	0.2	376	376	13.9	90.5
2022-10-18T01:22	10	1	0.1	1	1	376	0.2	376	377	13.9	90.6
2022-10-18T01:23	10	1	0.1	1	1	376	0.2	376	377	13.9	90.6
2022-10-18T01:24	10	1	0.1	1	1	376	0.2	376	377	13.9	90.4
2022-10-18T01:25	10	1	0.1	1	1	376	0.2	376	377	13.9	90.3
2022-10-18T01:26	10	1	0.1	1	1	376	0.2	375	376	13.9	90.3
2022-10-18T01:27	10	1	0.1	1	1	376	0.2	376	377	13.8	90.4
2022-10-18T01:28	10	1	0.1	1	1	376	0.2	376	376	13.7	90.9
2022-10-18T01:29	10	1	0.1	1	1	376	0.3	375	376	13.7	91.2
2022-10-18T01:30	10	1	0.1	1	1	376	0.2	375	376	13.8	91.3
2022-10-18T01:31	10	1	0.1	1	1	376	0.2	375	376	13.8	91.1
2022-10-18T01:32	10	1	0.1	1	1	376	0.2	375	376	13.8	91.1
2022-10-18T01:33	10	1	0.1	1	1	376	0.2	375	376	13.8	91.2
2022-10-18T01:34	10	1	0.1	1	1	376	0.2	376	377	13.8	91.1
2022-10-18T01:35	10	1	0.1	1	1	376	0.3	376	377	13.9	90.8
2022-10-18T01:36	10	1	0.1	1	1	376	0.2	376	377	13.9	90.6
2022-10-18T01:37	10	1	0.1	1	1	376	0.2	376	377	13.9	90.6
2022-10-18T01:38	10	1	0.1	1	1	376	0.2	376	377	13.9	90.7
2022-10-18T01:39	10	1	0.1	1	1	376	0.2	375	376	13.8	90.8
2022-10-18T01:40	10	1	0.1	1	1	375	0.2	375	376	13.8	91.0
2022-10-18T01:41	10	1	0.1	1	1	375	0.2	375	376	13.7	91.3
2022-10-18T01:42	10	1	0.1	1	1	375	0.2	374	375	13.8	91.6
2022-10-18T01:43	10	1	0.1	1	1	375	0.2	374	375	13.8	91.7
2022-10-18T01:44	10	1	0.1	1	1	374	0.2	374	375	13.9	91.7
2022-10-18T01:45	10	1	0.1	1	1	374	0.3	374	375	14.0	91.5
2022-10-18T01:46	10	1	0.1	1	1	373	0.4	372	374	14.2	91.0
2022-10-18T01:47	10	1	0.1	1	1	373	0.3	372	374	14.3	90.1
2022-10-18T01:48	10	1	0.1	1	1	372	0.3	372	373	14.1	89.9
2022-10-18T01:49	10	1	0.1	1	1	372	0.2	372	373	14.1	90.3
2022-10-18T01:50	10	1	0.1	1	1	372	0.4	371	373	14.2	90.2
2022-10-18T01:51	10	1	0.1	1	1	371	0.4	370	372	13.9	90.1
2022-10-18T01:52	10	1	0.1	1	1	371	0.2	370	371	13.7	90.9
2022-10-18T01:53	10	1	0.1	1	1	371	0.2	370	371	13.6	91.6
2022-10-18T01:54	10	1	0.1	1	1	371	0.2	370	371	13.7	91.9
2022-10-18T01:55	10	1	0.1	1	1	371	0.2	370	371	13.8	91.9
2022-10-18T01:56	10	1	0.1	1	1	370	0.2	370	371	13.9	91.8
2022-10-18T01:57	10	1	0.1	1	1	370	0.2	370	371	14.0	91.4
2022-10-18T01:58	10	1	0.1	1	1	370	0.2	370	371	14.0	91.1
2022-10-18T01:59	10	1	0.1	1	1	370	0.2	370	371	14.0	90.8
2022-10-18T02:00	10	1	0.1	1	1	371	0.3	370	371	13.9	90.8
2022-10-18T02:01	10	1	0.1	1	1	371	0.3	370	372	14.1	90.9
2022-10-18T02:02	10	1	0.1	1	1	371	0.2	370	371	14.1	90.3
2022-10-18T02:03	10	1	0.1	1	1	371	0.2	371	372	14.1	90.1
2022-10-18T02:04	10	1	0.1	1	1	371	0.2	370	371	14.1	90.1
2022-10-18T02:05	10	1	0.1	1	1	371	0.3	370	371	14.1	90.1
2022-10-18T02:06	10	1	0.1	1	1	371	0.2	370	371	14.1	90.1
2022-10-18T02:07	10	1	0.1	1	1	371	0.3	370	371	14.1	90.3
2022-10-18T02:08	10	1	0.1	1	1	371	0.3	371	372	14.4	89.7
2022-10-18T02:09	10	1	0.1	1	1	371	0.2	371	371	14.3	89.1
2022-10-18T02:10	10	1	0.1	1	1	371	0.3	370	371	14.2	89.3
2022-10-18T02:11	10	1	0.1	1	1	370	0.4	369	370	14.0	89.8
2022-10-18T02:12	10	1	0.1	1	1	369	0.3	368	369	13.6	90.1
2022-10-18T02:13	10	1	0.1	1	1	369	0.2	368	369	13.4	91.5
2022-10-18T02:14	10	1	0.1	1	1	368	0.2	368	369	13.5	92.2
2022-10-18T02:15	10	1	0.1	1	1	368	0.2	368	369	13.6	92.4
2022-10-18T02:16	10	1	0.1	1	1	368	0.3	367	368	13.6	92.3
2022-10-18T02:17	10	1	0.1	1	1	368	0.3	367	369	13.5	92.5
2022-10-18T02:18	10	1	0.1	1	1	368	0.2	367	368	13.5	92.7
2022-10-18T02:19	10	1	0.1	1	1	368	0.3	367	368	13.5	93.2
2022-10-18T02:20	10	1	0.1	0	1	368	0.2	367	369	13.8	93.2
2022-10-18T02:21	10	1	0.1	1	1	368	0.2	368	369	13.8	92.5
2022-10-18T02:22	10	1	0.1	1	1	368	0.2	368	368	13.9	92.2
2022-10-18T02:23	10	1	0.1	1	1	368	0.3	368	369	14.0	91.7
2022-10-18T02:24	10	1	0.1	1	1	368	0.3	367	369	14.1	91.0
2022-10-18T02:25	10	1	0.1	1	1	367	0.3	367	368	14.0	90.7
2022-10-18T02:26	10	1	0.1	1	1	367	0.2	367	368	13.9	90.9
2022-10-18T02:27	10	1	0.1	1	1	367	0.2	366	367	13.8	90.8
2022-10-18T02:28	10	1	0.1	1	1	367	0.2	366	367	13.9	90.8
2022-10-18T02:29	10	1	0.1	1	1	366	0.2	366	367	13.9	90.6
2022-10-18T02:30	10	1	0.1	1	1	366	0.2	366	367	14.0	90.3
2022-10-18T02:31	10	1	0.1	1	1	366	0.2	366	367	14.0	90.1
2022-10-18T02:32	10	1	0.1	1	1	366	0.3	366	367	13.5	90.4
2022-10-18T02:33	10	1	0.1	1	1	367	0.2	366	367	13.5	92.2
2022-10-18T02:34	10	1	0.1	1	1	366	0.3	366	367	13.6	91.9
2022-10-18T02:35	10	1	0.1	1	1	366	0.2	365	366	13.6	91.9
2022-10-18T02:36	10	1	0.1	1	1	365	0.2	365	366	13.7	92.0
2022-10-18T02:37	10	1	0.1	1	1	365	0.2	365	366	14.0	91.2
2022-10-18T02:38	10	1	0.1	1	1	365	0.2	364	365	14.1	90.1
2022-10-18T02:39	10	1	0.1	1	1	365	0.2	364	365	14.3	89.8
2022-10-18T02:40	10	1	0.1	1	1	365	0.2	365	366	14.5	89.1
2022-10-18T02:41	10	1	0.1	1	1					14.7	88.2
2022-10-18T02:42	10	1	0.1	1	1					14.8	87.6
2022-10-18T02:43	10	1	0.1	1	1	366	0.3	365	366	14.8	87.1
2022-10-18T02:44	10	1	0.1	1	1	366	0.3	365	366	14.8	87.0
2022-10-18T02:45	10	1	0.1	1	1	366	0.3	365	367	14.7	87.0
2022-10-18T02:46	10	1	0.1	1	1	366	0.2	366	367	14.7	87.0
2022-10-18T02:47	10	1	0.1	1	1	367	0.4	366	368	14.6	87.1
2022-10-18T02:48	10	1	0.1	1	1	367	0.2	367	367	14.5	87.4
2022-10-18T02:49	10	1	0.1	1	1	367	0.3	367	368	14.4	87.8
2022-10-18T02:50	10	1	0.1	1	1	368	0.2	367	368	14.4	88.0
2022-10-18T02:51	10	1	0.1	1	1	368	0.2	367	368	14.3	88.2
2022-10-18T02:52	10	1	0.1	1	1	367	0.2	366	368	14.1	88.3
2022-10-18T02:53	10	1	0.1	1	1	366	0.3	366	367	13.7	89.5
2022-10-18T02:54	10	1	0.1	0	1	366	0.3	366	367	13.5	90.9
2022-10-18T02:55	10	0	0.1	0	1	366	0.2	365	366	13.5	91.8
2022-10-18T02:56	10	0	0.1	0	1	366	0.2	365	366	13.7	91.9
2022-10-18T02:57	10	0	0.1	0	1	366	0.2	365	366	13.7	91.8
2022-10-18T02:58	10	0	0.1	0	1	365	0.3	365	366	13.7	91.6
2022-10-18T02:59	10	0	0.1	0	1	365	0.2	365	366	13.7	91.9
2022-10-18T03:00	10	0	0.1	0	0	365	0.3	364	366	13.7	91.8
2022-10-18T03:01	10	0	0.1	0	0	365	0.2	364	365	13.8	91.7
2022-10-18T03:02	10	0	0.1	0	0	365	0.3	364	365	13.6	91.8
2022-10-18T03:03	10	0	0.1	0	0	364	0.3	363	364	13.6	92.0
2022-10-18T03:04	10	0	0.1	0	0	364	0.2	364	365	13.6	92.3
2022-10-18T03:05	10	0	0.1	0	0	364	0.3	364	365	13.5	92.3
2022-10-18T03:06	10	0	0.1	0	0	365	0.3	364	365	13.5	92.5
2022-10-18T03:07	10	0	0.1	0	0	365	0.2	364	365	13.5	92.4
2022-10-18T03:08	10	0	0.1	0	0	364	0.2	364	365	13.5	92.5
2022-10-18T03:09	10	0	0.1	0	0	364	0.2	364	365	13.6	92.4
2022-10-18T03:10	10	0	0.1	0	0	364	0.2	363	364	13.4	92.4
2022-10-18T03:11	10	0	0.1	0	0	364	0.3	364	365	13.3	92.6
2022-10-18T03:12	10	0	0.1	0	1	364	0.2	363	364	13.0	92.8
2022-10-18T03:13	10	0	0.1	0	1	364	0.2	364	365	13.0	93.3
2022-10-18T03:14	10	0	0.1	0	1	364	0.4	363	365	13.2	93.8
2022-10-18T03:15	10	0	0.1	0	0	364	0.4	363	365	13.1	93.6
2022-10-18T03:16	10	0	0.1	0	0	365	0.3	365	366	12.9	93.5
2022-10-18T03:17	10	0	0.1	0	0	365	0.2	365	365	12.7	93.3
2022-10-18T03:18	10	-1	0.1	-1	0	365	0.2	364	365	12.6	93.6
2022-10-18T03:19	10	-1	0.1	-1	-1	365	0.3	364	365	12.6	94.0
2022-10-18T03:20	10	-1	0.1	-1	-1	365	0.3	364	365	12.5	94.3
2022-10-18T03:21	10	-1	0.1	-1	-1	364	0.2	363	364	12.5	94.6
2022-10-18T03:22	10	-1	0.1	-1	-1	363	0.2	362	363	12.4	94.8
2022-10-18T03:23	10	-1	0.1	-1	-1	362	0.3	362	363	12.4	95.0
2022-10-18T03:24	10	-1	0.1	-1	-1	362	0.3	361	362	12.4	95.1
2022-10-18T03:25	10	0	0.1	-1	0	361	0.3	361	362	12.4	95.3
2022-10-18T03:26	10	0	0.1	-1	0	361	0.3	361	362	12.4	95.5
2022-10-18T03:27	10	0	0.1	-1	0	362	0.3	362	363	12.4	95.7
2022-10-18T03:28	10	-1	0.1	-1	0	363	0.3	362	363	12.4	95.9
2022-10-18T03:29	10	-1	0.1	-1	-1	363	0.5	362	364	12.4	96.0
2022-10-18T03:30	10	-1	0.1	-1	-1	362	0.4	361	363	12.6	96.3
2022-10-18T03:31	10	-1	0.1	-1	-1	361	0.2	361	362	12.6	96.4
2022-10-18T03:32	10	-1	0.1	-1	0	361	0.2	360	362	12.6	96.5
2022-10-18T03:33	10	0	0.1	0	0	361	0.2	361	361	12.5	96.5
2022-10-18T03:34	10	0	0.1	0	0	361	0.3	361	362	12.4	96.6
2022-10-18T03:35	10	0	0.1	0	0	362	0.3	361	362	12.4	96.6
2022-10-18T03:36	10	0	0.1	0	0	362	0.4	362	363	12.4	96.6
2022-10-18T03:37	10	0	0.1	0	0	363	0.4	362	364	12.4	96.8
2022-10-18T03:38	10	0	0.1	0	0	363	0.3	363	364	12.4	96.9
2022-10-18T03:39	10	0	0.1	0	0	363	0.3	363	364	12.3	96.9
2022-10-18T03:40	10	0	0.1	0	0	363	0.3	362	364	12.3	96.8
2022-10-18T03:41	10	0	0.1	0	0	362	0.4	361	363	12.2	96.8
2022-10-18T03:42	10	0	0.1	0	0	362	0.2	361	362	12.3	96.8
2022-10-18T03:43	10	0	0.0	0	0	361	0.2	361	362	12.4	97.0
2022-10-18T03:44	10	0	0.1	0	0	361	0.2	360	362	12.4	97.1
2022-10-18T03:45	10	0	0.0	0	0	361	0.2	360	361	12.4	97.1
2022-10-18T03:46	10	0	0.1	0	0	361	0.3	361	362	12.5	97.1
2022-10-18T03:47	10	0	0.1	0	0	361	0.2	361	362	12.5	97.1
2022-10-18T03:48	10	0	0.1	0	0	362	0.2	361	362	12.4	97.0
2022-10-18T03:49	10	0	0.1	0	0	362	0.2	361	362	12.4	97.0
2022-10-18T03:50	10	0	0.1	0	0	362	0.2	361	362	12.4	97.1
2022-10-18T03:51	10	0	0.1	0	0	363	0.3	362	363	12.5	97.1
2022-10-18T03:52	10	0	0.1	0	0	363	0.2	362	363	12.6	97.2
2022-10-18T03:53	10	0	0.1	0	0	363	0.2	362	363	12.6	97.2
2022-10-18T03:54	10	0	0.1	0	0	362	0.3	362	363	12.6	97.0
2022-10-18T03:55	10	0	0.1	0	0	362	0.3	361	362	12.5	96.9
2022-10-18T03:56	10	0	0.1	0	0	362	0.2	362	362	12.4	96.8
2022-10-18T03:57	10	0	0.1	0	0	362	0.2	361	362	12.5	96.9
2022-10-18T03:58	10	0	0.1	0	0	361	0.3	360	362	12.5	97.0
2022-10-18T03:59	10	0	0.1	0	0	360	0.3	360	361	12.4	96.9
2022-10-18T04:00	10	0	0.1	-1	0	360	0.2	359	360	12.2	96.7
2022-10-18T04:01	10	0	0.1	0	0	360	0.2	360	360	11.9	96.5
2022-10-18T04:02	10	0	0.1	-1	0	361	0.6	360	362	11.9	96.7
2022-10-18T04:03	10	0	0.1	-1	0	361	0.2	361	362	12.4	97.4
2022-10-18T04:04	10	0	0.1	-1	0	362	0.4	361	363	12.6	97.5
2022-10-18T04:05	10	0	0.1	-1	0	363	0.3	362	363	12.8	97.3
2022-10-18T04:06	10	0	0.1	-1	0	363	0.2	362	363	12.9	96.9
2022-10-18T04:07	10	0	0.1	0	0	363	0.3	362	364	12.9	96.4
2022-10-18T04:08	10	0	0.1	0	0	363	0.2	363	364	12.9	95.9
2022-10-18T04:09	10	0	0.2	-1	0	363	0.2	362	364	12.9	95.6
2022-10-18T04:10	10	0	0.2	-1	0	363	0.3	362	363	12.8	95.5
2022-10-18T04:11	10	0	0.1	0	0	362	0.3	362	363	12.8	95.6
2022-10-18T04:12	10	0	0.2	0	0	362	0.3	362	363	12.7	95.6
2022-10-18T04:13	10	0	0.1	-1	0	362	0.3	362	363	12.6	95.5
2022-10-18T04:14	10	0	0.1	-1	0	363	0.3	362	363	12.7	95.7
2022-10-18T04:15	10	0	0.1	-1	0	363	0.3	362	363	12.8	95.7
2022-10-18T04:16	10	0	0.1	0	0	362	0.4	361	362	12.7	95.3
2022-10-18T04:17	10	0	0.2	0	0	361	0.3	360	362	12.7	95.3
2022-10-18T04:18	10	0	0.2	0	0	361	0.2	360	362	12.6	95.3
2022-10-18T04:19	10	0	0.1	0	0	362	0.3	361	362	12.5	95.6
2022-10-18T04:20	10	0	0.1	0	0	362	0.2	361	362	12.5	95.9
2022-10-18T04:21	10	0	0.1	0	0	361	0.3	360	362	12.5	95.9
2022-10-18T04:22	10	0	0.1	-1	0	361	0.3	360	361	12.4	96.0
2022-10-18T04:23	10	0	0.2	-1	0	360	0.2	360	361	12.4	96.0
2022-10-18T04:24	10	0	0.2	0	0	360	0.3	359	361	12.4	96.1
2022-10-18T04:25	10	0	0.1	0	0	360	0.2	359	360	12.4	96.1
2022-10-18T04:26	10	0	0.1	0	0	359	0.5	358	360	12.3	96.1
2022-10-18T04:27	10	0	0.1	0	0	359	0.2	358	359	12.1	95.9
2022-10-18T04:28	10	0	0.1	0	0	359	0.3	358	359	12.0	95.9
2022-10-18T04:29	10	0	0.2	0	1	359	0.3	358	360	12.1	96.2
2022-10-18T04:30	10	0	0.1	0	0	359	0.8	357	360	12.3	96.5
2022-10-18T04:31	10	0	0.2	0	1	358	0.2	358	359	12.3	96.6
2022-10-18T04:32	10	0	0.1	0	0	359	0.4	358	360	12.3	96.7
2022-10-18T04:33	10	0	0.1	0	0	360	0.5	358	361	12.3	96.8
2022-10-18T04:34	10	0	0.1	0	0	360	0.7	359	362	12.3	96.9
2022-10-18T04:35	10	0	0.1	-1	0	361	0.2	360	361	12.3	97.0
2022-10-18T04:36	10	-1	0.2	-1	0	361	0.2	360	361	12.3	97.0
2022-10-18T04:37	10	-1	0.1	-1	0	361	0.3	361	362	12.2	97.0
2022-10-18T04:38	10	-1	0.2	-1	0	361	0.2	361	362	12.0	96.9
2022-10-18T04:39	10	-1	0.1	-1	-1	362	0.4	361	362	12.1	97.2
2022-10-18T04:40	10	-1	0.1	-1	-1	362	0.2	361	362	12.3	97.4
2022-10-18T04:41	10	-1	0.1	-1	-1	362	0.2	362	363	12.4	97.5
2022-10-18T04:42	10	-1	0.1	-1	-1	362	0.2	362	363	12.4	97.4
2022-10-18T04:43	10	-1	0.1	-1	-1	362	0.4	361	363	12.3	97.3
2022-10-18T04:44	10	-1	0.1	-1	-1	361	0.4	360	362	12.1	97.2
2022-10-18T04:45	10	-1	0.1	-1	-1	360	0.4	359	361	11.5	96.7
2022-10-18T04:46	10	-1	0.1	-1	-1	361	0.3	360	361	11.2	96.6
2022-10-18T04:47	10	-1	0.1	-1	-1	361	0.9	360	362	11.4	96.9
2022-10-18T04:48	10	-1	0.1	-1	-1	361	0.3	361	362	11.7	97.3
2022-10-18T04:49	10	-1	0.1	-1	-1	360	0.3	360	361	11.9	97.6
2022-10-18T04:50	10	-1	0.1	-1	0	360	0.2	360	360	12.1	97.7
2022-10-18T04:51	10	0	0.1	-1	0	360	0.3	359	360	12.1	97.8
2022-10-18T04:52	10	0	0.1	0	0	359	0.2	359	360	12.1	97.8
2022-10-18T04:53	10	0	0.1	0	0	359	0.2	358	359	12.0	97.7
2022-10-18T04:54	10	0	0.1	0	0	359	0.2	358	359	12.1	97.7
2022-10-18T04:55	10	0	0.1	0	0	359	0.2	358	359	12.0	97.7
2022-10-18T04:56	10	0	0.1	0	0	359	0.2	358	359	12.0	97.6
2022-10-18T04:57	10	0	0.0	0	0	359	0.2	358	359	12.0	97.7
2022-10-18T04:58	10	0	0.1	0	0	359	0.2	358	359	12.1	97.8
2022-10-18T04:59	10	0	0.1	0	0	359	0.2	358	359	12.1	97.8
2022-10-18T05:00	10	0	0.1	0	0	359	0.3	358	359	12.1	97.8
2022-10-18T05:01	10	0	0.1	0	0	359	0.3	358	359	11.8	97.6
2022-10-18T05:02	10	0	0.1	0	0	359	0.3	359	360	11.7	97.5
2022-10-18T05:03	10	0	0.1	0	0	359	0.3	359	360	12.1	97.8
2022-10-18T05:04	10	0	0.1	0	0	360	0.3	360	361	12.4	98.0
2022-10-18T05:05	10	0	0.1	0	0	361	0.3	360	361	12.7	98.0
2022-10-18T05:06	10	0	0.1	0	0	360	0.3	360	361	12.7	97.6
2022-10-18T05:07	10	0	0.1	0	0	360	0.3	360	361	12.7	97.3
2022-10-18T05:08	10	0	0.1	0	0	360	0.5	359	361	12.6	96.9
2022-10-18T05:09	10	0	0.1	0	0	360	0.5	359	361	12.6	96.7
2022-10-18T05:10	10	0	0.1	0	0	361	0.4	361	362	12.6	96.7
2022-10-18T05:11	10	0	0.1	0	1	363	0.3	362	363	12.6	96.7
2022-10-18T05:12	10	0	0.0	0	0	363	0.2	363	364	12.6	96.5
2022-10-18T05:13	10	0	0.1	0	0	363	0.3	363	364	12.6	96.4
2022-10-18T05:14	10	0	0.1	0	0	363	0.3	363	364	12.6	96.3
2022-10-18T05:15	10	0	0.1	0	0	363	0.2	363	364	12.6	96.2
2022-10-18T05:16	10	0	0.1	0	0	363	0.3	363	364	12.6	96.0
2022-10-18T05:17	10	0	0.1	0	1	363	0.3	362	364	12.5	95.9
2022-10-18T05:18	10	0	0.1	0	1	363	0.4	362	364	12.6	95.9
2022-10-18T05:19	10	0	0.1	0	1	363	0.2	363	363	12.6	95.7
2022-10-18T05:20	10	0	0.1	0	1	363	0.3	362	363	12.6	95.5
2022-10-18T05:21	10	0	0.1	0	1	363	0.2	363	364	12.6	95.3
2022-10-18T05:22	10	0	0.1	0	1	363	0.3	363	364	12.4	95.2
2022-10-18T05:23	10	0	0.1	0	1	363	0.3	363	364	12.4	95.3
2022-10-18T05:24	10	0	0.1	0	0	363	0.3	362	364	12.4	95.5
2022-10-18T05:25	10	0	0.1	0	0	363	0.3	363	364	12.2	95.6
2022-10-18T05:26	10	0	0.1	0	0	363	0.2	362	363	12.2	95.8
2022-10-18T05:27	10	0	0.1	0	0	363	0.3	362	363	12.1	95.9
2022-10-18T05:28	10	0	0.1	0	0	362	0.2	362	363	12.1	96.1
2022-10-18T05:29	10	0	0.1	0	0	362	0.2	362	363	12.1	96.3
2022-10-18T05:30	10	0	0.1	0	0	362	0.4	362	363	12.0	96.3
2022-10-18T05:31	10	0	0.1	0	0	363	0.4	362	364	11.7	96.1
2022-10-18T05:32	10	0	0.1	0	0	363	0.2	363	364	11.7	96.4
2022-10-18T05:33	10	0	0.1	0	0	363	0.3	363	364	11.7	96.5
2022-10-18T05:34	10	0	0.1	0	0	364	0.4	363	365	11.8	96.8
2022-10-18T05:35	10	0	0.1	0	0	365	0.3	364	365	11.9	97.1
2022-10-18T05:36	10	0	0.1	0	0	365	0.3	364	365	12.0	97.2
2022-10-18T05:37	10	0	0.1	0	0	365	0.2	364	365	12.1	97.2
2022-10-18T05:38	10	0	0.1	0	0	365	0.3	364	366	12.1	97.2
2022-10-18T05:39	10	0	0.1	0	0	365	0.2	364	366	12.1	97.2
2022-10-18T05:40	10	0	0.1	0	0	365	0.3	365	366	11.9	97.0
2022-10-18T05:41	10	0	0.1	0	0	365	0.3	365	366	12.0	97.2
2022-10-18T05:42	10	0	0.1	0	0	365	0.2	365	366	11.9	97.1
2022-10-18T05:43	10	0	0.1	-1	0	366	0.3	365	366	11.8	97.0
2022-10-18T05:44	10	0	0.1	-1	0	365	0.2	365	366	11.8	97.0
2022-10-18T05:45	10	0	0.1	-1	0	365	0.3	365	366	12.0	97.0
2022-10-18T05:46	10	0	0.1	0	0	365	0.3	364	365	12.0	96.7
2022-10-18T05:47	10	0	0.1	0	0	365	0.2	364	365	11.7	96.2
2022-10-18T05:48	10	0	0.1	0	0	365	0.3	364	366	11.7	96.2
2022-10-18T05:49	10	0	0.1	0	0	365	0.3	364	365	11.8	96.5
2022-10-18T05:50	10	0	0.1	0	0	364	0.3	363	365	11.8	96.5
2022-10-18T05:51	10	0	0.1	0	1	364	0.7	363	365	11.7	96.5
2022-10-18T05:52	10	0	0.1	0	1	364	0.4	363	365	11.7	96.6
2022-10-18T05:53	10	0	0.1	0	1	364	0.2	363	364	11.6	96.6
2022-10-18T05:54	10	0	0.1	0	1	364	0.3	363	364	11.5	96.7
2022-10-18T05:55	10	1	0.1	1	1	363	0.2	363	364	11.5	96.7
2022-10-18T05:56	10	1	0.1	1	1	363	0.2	363	364	11.6	97.0
2022-10-18T05:57	10	1	0.1	1	1	363	0.4	363	364	11.7	97.1
2022-10-18T05:58	10	2	0.1	1	2	363	0.3	362	364	11.6	97.1
2022-10-18T05:59	10	2	0.1	2	2	363	0.3	362	364	11.6	97.2
2022-10-18T06:00	10	2	0.1	2	2	363	0.3	363	364	11.6	97.2
2022-10-18T06:01	10	3	0.1	2	3	363	0.2	363	364	11.7	97.4
2022-10-18T06:02	10	3	0.1	3	3	364	0.3	363	364	11.7	97.4
2022-10-18T06:03	10	3	0.1	3	3	364	0.3	363	365	11.8	97.6
2022-10-18T06:04	10	3	0.1	3	4	364	0.3	364	365	11.8	97.6
2022-10-18T06:05	10	4	0.1	4	4	365	0.3	364	365	11.8	97.6
2022-10-18T06:06	10	4	0.1	4	4	365	0.3	365	366	11.8	97.6
2022-10-18T06:07	10	4	0.1	4	4	365	0.4	365	366	11.7	97.5
2022-10-18T06:08	10	5	0.1	4	5	366	0.2	365	366	11.6	97.5
2022-10-18T06:09	10	5	0.1	5	5	366	0.3	366	367	11.6	97.6
2022-10-18T06:10	10	5	0.2	5	6	367	0.3	366	367	11.6	97.6
2022-10-18T06:11	10	6	0.1	5	6	367	0.6	366	368	11.7	97.6
2022-10-18T06:12	10	6	0.2	6	7	368	0.4	367	368	11.9	97.7
2022-10-18T06:13	10	7	0.2	6	7	368	0.4	367	369	12.2	97.8
2022-10-18T06:14	10	7	0.2	7	8	368	0.2	368	369	12.2	97.6
2022-10-18T06:15	10	8	0.2	7	8	369	0.3	368	369	12.2	97.3
2022-10-18T06:16	10	8	0.1	8	9	369	0.2	369	370	12.1	97.0
2022-10-18T06:17	10	9	0.1	9	9	370	0.2	369	370	12.1	96.7
2022-10-18T06:18	10	9	0.2	9	10	370	0.2	370	371	12.0	96.4
2022-10-18T06:19	10	10	0.3	10	11	371	0.4	370	372	12.1	96.2
2022-10-18T06:20	10	11	0.2	10	11	371	0.2	371	372	12.1	96.1
2022-10-18T06:21	10	11	0.1	11	12	372	0.2	371	372	12.1	95.9
2022-10-18T06:22	10	12	0.1	12	12	372	0.3	372	373	12.1	95.8
2022-10-18T06:23	10	12	0.1	12	12	373	0.2	372	373	12.1	95.7
2022-10-18T06:24	10	12	0.1	12	12	373	0.3	373	374	12.1	95.5
2022-10-18T06:25	10	12	0.1	12	12	373	0.2	373	374	12.2	95.4
2022-10-18T06:26	10	12	0.1	12	12	374	0.2	373	374	12.1	95.1
2022-10-18T06:27	10	12	0.1	12	12	374	0.3	374	375	12.1	95.1
2022-10-18T06:28	10	13	0.3	12	13	374	0.3	373	375	12.1	95.0
2022-10-18T06:29	10	14	0.6	13	15	374	0.3	374	375	12.1	94.9
2022-10-18T06:30	10	17	0.6	15	18	374	0.3	374	375	12.1	94.8
2022-10-18T06:31	10	19	0.6	17	20	375	0.3	374	375	12.1	94.8
2022-10-18T06:32	10	20	0.2	20	20	375	0.3	375	376	12.1	94.8
2022-10-18T06:33	10	18	1.7	15	20	376	0.2	375	376	12.2	94.8
2022-10-18T06:34	10	14	0.4	13	15	376	0.2	375	377	12.2	94.7
2022-10-18T06:35	10	13	0.4	12	14	376	0.2	375	377	12.2	94.7
2022-10-18T06:36	10	11	0.3	11	12	376	0.2	375	376	12.2	94.6
2022-10-18T06:37	10	11	0.2	11	11	376	0.3	375	376	12.2	94.6
2022-10-18T06:38	10	11	0.1	10	11	376	0.3	375	376	12.2	94.6
2022-10-18T06:39	10	11	0.1	10	11	376	0.2	375	376	12.2	94.7
2022-10-18T06:40	10	12	1.4	11	15	376	0.2	375	376	12.2	94.6
2022-10-18T06:41	10	14	0.6	13	15	376	0.3	375	376	12.2	94.4
2022-10-18T06:42	10	15	2.4	11	18	376	0.3	376	377	12.2	94.4
2022-10-18T06:43	10	11	0.6	10	12	376	0.3	375	376	12.2	94.4
2022-10-18T06:44	10	10	0.4	10	11	376	0.6	375	377	12.3	94.4
2022-10-18T06:45	10	10	0.6	9	11	376	0.5	375	377	12.3	94.3
2022-10-18T06:46	10	9	0.1	9	9	375	0.4	374	376	12.2	94.3
2022-10-18T06:47	10	9	0.1	9	9	375	0.3	375	376	12.3	94.3
2022-10-18T06:48	10	9	0.1	9	9	375	0.2	375	375	12.3	94.3
2022-10-18T06:49	10	9	0.1	9	9	375	0.2	374	375	12.3	94.3
2022-10-18T06:50	10	9	0.2	9	10	375	0.2	374	375	12.2	94.3
2022-10-18T06:51	10	10	0.2	10	10	374	0.3	374	375	12.3	94.1
2022-10-18T06:52	10	11	0.2	10	11	375	0.2	374	375	12.3	94.0
2022-10-18T06:53	10	11	0.3	11	12	375	0.3	374	375	12.2	94.2
2022-10-18T06:54	10	12	0.3	12	13	375	0.3	375	376	12.3	94.3
2022-10-18T06:55	10	13	0.2	13	13	376	0.4	375	376	12.3	94.1
2022-10-18T06:56	10	14	0.1	13	14	376	0.3	375	377	12.4	93.9
2022-10-18T06:57	10	14	0.2	14	14	376	0.3	376	377	12.4	93.8
2022-10-18T06:58	10	14	0.1	14	14	377	0.4	376	378	12.4	93.9
2022-10-18T06:59	10	14	0.1	14	15	377	0.2	376	377	12.4	94.1
2022-10-18T07:00	10	15	0.1	14	15	377	0.2	376	377	12.4	94.2
2022-10-18T07:01	10	15	0.1	15	15	377	0.2	377	378	12.4	94.3
2022-10-18T07:02	10	15	0.2	15	16	377	0.2	377	378	12.4	94.4
2022-10-18T07:03	10	16	0.3	16	17	378	0.3	377	378	12.5	94.3
2022-10-18T07:04	10	17	0.3	17	18	378	0.3	377	379	12.6	94.1
2022-10-18T07:05	10	18	0.4	18	19	379	0.3	378	379	12.6	93.7
2022-10-18T07:06	10	20	0.4	19	20	379	0.2	379	380	12.6	93.3
2022-10-18T07:07	10	21	0.4	20	22	380	0.3	379	380	12.6	93.3
2022-10-18T07:08	10	23	1.4	22	27	380	0.2	380	381	12.6	93.5
2022-10-18T07:09	10	40	6.0	28	46	382	1.2	380	384	12.7	93.6
2022-10-18T07:10	10	34	7.0	24	44	383	0.3	382	384	12.8	93.5
2022-10-18T07:11	10	24	0.3	23	24	383	0.2	382	383	12.9	93.2
2022-10-18T07:12	10	24	0.2	23	24	382	0.5	381	383	12.9	93.2
2022-10-18T07:13	10	26	1.4	24	28	383	0.3	382	383	12.9	92.8
2022-10-18T07:14	10	31	3.7	26	36	383	0.6	382	384	12.9	92.8
2022-10-18T07:15	10	25	0.7	24	27	383	0.4	382	384	12.9	92.9
2022-10-18T07:16	10	24	0.2	24	25	383	0.2	382	383	12.9	93.0
2022-10-18T07:17	10	24	0.2	23	24	383	0.3	382	383	12.9	92.9
2022-10-18T07:18	10	23	0.3	22	24	383	0.3	382	383	12.9	92.6
2022-10-18T07:19	10	22	0.2	22	23	382	0.4	382	383	12.9	92.6
2022-10-18T07:20	10	22	0.2	21	22	383	0.5	381	384	13.0	92.7
2022-10-18T07:21	10	21	0.3	20	21	383	0.3	383	384	13.0	93.1
2022-10-18T07:22	10	20	0.3	20	21	383	0.3	383	384	13.1	93.2
2022-10-18T07:23	10	19	0.2	19	20	383	0.5	382	384	13.1	92.8
2022-10-18T07:24	10	19	0.2	18	19	383	0.3	383	384	13.1	92.2
2022-10-18T07:25	10	18	0.2	18	19	383	0.5	382	384	13.1	92.1
2022-10-18T07:26	10	18	0.1	18	18	383	0.6	381	384	12.9	92.9
2022-10-18T07:27	10	18	0.1	18	18	383	0.4	382	383	12.9	93.7
2022-10-18T07:28	10	18	0.1	18	18	383	0.3	383	384	13.0	93.9
2022-10-18T07:29	10	18	0.2	18	18	383	0.2	383	384	13.1	93.7
2022-10-18T07:30	10	18	0.2	18	19	383	0.3	383	384	13.1	93.2
2022-10-18T07:31	10	18	0.1	18	19	384	0.2	383	384	13.2	92.2
2022-10-18T07:32	10	18	0.1	18	18	383	0.3	382	384	13.2	92.0
2022-10-18T07:33	10	18	0.1	18	18	383	0.3	382	384	13.2	91.6
2022-10-18T07:34	10	18	0.1	18	19	383	0.3	382	384	13.2	91.4
2022-10-18T07:35	10	18	0.2	18	19	383	0.3	383	384	13.2	91.8
2022-10-18T07:36	10	19	0.2	19	19	383	0.2	382	383	13.2	91.6
2022-10-18T07:37	10	20	0.2	19	20	384	0.2	383	384	13.3	91.5
2022-10-18T07:38	10	20	0.2	20	21	384	0.3	383	384	13.3	91.2
2022-10-18T07:39	10	21	0.1	20	21	384	0.2	383	385	13.3	91.4
2022-10-18T07:40	10	21	0.7	20	23	384	0.3	384	385	13.4	90.8
2022-10-18T07:41	10	22	1.5	20	24	385	0.3	384	385	13.4	90.5
2022-10-18T07:42	10	20	0.2	19	21	384	0.3	384	385	13.4	90.8
2022-10-18T07:43	10	20	0.1	20	20	384	0.3	384	385	13.4	90.2
2022-10-18T07:44	10	20	0.2	20	21	384	0.3	383	384	13.4	89.9
2022-10-18T07:45	10	20	0.1	20	21	384	0.2	383	385	13.4	90.6
2022-10-18T07:46	10	21	0.1	21	21	384	0.3	383	385	13.4	90.8
2022-10-18T07:47	10	21	0.1	21	21	384	0.2	383	384	13.4	89.6
2022-10-18T07:48	10	21	0.1	21	21	384	0.3	383	384	13.5	89.0
2022-10-18T07:49	10	21	0.1	20	21	384	0.3	384	385	13.5	89.1
2022-10-18T07:50	10	21	0.2	21	22	384	0.3	383	385	13.6	88.8
2022-10-18T07:51	10	22	0.2	21	22	384	0.3	384	385	13.6	88.5
2022-10-18T07:52	10	22	0.3	22	23	385	0.2	384	385	13.6	88.8
2022-10-18T07:53	10	24	0.3	23	24	385	0.2	385	386	13.6	89.1
2022-10-18T07:54	10	24	0.1	24	24	386	0.2	385	386	13.7	89.2
2022-10-18T07:55	10	24	0.1	24	24	386	0.2	385	386	13.7	89.1
2022-10-18T07:56	10	24	0.1	24	24	386	0.3	385	386	13.7	88.5
2022-10-18T07:57	10	23	0.1	23	24	386	0.3	385	386	13.7	88.6
2022-10-18T07:58	10	23	0.1	23	23	385	0.2	385	386	13.7	88.2
2022-10-18T07:59	10	23	0.1	23	23	385	0.2	384	385	13.7	88.0
2022-10-18T08:00	10	23	0.1	23	24	384	0.2	384	385	13.6	87.8
2022-10-18T08:01	10	23	0.0	23	23	385	0.2	384	385	13.6	87.9
2022-10-18T08:02	10	23	0.1	23	23	384	0.2	384	385	13.6	87.8
2022-10-18T08:03	10	23	0.1	23	23	384	0.2	384	385	13.6	88.3
2022-10-18T08:04	10	23	0.1	23	23	384	0.2	384	385	13.7	88.4
2022-10-18T08:05	10	22	0.2	22	23	384	0.2	384	385	13.7	88.4
2022-10-18T08:06	10	22	0.2	21	22	384	0.3	384	385	13.7	88.7
2022-10-18T08:07	10	21	0.2	21	21	384	0.2	384	385	13.8	89.3
2022-10-18T08:08	10	21	0.1	20	21	384	0.3	384	385	13.8	88.8
2022-10-18T08:09	10	20	0.1	20	21	384	0.3	383	385	13.8	89.7
2022-10-18T08:10	10	21	0.1	20	21	384	0.2	383	384	13.7	90.8
2022-10-18T08:11	10	21	0.5	21	23	383	0.3	383	384	13.7	91.0
2022-10-18T08:12	10	25	2.1	23	30	383	0.3	382	384	13.7	90.8
2022-10-18T08:13	10	23	1.2	22	27	384	0.2	383	384	13.7	90.7
2022-10-18T08:14	10	25	3.1	22	32	384	0.3	383	385	13.8	90.3
2022-10-18T08:15	10	46	9.5	32	73	386	1.1	384	388	13.8	89.9
2022-10-18T08:16	10	40	13.6	28	75	388	0.6	387	389	13.8	90.0
2022-10-18T08:17	10	71	16.0	31	88	390	1.9	387	393	13.9	90.3
2022-10-18T08:18	10	87	0.1	87	88	395	1.4	393	397	14.0	90.4
2022-10-18T08:19	10	88	0.3	87	88	397	0.6	396	398	14.1	90.0
2022-10-18T08:20	10	89	0.4	88	90	398	0.4	397	399	14.1	90.0
2022-10-18T08:21	10	90	0.3	90	91	399	0.3	398	399	14.3	89.8
2022-10-18T08:22	10	91	0.1	90	91	400	0.4	399	400	14.2	89.3
2022-10-18T08:23	10	91	0.1	91	91	400	0.3	399	400	14.1	87.9
2022-10-18T08:24	10	92	0.2	91	92	400	0.9	398	401	14.1	87.6
2022-10-18T08:25	10	93	0.4	92	93	400	0.4	399	401	14.0	88.1
2022-10-18T08:26	10	94	0.5	93	95	400	0.4	400	401	14.1	87.9
2022-10-18T08:27	10	96	0.6	95	97	401	0.3	400	402	14.1	87.3
2022-10-18T08:28	10	98	0.5	97	99	402	0.4	401	403	14.2	87.8
2022-10-18T08:29	10	99	0.3	99	100	403	0.4	402	404	14.3	87.8
2022-10-18T08:30	10	100	0.2	100	101	404	0.3	403	405	14.3	87.1
2022-10-18T08:31	10	101	0.1	101	101	405	0.8	404	406	14.6	87.1
2022-10-18T08:32	10	100	0.4	99	101	405	0.2	404	406	14.6	85.7
2022-10-18T08:33	10	99	0.4	99	100	405	0.2	405	406	14.7	84.7
2022-10-18T08:34	10	98	0.2	98	99	405	0.7	404	407	14.7	84.6
2022-10-18T08:35	10	98	0.3	98	99	406	0.4	405	407	14.9	85.0
2022-10-18T08:36	10	99	0.2	99	100	406	0.4	405	407	15.0	84.8
2022-10-18T08:37	10	99	0.2	99	100	406	0.3	406	407	15.0	83.7
2022-10-18T08:38	10	98	0.3	98	99	406	0.3	405	407	15.1	82.3
2022-10-18T08:39	10	98	0.2	97	98	406	0.3	406	407	14.9	82.8
2022-10-18T08:40	10	97	0.3	96	97	407	0.2	406	407	15.2	83.5
2022-10-18T08:41	10	96	0.2	96	96	407	0.2	406	407	15.4	83.0
2022-10-18T08:42	10	95	0.2	95	96	407	0.6	406	408	15.5	84.0
2022-10-18T08:43	10	95	0.1	95	96	407	0.3	406	407	15.5	83.7
2022-10-18T08:44	10	96	0.3	96	97	406	0.3	406	408	15.3	82.1
2022-10-18T08:45	10	97	0.4	96	98	407	0.2	406	407	15.3	82.2
2022-10-18T08:46	10	98	0.3	98	99	408	0.3	407	409	15.5	82.2
2022-10-18T08:47	10	99	0.3	99	100	409	0.4	408	410	15.6	83.1
2022-10-18T08:48	10	100	0.1	100	100	409	0.3	408	410	15.4	81.9
2022-10-18T08:49	10	101	0.2	100	101	409	0.2	409	410	15.5	81.9
2022-10-18T08:50	10	101	0.1	101	101	410	0.3	409	410	15.7	81.6
2022-10-18T08:51	10	101	0.1	101	102	410	0.3	410	411	15.8	81.2
2022-10-18T08:52	10	102	0.1	101	102	410	0.8	409	412	15.5	79.2
2022-10-18T08:53	10	102	0.2	102	103	410	0.4	409	411	15.4	79.9
2022-10-18T08:54	10	103	0.4	102	104	410	0.3	410	411	15.5	79.7
2022-10-18T08:55	10	105	0.6	104	106	411	0.8	410	412	15.4	81.8
2022-10-18T08:56	10	107	0.8	106	109	411	0.6	410	413	15.5	82.7
2022-10-18T08:57	10	110	1.1	108	112	412	0.5	411	413	15.6	83.5
2022-10-18T08:58	10	114	1.2	112	116	413	0.6	411	414	15.5	82.9
2022-10-18T08:59	10	119	1.2	116	121	413	0.9	411	415	15.4	81.8
2022-10-18T09:00	10	122	1.0	121	124	414	0.5	412	415	15.5	81.8
2022-10-18T09:01	10	125	0.8	124	126	415	0.4	414	415	15.5	81.2
2022-10-18T09:02	10	128	0.6	126	128	416	0.9	414	418	15.5	80.5
2022-10-18T09:03	10	129	0.6	128	131	417	1.0	416	419	15.6	79.1
2022-10-18T09:04	10	131	0.4	130	132	418	1.0	417	420	15.8	79.1
2022-10-18T09:05	10	133	0.5	132	134	420	0.5	418	421	15.9	79.1
2022-10-18T09:06	10	134	1.9	126	135	421	0.4	420	422	16.1	79.8
2022-10-18T09:07	10	80	19.5	61	125	418	3.1	414	422	16.0	78.5
2022-10-18T09:08	10	89	24.4	63	137	415	1.5	413	419	16.2	79.3
2022-10-18T09:09	10	106	21.3	76	137	419	1.4	417	421	16.1	79.5
2022-10-18T09:10	10	130	5.2	120	136	420	1.2	417	422	16.1	77.3
2022-10-18T09:11	10	134	2.8	126	136	422	0.6	421	423	16.2	77.0
2022-10-18T09:12	10	131	3.9	122	138	423	0.5	422	424	16.3	78.1
2022-10-18T09:13	10	105	24.5	65	137	421	2.6	416	424	16.6	78.8
2022-10-18T09:14	10	77	19.4	49	109	418	1.4	416	420	16.6	78.9
2022-10-18T09:15	10	64	17.2	49	95	415	1.0	413	417	16.5	78.6
2022-10-18T09:16	10	52	11.9	40	81	412	1.1	409	414	16.4	77.4
2022-10-18T09:17	10	37	1.3	36	40	409	1.2	407	411	16.4	78.8
2022-10-18T09:18	10	40	7.4	36	68	406	0.5	405	407	16.2	78.7
2022-10-18T09:19	10	106	14.6	67	116	411	3.3	405	415	16.3	79.0
2022-10-18T09:20	10	113	2.2	103	115	416	0.4	415	416	16.4	78.3
2022-10-18T09:21	10	107	5.4	96	112	417	0.8	416	418	16.5	78.4
2022-10-18T09:22	10	111	0.1	111	111	418	0.3	417	419	16.7	78.2
2022-10-18T09:23	10	111	0.1	111	112	419	0.2	418	419	16.7	77.4
2022-10-18T09:24	10	112	0.1	111	112	419	0.2	419	420	16.7	76.9
2022-10-18T09:25	10	112	0.1	112	112	420	1.0	419	422	16.8	77.3
2022-10-18T09:26	10	112	0.1	112	112	421	0.4	420	421	17.0	78.2
2022-10-18T09:27	10	112	0.2	112	112	420	0.2	420	421	16.9	76.3
2022-10-18T09:28	10	113	0.2	112	113	421	0.2	420	421	16.9	76.4
2022-10-18T09:29	10	113	0.2	113	114	421	0.2	421	422	17.0	76.4
2022-10-18T09:30	10	114	0.3	114	115	423	0.4	421	423	17.1	77.7
2022-10-18T09:31	10	115	0.3	115	116	422	0.6	421	424	16.9	77.3
2022-10-18T09:32	10	117	0.4	116	117	421	0.3	421	422	16.7	77.0
2022-10-18T09:33	10	118	0.5	117	119	423	0.4	422	423	16.8	77.4
2022-10-18T09:34	10	120	0.8	119	122	423	0.4	422	424	16.9	77.3
2022-10-18T09:35	10	123	0.9	122	125	424	0.8	422	425	16.9	76.7
2022-10-18T09:36	10	127	1.1	125	129	425	0.6	423	425	16.9	76.7
2022-10-18T09:37	10	131	1.2	129	133	426	0.4	425	427	17.1	77.1
2022-10-18T09:38	10	135	1.1	132	136	425	1.0	423	427	16.9	75.6
2022-10-18T09:39	10	138	0.9	136	139	425	1.1	423	427	16.9	75.2
2022-10-18T09:40	10	141	1.1	140	143	427	0.5	426	428	17.1	76.2
2022-10-18T09:41	10	144	0.7	143	145	429	1.0	427	431	17.1	75.4
2022-10-18T09:42	10	145	0.5	144	146	431	0.6	429	432	17.5	76.6
2022-10-18T09:43	10	146	0.4	146	147	429	0.4	428	430	17.2	75.5
2022-10-18T09:44	10	148	0.4	147	149	429	0.3	428	430	17.3	76.4
2022-10-18T09:45	10	149	0.2	148	149	429	0.7	428	431	17.3	75.1
2022-10-18T09:46	10	148	2.5	141	150	432	0.6	430	433	17.1	75.1
2022-10-18T09:47	10	149	2.5	143	152	433	0.4	432	433	17.3	75.0
2022-10-18T09:48	10	149	2.9	143	151	434	0.6	433	435	17.5	76.3
2022-10-18T09:49	10	146	5.7	131	151	432	1.6	428	434	17.3	76.8
2022-10-18T09:50	10	142	7.4	129	150	429	0.4	428	430	17.0	75.1
2022-10-18T09:51	10	138	7.3	126	149	429	0.6	428	430	17.1	75.9
2022-10-18T09:52	10	151	0.9	147	152	431	0.8	429	432	17.1	76.4
2022-10-18T09:53	10	151	0.2	151	152	430	0.4	429	430	17.0	76.7
2022-10-18T09:54	10	151	0.5	150	152	431	1.3	429	433	17.0	76.7
2022-10-18T09:55	10	136	26.8	77	153	433	2.1	427	435	17.4	77.9
2022-10-18T09:56	10	141	16.1	95	154	431	2.5	427	434	17.1	76.0
2022-10-18T09:57	10	145	13.6	113	155	433	0.8	431	434	17.5	77.0
2022-10-18T09:58	10	144	13.4	114	159	433	1.3	431	435	17.7	75.7
2022-10-18T09:59	10	99	17.0	73	144	432	1.6	430	436	17.9	76.7
2022-10-18T10:00	10	75	4.1	70	85	427	1.7	425	430	17.7	75.6
2022-10-18T10:01	10	96	26.0	77	156	427	2.2	424	433	17.5	76.6
2022-10-18T10:02	10	154	1.3	152	156	434	2.0	429	436	18.1	77.9
2022-10-18T10:03	10	152	0.2	151	152	434	0.3	434	435	17.9	74.7
2022-10-18T10:04	10	152	0.1	151	152	436	0.5	435	437	17.9	74.3
2022-10-18T10:05	10	151	0.1	151	152	438	0.4	437	438	17.9	74.5
2022-10-18T10:06	10	151	0.2	150	152	438	1.0	436	440	17.8	75.6
2022-10-18T10:07	10	147	2.6	140	150	436	0.4	435	437	17.8	74.7
2022-10-18T10:08	10	119	22.6	82	147	435	2.9	431	439	18.1	76.0
2022-10-18T10:09	10	139	4.8	126	145	435	0.6	434	436	18.1	75.3
2022-10-18T10:10	10	144	4.4	136	149	434	0.8	432	435	17.8	74.3
2022-10-18T10:11	10	148	0.3	147	149	433	0.4	432	434	17.6	75.2
2022-10-18T10:12	10	146	1.0	144	147	434	0.4	433	435	17.8	75.4
2022-10-18T10:13	10	143	0.4	142	144	435	0.9	433	436	18.1	76.3
2022-10-18T10:14	10	115	16.9	92	143	432	2.8	428	435	17.9	75.1
2022-10-18T10:15	10	102	27.5	54	136	428	1.7	425	430	17.8	75.2
2022-10-18T10:16	10	132	5.3	124	142	431	1.1	429	433	17.7	74.6
2022-10-18T10:17	10	142	0.9	139	143	434	0.9	433	437	18.1	75.9
2022-10-18T10:18	10	139	1.3	136	141	436	0.7	435	438	18.3	75.5
2022-10-18T10:19	10	134	9.2	109	139	437	0.4	436	438	18.7	75.9
2022-10-18T10:20	10	125	8.8	107	135	435	0.7	433	436	18.5	74.8
2022-10-18T10:21	10	101	11.1	83	125	433	2.2	429	435	18.6	75.2
2022-10-18T10:22	10	128	3.3	118	130	434	1.6	431	436	18.4	74.4
2022-10-18T10:23	10	128	0.4	128	129	435	0.4	435	436	18.4	73.6
2022-10-18T10:24	10	127	0.1	127	128	436	1.1	434	438	18.5	74.3
2022-10-18T10:25	10	127	0.1	127	127	435	0.6	434	436	18.2	73.6
2022-10-18T10:26	10	127	0.2	127	128	433	0.6	432	434	18.1	73.5
2022-10-18T10:27	10	128	0.4	128	129	433	0.8	432	435	18.1	73.6
2022-10-18T10:28	10	130	0.5	129	131	434	0.4	434	435	18.4	74.7
2022-10-18T10:29	10	132	0.4	131	132	433	0.7	432	434	18.5	75.5
2022-10-18T10:30	10	133	0.3	132	133	431	0.5	430	433	18.1	73.9
2022-10-18T10:31	10	134	0.5	133	135	432	0.4	431	432	18.2	74.7
2022-10-18T10:32	10	115	17.9	80	135	430	1.6	426	432	18.1	74.4
2022-10-18T10:33	10	91	17.1	63	125	425	1.3	423	428	18.2	74.5
2022-10-18T10:34	10	117	11.5	87	128	427	1.6	425	430	18.1	75.1
2022-10-18T10:35	10	122	14.1	85	130	429	1.2	426	430	18.0	75.0
2022-10-18T10:36	10	128	2.7	120	130	431	1.0	429	433	18.3	75.7
2022-10-18T10:37	10	132	1.0	130	134	432	1.0	429	433	18.2	75.2
2022-10-18T10:38	10	111	27.4	66	135	431	3.1	425	435	18.3	75.9
2022-10-18T10:39	10	125	13.7	94	137	429	1.8	426	431	18.1	75.8
2022-10-18T10:40	10	137	1.7	132	140	430	0.6	429	432	18.1	75.2
2022-10-18T10:41	10	82	32.8	41	139	428	3.5	422	433	18.2	76.0
2022-10-18T10:42	10	35	1.5	34	40	420	1.9	417	424	18.4	76.8
2022-10-18T10:43	10	39	2.6	35	46	417	0.4	416	418	18.4	77.5
2022-10-18T10:44	10	65	11.3	48	84	418	1.1	416	420	18.2	76.4
2022-10-18T10:45	10	113	33.3	60	145	420	4.7	414	427	17.9	75.9
2022-10-18T10:46	10	125	17.2	95	146	425	1.2	424	428	17.9	76.3
2022-10-18T10:47	10	151	3.3	144	156	430	1.9	427	432	18.0	77.1
2022-10-18T10:48	10	157	2.1	149	160	433	1.1	430	434	18.2	77.5
2022-10-18T10:49	10	125	10.8	109	149	432	0.9	431	434	18.1	76.5
2022-10-18T10:50	10	165	10.0	128	171	436	2.1	431	439	18.2	76.3
2022-10-18T10:51	10	128	7.9	115	143	436	0.6	434	438	18.2	76.2
2022-10-18T10:52	10	97	7.7	85	113	431	1.9	429	435	18.2	76.5
2022-10-18T10:53	10	126	31.2	80	171	430	3.2	427	435	18.2	77.2
2022-10-18T10:54	10	166	10.1	126	172	436	2.4	432	439	18.2	76.9
2022-10-18T10:55	10	126	19.0	99	150	435	0.9	434	438	18.3	77.2
2022-10-18T10:56	10	90	13.4	72	115	431	2.7	426	435	18.4	76.7
2022-10-18T10:57	10	69	1.0	68	72	425	1.4	423	428	18.2	76.7
2022-10-18T10:58	10	76	4.1	70	83	424	0.4	423	425	18.2	77.1
2022-10-18T10:59	10	80	2.1	77	85	425	0.3	424	425	18.2	76.6
2022-10-18T11:00	10	80	1.2	79	83	426	0.8	425	428	18.3	77.8
2022-10-18T11:01	10	105	14.7	84	140	430	1.7	426	433	18.6	77.8
2022-10-18T11:02	10	164	15.6	143	183	437	3.5	431	443	18.7	76.4
2022-10-18T11:03	10	156	15.5	127	182	440	1.5	438	443	18.9	77.1
2022-10-18T11:04	10	101	12.8	90	138	434	3.6	429	441	18.4	75.7
2022-10-18T11:05	10	105	13.2	96	144	432	1.2	430	434	18.3	75.5
2022-10-18T11:06	10	129	15.1	100	163	433	2.8	429	438	18.4	74.7
2022-10-18T11:07	10	100	6.9	94	121	434	0.7	433	436	18.5	75.1
2022-10-18T11:08	10	93	8.9	88	130	431	0.8	430	433	18.8	76.3
2022-10-18T11:09	10	117	10.8	104	136	433	1.1	432	435	18.8	76.6
2022-10-18T11:10	10	147	13.8	119	183	437	2.4	431	441	18.6	76.4
2022-10-18T11:11	10	134	19.0	110	184	438	1.0	436	440	18.7	76.1
2022-10-18T11:12	10	135	12.3	109	166	437	0.6	436	439	18.7	74.2
2022-10-18T11:13	10	154	23.6	120	195	441	1.4	438	443	18.7	73.7
2022-10-18T11:14	10	122	9.2	105	150	440	1.2	438	442	18.8	74.2
2022-10-18T11:15	10	95	2.4	93	103	436	1.4	434	439	18.8	74.2
2022-10-18T11:16	10	102	13.6	85	123	436	1.7	433	438	18.9	74.7
2022-10-18T11:17	10	82	1.8	79	85	432	1.1	430	434	18.8	74.3
2022-10-18T11:18	10	80	1.6	79	84	431	0.7	430	432	18.7	74.8
2022-10-18T11:19	10	82	2.9	80	89	430	0.6	429	431	18.8	74.8
2022-10-18T11:20	10	105	22.1	82	146	433	3.5	429	438	18.9	75.7
2022-10-18T11:21	10	85	3.2	80	93	433	1.1	431	435	19.1	74.7
2022-10-18T11:22	10	85	5.7	78	96	431	0.4	430	432	19.2	75.8
2022-10-18T11:23	10	85	7.0	79	102	429	0.8	428	431	18.9	74.7
2022-10-18T11:24	10	94	11.9	84	119	429	1.1	428	432	18.8	75.1
2022-10-18T11:25	10	86	1.5	85	93	429	1.4	427	432	18.6	74.7
2022-10-18T11:26	10	106	23.9	86	156	430	2.6	427	437	18.7	75.4
2022-10-18T11:27	10	133	40.1	91	188	437	2.7	433	442	18.9	75.4
2022-10-18T11:28	10	111	35.0	83	182	434	2.2	431	438	18.9	74.6
2022-10-18T11:29	10	81	1.9	80	90	432	0.9	430	434	19.0	75.0
2022-10-18T11:30	10	81	3.9	78	91	431	0.3	431	433	19.1	74.6
2022-10-18T11:31	10	89	12.1	78	113	431	1.1	430	433	19.1	74.3
2022-10-18T11:32	10	86	6.6	78	97	432	1.0	430	433	18.9	74.1
2022-10-18T11:33	10	80	4.4	77	93	431	0.3	430	431	19.1	75.5
2022-10-18T11:34	10	77	0.5	77	80	430	0.3	429	431	19.1	74.8
2022-10-18T11:35	10	116	37.6	74	171	434	2.9	429	438	19.1	75.1
2022-10-18T11:36	10	81	8.6	74	102	431	0.9	429	432	19.0	75.2
2022-10-18T11:37	10	73	0.9	71	75	429	0.6	428	431	18.8	75.4
2022-10-18T11:38	10	70	2.7	66	76	427	1.0	425	429	18.8	75.7
2022-10-18T11:39	10	65	0.6	64	66	426	0.5	425	427	18.7	76.1
2022-10-18T11:40	10	64	0.4	64	65	426	0.8	425	427	18.8	76.8
2022-10-18T11:41	10	72	6.5	65	88	426	0.8	425	429	18.7	76.2
2022-10-18T11:42	10	71	5.4	66	83	428	0.3	427	428	18.7	77.1
2022-10-18T11:43	10	69	2.5	66	74	427	0.6	426	428	18.9	77.5
2022-10-18T11:44	10	74	5.2	70	87	428	0.4	427	429	18.9	74.7
2022-10-18T11:45	10	71	2.5	70	82	427	0.5	426	428	19.0	74.2
2022-10-18T11:46	10	75	7.3	70	95	428	0.6	427	429	19.0	74.6
2022-10-18T11:47	10	74	3.1	71	81	428	0.7	426	429	19.1	75.7
2022-10-18T11:48	10	71	0.1	70	71	426	0.5	425	427	19.0	74.9
2022-10-18T11:49	10	70	0.2	70	70	427	0.3	427	428	19.0	75.2
2022-10-18T11:50	10	70	0.2	70	71	427	0.6	425	428	19.0	75.4
2022-10-18T11:51	10	73	1.3	71	75	426	0.3	426	427	19.0	76.2
2022-10-18T11:52	10	82	5.9	75	94	428	1.1	426	430	18.9	75.6
2022-10-18T11:53	10	73	1.0	72	76	427	0.5	426	428	19.0	77.1
2022-10-18T11:54	10	73	0.2	72	73	426	0.5	425	427	18.9	76.5
2022-10-18T11:55	10	75	0.9	73	76	426	0.3	425	426	18.9	76.5
2022-10-18T11:56	10	78	4.5	74	87	426	0.5	425	427	18.9	76.2
2022-10-18T11:57	10	75	4.9	72	88	427	0.5	426	428	19.0	76.3
2022-10-18T11:58	10	71	0.4	70	72	426	0.8	424	427	18.9	75.3
2022-10-18T11:59	10	70	0.2	70	70	425	0.4	424	426	18.9	75.7
2022-10-18T12:00	10	70	0.2	70	71	424	0.4	423	425	18.8	76.7
2022-10-18T12:01	10	73	1.9	71	76	424	0.4	423	425	18.7	76.9
2022-10-18T12:02	10	93	17.2	77	129	426	1.7	423	429	18.7	76.9
2022-10-18T12:03	10	73	1.5	71	76	425	0.4	424	426	18.7	76.4
2022-10-18T12:04	10	68	2.9	65	75	425	0.3	424	425	18.8	77.7
2022-10-18T12:05	10	65	0.2	65	66	423	0.6	422	424	18.8	77.8
2022-10-18T12:06	10	76	12.5	66	102	422	0.8	421	424	18.6	76.9
2022-10-18T12:07	10	76	9.4	66	96	424	1.3	422	426	18.8	78.7
2022-10-18T12:08	10	64	0.7	63	66	424	0.4	423	425	18.7	78.3
2022-10-18T12:09	10	64	0.7	63	66	422	0.4	421	423	18.5	77.8
2022-10-18T12:10	10	67	1.3	66	71	423	0.3	422	424	18.6	78.6
2022-10-18T12:11	10	69	3.2	66	77	423	0.4	422	424	18.5	78.4
2022-10-18T12:12	10	85	20.5	70	137	425	1.7	422	427	18.5	78.4
2022-10-18T12:13	10	71	1.6	70	74	424	0.4	423	425	18.5	78.1
2022-10-18T12:14	10	79	3.1	74	86	425	0.9	424	427	18.6	78.8
2022-10-18T12:15	10	81	4.0	77	88	426	0.8	425	428	18.6	79.0
2022-10-18T12:16	10	78	5.4	73	88	427	0.3	426	428	18.6	78.4
2022-10-18T12:17	10	83	12.6	73	116	428	1.0	427	431	19.1	80.1
2022-10-18T12:18	10	145	19.3	111	174	435	3.9	428	440	19.4	79.4
2022-10-18T12:19	10	106	21.7	86	167	434	3.0	430	439	19.1	77.5
2022-10-18T12:20	10	129	34.3	87	180	433	2.8	430	439	18.9	77.6
2022-10-18T12:21	10	132	34.9	79	176	438	2.5	432	441	18.9	77.4
2022-10-18T12:22	10	76	1.7	74	79	430	2.0	427	435	18.8	77.4
2022-10-18T12:23	10	74	2.0	73	80	427	0.7	426	428	18.7	77.2
2022-10-18T12:24	10	71	1.0	70	76	426	0.6	424	427	18.9	78.0
2022-10-18T12:25	10	78	6.4	71	90	425	0.6	424	427	18.8	77.6
2022-10-18T12:26	10	80	7.2	68	92	427	0.6	426	428	18.8	77.9
2022-10-18T12:27	10	66	0.9	64	68	427	0.6	425	427	19.1	78.5
2022-10-18T12:28	10	64	0.3	63	64	425	0.3	424	425	19.0	77.8
2022-10-18T12:29	10	66	2.8	64	78	425	0.5	423	426	18.8	77.4
2022-10-18T12:30	10	91	12.7	75	120	426	1.1	425	428	18.8	77.1
2022-10-18T12:31	10	83	17.9	66	127	428	1.5	425	430	18.8	77.1
2022-10-18T12:32	10	114	19.3	70	141	429	2.7	424	432	18.9	77.0
2022-10-18T12:33	10	95	13.1	82	128	430	1.3	428	432	19.0	77.5
2022-10-18T12:34	10	131	12.3	104	142	432	1.3	430	434	19.1	78.1
2022-10-18T12:35	10	138	1.4	136	141	434	0.4	433	435	19.1	77.6
2022-10-18T12:36	10	133	1.6	130	136	435	0.7	433	436	19.0	77.5
2022-10-18T12:37	10	130	1.0	127	131	436	0.5	435	437	19.3	78.0
2022-10-18T12:38	10	129	1.3	126	130	438	0.6	436	439	19.5	77.9
2022-10-18T12:39	10	112	13.8	87	130	435	2.6	431	438	19.3	76.0
2022-10-18T12:40	10	111	7.1	102	127	433	0.5	432	434	19.1	76.4
2022-10-18T12:41	10	124	5.1	105	127	435	1.2	432	436	19.3	76.6
2022-10-18T12:42	10	125	0.5	124	126	433	0.5	432	434	19.2	76.2
2022-10-18T12:43	10	121	3.0	113	124	433	0.6	432	434	19.3	75.9
2022-10-18T12:44	10	120	1.4	115	122	434	1.0	432	435	19.2	76.3
2022-10-18T12:45	10	121	0.2	120	121	436	0.5	434	437	19.7	77.9
2022-10-18T12:46	10	120	0.2	119	120	436	0.8	436	438	19.5	75.6
2022-10-18T12:47	10	119	0.2	119	120	436	0.5	435	437	19.6	76.7
2022-10-18T12:48	10	119	0.2	118	119	436	0.3	435	437	19.8	75.8
2022-10-18T12:49	10	118	0.1	118	118	437	0.4	436	438	20.0	76.0
2022-10-18T12:50	10	118	0.2	117	118	437	0.4	437	438	20.0	74.9
2022-10-18T12:51	10	117	0.3	117	117	437	1.3	434	439	19.8	74.7
2022-10-18T12:52	10	116	0.3	116	117	435	0.4	435	436	19.5	74.5
2022-10-18T12:53	10	115	0.2	115	116	435	0.4	435	436	19.6	75.1
2022-10-18T12:54	10	115	0.2	114	115	435	0.6	434	437	19.7	74.8
2022-10-18T12:55	10	114	0.2	114	114	436	0.4	435	437	20.0	75.2
2022-10-18T12:56	10	113	0.2	113	114	437	0.6	435	438	19.9	74.3
2022-10-18T12:57	10	113	0.2	112	113	436	0.2	436	437	20.1	74.7
2022-10-18T12:58	10	112	0.2	112	113	438	1.0	436	439	20.1	74.4
2022-10-18T12:59	10	112	0.2	111	112	438	0.6	437	439	19.9	73.7
2022-10-18T13:00	10	111	0.2	111	112	435	1.1	433	437	19.7	72.2
2022-10-18T13:01	10	111	0.2	110	111	434	0.6	433	435	19.7	71.2
2022-10-18T13:02	10	110	0.1	110	110	436	1.0	434	437	19.9	69.9
2022-10-18T13:03	10	110	0.2	110	111	437	0.7	435	438	20.0	70.5
2022-10-18T13:04	10	110	0.1	110	111	437	1.2	435	439	20.1	70.1
2022-10-18T13:05	10	110	0.1	110	110	436	0.3	435	437	20.0	68.7
2022-10-18T13:06	10	110	0.1	109	110	436	0.3	435	437	20.0	68.4
2022-10-18T13:07	10	109	0.1	109	110	436	0.3	435	437	20.0	70.3
2022-10-18T13:08	10	109	0.2	108	109	435	0.4	435	436	20.0	71.5
2022-10-18T13:09	10	108	0.2	108	109	435	0.6	434	436	20.0	71.4
2022-10-18T13:10	10	107	0.2	107	108	435	0.3	434	435	20.0	71.8
2022-10-18T13:11	10	107	0.1	107	107	434	0.3	434	435	20.0	70.5
2022-10-18T13:12	10	107	0.2	106	108	434	0.5	433	435	20.0	70.4
2022-10-18T13:13	10	107	0.2	106	107	435	0.4	434	436	20.3	70.9
2022-10-18T13:14	10	107	0.1	107	107	437	0.4	436	438	20.4	70.9
2022-10-18T13:15	10	107	0.2	107	107	437	0.5	436	438	20.5	70.8
2022-10-18T13:16	10	107	0.2	107	108	436	0.6	435	437	20.3	69.2
2022-10-18T13:17	10	107	0.2	106	107	435	0.5	434	436	20.2	69.6
2022-10-18T13:18	10	106	0.2	106	107	437	0.9	435	439	20.3	70.0
2022-10-18T13:19	10	106	0.1	106	107	437	0.5	436	438	20.4	69.7
2022-10-18T13:20	10	106	0.1	106	106	436	0.5	435	437	20.5	70.0
2022-10-18T13:21	10	106	0.1	106	106	435	0.4	434	436	20.4	69.5
2022-10-18T13:22	10	106	0.1	106	107	435	0.6	434	436	20.3	69.2
2022-10-18T13:23	10	106	0.1	106	106	436	0.3	435	436	20.3	68.8
2022-10-18T13:24	10	106	0.1	106	106	436	0.5	436	437	20.3	69.2
2022-10-18T13:25	10	106	0.1	106	107	436	0.5	435	437	20.5	70.3
2022-10-18T13:26	10	99	8.1	85	107	435	0.8	433	436	20.4	69.9
2022-10-18T13:27	10	85	22.3	48	108	433	2.4	428	435	20.4	69.7
2022-10-18T13:28	10	91	22.8	52	112	431	2.4	427	434	20.3	70.0
2022-10-18T13:29	10	109	1.6	107	113	435	1.0	433	436	20.3	69.6
2022-10-18T13:30	10	81	20.1	55	113	434	2.3	430	437	20.5	69.7
2022-10-18T13:31	10	56	23.7	29	90	430	2.5	424	433	20.5	69.5
2022-10-18T13:32	10	50	20.1	29	82	425	1.2	424	428	20.3	67.9
2022-10-18T13:33	10	79	8.7	68	98	430	1.4	427	431	20.4	68.4
2022-10-18T13:34	10	72	12.2	51	94	429	1.1	428	431	20.5	69.9
2022-10-18T13:35	10	96	12.2	77	113	431	1.0	428	433	20.3	70.0
2022-10-18T13:36	10	104	5.4	87	111	432	0.4	431	433	20.4	70.7
2022-10-18T13:37	10	77	13.8	57	101	430	0.6	428	431	20.4	70.2
2022-10-18T13:38	10	45	6.5	36	56	427	1.7	424	430	20.5	71.1
2022-10-18T13:39	10	45	3.7	40	52	424	0.8	423	426	20.4	70.6
2022-10-18T13:40	10	34	3.7	29	40	421	1.0	420	424	20.2	69.9
2022-10-18T13:41	10	28	0.3	27	29	420	0.5	418	421	20.2	70.5
2022-10-18T13:42	10	29	2.1	28	35	419	0.4	418	420	20.2	71.1
2022-10-18T13:43	10	34	3.2	31	42	419	0.4	418	419	20.1	70.7
2022-10-18T13:44	10	37	4.0	32	42	419	0.4	418	420	20.1	70.6
2022-10-18T13:45	10	48	4.0	41	55	420	1.0	418	422	20.1	70.5
2022-10-18T13:46	10	55	6.1	41	65	422	1.2	420	424	20.2	71.3
2022-10-18T13:47	10	70	18.3	39	92	424	2.2	421	427	20.3	71.1
2022-10-18T13:48	10	88	9.9	70	100	426	1.5	424	429	20.3	70.4
2022-10-18T13:49	10	78	23.8	38	101	428	1.4	425	431	20.4	70.2
2022-10-18T13:50	10	38	5.4	33	58	423	1.8	421	427	20.3	69.4
2022-10-18T13:51	10	38	8.9	29	61	421	0.9	420	423	20.3	70.0
2022-10-18T13:52	10	40	3.1	34	46	421	0.4	419	421	20.3	70.9
2022-10-18T13:53	10	43	4.9	34	50	420	0.3	419	420	20.2	70.7
2022-10-18T13:54	10	56	4.6	46	65	421	0.9	420	423	20.2	71.1
2022-10-18T13:55	10	50	6.5	39	60	421	0.5	420	422	20.2	71.1
2022-10-18T13:56	10	43	5.4	36	57	422	0.9	420	423	20.2	71.8
2022-10-18T13:57	10	41	4.7	36	51	419	0.4	418	420	20.1	70.3
2022-10-18T13:58	10	38	2.3	36	44	419	0.4	418	420	20.2	70.3
2022-10-18T13:59	10	36	0.7	36	38	419	0.5	418	420	20.3	71.4
2022-10-18T14:00	10	40	2.7	37	47	420	0.3	419	420	20.3	70.8
2022-10-18T14:01	10	43	4.4	37	49	420	0.3	420	421	20.2	69.0
2022-10-18T14:02	10	38	0.2	37	38	420	0.3	419	420	20.3	68.6
2022-10-18T14:03	10	38	0.4	37	39	420	0.6	419	421	20.4	69.2
2022-10-18T14:04	10	40	0.9	38	41	420	0.2	419	420	20.4	68.1
2022-10-18T14:05	10	36	1.5	34	40	419	0.3	419	420	20.4	67.9
2022-10-18T14:06	10	34	0.3	33	34	420	0.2	419	420	20.4	68.1
2022-10-18T14:07	10	33	0.3	32	33	419	0.3	419	420	20.4	69.0
2022-10-18T14:08	10	32	0.3	31	32	418	0.7	417	419	20.3	70.1
2022-10-18T14:09	10	30	0.4	30	31	417	0.6	416	419	20.2	70.4
2022-10-18T14:10	10	29	0.4	28	30	417	0.5	417	418	20.2	69.7
2022-10-18T14:11	10	29	0.6	29	31	417	0.5	416	418	20.2	70.5
2022-10-18T14:12	10	29	0.4	28	30	417	0.4	416	418	20.3	69.6
2022-10-18T14:13	10	34	2.4	30	38	418	0.8	416	419	20.2	70.6
2022-10-18T14:14	10	32	1.0	30	34	418	0.3	417	418	20.2	71.3
2022-10-18T14:15	10	34	1.9	31	37	418	0.5	417	419	20.3	70.4
2022-10-18T14:16	10	38	6.9	30	50	418	0.5	417	419	20.3	69.1
2022-10-18T14:17	10	44	6.6	34	53	418	0.6	418	420	20.4	68.9
2022-10-18T14:18	10	38	2.7	35	44	419	0.4	418	420	20.4	69.1
2022-10-18T14:19	10	50	9.8	35	62	419	1.3	418	421	20.4	69.5
2022-10-18T14:20	10	42	14.0	30	68	421	1.4	419	423	20.4	70.6
2022-10-18T14:21	10	53	14.5	31	71	420	1.7	418	423	20.4	71.4
2022-10-18T14:22	10	30	2.1	27	33	419	1.1	417	421	20.3	70.2
2022-10-18T14:23	10	41	12.0	28	58	417	0.6	417	419	20.3	69.2
2022-10-18T14:24	10	51	8.2	41	67	419	0.5	418	420	20.3	67.7
2022-10-18T14:25	10	37	7.4	29	50	418	0.9	417	420	20.3	68.0
2022-10-18T14:26	10	44	8.8	30	69	418	0.8	417	420	20.4	68.4
2022-10-18T14:27	10	47	12.3	35	73	419	0.8	418	421	20.5	68.3
2022-10-18T14:28	10	66	7.4	50	77	420	1.3	418	422	20.5	68.4
2022-10-18T14:29	10	66	8.6	53	79	422	0.5	422	423	20.5	68.2
2022-10-18T14:30	10	77	4.8	70	84	423	0.9	422	425	20.5	68.5
2022-10-18T14:31	10	62	9.6	52	78	423	1.2	421	425	20.5	68.7
2022-10-18T14:32	10	73	10.2	53	83	423	1.1	421	425	20.5	68.6
2022-10-18T14:33	10	83	0.3	82	83	425	0.2	424	425	20.5	68.0
2022-10-18T14:34	10	81	0.5	80	82	426	0.2	425	426	20.5	68.2
2022-10-18T14:35	10	79	0.5	78	80	425	0.5	424	426	20.5	68.9
2022-10-18T14:36	10	78	0.5	77	79	424	0.3	424	425	20.5	69.6
2022-10-18T14:37	10	76	0.3	76	77	424	0.4	424	425	20.5	69.7
2022-10-18T14:38	10	75	0.2	75	76	425	0.4	424	425	20.5	70.1
2022-10-18T14:39	10	75	0.2	74	75	424	0.3	423	425	20.5	70.2
2022-10-18T14:40	10	74	0.2	74	74	423	0.3	423	424	20.5	70.2
2022-10-18T14:41	10	73	0.2	73	74	423	0.4	422	423	20.5	70.2
2022-10-18T14:42	10	73	0.2	72	73	422	0.5	422	423	20.5	70.7
2022-10-18T14:43	10	72	0.2	72	73	422	0.2	422	423	20.4	70.6
2022-10-18T14:44	10	71	0.2	71	72	422	0.2	422	423	20.5	70.6
2022-10-18T14:45	10	71	0.3	70	71	422	0.3	422	423	20.5	70.5
2022-10-18T14:46	10	70	0.2	70	71	422	0.3	421	423	20.5	70.4
2022-10-18T14:47	10	70	0.2	69	70	422	0.3	421	422	20.5	69.5
2022-10-18T14:48	10	69	0.2	69	70	422	0.2	421	422	20.5	69.7
2022-10-18T14:49	10	69	0.2	68	69	422	0.4	421	422	20.5	69.1
2022-10-18T14:50	10	68	0.1	68	69	421	0.3	421	422	20.5	69.1
2022-10-18T14:51	10	68	0.2	67	68	422	0.3	421	422	20.5	68.5
2022-10-18T14:52	10	67	0.3	66	67	421	0.3	421	422	20.5	67.5
2022-10-18T14:53	10	66	0.2	66	67	421	0.4	420	422	20.5	68.2
2022-10-18T14:54	10	66	0.2	65	66	421	0.3	420	422	20.5	68.4
2022-10-18T14:55	10	65	0.2	65	66	421	0.3	421	422	20.5	68.8
2022-10-18T14:56	10	65	0.2	64	65	421	0.2	421	422	20.6	68.2
2022-10-18T14:57	10	64	0.2	64	65	421	0.2	421	422	20.6	67.7
2022-10-18T14:58	10	64	0.2	63	64	421	0.2	421	422	20.6	67.8
2022-10-18T14:59	10	63	0.2	63	63	421	0.3	421	422	20.6	67.9
2022-10-18T15:00	10	63	0.2	62	63	421	0.3	420	421	20.6	68.2
2022-10-18T15:01	10	62	0.2	61	62	420	0.2	419	420	20.6	68.4
2022-10-18T15:02	10	61	0.3	61	62	421	0.3	420	421	20.6	69.0
2022-10-18T15:03	10	60	0.2	60	61	420	0.4	420	421	20.6	70.1
2022-10-18T15:04	10	60	0.3	59	60	419	0.3	419	420	20.5	70.0
2022-10-18T15:05	10	59	0.2	58	59	419	0.5	418	420	20.5	70.6
2022-10-18T15:06	10	58	0.3	57	58	419	0.5	418	420	20.4	70.8
2022-10-18T15:07	10	57	0.3	56	57	418	0.3	417	419	20.4	70.8
2022-10-18T15:08	10	56	0.3	55	56	418	0.2	417	419	20.3	71.1
2022-10-18T15:09	10	55	0.2	54	55	418	0.2	418	418	20.4	71.2
2022-10-18T15:10	10	54	0.2	54	55	418	0.5	417	419	20.4	71.1
2022-10-18T15:11	10	54	0.2	53	54	417	0.4	417	418	20.4	70.0
2022-10-18T15:12	10	53	0.2	53	53	417	0.3	416	418	20.3	70.5
2022-10-18T15:13	10	53	0.2	52	53	417	0.4	416	417	20.4	70.2
2022-10-18T15:14	10	52	0.2	52	52	417	0.3	416	417	20.4	70.1
2022-10-18T15:15	10	52	0.1	51	52	416	0.3	416	417	20.4	69.8
2022-10-18T15:16	10	51	0.2	51	51	416	0.4	415	417	20.4	70.4
2022-10-18T15:17	10	50	0.2	50	51	416	0.3	415	417	20.3	70.7
2022-10-18T15:18	10	50	0.2	49	50	416	0.3	415	416	20.3	69.7
2022-10-18T15:19	10	49	0.3	48	49	415	0.2	415	416	20.3	69.3
2022-10-18T15:20	10	48	0.2	48	48	415	0.3	414	416	20.3	69.8
2022-10-18T15:21	10	47	0.2	47	48	414	0.4	414	415	20.3	69.5
2022-10-18T15:22	10	47	0.2	46	47	414	0.2	414	415	20.3	69.9
2022-10-18T15:23	10	46	0.2	46	47	414	0.3	413	415	20.2	70.0
2022-10-18T15:24	10	46	0.2	45	46	414	0.3	413	414	20.2	70.3
2022-10-18T15:25	10	45	0.2	44	45	414	0.3	413	414	20.2	70.7
2022-10-18T15:26	10	44	0.2	44	45	413	0.2	413	414	20.2	70.0
2022-10-18T15:27	10	44	0.1	43	44	414	0.4	413	414	20.2	70.6
2022-10-18T15:28	10	43	0.1	43	44	414	0.3	413	415	20.2	70.4
2022-10-18T15:29	10	43	0.2	43	43	413	0.3	412	413	20.1	69.5
2022-10-18T15:30	10	42	0.2	42	43	413	0.3	412	413	20.1	69.6
2022-10-18T15:31	10	42	0.2	41	42	412	0.4	411	413	20.1	69.9
2022-10-18T15:32	10	41	0.2	40	41	412	0.4	411	413	20.1	69.4
2022-10-18T15:33	10	40	0.2	40	41	412	0.4	411	413	20.1	69.7
2022-10-18T15:34	10	40	0.2	39	40	412	0.3	411	412	20.1	69.7
2022-10-18T15:35	10	39	0.2	38	39	411	0.2	411	412	20.1	69.6
2022-10-18T15:36	10	38	0.2	38	38	411	0.4	410	412	20.1	70.2
2022-10-18T15:37	10	37	0.2	37	38	411	0.3	410	411	20.1	69.2
2022-10-18T15:38	10	37	0.2	36	37	410	0.3	410	411	20.1	69.1
2022-10-18T15:39	10	36	0.2	36	37	410	0.2	410	411	20.1	69.3
2022-10-18T15:40	10	35	0.2	35	36	410	0.2	410	411	20.0	69.2
2022-10-18T15:41	10	35	0.2	34	35	410	0.3	409	411	20.0	69.7
2022-10-18T15:42	10	34	0.2	34	34	410	0.3	409	410	20.0	70.2
2022-10-18T15:43	10	33	0.2	33	34	410	0.3	409	410	20.0	70.8
2022-10-18T15:44	10	33	0.2	32	33	409	0.4	408	410	20.0	70.7
2022-10-18T15:45	10	32	0.2	31	32	409	0.3	408	410	20.0	70.7
2022-10-18T15:46	10	31	0.2	31	32	409	0.3	408	409	19.9	71.2
2022-10-18T15:47	10	30	0.2	30	31	408	0.4	408	409	19.9	70.7
2022-10-18T15:48	10	30	0.2	29	30	408	0.2	408	409	19.9	70.9
2022-10-18T15:49	10	29	0.2	28	29	408	0.5	407	409	19.9	71.1
2022-10-18T15:50	10	28	0.2	28	29	408	0.4	406	408	19.9	70.9
2022-10-18T15:51	10	27	0.2	27	28	407	0.4	406	408	19.9	71.0
2022-10-18T15:52	10	27	0.2	26	27	407	0.3	406	408	19.8	71.4
2022-10-18T15:53	10	26	0.2	26	27	407	0.3	406	407	19.8	71.7
2022-10-18T15:54	10	26	0.2	25	26	406	0.2	406	407	19.8	71.6
2022-10-18T15:55	10	25	0.2	24	25	406	0.2	406	407	19.8	71.2
2022-10-18T15:56	10	24	0.3	24	25	406	0.5	406	407	19.9	70.6
2022-10-18T15:57	10	23	0.2	23	24	406	0.3	405	406	19.8	71.3
2022-10-18T15:58	10	23	0.2	22	23	405	0.2	405	406	19.8	71.1
2022-10-18T15:59	10	22	0.2	22	22	405	0.2	404	405	19.8	71.2
2022-10-18T16:00	10	21	0.3	21	22	405	0.2	404	405	19.8	71.4
2022-10-18T16:01	10	21	0.2	20	21	404	0.3	403	405	19.7	71.6
2022-10-18T16:02	10	20	0.2	19	20	404	0.3	403	404	19.7	71.8
2022-10-18T16:03	10	19	0.2	19	20	403	0.3	402	404	19.7	71.6
2022-10-18T16:04	10	18	0.3	18	19	404	0.3	403	404	19.8	70.4
2022-10-18T16:05	10	18	0.3	17	18	403	0.2	403	404	19.8	70.4
2022-10-18T16:06	10	17	0.3	16	17	403	0.4	402	403	19.7	70.8
2022-10-18T16:07	10	16	0.2	15	16	402	0.3	401	402	19.7	71.3
2022-10-18T16:08	10	15	0.2	15	16	402	0.2	401	402	19.6	71.4
2022-10-18T16:09	10	14	0.3	14	15	401	0.3	400	402	19.6	71.5
2022-10-18T16:10	10	13	0.3	12	14	401	0.2	400	401	19.6	71.1
2022-10-18T16:11	10	12	0.3	11	13	400	0.3	400	401	19.6	71.5
2022-10-18T16:12	10	11	0.3	10	11	400	0.2	400	401	19.6	71.4
2022-10-18T16:13	10	10	0.4	9	10	400	0.2	399	401	19.5	71.4
2022-10-18T16:14	10	9	0.2	8	9	400	0.3	399	400	19.5	71.8
2022-10-18T16:15	10	8	0.1	8	9	399	0.2	398	400	19.5	71.8
2022-10-18T16:16	10	8	0.2	8	8	399	0.4	398	399	19.5	71.9
2022-10-18T16:17	10	8	0.2	7	8	398	0.2	398	399	19.5	71.8
2022-10-18T16:18	10	7	0.1	7	7	398	0.3	397	398	19.4	72.3
2022-10-18T16:19	10	7	0.1	7	7	398	0.4	397	398	19.5	71.8
2022-10-18T16:20	10	6	0.2	6	7	397	0.2	397	398	19.4	72.0
2022-10-18T16:21	10	6	0.2	6	6	397	0.3	396	398	19.4	72.4
2022-10-18T16:22	10	5	0.2	5	6	396	0.3	396	397	19.4	72.3
2022-10-18T16:23	10	5	0.1	5	5	396	0.2	396	397	19.3	72.4
2022-10-18T16:24	10	4	0.1	4	5	397	0.3	396	397	19.4	72.1
2022-10-18T16:25	10	4	0.2	3	4	397	0.2	396	397	19.3	72.2
2022-10-18T16:26	10	3	0.2	3	4	396	0.4	396	397	19.3	72.3
2022-10-18T16:27	10	3	0.2	2	3	396	0.3	396	397	19.3	72.4
2022-10-18T16:28	10	2	0.1	2	3	395	0.3	395	396	19.2	72.6
2022-10-18T16:29	10	2	0.2	2	2	395	0.3	394	396	19.2	72.6
2022-10-18T16:30	10	2	0.2	1	2	395	0.3	394	395	19.2	72.6
2022-10-18T16:31	10	1	0.2	1	2	395	0.3	394	395	19.2	72.6
2022-10-18T16:32	10	1	0.2	1	2	394	0.3	393	395	19.2	72.4
2022-10-18T16:33	10	1	0.2	0	1	394	0.2	393	394	19.2	72.5
2022-10-18T16:34	10	1	0.2	0	1	393	0.2	393	394	19.1	72.8
2022-10-18T16:35	10	0	0.2	0	1	393	0.2	392	393	19.1	72.9
2022-10-18T16:36	10	0	0.2	0	1	393	0.3	392	393	19.0	73.2
2022-10-18T16:37	10	0	0.2	0	1	392	0.2	392	393	19.0	73.5
2022-10-18T16:38	10	0	0.2	0	1	391	0.4	390	392	19.0	73.6
2022-10-18T16:39	10	0	0.2	0	1	390	0.5	389	391	19.0	73.8
2022-10-18T16:40	10	0	0.1	0	1	390	0.3	389	390	19.0	74.0
2022-10-18T16:41	10	0	0.1	0	0	389	0.4	388	390	18.9	74.0
2022-10-18T16:42	10	0	0.1	0	0	388	0.2	388	389	18.8	74.5
2022-10-18T16:43	10	0	0.1	0	0	388	0.3	388	389	18.9	74.3
2022-10-18T16:44	10	0	0.1	0	0	388	0.3	387	388	18.8	74.7
2022-10-18T16:45	10	0	0.1	0	0	388	0.2	387	388	18.8	74.9
2022-10-18T16:46	10	0	0.1	0	0	388	0.3	387	388	18.7	75.3
2022-10-18T16:47	10	0	0.1	0	0	387	0.3	387	388	18.8	74.9
2022-10-18T16:48	10	0	0.1	0	0	387	0.2	387	388	18.6	75.3
2022-10-18T16:49	10	0	0.1	0	0	387	0.2	387	388	18.6	76.0
2022-10-18T16:50	10	0	0.1	0	0	387	0.2	387	388	18.6	75.9
2022-10-18T16:51	10	0	0.1	-1	0	387	0.4	386	388	18.6	76.0
2022-10-18T16:52	10	0	0.1	-1	0	387	0.3	386	387	18.6	76.2
2022-10-18T16:53	10	0	0.1	-1	0	387	0.2	386	387	18.8	75.5
2022-10-18T16:54	10	-1	0.1	-1	0	388	0.4	387	388	18.7	75.4
2022-10-18T16:55	10	-1	0.1	-1	0	388	0.3	387	389	18.7	75.8
2022-10-18T16:56	10	-1	0.1	-1	0	388	0.3	387	389	18.6	76.2
2022-10-18T16:57	10	-1	0.1	-1	0	388	0.2	388	389	18.6	76.4
2022-10-18T16:58	10	-1	0.1	-1	0	388	0.3	387	388	18.6	76.5
2022-10-18T16:59	10	-1	0.1	-1	0	387	0.3	387	388	18.5	76.7
2022-10-18T17:00	10	-1	0.1	-1	0	387	0.2	386	387	18.5	77.0
2022-10-18T17:01	10	0	0.1	-1	0	387	0.4	386	388	18.5	77.0
2022-10-18T17:02	10	0	0.1	-1	0	386	0.2	386	387	18.4	77.2
2022-10-18T17:03	10	0	0.1	-1	0	386	0.2	386	387	18.5	77.3
2022-10-18T17:04	10	0	0.1	-1	0	386	0.3	386	387	18.4	77.5
2022-10-18T17:05	10	0	0.1	-1	0	386	0.2	385	386	18.4	77.7
2022-10-18T17:06	10	0	0.1	-1	0	385	0.3	385	386	18.3	77.9
2022-10-18T17:07	10	0	0.1	-1	0	385	0.3	384	386	18.3	78.0
2022-10-18T17:08	10	0	0.1	-1	0	385	0.4	384	385	18.2	78.5
2022-10-18T17:09	10	0	0.1	0	0	384	0.3	383	385	18.2	78.7
2022-10-18T17:10	10	0	0.1	0	0	384	0.5	383	385	18.2	78.9
2022-10-18T17:11	10	0	0.1	0	0	384	0.3	383	385	18.1	78.8
2022-10-18T17:12	10	0	0.1	0	0	384	0.4	383	385	18.0	79.5
2022-10-18T17:13	10	0	0.1	0	0	384	0.3	383	384	18.0	79.7
2022-10-18T17:14	10	0	0.1	0	0	384	0.2	383	384	17.9	80.2
2022-10-18T17:15	10	0	0.1	0	0	384	0.3	383	385	17.8	80.6
2022-10-18T17:16	10	0	0.1	0	0	384	0.3	384	385	17.8	80.8
2022-10-18T17:17	10	0	0.1	0	0	384	0.2	384	385	17.8	81.0
2022-10-18T17:18	10	0	0.1	0	0	384	0.2	383	384	17.7	81.4
2022-10-18T17:19	10	0	0.1	0	0	384	0.2	384	385	17.5	82.9
2022-10-18T17:20	10	0	0.1	0	0	384	0.3	383	385	17.5	83.2
2022-10-18T17:21	10	0	0.1	0	0	385	0.3	384	385	17.6	82.7
2022-10-18T17:22	10	0	0.1	0	0	385	0.2	384	385	17.7	81.9
2022-10-18T17:23	10	0	0.1	0	0	384	0.2	384	385	17.6	82.3
2022-10-18T17:24	10	0	0.1	0	0	384	0.4	383	385	17.5	82.6
2022-10-18T17:25	10	0	0.1	0	0	383	0.3	383	384	17.4	83.2
2022-10-18T17:26	10	0	0.2	0	1	383	0.3	382	383	17.4	83.6
2022-10-18T17:27	10	0	0.1	0	1	382	0.3	381	383	17.5	83.3
2022-10-18T17:28	10	0	0.2	0	1	382	0.2	381	382	17.5	83.2
2022-10-18T17:29	10	0	0.2	0	1	381	0.2	381	382	17.5	83.0
2022-10-18T17:30	10	0	0.2	0	1	381	0.3	380	382	17.5	82.8
2022-10-18T17:31	10	0	0.2	0	1	381	0.3	380	381	17.5	82.9
2022-10-18T17:32	10	0	0.2	0	1	380	0.3	379	381	17.5	83.1
2022-10-18T17:33	10	0	0.1	0	1	380	0.3	379	381	17.4	83.3
2022-10-18T17:34	10	0	0.2	0	1	380	0.2	379	380	17.4	83.7
2022-10-18T17:35	10	0	0.2	0	1	380	0.3	379	380	17.3	83.7
2022-10-18T17:36	10	0	0.1	0	1	379	0.3	378	380	16.8	84.6
2022-10-18T17:37	10	0	0.2	0	1	379	0.2	379	380	16.4	87.5
2022-10-18T17:38	10	1	0.1	0	1	380	0.2	379	380	16.7	87.9
2022-10-18T17:39	10	1	0.1	0	1	379	0.5	379	380	16.6	87.0
2022-10-18T17:40	10	1	0.1	0	1	379	0.4	379	380	16.5	87.8
2022-10-18T17:41	10	1	0.1	1	1	379	0.3	379	380	16.7	87.5
2022-10-18T17:42	10	1	0.1	1	1	380	0.2	379	380	16.7	87.2
2022-10-18T17:43	10	1	0.1	1	1	380	0.3	379	380	16.8	86.8
2022-10-18T17:44	10	1	0.1	1	1	379	0.2	379	380	16.8	86.7
2022-10-18T17:45	10	1	0.1	1	1	379	0.2	378	379	16.8	86.7
2022-10-18T17:46	10	1	0.1	1	1	379	0.2	378	379	16.7	86.7
2022-10-18T17:47	10	1	0.1	1	1	379	0.2	378	379	16.8	86.9
2022-10-18T17:48	10	1	0.1	1	1	379	0.2	378	379	16.9	86.5
2022-10-18T17:49	10	1	0.1	1	1	379	0.2	378	380	16.9	86.2
2022-10-18T17:50	10	1	0.1	1	1	379	0.2	379	379	17.0	85.8
2022-10-18T17:51	10	1	0.1	1	1	379	0.2	379	380	17.0	85.6
2022-10-18T17:52	10	1	0.1	1	1	379	0.3	378	380	17.0	85.6
2022-10-18T17:53	10	1	0.1	1	1	379	0.2	379	379	17.0	85.8
2022-10-18T17:54	10	1	0.1	1	1	379	0.2	378	379	17.0	85.8
2022-10-18T17:55	10	1	0.1	1	1	378	0.2	378	379	17.0	85.9
2022-10-18T17:56	10	1	0.1	0	1	378	0.2	378	379	16.9	86.1
2022-10-18T17:57	10	1	0.1	0	1	378	0.2	377	378	16.8	86.2
2022-10-18T17:58	10	1	0.1	1	1	378	0.2	377	378	16.7	86.5
2022-10-18T17:59	10	1	0.1	1	1	377	0.3	377	378	16.6	86.7
2022-10-18T18:00	10	1	0.1	0	1	378	0.2	377	378	16.6	86.9
2022-10-18T18:01	10	1	0.1	0	1	378	0.2	377	378	16.6	86.9
2022-10-18T18:02	10	1	0.1	0	1	378	0.3	377	379	16.5	87.0
2022-10-18T18:03	10	1	0.1	0	1	378	0.3	377	379	16.4	87.3
2022-10-18T18:04	10	1	0.1	0	1	378	0.3	377	379	16.4	87.5
2022-10-18T18:05	10	1	0.1	1	1	378	0.2	377	379	16.5	87.4
2022-10-18T18:06	10	1	0.1	1	1	378	0.3	377	378	16.6	87.1
2022-10-18T18:07	10	1	0.1	1	1	378	0.2	377	378	16.6	86.9
2022-10-18T18:08	10	1	0.1	1	1	378	0.2	377	378	16.6	86.8
2022-10-18T18:09	10	1	0.1	1	1	377	0.3	376	378	16.5	87.1
2022-10-18T18:10	10	1	0.1	1	1	377	0.2	376	378	16.4	87.8
2022-10-18T18:11	10	1	0.1	1	1	377	0.3	376	378	16.5	87.9
2022-10-18T18:12	10	1	0.1	1	1	377	0.2	376	377	16.5	87.5
2022-10-18T18:13	10	1	0.1	1	1	376	0.3	376	377	16.5	87.2
2022-10-18T18:14	10	1	0.1	1	1	376	0.4	376	377	16.3	87.7
2022-10-18T18:15	10	1	0.1	1	1	377	0.2	376	377	16.4	88.1
2022-10-18T18:16	10	1	0.1	1	1	376	0.3	376	377	16.4	87.7
2022-10-18T18:17	10	1	0.1	1	1	376	0.2	376	377	16.4	87.7
2022-10-18T18:18	10	1	0.1	1	1	376	0.2	375	376	16.5	87.5
2022-10-18T18:19	10	1	0.1	1	1	376	0.3	375	377	16.5	87.1
2022-10-18T18:20	10	1	0.1	1	1	376	0.2	375	376	16.5	86.9
2022-10-18T18:21	10	1	0.1	1	1	375	0.2	375	376	16.5	86.7
2022-10-18T18:22	10	1	0.1	1	1	375	0.2	375	376	16.5	87.0
2022-10-18T18:23	10	1	0.1	1	1	375	0.2	375	375	16.5	87.3
2022-10-18T18:24	10	1	0.1	1	1	375	0.3	375	376	16.6	87.2
2022-10-18T18:25	10	1	0.1	1	1	376	0.4	375	376	16.5	87.1
2022-10-18T18:26	10	1	0.1	1	1	376	0.3	375	376	16.6	87.0
2022-10-18T18:27	10	1	0.1	1	1	376	0.3	376	377	16.5	87.0
2022-10-18T18:28	10	1	0.1	1	1	376	0.2	375	376	16.2	87.5
2022-10-18T18:29	10	1	0.1	1	1	376	0.3	376	377	16.2	88.5
2022-10-18T18:30	10	1	0.1	1	1	376	0.3	376	377	16.3	88.2
2022-10-18T18:31	10	1	0.1	1	1	376	0.3	376	377	16.2	88.3
2022-10-18T18:32	10	1	0.1	1	1	376	0.3	375	376	16.1	88.2
2022-10-18T18:33	10	1	0.1	1	1	376	0.3	375	376	16.2	88.8
2022-10-18T18:34	10	1	0.1	1	1	375	0.2	375	376	16.2	88.7
2022-10-18T18:35	10	1	0.1	0	1	375	0.2	375	376	16.2	88.7
2022-10-18T18:36	10	1	0.1	1	1	375	0.3	374	375	16.3	88.7
2022-10-18T18:37	10	1	0.1	0	1	374	0.2	374	375	16.3	88.5
2022-10-18T18:38	10	1	0.1	1	1	374	0.2	373	375	16.1	88.4
2022-10-18T18:39	10	1	0.1	0	1	375	0.3	374	375	16.1	88.5
2022-10-18T18:40	10	1	0.1	0	1	374	0.2	374	375	16.2	88.5
2022-10-18T18:41	10	1	0.1	1	1	375	0.2	374	375	16.3	88.4
2022-10-18T18:42	10	1	0.1	1	1	375	0.2	375	375	16.4	88.2
2022-10-18T18:43	10	1	0.2	0	1	374	0.3	373	375	16.5	87.6
2022-10-18T18:44	10	1	0.2	1	1	374	0.3	374	375	16.6	87.0
2022-10-18T18:45	10	1	0.1	0	1	374	0.4	373	375	16.5	86.9
2022-10-18T18:46	10	1	0.2	1	1	374	0.4	373	375	16.3	87.5
2022-10-18T18:47	10	1	0.1	1	1	374	0.2	374	375	16.2	88.0
2022-10-18T18:48	10	1	0.2	0	2	374	0.2	373	374	16.2	88.2
2022-10-18T18:49	10	1	0.1	1	1	373	0.3	373	374	16.1	88.4
2022-10-18T18:50	10	1	0.2	0	1	373	0.2	372	373	15.9	88.9
2022-10-18T18:51	10	1	0.2	0	1	373	0.4	373	374	15.7	89.4
2022-10-18T18:52	10	1	0.1	0	1	373	0.3	372	374	15.9	89.9
2022-10-18T18:53	10	1	0.2	0	1	373	0.3	373	374	15.8	89.3
2022-10-18T18:54	10	1	0.1	0	1	373	0.3	372	374	15.6	88.8
2022-10-18T18:55	10	1	0.1	0	1	373	0.3	372	373	15.6	89.6
2022-10-18T18:56	10	1	0.1	0	1	372	0.2	372	373	15.7	89.8
2022-10-18T18:57	10	1	0.1	0	1	373	0.3	372	373	15.7	89.6
2022-10-18T18:58	10	1	0.1	0	1	372	0.3	371	373	15.6	89.5
2022-10-18T18:59	10	1	0.1	0	1	372	0.3	372	373	15.6	90.3
2022-10-18T19:00	10	1	0.1	0	1	373	0.2	372	373	15.7	90.4
2022-10-18T19:01	10	1	0.1	0	1	373	0.3	372	373	15.8	90.5
2022-10-18T19:02	10	1	0.1	1	1	373	0.2	372	373	15.9	90.2
2022-10-18T19:03	10	1	0.1	0	1	372	0.2	372	373	15.8	90.2
2022-10-18T19:04	10	1	0.1	0	1	373	0.4	372	373	15.8	90.3
2022-10-18T19:05	10	1	0.1	0	1	373	0.2	372	373	15.7	90.3
2022-10-18T19:06	10	1	0.1	0	1	373	0.2	372	373	15.7	90.4
2022-10-18T19:07	10	1	0.1	0	1	372	0.2	372	373	15.6	90.6
2022-10-18T19:08	10	1	0.1	0	1	373	0.2	372	373	15.5	90.7
2022-10-18T19:09	10	1	0.1	0	1	373	0.2	372	373	15.7	90.4
2022-10-18T19:10	10	1	0.1	0	1	373	0.2	373	374	15.8	89.3
2022-10-18T19:11	10	1	0.1	1	1	373	0.3	372	373	15.7	88.8
2022-10-18T19:12	10	1	0.1	1	1	372	0.3	371	373	15.6	88.8
2022-10-18T19:13	10	1	0.1	1	1	371	0.2	371	372	15.5	89.3
2022-10-18T19:14	10	1	0.1	1	1	372	0.3	371	372	15.5	89.4
2022-10-18T19:15	10	1	0.1	0	1	372	0.2	372	373	15.6	89.4
2022-10-18T19:16	10	1	0.1	0	1	373	0.2	372	374	15.7	88.7
2022-10-18T19:17	10	1	0.1	0	1	373	0.3	373	374	15.6	88.7
2022-10-18T19:18	10	1	0.1	0	1	374	0.3	373	374	15.6	88.6
2022-10-18T19:19	10	0	0.1	0	1	374	0.3	373	374	15.4	89.4
2022-10-18T19:20	10	0	0.1	0	1	374	0.2	373	374	15.6	89.3
2022-10-18T19:21	10	0	0.1	0	1	374	0.3	373	374	15.4	89.4
2022-10-18T19:22	10	0	0.1	0	1	373	0.4	372	374	15.3	89.8
2022-10-18T19:23	10	0	0.1	0	1	372	0.3	372	373	15.1	90.5
2022-10-18T19:24	10	0	0.1	0	0	372	0.2	372	373	15.1	91.4
2022-10-18T19:25	10	0	0.1	0	1	372	0.2	372	373	15.2	91.6
2022-10-18T19:26	10	0	0.1	0	1	373	0.2	372	373	15.2	91.4
2022-10-18T19:27	10	0	0.1	0	1	373	0.2	372	373	15.1	91.6
2022-10-18T19:28	10	1	0.1	0	1	373	0.3	373	374	15.2	91.8
2022-10-18T19:29	10	1	0.1	0	1	373	0.5	372	374	15.5	91.2
2022-10-18T19:30	10	1	0.1	0	1	372	0.3	372	373	15.5	90.5
2022-10-18T19:31	10	1	0.1	0	1	372	0.2	371	372	15.3	90.2
2022-10-18T19:32	10	1	0.1	0	1	372	0.3	371	373	15.3	90.9
2022-10-18T19:33	10	1	0.1	1	1	372	0.2	372	373	15.4	90.8
2022-10-18T19:34	10	1	0.1	1	1	373	0.2	372	373	15.5	90.3
2022-10-18T19:35	10	1	0.1	0	1	373	0.3	372	373	15.6	90.1
2022-10-18T19:36	10	1	0.1	0	1	372	0.2	372	373	15.4	90.1
2022-10-18T19:37	10	1	0.1	0	1	372	0.2	372	373	15.4	90.3
2022-10-18T19:38	10	1	0.1	1	1	372	0.2	371	373	15.4	90.3
2022-10-18T19:39	10	1	0.1	0	1	372	0.3	371	373	15.4	90.3
2022-10-18T19:40	10	1	0.1	0	1	372	0.3	371	373	15.3	90.4
2022-10-18T19:41	10	1	0.1	0	1	372	0.3	372	373	15.3	90.7
2022-10-18T19:42	10	1	0.1	0	1	372	0.3	371	372	15.5	90.9
2022-10-18T19:43	10	1	0.1	0	1	371	0.2	371	372	15.3	90.4
2022-10-18T19:44	10	1	0.1	0	1	371	0.3	371	372	14.8	90.6
2022-10-18T19:45	10	1	0.1	0	1	372	0.2	371	372	14.8	92.2
2022-10-18T19:46	10	1	0.1	0	1	372	0.3	371	372	15.0	92.3
2022-10-18T19:47	10	1	0.1	0	1	372	0.2	371	372	15.0	91.9
2022-10-18T19:48	10	1	0.1	1	1	372	0.2	371	372	15.1	92.0
2022-10-18T19:49	10	1	0.1	1	1	371	0.2	371	372	15.3	91.6
2022-10-18T19:50	10	1	0.1	1	1	371	0.4	370	371	15.3	91.2
2022-10-18T19:51	10	1	0.1	1	1	370	0.3	370	371	15.2	90.8
2022-10-18T19:52	10	1	0.1	1	1	370	0.2	370	371	15.1	91.0
2022-10-18T19:53	10	1	0.1	1	1	370	0.3	369	370	15.0	91.3
2022-10-18T19:54	10	1	0.1	1	1	370	0.2	369	370	15.0	91.6
2022-10-18T19:55	10	1	0.1	1	1	370	0.2	369	370	14.9	91.8
2022-10-18T19:56	10	1	0.1	1	1	369	0.2	369	370	14.9	91.8
2022-10-18T19:57	10	1	0.1	1	1	370	0.2	369	370	14.9	92.0
2022-10-18T19:58	10	1	0.1	1	1	369	0.2	369	370	14.8	92.1
2022-10-18T19:59	10	1	0.1	1	1	370	0.2	369	370	14.6	92.3
2022-10-18T20:00	10	1	0.1	1	1	370	0.2	369	370	14.6	92.6
2022-10-18T20:01	10	1	0.1	1	1	370	0.2	369	370	14.5	92.8
2022-10-18T20:02	10	1	0.1	1	1	370	0.2	369	370	14.5	93.1
2022-10-18T20:03	10	1	0.1	1	1	370	0.2	369	370	14.4	93.2
2022-10-18T20:04	10	1	0.1	1	1	370	0.2	370	370	14.4	93.3
2022-10-18T20:05	10	1	0.1	1	1	370	0.2	369	370	14.4	93.4
2022-10-18T20:06	10	1	0.1	1	1	370	0.3	369	370	14.4	93.4
2022-10-18T20:07	10	1	0.1	1	1	370	0.2	369	370	14.4	93.5
2022-10-18T20:08	10	1	0.1	1	1	369	0.2	369	370	14.4	93.7
2022-10-18T20:09	10	1	0.1	1	1	369	0.2	369	370	14.4	93.9
2022-10-18T20:10	10	1	0.1	1	1	369	0.2	369	370	14.4	93.9
2022-10-18T20:11	10	1	0.1	1	1	369	0.2	369	370	14.4	93.8
2022-10-18T20:12	10	1	0.1	1	1	369	0.2	369	370	14.5	93.9
2022-10-18T20:13	10	1	0.1	1	1	369	0.2	369	370	14.4	93.7
2022-10-18T20:14	10	1	0.1	1	1	369	0.2	369	370	14.4	93.8
2022-10-18T20:15	10	1	0.1	1	1	369	0.2	369	370	14.3	94.0
2022-10-18T20:16	10	1	0.1	1	1	369	0.2	368	369	14.3	94.1
2022-10-18T20:17	10	1	0.1	1	1	369	0.2	368	369	14.2	94.2
2022-10-18T20:18	10	1	0.1	1	1	369	0.2	368	369	14.2	94.3
2022-10-18T20:19	10	1	0.1	1	1	369	0.2	368	369	14.2	94.3
2022-10-18T20:20	10	1	0.1	1	1	369	0.2	368	369	14.1	94.4
2022-10-18T20:21	10	1	0.1	1	1	368	0.2	368	369	14.1	94.7
2022-10-18T20:22	10	1	0.1	1	1	369	0.2	368	369	14.0	94.8
2022-10-18T20:23	10	1	0.1	1	1	369	0.2	368	369	13.9	94.9
2022-10-18T20:24	10	1	0.1	1	1	368	0.2	368	369	14.1	95.4
2022-10-18T20:25	10	1	0.1	1	1	368	0.2	368	369	14.1	95.4
2022-10-18T20:26	10	1	0.1	0	1	368	0.2	367	368	14.2	95.4
2022-10-18T20:27	10	1	0.1	1	1	368	0.2	367	368	14.3	95.4
2022-10-18T20:28	10	1	0.1	0	1	368	0.2	367	368	14.3	95.2
2022-10-18T20:29	10	1	0.1	1	1	368	0.3	367	369	14.2	95.1
2022-10-18T20:30	10	1	0.1	1	1	368	0.2	368	369	14.3	95.2
2022-10-18T20:31	10	1	0.1	0	1	368	0.3	367	368	14.3	94.9
2022-10-18T20:32	10	1	0.1	0	1	367	0.2	367	368	14.2	94.8
2022-10-18T20:33	10	1	0.1	1	1	367	0.2	367	368	14.1	95.0
2022-10-18T20:34	10	1	0.1	0	1	367	0.2	367	368	14.1	95.2
2022-10-18T20:35	10	1	0.1	1	1	367	0.3	366	368	14.2	95.3
2022-10-18T20:36	10	1	0.1	1	1	367	0.3	366	367	14.1	95.3
2022-10-18T20:37	10	1	0.1	0	1	366	0.3	366	367	14.0	95.2
2022-10-18T20:38	10	1	0.2	0	1	367	0.2	366	367	14.0	95.3
2022-10-18T20:39	10	1	0.1	0	1	367	0.2	366	367	13.9	95.5
2022-10-18T20:40	10	1	0.2	0	1	367	0.2	366	367	13.9	95.6
2022-10-18T20:41	10	1	0.2	0	1	367	0.3	366	367	14.0	95.8
2022-10-18T20:42	10	1	0.1	1	1	367	0.2	366	367	14.0	95.8
2022-10-18T20:43	10	1	0.1	0	1	367	0.3	366	367	14.0	95.9
2022-10-18T20:44	10	1	0.2	0	1	367	0.3	366	368	14.1	96.0
2022-10-18T20:45	10	1	0.1	0	1	367	0.3	366	368	14.1	96.0
2022-10-18T20:46	10	1	0.2	0	1	367	0.2	367	368	14.0	95.8
2022-10-18T20:47	10	1	0.1	1	1	367	0.3	366	368	13.9	95.5
2022-10-18T20:48	10	1	0.2	0	1	367	0.2	367	368	13.8	95.5
2022-10-18T20:49	10	1	0.1	0	1	368	0.3	367	368	13.8	95.6
2022-10-18T20:50	10	1	0.2	0	1	368	0.2	367	368	13.9	95.6
2022-10-18T20:51	10	1	0.2	0	1	368	0.3	367	368	13.9	95.7
2022-10-18T20:52	10	1	0.2	0	1	368	0.2	367	368	14.1	95.8
2022-10-18T20:53	10	1	0.2	0	1	368	0.2	367	369	14.1	95.8
2022-10-18T20:54	10	1	0.1	0	1	367	0.3	367	368	14.1	95.8
2022-10-18T20:55	10	1	0.2	0	1	367	0.3	366	368	14.0	95.8
2022-10-18T20:56	10	1	0.2	0	1	367	0.3	366	367	13.9	95.8
2022-10-18T20:57	10	1	0.1	1	1	366	0.2	366	367	13.8	95.8
2022-10-18T20:58	10	1	0.1	1	1	366	0.2	366	367	13.9	96.1
2022-10-18T20:59	10	1	0.1	1	1	366	0.2	365	366	13.9	96.2
2022-10-18T21:00	10	1	0.1	1	1	366	0.2	365	366	13.8	96.3
2022-10-18T21:01	10	1	0.1	1	1	365	0.2	365	366	13.8	96.3
2022-10-18T21:02	10	1	0.1	1	1	365	0.2	365	365	13.8	96.4
2022-10-18T21:03	10	1	0.1	1	1	365	0.2	365	365	13.8	96.6
2022-10-18T21:04	10	1	0.1	1	1	365	0.2	365	365	13.7	96.6
2022-10-18T21:05	10	1	0.1	0	1	365	0.2	364	365	13.6	96.6
2022-10-18T21:06	10	1	0.1	1	1	365	0.3	364	365	13.7	96.7
2022-10-18T21:07	10	1	0.1	0	1	365	0.2	364	365	13.7	96.7
2022-10-18T21:08	10	1	0.1	0	1	365	0.2	365	365	13.7	96.8
2022-10-18T21:09	10	1	0.1	0	1	365	0.2	365	366	13.6	96.7
2022-10-18T21:10	10	1	0.1	0	1	365	0.3	365	366	13.6	96.7
2022-10-18T21:11	10	1	0.1	1	1	365	0.4	365	366	13.5	96.5
2022-10-18T21:12	10	1	0.1	1	1	366	0.2	365	366	13.5	96.6
2022-10-18T21:13	10	1	0.1	1	1	365	0.2	365	366	13.5	96.6
2022-10-18T21:14	10	1	0.1	0	1	365	0.2	365	366	13.5	96.7
2022-10-18T21:15	10	1	0.1	0	1	365	0.3	364	366	13.5	96.6
2022-10-18T21:16	10	1	0.1	0	1	366	0.3	365	366	13.5	96.5
2022-10-18T21:17	10	0	0.1	0	1	366	0.2	366	367	13.5	96.6
2022-10-18T21:18	10	1	0.0	0	1	366	0.3	365	367	13.5	96.5
2022-10-18T21:19	10	1	0.1	0	1	365	0.3	365	366	13.5	96.5
2022-10-18T21:20	10	1	0.1	0	1	365	0.3	364	366	13.4	96.3
2022-10-18T21:21	10	0	0.1	0	1	365	0.3	364	366	13.3	96.0
2022-10-18T21:22	10	0	0.1	0	0	365	0.2	364	365	13.3	96.0
2022-10-18T21:23	10	0	0.1	0	0	364	0.2	364	365	13.4	96.2
2022-10-18T21:24	10	0	0.0	0	0	364	0.3	363	364	13.3	96.1
2022-10-18T21:25	10	0	0.1	0	0	364	0.2	363	364	13.3	96.1
2022-10-18T21:26	10	0	0.1	0	0	364	0.2	363	364	13.3	96.1
2022-10-18T21:27	10	0	0.1	0	0	364	0.2	363	364	13.4	96.3
2022-10-18T21:28	10	0	0.1	0	0	364	0.4	363	365	13.4	96.3
2022-10-18T21:29	10	0	0.1	0	0	364	0.3	363	365	13.5	96.5
2022-10-18T21:30	10	0	0.1	0	0	364	0.2	364	365	13.6	96.6
2022-10-18T21:31	10	0	0.1	0	0	365	0.2	364	365	13.6	96.7
2022-10-18T21:32	10	0	0.1	0	0	364	0.3	364	365	13.5	96.7
2022-10-18T21:33	10	0	0.1	0	0	364	0.2	363	364	13.5	96.7
2022-10-18T21:34	10	0	0.0	0	0	363	0.3	363	364	13.6	96.9
2022-10-18T21:35	10	0	0.1	0	0	363	0.3	363	364	13.6	97.0
2022-10-18T21:36	10	0	0.0	0	0	363	0.2	363	364	13.6	96.9
2022-10-18T21:37	10	0	0.1	0	1	363	0.2	362	363	13.5	96.8
2022-10-18T21:38	10	0	0.1	0	1	363	0.3	362	363	13.3	96.8
2022-10-18T21:39	10	0	0.1	0	1	362	0.3	362	363	13.3	96.8
2022-10-18T21:40	10	0	0.1	0	1	362	0.2	362	363	13.1	96.7
2022-10-18T21:41	10	0	0.1	0	1	363	0.3	362	363	13.1	96.7
2022-10-18T21:42	10	0	0.1	0	1	363	0.2	362	363	13.1	96.7
2022-10-18T21:43	10	0	0.0	0	1	363	0.2	362	363	13.0	96.6
2022-10-18T21:44	10	0	0.1	0	1	363	0.2	362	363	13.1	96.7
2022-10-18T21:45	10	0	0.1	0	0	363	0.3	363	364	13.2	96.8
2022-10-18T21:46	10	0	0.1	0	0	363	0.3	362	363	13.2	96.6
2022-10-18T21:47	10	0	0.1	0	0	363	0.2	362	363	13.2	96.6
2022-10-18T21:48	10	0	0.1	0	0	363	0.3	362	363	13.2	96.5
2022-10-18T21:49	10	0	0.1	0	0	363	0.2	362	363	13.2	96.5
2022-10-18T21:50	10	0	0.1	0	1	363	0.2	362	363	13.2	96.4
2022-10-18T21:51	10	0	0.1	0	0	362	0.2	362	363	13.1	96.3
2022-10-18T21:52	10	0	0.1	0	1	362	0.2	362	362	13.0	96.3
2022-10-18T21:53	10	0	0.1	0	1	362	0.2	362	362	12.9	96.3
2022-10-18T21:54	10	0	0.1	0	1	362	0.3	361	363	12.9	96.5
2022-10-18T21:55	10	0	0.1	0	1	362	0.2	361	362	12.9	96.6
2022-10-18T21:56	10	0	0.1	0	0	362	0.3	361	363	12.8	96.6
2022-10-18T21:57	10	0	0.1	0	0	363	0.3	362	364	12.8	96.8
2022-10-18T21:58	10	0	0.1	0	0	363	0.2	363	364	12.8	96.9
2022-10-18T21:59	10	0	0.1	0	0	363	0.2	363	363	12.9	97.0
2022-10-18T22:00	10	0	0.1	0	0	363	0.3	363	364	12.9	97.1
2022-10-18T22:01	10	0	0.1	0	0	363	0.3	363	364	12.8	97.1
2022-10-18T22:02	10	0	0.1	0	0	363	0.3	363	364	12.9	97.3
2022-10-18T22:03	10	0	0.1	0	0	363	0.3	363	364	12.9	97.2
2022-10-18T22:04	10	0	0.1	-1	0	364	0.3	363	364	13.0	97.3
2022-10-18T22:05	10	0	0.1	-1	0	364	0.2	363	364	12.9	97.3
2022-10-18T22:06	10	0	0.1	-1	0	363	0.4	363	364	12.7	97.1
2022-10-18T22:07	10	0	0.1	-1	0	364	0.2	363	364	12.6	97.1
2022-10-18T22:08	10	0	0.1	-1	0	364	0.2	363	364	12.7	97.2
2022-10-18T22:09	10	0	0.1	0	0	364	0.2	364	365	12.9	97.4
2022-10-18T22:10	10	0	0.1	0	0	364	0.2	363	364	12.9	97.3
2022-10-18T22:11	10	0	0.1	-1	0	364	0.3	363	364	12.8	97.2
2022-10-18T22:12	10	0	0.1	-1	0	363	0.3	363	364	12.8	97.2
2022-10-18T22:13	10	0	0.1	-1	0	362	0.3	362	363	12.7	97.1
2022-10-18T22:14	10	0	0.1	-1	0	362	0.2	362	363	12.6	97.1
2022-10-18T22:15	10	0	0.1	-1	0	362	0.4	362	363	12.5	97.1
2022-10-18T22:16	10	-1	0.1	-1	0	363	0.3	362	363	12.4	97.0
2022-10-18T22:17	10	-1	0.1	-1	0	363	0.3	362	364	12.4	97.1
2022-10-18T22:18	10	0	0.1	-1	0	363	0.2	363	364	12.6	97.3
2022-10-18T22:19	10	0	0.1	-1	0	364	0.3	363	365	12.8	97.6
2022-10-18T22:20	10	0	0.1	-1	0	364	0.2	363	364	12.9	97.6
2022-10-18T22:21	10	0	0.1	-1	0	363	0.3	362	364	12.8	97.5
2022-10-18T22:22	10	0	0.1	0	0	365	0.6	364	366	12.7	97.4
2022-10-18T22:23	10	0	0.1	0	0	366	0.2	365	366	13.0	97.6
2022-10-18T22:24	10	0	0.1	0	0	365	0.3	365	366	13.0	97.5
2022-10-18T22:25	10	0	0.1	0	0	365	0.3	365	366	13.1	97.5
2022-10-18T22:26	10	0	0.1	0	0	365	0.3	365	366	13.1	97.5
2022-10-18T22:27	10	0	0.1	0	0	365	0.3	365	366	13.3	97.5
2022-10-18T22:28	10	0	0.1	0	0	365	0.2	364	365	13.2	97.3
2022-10-18T22:29	10	0	0.1	0	0	365	0.2	364	365	13.2	97.2
2022-10-18T22:30	10	0	0.1	0	0	366	0.4	365	366	13.0	97.1
2022-10-18T22:31	10	0	0.1	0	0	365	0.2	365	366	13.1	97.2
2022-10-18T22:32	10	0	0.1	0	0	365	0.4	364	366	13.3	97.5
2022-10-18T22:33	10	0	0.1	0	0	364	0.3	364	365	13.3	97.4
2022-10-18T22:34	10	0	0.1	0	1	363	0.4	362	364	13.3	97.3
2022-10-18T22:35	10	0	0.1	0	1	362	0.4	361	363	12.9	96.9
2022-10-18T22:36	10	0	0.1	0	0	362	0.3	362	363	12.8	96.9
2022-10-18T22:37	10	0	0.0	0	0	362	0.3	362	363	12.8	97.1
2022-10-18T22:38	10	0	0.1	0	0	362	0.2	362	363	12.9	97.3
2022-10-18T22:39	10	0	0.1	0	0	362	0.3	361	363	12.9	97.4
2022-10-18T22:40	10	0	0.1	0	0	362	0.3	361	362	12.9	97.5
2022-10-18T22:41	10	0	0.1	0	0	362	0.2	361	362	12.9	97.6
2022-10-18T22:42	10	0	0.1	0	0	362	0.3	361	363	12.8	97.6
2022-10-18T22:43	10	0	0.1	0	0	363	0.3	362	363	12.8	97.7
2022-10-18T22:44	10	0	0.1	0	0	363	0.2	362	363	12.9	97.8
2022-10-18T22:45	10	0	0.1	0	0	363	0.3	362	363	13.0	97.9
2022-10-18T22:46	10	0	0.1	0	0	362	0.2	362	363	13.0	97.9
2022-10-18T22:47	10	0	0.0	0	0	362	0.3	361	363	13.0	97.9
2022-10-18T22:48	10	0	0.1	0	0	362	0.3	361	362	12.9	97.9
2022-10-18T22:49	10	0	0.1	0	0	362	0.2	361	363	12.9	97.8
2022-10-18T22:50	10	0	0.1	0	0	362	0.2	362	362	13.0	97.9
2022-10-18T22:51	10	0	0.1	0	0	362	0.2	362	362	13.1	98.0
2022-10-18T22:52	10	0	0.1	0	0	362	0.3	361	362	13.1	98.0
2022-10-18T22:53	10	0	0.0	0	0	361	0.2	361	362	13.1	97.9
2022-10-18T22:54	10	0	0.1	0	0	361	0.3	360	362	13.1	97.8
2022-10-18T22:55	10	0	0.1	0	1	361	0.3	360	362	12.9	97.7
2022-10-18T22:56	10	0	0.0	0	1	360	0.2	360	361	12.9	97.6
2022-10-18T22:57	10	0	0.1	0	1	360	0.3	360	361	12.9	97.6
2022-10-18T22:58	10	0	0.1	0	1	360	0.3	359	361	12.9	97.5
2022-10-18T22:59	10	0	0.1	0	1	360	0.2	360	361	12.9	97.6
2022-10-18T23:00	10	0	0.1	0	1	361	0.2	360	361	13.1	97.7
2022-10-18T23:01	10	0	0.0	0	1	361	0.2	360	361	13.1	97.7
2022-10-18T23:02	10	0	0.1	0	1	360	0.3	359	361	13.0	97.6
2022-10-18T23:03	10	0	0.1	0	1	359	0.4	359	360	12.7	97.3
2022-10-18T23:04	10	0	0.1	0	1	359	0.4	358	360	12.5	97.1
2022-10-18T23:05	10	0	0.1	0	0	359	0.2	358	359	12.3	97.2
2022-10-18T23:06	10	0	0.1	0	0	359	0.3	358	360	12.3	97.3
2022-10-18T23:07	10	0	0.1	0	0	359	0.2	358	359	12.4	97.6
2022-10-18T23:08	10	0	0.1	0	0	359	0.5	358	360	12.4	97.8
2022-10-18T23:09	10	0	0.1	0	0	360	0.2	359	360	12.5	97.9
2022-10-18T23:10	10	0	0.1	0	0	360	0.4	359	360	12.4	98.0
2022-10-18T23:11	10	0	0.1	0	0	360	0.2	359	360	12.3	98.0
2022-10-18T23:12	10	0	0.1	0	0	360	0.2	359	360	12.5	98.1
2022-10-18T23:13	10	0	0.1	0	0	359	0.3	358	360	12.5	98.2
2022-10-18T23:14	10	0	0.1	0	0	359	0.2	359	360	12.4	98.2
2022-10-18T23:15	10	0	0.1	0	0	359	0.3	358	360	12.4	98.2
2022-10-18T23:16	10	0	0.1	0	0	359	0.4	358	360	12.3	98.1
2022-10-18T23:17	10	0	0.1	0	0	359	0.3	358	360	12.1	98.1
2022-10-18T23:18	10	0	0.1	0	0	359	0.2	358	359	12.0	98.0
2022-10-18T23:19	10	0	0.1	0	0	359	0.2	359	360	12.1	98.1
2022-10-18T23:20	10	0	0.1	0	0	359	0.3	359	360	12.3	98.3
2022-10-18T23:21	10	0	0.1	0	0	359	0.2	358	359	12.2	98.3
2022-10-18T23:22	10	0	0.1	0	0	359	0.3	358	359	12.0	98.2
2022-10-18T23:23	10	0	0.1	0	0	359	0.3	359	360	12.2	98.3
2022-10-18T23:24	10	0	0.1	0	0	359	0.3	359	360	12.4	98.5
2022-10-18T23:25	10	0	0.1	0	0	359	0.3	358	359	12.4	98.5
2022-10-18T23:26	10	0	0.1	0	0	358	0.2	358	359	12.1	98.4
2022-10-18T23:27	10	0	0.1	0	0	359	0.5	358	360	12.0	98.3
2022-10-18T23:28	10	0	0.1	0	0	359	0.2	359	360	12.2	98.4
2022-10-18T23:29	10	0	0.1	0	0	360	0.2	360	360	12.2	98.5
2022-10-18T23:30	10	0	0.1	0	0	360	0.2	359	360	12.2	98.5
2022-10-18T23:31	10	0	0.1	0	0	359	0.2	359	360	12.1	98.5
2022-10-18T23:32	10	0	0.1	0	0	360	0.3	359	360	12.1	98.5
2022-10-18T23:33	10	0	0.1	0	0	359	0.3	359	360	12.1	98.5
2022-10-18T23:34	10	0	0.1	0	0	359	0.3	359	360	12.3	98.6
2022-10-18T23:35	10	0	0.0	0	0	358	0.7	357	359	12.1	98.7
2022-10-18T23:36	10	0	0.1	0	0	358	0.2	358	359	12.1	98.6
2022-10-18T23:37	10	0	0.1	0	0	358	0.2	357	359	12.1	98.7
2022-10-18T23:38	10	0	0.1	0	0	358	0.2	358	359	12.2	98.7
2022-10-18T23:39	10	0	0.1	0	0	358	0.2	358	358	12.2	98.7
2022-10-18T23:40	10	0	0.1	0	0	358	0.2	357	358	12.2	98.8
2022-10-18T23:41	10	0	0.1	0	0	358	0.3	357	359	12.3	98.8
2022-10-18T23:42	10	0	0.1	0	0	358	0.2	357	358	12.1	98.8
2022-10-18T23:43	10	0	0.1	0	0	358	0.2	357	358	12.0	98.7
2022-10-18T23:44	10	0	0.1	0	0	358	0.3	357	359	12.0	98.7
2022-10-18T23:45	10	0	0.1	0	0	358	0.4	357	359	12.0	98.7
2022-10-18T23:46	10	0	0.1	0	0	358	0.4	357	359	12.1	98.8
2022-10-18T23:47	10	0	0.1	0	1	358	0.3	357	359	12.0	98.8
2022-10-18T23:48	10	0	0.1	0	0	358	0.4	357	358	12.2	98.8
2022-10-18T23:49	10	0	0.2	0	1	358	0.2	357	358	12.1	98.9
2022-10-18T23:50	10	0	0.1	0	0	358	0.3	358	359	12.0	98.8
2022-10-18T23:51	10	0	0.1	0	0	358	0.3	358	359	11.9	98.8
2022-10-18T23:52	10	0	0.1	0	0	359	0.2	358	359	11.9	98.7
2022-10-18T23:53	10	0	0.1	0	0	358	0.3	357	359	11.9	98.7
2022-10-18T23:54	10	0	0.1	0	1	358	0.2	357	358	11.8	98.7
2022-10-18T23:55	10	0	0.1	0	1	357	0.3	356	358	11.8	98.7
2022-10-18T23:56	10	0	0.1	0	0	357	0.2	356	357	11.9	98.7
2022-10-18T23:57	10	0	0.1	0	0	357	0.3	356	358	12.1	98.8
2022-10-18T23:58	10	0	0.1	0	0	357	0.2	356	357	12.1	98.8
2022-10-18T23:59	10	0	0.1	0	0	357	0.3	356	358	12.1	98.8
2022-10-19T00:00	10	0	0.1	-1	0	357	0.3	356	357	12.0	98.8
2022-10-19T00:01	10	0	0.1	0	0	357	0.2	356	357	11.9	98.7
2022-10-19T00:02	10	0	0.1	0	0	357	0.2	356	357	11.8	98.6
2022-10-19T00:03	10	0	0.2	0	0	357	0.3	356	357	11.9	98.6
2022-10-19T00:04	10	0	0.1	0	0	357	0.3	356	358	11.9	98.6
2022-10-19T00:05	10	0	0.1	0	0	357	0.2	357	358	11.9	98.6
2022-10-19T00:06	10	0	0.2	0	1	357	0.3	356	358	11.8	98.6
2022-10-19T00:07	10	0	0.1	0	0	357	0.3	356	358	11.9	98.6
2022-10-19T00:08	10	0	0.1	0	0	357	0.3	356	358	11.9	98.7
2022-10-19T00:09	10	0	0.1	0	0	357	0.3	356	358	11.8	98.7
2022-10-19T00:10	10	0	0.1	0	0	357	0.3	357	358	11.8	98.7
2022-10-19T00:11	10	0	0.2	0	0	357	0.3	356	357	11.7	98.7
2022-10-19T00:12	10	0	0.1	0	0	356	0.2	356	357	11.5	98.6
2022-10-19T00:13	10	0	0.1	0	0	356	0.2	355	356	11.4	98.5
2022-10-19T00:14	10	0	0.2	0	0	356	0.2	355	356	11.4	98.5
2022-10-19T00:15	10	0	0.1	0	0	356	0.3	356	357	11.5	98.6
2022-10-19T00:16	10	0	0.1	0	0	356	0.2	356	357	11.6	98.7
2022-10-19T00:17	10	0	0.2	0	0	356	0.3	356	357	11.6	98.7
2022-10-19T00:18	10	0	0.2	0	1	356	0.3	356	357	11.6	98.7
2022-10-19T00:19	10	0	0.1	0	0	356	0.2	356	357	11.6	98.8
2022-10-19T00:20	10	0	0.1	0	0	356	0.2	356	357	11.6	98.8
2022-10-19T00:21	10	0	0.2	0	0	356	0.3	356	357	11.6	98.8
2022-10-19T00:22	10	0	0.1	0	0	356	0.2	356	357	11.6	98.8
2022-10-19T00:23	10	0	0.1	0	0	356	0.2	356	357	11.6	98.9
2022-10-19T00:24	10	0	0.1	0	0	356	0.3	355	357	11.6	98.9
2022-10-19T00:25	10	0	0.1	0	0	356	0.3	355	357	11.5	98.8
2022-10-19T00:26	10	0	0.1	0	0	356	0.2	355	356	11.6	98.8
2022-10-19T00:27	10	0	0.1	0	0	356	0.3	355	357	11.5	98.8
2022-10-19T00:28	10	0	0.1	-1	0	356	0.3	355	357	11.5	98.8
2022-10-19T00:29	10	0	0.1	-1	0	356	0.3	356	357	11.6	98.8
2022-10-19T00:30	10	0	0.1	-1	0	357	0.3	356	357	11.6	98.9
2022-10-19T00:31	10	0	0.1	-1	0	357	0.2	356	358	11.5	98.8
2022-10-19T00:32	10	-1	0.1	-1	0	357	0.3	357	358	11.5	98.8
2022-10-19T00:33	10	-1	0.1	-1	0	357	0.3	357	358	11.5	98.8
2022-10-19T00:34	10	-1	0.1	-1	0	357	0.2	357	358	11.5	98.8
2022-10-19T00:35	10	-1	0.1	-1	-1	357	0.2	357	358	11.6	98.9
2022-10-19T00:36	10	-1	0.1	-1	-1	357	0.3	357	358	11.6	98.9
2022-10-19T00:37	10	-1	0.1	-1	-1	358	0.2	357	359	11.6	98.9
2022-10-19T00:38	10	-1	0.1	-1	-1	358	0.2	357	358	11.7	99.0
2022-10-19T00:39	10	-2	5.6	-36	0	358	0.2	357	358	11.7	99.0
2022-10-19T00:40	10	-1	0.1	-1	0	358	0.2	357	358	11.7	99.0
2022-10-19T00:41	10	0	0.1	-1	0	357	0.2	357	357	11.8	99.1
2022-10-19T00:42	10	0	0.1	0	0	357	0.3	357	358	11.9	99.1
2022-10-19T00:43	10	0	0.1	-1	0	357	0.2	357	358	11.7	99.1
2022-10-19T00:44	10	0	0.0	0	0	357	0.3	356	357	11.8	99.2
2022-10-19T00:45	10	0	0.1	0	0	357	0.3	356	357	11.8	99.2
2022-10-19T00:46	10	0	0.1	0	0	356	0.3	356	357	11.8	99.2
2022-10-19T00:47	10	0	0.1	0	0	356	0.2	356	357	11.9	99.2
2022-10-19T00:48	10	0	0.1	0	0	356	0.3	356	357	11.9	99.2
2022-10-19T00:49	10	0	0.1	0	0	357	0.3	356	357	11.9	99.2
2022-10-19T00:50	10	0	0.1	0	0	357	0.2	356	357	11.9	99.2
2022-10-19T00:51	10	0	0.1	0	0	357	0.2	356	357	11.9	99.2
2022-10-19T00:52	10	0	0.1	0	1	357	0.2	356	357	11.8	99.2
2022-10-19T00:53	10	0	0.1	0	0	356	0.2	356	357	11.8	99.2
2022-10-19T00:54	10	0	0.1	0	0	357	0.2	356	357	11.9	99.2
2022-10-19T00:55	10	0	0.1	0	0	357	0.3	356	357	11.9	99.2
2022-10-19T00:56	10	0	0.1	0	0	357	0.2	357	358	11.8	99.2
2022-10-19T00:57	10	0	0.1	0	0	357	0.3	357	358	11.8	99.2
2022-10-19T00:58	10	0	0.1	0	0	358	0.2	357	358	11.8	99.2
2022-10-19T00:59	10	0	0.1	0	0	358	0.3	357	358	11.8	99.2
2022-10-19T01:00	10	0	0.1	0	0	358	0.3	357	358	11.9	99.2
2022-10-19T01:01	10	0	0.1	0	0	358	0.2	357	358	11.9	99.2
2022-10-19T01:02	10	0	0.1	0	0	357	0.2	357	358	11.9	99.2
2022-10-19T01:03	10	0	0.1	0	0	357	0.3	356	358	11.8	99.2
2022-10-19T01:04	10	0	0.1	0	0	357	0.2	357	358	11.9	99.2
2022-10-19T01:05	10	0	0.1	0	0	358	0.2	357	358	11.9	99.2
2022-10-19T01:06	10	0	0.1	0	0	357	0.3	357	358	11.8	99.2
2022-10-19T01:07	10	0	0.1	0	0	357	0.2	357	358	11.8	99.2
2022-10-19T01:08	10	0	0.1	0	0	357	0.2	356	357	11.8	99.2
2022-10-19T01:09	10	0	0.1	0	0	357	0.2	357	357	11.7	99.1
2022-10-19T01:10	10	0	0.1	0	0	357	0.3	357	358	11.7	99.1
2022-10-19T01:11	10	0	0.1	-1	0	359	0.4	358	359	11.7	99.1
2022-10-19T01:12	10	0	0.1	0	0	359	0.2	359	359	11.7	99.1
2022-10-19T01:13	10	0	0.1	0	0	359	0.2	359	360	11.8	99.1
2022-10-19T01:14	10	0	0.0	0	0	359	0.2	359	360	11.7	99.1
2022-10-19T01:15	10	0	0.1	0	0	359	0.2	358	359	11.7	99.0
2022-10-19T01:16	10	0	0.1	0	0	359	0.3	358	359	11.8	99.0
2022-10-19T01:17	10	0	0.1	-1	0	358	0.2	357	358	11.8	99.0
2022-10-19T01:18	10	0	0.0	-1	0	358	0.2	358	359	11.8	99.0
2022-10-19T01:19	10	0	0.1	-1	0	358	0.2	358	358	11.8	99.0
2022-10-19T01:20	10	0	0.1	-1	0	358	0.3	357	358	11.8	99.0
2022-10-19T01:21	10	0	0.1	0	0	357	0.3	356	357	11.8	99.0
2022-10-19T01:22	10	0	0.1	0	0	357	0.2	356	357	11.8	99.0
2022-10-19T01:23	10	0	0.1	0	0	356	0.3	356	357	11.8	98.9
2022-10-19T01:24	10	0	0.1	0	0	356	0.2	356	357	11.8	98.9
2022-10-19T01:25	10	0	0.1	0	0	356	0.2	355	356	11.7	98.9
2022-10-19T01:26	10	0	0.1	0	0	356	0.2	355	356	11.7	98.9
2022-10-19T01:27	10	0	0.1	0	0	356	0.2	355	356	11.6	98.9
2022-10-19T01:28	10	0	0.1	0	0	356	0.3	355	356	11.5	98.8
2022-10-19T01:29	10	0	0.1	0	0	355	0.2	355	356	11.5	98.8
2022-10-19T01:30	10	0	0.1	0	0	355	0.2	355	356	11.5	98.8
2022-10-19T01:31	10	0	0.0	0	0	355	0.3	354	356	11.5	98.8
2022-10-19T01:32	10	0	0.1	0	0	355	0.2	355	355	11.5	98.9
2022-10-19T01:33	10	0	0.1	0	0	355	0.2	354	355	11.4	98.9
2022-10-19T01:34	10	0	0.1	0	0	355	0.2	354	355	11.4	98.9
2022-10-19T01:35	10	0	0.1	0	0	354	0.3	354	355	11.4	98.9
2022-10-19T01:36	10	0	0.1	0	0	354	0.4	353	355	11.2	98.8
2022-10-19T01:37	10	0	0.1	0	0	354	0.3	353	354	11.2	98.8
2022-10-19T01:38	10	0	0.1	0	0	354	0.2	353	354	11.2	98.8
2022-10-19T01:39	10	0	0.1	-1	0	354	0.2	353	354	11.2	98.9
2022-10-19T01:40	10	0	0.1	-1	0	354	0.2	353	354	11.2	98.9
2022-10-19T01:41	10	0	0.1	0	0	354	0.2	353	355	11.2	98.9
2022-10-19T01:42	10	0	0.1	0	0	354	0.2	353	354	11.2	98.9
2022-10-19T01:43	10	0	0.1	0	0	354	0.2	354	354	11.1	98.9
2022-10-19T01:44	10	0	0.1	0	0	354	0.2	354	354	11.2	99.0
2022-10-19T01:45	10	0	0.1	0	0	354	0.2	353	354	11.1	99.0
2022-10-19T01:46	10	0	0.1	0	0	353	0.2	353	354	11.1	98.9
2022-10-19T01:47	10	0	0.1	0	0	354	0.2	353	354	11.1	98.9
2022-10-19T01:48	10	0	0.0	0	0	353	0.2	353	354	11.0	99.0
2022-10-19T01:49	10	0	0.1	0	0	353	0.2	353	354	11.0	99.0
2022-10-19T01:50	10	0	0.1	0	0	353	0.2	353	354	11.0	99.0
2022-10-19T01:51	10	0	0.1	0	0	354	0.2	353	354	11.1	99.0
2022-10-19T01:52	10	0	0.1	0	0	354	0.3	353	354	10.9	99.0
2022-10-19T01:53	10	0	0.1	0	0	353	0.2	353	354	10.9	99.0
2022-10-19T01:54	10	0	0.1	-1	0	354	0.2	353	354	11.0	99.1
2022-10-19T01:55	10	0	0.1	-1	0	353	0.3	353	354	11.0	99.1
2022-10-19T01:56	10	-1	0.1	-1	0	353	0.3	353	354	11.0	99.1
2022-10-19T01:57	10	-1	0.1	-1	0	353	0.3	353	354	11.0	99.1
2022-10-19T01:58	10	-1	0.1	-1	0	353	0.2	353	354	10.9	99.1
2022-10-19T01:59	10	-1	0.1	-1	0	353	0.2	352	353	10.9	99.1
2022-10-19T02:00	10	-1	0.1	-1	0	353	0.2	353	353	11.0	99.2
2022-10-19T02:01	10	-1	0.1	-1	0	353	0.2	352	353	11.2	99.2
2022-10-19T02:02	10	0	0.1	-1	0	353	0.2	353	353	11.2	99.2
2022-10-19T02:03	10	0	0.1	-1	0	353	0.2	352	353	11.1	99.2
2022-10-19T02:04	10	0	0.1	-1	0	352	0.2	352	353	11.0	99.2
2022-10-19T02:05	10	0	0.1	0	0	352	0.3	352	353	10.9	99.2
2022-10-19T02:06	10	0	0.1	-1	0	352	0.2	352	352	10.9	99.2
2022-10-19T02:07	10	0	0.1	0	0	352	0.2	352	353	10.9	99.2
2022-10-19T02:08	10	0	0.1	0	0	352	0.3	352	353	10.8	99.2
2022-10-19T02:09	10	0	0.1	0	0	352	0.2	352	353	10.9	99.2
2022-10-19T02:10	10	0	0.1	0	0	352	0.2	352	353	10.9	99.2
2022-10-19T02:11	10	0	0.1	0	0	352	0.3	352	353	10.9	99.2
2022-10-19T02:12	10	0	0.1	0	0	352	0.3	351	353	11.0	99.2
2022-10-19T02:13	10	-1	0.1	-1	0	353	0.4	352	354	11.1	99.2
2022-10-19T02:14	10	-1	0.2	-1	0	354	0.5	353	355	10.9	99.2
2022-10-19T02:15	10	-1	0.1	-1	-1	354	0.2	354	355	10.9	99.2
2022-10-19T02:16	10	-1	0.1	-2	-1	354	0.2	353	354	10.9	99.2
2022-10-19T02:17	10	-1	0.1	-1	-1	353	0.3	353	354	10.8	99.2
2022-10-19T02:18	10	-1	0.1	-1	-1	353	0.3	352	354	10.9	99.2
2022-10-19T02:19	10	-1	0.1	-1	-1	353	0.2	352	353	10.8	99.2
2022-10-19T02:20	10	-1	0.1	-1	-1	352	0.2	352	353	10.8	99.2
2022-10-19T02:21	10	-1	0.1	-2	-1	352	0.2	352	353	10.8	99.2
2022-10-19T02:22	10	-1	0.1	-2	-1	353	0.4	352	353	10.7	99.2
2022-10-19T02:23	10	-2	0.1	-2	-1	353	0.3	353	354	10.7	99.2
2022-10-19T02:24	10	-2	0.1	-2	-2	353	0.3	353	354	10.6	99.1
2022-10-19T02:25	10	-2	0.1	-2	-2	354	0.4	353	355	10.6	99.1
2022-10-19T02:26	10	-2	0.1	-3	-2	354	0.3	353	355	10.5	99.1
2022-10-19T02:27	10	-2	0.1	-3	-2	354	0.3	353	354	10.6	99.1
2022-10-19T02:28	10	-2	0.1	-3	-2	353	0.3	352	354	10.5	99.1
2022-10-19T02:29	10	-2	0.1	-3	-2	353	0.2	353	354	10.6	99.1
2022-10-19T02:30	10	-2	0.1	-3	-2	353	0.5	352	354	10.5	99.1
2022-10-19T02:31	10	-2	0.1	-2	-2	353	0.3	352	353	10.4	99.1
2022-10-19T02:32	10	-2	0.1	-2	-1	352	0.3	352	353	10.4	99.1
2022-10-19T02:33	10	-1	0.1	-2	-1	353	0.3	352	353	10.4	99.1
2022-10-19T02:34	10	-1	0.1	-1	-1	353	0.2	353	353	10.4	99.1
2022-10-19T02:35	10	-1	0.1	-1	-1	353	0.3	352	353	10.4	99.1
2022-10-19T02:36	10	-1	0.1	-1	-1	352	0.3	352	353	10.5	99.1
2022-10-19T02:37	10	-1	0.1	-1	-1	352	0.3	352	353	10.6	99.2
2022-10-19T02:38	10	-1	0.1	-1	-1	352	0.2	352	353	10.6	99.2
2022-10-19T02:39	10	-1	0.1	-1	-1	352	0.3	351	353	10.6	99.2
2022-10-19T02:40	10	-1	0.1	-1	-1	352	0.2	352	353	10.6	99.2
2022-10-19T02:41	10	-1	0.1	-1	-1	352	0.2	351	352	10.8	99.2
2022-10-19T02:42	10	-1	0.1	-1	-1	352	0.2	351	353	10.8	99.2
2022-10-19T02:43	10	-1	0.1	-1	0	352	0.3	352	353	10.7	99.2
2022-10-19T02:44	10	-1	0.1	-1	0	352	0.2	351	352	10.6	99.2
2022-10-19T02:45	10	-1	0.1	-1	0	352	0.3	351	353	10.6	99.2
2022-10-19T02:46	10	-1	0.1	-1	-1	352	0.3	351	353	10.6	99.2
2022-10-19T02:47	10	-1	0.1	-1	-1	352	0.3	351	353	10.7	99.2
2022-10-19T02:48	10	-1	0.1	-1	-1	352	0.3	351	352	10.7	99.2
2022-10-19T02:49	10	-1	0.1	-1	-1	352	0.2	351	352	10.8	99.2
2022-10-19T02:50	10	-1	0.1	-1	-1	352	0.2	352	353	10.8	99.2
2022-10-19T02:51	10	-1	0.1	-1	-1	352	0.3	351	353	10.8	99.2
2022-10-19T02:52	10	-1	0.1	-1	-1	352	0.4	351	353	10.6	99.2
2022-10-19T02:53	10	-1	0.1	-1	-1	351	0.2	351	352	10.1	99.2
2022-10-19T02:54	10	-1	0.1	-1	-1	352	0.2	351	352	10.1	99.2
2022-10-19T02:55	10	-1	0.1	-1	-1	351	0.3	350	352	10.2	99.2
2022-10-19T02:56	10	-1	0.1	-1	0	351	0.2	351	351	10.0	99.2
2022-10-19T02:57	10	-1	0.1	-1	0	352	0.3	351	352	10.2	99.2
2022-10-19T02:58	10	-1	0.1	-1	0	352	0.3	352	353	10.4	99.2
2022-10-19T02:59	10	-1	0.1	-1	0	353	0.2	352	353	10.8	99.2
2022-10-19T03:00	10	-1	0.1	-1	0	353	0.3	352	353	10.5	99.2
2022-10-19T03:01	10	-1	0.1	-1	0	353	0.2	353	353	10.6	99.2
2022-10-19T03:02	10	-1	0.1	-1	0	353	0.2	352	353	10.4	99.2
2022-10-19T03:03	10	-1	0.1	-1	0	353	0.2	353	353	10.5	99.2
2022-10-19T03:04	10	-1	0.1	-1	0	353	0.2	353	353	10.6	99.2
2022-10-19T03:05	10	-1	0.1	-1	0	353	0.2	353	354	10.7	99.2
2022-10-19T03:06	10	-1	0.1	-1	0	353	0.3	353	354	10.7	99.2
2022-10-19T03:07	10	-1	0.1	-1	0	353	0.2	353	354	10.8	99.2
2022-10-19T03:08	10	-1	0.1	-1	0	353	0.3	352	353	10.8	99.2
2022-10-19T03:09	10	-1	0.1	-1	0	353	0.3	352	353	10.7	99.2
2022-10-19T03:10	10	-1	0.1	-1	0	352	0.2	352	353	10.6	99.2
2022-10-19T03:11	10	-1	0.1	-1	0	352	0.2	352	353	10.6	99.2
2022-10-19T03:12	10	0	0.1	-1	0	352	0.2	352	353	10.7	99.2
2022-10-19T03:13	10	0	0.1	-1	0	352	0.2	352	353	10.6	99.2
2022-10-19T03:14	10	0	0.0	0	0	352	0.3	351	352	10.6	99.2
2022-10-19T03:15	10	0	0.1	0	0	352	0.3	351	353	10.5	99.2
2022-10-19T03:16	10	0	0.1	0	0	352	0.2	351	352	10.5	99.2
2022-10-19T03:17	10	0	0.1	0	0	352	0.2	351	352	10.5	99.2
2022-10-19T03:18	10	0	0.1	0	0	352	0.2	351	352	10.5	99.2
2022-10-19T03:19	10	0	0.1	0	0	352	0.2	352	352	10.6	99.2
2022-10-19T03:20	10	0	0.1	0	0	353	0.2	352	353	10.6	99.2
2022-10-19T03:21	10	0	0.1	0	0	353	0.2	352	353	10.6	99.2
2022-10-19T03:22	10	0	0.1	0	0	353	0.2	353	354	10.5	99.2
2022-10-19T03:23	10	0	0.1	0	0	353	0.2	353	354	10.4	99.2
2022-10-19T03:24	10	0	0.1	0	0	354	0.2	353	354	10.5	99.2
2022-10-19T03:25	10	0	0.1	0	0	354	0.2	353	354	10.4	99.2
2022-10-19T03:26	10	0	0.1	-1	0	354	0.3	354	355	10.4	99.2
2022-10-19T03:27	10	-1	0.1	-1	0	354	0.2	354	355	10.4	99.2
2022-10-19T03:28	10	-1	0.1	-1	-1	354	0.1	354	354	10.4	99.2
2022-10-19T03:29	10	-1	0.1	-1	-1	354	0.2	354	355	10.3	99.2
2022-10-19T03:30	10	-1	0.1	-1	-1	354	0.2	354	355	10.3	99.2
2022-10-19T03:31	10	-1	0.0	-1	-1	354	0.2	354	354	10.3	99.2
2022-10-19T03:32	10	-1	0.1	-2	-1	354	0.2	353	354	10.2	99.2
2022-10-19T03:33	10	-1	0.1	-1	-1	353	0.2	353	354	10.3	99.2
2022-10-19T03:34	10	-1	0.1	-1	-1	353	0.2	353	354	10.3	99.2
2022-10-19T03:35	10	-1	0.1	-1	-1	353	0.2	353	354	10.3	99.2
2022-10-19T03:36	10	-1	0.1	-1	-1	353	0.3	352	353	10.2	99.2
2022-10-19T03:37	10	-1	0.1	-1	0	352	0.3	352	353	10.3	99.2
2022-10-19T03:38	10	0	0.1	-1	0	353	0.3	352	353	10.4	99.2
2022-10-19T03:39	10	0	0.1	0	0	353	0.3	352	353	10.4	99.2
2022-10-19T03:40	10	0	0.1	0	0	354	0.3	353	354	10.4	99.2
2022-10-19T03:41	10	0	0.1	0	0	354	0.3	354	355	10.4	99.2
2022-10-19T03:42	10	0	0.1	0	0	355	0.3	354	355	10.5	99.2
2022-10-19T03:43	10	0	0.1	0	0	355	0.2	354	355	10.5	99.2
2022-10-19T03:44	10	0	0.1	0	0	355	0.2	354	355	10.5	99.2
2022-10-19T03:45	10	0	0.1	0	0	356	0.2	355	356	10.6	99.2
2022-10-19T03:46	10	0	0.1	0	0	356	0.2	355	356	10.5	99.2
2022-10-19T03:47	10	0	0.1	0	0	356	0.2	355	356	10.4	99.2
2022-10-19T03:48	10	0	0.1	0	0	356	0.3	356	357	10.4	99.2
2022-10-19T03:49	10	0	0.1	0	0	357	0.3	357	358	10.4	99.2
2022-10-19T03:50	10	0	0.1	0	0	358	0.2	357	358	10.4	99.2
2022-10-19T03:51	10	0	0.1	0	0	358	0.4	357	359	10.4	99.2
2022-10-19T03:52	10	0	0.1	0	0	358	0.3	358	359	10.4	99.2
2022-10-19T03:53	10	0	0.1	0	0	359	0.3	358	359	10.4	99.2
2022-10-19T03:54	10	0	0.1	0	0	359	0.2	359	360	10.4	99.2
2022-10-19T03:55	10	0	0.1	0	0	359	0.2	359	360	10.4	99.2
2022-10-19T03:56	10	0	0.1	0	0	359	0.2	359	360	10.4	99.2
2022-10-19T03:57	10	0	0.1	0	0	359	0.3	359	360	10.2	99.2
2022-10-19T03:58	10	0	0.1	0	0	359	0.2	359	360	10.2	99.2
2022-10-19T03:59	10	0	0.1	-1	0	359	0.2	359	360	10.2	99.2
2022-10-19T04:00	10	-1	0.1	-1	0	359	0.2	359	360	10.1	99.2
2022-10-19T04:01	10	-1	0.1	-1	-1	359	0.2	359	360	10.3	99.2
2022-10-19T04:02	10	-1	0.1	-1	-1	359	0.2	359	360	10.0	99.2
2022-10-19T04:03	10	-1	0.1	-2	-1	359	0.2	359	360	9.6	99.2
2022-10-19T04:04	10	-1	0.1	-2	-1	359	0.2	359	360	9.5	99.1
2022-10-19T04:05	10	-1	0.1	-2	-1	359	0.2	358	359	9.6	99.1
2022-10-19T04:06	10	-2	0.1	-2	-1	359	0.2	359	359	9.7	99.2
2022-10-19T04:07	10	-2	0.1	-2	-1	359	0.2	358	359	9.7	99.2
2022-10-19T04:08	10	-2	0.1	-2	-1	359	0.2	359	360	9.7	99.2
2022-10-19T04:09	10	-2	0.1	-2	-1	359	0.3	359	360	9.7	99.2
2022-10-19T04:10	10	-1	0.1	-2	-1	360	0.3	359	360	9.8	99.2
2022-10-19T04:11	10	-1	0.1	-2	-1	360	0.3	359	360	9.9	99.2
2022-10-19T04:12	10	-1	0.1	-1	-1	360	0.3	359	361	10.2	99.2
2022-10-19T04:13	10	-1	0.1	-1	-1	361	0.2	360	361	10.1	99.2
2022-10-19T04:14	10	-1	0.1	-1	-1	361	0.2	360	361	10.1	99.2
2022-10-19T04:15	10	-1	0.0	-1	-1	361	0.3	360	362	10.2	99.2
2022-10-19T04:16	10	-1	0.1	-1	-1	361	0.2	361	362	10.3	99.2
2022-10-19T04:17	10	-1	0.1	-1	-1	361	0.2	361	362	10.4	99.2
2022-10-19T04:18	10	-1	0.1	-1	0	362	0.2	361	362	10.3	99.2
2022-10-19T04:19	10	-1	0.1	-1	0	362	0.3	361	362	10.4	99.2
2022-10-19T04:20	10	0	0.1	-1	0	362	0.2	362	362	10.4	99.2
2022-10-19T04:21	10	0	0.1	-1	0	362	0.3	361	362	10.4	99.2
2022-10-19T04:22	10	0	0.1	-1	0	362	0.2	362	362	10.4	99.2
2022-10-19T04:23	10	0	0.1	-1	0	362	0.3	361	363	10.4	99.2
2022-10-19T04:24	10	-1	0.1	-1	0	362	0.2	362	363	10.4	99.2
2022-10-19T04:25	10	-1	0.1	-1	0	362	0.2	362	363	10.4	99.2
2022-10-19T04:26	10	-1	0.1	-1	0	362	0.3	362	363	10.3	99.2
2022-10-19T04:27	10	0	0.1	-1	0	362	0.2	362	363	10.1	99.2
2022-10-19T04:28	10	0	0.1	-1	0	363	0.3	362	363	10.2	99.2
2022-10-19T04:29	10	0	0.1	0	0	363	0.2	363	364	10.3	99.2
2022-10-19T04:30	10	0	0.1	0	0	363	0.2	362	364	10.4	99.2
2022-10-19T04:31	10	0	0.1	0	0	363	0.2	363	363	10.1	99.2
2022-10-19T04:32	10	0	0.1	0	0	363	0.2	362	363	10.1	99.2
2022-10-19T04:33	10	0	0.1	0	0	364	0.2	363	364	10.2	99.2
2022-10-19T04:34	10	0	0.1	0	0	364	0.3	363	365	10.3	99.2
2022-10-19T04:35	10	0	0.1	0	0	364	0.3	364	365	10.4	99.2
2022-10-19T04:36	10	0	0.1	0	0	365	0.2	364	365	10.4	99.2
2022-10-19T04:37	10	0	0.1	0	0	365	0.3	364	366	10.5	99.2
2022-10-19T04:38	10	0	0.1	0	0	365	0.2	365	366	10.5	99.2
2022-10-19T04:39	10	0	0.1	0	0	366	0.3	365	366	10.4	99.2
2022-10-19T04:40	10	0	0.1	0	0	366	0.3	365	366	10.3	99.2
2022-10-19T04:41	10	0	0.1	0	0	366	0.2	366	367	10.3	99.2
2022-10-19T04:42	10	0	0.1	0	0	366	0.2	366	367	10.3	99.2
2022-10-19T04:43	10	0	0.1	0	0	366	0.3	366	367	10.3	99.2
2022-10-19T04:44	10	0	0.1	0	0	366	0.3	366	367	10.3	99.2
2022-10-19T04:45	10	0	0.1	0	0	367	0.2	366	367	10.3	99.2
2022-10-19T04:46	10	0	0.1	0	0	367	0.5	366	367	10.4	99.2
2022-10-19T04:47	10	0	0.1	0	0	367	0.3	366	368	10.3	99.2
2022-10-19T04:48	10	0	0.1	-1	0	367	0.3	366	368	10.3	99.2
2022-10-19T04:49	10	0	0.1	-1	0	367	0.3	366	367	10.3	99.2
2022-10-19T04:50	10	0	0.1	-1	0	367	0.3	366	367	10.3	99.2
2022-10-19T04:51	10	0	0.1	-1	0	367	0.2	366	367	10.3	99.2
2022-10-19T04:52	10	0	0.1	0	0	366	0.2	365	367	10.3	99.2
2022-10-19T04:53	10	0	0.1	0	0	366	0.3	366	367	10.2	99.2
2022-10-19T04:54	10	0	0.1	0	0	366	0.2	366	367	10.3	99.2
2022-10-19T04:55	10	0	0.1	0	0	366	0.3	366	367	10.3	99.2
2022-10-19T04:56	10	0	0.1	0	0	366	0.5	365	367	10.3	99.2
2022-10-19T04:57	10	0	0.1	0	0	366	0.5	365	367	10.2	99.2
2022-10-19T04:58	10	0	0.1	0	0	366	0.4	365	367	10.2	99.2
2022-10-19T04:59	10	0	0.1	0	0	366	0.2	366	366	10.2	99.2
2022-10-19T05:00	10	0	0.1	0	0	366	0.2	365	366	10.2	99.2
2022-10-19T05:01	10	0	0.1	0	0	366	0.2	365	366	10.2	99.2
2022-10-19T05:02	10	0	0.1	0	0	366	0.2	366	366	10.2	99.2
2022-10-19T05:03	10	0	0.0	0	0	366	0.3	365	367	10.2	99.2
2022-10-19T05:04	10	0	0.1	0	0	366	0.3	365	366	10.2	99.2
2022-10-19T05:05	10	0	0.1	0	0	366	0.2	365	366	10.2	99.2
2022-10-19T05:06	10	0	0.1	0	0	366	0.2	366	367	10.2	99.2
2022-10-19T05:07	10	0	0.1	0	0	366	0.2	366	367	10.1	99.2
2022-10-19T05:08	10	0	0.2	0	2	366	0.2	366	367	10.1	99.2
2022-10-19T05:09	10	0	0.1	0	0	366	0.2	365	366	10.1	99.2
2022-10-19T05:10	10	0	0.1	0	0	366	0.2	365	366	10.2	99.2
2022-10-19T05:11	10	0	0.1	0	0	366	0.2	365	366	10.3	99.2
2022-10-19T05:12	10	0	0.1	0	0	366	0.2	365	366	10.2	99.2
2022-10-19T05:13	10	0	0.0	0	0	366	0.2	366	366	10.3	99.2
2022-10-19T05:14	10	0	0.1	0	0	366	0.2	366	366	10.3	99.2
2022-10-19T05:15	10	0	0.1	0	0	366	0.2	366	367	10.3	99.2
2022-10-19T05:16	10	0	0.1	0	0	366	0.2	366	367	10.3	99.2
2022-10-19T05:17	10	0	0.1	0	0	367	0.2	366	367	10.3	99.2
2022-10-19T05:18	10	0	0.0	0	0	367	0.2	366	367	10.3	99.2
2022-10-19T05:19	10	0	0.1	0	0	367	0.3	366	367	10.3	99.2
2022-10-19T05:20	10	0	0.1	0	1	367	0.2	366	367	10.3	99.2
2022-10-19T05:21	10	0	0.1	0	0	367	0.2	366	367	10.3	99.2
2022-10-19T05:22	10	0	0.1	0	0	367	0.3	367	368	10.3	99.2
2022-10-19T05:23	10	0	0.1	0	1	367	0.2	366	368	10.3	99.2
2022-10-19T05:24	10	0	0.1	0	1	367	0.2	367	368	10.3	99.2
2022-10-19T05:25	10	0	0.1	0	1	367	0.2	367	368	10.4	99.2
2022-10-19T05:26	10	0	0.1	0	0	367	0.2	367	368	10.4	99.2
2022-10-19T05:27	10	0	0.1	0	1	368	0.3	367	368	10.4	99.2
2022-10-19T05:28	10	0	0.1	0	1	368	0.2	367	368	10.4	99.2
2022-10-19T05:29	10	1	0.1	0	1	368	0.2	367	368	10.4	99.2
2022-10-19T05:30	10	1	0.1	0	1	368	0.2	368	369	10.4	99.2
2022-10-19T05:31	10	1	0.1	0	1	368	0.3	367	369	10.4	99.2
2022-10-19T05:32	10	0	0.0	0	1	368	0.2	368	369	10.4	99.2
2022-10-19T05:33	10	0	0.1	0	1	368	0.2	368	369	10.4	99.2
2022-10-19T05:34	10	0	0.1	0	1	368	0.2	368	369	10.4	99.2
2022-10-19T05:35	10	1	0.1	0	1	369	0.2	368	369	10.4	99.2
2022-10-19T05:36	10	1	0.1	0	1	369	0.3	368	369	10.4	99.2
2022-10-19T05:37	10	1	0.1	1	1	369	0.2	368	369	10.4	99.2
2022-10-19T05:38	10	1	0.1	0	1	369	0.2	368	369	10.4	99.2
2022-10-19T05:39	10	1	0.1	1	1	369	0.2	368	369	10.4	99.2
2022-10-19T05:40	10	1	0.1	1	1	369	0.2	368	369	10.4	99.2
2022-10-19T05:41	10	1	0.1	1	1	369	0.2	368	369	10.4	99.2
2022-10-19T05:42	10	1	0.1	1	1	369	0.2	368	369	10.4	99.2
2022-10-19T05:43	10	1	0.1	1	1	368	0.2	368	369	10.4	99.2
2022-10-19T05:44	10	1	0.1	1	1	369	0.2	368	369	10.5	99.2
2022-10-19T05:45	10	1	0.1	1	1	369	0.2	368	369	10.5	99.2
2022-10-19T05:46	10	1	0.1	1	1	369	0.2	368	369	10.6	99.2
2022-10-19T05:47	10	1	0.1	1	1	369	0.2	369	369	10.6	99.2
2022-10-19T05:48	10	1	0.1	1	1	369	0.2	369	370	10.6	99.2
2022-10-19T05:49	10	1	0.1	1	1	369	0.2	369	370	10.6	99.2
2022-10-19T05:50	10	1	0.1	1	1	370	0.2	369	370	10.6	99.2
2022-10-19T05:51	10	1	0.1	1	1	370	0.2	369	370	10.6	99.2
2022-10-19T05:52	10	1	0.1	1	1	370	0.3	369	371	10.6	99.2
2022-10-19T05:53	10	1	0.1	1	1	370	0.2	369	371	10.7	99.2
2022-10-19T05:54	10	1	0.1	1	1	370	0.2	370	371	10.7	99.2
2022-10-19T05:55	10	1	0.1	1	1	370	0.2	370	371	10.7	99.2
2022-10-19T05:56	10	1	0.1	1	1	370	0.3	369	371	10.7	99.2
2022-10-19T05:57	10	1	0.1	1	1	370	0.2	370	371	10.8	99.2
2022-10-19T05:58	10	1	0.1	1	1	370	0.2	370	371	10.8	99.2
2022-10-19T05:59	10	1	0.1	1	1	371	0.2	370	371	10.8	99.2
2022-10-19T06:00	10	1	0.1	1	1	371	0.3	370	371	10.8	99.2
2022-10-19T06:01	10	1	0.1	1	1	371	0.2	370	371	10.8	99.2
2022-10-19T06:02	10	1	0.1	1	1	371	0.3	370	371	10.8	99.2
2022-10-19T06:03	10	1	0.1	1	1	371	0.2	370	371	10.8	99.2
2022-10-19T06:04	10	1	0.1	1	1	371	0.3	370	371	10.8	99.2
2022-10-19T06:05	10	1	0.1	1	1	371	0.2	370	371	10.8	99.2
2022-10-19T06:06	10	1	0.1	1	1	371	0.4	370	371	10.8	99.2
2022-10-19T06:07	10	1	0.1	1	1	371	0.3	370	371	10.8	99.2
2022-10-19T06:08	10	1	0.1	1	1	371	0.3	370	371	10.8	99.2
2022-10-19T06:09	10	1	0.1	1	1	371	0.2	370	371	10.8	99.2
2022-10-19T06:10	10	1	0.1	1	1	371	0.2	370	371	10.8	99.2
2022-10-19T06:11	10	1	0.1	1	1	371	0.3	370	372	10.8	99.2
2022-10-19T06:12	10	1	0.1	1	1	371	0.2	371	372	10.8	99.2
2022-10-19T06:13	10	1	0.1	1	2	371	0.2	371	372	10.8	99.2
2022-10-19T06:14	10	2	0.1	1	2	371	0.2	371	372	10.8	99.2
2022-10-19T06:15	10	2	0.1	1	2	372	0.4	371	372	10.7	99.2
2022-10-19T06:16	10	2	0.1	2	2	371	0.3	371	372	10.7	99.2
2022-10-19T06:17	10	2	0.1	2	2	372	0.4	371	373	10.7	99.2
2022-10-19T06:18	10	2	0.1	2	2	372	0.2	371	373	10.8	99.2
2022-10-19T06:19	10	2	0.1	2	2	372	0.2	371	372	10.8	99.2
2022-10-19T06:20	10	2	0.1	2	2	372	0.2	371	372	10.8	99.2
2022-10-19T06:21	10	2	0.1	2	2	372	0.2	371	373	10.8	99.2
2022-10-19T06:22	10	2	0.1	2	3	372	0.3	372	373	10.8	99.2
2022-10-19T06:23	10	3	0.1	2	3	372	0.2	372	373	10.8	99.2
2022-10-19T06:24	10	3	0.1	3	3	373	0.3	372	373	11.3	99.2
2022-10-19T06:25	10	3	0.1	3	3	372	0.8	371	374	11.1	99.2
2022-10-19T06:26	10	3	0.1	3	3	372	0.4	371	373	10.9	99.2
2022-10-19T06:27	10	3	0.1	3	3	372	0.2	372	373	10.9	99.2
2022-10-19T06:28	10	3	0.1	3	4	372	0.3	372	373	10.9	99.2
2022-10-19T06:29	10	4	0.1	3	4	372	0.3	372	373	10.9	99.2
2022-10-19T06:30	10	4	0.2	4	4	373	0.2	372	373	11.0	99.2
2022-10-19T06:31	10	5	0.2	4	5	372	0.2	372	373	10.9	99.2
2022-10-19T06:32	10	5	0.1	5	5	373	0.2	372	373	10.9	99.2
2022-10-19T06:33	10	5	0.1	5	6	373	0.2	372	374	10.9	99.2
2022-10-19T06:34	10	6	0.1	5	6	373	0.2	372	373	11.0	99.2
2022-10-19T06:35	10	6	0.1	6	6	373	0.2	373	374	10.9	99.2
2022-10-19T06:36	10	6	0.1	6	7	373	0.2	372	374	10.9	99.2
2022-10-19T06:37	10	6	0.1	6	7	373	0.2	373	374	10.9	99.2
2022-10-19T06:38	10	6	0.1	6	6	373	0.2	373	373	10.9	99.2
2022-10-19T06:39	10	6	0.1	6	6	373	0.3	373	374	10.9	99.2
2022-10-19T06:40	10	6	0.1	6	6	373	0.3	373	374	10.8	99.2
2022-10-19T06:41	10	6	0.1	6	6	373	0.3	373	374	10.9	99.2
2022-10-19T06:42	10	6	0.1	6	6	373	0.2	373	374	10.9	99.2
2022-10-19T06:43	10	6	0.1	6	6	374	0.2	373	374	10.9	99.2
2022-10-19T06:44	10	6	0.1	6	7	374	0.2	373	374	10.9	99.2
2022-10-19T06:45	10	6	0.1	6	7	373	0.3	373	374	10.8	99.2
2022-10-19T06:46	10	6	0.1	6	7	373	0.4	372	374	10.7	99.2
2022-10-19T06:47	10	6	0.1	6	7	373	0.3	372	373	10.7	99.2
2022-10-19T06:48	10	7	0.1	6	7	373	0.3	372	374	10.9	99.2
2022-10-19T06:49	10	7	0.1	7	7	374	0.3	374	375	10.9	99.2
2022-10-19T06:50	10	7	0.2	7	8	374	0.3	373	375	11.0	99.2
2022-10-19T06:51	10	8	0.2	8	8	374	0.2	373	375	11.0	99.2
2022-10-19T06:52	10	9	0.2	8	9	374	0.2	374	375	10.9	99.2
2022-10-19T06:53	10	9	0.1	9	9	374	0.2	374	375	11.0	99.2
2022-10-19T06:54	10	9	0.1	9	10	375	0.2	374	375	11.1	99.2
2022-10-19T06:55	10	10	0.1	9	10	375	0.4	374	376	11.1	99.2
2022-10-19T06:56	10	10	0.1	9	10	376	0.2	375	376	11.1	99.2
2022-10-19T06:57	10	10	0.1	9	10	376	0.2	375	376	11.1	99.2
2022-10-19T06:58	10	10	0.1	9	10	376	0.3	375	377	11.1	99.2
2022-10-19T06:59	10	10	0.1	10	10	376	0.4	375	377	11.1	99.2
2022-10-19T07:00	10	10	0.1	10	10	376	0.3	376	377	11.0	99.2
2022-10-19T07:01	10	10	0.1	10	10	376	0.2	376	377	11.0	99.2
2022-10-19T07:02	10	10	0.1	10	10	377	0.3	376	377	11.0	99.2
2022-10-19T07:03	10	10	0.1	10	10	377	0.3	376	377	11.1	99.2
2022-10-19T07:04	10	10	0.2	9	10	376	0.2	376	377	10.9	99.2
2022-10-19T07:05	10	9	0.1	9	9	376	0.2	376	377	11.0	99.2
2022-10-19T07:06	10	9	0.2	8	9	376	0.5	375	377	10.9	99.2
2022-10-19T07:07	10	9	0.1	8	9	376	0.2	375	376	10.8	99.2
2022-10-19T07:08	10	9	0.1	8	9	375	0.2	375	376	10.9	99.2
2022-10-19T07:09	10	9	0.2	9	9	376	0.2	375	376	10.9	99.2
2022-10-19T07:10	10	9	0.2	9	10	376	0.4	375	376	11.0	99.2
2022-10-19T07:11	10	10	0.2	10	10	376	0.2	376	376	11.0	99.2
2022-10-19T07:12	10	10	0.2	10	11	376	0.2	376	377	11.0	99.2
2022-10-19T07:13	10	11	0.1	10	11	376	0.3	376	377	11.0	99.2
2022-10-19T07:14	10	11	0.1	10	11	376	0.2	376	377	11.0	99.2
2022-10-19T07:15	10	11	0.1	11	11	377	0.3	376	377	11.0	99.2
2022-10-19T07:16	10	11	0.1	11	11	376	0.2	376	377	11.1	99.2
2022-10-19T07:17	10	12	0.2	11	12	377	0.3	376	378	11.2	99.2
2022-10-19T07:18	10	12	0.3	12	13	377	0.2	377	378	11.2	99.2
2022-10-19T07:19	10	13	0.2	13	13	377	0.3	376	378	11.1	99.2
2022-10-19T07:20	10	14	0.2	13	14	377	0.3	377	378	11.1	99.2
2022-10-19T07:21	10	14	0.2	14	14	377	0.3	376	378	11.2	99.2
2022-10-19T07:22	10	15	0.2	14	15	378	0.3	377	378	11.2	99.2
2022-10-19T07:23	10	15	0.2	15	15	378	0.3	377	379	11.2	99.2
2022-10-19T07:24	10	16	0.3	15	16	378	0.2	378	379	11.2	99.2
2022-10-19T07:25	10	17	0.2	16	17	379	0.2	378	379	11.2	99.2
2022-10-19T07:26	10	17	0.1	16	17	379	0.3	378	379	11.2	99.2
2022-10-19T07:27	10	16	0.1	16	16	379	0.2	379	379	11.2	99.2
2022-10-19T07:28	10	16	0.1	16	16	379	0.2	379	380	11.3	99.2
2022-10-19T07:29	10	16	0.1	16	16	379	0.4	378	380	11.3	99.2
2022-10-19T07:30	10	16	0.1	15	16	379	0.4	378	380	11.3	99.2
2022-10-19T07:31	10	15	0.1	15	16	379	0.8	378	380	11.2	99.2
2022-10-19T07:32	10	15	0.1	15	15	379	0.4	378	379	11.1	99.2
2022-10-19T07:33	10	15	0.1	15	15	378	0.2	378	379	11.1	99.2
2022-10-19T07:34	10	16	0.2	15	16	378	0.2	378	379	11.1	99.2
2022-10-19T07:35	10	16	0.1	16	17	378	0.3	377	379	11.1	99.2
2022-10-19T07:36	10	16	0.2	16	17	379	0.2	378	379	11.2	99.2
2022-10-19T07:37	10	15	0.3	15	16	379	0.5	378	380	11.2	99.2
2022-10-19T07:38	10	15	0.1	15	15	379	0.2	378	379	11.2	99.2
2022-10-19T07:39	10	15	0.3	15	16	379	0.2	378	379	11.2	99.2
2022-10-19T07:40	10	16	0.2	16	16	379	0.3	378	379	11.2	99.2
2022-10-19T07:41	10	17	0.2	16	17	379	0.2	379	379	11.4	99.2
2022-10-19T07:42	10	17	0.1	17	17	379	0.2	379	380	11.3	99.2
2022-10-19T07:43	10	17	0.1	17	17	379	0.2	379	380	11.3	99.2
2022-10-19T07:44	10	17	0.1	17	18	380	0.3	379	380	11.3	99.2
2022-10-19T07:45	10	17	0.2	17	17	380	0.3	379	380	11.3	99.2
2022-10-19T07:46	10	17	0.1	17	17	380	0.2	379	380	11.4	99.2
2022-10-19T07:47	10	17	0.1	17	17	380	0.2	379	380	11.4	99.2
2022-10-19T07:48	10	17	0.1	17	18	380	0.2	379	380	11.5	99.2
2022-10-19T07:49	10	18	0.2	18	18	380	0.3	379	381	11.4	99.2
2022-10-19T07:50	10	19	0.3	18	19	380	0.2	380	381	11.4	99.2
2022-10-19T07:51	10	20	0.2	19	20	380	0.4	380	381	11.5	99.2
2022-10-19T07:52	10	20	0.3	20	21	381	0.3	380	381	11.5	99.2
2022-10-19T07:53	10	19	0.1	19	20	381	0.3	380	381	11.5	99.2
2022-10-19T07:54	10	19	0.1	19	19	381	0.4	380	382	11.5	99.2
2022-10-19T07:55	10	19	0.1	19	19	381	0.4	380	381	11.6	99.2
2022-10-19T07:56	10	19	0.1	19	20	381	0.3	380	381	11.5	99.2
2022-10-19T07:57	10	20	0.1	19	20	381	0.4	380	382	11.4	99.2
2022-10-19T07:58	10	20	0.1	19	20	381	0.3	380	382	11.5	99.2
2022-10-19T07:59	10	20	0.1	20	20	382	0.3	381	382	11.5	99.2
2022-10-19T08:00	10	20	0.1	20	20	381	0.3	381	382	11.4	99.2
2022-10-19T08:01	10	21	0.3	20	21	381	0.2	381	382	11.4	99.2
2022-10-19T08:02	10	22	0.2	21	22	382	0.4	381	383	11.5	99.2
2022-10-19T08:03	10	23	0.3	22	23	382	0.3	382	383	11.5	99.2
2022-10-19T08:04	10	24	0.3	23	24	382	0.5	381	383	11.6	99.2
2022-10-19T08:05	10	24	0.1	24	24	382	0.5	381	383	11.5	99.2
2022-10-19T08:06	10	24	0.1	24	24	382	0.5	381	383	11.4	99.2
2022-10-19T08:07	10	25	0.3	24	25	383	0.3	382	383	11.5	99.2
2022-10-19T08:08	10	26	0.3	25	26	383	0.4	383	384	11.5	99.2
2022-10-19T08:09	10	26	0.2	26	27	383	0.3	383	384	11.5	99.2
2022-10-19T08:10	10	26	0.4	25	27	383	0.5	382	385	11.5	99.2
2022-10-19T08:11	10	26	0.5	25	27	382	0.2	382	383	11.6	99.2
2022-10-19T08:12	10	28	0.6	27	29	383	0.4	382	383	11.5	99.2
2022-10-19T08:13	10	30	0.7	29	31	382	0.3	382	383	11.5	99.2
2022-10-19T08:14	10	32	0.4	31	33	384	0.5	383	385	11.6	99.2
2022-10-19T08:15	10	33	0.4	32	34	385	0.4	384	385	11.6	99.2
2022-10-19T08:16	10	34	0.2	34	34	385	0.2	384	385	11.6	99.2
2022-10-19T08:17	10	34	0.2	34	34	385	0.3	385	386	11.6	99.2
2022-10-19T08:18	10	34	0.1	34	35	386	0.4	385	387	11.8	99.2
2022-10-19T08:19	10	34	0.2	34	34	386	0.3	386	387	11.7	99.2
2022-10-19T08:20	10	34	0.1	33	34	386	0.3	385	386	11.5	99.2
2022-10-19T08:21	10	33	0.1	33	34	385	0.5	384	387	11.5	99.2
2022-10-19T08:22	10	33	0.1	33	33	385	0.3	384	385	11.5	99.2
2022-10-19T08:23	10	34	0.4	33	34	385	0.3	385	386	11.5	99.2
2022-10-19T08:24	10	34	0.2	34	35	386	0.3	385	386	11.5	99.2
2022-10-19T08:25	10	35	0.1	34	35	386	0.3	385	386	11.5	99.2
2022-10-19T08:26	10	35	0.2	34	35	385	0.3	385	386	11.5	99.2
2022-10-19T08:27	10	35	0.2	34	35	386	0.3	385	387	11.5	99.2
2022-10-19T08:28	10	33	0.7	32	35	386	0.2	385	386	11.5	99.2
2022-10-19T08:29	10	30	1.0	29	32	385	0.5	384	386	11.5	99.2
2022-10-19T08:30	10	27	0.7	26	29	385	0.2	385	386	11.5	99.2
2022-10-19T08:31	10	24	1.0	23	26	385	0.3	384	386	11.5	99.2
2022-10-19T08:32	10	24	0.3	24	25	385	0.3	385	386	11.7	99.2
2022-10-19T08:33	10	25	0.2	24	25	385	0.4	384	385	11.6	99.2
2022-10-19T08:34	10	26	0.4	25	26	383	0.6	382	385	11.5	99.2
2022-10-19T08:35	10	26	0.1	26	27	383	0.3	382	384	11.5	99.2
2022-10-19T08:36	10	27	0.2	26	27	384	0.3	383	384	11.6	99.2
2022-10-19T08:37	10	26	0.1	26	27	384	0.2	384	384	11.5	99.2
2022-10-19T08:38	10	26	0.2	26	27	385	0.4	384	385	11.5	99.2
2022-10-19T08:39	10	26	0.2	25	26	385	0.2	384	385	11.6	99.2
2022-10-19T08:40	10	25	0.4	25	26	385	0.4	384	386	11.6	99.2
2022-10-19T08:41	10	24	0.4	23	25	385	0.3	384	385	11.6	99.2
2022-10-19T08:42	10	23	0.8	22	25	385	0.3	384	386	11.7	99.2
2022-10-19T08:43	10	25	0.3	24	26	385	0.2	384	385	11.8	99.2
2022-10-19T08:44	10	25	0.3	25	26	384	0.5	383	385	11.6	99.2
2022-10-19T08:45	10	24	1.5	20	25	383	0.3	382	384	11.5	99.2
2022-10-19T08:46	10	18	0.7	17	20	383	0.2	382	383	11.6	99.2
2022-10-19T08:47	10	21	1.0	19	23	383	0.3	382	384	11.6	99.2
2022-10-19T08:48	10	23	0.3	23	23	383	0.2	383	384	11.6	99.2
2022-10-19T08:49	10	23	0.2	22	23	383	0.3	383	384	11.6	99.2
2022-10-19T08:50	10	25	1.3	23	26	383	0.3	383	384	11.6	99.2
2022-10-19T08:51	10	27	0.3	26	27	383	0.3	383	384	11.6	99.2
2022-10-19T08:52	10	27	0.4	26	28	384	0.2	383	384	11.6	99.2
2022-10-19T08:53	10	26	0.1	26	27	384	0.3	383	384	11.6	99.2
2022-10-19T08:54	10	27	0.6	27	29	384	0.2	383	384	11.6	99.2
2022-10-19T08:55	10	30	0.7	29	31	384	0.2	383	384	11.6	99.2
2022-10-19T08:56	10	32	0.5	31	33	384	0.4	384	385	11.6	99.2
2022-10-19T08:57	10	34	0.5	33	35	386	0.3	385	386	11.7	99.2
2022-10-19T08:58	10	35	0.4	34	36	386	0.2	385	386	11.7	99.2
2022-10-19T08:59	10	36	0.3	36	37	386	0.3	385	386	11.6	99.2
2022-10-19T09:00	10	40	1.4	37	42	386	0.4	385	387	11.6	99.2
2022-10-19T09:01	10	43	0.5	42	44	387	0.4	386	388	11.6	99.2
2022-10-19T09:02	10	44	0.8	42	45	388	0.4	387	388	11.6	99.2
2022-10-19T09:03	10	39	1.2	37	42	388	0.4	387	388	11.7	99.2
2022-10-19T09:04	10	36	0.5	35	37	387	0.2	387	387	11.5	99.2
2022-10-19T09:05	10	36	0.3	35	36	386	0.3	386	387	11.5	99.2
2022-10-19T09:06	10	39	1.9	36	41	386	0.2	386	387	11.5	99.2
2022-10-19T09:07	10	41	0.3	41	42	387	0.3	386	388	11.5	99.2
2022-10-19T09:08	10	42	0.6	40	42	388	0.3	387	388	11.6	99.2
2022-10-19T09:09	10	40	0.2	40	41	388	0.3	388	389	11.8	99.2
2022-10-19T09:10	10	40	0.4	39	40	389	0.2	389	390	11.8	99.2
2022-10-19T09:11	10	37	1.1	35	39	389	0.3	389	390	11.8	99.2
2022-10-19T09:12	10	36	0.5	35	36	388	0.8	387	390	11.9	99.2
2022-10-19T09:13	10	36	0.5	35	37	387	0.3	387	388	11.7	99.2
2022-10-19T09:14	10	37	0.2	37	38	387	0.3	387	388	11.6	99.2
2022-10-19T09:15	10	35	0.6	35	37	387	0.5	386	388	11.8	99.2
2022-10-19T09:16	10	35	0.2	35	36	387	0.3	386	387	11.6	99.2
2022-10-19T09:17	10	35	0.3	34	35	388	0.4	387	388	11.7	99.2
2022-10-19T09:18	10	35	0.2	35	35	388	0.5	387	389	11.8	99.2
2022-10-19T09:19	10	35	0.3	34	35	386	0.4	386	387	11.6	99.2
2022-10-19T09:20	10	33	0.6	32	34	386	0.3	386	387	11.6	99.2
2022-10-19T09:21	10	30	1.3	28	32	385	0.5	385	386	11.6	99.2
2022-10-19T09:22	10	26	0.7	25	28	385	0.4	385	386	11.7	99.2
2022-10-19T09:23	10	24	0.6	23	25	385	0.3	384	386	11.6	99.2
2022-10-19T09:24	10	23	0.3	22	23	385	0.2	384	385	11.6	99.2
2022-10-19T09:25	10	21	0.7	20	22	385	0.3	384	385	11.6	99.2
2022-10-19T09:26	10	20	0.8	19	22	385	0.3	384	385	11.6	99.2
2022-10-19T09:27	10	22	0.7	20	22	385	0.2	384	385	11.6	99.2
2022-10-19T09:28	10	22	0.6	20	22	384	0.3	384	385	11.7	99.2
2022-10-19T09:29	10	22	0.2	22	22	384	0.3	384	385	11.7	99.2
2022-10-19T09:30	10	23	1.0	22	25	384	0.3	384	385	11.7	99.2
2022-10-19T09:31	10	26	0.1	25	26	384	0.3	384	385	11.7	99.2
2022-10-19T09:32	10	27	0.8	26	28	384	0.4	383	385	11.8	99.2
2022-10-19T09:33	10	29	0.5	28	30	385	0.4	384	386	11.8	99.2
2022-10-19T09:34	10	31	0.4	30	31	385	0.3	385	386	11.8	99.2
2022-10-19T09:35	10	32	0.5	31	33	385	0.3	385	386	11.7	99.2
2022-10-19T09:36	10	33	0.1	33	33	385	0.4	384	386	11.6	99.2
2022-10-19T09:37	10	33	0.1	32	33	386	0.7	384	387	11.7	99.2
2022-10-19T09:38	10	33	0.3	33	34	386	0.7	385	388	11.6	99.2
2022-10-19T09:39	10	34	0.5	33	35	387	0.6	386	388	11.7	99.2
2022-10-19T09:40	10	37	0.8	35	38	388	0.4	387	389	11.8	99.2
2022-10-19T09:41	10	39	0.5	38	40	388	0.4	387	389	11.7	99.2
2022-10-19T09:42	10	40	0.3	40	41	389	0.3	388	389	11.7	99.2
2022-10-19T09:43	10	41	0.3	41	42	390	0.3	389	390	11.8	99.2
2022-10-19T09:44	10	42	0.4	42	43	391	0.6	390	392	11.8	99.2
2022-10-19T09:45	10	44	0.2	43	44	391	0.6	390	392	11.7	99.2
2022-10-19T09:46	10	43	0.3	43	44	391	0.3	390	392	11.8	99.2
2022-10-19T09:47	10	43	0.1	43	43	391	0.4	390	392	11.9	99.2
2022-10-19T09:48	10	43	0.2	43	43	391	0.5	390	392	11.8	99.2
2022-10-19T09:49	10	44	0.2	43	44	391	0.6	390	392	11.8	99.2
2022-10-19T09:50	10	44	0.2	43	44	391	0.2	391	392	11.8	99.2
2022-10-19T09:51	10	42	0.5	41	43	391	0.5	390	392	11.9	99.2
2022-10-19T09:52	10	41	0.3	40	41	391	0.4	390	392	11.8	99.2
2022-10-19T09:53	10	40	0.2	40	41	390	0.5	389	391	11.9	99.2
2022-10-19T09:54	10	40	0.2	39	40	391	0.9	389	392	12.1	99.2
2022-10-19T09:55	10	39	0.3	38	39	391	0.9	389	392	11.8	99.2
2022-10-19T09:56	10	38	0.2	37	38	389	0.9	388	391	11.7	99.2
2022-10-19T09:57	10	37	0.4	36	38	389	0.4	388	390	11.7	99.2
2022-10-19T09:58	10	35	0.6	34	36	389	0.3	388	389	11.7	99.2
2022-10-19T09:59	10	36	1.0	35	38	389	0.4	388	390	11.7	99.2
2022-10-19T10:00	10	38	0.3	38	39	389	0.4	388	390	11.8	99.2
2022-10-19T10:01	10	39	0.1	38	39	390	0.2	389	390	11.7	99.2
2022-10-19T10:02	10	38	0.2	38	39	390	0.6	389	391	11.9	99.2
2022-10-19T10:03	10	38	0.2	38	38	390	0.8	389	391	11.8	99.2
2022-10-19T10:04	10	38	0.1	37	38	389	0.3	389	390	11.7	99.2
2022-10-19T10:05	10	37	0.1	37	37	389	0.4	388	390	11.7	99.2
2022-10-19T10:06	10	37	0.2	37	37	389	0.4	388	389	11.8	99.2
2022-10-19T10:07	10	35	0.9	34	36	388	0.5	387	389	11.8	99.2
2022-10-19T10:08	10	35	0.8	34	36	388	0.6	387	389	12.0	99.2
2022-10-19T10:09	10	37	0.4	36	37	389	0.4	388	389	12.0	99.2
2022-10-19T10:10	10	38	0.1	37	38	389	0.5	388	390	12.1	99.2
2022-10-19T10:11	10	37	0.1	37	38	389	0.4	389	390	12.2	99.2
2022-10-19T10:12	10	37	0.4	36	38	389	0.4	388	390	12.0	99.2
2022-10-19T10:13	10	39	0.5	38	40	388	0.4	387	389	11.9	99.2
2022-10-19T10:14	10	36	1.0	35	39	388	0.7	387	390	12.0	99.2
2022-10-19T10:15	10	38	0.7	37	40	389	0.6	388	390	12.1	99.2
2022-10-19T10:16	10	41	0.9	40	42	390	0.5	389	392	12.1	99.2
2022-10-19T10:17	10	43	0.4	42	44	390	0.3	389	390	12.0	99.2
2022-10-19T10:18	10	44	0.5	42	44	390	0.4	389	391	12.0	99.2
2022-10-19T10:19	10	37	3.3	32	42	389	0.8	388	390	11.9	99.1
2022-10-19T10:20	10	33	0.9	32	35	388	0.3	388	389	12.0	99.0
2022-10-19T10:21	10	35	0.8	35	37	389	0.9	387	390	12.1	98.9
2022-10-19T10:22	10	37	0.3	36	37	389	0.6	388	390	12.0	98.9
2022-10-19T10:23	10	36	0.3	36	37	388	0.3	388	389	12.0	98.8
2022-10-19T10:24	10	34	0.7	33	36	388	0.5	387	389	12.0	98.7
2022-10-19T10:25	10	33	0.2	33	34	388	0.4	387	389	12.0	98.6
2022-10-19T10:26	10	35	1.0	33	37	388	0.4	387	390	12.2	98.6
2022-10-19T10:27	10	40	1.2	37	41	389	0.2	388	389	12.0	98.5
2022-10-19T10:28	10	40	0.8	39	41	389	0.7	388	390	12.0	98.3
2022-10-19T10:29	10	41	0.7	39	42	390	0.3	389	390	12.1	98.3
2022-10-19T10:30	10	41	0.1	41	42	391	0.5	389	391	12.1	98.2
2022-10-19T10:31	10	42	0.3	41	42	391	0.3	390	391	12.1	98.1
2022-10-19T10:32	10	39	1.8	36	42	391	0.3	390	392	12.1	97.9
2022-10-19T10:33	10	34	0.7	33	36	390	0.3	390	391	12.2	97.9
2022-10-19T10:34	10	33	0.5	32	33	389	0.3	389	390	12.1	97.7
2022-10-19T10:35	10	33	0.3	32	33	390	0.3	389	390	12.3	97.7
2022-10-19T10:36	10	32	0.9	30	33	390	0.7	389	391	12.5	97.6
2022-10-19T10:37	10	30	0.2	29	30	389	0.7	388	391	12.3	97.3
2022-10-19T10:38	10	29	0.3	28	30	388	0.4	387	389	12.2	97.0
2022-10-19T10:39	10	26	1.6	23	28	387	0.4	386	388	12.2	96.9
2022-10-19T10:40	10	22	1.1	20	23	386	0.5	385	387	12.2	96.7
2022-10-19T10:41	10	19	0.5	18	20	386	0.2	385	386	12.1	96.6
2022-10-19T10:42	10	18	0.3	18	19	385	0.2	385	386	12.2	96.6
2022-10-19T10:43	10	19	0.2	19	20	386	0.5	385	387	12.0	96.4
2022-10-19T10:44	10	20	0.4	20	21	386	0.4	385	387	12.2	96.5
2022-10-19T10:45	10	22	1.0	21	24	386	0.3	385	386	12.3	96.7
2022-10-19T10:46	10	26	0.6	24	26	385	0.6	384	386	12.2	96.4
2022-10-19T10:47	10	27	0.6	26	28	385	0.3	384	386	12.1	96.2
2022-10-19T10:48	10	29	0.3	28	30	385	0.3	385	386	12.0	96.1
2022-10-19T10:49	10	30	1.1	29	32	386	0.3	385	387	12.1	96.1
2022-10-19T10:50	10	31	0.8	30	32	387	0.4	386	388	12.1	96.2
2022-10-19T10:51	10	34	2.6	31	39	387	0.5	386	389	12.1	96.1
2022-10-19T10:52	10	39	0.6	38	40	389	0.5	388	390	12.2	96.1
2022-10-19T10:53	10	35	1.4	33	38	390	0.3	389	390	12.3	96.0
2022-10-19T10:54	10	32	0.5	31	33	390	0.2	389	390	12.3	96.0
2022-10-19T10:55	10	36	1.0	33	37	390	0.5	389	391	12.4	96.0
2022-10-19T10:56	10	40	2.6	37	45	391	0.6	390	392	12.5	96.0
2022-10-19T10:57	10	45	0.1	44	45	390	0.2	390	391	12.3	95.7
2022-10-19T10:58	10	45	0.5	45	47	391	0.3	391	392	12.2	95.7
2022-10-19T10:59	10	47	0.4	46	48	392	0.2	391	392	12.3	95.8
2022-10-19T11:00	10	42	2.4	39	46	392	0.2	391	393	12.4	95.9
2022-10-19T11:01	10	46	3.8	40	52	392	0.3	391	393	12.4	95.7
2022-10-19T11:02	10	54	1.3	52	56	393	0.3	392	393	12.4	95.8
2022-10-19T11:03	10	57	0.7	56	59	394	0.5	393	395	12.4	95.7
2022-10-19T11:04	10	60	0.4	59	60	396	0.3	395	396	12.6	95.8
2022-10-19T11:05	10	60	0.3	60	61	397	0.4	396	398	12.7	95.9
2022-10-19T11:06	10	60	0.2	60	61	397	0.5	396	398	12.7	95.7
2022-10-19T11:07	10	62	0.4	61	62	397	0.3	396	397	12.6	95.3
2022-10-19T11:08	10	64	0.9	63	66	397	0.3	397	398	12.5	95.2
2022-10-19T11:09	10	65	0.3	64	66	397	0.5	396	397	12.7	95.4
2022-10-19T11:10	10	63	0.7	62	64	396	0.5	395	396	12.5	94.9
2022-10-19T11:11	10	62	0.2	62	62	395	0.3	395	396	12.6	95.0
2022-10-19T11:12	10	62	0.2	62	63	396	0.3	396	397	12.6	94.9
2022-10-19T11:13	10	62	0.4	62	63	397	0.5	396	397	12.6	94.9
2022-10-19T11:14	10	61	0.2	61	62	397	0.6	395	398	12.7	95.0
2022-10-19T11:15	10	61	0.4	61	62	396	0.4	395	397	12.6	94.9
2022-10-19T11:16	10	63	0.5	62	64	396	0.3	395	397	12.6	94.8
2022-10-19T11:17	10	64	0.1	64	64	397	0.7	396	398	12.6	95.0
2022-10-19T11:18	10	63	0.2	63	64	399	0.3	398	399	12.8	95.1
2022-10-19T11:19	10	63	0.3	62	63	400	0.7	398	401	13.1	95.3
2022-10-19T11:20	10	61	0.4	60	62	399	1.1	398	401	12.9	94.6
2022-10-19T11:21	10	60	0.1	60	60	397	0.9	395	399	12.7	94.3
2022-10-19T11:22	10	60	0.1	60	61	396	0.6	395	398	12.6	94.6
2022-10-19T11:23	10	60	0.3	59	60	398	0.3	398	399	12.6	94.8
2022-10-19T11:24	10	59	0.3	58	59	398	0.4	398	400	12.8	94.9
2022-10-19T11:25	10	58	0.2	57	58	398	0.6	397	399	13.0	94.9
2022-10-19T11:26	10	59	0.7	57	60	397	0.3	396	397	12.9	94.5
2022-10-19T11:27	10	61	0.7	60	62	397	0.3	397	398	12.9	94.6
2022-10-19T11:28	10	63	0.2	62	63	397	0.4	396	398	12.9	94.5
2022-10-19T11:29	10	62	0.7	61	64	397	0.3	396	398	12.8	94.4
2022-10-19T11:30	10	59	1.1	57	61	397	0.3	396	397	12.8	94.6
2022-10-19T11:31	10	56	0.7	55	57	396	0.4	396	397	12.9	94.8
2022-10-19T11:32	10	54	0.5	53	55	397	0.4	396	398	13.0	94.8
2022-10-19T11:33	10	53	0.2	52	53	396	0.3	396	397	12.8	94.4
2022-10-19T11:34	10	53	0.3	52	53	397	0.2	396	397	12.9	94.8
2022-10-19T11:35	10	54	0.5	53	55	396	0.3	396	397	12.9	94.7
2022-10-19T11:36	10	55	0.2	54	55	397	0.4	396	398	12.9	94.5
2022-10-19T11:37	10	55	0.3	54	55	397	0.3	396	398	12.9	94.3
2022-10-19T11:38	10	53	0.6	52	54	397	0.4	396	398	13.0	94.4
2022-10-19T11:39	10	48	1.8	46	52	396	0.3	396	397	12.9	93.9
2022-10-19T11:40	10	50	0.2	49	50	397	0.4	396	398	13.2	94.2
2022-10-19T11:41	10	50	0.4	50	51	398	0.3	397	398	13.3	94.2
2022-10-19T11:42	10	52	0.2	51	52	398	0.3	398	399	13.1	93.3
2022-10-19T11:43	10	53	0.4	52	54	399	0.5	398	400	13.2	93.2
2022-10-19T11:44	10	55	0.6	54	56	399	0.3	398	400	13.2	92.8
2022-10-19T11:45	10	57	0.3	56	57	399	0.4	398	400	13.2	92.8
2022-10-19T11:46	10	58	0.4	57	59	399	0.3	399	400	13.2	92.7
2022-10-19T11:47	10	59	0.3	59	60	399	0.5	398	401	13.1	92.8
2022-10-19T11:48	10	60	0.4	59	61	400	0.6	399	401	13.3	93.1
2022-10-19T11:49	10	61	0.5	60	62	401	0.4	400	402	13.4	93.0
2022-10-19T11:50	10	63	0.8	62	64	402	0.3	401	402	13.4	92.7
2022-10-19T11:51	10	61	1.1	60	64	403	0.3	402	403	13.4	92.6
2022-10-19T11:52	10	60	0.3	59	60	402	0.5	401	403	13.4	92.6
2022-10-19T11:53	10	58	0.6	57	59	402	0.5	400	403	13.5	92.7
2022-10-19T11:54	10	56	0.7	55	57	400	0.5	399	401	13.5	92.6
2022-10-19T11:55	10	54	0.4	53	55	399	0.6	399	400	13.5	92.2
2022-10-19T11:56	10	53	0.1	53	54	399	0.3	398	399	13.3	92.1
2022-10-19T11:57	10	55	0.9	54	57	399	0.4	398	399	13.4	92.3
2022-10-19T11:58	10	58	0.5	57	58	398	0.3	397	399	13.5	92.0
2022-10-19T11:59	10	59	0.2	58	59	398	0.3	397	398	13.3	92.0
2022-10-19T12:00	10	59	0.1	59	59	399	0.9	398	401	13.3	92.4
2022-10-19T12:01	10	59	0.1	59	59	399	0.6	398	400	13.4	92.3
2022-10-19T12:02	10	58	0.3	58	59	399	0.5	398	400	13.4	92.6
2022-10-19T12:03	10	58	0.1	57	58	399	0.5	398	400	13.5	92.4
2022-10-19T12:04	10	58	0.4	58	59	399	0.5	398	400	13.3	91.9
2022-10-19T12:05	10	60	0.7	59	61	400	0.4	398	400	13.4	92.5
2022-10-19T12:06	10	63	1.3	61	66	400	0.4	399	402	13.5	92.6
2022-10-19T12:07	10	70	3.1	66	76	402	0.7	401	404	13.4	92.2
2022-10-19T12:08	10	75	2.2	71	78	404	0.7	403	405	13.5	92.2
2022-10-19T12:09	10	70	0.7	69	71	404	0.3	403	404	13.6	92.0
2022-10-19T12:10	10	72	2.5	69	77	405	0.4	404	405	13.5	91.6
2022-10-19T12:11	10	73	3.3	68	77	406	0.6	404	406	13.4	91.4
2022-10-19T12:12	10	68	5.5	58	74	405	1.1	403	406	13.5	91.7
2022-10-19T12:13	10	52	2.8	47	58	403	1.0	401	405	13.3	91.7
2022-10-19T12:14	10	45	1.1	43	47	400	0.5	399	401	13.3	92.2
2022-10-19T12:15	10	46	0.5	45	47	399	0.7	398	401	13.4	92.3
2022-10-19T12:16	10	44	1.0	43	46	399	0.6	398	400	13.4	92.3
2022-10-19T12:17	10	41	1.0	40	43	398	0.3	397	399	13.4	91.9
2022-10-19T12:18	10	39	0.7	39	41	398	0.4	397	399	13.5	92.0
2022-10-19T12:19	10	46	3.5	42	53	398	0.5	398	399	13.6	92.2
2022-10-19T12:20	10	57	1.6	53	59	400	1.0	398	402	13.6	91.8
2022-10-19T12:21	10	61	1.1	59	62	401	0.5	400	402	13.7	91.3
2022-10-19T12:22	10	61	0.6	60	62	402	1.3	400	404	13.6	90.9
2022-10-19T12:23	10	58	0.8	57	60	402	0.3	402	403	13.8	91.0
2022-10-19T12:24	10	56	0.6	55	57	403	0.4	402	404	13.9	91.0
2022-10-19T12:25	10	53	1.3	50	55	403	0.5	402	403	13.8	90.7
2022-10-19T12:26	10	45	2.3	42	50	402	1.6	399	404	14.0	91.6
2022-10-19T12:27	10	42	1.2	41	44	399	1.0	398	401	13.7	90.7
2022-10-19T12:28	10	45	0.4	45	46	398	0.4	397	399	13.6	90.4
2022-10-19T12:29	10	47	0.4	46	47	399	0.5	397	400	13.6	90.5
2022-10-19T12:30	10	48	0.4	47	48	399	0.3	398	400	13.8	91.0
2022-10-19T12:31	10	49	0.3	48	49	399	0.7	398	401	13.6	90.5
2022-10-19T12:32	10	49	0.2	49	50	400	0.7	399	402	14.0	91.0
2022-10-19T12:33	10	51	1.2	50	54	400	0.3	399	400	14.1	91.0
2022-10-19T12:34	10	58	2.0	54	61	400	0.4	399	400	13.9	90.3
2022-10-19T12:35	10	64	1.5	61	66	402	0.7	400	403	13.8	90.2
2022-10-19T12:36	10	68	1.1	66	70	404	0.5	403	405	13.8	90.3
2022-10-19T12:37	10	70	0.1	70	70	406	0.3	405	406	14.0	90.5
2022-10-19T12:38	10	70	1.1	66	71	406	0.3	405	407	14.1	90.5
2022-10-19T12:39	10	62	1.9	59	66	405	1.2	403	407	14.1	90.7
2022-10-19T12:40	10	58	0.5	57	59	404	0.3	404	405	14.0	90.2
2022-10-19T12:41	10	57	0.2	57	58	403	0.7	402	404	13.9	90.1
2022-10-19T12:42	10	57	0.2	57	57	402	0.6	400	403	13.9	90.4
2022-10-19T12:43	10	56	0.4	55	57	402	0.5	401	403	13.9	90.3
2022-10-19T12:44	10	54	0.5	54	55	401	0.3	401	402	13.9	90.1
2022-10-19T12:45	10	54	0.1	53	54	401	0.4	400	402	13.9	90.0
2022-10-19T12:46	10	54	0.2	53	54	402	0.6	400	403	14.1	90.0
2022-10-19T12:47	10	54	0.1	54	54	401	0.4	400	402	14.2	90.3
2022-10-19T12:48	10	53	0.5	52	54	400	0.2	400	401	14.1	90.3
2022-10-19T12:49	10	51	0.8	49	52	401	0.4	400	402	14.0	90.4
2022-10-19T12:50	10	50	0.6	49	51	401	0.3	401	402	14.1	90.7
2022-10-19T12:51	10	52	0.9	51	54	402	0.4	401	403	14.2	90.5
2022-10-19T12:52	10	57	1.3	54	59	402	0.3	401	402	14.1	90.2
2022-10-19T12:53	10	60	0.6	59	61	403	0.6	402	405	14.1	90.2
2022-10-19T12:54	10	61	0.5	60	62	405	0.9	403	406	14.3	90.2
2022-10-19T12:55	10	62	0.1	61	62	406	1.0	404	408	14.3	90.1
2022-10-19T12:56	10	62	0.3	61	62	406	0.4	405	407	14.5	90.2
2022-10-19T12:57	10	58	2.0	54	61	406	1.4	403	408	14.6	90.2
2022-10-19T12:58	10	50	2.0	47	54	403	1.3	401	405	14.3	89.9
2022-10-19T12:59	10	46	0.9	45	48	400	0.8	399	402	14.1	90.0
2022-10-19T13:00	10	43	0.7	42	45	399	0.5	398	400	14.1	90.2
2022-10-19T13:01	10	40	1.0	39	42	398	0.4	397	398	14.1	90.3
2022-10-19T13:02	10	39	0.4	38	39	397	0.3	396	397	14.1	90.6
2022-10-19T13:03	10	37	0.5	36	38	396	0.3	395	397	14.1	90.8
2022-10-19T13:04	10	36	0.3	36	37	397	0.5	395	397	14.2	91.3
2022-10-19T13:05	10	40	1.6	37	42	397	0.4	396	398	14.3	91.1
2022-10-19T13:06	10	45	1.7	43	48	398	0.6	397	399	14.3	90.8
2022-10-19T13:07	10	49	0.3	48	50	399	0.9	398	401	14.2	90.4
2022-10-19T13:08	10	48	1.1	46	49	400	0.5	399	401	14.2	90.3
2022-10-19T13:09	10	44	1.4	41	46	401	0.4	400	402	14.2	90.4
2022-10-19T13:10	10	38	1.9	35	41	401	0.8	399	402	14.3	90.7
2022-10-19T13:11	10	32	1.2	30	35	398	1.3	396	400	14.2	90.6
2022-10-19T13:12	10	30	0.4	30	31	396	0.5	395	397	14.1	90.7
2022-10-19T13:13	10	31	0.4	30	31	396	0.4	395	397	14.0	90.9
2022-10-19T13:14	10	32	0.4	31	32	397	0.4	396	398	14.0	91.3
2022-10-19T13:15	10	32	0.3	32	33	397	0.4	396	398	14.2	91.6
2022-10-19T13:16	10	32	0.1	32	32	396	0.3	396	397	14.1	91.3
2022-10-19T13:17	10	29	1.6	27	32	396	0.3	395	396	14.1	91.4
2022-10-19T13:18	10	27	0.5	27	29	396	0.4	395	396	14.1	91.4
2022-10-19T13:19	10	31	1.0	29	33	395	0.4	395	396	14.0	91.2
2022-10-19T13:20	10	35	1.3	33	37	395	0.4	395	396	13.8	91.1
2022-10-19T13:21	10	38	0.3	37	38	396	0.3	395	397	13.8	91.2
2022-10-19T13:22	10	35	1.4	32	37	396	0.3	396	397	13.9	91.3
2022-10-19T13:23	10	32	0.7	31	34	396	0.3	395	396	14.0	91.5
2022-10-19T13:24	10	35	0.5	33	35	395	0.6	394	396	13.8	91.4
2022-10-19T13:25	10	35	0.7	33	35	395	0.4	394	396	13.8	91.6
2022-10-19T13:26	10	32	0.3	31	33	396	0.5	395	397	13.9	91.6
2022-10-19T13:27	10	32	0.2	32	32	396	0.3	395	397	14.0	91.6
2022-10-19T13:28	10	33	0.4	32	34	397	0.3	396	397	14.0	91.3
2022-10-19T13:29	10	33	0.1	33	34	398	1.1	395	399	14.2	91.6
2022-10-19T13:30	10	35	0.6	34	35	397	0.8	396	399	14.0	91.0
2022-10-19T13:31	10	33	1.1	32	35	398	0.7	396	399	14.0	90.8
2022-10-19T13:32	10	32	0.9	31	34	397	0.4	396	398	14.1	90.9
2022-10-19T13:33	10	36	0.5	35	37	398	0.4	397	399	14.1	90.7
2022-10-19T13:34	10	36	0.1	36	36	398	0.5	397	400	14.0	91.0
2022-10-19T13:35	10	36	0.2	36	37	398	0.6	397	400	14.0	91.3
2022-10-19T13:36	10	37	0.5	37	39	399	0.5	398	400	14.2	91.7
2022-10-19T13:37	10	39	0.2	38	39	399	0.8	398	400	14.3	91.9
2022-10-19T13:38	10	37	0.9	36	39	398	0.5	397	399	14.2	91.5
2022-10-19T13:39	10	35	0.2	35	36	398	0.2	397	398	14.3	91.6
2022-10-19T13:40	10	35	0.6	34	36	397	0.6	396	398	14.3	91.3
2022-10-19T13:41	10	33	0.7	32	34	396	0.5	395	397	14.1	91.2
2022-10-19T13:42	10	31	0.4	31	32	395	0.4	394	396	14.1	91.3
2022-10-19T13:43	10	32	0.6	31	33	394	0.2	394	395	14.0	91.0
2022-10-19T13:44	10	34	0.3	33	34	395	0.4	394	396	14.1	91.2
2022-10-19T13:45	10	34	0.1	34	35	396	0.4	395	397	14.0	91.0
2022-10-19T13:46	10	34	0.1	34	35	397	0.4	396	397	14.1	91.1
2022-10-19T13:47	10	34	0.2	34	35	398	0.3	397	398	14.1	91.1
2022-10-19T13:48	10	33	0.9	31	34	398	0.3	397	398	14.1	91.5
2022-10-19T13:49	10	30	0.7	28	31	397	0.3	396	398	14.1	91.4
2022-10-19T13:50	10	28	0.5	27	28	397	0.2	396	397	14.1	91.4
2022-10-19T13:51	10	26	0.3	26	27	396	0.4	395	397	14.1	91.5
2022-10-19T13:52	10	25	0.5	24	26	396	0.3	396	397	14.1	91.4
2022-10-19T13:53	10	23	0.5	23	24	396	0.5	395	397	14.1	91.5
2022-10-19T13:54	10	23	0.4	22	23	395	0.4	395	396	14.2	91.7
2022-10-19T13:55	10	23	0.3	23	24	394	0.4	393	395	14.2	91.9
2022-10-19T13:56	10	22	0.2	22	23	394	0.2	393	395	14.3	92.3
2022-10-19T13:57	10	22	0.1	22	23	394	0.3	394	395	14.4	92.1
2022-10-19T13:58	10	22	0.2	22	23	394	0.5	393	395	14.3	92.0
2022-10-19T13:59	10	21	0.4	21	22	393	0.5	392	394	14.3	91.8
2022-10-19T14:00	10	20	0.2	20	21	392	0.3	392	393	14.0	91.6
2022-10-19T14:01	10	20	0.4	19	20	392	0.5	391	393	14.0	92.0
2022-10-19T14:02	10	19	0.2	18	19	391	0.3	390	391	13.9	92.0
2022-10-19T14:03	10	20	0.3	19	20	391	0.5	390	392	13.9	92.3
2022-10-19T14:04	10	19	0.7	18	20	392	0.4	391	393	13.9	92.3
2022-10-19T14:05	10	18	0.2	17	18	392	0.3	391	393	14.0	92.4
2022-10-19T14:06	10	16	0.4	16	17	392	0.8	390	393	14.0	92.2
2022-10-19T14:07	10	16	0.2	15	16	390	0.4	390	391	13.8	92.1
2022-10-19T14:08	10	15	0.1	15	16	390	0.3	389	391	13.8	92.4
2022-10-19T14:09	10	15	0.2	15	15	390	0.2	389	390	13.7	92.4
2022-10-19T14:10	10	15	0.1	15	15	390	0.2	389	390	13.7	92.6
2022-10-19T14:11	10	15	0.2	14	15	389	0.3	389	390	13.6	92.4
2022-10-19T14:12	10	14	0.1	14	15	389	0.3	389	390	13.7	92.5
2022-10-19T14:13	10	14	0.1	14	14	390	0.4	389	390	13.7	92.5
2022-10-19T14:14	10	14	0.1	14	14	390	0.4	389	391	13.8	92.4
2022-10-19T14:15	10	14	0.1	14	14	390	0.5	389	391	13.8	92.3
2022-10-19T14:16	10	14	0.2	14	14	390	0.3	390	391	13.8	92.2
2022-10-19T14:17	10	15	0.3	14	15	391	0.3	390	392	13.9	92.4
2022-10-19T14:18	10	16	0.8	15	18	391	0.3	391	392	13.9	92.3
2022-10-19T14:19	10	19	0.7	17	20	392	0.3	391	392	13.9	92.3
2022-10-19T14:20	10	20	0.2	20	21	392	0.4	392	393	14.0	92.2
2022-10-19T14:21	10	20	0.2	20	21	393	0.5	392	393	14.1	92.2
2022-10-19T14:22	10	22	0.4	21	23	393	0.3	392	393	14.0	91.9
2022-10-19T14:23	10	23	0.2	22	23	393	0.4	392	394	14.1	92.2
2022-10-19T14:24	10	24	0.5	23	25	393	0.6	392	394	14.2	92.2
2022-10-19T14:25	10	26	0.6	25	27	393	0.3	393	394	14.2	91.9
2022-10-19T14:26	10	27	0.2	27	28	393	0.3	393	394	14.1	91.8
2022-10-19T14:27	10	28	0.3	28	29	395	0.3	394	395	14.2	91.7
2022-10-19T14:28	10	31	0.9	29	32	395	0.9	393	397	14.2	91.7
2022-10-19T14:29	10	30	1.1	28	32	396	0.7	394	397	14.2	91.6
2022-10-19T14:30	10	25	1.6	23	28	395	0.4	394	396	14.2	91.5
2022-10-19T14:31	10	22	0.4	21	23	394	0.4	393	395	14.1	91.3
2022-10-19T14:32	10	27	2.7	23	31	394	0.3	394	395	14.1	91.6
2022-10-19T14:33	10	32	0.3	31	33	396	0.5	395	396	14.1	91.6
2022-10-19T14:34	10	32	0.4	31	33	396	0.4	395	397	14.3	91.7
2022-10-19T14:35	10	31	0.1	31	31	396	0.4	395	397	14.2	91.5
2022-10-19T14:36	10	29	0.8	28	31	395	0.4	394	396	14.1	91.2
2022-10-19T14:37	10	27	0.7	26	28	395	0.5	394	396	14.0	91.3
2022-10-19T14:38	10	24	1.0	22	26	394	0.2	394	395	14.1	91.6
2022-10-19T14:39	10	22	0.4	21	22	394	0.8	392	395	14.1	91.4
2022-10-19T14:40	10	21	0.3	20	21	393	0.3	393	394	14.1	91.6
2022-10-19T14:41	10	19	0.5	18	20	393	0.3	392	394	14.1	91.6
2022-10-19T14:42	10	18	0.1	18	18	393	0.3	392	394	14.1	91.7
2022-10-19T14:43	10	17	0.5	16	18	393	0.4	392	393	14.1	91.5
2022-10-19T14:44	10	16	0.3	16	17	392	0.3	392	393	14.1	91.5
2022-10-19T14:45	10	17	0.3	17	18	392	0.3	392	393	14.1	91.4
2022-10-19T14:46	10	18	0.1	18	18	393	0.3	392	393	14.2	91.6
2022-10-19T14:47	10	19	0.7	18	20	393	0.3	392	394	14.3	91.6
2022-10-19T14:48	10	21	0.6	20	22	393	0.3	392	394	14.3	91.4
2022-10-19T14:49	10	23	1.5	22	27	393	0.4	392	394	14.3	91.5
2022-10-19T14:50	10	29	0.9	27	30	394	0.4	393	394	14.3	91.2
2022-10-19T14:51	10	30	0.3	30	31	394	0.2	393	394	14.3	90.9
2022-10-19T14:52	10	26	2.1	23	30	394	0.3	393	394	14.3	90.8
2022-10-19T14:53	10	22	0.7	21	23	393	0.2	393	394	14.3	91.1
2022-10-19T14:54	10	19	1.0	18	21	392	0.6	392	394	14.3	91.0
2022-10-19T14:55	10	17	0.5	16	17	391	0.4	391	392	14.2	91.1
2022-10-19T14:56	10	16	0.4	16	17	391	0.3	390	392	14.2	91.2
2022-10-19T14:57	10	18	0.6	17	19	392	0.2	391	392	14.3	91.1
2022-10-19T14:58	10	20	0.3	19	20	392	0.2	392	393	14.3	91.0
2022-10-19T14:59	10	20	0.2	20	21	392	0.3	392	393	14.3	91.0
2022-10-19T15:00	10	21	0.1	21	21	392	0.3	392	393	14.4	91.4
2022-10-19T15:01	10	21	0.2	21	21	392	0.4	391	393	14.3	91.1
2022-10-19T15:02	10	21	0.3	21	22	393	0.3	392	394	14.3	91.3
2022-10-19T15:03	10	19	1.1	17	21	393	0.3	392	394	14.3	91.2
2022-10-19T15:04	10	15	0.8	14	17	392	0.4	391	393	14.3	91.0
2022-10-19T15:05	10	13	0.3	13	14	391	0.6	390	392	14.2	90.7
2022-10-19T15:06	10	13	0.3	12	13	390	0.9	389	391	14.2	90.7
2022-10-19T15:07	10	12	0.3	11	12	388	0.5	387	389	14.2	90.6
2022-10-19T15:08	10	11	0.2	11	11	387	0.6	386	388	14.1	90.2
2022-10-19T15:09	10	11	0.2	11	12	386	0.3	385	386	14.1	90.4
2022-10-19T15:10	10	12	0.1	11	12	385	0.2	385	386	14.1	90.5
2022-10-19T15:11	10	12	0.1	11	12	385	0.2	384	385	14.1	90.5
2022-10-19T15:12	10	11	0.1	11	11	384	0.3	383	385	14.1	90.6
2022-10-19T15:13	10	11	0.1	11	12	383	0.2	383	384	14.0	90.7
2022-10-19T15:14	10	12	0.1	12	12	383	0.2	383	384	14.0	91.1
2022-10-19T15:15	10	12	0.1	12	13	383	0.2	383	384	14.0	91.3
2022-10-19T15:16	10	12	0.1	12	13	384	0.3	383	384	14.0	91.4
2022-10-19T15:17	10	12	0.1	12	12	384	0.3	384	385	14.0	91.4
2022-10-19T15:18	10	12	0.1	12	12	383	0.3	383	384	14.0	91.3
2022-10-19T15:19	10	12	0.1	11	12	383	0.3	382	384	14.0	91.3
2022-10-19T15:20	10	12	0.1	11	12	382	0.4	382	383	14.1	91.3
2022-10-19T15:21	10	12	0.2	11	12	382	0.3	381	382	14.1	91.2
2022-10-19T15:22	10	12	0.2	12	13	381	0.2	381	382	14.1	91.1
2022-10-19T15:23	10	13	0.1	13	13	381	0.2	380	381	14.1	91.1
2022-10-19T15:24	10	13	0.2	13	14	381	0.2	380	381	14.1	91.2
2022-10-19T15:25	10	14	0.2	13	14	380	0.2	380	381	14.1	91.3
2022-10-19T15:26	10	14	0.2	14	15	380	0.2	380	380	14.1	91.2
2022-10-19T15:27	10	15	0.4	15	16	380	0.2	379	381	14.1	91.0
2022-10-19T15:28	10	17	0.7	16	18	380	0.2	380	381	14.1	90.8
2022-10-19T15:29	10	20	1.0	18	22	380	0.3	380	381	14.1	90.8
2022-10-19T15:30	10	23	0.7	22	24	381	0.3	380	381	14.1	90.9
2022-10-19T15:31	10	24	0.1	24	24	381	0.2	381	382	14.1	90.8
2022-10-19T15:32	10	24	0.3	23	24	382	0.3	381	382	14.1	90.8
2022-10-19T15:33	10	23	0.2	23	24	382	0.3	381	383	14.1	90.8
2022-10-19T15:34	10	22	0.1	22	23	382	0.2	381	382	14.1	90.8
2022-10-19T15:35	10	22	0.2	21	22	382	0.3	381	382	14.1	90.8
2022-10-19T15:36	10	21	0.1	21	21	382	0.2	381	382	14.1	90.8
2022-10-19T15:37	10	21	0.1	20	21	382	0.3	381	382	14.1	90.8
2022-10-19T15:38	10	20	0.1	20	21	382	0.2	381	382	14.1	90.9
2022-10-19T15:39	10	20	0.1	20	21	382	0.2	381	382	14.1	90.9
2022-10-19T15:40	10	20	0.1	20	21	381	0.2	381	382	14.1	90.9
2022-10-19T15:41	10	20	0.2	20	21	382	0.2	381	382	14.2	90.9
2022-10-19T15:42	10	19	0.2	19	20	381	0.2	381	382	14.2	90.7
2022-10-19T15:43	10	19	0.2	18	19	381	0.2	381	382	14.2	90.7
2022-10-19T15:44	10	18	0.1	18	19	381	0.2	381	382	14.1	90.8
2022-10-19T15:45	10	19	0.2	19	19	381	0.3	381	382	14.2	90.8
2022-10-19T15:46	10	19	0.1	19	20	381	0.2	381	382	14.3	90.7
2022-10-19T15:47	10	20	0.1	19	20	381	0.2	381	382	14.2	90.7
2022-10-19T15:48	10	19	0.4	18	19	381	0.2	381	382	14.1	91.1
2022-10-19T15:49	10	18	0.1	18	18	381	0.2	381	382	14.1	91.3
2022-10-19T15:50	10	18	0.1	18	18	381	0.2	380	381	14.1	91.2
2022-10-19T15:51	10	18	0.2	18	18	381	0.3	380	382	14.2	91.0
2022-10-19T15:52	10	17	0.5	16	18	380	0.3	380	381	14.2	90.9
2022-10-19T15:53	10	16	0.2	15	16	380	0.2	379	380	14.2	90.9
2022-10-19T15:54	10	15	0.2	15	15	380	0.2	379	380	14.1	91.0
2022-10-19T15:55	10	14	0.2	14	15	379	0.3	379	380	14.1	91.0
2022-10-19T15:56	10	14	0.3	13	14	379	0.3	378	379	14.0	91.3
2022-10-19T15:57	10	13	0.2	13	13	378	0.3	378	379	14.0	91.7
2022-10-19T15:58	10	12	0.2	12	13	378	0.3	377	378	14.0	91.9
2022-10-19T15:59	10	12	0.2	12	12	377	0.3	377	378	14.0	91.9
2022-10-19T16:00	10	11	0.1	11	12	376	0.3	376	377	14.0	91.9
2022-10-19T16:01	10	11	0.1	11	11	376	0.3	375	377	14.0	91.9
2022-10-19T16:02	10	11	0.1	11	11	375	0.3	375	376	14.0	92.0
2022-10-19T16:03	10	11	0.1	11	11	375	0.2	375	375	14.0	92.2
2022-10-19T16:04	10	11	0.3	10	11	375	0.2	375	375	13.9	92.4
2022-10-19T16:05	10	10	0.3	10	10	375	0.2	374	375	14.0	92.6
2022-10-19T16:06	10	9	0.2	9	10	374	0.2	374	375	14.0	92.5
2022-10-19T16:07	10	9	0.2	8	9	374	0.2	374	375	13.9	92.5
2022-10-19T16:08	10	8	0.2	8	8	374	0.2	373	374	13.9	92.5
2022-10-19T16:09	10	8	0.1	7	8	373	0.2	373	374	13.9	92.4
2022-10-19T16:10	10	7	0.1	7	8	373	0.2	373	373	13.9	92.4
2022-10-19T16:11	10	7	0.1	7	7	372	0.3	372	373	13.9	92.4
2022-10-19T16:12	10	7	0.1	7	7	372	0.2	372	373	13.9	92.5
2022-10-19T16:13	10	7	0.1	7	7	372	0.2	371	372	13.9	92.6
2022-10-19T16:14	10	7	0.1	7	7	372	0.3	371	372	13.9	92.6
2022-10-19T16:15	10	7	0.2	6	7	371	0.2	370	371	13.9	92.6
2022-10-19T16:16	10	6	0.3	5	6	370	0.3	370	371	13.9	92.6
2022-10-19T16:17	10	5	0.2	5	6	370	0.2	370	370	13.9	92.8
2022-10-19T16:18	10	5	0.1	5	5	370	0.2	369	371	13.9	92.9
2022-10-19T16:19	10	5	0.1	4	5	370	0.3	369	370	13.8	93.0
2022-10-19T16:20	10	4	0.1	4	4	369	0.3	368	369	13.7	93.4
2022-10-19T16:21	10	4	0.1	4	4	369	0.3	369	370	13.6	93.7
2022-10-19T16:22	10	4	0.1	3	4	369	0.3	368	369	13.5	94.1
2022-10-19T16:23	10	3	0.1	3	4	368	0.2	368	369	13.5	94.4
2022-10-19T16:24	10	3	0.1	3	3	368	0.2	367	368	13.5	94.6
2022-10-19T16:25	10	3	0.2	2	3	367	0.2	367	368	13.5	94.8
2022-10-19T16:26	10	2	0.1	2	3	367	0.3	367	368	13.5	94.8
2022-10-19T16:27	10	2	0.1	2	2	367	0.3	366	367	13.4	94.9
2022-10-19T16:28	10	2	0.1	2	2	367	0.2	366	367	13.4	95.0
2022-10-19T16:29	10	2	0.1	2	2	366	0.2	366	367	13.4	95.2
2022-10-19T16:30	10	2	0.2	1	2	366	0.2	366	367	13.4	95.3
2022-10-19T16:31	10	2	0.1	1	2	366	0.3	366	367	13.4	95.3
2022-10-19T16:32	10	1	0.2	1	2	366	0.2	366	367	13.5	95.4
2022-10-19T16:33	10	1	0.2	1	2	366	0.3	365	367	13.5	95.2
2022-10-19T16:34	10	1	0.1	1	1	366	0.3	365	366	13.5	95.2
2022-10-19T16:35	10	1	0.1	0	1	365	0.2	365	366	13.4	95.1
2022-10-19T16:36	10	1	0.2	0	1	365	0.2	364	365	13.4	95.1
2022-10-19T16:37	10	1	0.2	0	1	364	0.3	364	365	13.4	95.1
2022-10-19T16:38	10	1	0.2	0	1	365	0.2	364	365	13.3	95.2
2022-10-19T16:39	10	1	0.2	0	1	365	0.3	364	366	13.3	95.3
2022-10-19T16:40	10	1	0.2	0	1	364	0.2	364	365	13.3	95.4
2022-10-19T16:41	10	1	0.2	0	1	364	0.3	363	365	13.2	95.5
2022-10-19T16:42	10	1	0.1	0	1	364	0.2	363	365	13.1	95.6
2022-10-19T16:43	10	1	0.1	0	1	364	0.3	363	365	13.1	95.9
2022-10-19T16:44	10	1	0.1	0	1	364	0.2	364	365	13.2	96.0
2022-10-19T16:45	10	1	0.2	0	1	364	0.3	363	364	13.2	96.0
2022-10-19T16:46	10	1	0.1	0	1	363	0.2	363	364	13.1	95.9
2022-10-19T16:47	10	1	0.1	0	1	363	0.2	363	364	13.1	96.0
2022-10-19T16:48	10	1	0.1	0	1	363	0.3	362	364	13.1	95.9
2022-10-19T16:49	10	1	0.1	0	1	363	0.3	363	364	13.0	96.0
2022-10-19T16:50	10	0	0.1	0	1	364	0.3	363	364	13.0	96.1
2022-10-19T16:51	10	0	0.1	0	1	364	0.3	364	365	13.0	96.2
2022-10-19T16:52	10	0	0.1	0	1	364	0.2	364	365	13.0	96.3
2022-10-19T16:53	10	0	0.1	0	1	364	0.2	364	365	13.1	96.4
2022-10-19T16:54	10	0	0.1	0	1	364	0.2	363	365	13.1	96.4
2022-10-19T16:55	10	0	0.1	0	0	364	0.2	363	364	13.1	96.4
2022-10-19T16:56	10	0	0.1	0	1	364	0.2	363	364	13.1	96.3
2022-10-19T16:57	10	0	0.1	0	0	363	0.3	363	364	13.1	96.3
2022-10-19T16:58	10	0	0.1	0	1	363	0.3	363	364	13.1	96.3
2022-10-19T16:59	10	0	0.1	0	0	363	0.3	362	363	13.0	96.2
2022-10-19T17:00	10	0	0.1	0	0	362	0.2	362	363	13.0	96.3
2022-10-19T17:01	10	0	0.1	0	1	362	0.2	362	363	13.0	96.3
2022-10-19T17:02	10	0	0.1	0	0	362	0.3	362	363	13.0	96.3
2022-10-19T17:03	10	0	0.1	0	0	362	0.3	362	363	12.9	96.3
2022-10-19T17:04	10	0	0.1	0	0	362	0.3	361	362	12.9	96.3
2022-10-19T17:05	10	0	0.1	0	1	362	0.3	361	362	12.9	96.4
2022-10-19T17:06	10	0	0.1	0	1	361	0.2	361	362	12.9	96.5
2022-10-19T17:07	10	0	0.1	0	1	361	0.2	361	361	12.9	96.5
2022-10-19T17:08	10	0	0.1	0	1	361	0.3	360	361	13.0	96.5
2022-10-19T17:09	10	0	0.1	0	1	361	0.2	360	361	13.0	96.5
2022-10-19T17:10	10	1	0.1	0	1	361	0.3	360	361	13.0	96.4
2022-10-19T17:11	10	0	0.1	0	1	361	0.2	361	362	13.0	96.4
2022-10-19T17:12	10	0	0.1	0	1	361	0.2	361	361	12.9	96.3
2022-10-19T17:13	10	1	0.1	0	1	361	0.2	360	361	12.8	96.3
2022-10-19T17:14	10	0	0.1	0	1	360	0.2	360	361	12.8	96.3
2022-10-19T17:15	10	0	0.1	0	1	360	0.3	359	360	12.8	96.4
2022-10-19T17:16	10	0	0.1	0	1	360	0.2	359	360	12.8	96.5
2022-10-19T17:17	10	0	0.1	0	1	360	0.3	359	360	12.9	96.6
2022-10-19T17:18	10	0	0.1	0	1	360	0.3	359	360	13.0	96.8
2022-10-19T17:19	10	0	0.1	0	1	360	0.3	359	361	12.9	96.7
2022-10-19T17:20	10	0	0.1	0	1	360	0.2	359	360	12.8	96.7
2022-10-19T17:21	10	0	0.1	0	1	360	0.6	359	361	12.7	96.7
2022-10-19T17:22	10	0	0.1	0	1	360	0.3	359	361	12.6	96.7
2022-10-19T17:23	10	0	0.1	0	0	360	0.3	360	361	12.5	96.8
2022-10-19T17:24	10	0	0.1	0	0	360	0.2	360	361	12.4	96.9
2022-10-19T17:25	10	0	0.1	0	1	361	0.3	360	361	12.4	97.1
2022-10-19T17:26	10	0	0.1	0	1	360	0.2	360	361	12.5	97.4
2022-10-19T17:27	10	0	0.1	0	1	360	0.3	359	361	12.4	97.5
2022-10-19T17:28	10	0	0.1	0	1	360	0.3	359	360	12.3	97.5
2022-10-19T17:29	10	0	0.1	0	0	360	0.3	359	360	12.3	97.6
2022-10-19T17:30	10	0	0.1	0	0	360	0.3	359	361	12.3	97.7
2022-10-19T17:31	10	0	0.1	0	0	360	0.2	360	361	12.3	97.8
2022-10-19T17:32	10	0	0.1	0	0	360	0.3	360	361	12.3	97.9
2022-10-19T17:33	10	0	0.1	0	0	360	0.3	360	361	12.4	98.0
2022-10-19T17:34	10	0	0.1	0	0	361	0.3	361	362	12.4	98.1
2022-10-19T17:35	10	0	0.1	0	0	361	0.2	361	362	12.5	98.2
2022-10-19T17:36	10	0	0.1	0	0	361	0.2	361	362	12.6	98.3
2022-10-19T17:37	10	0	0.1	0	0	362	0.3	361	362	12.6	98.3
2022-10-19T17:38	10	0	0.1	0	0	361	0.2	361	362	12.6	98.4
2022-10-19T17:39	10	0	0.1	0	0	361	0.3	361	362	12.6	98.4
2022-10-19T17:40	10	0	0.1	0	0	361	0.2	361	362	12.6	98.3
2022-10-19T17:41	10	0	0.1	0	0	361	0.2	361	362	12.6	98.3
2022-10-19T17:42	10	0	0.1	0	0	361	0.2	361	362	12.6	98.4
2022-10-19T17:43	10	0	0.1	0	0	361	0.2	361	362	12.7	98.4
2022-10-19T17:44	10	0	0.1	0	0	362	0.2	361	362	12.7	98.4
2022-10-19T17:45	10	0	0.1	0	0	362	0.3	361	362	12.7	98.4
2022-10-19T17:46	10	0	0.1	0	0	362	0.2	361	362	12.7	98.4
2022-10-19T17:47	10	0	0.3	0	2	361	0.3	360	362	12.7	98.3
2022-10-19T17:48	10	0	0.1	0	0	361	0.3	360	361	12.6	98.3
2022-10-19T17:49	10	0	0.1	0	0	361	0.2	360	361	12.6	98.2
2022-10-19T17:50	10	0	0.1	0	1	360	0.2	360	360	12.5	98.2
2022-10-19T17:51	10	0	0.1	0	1	360	0.2	359	360	12.5	98.2
2022-10-19T17:52	10	0	0.1	0	1	359	0.3	358	360	12.4	98.1
2022-10-19T17:53	10	0	0.1	0	1	359	0.3	359	360	12.4	98.1
2022-10-19T17:54	10	0	0.1	0	1	359	0.2	359	360	12.4	98.1
2022-10-19T17:55	10	0	0.1	0	1	359	0.2	359	360	12.4	98.1
2022-10-19T17:56	10	0	0.1	0	1	359	0.2	358	360	12.5	98.2
2022-10-19T17:57	10	0	0.1	0	1	359	0.2	359	360	12.5	98.1
2022-10-19T17:58	10	0	0.1	0	1	359	0.3	359	360	12.5	98.1
2022-10-19T17:59	10	0	0.1	0	1	360	0.3	359	360	12.5	98.1
2022-10-19T18:00	10	0	0.1	0	0	360	0.3	359	361	12.5	98.1
2022-10-19T18:01	10	0	0.1	0	1	360	0.2	360	361	12.4	98.0
2022-10-19T18:02	10	0	0.1	0	0	360	0.2	360	361	12.4	98.0
2022-10-19T18:03	10	0	0.1	0	0	360	0.2	360	361	12.4	98.0
2022-10-19T18:04	10	0	0.1	0	1	360	0.3	359	360	12.4	98.0
2022-10-19T18:05	10	0	0.1	0	1	360	0.2	359	360	12.3	98.0
2022-10-19T18:06	10	0	0.1	0	1	359	0.2	359	360	12.3	97.9
2022-10-19T18:07	10	0	0.1	0	1	359	0.2	359	360	12.2	97.9
2022-10-19T18:08	10	0	0.1	0	1	360	0.2	359	360	12.3	98.0
2022-10-19T18:09	10	0	0.1	0	1	359	0.3	359	360	12.4	98.1
2022-10-19T18:10	10	0	0.1	0	0	359	0.2	359	360	12.4	98.2
2022-10-19T18:11	10	0	0.1	0	1	359	0.4	358	360	12.3	98.2
2022-10-19T18:12	10	0	0.1	0	1	359	0.3	358	360	11.9	98.0
2022-10-19T18:13	10	0	0.1	0	0	359	0.2	359	360	12.0	98.0
2022-10-19T18:14	10	0	0.1	0	0	359	0.2	358	360	11.9	98.0
2022-10-19T18:15	10	0	0.1	0	0	359	0.2	358	360	11.9	98.1
2022-10-19T18:16	10	0	0.0	0	0	360	0.3	359	360	12.0	98.2
2022-10-19T18:17	10	0	0.1	0	0	360	0.2	359	360	12.0	98.3
2022-10-19T18:18	10	0	0.1	0	0	360	0.2	359	360	12.0	98.3
2022-10-19T18:19	10	0	0.1	0	0	360	0.2	359	360	12.0	98.3
2022-10-19T18:20	10	0	0.1	0	0	360	0.2	360	360	11.9	98.3
2022-10-19T18:21	10	0	0.1	0	0	360	0.2	360	360	11.8	98.2
2022-10-19T18:22	10	0	0.1	0	0	360	0.2	359	360	11.7	98.2
2022-10-19T18:23	10	0	0.1	0	0	359	0.2	359	360	11.7	98.2
2022-10-19T18:24	10	0	0.1	0	0	359	0.2	359	360	11.7	98.3
2022-10-19T18:25	10	0	0.1	0	1	359	0.2	359	360	11.7	98.3
2022-10-19T18:26	10	0	0.0	0	0	359	0.2	359	360	11.7	98.4
2022-10-19T18:27	10	0	0.0	0	0	359	0.2	359	360	11.8	98.5
2022-10-19T18:28	10	0	0.1	0	0	359	0.2	359	360	11.8	98.5
2022-10-19T18:29	10	0	0.1	0	0	359	0.2	359	360	11.9	98.6
2022-10-19T18:30	10	0	0.1	0	0	359	0.2	359	360	11.9	98.7
2022-10-19T18:31	10	0	0.1	0	0	360	0.2	359	360	11.8	98.7
2022-10-19T18:32	10	0	0.1	0	0	360	0.3	359	361	11.8	98.7
2022-10-19T18:33	10	0	0.1	0	0	360	0.3	359	361	11.9	98.7
2022-10-19T18:34	10	0	0.1	0	0	361	0.2	360	361	11.8	98.7
2022-10-19T18:35	10	0	0.1	0	0	361	0.3	360	361	11.6	98.6
2022-10-19T18:36	10	0	0.1	0	0	361	0.2	360	361	11.6	98.6
2022-10-19T18:37	10	0	0.1	-1	0	361	0.3	360	361	11.5	98.6
2022-10-19T18:38	10	-1	0.1	-1	0	361	0.2	361	361	11.5	98.6
2022-10-19T18:39	10	-1	0.1	-1	0	361	0.3	361	362	11.6	98.7
2022-10-19T18:40	10	-1	0.1	-1	0	361	0.2	361	362	11.8	98.8
2022-10-19T18:41	10	0	0.1	-1	0	361	0.2	360	361	11.8	98.9
2022-10-19T18:42	10	0	0.1	-1	0	361	0.3	360	361	11.7	98.9
2022-10-19T18:43	10	0	0.1	-1	0	361	0.3	360	362	11.7	98.9
2022-10-19T18:44	10	0	0.1	-1	0	361	0.4	360	362	11.8	98.9
2022-10-19T18:45	10	0	0.1	0	0	362	0.3	361	362	11.9	99.0
2022-10-19T18:46	10	0	0.1	0	0	362	0.3	362	363	11.9	99.0
2022-10-19T18:47	10	0	0.2	0	1	364	0.4	363	364	12.0	99.1
2022-10-19T18:48	10	0	0.1	0	0	365	0.3	364	365	12.0	99.1
2022-10-19T18:49	10	0	0.1	0	0	366	0.4	365	366	11.9	99.1
2022-10-19T18:50	10	0	0.1	0	0	366	0.3	366	367	11.9	99.1
2022-10-19T18:51	10	0	0.1	0	1	367	0.3	367	368	11.8	99.1
2022-10-19T18:52	10	0	0.2	0	1	368	0.2	367	368	11.8	99.1
2022-10-19T18:53	10	0	0.1	0	1	369	0.4	368	369	11.8	99.0
2022-10-19T18:54	10	0	0.1	0	1	369	0.3	368	370	11.8	99.1
2022-10-19T18:55	10	0	0.2	0	1	369	0.3	369	370	11.9	99.1
2022-10-19T18:56	10	1	0.2	0	1	370	0.2	370	371	12.1	99.2
2022-10-19T18:57	10	1	0.2	0	1	370	0.2	370	371	12.1	99.2
2022-10-19T18:58	10	1	0.2	0	1	371	0.3	370	371	12.1	99.2
2022-10-19T18:59	10	1	0.2	0	1	371	0.2	371	372	12.1	99.2
2022-10-19T19:00	10	1	0.2	0	1	371	0.2	371	372	12.0	99.1
2022-10-19T19:01	10	1	0.1	0	1	371	0.2	371	372	11.9	99.1
2022-10-19T19:02	10	1	0.1	0	1	371	0.2	371	372	12.0	99.1
2022-10-19T19:03	10	1	0.1	0	1	371	0.3	371	372	12.1	99.1
2022-10-19T19:04	10	1	0.1	0	1	371	0.2	370	372	12.2	99.2
2022-10-19T19:05	10	1	0.1	0	1	371	0.3	370	372	12.3	99.2
2022-10-19T19:06	10	1	0.1	0	1	370	0.4	369	371	12.2	99.2
2022-10-19T19:07	10	1	0.1	0	1	369	0.4	368	370	12.2	99.2
2022-10-19T19:08	10	1	0.1	0	1	368	0.4	367	369	12.3	99.2
2022-10-19T19:09	10	0	0.1	0	1	367	0.5	366	368	12.3	99.2
2022-10-19T19:10	10	0	0.1	0	1	366	0.5	365	367	12.4	99.2
2022-10-19T19:11	10	0	0.2	0	1	365	0.4	364	366	12.4	99.2
2022-10-19T19:12	10	0	0.1	0	1	364	0.4	364	365	12.3	99.1
2022-10-19T19:13	10	0	0.1	0	1	364	0.3	364	365	12.4	99.1
2022-10-19T19:14	10	0	0.1	0	1	365	0.2	364	365	12.4	99.1
2022-10-19T19:15	10	0	0.1	0	0	364	0.3	364	365	12.3	99.0
2022-10-19T19:16	10	0	0.1	0	0	364	0.3	363	364	12.4	99.0
2022-10-19T19:17	10	0	0.1	0	0	365	0.3	364	365	12.6	99.0
2022-10-19T19:18	10	0	0.1	-1	0	366	0.5	365	367	12.6	99.0
2022-10-19T19:19	10	0	0.1	0	0	367	0.4	367	368	12.7	99.0
2022-10-19T19:20	10	0	0.2	0	1	368	0.4	368	369	12.6	98.9
2022-10-19T19:21	10	0	0.2	0	1	369	0.3	368	370	12.3	98.7
2022-10-19T19:22	10	0	0.1	0	1	370	0.4	369	371	12.1	98.5
2022-10-19T19:23	10	0	0.1	0	1	371	0.2	370	371	12.1	98.5
2022-10-19T19:24	10	0	0.1	0	1	372	0.4	371	372	12.1	98.4
2022-10-19T19:25	10	0	0.1	0	1	372	0.4	371	372	11.9	98.4
2022-10-19T19:26	10	0	0.1	0	1	372	0.2	372	372	12.0	98.4
2022-10-19T19:27	10	0	0.1	0	0	372	0.2	372	373	11.8	98.3
2022-10-19T19:28	10	0	0.1	0	1	373	0.2	372	373	11.8	98.2
2022-10-19T19:29	10	0	0.1	0	0	373	0.2	372	374	11.8	98.2
2022-10-19T19:30	10	0	0.1	0	0	373	0.2	373	374	11.9	98.3
2022-10-19T19:31	10	0	0.1	0	0	374	0.2	373	374	11.9	98.4
2022-10-19T19:32	10	0	0.1	0	1	374	0.3	374	375	12.0	98.4
2022-10-19T19:33	10	0	0.1	0	1	374	0.3	374	375	12.2	98.6
2022-10-19T19:34	10	1	0.1	0	1	374	0.2	374	375	12.3	98.7
2022-10-19T19:35	10	1	0.1	0	1	374	0.3	373	375	12.2	98.7
2022-10-19T19:36	10	1	0.1	0	1	374	0.2	373	374	12.2	98.6
2022-10-19T19:37	10	1	0.1	1	1	374	0.3	373	374	12.2	98.6
2022-10-19T19:38	10	1	0.1	1	1	374	0.2	373	374	12.2	98.6
2022-10-19T19:39	10	1	0.1	1	1	374	0.2	373	374	12.2	98.6
2022-10-19T19:40	10	1	0.1	1	1	374	0.3	373	374	12.1	98.5
2022-10-19T19:41	10	1	0.2	1	1	374	0.2	373	375	12.1	98.5
2022-10-19T19:42	10	1	0.1	1	1	374	0.3	373	375	12.1	98.5
2022-10-19T19:43	10	1	0.2	1	2	374	0.3	374	375	12.1	98.5
2022-10-19T19:44	10	1	0.1	1	1	374	0.2	374	374	12.1	98.5
2022-10-19T19:45	10	1	0.1	1	1	374	0.2	373	374	12.0	98.4
2022-10-19T19:46	10	1	0.1	1	1	374	0.3	373	374	12.1	98.4
2022-10-19T19:47	10	1	0.1	1	1	374	0.2	373	374	12.2	98.5
2022-10-19T19:48	10	1	0.1	1	1	374	0.2	373	374	12.1	98.3
2022-10-19T19:49	10	1	0.1	1	1	374	0.2	373	374	12.1	98.3
2022-10-19T19:50	10	1	0.1	1	1	374	0.2	373	374	12.1	98.3
2022-10-19T19:51	10	1	0.1	0	1	374	0.2	373	374	12.2	98.3
2022-10-19T19:52	10	1	0.1	0	1	374	0.2	374	375	12.2	98.3
2022-10-19T19:53	10	1	0.1	1	1	374	0.2	373	374	12.2	98.3
2022-10-19T19:54	10	1	0.1	0	1	374	0.3	373	375	12.2	98.2
2022-10-19T19:55	10	1	0.1	0	1	374	0.2	374	375	12.2	98.1
2022-10-19T19:56	10	1	0.1	0	1	374	0.2	374	374	12.2	98.1
2022-10-19T19:57	10	1	0.1	1	1	374	0.3	373	374	12.2	98.0
2022-10-19T19:58	10	1	0.1	1	1	374	0.2	373	374	12.2	98.0
2022-10-19T19:59	10	1	0.1	1	1	373	0.2	373	374	12.2	98.1
2022-10-19T20:00	10	1	0.1	1	1	374	0.2	373	374	12.3	98.1
2022-10-19T20:01	10	1	0.1	1	1	373	0.2	373	374	12.2	98.1
2022-10-19T20:02	10	1	0.1	0	1	373	0.3	373	374	12.2	98.1
2022-10-19T20:03	10	1	0.1	0	1	373	0.2	372	373	12.2	98.0
2022-10-19T20:04	10	1	0.1	0	1	373	0.3	373	374	12.2	98.0
2022-10-19T20:05	10	0	0.1	0	1	373	0.2	373	374	12.3	98.1
2022-10-19T20:06	10	1	0.1	0	1	374	0.2	373	374	12.4	98.2
2022-10-19T20:07	10	1	0.1	0	1	374	0.2	373	374	12.4	98.2
2022-10-19T20:08	10	1	0.1	0	1	374	0.2	373	374	12.5	98.3
2022-10-19T20:09	10	1	0.1	0	1	374	0.3	373	375	12.5	98.3
2022-10-19T20:10	10	1	0.1	0	1	375	0.2	374	375	12.7	98.5
2022-10-19T20:11	10	1	0.1	0	1	375	0.2	375	376	12.8	98.5
2022-10-19T20:12	10	1	0.1	0	1	376	0.3	375	376	12.9	98.5
2022-10-19T20:13	10	1	0.1	1	1	376	0.2	376	376	12.9	98.5
2022-10-19T20:14	10	1	0.2	1	1	376	0.2	376	377	12.7	98.4
2022-10-19T20:15	10	1	0.2	1	1	377	0.2	376	377	12.8	98.3
2022-10-19T20:16	10	1	0.2	1	1	377	0.2	376	377	12.8	98.3
2022-10-19T20:17	10	1	0.1	1	1	377	0.3	376	378	12.8	98.3
2022-10-19T20:18	10	1	0.1	1	1	377	0.5	376	377	12.7	98.2
2022-10-19T20:19	10	1	0.1	1	1	377	0.3	376	378	12.6	98.0
2022-10-19T20:20	10	1	0.2	1	2	377	0.3	376	378	12.9	98.2
2022-10-19T20:21	10	1	0.1	1	1	377	0.3	376	378	12.9	98.3
2022-10-19T20:22	10	1	0.1	1	1	377	0.4	376	378	12.5	97.8
2022-10-19T20:23	10	1	0.2	0	1	377	0.3	376	377	12.5	97.7
2022-10-19T20:24	10	1	0.1	0	1	377	0.3	376	378	12.6	97.8
2022-10-19T20:25	10	1	0.1	0	1	377	0.3	376	378	12.6	97.8
2022-10-19T20:26	10	1	0.1	0	1	377	0.3	376	377	12.5	97.7
2022-10-19T20:27	10	1	0.1	0	1	377	0.5	375	377	12.4	97.7
2022-10-19T20:28	10	1	0.1	0	1	377	0.5	375	377	12.4	97.6
2022-10-19T20:29	10	1	0.1	0	1	377	0.4	376	377	12.3	97.6
2022-10-19T20:30	10	1	0.1	0	1	377	0.3	376	377	12.4	97.8
2022-10-19T20:31	10	1	0.1	0	1	376	0.4	376	377	12.4	97.8
2022-10-19T20:32	10	1	0.1	0	1	376	0.2	376	377	12.3	97.8
2022-10-19T20:33	10	1	0.1	0	1	376	0.2	376	377	12.3	97.9
2022-10-19T20:34	10	1	0.1	1	1	376	0.2	376	377	12.3	98.0
2022-10-19T20:35	10	1	0.1	1	1	376	0.3	376	377	12.4	98.1
2022-10-19T20:36	10	1	0.2	1	1	376	0.3	376	377	12.5	98.2
2022-10-19T20:37	10	1	0.1	1	1	376	0.3	375	377	12.5	98.2
2022-10-19T20:38	10	1	0.2	1	2	376	0.2	376	377	12.5	98.3
2022-10-19T20:39	10	1	0.1	1	1	376	0.2	376	377	12.5	98.3
2022-10-19T20:40	10	1	0.1	1	1	376	0.2	375	376	12.5	98.2
2022-10-19T20:41	10	1	0.1	1	1	376	0.3	375	376	12.4	98.2
2022-10-19T20:42	10	1	0.1	1	1	376	0.3	375	376	12.3	98.1
2022-10-19T20:43	10	1	0.1	0	1	375	0.3	374	376	12.4	98.2
2022-10-19T20:44	10	1	0.1	0	1	375	0.2	375	376	12.4	98.3
2022-10-19T20:45	10	1	0.1	0	1	376	0.2	375	376	12.5	98.3
2022-10-19T20:46	10	1	0.1	0	1	375	0.3	375	376	12.5	98.4
2022-10-19T20:47	10	1	0.1	0	1	375	0.2	375	376	12.6	98.5
2022-10-19T20:48	10	0	0.2	0	1	375	0.2	375	376	12.6	98.5
2022-10-19T20:49	10	0	0.2	0	1	375	0.3	374	376	12.6	98.5
2022-10-19T20:50	10	0	0.2	0	1	375	0.3	374	376	12.6	98.5
2022-10-19T20:51	10	0	0.1	0	0	375	0.2	374	375	12.7	98.5
2022-10-19T20:52	10	0	0.1	0	1	375	0.2	374	375	12.7	98.4
2022-10-19T20:53	10	0	0.1	0	1	375	0.3	374	376	12.9	98.5
2022-10-19T20:54	10	0	0.1	0	1	375	0.2	374	376	13.0	98.5
2022-10-19T20:55	10	0	0.1	0	1	375	0.2	375	376	13.1	98.4
2022-10-19T20:56	10	0	0.1	0	1	376	0.2	375	376	13.1	98.3
2022-10-19T20:57	10	0	0.1	0	1	375	0.2	375	376	13.0	98.2
2022-10-19T20:58	10	0	0.1	0	1	376	0.3	375	377	13.1	98.1
2022-10-19T20:59	10	0	0.1	0	1	376	0.3	375	377	13.0	97.9
2022-10-19T21:00	10	0	0.1	0	1	376	0.2	376	377	13.0	97.9
2022-10-19T21:01	10	0	0.1	0	1	376	0.3	376	377	13.0	97.9
2022-10-19T21:02	10	0	0.1	0	1	376	0.3	376	377	12.9	97.8
2022-10-19T21:03	10	0	0.2	0	1	376	0.3	375	377	12.8	97.7
2022-10-19T21:04	10	0	0.2	0	0	377	0.2	376	377	12.9	97.8
2022-10-19T21:05	10	0	0.1	0	0	377	0.2	377	378	12.9	97.8
2022-10-19T21:06	10	0	0.1	0	0	377	0.4	376	378	12.9	97.8
2022-10-19T21:07	10	0	0.1	0	0	377	0.2	377	378	12.9	97.7
2022-10-19T21:08	10	0	0.1	0	0	377	0.2	377	378	12.9	97.7
2022-10-19T21:09	10	0	0.1	0	0	378	0.2	377	378	12.9	97.7
2022-10-19T21:10	10	0	0.1	0	0	378	0.3	377	378	12.9	97.7
2022-10-19T21:11	10	0	0.1	0	0	378	0.4	377	379	12.9	97.7
2022-10-19T21:12	10	0	0.1	0	1	378	0.3	377	379	12.9	97.7
2022-10-19T21:13	10	0	0.1	0	1	378	0.2	378	379	12.9	97.6
2022-10-19T21:14	10	1	0.1	0	1	378	0.2	378	379	13.0	97.7
2022-10-19T21:15	10	1	0.1	0	1	378	0.2	377	378	12.9	97.6
2022-10-19T21:16	10	1	0.1	0	1	378	0.2	377	378	12.9	97.6
2022-10-19T21:17	10	1	0.1	0	1	378	0.3	377	378	12.8	97.5
2022-10-19T21:18	10	1	0.1	0	1	378	0.2	377	378	12.8	97.6
2022-10-19T21:19	10	1	0.1	0	1	378	0.3	377	378	12.8	97.7
2022-10-19T21:20	10	1	0.1	0	1	378	0.2	377	378	12.9	97.9
2022-10-19T21:21	10	1	0.1	0	1	378	0.2	377	378	13.0	98.0
2022-10-19T21:22	10	1	0.1	0	1	378	0.2	378	379	13.1	97.9
2022-10-19T21:23	10	1	0.1	0	1	378	0.2	377	378	12.9	97.8
2022-10-19T21:24	10	1	0.1	0	1	378	0.2	378	378	13.0	97.8
2022-10-19T21:25	10	1	0.1	0	1	378	0.3	377	378	13.0	97.8
2022-10-19T21:26	10	1	0.1	0	1	378	0.2	377	378	13.1	97.8
2022-10-19T21:27	10	1	0.1	1	1	378	0.3	377	379	13.1	97.8
2022-10-19T21:28	10	1	0.1	1	1	378	0.3	378	379	13.1	97.8
2022-10-19T21:29	10	1	0.1	1	1	378	0.2	378	379	13.1	97.7
2022-10-19T21:30	10	1	0.1	1	1	378	0.2	378	379	13.1	97.7
2022-10-19T21:31	10	1	0.1	1	1	379	0.2	378	379	13.1	97.7
2022-10-19T21:32	10	1	0.1	1	1	379	0.3	378	379	13.2	97.7
2022-10-19T21:33	10	1	0.1	1	1	379	0.3	378	380	13.3	97.6
2022-10-19T21:34	10	1	0.1	1	1	379	0.2	378	380	13.4	97.5
2022-10-19T21:35	10	1	0.1	0	1	379	0.2	379	380	13.4	97.3
2022-10-19T21:36	10	0	0.1	0	1	379	0.2	379	380	13.3	97.1
2022-10-19T21:37	10	0	0.1	0	1	379	0.2	379	380	13.3	96.9
2022-10-19T21:38	10	0	0.1	0	0	379	0.2	378	379	13.2	96.8
2022-10-19T21:39	10	0	0.1	0	0	379	0.2	379	379	13.2	96.8
2022-10-19T21:40	10	0	0.1	0	0	379	0.2	379	380	13.1	96.9
2022-10-19T21:41	10	0	0.1	0	0	379	0.2	379	380	13.2	97.0
2022-10-19T21:42	10	0	0.1	0	0	379	0.2	379	380	13.2	97.0
2022-10-19T21:43	10	0	0.1	0	1	380	0.2	379	380	13.1	97.0
2022-10-19T21:44	10	0	0.1	0	1	379	0.5	378	380	13.1	97.0
2022-10-19T21:45	10	1	0.1	0	1	379	0.3	378	380	13.0	96.9
2022-10-19T21:46	10	1	0.1	0	1	379	0.3	378	379	13.0	97.0
2022-10-19T21:47	10	1	0.1	0	1	379	0.4	378	380	13.0	97.0
2022-10-19T21:48	10	1	0.1	0	1	379	0.2	379	380	13.0	97.1
2022-10-19T21:49	10	1	0.1	1	1	379	0.2	379	380	13.1	97.2
2022-10-19T21:50	10	1	0.0	1	1	379	0.2	379	380	13.1	97.3
2022-10-19T21:51	10	1	0.1	1	1	380	0.3	379	380	13.2	97.3
2022-10-19T21:52	10	1	0.1	1	1	380	0.2	379	380	13.3	97.3
2022-10-19T21:53	10	1	0.1	1	1	380	0.2	379	380	13.4	97.3
2022-10-19T21:54	10	1	0.1	1	1	380	0.3	379	381	13.4	97.2
2022-10-19T21:55	10	1	0.1	1	1	380	0.2	379	380	13.4	96.9
2022-10-19T21:56	10	1	0.1	1	1	380	0.3	379	381	13.4	96.7
2022-10-19T21:57	10	1	0.1	1	1	380	0.2	379	380	13.4	96.5
2022-10-19T21:58	10	1	0.1	1	1	380	0.3	379	380	13.4	96.4
2022-10-19T21:59	10	1	0.1	0	1	380	0.2	379	380	13.4	96.3
2022-10-19T22:00	10	0	0.1	0	1	380	0.2	379	380	13.5	96.3
2022-10-19T22:01	10	0	0.1	0	1	379	0.3	379	380	13.5	96.2
2022-10-19T22:02	10	0	0.1	0	0	380	0.2	379	380	13.5	96.1
2022-10-19T22:03	10	0	0.1	0	0	380	0.2	379	380	13.7	96.1
2022-10-19T22:04	10	0	0.1	0	0	380	0.2	379	380	13.6	95.8
2022-10-19T22:05	10	0	0.1	0	0	380	0.2	379	380	13.6	95.6
2022-10-19T22:06	10	0	0.1	0	0	379	0.3	379	380	13.5	95.5
2022-10-19T22:07	10	0	0.1	0	0	379	0.3	379	380	13.3	95.6
2022-10-19T22:08	10	0	0.0	0	0	379	0.2	379	380	13.1	95.9
2022-10-19T22:09	10	0	0.1	0	0	379	0.2	379	380	13.1	96.3
2022-10-19T22:10	10	0	0.1	0	0	379	0.2	379	380	13.1	96.6
2022-10-19T22:11	10	0	0.1	0	0	379	0.2	379	380	13.1	96.8
2022-10-19T22:12	10	0	0.1	0	0	379	0.2	379	380	13.1	97.0
2022-10-19T22:13	10	0	0.1	0	1	379	0.2	379	380	13.1	97.2
2022-10-19T22:14	10	1	0.1	0	1	380	0.3	379	380	13.2	97.3
2022-10-19T22:15	10	1	0.1	0	1	379	0.2	379	380	13.2	97.4
2022-10-19T22:16	10	1	0.1	1	1	379	0.2	379	380	13.1	97.4
2022-10-19T22:17	10	1	0.1	1	1	379	0.2	379	380	13.2	97.5
2022-10-19T22:18	10	1	0.1	1	1	380	0.2	379	380	13.3	97.6
2022-10-19T22:19	10	1	0.1	1	1	380	0.2	379	380	13.3	97.6
2022-10-19T22:20	10	1	0.1	1	1	380	0.2	379	380	13.4	97.6
2022-10-19T22:21	10	1	0.1	1	1	380	0.3	379	380	13.4	97.5
2022-10-19T22:22	10	1	0.1	1	1	380	0.3	379	381	13.5	97.4
2022-10-19T22:23	10	1	0.1	1	1	380	0.2	380	380	13.6	97.1
2022-10-19T22:24	10	1	0.1	1	1	380	0.2	380	381	13.6	96.9
2022-10-19T22:25	10	1	0.1	1	1	380	0.2	380	381	13.6	96.5
2022-10-19T22:26	10	1	0.1	1	1	380	0.3	379	381	13.6	96.3
2022-10-19T22:27	10	1	0.1	0	1	380	0.2	380	381	13.6	96.0
2022-10-19T22:28	10	1	0.1	0	1	380	0.2	380	381	13.6	95.9
2022-10-19T22:29	10	1	0.1	1	1	380	0.2	380	381	13.6	95.8
2022-10-19T22:30	10	1	0.1	1	1	380	0.2	380	381	13.6	95.7
2022-10-19T22:31	10	1	0.1	1	1	380	0.3	380	381	13.6	95.6
2022-10-19T22:32	10	1	0.1	1	1	380	0.2	380	381	13.5	95.6
2022-10-19T22:33	10	1	0.1	1	1	380	0.3	379	380	13.5	95.6
2022-10-19T22:34	10	1	0.0	1	1	380	0.2	379	380	13.3	95.7
2022-10-19T22:35	10	1	0.1	1	1	380	0.2	380	381	13.3	96.2
2022-10-19T22:36	10	1	0.1	1	1	380	0.2	380	381	13.3	96.5
2022-10-19T22:37	10	1	0.1	1	1	380	0.2	380	381	13.3	96.7
2022-10-19T22:38	10	1	0.1	1	2	380	0.3	380	381	13.3	96.8
2022-10-19T22:39	10	1	0.1	1	1	380	0.2	379	381	13.4	96.9
2022-10-19T22:40	10	1	0.1	1	1	380	0.2	380	381	13.4	97.0
2022-10-19T22:41	10	1	0.1	1	1	380	0.3	380	381	13.5	96.9
2022-10-19T22:42	10	1	0.1	1	1	380	0.2	380	381	13.5	96.9
2022-10-19T22:43	10	1	0.1	1	1	380	0.2	380	381	13.4	96.9
2022-10-19T22:44	10	1	0.1	1	1	380	0.3	380	381	13.4	96.9
2022-10-19T22:45	10	1	0.1	1	1	380	0.2	380	381	13.5	96.9
2022-10-19T22:46	10	1	0.1	1	1	380	0.2	380	381	13.5	96.9
2022-10-19T22:47	10	1	0.1	1	1	381	0.2	380	381	13.4	96.8
2022-10-19T22:48	10	1	0.1	1	1	381	0.3	380	381	13.5	96.9
2022-10-19T22:49	10	1	0.1	1	1	380	0.2	380	381	13.5	96.9
2022-10-19T22:50	10	1	0.1	1	1	380	0.2	380	381	13.7	96.8
2022-10-19T22:51	10	1	0.1	1	1	381	0.2	380	381	13.8	96.5
2022-10-19T22:52	10	1	0.1	1	1	380	0.2	380	381	13.8	96.0
2022-10-19T22:53	10	1	0.1	1	1	380	0.2	380	381	13.8	95.6
2022-10-19T22:54	10	1	0.1	1	1	381	0.2	380	381	13.8	95.2
2022-10-19T22:55	10	1	0.1	1	1	380	0.2	380	381	13.5	95.0
2022-10-19T22:56	10	1	0.1	1	1	380	0.3	379	381	13.4	95.5
2022-10-19T22:57	10	1	0.1	1	1	381	0.2	380	381	13.4	96.0
2022-10-19T22:58	10	1	0.1	1	1	380	0.2	380	381	13.5	96.2
2022-10-19T22:59	10	1	0.1	1	1	381	0.2	380	381	13.6	96.3
2022-10-19T23:00	10	1	0.1	1	1	380	0.2	380	381	13.6	96.3
2022-10-19T23:01	10	1	0.1	1	1	381	0.2	380	381	13.8	96.0
2022-10-19T23:02	10	1	0.1	1	1	380	0.2	380	381	13.8	95.5
2022-10-19T23:03	10	1	0.1	1	1	381	0.3	380	381	14.0	94.7
2022-10-19T23:04	10	1	0.1	1	1	381	0.3	380	381	14.0	93.4
2022-10-19T23:05	10	1	0.1	1	1	381	0.2	380	381	13.7	93.6
2022-10-19T23:06	10	1	0.1	1	1	380	0.2	380	381	13.6	94.3
2022-10-19T23:07	10	1	0.1	1	1	380	0.3	380	381	13.5	95.0
2022-10-19T23:08	10	1	0.1	1	1	380	0.2	380	381	13.6	95.5
2022-10-19T23:09	10	1	0.1	1	1	381	0.2	380	381	13.7	95.5
2022-10-19T23:10	10	1	0.1	0	1	381	0.2	380	381	13.7	95.2
2022-10-19T23:11	10	1	0.1	0	1	381	0.2	380	381	13.7	95.1
2022-10-19T23:12	10	1	0.1	1	1	381	0.2	380	381	13.7	95.1
2022-10-19T23:13	10	1	0.1	1	1	381	0.3	380	381	13.7	95.0
2022-10-19T23:14	10	1	0.1	1	1	381	0.2	380	381	13.6	95.0
2022-10-19T23:15	10	1	0.1	1	1	381	0.2	380	381	13.6	95.1
2022-10-19T23:16	10	1	0.1	1	1	381	0.2	380	381	13.6	95.2
2022-10-19T23:17	10	1	0.1	1	1	381	0.3	380	382	13.6	95.4
2022-10-19T23:18	10	1	0.1	1	1	381	0.3	380	381	13.5	95.5
2022-10-19T23:19	10	1	0.1	1	1	381	0.3	380	381	13.5	95.6
2022-10-19T23:20	10	1	0.1	1	1	381	0.3	380	381	13.5	95.8
2022-10-19T23:21	10	1	0.1	1	1	381	0.3	380	381	13.5	96.0
2022-10-19T23:22	10	1	0.1	1	1	380	0.2	380	381	13.5	96.1
2022-10-19T23:23	10	1	0.1	1	1	381	0.3	380	381	13.5	96.1
2022-10-19T23:24	10	1	0.1	1	1	381	0.2	380	381	13.4	96.2
2022-10-19T23:25	10	1	0.1	1	1	381	0.2	380	381	13.5	96.3
2022-10-19T23:26	10	1	0.1	1	1	381	0.2	380	381	13.5	96.3
2022-10-19T23:27	10	1	0.1	1	1	381	0.2	381	381	13.5	96.3
2022-10-19T23:28	10	1	0.1	1	1	381	0.2	381	382	13.5	96.3
2022-10-19T23:29	10	1	0.1	1	1	381	0.2	381	382	13.5	96.3
2022-10-19T23:30	10	1	0.1	1	1	381	0.2	381	382	13.5	96.2
2022-10-19T23:31	10	1	0.1	1	1	381	0.2	381	382	13.5	96.2
2022-10-19T23:32	10	1	0.1	1	1	381	0.2	381	382	13.5	96.2
2022-10-19T23:33	10	1	0.1	1	1	381	0.2	381	382	13.5	96.2
2022-10-19T23:34	10	1	0.1	1	1	382	0.3	381	382	13.6	96.1
2022-10-19T23:35	10	1	0.1	1	1	381	0.2	381	382	13.6	95.9
2022-10-19T23:36	10	1	0.1	0	1	382	0.2	381	382	13.6	95.7
2022-10-19T23:37	10	1	0.1	1	1	382	0.2	381	382	13.7	95.4
2022-10-19T23:38	10	1	0.1	1	1	381	0.2	381	382	13.7	95.1
2022-10-19T23:39	10	1	0.1	1	1	382	0.2	381	382	13.6	94.9
2022-10-19T23:40	10	1	0.1	1	1	381	0.2	381	382	13.6	94.9
2022-10-19T23:41	10	1	0.1	1	1	381	0.2	381	382	13.6	94.9
2022-10-19T23:42	10	1	0.1	1	1	381	0.2	381	382	13.6	95.1
2022-10-19T23:43	10	1	0.1	1	1	381	0.2	381	382	13.5	95.3
2022-10-19T23:44	10	1	0.1	1	1	381	0.2	381	382	13.5	95.4
2022-10-19T23:45	10	1	0.1	1	1	382	0.2	381	382	13.5	95.6
2022-10-19T23:46	10	1	0.1	1	1	381	0.2	381	382	13.4	95.8
2022-10-19T23:47	10	1	0.1	1	1	382	0.2	381	382	13.4	96.0
2022-10-19T23:48	10	1	0.1	1	1	381	0.2	381	382	13.4	96.1
2022-10-19T23:49	10	1	0.1	1	1	381	0.2	381	382	13.4	96.2
2022-10-19T23:50	10	1	0.1	0	1	381	0.3	381	382	13.4	96.2
2022-10-19T23:51	10	1	0.1	1	1	381	0.3	381	382	13.4	96.2
2022-10-19T23:52	10	1	0.1	1	1	381	0.2	381	382	13.4	96.1
2022-10-19T23:53	10	1	0.1	0	1	381	0.2	381	382	13.4	96.1
2022-10-19T23:54	10	1	0.1	0	1	381	0.3	381	382	13.4	96.2
2022-10-19T23:55	10	1	0.1	0	1	381	0.2	381	382	13.5	96.2
2022-10-19T23:56	10	1	0.1	0	1	382	0.2	381	382	13.6	96.1
2022-10-19T23:57	10	1	0.1	1	1	382	0.3	381	382	13.6	95.9
2022-10-19T23:58	10	1	0.1	1	1	382	0.3	381	382	13.5	95.8
2022-10-19T23:59	10	1	0.1	1	1	382	0.2	381	382	13.5	95.8
2022-10-20T00:00	10	1	0.1	1	1	382	0.2	381	382	13.5	95.7
2022-10-20T00:01	10	1	0.1	1	1	382	0.2	381	382	13.6	95.7
2022-10-20T00:02	10	1	0.1	1	1	381	0.2	381	382	13.6	95.6
2022-10-20T00:03	10	1	0.1	1	1	382	0.2	381	382	13.5	95.6
2022-10-20T00:04	10	1	0.1	1	1	381	0.2	381	382	13.5	95.6
2022-10-20T00:05	10	1	0.1	1	1	381	0.2	381	382	13.5	95.8
2022-10-20T00:06	10	1	0.1	1	1	381	0.3	380	382	13.5	95.8
2022-10-20T00:07	10	1	0.1	1	1	382	0.3	381	382	13.6	95.8
2022-10-20T00:08	10	1	0.1	1	1	381	0.3	381	382	13.6	95.6
2022-10-20T00:09	10	1	0.1	1	1	381	0.2	381	382	13.6	95.6
2022-10-20T00:10	10	1	0.1	1	1	382	0.2	381	382	13.6	95.6
2022-10-20T00:11	10	1	0.1	1	1	381	0.3	381	382	13.6	95.6
2022-10-20T00:12	10	1	0.1	1	1	382	0.2	381	382	13.7	95.4
2022-10-20T00:13	10	1	0.1	1	1	381	0.3	381	382	13.6	95.2
2022-10-20T00:14	10	1	0.1	1	1	382	0.2	381	382	13.6	95.1
2022-10-20T00:15	10	1	0.1	1	1	382	0.3	381	382	13.6	95.3
2022-10-20T00:16	10	1	0.1	1	1	382	0.3	381	382	13.6	95.2
2022-10-20T00:17	10	1	0.1	1	1	382	0.2	381	382	13.7	95.2
2022-10-20T00:18	10	1	0.1	1	1	382	0.2	381	382	13.7	95.0
2022-10-20T00:19	10	1	0.1	1	1	382	0.2	381	382	13.8	94.8
2022-10-20T00:20	10	1	0.1	1	1	382	0.2	382	383	13.8	94.6
2022-10-20T00:21	10	1	0.1	1	1	382	0.2	381	382	13.8	94.5
2022-10-20T00:22	10	1	0.1	1	2	382	0.2	382	382	13.8	94.4
2022-10-20T00:23	10	1	0.1	1	2	382	0.2	382	383	13.8	94.3
2022-10-20T00:24	10	1	0.1	1	2	382	0.2	382	383	13.8	94.2
2022-10-20T00:25	10	1	0.1	1	2	382	0.2	382	383	13.8	94.2
2022-10-20T00:26	10	1	0.1	1	2	383	0.2	382	383	13.9	94.1
2022-10-20T00:27	10	1	0.1	1	2	382	0.3	382	383	13.9	93.9
2022-10-20T00:28	10	1	0.1	1	2	382	0.3	382	383	13.9	93.7
2022-10-20T00:29	10	1	0.1	1	2	382	0.2	382	383	13.8	93.6
2022-10-20T00:30	10	1	0.1	1	1	382	0.5	381	383	13.6	94.1
2022-10-20T00:31	10	1	0.1	1	1	382	0.5	380	382	13.4	94.3
2022-10-20T00:32	10	1	0.1	1	1	382	0.3	381	382	13.4	94.9
2022-10-20T00:33	10	1	0.1	1	1	382	0.2	381	382	13.4	95.1
2022-10-20T00:34	10	1	0.1	1	1	381	0.2	381	382	13.4	95.2
2022-10-20T00:35	10	1	0.1	0	1	381	0.4	380	382	13.3	95.2
2022-10-20T00:36	10	1	0.1	0	1	381	0.5	379	382	13.0	95.0
2022-10-20T00:37	10	0	0.1	0	1	380	0.3	379	381	12.8	95.0
2022-10-20T00:38	10	0	0.2	0	0	380	0.5	379	381	12.8	95.4
2022-10-20T00:39	10	0	0.1	0	0	380	0.3	379	380	13.0	95.9
2022-10-20T00:40	10	0	0.1	0	0	380	0.3	379	380	12.9	95.9
2022-10-20T00:41	10	0	0.1	0	0	379	0.2	379	380	12.8	95.9
2022-10-20T00:42	10	0	0.1	0	0	379	0.6	378	381	12.8	96.0
2022-10-20T00:43	10	0	0.1	0	0	379	0.3	379	380	12.8	96.0
2022-10-20T00:44	10	0	0.1	0	0	379	0.3	378	380	12.7	96.0
2022-10-20T00:45	10	0	0.1	-1	0	379	0.4	378	380	12.7	96.1
2022-10-20T00:46	10	0	0.1	-1	0	379	0.3	378	379	12.7	96.2
2022-10-20T00:47	10	-1	0.1	-1	0	379	0.4	378	379	12.6	96.4
2022-10-20T00:48	10	-1	0.1	-1	0	379	0.3	378	379	12.6	96.5
2022-10-20T00:49	10	-1	0.1	-1	0	378	0.4	378	379	12.6	96.6
2022-10-20T00:50	10	-1	0.1	-1	0	378	0.3	378	379	12.6	96.8
2022-10-20T00:51	10	-1	0.1	-1	0	378	0.2	377	378	12.6	96.9
2022-10-20T00:52	10	-1	0.1	-1	0	378	0.2	378	379	12.6	97.0
2022-10-20T00:53	10	-1	0.1	-1	0	378	0.3	378	379	12.6	97.1
2022-10-20T00:54	10	-1	0.1	-1	0	378	0.2	378	379	12.5	97.1
2022-10-20T00:55	10	-1	0.1	-1	-1	378	0.3	377	379	12.6	97.3
2022-10-20T00:56	10	-1	0.1	-1	-1	378	0.3	378	379	12.6	97.3
2022-10-20T00:57	10	-1	0.1	-1	-1	378	0.3	377	378	12.6	97.4
2022-10-20T00:58	10	-1	0.1	-1	-1	378	0.3	378	379	12.7	97.5
2022-10-20T00:59	10	-1	0.1	-1	0	378	0.3	378	379	12.8	97.6
2022-10-20T01:00	10	-1	0.1	-1	0	379	0.4	378	380	12.9	97.6
2022-10-20T01:01	10	0	0.1	-1	0	379	0.2	378	379	12.8	97.5
2022-10-20T01:02	10	0	0.1	0	0	379	0.4	378	379	12.8	97.3
2022-10-20T01:03	10	0	0.1	0	0	379	0.3	378	379	12.8	97.3
2022-10-20T01:04	10	0	0.1	0	0	379	0.2	378	379	12.8	97.3
2022-10-20T01:05	10	0	0.1	0	0	379	0.3	378	380	12.8	97.4
2022-10-20T01:06	10	0	0.1	0	1	379	0.3	379	380	12.9	97.3
2022-10-20T01:07	10	0	0.1	0	1	380	0.2	379	380	13.0	97.4
2022-10-20T01:08	10	0	0.1	0	1	379	0.2	379	380	13.1	97.3
2022-10-20T01:09	10	1	0.1	0	1	379	0.2	379	380	13.1	97.2
2022-10-20T01:10	10	1	0.1	0	1	380	0.5	379	381	13.2	96.9
2022-10-20T01:11	10	1	0.1	0	1	380	0.2	379	380	13.1	96.7
2022-10-20T01:12	10	1	0.1	0	1	380	0.3	379	380	13.0	96.4
2022-10-20T01:13	10	1	0.1	0	1	380	0.2	379	380	13.0	96.5
2022-10-20T01:14	10	1	0.1	0	1	380	0.2	379	380	13.0	96.5
2022-10-20T01:15	10	1	0.1	0	1	380	0.3	379	380	13.0	96.6
2022-10-20T01:16	10	1	0.1	0	1	379	0.3	379	380	13.0	96.6
2022-10-20T01:17	10	1	0.1	0	1	380	0.2	379	380	13.0	96.7
2022-10-20T01:18	10	1	0.1	0	1	379	0.2	379	380	13.0	96.7
2022-10-20T01:19	10	1	0.1	0	1	380	0.2	379	380	13.0	96.7
2022-10-20T01:20	10	1	0.1	0	1	380	0.2	379	380	13.0	96.8
2022-10-20T01:21	10	1	0.1	0	1	380	0.2	379	380	13.1	96.9
2022-10-20T01:22	10	1	0.1	0	1	380	0.2	379	380	13.2	96.8
2022-10-20T01:23	10	1	0.1	1	1	380	0.3	379	380	13.1	96.6
2022-10-20T01:24	10	1	0.1	0	1	379	0.2	379	380	13.0	96.6
2022-10-20T01:25	10	1	0.1	0	1	379	0.2	379	380	13.1	96.8
2022-10-20T01:26	10	1	0.1	0	1	380	0.3	379	381	13.1	97.0
2022-10-20T01:27	10	1	0.1	1	1	380	0.2	380	381	13.2	97.1
2022-10-20T01:28	10	1	0.1	1	1	380	0.2	380	381	13.3	97.1
2022-10-20T01:29	10	1	0.1	1	1	380	0.2	380	381	13.2	97.0
2022-10-20T01:30	10	1	0.1	1	1	380	0.2	380	381	13.2	96.9
2022-10-20T01:31	10	1	0.1	1	1	380	0.2	380	381	13.2	96.8
2022-10-20T01:32	10	1	0.1	1	1	381	0.2	380	381	13.3	96.9
2022-10-20T01:33	10	1	0.1	1	1	381	0.3	380	381	13.3	96.9
2022-10-20T01:34	10	1	0.1	1	1	380	0.2	380	381	13.2	96.8
2022-10-20T01:35	10	1	0.1	1	1	381	0.2	380	381	13.2	96.8
2022-10-20T01:36	10	1	0.1	1	1	381	0.2	380	381	13.1	96.8
2022-10-20T01:37	10	1	0.1	1	1	381	0.3	380	382	13.2	96.9
2022-10-20T01:38	10	1	0.1	1	1	381	0.2	380	381	13.3	96.9
2022-10-20T01:39	10	1	0.1	1	1	381	0.3	380	381	13.2	96.8
2022-10-20T01:40	10	1	0.1	1	1	381	0.2	380	381	13.2	96.7
2022-10-20T01:41	10	1	0.1	1	2	381	0.2	381	382	13.2	96.7
2022-10-20T01:42	10	1	0.1	1	2	381	0.3	380	381	13.2	96.8
2022-10-20T01:43	10	1	0.1	1	1	381	0.3	380	381	13.2	96.8
2022-10-20T01:44	10	1	0.1	1	1	381	0.2	380	381	13.1	96.8
2022-10-20T01:45	10	1	0.1	1	1	381	0.2	380	381	13.2	96.9
2022-10-20T01:46	10	1	0.1	1	1	380	0.3	380	381	13.2	96.9
2022-10-20T01:47	10	1	0.1	1	1	380	0.2	380	381	13.1	97.0
2022-10-20T01:48	10	1	0.1	1	1	380	0.2	380	381	13.1	97.0
2022-10-20T01:49	10	1	0.1	1	1	380	0.3	379	381	13.1	97.1
2022-10-20T01:50	10	1	0.1	0	1	380	0.2	379	380	13.0	97.2
2022-10-20T01:51	10	1	0.1	0	1	380	0.3	379	380	13.0	97.4
2022-10-20T01:52	10	1	0.1	0	1	380	0.3	379	380	13.0	97.5
2022-10-20T01:53	10	1	0.1	0	1	380	0.2	379	380	13.0	97.6
2022-10-20T01:54	10	1	0.1	0	1	379	0.3	379	380	12.9	97.7
2022-10-20T01:55	10	1	0.1	0	1	379	0.3	378	380	12.9	97.7
2022-10-20T01:56	10	1	0.1	0	1	379	0.2	379	380	13.0	97.8
2022-10-20T01:57	10	1	0.1	0	1	379	0.2	379	379	12.9	97.8
2022-10-20T01:58	10	1	0.1	0	1	379	0.3	378	379	12.9	97.8
2022-10-20T01:59	10	1	0.1	1	1	379	0.3	378	379	12.9	97.8
2022-10-20T02:00	10	1	0.1	1	1	379	0.2	378	379	12.9	97.8
2022-10-20T02:01	10	1	0.1	1	1	379	0.2	378	379	12.9	97.9
2022-10-20T02:02	10	1	0.1	1	1	379	0.2	378	379	12.9	97.9
2022-10-20T02:03	10	1	0.1	0	1	379	0.2	378	380	12.9	97.9
2022-10-20T02:04	10	1	0.1	0	1	379	0.2	379	379	12.9	97.9
2022-10-20T02:05	10	1	0.1	0	1	379	0.3	378	380	13.0	98.0
2022-10-20T02:06	10	1	0.1	0	1	379	0.2	378	379	13.0	97.9
2022-10-20T02:07	10	1	0.1	0	1	379	0.2	379	380	13.1	97.8
2022-10-20T02:08	10	1	0.1	1	1	379	0.2	379	380	13.0	97.7
2022-10-20T02:09	10	1	0.1	0	1	379	0.2	379	380	13.0	97.6
2022-10-20T02:10	10	1	0.1	1	1	379	0.2	379	380	13.1	97.6
2022-10-20T02:11	10	1	0.1	1	1	379	0.3	379	380	13.1	97.5
2022-10-20T02:12	10	1	0.1	1	1	379	0.3	379	380	13.1	97.5
2022-10-20T02:13	10	1	0.1	1	1	379	0.2	379	380	13.1	97.4
2022-10-20T02:14	10	1	0.1	1	1	380	0.2	379	380	13.1	97.4
2022-10-20T02:15	10	1	0.1	1	1	380	0.2	379	380	13.1	97.3
2022-10-20T02:16	10	1	0.1	1	1	380	0.2	379	380	13.1	97.2
2022-10-20T02:17	10	1	0.1	1	1	380	0.2	380	381	13.2	97.2
2022-10-20T02:18	10	1	0.1	1	1	380	0.3	379	381	13.2	97.1
2022-10-20T02:19	10	1	0.1	1	1	380	0.2	380	381	13.2	96.9
2022-10-20T02:20	10	1	0.1	1	1	380	0.3	380	381	13.2	96.8
2022-10-20T02:21	10	1	0.1	1	2	380	0.3	380	381	13.2	96.7
2022-10-20T02:22	10	1	0.1	1	2	380	0.2	380	381	13.3	96.7
2022-10-20T02:23	10	1	0.1	1	2	381	0.3	380	381	13.4	96.6
2022-10-20T02:24	10	1	0.1	1	2	381	0.2	380	381	13.4	96.4
2022-10-20T02:25	10	1	0.1	1	2	380	0.2	380	381	13.3	96.2
2022-10-20T02:26	10	1	0.1	1	2	380	0.2	380	381	13.3	96.1
2022-10-20T02:27	10	1	0.1	1	1	380	0.2	380	381	13.3	96.1
2022-10-20T02:28	10	1	0.1	1	1	380	0.2	380	381	13.3	96.0
2022-10-20T02:29	10	1	0.1	1	1	380	0.2	379	380	13.3	96.0
2022-10-20T02:30	10	1	0.1	1	1	380	0.2	379	380	13.3	95.9
2022-10-20T02:31	10	1	0.1	1	1	380	0.2	379	380	13.4	95.9
2022-10-20T02:32	10	1	0.1	1	1	379	0.2	379	380	13.4	95.9
2022-10-20T02:33	10	1	0.1	1	1	379	0.3	378	380	13.4	95.7
2022-10-20T02:34	10	1	0.1	1	1	379	0.2	379	380	13.3	95.6
2022-10-20T02:35	10	1	0.1	1	1	379	0.2	379	380	13.3	95.7
2022-10-20T02:36	10	1	0.1	1	1	379	0.2	379	380	13.3	95.7
2022-10-20T02:37	10	1	0.1	1	1	380	0.2	379	380	13.3	95.8
2022-10-20T02:38	10	1	0.1	1	1	380	0.2	379	380	13.3	95.8
2022-10-20T02:39	10	1	0.1	1	1	380	0.2	379	380	13.3	95.9
2022-10-20T02:40	10	1	0.1	1	1	380	0.3	379	380	13.3	95.9
2022-10-20T02:41	10	1	0.1	1	1	380	0.2	379	380	13.2	96.0
2022-10-20T02:42	10	1	0.1	1	1	379	0.3	379	380	13.2	96.1
2022-10-20T02:43	10	1	0.1	1	1	379	0.2	379	380	13.3	96.1
2022-10-20T02:44	10	1	0.1	1	1	379	0.2	379	380	13.2	96.1
2022-10-20T02:45	10	1	0.1	1	1	379	0.2	378	380	13.2	96.2
2022-10-20T02:46	10	1	0.1	0	1	379	0.3	379	380	13.2	96.2
2022-10-20T02:47	10	1	0.1	0	1	379	0.3	379	380	13.2	96.3
2022-10-20T02:48	10	1	0.1	0	1	379	0.2	378	380	13.2	96.4
2022-10-20T02:49	10	1	0.1	0	1	379	0.2	379	379	13.3	96.4
2022-10-20T02:50	10	1	0.1	1	1	379	0.2	379	379	13.2	96.3
2022-10-20T02:51	10	1	0.1	1	1	379	0.2	378	379	13.2	96.4
2022-10-20T02:52	10	1	0.1	1	1	379	0.3	378	379	13.2	96.4
2022-10-20T02:53	10	1	0.1	1	1	379	0.2	378	379	13.2	96.4
2022-10-20T02:54	10	1	0.1	1	1	379	0.3	378	379	13.2	96.5
2022-10-20T02:55	10	1	0.1	0	1	378	0.2	378	379	13.2	96.6
2022-10-20T02:56	10	1	0.1	0	1	379	0.2	378	379	13.2	96.6
2022-10-20T02:57	10	1	0.1	1	1	378	0.2	378	379	13.2	96.7
2022-10-20T02:58	10	1	0.1	0	1	379	0.2	378	379	13.2	96.7
2022-10-20T02:59	10	1	0.1	1	1	378	0.2	378	379	13.2	96.7
2022-10-20T03:00	10	1	0.1	0	1	379	0.2	379	379	13.2	96.8
2022-10-20T03:01	10	1	0.1	0	1	379	0.2	378	379	13.1	96.8
2022-10-20T03:02	10	1	0.1	0	1	379	0.2	378	379	13.1	96.9
2022-10-20T03:03	10	0	0.1	0	1	379	0.3	378	380	13.1	97.0
2022-10-20T03:04	10	1	0.1	0	1	379	0.3	379	380	13.1	97.1
2022-10-20T03:05	10	1	0.1	0	1	379	0.4	378	380	13.1	97.1
2022-10-20T03:06	10	1	0.1	1	1	380	0.3	379	380	13.1	97.1
2022-10-20T03:07	10	1	0.2	1	1	380	0.3	379	380	13.1	97.1
2022-10-20T03:08	10	1	0.1	1	1	380	0.2	379	380	13.2	97.1
2022-10-20T03:09	10	1	0.1	1	1	380	0.2	379	380	13.2	97.1
2022-10-20T03:10	10	1	0.1	1	1	380	0.2	379	380	13.2	97.0
2022-10-20T03:11	10	1	0.1	1	1	380	0.2	379	380	13.2	96.9
2022-10-20T03:12	10	1	0.1	1	2	379	0.3	379	380	13.1	96.9
2022-10-20T03:13	10	1	0.1	1	1	379	0.2	379	379	13.2	97.0
2022-10-20T03:14	10	1	0.1	1	1	379	0.3	378	379	13.2	97.0
2022-10-20T03:15	10	1	0.1	1	1	379	0.2	378	379	13.1	97.0
2022-10-20T03:16	10	1	0.1	1	1	379	0.2	378	379	13.1	97.0
2022-10-20T03:17	10	1	0.1	1	1	378	0.2	377	379	13.1	97.0
2022-10-20T03:18	10	1	0.1	1	1	378	0.2	377	378	13.1	97.1
2022-10-20T03:19	10	1	0.1	1	1	378	0.2	377	378	13.1	97.1
2022-10-20T03:20	10	1	0.1	1	1	378	0.2	377	378	13.1	97.2
2022-10-20T03:21	10	1	0.1	0	1	377	0.2	377	378	13.1	97.3
2022-10-20T03:22	10	0	0.1	0	1	378	0.2	377	378	13.1	97.3
2022-10-20T03:23	10	0	0.1	0	0	377	0.2	377	378	13.1	97.3
2022-10-20T03:24	10	0	0.1	0	0	377	0.2	377	378	13.1	97.3
2022-10-20T03:25	10	0	0.1	0	1	378	0.2	377	378	13.2	97.2
2022-10-20T03:26	10	0	0.1	0	1	378	0.2	377	378	13.2	97.1
2022-10-20T03:27	10	0	0.1	0	1	378	0.2	377	378	13.2	97.0
2022-10-20T03:28	10	0	0.1	0	1	378	0.2	377	378	13.2	96.9
2022-10-20T03:29	10	0	0.1	0	1	378	0.2	377	378	13.3	96.6
2022-10-20T03:30	10	0	0.1	0	0	377	0.2	377	378	13.2	96.4
2022-10-20T03:31	10	0	0.1	0	1	377	0.2	377	378	13.2	96.3
2022-10-20T03:32	10	0	0.1	0	0	377	0.3	377	378	13.1	96.3
2022-10-20T03:33	10	0	0.1	0	0	377	0.3	377	378	13.1	96.5
2022-10-20T03:34	10	0	0.1	0	0	377	0.2	377	378	13.2	96.6
2022-10-20T03:35	10	0	0.1	0	0	377	0.2	377	378	13.2	96.5
2022-10-20T03:36	10	0	0.1	0	0	378	0.3	377	378	13.2	96.4
2022-10-20T03:37	10	0	0.1	0	0	378	0.2	377	378	13.2	96.4
2022-10-20T03:38	10	0	0.1	0	0	378	0.3	377	378	13.2	96.3
2022-10-20T03:39	10	0	0.1	0	0	378	0.2	377	378	13.2	96.3
2022-10-20T03:40	10	0	0.1	0	1	377	0.3	377	378	13.2	96.3
2022-10-20T03:41	10	0	0.1	0	1	377	0.2	377	378	13.2	96.3
2022-10-20T03:42	10	1	0.1	0	1	377	0.2	377	378	13.3	96.2
2022-10-20T03:43	10	1	0.1	1	1	377	0.2	376	377	13.3	96.1
2022-10-20T03:44	10	1	0.1	1	1	377	0.2	376	377	13.3	96.0
2022-10-20T03:45	10	1	0.1	1	1	376	0.2	376	377	13.3	96.0
2022-10-20T03:46	10	1	0.1	1	1	376	0.2	376	377	13.3	96.0
2022-10-20T03:47	10	1	0.1	1	1	376	0.2	376	377	13.2	95.9
2022-10-20T03:48	10	1	0.1	1	1	376	0.3	376	377	13.2	95.9
2022-10-20T03:49	10	1	0.1	1	1	377	0.2	376	377	13.2	96.1
2022-10-20T03:50	10	1	0.1	1	1	377	0.2	376	377	13.2	96.1
2022-10-20T03:51	10	1	0.1	1	1	377	0.2	376	377	13.3	96.1
2022-10-20T03:52	10	1	0.1	1	1	377	0.2	376	377	13.3	95.9
2022-10-20T03:53	10	1	0.1	1	1	376	0.2	376	377	13.3	95.8
2022-10-20T03:54	10	1	0.1	1	1	376	0.2	376	377	13.3	95.7
2022-10-20T03:55	10	1	0.1	1	1	377	0.2	376	377	13.3	95.7
2022-10-20T03:56	10	1	0.1	1	1	377	0.2	376	377	13.3	95.8
2022-10-20T03:57	10	1	0.1	1	1	377	0.2	377	377	13.2	95.7
2022-10-20T03:58	10	1	0.1	1	1	377	0.3	377	378	13.2	95.8
2022-10-20T03:59	10	1	0.1	1	1	377	0.2	377	378	13.2	95.9
2022-10-20T04:00	10	1	0.1	1	1	378	0.2	377	378	13.2	96.0
2022-10-20T04:01	10	1	0.1	1	1	378	0.2	378	378	13.2	96.0
2022-10-20T04:02	10	1	0.1	1	1	378	0.2	378	379	13.2	95.9
2022-10-20T04:03	10	1	0.1	1	1	378	0.2	378	379	13.2	95.9
2022-10-20T04:04	10	1	0.1	1	1	378	0.8	377	379	13.0	95.9
2022-10-20T04:05	10	1	0.1	1	1	378	0.3	377	379	12.9	96.0
2022-10-20T04:06	10	1	0.1	1	1	378	0.3	378	379	12.9	96.3
2022-10-20T04:07	10	1	0.1	1	1	378	0.2	377	378	12.9	96.5
2022-10-20T04:08	10	1	0.1	1	1	378	0.2	377	378	12.9	96.7
2022-10-20T04:09	10	1	0.1	1	1	377	0.5	376	378	12.8	96.8
2022-10-20T04:10	10	1	0.1	1	1	378	0.3	377	378	12.8	97.0
2022-10-20T04:11	10	1	0.1	1	1	378	0.4	377	378	12.7	97.1
2022-10-20T04:12	10	1	0.1	1	1	378	0.2	377	378	12.8	97.3
2022-10-20T04:13	10	1	0.1	1	1	378	0.2	377	378	12.8	97.5
2022-10-20T04:14	10	1	0.1	1	1	378	0.3	377	378	12.8	97.7
2022-10-20T04:15	10	1	0.1	0	1	378	0.2	378	379	12.8	97.8
2022-10-20T04:16	10	1	0.1	1	1	378	0.2	378	378	12.8	97.9
2022-10-20T04:17	10	1	0.1	1	1	378	0.2	378	379	12.8	97.9
2022-10-20T04:18	10	1	0.1	0	1	378	0.2	377	379	12.7	98.0
2022-10-20T04:19	10	1	0.1	1	1	378	0.3	377	379	12.7	98.1
2022-10-20T04:20	10	1	0.1	1	1	378	0.2	378	378	12.7	98.1
2022-10-20T04:21	10	1	0.1	0	1	378	0.3	377	379	12.8	98.2
2022-10-20T04:22	10	1	0.1	1	1	378	0.3	377	379	12.8	98.3
2022-10-20T04:23	10	1	0.1	1	1	377	0.3	377	378	12.8	98.3
2022-10-20T04:24	10	1	0.1	1	1	377	0.2	376	377	12.8	98.3
2022-10-20T04:25	10	1	0.1	1	1	377	0.2	376	377	12.8	98.3
2022-10-20T04:26	10	1	0.1	1	1	377	0.2	376	377	12.8	98.4
2022-10-20T04:27	10	1	0.1	1	1	377	0.3	376	377	12.8	98.4
2022-10-20T04:28	10	1	0.1	1	1	377	0.2	376	377	12.8	98.4
2022-10-20T04:29	10	1	0.1	1	1	376	0.3	376	377	12.8	98.5
2022-10-20T04:30	10	1	0.1	1	1	376	0.3	375	377	12.9	98.5
2022-10-20T04:31	10	1	0.1	1	1	376	0.2	376	376	12.9	98.5
2022-10-20T04:32	10	1	0.1	1	1	376	0.2	375	376	12.9	98.5
2022-10-20T04:33	10	1	0.1	1	1	376	0.2	375	376	12.9	98.5
2022-10-20T04:34	10	1	0.1	1	1	376	0.3	375	376	12.9	98.5
2022-10-20T04:35	10	1	0.1	1	1	376	0.2	375	377	12.9	98.5
2022-10-20T04:36	10	1	0.1	1	1	376	0.3	375	376	12.9	98.5
2022-10-20T04:37	10	1	0.1	1	1	376	0.3	375	376	12.9	98.5
2022-10-20T04:38	10	1	0.1	1	1	376	0.3	375	376	12.9	98.5
2022-10-20T04:39	10	1	0.1	1	1	375	0.3	375	376	12.9	98.5
2022-10-20T04:40	10	1	0.1	1	1	375	0.3	374	375	12.9	98.5
2022-10-20T04:41	10	1	0.1	1	1	375	0.2	374	375	12.8	98.5
2022-10-20T04:42	10	1	0.1	1	1	375	0.2	374	375	12.8	98.5
2022-10-20T04:43	10	1	0.1	1	1	375	0.3	374	375	12.8	98.5
2022-10-20T04:44	10	1	0.1	1	1	374	0.2	374	375	12.8	98.6
2022-10-20T04:45	10	1	0.1	1	1	375	0.2	374	375	12.8	98.6
2022-10-20T04:46	10	1	0.1	1	1	375	0.2	374	375	12.8	98.6
2022-10-20T04:47	10	1	0.1	0	1	375	0.2	375	375	12.8	98.7
2022-10-20T04:48	10	1	0.1	0	1	375	0.2	374	375	12.8	98.7
2022-10-20T04:49	10	0	0.1	0	1	375	0.2	374	375	12.8	98.7
2022-10-20T04:50	10	0	0.1	0	1	375	0.3	374	375	12.8	98.7
2022-10-20T04:51	10	0	0.1	0	1	375	0.2	374	375	12.8	98.7
2022-10-20T04:52	10	0	0.1	0	1	374	0.2	374	375	12.7	98.7
2022-10-20T04:53	10	1	0.1	0	1	374	0.2	374	375	12.8	98.7
2022-10-20T04:54	10	1	0.1	0	1	374	0.2	374	375	12.8	98.7
2022-10-20T04:55	10	1	0.1	0	1	374	0.2	374	375	12.8	98.7
2022-10-20T04:56	10	1	0.1	1	1	374	0.3	374	375	12.8	98.7
2022-10-20T04:57	10	1	0.1	1	1	374	0.2	374	375	12.8	98.7
2022-10-20T04:58	10	1	0.1	1	1	374	0.2	374	375	12.8	98.6
2022-10-20T04:59	10	1	0.1	1	1	374	0.2	374	374	12.8	98.6
2022-10-20T05:00	10	1	0.1	1	1	374	0.3	373	374	12.8	98.6
2022-10-20T05:01	10	1	0.1	1	1	374	0.2	373	374	12.8	98.6
2022-10-20T05:02	10	1	0.1	1	1	374	0.2	373	374	12.8	98.6
2022-10-20T05:03	10	1	0.1	1	1	373	0.3	372	374	12.8	98.6
2022-10-20T05:04	10	1	0.1	1	1	373	0.2	373	374	12.8	98.6
2022-10-20T05:05	10	1	0.0	1	1	373	0.3	372	374	12.8	98.6
2022-10-20T05:06	10	1	0.1	1	1	373	0.5	372	374	12.8	98.6
2022-10-20T05:07	10	1	0.1	1	1	374	0.3	373	375	12.9	98.6
2022-10-20T05:08	10	1	0.1	0	1	375	0.3	374	375	12.9	98.5
2022-10-20T05:09	10	0	0.1	0	1	375	0.3	374	375	12.9	98.5
2022-10-20T05:10	10	0	0.1	0	0	375	0.4	375	376	12.9	98.4
2022-10-20T05:11	10	0	0.1	0	0	375	0.3	374	376	12.9	98.4
2022-10-20T05:12	10	0	0.1	0	0	375	0.3	374	376	12.9	98.4
2022-10-20T05:13	10	0	0.1	0	0	374	0.2	374	375	12.9	98.4
2022-10-20T05:14	10	0	0.1	0	0	374	0.2	373	374	12.8	98.3
2022-10-20T05:15	10	0	0.1	0	1	374	0.2	373	374	12.7	98.3
2022-10-20T05:16	10	0	0.1	0	1	373	0.2	373	374	12.8	98.4
2022-10-20T05:17	10	1	0.1	0	1	373	0.2	372	374	12.8	98.4
2022-10-20T05:18	10	1	0.1	0	1	373	0.2	372	373	12.7	98.4
2022-10-20T05:19	10	1	0.1	1	1	373	0.2	372	373	12.7	98.4
2022-10-20T05:20	10	1	0.1	1	1	372	0.3	372	373	12.7	98.5
2022-10-20T05:21	10	1	0.1	1	1	372	0.2	372	373	12.7	98.5
2022-10-20T05:22	10	1	0.1	1	1	372	0.3	371	372	12.8	98.5
2022-10-20T05:23	10	1	0.1	1	1	372	0.3	371	372	12.8	98.5
2022-10-20T05:24	10	1	0.1	1	1	372	0.6	370	373	12.8	98.5
2022-10-20T05:25	10	1	0.1	0	1	372	0.2	372	373	12.8	98.5
2022-10-20T05:26	10	0	0.1	0	1	373	0.3	373	374	12.7	98.5
2022-10-20T05:27	10	0	0.1	0	0	374	0.3	373	375	12.5	98.4
2022-10-20T05:28	10	0	0.1	0	0	375	0.3	374	375	12.5	98.4
2022-10-20T05:29	10	0	0.1	0	0	375	0.4	374	376	12.5	98.5
2022-10-20T05:30	10	0	0.1	-1	0	375	0.2	375	376	12.5	98.5
2022-10-20T05:31	10	0	0.1	-1	0	376	0.4	375	376	12.5	98.6
2022-10-20T05:32	10	-1	0.1	-1	0	376	0.3	375	376	12.5	98.6
2022-10-20T05:33	10	0	0.1	-1	0	376	0.3	375	376	12.5	98.7
2022-10-20T05:34	10	0	0.1	0	0	376	0.4	375	377	12.5	98.8
2022-10-20T05:35	10	0	0.1	0	0	376	0.4	375	377	12.6	98.8
2022-10-20T05:36	10	0	0.0	0	0	376	0.3	375	377	12.6	98.9
2022-10-20T05:37	10	0	0.1	0	0	376	0.6	375	377	12.6	98.9
2022-10-20T05:38	10	0	0.1	0	0	376	0.3	375	377	12.6	98.9
2022-10-20T05:39	10	0	0.1	0	0	376	0.3	375	376	12.6	99.0
2022-10-20T05:40	10	0	0.1	0	0	375	0.3	375	376	12.6	99.0
2022-10-20T05:41	10	0	0.1	0	0	375	0.2	375	376	12.6	99.0
2022-10-20T05:42	10	0	0.1	0	1	375	0.3	374	375	12.5	99.0
2022-10-20T05:43	10	0	0.1	0	1	374	0.2	374	375	12.6	99.1
2022-10-20T05:44	10	0	0.1	0	1	374	0.2	374	375	12.6	99.1
2022-10-20T05:45	10	0	0.1	0	0	375	0.2	374	375	12.6	99.1
2022-10-20T05:46	10	0	0.0	0	0	375	0.2	374	375	12.6	99.1
2022-10-20T05:47	10	0	0.1	0	0	375	0.4	374	376	12.6	99.2
2022-10-20T05:48	10	0	0.1	0	0	375	0.2	375	376	12.6	99.2
2022-10-20T05:49	10	0	0.1	0	0	376	0.2	375	376	12.6	99.2
2022-10-20T05:50	10	0	0.1	0	0	376	0.4	376	377	12.7	99.2
2022-10-20T05:51	10	0	0.1	0	0	376	0.3	376	377	12.7	99.1
2022-10-20T05:52	10	0	0.1	0	0	376	0.3	376	377	12.7	99.1
2022-10-20T05:53	10	0	0.1	0	0	377	0.3	376	378	12.7	99.1
2022-10-20T05:54	10	0	0.1	-1	0	377	0.2	376	377	12.7	99.0
2022-10-20T05:55	10	0	0.1	-1	0	377	0.5	375	377	12.7	98.9
2022-10-20T05:56	10	-1	0.1	-1	0	377	0.5	376	378	12.7	98.9
2022-10-20T05:57	10	-1	0.1	-1	0	377	0.3	376	377	12.7	98.9
2022-10-20T05:58	10	-1	0.1	-1	0	377	0.3	376	377	12.7	98.8
2022-10-20T05:59	10	-1	0.1	-1	0	377	0.2	376	377	12.8	98.7
2022-10-20T06:00	10	0	0.1	-1	0	376	0.4	376	377	12.8	98.5
2022-10-20T06:01	10	0	0.1	0	0	376	0.5	375	377	12.8	98.2
2022-10-20T06:02	10	0	0.1	0	0	376	0.3	375	377	12.8	98.0
2022-10-20T06:03	10	0	0.1	0	0	376	0.3	375	376	12.8	97.8
2022-10-20T06:04	10	0	0.1	0	0	376	0.3	375	376	12.8	97.5
2022-10-20T06:05	10	0	0.1	0	0	375	0.5	374	376	12.8	97.3
2022-10-20T06:06	10	0	0.1	0	0	375	0.4	375	376	12.8	97.1
2022-10-20T06:07	10	0	0.1	0	0	375	0.5	374	376	12.8	96.9
2022-10-20T06:08	10	0	0.1	0	0	375	0.3	374	375	12.8	96.7
2022-10-20T06:09	10	0	0.1	0	1	375	0.4	373	375	12.8	96.5
2022-10-20T06:10	10	1	0.1	0	1	375	0.4	374	375	12.8	96.3
2022-10-20T06:11	10	1	0.1	1	1	375	0.3	374	376	12.8	96.1
2022-10-20T06:12	10	1	0.1	1	1	374	0.2	374	375	12.8	95.8
2022-10-20T06:13	10	1	0.1	1	1	374	0.2	374	375	12.8	95.6
2022-10-20T06:14	10	1	0.1	1	2	374	0.3	373	375	12.8	95.3
2022-10-20T06:15	10	2	0.1	1	2	374	0.3	374	375	12.9	95.2
2022-10-20T06:16	10	2	0.1	2	2	374	0.2	373	375	12.9	94.9
2022-10-20T06:17	10	2	0.1	2	2	374	0.3	373	375	12.9	94.7
2022-10-20T06:18	10	2	0.1	2	2	374	0.4	373	374	12.9	94.6
2022-10-20T06:19	10	3	0.1	2	3	374	0.4	373	374	12.9	94.4
2022-10-20T06:20	10	3	0.1	3	3	374	0.3	373	374	13.0	94.2
2022-10-20T06:21	10	3	0.1	3	3	374	0.3	373	374	13.0	93.8
2022-10-20T06:22	10	3	0.1	3	3	374	0.4	373	375	13.0	93.6
2022-10-20T06:23	10	3	0.1	3	4	374	0.4	374	375	12.9	93.6
2022-10-20T06:24	10	4	0.1	3	4	375	0.3	374	375	13.0	93.6
2022-10-20T06:25	10	3	0.1	3	4	375	0.3	374	376	13.0	93.5
2022-10-20T06:26	10	3	0.1	3	4	376	0.2	375	376	12.9	93.5
2022-10-20T06:27	10	4	0.1	3	4	376	0.3	375	376	13.0	93.6
2022-10-20T06:28	10	4	0.1	4	4	376	0.3	376	377	13.0	93.4
2022-10-20T06:29	10	4	0.1	4	4	376	0.2	376	377	13.1	93.3
2022-10-20T06:30	10	4	0.1	3	4	377	0.3	376	377	13.1	93.2
2022-10-20T06:31	10	4	0.1	4	4	377	0.3	377	378	13.1	93.2
2022-10-20T06:32	10	4	0.1	4	4	377	0.3	377	378	13.1	93.1
2022-10-20T06:33	10	4	0.1	4	4	377	0.4	376	378	13.1	93.1
2022-10-20T06:34	10	4	0.1	4	4	377	0.4	377	378	13.1	93.2
2022-10-20T06:35	10	4	0.2	4	4	378	0.4	377	379	13.1	93.3
2022-10-20T06:36	10	4	0.1	4	4	378	0.3	377	379	13.2	93.3
2022-10-20T06:37	10	4	0.1	4	4	378	0.3	377	379	13.3	93.1
2022-10-20T06:38	10	4	0.1	4	4	378	0.3	377	379	13.2	93.0
2022-10-20T06:39	10	4	0.1	4	4	378	0.3	378	379	13.2	93.0
2022-10-20T06:40	10	4	0.1	4	4	378	0.2	378	379	13.2	93.0
2022-10-20T06:41	10	4	0.1	3	4	378	0.4	377	379	13.1	93.0
2022-10-20T06:42	10	3	0.1	3	3	378	0.2	378	379	13.1	93.1
2022-10-20T06:43	10	4	0.1	3	4	378	0.3	377	379	13.1	93.2
2022-10-20T06:44	10	4	0.1	4	4	378	0.3	378	379	13.1	93.2
2022-10-20T06:45	10	3	0.1	3	4	378	0.2	378	379	13.1	93.2
2022-10-20T06:46	10	3	0.1	3	3	378	0.3	378	379	13.1	93.3
2022-10-20T06:47	10	3	0.0	3	3	378	0.2	378	379	13.0	93.4
2022-10-20T06:48	10	3	0.1	3	4	378	0.2	378	379	13.0	93.5
2022-10-20T06:49	10	4	0.2	3	4	378	0.2	378	379	13.0	93.6
2022-10-20T06:50	10	4	0.1	4	4	378	0.3	378	379	13.0	93.7
2022-10-20T06:51	10	4	0.1	3	4	379	0.2	378	379	13.0	93.9
2022-10-20T06:52	10	3	0.1	3	4	378	0.2	378	379	13.0	93.9
2022-10-20T06:53	10	3	0.0	3	4	378	0.2	378	379	13.0	93.8
2022-10-20T06:54	10	3	0.1	3	4	378	0.3	378	379	13.0	93.8
2022-10-20T06:55	10	3	0.1	3	3	379	0.3	378	379	13.0	93.7
2022-10-20T06:56	10	3	0.1	3	3	378	0.3	378	379	13.1	93.6
2022-10-20T06:57	10	3	0.1	3	4	378	0.3	378	379	13.1	93.6
2022-10-20T06:58	10	4	0.1	3	4	378	0.2	378	379	13.1	93.6
2022-10-20T06:59	10	4	0.1	4	4	379	0.3	378	379	13.0	93.8
2022-10-20T07:00	10	4	0.1	4	4	379	0.3	378	380	13.0	93.9
2022-10-20T07:01	10	4	0.1	4	4	379	0.3	378	380	13.0	93.9
2022-10-20T07:02	10	4	0.1	4	4	379	0.4	378	380	13.1	94.0
2022-10-20T07:03	10	4	0.2	4	4	379	0.5	378	380	13.1	94.0
2022-10-20T07:04	10	4	0.2	4	5	379	0.4	379	380	13.1	94.1
2022-10-20T07:05	10	5	0.2	5	5	380	0.2	379	380	13.1	94.2
2022-10-20T07:06	10	6	0.1	5	6	380	0.3	379	380	13.1	94.2
2022-10-20T07:07	10	5	0.1	5	5	380	0.2	380	381	13.1	94.2
2022-10-20T07:08	10	5	0.1	5	5	381	0.2	380	381	13.1	94.2
2022-10-20T07:09	10	5	0.1	5	5	381	0.2	380	381	13.1	94.2
2022-10-20T07:10	10	6	0.1	5	6	381	0.2	380	381	13.1	94.2
2022-10-20T07:11	10	6	0.1	6	6	381	0.3	380	381	13.1	94.3
2022-10-20T07:12	10	6	0.1	6	6	381	0.3	380	382	13.1	94.4
2022-10-20T07:13	10	6	0.1	6	6	381	0.2	380	381	13.1	94.3
2022-10-20T07:14	10	7	0.1	6	7	381	0.3	380	381	13.1	94.3
2022-10-20T07:15	10	7	0.2	7	7	381	0.2	380	381	13.1	94.3
2022-10-20T07:16	10	8	0.3	7	9	381	0.2	381	382	13.2	94.3
2022-10-20T07:17	10	9	0.1	8	9	382	0.2	381	382	13.2	94.3
2022-10-20T07:18	10	9	0.1	8	9	382	0.2	381	382	13.2	94.3
2022-10-20T07:19	10	9	0.3	9	10	382	0.3	381	382	13.2	94.3
2022-10-20T07:20	10	10	0.1	10	10	382	0.2	381	382	13.2	94.2
2022-10-20T07:21	10	10	0.1	10	10	382	0.2	382	382	13.2	94.2
2022-10-20T07:22	10	11	0.2	10	11	383	0.3	382	383	13.3	94.2
2022-10-20T07:23	10	12	0.4	11	12	383	0.2	383	383	13.3	94.2
2022-10-20T07:24	10	13	0.5	12	14	384	0.3	383	384	13.4	94.0
2022-10-20T07:25	10	15	0.4	14	15	384	0.2	384	385	13.4	93.8
2022-10-20T07:26	10	16	0.2	15	16	384	0.2	384	385	13.4	93.7
2022-10-20T07:27	10	17	0.4	16	17	385	0.2	384	385	13.4	93.6
2022-10-20T07:28	10	18	0.2	17	18	385	0.2	385	386	13.5	93.5
2022-10-20T07:29	10	18	0.1	18	18	386	0.2	385	386	13.5	93.4
2022-10-20T07:30	10	18	0.4	17	18	386	0.3	385	387	13.6	93.3
2022-10-20T07:31	10	16	0.6	15	17	386	0.3	386	387	13.6	93.2
2022-10-20T07:32	10	15	0.1	15	15	386	0.3	385	387	13.6	93.1
2022-10-20T07:33	10	16	0.3	15	16	386	0.3	385	386	13.6	93.2
2022-10-20T07:34	10	16	0.2	16	17	386	0.3	386	387	13.6	93.2
2022-10-20T07:35	10	15	0.5	15	16	386	0.2	385	386	13.6	93.2
2022-10-20T07:36	10	14	0.3	14	15	386	0.5	385	387	13.6	92.9
2022-10-20T07:37	10	13	0.3	13	14	385	0.9	384	387	13.7	92.9
2022-10-20T07:38	10	13	0.1	12	13	385	0.5	384	386	13.7	92.7
2022-10-20T07:39	10	13	0.1	12	13	385	0.4	384	386	13.7	92.6
2022-10-20T07:40	10	12	0.1	12	13	385	0.4	384	385	13.6	92.5
2022-10-20T07:41	10	12	0.3	11	12	384	0.3	383	385	13.6	92.5
2022-10-20T07:42	10	11	0.2	11	12	384	0.6	383	385	13.6	92.4
2022-10-20T07:43	10	11	0.1	10	11	384	0.4	384	385	13.6	92.5
2022-10-20T07:44	10	11	0.1	10	11	384	0.5	383	385	13.6	92.5
2022-10-20T07:45	10	12	0.4	11	12	385	0.2	384	385	13.6	92.7
2022-10-20T07:46	10	13	0.3	12	13	385	0.5	384	386	13.6	92.8
2022-10-20T07:47	10	13	0.1	13	13	386	0.5	385	387	13.6	92.9
2022-10-20T07:48	10	13	0.1	13	13	386	0.3	385	386	13.7	93.0
2022-10-20T07:49	10	12	0.3	12	13	386	0.2	385	386	13.7	93.1
2022-10-20T07:50	10	11	0.3	11	12	386	0.3	385	386	13.7	93.3
2022-10-20T07:51	10	10	0.3	10	11	386	0.2	385	386	13.7	93.5
2022-10-20T07:52	10	9	0.2	9	10	386	0.2	385	386	13.7	93.2
2022-10-20T07:53	10	9	0.1	9	9	386	0.3	385	386	13.7	93.0
2022-10-20T07:54	10	9	0.1	9	9	385	0.2	385	386	13.7	93.0
2022-10-20T07:55	10	9	0.1	9	9	385	0.2	384	385	13.7	92.9
2022-10-20T07:56	10	9	0.1	9	10	384	0.3	384	385	13.7	92.8
2022-10-20T07:57	10	10	0.2	9	10	385	0.2	384	385	13.7	92.8
2022-10-20T07:58	10	11	0.4	10	12	385	0.3	384	386	13.7	93.1
2022-10-20T07:59	10	13	0.6	12	14	385	0.2	385	386	13.7	93.3
2022-10-20T08:00	10	14	0.2	13	14	386	0.2	385	386	13.8	93.3
2022-10-20T08:01	10	14	0.1	14	14	386	0.3	385	387	13.8	93.5
2022-10-20T08:02	10	14	0.1	14	14	386	0.2	385	386	13.8	93.2
2022-10-20T08:03	10	14	0.2	13	14	386	0.3	386	387	13.9	93.1
2022-10-20T08:04	10	13	0.2	13	14	386	0.3	386	387	13.9	93.2
2022-10-20T08:05	10	13	0.2	12	13	386	0.2	385	386	13.8	92.9
2022-10-20T08:06	10	12	0.2	12	12	386	0.3	385	387	13.9	92.6
2022-10-20T08:07	10	12	0.1	11	12	386	0.2	385	386	13.9	92.6
2022-10-20T08:08	10	11	0.1	11	11	386	0.2	385	386	13.9	92.3
2022-10-20T08:09	10	11	0.1	11	11	385	0.3	385	386	13.9	91.9
2022-10-20T08:10	10	11	0.1	11	11	385	0.3	385	386	13.9	91.6
2022-10-20T08:11	10	11	0.1	11	11	385	0.3	385	386	13.9	91.8
2022-10-20T08:12	10	11	0.2	11	11	385	0.2	384	386	13.9	92.0
2022-10-20T08:13	10	12	0.3	11	13	385	0.2	385	386	13.9	92.2
2022-10-20T08:14	10	13	0.4	12	14	385	0.2	384	385	13.9	92.3
2022-10-20T08:15	10	15	0.5	14	16	385	0.3	385	386	13.9	92.3
2022-10-20T08:16	10	17	0.5	16	18	386	0.2	386	387	13.9	92.3
2022-10-20T08:17	10	18	0.3	18	19	387	0.3	386	387	13.9	92.2
2022-10-20T08:18	10	19	0.1	18	19	387	0.3	386	388	13.9	92.1
2022-10-20T08:19	10	19	0.1	18	19	387	0.3	387	388	13.9	92.3
2022-10-20T08:20	10	18	0.1	18	19	388	0.2	387	388	13.9	92.5
2022-10-20T08:21	10	19	0.3	18	19	388	0.3	388	389	14.0	92.7
2022-10-20T08:22	10	18	0.4	17	18	388	0.2	387	388	14.0	92.7
2022-10-20T08:23	10	17	0.1	17	17	388	0.3	387	388	14.0	92.6
2022-10-20T08:24	10	17	0.1	16	17	388	0.2	388	389	14.0	92.6
2022-10-20T08:25	10	16	0.1	16	16	388	0.2	387	388	14.0	92.6
2022-10-20T08:26	10	16	0.1	16	17	388	0.2	388	388	14.0	92.4
2022-10-20T08:27	10	16	0.2	16	16	388	0.2	388	389	14.1	92.2
2022-10-20T08:28	10	15	0.3	15	16	388	0.2	387	388	14.1	92.3
2022-10-20T08:29	10	15	0.3	14	15	388	0.2	387	388	14.1	92.1
2022-10-20T08:30	10	14	0.3	13	14	388	0.3	387	388	14.1	91.6
2022-10-20T08:31	10	13	0.2	12	13	387	0.2	387	388	14.1	91.2
2022-10-20T08:32	10	12	0.1	12	12	388	0.3	387	388	14.1	91.6
2022-10-20T08:33	10	12	0.1	12	12	387	0.2	387	388	14.1	91.6
2022-10-20T08:34	10	12	0.1	12	12	387	0.3	387	388	14.1	91.7
2022-10-20T08:35	10	13	0.2	12	13	388	0.4	387	388	14.1	91.5
2022-10-20T08:36	10	13	0.2	13	14	388	0.2	387	388	14.1	91.3
2022-10-20T08:37	10	14	0.2	14	14	388	0.2	387	388	14.1	91.2
2022-10-20T08:38	10	15	0.1	14	15	388	0.2	387	388	14.1	91.7
2022-10-20T08:39	10	15	0.1	14	15	388	0.2	387	388	14.1	91.8
2022-10-20T08:40	10	14	0.2	14	14	388	0.3	387	388	14.1	91.8
2022-10-20T08:41	10	13	0.2	13	14	387	0.2	387	388	14.1	91.6
2022-10-20T08:42	10	12	0.3	12	13	387	0.2	386	387	14.1	91.6
2022-10-20T08:43	10	12	0.2	11	12	387	0.2	386	387	14.1	91.7
2022-10-20T08:44	10	11	0.2	10	11	387	0.2	386	387	14.1	91.9
2022-10-20T08:45	10	10	0.1	10	11	386	0.2	386	387	14.1	91.8
2022-10-20T08:46	10	10	0.1	10	10	386	0.2	386	387	14.1	91.4
2022-10-20T08:47	10	10	0.1	10	10	387	0.2	386	387	14.1	91.7
2022-10-20T08:48	10	10	0.1	10	10	387	0.3	386	387	14.2	92.0
2022-10-20T08:49	10	10	0.1	10	10	387	0.2	387	388	14.2	92.1
2022-10-20T08:50	10	10	0.1	10	10	387	0.3	386	387	14.2	91.9
2022-10-20T08:51	10	10	0.1	10	10	387	0.2	386	387	14.2	91.4
2022-10-20T08:52	10	10	0.0	10	10	387	0.2	386	387	14.2	91.2
2022-10-20T08:53	10	10	0.1	10	10	387	0.2	386	387	14.1	91.6
2022-10-20T08:54	10	10	0.1	10	10	387	0.2	386	387	14.1	92.1
2022-10-20T08:55	10	10	0.1	10	10	387	0.3	386	387	14.1	92.4
2022-10-20T08:56	10	10	0.1	10	10	386	0.2	386	387	14.1	92.4
2022-10-20T08:57	10	10	0.1	10	10	386	0.2	386	386	14.1	92.3
2022-10-20T08:58	10	10	0.1	10	10	386	0.2	386	387	14.1	92.3
2022-10-20T08:59	10	10	0.1	10	10	386	0.2	386	387	14.1	92.0
2022-10-20T09:00	10	10	0.1	10	10	386	0.2	386	386	14.1	91.8
2022-10-20T09:01	10	10	0.1	10	10	386	0.3	385	386	14.1	92.2
2022-10-20T09:02	10	10	0.1	10	10	386	0.2	385	386	14.1	92.5
2022-10-20T09:03	10	10	0.2	10	11	386	0.2	385	386	14.1	92.5
2022-10-20T09:04	10	11	0.2	11	12	386	0.2	385	386	14.1	92.7
2022-10-20T09:05	10	12	0.3	11	13	386	0.3	386	387	14.1	92.8
2022-10-20T09:06	10	13	0.4	12	14	386	0.3	386	387	14.1	92.9
2022-10-20T09:07	10	14	0.4	14	15	387	0.3	386	387	14.1	92.7
2022-10-20T09:08	10	16	0.3	15	16	387	0.2	387	387	14.1	92.8
2022-10-20T09:09	10	17	0.3	16	17	387	0.2	387	388	14.1	93.1
2022-10-20T09:10	10	18	0.3	17	18	388	0.3	387	388	14.1	93.2
2022-10-20T09:11	10	19	0.4	18	20	389	0.2	388	389	14.1	93.2
2022-10-20T09:12	10	20	0.4	20	21	389	0.2	388	389	14.1	93.2
2022-10-20T09:13	10	22	0.3	21	22	389	0.4	389	390	14.1	92.8
2022-10-20T09:14	10	23	0.3	22	23	389	0.3	389	390	14.1	93.1
2022-10-20T09:15	10	24	0.3	23	24	389	0.2	389	390	14.1	93.1
2022-10-20T09:16	10	25	0.4	24	25	390	0.2	389	390	14.2	93.2
2022-10-20T09:17	10	26	0.5	26	27	391	0.3	390	391	14.2	93.2
2022-10-20T09:18	10	28	0.5	27	29	391	0.3	391	392	14.2	93.3
2022-10-20T09:19	10	29	0.3	29	30	392	0.7	391	393	14.2	93.3
2022-10-20T09:20	10	30	0.2	29	30	393	0.3	392	393	14.3	93.3
2022-10-20T09:21	10	30	0.1	30	30	393	0.3	392	394	14.3	93.2
2022-10-20T09:22	10	31	0.3	30	31	393	0.3	393	394	14.3	92.9
2022-10-20T09:23	10	32	0.3	31	32	393	0.4	393	394	14.3	93.2
2022-10-20T09:24	10	32	0.4	32	33	394	0.3	393	394	14.3	92.9
2022-10-20T09:25	10	34	0.4	33	35	394	0.2	394	395	14.4	92.4
2022-10-20T09:26	10	35	0.5	34	36	395	0.2	394	395	14.4	92.3
2022-10-20T09:27	10	37	0.6	36	38	395	0.3	395	396	14.4	91.9
2022-10-20T09:28	10	39	0.6	38	40	396	0.3	396	397	14.4	91.9
2022-10-20T09:29	10	41	0.4	40	42	396	0.2	396	397	14.5	92.1
2022-10-20T09:30	10	42	0.3	41	42	396	0.3	396	397	14.4	91.7
2022-10-20T09:31	10	43	0.4	42	44	397	0.2	396	397	14.4	91.8
2022-10-20T09:32	10	44	0.3	43	44	397	0.2	396	398	14.5	91.6
2022-10-20T09:33	10	45	0.2	44	45	397	0.2	397	398	14.6	91.5
2022-10-20T09:34	10	45	0.1	44	45	397	0.3	397	398	14.5	91.3
2022-10-20T09:35	10	45	0.1	45	45	398	0.3	397	398	14.5	91.4
2022-10-20T09:36	10	45	0.1	45	46	398	0.2	397	398	14.5	91.5
2022-10-20T09:37	10	45	0.1	45	46	398	0.2	398	398	14.6	91.4
2022-10-20T09:38	10	46	0.1	45	46	398	0.3	397	399	14.6	91.5
2022-10-20T09:39	10	46	0.1	45	46	399	0.3	398	399	14.6	91.6
2022-10-20T09:40	10	46	0.1	46	46	399	0.2	398	399	14.6	91.5
2022-10-20T09:41	10	46	0.1	46	46	399	0.4	398	400	14.7	91.6
2022-10-20T09:42	10	47	0.3	46	48	398	0.3	398	399	14.6	90.9
2022-10-20T09:43	10	48	0.3	47	48	399	0.3	398	400	14.6	91.1
2022-10-20T09:44	10	48	0.3	48	49	398	0.3	398	399	14.6	91.4
2022-10-20T09:45	10	49	0.4	49	50	398	0.4	397	399	14.6	91.4
2022-10-20T09:46	10	50	0.3	50	51	397	0.4	396	398	14.6	91.4
2022-10-20T09:47	10	51	0.2	51	51	397	0.3	396	398	14.6	91.5
2022-10-20T09:48	10	51	0.1	51	52	397	0.4	396	398	14.7	91.5
2022-10-20T09:49	10	51	0.4	51	52	397	0.3	396	398	14.7	91.4
2022-10-20T09:50	10	52	0.4	52	53	397	0.3	397	398	14.6	90.9
2022-10-20T09:51	10	54	0.7	53	55	398	0.5	397	399	14.8	91.5
2022-10-20T09:52	10	56	0.8	55	58	398	0.3	397	398	14.7	90.8
2022-10-20T09:53	10	62	1.2	58	63	398	0.4	397	399	14.7	90.4
2022-10-20T09:54	10	67	1.0	64	68	399	0.4	398	400	14.8	90.4
2022-10-20T09:55	10	63	1.7	61	67	400	0.2	400	401	14.9	90.4
2022-10-20T09:56	10	63	3.3	58	67	401	0.3	399	401	14.9	90.1
2022-10-20T09:57	10	57	0.5	56	58	400	0.6	399	402	14.9	90.2
2022-10-20T09:58	10	56	0.4	55	57	401	0.3	400	402	14.9	89.9
2022-10-20T09:59	10	55	0.4	54	55	401	0.5	400	402	15.0	89.8
2022-10-20T10:00	10	53	0.5	52	54	400	0.3	400	401	15.0	89.6
2022-10-20T10:01	10	52	0.5	51	53	401	0.3	400	401	14.9	89.3
2022-10-20T10:02	10	50	0.4	50	51	402	0.3	401	402	15.0	89.4
2022-10-20T10:03	10	49	0.3	48	50	402	0.9	401	403	15.1	89.6
2022-10-20T10:04	10	48	0.4	47	49	400	0.8	399	402	14.8	89.2
2022-10-20T10:05	10	46	0.4	46	47	400	0.3	399	400	14.9	89.7
2022-10-20T10:06	10	45	0.6	44	46	398	0.4	397	399	14.9	89.3
2022-10-20T10:07	10	43	0.3	43	44	397	0.3	397	398	14.8	89.3
2022-10-20T10:08	10	43	0.1	43	43	396	0.4	396	397	14.8	89.3
2022-10-20T10:09	10	43	0.2	43	43	396	0.3	395	397	14.8	89.1
2022-10-20T10:10	10	43	0.1	43	43	397	0.8	395	398	14.8	89.3
2022-10-20T10:11	10	43	0.2	42	43	398	0.4	397	398	14.8	89.4
2022-10-20T10:12	10	42	0.3	41	42	398	0.2	397	398	14.8	88.9
2022-10-20T10:13	10	41	0.2	41	41	398	0.4	397	398	14.9	89.0
2022-10-20T10:14	10	41	0.2	41	42	398	0.6	397	399	14.9	89.4
2022-10-20T10:15	10	42	0.4	42	43	397	0.3	396	397	14.9	89.0
2022-10-20T10:16	10	44	0.4	43	44	397	0.3	396	397	14.9	89.2
2022-10-20T10:17	10	44	0.1	44	45	396	0.2	396	397	14.9	88.9
2022-10-20T10:18	10	44	0.1	44	45	396	0.3	395	396	14.9	89.0
2022-10-20T10:19	10	45	0.1	44	45	395	0.4	394	396	14.9	89.4
2022-10-20T10:20	10	45	0.1	45	45	394	0.2	394	395	14.9	89.2
2022-10-20T10:21	10	45	0.1	45	46	394	0.2	394	395	14.9	89.3
2022-10-20T10:22	10	46	0.3	46	47	395	0.3	394	395	14.9	89.2
2022-10-20T10:23	10	47	0.3	47	48	395	0.2	394	395	14.9	89.1
2022-10-20T10:24	10	48	0.2	48	49	395	0.2	394	395	14.9	89.3
2022-10-20T10:25	10	51	2.0	48	55	395	0.4	394	396	14.9	89.4
2022-10-20T10:26	10	62	4.5	55	68	397	1.0	395	399	14.9	89.3
2022-10-20T10:27	10	71	2.2	67	74	399	0.7	398	400	15.0	89.3
2022-10-20T10:28	10	77	1.3	74	79	400	0.6	399	401	15.1	89.5
2022-10-20T10:29	10	79	0.8	79	82	402	0.5	401	403	15.2	89.3
2022-10-20T10:30	10	83	1.0	82	85	403	0.4	402	403	15.1	88.5
2022-10-20T10:31	10	83	2.5	78	87	403	0.6	402	404	15.2	88.6
2022-10-20T10:32	10	86	2.9	80	89	404	0.3	403	404	15.3	88.8
2022-10-20T10:33	10	88	1.1	86	89	404	0.2	403	404	15.1	87.9
2022-10-20T10:34	10	83	2.0	79	87	404	0.3	403	404	15.1	88.0
2022-10-20T10:35	10	77	1.2	75	80	404	0.2	403	404	15.1	87.7
2022-10-20T10:36	10	81	1.9	79	85	404	0.3	403	405	15.2	87.5
2022-10-20T10:37	10	83	3.7	76	87	406	0.4	405	406	15.4	88.0
2022-10-20T10:38	10	83	4.3	77	89	406	0.3	405	406	15.5	87.2
2022-10-20T10:39	10	91	4.9	83	98	407	1.1	405	409	15.6	87.2
2022-10-20T10:40	10	81	2.8	78	87	409	0.5	408	410	15.8	87.2
2022-10-20T10:41	10	77	1.4	74	80	410	0.3	410	411	15.9	87.0
2022-10-20T10:42	10	74	1.0	73	77	411	0.9	409	412	16.0	87.2
2022-10-20T10:43	10	73	0.3	73	74	411	1.0	409	412	16.0	86.5
2022-10-20T10:44	10	73	0.1	72	73	411	0.2	410	411	15.9	86.4
2022-10-20T10:45	10	73	0.2	72	73	410	0.8	409	411	15.9	85.9
2022-10-20T10:46	10	76	3.4	73	83	409	0.7	408	410	15.8	85.9
2022-10-20T10:47	10	82	5.1	76	91	409	0.4	408	410	15.8	86.3
2022-10-20T10:48	10	85	4.2	76	89	410	0.3	409	410	15.8	86.1
2022-10-20T10:49	10	86	2.8	84	93	409	0.4	408	410	16.0	86.2
2022-10-20T10:50	10	82	4.9	78	94	409	0.4	409	410	16.0	85.8
2022-10-20T10:51	10	81	3.3	75	86	410	0.5	409	411	15.9	85.7
2022-10-20T10:52	10	75	0.4	74	76	409	0.4	408	410	16.0	86.7
2022-10-20T10:53	10	76	1.4	74	79	410	0.6	409	411	15.9	86.6
2022-10-20T10:54	10	90	7.9	79	100	411	0.7	409	412	16.1	87.2
2022-10-20T10:55	10	95	1.6	93	99	412	0.4	411	412	16.0	86.3
2022-10-20T10:56	10	93	0.8	91	94	412	0.5	411	413	15.9	86.1
2022-10-20T10:57	10	96	1.3	93	97	412	0.5	411	413	16.0	86.4
2022-10-20T10:58	10	103	3.3	97	107	414	0.6	412	415	16.2	85.8
2022-10-20T10:59	10	111	2.5	106	115	414	0.4	414	415	16.0	84.9
2022-10-20T11:00	10	116	1.5	113	119	416	0.8	415	417	16.1	85.4
2022-10-20T11:01	10	108	2.0	106	113	416	0.7	415	417	16.2	85.1
2022-10-20T11:02	10	102	2.4	99	106	415	0.8	413	416	16.1	85.2
2022-10-20T11:03	10	88	7.5	75	99	413	1.2	412	415	16.2	85.7
2022-10-20T11:04	10	67	4.1	61	74	410	1.2	409	413	16.1	85.4
2022-10-20T11:05	10	58	1.6	56	61	407	1.1	405	409	15.9	85.1
2022-10-20T11:06	10	54	1.2	52	56	406	0.3	405	406	15.9	85.8
2022-10-20T11:07	10	50	0.9	48	51	405	0.3	405	406	16.0	86.0
2022-10-20T11:08	10	47	0.6	47	48	404	0.5	404	405	15.9	85.8
2022-10-20T11:09	10	46	0.4	45	47	403	0.5	403	404	15.9	86.4
2022-10-20T11:10	10	45	0.2	45	45	403	0.2	402	403	15.9	86.5
2022-10-20T11:11	10	45	0.1	44	45	401	0.5	401	402	15.8	85.8
2022-10-20T11:12	10	45	0.1	44	45	401	0.3	401	402	15.7	85.7
2022-10-20T11:13	10	45	0.1	45	45	401	0.3	401	402	15.7	85.9
2022-10-20T11:14	10	44	0.2	44	45	401	0.4	400	402	15.8	86.1
2022-10-20T11:15	10	44	0.2	43	44	402	0.2	401	402	15.9	86.3
2022-10-20T11:16	10	43	0.1	43	44	402	0.4	401	403	15.9	86.3
2022-10-20T11:17	10	43	0.1	43	43	402	0.4	401	403	16.0	86.7
2022-10-20T11:18	10	43	0.1	42	43	402	0.3	402	403	16.0	86.7
2022-10-20T11:19	10	43	0.4	43	44	402	0.3	401	403	16.0	86.2
2022-10-20T11:20	10	44	0.3	44	45	401	0.2	401	402	15.9	86.0
2022-10-20T11:21	10	45	0.1	45	45	401	0.2	400	401	15.8	86.2
2022-10-20T11:22	10	45	0.2	45	46	401	0.3	400	402	15.9	86.3
2022-10-20T11:23	10	46	0.2	46	46	402	0.5	401	403	15.9	86.4
2022-10-20T11:24	10	46	0.1	46	46	402	0.4	402	403	15.9	86.3
2022-10-20T11:25	10	46	0.1	46	46	402	0.2	401	402	15.9	86.1
2022-10-20T11:26	10	46	0.1	46	46	402	0.2	402	403	15.9	86.2
2022-10-20T11:27	10	46	0.1	46	46	403	0.5	402	404	16.0	86.3
2022-10-20T11:28	10	46	0.1	46	46	403	0.3	403	404	16.0	85.9
2022-10-20T11:29	10	46	0.1	46	46	403	0.2	403	404	15.9	85.8
2022-10-20T11:30	10	46	0.2	45	46	403	0.2	403	403	15.9	85.5
2022-10-20T11:31	10	45	0.1	45	45	403	0.3	403	404	16.0	85.8
2022-10-20T11:32	10	45	0.1	45	45	404	0.3	403	404	16.1	85.6
2022-10-20T11:33	10	45	0.1	45	45	403	0.2	403	404	16.1	85.2
2022-10-20T11:34	10	45	0.1	45	45	404	0.3	403	404	16.1	85.0
2022-10-20T11:35	10	46	0.4	45	47	404	0.3	404	405	16.0	84.8
2022-10-20T11:36	10	47	0.3	47	48	405	0.3	404	406	16.1	84.9
2022-10-20T11:37	10	48	0.1	47	48	405	0.2	404	405	16.2	85.5
2022-10-20T11:38	10	46	0.6	45	47	405	0.2	404	405	16.3	85.5
2022-10-20T11:39	10	44	0.6	43	45	405	0.3	404	405	16.2	84.7
2022-10-20T11:40	10	42	0.6	41	43	404	0.4	403	405	16.3	85.4
2022-10-20T11:41	10	41	0.5	40	42	404	0.3	403	405	16.3	84.7
2022-10-20T11:42	10	39	0.3	38	40	404	0.2	403	404	16.4	84.9
2022-10-20T11:43	10	38	0.1	38	39	403	0.3	403	404	16.4	84.5
2022-10-20T11:44	10	38	0.1	38	39	403	0.3	402	403	16.4	84.5
2022-10-20T11:45	10	39	0.3	38	40	403	0.2	402	403	16.3	84.4
2022-10-20T11:46	10	40	0.4	39	41	403	0.4	402	404	16.3	84.4
2022-10-20T11:47	10	41	0.4	41	43	404	0.3	404	405	16.4	84.4
2022-10-20T11:48	10	43	0.9	42	45	405	0.4	404	406	16.4	84.4
2022-10-20T11:49	10	42	0.2	42	43	406	0.2	405	406	16.5	85.2
2022-10-20T11:50	10	42	0.2	42	43	406	0.2	405	406	16.5	85.1
2022-10-20T11:51	10	41	0.8	39	42	405	0.4	404	406	16.5	84.2
2022-10-20T11:52	10	38	1.0	36	39	405	0.2	405	406	16.6	84.6
2022-10-20T11:53	10	34	1.1	32	36	405	0.4	404	406	16.6	84.6
2022-10-20T11:54	10	31	0.8	29	32	405	0.3	404	405	16.6	84.2
2022-10-20T11:55	10	28	0.7	27	29	403	0.5	402	404	16.6	83.6
2022-10-20T11:56	10	25	0.9	24	27	403	0.3	402	404	16.6	83.6
2022-10-20T11:57	10	23	0.6	22	24	402	0.6	401	404	16.7	83.9
2022-10-20T11:58	10	21	0.2	21	22	402	0.2	401	402	16.7	83.7
2022-10-20T11:59	10	21	0.2	20	21	401	0.6	399	402	16.7	83.6
2022-10-20T12:00	10	20	0.2	20	21	400	0.3	400	401	16.6	83.1
2022-10-20T12:01	10	21	0.2	20	21	401	0.3	400	401	16.7	83.5
2022-10-20T12:02	10	22	0.4	21	23	401	0.3	400	402	16.7	84.2
2022-10-20T12:03	10	22	0.2	22	23	401	0.4	400	402	16.7	83.7
2022-10-20T12:04	10	22	0.2	21	22	401	0.3	400	401	16.6	83.2
2022-10-20T12:05	10	22	0.4	21	23	400	0.3	400	401	16.7	82.7
2022-10-20T12:06	10	24	0.9	23	26	401	0.4	400	402	16.7	82.9
2022-10-20T12:07	10	27	0.6	26	28	402	0.5	401	403	16.7	83.0
2022-10-20T12:08	10	29	0.7	28	31	402	0.3	402	403	16.7	83.1
2022-10-20T12:09	10	33	2.0	30	37	403	0.4	402	404	16.7	83.3
2022-10-20T12:10	10	42	2.4	37	46	404	1.1	402	406	16.7	82.8
2022-10-20T12:11	10	49	1.9	46	52	406	0.4	405	407	16.8	82.6
2022-10-20T12:12	10	53	0.4	52	54	408	0.5	407	408	16.8	83.1
2022-10-20T12:13	10	52	0.9	51	53	409	0.6	408	410	16.9	83.6
2022-10-20T12:14	10	48	1.3	46	51	409	0.7	408	410	16.9	83.4
2022-10-20T12:15	10	44	1.3	42	46	408	0.4	407	408	16.8	82.5
2022-10-20T12:16	10	40	1.1	38	42	407	0.9	406	409	16.9	82.9
2022-10-20T12:17	10	36	0.9	35	38	406	0.3	406	407	16.8	82.6
2022-10-20T12:18	10	33	1.2	31	35	406	0.4	405	407	16.9	82.7
2022-10-20T12:19	10	28	1.5	26	31	406	0.3	405	406	16.9	83.0
2022-10-20T12:20	10	24	0.7	23	26	405	0.4	404	406	16.9	83.0
2022-10-20T12:21	10	23	0.4	22	23	404	1.2	403	406	16.8	83.0
2022-10-20T12:22	10	22	0.3	21	22	403	0.3	402	404	16.7	82.7
2022-10-20T12:23	10	21	0.2	20	21	403	0.2	402	403	16.8	82.7
2022-10-20T12:24	10	20	0.1	20	20	403	0.3	402	404	16.8	82.9
2022-10-20T12:25	10	20	0.1	20	21	403	0.5	402	403	16.8	82.9
2022-10-20T12:26	10	21	0.3	21	21	402	0.4	401	403	16.7	82.6
2022-10-20T12:27	10	22	0.3	21	23	402	0.5	401	403	16.8	82.3
2022-10-20T12:28	10	23	0.1	23	23	402	0.3	402	403	16.7	82.2
2022-10-20T12:29	10	22	0.5	21	23	403	0.2	402	403	16.8	82.6
2022-10-20T12:30	10	20	0.5	19	21	402	0.4	401	403	16.8	82.5
2022-10-20T12:31	10	19	0.3	18	19	401	0.2	401	402	16.8	82.7
2022-10-20T12:32	10	18	0.1	18	19	401	0.3	400	402	16.7	83.4
2022-10-20T12:33	10	20	0.7	19	21	401	0.2	400	401	16.7	83.4
2022-10-20T12:34	10	23	1.2	21	25	401	0.4	400	402	16.7	83.2
2022-10-20T12:35	10	29	2.6	25	35	402	0.8	401	404	16.8	83.5
2022-10-20T12:36	10	28	0.2	28	29	404	0.3	403	404	16.8	83.8
2022-10-20T12:37	10	29	0.2	29	29	404	0.2	403	404	16.8	83.2
2022-10-20T12:38	10	30	0.5	29	31	404	0.7	403	406	16.8	82.9
2022-10-20T12:39	10	31	0.1	30	31	404	0.6	403	405	16.8	83.7
2022-10-20T12:40	10	31	0.1	31	31	404	0.2	404	405	16.9	82.5
2022-10-20T12:41	10	30	0.2	30	31	404	0.2	404	404	16.9	82.4
2022-10-20T12:42	10	30	0.1	30	30	404	0.3	403	405	16.8	82.6
2022-10-20T12:43	10	30	0.1	30	30	404	0.2	404	405	16.6	83.5
2022-10-20T12:44	10	30	0.1	30	31	405	0.3	404	405	16.7	84.5
2022-10-20T12:45	10	31	0.2	31	31	405	0.4	404	405	16.8	84.4
2022-10-20T12:46	10	31	0.1	31	32	405	0.3	404	406	16.8	84.5
2022-10-20T12:47	10	32	0.3	31	32	405	0.2	404	406	16.7	83.9
2022-10-20T12:48	10	33	0.5	32	34	406	0.7	404	407	16.7	83.2
2022-10-20T12:49	10	36	0.9	34	37	406	0.4	405	407	16.8	83.0
2022-10-20T12:50	10	40	1.2	38	42	406	0.2	406	407	16.9	83.4
2022-10-20T12:51	10	42	0.7	41	44	407	0.2	406	407	16.9	82.9
2022-10-20T12:52	10	46	1.0	44	47	405	0.6	405	407	16.9	82.7
2022-10-20T12:53	10	48	0.3	47	48	406	0.4	405	406	16.8	81.8
2022-10-20T12:54	10	49	0.3	48	50	407	0.4	406	407	16.8	82.2
2022-10-20T12:55	10	50	0.4	49	51	407	0.2	406	407	16.8	81.6
2022-10-20T12:56	10	52	0.8	51	53	408	0.4	407	409	16.9	81.8
2022-10-20T12:57	10	56	2.0	53	60	409	0.6	408	410	16.9	82.0
2022-10-20T12:58	10	62	1.0	61	64	411	0.5	410	412	17.1	83.0
2022-10-20T12:59	10	76	9.4	65	90	413	1.3	411	416	17.1	82.3
2022-10-20T13:00	10	92	4.2	86	100	417	0.5	416	418	17.2	82.0
2022-10-20T13:01	10	96	3.2	90	101	419	0.3	419	420	17.3	82.5
2022-10-20T13:02	10	115	6.1	103	126	422	1.8	419	426	17.4	82.9
2022-10-20T13:03	10	128	2.5	122	130	424	0.4	423	425	17.4	81.8
2022-10-20T13:04	10	114	4.7	103	123	423	0.7	423	425	17.2	80.9
2022-10-20T13:05	10	102	2.9	95	105	422	0.5	421	423	17.3	82.1
2022-10-20T13:06	10	99	1.6	96	102	422	0.6	420	423	17.3	81.4
2022-10-20T13:07	10	90	2.6	86	96	419	1.4	417	422	17.1	80.6
2022-10-20T13:08	10	75	4.6	66	84	417	0.9	416	419	17.0	80.7
2022-10-20T13:09	10	60	2.6	58	67	416	0.8	414	417	17.1	80.5
2022-10-20T13:10	10	82	5.3	69	90	415	0.4	415	416	17.1	80.7
2022-10-20T13:11	10	95	7.0	76	101	417	1.6	415	420	17.1	80.9
2022-10-20T13:12	10	101	1.2	99	103	418	0.6	417	419	17.1	80.6
2022-10-20T13:13	10	95	2.8	91	100	419	0.2	419	420	17.1	80.3
2022-10-20T13:14	10	95	4.8	91	107	420	0.4	419	421	17.2	80.0
2022-10-20T13:15	10	109	1.0	107	110	421	0.6	420	422	17.3	79.5
2022-10-20T13:16	10	105	2.4	101	109	423	1.0	420	424	17.5	79.7
2022-10-20T13:17	10	109	2.9	103	112	424	0.8	422	425	17.5	79.6
2022-10-20T13:18	10	104	2.7	99	111	423	0.3	422	424	17.4	78.8
2022-10-20T13:19	10	98	1.3	95	101	422	0.8	420	423	17.3	78.3
2022-10-20T13:20	10	90	3.2	83	94	421	0.8	419	422	17.1	78.8
2022-10-20T13:21	10	82	2.2	79	86	419	1.3	417	421	17.3	80.1
2022-10-20T13:22	10	83	4.1	76	89	417	1.3	415	420	17.1	80.3
2022-10-20T13:23	10	72	2.1	69	76	416	0.4	416	417	17.2	80.4
2022-10-20T13:24	10	92	9.7	77	105	416	0.4	416	417	17.2	81.0
2022-10-20T13:25	10	105	3.1	97	109	418	1.0	416	420	17.2	80.8
2022-10-20T13:26	10	96	2.4	91	99	419	0.2	418	419	17.3	81.2
2022-10-20T13:27	10	96	1.0	95	98	419	0.5	418	420	17.4	81.1
2022-10-20T13:28	10	98	0.9	96	99	419	0.7	418	421	17.4	81.1
2022-10-20T13:29	10	97	1.6	94	99	420	0.4	419	421	17.3	80.2
2022-10-20T13:30	10	90	1.6	87	93	417	0.4	417	418	17.1	79.7
2022-10-20T13:31	10	79	7.6	61	87	416	1.3	413	418	17.1	80.8
2022-10-20T13:32	10	52	4.8	44	60	412	1.2	410	415	17.1	81.1
2022-10-20T13:33	10	44	0.4	43	46	410	0.7	409	412	17.0	81.6
2022-10-20T13:34	10	50	1.6	47	54	410	0.4	410	411	17.0	81.6
2022-10-20T13:35	10	50	3.8	46	57	410	0.6	409	411	17.1	82.0
2022-10-20T13:36	10	57	3.5	51	61	412	0.9	410	413	17.1	82.6
2022-10-20T13:37	10	51	1.2	49	53	410	0.3	410	411	17.1	81.7
2022-10-20T13:38	10	53	2.2	49	56	410	0.3	409	411	17.1	81.7
2022-10-20T13:39	10	54	2.7	49	56	410	0.3	410	411	17.1	82.0
2022-10-20T13:40	10	49	3.3	45	54	410	0.4	409	411	17.1	82.2
2022-10-20T13:41	10	42	2.6	39	46	409	0.3	408	410	17.1	82.3
2022-10-20T13:42	10	40	0.7	38	41	408	0.3	408	409	17.0	81.6
2022-10-20T13:43	10	41	0.7	40	43	409	0.6	407	410	17.2	82.0
2022-10-20T13:44	10	44	0.4	43	44	409	0.2	409	409	17.2	81.9
2022-10-20T13:45	10	45	1.3	43	47	408	0.6	407	410	17.1	82.3
2022-10-20T13:46	10	40	1.8	38	44	407	0.7	406	408	16.9	82.3
2022-10-20T13:47	10	38	1.4	37	42	406	0.3	405	406	16.9	82.4
2022-10-20T13:48	10	38	2.2	35	42	406	0.4	406	407	16.9	82.7
2022-10-20T13:49	10	35	0.5	34	36	406	0.3	405	407	17.0	83.6
2022-10-20T13:50	10	34	0.5	34	35	406	0.3	405	407	16.9	83.0
2022-10-20T13:51	10	34	0.4	34	35	407	0.6	405	408	17.0	83.1
2022-10-20T13:52	10	35	0.5	34	36	407	0.3	406	407	17.0	83.7
2022-10-20T13:53	10	35	0.6	35	37	407	0.3	406	407	17.0	83.8
2022-10-20T13:54	10	35	1.3	33	37	406	0.6	405	408	17.0	83.9
2022-10-20T13:55	10	34	0.3	33	34	406	0.3	405	406	17.0	83.7
2022-10-20T13:56	10	34	0.2	33	34	405	0.3	405	406	17.0	83.4
2022-10-20T13:57	10	32	0.5	31	33	405	0.3	404	406	16.9	83.2
2022-10-20T13:58	10	31	0.1	31	32	405	0.3	404	405	16.9	83.3
2022-10-20T13:59	10	32	0.2	31	32	404	0.2	404	405	16.9	83.4
2022-10-20T14:00	10	32	0.2	32	33	405	0.3	404	405	16.9	83.6
2022-10-20T14:01	10	32	0.4	31	33	405	0.3	404	405	16.9	84.1
2022-10-20T14:02	10	31	0.4	30	31	404	0.5	403	405	16.9	83.9
2022-10-20T14:03	10	29	0.6	28	30	404	0.2	403	404	16.9	83.4
2022-10-20T14:04	10	27	0.4	26	28	404	0.3	403	404	16.9	83.4
2022-10-20T14:05	10	25	0.4	25	26	403	0.2	402	403	16.8	83.5
2022-10-20T14:06	10	24	0.4	23	25	403	0.3	402	403	16.9	83.9
2022-10-20T14:07	10	23	0.4	22	23	403	0.3	402	403	16.8	84.1
2022-10-20T14:08	10	22	0.3	21	22	403	0.2	402	403	16.8	84.3
2022-10-20T14:09	10	21	0.2	21	21	402	0.2	402	403	16.8	84.5
2022-10-20T14:10	10	21	0.1	21	21	402	0.3	401	402	16.8	84.3
2022-10-20T14:11	10	21	0.1	21	21	402	0.3	401	402	16.7	84.5
2022-10-20T14:12	10	21	0.1	21	21	402	0.2	401	402	16.7	85.2
2022-10-20T14:13	10	21	0.1	21	21	401	0.3	401	402	16.7	85.2
2022-10-20T14:14	10	21	0.1	21	21	401	0.2	401	402	16.7	85.2
2022-10-20T14:15	10	21	0.1	21	21	401	0.3	401	402	16.7	85.4
2022-10-20T14:16	10	21	0.2	21	21	401	0.2	401	402	16.7	85.6
2022-10-20T14:17	10	22	0.5	22	23	402	0.7	400	403	16.7	86.0
2022-10-20T14:18	10	24	0.7	23	26	402	0.4	401	403	16.8	86.0
2022-10-20T14:19	10	27	1.0	26	29	402	0.4	401	403	16.8	85.7
2022-10-20T14:20	10	31	0.9	29	32	402	0.6	401	404	16.7	85.9
2022-10-20T14:21	10	33	0.3	32	33	402	0.2	402	403	16.7	86.2
2022-10-20T14:22	10	33	0.2	33	34	402	0.2	401	402	16.5	86.0
2022-10-20T14:23	10	33	0.4	33	34	402	0.3	401	402	16.5	86.0
2022-10-20T14:24	10	35	0.9	34	36	401	0.2	401	402	16.5	86.3
2022-10-20T14:25	10	37	0.4	36	38	402	0.5	400	402	16.4	86.9
2022-10-20T14:26	10	40	1.8	38	43	402	0.3	401	403	16.4	87.1
2022-10-20T14:27	10	40	0.8	39	42	402	0.2	401	402	16.3	87.1
2022-10-20T14:28	10	39	0.8	38	41	402	0.4	401	403	16.4	87.3
2022-10-20T14:29	10	38	0.1	38	39	402	0.2	401	403	16.3	87.2
2022-10-20T14:30	10	38	0.1	38	39	402	0.3	402	402	16.3	87.1
2022-10-20T14:31	10	38	0.4	38	39	402	0.3	401	403	16.3	87.1
2022-10-20T14:32	10	37	0.3	37	38	402	0.3	401	402	16.3	87.1
2022-10-20T14:33	10	37	0.2	36	37	401	0.2	401	401	16.3	87.1
2022-10-20T14:34	10	36	0.2	35	36	400	0.3	400	401	16.2	87.2
2022-10-20T14:35	10	35	0.5	34	35	400	0.3	400	401	16.2	87.6
2022-10-20T14:36	10	33	0.7	31	34	400	0.3	399	400	16.2	87.8
2022-10-20T14:37	10	30	0.5	29	31	399	0.4	398	400	16.2	87.7
2022-10-20T14:38	10	29	0.3	28	30	399	0.3	398	399	16.1	87.6
2022-10-20T14:39	10	28	0.1	28	29	398	0.4	397	399	16.1	87.8
2022-10-20T14:40	10	28	0.2	28	29	398	0.2	398	399	16.1	87.9
2022-10-20T14:41	10	29	0.2	29	30	398	0.4	397	399	16.1	87.9
2022-10-20T14:42	10	30	0.3	29	30	398	0.4	397	399	16.1	88.0
2022-10-20T14:43	10	30	0.1	30	31	398	0.3	397	399	16.1	87.9
2022-10-20T14:44	10	29	0.3	29	30	399	0.5	398	400	16.0	88.0
2022-10-20T14:45	10	29	0.3	28	29	399	0.2	398	399	16.0	87.9
2022-10-20T14:46	10	28	0.3	27	28	399	0.3	398	400	16.0	87.8
2022-10-20T14:47	10	26	0.5	26	27	399	0.2	398	399	16.0	87.7
2022-10-20T14:48	10	25	0.2	25	26	399	0.3	398	399	16.0	88.0
2022-10-20T14:49	10	25	0.1	24	25	399	0.2	398	399	16.0	88.1
2022-10-20T14:50	10	24	0.2	24	25	399	0.6	398	400	16.1	88.5
2022-10-20T14:51	10	24	0.3	23	24	399	0.3	398	400	16.2	88.6
2022-10-20T14:52	10	22	0.5	21	23	398	0.3	398	399	16.2	88.4
2022-10-20T14:53	10	20	0.5	20	21	398	0.4	397	398	16.1	88.3
2022-10-20T14:54	10	19	0.5	18	20	397	0.4	397	398	16.1	88.5
2022-10-20T14:55	10	17	0.6	16	18	397	0.3	396	397	16.0	88.3
2022-10-20T14:56	10	15	0.5	15	16	396	0.3	395	397	16.0	88.4
2022-10-20T14:57	10	14	0.4	13	15	396	0.2	395	396	16.0	88.6
2022-10-20T14:58	10	12	0.3	12	13	396	0.2	395	396	16.0	88.5
2022-10-20T14:59	10	11	0.3	11	12	396	0.3	395	396	16.1	88.6
2022-10-20T15:00	10	11	0.2	10	11	395	0.2	395	396	16.0	88.4
2022-10-20T15:01	10	10	0.1	10	11	395	0.3	395	396	16.1	88.2
2022-10-20T15:02	10	10	0.2	10	10	396	0.3	395	396	16.1	88.4
2022-10-20T15:03	10	10	0.2	9	10	395	0.3	395	396	16.0	88.2
2022-10-20T15:04	10	9	0.2	9	9	395	0.2	395	396	16.1	88.0
2022-10-20T15:05	10	9	0.1	9	9	395	0.2	395	396	16.0	88.1
2022-10-20T15:06	10	9	0.1	9	9	395	0.4	395	396	16.0	88.4
2022-10-20T15:07	10	9	0.2	8	9	395	0.3	395	396	16.1	88.5
2022-10-20T15:08	10	8	0.2	8	8	395	0.4	394	396	16.1	88.5
2022-10-20T15:09	10	7	0.1	7	8	395	0.2	394	395	16.0	88.5
2022-10-20T15:10	10	7	0.1	7	7	395	0.3	394	395	16.0	88.5
2022-10-20T15:11	10	8	0.2	7	8	395	0.3	394	395	16.0	88.6
2022-10-20T15:12	10	8	0.2	8	9	395	0.3	394	395	16.0	88.6
2022-10-20T15:13	10	9	0.1	9	9	394	0.2	394	395	15.9	88.6
2022-10-20T15:14	10	9	0.1	9	9	394	0.3	394	395	15.8	88.9
2022-10-20T15:15	10	9	0.2	8	9	394	0.2	394	395	15.8	89.0
2022-10-20T15:16	10	8	0.3	7	8	394	0.3	393	394	15.8	89.0
2022-10-20T15:17	10	6	0.4	6	7	394	0.3	393	394	15.8	89.2
2022-10-20T15:18	10	5	0.2	5	6	394	0.3	393	394	15.8	89.4
2022-10-20T15:19	10	5	0.1	5	5	393	0.3	393	394	15.8	89.6
2022-10-20T15:20	10	5	0.1	5	5	393	0.2	393	394	15.8	89.7
2022-10-20T15:21	10	5	0.1	5	5	393	0.3	393	394	15.8	89.7
2022-10-20T15:22	10	5	0.1	5	5	393	0.2	392	393	15.7	89.8
2022-10-20T15:23	10	5	0.1	5	6	393	0.2	393	393	15.8	89.8
2022-10-20T15:24	10	6	0.1	6	6	393	0.4	392	394	15.8	89.8
2022-10-20T15:25	10	6	0.1	6	6	393	0.5	392	394	15.8	89.9
2022-10-20T15:26	10	6	0.1	6	6	393	0.3	392	393	15.7	89.9
2022-10-20T15:27	10	6	0.1	5	6	393	0.4	392	393	15.7	90.0
2022-10-20T15:28	10	5	0.2	5	6	393	0.2	392	393	15.7	89.9
2022-10-20T15:29	10	5	0.1	5	5	393	0.3	392	393	15.7	89.8
2022-10-20T15:30	10	5	0.1	5	5	392	0.2	392	393	15.7	89.9
2022-10-20T15:31	10	5	0.1	4	5	392	0.5	391	393	15.8	90.1
2022-10-20T15:32	10	5	0.1	4	5	393	0.4	392	393	15.7	90.1
2022-10-20T15:33	10	5	0.1	5	5	392	0.2	391	393	15.7	90.0
2022-10-20T15:34	10	5	0.2	5	6	392	0.3	392	393	15.7	89.9
2022-10-20T15:35	10	6	0.2	6	7	393	0.2	392	393	15.7	89.9
2022-10-20T15:36	10	6	0.2	6	7	393	0.3	392	393	15.7	89.9
2022-10-20T15:37	10	6	0.2	6	6	392	0.2	392	393	15.7	89.5
2022-10-20T15:38	10	6	0.1	5	6	392	0.3	392	393	15.7	89.6
2022-10-20T15:39	10	6	0.1	5	6	392	0.2	392	393	15.7	89.7
2022-10-20T15:40	10	6	0.2	5	6	392	0.2	392	393	15.7	89.6
2022-10-20T15:41	10	6	0.2	6	6	392	0.2	392	393	15.7	89.5
2022-10-20T15:42	10	6	0.1	6	7	392	0.3	392	393	15.7	89.5
2022-10-20T15:43	10	7	0.2	6	7	392	0.3	391	393	15.7	89.5
2022-10-20T15:44	10	7	0.1	6	7	392	0.3	392	393	15.7	89.4
2022-10-20T15:45	10	7	0.2	6	7	392	0.2	392	393	15.7	89.3
2022-10-20T15:46	10	6	0.2	6	7	392	0.3	391	393	15.7	89.4
2022-10-20T15:47	10	6	0.2	6	7	392	0.3	391	393	15.7	89.5
2022-10-20T15:48	10	6	0.2	6	6	392	0.2	391	392	15.7	89.6
2022-10-20T15:49	10	6	0.2	5	6	392	0.3	391	392	15.7	89.6
2022-10-20T15:50	10	5	0.2	5	6	392	0.2	391	392	15.7	89.4
2022-10-20T15:51	10	5	0.1	4	5	392	0.3	391	392	15.7	89.1
2022-10-20T15:52	10	5	0.1	4	5	392	0.2	391	392	15.7	89.1
2022-10-20T15:53	10	5	0.2	4	5	392	0.2	391	392	15.7	89.2
2022-10-20T15:54	10	5	0.1	4	5	392	0.2	392	393	15.7	89.2
2022-10-20T15:55	10	5	0.1	5	5	392	0.2	391	392	15.7	89.2
2022-10-20T15:56	10	5	0.2	4	5	391	0.2	391	392	15.7	89.3
2022-10-20T15:57	10	5	0.1	4	5	391	0.3	390	392	15.7	89.6
2022-10-20T15:58	10	4	0.2	4	5	391	0.2	391	392	15.7	89.8
2022-10-20T15:59	10	4	0.1	3	4	391	0.5	390	392	15.6	89.8
2022-10-20T16:00	10	3	0.1	3	4	391	0.5	390	392	15.7	90.0
2022-10-20T16:01	10	3	0.1	3	3	391	0.2	391	392	15.6	90.1
2022-10-20T16:02	10	3	0.1	3	3	391	0.1	391	391	15.6	90.1
2022-10-20T16:03	10	3	0.1	3	3	391	0.2	390	391	15.6	90.3
2022-10-20T16:04	10	3	0.1	3	3	391	0.5	390	391	15.6	90.2
2022-10-20T16:05	10	3	0.1	2	3	391	0.4	390	392	15.6	90.0
2022-10-20T16:06	10	3	0.1	2	3	391	0.6	390	392	15.7	90.1
2022-10-20T16:07	10	2	0.1	2	2	391	0.4	390	392	15.7	90.2
2022-10-20T16:08	10	2	0.1	2	2	391	0.2	390	391	15.7	90.5
2022-10-20T16:09	10	2	0.1	2	2	391	0.2	390	391	15.6	90.8
2022-10-20T16:10	10	2	0.1	2	2	391	0.2	390	391	15.6	91.2
2022-10-20T16:11	10	2	0.1	2	2	390	0.2	390	391	15.6	91.2
2022-10-20T16:12	10	2	0.1	2	2	391	0.2	390	391	15.6	91.2
2022-10-20T16:13	10	2	0.0	2	2	391	0.2	390	391	15.7	91.0
2022-10-20T16:14	10	2	0.0	2	2	390	0.2	390	390	15.5	91.1
2022-10-20T16:15	10	2	0.0	2	2	390	0.3	390	391	15.5	91.6
2022-10-20T16:16	10	2	0.0	2	2	390	0.3	389	390	15.5	92.0
2022-10-20T16:17	10	2	0.0	2	2	390	0.2	389	390	15.5	92.2
2022-10-20T16:18	10	2	0.1	2	2	389	0.2	389	390	15.5	91.8
2022-10-20T16:19	10	2	0.0	2	2	389	0.2	389	390	15.5	91.5
2022-10-20T16:20	10	2	0.1	2	2	389	0.2	389	390	15.5	91.5
2022-10-20T16:21	10	2	0.1	2	2	389	0.2	388	389	15.5	91.5
2022-10-20T16:22	10	2	0.0	2	2	389	0.2	388	390	15.5	91.5
2022-10-20T16:23	10	2	0.1	2	2	389	0.3	388	389	15.5	91.4
2022-10-20T16:24	10	2	0.1	2	2	389	0.2	388	389	15.5	91.5
2022-10-20T16:25	10	2	0.1	2	2	388	0.2	388	389	15.5	91.5
2022-10-20T16:26	10	2	0.1	1	2	388	0.3	388	389	15.5	91.5
2022-10-20T16:27	10	2	0.1	1	2	388	0.2	388	389	15.5	91.5
2022-10-20T16:28	10	2	0.1	1	2	388	0.2	388	388	15.5	91.5
2022-10-20T16:29	10	1	0.1	1	2	388	0.3	388	389	15.5	91.6
2022-10-20T16:30	10	1	0.1	1	1	388	0.2	388	389	15.4	91.8
2022-10-20T16:31	10	1	0.1	1	1	388	0.2	388	389	15.4	91.9
2022-10-20T16:32	10	1	0.1	1	1	388	0.2	388	389	15.4	92.0
2022-10-20T16:33	10	1	0.1	1	1	388	0.2	387	388	15.4	92.3
2022-10-20T16:34	10	1	0.1	1	1	388	0.3	387	389	15.4	92.6
2022-10-20T16:35	10	1	0.1	1	1	388	0.2	387	389	15.4	92.8
2022-10-20T16:36	10	1	0.1	1	1	388	0.3	387	388	15.4	93.0
2022-10-20T16:37	10	1	0.1	1	1	388	0.2	387	388	15.4	93.0
2022-10-20T16:38	10	1	0.1	1	1	387	0.3	387	388	15.4	92.8
2022-10-20T16:39	10	1	0.1	1	1	387	0.2	387	388	15.4	92.9
2022-10-20T16:40	10	1	0.1	1	1	387	0.2	387	387	15.5	93.0
2022-10-20T16:41	10	1	0.1	1	1	387	0.3	387	388	15.5	93.0
2022-10-20T16:42	10	1	0.1	0	1	387	0.3	387	388	15.5	93.0
2022-10-20T16:43	10	1	0.1	1	1	387	0.7	386	388	15.4	93.1
2022-10-20T16:44	10	1	0.1	0	1	388	0.5	387	389	15.4	93.1
2022-10-20T16:45	10	1	0.1	0	1	388	0.3	387	388	15.4	93.1
2022-10-20T16:46	10	1	0.1	1	1	388	0.3	387	388	15.4	93.0
2022-10-20T16:47	10	1	0.1	1	1	387	0.2	387	388	15.4	93.1
2022-10-20T16:48	10	1	0.1	1	1	387	0.2	387	388	15.3	93.3
2022-10-20T16:49	10	1	0.1	1	1	387	0.2	387	388	15.4	93.3
2022-10-20T16:50	10	1	0.1	1	1	387	0.3	386	388	15.4	93.2
2022-10-20T16:51	10	1	0.1	1	1	387	0.2	387	387	15.4	93.2
2022-10-20T16:52	10	1	0.1	1	1	387	0.3	386	388	15.4	93.2
2022-10-20T16:53	10	1	0.1	0	1	387	0.5	386	388	15.4	93.2
2022-10-20T16:54	10	1	0.1	0	1	387	0.3	387	388	15.4	93.3
2022-10-20T16:55	10	0	0.1	0	1	387	0.3	386	388	15.4	93.3
2022-10-20T16:56	10	0	0.1	0	1	387	0.3	386	388	15.4	93.3
2022-10-20T16:57	10	0	0.1	0	1	387	0.4	386	388	15.4	93.3
2022-10-20T16:58	10	0	0.1	0	1	387	0.3	387	388	15.3	93.5
2022-10-20T16:59	10	1	0.1	0	1	387	0.3	387	388	15.3	93.7
2022-10-20T17:00	10	1	0.1	0	1	387	0.3	387	388	15.3	93.8
2022-10-20T17:01	10	1	0.1	0	1	387	0.3	386	388	15.3	93.9
2022-10-20T17:02	10	1	0.1	0	1	387	0.2	387	388	15.3	94.0
2022-10-20T17:03	10	1	0.1	0	1	388	0.2	387	388	15.4	94.1
2022-10-20T17:04	10	1	0.1	0	1	388	0.3	387	388	15.4	94.0
2022-10-20T17:05	10	1	0.1	0	1	387	0.4	387	389	15.4	93.9
2022-10-20T17:06	10	1	0.1	0	1	387	0.3	387	388	15.3	93.9
2022-10-20T17:07	10	1	0.1	0	1	387	0.3	387	388	15.2	94.1
2022-10-20T17:08	10	1	0.1	1	1	387	0.3	387	388	15.2	94.3
2022-10-20T17:09	10	1	0.1	1	1	387	0.2	386	387	15.1	94.3
2022-10-20T17:10	10	1	0.1	0	1	386	0.3	386	387	15.1	94.6
2022-10-20T17:11	10	1	0.1	0	1	386	0.3	386	387	15.1	94.8
2022-10-20T17:12	10	0	0.1	0	1	386	0.2	386	387	15.1	95.0
2022-10-20T17:13	10	0	0.1	0	0	386	0.2	386	387	15.1	95.1
2022-10-20T17:14	10	0	0.1	0	0	386	0.2	385	386	15.0	95.3
2022-10-20T17:15	10	0	0.1	0	0	386	0.3	385	387	15.0	95.5
2022-10-20T17:16	10	0	0.1	0	0	386	0.2	386	386	15.1	95.5
2022-10-20T17:17	10	0	0.1	0	0	386	0.3	386	387	15.1	95.4
2022-10-20T17:18	10	0	0.1	0	0	386	0.2	385	387	15.0	95.4
2022-10-20T17:19	10	0	0.1	0	0	386	0.3	385	386	14.9	95.6
2022-10-20T17:20	10	0	0.1	0	0	386	0.2	385	386	14.9	95.8
2022-10-20T17:21	10	0	0.1	0	0	386	0.2	385	386	15.0	96.0
2022-10-20T17:22	10	0	0.1	0	1	385	0.2	385	386	15.0	96.0
2022-10-20T17:23	10	0	0.1	0	1	385	0.4	384	386	15.0	95.9
2022-10-20T17:24	10	1	0.1	0	1	385	0.2	384	385	15.0	95.9
2022-10-20T17:25	10	1	0.1	1	1	385	0.2	385	386	15.0	95.8
2022-10-20T17:26	10	1	0.1	0	1	385	0.2	385	386	15.0	95.7
2022-10-20T17:27	10	1	0.1	1	1	385	0.5	385	387	15.0	95.7
2022-10-20T17:28	10	1	0.1	0	1	385	0.3	385	386	14.9	95.7
2022-10-20T17:29	10	0	0.1	0	1	386	0.2	385	386	14.8	95.8
2022-10-20T17:30	10	0	0.1	0	0	386	0.3	385	386	14.9	96.0
2022-10-20T17:31	10	0	0.1	0	0	386	0.3	385	387	14.9	96.1
2022-10-20T17:32	10	0	0.1	0	0	386	0.3	385	387	15.0	96.0
2022-10-20T17:33	10	0	0.1	0	0	386	0.3	385	387	15.0	96.0
2022-10-20T17:34	10	0	0.1	0	0	386	0.3	385	386	15.1	95.9
2022-10-20T17:35	10	0	0.1	0	0	385	0.3	385	386	15.1	95.8
2022-10-20T17:36	10	0	0.1	0	0	385	0.3	384	385	15.1	95.7
2022-10-20T17:37	10	0	0.1	0	0	385	0.2	384	385	15.1	95.6
2022-10-20T17:38	10	0	0.1	0	0	384	0.3	384	385	15.1	95.4
2022-10-20T17:39	10	0	0.1	0	0	384	0.3	383	384	15.1	95.4
2022-10-20T17:40	10	0	0.1	0	0	383	0.3	382	383	15.1	95.3
2022-10-20T17:41	10	0	0.1	0	1	383	0.3	382	383	15.1	95.3
2022-10-20T17:42	10	0	0.1	0	1	383	0.2	382	383	15.1	95.2
2022-10-20T17:43	10	0	0.1	0	1	383	0.2	382	383	15.1	95.1
2022-10-20T17:44	10	0	0.1	0	1	383	0.3	383	384	15.1	94.9
2022-10-20T17:45	10	0	0.1	0	1	383	0.2	382	383	15.0	94.9
2022-10-20T17:46	10	1	0.1	0	1	383	0.3	382	383	15.0	95.0
2022-10-20T17:47	10	1	0.1	0	1	382	0.3	382	383	14.9	95.1
2022-10-20T17:48	10	1	0.1	1	1	382	0.3	381	383	14.9	95.2
2022-10-20T17:49	10	1	0.1	0	1	382	0.2	381	383	14.9	95.3
2022-10-20T17:50	10	1	0.1	0	1	382	0.3	381	383	14.9	95.4
2022-10-20T17:51	10	1	0.1	0	1	382	0.3	381	383	14.9	95.5
2022-10-20T17:52	10	1	0.1	0	1	382	0.2	381	383	14.8	95.7
2022-10-20T17:53	10	1	0.1	1	1	382	0.2	381	382	14.8	95.8
2022-10-20T17:54	10	1	0.1	0	1	382	0.2	381	382	14.8	95.9
2022-10-20T17:55	10	1	0.1	0	1	382	0.3	382	383	14.8	95.9
2022-10-20T17:56	10	1	0.1	0	1	382	0.3	381	383	14.8	96.0
2022-10-20T17:57	10	1	0.1	0	1	381	0.3	381	382	14.8	96.1
2022-10-20T17:58	10	1	0.1	0	1	381	0.3	381	382	14.8	96.1
2022-10-20T17:59	10	1	0.1	0	1	381	0.2	381	382	14.8	96.1
2022-10-20T18:00	10	0	0.1	0	1	381	0.2	380	381	14.8	96.1
2022-10-20T18:01	10	1	0.1	0	1	381	0.2	380	382	14.8	96.2
2022-10-20T18:02	10	1	0.1	0	1	381	0.3	380	381	14.8	96.2
2022-10-20T18:03	10	1	0.1	1	1	381	0.2	380	381	14.8	96.2
2022-10-20T18:04	10	1	0.1	1	1	380	0.3	380	381	14.8	96.2
2022-10-20T18:05	10	1	0.1	1	1	380	0.2	379	380	14.8	96.3
2022-10-20T18:06	10	1	0.0	1	1	380	0.2	379	380	14.8	96.3
2022-10-20T18:07	10	1	0.1	1	1	380	0.2	379	380	14.7	96.3
2022-10-20T18:08	10	1	0.1	1	1	379	0.3	379	380	14.6	96.3
2022-10-20T18:09	10	1	0.1	1	1	379	0.3	379	380	14.7	96.4
2022-10-20T18:10	10	1	0.1	1	1	379	0.2	378	379	14.7	96.4
2022-10-20T18:11	10	1	0.1	1	1	378	0.3	378	379	14.7	96.4
2022-10-20T18:12	10	1	0.0	1	1	378	0.2	378	379	14.7	96.4
2022-10-20T18:13	10	1	0.1	1	1	378	0.2	378	379	14.7	96.4
2022-10-20T18:14	10	1	0.1	1	1	378	0.2	378	379	14.6	96.4
2022-10-20T18:15	10	1	0.1	1	1	378	0.3	377	379	14.6	96.5
2022-10-20T18:16	10	1	0.1	1	1	378	0.2	378	379	14.6	96.6
2022-10-20T18:17	10	1	0.1	1	1	378	0.2	377	378	14.6	96.7
2022-10-20T18:18	10	1	0.1	1	1	377	0.3	377	378	14.6	96.7
2022-10-20T18:19	10	1	0.1	1	1	377	0.3	376	378	14.5	96.8
2022-10-20T18:20	10	1	0.1	1	1	377	0.2	376	377	14.4	96.8
2022-10-20T18:21	10	1	0.1	0	1	377	0.2	376	377	14.5	97.0
2022-10-20T18:22	10	1	0.1	0	1	377	0.3	376	377	14.4	97.1
2022-10-20T18:23	10	1	0.1	0	1	377	0.2	377	378	14.4	97.2
2022-10-20T18:24	10	1	0.0	0	1	378	0.2	378	378	14.4	97.3
2022-10-20T18:25	10	0	0.1	0	1	378	0.4	377	379	14.3	97.4
2022-10-20T18:26	10	0	0.1	0	1	379	0.2	379	380	14.4	97.6
2022-10-20T18:27	10	0	0.1	0	1	379	0.2	378	379	14.4	97.7
2022-10-20T18:28	10	0	0.1	0	0	378	0.2	378	379	14.4	97.7
2022-10-20T18:29	10	0	0.0	0	0	378	0.2	378	379	14.5	97.8
2022-10-20T18:30	10	0	0.1	0	1	378	0.2	378	379	14.5	97.7
2022-10-20T18:31	10	0	0.1	0	1	378	0.2	377	378	14.4	97.6
2022-10-20T18:32	10	0	0.1	0	1	378	0.2	378	379	14.5	97.6
2022-10-20T18:33	10	1	0.1	0	1	378	0.3	377	378	14.5	97.5
2022-10-20T18:34	10	1	0.1	0	1	378	0.3	377	378	14.5	97.4
2022-10-20T18:35	10	1	0.1	0	1	377	0.2	377	378	14.5	97.4
2022-10-20T18:36	10	1	0.1	0	1	377	0.3	376	377	14.5	97.4
2022-10-20T18:37	10	1	0.1	1	1	376	0.3	376	377	14.5	97.3
2022-10-20T18:38	10	1	0.1	0	1	375	0.3	375	376	14.5	97.3
2022-10-20T18:39	10	1	0.1	1	1	375	0.2	374	375	14.4	97.3
2022-10-20T18:40	10	1	0.2	0	2	375	0.3	374	375	14.4	97.3
2022-10-20T18:41	10	1	0.1	1	1	374	0.3	373	375	14.4	97.3
2022-10-20T18:42	10	1	0.1	1	1	375	0.3	374	375	14.5	97.3
2022-10-20T18:43	10	1	0.1	1	1	375	0.2	375	376	14.5	97.3
2022-10-20T18:44	10	1	0.2	1	1	375	0.3	375	376	14.5	97.2
2022-10-20T18:45	10	1	0.2	1	2	375	0.2	374	375	14.5	97.1
2022-10-20T18:46	10	1	0.1	1	1	374	0.3	373	375	14.4	97.0
2022-10-20T18:47	10	1	0.2	1	1	374	0.2	374	375	14.2	96.9
2022-10-20T18:48	10	1	0.2	0	1	374	0.3	373	375	14.0	97.0
2022-10-20T18:49	10	0	0.2	0	1	374	0.2	374	375	14.0	97.2
2022-10-20T18:50	10	0	0.2	0	1	374	0.4	373	375	14.0	97.4
2022-10-20T18:51	10	0	0.2	0	0	374	0.2	373	374	14.0	97.6
2022-10-20T18:52	10	0	0.2	0	0	374	0.3	373	374	14.0	97.7
2022-10-20T18:53	10	0	0.2	0	0	373	0.3	372	374	14.0	97.8
2022-10-20T18:54	10	0	0.2	0	0	373	0.3	372	373	14.1	97.9
2022-10-20T18:55	10	0	0.2	0	1	373	0.3	372	373	14.2	98.1
2022-10-20T18:56	10	0	0.2	0	1	372	0.3	371	373	14.1	98.1
2022-10-20T18:57	10	0	0.2	0	1	372	0.5	371	373	14.3	98.2
2022-10-20T18:58	10	0	0.2	0	1	373	0.7	372	375	14.2	98.1
2022-10-20T18:59	10	0	0.1	0	1	373	0.3	372	374	14.2	98.1
2022-10-20T19:00	10	1	0.2	0	1	373	0.5	372	374	14.1	98.1
2022-10-20T19:01	10	0	0.1	0	1	373	0.6	372	375	14.1	98.0
2022-10-20T19:02	10	0	0.2	0	1	373	0.6	372	374	14.0	98.0
2022-10-20T19:03	10	0	0.2	0	1	372	0.3	371	373	14.0	98.0
2022-10-20T19:04	10	0	0.2	0	1	372	0.2	371	373	13.9	98.1
2022-10-20T19:05	10	1	0.2	0	1	372	0.3	371	373	14.0	98.2
2022-10-20T19:06	10	1	0.2	0	1	371	0.3	371	372	13.9	98.3
2022-10-20T19:07	10	1	0.1	1	1	371	0.7	370	372	13.9	98.3
2022-10-20T19:08	10	1	0.1	1	1	371	0.4	370	371	13.9	98.4
2022-10-20T19:09	10	1	0.1	1	1	371	0.3	370	371	13.9	98.4
2022-10-20T19:10	10	1	0.1	0	1	371	0.4	370	372	13.9	98.5
2022-10-20T19:11	10	1	0.1	1	1	371	0.4	371	372	13.9	98.6
2022-10-20T19:12	10	1	0.1	0	1	372	0.2	371	372	13.9	98.7
2022-10-20T19:13	10	1	0.1	0	1	371	0.3	371	372	13.9	98.8
2022-10-20T19:14	10	1	0.2	0	1	371	0.3	371	372	13.9	98.9
2022-10-20T19:15	10	1	0.1	0	1	371	0.3	370	372	13.8	98.9
2022-10-20T19:16	10	1	0.1	0	1	370	0.2	370	371	13.7	98.9
2022-10-20T19:17	10	1	0.1	0	1	371	0.3	370	371	13.8	98.9
2022-10-20T19:18	10	1	0.1	0	1	371	0.3	371	372	13.7	98.9
2022-10-20T19:19	10	0	0.1	0	1	372	0.2	371	372	13.6	98.9
2022-10-20T19:20	10	0	0.1	0	1	372	0.2	371	372	13.6	98.9
2022-10-20T19:21	10	0	0.1	0	0	372	0.2	371	372	13.7	99.0
2022-10-20T19:22	10	0	0.1	0	0	372	0.2	371	372	13.9	99.1
2022-10-20T19:23	10	0	0.1	0	1	371	0.2	371	372	13.9	99.2
2022-10-20T19:24	10	0	0.1	0	1	372	0.2	371	372	13.9	99.2
2022-10-20T19:25	10	1	0.1	0	1	372	0.2	371	372	14.0	99.2
2022-10-20T19:26	10	1	0.1	0	1	372	0.2	371	372	13.9	99.2
2022-10-20T19:27	10	1	0.1	1	1	371	0.3	371	372	13.9	99.2
2022-10-20T19:28	10	1	0.1	1	1	371	0.2	371	372	13.9	99.2
2022-10-20T19:29	10	1	0.1	1	1	371	0.2	370	372	14.0	99.2
2022-10-20T19:30	10	1	0.1	1	1	371	0.3	370	372	14.1	99.2
2022-10-20T19:31	10	1	0.1	1	1	372	0.3	371	372	14.1	99.2
2022-10-20T19:32	10	1	0.1	1	1	373	0.3	372	373	14.1	99.2
2022-10-20T19:33	10	1	0.1	1	1	373	0.2	373	374	14.1	99.2
2022-10-20T19:34	10	1	0.1	1	1	374	0.3	373	374	14.0	99.2
2022-10-20T19:35	10	1	0.1	1	1	374	0.4	374	375	14.0	99.2
2022-10-20T19:36	10	1	0.1	0	1	375	0.2	374	376	14.0	99.2
2022-10-20T19:37	10	1	0.1	1	1	375	0.2	375	376	13.9	99.2
2022-10-20T19:38	10	1	0.1	0	1	375	0.2	375	376	13.9	99.2
2022-10-20T19:39	10	1	0.1	0	1	375	0.3	375	376	14.1	99.2
2022-10-20T19:40	10	1	0.1	0	1	375	0.2	375	376	14.1	99.2
2022-10-20T19:41	10	1	0.1	0	1	375	0.3	374	376	14.2	99.2
2022-10-20T19:42	10	0	0.1	0	1	375	0.2	374	375	13.9	99.2
2022-10-20T19:43	10	0	0.1	0	1	375	0.3	374	375	13.9	99.2
2022-10-20T19:44	10	0	0.1	0	1	374	0.3	373	374	13.9	99.2
2022-10-20T19:45	10	0	0.1	0	0	373	0.2	373	374	13.9	99.2
2022-10-20T19:46	10	0	0.1	0	0	373	0.3	372	373	13.8	99.1
2022-10-20T19:47	10	0	0.1	0	1	372	0.2	372	373	13.7	99.1
2022-10-20T19:48	10	0	0.1	0	1	372	0.2	372	372	13.8	99.1
2022-10-20T19:49	10	0	0.1	0	1	372	0.3	371	372	13.7	99.0
2022-10-20T19:50	10	0	0.1	0	1	371	0.2	371	372	13.8	99.0
2022-10-20T19:51	10	0	0.1	0	1	371	0.2	371	372	13.9	99.1
2022-10-20T19:52	10	0	0.1	0	1	371	0.3	370	372	13.7	99.0
2022-10-20T19:53	10	0	0.1	0	1	371	0.2	371	372	13.7	99.0
2022-10-20T19:54	10	0	0.1	0	1	371	0.2	371	372	13.8	99.1
2022-10-20T19:55	10	0	0.1	0	0	371	0.3	370	372	13.8	99.1
2022-10-20T19:56	10	0	0.1	0	1	371	0.2	371	372	14.1	99.2
2022-10-20T19:57	10	0	0.1	0	1	372	0.2	371	372	14.2	99.2
2022-10-20T19:58	10	1	0.1	0	1	372	0.2	371	372	14.2	99.2
2022-10-20T19:59	10	1	0.1	0	1	371	0.5	370	372	14.1	99.1
2022-10-20T20:00	10	1	0.1	1	1	371	0.3	370	372	13.9	99.0
2022-10-20T20:01	10	1	0.1	1	1	371	1.0	369	372	13.8	98.9
2022-10-20T20:02	10	1	0.1	1	1	371	0.2	370	371	13.2	98.6
2022-10-20T20:03	10	0	0.1	0	1	371	0.3	371	372	13.3	98.5
2022-10-20T20:04	10	0	0.1	0	0	372	0.4	372	373	13.3	98.5
2022-10-20T20:05	10	0	0.1	0	0	372	0.4	371	373	13.1	98.5
2022-10-20T20:06	10	0	0.1	0	0	371	0.5	370	372	13.1	98.4
2022-10-20T20:07	10	0	0.1	-1	0	370	0.3	369	371	13.1	98.5
2022-10-20T20:08	10	0	0.1	-1	0	370	0.3	369	370	13.0	98.4
2022-10-20T20:09	10	0	0.1	0	0	369	0.6	368	370	13.0	98.5
2022-10-20T20:10	10	0	0.1	0	0	370	0.8	368	371	13.0	98.6
2022-10-20T20:11	10	0	0.1	0	1	370	0.3	369	371	13.2	98.8
2022-10-20T20:12	10	0	0.1	0	1	370	0.2	370	370	13.0	98.8
2022-10-20T20:13	10	1	0.1	0	1	370	0.3	370	371	13.0	98.8
2022-10-20T20:14	10	1	0.1	0	1	370	0.2	370	371	13.1	98.9
2022-10-20T20:15	10	1	0.1	1	1	370	0.3	370	371	13.1	98.9
2022-10-20T20:16	10	1	0.1	1	1	371	0.3	370	372	12.9	98.9
2022-10-20T20:17	10	1	0.1	1	1	372	0.5	371	373	13.0	99.0
2022-10-20T20:18	10	1	0.1	0	1	372	0.4	372	373	12.9	99.0
2022-10-20T20:19	10	1	0.1	0	1	372	0.3	372	373	12.9	99.1
2022-10-20T20:20	10	1	0.1	0	1	373	0.3	372	374	12.9	99.1
2022-10-20T20:21	10	0	0.1	0	1	373	0.2	373	374	12.9	99.2
2022-10-20T20:22	10	0	0.1	0	1	373	0.2	373	374	13.0	99.2
2022-10-20T20:23	10	0	0.1	0	1	373	0.2	373	374	12.8	99.2
2022-10-20T20:24	10	0	0.1	0	0	374	0.2	373	374	12.8	99.2
2022-10-20T20:25	10	0	0.1	0	0	374	0.3	374	375	12.8	99.2
2022-10-20T20:26	10	0	0.1	0	0	374	0.3	374	375	12.9	99.2
2022-10-20T20:27	10	0	0.1	0	0	375	0.2	374	375	13.1	99.2
2022-10-20T20:28	10	0	0.1	0	0	375	0.3	374	375	13.3	99.2
2022-10-20T20:29	10	0	0.1	0	0	375	0.3	374	376	13.3	99.2
2022-10-20T20:30	10	0	0.1	0	0	375	0.2	374	375	13.4	99.2
2022-10-20T20:31	10	0	0.1	0	0	375	0.2	374	375	13.4	99.2
2022-10-20T20:32	10	0	0.1	0	1	375	0.3	374	375	13.4	99.2
2022-10-20T20:33	10	0	0.1	0	1	375	0.2	375	376	13.4	99.2
2022-10-20T20:34	10	0	0.1	0	1	375	0.2	374	375	13.4	99.2
2022-10-20T20:35	10	0	0.1	0	0	375	0.3	375	376	13.2	99.2
2022-10-20T20:36	10	0	0.1	0	0	375	0.2	374	376	13.1	99.2
2022-10-20T20:37	10	0	0.1	0	1	375	0.3	375	376	13.2	99.2
2022-10-20T20:38	10	0	0.1	0	1	376	0.2	376	376	13.6	99.2
2022-10-20T20:39	10	0	0.1	0	1	376	0.4	375	377	13.2	99.2
2022-10-20T20:40	10	0	0.1	0	1	376	0.4	375	377	12.9	99.2
2022-10-20T20:41	10	0	0.1	0	0	377	0.2	376	377	13.3	99.2
2022-10-20T20:42	10	0	0.1	0	0	377	0.4	377	378	13.7	99.2
2022-10-20T20:43	10	0	0.1	0	1	377	0.3	377	378	13.7	99.2
2022-10-20T20:44	10	0	0.1	0	1	377	0.3	377	378	13.6	99.2
2022-10-20T20:45	10	1	0.1	0	1	377	0.3	376	377	13.4	99.2
2022-10-20T20:46	10	1	0.1	1	1	376	0.2	376	377	13.5	99.2
2022-10-20T20:47	10	1	0.1	1	1	377	0.3	376	377	13.6	99.2
2022-10-20T20:48	10	1	0.1	1	1	377	0.2	377	378	13.8	99.2
2022-10-20T20:49	10	1	0.1	1	1	377	0.4	376	378	13.6	99.2
2022-10-20T20:50	10	1	0.1	1	1	377	0.7	376	378	13.4	99.2
2022-10-20T20:51	10	1	0.1	1	1	377	0.5	376	378	13.4	99.2
2022-10-20T20:52	10	1	0.1	0	1	377	0.6	376	378	13.8	99.2
2022-10-20T20:53	10	1	0.1	0	1	377	0.3	377	378	13.4	99.2
2022-10-20T20:54	10	1	0.1	1	1	377	0.2	377	378	13.4	99.2
2022-10-20T20:55	10	1	0.1	0	1	377	0.3	377	378	13.4	99.2
2022-10-20T20:56	10	1	0.1	1	1	378	0.2	377	378	13.4	99.2
2022-10-20T20:57	10	1	0.1	1	1	378	0.3	378	379	13.6	99.2
2022-10-20T20:58	10	1	0.1	1	1	378	0.2	378	379	13.6	99.2
2022-10-20T20:59	10	1	0.1	1	1	378	0.4	378	379	13.4	99.2
2022-10-20T21:00	10	1	0.1	1	1	378	0.3	377	378	13.3	99.2
2022-10-20T21:01	10	1	0.1	1	1	378	0.3	377	378	13.2	99.2
2022-10-20T21:02	10	1	0.1	1	1	378	0.3	377	378	13.2	99.2
2022-10-20T21:03	10	1	0.1	1	1	378	0.2	377	378	13.4	99.2
2022-10-20T21:04	10	1	0.1	1	1	378	0.2	377	378	13.4	99.2
2022-10-20T21:05	10	1	0.1	1	1	378	0.2	377	378	13.4	99.2
2022-10-20T21:06	10	1	0.1	1	1	377	0.2	377	378	13.3	99.2
2022-10-20T21:07	10	1	0.1	1	1	377	0.3	376	377	13.3	99.2
2022-10-20T21:08	10	1	0.1	1	1	377	0.5	375	377	13.2	99.2
2022-10-20T21:09	10	1	0.1	1	1	377	0.3	376	377	13.3	99.2
2022-10-20T21:10	10	1	0.1	0	1	377	0.3	376	378	13.4	99.2
2022-10-20T21:11	10	0	0.1	0	1	377	0.2	377	378	13.4	99.2
2022-10-20T21:12	10	0	0.1	0	1	377	0.3	377	378	13.4	99.2
2022-10-20T21:13	10	0	0.1	0	1	378	0.6	377	379	13.4	99.2
2022-10-20T21:14	10	0	0.1	0	1	377	0.4	376	378	13.4	99.2
2022-10-20T21:15	10	0	0.1	0	1	377	0.3	377	378	13.3	99.2
2022-10-20T21:16	10	1	0.1	0	1	377	0.3	377	378	13.3	99.2
2022-10-20T21:17	10	1	0.1	0	1	377	0.2	376	377	13.3	99.2
2022-10-20T21:18	10	1	0.1	1	1	377	0.2	376	377	13.2	99.2
2022-10-20T21:19	10	1	0.1	1	1	377	0.2	376	377	13.3	99.2
2022-10-20T21:20	10	1	0.1	1	1	377	0.3	376	377	13.2	99.2
2022-10-20T21:21	10	1	0.1	1	1	377	0.2	376	377	13.2	99.2
2022-10-20T21:22	10	1	0.1	1	1	377	0.2	376	377	13.3	99.2
2022-10-20T21:23	10	1	0.1	1	1	377	0.2	376	377	13.3	99.2
2022-10-20T21:24	10	1	0.1	1	1	377	0.2	376	377	13.3	99.2
2022-10-20T21:25	10	1	0.1	1	1	377	0.2	376	377	13.3	99.2
2022-10-20T21:26	10	1	0.1	1	1	377	0.2	376	377	13.2	99.2
2022-10-20T21:27	10	1	0.1	1	1	377	0.3	376	377	13.2	99.2
2022-10-20T21:28	10	1	0.1	1	1	376	0.2	376	377	13.2	99.2
2022-10-20T21:29	10	1	0.1	1	1	376	0.2	376	377	13.2	99.2
2022-10-20T21:30	10	1	0.1	1	1	376	0.2	376	377	13.2	99.2
2022-10-20T21:31	10	1	0.1	1	1	376	0.2	376	377	13.2	99.2
2022-10-20T21:32	10	1	0.1	1	1	376	0.2	375	377	13.2	99.2
2022-10-20T21:33	10	1	0.1	1	1	376	0.2	375	376	13.2	99.2
2022-10-20T21:34	10	1	0.1	1	1	376	0.3	375	376	13.2	99.2
2022-10-20T21:35	10	1	0.1	1	1	376	0.2	376	377	13.2	99.2
2022-10-20T21:36	10	1	0.1	1	1	376	0.2	376	377	13.2	99.2
2022-10-20T21:37	10	1	0.1	1	1	376	0.2	375	376	13.2	99.2
2022-10-20T21:38	10	1	0.1	1	1	376	0.2	375	376	13.3	99.2
2022-10-20T21:39	10	1	0.1	1	1	376	0.2	375	376	13.3	99.2
2022-10-20T21:40	10	1	0.1	1	1	376	0.2	375	376	13.3	99.2
2022-10-20T21:41	10	1	0.1	1	1	376	0.3	375	376	13.3	99.2
2022-10-20T21:42	10	1	0.1	1	1	376	0.4	375	376	13.3	99.2
2022-10-20T21:43	10	1	0.1	1	1	375	0.4	374	376	13.1	99.2
2022-10-20T21:44	10	1	0.1	0	1	375	0.4	374	376	13.0	99.2
2022-10-20T21:45	10	1	0.1	0	1	375	0.5	374	376	13.0	99.2
2022-10-20T21:46	10	0	0.1	0	1	376	0.3	375	376	12.9	99.2
2022-10-20T21:47	10	0	0.1	0	0	376	0.2	375	376	12.9	99.2
2022-10-20T21:48	10	0	0.1	0	0	376	0.3	375	376	13.0	99.2
2022-10-20T21:49	10	0	0.1	0	0	376	0.2	375	376	12.9	99.2
2022-10-20T21:50	10	0	0.1	0	0	376	0.2	375	377	12.8	99.2
2022-10-20T21:51	10	0	0.1	0	0	376	0.3	376	377	12.8	99.2
2022-10-20T21:52	10	0	0.1	-1	0	377	0.3	376	378	12.8	99.2
2022-10-20T21:53	10	-1	0.1	-1	0	377	0.8	376	379	12.8	99.2
2022-10-20T21:54	10	-1	0.1	-1	0	377	0.5	376	378	12.8	99.2
2022-10-20T21:55	10	0	0.1	-1	0	377	0.6	376	378	12.8	99.2
2022-10-20T21:56	10	0	0.1	0	0	376	0.3	376	377	12.8	99.2
2022-10-20T21:57	10	0	0.1	0	0	377	0.2	376	377	12.8	99.2
2022-10-20T21:58	10	0	0.1	0	0	376	0.2	376	377	12.8	99.2
2022-10-20T21:59	10	0	0.1	0	1	376	0.2	376	377	12.8	99.2
2022-10-20T22:00	10	1	0.1	0	1	376	0.2	376	377	12.8	99.2
2022-10-20T22:01	10	1	0.1	0	1	376	0.3	375	377	12.8	99.2
2022-10-20T22:02	10	1	0.1	1	1	376	0.2	376	376	12.8	99.2
2022-10-20T22:03	10	1	0.1	0	1	376	0.2	376	376	12.8	99.2
2022-10-20T22:04	10	1	0.1	1	1	376	0.2	375	376	12.8	99.2
2022-10-20T22:05	10	1	0.1	1	1	376	0.3	375	377	12.9	99.2
2022-10-20T22:06	10	1	0.1	1	1	376	0.3	375	377	12.9	99.2
2022-10-20T22:07	10	1	0.1	0	1	376	0.2	376	377	12.9	99.2
2022-10-20T22:08	10	1	0.1	0	1	376	0.2	376	377	12.9	99.2
2022-10-20T22:09	10	1	0.1	0	1	376	0.2	376	377	12.9	99.2
2022-10-20T22:10	10	1	0.1	1	1	376	0.2	376	377	12.9	99.2
2022-10-20T22:11	10	1	0.1	1	1	376	0.2	375	376	12.9	99.2
2022-10-20T22:12	10	1	0.1	1	1	376	0.2	375	376	12.8	99.2
2022-10-20T22:13	10	1	0.1	1	1	376	0.3	375	377	12.8	99.2
2022-10-20T22:14	10	1	0.1	1	1	376	0.2	375	376	12.8	99.2
2022-10-20T22:15	10	1	0.1	1	1	376	0.3	376	376	12.8	99.2
2022-10-20T22:16	10	1	0.1	1	1	376	0.2	375	376	12.8	99.2
2022-10-20T22:17	10	1	0.1	1	1	376	0.2	375	376	12.8	99.2
2022-10-20T22:18	10	1	0.1	1	1	376	0.2	375	376	12.8	99.2
2022-10-20T22:19	10	1	0.1	1	1	376	0.2	375	376	12.8	99.2
2022-10-20T22:20	10	1	0.1	1	1	376	0.3	375	376	12.8	99.2
2022-10-20T22:21	10	1	0.1	1	1	376	0.3	375	377	12.8	99.2
2022-10-20T22:22	10	1	0.1	1	1	376	0.2	376	377	12.7	99.2
2022-10-20T22:23	10	1	0.1	0	1	376	0.2	375	377	12.7	99.2
2022-10-20T22:24	10	1	0.1	0	1	376	0.2	376	377	12.7	99.2
2022-10-20T22:25	10	1	0.1	0	1	376	0.2	376	377	12.8	99.2
2022-10-20T22:26	10	1	0.1	0	1	376	0.3	375	377	12.8	99.2
2022-10-20T22:27	10	0	0.1	0	1	376	0.2	375	376	12.8	99.2
2022-10-20T22:28	10	0	0.1	0	0	376	0.3	376	377	12.9	99.2
2022-10-20T22:29	10	0	0.1	0	0	376	0.3	376	377	13.0	99.2
2022-10-20T22:30	10	0	0.1	0	0	376	0.2	376	377	12.9	99.2
2022-10-20T22:31	10	0	0.1	0	1	376	0.2	376	376	12.9	99.2
2022-10-20T22:32	10	0	0.1	0	1	376	0.2	375	376	12.8	99.2
2022-10-20T22:33	10	1	0.1	0	1	376	0.2	375	376	12.8	99.2
2022-10-20T22:34	10	1	0.1	0	1	376	0.2	375	376	12.8	99.2
2022-10-20T22:35	10	1	0.1	0	1	376	0.2	375	376	12.8	99.2
2022-10-20T22:36	10	1	0.0	1	1	376	0.2	375	376	12.8	99.2
2022-10-20T22:37	10	1	0.1	1	1	375	0.2	375	376	12.8	99.2
2022-10-20T22:38	10	1	0.1	1	1	375	0.3	375	376	12.8	99.2
2022-10-20T22:39	10	1	0.1	1	1	375	0.3	375	376	12.8	99.2
2022-10-20T22:40	10	1	0.1	1	1	375	0.3	374	375	12.8	99.2
2022-10-20T22:41	10	1	0.1	1	1	375	0.2	374	375	12.9	99.2
2022-10-20T22:42	10	1	0.1	1	1	375	0.2	374	375	13.1	99.2
2022-10-20T22:43	10	1	0.1	1	1	374	0.2	374	375	13.1	99.2
2022-10-20T22:44	10	1	0.1	1	1	374	0.3	374	375	13.2	99.2
2022-10-20T22:45	10	1	0.1	1	1	374	0.3	374	375	13.2	99.2
2022-10-20T22:46	10	1	0.1	1	1	375	0.3	374	376	13.2	99.2
2022-10-20T22:47	10	1	0.1	1	1	375	0.3	374	376	13.2	99.2
2022-10-20T22:48	10	1	0.1	1	1	376	0.3	375	376	13.3	99.2
2022-10-20T22:49	10	1	0.1	1	1	376	0.4	375	377	13.3	99.2
2022-10-20T22:50	10	1	0.1	0	1	376	0.3	375	376	13.2	99.2
2022-10-20T22:51	10	1	0.1	1	1	376	0.3	376	377	13.2	99.2
2022-10-20T22:52	10	0	0.1	0	1	377	0.2	376	377	13.1	99.2
2022-10-20T22:53	10	0	0.1	0	1	377	0.4	376	378	13.2	99.2
2022-10-20T22:54	10	0	0.1	0	0	377	0.3	376	377	13.2	99.2
2022-10-20T22:55	10	0	0.1	0	0	377	0.3	376	378	13.2	99.2
2022-10-20T22:56	10	0	0.1	0	0	377	0.3	376	377	13.1	99.2
2022-10-20T22:57	10	0	0.1	0	0	377	0.2	377	377	13.2	99.2
2022-10-20T22:58	10	0	0.1	0	0	378	0.3	377	378	13.3	99.2
2022-10-20T22:59	10	0	0.1	0	0	378	0.3	377	379	13.3	99.2
2022-10-20T23:00	10	0	0.1	0	0	378	0.2	378	379	13.3	99.2
2022-10-20T23:01	10	0	0.1	0	0	378	0.4	378	379	13.3	99.2
2022-10-20T23:02	10	0	0.1	0	1	378	0.4	377	379	13.3	99.2
2022-10-20T23:03	10	0	0.1	0	1	378	0.3	378	379	13.3	99.2
2022-10-20T23:04	10	1	0.1	0	1	378	0.3	377	379	13.2	99.2
2022-10-20T23:05	10	1	0.1	0	1	378	0.2	377	378	13.1	99.2
2022-10-20T23:06	10	1	0.1	1	1	377	0.2	377	378	13.1	99.2
2022-10-20T23:07	10	1	0.1	1	1	377	0.3	376	377	13.2	99.2
2022-10-20T23:08	10	1	0.1	1	1	377	0.3	376	377	13.1	99.2
2022-10-20T23:09	10	1	0.1	1	1	377	0.4	376	377	13.2	99.2
2022-10-20T23:10	10	1	0.1	1	1	376	0.4	375	377	13.2	99.2
2022-10-20T23:11	10	1	0.1	1	1	376	0.5	375	377	13.3	99.2
2022-10-20T23:12	10	1	0.1	1	1	376	0.4	375	377	13.3	99.2
2022-10-20T23:13	10	1	0.1	1	1	376	0.3	376	377	13.3	99.2
2022-10-20T23:14	10	1	0.1	1	1	376	0.3	375	376	13.3	99.2
2022-10-20T23:15	10	1	0.1	1	1	376	0.3	375	377	13.3	99.2
2022-10-20T23:16	10	1	0.1	1	1	376	0.4	375	377	13.4	99.2
2022-10-20T23:17	10	1	0.1	1	1	376	0.3	376	377	13.4	99.2
2022-10-20T23:18	10	1	0.1	1	1	376	0.5	375	377	13.4	99.2
2022-10-20T23:19	10	1	0.1	1	1	376	0.2	375	376	13.4	99.2
2022-10-20T23:20	10	1	0.1	1	1	375	0.2	375	376	13.3	99.2
2022-10-20T23:21	10	1	0.1	1	1	375	0.3	375	376	13.3	99.2
2022-10-20T23:22	10	1	0.1	1	1	375	0.3	375	376	13.3	99.2
2022-10-20T23:23	10	1	0.1	1	1	376	0.2	375	376	13.3	99.2
2022-10-20T23:24	10	1	0.1	1	1	376	0.3	375	376	13.2	99.2
2022-10-20T23:25	10	1	0.0	1	1	376	0.3	375	377	13.3	99.2
2022-10-20T23:26	10	1	0.1	1	1	376	0.2	376	377	13.2	99.2
2022-10-20T23:27	10	1	0.1	1	1	376	0.3	375	376	13.2	99.2
2022-10-20T23:28	10	1	0.1	1	1	376	0.2	375	377	13.2	99.2
2022-10-20T23:29	10	1	0.1	1	1	376	0.2	375	377	13.2	99.2
2022-10-20T23:30	10	1	0.1	1	1	376	0.2	376	377	13.3	99.2
2022-10-20T23:31	10	1	0.1	1	1	376	0.5	375	377	13.3	99.2
2022-10-20T23:32	10	1	0.1	1	1	377	0.5	376	377	13.3	99.2
2022-10-20T23:33	10	1	0.1	1	1	377	0.3	376	377	13.2	99.2
2022-10-20T23:34	10	1	0.1	1	1	377	0.3	376	377	13.2	99.2
2022-10-20T23:35	10	1	0.1	1	1	377	0.2	376	377	13.3	99.2
2022-10-20T23:36	10	1	0.1	1	1	377	0.2	376	377	13.2	99.2
2022-10-20T23:37	10	1	0.1	1	1	377	0.3	376	377	13.2	99.2
2022-10-20T23:38	10	1	0.1	1	1	377	0.3	376	377	13.2	99.2
2022-10-20T23:39	10	1	0.1	1	1	376	0.3	376	377	13.1	99.2
2022-10-20T23:40	10	0	0.1	0	1	377	0.2	376	377	13.2	99.2
2022-10-20T23:41	10	0	0.1	0	0	377	0.2	376	377	13.2	99.2
2022-10-20T23:42	10	0	0.1	0	0	377	0.2	377	378	13.2	99.2
2022-10-20T23:43	10	0	0.1	0	0	377	0.2	377	378	13.2	99.2
2022-10-20T23:44	10	0	0.1	0	0	378	0.3	377	378	13.3	99.2
2022-10-20T23:45	10	0	0.1	0	0	378	0.3	377	378	13.3	99.2
2022-10-20T23:46	10	0	0.1	0	0	378	0.3	377	378	13.3	99.2
2022-10-20T23:47	10	0	0.1	0	0	378	0.3	377	379	13.2	99.2
2022-10-20T23:48	10	0	0.1	0	0	378	0.3	377	378	13.2	99.2
2022-10-20T23:49	10	0	0.1	0	0	378	0.2	377	378	13.2	99.2
2022-10-20T23:50	10	0	0.0	0	0	378	0.3	377	379	13.1	99.2
2022-10-20T23:51	10	0	0.1	0	0	378	0.3	377	378	13.1	99.2
2022-10-20T23:52	10	0	0.1	0	0	378	0.2	377	378	13.1	99.2
2022-10-20T23:53	10	0	0.1	0	0	378	0.2	377	378	13.1	99.2
2022-10-20T23:54	10	0	0.1	0	1	378	0.2	377	379	13.1	99.2
2022-10-20T23:55	10	1	0.1	0	1	378	0.2	378	379	13.1	99.2
2022-10-20T23:56	10	1	0.1	1	1	378	0.2	378	379	13.2	99.2
2022-10-20T23:57	10	1	0.1	1	1	378	0.2	378	379	13.2	99.2
2022-10-20T23:58	10	1	0.1	1	1	378	0.2	378	379	13.2	99.2
2022-10-20T23:59	10	1	0.1	1	1	378	0.2	378	379	13.3	99.2
2022-10-21T00:00	10	1	0.1	1	1	378	0.3	378	379	13.3	99.2
2022-10-21T00:01	10	1	0.1	1	1	378	0.2	378	379	13.3	99.2
2022-10-21T00:02	10	1	0.1	1	1	378	0.2	378	379	13.3	99.2
2022-10-21T00:03	10	1	0.1	1	1	378	0.2	378	379	13.3	99.2
2022-10-21T00:04	10	1	0.1	1	1	378	0.2	378	379	13.3	99.2
2022-10-21T00:05	10	1	0.1	1	1	378	0.2	378	379	13.3	99.2
2022-10-21T00:06	10	1	0.1	1	1	378	0.2	378	379	13.4	99.2
2022-10-21T00:07	10	1	0.1	1	1	378	0.2	378	379	13.4	99.2
2022-10-21T00:08	10	1	0.1	1	1	379	0.2	378	379	13.5	99.2
2022-10-21T00:09	10	1	0.1	1	1	379	0.2	378	379	13.5	99.2
2022-10-21T00:10	10	1	0.1	1	1	379	0.2	378	379	13.6	99.2
2022-10-21T00:11	10	1	0.1	0	1	379	0.2	378	379	13.5	99.2
2022-10-21T00:12	10	1	0.1	0	1	379	0.3	378	380	13.5	99.2
2022-10-21T00:13	10	1	0.1	1	1	379	0.3	379	380	13.6	99.2
2022-10-21T00:14	10	1	0.1	1	1	380	0.2	379	380	13.6	99.2
2022-10-21T00:15	10	1	0.1	1	1	379	0.2	379	380	13.6	99.2
2022-10-21T00:16	10	1	0.1	1	1	379	0.3	379	380	13.5	99.2
2022-10-21T00:17	10	1	0.1	1	1	379	0.3	379	380	13.4	99.2
2022-10-21T00:18	10	1	0.1	1	1	379	0.3	379	380	13.4	99.2
2022-10-21T00:19	10	1	0.1	1	1	379	0.3	379	380	13.3	99.2
2022-10-21T00:20	10	1	0.1	1	1	379	0.3	379	380	13.3	99.2
2022-10-21T00:21	10	1	0.1	1	1	379	0.3	378	380	13.3	99.2
2022-10-21T00:22	10	1	0.1	1	1	379	0.2	379	380	13.3	99.2
2022-10-21T00:23	10	1	0.1	1	1	379	0.2	379	380	13.4	99.2
2022-10-21T00:24	10	1	0.1	1	1	379	0.2	379	380	13.5	99.2
2022-10-21T00:25	10	1	0.1	1	1	379	0.2	379	380	13.4	99.2
2022-10-21T00:26	10	1	0.1	1	1	379	0.5	378	380	13.4	99.2
2022-10-21T00:27	10	1	0.1	1	1	379	0.3	379	380	13.5	99.2
2022-10-21T00:28	10	1	0.1	1	1	379	0.4	378	380	13.4	99.2
2022-10-21T00:29	10	1	0.1	1	1	379	0.3	379	380	13.3	99.2
2022-10-21T00:30	10	1	0.1	1	1	379	0.4	378	380	13.3	99.2
2022-10-21T00:31	10	1	0.1	1	1	379	0.2	378	380	13.2	99.2
2022-10-21T00:32	10	1	0.1	1	1	379	0.4	378	380	13.2	99.2
2022-10-21T00:33	10	1	0.1	0	1	379	0.2	379	379	13.1	99.2
2022-10-21T00:34	10	1	0.1	1	1	379	0.7	377	380	13.1	99.2
2022-10-21T00:35	10	1	0.1	1	1	379	0.5	378	380	13.0	99.2
2022-10-21T00:36	10	1	0.1	1	1	379	0.4	378	379	13.0	99.2
2022-10-21T00:37	10	1	0.1	1	1	378	0.2	378	379	13.1	99.2
2022-10-21T00:38	10	1	0.1	1	1	378	0.3	378	379	13.0	99.2
2022-10-21T00:39	10	1	0.1	1	1	378	0.4	377	379	13.0	99.2
2022-10-21T00:40	10	1	0.1	1	1	378	0.4	378	379	13.0	99.2
2022-10-21T00:41	10	1	0.1	1	1	378	0.4	377	380	13.0	99.2
2022-10-21T00:42	10	1	0.1	0	1	378	0.2	378	379	13.0	99.2
2022-10-21T00:43	10	0	0.1	0	1	378	0.5	377	380	12.9	99.2
2022-10-21T00:44	10	0	0.1	0	0	379	0.5	377	379	13.0	99.2
2022-10-21T00:45	10	0	0.1	0	0	378	0.3	377	379	13.0	99.2
2022-10-21T00:46	10	0	0.1	0	0	378	0.3	377	378	13.0	99.2
2022-10-21T00:47	10	0	0.1	0	0	378	0.3	377	378	12.9	99.2
2022-10-21T00:48	10	0	0.1	0	1	378	0.5	376	379	12.9	99.2
2022-10-21T00:49	10	0	0.1	0	1	378	0.4	377	379	12.9	99.2
2022-10-21T00:50	10	0	0.1	0	1	378	0.5	377	379	13.0	99.2
2022-10-21T00:51	10	1	0.1	0	1	378	0.2	378	378	12.9	99.2
2022-10-21T00:52	10	1	0.1	0	1	378	0.2	377	378	12.9	99.2
2022-10-21T00:53	10	1	0.1	1	1	378	0.3	377	378	12.9	99.2
2022-10-21T00:54	10	1	0.1	1	1	378	0.3	377	379	12.9	99.2
2022-10-21T00:55	10	1	0.1	1	1	378	0.2	378	379	12.9	99.2
2022-10-21T00:56	10	1	0.1	1	1	378	0.2	378	378	12.9	99.2
2022-10-21T00:57	10	1	0.1	1	1	378	0.2	377	378	12.9	99.2
2022-10-21T00:58	10	1	0.1	1	1	378	0.2	377	378	12.9	99.2
2022-10-21T00:59	10	1	0.1	1	1	378	0.3	377	379	12.9	99.2
2022-10-21T01:00	10	1	0.1	1	1	378	0.3	378	379	13.0	99.2
2022-10-21T01:01	10	1	0.0	1	1	378	0.3	377	379	13.0	99.2
2022-10-21T01:02	10	1	0.1	1	1	378	0.3	377	378	12.9	99.2
2022-10-21T01:03	10	1	0.1	1	1	378	0.4	377	378	12.9	99.2
2022-10-21T01:04	10	1	0.1	1	1	378	0.2	377	378	13.0	99.2
2022-10-21T01:05	10	1	0.1	1	1	378	0.3	377	378	12.9	99.2
2022-10-21T01:06	10	1	0.1	1	1	378	0.3	377	378	12.9	99.2
2022-10-21T01:07	10	1	0.1	1	1	378	0.2	377	378	13.0	99.2
2022-10-21T01:08	10	1	0.1	0	1	378	0.2	377	378	13.1	99.2
2022-10-21T01:09	10	0	0.1	0	1	378	0.2	377	378	13.1	99.2
2022-10-21T01:10	10	0	0.1	0	1	378	0.2	378	379	13.2	99.2
2022-10-21T01:11	10	0	0.1	0	0	378	0.3	378	379	13.2	99.2
2022-10-21T01:12	10	0	0.1	0	0	378	0.3	378	379	13.2	99.2
2022-10-21T01:13	10	0	0.1	0	0	378	0.2	378	379	13.1	99.2
2022-10-21T01:14	10	0	0.1	0	0	378	0.2	378	379	13.0	99.2
2022-10-21T01:15	10	0	0.1	0	0	378	0.2	378	379	13.0	99.2
2022-10-21T01:16	10	0	0.1	0	0	378	0.2	378	378	13.0	99.2
2022-10-21T01:17	10	0	0.1	-1	0	378	0.3	378	378	13.0	99.2
2022-10-21T01:18	10	0	0.0	-1	0	378	0.2	378	379	13.0	99.2
2022-10-21T01:19	10	0	0.1	-1	0	378	0.3	377	379	13.0	99.2
2022-10-21T01:20	10	0	0.1	-1	0	378	0.2	378	379	13.0	99.2
2022-10-21T01:21	10	0	0.0	0	0	378	0.2	378	379	13.1	99.2
2022-10-21T01:22	10	0	0.1	-1	0	378	0.2	378	379	13.1	99.2
2022-10-21T01:23	10	0	0.1	0	0	378	0.4	377	379	13.1	99.2
2022-10-21T01:24	10	0	0.1	0	0	379	0.4	377	379	13.1	99.2
2022-10-21T01:25	10	0	0.1	0	0	379	0.2	378	379	13.2	99.2
2022-10-21T01:26	10	0	0.1	0	0	378	0.2	378	379	13.2	99.2
2022-10-21T01:27	10	0	0.1	0	0	379	0.2	378	379	13.2	99.2
2022-10-21T01:28	10	0	0.1	0	0	379	0.2	378	379	13.1	99.2
2022-10-21T01:29	10	0	0.1	0	0	378	0.3	378	379	13.1	99.2
2022-10-21T01:30	10	0	0.1	0	0	379	0.3	378	379	13.2	99.2
2022-10-21T01:31	10	0	0.1	0	0	378	0.2	378	379	13.1	99.2
2022-10-21T01:32	10	0	0.1	0	0	378	0.2	378	379	13.1	99.2
2022-10-21T01:33	10	0	0.1	0	0	378	0.2	378	379	13.2	99.2
2022-10-21T01:34	10	0	0.1	0	0	379	0.2	378	379	13.2	99.2
2022-10-21T01:35	10	0	0.1	0	0	379	0.2	378	379	13.2	99.2
2022-10-21T01:36	10	0	0.1	0	0	378	0.2	378	379	13.1	99.2
2022-10-21T01:37	10	0	0.1	0	0	378	0.2	378	379	13.1	99.2
2022-10-21T01:38	10	0	0.1	0	0	379	0.2	378	379	13.1	99.2
2022-10-21T01:39	10	0	0.1	0	0	378	0.2	378	379	13.1	99.2
2022-10-21T01:40	10	0	0.1	0	0	378	0.2	378	379	13.1	99.2
2022-10-21T01:41	10	0	0.1	0	0	378	0.3	378	379	13.0	99.2
2022-10-21T01:42	10	0	0.1	0	0	378	0.3	377	378	13.0	99.2
2022-10-21T01:43	10	0	0.1	0	0	378	0.2	377	378	13.0	99.2
2022-10-21T01:44	10	0	0.1	0	0	378	0.2	377	378	12.9	99.2
2022-10-21T01:45	10	0	0.1	0	0	378	0.3	378	379	13.0	99.2
2022-10-21T01:46	10	0	0.1	0	0	378	0.3	377	379	13.0	99.2
2022-10-21T01:47	10	0	0.1	0	1	378	0.2	378	379	13.0	99.2
2022-10-21T01:48	10	0	0.1	0	0	378	0.4	377	379	13.0	99.2
2022-10-21T01:49	10	0	0.1	0	1	378	0.3	378	379	13.0	99.2
2022-10-21T01:50	10	0	0.1	0	1	378	0.3	377	379	13.1	99.2
2022-10-21T01:51	10	0	0.1	0	1	378	0.3	378	379	13.1	99.2
2022-10-21T01:52	10	0	0.1	0	1	378	0.4	378	379	13.2	99.2
2022-10-21T01:53	10	0	0.1	0	1	378	0.3	377	379	13.2	99.2
2022-10-21T01:54	10	0	0.1	0	0	378	0.5	377	380	13.2	99.2
2022-10-21T01:55	10	0	0.1	0	0	378	0.2	378	379	13.2	99.2
2022-10-21T01:56	10	0	0.1	0	1	378	0.2	378	379	13.2	99.2
2022-10-21T01:57	10	1	0.1	0	1	378	0.3	378	379	13.2	99.2
2022-10-21T01:58	10	1	0.1	1	1	378	0.3	377	379	13.2	99.2
2022-10-21T01:59	10	1	0.1	1	1	378	0.2	378	379	13.2	99.2
2022-10-21T02:00	10	1	0.1	1	1	378	0.3	378	379	13.2	99.2
2022-10-21T02:01	10	1	0.1	1	1	378	0.2	378	379	13.2	99.2
2022-10-21T02:02	10	1	0.1	1	1	378	0.2	377	378	13.2	99.2
2022-10-21T02:03	10	1	0.1	1	1	378	0.3	377	378	13.2	99.2
2022-10-21T02:04	10	1	0.1	1	1	378	0.2	378	379	13.1	99.2
2022-10-21T02:05	10	1	0.1	1	1	378	0.2	378	379	13.2	99.2
2022-10-21T02:06	10	1	0.1	1	1	378	0.2	378	379	13.2	99.2
2022-10-21T02:07	10	1	0.1	1	1	378	0.2	378	379	13.1	99.2
2022-10-21T02:08	10	1	0.1	1	1	378	0.4	377	379	13.1	99.2
2022-10-21T02:09	10	1	0.1	1	1	378	0.4	377	379	13.1	99.2
2022-10-21T02:10	10	1	0.1	1	1	378	0.3	378	379	13.1	99.2
2022-10-21T02:11	10	1	0.1	0	1	379	0.5	377	380	13.1	99.2
2022-10-21T02:12	10	0	0.1	0	0	379	0.2	378	379	13.1	99.2
2022-10-21T02:13	10	0	0.1	0	0	379	0.2	378	379	13.1	99.2
2022-10-21T02:14	10	0	0.1	0	0	379	0.4	378	379	13.1	99.2
2022-10-21T02:15	10	0	0.1	0	0	379	0.4	378	380	13.1	99.2
2022-10-21T02:16	10	0	0.1	0	0	379	0.5	378	380	13.1	99.2
2022-10-21T02:17	10	0	0.1	0	0	379	0.3	379	380	13.1	99.2
2022-10-21T02:18	10	0	0.1	0	0	379	0.3	379	380	13.2	99.2
2022-10-21T02:19	10	0	0.1	0	0	379	0.2	378	380	13.2	99.2
2022-10-21T02:20	10	0	0.1	0	0	379	0.3	379	380	13.2	99.2
2022-10-21T02:21	10	0	0.1	0	1	379	0.3	378	380	13.1	99.2
2022-10-21T02:22	10	0	0.1	0	1	379	0.2	378	379	13.1	99.2
2022-10-21T02:23	10	0	0.1	0	1	379	0.3	378	379	13.2	99.2
2022-10-21T02:24	10	0	0.1	0	1	379	0.3	378	379	13.2	99.2
2022-10-21T02:25	10	0	0.1	0	1	379	0.3	378	380	13.2	99.2
2022-10-21T02:26	10	1	0.1	0	1	379	0.3	378	380	13.2	99.2
2022-10-21T02:27	10	1	0.1	0	1	379	0.3	378	379	13.2	99.2
2022-10-21T02:28	10	0	0.1	0	1	379	0.3	378	379	13.2	99.2
2022-10-21T02:29	10	0	0.1	0	1	379	0.3	378	380	13.2	99.2
2022-10-21T02:30	10	0	0.1	0	0	379	0.4	378	380	13.3	99.2
2022-10-21T02:31	10	0	0.1	0	0	379	0.3	378	379	13.2	99.2
2022-10-21T02:32	10	0	0.1	0	0	379	0.2	378	379	13.2	99.2
2022-10-21T02:33	10	0	0.1	0	0	379	0.3	378	379	13.1	99.2
2022-10-21T02:34	10	0	0.1	0	0	379	0.2	378	379	13.1	99.2
2022-10-21T02:35	10	0	0.1	0	0	379	0.3	378	379	13.0	99.2
2022-10-21T02:36	10	0	0.1	0	0	379	0.3	378	379	13.0	99.2
2022-10-21T02:37	10	0	0.1	0	0	379	0.6	377	380	13.0	99.2
2022-10-21T02:38	10	0	0.1	0	0	378	0.3	378	379	13.0	99.2
2022-10-21T02:39	10	0	0.1	0	0	379	0.2	378	379	13.0	99.2
2022-10-21T02:40	10	0	0.1	0	0	379	0.3	378	379	13.1	99.2
2022-10-21T02:41	10	0	0.1	0	1	379	0.2	378	379	13.1	99.2
2022-10-21T02:42	10	1	0.1	1	1	378	0.2	378	379	13.0	99.2
2022-10-21T02:43	10	1	0.1	1	1	378	0.3	378	379	13.0	99.2
2022-10-21T02:44	10	1	0.1	1	1	378	0.3	378	379	12.9	99.2
2022-10-21T02:45	10	1	0.1	0	1	378	0.2	378	379	12.9	99.2
2022-10-21T02:46	10	0	0.1	0	1	378	0.2	377	379	12.9	99.2
2022-10-21T02:47	10	0	0.1	0	0	378	0.3	378	379	12.9	99.2
2022-10-21T02:48	10	0	0.1	0	0	378	0.2	378	379	12.9	99.2
2022-10-21T02:49	10	0	0.1	0	0	378	0.2	378	379	12.9	99.2
2022-10-21T02:50	10	0	0.1	-1	0	378	0.3	378	379	12.9	99.2
2022-10-21T02:51	10	0	0.1	-1	0	378	0.3	378	379	13.0	99.2
2022-10-21T02:52	10	0	0.1	-1	0	378	0.3	377	379	13.0	99.2
2022-10-21T02:53	10	0	0.1	0	0	378	0.2	378	379	13.0	99.2
2022-10-21T02:54	10	0	0.1	0	0	378	0.2	378	379	13.0	99.2
2022-10-21T02:55	10	0	0.1	0	0	378	0.2	377	378	13.0	99.2
2022-10-21T02:56	10	0	0.1	0	0	378	0.2	378	379	13.0	99.2
2022-10-21T02:57	10	0	0.1	0	1	378	0.5	377	379	13.1	99.2
2022-10-21T02:58	10	1	0.1	1	1	378	0.3	378	379	13.1	99.2
2022-10-21T02:59	10	1	0.1	1	1	379	0.3	378	379	13.1	99.2
2022-10-21T03:00	10	1	0.1	1	1	378	0.5	377	379	13.1	99.2
2022-10-21T03:01	10	1	0.0	1	1	379	0.3	378	379	13.1	99.2
2022-10-21T03:02	10	1	0.1	1	1	378	0.2	378	379	13.1	99.2
2022-10-21T03:03	10	1	0.1	1	1	378	0.4	378	379	13.1	99.2
2022-10-21T03:04	10	1	0.1	1	1	379	0.2	378	379	13.1	99.2
2022-10-21T03:05	10	1	0.1	1	1	379	0.3	378	379	13.1	99.2
2022-10-21T03:06	10	1	0.1	1	1	378	0.3	378	379	13.0	99.2
2022-10-21T03:07	10	1	0.1	1	1	379	0.2	378	379	13.0	99.2
2022-10-21T03:08	10	1	0.1	1	1	378	0.3	378	379	13.0	99.2
2022-10-21T03:09	10	1	0.1	1	1	378	0.3	378	379	13.0	99.2
2022-10-21T03:10	10	1	0.1	1	1	378	0.2	378	379	12.9	99.2
2022-10-21T03:11	10	1	0.0	1	1	378	0.2	378	378	12.9	99.2
2022-10-21T03:12	10	1	0.1	0	1	378	0.2	377	378	12.9	99.2
2022-10-21T03:13	10	1	0.1	1	1	378	0.2	377	378	12.9	99.2
2022-10-21T03:14	10	1	0.1	1	1	378	0.2	377	378	12.9	99.2
2022-10-21T03:15	10	1	0.1	1	1	378	0.2	377	378	12.9	99.2
2022-10-21T03:16	10	1	0.1	1	1	378	0.2	377	379	12.9	99.2
2022-10-21T03:17	10	1	0.1	1	1	378	0.2	377	378	13.0	99.2
2022-10-21T03:18	10	1	0.1	1	1	378	0.2	377	378	12.9	99.2
2022-10-21T03:19	10	1	0.1	1	1	378	0.2	377	378	12.9	99.2
2022-10-21T03:20	10	1	0.1	1	1	377	0.3	377	378	12.9	99.2
2022-10-21T03:21	10	1	0.1	0	1	377	0.2	377	378	13.0	99.2
2022-10-21T03:22	10	0	0.1	0	1	378	0.2	377	378	12.9	99.2
2022-10-21T03:23	10	0	0.1	0	0	378	0.2	377	378	12.9	99.2
2022-10-21T03:24	10	0	0.1	0	1	378	0.2	377	378	12.9	99.2
2022-10-21T03:25	10	0	0.1	0	1	377	0.3	377	378	12.9	99.2
2022-10-21T03:26	10	0	0.1	0	0	378	0.2	377	378	12.9	99.2
2022-10-21T03:27	10	0	0.1	0	1	378	0.2	377	378	12.9	99.2
2022-10-21T03:28	10	1	0.1	0	1	378	0.2	377	378	12.9	99.2
2022-10-21T03:29	10	1	0.1	1	1	377	0.3	377	378	12.9	99.2
2022-10-21T03:30	10	1	0.1	1	1	378	0.2	377	378	12.9	99.2
2022-10-21T03:31	10	1	0.1	1	1	378	0.3	377	378	12.9	99.2
2022-10-21T03:32	10	1	0.1	1	1	378	0.3	377	378	12.9	99.2
2022-10-21T03:33	10	1	0.1	1	1	378	0.2	377	378	12.9	99.2
2022-10-21T03:34	10	1	0.1	1	1	378	0.4	377	379	12.9	99.2
2022-10-21T03:35	10	0	0.1	0	1	378	0.2	377	378	12.9	99.2
2022-10-21T03:36	10	0	0.1	0	0	378	0.2	377	378	12.9	99.2
2022-10-21T03:37	10	0	0.1	0	0	378	0.3	377	379	12.9	99.2
2022-10-21T03:38	10	0	0.1	0	0	378	0.3	377	378	12.9	99.2
2022-10-21T03:39	10	0	0.1	-1	0	378	0.2	377	378	12.9	99.2
2022-10-21T03:40	10	0	0.1	-1	0	378	0.3	377	378	12.9	99.2
2022-10-21T03:41	10	-1	0.1	-1	0	378	0.3	377	378	12.9	99.2
2022-10-21T03:42	10	-1	0.1	-1	0	378	0.3	377	378	12.9	99.2
2022-10-21T03:43	10	-1	0.1	-1	0	378	0.2	378	378	12.9	99.2
2022-10-21T03:44	10	-1	0.1	-1	0	378	0.2	377	378	12.9	99.2
2022-10-21T03:45	10	0	0.1	-1	0	378	0.3	377	378	12.9	99.2
2022-10-21T03:46	10	0	0.1	-1	0	378	0.3	377	378	12.9	99.2
2022-10-21T03:47	10	0	0.0	-1	0	378	0.2	377	378	13.0	99.2
2022-10-21T03:48	10	0	0.1	-1	0	378	0.2	378	378	13.0	99.2
2022-10-21T03:49	10	-1	0.1	-1	0	378	0.2	377	378	12.9	99.2
2022-10-21T03:50	10	0	0.1	-1	0	378	0.3	377	379	12.9	99.2
2022-10-21T03:51	10	0	0.1	-1	0	378	0.2	378	378	12.9	99.2
2022-10-21T03:52	10	0	0.1	-1	0	378	0.7	376	379	12.9	99.2
2022-10-21T03:53	10	0	0.1	-1	0	378	0.3	377	379	12.9	99.2
2022-10-21T03:54	10	0	0.1	0	0	378	0.3	377	379	12.9	99.2
2022-10-21T03:55	10	0	0.1	0	0	378	0.2	378	379	12.9	99.2
2022-10-21T03:56	10	0	0.1	0	0	378	0.4	377	379	12.9	99.2
2022-10-21T03:57	10	0	0.1	0	1	378	0.7	377	379	12.9	99.2
2022-10-21T03:58	10	0	0.1	0	1	378	0.5	377	379	12.9	99.2
2022-10-21T03:59	10	0	0.1	0	1	378	0.3	377	379	12.8	99.2
2022-10-21T04:00	10	0	0.1	0	0	378	0.4	377	379	12.8	99.2
2022-10-21T04:01	10	0	0.1	0	0	378	0.6	377	379	12.8	99.2
2022-10-21T04:02	10	0	0.1	0	0	378	0.3	377	379	12.8	99.2
2022-10-21T04:03	10	0	0.1	0	0	378	0.3	377	379	12.8	99.2
2022-10-21T04:04	10	0	0.1	0	0	378	0.6	377	379	12.8	99.2
2022-10-21T04:05	10	0	0.1	0	0	378	0.4	377	379	12.8	99.2
2022-10-21T04:06	10	0	0.1	0	0	378	0.3	377	379	12.8	99.2
2022-10-21T04:07	10	0	0.1	0	0	378	0.5	378	379	12.8	99.2
2022-10-21T04:08	10	0	0.1	0	0	378	0.5	377	380	12.8	99.2
2022-10-21T04:09	10	0	0.1	0	0	379	0.5	377	379	12.8	99.2
2022-10-21T04:10	10	0	0.1	0	0	378	0.6	377	379	12.8	99.2
2022-10-21T04:11	10	0	0.1	0	0	379	0.6	377	380	12.8	99.2
2022-10-21T04:12	10	0	0.1	0	1	378	0.2	378	379	12.8	99.2
2022-10-21T04:13	10	1	0.1	0	1	378	0.2	378	379	12.8	99.2
2022-10-21T04:14	10	1	0.1	1	1	379	0.2	378	379	12.8	99.2
2022-10-21T04:15	10	1	0.1	1	1	379	0.2	378	379	12.8	99.2
2022-10-21T04:16	10	1	0.1	1	1	379	0.3	378	379	12.8	99.2
2022-10-21T04:17	10	1	0.1	1	1	379	0.2	378	379	12.8	99.2
2022-10-21T04:18	10	1	0.1	1	1	378	0.2	378	379	12.8	99.2
2022-10-21T04:19	10	1	0.1	1	1	378	0.2	378	379	12.8	99.2
2022-10-21T04:20	10	1	0.1	1	1	378	0.2	378	379	12.8	99.2
2022-10-21T04:21	10	1	0.1	1	1	378	0.2	377	378	12.8	99.2
2022-10-21T04:22	10	1	0.1	1	1	378	0.2	378	378	12.8	99.2
2022-10-21T04:23	10	0	0.1	0	1	378	0.2	378	379	12.8	99.2
2022-10-21T04:24	10	0	0.1	0	0	378	0.2	378	379	12.8	99.2
2022-10-21T04:25	10	0	0.1	0	0	378	0.3	377	379	12.8	99.2
2022-10-21T04:26	10	1	0.1	0	1	378	0.2	378	379	12.8	99.2
2022-10-21T04:27	10	1	0.1	1	1	378	0.3	378	379	12.8	99.2
2022-10-21T04:28	10	1	0.1	1	1	378	0.3	378	379	12.8	99.2
2022-10-21T04:29	10	1	0.1	0	1	378	0.2	378	379	12.8	99.2
2022-10-21T04:30	10	0	0.1	0	1	378	0.3	377	379	12.8	99.2
2022-10-21T04:31	10	0	0.1	0	0	378	0.4	377	379	12.8	99.2
2022-10-21T04:32	10	0	0.1	0	0	378	0.3	377	379	12.8	99.2
2022-10-21T04:33	10	0	0.1	0	0	378	0.4	377	379	12.8	99.2
2022-10-21T04:34	10	0	0.1	0	0	378	0.4	377	379	12.9	99.2
2022-10-21T04:35	10	0	0.1	0	0	378	0.3	378	379	12.9	99.2
2022-10-21T04:36	10	0	0.1	-1	0	378	0.4	377	379	12.9	99.2
2022-10-21T04:37	10	0	0.1	-1	0	378	0.3	378	379	12.9	99.2
2022-10-21T04:38	10	0	0.1	-1	0	378	0.3	377	379	12.9	99.2
2022-10-21T04:39	10	0	0.1	-1	0	378	0.3	377	379	12.8	99.2
2022-10-21T04:40	10	0	0.1	-1	0	378	0.3	377	379	12.8	99.2
2022-10-21T04:41	10	0	0.1	-1	0	378	0.3	378	379	12.8	99.2
2022-10-21T04:42	10	0	0.1	-1	0	378	0.4	377	379	12.8	99.2
2022-10-21T04:43	10	0	0.1	-1	0	378	0.6	377	379	12.8	99.2
2022-10-21T04:44	10	0	0.1	-1	0	378	0.3	377	378	12.8	99.2
2022-10-21T04:45	10	0	0.1	-1	0	378	0.2	377	379	12.9	99.2
2022-10-21T04:46	10	0	0.0	-1	0	378	0.2	377	378	12.9	99.2
2022-10-21T04:47	10	0	0.1	-1	0	378	0.2	377	378	12.9	99.2
2022-10-21T04:48	10	0	0.1	0	0	378	0.2	377	378	12.9	99.2
2022-10-21T04:49	10	0	0.1	0	0	378	0.2	377	378	12.9	99.2
2022-10-21T04:50	10	0	0.1	0	0	378	0.2	377	378	13.0	99.2
2022-10-21T04:51	10	0	0.0	0	0	378	0.2	377	378	13.0	99.2
2022-10-21T04:52	10	0	0.1	0	0	378	0.2	377	378	13.0	99.2
2022-10-21T04:53	10	0	0.1	0	0	378	0.2	378	378	13.1	99.2
2022-10-21T04:54	10	0	0.1	0	0	378	0.2	378	379	13.1	99.2
2022-10-21T04:55	10	0	0.1	0	0	378	0.3	377	379	13.1	99.2
2022-10-21T04:56	10	0	0.1	0	0	378	0.4	377	379	13.1	99.2
2022-10-21T04:57	10	0	0.1	0	0	378	0.2	378	379	13.1	99.2
2022-10-21T04:58	10	0	0.1	0	0	378	0.3	378	379	13.1	99.2
2022-10-21T04:59	10	0	0.0	0	0	378	0.2	378	379	13.1	99.2
2022-10-21T05:00	10	0	0.1	0	0	378	0.3	378	379	13.1	99.2
2022-10-21T05:01	10	0	0.1	0	0	378	0.2	378	379	13.1	99.2
2022-10-21T05:02	10	0	0.1	0	0	378	0.4	377	379	13.1	99.2
2022-10-21T05:03	10	0	0.1	0	1	378	0.2	378	379	13.2	99.2
2022-10-21T05:04	10	0	0.1	0	1	378	0.4	378	379	13.2	99.2
2022-10-21T05:05	10	0	0.1	0	1	378	0.2	378	379	13.2	99.2
2022-10-21T05:06	10	0	0.1	0	0	378	0.3	378	379	13.2	99.2
2022-10-21T05:07	10	0	0.1	0	0	378	0.3	378	379	13.2	99.2
2022-10-21T05:08	10	0	0.1	0	0	378	0.2	378	378	13.3	99.2
2022-10-21T05:09	10	0	0.1	0	0	378	0.3	377	379	13.3	99.2
2022-10-21T05:10	10	0	0.1	0	1	378	0.5	377	379	13.3	99.2
2022-10-21T05:11	10	1	0.1	0	1	378	0.2	378	378	13.2	99.2
2022-10-21T05:12	10	0	0.1	0	1	378	0.2	378	378	13.2	99.2
2022-10-21T05:13	10	0	0.1	0	1	378	0.3	378	379	13.2	99.2
2022-10-21T05:14	10	0	0.1	0	1	378	0.2	378	379	13.2	99.2
2022-10-21T05:15	10	0	0.1	0	1	378	1.0	376	379	13.2	99.2
2022-10-21T05:16	10	0	0.0	0	1	378	0.4	377	378	13.2	99.2
2022-10-21T05:17	10	0	0.1	0	1	378	0.3	377	379	13.1	99.2
2022-10-21T05:18	10	0	0.1	0	1	378	0.3	377	378	13.2	99.2
2022-10-21T05:19	10	0	0.1	0	1	378	0.3	377	378	13.1	99.2
2022-10-21T05:20	10	0	0.1	0	0	377	0.2	377	378	13.1	99.2
2022-10-21T05:21	10	0	0.1	0	0	377	0.2	377	378	13.1	99.2
2022-10-21T05:22	10	0	0.1	0	0	377	0.4	376	378	13.1	99.2
2022-10-21T05:23	10	0	0.1	0	0	377	0.2	377	377	13.1	99.2
2022-10-21T05:24	10	0	0.1	0	0	377	0.4	376	378	13.1	99.2
2022-10-21T05:25	10	0	0.1	0	0	377	0.2	377	378	13.1	99.2
2022-10-21T05:26	10	0	0.1	0	0	377	0.1	377	377	13.1	99.2
2022-10-21T05:27	10	0	0.1	0	0	377	0.2	377	378	13.1	99.2
2022-10-21T05:28	10	0	0.1	0	0	377	0.2	377	378	13.1	99.2
2022-10-21T05:29	10	0	0.1	0	0	377	0.2	376	377	13.2	99.2
2022-10-21T05:30	10	0	0.1	0	0	377	0.2	377	378	13.2	99.2
2022-10-21T05:31	10	0	0.1	0	0	377	0.2	377	378	13.3	99.2
2022-10-21T05:32	10	0	0.1	0	0	378	0.2	377	378	13.3	99.2
2022-10-21T05:33	10	0	0.1	0	0	378	0.2	378	378	13.4	99.2
2022-10-21T05:34	10	0	0.1	0	0	378	0.2	377	378	13.4	99.2
2022-10-21T05:35	10	0	0.1	0	1	377	0.3	377	378	13.3	99.2
2022-10-21T05:36	10	1	0.1	0	1	377	0.2	377	378	13.3	99.2
2022-10-21T05:37	10	1	0.1	1	1	377	0.4	376	378	13.3	99.2
2022-10-21T05:38	10	1	0.1	1	1	377	0.2	377	378	13.2	99.2
2022-10-21T05:39	10	1	0.1	1	1	377	0.2	377	378	13.2	99.2
2022-10-21T05:40	10	1	0.1	1	1	377	0.2	377	377	13.2	99.2
2022-10-21T05:41	10	1	0.1	1	1	377	0.4	376	378	13.3	99.2
2022-10-21T05:42	10	1	0.1	1	1	377	0.3	376	378	13.3	99.2
2022-10-21T05:43	10	1	0.1	1	1	377	0.5	376	378	13.3	99.2
2022-10-21T05:44	10	1	0.1	1	1	377	0.3	376	378	13.3	99.2
2022-10-21T05:45	10	1	0.1	1	1	377	0.5	376	378	13.3	99.2
2022-10-21T05:46	10	1	0.1	1	1	377	0.3	376	378	13.2	99.2
2022-10-21T05:47	10	1	0.1	0	1	377	0.4	376	378	13.0	99.2
2022-10-21T05:48	10	0	0.1	0	0	377	0.4	376	378	13.1	99.2
2022-10-21T05:49	10	0	0.1	0	0	377	0.8	376	378	13.1	99.2
2022-10-21T05:50	10	0	0.1	0	0	376	0.2	376	377	13.1	99.2
2022-10-21T05:51	10	0	0.1	0	0	377	0.3	376	377	13.1	99.2
2022-10-21T05:52	10	0	0.1	0	0	377	0.3	376	378	13.2	99.2
2022-10-21T05:53	10	0	0.1	0	0	377	0.6	376	379	13.1	99.2
2022-10-21T05:54	10	0	0.1	0	0	377	0.2	376	377	13.1	99.2
2022-10-21T05:55	10	0	0.1	0	0	377	0.2	376	377	13.1	99.2
2022-10-21T05:56	10	0	0.1	0	1	377	0.2	376	377	13.1	99.2
2022-10-21T05:57	10	1	0.0	0	1	376	0.3	376	377	13.1	99.2
2022-10-21T05:58	10	1	0.1	0	1	377	0.3	376	377	13.1	99.2
2022-10-21T05:59	10	1	0.1	1	1	376	0.2	376	377	13.1	99.2
2022-10-21T06:00	10	1	0.1	1	1	376	0.4	376	377	13.1	99.2
2022-10-21T06:01	10	1	0.1	1	1	376	0.7	375	378	13.0	99.2
2022-10-21T06:02	10	1	0.1	1	1	377	0.2	376	377	13.0	99.2
2022-10-21T06:03	10	0	0.1	0	1	377	0.3	377	378	13.0	99.2
2022-10-21T06:04	10	0	0.1	0	0	377	0.2	377	378	13.0	99.2
2022-10-21T06:05	10	0	0.1	0	0	377	0.7	376	379	13.0	99.2
2022-10-21T06:06	10	0	0.1	0	0	377	0.6	375	378	13.0	99.2
2022-10-21T06:07	10	0	0.1	0	0	377	0.4	376	378	13.0	99.2
2022-10-21T06:08	10	0	0.1	0	1	377	0.2	376	377	13.0	99.2
2022-10-21T06:09	10	0	0.1	0	1	377	0.2	377	378	13.0	99.2
2022-10-21T06:10	10	0	0.1	0	1	377	0.9	376	379	13.1	99.2
2022-10-21T06:11	10	0	0.1	0	1	377	0.4	376	378	13.1	99.2
2022-10-21T06:12	10	1	0.1	1	1	377	0.5	376	378	13.1	99.2
2022-10-21T06:13	10	1	0.1	1	1	377	0.4	376	378	13.1	99.2
2022-10-21T06:14	10	1	0.1	1	1	377	0.3	377	378	13.1	99.2
2022-10-21T06:15	10	1	0.1	1	1	377	0.2	377	378	13.1	99.2
2022-10-21T06:16	10	1	0.1	1	1	377	0.6	376	379	13.1	99.2
2022-10-21T06:17	10	1	0.0	1	1	377	0.4	377	378	13.1	99.2
2022-10-21T06:18	10	1	0.0	1	1	378	0.3	377	378	13.1	99.2
2022-10-21T06:19	10	1	0.1	1	1	378	0.3	377	378	13.2	99.2
2022-10-21T06:20	10	1	0.1	1	1	378	0.3	377	378	13.2	99.2
2022-10-21T06:21	10	1	0.1	1	1	378	0.2	378	379	13.2	99.2
2022-10-21T06:22	10	1	0.1	1	1	378	0.2	378	379	13.2	99.2
2022-10-21T06:23	10	1	0.1	1	1	378	0.5	377	379	13.2	99.2
2022-10-21T06:24	10	1	0.1	1	1	378	0.4	377	379	13.2	99.2
2022-10-21T06:25	10	1	0.1	1	1	378	0.3	377	378	13.2	99.2
2022-10-21T06:26	10	1	0.1	1	1	378	0.2	377	378	13.2	99.2
2022-10-21T06:27	10	1	0.1	1	1	378	0.3	377	379	13.2	99.2
2022-10-21T06:28	10	1	0.1	1	2	378	0.3	377	378	13.2	99.2
2022-10-21T06:29	10	1	0.1	1	2	378	0.2	377	378	13.3	99.2
2022-10-21T06:30	10	2	0.1	1	2	377	0.2	377	378	13.2	99.2
2022-10-21T06:31	10	2	0.1	2	2	378	0.2	377	378	13.1	99.2
2022-10-21T06:32	10	2	0.1	2	2	378	0.3	377	378	13.1	99.2
2022-10-21T06:33	10	2	0.1	2	2	378	0.6	376	379	13.1	99.2
2022-10-21T06:34	10	3	0.1	2	3	378	0.2	378	379	13.2	99.2
2022-10-21T06:35	10	3	0.1	3	3	378	0.4	377	379	13.3	99.2
2022-10-21T06:36	10	3	0.1	2	3	379	0.3	378	379	13.3	99.2
2022-10-21T06:37	10	2	0.1	2	3	379	0.2	378	380	13.4	99.2
2022-10-21T06:38	10	2	0.1	2	2	379	0.3	379	380	13.5	99.2
2022-10-21T06:39	10	2	0.1	1	2	380	0.2	379	380	13.6	99.2
2022-10-21T06:40	10	1	0.1	1	2	380	0.4	379	381	13.5	99.2
2022-10-21T06:41	10	1	0.1	1	1	380	0.2	379	380	13.4	99.2
2022-10-21T06:42	10	1	0.1	1	1	380	0.3	379	381	13.4	99.2
2022-10-21T06:43	10	1	0.1	1	1	380	0.3	379	381	13.4	99.2
2022-10-21T06:44	10	1	0.1	1	1	380	0.4	379	381	13.5	99.2
2022-10-21T06:45	10	1	0.1	1	1	380	0.4	380	381	13.5	99.2
2022-10-21T06:46	10	1	0.1	1	1	381	0.2	380	381	13.6	99.2
2022-10-21T06:47	10	1	0.1	1	1	381	0.2	380	381	13.6	99.2
2022-10-21T06:48	10	1	0.1	1	1	381	0.8	380	383	13.6	99.2
2022-10-21T06:49	10	1	0.1	1	1	381	0.6	380	382	13.6	99.2
2022-10-21T06:50	10	1	0.1	1	2	381	0.4	380	382	13.6	99.2
2022-10-21T06:51	10	2	0.1	2	2	381	0.4	380	382	13.5	99.2
2022-10-21T06:52	10	2	0.1	2	2	381	0.2	380	381	13.5	99.2
2022-10-21T06:53	10	2	0.1	2	2	381	0.3	380	382	13.5	99.2
2022-10-21T06:54	10	2	0.0	2	2	381	0.3	381	382	13.6	99.2
2022-10-21T06:55	10	2	0.1	2	2	381	0.3	380	381	13.6	99.2
2022-10-21T06:56	10	2	0.1	2	2	381	0.2	380	381	13.6	99.2
2022-10-21T06:57	10	2	0.1	1	2	381	0.3	380	382	13.6	99.2
2022-10-21T06:58	10	1	0.1	1	2	381	0.3	380	382	13.6	99.2
2022-10-21T06:59	10	1	0.1	1	1	381	0.2	380	381	13.6	99.2
2022-10-21T07:00	10	2	0.1	1	2	381	0.2	380	381	13.6	99.2
2022-10-21T07:01	10	2	0.1	2	2	381	0.3	381	382	13.6	99.2
2022-10-21T07:02	10	2	0.0	2	2	381	0.2	381	382	13.7	99.2
2022-10-21T07:03	10	2	0.1	2	2	381	0.2	381	382	13.8	99.2
2022-10-21T07:04	10	2	0.1	2	2	382	0.2	381	382	13.8	99.2
2022-10-21T07:05	10	2	0.1	2	2	382	0.4	381	383	13.8	99.2
2022-10-21T07:06	10	2	0.1	2	2	382	0.3	381	383	13.9	99.2
2022-10-21T07:07	10	2	0.1	2	2	382	0.2	381	382	13.8	99.2
2022-10-21T07:08	10	2	0.1	2	2	382	0.2	382	382	13.9	99.2
2022-10-21T07:09	10	2	0.1	2	2	382	0.2	382	383	13.9	99.2
2022-10-21T07:10	10	2	0.1	2	3	382	0.2	382	383	13.9	99.2
2022-10-21T07:11	10	2	0.1	2	2	382	0.2	382	382	13.9	99.2
2022-10-21T07:12	10	2	0.1	2	2	382	0.3	382	383	14.0	99.2
2022-10-21T07:13	10	2	0.0	2	2	382	0.2	382	383	14.1	99.2
2022-10-21T07:14	10	2	0.1	2	2	382	0.2	382	382	14.0	99.2
2022-10-21T07:15	10	2	0.1	2	2	382	0.2	382	383	14.0	99.2
2022-10-21T07:16	10	2	0.1	2	3	382	0.2	382	383	14.1	99.2
2022-10-21T07:17	10	3	0.1	2	3	382	0.2	382	383	14.1	99.2
2022-10-21T07:18	10	3	0.1	3	3	382	0.2	382	383	14.1	99.2
2022-10-21T07:19	10	3	0.1	2	3	382	0.2	382	383	14.1	99.2
2022-10-21T07:20	10	3	0.1	2	3	382	0.2	382	383	14.1	99.2
2022-10-21T07:21	10	3	0.1	3	3	382	0.2	382	383	14.1	99.2
2022-10-21T07:22	10	3	0.1	3	4	382	0.2	382	383	14.1	99.1
2022-10-21T07:23	10	4	0.1	3	4	383	0.2	382	383	14.1	98.8
2022-10-21T07:24	10	4	0.1	3	4	383	0.2	382	383	14.2	98.5
2022-10-21T07:25	10	4	0.1	4	4	383	0.2	382	383	14.2	98.1
2022-10-21T07:26	10	4	0.1	4	4	383	0.2	382	383	14.2	97.8
2022-10-21T07:27	10	4	0.1	4	4	383	0.2	382	383	14.2	97.6
2022-10-21T07:28	10	4	0.1	4	5	383	0.2	382	383	14.3	97.3
2022-10-21T07:29	10	5	0.1	4	5	383	0.2	382	383	14.3	96.7
2022-10-21T07:30	10	5	0.1	4	5	383	0.2	382	383	14.2	96.4
2022-10-21T07:31	10	5	0.1	4	5	383	0.3	382	383	14.2	96.3
2022-10-21T07:32	10	5	0.1	4	5	383	0.3	382	384	14.2	96.3
2022-10-21T07:33	10	5	0.1	4	5	383	0.2	383	383	14.3	96.0
2022-10-21T07:34	10	5	0.1	5	5	383	0.3	383	384	14.3	95.7
2022-10-21T07:35	10	5	0.1	5	6	383	0.2	383	384	14.4	95.4
2022-10-21T07:36	10	6	0.1	5	6	383	0.3	383	384	14.4	95.1
2022-10-21T07:37	10	6	0.1	6	6	383	0.2	382	383	14.4	94.6
2022-10-21T07:38	10	6	0.1	6	6	383	0.3	382	384	14.4	94.4
2022-10-21T07:39	10	6	0.1	6	7	383	0.2	383	384	14.4	94.3
2022-10-21T07:40	10	7	0.1	6	7	384	0.2	383	384	14.4	94.4
2022-10-21T07:41	10	7	0.1	6	7	384	0.2	383	384	14.4	94.3
2022-10-21T07:42	10	6	0.1	6	7	384	0.2	383	384	14.4	94.3
2022-10-21T07:43	10	6	0.1	6	6	384	0.3	383	384	14.4	94.2
2022-10-21T07:44	10	6	0.1	5	6	384	0.2	383	384	14.4	94.2
2022-10-21T07:45	10	6	0.1	5	6	384	0.2	383	384	14.3	94.4
2022-10-21T07:46	10	6	0.1	5	6	384	0.2	383	384	14.3	94.7
2022-10-21T07:47	10	6	0.1	5	6	384	0.2	383	384	14.3	94.9
2022-10-21T07:48	10	6	0.1	6	6	383	0.2	383	384	14.3	95.0
2022-10-21T07:49	10	6	0.1	6	6	383	0.2	383	384	14.2	95.3
2022-10-21T07:50	10	6	0.1	6	6	383	0.2	383	384	14.3	95.5
2022-10-21T07:51	10	6	0.1	6	6	383	0.3	383	384	14.3	95.5
2022-10-21T07:52	10	6	0.1	5	6	383	0.2	383	384	14.3	95.5
2022-10-21T07:53	10	6	0.1	5	6	383	0.2	383	384	14.2	95.6
2022-10-21T07:54	10	5	0.1	5	6	383	0.2	382	383	14.1	95.9
2022-10-21T07:55	10	6	0.1	5	6	383	0.2	382	383	14.1	96.5
2022-10-21T07:56	10	6	0.1	5	6	383	0.2	382	383	14.0	96.8
2022-10-21T07:57	10	6	0.1	6	6	383	0.3	382	383	14.0	97.1
2022-10-21T07:58	10	6	0.1	6	6	383	0.3	382	383	13.9	97.4
2022-10-21T07:59	10	6	0.1	6	6	383	0.2	382	383	13.9	97.6
2022-10-21T08:00	10	6	0.1	6	6	383	0.2	383	383	13.9	97.8
2022-10-21T08:01	10	6	0.1	6	6	383	0.2	383	384	13.9	98.0
2022-10-21T08:02	10	6	0.2	6	7	383	0.2	383	384	13.9	98.1
2022-10-21T08:03	10	7	0.2	7	8	384	0.2	383	384	13.9	98.2
2022-10-21T08:04	10	8	0.2	8	8	384	0.3	383	384	13.9	98.3
2022-10-21T08:05	10	8	0.2	8	9	384	0.3	383	385	13.9	98.3
2022-10-21T08:06	10	9	0.1	9	9	384	0.4	383	385	13.9	98.4
2022-10-21T08:07	10	9	0.1	9	9	384	0.3	383	385	14.0	98.4
2022-10-21T08:08	10	9	0.1	9	9	385	0.2	384	385	14.1	98.5
2022-10-21T08:09	10	9	0.1	9	9	385	0.3	384	385	14.2	98.4
2022-10-21T08:10	10	9	0.1	9	9	385	0.2	384	385	14.2	98.3
2022-10-21T08:11	10	9	0.1	9	9	385	0.3	385	386	14.2	98.1
2022-10-21T08:12	10	9	0.1	9	9	386	0.2	385	386	14.3	97.9
2022-10-21T08:13	10	9	0.1	9	9	386	0.2	385	386	14.3	97.7
2022-10-21T08:14	10	9	0.1	8	9	385	0.4	385	386	14.2	97.5
2022-10-21T08:15	10	8	0.2	8	9	385	0.4	384	386	14.2	97.4
2022-10-21T08:16	10	8	0.2	7	8	385	0.9	383	386	14.3	97.4
2022-10-21T08:17	10	7	0.2	7	8	385	0.5	384	386	14.2	97.3
2022-10-21T08:18	10	7	0.1	7	7	385	0.8	384	387	14.2	97.2
2022-10-21T08:19	10	7	0.1	7	7	385	0.3	384	386	14.1	97.2
2022-10-21T08:20	10	8	0.2	7	8	385	0.3	384	385	14.1	97.3
2022-10-21T08:21	10	8	0.1	8	8	385	0.3	385	386	14.1	97.4
2022-10-21T08:22	10	8	0.2	8	9	385	0.2	385	386	14.1	97.6
2022-10-21T08:23	10	9	0.3	9	10	385	0.2	385	386	14.1	97.7
2022-10-21T08:24	10	10	0.4	10	11	385	0.2	385	386	14.1	97.8
2022-10-21T08:25	10	11	0.4	11	12	386	0.2	385	386	14.1	97.8
2022-10-21T08:26	10	12	0.3	12	13	386	0.3	385	386	14.1	97.9
2022-10-21T08:27	10	13	0.3	13	14	386	0.2	385	386	14.1	98.1
2022-10-21T08:28	10	14	0.1	14	14	386	0.2	385	386	14.1	98.2
2022-10-21T08:29	10	14	0.1	14	14	386	0.3	385	387	14.1	98.3
2022-10-21T08:30	10	13	0.3	13	14	386	0.2	386	387	14.1	98.4
2022-10-21T08:31	10	12	0.4	12	13	386	0.2	386	386	14.1	98.4
2022-10-21T08:32	10	11	0.4	10	12	386	0.2	386	387	14.1	98.5
2022-10-21T08:33	10	10	0.2	9	10	386	0.3	386	387	14.1	98.5
2022-10-21T08:34	10	9	0.2	9	10	386	0.2	385	387	14.1	98.5
2022-10-21T08:35	10	9	0.1	9	10	386	0.3	386	387	14.1	98.5
2022-10-21T08:36	10	10	0.2	9	10	386	0.2	385	386	14.1	98.5
2022-10-21T08:37	10	10	0.2	10	11	386	0.4	385	387	14.1	98.4
2022-10-21T08:38	10	11	0.2	10	11	386	0.4	386	387	14.1	98.4
2022-10-21T08:39	10	11	0.1	11	11	386	0.3	386	387	14.1	98.4
2022-10-21T08:40	10	11	0.2	11	12	386	0.2	386	387	14.1	98.3
2022-10-21T08:41	10	12	0.1	12	12	386	0.3	385	386	14.1	98.4
2022-10-21T08:42	10	12	0.2	12	12	386	0.2	386	387	14.1	98.3
2022-10-21T08:43	10	13	0.3	12	13	387	0.4	386	388	14.1	98.4
2022-10-21T08:44	10	14	0.2	13	14	387	0.3	386	388	14.1	98.4
2022-10-21T08:45	10	14	0.1	14	14	387	0.2	387	388	14.1	98.3
2022-10-21T08:46	10	13	0.3	13	14	387	0.6	387	389	14.2	98.4
2022-10-21T08:47	10	12	0.1	12	13	387	0.3	387	388	14.2	98.4
2022-10-21T08:48	10	13	0.2	12	13	387	0.3	387	388	14.2	98.4
2022-10-21T08:49	10	13	0.3	13	14	388	0.4	386	388	14.2	98.3
2022-10-21T08:50	10	14	0.4	14	15	387	0.2	387	388	14.2	98.3
2022-10-21T08:51	10	16	0.5	15	17	388	0.3	387	389	14.3	98.3
2022-10-21T08:52	10	18	0.5	17	18	388	0.3	388	389	14.3	98.2
2022-10-21T08:53	10	19	0.3	18	20	388	0.2	388	389	14.3	98.1
2022-10-21T08:54	10	20	0.2	20	20	389	0.2	388	389	14.3	97.9
2022-10-21T08:55	10	21	0.3	20	21	389	0.4	389	390	14.4	97.8
2022-10-21T08:56	10	22	0.4	21	23	390	0.4	389	391	14.4	97.6
2022-10-21T08:57	10	23	0.3	22	23	390	0.3	390	391	14.5	97.4
2022-10-21T08:58	10	24	0.1	23	24	391	0.3	390	391	14.4	97.3
2022-10-21T08:59	10	23	0.2	23	24	391	0.3	390	391	14.4	97.2
2022-10-21T09:00	10	22	0.4	21	23	391	0.3	390	391	14.5	97.1
2022-10-21T09:01	10	21	0.4	20	22	391	0.3	390	391	14.5	97.1
2022-10-21T09:02	10	20	0.2	19	20	391	0.2	390	391	14.5	97.1
2022-10-21T09:03	10	19	0.1	19	20	391	0.2	390	391	14.5	97.1
2022-10-21T09:04	10	20	0.2	19	20	391	0.2	390	391	14.5	97.0
2022-10-21T09:05	10	20	0.1	20	20	391	0.3	390	392	14.6	96.8
2022-10-21T09:06	10	20	0.1	19	20	391	0.3	391	392	14.6	96.5
2022-10-21T09:07	10	19	0.1	19	19	391	0.4	390	392	14.7	96.1
2022-10-21T09:08	10	19	0.1	19	20	391	0.2	390	391	14.7	96.0
2022-10-21T09:09	10	20	0.1	19	20	391	0.2	390	391	14.6	96.1
2022-10-21T09:10	10	20	0.1	20	20	391	0.5	390	392	14.6	96.3
2022-10-21T09:11	10	20	0.1	20	20	391	0.7	390	392	14.6	96.4
2022-10-21T09:12	10	20	0.1	20	20	391	0.3	390	392	14.6	96.6
2022-10-21T09:13	10	19	0.2	19	20	391	0.2	391	392	14.6	96.7
2022-10-21T09:14	10	19	0.1	19	19	391	0.2	391	392	14.6	96.7
2022-10-21T09:15	10	19	0.2	19	20	391	0.3	391	392	14.7	96.7
2022-10-21T09:16	10	20	0.2	20	20	391	0.5	390	392	14.7	96.7
2022-10-21T09:17	10	21	0.2	20	21	391	0.3	390	392	14.7	96.7
2022-10-21T09:18	10	21	0.1	21	22	391	0.3	391	392	14.7	96.7
2022-10-21T09:19	10	22	0.1	21	22	392	0.2	391	392	14.7	96.8
2022-10-21T09:20	10	21	0.1	21	22	392	0.2	391	392	14.8	96.8
2022-10-21T09:21	10	21	0.1	21	21	392	0.2	391	392	14.8	96.8
2022-10-21T09:22	10	21	0.1	21	21	392	0.2	391	392	14.8	96.8
2022-10-21T09:23	10	21	0.1	21	21	392	0.2	391	392	14.8	96.8
2022-10-21T09:24	10	22	0.2	21	22	392	0.2	391	392	14.9	96.9
2022-10-21T09:25	10	22	0.1	22	22	392	0.3	391	392	14.9	96.9
2022-10-21T09:26	10	22	0.1	22	23	392	0.2	392	393	14.9	96.9
2022-10-21T09:27	10	23	0.1	22	23	392	0.2	392	393	14.9	96.6
2022-10-21T09:28	10	23	0.2	23	23	393	0.3	392	393	15.0	96.5
2022-10-21T09:29	10	24	0.3	23	24	393	0.2	392	393	15.0	96.3
2022-10-21T09:30	10	25	0.3	24	25	393	0.3	393	394	15.0	95.9
2022-10-21T09:31	10	26	0.3	25	26	394	0.3	393	394	15.1	95.8
2022-10-21T09:32	10	26	0.2	26	27	394	0.3	394	395	15.1	95.5
2022-10-21T09:33	10	27	0.1	27	27	395	0.5	393	395	15.1	95.6
2022-10-21T09:34	10	27	0.1	27	27	395	0.4	394	396	15.1	95.8
2022-10-21T09:35	10	27	0.1	27	27	396	0.4	395	396	15.1	95.9
2022-10-21T09:36	10	27	0.1	27	27	395	0.2	395	396	15.1	95.9
2022-10-21T09:37	10	26	0.2	26	27	395	0.3	395	396	15.1	95.8
2022-10-21T09:38	10	26	0.3	25	26	395	0.3	394	395	15.1	95.6
2022-10-21T09:39	10	25	0.2	24	25	394	0.4	393	395	15.1	95.5
2022-10-21T09:40	10	24	0.1	24	25	393	0.2	393	394	15.0	95.9
2022-10-21T09:41	10	25	0.2	24	25	393	0.2	393	394	15.0	96.5
2022-10-21T09:42	10	25	0.2	25	25	393	0.4	392	394	14.9	96.8
2022-10-21T09:43	10	26	0.2	25	26	392	0.2	392	393	14.8	97.1
2022-10-21T09:44	10	26	0.2	26	27	393	0.2	392	393	14.9	97.4
2022-10-21T09:45	10	27	0.2	27	27	393	0.2	393	394	14.9	97.5
2022-10-21T09:46	10	27	0.2	27	28	394	0.3	393	395	14.9	97.5
2022-10-21T09:47	10	28	0.1	28	28	395	0.2	394	395	14.9	97.6
2022-10-21T09:48	10	28	0.1	28	28	395	0.3	394	395	14.9	97.5
2022-10-21T09:49	10	28	0.1	28	28	395	0.5	394	396	15.0	97.6
2022-10-21T09:50	10	28	0.1	28	29	395	0.4	394	395	14.8	97.3
2022-10-21T09:51	10	28	0.3	27	28	394	0.2	394	395	14.9	97.2
2022-10-21T09:52	10	27	0.2	26	27	394	0.4	394	395	14.9	97.1
2022-10-21T09:53	10	26	0.1	26	27	394	0.4	393	395	14.9	97.0
2022-10-21T09:54	10	26	0.1	26	26	394	0.3	393	395	14.8	96.8
2022-10-21T09:55	10	26	0.1	26	26	394	0.2	393	395	14.9	96.8
2022-10-21T09:56	10	26	0.2	26	26	394	0.3	393	395	14.9	96.7
2022-10-21T09:57	10	27	0.4	26	28	394	0.2	393	394	14.9	96.7
2022-10-21T09:58	10	28	0.4	28	29	394	0.2	393	394	14.9	96.5
2022-10-21T09:59	10	29	0.2	29	30	394	0.2	394	395	14.9	96.3
2022-10-21T10:00	10	30	0.2	29	31	394	0.3	394	395	14.9	96.2
2022-10-21T10:01	10	30	0.2	30	31	395	0.4	394	396	14.9	95.9
2022-10-21T10:02	10	31	0.3	30	32	395	0.2	394	395	14.9	95.9
2022-10-21T10:03	10	32	0.2	32	32	395	0.4	394	396	14.9	95.9
2022-10-21T10:04	10	32	0.2	32	33	396	0.4	395	396	14.9	96.0
2022-10-21T10:05	10	32	0.2	32	33	396	0.4	395	397	14.9	95.9
2022-10-21T10:06	10	31	0.4	30	32	396	0.2	395	396	14.9	96.0
2022-10-21T10:07	10	30	0.3	29	30	396	0.5	395	397	14.9	96.1
2022-10-21T10:08	10	29	0.2	29	30	397	0.4	396	398	14.9	96.2
2022-10-21T10:09	10	30	0.4	29	31	397	0.3	396	398	14.9	96.2
2022-10-21T10:10	10	31	0.5	30	32	397	0.4	396	398	15.0	96.4
2022-10-21T10:11	10	33	0.5	32	34	397	0.5	396	398	14.9	96.3
2022-10-21T10:12	10	34	0.5	33	36	398	0.7	397	400	14.9	96.3
2022-10-21T10:13	10	36	0.6	35	37	398	0.4	397	399	14.9	96.2
2022-10-21T10:14	10	37	0.2	37	38	399	0.4	398	399	15.0	96.2
2022-10-21T10:15	10	38	0.2	38	38	399	0.4	398	400	15.1	96.4
2022-10-21T10:16	10	38	0.2	38	39	399	0.4	398	400	15.0	96.2
2022-10-21T10:17	10	37	0.3	37	38	398	0.5	397	399	15.1	96.2
2022-10-21T10:18	10	37	0.3	36	37	398	0.4	397	399	15.0	96.0
2022-10-21T10:19	10	36	0.1	35	36	399	0.3	398	399	15.2	96.2
2022-10-21T10:20	10	36	0.1	35	36	398	0.3	398	399	15.1	95.9
2022-10-21T10:21	10	36	0.2	36	36	398	0.3	397	398	15.0	95.8
2022-10-21T10:22	10	37	0.3	36	37	398	0.3	398	399	15.1	95.8
2022-10-21T10:23	10	38	0.2	37	38	399	0.2	398	399	15.1	95.6
2022-10-21T10:24	10	38	0.2	38	39	399	0.3	398	399	15.1	95.5
2022-10-21T10:25	10	39	0.4	39	40	399	0.2	398	399	15.1	95.1
2022-10-21T10:26	10	41	0.5	40	42	399	0.3	399	400	15.2	95.1
2022-10-21T10:27	10	43	0.6	42	43	400	0.2	399	400	15.2	95.2
2022-10-21T10:28	10	44	0.6	43	45	400	0.3	400	401	15.2	95.0
2022-10-21T10:29	10	46	0.5	45	47	401	0.3	400	402	15.3	95.4
2022-10-21T10:30	10	47	0.2	47	48	401	0.3	401	402	15.3	95.2
2022-10-21T10:31	10	47	0.2	47	48	401	0.3	401	402	15.3	95.2
2022-10-21T10:32	10	47	0.2	47	47	401	0.2	400	401	15.2	95.0
2022-10-21T10:33	10	47	0.1	46	47	401	0.3	400	402	15.2	94.9
2022-10-21T10:34	10	47	0.3	47	48	402	0.2	402	402	15.2	94.8
2022-10-21T10:35	10	48	0.4	48	49	402	0.3	402	403	15.3	95.0
2022-10-21T10:36	10	50	0.5	49	51	402	0.3	401	402	15.3	95.1
2022-10-21T10:37	10	52	0.5	51	52	402	0.2	401	402	15.3	95.3
2022-10-21T10:38	10	53	0.4	52	54	402	0.2	402	402	15.4	95.5
2022-10-21T10:39	10	54	0.6	54	56	403	0.3	402	403	15.3	95.2
2022-10-21T10:40	10	57	0.7	56	58	403	0.2	403	404	15.3	95.1
2022-10-21T10:41	10	57	0.2	57	58	403	0.3	402	404	15.3	94.7
2022-10-21T10:42	10	58	0.3	57	58	403	0.2	403	404	15.3	94.3
2022-10-21T10:43	10	57	1.1	56	58	404	0.3	404	405	15.3	94.1
2022-10-21T10:44	10	55	0.2	55	56	405	0.2	404	405	15.4	94.1
2022-10-21T10:45	10	55	0.1	55	55	404	0.3	403	405	15.4	93.7
2022-10-21T10:46	10	55	0.3	54	55	404	0.4	403	404	15.4	93.2
2022-10-21T10:47	10	54	0.1	54	54	404	0.2	404	405	15.4	93.0
2022-10-21T10:48	10	56	1.2	54	59	404	0.4	404	405	15.5	93.0
2022-10-21T10:49	10	64	2.6	59	70	405	0.5	404	406	15.5	92.8
2022-10-21T10:50	10	69	2.0	66	73	407	0.5	406	408	15.5	92.6
2022-10-21T10:51	10	72	1.2	71	75	408	0.3	408	408	15.6	92.5
2022-10-21T10:52	10	77	5.3	70	85	409	0.6	408	410	15.7	92.7
2022-10-21T10:53	10	89	2.5	84	94	411	0.6	410	413	15.8	92.9
2022-10-21T10:54	10	82	5.0	75	90	412	0.7	411	413	15.9	92.8
2022-10-21T10:55	10	95	7.0	78	104	414	0.6	412	415	15.8	92.2
2022-10-21T10:56	10	90	4.4	85	100	414	0.6	412	415	16.1	92.3
2022-10-21T10:57	10	91	2.8	87	96	415	0.6	413	416	16.1	91.8
2022-10-21T10:58	10	82	2.7	77	88	414	1.9	411	416	16.1	91.8
2022-10-21T10:59	10	71	7.0	62	81	414	0.4	413	415	16.0	90.9
2022-10-21T11:00	10	61	0.6	60	62	411	0.7	410	413	16.2	91.4
2022-10-21T11:01	10	60	1.3	58	62	410	1.0	408	411	16.0	90.9
2022-10-21T11:02	10	63	2.1	60	67	410	0.3	409	410	15.9	89.3
2022-10-21T11:03	10	65	3.0	62	71	410	0.5	408	411	16.0	88.7
2022-10-21T11:04	10	60	2.3	58	66	409	1.0	407	411	16.0	88.6
2022-10-21T11:05	10	57	1.0	56	59	407	0.7	406	409	15.9	88.2
2022-10-21T11:06	10	55	1.8	52	58	407	0.6	406	408	16.0	87.9
2022-10-21T11:07	10	51	0.7	50	52	406	0.3	405	407	15.9	87.8
2022-10-21T11:08	10	48	0.7	47	50	405	0.5	404	406	15.8	87.1
2022-10-21T11:09	10	47	0.3	46	48	405	0.3	404	406	15.9	87.1
2022-10-21T11:10	10	49	1.1	48	52	405	0.8	404	406	15.9	87.9
2022-10-21T11:11	10	52	2.5	49	57	405	0.4	405	406	15.9	88.0
2022-10-21T11:12	10	57	1.1	55	59	406	0.5	405	407	16.0	88.1
2022-10-21T11:13	10	55	0.8	54	57	406	0.3	405	407	16.0	87.6
2022-10-21T11:14	10	56	0.8	54	58	407	0.4	406	407	16.0	87.5
2022-10-21T11:15	10	56	0.6	55	57	407	0.8	406	408	16.0	87.9
2022-10-21T11:16	10	55	0.9	53	57	406	0.3	405	407	15.9	87.2
2022-10-21T11:17	10	52	0.7	51	54	406	0.8	404	407	15.9	87.3
2022-10-21T11:18	10	52	0.6	51	53	406	0.8	404	407	15.9	87.6
2022-10-21T11:19	10	54	0.6	52	56	406	0.4	405	406	15.9	87.6
2022-10-21T11:20	10	57	0.5	56	58	406	0.4	406	407	16.0	87.8
2022-10-21T11:21	10	58	0.4	57	59	407	0.4	406	408	16.0	88.2
2022-10-21T11:22	10	57	0.4	56	58	407	0.3	407	408	16.0	88.2
2022-10-21T11:23	10	56	0.2	56	57	407	0.6	406	408	16.0	88.2
2022-10-21T11:24	10	56	0.2	56	57	407	0.7	406	408	16.0	88.3
2022-10-21T11:25	10	56	0.4	55	57	407	0.2	406	408	16.0	87.9
2022-10-21T11:26	10	54	0.4	54	55	407	0.3	407	408	16.1	88.6
2022-10-21T11:27	10	53	0.4	53	54	407	0.2	407	408	16.0	88.3
2022-10-21T11:28	10	53	0.1	53	53	407	0.4	406	408	16.1	88.4
2022-10-21T11:29	10	54	0.3	53	54	407	0.4	407	408	16.1	88.4
2022-10-21T11:30	10	54	0.1	54	54	408	0.3	407	408	16.1	87.9
2022-10-21T11:31	10	53	0.4	53	54	408	0.2	407	408	16.1	87.7
2022-10-21T11:32	10	52	0.4	51	53	407	0.2	407	408	16.1	87.8
2022-10-21T11:33	10	51	0.2	51	51	408	0.3	407	408	16.2	88.2
2022-10-21T11:34	10	50	0.8	48	51	407	0.4	406	408	16.2	88.3
2022-10-21T11:35	10	47	0.4	47	48	407	0.2	407	408	16.3	87.9
2022-10-21T11:36	10	47	0.1	47	47	407	0.3	406	407	16.3	87.5
2022-10-21T11:37	10	47	0.4	46	48	406	0.2	406	407	16.2	87.1
2022-10-21T11:38	10	49	1.0	48	51	406	0.2	406	407	16.3	87.0
2022-10-21T11:39	10	53	1.4	51	56	407	0.5	407	408	16.4	87.6
2022-10-21T11:40	10	60	2.7	56	65	408	0.6	407	409	16.4	87.6
2022-10-21T11:41	10	67	1.2	65	70	410	0.6	408	411	16.4	88.1
2022-10-21T11:42	10	66	1.0	65	68	412	0.8	409	413	16.4	88.1
2022-10-21T11:43	10	63	0.9	62	65	412	0.5	410	412	16.4	88.1
2022-10-21T11:44	10	62	0.2	62	63	412	0.2	411	412	16.4	88.1
2022-10-21T11:45	10	66	4.0	62	74	411	0.3	411	412	16.4	87.7
2022-10-21T11:46	10	77	2.5	74	83	413	0.6	412	414	16.4	87.2
2022-10-21T11:47	10	85	2.3	81	89	415	0.6	414	416	16.4	87.3
2022-10-21T11:48	10	72	5.7	67	84	415	1.4	413	417	16.6	87.7
2022-10-21T11:49	10	80	9.2	69	101	414	0.6	413	416	16.5	87.7
2022-10-21T11:50	10	89	8.7	77	104	416	0.5	415	417	16.6	87.7
2022-10-21T11:51	10	84	5.0	75	91	416	0.5	414	417	16.6	87.3
2022-10-21T11:52	10	80	1.5	76	83	416	0.2	415	416	16.7	87.5
2022-10-21T11:53	10	83	3.3	79	89	416	0.5	415	417	16.6	87.4
2022-10-21T11:54	10	79	4.1	72	86	417	0.6	416	418	16.9	88.1
2022-10-21T11:55	10	81	4.5	72	87	417	1.0	414	418	17.0	87.9
2022-10-21T11:56	10	96	7.3	83	105	418	1.6	415	420	16.9	87.5
2022-10-21T11:57	10	79	7.8	69	91	417	2.3	414	420	16.8	86.9
2022-10-21T11:58	10	95	7.5	84	106	417	1.0	416	420	16.7	86.2
2022-10-21T11:59	10	90	10.6	74	103	418	0.5	417	419	16.7	85.9
2022-10-21T12:00	10	98	2.3	94	104	419	0.6	418	420	17.0	86.6
2022-10-21T12:01	10	98	3.7	93	103	418	1.4	417	421	16.8	86.1
2022-10-21T12:02	10	90	5.9	84	101	417	0.8	415	418	16.7	85.5
2022-10-21T12:03	10	94	2.8	84	96	417	0.5	415	417	16.8	85.9
2022-10-21T12:04	10	94	1.4	92	97	417	0.3	416	417	16.8	84.4
2022-10-21T12:05	10	93	1.6	91	96	417	0.5	415	418	16.8	83.9
2022-10-21T12:06	10	90	2.1	87	93	416	0.4	415	417	16.7	83.9
2022-10-21T12:07	10	92	3.8	87	98	416	1.0	414	417	16.8	84.9
2022-10-21T12:08	10	99	1.0	98	102	417	0.4	417	418	16.8	84.8
2022-10-21T12:09	10	85	6.8	75	99	417	0.9	415	418	17.0	84.6
2022-10-21T12:10	10	72	8.2	63	89	414	1.6	411	416	17.1	82.8
2022-10-21T12:11	10	59	2.3	57	64	412	0.4	411	413	17.1	80.2
2022-10-21T12:12	10	53	1.9	50	57	411	0.6	410	412	17.1	81.1
2022-10-21T12:13	10	48	1.2	46	50	409	0.3	409	410	17.0	81.3
2022-10-21T12:14	10	45	0.8	43	46	409	0.4	408	409	17.1	81.5
2022-10-21T12:15	10	43	0.3	42	43	409	0.5	408	409	17.2	82.8
2022-10-21T12:16	10	42	0.5	41	43	408	0.4	407	409	17.2	81.9
2022-10-21T12:17	10	41	0.3	40	41	407	0.8	406	409	17.3	79.1
2022-10-21T12:18	10	40	0.2	40	41	408	0.9	407	409	17.3	79.0
2022-10-21T12:19	10	41	0.1	40	41	409	0.5	408	410	17.4	80.2
2022-10-21T12:20	10	41	0.1	41	41	409	0.4	408	409	17.3	80.7
2022-10-21T12:21	10	42	0.4	41	43	408	1.0	407	410	17.4	80.1
2022-10-21T12:22	10	43	0.3	43	44	409	0.6	408	410	17.4	80.3
2022-10-21T12:23	10	44	0.2	43	44	410	0.3	409	410	17.4	80.7
2022-10-21T12:24	10	43	0.2	43	43	410	0.5	409	411	17.5	81.8
2022-10-21T12:25	10	42	0.7	40	43	410	0.3	410	411	17.5	81.3
2022-10-21T12:26	10	39	0.7	38	40	411	0.5	410	412	17.6	82.0
2022-10-21T12:27	10	37	0.4	37	38	410	0.3	409	410	17.5	81.8
2022-10-21T12:28	10	36	0.3	36	37	409	0.5	408	410	17.5	82.7
2022-10-21T12:29	10	35	0.1	35	36	409	0.3	408	409	17.5	83.3
2022-10-21T12:30	10	36	0.6	35	40	409	0.3	408	410	17.5	83.3
2022-10-21T12:31	10	36	0.2	36	37	409	0.4	409	410	17.5	83.3
2022-10-21T12:32	10	37	0.4	37	38	409	0.4	408	410	17.5	81.8
2022-10-21T12:33	10	38	0.3	38	39	409	0.6	408	410	17.5	80.9
2022-10-21T12:34	10	40	0.9	39	42	409	0.8	408	411	17.6	81.1
2022-10-21T12:35	10	44	1.1	42	46	410	0.5	409	411	17.6	81.6
2022-10-21T12:36	10	50	1.8	46	54	411	0.9	409	412	17.6	81.7
2022-10-21T12:37	10	57	1.8	54	61	412	0.5	411	413	17.6	81.4
2022-10-21T12:38	10	50	1.9	47	54	412	0.3	411	412	17.6	78.9
2022-10-21T12:39	10	46	0.9	44	47	411	0.5	410	412	17.7	81.1
2022-10-21T12:40	10	44	0.5	44	46	411	0.6	409	412	17.7	80.3
2022-10-21T12:41	10	47	1.4	46	51	410	0.6	409	411	17.7	78.3
2022-10-21T12:42	10	46	0.2	46	47	409	0.3	408	410	17.7	78.0
2022-10-21T12:43	10	47	0.6	46	48	410	0.5	409	411	17.7	78.4
2022-10-21T12:44	10	50	1.1	48	52	411	0.9	409	412	17.7	78.2
2022-10-21T12:45	10	53	1.1	52	55	411	0.2	410	411	17.7	77.1
2022-10-21T12:46	10	54	0.3	54	55	411	0.3	410	411	17.7	77.3
2022-10-21T12:47	10	57	1.4	55	60	411	0.4	411	412	17.8	77.1
2022-10-21T12:48	10	61	0.8	60	62	412	0.5	411	413	17.8	77.1
2022-10-21T12:49	10	63	0.9	61	65	412	0.2	411	412	17.8	77.0
2022-10-21T12:50	10	64	1.4	62	67	412	0.3	412	413	17.9	77.2
2022-10-21T12:51	10	63	0.6	63	65	413	0.5	412	414	17.9	75.9
2022-10-21T12:52	10	64	2.1	62	69	414	0.3	413	414	17.9	77.2
2022-10-21T12:53	10	61	1.7	59	64	412	0.8	411	414	17.9	75.7
2022-10-21T12:54	10	60	1.1	57	62	412	0.5	411	412	17.9	76.1
2022-10-21T12:55	10	56	0.9	54	57	412	0.3	411	412	18.0	75.7
2022-10-21T12:56	10	53	0.7	52	54	411	0.4	411	412	18.0	75.5
2022-10-21T12:57	10	51	0.4	51	52	411	0.4	410	412	18.0	75.2
2022-10-21T12:58	10	50	0.4	49	51	412	0.8	410	413	18.0	74.8
2022-10-21T12:59	10	49	0.3	48	49	411	1.1	409	413	18.0	76.4
2022-10-21T13:00	10	48	0.3	47	48	410	0.3	410	411	18.0	74.4
2022-10-21T13:01	10	46	0.3	46	47	410	0.4	409	411	18.0	75.9
2022-10-21T13:02	10	45	0.5	44	46	410	0.8	408	411	18.0	74.5
2022-10-21T13:03	10	43	0.5	43	44	409	0.2	408	409	18.0	74.9
2022-10-21T13:04	10	42	0.5	41	43	408	0.3	408	409	17.9	75.2
2022-10-21T13:05	10	40	0.7	38	41	408	0.3	408	409	17.9	73.8
2022-10-21T13:06	10	37	0.7	36	38	408	0.8	407	409	17.9	75.2
2022-10-21T13:07	10	35	0.6	34	36	408	0.6	407	410	18.0	76.4
2022-10-21T13:08	10	33	0.5	32	34	408	0.2	407	408	17.9	75.3
2022-10-21T13:09	10	32	0.2	31	32	406	0.4	406	407	18.0	74.3
2022-10-21T13:10	10	31	0.2	31	32	406	0.3	406	407	17.9	74.6
2022-10-21T13:11	10	32	0.1	31	32	407	0.6	406	408	17.9	75.2
2022-10-21T13:12	10	32	0.1	32	32	408	0.3	407	409	17.9	76.4
2022-10-21T13:13	10	32	0.1	31	32	408	0.4	407	408	17.9	76.3
2022-10-21T13:14	10	31	0.1	31	32	408	0.6	407	409	17.9	76.4
2022-10-21T13:15	10	30	0.3	30	31	407	0.3	407	408	17.9	76.3
2022-10-21T13:16	10	29	0.3	29	30	407	0.3	406	407	17.9	76.4
2022-10-21T13:17	10	28	0.3	28	29	406	0.3	405	407	17.9	76.9
2022-10-21T13:18	10	27	0.4	26	28	406	0.2	406	407	18.0	75.9
2022-10-21T13:19	10	26	0.4	25	27	406	0.4	405	407	18.0	75.8
2022-10-21T13:20	10	24	0.4	24	25	405	0.3	405	406	18.0	75.4
2022-10-21T13:21	10	24	0.1	23	24	406	0.5	404	407	18.0	76.0
2022-10-21T13:22	10	24	0.4	24	25	406	0.3	405	406	18.0	75.5
2022-10-21T13:23	10	26	0.9	25	28	406	0.6	405	407	18.0	75.9
2022-10-21T13:24	10	29	1.0	28	31	406	0.4	405	407	18.0	75.5
2022-10-21T13:25	10	33	0.9	31	34	406	0.5	405	407	18.0	77.1
2022-10-21T13:26	10	35	0.4	34	36	407	0.4	406	408	17.9	76.6
2022-10-21T13:27	10	36	0.2	36	37	407	0.6	406	408	17.9	76.0
2022-10-21T13:28	10	37	0.1	36	37	407	0.5	407	408	17.9	77.0
2022-10-21T13:29	10	37	0.2	37	38	408	0.3	407	408	17.9	77.5
2022-10-21T13:30	10	37	0.2	37	38	407	0.5	406	408	17.9	76.0
2022-10-21T13:31	10	37	0.1	37	37	407	0.4	406	408	17.9	76.9
2022-10-21T13:32	10	37	0.1	37	37	407	0.4	406	408	17.9	76.8
2022-10-21T13:33	10	37	0.1	37	37	407	0.2	407	408	17.9	76.5
2022-10-21T13:34	10	37	0.1	37	38	407	0.4	407	408	17.9	76.2
2022-10-21T13:35	10	37	0.4	36	37	406	0.7	405	408	17.9	75.4
2022-10-21T13:36	10	34	0.7	33	36	406	0.4	405	407	17.9	75.8
2022-10-21T13:37	10	32	0.8	31	33	406	0.6	405	407	17.9	76.4
2022-10-21T13:38	10	29	0.8	28	31	406	0.7	405	407	17.9	76.6
2022-10-21T13:39	10	27	0.6	26	28	406	0.4	405	407	17.9	76.3
2022-10-21T13:40	10	25	0.6	24	26	405	0.5	404	406	17.9	76.5
2022-10-21T13:41	10	23	0.4	22	24	405	0.4	404	405	17.9	76.2
2022-10-21T13:42	10	22	0.4	21	22	404	0.4	403	405	17.8	75.9
2022-10-21T13:43	10	20	0.4	20	21	403	0.5	402	404	17.8	75.5
2022-10-21T13:44	10	19	0.3	19	20	403	0.3	403	404	17.8	76.5
2022-10-21T13:45	10	18	0.2	18	19	403	0.6	402	404	17.8	77.5
2022-10-21T13:46	10	18	0.1	18	18	403	0.3	402	404	17.8	78.1
2022-10-21T13:47	10	19	0.1	18	19	403	0.5	403	405	17.8	77.1
2022-10-21T13:48	10	19	0.1	19	19	403	0.3	403	404	17.8	76.8
2022-10-21T13:49	10	19	0.1	19	20	403	0.4	402	404	17.8	75.8
2022-10-21T13:50	10	20	0.2	19	20	403	0.2	403	404	17.8	76.2
2022-10-21T13:51	10	21	0.3	20	21	403	0.4	402	404	17.8	76.4
2022-10-21T13:52	10	21	0.3	21	22	404	0.3	403	405	17.8	77.2
2022-10-21T13:53	10	23	0.3	22	23	403	0.3	403	404	17.8	77.0
2022-10-21T13:54	10	24	0.4	23	24	404	0.2	403	404	17.7	77.8
2022-10-21T13:55	10	25	0.2	24	25	403	0.3	403	404	17.8	75.6
2022-10-21T13:56	10	26	0.2	25	26	403	0.2	402	404	17.8	75.5
2022-10-21T13:57	10	26	0.1	26	26	403	0.3	403	404	17.8	76.2
2022-10-21T13:58	10	26	0.1	26	26	403	0.4	402	404	17.8	77.0
2022-10-21T13:59	10	25	0.1	25	26	404	0.3	403	404	17.8	76.9
2022-10-21T14:00	10	25	0.2	25	25	404	0.4	403	405	17.8	76.5
2022-10-21T14:01	10	24	0.2	24	25	404	0.2	403	404	17.8	77.2
2022-10-21T14:02	10	24	0.2	23	24	403	0.2	403	404	17.8	77.6
2022-10-21T14:03	10	23	0.1	23	23	403	0.2	403	404	17.8	77.1
2022-10-21T14:04	10	23	0.2	22	23	403	0.3	402	403	17.8	76.3
2022-10-21T14:05	10	22	0.3	21	22	402	0.5	401	403	17.8	75.7
2022-10-21T14:06	10	21	0.3	20	21	402	0.4	401	403	17.7	76.2
2022-10-21T14:07	10	20	0.3	19	20	402	0.4	402	403	17.7	76.9
2022-10-21T14:08	10	19	0.3	18	19	402	0.3	402	403	17.7	76.3
2022-10-21T14:09	10	18	0.2	18	18	401	0.4	401	402	17.8	75.3
2022-10-21T14:10	10	17	0.1	17	18	401	0.3	400	402	17.7	76.4
2022-10-21T14:11	10	17	0.1	17	17	401	0.6	399	402	17.7	75.3
2022-10-21T14:12	10	17	0.1	17	17	401	0.3	400	401	17.7	75.7
2022-10-21T14:13	10	16	0.2	16	17	400	0.4	399	401	17.7	76.3
2022-10-21T14:14	10	16	0.2	15	16	401	0.3	400	401	17.7	75.5
2022-10-21T14:15	10	15	0.3	14	15	400	0.3	400	401	17.7	76.2
2022-10-21T14:16	10	14	0.3	13	14	400	0.4	400	401	17.7	75.7
2022-10-21T14:17	10	13	0.3	13	14	400	0.2	399	400	17.6	76.9
2022-10-21T14:18	10	12	0.2	12	13	400	0.4	400	401	17.6	76.5
2022-10-21T14:19	10	12	0.2	12	13	400	0.2	400	401	17.6	76.2
2022-10-21T14:20	10	12	0.1	12	12	400	0.3	399	401	17.6	76.4
2022-10-21T14:21	10	12	0.1	11	12	400	0.2	400	401	17.6	76.8
2022-10-21T14:22	10	11	0.1	11	12	400	0.6	398	401	17.6	77.0
2022-10-21T14:23	10	11	0.1	11	11	400	0.5	398	401	17.5	77.4
2022-10-21T14:24	10	11	0.1	11	11	399	0.2	399	400	17.5	77.7
2022-10-21T14:25	10	11	0.1	11	11	399	0.2	399	400	17.5	77.8
2022-10-21T14:26	10	11	0.1	10	11	400	0.3	399	400	17.5	78.5
2022-10-21T14:27	10	11	0.1	10	11	399	0.3	399	400	17.5	79.2
2022-10-21T14:28	10	11	0.1	10	11	399	0.2	399	400	17.4	79.0
2022-10-21T14:29	10	10	0.1	10	11	399	0.2	399	400	17.5	77.8
2022-10-21T14:30	10	10	0.1	10	10	399	0.3	399	400	17.5	78.2
2022-10-21T14:31	10	10	0.2	9	10	399	0.2	399	399	17.4	77.9
2022-10-21T14:32	10	9	0.1	9	10	399	0.2	398	399	17.4	78.4
2022-10-21T14:33	10	9	0.1	9	10	399	0.3	398	400	17.4	78.4
2022-10-21T14:34	10	10	0.1	9	10	399	0.2	398	399	17.4	78.6
2022-10-21T14:35	10	9	0.1	9	10	399	0.2	398	399	17.4	78.2
2022-10-21T14:36	10	9	0.2	9	9	399	0.2	398	399	17.4	77.6
2022-10-21T14:37	10	8	0.3	8	9	399	0.3	398	399	17.4	78.2
2022-10-21T14:38	10	7	0.3	7	8	398	0.4	397	399	17.4	78.2
2022-10-21T14:39	10	7	0.2	6	7	398	0.3	397	399	17.4	78.6
2022-10-21T14:40	10	6	0.1	6	7	397	0.3	397	398	17.3	79.3
2022-10-21T14:41	10	6	0.1	6	6	397	0.3	397	398	17.3	78.2
2022-10-21T14:42	10	6	0.1	6	6	397	0.2	396	397	17.3	79.0
2022-10-21T14:43	10	6	0.1	6	6	397	0.3	396	398	17.3	78.6
2022-10-21T14:44	10	6	0.1	6	6	396	0.3	396	397	17.2	79.5
2022-10-21T14:45	10	6	0.1	5	6	396	0.3	396	397	17.2	78.9
2022-10-21T14:46	10	5	0.1	5	6	396	0.3	395	397	17.2	78.6
2022-10-21T14:47	10	5	0.1	5	5	396	0.3	395	396	17.2	78.3
2022-10-21T14:48	10	5	0.1	5	5	396	0.2	395	396	17.1	79.0
2022-10-21T14:49	10	5	0.1	4	5	395	0.4	395	396	17.1	78.7
2022-10-21T14:50	10	4	0.1	4	5	396	0.3	395	396	17.1	78.3
2022-10-21T14:51	10	4	0.1	4	4	395	0.4	395	396	17.1	78.3
2022-10-21T14:52	10	4	0.2	4	4	395	0.3	394	396	17.1	78.3
2022-10-21T14:53	10	4	0.1	3	4	395	0.3	394	396	17.2	77.5
2022-10-21T14:54	10	3	0.1	3	4	394	0.4	394	395	17.2	76.6
2022-10-21T14:55	10	3	0.1	3	3	394	0.2	394	395	17.1	77.1
2022-10-21T14:56	10	3	0.1	3	3	394	0.5	393	395	17.0	78.8
2022-10-21T14:57	10	3	0.1	3	4	394	0.3	393	395	17.0	79.0
2022-10-21T14:58	10	3	0.1	3	3	394	0.3	393	394	17.0	79.3
2022-10-21T14:59	10	3	0.1	3	3	394	0.3	393	394	16.9	79.6
2022-10-21T15:00	10	3	0.1	3	3	393	0.5	392	394	16.9	77.7
2022-10-21T15:01	10	3	0.1	3	3	393	0.3	392	393	16.9	77.3
2022-10-21T15:02	10	2	0.1	2	3	393	0.2	392	393	16.9	77.1
2022-10-21T15:03	10	2	0.1	2	2	393	0.3	392	393	16.7	78.0
2022-10-21T15:04	10	2	0.1	2	2	393	0.3	392	393	16.7	78.6
2022-10-21T15:05	10	2	0.1	2	2	392	0.3	392	393	16.7	77.0
2022-10-21T15:06	10	2	0.1	2	2	392	0.4	392	393	16.7	76.8
2022-10-21T15:07	10	2	0.1	2	2	392	0.4	391	393	16.6	77.8
2022-10-21T15:08	10	2	0.1	2	3	391	0.5	390	392	16.5	77.8
2022-10-21T15:09	10	3	0.1	2	3	391	0.5	390	392	16.4	78.8
2022-10-21T15:10	10	3	0.2	3	4	391	0.5	390	392	16.4	78.1
2022-10-21T15:11	10	4	0.2	3	4	390	0.3	390	391	16.2	79.1
2022-10-21T15:12	10	4	0.1	4	5	390	0.2	390	391	16.2	79.1
2022-10-21T15:13	10	4	0.1	4	5	389	0.2	389	390	16.2	78.0
2022-10-21T15:14	10	4	0.1	4	4	389	0.3	389	390	16.0	79.7
2022-10-21T15:15	10	4	0.1	4	4	389	0.3	389	390	15.9	80.7
2022-10-21T15:16	10	4	0.1	4	4	389	0.3	388	389	15.8	81.0
2022-10-21T15:17	10	4	0.1	4	4	389	0.3	388	389	15.8	80.3
2022-10-21T15:18	10	3	0.1	3	4	388	0.3	387	389	15.6	81.6
2022-10-21T15:19	10	3	0.1	3	3	388	0.3	388	389	15.6	82.2
2022-10-21T15:20	10	3	0.1	3	3	388	0.2	388	389	15.6	81.3
2022-10-21T15:21	10	3	0.1	3	4	388	0.2	388	389	15.5	82.4
2022-10-21T15:22	10	4	0.6	3	7	388	0.2	388	389	15.5	82.4
2022-10-21T15:23	10	4	0.1	4	4	389	0.4	388	389	15.6	82.2
2022-10-21T15:24	10	4	0.1	4	4	388	0.4	388	389	15.6	82.0
2022-10-21T15:25	10	4	0.1	4	4	388	0.3	388	389	15.6	81.9
2022-10-21T15:26	10	4	0.1	4	4	388	0.2	388	388	15.5	81.9
2022-10-21T15:27	10	4	0.1	4	4	388	0.5	387	389	15.5	82.5
2022-10-21T15:28	10	4	0.2	4	5	388	0.4	387	388	15.4	83.1
2022-10-21T15:29	10	4	0.1	4	4	388	0.5	387	389	15.5	82.8
2022-10-21T15:30	10	4	0.1	4	4	388	0.5	387	389	15.4	82.9
2022-10-21T15:31	10	4	0.2	4	5	388	0.4	387	389	15.4	83.3
2022-10-21T15:32	10	4	0.2	4	5	387	0.2	387	388	15.4	83.2
2022-10-21T15:33	10	4	0.1	4	5	387	0.3	386	388	15.4	83.8
2022-10-21T15:34	10	4	0.2	4	5	388	0.2	387	388	15.3	84.3
2022-10-21T15:35	10	4	0.2	4	5	387	0.2	387	388	15.3	84.7
2022-10-21T15:36	10	4	0.2	4	5	387	0.2	387	388	15.3	84.9
2022-10-21T15:37	10	4	0.1	4	5	387	0.2	387	388	15.2	84.9
2022-10-21T15:38	10	4	0.2	4	5	387	0.2	386	387	15.2	84.9
2022-10-21T15:39	10	5	0.1	4	5	387	0.3	386	388	15.2	85.6
2022-10-21T15:40	10	4	0.2	4	5	387	0.4	386	388	15.2	85.0
2022-10-21T15:41	10	4	0.2	4	5	387	0.2	386	388	15.2	84.5
2022-10-21T15:42	10	4	0.1	4	4	387	0.2	387	388	15.2	84.6
2022-10-21T15:43	10	4	0.1	4	4	387	0.2	386	387	15.2	84.8
2022-10-21T15:44	10	4	0.1	4	4	387	0.2	387	388	15.2	85.0
2022-10-21T15:45	10	4	0.1	4	4	387	0.2	386	388	15.1	85.3
2022-10-21T15:46	10	4	0.1	3	4	387	0.3	386	387	15.1	85.5
2022-10-21T15:47	10	4	0.1	3	4	387	0.1	386	387	15.1	85.5
2022-10-21T15:48	10	4	0.1	3	4	387	0.2	386	387	15.1	85.2
2022-10-21T15:49	10	4	0.1	3	4	387	0.3	386	387	15.2	84.6
2022-10-21T15:50	10	3	0.1	3	4	386	0.2	386	387	15.2	84.6
2022-10-21T15:51	10	3	0.1	3	3	386	0.2	386	387	15.1	84.9
2022-10-21T15:52	10	3	0.1	3	3	386	0.4	385	387	15.1	85.2
2022-10-21T15:53	10	3	0.1	3	3	386	0.3	385	386	15.1	85.6
2022-10-21T15:54	10	3	0.1	3	3	386	0.2	385	386	15.1	85.9
2022-10-21T15:55	10	3	0.1	3	3	386	0.2	385	386	15.1	85.7
2022-10-21T15:56	10	3	0.1	3	3	386	0.2	385	386	15.1	85.8
2022-10-21T15:57	10	3	0.1	2	3	386	0.2	385	386	15.1	85.7
2022-10-21T15:58	10	3	0.1	2	3	385	0.3	385	386	15.0	85.8
2022-10-21T15:59	10	2	0.1	2	3	385	0.2	385	386	15.0	85.6
2022-10-21T16:00	10	2	0.1	2	3	385	0.2	385	386	15.1	85.3
2022-10-21T16:01	10	2	0.1	2	3	385	0.2	385	386	15.1	85.2
2022-10-21T16:02	10	2	0.1	2	2	386	0.2	385	386	15.0	85.6
2022-10-21T16:03	10	2	0.1	2	2	386	0.3	385	386	15.0	85.8
2022-10-21T16:04	10	2	0.1	2	2	385	0.2	385	386	15.0	85.7
2022-10-21T16:05	10	2	0.1	2	2	385	0.2	385	386	15.0	85.9
2022-10-21T16:06	10	2	0.1	2	2	385	0.2	385	386	15.0	86.1
2022-10-21T16:07	10	2	0.0	2	2	385	0.3	385	386	14.9	86.9
2022-10-21T16:08	10	2	0.1	2	2	385	0.2	385	386	14.8	87.9
2022-10-21T16:09	10	2	0.1	2	2	385	0.2	385	386	14.9	87.5
2022-10-21T16:10	10	2	0.1	2	2	385	0.3	384	386	14.9	87.1
2022-10-21T16:11	10	1	0.1	1	2	385	0.3	384	386	14.9	87.2
2022-10-21T16:12	10	1	0.1	1	1	385	0.2	384	385	14.9	87.3
2022-10-21T16:13	10	1	0.1	1	1	385	0.2	384	385	14.9	87.1
2022-10-21T16:14	10	1	0.1	1	1	384	0.2	384	385	14.8	87.3
2022-10-21T16:15	10	1	0.1	1	1	385	0.3	384	385	14.8	87.6
2022-10-21T16:16	10	1	0.1	1	1	384	0.3	384	385	14.8	87.8
2022-10-21T16:17	10	1	0.1	1	1	384	0.2	384	385	14.8	87.7
2022-10-21T16:18	10	1	0.1	1	1	384	0.2	384	385	14.8	87.5
2022-10-21T16:19	10	1	0.1	1	1	384	0.2	384	385	14.8	87.6
2022-10-21T16:20	10	1	0.1	1	1	384	0.3	384	385	14.8	87.5
2022-10-21T16:21	10	1	0.1	1	1	384	0.3	383	385	14.8	87.5
2022-10-21T16:22	10	1	0.1	1	1	384	0.3	384	385	14.8	87.7
2022-10-21T16:23	10	1	0.1	1	1	384	0.3	383	385	14.8	87.8
2022-10-21T16:24	10	1	0.1	0	1	384	0.2	384	385	14.8	87.5
2022-10-21T16:25	10	1	0.1	1	1	384	0.2	384	385	14.8	88.1
2022-10-21T16:26	10	1	0.1	1	1	384	0.2	384	385	14.8	87.6
2022-10-21T16:27	10	1	0.1	1	1	384	0.2	384	385	14.8	87.8
2022-10-21T16:28	10	1	0.1	1	1	384	0.3	384	385	14.8	88.0
2022-10-21T16:29	10	1	0.1	1	1	384	0.2	384	385	14.8	87.9
2022-10-21T16:30	10	1	0.1	1	1	384	0.3	384	385	14.9	87.6
2022-10-21T16:31	10	1	0.1	1	1	384	0.2	384	385	14.9	87.3
2022-10-21T16:32	10	1	0.1	0	1	384	0.2	383	385	14.8	87.4
2022-10-21T16:33	10	1	0.1	0	1	384	0.3	384	385	14.8	87.8
2022-10-21T16:34	10	1	0.1	0	1	384	0.2	383	384	14.6	88.8
2022-10-21T16:35	10	1	0.1	0	1	384	0.2	383	384	14.5	89.8
2022-10-21T16:36	10	1	0.1	0	1	384	0.2	383	384	14.5	90.3
2022-10-21T16:37	10	1	0.1	1	1	384	0.3	383	384	14.4	90.8
2022-10-21T16:38	10	1	0.1	1	1	384	0.3	383	384	14.4	91.2
2022-10-21T16:39	10	1	0.1	1	1	384	0.2	383	384	14.6	91.0
2022-10-21T16:40	10	1	0.1	1	1	384	0.3	383	384	14.6	90.4
2022-10-21T16:41	10	1	0.1	0	1	383	0.3	383	384	14.6	90.2
2022-10-21T16:42	10	1	0.1	0	1	384	0.3	383	384	14.5	90.5
2022-10-21T16:43	10	1	0.1	1	1	383	0.4	383	384	14.6	90.3
2022-10-21T16:44	10	1	0.1	0	1	383	0.3	383	384	14.5	90.3
2022-10-21T16:45	10	1	0.1	1	1	383	0.2	383	384	14.5	90.7
2022-10-21T16:46	10	1	0.1	1	1	383	0.2	383	384	14.5	91.0
2022-10-21T16:47	10	1	0.1	1	1	383	0.3	382	384	14.4	91.2
2022-10-21T16:48	10	1	0.1	0	1	383	0.3	382	384	14.4	91.5
2022-10-21T16:49	10	1	0.1	1	1	383	0.3	382	384	14.4	91.7
2022-10-21T16:50	10	1	0.1	0	1	383	0.4	382	384	14.3	92.2
2022-10-21T16:51	10	0	0.1	0	1	383	0.3	383	384	14.2	92.8
2022-10-21T16:52	10	0	0.1	0	1	383	0.3	382	384	14.2	93.2
2022-10-21T16:53	10	0	0.1	0	0	383	0.2	383	383	14.2	93.4
2022-10-21T16:54	10	0	0.1	0	0	383	0.2	382	383	14.2	93.8
2022-10-21T16:55	10	0	0.1	0	0	383	0.2	382	383	14.2	93.9
2022-10-21T16:56	10	0	0.1	0	0	383	0.2	382	384	14.2	93.8
2022-10-21T16:57	10	0	0.1	0	1	383	0.3	382	383	14.2	93.7
2022-10-21T16:58	10	1	0.1	0	1	383	0.2	382	383	14.3	93.5
2022-10-21T16:59	10	1	0.1	0	1	383	0.2	382	383	14.2	93.4
2022-10-21T17:00	10	1	0.1	0	1	383	0.2	383	384	14.3	93.5
2022-10-21T17:01	10	1	0.1	1	1	383	0.2	383	384	14.3	93.5
2022-10-21T17:02	10	1	0.1	1	1	383	0.3	383	384	14.3	93.2
2022-10-21T17:03	10	1	0.1	1	1	383	0.2	383	384	14.4	92.9
2022-10-21T17:04	10	1	0.1	1	1	383	0.3	382	384	14.4	92.6
2022-10-21T17:05	10	1	0.1	1	1	383	0.2	383	384	14.4	92.6
2022-10-21T17:06	10	1	0.1	1	1	383	0.2	383	383	14.3	92.6
2022-10-21T17:07	10	1	0.1	1	1	383	0.3	382	383	14.3	92.7
2022-10-21T17:08	10	1	0.1	1	1	383	0.2	383	383	14.3	93.0
2022-10-21T17:09	10	1	0.1	1	1	383	0.3	382	384	14.3	93.2
2022-10-21T17:10	10	1	0.1	1	1	383	0.2	383	384	14.3	93.2
2022-10-21T17:11	10	1	0.1	1	1	383	0.2	383	384	14.3	93.3
2022-10-21T17:12	10	1	0.1	1	1	383	0.2	383	384	14.3	93.4
2022-10-21T17:13	10	1	0.0	1	1	383	0.2	383	384	14.3	93.3
2022-10-21T17:14	10	1	0.1	1	2	383	0.2	383	384	14.2	93.4
2022-10-21T17:15	10	1	0.1	1	1	383	0.3	382	383	14.2	93.5
2022-10-21T17:16	10	1	0.1	1	1	383	0.3	382	383	14.2	93.6
2022-10-21T17:17	10	1	0.1	1	1	382	0.2	382	383	14.3	93.3
2022-10-21T17:18	10	1	0.2	1	1	382	0.2	382	383	14.3	92.7
2022-10-21T17:19	10	1	0.1	0	1	383	0.3	382	383	14.4	92.6
2022-10-21T17:20	10	1	0.2	1	1	383	0.2	382	383	14.4	92.1
2022-10-21T17:21	10	1	0.2	1	2	383	0.3	382	383	14.3	92.2
2022-10-21T17:22	10	1	0.1	1	1	383	0.3	382	383	14.3	92.4
2022-10-21T17:23	10	1	0.2	1	1	383	0.2	382	383	14.3	92.6
2022-10-21T17:24	10	1	0.1	1	1	383	0.3	382	383	14.3	93.1
2022-10-21T17:25	10	1	0.1	1	1	383	0.3	382	383	14.3	93.2
2022-10-21T17:26	10	1	0.2	1	1	383	0.3	382	384	14.4	92.9
2022-10-21T17:27	10	1	0.2	1	2	382	0.3	382	383	14.3	92.6
2022-10-21T17:28	10	1	0.2	1	1	383	0.3	382	383	14.3	92.8
2022-10-21T17:29	10	1	0.2	1	1	383	0.2	382	383	14.4	92.4
2022-10-21T17:30	10	1	0.2	1	1	383	0.3	382	384	14.4	92.0
2022-10-21T17:31	10	1	0.2	1	1	383	0.2	382	383	14.4	91.8
2022-10-21T17:32	10	1	0.1	1	1	383	0.2	382	383	14.4	92.0
2022-10-21T17:33	10	1	0.2	1	2	383	0.3	382	383	14.3	92.2
2022-10-21T17:34	10	1	0.2	1	2	382	0.3	382	383	14.3	92.4
2022-10-21T17:35	10	1	0.2	1	2	383	0.3	382	383	14.3	92.8
2022-10-21T17:36	10	1	0.2	1	2	383	0.3	382	383	14.2	93.1
2022-10-21T17:37	10	1	0.1	1	2	383	0.3	382	383	14.1	93.4
2022-10-21T17:38	10	1	0.2	1	2	383	0.3	382	384	14.1	94.0
2022-10-21T17:39	10	1	0.1	1	2	383	0.3	382	383	14.1	94.2
2022-10-21T17:40	10	1	0.1	1	2	383	0.3	382	383	14.1	94.3
2022-10-21T17:41	10	1	0.1	1	2	382	0.3	381	383	14.1	94.4
2022-10-21T17:42	10	1	0.1	1	1	383	0.2	382	383	14.1	94.8
2022-10-21T17:43	10	1	0.1	1	1	383	0.3	382	383	14.0	95.0
2022-10-21T17:44	10	1	0.1	1	1	383	0.3	382	383	14.0	95.2
2022-10-21T17:45	10	1	0.1	1	1	383	0.2	382	383	14.0	95.3
2022-10-21T17:46	10	1	0.1	1	1	383	0.2	382	383	14.1	95.2
2022-10-21T17:47	10	1	0.1	1	1	383	0.2	382	383	14.1	94.8
2022-10-21T17:48	10	1	0.1	1	1	383	0.3	382	383	14.1	94.7
2022-10-21T17:49	10	1	0.2	1	1	383	0.3	382	383	14.1	94.5
2022-10-21T17:50	10	1	0.1	1	1	383	0.2	382	383	14.1	94.6
2022-10-21T17:51	10	1	0.1	1	1	383	0.3	382	383	14.1	94.6
2022-10-21T17:52	10	1	0.1	1	1	383	0.4	382	383	14.1	94.6
2022-10-21T17:53	10	1	0.1	1	2	383	0.4	382	384	14.1	94.6
2022-10-21T17:54	10	1	0.1	1	1	383	0.3	382	383	14.1	94.7
2022-10-21T17:55	10	1	0.1	1	1	383	0.4	382	383	14.1	94.8
2022-10-21T17:56	10	1	0.1	1	1	383	0.2	382	383	14.2	94.6
2022-10-21T17:57	10	1	0.1	1	1	383	0.3	382	383	14.2	94.2
2022-10-21T17:58	10	1	0.1	1	1	382	0.2	382	383	14.1	94.1
2022-10-21T17:59	10	1	0.1	1	1	382	0.2	382	382	14.1	94.3
2022-10-21T18:00	10	1	0.1	1	1	382	0.2	381	383	14.0	94.6
2022-10-21T18:01	10	1	0.1	1	1	382	0.2	382	383	14.0	94.8
2022-10-21T18:02	10	1	0.1	1	1	382	0.3	382	383	14.0	95.0
2022-10-21T18:03	10	1	0.1	1	1	382	0.2	382	383	14.1	95.0
2022-10-21T18:04	10	1	0.1	1	2	382	0.2	382	383	14.0	95.0
2022-10-21T18:05	10	1	0.1	1	1	383	0.3	382	383	14.0	95.2
2022-10-21T18:06	10	1	0.1	1	2	382	0.2	382	383	14.0	95.3
2022-10-21T18:07	10	1	0.1	1	2	382	0.3	382	383	14.0	95.3
2022-10-21T18:08	10	1	0.1	1	2	382	0.3	382	383	14.1	95.3
2022-10-21T18:09	10	1	0.1	1	1	382	0.2	382	383	14.0	95.3
2022-10-21T18:10	10	1	0.1	1	2	382	0.2	382	383	14.0	95.4
2022-10-21T18:11	10	1	0.1	1	2	382	0.2	382	383	14.0	95.4
2022-10-21T18:12	10	1	0.1	1	2	382	0.2	381	383	14.0	95.5
2022-10-21T18:13	10	1	0.1	1	2	382	0.2	382	383	13.9	95.6
2022-10-21T18:14	10	1	0.1	1	2	382	0.3	382	383	13.9	95.7
2022-10-21T18:15	10	1	0.1	1	2	382	1.1	380	384	13.9	95.8
2022-10-21T18:16	10	1	0.1	1	2	382	0.5	381	383	13.8	96.0
2022-10-21T18:17	10	1	0.1	1	1	382	0.3	382	383	13.8	96.3
2022-10-21T18:18	10	1	0.1	1	1	382	0.3	382	383	13.8	96.4
2022-10-21T18:19	10	1	0.1	1	1	382	0.2	382	383	13.8	96.6
2022-10-21T18:20	10	1	0.1	1	1	382	0.4	381	383	13.8	96.7
2022-10-21T18:21	10	1	0.1	1	1	382	0.4	382	383	13.8	96.8
2022-10-21T18:22	10	1	0.1	1	1	382	0.4	381	383	13.8	97.0
2022-10-21T18:23	10	1	0.1	1	1	382	0.2	382	383	13.8	97.1
2022-10-21T18:24	10	1	0.1	0	1	382	0.3	382	383	13.7	97.3
2022-10-21T18:25	10	1	0.1	0	1	382	0.3	381	383	13.7	97.4
2022-10-21T18:26	10	1	0.1	0	1	382	0.2	382	383	13.7	97.5
2022-10-21T18:27	10	0	0.1	0	1	382	0.2	382	383	13.7	97.7
2022-10-21T18:28	10	0	0.1	0	1	382	0.3	381	383	13.7	97.8
2022-10-21T18:29	10	0	0.1	0	0	382	0.3	381	383	13.7	97.9
2022-10-21T18:30	10	0	0.1	0	0	382	0.2	382	383	13.7	98.0
2022-10-21T18:31	10	0	0.1	0	0	382	0.3	382	383	13.7	98.0
2022-10-21T18:32	10	0	0.1	0	0	382	0.3	382	383	13.7	98.1
2022-10-21T18:33	10	0	0.1	0	1	382	0.4	381	383	13.7	98.1
2022-10-21T18:34	10	0	0.1	0	1	382	0.4	381	383	13.7	98.2
2022-10-21T18:35	10	1	0.1	0	1	382	0.5	382	384	13.7	98.2
2022-10-21T18:36	10	1	0.1	0	1	382	0.4	382	383	13.7	98.3
2022-10-21T18:37	10	1	0.1	1	1	382	0.3	381	383	13.7	98.3
2022-10-21T18:38	10	1	0.1	1	1	382	0.3	382	383	13.7	98.3
2022-10-21T18:39	10	1	0.1	1	1	382	0.5	381	383	13.7	98.3
2022-10-21T18:40	10	1	0.1	1	1	382	0.5	381	383	13.8	98.4
2022-10-21T18:41	10	1	0.1	1	1	382	0.3	382	383	13.8	98.3
2022-10-21T18:42	10	1	0.1	1	1	382	0.2	382	383	13.8	98.4
2022-10-21T18:43	10	1	0.1	1	1	382	0.3	382	383	13.8	98.4
2022-10-21T18:44	10	1	0.1	1	1	382	0.2	382	383	13.8	98.4
2022-10-21T18:45	10	1	0.1	1	1	382	0.2	382	383	13.7	98.4
2022-10-21T18:46	10	1	0.1	1	1	382	0.3	382	383	13.7	98.4
2022-10-21T18:47	10	1	0.1	1	1	382	0.2	382	383	13.7	98.4
2022-10-21T18:48	10	1	0.1	1	1	382	0.3	381	383	13.7	98.4
2022-10-21T18:49	10	1	0.1	1	1	382	0.2	382	383	13.7	98.4
2022-10-21T18:50	10	1	0.1	1	1	382	0.2	381	382	13.7	98.5
2022-10-21T18:51	10	1	0.1	1	1	382	0.2	382	383	13.7	98.5
2022-10-21T18:52	10	1	0.1	1	1	382	0.2	382	382	13.6	98.6
2022-10-21T18:53	10	1	0.1	0	1	382	0.2	381	382	13.6	98.6
2022-10-21T18:54	10	1	0.1	0	1	382	0.3	381	383	13.6	98.7
2022-10-21T18:55	10	1	0.1	0	1	382	0.2	381	382	13.6	98.7
2022-10-21T18:56	10	1	0.1	0	1	382	0.2	381	382	13.6	98.8
2022-10-21T18:57	10	1	0.1	0	1	382	0.2	381	382	13.6	98.8
2022-10-21T18:58	10	1	0.1	1	1	382	0.2	381	382	13.6	98.8
2022-10-21T18:59	10	1	0.1	1	1	382	0.3	381	382	13.6	98.8
2022-10-21T19:00	10	1	0.1	0	1	382	0.3	381	383	13.6	98.9
2022-10-21T19:01	10	1	0.1	0	1	382	0.2	381	382	13.6	98.9
2022-10-21T19:02	10	1	0.1	0	1	381	0.2	381	382	13.6	98.9
2022-10-21T19:03	10	1	0.1	0	1	382	0.2	381	382	13.7	98.9
2022-10-21T19:04	10	1	0.1	0	1	381	0.2	381	382	13.7	98.9
2022-10-21T19:05	10	1	0.1	1	1	382	0.3	381	382	13.7	98.9
2022-10-21T19:06	10	1	0.1	1	1	381	0.3	381	382	13.7	98.9
2022-10-21T19:07	10	1	0.1	1	1	381	0.2	381	382	13.6	98.9
2022-10-21T19:08	10	1	0.1	1	1	381	0.2	381	382	13.6	98.9
2022-10-21T19:09	10	1	0.1	1	1	381	0.2	381	382	13.6	98.9
2022-10-21T19:10	10	1	0.1	1	1	381	0.2	381	382	13.6	98.9
2022-10-21T19:11	10	1	0.1	1	1	381	0.2	381	382	13.6	98.9
2022-10-21T19:12	10	1	0.1	1	1	381	0.2	381	382	13.6	98.9
2022-10-21T19:13	10	1	0.1	1	1	381	0.2	381	382	13.6	98.9
2022-10-21T19:14	10	1	0.1	0	1	381	0.2	381	381	13.6	98.9
2022-10-21T19:15	10	1	0.1	1	1	381	0.3	380	381	13.6	98.9
2022-10-21T19:16	10	1	0.1	0	1	381	0.2	380	381	13.6	98.9
2022-10-21T19:17	10	1	0.1	0	1	381	0.2	380	381	13.6	98.9
2022-10-21T19:18	10	1	0.1	0	1	381	0.2	380	381	13.6	98.9
2022-10-21T19:19	10	1	0.1	1	1	381	0.2	380	381	13.6	98.9
2022-10-21T19:20	10	1	0.1	1	1	381	0.2	380	381	13.6	98.9
2022-10-21T19:21	10	1	0.1	1	1	381	0.2	381	382	13.7	98.9
2022-10-21T19:22	10	1	0.1	1	1	382	0.2	381	382	13.7	98.9
2022-10-21T19:23	10	1	0.1	1	1	382	0.3	381	382	13.7	98.9
2022-10-21T19:24	10	1	0.1	1	1	382	0.2	382	382	13.7	98.8
2022-10-21T19:25	10	1	0.1	1	2	382	0.3	382	383	13.8	98.8
2022-10-21T19:26	10	1	0.1	1	2	382	0.3	381	383	13.8	98.7
2022-10-21T19:27	10	1	0.1	1	1	382	0.2	382	383	13.8	98.7
2022-10-21T19:28	10	1	0.1	1	1	383	0.2	382	383	13.8	98.6
2022-10-21T19:29	10	1	0.1	1	1	382	0.3	382	383	13.7	98.4
2022-10-21T19:30	10	1	0.1	0	1	382	0.2	382	382	13.7	98.4
2022-10-21T19:31	10	1	0.1	0	1	382	0.3	381	382	13.7	98.4
2022-10-21T19:32	10	0	0.1	0	1	381	0.2	381	382	13.6	98.3
2022-10-21T19:33	10	0	0.1	0	1	381	0.2	381	382	13.7	98.4
2022-10-21T19:34	10	1	0.1	0	1	381	0.2	381	382	13.7	98.4
2022-10-21T19:35	10	1	0.1	0	1	381	0.2	381	382	13.7	98.4
2022-10-21T19:36	10	1	0.1	1	1	381	0.3	381	382	13.7	98.4
2022-10-21T19:37	10	1	0.1	1	1	381	0.2	381	382	13.7	98.4
2022-10-21T19:38	10	1	0.1	1	1	381	0.3	381	382	13.8	98.3
2022-10-21T19:39	10	1	0.1	1	1	382	0.3	381	382	13.8	98.3
2022-10-21T19:40	10	1	0.1	1	1	382	0.3	381	382	13.9	98.2
2022-10-21T19:41	10	1	0.1	1	1	382	0.2	381	383	13.9	98.0
2022-10-21T19:42	10	1	0.1	1	1	382	0.2	382	383	13.9	97.7
2022-10-21T19:43	10	1	0.1	1	1	382	0.3	381	382	13.9	97.5
2022-10-21T19:44	10	1	0.1	1	2	382	0.2	381	382	13.9	97.2
2022-10-21T19:45	10	1	0.1	1	1	382	0.2	381	382	13.9	97.0
2022-10-21T19:46	10	1	0.1	1	1	381	0.2	381	382	13.9	96.7
2022-10-21T19:47	10	1	0.1	1	1	381	0.2	381	382	13.9	96.5
2022-10-21T19:48	10	1	0.1	1	1	381	0.2	381	382	13.8	96.4
2022-10-21T19:49	10	1	0.1	1	1	381	0.2	381	382	13.8	96.5
2022-10-21T19:50	10	1	0.1	1	1	381	0.3	380	382	13.8	96.6
2022-10-21T19:51	10	1	0.1	1	1	381	0.2	380	381	13.9	96.7
2022-10-21T19:52	10	1	0.1	1	1	381	0.2	380	381	13.8	96.6
2022-10-21T19:53	10	1	0.1	1	1	381	0.3	380	381	13.8	96.6
2022-10-21T19:54	10	1	0.1	1	1	381	0.2	380	381	13.8	96.6
2022-10-21T19:55	10	1	0.1	1	1	381	0.4	380	382	13.8	96.6
2022-10-21T19:56	10	1	0.1	1	1	381	0.3	380	382	13.8	96.7
2022-10-21T19:57	10	1	0.1	0	1	381	0.3	381	382	13.8	96.8
2022-10-21T19:58	10	1	0.1	0	1	381	0.3	380	382	13.8	96.7
2022-10-21T19:59	10	1	0.1	0	1	381	0.3	381	382	13.9	96.6
2022-10-21T20:00	10	1	0.1	0	1	381	0.4	380	382	13.9	96.4
2022-10-21T20:01	10	1	0.1	1	1	381	0.3	381	382	14.0	96.2
2022-10-21T20:02	10	1	0.1	1	1	381	0.3	381	382	14.0	95.9
2022-10-21T20:03	10	1	0.1	1	1	382	0.3	381	382	14.0	95.6
2022-10-21T20:04	10	1	0.1	1	1	381	0.2	381	382	14.0	95.4
2022-10-21T20:05	10	1	0.1	1	1	382	0.4	381	383	14.0	95.3
2022-10-21T20:06	10	1	0.1	1	1	382	0.3	381	382	14.0	95.3
2022-10-21T20:07	10	1	0.1	1	1	382	0.2	381	382	13.9	95.3
2022-10-21T20:08	10	1	0.1	1	1	382	0.2	381	383	13.9	95.4
2022-10-21T20:09	10	1	0.1	1	1	382	0.2	381	382	13.8	95.6
2022-10-21T20:10	10	1	0.1	1	1	382	0.2	382	382	13.8	95.8
2022-10-21T20:11	10	1	0.1	0	1	382	0.4	381	383	13.8	96.0
2022-10-21T20:12	10	1	0.1	0	1	382	0.3	381	382	13.8	96.3
2022-10-21T20:13	10	1	0.1	0	1	382	0.6	381	383	13.7	96.4
2022-10-21T20:14	10	1	0.1	0	1	381	0.4	381	382	13.6	96.6
2022-10-21T20:15	10	1	0.1	0	1	381	0.6	380	382	13.6	96.8
2022-10-21T20:16	10	1	0.1	1	1	381	0.4	381	382	13.6	96.9
2022-10-21T20:17	10	1	0.1	1	1	381	0.2	381	382	13.6	97.1
2022-10-21T20:18	10	1	0.1	0	1	381	0.3	381	382	13.6	97.3
2022-10-21T20:19	10	1	0.1	0	1	381	0.8	380	383	13.6	97.5
2022-10-21T20:20	10	1	0.1	0	1	381	0.4	380	382	13.6	97.6
2022-10-21T20:21	10	1	0.1	1	1	381	0.3	381	382	13.5	97.7
2022-10-21T20:22	10	1	0.1	1	1	381	0.2	381	382	13.6	97.8
2022-10-21T20:23	10	1	0.1	1	1	381	0.3	380	381	13.5	97.9
2022-10-21T20:24	10	1	0.1	1	1	381	0.2	380	381	13.5	98.0
2022-10-21T20:25	10	1	0.1	1	1	381	0.2	380	381	13.5	98.1
2022-10-21T20:26	10	1	0.1	0	1	381	0.3	380	382	13.5	98.2
2022-10-21T20:27	10	0	0.1	0	1	381	0.2	380	381	13.5	98.2
2022-10-21T20:28	10	0	0.1	0	0	381	0.2	380	381	13.5	98.3
2022-10-21T20:29	10	0	0.1	0	0	381	0.2	380	381	13.5	98.4
2022-10-21T20:30	10	0	0.1	0	0	381	0.3	380	381	13.5	98.5
2022-10-21T20:31	10	0	0.1	0	0	381	0.3	380	382	13.5	98.5
2022-10-21T20:32	10	0	0.1	0	0	381	0.2	381	381	13.6	98.6
2022-10-21T20:33	10	0	0.1	0	1	381	0.2	380	381	13.5	98.6
2022-10-21T20:34	10	0	0.1	0	1	381	0.3	380	381	13.5	98.6
2022-10-21T20:35	10	0	0.1	0	1	381	0.2	380	381	13.6	98.6
2022-10-21T20:36	10	0	0.1	0	0	381	0.2	380	381	13.6	98.6
2022-10-21T20:37	10	0	0.1	0	0	381	0.2	380	381	13.6	98.6
2022-10-21T20:38	10	0	0.1	0	1	381	0.3	380	381	13.6	98.5
2022-10-21T20:39	10	0	0.1	0	1	381	0.2	380	381	13.6	98.5
2022-10-21T20:40	10	0	0.1	0	1	381	0.2	380	381	13.6	98.4
2022-10-21T20:41	10	1	0.1	0	1	381	0.2	381	381	13.6	98.3
2022-10-21T20:42	10	1	0.1	1	1	381	0.2	380	382	13.6	98.3
2022-10-21T20:43	10	1	0.1	1	1	381	0.2	381	381	13.7	98.3
2022-10-21T20:44	10	1	0.1	1	1	381	0.2	380	381	13.7	98.2
2022-10-21T20:45	10	1	0.1	1	1	381	0.2	381	382	13.7	98.2
2022-10-21T20:46	10	1	0.1	1	1	381	0.2	381	382	13.7	98.1
2022-10-21T20:47	10	1	0.1	1	1	381	0.3	380	381	13.7	98.1
2022-10-21T20:48	10	1	0.1	0	1	380	0.2	380	381	13.7	98.0
2022-10-21T20:49	10	1	0.1	1	1	381	0.2	380	381	13.7	97.9
2022-10-21T20:50	10	0	0.1	0	1	381	0.3	380	381	13.6	97.9
2022-10-21T20:51	10	0	0.1	0	1	381	0.2	380	381	13.6	97.9
2022-10-21T20:52	10	0	0.1	0	1	381	0.2	380	381	13.6	97.9
2022-10-21T20:53	10	0	0.1	0	1	381	0.2	380	381	13.6	97.9
2022-10-21T20:54	10	0	0.1	0	1	381	0.2	380	381	13.6	98.0
2022-10-21T20:55	10	0	0.1	0	1	381	0.2	381	381	13.6	98.0
2022-10-21T20:56	10	0	0.1	0	1	381	0.3	380	381	13.6	98.1
2022-10-21T20:57	10	1	0.1	0	1	381	0.3	381	382	13.6	98.1
2022-10-21T20:58	10	1	0.1	1	1	381	0.6	380	382	13.6	98.2
2022-10-21T20:59	10	1	0.1	1	1	382	0.2	381	382	13.6	98.2
2022-10-21T21:00	10	1	0.1	1	1	382	0.2	381	382	13.6	98.2
2022-10-21T21:01	10	1	0.1	1	1	381	0.3	381	382	13.5	98.2
2022-10-21T21:02	10	1	0.1	1	1	381	0.3	381	382	13.5	98.3
2022-10-21T21:03	10	1	0.1	0	1	381	0.3	380	382	13.5	98.3
2022-10-21T21:04	10	1	0.1	0	1	381	0.3	381	382	13.5	98.4
2022-10-21T21:05	10	1	0.1	0	1	381	0.2	381	381	13.5	98.4
2022-10-21T21:06	10	0	0.1	0	1	381	0.2	380	381	13.5	98.5
2022-10-21T21:07	10	0	0.1	0	1	381	0.3	381	382	13.5	98.6
2022-10-21T21:08	10	0	0.1	0	1	381	0.3	380	381	13.5	98.6
2022-10-21T21:09	10	0	0.1	0	1	381	0.4	380	382	13.5	98.7
2022-10-21T21:10	10	0	0.1	0	1	381	0.5	380	382	13.5	98.7
2022-10-21T21:11	10	0	0.1	0	1	381	0.4	380	382	13.5	98.7
2022-10-21T21:12	10	0	0.1	0	1	380	0.6	379	381	13.5	98.7
2022-10-21T21:13	10	0	0.1	0	1	381	0.6	379	382	13.5	98.8
2022-10-21T21:14	10	0	0.1	0	0	380	0.7	379	382	13.5	98.8
2022-10-21T21:15	10	0	0.1	0	0	381	0.4	379	381	13.5	98.9
2022-10-21T21:16	10	0	0.1	0	0	381	0.7	379	382	13.5	98.9
2022-10-21T21:17	10	0	0.1	0	0	380	0.5	379	381	13.5	98.9
2022-10-21T21:18	10	0	0.1	0	0	381	0.3	380	381	13.6	98.9
2022-10-21T21:19	10	0	0.1	0	0	380	0.3	380	381	13.6	98.9
2022-10-21T21:20	10	0	0.1	0	0	380	0.3	380	381	13.6	98.9
2022-10-21T21:21	10	0	0.1	0	0	380	0.3	380	381	13.6	98.9
2022-10-21T21:22	10	0	0.1	0	0	380	0.5	379	381	13.6	98.9
2022-10-21T21:23	10	0	0.1	0	0	380	0.3	380	381	13.6	98.9
2022-10-21T21:24	10	0	0.1	0	0	380	0.4	379	381	13.6	98.9
2022-10-21T21:25	10	0	0.0	0	0	380	0.4	380	381	13.7	98.9
2022-10-21T21:26	10	0	0.1	0	0	381	0.4	380	381	13.8	98.8
2022-10-21T21:27	10	0	0.1	0	1	381	0.2	380	381	13.8	98.7
2022-10-21T21:28	10	1	0.1	0	1	381	0.3	380	381	13.8	98.6
2022-10-21T21:29	10	1	0.1	0	1	381	0.3	380	381	13.8	98.4
2022-10-21T21:30	10	1	0.0	1	1	381	0.5	380	382	13.8	98.3
2022-10-21T21:31	10	1	0.1	0	1	381	0.3	380	381	13.7	98.2
2022-10-21T21:32	10	1	0.1	1	1	381	0.3	380	381	13.8	98.1
2022-10-21T21:33	10	1	0.1	0	1	381	0.3	380	381	13.7	98.0
2022-10-21T21:34	10	1	0.1	0	1	381	0.7	379	382	13.8	97.9
2022-10-21T21:35	10	1	0.1	1	1	381	0.4	380	382	13.8	97.8
2022-10-21T21:36	10	1	0.1	0	1	381	0.4	380	382	13.8	97.7
2022-10-21T21:37	10	1	0.1	0	1	381	0.4	380	381	13.8	97.6
2022-10-21T21:38	10	1	0.1	1	1	381	0.3	380	381	13.8	97.5
2022-10-21T21:39	10	1	0.1	1	1	381	0.8	379	382	13.9	97.4
2022-10-21T21:40	10	1	0.0	1	1	381	0.5	379	382	13.9	97.3
2022-10-21T21:41	10	1	0.1	1	1	381	0.7	379	382	13.9	97.2
2022-10-21T21:42	10	1	0.1	1	1	381	0.4	380	382	13.9	97.0
2022-10-21T21:43	10	1	0.1	1	1	381	0.3	380	381	13.9	96.9
2022-10-21T21:44	10	1	0.1	1	1	381	0.3	380	381	13.9	96.8
2022-10-21T21:45	10	1	0.1	1	1	381	0.5	379	382	13.9	96.6
2022-10-21T21:46	10	1	0.1	1	1	381	0.5	379	381	13.9	96.4
2022-10-21T21:47	10	1	0.1	1	1	381	0.4	380	381	14.0	96.2
2022-10-21T21:48	10	1	0.1	1	1	381	0.4	380	382	14.0	96.0
2022-10-21T21:49	10	1	0.1	1	1	381	0.4	380	382	14.0	95.7
2022-10-21T21:50	10	1	0.1	1	1	381	0.3	380	382	14.0	95.5
2022-10-21T21:51	10	1	0.1	1	1	381	0.7	379	382	14.1	95.3
2022-10-21T21:52	10	1	0.1	1	1	381	0.3	380	381	14.1	94.8
2022-10-21T21:53	10	1	0.1	1	1	381	0.3	380	381	14.0	94.7
2022-10-21T21:54	10	1	0.1	1	1	381	0.5	380	382	14.0	94.8
2022-10-21T21:55	10	1	0.1	1	1	381	0.3	380	381	14.0	94.9
2022-10-21T21:56	10	1	0.1	1	1	381	0.4	380	381	13.9	95.0
2022-10-21T21:57	10	1	0.1	1	1	381	0.7	379	382	14.0	95.0
2022-10-21T21:58	10	1	0.1	1	1	381	0.4	379	381	14.0	94.9
2022-10-21T21:59	10	1	0.1	1	1	381	0.5	379	381	14.0	94.9
2022-10-21T22:00	10	1	0.1	1	1	381	0.3	380	381	14.0	94.9
2022-10-21T22:01	10	1	0.1	1	1	381	0.3	380	381	14.0	94.8
2022-10-21T22:02	10	1	0.1	1	1	381	0.3	379	381	14.0	94.6
2022-10-21T22:03	10	1	0.1	1	1	381	0.5	380	381	14.0	94.7
2022-10-21T22:04	10	1	0.1	1	1	381	0.5	380	381	14.0	94.7
2022-10-21T22:05	10	1	0.1	1	1	381	0.3	380	381	14.1	94.6
2022-10-21T22:06	10	1	0.1	1	1	381	0.4	380	381	14.1	94.5
2022-10-21T22:07	10	1	0.1	1	1	381	0.4	380	381	14.1	94.4
2022-10-21T22:08	10	1	0.1	1	1	381	0.3	380	381	14.1	94.3
2022-10-21T22:09	10	1	0.1	1	1	381	0.4	380	381	14.1	94.2
2022-10-21T22:10	10	1	0.1	1	1	381	0.4	380	382	14.2	94.0
2022-10-21T22:11	10	1	0.1	1	1	381	0.7	379	382	14.3	93.5
2022-10-21T22:12	10	1	0.1	1	1	381	0.3	381	382	14.3	93.1
2022-10-21T22:13	10	1	0.1	1	1	381	0.5	380	382	14.2	93.2
2022-10-21T22:14	10	1	0.1	1	1	381	0.4	380	382	14.2	93.3
2022-10-21T22:15	10	1	0.1	1	1	381	0.5	380	382	14.3	93.3
2022-10-21T22:16	10	1	0.1	1	1	381	0.5	380	382	14.4	92.7
2022-10-21T22:17	10	1	0.1	1	1	381	1.1	379	383	14.4	92.1
2022-10-21T22:18	10	1	0.1	1	1	381	0.6	380	382	14.4	91.8
2022-10-21T22:19	10	1	0.1	1	1	381	0.8	379	383	14.3	92.1
2022-10-21T22:20	10	1	0.1	1	1	381	0.3	380	381	14.2	92.4
2022-10-21T22:21	10	1	0.1	1	1	381	0.4	380	382	14.2	92.6
2022-10-21T22:22	10	1	0.1	1	1	381	0.5	380	382	14.3	92.2
2022-10-21T22:23	10	1	0.1	1	1	381	0.3	380	382	14.3	91.5
2022-10-21T22:24	10	1	0.1	1	1	381	0.3	380	382	14.3	91.3
2022-10-21T22:25	10	1	0.1	1	1	381	0.3	380	382	14.4	91.0
2022-10-21T22:26	10	1	0.0	1	1	381	0.7	379	382	14.4	90.7
2022-10-21T22:27	10	1	0.1	1	2	381	0.3	380	382	14.4	90.2
2022-10-21T22:28	10	1	0.1	1	2	381	0.5	380	382	14.4	90.1
2022-10-21T22:29	10	2	0.0	1	2	381	0.7	379	383	14.5	89.8
2022-10-21T22:30	10	2	0.1	1	2	381	0.9	379	382	14.5	89.3
2022-10-21T22:31	10	2	0.1	1	2	381	0.8	379	383	14.4	89.7
2022-10-21T22:32	10	2	0.1	1	2	381	0.5	379	382	14.4	89.8
2022-10-21T22:33	10	1	0.1	1	2	381	0.9	379	383	14.3	90.0
2022-10-21T22:34	10	1	0.1	1	2	381	0.8	379	382	14.4	90.2
2022-10-21T22:35	10	1	0.1	1	2	381	0.8	380	383	14.3	90.2
2022-10-21T22:36	10	1	0.1	1	2	381	0.8	379	382	14.3	90.2
2022-10-21T22:37	10	1	0.1	1	1	381	0.5	379	381	14.3	90.4
2022-10-21T22:38	10	1	0.1	1	1	380	0.4	380	381	14.2	90.9
2022-10-21T22:39	10	1	0.1	1	1	380	0.6	379	381	14.2	91.1
2022-10-21T22:40	10	1	0.1	1	1	380	0.4	379	381	14.2	91.4
2022-10-21T22:41	10	1	0.1	1	1	380	0.3	379	381	14.2	91.2
2022-10-21T22:42	10	1	0.1	1	1	380	0.6	378	381	14.3	90.8
2022-10-21T22:43	10	1	0.1	1	1	380	0.7	379	381	14.3	90.2
2022-10-21T22:44	10	1	0.1	1	1	381	0.5	379	381	14.4	89.8
2022-10-21T22:45	10	1	0.1	1	1	380	0.7	379	382	14.4	89.6
2022-10-21T22:46	10	1	0.1	1	1	380	0.8	379	382	14.4	89.1
2022-10-21T22:47	10	1	0.1	1	2	380	0.4	379	381	14.4	88.8
2022-10-21T22:48	10	1	0.1	1	1	380	0.4	380	381	14.4	89.0
2022-10-21T22:49	10	1	0.1	1	2	380	0.6	379	381	14.5	88.5
2022-10-21T22:50	10	1	0.1	1	2	381	0.6	379	381	14.5	88.4
2022-10-21T22:51	10	1	0.1	1	1	380	0.3	379	381	14.4	88.4
2022-10-21T22:52	10	1	0.1	1	2	380	0.5	380	381	14.5	88.5
2022-10-21T22:53	10	1	0.1	1	1	380	0.2	380	381	14.4	88.4
2022-10-21T22:54	10	1	0.1	1	2	380	0.3	380	381	14.4	88.8
2022-10-21T22:55	10	1	0.1	1	2	380	0.3	380	381	14.4	88.8
2022-10-21T22:56	10	1	0.1	1	2	380	0.2	380	381	14.4	88.8
2022-10-21T22:57	10	1	0.1	1	1	380	0.3	379	381	14.4	88.9
2022-10-21T22:58	10	1	0.1	1	1	380	0.4	379	381	14.3	89.4
2022-10-21T22:59	10	1	0.1	1	2	380	0.4	379	381	14.2	90.0
2022-10-21T23:00	10	1	0.1	1	1	380	0.3	379	380	14.1	90.5
2022-10-21T23:01	10	1	0.1	1	1	380	0.3	379	380	14.0	91.2
2022-10-21T23:02	10	1	0.1	1	1	380	0.2	379	380	13.9	91.7
2022-10-21T23:03	10	1	0.1	1	1	379	0.3	379	380	13.9	92.1
2022-10-21T23:04	10	1	0.1	1	1	379	0.3	379	380	13.9	92.6
2022-10-21T23:05	10	1	0.1	1	1	380	0.4	379	380	13.8	92.9
2022-10-21T23:06	10	1	0.1	1	1	380	0.3	379	380	13.8	93.2
2022-10-21T23:07	10	1	0.1	0	1	380	0.3	379	380	13.8	93.5
2022-10-21T23:08	10	1	0.1	0	1	380	0.3	379	381	13.8	93.7
2022-10-21T23:09	10	1	0.1	1	1	380	0.2	379	381	13.7	94.0
2022-10-21T23:10	10	1	0.1	0	1	380	0.3	379	380	13.7	94.4
2022-10-21T23:11	10	1	0.1	0	1	380	0.3	379	380	13.7	94.7
2022-10-21T23:12	10	1	0.1	0	1	380	0.3	379	381	13.7	95.1
2022-10-21T23:13	10	1	0.1	0	1	380	0.3	379	381	13.6	95.4
2022-10-21T23:14	10	0	0.1	0	1	380	0.2	379	380	13.6	95.7
2022-10-21T23:15	10	0	0.1	0	1	380	0.3	379	380	13.6	95.9
2022-10-21T23:16	10	0	0.1	0	1	380	0.2	379	380	13.6	96.1
2022-10-21T23:17	10	0	0.1	0	1	380	0.3	379	380	13.7	96.3
2022-10-21T23:18	10	0	0.1	0	1	380	0.2	380	381	13.7	96.3
2022-10-21T23:19	10	0	0.1	0	1	380	0.2	380	381	13.7	96.4
2022-10-21T23:20	10	0	0.1	0	1	380	0.3	379	381	13.7	96.4
2022-10-21T23:21	10	1	0.1	0	1	380	0.3	379	381	13.7	96.4
2022-10-21T23:22	10	1	0.1	0	1	380	0.5	380	382	13.7	96.4
2022-10-21T23:23	10	1	0.1	0	1	380	0.5	379	381	13.8	96.4
2022-10-21T23:24	10	2	7.2	1	54	380	0.5	379	381	13.8	96.3
2022-10-21T23:25	10	1	0.1	1	1	380	0.3	379	381	13.8	96.3
2022-10-21T23:26	10	1	0.1	1	1	380	0.4	379	381	13.8	96.2
2022-10-21T23:27	10	1	0.1	1	1	380	0.3	379	381	13.7	96.2
2022-10-21T23:28	10	1	0.1	1	1	380	0.4	380	381	13.7	96.3
2022-10-21T23:29	10	1	0.1	1	1	380	0.2	380	381	13.8	96.2
2022-10-21T23:30	10	1	0.1	1	1	380	0.2	380	381	13.8	96.1
2022-10-21T23:31	10	1	0.1	1	1	380	0.4	379	381	13.8	96.0
2022-10-21T23:32	10	1	0.1	1	1	380	0.3	379	381	13.8	95.8
2022-10-21T23:33	10	1	0.1	1	1	380	0.2	380	380	13.7	95.8
2022-10-21T23:34	10	1	0.1	1	1	380	0.3	379	380	13.7	96.0
2022-10-21T23:35	10	1	0.1	1	1	380	0.3	380	381	13.7	96.2
2022-10-21T23:36	10	1	0.1	1	1	380	0.3	379	381	13.7	96.3
2022-10-21T23:37	10	1	0.1	1	1	380	0.4	379	381	13.7	96.4
2022-10-21T23:38	10	1	0.1	1	1	380	0.3	379	381	13.7	96.4
2022-10-21T23:39	10	1	0.1	1	1	380	0.3	379	381	13.7	96.4
2022-10-21T23:40	10	1	0.1	1	1	380	0.2	379	381	13.7	96.4
2022-10-21T23:41	10	1	0.1	1	1	380	0.3	379	380	13.7	96.4
2022-10-21T23:42	10	1	0.1	1	1	380	0.4	379	381	13.8	96.3
2022-10-21T23:43	10	1	0.1	1	1	380	0.3	379	380	13.9	96.2
2022-10-21T23:44	10	1	0.1	1	1	380	0.7	379	381	13.9	95.9
2022-10-21T23:45	10	1	0.1	1	1	380	0.3	380	381	13.9	95.5
2022-10-21T23:46	10	1	0.1	1	1	380	0.2	380	381	13.9	95.2
2022-10-21T23:47	10	1	0.1	1	1	380	0.4	379	381	13.9	94.9
2022-10-21T23:48	10	1	0.1	1	1	380	0.3	379	381	13.9	94.7
2022-10-21T23:49	10	1	0.1	1	1	380	0.3	379	381	13.9	94.6
2022-10-21T23:50	10	1	0.1	1	1	380	0.3	379	380	13.9	94.5
2022-10-21T23:51	10	1	0.1	1	1	379	0.3	379	380	13.9	94.4
2022-10-21T23:52	10	1	0.1	1	1	379	0.2	379	380	13.9	94.3
2022-10-21T23:53	10	1	0.1	1	1	379	0.2	379	380	13.9	94.3
2022-10-21T23:54	10	1	0.1	1	1	379	0.3	378	380	13.9	94.4
2022-10-21T23:55	10	1	0.1	1	1	379	0.3	379	380	13.9	94.4
2022-10-21T23:56	10	1	0.1	1	1	379	0.3	378	380	13.8	94.4
2022-10-21T23:57	10	1	0.1	1	1	379	0.3	378	379	13.7	94.7
2022-10-21T23:58	10	1	0.1	1	1	379	0.3	378	379	13.7	94.9
2022-10-21T23:59	10	1	0.1	1	1	379	0.2	378	379	13.6	95.3
2022-10-22T00:00	10	1	0.1	1	1	379	0.3	378	379	13.5	95.6
2022-10-22T00:01	10	1	0.1	1	1	379	0.3	378	379	13.5	95.9
2022-10-22T00:02	10	1	0.1	1	1	379	0.2	378	379	13.5	96.3
2022-10-22T00:03	10	1	0.1	1	1	379	0.3	378	379	13.5	96.4
2022-10-22T00:04	10	1	0.1	1	1	378	0.2	378	379	13.4	96.5
2022-10-22T00:05	10	1	0.1	1	1	379	0.2	378	379	13.5	96.8
2022-10-22T00:06	10	1	0.1	1	1	379	0.3	378	379	13.5	96.8
2022-10-22T00:07	10	1	0.1	1	1	379	0.2	378	379	13.4	96.9
2022-10-22T00:08	10	1	0.1	1	1	378	0.2	378	379	13.4	97.1
2022-10-22T00:09	10	1	0.1	1	1	378	0.2	378	379	13.4	97.2
2022-10-22T00:10	10	1	0.1	1	1	379	0.3	378	379	13.4	97.3
2022-10-22T00:11	10	1	0.1	1	1	379	0.2	378	379	13.6	97.4
2022-10-22T00:12	10	1	0.1	1	1	379	0.3	378	379	13.7	97.2
2022-10-22T00:13	10	1	0.1	1	1	379	0.3	378	379	13.7	96.9
2022-10-22T00:14	10	1	0.1	1	1	379	0.2	378	380	13.8	96.6
2022-10-22T00:15	10	1	0.1	1	1	379	0.2	379	380	13.9	96.0
2022-10-22T00:16	10	1	0.1	1	1	379	0.2	379	380	13.9	95.3
2022-10-22T00:17	10	1	0.1	1	1	380	0.2	379	380	13.9	94.7
2022-10-22T00:18	10	1	0.1	1	1	379	0.4	379	380	13.9	94.0
2022-10-22T00:19	10	1	0.1	1	1	379	0.2	379	380	13.9	93.8
2022-10-22T00:20	10	1	0.1	1	1	379	0.3	378	380	13.8	93.8
2022-10-22T00:21	10	1	0.1	1	1	379	0.3	378	379	13.8	94.1
2022-10-22T00:22	10	1	0.1	1	1	379	0.3	379	380	13.8	94.2
2022-10-22T00:23	10	1	0.1	1	1	379	0.2	379	380	13.8	94.3
2022-10-22T00:24	10	1	0.1	1	1	379	0.3	378	380	13.8	94.3
2022-10-22T00:25	10	1	0.1	1	1	379	0.3	379	380	14.0	94.1
2022-10-22T00:26	10	1	0.1	1	1	379	0.3	379	380	14.0	93.6
2022-10-22T00:27	10	1	0.1	1	1	380	0.4	379	380	14.0	93.4
2022-10-22T00:28	10	1	0.1	1	1	379	0.3	378	380	13.9	93.3
2022-10-22T00:29	10	1	0.1	1	1	380	0.4	378	380	13.9	93.2
2022-10-22T00:30	10	1	0.1	1	1	379	0.2	379	380	13.9	93.3
2022-10-22T00:31	10	1	0.1	1	1	379	0.2	379	380	13.9	93.4
2022-10-22T00:32	10	1	0.1	1	1	379	0.4	379	380	13.8	93.6
2022-10-22T00:33	10	1	0.1	1	1	379	0.3	379	380	13.8	93.8
2022-10-22T00:34	10	1	0.1	1	1	379	0.5	379	381	13.8	93.9
2022-10-22T00:35	10	1	0.1	1	1	380	0.2	379	380	13.8	94.1
2022-10-22T00:36	10	1	0.1	1	1	379	0.2	379	380	13.7	94.3
2022-10-22T00:37	10	1	0.1	1	1	379	0.3	379	380	13.7	94.4
2022-10-22T00:38	10	1	0.1	1	1	380	0.4	379	380	13.7	94.6
2022-10-22T00:39	10	1	0.1	1	1	379	0.5	378	380	13.7	94.6
2022-10-22T00:40	10	1	0.1	1	1	380	0.4	379	381	13.7	94.8
2022-10-22T00:41	10	1	0.1	1	1	380	0.5	378	381	13.7	94.9
2022-10-22T00:42	10	1	0.1	1	1	380	0.4	379	380	13.7	95.0
2022-10-22T00:43	10	1	0.1	1	1	380	0.4	379	381	13.7	95.2
2022-10-22T00:44	10	1	0.1	1	1	380	0.6	379	381	13.7	95.2
2022-10-22T00:45	10	1	0.1	1	1	380	0.5	379	381	13.7	95.1
2022-10-22T00:46	10	1	0.1	1	1	380	0.4	379	381	13.7	95.2
2022-10-22T00:47	10	1	0.1	0	1	380	0.6	379	381	13.7	95.2
2022-10-22T00:48	10	1	0.1	0	1	381	0.5	379	381	13.7	95.3
2022-10-22T00:49	10	1	0.1	0	1	381	0.2	380	381	13.7	95.4
2022-10-22T00:50	10	1	0.1	0	1	381	1.2	379	383	13.6	95.5
2022-10-22T00:51	10	0	0.1	0	1	380	0.6	379	381	13.6	95.6
2022-10-22T00:52	10	0	0.1	0	1	381	0.7	379	382	13.6	95.7
2022-10-22T00:53	10	1	0.1	0	1	381	0.3	380	381	13.6	95.8
2022-10-22T00:54	10	1	0.1	0	1	380	0.2	379	380	13.6	95.9
2022-10-22T00:55	10	1	0.1	1	1	380	0.3	379	381	13.6	96.0
2022-10-22T00:56	10	1	0.1	1	1	380	0.2	379	380	13.5	96.2
2022-10-22T00:57	10	1	0.1	1	1	379	0.2	379	380	13.5	96.4
2022-10-22T00:58	10	1	0.1	1	1	380	0.2	379	380	13.5	96.7
2022-10-22T00:59	10	1	0.1	1	1	380	0.2	379	380	13.5	96.8
2022-10-22T01:00	10	1	0.1	0	1	379	0.2	379	380	13.5	96.8
2022-10-22T01:01	10	1	0.1	1	1	379	0.2	379	380	13.5	96.9
2022-10-22T01:02	10	1	0.1	1	1	380	0.2	379	380	13.5	96.9
2022-10-22T01:03	10	1	0.1	1	1	380	0.2	379	380	13.4	97.1
2022-10-22T01:04	10	1	0.1	1	1	380	0.2	379	381	13.5	97.2
2022-10-22T01:05	10	1	0.1	1	1	380	0.3	380	381	13.4	97.3
2022-10-22T01:06	10	1	0.1	1	1	380	0.2	380	381	13.4	97.3
2022-10-22T01:07	10	1	0.1	1	1	380	0.3	380	381	13.4	97.4
2022-10-22T01:08	10	1	0.1	1	1	380	0.2	380	381	13.4	97.5
2022-10-22T01:09	10	1	0.1	1	1	380	0.2	380	381	13.5	97.5
2022-10-22T01:10	10	1	0.1	1	1	380	0.2	380	381	13.5	97.6
2022-10-22T01:11	10	1	0.1	1	1	380	0.2	380	381	13.5	97.5
2022-10-22T01:12	10	1	0.1	1	1	380	0.2	380	381	13.6	97.5
2022-10-22T01:13	10	1	0.1	1	1	380	0.2	380	381	13.6	97.4
2022-10-22T01:14	10	1	0.1	0	1	380	0.2	380	381	13.6	97.3
2022-10-22T01:15	10	1	0.1	0	1	380	0.2	380	381	13.7	97.2
2022-10-22T01:16	10	1	0.1	0	1	380	0.3	380	381	13.7	97.0
2022-10-22T01:17	10	1	0.1	0	1	380	0.2	380	381	13.7	96.9
2022-10-22T01:18	10	1	0.1	1	1	380	0.2	380	381	13.6	96.8
2022-10-22T01:19	10	1	0.1	1	1	380	0.2	380	381	13.7	96.8
2022-10-22T01:20	10	1	0.1	1	1	380	0.2	380	381	13.6	96.8
2022-10-22T01:21	10	1	0.1	1	1	380	0.3	379	380	13.6	96.8
2022-10-22T01:22	10	1	0.1	1	1	380	0.2	379	380	13.6	96.8
2022-10-22T01:23	10	1	0.1	1	1	380	0.2	379	380	13.6	96.8
2022-10-22T01:24	10	1	0.1	1	1	379	0.2	379	380	13.6	96.9
2022-10-22T01:25	10	1	0.1	1	1	379	0.2	379	380	13.6	96.9
2022-10-22T01:26	10	1	0.1	1	1	379	0.2	379	380	13.6	96.9
2022-10-22T01:27	10	1	0.1	0	1	379	0.2	379	380	13.6	96.8
2022-10-22T01:28	10	0	0.1	0	1	379	0.2	379	380	13.6	96.7
2022-10-22T01:29	10	0	0.1	0	0	379	0.2	378	380	13.6	96.8
2022-10-22T01:30	10	0	0.1	0	0	379	0.2	379	380	13.6	96.8
2022-10-22T01:31	10	0	0.1	0	0	379	0.2	379	380	13.6	96.8
2022-10-22T01:32	10	0	0.1	0	0	379	0.3	379	380	13.7	96.6
2022-10-22T01:33	10	0	0.1	0	0	379	0.2	379	380	13.7	96.4
2022-10-22T01:34	10	0	0.1	0	0	379	0.3	379	380	13.7	96.2
2022-10-22T01:35	10	0	0.1	0	0	379	0.3	379	380	13.7	96.0
2022-10-22T01:36	10	0	0.1	0	0	379	0.3	379	380	13.8	95.9
2022-10-22T01:37	10	0	0.1	0	0	379	0.2	379	380	13.8	95.8
2022-10-22T01:38	10	0	0.1	0	0	379	0.3	379	380	13.8	95.6
2022-10-22T01:39	10	0	0.1	0	0	379	0.3	379	380	13.8	95.5
2022-10-22T01:40	10	0	0.1	0	1	379	0.3	379	380	13.8	95.3
2022-10-22T01:41	10	0	0.1	0	0	379	0.3	378	380	13.9	95.1
2022-10-22T01:42	10	0	0.1	0	0	379	0.2	379	380	13.9	94.8
2022-10-22T01:43	10	0	0.1	0	0	379	0.3	379	380	13.9	94.5
2022-10-22T01:44	10	0	0.0	0	1	379	0.2	379	379	13.9	94.3
2022-10-22T01:45	10	0	0.1	0	1	379	0.2	379	380	13.9	94.5
2022-10-22T01:46	10	1	0.1	0	1	379	0.3	379	380	13.9	94.5
2022-10-22T01:47	10	1	0.1	0	1	380	0.3	379	380	14.1	94.3
2022-10-22T01:48	10	1	0.1	0	1	380	0.2	379	380	14.1	93.7
2022-10-22T01:49	10	1	0.1	0	1	380	0.2	379	380	14.0	93.6
2022-10-22T01:50	10	1	0.1	0	1	380	0.2	379	380	14.0	93.7
2022-10-22T01:51	10	1	0.1	0	1	379	0.4	379	380	13.9	93.8
2022-10-22T01:52	10	1	0.1	0	1	379	0.2	379	380	14.1	93.9
2022-10-22T01:53	10	1	0.1	0	1	379	0.2	379	380	13.9	93.9
2022-10-22T01:54	10	1	0.1	0	1	379	0.3	379	380	14.0	94.0
2022-10-22T01:55	10	1	0.1	1	1	379	0.3	379	380	13.9	94.0
2022-10-22T01:56	10	1	0.1	1	1	379	0.5	378	380	14.0	94.2
2022-10-22T01:57	10	1	0.1	1	1	380	0.5	378	380	14.1	93.9
2022-10-22T01:58	10	1	0.1	1	1	379	0.3	379	380	14.1	93.4
2022-10-22T01:59	10	1	0.1	1	1	379	0.2	379	380	14.0	93.4
2022-10-22T02:00	10	1	0.1	1	1	380	0.3	379	380	14.0	93.6
2022-10-22T02:01	10	1	0.1	1	1	380	0.3	379	380	14.0	93.6
2022-10-22T02:02	10	1	0.1	1	1	379	0.2	379	380	13.9	93.7
2022-10-22T02:03	10	1	0.1	1	1	379	0.4	378	380	13.9	93.8
2022-10-22T02:04	10	1	0.1	1	1	379	0.3	379	380	13.9	93.9
2022-10-22T02:05	10	1	0.1	1	1	379	0.2	379	380	13.8	94.2
2022-10-22T02:06	10	1	0.1	1	1	379	0.5	378	380	13.8	94.4
2022-10-22T02:07	10	1	0.1	1	1	379	0.4	378	380	13.6	94.7
2022-10-22T02:08	10	1	0.1	1	1	379	0.4	378	379	13.5	95.1
2022-10-22T02:09	10	1	0.1	1	1	379	0.4	378	380	13.4	95.5
2022-10-22T02:10	10	1	0.1	0	1	379	0.3	378	379	13.4	95.9
2022-10-22T02:11	10	0	0.1	0	1	378	0.2	378	379	13.4	96.2
2022-10-22T02:12	10	0	0.1	0	0	378	0.3	378	379	13.4	96.5
2022-10-22T02:13	10	0	0.1	0	0	378	0.2	378	379	13.3	96.7
2022-10-22T02:14	10	0	0.1	0	0	378	0.3	378	379	13.4	97.0
2022-10-22T02:15	10	0	0.1	0	0	378	0.3	377	378	13.4	97.2
2022-10-22T02:16	10	0	0.1	0	0	378	0.2	378	379	13.4	97.3
2022-10-22T02:17	10	0	0.1	0	0	378	0.3	377	379	13.4	97.3
2022-10-22T02:18	10	0	0.1	0	0	378	0.3	377	379	13.4	97.4
2022-10-22T02:19	10	0	0.1	0	0	378	0.3	377	379	13.4	97.5
2022-10-22T02:20	10	0	0.1	0	0	378	0.3	377	378	13.4	97.5
2022-10-22T02:21	10	0	0.1	0	0	378	0.4	377	379	13.4	97.6
2022-10-22T02:22	10	0	0.1	0	0	378	0.3	377	379	13.4	97.7
2022-10-22T02:23	10	0	0.1	0	0	378	0.4	377	379	13.4	97.7
2022-10-22T02:24	10	0	0.1	0	0	378	0.3	378	379	13.4	97.7
2022-10-22T02:25	10	0	0.1	0	1	378	0.2	377	378	13.4	97.8
2022-10-22T02:26	10	1	0.1	0	1	378	0.2	377	378	13.3	97.8
2022-10-22T02:27	10	1	0.1	1	1	378	0.2	377	378	13.3	97.9
2022-10-22T02:28	10	1	0.1	1	1	378	0.2	377	378	13.4	97.9
2022-10-22T02:29	10	1	0.0	1	1	378	0.3	377	378	13.3	98.0
2022-10-22T02:30	10	1	0.1	1	1	377	0.2	377	378	13.4	98.0
2022-10-22T02:31	10	1	0.1	1	1	377	0.3	377	378	13.4	98.1
2022-10-22T02:32	10	1	0.1	1	1	377	0.2	377	378	13.4	98.1
2022-10-22T02:33	10	1	0.1	1	1	377	0.2	377	378	13.3	98.0
2022-10-22T02:34	10	1	0.1	1	1	377	0.3	377	378	13.3	98.1
2022-10-22T02:35	10	1	0.1	1	1	377	0.2	377	378	13.3	98.1
2022-10-22T02:36	10	1	0.1	1	1	377	0.2	377	378	13.3	98.1
2022-10-22T02:37	10	1	0.1	1	1	377	0.5	376	378	13.3	98.1
2022-10-22T02:38	10	1	0.1	1	1	378	0.3	377	378	13.4	98.2
2022-10-22T02:39	10	1	0.1	1	1	378	0.3	377	379	13.4	98.1
2022-10-22T02:40	10	1	0.1	1	1	378	0.4	377	379	13.4	98.1
2022-10-22T02:41	10	1	0.1	0	1	378	0.3	378	379	13.5	98.0
2022-10-22T02:42	10	0	0.1	0	1	378	0.4	378	379	13.5	97.9
2022-10-22T02:43	10	0	0.1	0	0	379	0.3	378	379	13.5	97.8
2022-10-22T02:44	10	0	0.1	0	0	379	0.2	378	379	13.6	97.7
2022-10-22T02:45	10	0	0.1	0	0	379	0.2	378	379	13.6	97.5
2022-10-22T02:46	10	0	0.1	0	0	379	0.2	378	379	13.5	97.3
2022-10-22T02:47	10	0	0.1	0	0	379	0.2	378	379	13.5	97.2
2022-10-22T02:48	10	0	0.1	0	0	378	0.3	378	379	13.5	97.2
2022-10-22T02:49	10	0	0.1	0	0	379	0.4	378	379	13.6	97.1
2022-10-22T02:50	10	0	0.1	0	0	379	0.6	378	380	13.7	96.8
2022-10-22T02:51	10	0	0.1	0	0	379	0.3	378	379	13.6	96.5
2022-10-22T02:52	10	0	0.1	0	0	379	0.5	378	380	13.6	96.3
2022-10-22T02:53	10	0	0.1	0	1	379	0.3	378	380	13.6	96.1
2022-10-22T02:54	10	0	0.1	0	1	379	0.3	378	379	13.6	95.9
2022-10-22T02:55	10	0	0.1	0	1	379	0.6	377	379	13.6	95.8
2022-10-22T02:56	10	1	0.1	0	1	378	0.8	377	379	13.5	95.9
2022-10-22T02:57	10	1	0.1	1	1	379	0.5	377	379	13.6	95.8
2022-10-22T02:58	10	1	0.1	1	1	378	0.4	378	379	13.6	95.6
2022-10-22T02:59	10	1	0.1	1	1	379	0.5	378	380	13.6	95.5
2022-10-22T03:00	10	1	0.1	0	1	379	0.3	378	379	13.6	95.4
2022-10-22T03:01	10	1	0.1	0	1	379	0.6	377	380	13.6	95.4
2022-10-22T03:02	10	0	0.1	0	1	378	0.3	378	379	13.6	95.4
2022-10-22T03:03	10	0	0.1	0	0	378	0.2	378	379	13.5	95.7
2022-10-22T03:04	10	0	0.1	0	0	379	0.3	378	379	13.5	96.0
2022-10-22T03:05	10	0	0.1	0	0	379	0.2	378	379	13.5	96.3
2022-10-22T03:06	10	0	0.1	0	0	379	0.2	378	379	13.5	96.5
2022-10-22T03:07	10	0	0.1	0	0	379	0.3	378	379	13.4	96.7
2022-10-22T03:08	10	0	0.1	0	0	379	0.3	378	379	13.4	96.8
2022-10-22T03:09	10	0	0.1	0	1	379	0.4	378	379	13.4	96.9
2022-10-22T03:10	10	0	0.1	0	0	379	0.4	378	379	13.4	97.0
2022-10-22T03:11	10	0	0.1	0	0	378	0.4	377	379	13.6	96.8
2022-10-22T03:12	10	0	0.1	0	0	378	0.2	378	379	13.6	96.6
2022-10-22T03:13	10	0	0.1	0	0	379	0.5	378	380	13.7	96.2
2022-10-22T03:14	10	0	0.1	0	1	379	0.4	377	379	13.8	95.3
2022-10-22T03:15	10	0	0.1	0	1	379	0.3	378	379	13.8	94.2
2022-10-22T03:16	10	1	0.1	0	1	378	0.8	378	380	13.8	93.4
2022-10-22T03:17	10	0	0.1	0	1	378	0.8	376	380	13.7	93.3
2022-10-22T03:18	10	0	0.1	0	1	379	0.6	377	380	13.8	92.9
2022-10-22T03:19	10	0	0.1	0	1	378	0.3	378	379	13.8	92.6
2022-10-22T03:20	10	0	0.1	0	1	378	0.7	377	380	13.7	92.7
2022-10-22T03:21	10	0	0.1	0	1	378	0.4	377	379	13.6	93.1
2022-10-22T03:22	10	0	0.1	0	1	378	0.8	377	379	13.6	93.4
2022-10-22T03:23	10	0	0.1	0	1	378	0.2	378	379	13.6	93.4
2022-10-22T03:24	10	0	0.1	0	0	378	0.5	377	379	13.6	93.4
2022-10-22T03:25	10	0	0.1	0	1	378	0.3	378	379	13.6	93.2
2022-10-22T03:26	10	0	0.0	0	1	378	0.4	377	379	13.6	93.3
2022-10-22T03:27	10	1	0.1	0	1	378	0.4	377	379	13.6	93.6
2022-10-22T03:28	10	1	0.1	0	1	378	0.4	377	379	13.6	93.7
2022-10-22T03:29	10	1	0.1	1	1	378	0.3	377	379	13.7	93.3
2022-10-22T03:30	10	1	0.1	1	1	378	0.5	377	379	13.6	93.0
2022-10-22T03:31	10	1	0.1	1	1	378	0.9	376	379	13.6	93.1
2022-10-22T03:32	10	1	0.1	1	1	377	0.3	377	378	13.6	93.3
2022-10-22T03:33	10	1	0.1	1	1	377	0.3	377	378	13.5	93.6
2022-10-22T03:34	10	1	0.1	1	1	378	0.3	377	378	13.6	93.6
2022-10-22T03:35	10	1	0.1	1	1	377	0.8	376	379	13.6	93.5
2022-10-22T03:36	10	1	0.1	1	1	377	0.5	376	378	13.5	93.5
2022-10-22T03:37	10	1	0.1	1	1	377	0.4	376	378	13.5	93.7
2022-10-22T03:38	10	1	0.0	1	1	377	0.4	376	378	13.4	93.9
2022-10-22T03:39	10	1	0.1	1	1	377	0.3	377	378	13.4	94.2
2022-10-22T03:40	10	1	0.1	1	1	377	0.5	376	378	13.4	94.4
2022-10-22T03:41	10	1	0.1	1	1	377	0.3	377	378	13.3	94.6
2022-10-22T03:42	10	1	0.1	1	1	377	0.4	376	378	13.3	94.8
2022-10-22T03:43	10	1	0.1	1	1	377	0.3	377	378	13.3	94.9
2022-10-22T03:44	10	0	0.1	0	1	377	0.2	377	377	13.2	95.0
2022-10-22T03:45	10	0	0.1	0	0	377	0.3	376	378	13.2	95.2
2022-10-22T03:46	10	0	0.1	0	0	377	0.2	376	377	13.2	95.4
2022-10-22T03:47	10	0	0.1	0	0	377	0.2	376	377	13.1	95.5
2022-10-22T03:48	10	0	0.1	0	0	377	0.2	376	377	13.2	95.7
2022-10-22T03:49	10	0	0.1	0	0	377	0.2	376	377	13.2	95.8
2022-10-22T03:50	10	0	0.1	0	0	377	0.3	376	378	13.2	95.8
2022-10-22T03:51	10	0	0.1	0	0	377	0.3	376	377	13.2	95.7
2022-10-22T03:52	10	0	0.1	0	0	377	0.3	377	377	13.3	95.6
2022-10-22T03:53	10	0	0.1	0	0	377	0.3	377	378	13.4	95.4
2022-10-22T03:54	10	0	0.1	0	0	377	0.5	376	378	13.4	95.1
2022-10-22T03:55	10	0	0.1	0	0	378	0.4	377	378	13.5	94.7
2022-10-22T03:56	10	0	0.1	0	0	378	0.3	377	378	13.5	94.2
2022-10-22T03:57	10	0	0.1	0	0	378	0.4	377	378	13.4	93.9
2022-10-22T03:58	10	0	0.1	0	0	378	0.3	377	379	13.4	93.8
2022-10-22T03:59	10	0	0.1	0	0	378	0.4	377	379	13.4	93.7
2022-10-22T04:00	10	0	0.1	0	0	378	0.3	377	378	13.5	93.4
2022-10-22T04:01	10	0	0.1	0	0	378	0.4	377	379	13.4	93.4
2022-10-22T04:02	10	0	0.1	0	0	377	0.2	377	378	13.3	93.7
2022-10-22T04:03	10	0	0.1	0	1	377	0.2	376	377	13.2	94.2
2022-10-22T04:04	10	0	0.1	0	1	377	0.3	377	378	13.1	94.7
2022-10-22T04:05	10	0	0.1	0	1	377	0.2	377	378	13.2	95.0
2022-10-22T04:06	10	0	0.1	0	1	377	0.2	377	377	13.2	95.2
2022-10-22T04:07	10	0	0.1	0	1	377	0.2	377	378	13.2	95.3
2022-10-22T04:08	10	1	0.1	0	1	377	0.3	376	378	13.2	95.4
2022-10-22T04:09	10	1	0.1	1	1	377	0.2	376	377	13.2	95.5
2022-10-22T04:10	10	1	0.0	1	1	377	0.3	376	378	13.2	95.5
2022-10-22T04:11	10	1	0.1	1	1	377	0.2	377	378	13.2	95.6
2022-10-22T04:12	10	1	0.1	1	1	377	0.2	377	378	13.2	95.6
2022-10-22T04:13	10	1	0.1	1	1	377	0.2	377	378	13.2	95.6
2022-10-22T04:14	10	1	0.1	1	1	377	0.3	377	378	13.2	95.6
2022-10-22T04:15	10	1	0.1	1	1	377	0.3	377	378	13.2	95.6
2022-10-22T04:16	10	1	0.1	1	1	377	0.4	377	378	13.3	95.6
2022-10-22T04:17	10	1	0.0	1	1	377	0.4	377	378	13.3	95.5
2022-10-22T04:18	10	1	0.1	1	1	378	0.5	376	378	13.4	95.4
2022-10-22T04:19	10	1	0.1	1	1	378	0.2	377	378	13.4	95.1
2022-10-22T04:20	10	1	0.1	1	1	378	0.3	377	378	13.3	94.9
2022-10-22T04:21	10	1	0.0	1	1	378	0.3	377	378	13.4	94.9
2022-10-22T04:22	10	1	0.1	1	1	378	0.3	377	378	13.4	94.8
2022-10-22T04:23	10	1	0.1	1	1	378	0.3	377	378	13.4	94.8
2022-10-22T04:24	10	1	0.1	0	1	378	0.6	377	379	13.4	94.7
2022-10-22T04:25	10	1	0.1	1	1	378	0.3	377	378	13.4	94.6
2022-10-22T04:26	10	1	0.1	1	1	377	0.4	377	379	13.4	94.6
2022-10-22T04:27	10	1	0.1	1	1	377	0.3	377	378	13.4	94.5
2022-10-22T04:28	10	1	0.1	1	1	378	0.6	376	379	13.4	94.4
2022-10-22T04:29	10	1	0.1	1	1	378	0.5	377	379	13.4	94.3
2022-10-22T04:30	10	1	0.1	1	1	378	0.4	377	379	13.5	94.2
2022-10-22T04:31	10	1	0.1	1	1	378	0.2	378	378	13.4	94.1
2022-10-22T04:32	10	1	0.1	1	1	378	0.2	377	378	13.5	94.1
2022-10-22T04:33	10	1	0.1	1	1	378	0.2	377	378	13.4	94.0
2022-10-22T04:34	10	1	0.1	1	1	378	0.2	377	378	13.4	94.1
2022-10-22T04:35	10	1	0.1	1	1	377	0.2	377	378	13.3	94.3
2022-10-22T04:36	10	1	0.1	1	1	378	0.2	377	378	13.3	94.5
2022-10-22T04:37	10	1	0.1	1	1	378	0.2	378	378	13.3	94.7
2022-10-22T04:38	10	1	0.1	1	1	378	0.3	377	378	13.4	94.7
2022-10-22T04:39	10	1	0.1	1	1	378	0.2	377	378	13.3	94.7
2022-10-22T04:40	10	1	0.1	1	1	378	0.2	377	378	13.2	94.8
2022-10-22T04:41	10	1	0.1	1	1	378	0.2	377	378	13.2	95.1
2022-10-22T04:42	10	1	0.1	1	1	377	0.2	377	378	13.3	95.3
2022-10-22T04:43	10	1	0.1	1	1	378	0.3	377	378	13.3	95.3
2022-10-22T04:44	10	1	0.1	1	1	378	0.2	377	378	13.3	95.3
2022-10-22T04:45	10	1	0.1	1	1	378	0.2	377	378	13.3	95.2
2022-10-22T04:46	10	1	0.0	1	1	377	0.2	377	378	13.2	95.3
2022-10-22T04:47	10	1	0.1	1	1	377	0.2	377	378	13.3	95.5
2022-10-22T04:48	10	1	0.1	1	1	378	0.2	377	378	13.2	95.5
2022-10-22T04:49	10	1	0.1	1	1	377	0.2	377	378	13.2	95.6
2022-10-22T04:50	10	1	0.1	1	1	377	0.2	377	378	13.1	95.9
2022-10-22T04:51	10	1	0.1	1	1	377	0.2	377	378	13.1	96.0
2022-10-22T04:52	10	1	0.1	1	1	377	0.2	377	377	13.1	96.2
2022-10-22T04:53	10	1	0.1	1	1	377	0.2	377	378	13.1	96.4
2022-10-22T04:54	10	1	0.1	1	1	378	0.2	377	378	13.2	96.5
2022-10-22T04:55	10	1	0.1	0	1	378	0.3	377	378	13.3	96.4
2022-10-22T04:56	10	0	0.1	0	1	378	0.2	377	378	13.4	95.8
2022-10-22T04:57	10	0	0.1	0	1	377	0.3	377	378	13.3	95.7
2022-10-22T04:58	10	0	0.1	0	0	378	0.2	377	378	13.3	95.6
2022-10-22T04:59	10	0	0.1	0	0	378	0.3	377	378	13.3	95.4
2022-10-22T05:00	10	0	0.1	0	0	378	0.3	377	378	13.3	95.4
2022-10-22T05:01	10	0	0.1	0	0	378	0.3	377	379	13.3	95.3
2022-10-22T05:02	10	0	0.1	0	0	378	0.4	377	379	13.5	94.9
2022-10-22T05:03	10	0	0.1	0	1	378	0.2	377	378	13.6	93.6
2022-10-22T05:04	10	0	0.1	0	1	378	0.9	376	379	13.5	93.1
2022-10-22T05:05	10	0	0.1	0	1	378	0.6	377	379	13.6	92.8
2022-10-22T05:06	10	0	0.1	0	0	378	0.5	377	379	13.6	92.2
2022-10-22T05:07	10	0	0.1	0	1	378	0.3	377	378	13.6	92.0
2022-10-22T05:08	10	0	0.1	0	1	378	0.4	377	378	13.6	91.7
2022-10-22T05:09	10	0	0.1	0	1	377	0.4	377	378	13.5	91.6
2022-10-22T05:10	10	0	0.1	0	1	378	0.4	377	379	13.5	91.9
2022-10-22T05:11	10	0	0.1	0	0	377	0.5	377	378	13.5	92.0
2022-10-22T05:12	10	0	0.1	0	0	377	0.3	377	378	13.5	92.1
2022-10-22T05:13	10	0	0.1	0	0	377	0.5	376	378	13.4	92.3
2022-10-22T05:14	10	0	0.1	0	0	377	0.4	377	378	13.4	92.4
2022-10-22T05:15	10	0	0.1	0	0	377	0.3	376	378	13.4	92.7
2022-10-22T05:16	10	0	0.1	0	0	377	0.2	376	377	13.4	92.8
2022-10-22T05:17	10	0	0.1	0	0	377	0.3	376	378	13.4	92.8
2022-10-22T05:18	10	0	0.1	0	0	377	0.2	376	377	13.4	92.9
2022-10-22T05:19	10	0	0.1	0	0	377	0.3	376	378	13.4	92.9
2022-10-22T05:20	10	0	0.1	0	0	377	0.2	376	377	13.4	92.8
2022-10-22T05:21	10	0	0.1	0	0	377	0.3	376	378	13.4	92.7
2022-10-22T05:22	10	0	0.1	0	0	377	0.3	376	377	13.4	92.7
2022-10-22T05:23	10	0	0.0	0	0	377	0.3	376	377	13.3	92.8
2022-10-22T05:24	10	0	0.1	0	0	377	0.2	376	377	13.3	93.1
2022-10-22T05:25	10	0	0.1	0	0	377	0.5	376	378	13.3	93.4
2022-10-22T05:26	10	0	0.1	0	0	377	0.2	376	377	13.3	93.6
2022-10-22T05:27	10	0	0.0	0	0	377	0.2	376	377	13.3	93.5
2022-10-22T05:28	10	0	0.1	0	0	377	0.3	376	377	13.3	93.5
2022-10-22T05:29	10	0	0.1	0	0	377	0.2	376	377	13.2	93.8
2022-10-22T05:30	10	0	0.1	0	0	376	0.2	376	377	13.1	94.1
2022-10-22T05:31	10	0	0.1	0	0	377	0.2	376	377	13.2	94.4
2022-10-22T05:32	10	0	0.1	0	0	377	0.3	376	377	13.2	94.3
2022-10-22T05:33	10	0	0.0	0	0	377	0.4	376	378	13.3	94.1
2022-10-22T05:34	10	0	0.0	0	0	377	0.2	376	377	13.3	93.8
2022-10-22T05:35	10	0	0.1	0	0	377	0.3	376	377	13.3	93.6
2022-10-22T05:36	10	0	0.1	0	0	377	0.3	376	378	13.3	93.3
2022-10-22T05:37	10	0	0.1	0	0	377	0.3	376	378	13.3	93.3
2022-10-22T05:38	10	0	0.1	0	0	377	0.3	376	378	13.2	93.5
2022-10-22T05:39	10	0	0.1	0	0	377	0.2	376	377	13.2	93.6
2022-10-22T05:40	10	0	0.0	0	0	377	0.2	376	377	13.2	93.7
2022-10-22T05:41	10	0	0.1	0	0	377	0.4	376	378	13.2	93.8
2022-10-22T05:42	10	0	0.1	0	0	377	0.3	376	378	13.3	93.5
2022-10-22T05:43	10	0	0.1	0	0	377	0.3	377	378	13.3	93.3
2022-10-22T05:44	10	0	0.1	0	0	377	0.3	377	378	13.3	93.3
2022-10-22T05:45	10	0	0.1	0	0	377	0.3	376	377	13.3	93.0
2022-10-22T05:46	10	0	0.1	0	0	376	0.2	376	377	13.2	93.0
2022-10-22T05:47	10	0	0.1	0	0	376	0.2	375	377	13.1	93.7
2022-10-22T05:48	10	0	0.1	0	0	376	0.3	375	377	13.0	94.4
2022-10-22T05:49	10	0	0.1	0	0	376	0.2	376	376	13.0	94.9
2022-10-22T05:50	10	0	0.1	0	0	376	0.3	375	377	13.0	95.1
2022-10-22T05:51	10	0	0.1	0	0	376	0.2	375	376	13.1	95.1
2022-10-22T05:52	10	0	0.1	0	0	376	0.2	375	376	13.1	94.9
2022-10-22T05:53	10	0	0.1	0	0	376	0.2	375	376	13.1	94.7
2022-10-22T05:54	10	0	0.1	0	0	376	0.2	375	376	13.2	94.3
2022-10-22T05:55	10	0	0.1	0	0	375	0.2	375	376	13.2	93.9
2022-10-22T05:56	10	0	0.1	0	0	375	0.2	375	376	13.3	93.3
2022-10-22T05:57	10	0	0.1	0	0	376	0.3	375	376	13.4	92.6
2022-10-22T05:58	10	0	0.1	0	0	376	0.2	375	376	13.4	92.0
2022-10-22T05:59	10	0	0.1	0	0	375	0.2	375	376	13.4	91.7
2022-10-22T06:00	10	0	0.1	0	0	375	0.2	375	376	13.3	91.9
2022-10-22T06:01	10	0	0.1	0	0	375	0.2	375	376	13.3	92.3
2022-10-22T06:02	10	0	0.1	0	0	375	0.2	375	376	13.2	92.3
2022-10-22T06:03	10	0	0.1	0	0	375	0.2	375	376	13.2	92.6
2022-10-22T06:04	10	0	0.1	0	1	375	0.2	375	376	13.2	92.8
2022-10-22T06:05	10	0	0.1	0	1	374	0.3	374	375	13.1	93.0
2022-10-22T06:06	10	1	0.1	0	1	375	0.2	374	375	13.1	93.5
2022-10-22T06:07	10	1	0.1	1	1	374	0.2	373	374	13.0	93.7
2022-10-22T06:08	10	1	0.1	1	2	374	0.3	373	375	13.0	93.9
2022-10-22T06:09	10	1	0.1	1	2	374	0.2	374	375	13.0	94.1
2022-10-22T06:10	10	1	0.1	1	2	374	0.2	374	374	13.0	94.2
2022-10-22T06:11	10	1	0.1	1	2	374	0.2	374	375	13.0	94.1
2022-10-22T06:12	10	1	0.1	1	2	374	0.2	374	375	13.0	94.0
2022-10-22T06:13	10	2	0.1	1	2	374	0.2	374	375	13.0	94.0
2022-10-22T06:14	10	2	0.1	2	2	375	0.2	374	375	13.1	93.9
2022-10-22T06:15	10	2	0.1	2	2	375	0.3	374	375	13.1	93.8
2022-10-22T06:16	10	2	0.1	2	3	375	0.3	374	376	13.1	93.4
2022-10-22T06:17	10	2	0.1	2	2	375	0.2	375	375	13.2	93.3
2022-10-22T06:18	10	2	0.1	2	2	375	0.4	374	376	13.2	93.0
2022-10-22T06:19	10	2	0.1	2	2	375	0.3	374	376	13.3	92.9
2022-10-22T06:20	10	2	0.1	2	2	375	0.2	374	376	13.3	92.8
2022-10-22T06:21	10	2	0.1	2	3	375	0.2	375	376	13.4	92.6
2022-10-22T06:22	10	3	0.2	2	3	375	0.3	375	376	13.3	92.5
2022-10-22T06:23	10	3	0.1	3	3	375	0.4	375	376	13.4	92.3
2022-10-22T06:24	10	3	0.1	3	3	376	0.3	375	377	13.5	92.1
2022-10-22T06:25	10	3	0.1	3	3	376	0.4	375	376	13.4	91.9
2022-10-22T06:26	10	3	0.1	3	4	376	0.3	375	376	13.4	92.1
2022-10-22T06:27	10	3	0.1	3	4	375	0.3	375	376	13.4	92.2
2022-10-22T06:28	10	4	0.1	3	4	376	0.5	375	377	13.4	92.2
2022-10-22T06:29	10	3	0.1	3	4	376	0.3	375	377	13.5	91.9
2022-10-22T06:30	10	4	0.1	3	4	376	0.5	375	377	13.5	91.7
2022-10-22T06:31	10	4	0.1	4	4	376	0.2	376	377	13.5	91.3
2022-10-22T06:32	10	4	0.1	4	4	376	0.3	375	377	13.5	91.0
2022-10-22T06:33	10	4	0.1	4	4	376	0.2	376	377	13.5	90.8
2022-10-22T06:34	10	4	0.1	4	4	376	0.3	375	377	13.6	90.1
2022-10-22T06:35	10	4	0.1	4	4	376	0.4	375	376	13.5	89.8
2022-10-22T06:36	10	4	0.1	3	4	376	0.3	375	376	13.4	90.1
2022-10-22T06:37	10	4	0.1	4	4	376	0.3	375	376	13.5	89.7
2022-10-22T06:38	10	4	0.1	4	4	376	0.4	375	376	13.5	89.4
2022-10-22T06:39	10	4	0.1	4	4	376	0.4	375	376	13.4	89.7
2022-10-22T06:40	10	4	0.1	4	4	376	0.4	375	377	13.4	89.5
2022-10-22T06:41	10	4	0.1	4	5	376	0.4	375	377	13.5	88.8
2022-10-22T06:42	10	5	0.1	4	5	376	0.3	375	377	13.4	88.9
2022-10-22T06:43	10	5	0.1	5	5	376	0.3	375	377	13.4	89.0
2022-10-22T06:44	10	5	0.1	5	5	376	0.2	375	376	13.4	89.3
2022-10-22T06:45	10	5	0.1	5	6	376	0.2	375	376	13.3	89.7
2022-10-22T06:46	10	6	0.1	6	6	376	0.2	375	376	13.3	89.9
2022-10-22T06:47	10	6	0.2	6	7	375	0.2	374	376	13.3	89.8
2022-10-22T06:48	10	7	0.1	6	7	375	0.3	375	376	13.4	89.5
2022-10-22T06:49	10	7	0.2	7	8	375	0.3	375	376	13.4	89.2
2022-10-22T06:50	10	8	0.3	7	9	375	0.4	374	376	13.4	89.2
2022-10-22T06:51	10	9	0.4	9	10	376	0.4	375	377	13.4	89.3
2022-10-22T06:52	10	10	0.3	10	11	376	0.3	376	377	13.4	89.2
2022-10-22T06:53	10	11	0.2	11	12	377	0.6	375	378	13.3	89.2
2022-10-22T06:54	10	12	0.3	12	13	377	0.3	376	378	13.4	89.1
2022-10-22T06:55	10	13	0.3	13	14	377	0.3	377	378	13.3	89.2
2022-10-22T06:56	10	14	0.3	14	15	378	0.3	377	378	13.3	89.5
2022-10-22T06:57	10	15	0.3	15	16	378	0.6	377	380	13.3	89.8
2022-10-22T06:58	10	16	0.2	16	16	379	0.6	377	380	13.3	90.2
2022-10-22T06:59	10	17	0.1	16	17	379	0.5	378	380	13.2	91.0
2022-10-22T07:00	10	17	0.1	17	17	380	0.4	379	380	13.1	92.2
2022-10-22T07:01	10	17	0.1	17	17	380	0.3	379	380	13.1	93.2
2022-10-22T07:02	10	17	0.1	17	17	380	0.4	380	381	13.1	93.6
2022-10-22T07:03	10	18	0.2	17	18	381	0.2	380	381	13.1	93.9
2022-10-22T07:04	10	19	0.2	18	19	381	0.3	380	381	13.1	94.1
2022-10-22T07:05	10	19	0.1	18	19	381	0.2	381	382	13.1	94.3
2022-10-22T07:06	10	18	0.2	18	18	382	0.2	381	382	13.1	94.3
2022-10-22T07:07	10	18	0.1	17	18	382	0.3	381	382	13.3	93.7
2022-10-22T07:08	10	17	0.3	17	18	382	0.2	381	382	13.3	93.1
2022-10-22T07:09	10	16	0.3	16	17	382	0.3	381	382	13.2	92.8
2022-10-22T07:10	10	15	0.3	15	16	381	0.2	381	382	13.2	92.9
2022-10-22T07:11	10	15	0.1	15	15	382	0.2	381	382	13.3	93.3
2022-10-22T07:12	10	15	0.1	14	15	382	0.4	381	383	13.3	93.3
2022-10-22T07:13	10	21	4.5	15	27	383	0.5	382	384	13.3	93.3
2022-10-22T07:14	10	20	1.6	18	23	383	0.4	382	384	13.3	93.4
2022-10-22T07:15	10	16	0.9	15	19	383	0.3	382	383	13.3	93.3
2022-10-22T07:16	10	15	0.1	15	15	383	0.2	382	383	13.3	93.4
2022-10-22T07:17	10	15	0.1	15	16	382	0.6	381	384	13.3	93.3
2022-10-22T07:18	10	16	0.1	15	16	383	0.4	382	384	13.3	93.1
2022-10-22T07:19	10	16	0.2	16	16	383	0.2	382	383	13.4	93.0
2022-10-22T07:20	10	17	0.4	16	18	383	0.2	382	383	13.3	92.8
2022-10-22T07:21	10	18	0.2	18	19	383	0.2	382	383	13.3	92.7
2022-10-22T07:22	10	19	0.1	19	19	383	0.2	383	384	13.3	92.8
2022-10-22T07:23	10	19	0.1	19	19	384	0.5	383	384	13.4	92.8
2022-10-22T07:24	10	18	0.2	18	19	384	0.3	383	384	13.4	92.4
2022-10-22T07:25	10	18	0.1	17	18	383	0.2	383	384	13.4	91.9
2022-10-22T07:26	10	18	0.1	17	18	383	0.3	383	384	13.4	91.7
2022-10-22T07:27	10	18	0.2	18	18	383	0.2	383	383	13.4	91.3
2022-10-22T07:28	10	18	0.2	18	19	383	0.3	382	384	13.4	91.4
2022-10-22T07:29	10	19	0.2	19	19	383	0.2	383	384	13.4	91.6
2022-10-22T07:30	10	20	0.3	19	20	383	0.2	383	384	13.4	91.6
2022-10-22T07:31	10	20	0.3	20	21	384	0.3	383	384	13.4	91.8
2022-10-22T07:32	10	21	0.3	21	22	383	0.6	382	384	13.4	92.0
2022-10-22T07:33	10	22	0.3	22	23	384	0.4	383	384	13.4	91.8
2022-10-22T07:34	10	23	0.3	23	24	384	0.5	383	385	13.4	91.6
2022-10-22T07:35	10	24	0.1	24	24	384	0.3	383	385	13.4	91.3
2022-10-22T07:36	10	24	0.2	23	24	384	0.3	384	385	13.6	90.3
2022-10-22T07:37	10	22	0.4	22	23	384	0.4	383	385	13.6	89.5
2022-10-22T07:38	10	21	0.6	20	22	384	0.3	383	385	13.6	89.3
2022-10-22T07:39	10	19	0.4	18	20	383	0.4	382	384	13.6	90.2
2022-10-22T07:40	10	18	0.3	17	18	382	0.2	382	383	13.4	92.5
2022-10-22T07:41	10	17	0.3	16	17	382	0.4	381	382	13.3	93.3
2022-10-22T07:42	10	16	0.1	16	16	381	0.5	380	382	13.4	92.8
2022-10-22T07:43	10	16	0.1	16	16	380	0.4	380	381	13.5	91.8
2022-10-22T07:44	10	16	0.1	16	16	380	0.2	379	380	13.5	91.2
2022-10-22T07:45	10	16	0.3	16	17	380	0.2	379	380	13.5	91.3
2022-10-22T07:46	10	17	0.4	17	18	380	0.2	379	380	13.5	91.4
2022-10-22T07:47	10	19	0.4	18	19	380	0.2	379	380	13.5	91.4
2022-10-22T07:48	10	19	0.1	19	20	380	0.2	379	380	13.4	91.5
2022-10-22T07:49	10	19	0.1	19	20	380	0.2	379	380	13.4	91.7
2022-10-22T07:50	10	20	0.2	19	20	380	0.3	379	380	13.4	91.9
2022-10-22T07:51	10	21	0.9	20	23	380	0.3	379	380	13.4	92.3
2022-10-22T07:52	10	27	4.7	23	38	381	0.4	380	382	13.4	92.4
2022-10-22T07:53	10	38	0.7	36	39	383	0.6	381	384	13.4	92.2
2022-10-22T07:54	10	61	12.7	36	81	385	1.5	383	388	13.5	91.9
2022-10-22T07:55	10	68	10.2	45	81	388	0.4	387	388	13.7	91.2
2022-10-22T07:56	10	38	7.0	30	49	387	1.1	385	388	13.7	91.6
2022-10-22T07:57	10	32	0.7	30	33	385	0.5	384	386	13.6	91.6
2022-10-22T07:58	10	27	1.4	24	30	384	0.6	383	385	13.6	92.0
2022-10-22T07:59	10	35	6.5	25	45	384	0.3	383	385	13.6	92.4
2022-10-22T08:00	10	49	22.8	23	81	384	1.3	383	388	13.7	92.6
2022-10-22T08:01	10	52	11.7	35	75	386	0.6	385	387	13.7	92.3
2022-10-22T08:02	10	58	10.0	41	77	386	0.8	385	388	13.7	91.9
2022-10-22T08:03	10	54	11.2	38	76	387	0.7	386	389	13.7	91.5
2022-10-22T08:04	10	48	14.7	31	75	386	0.7	385	387	13.8	90.7
2022-10-22T08:05	10	59	20.5	33	85	387	1.1	385	389	13.8	90.5
2022-10-22T08:06	10	73	13.8	41	88	388	1.4	385	390	13.9	90.6
2022-10-22T08:07	10	55	8.0	46	68	388	0.4	387	389	13.9	89.8
2022-10-22T08:08	10	45	10.6	32	61	388	1.0	386	389	14.0	89.0
2022-10-22T08:09	10	44	7.5	35	56	386	0.3	386	387	14.0	89.0
2022-10-22T08:10	10	52	6.3	43	63	387	0.4	386	388	14.0	88.3
2022-10-22T08:11	10	48	7.2	41	59	387	0.6	386	388	14.1	88.4
2022-10-22T08:12	10	54	4.5	43	60	387	0.8	386	389	14.1	88.1
2022-10-22T08:13	10	44	2.8	40	49	387	0.3	387	388	14.2	89.1
2022-10-22T08:14	10	46	3.3	41	52	388	0.2	387	388	14.1	89.7
2022-10-22T08:15	10	80	13.2	53	99	390	1.9	387	393	14.1	89.1
2022-10-22T08:16	10	81	15.2	53	100	393	0.9	391	394	14.1	88.6
2022-10-22T08:17	10	67	11.4	51	82	392	0.6	391	393	14.2	88.2
2022-10-22T08:18	10	62	5.9	54	74	392	0.3	392	393	14.3	88.0
2022-10-22T08:19	10	55	5.9	48	67	392	0.6	391	393	14.3	88.0
2022-10-22T08:20	10	75	17.5	53	108	393	1.4	391	395	14.3	88.4
2022-10-22T08:21	10	54	10.1	43	75	393	0.8	391	394	14.3	88.0
2022-10-22T08:22	10	55	12.2	40	72	392	0.9	391	393	14.4	87.7
2022-10-22T08:23	10	37	6.7	31	53	390	0.9	389	392	14.4	87.0
2022-10-22T08:24	10	30	3.2	26	36	388	0.8	387	390	14.4	87.4
2022-10-22T08:25	10	22	1.6	20	26	387	0.3	386	388	14.4	87.7
2022-10-22T08:26	10	19	0.6	18	21	386	0.5	385	387	14.4	88.0
2022-10-22T08:27	10	18	0.2	18	19	385	0.4	384	386	14.4	88.4
2022-10-22T08:28	10	20	2.4	18	27	385	0.3	384	385	14.3	88.1
2022-10-22T08:29	10	36	4.4	27	42	386	0.7	384	387	14.4	88.0
2022-10-22T08:30	10	36	2.7	29	39	387	0.9	385	388	14.3	88.3
2022-10-22T08:31	10	33	5.8	25	42	386	0.5	385	387	14.2	88.1
2022-10-22T08:32	10	43	10.0	32	77	387	0.8	386	388	14.3	87.9
2022-10-22T08:33	10	74	17.2	49	95	391	1.6	387	392	14.3	87.3
2022-10-22T08:34	10	60	16.8	34	83	391	1.0	389	393	14.3	87.9
2022-10-22T08:35	10	74	3.1	69	80	393	0.7	392	394	14.5	88.2
2022-10-22T08:36	10	86	7.1	74	95	395	0.9	393	396	14.6	88.0
2022-10-22T08:37	10	95	0.2	94	95	397	0.6	395	397	14.7	87.6
2022-10-22T08:38	10	95	0.2	94	95	398	0.3	397	398	14.8	87.6
2022-10-22T08:39	10	94	0.1	94	94	398	0.3	397	398	14.7	88.4
2022-10-22T08:40	10	94	0.1	93	94	398	0.2	398	399	14.7	88.0
2022-10-22T08:41	10	94	0.1	93	94	398	0.3	398	399	14.7	87.7
2022-10-22T08:42	10	93	0.1	93	94	399	0.4	398	400	14.6	87.5
2022-10-22T08:43	10	94	0.1	93	94	399	0.2	398	399	14.6	87.5
2022-10-22T08:44	10	94	0.1	94	94	400	0.3	399	400	14.8	87.6
2022-10-22T08:45	10	94	0.1	94	94	400	0.4	399	401	14.9	87.6
2022-10-22T08:46	10	95	0.1	94	95	400	0.4	399	401	15.0	87.3
2022-10-22T08:47	10	95	0.2	95	96	401	0.5	400	402	15.1	86.7
2022-10-22T08:48	10	96	0.1	95	96	401	0.3	401	402	15.1	86.8
2022-10-22T08:49	10	96	0.1	96	96	401	0.3	401	402	15.2	86.8
2022-10-22T08:50	10	96	0.1	96	96	401	0.4	400	402	15.1	84.8
2022-10-22T08:51	10	96	0.1	96	97	401	0.3	401	402	15.1	85.0
2022-10-22T08:52	10	97	0.1	97	97	402	0.3	401	403	15.1	84.5
2022-10-22T08:53	10	97	0.2	97	97	402	0.5	401	402	15.1	83.6
2022-10-22T08:54	10	98	0.2	97	98	402	0.3	401	402	15.0	83.3
2022-10-22T08:55	10	98	0.1	98	98	402	0.4	401	403	15.0	84.0
2022-10-22T08:56	10	98	0.1	98	98	402	0.3	401	402	15.0	84.2
2022-10-22T08:57	10	99	0.1	98	99	402	0.2	402	403	14.9	84.2
2022-10-22T08:58	10	99	0.1	99	99	404	0.5	402	404	15.1	84.8
2022-10-22T08:59	10	99	0.1	99	99	404	0.2	403	404	15.1	84.3
2022-10-22T09:00	10	99	0.1	99	100	404	0.3	404	405	15.2	84.7
2022-10-22T09:01	10	100	0.1	99	100	404	0.9	403	405	15.5	85.1
2022-10-22T09:02	10	100	0.1	99	100	403	0.3	403	404	15.3	82.8
2022-10-22T09:03	10	100	0.1	100	100	404	0.3	403	405	15.4	83.0
2022-10-22T09:04	10	100	0.1	100	100	403	0.7	403	405	15.4	82.8
2022-10-22T09:05	10	100	0.2	100	101	405	0.4	404	406	15.5	83.7
2022-10-22T09:06	10	101	1.3	95	101	404	0.9	403	406	15.4	82.4
2022-10-22T09:07	10	100	1.9	94	101	403	0.5	402	404	15.3	81.7
2022-10-22T09:08	10	101	0.1	101	101	403	0.4	402	404	15.3	81.9
2022-10-22T09:09	10	101	0.6	99	102	404	0.8	403	405	15.2	82.7
2022-10-22T09:10	10	102	0.2	101	102	405	0.6	404	407	15.2	83.3
2022-10-22T09:11	10	103	0.2	102	103	406	0.3	405	406	15.4	83.5
2022-10-22T09:12	10	103	0.1	103	103	406	0.4	405	407	15.5	82.7
2022-10-22T09:13	10	103	1.5	97	104	407	0.4	406	407	15.7	81.1
2022-10-22T09:14	10	104	0.5	101	104	407	1.1	405	408	15.7	81.4
2022-10-22T09:15	10	104	0.1	104	104	406	0.4	406	407	15.8	82.3
2022-10-22T09:16	10	104	0.1	104	104	406	0.3	405	407	15.8	82.2
2022-10-22T09:17	10	104	0.1	104	104	407	0.4	406	407	15.7	81.5
2022-10-22T09:18	10	105	0.2	104	105	408	0.8	406	409	15.9	82.3
2022-10-22T09:19	10	105	0.2	105	105	408	0.4	407	409	16.0	82.1
2022-10-22T09:20	10	106	0.1	105	106	407	1.2	405	409	15.9	80.3
2022-10-22T09:21	10	106	0.1	105	106	406	0.6	406	407	15.8	79.6
2022-10-22T09:22	10	106	0.1	105	106	407	0.5	406	408	15.9	80.7
2022-10-22T09:23	10	106	0.1	106	106	406	0.7	405	407	15.9	80.3
2022-10-22T09:24	10	106	0.2	106	106	407	0.7	406	408	15.9	80.3
2022-10-22T09:25	10	107	0.2	106	107	408	0.5	407	409	15.9	79.5
2022-10-22T09:26	10	107	0.2	106	107	408	0.8	407	410	16.0	80.1
2022-10-22T09:27	10	107	0.1	107	107	408	0.3	408	409	16.1	80.5
2022-10-22T09:28	10	107	0.1	107	107	409	0.7	408	411	16.0	79.8
2022-10-22T09:29	10	107	0.1	107	108	410	1.0	408	412	15.9	79.4
2022-10-22T09:30	10	108	0.2	107	108	410	0.8	409	412	16.0	79.2
2022-10-22T09:31	10	108	0.1	108	108	411	0.3	410	412	16.2	80.4
2022-10-22T09:32	10	108	0.1	108	109	410	0.4	409	411	16.1	79.2
2022-10-22T09:33	10	108	0.1	108	109	410	0.6	409	411	16.1	79.5
2022-10-22T09:34	10	109	0.2	108	109	410	0.7	409	411	16.2	79.6
2022-10-22T09:35	10	109	0.2	108	109	409	0.4	409	410	16.0	78.8
2022-10-22T09:36	10	109	0.2	109	109	411	0.5	410	412	16.2	80.0
2022-10-22T09:37	10	110	0.3	109	110	412	0.7	411	414	16.2	80.4
2022-10-22T09:38	10	110	0.2	110	110	411	0.5	410	412	16.1	79.1
2022-10-22T09:39	10	110	0.2	110	111	411	0.5	410	412	16.2	79.0
2022-10-22T09:40	10	111	0.2	110	111	410	0.4	410	411	16.1	78.1
2022-10-22T09:41	10	111	0.2	110	111	412	0.9	410	414	16.2	78.5
2022-10-22T09:42	10	111	0.3	111	112	413	0.6	412	414	16.4	79.8
2022-10-22T09:43	10	112	0.2	111	112	413	0.5	412	414	16.3	78.6
2022-10-22T09:44	10	112	0.2	112	113	413	0.7	412	415	16.3	78.7
2022-10-22T09:45	10	113	0.2	112	113	413	0.9	412	415	16.3	78.6
2022-10-22T09:46	10	112	0.2	112	113	413	0.6	411	414	16.4	78.2
2022-10-22T09:47	10	112	0.2	112	113	412	0.3	411	413	16.5	77.3
2022-10-22T09:48	10	113	0.2	112	113	412	0.6	411	413	16.6	78.0
2022-10-22T09:49	10	112	0.2	112	113	412	0.4	411	412	16.6	78.3
2022-10-22T09:50	10	112	0.2	112	112	412	0.7	410	413	16.5	76.8
2022-10-22T09:51	10	112	0.2	112	112	413	0.4	412	413	16.8	77.8
2022-10-22T09:52	10	112	0.1	112	112	412	0.6	411	414	16.7	77.7
2022-10-22T09:53	10	112	0.1	112	112	412	0.3	411	412	16.5	76.6
2022-10-22T09:54	10	112	0.2	112	113	413	1.0	412	415	16.6	76.7
2022-10-22T09:55	10	113	0.2	113	113	413	0.7	411	414	16.8	77.2
2022-10-22T09:56	10	113	0.1	113	114	412	0.3	411	413	16.8	76.8
2022-10-22T09:57	10	113	0.1	113	113	412	0.4	411	413	16.8	76.9
2022-10-22T09:58	10	113	0.1	113	114	411	0.3	411	412	16.7	76.2
2022-10-22T09:59	10	113	0.1	113	113	411	0.3	410	412	16.7	76.2
2022-10-22T10:00	10	113	0.1	113	113	411	0.2	410	411	16.7	76.6
2022-10-22T10:01	10	113	0.1	113	114	412	0.5	411	413	16.8	77.3
2022-10-22T10:02	10	114	0.2	114	114	413	0.5	412	414	16.8	76.7
2022-10-22T10:03	10	114	0.2	114	115	414	0.2	413	414	17.0	78.6
2022-10-22T10:04	10	115	0.1	115	115	412	0.3	412	413	16.8	76.1
2022-10-22T10:05	10	115	0.1	115	115	413	0.7	412	414	16.8	76.1
2022-10-22T10:06	10	115	0.2	115	116	414	0.3	413	414	16.9	76.4
2022-10-22T10:07	10	116	0.1	116	116	413	0.3	413	414	16.9	75.7
2022-10-22T10:08	10	116	0.1	116	116	414	0.3	413	415	16.9	76.5
2022-10-22T10:09	10	116	0.1	116	116	414	0.4	414	415	16.8	75.8
2022-10-22T10:10	10	117	0.1	116	117	414	0.4	414	415	16.8	75.9
2022-10-22T10:11	10	117	0.1	117	117	415	0.3	415	416	16.8	76.0
2022-10-22T10:12	10	118	0.4	117	119	416	0.5	415	417	17.0	77.3
2022-10-22T10:13	10	120	1.1	119	122	416	0.5	415	417	17.0	76.7
2022-10-22T10:14	10	125	2.7	122	131	416	0.5	415	417	17.0	76.0
2022-10-22T10:15	10	79	32.9	39	132	413	3.4	408	417	17.0	74.6
2022-10-22T10:16	10	93	14.5	71	123	412	0.8	411	413	17.0	75.2
2022-10-22T10:17	10	83	22.2	47	110	412	1.5	410	414	17.0	75.2
2022-10-22T10:18	10	101	23.0	63	126	414	1.4	411	416	17.0	75.1
2022-10-22T10:19	10	126	10.3	103	135	417	1.0	414	418	17.0	76.1
2022-10-22T10:20	10	126	7.6	112	133	416	1.0	415	418	16.8	74.7
2022-10-22T10:21	10	123	9.3	101	130	418	1.0	417	420	16.9	75.2
2022-10-22T10:22	10	126	0.7	125	127	420	0.5	419	421	17.1	76.3
2022-10-22T10:23	10	124	0.5	123	124	420	0.5	419	421	17.1	75.6
2022-10-22T10:24	10	123	0.3	123	124	419	1.0	418	421	17.1	75.0
2022-10-22T10:25	10	125	0.9	124	126	420	0.4	419	421	17.4	76.7
2022-10-22T10:26	10	129	1.2	127	130	421	1.3	417	422	17.5	76.4
2022-10-22T10:27	10	129	0.6	128	130	420	0.2	419	420	17.3	74.7
2022-10-22T10:28	10	128	0.2	127	128	421	1.1	419	422	17.3	74.0
2022-10-22T10:29	10	127	0.2	127	128	422	0.5	421	423	17.3	73.6
2022-10-22T10:30	10	127	0.3	126	127	423	0.4	423	424	17.5	75.2
2022-10-22T10:31	10	126	0.2	125	126	422	0.2	422	423	17.3	74.0
2022-10-22T10:32	10	126	0.3	125	126	423	0.6	422	424	17.1	74.1
2022-10-22T10:33	10	127	0.4	126	127	423	0.4	422	424	17.3	74.7
2022-10-22T10:34	10	128	0.3	127	128	424	0.3	423	424	17.4	75.4
2022-10-22T10:35	10	129	0.2	128	129	424	0.3	423	425	17.4	74.7
2022-10-22T10:36	10	128	0.2	128	129	424	0.2	424	425	17.4	75.1
2022-10-22T10:37	10	127	0.4	127	128	424	1.0	422	426	17.4	75.0
2022-10-22T10:38	10	126	0.3	126	127	424	0.5	423	425	17.5	74.8
2022-10-22T10:39	10	125	0.2	125	126	422	1.1	420	424	17.5	73.9
2022-10-22T10:40	10	124	0.3	124	125	421	0.6	420	422	17.5	73.3
2022-10-22T10:41	10	124	0.2	123	124	422	0.5	421	423	17.5	73.8
2022-10-22T10:42	10	123	0.1	123	123	422	0.4	421	423	17.4	72.2
2022-10-22T10:43	10	123	0.1	123	123	423	0.5	422	424	17.6	72.1
2022-10-22T10:44	10	123	0.1	123	123	423	0.3	422	424	17.6	71.5
2022-10-22T10:45	10	123	0.1	123	124	423	1.5	420	425	17.8	73.2
2022-10-22T10:46	10	123	0.2	123	123	421	0.4	420	422	17.6	71.9
2022-10-22T10:47	10	123	0.1	122	123	420	0.6	419	422	17.6	71.9
2022-10-22T10:48	10	122	0.1	122	122	421	0.5	420	422	17.5	70.9
2022-10-22T10:49	10	122	0.1	122	123	422	0.4	421	423	17.6	71.1
2022-10-22T10:50	10	123	0.1	122	123	423	0.9	421	425	17.6	70.1
2022-10-22T10:51	10	123	0.2	123	124	425	0.5	424	425	17.7	70.8
2022-10-22T10:52	10	124	0.2	124	124	425	0.3	424	426	17.9	71.4
2022-10-22T10:53	10	124	0.1	124	125	425	0.3	425	426	17.9	70.1
2022-10-22T10:54	10	124	0.1	124	125	426	1.1	423	427	18.0	70.6
2022-10-22T10:55	10	124	0.2	124	124	423	1.2	422	426	17.8	69.3
2022-10-22T10:56	10	124	0.1	123	124	423	0.3	422	423	17.9	69.6
2022-10-22T10:57	10	123	0.2	123	123	422	0.4	421	423	17.9	69.7
2022-10-22T10:58	10	123	0.1	123	123	422	1.0	421	425	17.8	69.2
2022-10-22T10:59	10	123	0.1	123	123	424	0.4	423	425	18.0	69.3
2022-10-22T11:00	10	123	0.1	123	123	423	1.5	421	426	17.9	67.8
2022-10-22T11:01	10	123	0.1	123	123	423	1.0	422	425	17.8	67.3
2022-10-22T11:02	10	123	0.1	123	123	425	0.8	424	427	18.0	68.4
2022-10-22T11:03	10	123	0.1	123	124	426	0.4	425	427	18.1	68.4
2022-10-22T11:04	10	124	0.2	123	124	426	0.9	424	427	18.1	67.7
2022-10-22T11:05	10	124	0.1	124	124	423	0.9	422	425	17.9	66.8
2022-10-22T11:06	10	123	0.2	123	124	422	0.5	421	423	17.8	66.2
2022-10-22T11:07	10	123	0.1	123	123	423	0.4	422	424	18.0	66.5
2022-10-22T11:08	10	123	0.2	123	124	426	1.0	424	427	18.2	69.2
2022-10-22T11:09	10	124	0.2	123	124	424	1.0	423	426	18.1	66.4
2022-10-22T11:10	10	124	0.2	123	124	425	0.4	424	426	18.0	66.7
2022-10-22T11:11	10	124	0.2	124	125	425	0.9	424	427	18.0	67.2
2022-10-22T11:12	10	124	0.2	124	125	424	1.0	423	426	18.1	67.0
2022-10-22T11:13	10	124	0.2	124	125	423	0.4	423	424	18.1	66.4
2022-10-22T11:14	10	124	0.2	124	125	424	0.4	423	425	18.1	66.5
2022-10-22T11:15	10	124	0.1	124	124	425	0.6	423	426	18.2	66.1
2022-10-22T11:16	10	124	0.1	124	125	426	0.4	425	427	18.2	66.0
2022-10-22T11:17	10	124	0.2	124	125	426	0.4	425	427	18.3	66.6
2022-10-22T11:18	10	124	0.1	124	125	426	0.4	425	427	18.4	67.7
2022-10-22T11:19	10	124	0.1	124	124	426	0.6	425	427	18.5	68.6
2022-10-22T11:20	10	124	0.1	124	124	426	0.8	425	428	18.2	65.7
2022-10-22T11:21	10	125	0.1	124	125	428	0.6	426	429	18.4	66.3
2022-10-22T11:22	10	125	0.1	125	125	428	0.6	427	429	18.3	65.9
2022-10-22T11:23	10	125	0.1	125	125	428	1.0	426	429	18.2	65.4
2022-10-22T11:24	10	125	0.1	125	125	428	0.4	427	429	18.5	63.8
2022-10-22T11:25	10	125	0.1	125	125	428	0.2	428	429	18.4	63.2
2022-10-22T11:26	10	125	0.1	125	125	428	0.5	427	429	18.3	63.9
2022-10-22T11:27	10	125	0.1	125	125	429	0.7	427	430	18.4	65.7
2022-10-22T11:28	10	125	0.1	125	125	430	0.6	428	431	18.5	66.4
2022-10-22T11:29	10	125	0.1	125	125	430	1.0	429	432	18.7	67.3
2022-10-22T11:30	10	125	0.1	125	125	430	0.6	429	431	18.7	66.4
2022-10-22T11:31	10	125	0.1	125	125	431	0.6	430	432	18.6	66.4
2022-10-22T11:32	10	125	0.1	125	125	430	1.4	428	432	18.3	64.6
2022-10-22T11:33	10	125	0.1	125	125	428	0.5	427	429	18.1	63.4
2022-10-22T11:34	10	124	0.1	124	125	429	0.3	428	430	18.3	65.4
2022-10-22T11:35	10	124	0.2	124	124	429	0.4	428	430	18.4	66.3
2022-10-22T11:36	10	124	0.1	123	124					18.3	65.2
2022-10-22T11:37	10	123	0.1	123	124					18.2	64.5
2022-10-22T11:38	10	123	0.1	123	124					18.1	64.6
2022-10-22T11:39	10	124	0.1	123	124					18.3	65.6
2022-10-22T11:40	10	124	0.1	124	124					18.2	65.1
2022-10-22T11:41	10	124	0.2	124	125					18.2	64.8
2022-10-22T11:42	10	125	0.2	124	125					18.3	64.9
2022-10-22T11:43	10	125	0.3	125	126					18.7	66.4
2022-10-22T11:44	10	126	0.2	126	127					18.6	65.2
2022-10-22T11:45	10	127	0.2	126	127	430	0.3	430	431	18.6	65.2
2022-10-22T11:46	10	128	0.2	127	128	430	0.4	430	431	18.8	65.5
2022-10-22T11:47	10	128	0.1	128	128	432	0.9	430	433	18.8	65.8
2022-10-22T11:48	10	128	0.1	128	128	432	0.8	430	433	18.8	66.6
2022-10-22T11:49	10	127	0.2	127	128	432	0.7	431	433	18.6	66.0
2022-10-22T11:50	10	127	0.3	126	127	431	0.3	430	432	18.5	66.1
2022-10-22T11:51	10	126	0.2	126	126	431	0.4	430	431	18.4	65.3
2022-10-22T11:52	10	127	0.5	126	127	431	0.6	430	432	18.5	65.9
2022-10-22T11:53	10	127	0.1	127	127	432	0.5	431	432	18.6	66.6
2022-10-22T11:54	10	127	0.1	127	127	430	0.5	430	432	18.5	65.7
2022-10-22T11:55	10	128	0.3	127	128	430	0.2	430	431	18.5	65.3
2022-10-22T11:56	10	128	0.1	128	128	430	1.2	428	432	18.4	67.9
2022-10-22T11:57	10	127	3.8	111	129	429	1.0	427	430	18.2	69.0
2022-10-22T11:58	10	101	24.7	65	132	428	2.1	425	432	18.4	70.1
2022-10-22T11:59	10	132	0.6	130	132	430	1.1	428	431	18.7	68.8
2022-10-22T12:00	10	130	0.5	129	130	427	0.5	426	428	18.8	64.2
2022-10-22T12:01	10	128	0.6	127	129	427	0.2	427	428	18.7	67.3
2022-10-22T12:02	10	126	0.6	125	127	426	0.4	425	427	18.6	69.1
2022-10-22T12:03	10	124	0.6	123	125	426	0.6	424	427	18.4	70.5
2022-10-22T12:04	10	123	0.3	122	123	425	0.7	424	427	18.3	69.0
2022-10-22T12:05	10	122	0.3	121	122	426	0.9	424	428	18.3	69.3
2022-10-22T12:06	10	121	0.3	120	121	427	0.8	426	428	18.4	70.2
2022-10-22T12:07	10	120	0.2	120	121	429	1.0	427	431	18.7	72.2
2022-10-22T12:08	10	122	0.4	121	122	429	0.8	427	430	18.7	72.6
2022-10-22T12:09	10	123	0.6	122	125	429	0.4	428	429	18.5	73.3
2022-10-22T12:10	10	125	0.4	125	126	428	0.6	427	429	18.7	73.4
2022-10-22T12:11	10	126	0.2	126	127	426	0.7	425	428	18.4	70.8
2022-10-22T12:12	10	126	0.5	125	127	425	0.6	425	427	18.3	71.5
2022-10-22T12:13	10	125	0.5	124	125	426	0.4	425	427	18.4	69.8
2022-10-22T12:14	10	124	0.1	124	124	426	0.8	424	427	18.3	69.6
2022-10-22T12:15	10	123	0.8	121	124	425	0.6	424	426	18.3	68.3
2022-10-22T12:16	10	117	6.4	85	122	427	0.5	426	428	18.5	67.4
2022-10-22T12:17	10	92	29.5	51	125	425	1.8	422	429	18.5	67.6
2022-10-22T12:18	10	98	11.8	81	122	425	0.5	424	426	18.5	68.2
2022-10-22T12:19	10	124	1.4	121	125	427	0.9	425	428	18.6	69.2
2022-10-22T12:20	10	123	0.3	122	124	427	0.4	426	428	18.3	67.8
2022-10-22T12:21	10	123	0.3	122	124	426	0.5	425	427	18.4	68.5
2022-10-22T12:22	10	122	0.3	122	123	428	0.5	427	429	18.5	68.5
2022-10-22T12:23	10	121	0.2	121	122	427	0.3	427	429	18.4	67.2
2022-10-22T12:24	10	119	2.6	112	121	428	0.8	426	429	18.7	68.9
2022-10-22T12:25	10	119	3.4	109	121	427	0.6	426	428	18.5	67.7
2022-10-22T12:26	10	120	0.1	120	120	428	0.3	427	428	18.6	68.8
2022-10-22T12:27	10	120	0.1	120	120	427	0.5	427	429	18.6	69.5
2022-10-22T12:28	10	120	0.1	120	120	427	0.3	426	427	18.6	68.0
2022-10-22T12:29	10	120	0.1	120	120	428	0.2	427	428	18.7	67.6
2022-10-22T12:30	10	120	0.1	120	120	428	0.5	427	429	18.7	67.3
2022-10-22T12:31	10	120	0.1	120	120	427	0.5	426	428	18.6	67.0
2022-10-22T12:32	10	120	0.1	120	121	426	0.5	426	427	18.5	67.1
2022-10-22T12:33	10	121	0.2	120	121	428	0.5	427	429	18.7	67.1
2022-10-22T12:34	10	121	0.2	120	121	429	0.6	428	431	18.7	67.1
2022-10-22T12:35	10	120	0.1	120	121	429	0.4	429	430	18.9	68.8
2022-10-22T12:36	10	120	0.1	120	120	430	0.4	429	431	18.6	67.4
2022-10-22T12:37	10	120	0.2	120	121	430	0.3	430	431	18.8	67.9
2022-10-22T12:38	10	120	0.6	118	121	430	0.6	428	431	18.9	68.8
2022-10-22T12:39	10	121	2.2	116	123	430	0.3	430	431	18.7	67.9
2022-10-22T12:40	10	120	0.7	119	122	430	0.3	430	431	18.6	67.8
2022-10-22T12:41	10	120	0.2	119	120	430	0.2	430	430	18.6	67.7
2022-10-22T12:42	10	120	0.3	119	120	430	0.5	429	431	18.7	67.5
2022-10-22T12:43	10	119	0.1	119	119	430	0.7	429	431	18.9	68.4
2022-10-22T12:44	10	118	0.4	117	119	431	0.7	429	432	19.3	70.3
2022-10-22T12:45	10	117	0.3	117	118	429	0.3	428	429	19.1	68.4
2022-10-22T12:46	10	117	0.1	116	117	429	0.3	428	429	18.9	68.5
2022-10-22T12:47	10	116	0.1	116	117	429	0.7	427	430	18.9	68.8
2022-10-22T12:48	10	116	0.2	115	116	427	0.3	426	428	18.7	67.4
2022-10-22T12:49	10	115	0.1	115	116	427	0.2	426	427	18.6	67.2
2022-10-22T12:50	10	115	0.1	115	115	427	0.4	426	427	18.6	67.7
2022-10-22T12:51	10	115	0.1	115	115	426	0.2	426	427	18.6	67.8
2022-10-22T12:52	10	114	0.1	114	115	427	0.3	426	428	18.7	67.8
2022-10-22T12:53	10	114	0.1	114	115	428	0.5	427	429	18.8	67.9
2022-10-22T12:54	10	115	0.1	114	115	428	0.7	427	429	18.9	69.1
2022-10-22T12:55	10	114	0.2	114	114	426	0.3	426	427	18.9	69.0
2022-10-22T12:56	10	114	0.1	113	114	426	0.4	426	427	18.9	68.2
2022-10-22T12:57	10	113	0.2	113	114	426	0.4	426	427	18.8	67.9
2022-10-22T12:58	10	113	0.1	112	113	427	0.3	427	428	18.9	68.5
2022-10-22T12:59	10	113	0.1	112	113	427	0.9	425	428	18.8	67.3
2022-10-22T13:00	10	112	0.1	112	113	426	0.3	425	426	18.8	66.6
2022-10-22T13:01	10	112	0.1	112	113	426	0.5	426	427	18.9	66.1
2022-10-22T13:02	10	113	0.2	112	113	427	0.3	426	428	19.0	67.8
2022-10-22T13:03	10	112	0.2	112	113	426	0.3	425	427	19.0	66.3
2022-10-22T13:04	10	112	0.4	111	113	427	0.5	426	428	19.0	66.0
2022-10-22T13:05	10	114	0.4	113	115	428	0.2	427	428	19.0	65.4
2022-10-22T13:06	10	114	0.4	113	114	427	0.4	426	428	18.9	64.8
2022-10-22T13:07	10	112	0.3	111	113	427	0.3	426	427	18.9	65.2
2022-10-22T13:08	10	113	0.5	111	114	427	0.3	427	428	18.9	65.4
2022-10-22T13:09	10	114	0.2	113	114	428	0.5	426	429	19.0	64.9
2022-10-22T13:10	10	113	0.2	112	113	428	0.1	428	428	19.0	63.9
2022-10-22T13:11	10	112	0.1	112	112	428	0.4	427	429	19.1	64.8
2022-10-22T13:12	10	112	0.1	112	112	427	0.3	427	428	19.2	64.0
2022-10-22T13:13	10	112	0.1	112	112	427	0.3	427	428	19.3	63.7
2022-10-22T13:14	10	112	0.2	112	112	427	0.4	426	428	19.4	63.3
2022-10-22T13:15	10	112	0.3	112	113	428	0.4	427	428	19.2	63.2
2022-10-22T13:16	10	112	0.2	112	113	428	0.4	427	429	19.2	63.8
2022-10-22T13:17	10	112	0.3	111	112	428	0.2	427	428	19.4	64.4
2022-10-22T13:18	10	111	0.2	111	111	429	0.3	428	429	19.5	62.8
2022-10-22T13:19	10	111	0.3	110	112	428	0.5	427	429	19.4	63.8
2022-10-22T13:20	10	110	0.3	110	111	429	0.5	428	430	19.4	65.9
2022-10-22T13:21	10	110	0.3	110	111	429	0.5	428	430	19.6	66.7
2022-10-22T13:22	10	110	0.4	109	111	429	0.8	427	430	19.4	67.7
2022-10-22T13:23	10	110	0.2	109	110	429	0.4	428	430	19.2	67.4
2022-10-22T13:24	10	110	0.2	109	110	429	0.4	428	429	19.1	68.6
2022-10-22T13:25	10	109	0.1	109	110	429	0.3	428	429	19.2	69.1
2022-10-22T13:26	10	109	0.4	108	109	427	0.4	426	428	19.0	67.6
2022-10-22T13:27	10	108	0.3	107	108	426	0.3	425	427	19.0	66.2
2022-10-22T13:28	10	107	0.3	107	108	426	0.5	425	427	19.0	67.3
2022-10-22T13:29	10	107	0.2	107	108	426	0.3	426	427	19.0	68.7
2022-10-22T13:30	10	107	0.3	106	107	426	0.2	426	426	19.0	67.9
2022-10-22T13:31	10	106	0.2	106	107	426	0.5	425	426	19.2	68.7
2022-10-22T13:32	10	106	0.2	106	106	425	0.3	424	425	19.2	66.4
2022-10-22T13:33	10	105	0.1	105	106	425	0.4	424	425	19.2	65.2
2022-10-22T13:34	10	105	0.1	105	105	424	0.4	423	425	19.1	64.9
2022-10-22T13:35	10	105	0.1	105	105	425	0.3	425	426	19.1	65.6
2022-10-22T13:36	10	104	0.2	104	105	425	0.4	425	426	19.2	65.2
2022-10-22T13:37	10	104	0.5	104	105	426	0.2	425	426	19.2	64.8
2022-10-22T13:38	10	104	0.2	104	104	426	0.3	425	427	19.4	64.9
2022-10-22T13:39	10	104	0.1	103	104	427	0.4	426	428	19.5	64.8
2022-10-22T13:40	10	104	0.1	103	104	426	0.3	425	426	19.4	62.9
2022-10-22T13:41	10	104	0.1	103	104	425	0.3	425	426	19.3	62.0
2022-10-22T13:42	10	104	0.2	103	104	426	0.5	424	426	19.5	62.1
2022-10-22T13:43	10	103	0.2	103	104	426	1.0	424	428	19.5	62.9
2022-10-22T13:44	10	103	0.2	102	103	427	1.6	423	428	19.5	63.5
2022-10-22T13:45	10	102	0.1	102	103	427	1.3	424	428	19.5	65.6
2022-10-22T13:46	10	102	0.1	102	102	426	0.2	425	427	19.4	67.9
2022-10-22T13:47	10	102	0.1	102	102	426	0.5	425	427	19.4	66.2
2022-10-22T13:48	10	102	0.2	101	102	426	0.7	425	427	19.5	66.6
2022-10-22T13:49	10	101	0.1	101	102	425	0.7	424	427	19.4	66.8
2022-10-22T13:50	10	101	0.2	101	102	425	0.2	425	426	19.4	67.9
2022-10-22T13:51	10	101	0.2	101	101	425	0.4	424	426	19.5	68.7
2022-10-22T13:52	10	101	0.2	100	101	425	0.2	424	426	19.3	66.7
2022-10-22T13:53	10	100	0.2	100	101	424	0.4	424	425	19.3	66.9
2022-10-22T13:54	10	100	0.2	100	101	424	0.2	423	425	19.2	67.2
2022-10-22T13:55	10	100	0.3	99	101	424	0.5	423	425	19.4	66.6
2022-10-22T13:56	10	99	0.2	99	100	424	0.5	423	425	19.6	65.7
2022-10-22T13:57	10	99	0.2	99	100	425	0.2	424	425	19.6	65.5
2022-10-22T13:58	10	99	0.2	99	100	425	0.3	424	426	19.8	64.8
2022-10-22T13:59	10	99	0.2	98	100	425	0.4	424	426	19.6	64.4
2022-10-22T14:00	10	99	0.2	98	99	425	0.8	423	426	19.5	65.2
2022-10-22T14:01	10	98	0.2	98	99	425	0.7	424	426	19.5	66.8
2022-10-22T14:02	10	97	0.7	96	98	424	1.5	422	426	19.3	66.2
2022-10-22T14:03	10	94	2.1	90	96	424	0.7	422	425	19.4	67.3
2022-10-22T14:04	10	89	1.8	86	92	422	1.1	420	424	19.3	65.6
2022-10-22T14:05	10	89	1.5	86	91	422	0.5	421	423	19.3	65.5
2022-10-22T14:06	10	94	1.7	90	96	422	0.4	421	423	19.2	65.7
2022-10-22T14:07	10	88	3.0	85	95	421	0.8	420	423	19.1	65.3
2022-10-22T14:08	10	89	1.1	85	91	421	1.6	419	424	19.1	66.9
2022-10-22T14:09	10	92	1.2	90	94	421	0.4	420	422	19.2	66.9
2022-10-22T14:10	10	88	2.4	83	90	420	0.5	419	421	19.2	67.4
2022-10-22T14:11	10	86	1.4	83	88	420	0.4	419	421	19.1	66.6
2022-10-22T14:12	10	85	1.7	83	88	420	0.3	419	421	19.1	67.0
2022-10-22T14:13	10	86	2.4	82	90	419	0.4	418	420	19.0	66.8
2022-10-22T14:14	10	85	5.5	80	95	419	0.5	418	420	19.1	67.1
2022-10-22T14:15	10	91	2.6	85	94	419	0.6	418	421	19.1	67.5
2022-10-22T14:16	10	88	2.1	84	90	420	0.6	419	422	19.2	68.5
2022-10-22T14:17	10	75	5.4	69	87	420	1.3	418	423	19.2	68.0
2022-10-22T14:18	10	71	5.3	63	79	419	0.6	418	420	19.2	67.6
2022-10-22T14:19	10	77	3.7	72	83	418	0.5	417	419	19.1	67.9
2022-10-22T14:20	10	84	3.3	76	88	418	0.4	418	419	19.1	67.8
2022-10-22T14:21	10	78	2.3	74	82	418	0.5	417	419	19.0	66.7
2022-10-22T14:22	10	65	2.7	61	73	418	0.5	417	419	19.1	67.4
2022-10-22T14:23	10	60	4.9	55	70	416	0.6	415	417	19.2	67.3
2022-10-22T14:24	10	73	1.1	71	75	418	0.7	417	419	19.2	68.5
2022-10-22T14:25	10	84	5.1	74	91	418	0.4	417	419	19.1	68.5
2022-10-22T14:26	10	80	8.5	64	91	418	0.9	416	419	19.1	69.2
2022-10-22T14:27	10	61	1.3	60	64	416	0.4	415	417	19.0	70.8
2022-10-22T14:28	10	61	1.9	55	64	415	0.6	413	415	18.8	70.0
2022-10-22T14:29	10	51	1.3	48	54	413	0.8	412	415	18.7	69.7
2022-10-22T14:30	10	49	2.3	45	53	412	0.2	411	412	18.7	70.3
2022-10-22T14:31	10	44	0.7	43	45	411	0.4	410	412	18.7	71.1
2022-10-22T14:32	10	45	0.5	44	46	411	0.6	410	412	18.8	70.8
2022-10-22T14:33	10	41	2.6	38	46	410	0.8	409	412	18.7	70.2
2022-10-22T14:34	10	49	4.6	41	57	410	0.6	409	411	18.7	70.3
2022-10-22T14:35	10	61	3.4	56	69	411	0.6	410	412	18.7	71.8
2022-10-22T14:36	10	71	2.8	67	75	411	0.2	410	412	18.5	72.4
2022-10-22T14:37	10	63	3.2	57	69	411	0.3	410	412	18.5	74.4
2022-10-22T14:38	10	51	5.5	40	58	411	0.7	409	412	18.5	74.0
2022-10-22T14:39	10	40	1.4	37	41	408	0.5	408	410	18.4	73.7
2022-10-22T14:40	10	40	1.3	39	44	407	0.4	406	408	18.4	73.0
2022-10-22T14:41	10	55	6.2	45	63	408	1.0	406	409	18.4	73.3
2022-10-22T14:42	10	68	2.9	63	74	409	1.0	407	411	18.5	73.9
2022-10-22T14:43	10	80	3.2	74	84	411	1.3	409	413	18.5	73.8
2022-10-22T14:44	10	85	2.0	82	88	413	0.6	412	414	18.6	73.7
2022-10-22T14:45	10	89	0.3	89	90	414	0.5	413	415	18.6	73.7
2022-10-22T14:46	10	88	0.2	88	89	414	0.3	414	415	18.7	74.2
2022-10-22T14:47	10	87	1.2	85	89	415	0.2	414	415	18.7	73.7
2022-10-22T14:48	10	81	2.4	76	85	414	0.4	413	415	18.7	73.1
2022-10-22T14:49	10	72	1.4	71	76	414	0.5	413	415	18.6	73.3
2022-10-22T14:50	10	69	1.6	66	71	413	0.8	412	415	18.6	74.2
2022-10-22T14:51	10	69	4.3	64	77	411	0.4	411	412	18.5	73.1
2022-10-22T14:52	10	78	1.0	76	80	412	0.3	411	413	18.5	73.5
2022-10-22T14:53	10	73	6.3	56	81	412	0.5	411	413	18.4	72.9
2022-10-22T14:54	10	41	4.1	37	54	409	1.1	408	412	18.4	72.7
2022-10-22T14:55	10	51	3.3	45	57	409	0.3	408	409	18.5	72.9
2022-10-22T14:56	10	68	6.3	58	78	409	0.9	408	411	18.5	73.5
2022-10-22T14:57	10	80	0.6	78	81	411	0.6	410	412	18.5	73.1
2022-10-22T14:58	10	78	0.8	76	79	411	0.2	411	412	18.5	72.9
2022-10-22T14:59	10	75	2.1	70	77	411	0.5	411	412	18.5	73.0
2022-10-22T15:00	10	75	2.3	70	77	412	0.3	411	412	18.5	73.5
2022-10-22T15:01	10	75	0.5	74	76	412	0.1	411	412	18.4	73.3
2022-10-22T15:02	10	73	1.7	71	75	411	0.2	411	412	18.4	72.8
2022-10-22T15:03	10	71	0.2	71	72	411	0.5	410	412	18.4	72.9
2022-10-22T15:04	10	71	0.3	70	72	411	0.2	411	412	18.5	72.8
2022-10-22T15:05	10	70	0.6	69	71	411	0.4	410	412	18.5	73.1
2022-10-22T15:06	10	71	0.5	70	71	410	0.3	409	411	18.5	73.1
2022-10-22T15:07	10	63	3.8	57	70	409	0.6	408	410	18.4	72.9
2022-10-22T15:08	10	58	0.8	57	59	408	0.6	408	410	18.4	73.5
2022-10-22T15:09	10	53	2.1	50	57	407	0.7	406	409	18.3	73.6
2022-10-22T15:10	10	46	1.6	43	50	407	0.3	406	407	18.2	74.0
2022-10-22T15:11	10	44	2.1	41	48	405	0.4	405	406	18.2	73.7
2022-10-22T15:12	10	46	2.3	43	49	405	0.2	404	405	18.2	73.4
2022-10-22T15:13	10	53	1.5	49	55	405	0.4	404	406	18.3	73.5
2022-10-22T15:14	10	53	1.6	51	56	406	0.5	404	406	18.3	73.9
2022-10-22T15:15	10	56	0.3	56	57	406	0.3	405	406	18.3	73.7
2022-10-22T15:16	10	58	0.3	57	58	406	0.4	405	407	18.3	74.0
2022-10-22T15:17	10	56	1.5	53	58	406	0.3	405	407	18.3	73.4
2022-10-22T15:18	10	53	0.4	53	54	406	0.4	405	407	18.3	73.9
2022-10-22T15:19	10	55	0.7	53	56	406	0.3	405	407	18.4	74.3
2022-10-22T15:20	10	57	0.6	56	58	406	0.3	405	407	18.4	74.3
2022-10-22T15:21	10	55	1.5	53	57	406	0.4	405	406	18.4	73.9
2022-10-22T15:22	10	52	0.6	51	53	405	0.4	404	406	18.4	74.1
2022-10-22T15:23	10	54	0.4	53	54	405	0.5	404	406	18.3	73.8
2022-10-22T15:24	10	55	0.3	54	55	405	0.3	404	406	18.3	73.6
2022-10-22T15:25	10	54	0.2	53	54	405	0.3	404	406	18.3	73.6
2022-10-22T15:26	10	52	1.1	49	53	405	0.5	404	406	18.3	74.1
2022-10-22T15:27	10	46	1.9	44	49	404	0.5	403	405	18.3	74.5
2022-10-22T15:28	10	48	0.7	47	50	404	0.2	404	405	18.2	74.0
2022-10-22T15:29	10	51	0.5	50	52	404	0.4	403	405	18.2	74.8
2022-10-22T15:30	10	51	1.0	50	52	404	0.4	403	405	18.2	75.8
2022-10-22T15:31	10	51	0.9	50	52	404	0.2	403	404	18.2	75.8
2022-10-22T15:32	10	48	2.5	41	50	403	0.4	403	404	18.2	75.8
2022-10-22T15:33	10	36	2.5	33	41	403	0.6	402	404	18.2	75.7
2022-10-22T15:34	10	32	1.9	28	34	402	0.8	400	403	18.1	75.8
2022-10-22T15:35	10	30	1.2	28	33	401	0.4	400	402	18.0	75.4
2022-10-22T15:36	10	33	1.8	31	37	400	0.3	400	401	18.0	75.8
2022-10-22T15:37	10	38	0.7	37	39	400	0.3	400	401	18.0	75.6
2022-10-22T15:38	10	36	0.8	35	38	400	0.4	399	401	18.0	75.5
2022-10-22T15:39	10	36	1.0	35	38	400	0.2	400	401	17.9	75.7
2022-10-22T15:40	10	35	0.7	34	36	400	0.2	399	400	17.9	75.8
2022-10-22T15:41	10	37	1.1	35	39	400	0.3	399	400	17.9	76.0
2022-10-22T15:42	10	39	0.2	38	39	399	0.2	399	400	17.9	76.0
2022-10-22T15:43	10	39	0.1	38	39	399	0.3	399	400	17.9	76.0
2022-10-22T15:44	10	39	0.1	38	39	399	0.4	399	400	17.9	76.3
2022-10-22T15:45	10	38	0.3	38	38	399	0.3	399	400	17.9	76.6
2022-10-22T15:46	10	37	0.3	36	38	399	0.4	398	400	17.9	76.7
2022-10-22T15:47	10	35	0.6	34	36	399	0.3	398	399	17.9	77.1
2022-10-22T15:48	10	35	0.6	34	36	398	0.4	397	399	17.8	76.5
2022-10-22T15:49	10	33	0.3	33	34	398	0.3	397	398	17.8	76.5
2022-10-22T15:50	10	33	0.3	32	33	397	0.2	397	398	17.8	76.7
2022-10-22T15:51	10	33	0.2	33	34	397	0.7	395	398	17.8	76.3
2022-10-22T15:52	10	32	0.3	32	33	397	0.4	396	398	17.8	76.7
2022-10-22T15:53	10	32	0.4	31	32	396	0.4	396	397	17.8	76.4
2022-10-22T15:54	10	30	0.5	29	31	396	0.2	395	396	17.7	76.2
2022-10-22T15:55	10	29	0.3	28	29	396	0.4	395	397	17.8	75.8
2022-10-22T15:56	10	27	1.1	24	28	396	0.4	395	396	17.7	75.9
2022-10-22T15:57	10	21	2.1	17	24	395	0.4	394	396	17.7	75.7
2022-10-22T15:58	10	14	1.5	11	17	394	0.2	394	395	17.7	76.2
2022-10-22T15:59	10	10	1.4	7	12	393	0.4	393	394	17.6	76.4
2022-10-22T16:00	10	6	0.6	5	7	393	0.4	392	393	17.6	76.1
2022-10-22T16:01	10	4	0.5	4	6	392	0.2	392	392	17.6	76.5
2022-10-22T16:02	10	3	0.2	3	4	391	0.6	391	392	17.6	76.4
2022-10-22T16:03	10	3	0.2	2	3	391	0.4	390	392	17.5	76.3
2022-10-22T16:04	10	2	0.2	2	3	390	0.3	390	391	17.5	76.6
2022-10-22T16:05	10	2	0.1	2	2	389	0.3	389	390	17.5	77.1
2022-10-22T16:06	10	2	0.1	2	2	389	0.2	388	389	17.5	77.0
2022-10-22T16:07	10	2	0.1	1	2	388	0.2	388	389	17.4	77.2
2022-10-22T16:08	10	1	0.1	1	2	388	0.2	388	389	17.4	77.1
2022-10-22T16:09	10	1	0.1	1	2	388	0.2	387	388	17.4	77.4
2022-10-22T16:10	10	1	0.1	1	1	387	0.2	386	387	17.3	77.8
2022-10-22T16:11	10	1	0.1	1	1	386	0.3	386	387	17.3	78.1
2022-10-22T16:12	10	1	0.1	1	1	386	0.3	385	387	17.3	78.3
2022-10-22T16:13	10	1	0.1	1	1	385	0.3	385	386	17.2	78.7
2022-10-22T16:14	10	1	0.1	1	1	385	0.2	385	386	17.2	78.2
2022-10-22T16:15	10	1	0.1	1	1	385	0.4	385	386	17.1	78.2
2022-10-22T16:16	10	1	0.1	1	1	385	0.3	384	385	17.1	78.8
2022-10-22T16:17	10	1	0.1	1	1	384	0.3	384	385	17.1	79.1
2022-10-22T16:18	10	1	0.1	1	1	384	0.2	383	384	17.0	79.4
2022-10-22T16:19	10	1	0.1	1	1	383	0.3	383	384	17.1	79.3
2022-10-22T16:20	10	1	0.1	1	1	382	0.3	381	383	17.0	79.6
2022-10-22T16:21	10	1	0.1	1	1	382	0.2	381	382	17.0	79.6
2022-10-22T16:22	10	1	0.1	1	1	381	0.3	380	382	16.9	79.6
2022-10-22T16:23	10	1	0.1	1	1	381	0.2	380	381	16.8	79.9
2022-10-22T16:24	10	1	0.1	1	1	381	0.3	380	381	16.8	80.3
2022-10-22T16:25	10	1	0.1	0	1	380	0.2	380	381	16.7	80.5
2022-10-22T16:26	10	1	0.1	0	1	380	0.3	379	380	16.6	81.3
2022-10-22T16:27	10	1	0.1	0	1	380	0.3	379	381	16.5	82.2
2022-10-22T16:28	10	0	0.1	0	1	380	0.2	379	380	16.4	83.1
2022-10-22T16:29	10	1	0.1	1	1	380	0.2	379	380	16.5	83.2
2022-10-22T16:30	10	1	0.1	1	1	379	0.3	379	380	16.5	82.6
2022-10-22T16:31	10	1	0.1	1	1	379	0.3	379	380	16.6	82.4
2022-10-22T16:32	10	1	0.1	1	1	378	0.3	378	379	16.6	82.1
2022-10-22T16:33	10	1	0.1	1	1	378	0.3	377	379	16.6	81.9
2022-10-22T16:34	10	1	0.1	1	1	377	0.2	377	378	16.5	81.9
2022-10-22T16:35	10	1	0.1	1	1	377	0.2	377	377	16.5	82.3
2022-10-22T16:36	10	1	0.1	1	1	377	0.2	377	377	16.5	82.5
2022-10-22T16:37	10	1	0.1	1	1	377	0.2	376	377	16.5	82.4
2022-10-22T16:38	10	1	0.1	0	1	377	0.2	376	377	16.4	82.8
2022-10-22T16:39	10	1	0.1	0	1	376	0.2	376	377	16.0	84.1
2022-10-22T16:40	10	1	0.1	0	1	377	0.2	376	377	16.1	85.5
2022-10-22T16:41	10	1	0.1	0	1	376	0.2	376	377	16.3	84.4
2022-10-22T16:42	10	1	0.1	0	1	376	0.2	376	377	16.4	83.4
2022-10-22T16:43	10	1	0.1	0	1	376	0.3	375	377	16.4	83.2
2022-10-22T16:44	10	1	0.1	0	1	376	0.4	375	376	16.4	83.2
2022-10-22T16:45	10	1	0.2	0	1	375	0.2	375	375	16.4	83.1
2022-10-22T16:46	10	1	0.2	0	1	375	0.4	374	376	16.4	83.2
2022-10-22T16:47	10	1	0.2	0	1	375	0.3	375	376	16.4	83.3
2022-10-22T16:48	10	0	0.2	0	1	375	0.3	375	376	16.3	83.6
2022-10-22T16:49	10	0	0.2	0	1	376	0.4	375	376	16.3	83.6
2022-10-22T16:50	10	0	0.2	0	1	376	0.3	375	377	16.0	84.4
2022-10-22T16:51	10	0	0.1	0	0	376	0.3	376	377	15.7	86.8
2022-10-22T16:52	10	0	0.1	0	0	376	0.2	376	377	15.6	88.0
2022-10-22T16:53	10	0	0.1	0	0	376	0.3	376	377	15.4	89.1
2022-10-22T16:54	10	0	0.1	0	0	377	0.2	376	377	15.6	89.4
2022-10-22T16:55	10	0	0.1	0	0	376	0.2	376	377	15.6	89.3
2022-10-22T16:56	10	0	0.1	0	0	377	0.3	376	377	15.7	89.2
2022-10-22T16:57	10	0	0.1	0	0	376	0.2	376	377	15.6	89.1
2022-10-22T16:58	10	0	0.1	0	0	376	0.3	375	377	15.6	89.3
2022-10-22T16:59	10	0	0.1	0	0	375	0.4	374	376	15.6	89.2
2022-10-22T17:00	10	0	0.1	0	0	375	0.3	375	376	15.7	89.1
2022-10-22T17:01	10	0	0.1	0	1	375	0.3	374	375	15.9	88.0
2022-10-22T17:02	10	1	0.1	0	1	374	0.3	373	374	15.9	87.3
2022-10-22T17:03	10	1	0.1	0	1	374	0.3	373	375	15.9	87.4
2022-10-22T17:04	10	1	0.1	0	1	374	0.2	373	374	15.9	87.4
2022-10-22T17:05	10	1	0.1	0	1	374	0.2	373	374	16.0	87.1
2022-10-22T17:06	10	1	0.1	1	1	374	0.2	373	374	16.0	86.9
2022-10-22T17:07	10	1	0.1	1	1	374	0.2	373	374	16.0	86.9
2022-10-22T17:08	10	1	0.1	1	1	374	0.2	373	374	15.9	87.0
2022-10-22T17:09	10	1	0.1	1	1	374	0.2	373	374	15.9	87.1
2022-10-22T17:10	10	1	0.1	1	1	373	0.4	372	374	15.8	86.9
2022-10-22T17:11	10	1	0.1	0	1	373	0.4	372	374	15.1	87.9
2022-10-22T17:12	10	1	0.1	1	1	373	0.2	373	374	15.0	90.0
2022-10-22T17:13	10	1	0.1	0	1	373	0.2	373	374	15.1	90.4
2022-10-22T17:14	10	1	0.1	0	1	374	0.2	373	374	15.1	90.3
2022-10-22T17:15	10	1	0.1	1	1	374	0.2	373	374	14.9	90.5
2022-10-22T17:16	10	1	0.1	0	1	373	0.2	373	374	15.0	91.1
2022-10-22T17:17	10	1	0.1	0	1	373	0.3	372	374	15.2	91.1
2022-10-22T17:18	10	1	0.1	0	1	373	0.3	373	374	15.2	90.6
2022-10-22T17:19	10	1	0.1	1	1	373	0.3	373	374	15.3	90.3
2022-10-22T17:20	10	1	0.1	0	1	374	0.4	373	374	14.9	90.3
2022-10-22T17:21	10	1	0.1	0	1	375	0.3	374	376	15.0	91.5
2022-10-22T17:22	10	1	0.1	0	1	375	0.3	375	376	15.0	91.2
2022-10-22T17:23	10	1	0.1	0	1	376	0.3	375	376	15.1	91.5
2022-10-22T17:24	10	1	0.1	1	1	376	0.2	376	377	15.1	91.3
2022-10-22T17:25	10	1	0.1	1	1	377	0.2	376	377	15.2	91.1
2022-10-22T17:26	10	1	0.1	1	1	376	0.3	375	376	15.3	90.8
2022-10-22T17:27	10	1	0.0	1	1	376	0.2	375	376	15.2	90.6
2022-10-22T17:28	10	1	0.1	1	1	376	0.2	375	376	15.3	90.6
2022-10-22T17:29	10	1	0.1	1	1	376	0.2	375	376	15.4	90.5
2022-10-22T17:30	10	1	0.1	1	1	376	0.2	375	376	15.5	89.9
2022-10-22T17:31	10	1	0.1	1	1	375	0.3	375	376	15.5	89.3
2022-10-22T17:32	10	1	0.1	1	1	375	0.3	374	376	15.5	88.9
2022-10-22T17:33	10	1	0.1	1	1	375	0.3	374	375	15.5	88.7
2022-10-22T17:34	10	1	0.1	1	1	374	0.3	374	375	15.4	88.9
2022-10-22T17:35	10	1	0.2	1	2	374	0.2	373	374	15.2	89.7
2022-10-22T17:36	10	1	0.2	1	1	374	0.2	373	374	15.1	90.3
2022-10-22T17:37	10	1	0.1	1	1	374	0.2	373	374	15.1	90.6
2022-10-22T17:38	10	1	0.2	1	1	374	0.3	373	375	15.2	90.9
2022-10-22T17:39	10	1	0.2	1	1	374	0.4	373	375	15.2	90.7
2022-10-22T17:40	10	1	0.1	1	1	374	0.3	373	375	15.2	90.6
2022-10-22T17:41	10	1	0.1	1	1	374	0.2	374	375	15.3	90.6
2022-10-22T17:42	10	1	0.1	1	1	375	0.3	374	376	15.2	90.4
2022-10-22T17:43	10	1	0.1	0	1	375	0.3	375	376	15.2	90.6
2022-10-22T17:44	10	1	0.1	1	1	375	0.3	375	376	15.3	90.7
2022-10-22T17:45	10	1	0.1	1	1	375	0.2	374	376	15.3	90.3
2022-10-22T17:46	10	1	0.1	1	1	374	0.2	374	375	15.1	90.6
2022-10-22T17:47	10	1	0.1	1	1	374	0.2	374	374	15.1	91.3
2022-10-22T17:48	10	1	0.1	0	1	374	0.2	373	374	15.0	91.6
2022-10-22T17:49	10	1	0.1	0	1	373	0.2	373	374	14.9	91.9
2022-10-22T17:50	10	1	0.1	0	1	373	0.2	373	374	15.1	92.2
2022-10-22T17:51	10	1	0.1	0	1	373	0.2	372	373	15.0	92.0
2022-10-22T17:52	10	0	0.1	0	1	372	0.2	372	372	14.8	92.3
2022-10-22T17:53	10	0	0.1	0	1	372	0.2	371	372	14.9	92.7
2022-10-22T17:54	10	0	0.1	0	1	372	0.4	371	373	15.1	92.9
2022-10-22T17:55	10	0	0.1	0	1	372	0.2	372	373	15.2	92.3
2022-10-22T17:56	10	1	0.1	0	1	372	0.3	371	372	15.1	91.8
2022-10-22T17:57	10	1	0.1	1	1	371	0.3	370	372	14.9	91.6
2022-10-22T17:58	10	1	0.1	1	1	371	0.2	370	371	14.9	92.0
2022-10-22T17:59	10	1	0.1	1	1	371	0.2	370	371	15.0	92.2
2022-10-22T18:00	10	1	0.1	1	1	370	0.2	370	371	14.8	92.2
2022-10-22T18:01	10	1	0.1	1	1	370	0.2	370	371	14.6	92.4
2022-10-22T18:02	10	1	0.1	1	1	370	0.3	369	371	14.5	93.1
2022-10-22T18:03	10	1	0.1	1	1	370	0.2	370	371	14.6	93.5
2022-10-22T18:04	10	1	0.1	1	1	370	0.2	370	371	14.6	93.6
2022-10-22T18:05	10	1	0.1	1	1	370	0.2	370	371	14.5	93.6
2022-10-22T18:06	10	1	0.1	1	1	370	0.2	370	371	14.4	93.7
2022-10-22T18:07	10	1	0.1	1	1	370	0.2	369	370	14.4	93.9
2022-10-22T18:08	10	1	0.1	1	1	369	0.2	369	370	14.3	94.2
2022-10-22T18:09	10	1	0.1	1	1	369	0.3	368	370	14.3	94.4
2022-10-22T18:10	10	1	0.1	1	1	369	0.2	368	370	14.3	94.7
2022-10-22T18:11	10	1	0.1	1	1	369	0.2	368	369	14.4	95.0
2022-10-22T18:12	10	1	0.1	1	1	369	0.2	368	369	14.5	95.0
2022-10-22T18:13	10	1	0.1	1	1	368	0.3	368	369	14.6	94.9
2022-10-22T18:14	10	1	0.1	1	1	368	0.3	367	368	14.5	94.7
2022-10-22T18:15	10	1	0.1	1	1	368	0.2	367	368	14.4	94.5
2022-10-22T18:16	10	1	0.1	0	1	368	0.3	367	368	14.4	94.7
2022-10-22T18:17	10	1	0.1	1	1	368	0.3	367	368	14.5	94.7
2022-10-22T18:18	10	1	0.1	1	1	368	0.3	368	369	14.4	94.6
2022-10-22T18:19	10	1	0.1	0	1	368	0.2	368	369	14.4	94.6
2022-10-22T18:20	10	1	0.1	0	1	369	0.2	368	369	14.2	94.6
2022-10-22T18:21	10	1	0.1	0	1	369	0.3	368	369	14.2	95.0
2022-10-22T18:22	10	1	0.1	0	1	369	0.2	368	369	14.2	95.3
2022-10-22T18:23	10	1	0.1	0	1	369	0.2	368	369	14.2	95.5
2022-10-22T18:24	10	1	0.1	0	1	368	0.2	368	369	14.3	95.6
2022-10-22T18:25	10	1	0.1	0	1	368	0.3	368	369	14.3	95.6
2022-10-22T18:26	10	1	0.1	0	1	369	0.3	368	369	14.3	95.5
2022-10-22T18:27	10	1	0.1	0	1	369	0.3	369	370	14.4	95.5
2022-10-22T18:28	10	1	0.1	0	1	370	0.3	369	371	14.5	95.2
2022-10-22T18:29	10	1	0.1	0	1	370	0.2	370	371	14.5	94.9
2022-10-22T18:30	10	1	0.1	0	1	370	0.2	370	371	14.5	94.7
2022-10-22T18:31	10	1	0.1	1	1	370	0.2	370	371	14.6	94.6
2022-10-22T18:32	10	1	0.1	1	1	370	0.2	369	370	14.5	94.3
2022-10-22T18:33	10	1	0.1	1	1	370	0.2	369	370	14.4	94.4
2022-10-22T18:34	10	1	0.1	1	1	369	0.2	369	370	14.5	94.5
2022-10-22T18:35	10	1	0.1	1	1	369	0.2	369	370	14.4	94.3
2022-10-22T18:36	10	1	0.1	1	1	369	0.2	368	370	14.3	94.5
2022-10-22T18:37	10	1	0.1	1	1	369	0.2	368	369	14.4	94.6
2022-10-22T18:38	10	1	0.1	1	1	369	0.2	368	369	14.3	94.4
2022-10-22T18:39	10	1	0.1	1	1	368	0.3	367	369	14.2	94.3
2022-10-22T18:40	10	1	0.1	1	1	368	0.2	367	368	14.1	94.3
2022-10-22T18:41	10	1	0.1	1	1	367	0.2	367	368	14.3	94.5
2022-10-22T18:42	10	1	0.1	1	1	367	0.2	367	368	14.4	94.1
2022-10-22T18:43	10	1	0.1	1	1	368	0.2	367	368	14.4	93.9
2022-10-22T18:44	10	1	0.1	1	1	368	0.3	367	368	14.3	93.7
2022-10-22T18:45	10	1	0.0	1	1	368	0.3	367	368	14.3	93.7
2022-10-22T18:46	10	1	0.1	1	1	368	0.2	368	369	14.3	93.7
2022-10-22T18:47	10	1	0.1	1	1	368	0.3	368	369	14.1	93.6
2022-10-22T18:48	10	1	0.0	1	1	368	0.2	368	369	14.1	93.8
2022-10-22T18:49	10	1	0.1	1	1	368	0.3	367	369	13.9	94.1
2022-10-22T18:50	10	1	0.0	1	1	368	0.2	367	368	13.7	94.2
2022-10-22T18:51	10	1	0.1	1	1	367	0.5	366	368	13.7	94.8
2022-10-22T18:52	10	1	0.1	1	1	367	0.2	366	368	13.8	95.2
2022-10-22T18:53	10	1	0.1	0	1	367	0.4	366	368	13.7	95.5
2022-10-22T18:54	10	1	0.1	0	1	367	0.4	366	368	13.6	95.4
2022-10-22T18:55	10	0	0.1	0	1	367	0.5	366	368	13.7	95.9
2022-10-22T18:56	10	0	0.1	0	1	367	0.5	366	368	13.7	96.1
2022-10-22T18:57	10	0	0.1	0	1	367	0.3	367	368	13.8	96.4
2022-10-22T18:58	10	0	0.1	0	1	367	0.4	367	368	13.6	96.3
2022-10-22T18:59	10	0	0.1	0	1	368	0.4	367	368	13.5	96.3
2022-10-22T19:00	10	0	0.1	0	1	369	0.3	368	369	13.5	96.4
2022-10-22T19:01	10	1	0.1	0	1	369	0.4	368	370	13.6	96.7
2022-10-22T19:02	10	1	0.1	0	1	368	0.3	367	369	13.6	96.9
2022-10-22T19:03	10	1	0.1	0	1	368	0.3	367	368	13.5	96.8
2022-10-22T19:04	10	1	0.2	0	1	368	0.3	367	369	13.5	96.9
2022-10-22T19:05	10	0	0.1	0	1	369	0.6	368	370	13.5	97.2
2022-10-22T19:06	10	0	0.1	0	1	369	0.4	368	370	13.5	97.2
2022-10-22T19:07	10	0	0.1	0	1	369	0.3	368	369	13.5	97.3
2022-10-22T19:08	10	0	0.1	0	1	368	0.4	368	369	13.5	97.4
2022-10-22T19:09	10	0	0.1	0	1	368	0.3	367	368	13.6	97.5
2022-10-22T19:10	10	0	0.1	0	1	368	0.4	367	368	13.6	97.5
2022-10-22T19:11	10	0	0.1	0	1	367	0.2	367	368	13.5	97.5
2022-10-22T19:12	10	0	0.1	0	1	367	0.3	367	368	13.5	97.4
2022-10-22T19:13	10	0	0.1	0	1	368	0.3	367	368	13.5	97.4
2022-10-22T19:14	10	0	0.1	0	1	367	0.2	367	368	13.4	97.4
2022-10-22T19:15	10	0	0.1	0	1	367	0.4	367	368	13.4	97.4
2022-10-22T19:16	10	0	0.1	0	1	367	0.3	367	368	13.4	97.4
2022-10-22T19:17	10	0	0.2	0	1	367	0.3	366	368	13.3	97.4
2022-10-22T19:18	10	0	0.1	0	0	367	0.3	367	368	13.2	97.3
2022-10-22T19:19	10	0	0.2	-1	0	368	0.4	367	369	13.2	97.4
2022-10-22T19:20	10	0	0.1	-1	0	368	0.2	368	369	13.2	97.5
2022-10-22T19:21	10	0	0.2	-1	0	368	0.2	368	369	13.2	97.5
2022-10-22T19:22	10	0	0.2	0	0	369	0.3	368	370	13.1	97.5
2022-10-22T19:23	10	0	0.1	0	0	369	0.3	368	369	13.1	97.6
2022-10-22T19:24	10	0	0.1	0	0	368	0.2	368	368	13.1	97.6
2022-10-22T19:25	10	0	0.1	-1	0	368	0.2	367	368	13.1	97.7
2022-10-22T19:26	10	0	0.1	0	0	368	0.2	367	368	13.2	97.8
2022-10-22T19:27	10	0	0.1	0	0	368	0.2	367	368	13.2	97.9
2022-10-22T19:28	10	0	0.1	0	0	368	0.3	367	368	13.4	98.0
2022-10-22T19:29	10	0	0.1	-1	0	368	0.5	367	369	13.4	98.0
2022-10-22T19:30	10	0	0.1	-1	0	370	0.3	369	370	13.4	98.0
2022-10-22T19:31	10	0	0.1	-1	0	370	0.3	370	371	13.4	97.9
2022-10-22T19:32	10	0	0.1	-1	0	370	0.3	370	371	13.3	97.8
2022-10-22T19:33	10	-1	0.1	-1	0	371	0.3	370	371	13.3	97.8
2022-10-22T19:34	10	-1	0.1	-1	0	371	0.2	370	371	13.2	97.8
2022-10-22T19:35	10	-1	0.1	-1	0	371	0.2	371	372	13.1	97.7
2022-10-22T19:36	10	-1	0.1	-1	-1	371	0.4	370	372	13.1	97.7
2022-10-22T19:37	10	-1	0.1	-1	0	371	0.2	370	371	13.1	97.7
2022-10-22T19:38	10	-1	0.1	-1	0	371	0.3	370	371	13.1	97.7
2022-10-22T19:39	10	-1	0.1	-1	0	370	0.3	369	371	13.1	97.7
2022-10-22T19:40	10	-1	0.1	-1	0	369	0.5	368	370	13.1	97.7
2022-10-22T19:41	10	0	0.1	-1	0	369	0.3	368	369	13.2	97.7
2022-10-22T19:42	10	0	0.1	-1	0	368	0.3	368	369	13.2	97.7
2022-10-22T19:43	10	0	0.1	-1	0	368	0.3	367	368	13.2	97.7
2022-10-22T19:44	10	-1	0.1	-1	0	368	0.3	367	369	13.2	97.6
2022-10-22T19:45	10	-1	0.1	-1	-1	368	0.2	367	368	13.3	97.6
2022-10-22T19:46	10	-1	0.0	-1	-1	368	0.4	367	369	13.3	97.5
2022-10-22T19:47	10	-1	0.1	-1	-1	369	0.3	368	369	13.3	97.4
2022-10-22T19:48	10	-1	0.1	-1	0	369	0.2	369	370	13.3	97.4
2022-10-22T19:49	10	-1	0.1	-1	0	370	0.3	369	370	13.3	97.2
2022-10-22T19:50	10	-1	0.1	-1	-1	370	0.2	369	370	13.3	97.2
2022-10-22T19:51	10	-1	0.1	-1	-1	370	0.3	369	371	13.3	97.2
2022-10-22T19:52	10	-1	0.1	-1	0	370	0.2	369	371	13.3	97.1
2022-10-22T19:53	10	-1	0.1	-1	0	370	0.2	369	371	13.3	97.1
2022-10-22T19:54	10	-1	0.1	-1	0	370	0.3	370	371	13.3	97.0
2022-10-22T19:55	10	-1	0.1	-1	0	370	0.3	369	370	13.2	96.8
2022-10-22T19:56	10	0	0.1	-1	0	369	0.4	368	370	13.2	96.8
2022-10-22T19:57	10	0	0.1	-1	0	369	0.3	369	370	13.2	96.8
2022-10-22T19:58	10	0	0.1	0	0	369	0.3	369	370	13.2	96.8
2022-10-22T19:59	10	0	0.1	-1	0	369	0.3	369	370	13.3	96.8
2022-10-22T20:00	10	0	0.1	-1	0	369	0.3	369	370	13.3	96.8
2022-10-22T20:01	10	0	0.1	-1	0	370	0.3	369	370	13.2	96.7
2022-10-22T20:02	10	0	0.1	-1	0	370	0.3	369	370	13.1	96.7
2022-10-22T20:03	10	0	0.1	-1	0	370	0.2	370	371	13.1	96.7
2022-10-22T20:04	10	-1	0.1	-1	0	371	0.4	370	371	13.0	96.7
2022-10-22T20:05	10	-1	0.1	-1	0	371	0.2	370	371	12.9	96.7
2022-10-22T20:06	10	0	0.1	-1	0	370	0.2	370	371	12.9	96.7
2022-10-22T20:07	10	-1	0.1	-1	0	370	0.3	370	371	12.8	96.7
2022-10-22T20:08	10	-1	0.1	-1	0	370	0.2	370	371	12.9	96.8
2022-10-22T20:09	10	-1	0.1	-1	0	370	0.2	369	370	12.8	96.8
2022-10-22T20:10	10	-1	0.1	-1	0	370	0.2	369	370	12.8	96.9
2022-10-22T20:11	10	-1	0.1	-1	0	370	0.2	369	370	12.9	96.9
2022-10-22T20:12	10	0	0.1	-1	0	370	0.2	369	370	12.8	96.9
2022-10-22T20:13	10	0	0.1	-1	0	369	0.3	369	370	12.8	96.9
2022-10-22T20:14	10	0	0.1	-1	0	369	0.2	369	370	12.8	96.9
2022-10-22T20:15	10	0	0.1	0	0	369	0.2	369	369	12.8	97.1
2022-10-22T20:16	10	0	0.1	0	0	369	0.2	368	369	12.9	97.1
2022-10-22T20:17	10	0	0.1	0	0	369	0.3	368	369	12.9	97.2
2022-10-22T20:18	10	0	0.1	0	0	369	0.3	368	369	12.8	97.2
2022-10-22T20:19	10	0	0.1	-1	0	369	0.4	368	369	12.9	97.2
2022-10-22T20:20	10	0	0.1	0	0	368	0.2	367	368	12.8	97.1
2022-10-22T20:21	10	0	0.1	-1	0	367	0.4	366	368	12.7	97.0
2022-10-22T20:22	10	0	0.1	0	0	366	0.3	366	367	12.6	96.9
2022-10-22T20:23	10	0	0.1	0	0	366	0.2	366	367	12.7	97.1
2022-10-22T20:24	10	0	0.1	-1	0	366	0.3	365	367	12.6	97.1
2022-10-22T20:25	10	0	0.1	0	0	367	0.4	366	368	12.7	97.1
2022-10-22T20:26	10	0	0.1	0	0	368	0.4	367	368	12.7	97.1
2022-10-22T20:27	10	0	0.1	0	0	368	0.5	367	369	12.7	97.1
2022-10-22T20:28	10	0	0.1	0	0	368	0.3	367	369	12.7	97.1
2022-10-22T20:29	10	0	0.1	0	0	368	0.3	368	369	12.6	97.0
2022-10-22T20:30	10	0	0.1	0	0	369	0.2	368	369	12.7	97.1
2022-10-22T20:31	10	0	0.1	-1	0	369	0.2	368	369	12.8	97.1
2022-10-22T20:32	10	0	0.1	-1	0	368	0.3	367	368	12.6	96.9
2022-10-22T20:33	10	0	0.1	0	0	367	0.3	366	367	12.5	96.8
2022-10-22T20:34	10	0	0.1	-1	0	366	0.3	366	367	12.5	96.9
2022-10-22T20:35	10	0	0.1	-1	0	366	0.3	365	366	12.5	97.0
2022-10-22T20:36	10	0	0.1	-1	0	366	0.2	365	366	12.5	97.0
2022-10-22T20:37	10	0	0.1	-1	0	365	0.2	365	366	12.5	97.0
2022-10-22T20:38	10	0	0.4	0	2	365	0.3	364	365	12.6	97.1
2022-10-22T20:39	10	0	0.1	0	0	365	0.3	364	365	12.7	97.2
2022-10-22T20:40	10	0	0.1	0	0	365	0.3	365	366	13.0	97.4
2022-10-22T20:41	10	0	0.1	0	0	366	0.3	365	366	13.1	97.3
2022-10-22T20:42	10	0	0.1	-1	0	366	0.2	365	366	13.1	97.1
2022-10-22T20:43	10	0	0.1	0	0	366	0.3	365	367	13.1	96.8
2022-10-22T20:44	10	0	0.1	-1	0	366	0.3	365	366	13.1	96.6
2022-10-22T20:45	10	0	0.1	-1	0	365	0.4	364	366	12.8	96.2
2022-10-22T20:46	10	0	0.1	-1	0	365	0.2	365	366	12.9	96.4
2022-10-22T20:47	10	0	0.0	-1	0	365	0.4	364	366	12.9	96.3
2022-10-22T20:48	10	0	0.1	0	0	364	0.3	364	365	12.7	96.1
2022-10-22T20:49	10	0	0.1	-1	0	364	0.4	363	365	12.7	96.0
2022-10-22T20:50	10	0	0.1	-1	0	364	0.2	364	365	12.6	96.1
2022-10-22T20:51	10	0	0.1	-1	0	365	0.6	364	366	12.7	96.2
2022-10-22T20:52	10	-1	0.1	-1	0	367	0.6	365	368	12.8	96.3
2022-10-22T20:53	10	-1	0.1	-1	0	367	0.2	367	368	12.7	96.2
2022-10-22T20:54	10	0	0.1	-1	0	368	0.3	367	368	12.6	96.1
2022-10-22T20:55	10	0	0.1	0	0	367	0.2	367	368	12.6	96.1
2022-10-22T20:56	10	0	0.1	0	0	367	0.3	366	368	12.5	96.2
2022-10-22T20:57	10	0	0.1	0	0	367	0.4	366	367	12.4	96.2
2022-10-22T20:58	10	0	0.4	0	3	367	0.4	366	368	12.4	96.3
2022-10-22T20:59	10	0	0.1	0	0	367	0.3	366	368	12.4	96.6
2022-10-22T21:00	10	0	0.1	0	0	367	0.3	366	367	12.5	96.8
2022-10-22T21:01	10	0	0.1	0	0	366	0.3	366	367	12.6	96.9
2022-10-22T21:02	10	0	0.1	0	0	366	0.3	365	366	12.5	96.8
2022-10-22T21:03	10	0	0.1	0	0	365	0.3	365	366	12.3	96.7
2022-10-22T21:04	10	0	0.1	0	1	365	0.2	365	366	12.3	96.8
2022-10-22T21:05	10	0	0.1	0	0	365	0.2	364	365	12.3	96.9
2022-10-22T21:06	10	0	0.1	0	0	365	0.2	364	365	12.2	97.0
2022-10-22T21:07	10	0	0.1	0	0	365	0.2	364	365	12.1	97.1
2022-10-22T21:08	10	0	0.0	0	0	365	0.3	365	366	12.1	97.1
2022-10-22T21:09	10	0	0.1	0	0	365	0.3	364	366	12.0	97.1
2022-10-22T21:10	10	0	0.1	0	0	366	0.2	365	366	12.1	97.4
2022-10-22T21:11	10	0	0.1	0	0	366	0.2	365	366	12.1	97.4
2022-10-22T21:12	10	0	0.1	0	0	365	0.2	365	366	12.1	97.5
2022-10-22T21:13	10	0	0.1	-1	0	365	0.2	364	365	12.2	97.6
2022-10-22T21:14	10	0	0.1	0	0	365	0.3	364	365	12.3	97.8
2022-10-22T21:15	10	0	0.1	0	0	365	0.2	364	365	12.2	97.7
2022-10-22T21:16	10	0	0.1	0	0	364	0.3	364	365	12.2	97.6
2022-10-22T21:17	10	0	0.1	0	0	364	0.2	364	365	12.2	97.6
2022-10-22T21:18	10	0	0.1	0	0	365	0.3	364	365	12.6	97.9
2022-10-22T21:19	10	0	0.1	0	0	364	0.2	364	365	12.7	98.0
2022-10-22T21:20	10	0	0.1	0	1	364	0.2	364	365	12.5	97.9
2022-10-22T21:21	10	0	0.1	0	1	364	0.4	363	365	12.5	97.8
2022-10-22T21:22	10	0	0.0	0	0	364	0.2	363	365	12.4	97.7
2022-10-22T21:23	10	0	0.0	0	1	364	0.2	363	364	12.4	97.7
2022-10-22T21:24	10	0	0.1	0	1	363	0.2	363	364	12.3	97.6
2022-10-22T21:25	10	0	0.1	0	1	363	0.3	362	363	12.4	97.6
2022-10-22T21:26	10	0	0.1	0	1	362	0.5	361	363	12.4	97.6
2022-10-22T21:27	10	0	0.1	0	1	362	0.6	361	364	12.3	97.5
2022-10-22T21:28	10	0	0.1	0	1	362	0.4	361	363	12.3	97.5
2022-10-22T21:29	10	0	0.1	0	0	362	0.2	361	362	12.3	97.6
2022-10-22T21:30	10	0	0.1	0	0	362	0.2	361	362	12.3	97.6
2022-10-22T21:31	10	0	0.1	0	0	362	0.2	362	363	12.2	97.6
2022-10-22T21:32	10	0	0.1	0	0	362	0.3	361	363	12.1	97.6
2022-10-22T21:33	10	0	0.1	0	0	362	0.3	361	363	12.0	97.6
2022-10-22T21:34	10	0	0.1	0	0	362	0.5	361	363	12.0	97.6
2022-10-22T21:35	10	0	0.1	0	0	363	0.3	362	364	12.0	97.7
2022-10-22T21:36	10	0	0.1	0	0	363	0.2	362	363	12.2	97.9
2022-10-22T21:37	10	0	0.1	0	0	362	0.4	362	363	12.1	97.9
2022-10-22T21:38	10	0	0.1	0	0	362	0.2	362	363	12.1	97.9
2022-10-22T21:39	10	0	0.1	0	0	362	0.3	362	363	12.1	98.0
2022-10-22T21:40	10	0	0.1	0	1	362	0.2	362	362	12.0	97.9
2022-10-22T21:41	10	0	0.1	0	0	362	0.2	361	362	12.1	98.0
2022-10-22T21:42	10	0	0.1	0	0	362	0.3	361	362	12.2	98.1
2022-10-22T21:43	10	0	0.1	0	1	361	0.3	361	362	12.1	98.2
2022-10-22T21:44	10	0	0.1	0	1	361	0.3	361	362	12.1	98.1
2022-10-22T21:45	10	0	0.1	0	1	362	0.3	361	362	12.0	98.1
2022-10-22T21:46	10	0	0.1	0	1	361	0.4	360	362	11.9	98.1
2022-10-22T21:47	10	0	0.2	0	1	361	0.4	360	362	11.9	98.1
2022-10-22T21:48	10	0	0.1	0	0	361	0.4	360	361	12.0	98.2
2022-10-22T21:49	10	0	0.1	0	0	361	0.3	360	361	12.0	98.3
2022-10-22T21:50	10	0	0.1	0	0	361	0.3	360	362	12.0	98.3
2022-10-22T21:51	10	0	0.2	-1	0	361	0.3	360	362	12.0	98.3
2022-10-22T21:52	10	0	0.2	-1	0	362	0.5	361	363	11.9	98.3
2022-10-22T21:53	10	-1	0.2	-1	0	364	0.6	362	365	11.9	98.3
2022-10-22T21:54	10	-1	0.2	-1	0	364	0.3	363	365	12.0	98.4
2022-10-22T21:55	10	-1	0.1	-2	-1	364	0.3	364	365	12.0	98.5
2022-10-22T21:56	10	-1	0.2	-2	-1	364	0.3	364	365	11.9	98.5
2022-10-22T21:57	10	-1	0.2	-2	-1	364	0.3	363	365	12.0	98.5
2022-10-22T21:58	10	-1	0.1	-2	-1	364	0.3	363	365	12.0	98.6
2022-10-22T21:59	10	-1	0.2	-2	-1	364	0.2	363	364	12.1	98.6
2022-10-22T22:00	10	-1	0.2	-2	-1	363	0.3	362	364	12.0	98.5
2022-10-22T22:01	10	-1	0.1	-1	-1	363	0.2	362	364	11.9	98.5
2022-10-22T22:02	10	-1	0.2	-1	-1	362	0.3	362	363	12.0	98.5
2022-10-22T22:03	10	-1	0.1	-1	0	362	0.3	361	362	11.9	98.5
2022-10-22T22:04	10	-1	0.1	-1	0	361	0.2	361	362	11.9	98.4
2022-10-22T22:05	10	-1	0.1	-1	0	361	0.3	361	362	11.9	98.4
2022-10-22T22:06	10	-1	0.1	-1	0	361	0.2	361	362	12.0	98.4
2022-10-22T22:07	10	-1	0.1	-1	0	361	0.3	360	362	12.0	98.4
2022-10-22T22:08	10	-1	0.1	-1	0	361	0.3	360	362	12.0	98.4
2022-10-22T22:09	10	-1	0.1	-1	0	361	0.3	361	362	12.0	98.3
2022-10-22T22:10	10	-1	0.1	-1	0	361	0.4	360	362	12.0	98.3
2022-10-22T22:11	10	-1	0.1	-1	-1	361	0.2	360	361	12.0	98.3
2022-10-22T22:12	10	-1	0.1	-1	0	360	0.3	359	361	12.0	98.3
2022-10-22T22:13	10	-1	0.1	-1	0	360	0.3	359	361	11.9	98.2
2022-10-22T22:14	10	-1	0.1	-1	0	360	0.3	360	361	11.9	98.2
2022-10-22T22:15	10	-1	0.1	-1	0	360	0.2	360	361	11.9	98.2
2022-10-22T22:16	10	-1	0.1	-1	0	361	0.3	360	361	12.0	98.2
2022-10-22T22:17	10	-1	0.2	-1	0	361	0.2	360	362	11.9	98.1
2022-10-22T22:18	10	-1	0.1	-1	0	362	0.3	361	362	12.0	98.0
2022-10-22T22:19	10	-1	0.2	-1	0	362	0.4	362	363	12.1	98.0
2022-10-22T22:20	10	-1	0.1	-1	-1	363	0.5	363	364	12.1	97.9
2022-10-22T22:21	10	-1	0.1	-1	-1	364	0.3	363	365	12.1	97.8
2022-10-22T22:22	10	-1	0.1	-1	-1	365	0.3	364	365	12.1	97.7
2022-10-22T22:23	10	-1	0.1	-1	-1	364	0.3	364	365	12.1	97.5
2022-10-22T22:24	10	-1	0.1	-1	-1	364	0.3	363	365	12.1	97.3
2022-10-22T22:25	10	-1	0.1	-1	-1	364	0.2	363	364	12.1	97.2
2022-10-22T22:26	10	-1	0.1	-1	-1	364	0.4	363	365	12.2	97.2
2022-10-22T22:27	10	-1	0.1	-1	-1	364	0.3	363	364	12.2	97.1
2022-10-22T22:28	10	-1	0.1	-1	-1	363	0.2	363	364	12.1	96.9
2022-10-22T22:29	10	-1	0.1	-1	-1	363	0.3	363	364	12.2	96.8
2022-10-22T22:30	10	-1	0.1	-2	-1	363	0.2	363	364	12.3	96.8
2022-10-22T22:31	10	-1	0.1	-1	-1	363	0.2	362	363	12.2	96.6
2022-10-22T22:32	10	-1	0.1	-1	-1	363	0.2	362	363	12.2	96.5
2022-10-22T22:33	10	-1	0.1	-1	-1	363	0.2	362	363	12.3	96.5
2022-10-22T22:34	10	-1	0.1	-1	-1	363	0.3	363	364	12.3	96.4
2022-10-22T22:35	10	-1	0.1	-1	-1	364	0.3	364	365	12.4	96.3
2022-10-22T22:36	10	-1	0.1	-1	-1	364	0.3	364	365	12.3	96.0
2022-10-22T22:37	10	-1	0.1	-1	-1	365	0.3	364	365	12.2	95.9
2022-10-22T22:38	10	-1	0.1	-1	-1	365	0.2	365	365	12.2	95.9
2022-10-22T22:39	10	-1	0.1	-1	-1	365	0.2	364	365	12.3	95.9
2022-10-22T22:40	10	-1	0.1	-1	-1	365	0.3	365	366	12.4	95.8
2022-10-22T22:41	10	-1	0.1	-1	-1	365	0.2	365	366	12.2	95.5
2022-10-22T22:42	10	-1	0.1	-1	-1	365	0.2	364	365	12.2	95.5
2022-10-22T22:43	10	-1	0.1	-1	-1	365	0.2	365	366	12.3	95.5
2022-10-22T22:44	10	-1	0.1	-1	-1	365	0.3	365	366	12.3	95.5
2022-10-22T22:45	10	-1	0.1	-2	-1	366	0.4	365	367	12.3	95.4
2022-10-22T22:46	10	-1	0.1	-1	-1	366	0.3	365	366	12.1	95.2
2022-10-22T22:47	10	-1	0.1	-1	-1	366	0.2	365	366	12.2	95.5
2022-10-22T22:48	10	-1	0.1	-1	-1	366	0.2	365	366	12.3	95.5
2022-10-22T22:49	10	-1	0.1	-1	-1	365	0.2	365	366	12.2	95.5
2022-10-22T22:50	10	-1	0.1	-1	-1	366	0.2	365	366	12.3	95.6
2022-10-22T22:51	10	-1	0.1	-1	-1	365	0.2	365	366	12.3	95.5
2022-10-22T22:52	10	-1	0.1	-1	-1	365	0.3	364	366	12.3	95.6
2022-10-22T22:53	10	-1	0.1	-1	-1	365	0.2	365	366	12.3	95.5
2022-10-22T22:54	10	-1	0.1	-1	-1	365	0.3	365	366	12.4	95.5
2022-10-22T22:55	10	-1	0.1	-1	-1	365	0.4	364	366	12.4	95.4
2022-10-22T22:56	10	-1	0.1	-1	-1	365	0.2	364	365	12.3	95.3
2022-10-22T22:57	10	-1	0.1	-1	-1	365	0.2	365	366	12.2	95.2
2022-10-22T22:58	10	-1	0.1	-1	-1	365	0.2	364	365	12.1	95.2
2022-10-22T22:59	10	-1	0.1	-1	-1	365	0.3	364	365	12.1	95.4
2022-10-22T23:00	10	-1	0.1	-1	-1	365	0.3	364	365	12.1	95.6
2022-10-22T23:01	10	-1	0.1	-1	-1	364	0.2	364	365	12.1	95.6
2022-10-22T23:02	10	-1	0.1	-1	-1	364	0.3	363	364	12.0	95.6
2022-10-22T23:03	10	-1	0.1	-1	-1	363	0.3	363	364	12.0	95.7
2022-10-22T23:04	10	-1	0.1	-1	-1	363	0.3	362	363	11.9	95.8
2022-10-22T23:05	10	-1	0.1	-1	-1	363	0.2	362	363	12.0	95.9
2022-10-22T23:06	10	-1	0.1	-1	-1	362	0.2	362	363	11.9	95.9
2022-10-22T23:07	10	-1	0.1	-1	-1	363	0.4	362	364	12.0	96.0
2022-10-22T23:08	10	-1	0.1	-1	-1	363	0.3	363	364	12.2	96.1
2022-10-22T23:09	10	-1	0.1	-1	-1	363	0.3	362	364	12.2	96.0
2022-10-22T23:10	10	-1	0.1	-1	-1	363	0.3	362	363	12.0	95.6
2022-10-22T23:11	10	-1	0.1	-1	-1	362	0.5	361	364	12.0	95.7
2022-10-22T23:12	10	-1	0.1	-1	-1	362	0.3	361	362	12.0	95.7
2022-10-22T23:13	10	-1	0.1	-1	-1	362	0.2	361	362	12.0	95.7
2022-10-22T23:14	10	-1	0.1	-1	0	362	0.3	361	363	12.1	95.8
2022-10-22T23:15	10	0	0.1	-1	0	362	0.4	362	363	12.4	95.9
2022-10-22T23:16	10	0	0.1	-1	0	362	0.3	361	363	12.6	95.6
2022-10-22T23:17	10	0	0.1	-1	0	362	0.3	362	363	12.5	95.1
2022-10-22T23:18	10	0	0.1	-1	0	362	0.4	361	363	12.5	94.8
2022-10-22T23:19	10	-1	0.1	-1	0	362	0.3	361	363	12.4	94.5
2022-10-22T23:20	10	0	0.1	-1	0	361	0.3	361	362	12.3	94.5
2022-10-22T23:21	10	0	0.1	-1	0	361	0.2	361	362	12.2	94.5
2022-10-22T23:22	10	0	0.1	0	0	361	0.2	361	362	12.1	94.7
2022-10-22T23:23	10	0	0.1	0	0	362	0.3	361	362	12.1	95.0
2022-10-22T23:24	10	0	0.1	0	0	362	0.3	362	363	12.1	95.0
2022-10-22T23:25	10	0	0.1	0	0	363	0.3	362	363	11.9	95.0
2022-10-22T23:26	10	0	0.0	0	0	362	0.2	362	363	11.8	95.0
2022-10-22T23:27	10	0	0.1	0	0	362	0.3	362	363	11.8	95.2
2022-10-22T23:28	10	0	0.1	0	0	362	0.4	361	363	11.7	95.3
2022-10-22T23:29	10	0	0.0	0	0	362	0.2	361	362	11.4	95.3
2022-10-22T23:30	10	0	0.1	0	0	361	0.2	360	361	11.4	95.7
2022-10-22T23:31	10	0	0.1	0	0	361	0.2	360	361	11.4	96.0
2022-10-22T23:32	10	0	0.0	0	0	360	0.3	360	361	11.4	96.2
2022-10-22T23:33	10	0	0.1	0	0	360	0.6	358	361	11.3	96.3
2022-10-22T23:34	10	0	0.1	0	0	360	0.4	359	360	11.3	96.5
2022-10-22T23:35	10	0	0.1	0	0	359	0.3	358	360	11.3	96.7
2022-10-22T23:36	10	0	0.1	-1	0	359	0.6	358	360	11.3	96.9
2022-10-22T23:37	10	0	0.1	-1	0	359	0.2	359	360	11.3	96.9
2022-10-22T23:38	10	0	0.1	0	0	359	0.2	359	360	11.3	96.9
2022-10-22T23:39	10	0	0.1	-1	0	359	0.2	358	359	11.3	97.1
2022-10-22T23:40	10	0	0.1	-1	0	359	0.3	358	360	11.3	97.2
2022-10-22T23:41	10	0	0.1	-1	0	359	0.2	359	360	11.3	97.3
2022-10-22T23:42	10	-1	0.1	-1	0	359	0.2	359	360	11.2	97.3
2022-10-22T23:43	10	-1	0.1	-1	-1	359	0.3	359	360	11.2	97.4
2022-10-22T23:44	10	-1	0.1	-1	-1	359	0.2	359	360	11.2	97.5
2022-10-22T23:45	10	-1	0.1	-1	-1	359	0.3	359	360	11.2	97.6
2022-10-22T23:46	10	-1	0.1	-1	-1	359	0.3	358	359	11.1	97.7
2022-10-22T23:47	10	-1	0.1	-1	-1	359	0.2	358	360	11.3	97.8
2022-10-22T23:48	10	-1	0.1	-1	-1	359	0.4	359	360	11.3	97.9
2022-10-22T23:49	10	-1	0.1	-1	-1	360	0.4	359	361	11.4	98.0
2022-10-22T23:50	10	-1	0.1	-1	-1	361	0.2	360	361	11.3	98.1
2022-10-22T23:51	10	-1	0.1	-2	-1	360	0.2	360	361	11.2	98.0
2022-10-22T23:52	10	-1	0.1	-1	-1	360	0.5	359	361	11.1	97.9
2022-10-22T23:53	10	-1	0.1	-1	-1	360	0.3	360	361	11.2	98.1
2022-10-22T23:54	10	-1	0.1	-1	-1	360	0.3	359	361	11.2	98.2
2022-10-22T23:55	10	-1	0.1	-1	-1	360	0.3	359	360	11.2	98.2
2022-10-22T23:56	10	-1	0.1	-1	-1	360	0.4	359	361	11.2	98.2
2022-10-22T23:57	10	-2	0.1	-2	-1	361	0.6	360	362	11.2	98.3
2022-10-22T23:58	10	-2	0.1	-2	-1	362	0.2	361	362	11.3	98.3
2022-10-22T23:59	10	-2	0.1	-2	-2	362	0.3	361	362	11.1	98.2
2022-10-23T00:00	10	-2	0.1	-2	-2	361	0.3	360	362	11.0	98.2
2022-10-23T00:01	10	-2	0.1	-2	-2	361	0.3	360	361	11.1	98.2
2022-10-23T00:02	10	-2	0.1	-2	-2	360	0.2	360	361	11.1	98.2
2022-10-23T00:03	10	-2	0.1	-2	-2	361	0.3	360	361	11.1	98.3
2022-10-23T00:04	10	-2	0.1	-2	-2	361	0.2	360	361	11.1	98.3
2022-10-23T00:05	10	-2	0.1	-2	-2	361	0.3	360	361	11.2	98.3
2022-10-23T00:06	10	-2	0.1	-2	-2	361	0.2	361	361	11.3	98.3
2022-10-23T00:07	10	-2	0.1	-2	-2	361	0.2	360	361	11.4	98.4
2022-10-23T00:08	10	-2	0.1	-2	-2	360	0.3	360	361	11.4	98.4
2022-10-23T00:09	10	-2	0.1	-2	-2	360	0.3	359	360	11.3	98.3
2022-10-23T00:10	10	-2	0.1	-2	-1	359	0.3	358	360	11.1	98.1
2022-10-23T00:11	10	-2	0.1	-2	-1	359	0.3	358	359	11.2	98.1
2022-10-23T00:12	10	-2	0.1	-2	-1	359	0.4	358	359	11.4	98.2
2022-10-23T00:13	10	-1	0.1	-2	-1	358	0.2	358	359	11.4	98.3
2022-10-23T00:14	10	-1	0.1	-2	-1	358	0.2	357	358	11.4	98.2
2022-10-23T00:15	10	-1	0.1	-2	-1	358	0.3	357	359	11.5	98.2
2022-10-23T00:16	10	-2	0.1	-2	-1	358	0.2	357	358	11.6	98.2
2022-10-23T00:17	10	-1	0.1	-2	-1	358	0.3	357	358	11.7	98.2
2022-10-23T00:18	10	-1	0.1	-2	-1	357	0.4	356	358	11.6	97.9
2022-10-23T00:19	10	-1	0.1	-1	-1	356	0.3	356	357	11.5	97.7
2022-10-23T00:20	10	-1	0.1	-1	-1	356	0.2	356	357	11.5	97.6
2022-10-23T00:21	10	-1	0.1	-1	-1	356	0.3	356	357	11.6	97.6
2022-10-23T00:22	10	-1	0.1	-1	-1	356	0.2	355	356	11.5	97.5
2022-10-23T00:23	10	-1	0.1	-1	-1	356	0.2	355	356	11.5	97.4
2022-10-23T00:24	10	-1	0.1	-1	-1	356	0.3	355	356	11.5	97.3
2022-10-23T00:25	10	-1	0.1	-1	-1	355	0.3	355	356	11.4	97.2
2022-10-23T00:26	10	-1	0.1	-1	-1	355	0.2	354	355	11.4	97.1
2022-10-23T00:27	10	0	0.1	-1	0	355	0.2	355	356	11.3	97.1
2022-10-23T00:28	10	0	0.1	0	0	355	0.2	354	356	11.3	97.0
2022-10-23T00:29	10	0	0.1	0	0	355	0.3	354	356	11.3	97.0
2022-10-23T00:30	10	0	0.1	0	0	355	0.3	354	355	11.3	96.9
2022-10-23T00:31	10	0	0.1	0	0	355	0.2	354	355	11.3	96.9
2022-10-23T00:32	10	0	0.1	0	0	355	0.2	355	356	11.3	97.0
2022-10-23T00:33	10	0	0.1	0	0	355	0.3	354	356	11.2	96.9
2022-10-23T00:34	10	0	0.1	0	0	355	0.2	355	356	11.3	97.0
2022-10-23T00:35	10	0	0.1	0	0	355	0.2	355	356	11.2	97.0
2022-10-23T00:36	10	0	0.1	0	0	355	0.2	355	356	11.2	97.0
2022-10-23T00:37	10	0	0.1	0	0	355	0.3	354	356	11.1	97.0
2022-10-23T00:38	10	0	0.1	0	0	355	0.2	354	355	11.1	97.0
2022-10-23T00:39	10	0	0.1	0	0	355	0.2	354	355	11.1	97.1
2022-10-23T00:40	10	0	0.1	0	0	355	0.3	354	356	11.0	97.1
2022-10-23T00:41	10	0	0.1	0	0	355	0.2	355	356	11.0	97.2
2022-10-23T00:42	10	0	0.1	0	0	355	0.2	355	356	11.0	97.3
2022-10-23T00:43	10	0	0.1	0	0	355	0.2	355	356	11.0	97.4
2022-10-23T00:44	10	0	0.1	0	0	355	0.3	355	356	11.0	97.5
2022-10-23T00:45	10	0	0.1	0	0	355	0.2	355	356	11.0	97.5
2022-10-23T00:46	10	0	0.1	0	0	355	0.2	355	356	10.9	97.6
2022-10-23T00:47	10	0	0.1	0	0	355	0.2	354	355	10.9	97.6
2022-10-23T00:48	10	0	0.1	0	0	355	0.2	355	356	10.9	97.6
2022-10-23T00:49	10	0	0.1	0	0	355	0.2	354	356	10.8	97.6
2022-10-23T00:50	10	0	0.1	0	0	355	0.3	354	355	10.8	97.6
2022-10-23T00:51	10	0	0.1	0	0	355	0.3	354	355	10.7	97.6
2022-10-23T00:52	10	0	0.1	0	0	355	0.2	355	356	10.7	97.7
2022-10-23T00:53	10	0	0.1	0	0	355	0.2	355	356	10.6	97.7
2022-10-23T00:54	10	0	0.1	0	0	356	0.2	355	356	10.6	97.7
2022-10-23T00:55	10	0	0.1	0	0	356	0.2	355	356	10.6	97.8
2022-10-23T00:56	10	0	0.1	0	0	356	0.2	355	356	10.6	97.9
2022-10-23T00:57	10	0	0.1	0	0	356	0.2	356	356	10.6	97.9
2022-10-23T00:58	10	0	0.1	0	0	356	0.3	355	357	10.6	98.0
2022-10-23T00:59	10	0	0.1	0	0	356	0.2	356	357	10.6	98.1
2022-10-23T01:00	10	0	0.1	0	0	356	0.2	356	357	10.6	98.1
2022-10-23T01:01	10	0	0.1	-1	0	356	0.2	356	357	10.6	98.2
2022-10-23T01:02	10	0	0.1	-1	0	356	0.2	356	356	10.6	98.2
2022-10-23T01:03	10	1	6.3	-1	37	356	0.2	355	356	10.7	98.3
2022-10-23T01:04	10	0	0.1	-1	0	356	0.2	355	356	10.7	98.3
2022-10-23T01:05	10	0	0.1	0	0	356	0.5	354	356	10.6	98.3
2022-10-23T01:06	10	0	0.1	0	0	355	0.4	354	356	10.6	98.3
2022-10-23T01:07	10	0	0.1	0	0	355	0.4	354	356	10.6	98.3
2022-10-23T01:08	10	0	0.1	-1	0	355	0.5	354	356	10.6	98.3
2022-10-23T01:09	10	0	0.5	-1	2	355	0.3	355	356	10.5	98.3
2022-10-23T01:10	10	0	0.1	-1	0	356	0.2	355	356	10.5	98.4
2022-10-23T01:11	10	0	0.1	-1	0	355	0.2	355	356	10.5	98.4
2022-10-23T01:12	10	0	0.1	0	0	355	0.2	355	355	10.4	98.4
2022-10-23T01:13	10	-1	0.1	-1	0	355	0.4	354	356	10.4	98.4
2022-10-23T01:14	10	-1	0.1	-1	-1	356	0.5	355	357	10.4	98.4
2022-10-23T01:15	10	-1	0.1	-1	-1	355	0.2	355	356	10.4	98.5
2022-10-23T01:16	10	-1	0.1	-1	-1	355	0.2	355	356	10.3	98.5
2022-10-23T01:17	10	-1	0.1	-1	-1	355	0.2	354	355	10.4	98.6
2022-10-23T01:18	10	-1	0.1	-1	-1	355	0.3	355	356	10.4	98.5
2022-10-23T01:19	10	-1	0.1	-1	-1	355	0.3	355	356	10.3	98.6
2022-10-23T01:20	10	-1	0.1	-1	-1	356	0.2	355	356	10.5	98.7
2022-10-23T01:21	10	-1	0.1	-1	-1	356	0.2	355	356	10.5	98.7
2022-10-23T01:22	10	-1	0.2	-1	1	355	0.2	355	356	10.5	98.8
2022-10-23T01:23	10	-1	0.1	-1	-1	355	0.4	354	356	10.5	98.7
2022-10-23T01:24	10	-1	0.1	-1	-1	355	0.2	355	356	10.6	98.7
2022-10-23T01:25	10	-1	0.1	-1	-1	355	0.2	355	355	10.6	98.8
2022-10-23T01:26	10	-1	0.1	-1	-1	355	0.2	354	355	10.6	98.8
2022-10-23T01:27	10	-1	0.1	-1	-1	355	0.3	354	355	10.6	98.7
2022-10-23T01:28	10	-1	0.1	-1	-1	355	0.2	354	355	10.6	98.7
2022-10-23T01:29	10	-1	0.1	-1	-1	355	0.2	354	355	10.6	98.7
2022-10-23T01:30	10	-1	0.1	-1	-1	354	0.2	354	355	10.5	98.6
2022-10-23T01:31	10	-1	0.1	-1	0	354	0.3	354	355	10.4	98.5
2022-10-23T01:32	10	-1	0.1	-1	0	354	0.3	354	355	10.5	98.5
2022-10-23T01:33	10	-1	0.1	-1	0	354	0.3	354	355	10.5	98.5
2022-10-23T01:34	10	-1	0.1	-1	0	354	0.2	354	355	10.6	98.5
2022-10-23T01:35	10	-1	0.1	-1	0	355	0.3	354	355	10.6	98.5
2022-10-23T01:36	10	-1	0.1	-1	0	356	0.3	355	356	10.6	98.4
2022-10-23T01:37	10	-1	0.1	-1	0	356	0.5	355	357	10.7	98.4
2022-10-23T01:38	10	-1	0.1	-1	0	357	0.4	356	358	10.6	98.4
2022-10-23T01:39	10	-1	0.1	-1	0	358	0.3	357	358	10.6	98.3
2022-10-23T01:40	10	0	0.1	-1	0	358	0.3	358	359	10.4	98.1
2022-10-23T01:41	10	0	0.1	-1	0	359	0.3	358	359	10.4	98.1
2022-10-23T01:42	10	0	0.1	0	0	359	0.3	359	360	10.4	98.1
2022-10-23T01:43	10	0	0.1	0	0	360	0.3	360	361	10.6	98.2
2022-10-23T01:44	10	0	0.1	0	0	361	0.3	360	362	10.7	98.3
2022-10-23T01:45	10	0	0.1	-1	0	362	0.3	361	363	10.8	98.3
2022-10-23T01:46	10	0	0.1	-1	0	363	0.3	362	364	10.8	98.2
2022-10-23T01:47	10	-1	0.1	-1	0	364	0.4	363	365	10.9	98.2
2022-10-23T01:48	10	-1	0.1	-1	-1	364	0.4	364	365	10.9	98.1
2022-10-23T01:49	10	-1	0.1	-1	-1	365	0.2	365	366	10.9	98.0
2022-10-23T01:50	10	-1	0.1	-1	-1	365	0.4	365	366	10.9	97.8
2022-10-23T01:51	10	-1	0.1	-1	0	366	0.3	365	367	10.9	97.7
2022-10-23T01:52	10	0	0.1	-1	0	366	0.2	365	366	10.8	97.6
2022-10-23T01:53	10	0	0.1	0	0	366	0.2	365	366	10.7	97.4
2022-10-23T01:54	10	0	0.1	0	0	366	0.2	366	366	10.7	97.4
2022-10-23T01:55	10	0	0.1	0	0	366	0.3	366	367	10.7	97.4
2022-10-23T01:56	10	0	0.1	0	0	366	0.2	366	367	10.6	97.3
2022-10-23T01:57	10	0	0.1	0	0	366	0.3	365	367	10.6	97.3
2022-10-23T01:58	10	0	0.1	0	0	366	0.3	365	366	10.5	97.3
2022-10-23T01:59	10	0	0.1	0	0	366	0.3	365	367	10.6	97.4
2022-10-23T02:00	10	0	0.1	0	0	367	0.3	366	367	10.6	97.5
2022-10-23T02:01	10	0	0.1	0	0	367	0.5	366	368	10.6	97.5
2022-10-23T02:02	10	0	0.1	0	0	367	0.4	366	368	10.6	97.6
2022-10-23T02:03	10	0	0.1	0	0	368	0.3	367	368	10.7	97.7
2022-10-23T02:04	10	0	0.1	0	0	368	0.3	367	368	10.7	97.7
2022-10-23T02:05	10	0	0.1	0	0	368	0.2	367	368	10.6	97.6
2022-10-23T02:06	10	0	0.1	0	0	367	0.3	367	368	10.5	97.6
2022-10-23T02:07	10	0	0.1	0	0	367	0.3	367	368	10.6	97.6
2022-10-23T02:08	10	0	0.1	0	0	367	0.2	367	368	10.6	97.7
2022-10-23T02:09	10	0	0.1	0	0	368	0.3	367	368	10.5	97.6
2022-10-23T02:10	10	0	0.1	0	0	367	0.2	367	368	10.5	97.7
2022-10-23T02:11	10	0	0.1	0	0	367	0.2	367	368	10.5	97.7
2022-10-23T02:12	10	0	0.1	0	0	368	0.2	367	368	10.6	97.8
2022-10-23T02:13	10	0	0.1	0	0	368	0.2	367	368	10.6	97.9
2022-10-23T02:14	10	0	0.1	0	0	368	0.3	367	368	10.7	97.9
2022-10-23T02:15	10	0	0.1	-1	0	368	0.3	368	369	10.8	98.0
2022-10-23T02:16	10	0	0.1	0	0	369	0.2	368	369	11.0	98.0
2022-10-23T02:17	10	0	0.1	0	0	369	0.3	368	369	10.9	97.9
2022-10-23T02:18	10	0	0.1	0	0	369	0.2	369	370	10.8	97.7
2022-10-23T02:19	10	0	0.1	0	0	369	0.2	369	370	10.9	97.7
2022-10-23T02:20	10	0	0.1	0	1	369	0.3	369	370	10.9	97.6
2022-10-23T02:21	10	0	0.1	0	1	369	0.2	369	370	10.8	97.5
2022-10-23T02:22	10	0	0.1	0	1	370	0.2	369	370	10.8	97.5
2022-10-23T02:23	10	0	0.1	0	0	370	0.2	370	370	10.9	97.5
2022-10-23T02:24	10	0	0.1	0	1	370	0.2	369	370	10.9	97.5
2022-10-23T02:25	10	0	0.1	0	1	370	0.2	370	370	10.9	97.5
2022-10-23T02:26	10	0	0.1	0	0	370	0.2	370	371	10.9	97.5
2022-10-23T02:27	10	0	0.1	0	0	370	0.3	369	371	10.9	97.5
2022-10-23T02:28	10	0	0.0	0	0	370	0.3	369	370	11.0	97.5
2022-10-23T02:29	10	0	0.1	0	0	370	0.2	370	370	11.0	97.5
2022-10-23T02:30	10	0	0.1	0	0	370	0.3	369	370	10.9	97.4
2022-10-23T02:31	10	0	0.1	0	0	369	0.2	369	370	10.9	97.4
2022-10-23T02:32	10	0	0.1	0	0	369	0.4	369	370	10.8	97.4
2022-10-23T02:33	10	0	0.1	-1	0	369	0.2	369	370	10.9	97.6
2022-10-23T02:34	10	0	0.1	-1	0	369	0.2	369	370	11.0	97.6
2022-10-23T02:35	10	0	0.1	-1	0	370	0.2	369	370	11.0	97.6
2022-10-23T02:36	10	0	0.1	-1	0	370	0.2	369	370	10.9	97.6
2022-10-23T02:37	10	0	0.1	0	0	370	0.2	369	370	10.9	97.6
2022-10-23T02:38	10	0	0.1	0	0	370	0.3	369	370	10.9	97.6
2022-10-23T02:39	10	0	0.1	0	0	370	0.3	369	371	10.8	97.6
2022-10-23T02:40	10	0	0.1	0	0	370	0.2	369	371	10.8	97.7
2022-10-23T02:41	10	0	0.1	0	0	370	0.2	370	371	10.8	97.8
2022-10-23T02:42	10	0	0.1	0	0	370	0.2	370	371	11.0	97.9
2022-10-23T02:43	10	0	0.1	0	0	371	0.3	370	371	11.1	98.1
2022-10-23T02:44	10	0	0.1	0	0	370	0.2	370	371	11.0	98.0
2022-10-23T02:45	10	0	0.1	0	0	371	0.2	370	371	11.0	98.0
2022-10-23T02:46	10	0	0.1	0	1	371	0.4	370	371	10.9	98.0
2022-10-23T02:47	10	0	0.1	0	1	371	0.5	370	371	11.1	98.1
2022-10-23T02:48	10	0	0.1	0	1	371	0.2	371	372	11.2	98.2
2022-10-23T02:49	10	0	0.1	0	1	371	0.2	371	372	11.1	98.2
2022-10-23T02:50	10	0	0.1	0	1	371	0.3	370	372	11.0	98.1
2022-10-23T02:51	10	0	0.1	0	1	371	0.3	370	372	11.0	98.1
2022-10-23T02:52	10	0	0.1	0	0	371	0.3	370	371	11.0	98.1
2022-10-23T02:53	10	0	0.1	0	0	371	0.7	369	372	10.9	98.1
2022-10-23T02:54	10	0	0.1	0	0	370	0.5	369	371	10.9	98.1
2022-10-23T02:55	10	0	0.1	0	0	371	0.5	369	371	11.0	98.1
2022-10-23T02:56	10	0	0.1	0	0	371	0.3	370	371	10.9	98.2
2022-10-23T02:57	10	0	0.1	0	0	371	0.3	370	371	10.9	98.1
2022-10-23T02:58	10	0	0.1	0	0	371	0.2	370	371	10.9	98.1
2022-10-23T02:59	10	0	0.1	0	0	371	0.2	370	371	10.9	98.1
2022-10-23T03:00	10	0	0.1	0	0	371	0.3	370	372	10.9	98.2
2022-10-23T03:01	10	0	0.1	0	1	371	0.2	370	371	11.0	98.2
2022-10-23T03:02	10	0	0.1	0	1	371	0.2	371	372	11.0	98.2
2022-10-23T03:03	10	0	0.1	0	1	371	0.2	371	372	11.1	98.3
2022-10-23T03:04	10	0	0.2	0	1	371	0.3	370	371	10.9	98.3
2022-10-23T03:05	10	0	0.1	0	0	370	0.2	370	371	10.9	98.3
2022-10-23T03:06	10	0	0.1	-1	0	370	0.3	370	371	10.9	98.4
2022-10-23T03:07	10	0	0.1	-1	0	370	0.2	369	370	10.9	98.5
2022-10-23T03:08	10	-1	0.1	-1	-1	370	0.2	369	370	10.9	98.5
2022-10-23T03:09	10	-1	0.1	-1	-1	370	0.3	370	371	10.9	98.6
2022-10-23T03:10	10	-1	0.1	-1	-1	370	0.3	369	371	10.9	98.7
2022-10-23T03:11	10	-1	0.1	-1	0	371	0.4	370	371	11.0	98.8
2022-10-23T03:12	10	-1	0.1	-1	0	371	0.3	370	371	11.0	98.8
2022-10-23T03:13	10	-1	0.1	-1	-1	370	0.4	370	371	10.9	98.8
2022-10-23T03:14	10	-1	0.1	-1	-1	370	0.4	369	371	10.9	98.8
2022-10-23T03:15	10	-2	0.1	-2	-1	370	0.3	369	370	10.7	98.8
2022-10-23T03:16	10	-2	0.1	-2	-2	369	0.3	369	370	10.7	98.8
2022-10-23T03:17	10	-2	0.1	-2	-2	369	0.3	369	370	10.7	98.8
2022-10-23T03:18	10	-2	0.1	-2	-2	369	0.4	368	370	10.6	98.8
2022-10-23T03:19	10	-2	0.1	-2	-2	369	0.2	369	370	10.6	98.8
2022-10-23T03:20	10	-2	0.1	-2	-2	369	0.3	369	370	10.6	98.8
2022-10-23T03:21	10	-2	0.1	-2	-2	369	0.4	368	370	10.6	98.8
2022-10-23T03:22	10	-2	0.1	-2	-2	369	0.4	368	370	10.7	98.9
2022-10-23T03:23	10	-2	0.1	-2	-2	369	0.3	368	370	10.8	98.9
2022-10-23T03:24	10	-2	0.1	-2	-2	369	0.2	369	369	10.8	98.9
2022-10-23T03:25	10	-2	0.1	-2	-2	369	0.4	368	370	10.8	99.0
2022-10-23T03:26	10	-2	0.1	-2	-2	369	0.3	369	370	10.8	99.0
2022-10-23T03:27	10	-2	0.1	-2	-2	369	0.3	369	370	10.9	99.0
2022-10-23T03:28	10	-2	0.1	-2	-2	369	0.2	369	370	10.9	99.1
2022-10-23T03:29	10	-2	0.1	-2	-2	370	0.2	369	370	10.9	99.1
2022-10-23T03:30	10	-2	0.1	-2	-2	370	0.2	369	370	11.0	99.1
2022-10-23T03:31	10	-2	0.1	-2	-2	370	0.3	369	370	11.1	99.2
2022-10-23T03:32	10	-2	0.1	-2	-2	370	0.2	369	370	11.1	99.2
2022-10-23T03:33	10	-2	0.1	-2	-2	370	0.3	369	370	11.1	99.2
2022-10-23T03:34	10	-2	0.1	-2	-2	370	0.2	370	370	11.1	99.2
2022-10-23T03:35	10	-2	0.1	-2	-2	370	0.3	369	371	11.0	99.2
2022-10-23T03:36	10	-2	0.1	-2	-1	370	0.3	369	371	11.0	99.2
2022-10-23T03:37	10	-1	0.1	-1	-1	370	0.4	369	371	11.0	99.2
2022-10-23T03:38	10	-1	0.1	-1	-1	370	0.4	369	371	10.9	99.2
2022-10-23T03:39	10	-1	0.1	-1	-1	370	0.4	369	371	10.9	99.2
2022-10-23T03:40	10	-1	0.1	-1	0	370	0.3	369	371	10.9	99.2
2022-10-23T03:41	10	-1	0.1	-1	-1	370	0.2	369	370	10.9	99.2
2022-10-23T03:42	10	-1	0.1	-1	-1	370	0.3	369	370	10.8	99.2
2022-10-23T03:43	10	-1	0.1	-1	0	370	0.4	369	371	10.8	99.2
2022-10-23T03:44	10	-1	0.1	-1	0	370	0.4	369	371	10.9	99.2
2022-10-23T03:45	10	-1	0.1	-1	0	370	0.4	369	371	10.9	99.2
2022-10-23T03:46	10	-1	0.1	-1	0	370	0.3	369	371	10.8	99.2
2022-10-23T03:47	10	-1	0.1	-1	0	370	0.2	369	371	10.8	99.2
2022-10-23T03:48	10	-1	0.1	-1	0	370	0.2	369	370	10.8	99.2
2022-10-23T03:49	10	-1	0.1	-1	-1	370	0.3	369	371	10.8	99.2
2022-10-23T03:50	10	-1	0.1	-1	0	370	0.3	369	370	10.8	99.2
2022-10-23T03:51	10	-1	0.1	-1	0	370	0.4	369	371	10.8	99.2
2022-10-23T03:52	10	-1	0.1	-1	0	370	0.3	369	371	10.8	99.2
2022-10-23T03:53	10	-1	0.1	-1	-1	370	0.3	369	370	10.8	99.2
2022-10-23T03:54	10	-1	0.1	-1	-1	370	0.2	369	370	10.8	99.2
2022-10-23T03:55	10	-1	0.1	-1	-1	370	0.2	369	370	10.9	99.2
2022-10-23T03:56	10	-1	0.1	-2	-1	370	0.2	369	370	10.9	99.2
2022-10-23T03:57	10	-2	0.1	-2	-1	370	0.2	369	370	10.9	99.2
2022-10-23T03:58	10	-2	0.1	-2	-1	370	0.2	369	370	11.0	99.2
2022-10-23T03:59	10	-2	0.1	-2	-1	370	0.1	370	370	11.0	99.2
2022-10-23T04:00	10	-2	0.1	-2	-1	370	0.3	370	371	11.1	99.2
2022-10-23T04:01	10	-2	0.1	-2	-1	370	0.2	370	371	11.1	99.2
2022-10-23T04:02	10	-1	0.1	-2	-1	371	0.2	370	371	11.2	99.2
2022-10-23T04:03	10	-1	0.1	-2	-1	371	0.3	370	371	11.2	99.2
2022-10-23T04:04	10	-1	0.1	-1	-1	371	0.3	370	372	11.1	99.2
2022-10-23T04:05	10	-1	0.1	-1	-1	371	0.3	370	371	11.1	99.2
2022-10-23T04:06	10	-1	0.1	-1	-1	371	0.3	370	371	11.1	99.2
2022-10-23T04:07	10	-1	0.1	-1	0	371	0.3	370	371	11.1	99.2
2022-10-23T04:08	10	-1	0.1	-1	0	371	0.7	369	372	11.0	99.2
2022-10-23T04:09	10	0	0.1	-1	0	370	0.4	370	371	10.8	99.2
2022-10-23T04:10	10	-1	0.1	-1	0	370	0.6	369	371	10.7	99.2
2022-10-23T04:11	10	-1	0.1	-1	0	370	0.5	369	371	10.8	99.2
2022-10-23T04:12	10	0	0.1	-1	0	370	0.3	369	371	10.9	99.2
2022-10-23T04:13	10	-1	0.1	-1	0	370	0.2	370	371	10.9	99.2
2022-10-23T04:14	10	-1	0.1	-1	0	370	0.3	369	371	10.9	99.2
2022-10-23T04:15	10	-1	0.1	-1	-1	370	0.3	370	371	10.9	99.2
2022-10-23T04:16	10	-1	0.1	-1	-1	370	0.4	369	371	10.9	99.2
2022-10-23T04:17	10	-1	0.1	-1	-1	370	0.3	369	371	10.9	99.2
2022-10-23T04:18	10	-1	0.1	-1	-1	370	0.4	369	371	10.8	99.2
2022-10-23T04:19	10	-1	0.1	-1	-1	370	0.3	369	371	10.8	99.2
2022-10-23T04:20	10	-1	0.1	-1	-1	370	0.3	369	370	10.8	99.2
2022-10-23T04:21	10	-1	0.1	-1	-1	370	0.8	368	371	10.8	99.2
2022-10-23T04:22	10	-1	0.1	-1	0	370	0.3	369	371	10.9	99.2
2022-10-23T04:23	10	-1	0.1	-1	-1	370	0.2	370	370	10.9	99.2
2022-10-23T04:24	10	-1	0.1	-1	-1	370	0.3	370	371	11.0	99.2
2022-10-23T04:25	10	-1	0.1	-2	-1	370	0.3	369	371	10.9	99.2
2022-10-23T04:26	10	-2	0.1	-2	-1	370	0.2	369	370	10.9	99.2
2022-10-23T04:27	10	-2	0.1	-2	-1	370	0.3	369	370	10.8	99.2
2022-10-23T04:28	10	-2	0.1	-2	-1	370	0.2	369	370	10.8	99.2
2022-10-23T04:29	10	-2	0.1	-2	-1	370	0.3	369	370	10.8	99.2
2022-10-23T04:30	10	-2	0.1	-2	-1	370	0.3	369	371	10.8	99.2
2022-10-23T04:31	10	-2	0.1	-2	-1	370	0.4	369	370	10.8	99.2
2022-10-23T04:32	10	-2	0.1	-2	-1	370	0.3	369	370	10.8	99.2
2022-10-23T04:33	10	-2	0.1	-2	-2	369	0.2	369	370	10.8	99.2
2022-10-23T04:34	10	-2	0.1	-2	-2	369	0.3	369	370	10.8	99.2
2022-10-23T04:35	10	-2	0.1	-2	-2	369	0.3	369	370	10.8	99.2
2022-10-23T04:36	10	-2	0.1	-2	-2	369	0.3	368	370	10.8	99.2
2022-10-23T04:37	10	-2	0.1	-2	-2	369	0.2	369	370	10.8	99.2
2022-10-23T04:38	10	-2	0.1	-2	-2	369	0.3	368	370	10.8	99.2
2022-10-23T04:39	10	-2	0.3	-2	0	369	0.2	369	370	10.9	99.2
2022-10-23T04:40	10	-2	0.1	-2	-2	369	0.3	369	370	10.9	99.2
2022-10-23T04:41	10	-2	0.1	-2	-2	370	0.3	369	371	10.9	99.2
2022-10-23T04:42	10	-2	0.1	-2	-2	370	0.2	369	370	11.0	99.2
2022-10-23T04:43	10	-2	0.1	-2	-1	370	0.2	370	370	11.0	99.2
2022-10-23T04:44	10	-1	0.1	-2	-1	370	0.3	369	371	11.0	99.2
2022-10-23T04:45	10	-1	0.1	-1	-1	370	0.2	370	371	11.0	99.2
2022-10-23T04:46	10	-1	0.1	-1	-1	371	0.2	370	371	11.1	99.2
2022-10-23T04:47	10	-1	0.1	-1	0	370	0.2	370	371	11.1	99.2
2022-10-23T04:48	10	-1	0.1	-1	0	370	0.2	370	371	11.0	99.2
2022-10-23T04:49	10	-1	0.1	-1	0	370	0.2	370	371	11.0	99.2
2022-10-23T04:50	10	-1	0.1	-1	-1	370	0.3	369	371	11.0	99.2
2022-10-23T04:51	10	-1	0.1	-1	-1	370	0.5	369	371	11.0	99.2
2022-10-23T04:52	10	-1	0.1	-1	-1	370	0.2	370	371	11.0	99.2
2022-10-23T04:53	10	-1	0.1	-1	-1	370	0.2	370	370	11.0	99.2
2022-10-23T04:54	10	-1	0.1	-1	-1	370	0.2	369	370	11.0	99.2
2022-10-23T04:55	10	-1	0.1	-1	-1	370	0.3	369	370	10.9	99.2
2022-10-23T04:56	10	-1	0.1	-2	-1	370	0.3	369	370	11.0	99.2
2022-10-23T04:57	10	-1	0.1	-2	-1	370	0.2	369	371	11.0	99.2
2022-10-23T04:58	10	-1	0.1	-2	-1	370	0.2	369	370	10.9	99.2
2022-10-23T04:59	10	-2	0.1	-2	-1	370	0.2	369	370	10.9	99.2
2022-10-23T05:00	10	-1	0.1	-2	-1	370	0.3	369	370	11.0	99.2
2022-10-23T05:01	10	-1	0.1	-1	-1	370	0.4	369	371	10.9	99.2
2022-10-23T05:02	10	-1	0.1	-1	-1	370	0.2	369	370	10.9	99.2
2022-10-23T05:03	10	-1	0.1	-1	-1	370	0.3	369	371	10.9	99.2
2022-10-23T05:04	10	-1	0.1	-1	-1	370	0.3	369	371	10.9	99.2
2022-10-23T05:05	10	-1	0.1	-1	0	370	0.2	369	370	10.9	99.2
2022-10-23T05:06	10	-1	0.1	-1	0	370	0.2	370	371	10.9	99.2
2022-10-23T05:07	10	0	0.1	-1	0	370	0.3	369	371	10.9	99.2
2022-10-23T05:08	10	0	0.1	0	0	370	0.3	369	370	10.9	99.2
2022-10-23T05:09	10	0	0.1	0	0	370	0.4	369	371	10.8	99.2
2022-10-23T05:10	10	0	0.1	0	0	370	0.3	370	371	10.9	99.2
2022-10-23T05:11	10	0	0.1	0	0	370	0.4	369	371	10.9	99.2
2022-10-23T05:12	10	0	0.1	0	0	370	0.4	370	371	10.8	99.2
2022-10-23T05:13	10	0	0.1	0	0	370	0.2	370	370	10.8	99.2
2022-10-23T05:14	10	0	0.1	0	0	370	0.5	369	371	10.8	99.2
2022-10-23T05:15	10	0	0.1	0	0	370	0.3	369	371	10.8	99.2
2022-10-23T05:16	10	0	0.1	0	0	370	0.4	369	371	10.8	99.2
2022-10-23T05:17	10	0	0.1	0	0	370	0.4	369	371	10.8	99.2
2022-10-23T05:18	10	0	0.1	0	0	370	0.4	369	371	10.8	99.2
2022-10-23T05:19	10	0	0.1	0	0	370	0.2	369	370	10.8	99.2
2022-10-23T05:20	10	0	0.1	0	0	370	0.4	369	371	10.8	99.2
2022-10-23T05:21	10	0	0.1	0	0	370	0.3	369	370	10.8	99.2
2022-10-23T05:22	10	0	0.1	-1	0	370	0.2	369	370	10.8	99.2
2022-10-23T05:23	10	0	0.1	-1	0	370	0.2	369	370	10.8	99.2
2022-10-23T05:24	10	0	0.1	-1	0	370	0.3	369	370	10.8	99.2
2022-10-23T05:25	10	0	0.1	0	0	370	0.2	369	370	10.8	99.2
2022-10-23T05:26	10	0	0.1	0	0	370	0.2	370	370	10.8	99.2
2022-10-23T05:27	10	0	0.1	0	0	370	0.2	370	371	10.8	99.2
2022-10-23T05:28	10	0	0.1	0	0	370	0.2	370	371	10.8	99.2
2022-10-23T05:29	10	0	0.1	0	0	370	0.4	370	371	10.8	99.2
2022-10-23T05:30	10	0	0.1	0	0	370	0.3	370	371	10.8	99.2
2022-10-23T05:31	10	0	0.1	0	0	370	0.3	370	371	10.8	99.2
2022-10-23T05:32	10	0	0.1	0	0	370	0.2	370	370	10.8	99.2
2022-10-23T05:33	10	0	0.1	0	0	370	0.2	370	371	10.8	99.2
2022-10-23T05:34	10	0	0.1	0	0	370	0.2	370	371	10.9	99.2
2022-10-23T05:35	10	0	0.1	0	1	370	0.6	369	371	10.8	99.2
2022-10-23T05:36	10	0	0.1	0	1	370	0.4	370	371	10.8	99.2
2022-10-23T05:37	10	0	0.1	0	0	370	0.3	370	371	10.9	99.2
2022-10-23T05:38	10	0	0.1	0	0	370	0.3	369	371	10.9	99.2
2022-10-23T05:39	10	0	0.1	0	0	370	0.3	370	371	10.9	99.2
2022-10-23T05:40	10	0	0.1	0	0	370	0.2	370	371	10.9	99.2
2022-10-23T05:41	10	0	0.1	0	0	370	0.2	369	370	10.9	99.2
2022-10-23T05:42	10	0	0.1	0	0	370	0.2	369	370	10.8	99.2
2022-10-23T05:43	10	0	0.1	0	0	370	0.3	369	371	10.8	99.2
2022-10-23T05:44	10	0	0.1	0	0	370	0.3	370	371	10.8	99.2
2022-10-23T05:45	10	0	0.1	0	0	370	0.3	369	370	10.8	99.2
2022-10-23T05:46	10	0	0.1	0	0	370	0.3	369	370	10.8	99.2
2022-10-23T05:47	10	0	0.1	-1	0	370	0.3	369	370	10.8	99.2
2022-10-23T05:48	10	-1	0.1	-1	0	370	0.3	369	370	10.8	99.2
2022-10-23T05:49	10	-1	0.1	-1	0	370	0.4	369	370	10.8	99.2
2022-10-23T05:50	10	-1	0.1	-1	0	370	0.3	369	371	10.8	99.2
2022-10-23T05:51	10	-1	0.1	-1	0	370	0.2	369	370	10.8	99.2
2022-10-23T05:52	10	-1	0.1	-1	0	370	0.3	369	370	10.8	99.2
2022-10-23T05:53	10	-1	0.1	-1	0	370	0.3	369	370	10.8	99.2
2022-10-23T05:54	10	-1	0.1	-1	0	370	0.2	369	370	10.9	99.2
2022-10-23T05:55	10	-1	0.1	-1	-1	370	0.3	369	370	10.9	99.2
2022-10-23T05:56	10	-1	0.1	-1	-1	370	0.2	370	370	10.9	99.2
2022-10-23T05:57	10	-1	0.1	-1	-1	370	0.2	369	370	10.9	99.2
2022-10-23T05:58	10	-1	0.1	-1	0	370	0.2	369	371	10.9	99.2
2022-10-23T05:59	10	0	0.1	-1	0	370	0.2	370	371	10.9	99.2
2022-10-23T06:00	10	0	0.1	-1	0	370	0.2	370	370	10.9	99.2
2022-10-23T06:01	10	-1	0.1	-1	0	370	0.3	370	371	10.9	99.2
2022-10-23T06:02	10	0	0.1	-1	0	370	0.3	370	371	10.9	99.2
2022-10-23T06:03	10	0	0.1	0	0	370	0.4	369	371	10.9	99.2
2022-10-23T06:04	10	0	0.1	0	0	370	0.3	370	371	10.8	99.2
2022-10-23T06:05	10	0	0.1	0	0	370	0.3	369	371	10.8	99.2
2022-10-23T06:06	10	0	0.1	0	0	370	0.3	369	370	10.7	99.2
2022-10-23T06:07	10	0	0.1	0	0	370	0.2	369	370	10.7	99.2
2022-10-23T06:08	10	0	0.1	-1	0	369	0.3	369	370	10.7	99.2
2022-10-23T06:09	10	-1	0.1	-1	0	369	0.2	369	370	10.6	99.2
2022-10-23T06:10	10	-1	0.1	-1	-1	369	0.4	368	370	10.6	99.2
2022-10-23T06:11	10	-1	0.1	-1	-1	369	0.3	369	370	10.6	99.2
2022-10-23T06:12	10	-1	0.1	-1	-1	369	0.3	369	370	10.6	99.2
2022-10-23T06:13	10	-1	0.1	-1	0	369	0.3	368	370	10.6	99.2
2022-10-23T06:14	10	0	0.1	-1	0	369	0.2	369	370	10.6	99.2
2022-10-23T06:15	10	0	0.1	-1	0	369	0.3	368	370	10.6	99.2
2022-10-23T06:16	10	0	0.1	0	0	369	0.3	368	370	10.6	99.2
2022-10-23T06:17	10	0	0.1	0	0	369	0.4	368	370	10.6	99.2
2022-10-23T06:18	10	0	0.1	0	0	369	0.4	368	370	10.6	99.2
2022-10-23T06:19	10	0	0.1	0	1	369	0.8	368	370	10.6	99.2
2022-10-23T06:20	10	1	0.2	0	1	369	0.5	368	370	10.5	99.2
2022-10-23T06:21	10	1	0.1	1	1	369	0.3	368	370	10.4	99.2
2022-10-23T06:22	10	1	0.1	1	1	369	0.3	369	370	10.4	99.2
2022-10-23T06:23	10	1	0.1	1	2	369	0.4	369	370	10.6	99.2
2022-10-23T06:24	10	1	0.1	1	2	369	0.2	369	369	10.6	99.2
2022-10-23T06:25	10	1	0.1	1	2	369	0.3	369	370	10.5	99.2
2022-10-23T06:26	10	2	0.1	1	2	369	0.3	368	370	10.4	99.2
2022-10-23T06:27	10	2	0.1	2	2	369	0.5	368	370	10.4	99.2
2022-10-23T06:28	10	2	0.1	2	2	369	0.2	369	369	10.4	99.2
2022-10-23T06:29	10	2	0.1	2	2	369	0.2	368	370	10.5	99.2
2022-10-23T06:30	10	2	0.1	2	2	369	0.3	368	369	10.5	99.2
2022-10-23T06:31	10	2	0.1	1	2	369	0.3	368	370	10.5	99.2
2022-10-23T06:32	10	2	0.1	2	2	369	0.3	368	369	10.4	99.2
2022-10-23T06:33	10	2	0.1	2	2	369	0.6	368	370	10.4	99.2
2022-10-23T06:34	10	2	0.1	2	2	369	0.2	369	370	10.4	99.2
2022-10-23T06:35	10	2	0.1	2	2	369	0.4	369	370	10.4	99.2
2022-10-23T06:36	10	2	0.1	2	3	369	0.5	368	370	10.4	99.2
2022-10-23T06:37	10	3	0.1	3	3	369	0.4	368	370	10.4	99.2
2022-10-23T06:38	10	3	0.1	3	3	369	0.6	368	371	10.4	99.2
2022-10-23T06:39	10	3	0.1	3	3	369	0.6	368	370	10.3	99.2
2022-10-23T06:40	10	3	0.1	3	3	369	0.3	368	369	10.3	99.2
2022-10-23T06:41	10	3	0.1	3	3	369	0.3	368	370	10.3	99.2
2022-10-23T06:42	10	3	0.1	3	3	369	0.5	368	369	10.2	99.2
2022-10-23T06:43	10	3	0.1	3	4	369	0.4	368	369	10.2	99.2
2022-10-23T06:44	10	3	0.1	3	3	368	0.3	368	369	10.2	99.2
2022-10-23T06:45	10	3	0.1	3	3	368	0.2	368	369	10.2	99.2
2022-10-23T06:46	10	3	0.1	3	3	369	0.4	368	370	10.2	99.2
2022-10-23T06:47	10	3	0.1	3	3	369	0.3	368	369	10.2	99.2
2022-10-23T06:48	10	3	0.1	3	3	369	0.8	367	370	10.2	99.2
2022-10-23T06:49	10	3	0.1	3	4	369	0.3	368	370	10.2	99.2
2022-10-23T06:50	10	4	0.5	3	5	369	0.3	369	370	10.2	99.2
2022-10-23T06:51	10	7	1.1	5	9	369	0.5	368	370	10.2	99.2
2022-10-23T06:52	10	9	0.1	9	9	369	0.3	368	369	10.2	99.2
2022-10-23T06:53	10	9	0.2	8	9	369	0.3	369	370	10.3	99.2
2022-10-23T06:54	10	8	0.1	8	8	370	0.4	369	371	10.3	99.2
2022-10-23T06:55	10	8	0.3	8	9	370	0.4	369	371	10.4	99.2
2022-10-23T06:56	10	10	0.4	9	10	370	0.2	369	371	10.4	99.2
2022-10-23T06:57	10	11	0.2	10	11	370	0.2	369	370	10.4	99.2
2022-10-23T06:58	10	11	0.2	10	11	370	0.2	369	371	10.3	99.2
2022-10-23T06:59	10	10	0.3	9	10	370	0.3	370	371	10.4	99.2
2022-10-23T07:00	10	9	0.3	8	9	370	0.2	369	370	10.4	99.2
2022-10-23T07:01	10	8	1.0	6	9	370	0.3	369	370	10.4	99.2
2022-10-23T07:02	10	5	0.3	4	6	370	0.2	370	371	10.5	99.2
2022-10-23T07:03	10	4	0.2	4	4	370	0.3	369	371	10.5	99.2
2022-10-23T07:04	10	4	0.1	4	4	370	0.2	369	370	10.4	99.2
2022-10-23T07:05	10	4	0.1	4	4	370	0.2	370	370	10.5	99.2
2022-10-23T07:06	10	4	0.1	3	4	370	0.3	369	371	10.5	99.2
2022-10-23T07:07	10	3	0.1	3	4	370	0.2	369	370	10.5	99.2
2022-10-23T07:08	10	3	0.1	3	3	369	0.2	369	370	10.5	99.2
2022-10-23T07:09	10	3	0.1	3	3	370	0.2	369	370	10.5	99.2
2022-10-23T07:10	10	3	0.2	3	4	370	0.2	369	370	10.5	99.2
2022-10-23T07:11	10	5	0.8	4	6	370	0.2	369	370	10.5	99.2
2022-10-23T07:12	10	8	0.9	6	9	370	0.3	370	371	10.5	99.2
2022-10-23T07:13	10	10	0.3	9	10	371	0.3	370	371	10.5	99.2
2022-10-23T07:14	10	9	0.5	8	10	371	0.3	371	372	10.5	99.2
2022-10-23T07:15	10	13	1.3	10	14	372	0.3	371	372	10.6	99.2
2022-10-23T07:16	10	16	0.7	14	16	372	0.3	371	373	10.6	99.2
2022-10-23T07:17	10	16	0.2	16	17	373	0.3	372	373	10.6	99.2
2022-10-23T07:18	10	15	0.3	14	16	373	0.2	373	374	10.6	99.2
2022-10-23T07:19	10	15	0.2	14	15	374	0.4	373	374	10.6	99.2
2022-10-23T07:20	10	15	0.1	15	15	373	0.2	373	374	10.7	99.2
2022-10-23T07:21	10	14	1.3	11	15	373	0.2	373	374	10.7	99.2
2022-10-23T07:22	10	11	0.3	10	11	373	0.3	373	374	10.7	99.2
2022-10-23T07:23	10	10	0.2	10	11	373	0.3	372	373	10.7	99.2
2022-10-23T07:24	10	11	0.1	11	11	373	0.2	372	373	10.7	99.2
2022-10-23T07:25	10	12	0.5	11	13	372	0.2	372	373	10.6	99.2
2022-10-23T07:26	10	15	0.7	13	15	373	0.2	373	374	10.6	99.2
2022-10-23T07:27	10	15	0.2	15	16	373	0.2	373	374	10.6	99.2
2022-10-23T07:28	10	15	0.3	15	16	373	0.3	373	374	10.6	99.2
2022-10-23T07:29	10	18	0.9	16	19	374	0.2	373	374	10.6	99.2
2022-10-23T07:30	10	20	0.4	19	20	374	0.2	373	374	10.6	99.2
2022-10-23T07:31	10	20	0.2	20	20	374	0.2	373	374	10.6	99.2
2022-10-23T07:32	10	20	0.2	19	20	375	0.2	374	375	10.7	99.2
2022-10-23T07:33	10	19	0.8	18	20	375	0.2	374	375	10.7	99.2
2022-10-23T07:34	10	17	0.7	16	18	375	0.3	374	375	10.7	99.2
2022-10-23T07:35	10	16	0.1	16	16	375	0.2	374	375	10.8	99.2
2022-10-23T07:36	10	17	0.4	16	17	375	0.2	374	375	10.7	99.2
2022-10-23T07:37	10	18	0.6	17	19	375	0.2	374	375	10.7	99.2
2022-10-23T07:38	10	19	0.1	18	19	375	0.3	375	376	10.7	99.2
2022-10-23T07:39	10	19	0.3	18	20	375	0.2	375	376	10.8	99.2
2022-10-23T07:40	10	20	0.4	20	21	376	0.3	375	376	10.9	99.2
2022-10-23T07:41	10	22	1.0	21	24	375	0.2	375	376	10.8	99.2
2022-10-23T07:42	10	23	0.2	23	23	375	0.2	375	376	10.7	99.2
2022-10-23T07:43	10	22	0.5	21	23	376	0.2	375	377	10.8	99.2
2022-10-23T07:44	10	21	0.2	20	21	376	0.2	376	377	10.8	99.2
2022-10-23T07:45	10	20	0.1	20	21	377	0.3	376	377	10.9	99.2
2022-10-23T07:46	10	20	0.4	19	20	376	0.3	376	377	10.9	99.2
2022-10-23T07:47	10	19	0.1	19	20	376	0.2	376	377	10.9	99.2
2022-10-23T07:48	10	19	0.3	18	19	376	0.2	376	377	10.9	99.2
2022-10-23T07:49	10	18	0.2	17	18	377	0.3	376	377	10.9	99.2
2022-10-23T07:50	10	18	0.1	17	18	376	0.3	376	377	10.9	99.2
2022-10-23T07:51	10	18	0.1	18	18	376	0.3	376	377	10.9	99.2
2022-10-23T07:52	10	18	0.1	18	18	376	0.3	376	377	10.9	99.2
2022-10-23T07:53	10	18	0.1	18	19	376	0.3	376	377	10.9	99.2
2022-10-23T07:54	10	18	0.1	18	19	376	0.3	376	377	10.9	99.2
2022-10-23T07:55	10	18	0.1	18	18	376	0.2	376	377	10.9	99.2
2022-10-23T07:56	10	18	0.1	18	18	377	0.3	376	377	11.0	99.2
2022-10-23T07:57	10	18	0.1	18	18	377	0.2	376	377	10.9	99.2
2022-10-23T07:58	10	18	0.1	17	18	377	0.3	376	377	11.0	99.2
2022-10-23T07:59	10	18	0.1	18	18	377	0.3	376	378	11.1	99.2
2022-10-23T08:00	10	18	0.1	17	18	377	0.3	376	377	11.0	99.2
2022-10-23T08:01	10	18	0.2	18	18	377	0.4	376	377	11.0	99.2
2022-10-23T08:02	10	19	0.2	18	19	377	0.4	376	378	11.1	99.2
2022-10-23T08:03	10	19	0.1	19	19	377	0.3	376	378	11.1	99.2
2022-10-23T08:04	10	20	0.1	19	20	378	0.3	377	378	11.1	99.2
2022-10-23T08:05	10	20	0.1	20	20	377	0.3	377	378	11.1	99.2
2022-10-23T08:06	10	20	0.1	20	20	377	0.2	377	378	11.0	99.2
2022-10-23T08:07	10	20	0.1	19	20	377	0.6	376	379	11.1	99.2
2022-10-23T08:08	10	20	0.1	19	20	378	0.4	377	379	11.1	99.2
2022-10-23T08:09	10	20	0.1	20	20	378	0.3	378	379	11.2	99.2
2022-10-23T08:10	10	20	0.1	20	20	378	0.3	378	379	11.2	99.2
2022-10-23T08:11	10	21	0.1	20	21	378	0.2	377	378	11.1	99.2
2022-10-23T08:12	10	21	0.2	21	21	378	0.2	378	378	11.1	99.2
2022-10-23T08:13	10	21	0.1	21	21	378	0.2	377	379	11.1	99.2
2022-10-23T08:14	10	21	0.1	21	21	379	0.3	378	379	11.2	99.2
2022-10-23T08:15	10	22	0.1	21	22	379	0.2	378	379	11.4	99.2
2022-10-23T08:16	10	22	0.1	22	22	379	0.2	379	379	11.3	99.2
2022-10-23T08:17	10	22	0.2	22	22	379	0.4	378	380	11.3	99.2
2022-10-23T08:18	10	22	0.2	22	23	379	0.2	378	379	11.3	99.2
2022-10-23T08:19	10	22	0.1	22	22	379	0.9	378	381	11.3	99.2
2022-10-23T08:20	10	22	0.2	21	22	379	0.5	378	380	11.2	99.2
2022-10-23T08:21	10	21	0.2	21	22	379	0.2	379	380	11.3	99.2
2022-10-23T08:22	10	23	0.5	22	24	380	0.3	379	380	11.3	99.2
2022-10-23T08:23	10	24	0.4	24	25	380	0.2	379	380	11.3	99.2
2022-10-23T08:24	10	22	0.6	21	24	379	0.2	379	380	11.3	99.2
2022-10-23T08:25	10	22	0.3	21	22	379	0.3	378	380	11.2	99.2
2022-10-23T08:26	10	21	0.5	20	22	379	0.2	379	380	11.3	99.2
2022-10-23T08:27	10	21	1.0	19	22	379	0.3	379	380	11.3	99.2
2022-10-23T08:28	10	19	0.2	19	20	380	0.3	379	380	11.4	99.2
2022-10-23T08:29	10	19	0.2	19	20	380	0.2	379	380	11.3	99.2
2022-10-23T08:30	10	22	0.9	20	23	380	0.3	379	380	11.2	99.2
2022-10-23T08:31	10	21	1.1	19	23	379	0.3	378	380	11.2	99.2
2022-10-23T08:32	10	20	0.1	20	20	379	0.3	378	380	11.3	99.2
2022-10-23T08:33	10	20	0.2	20	21	379	0.2	379	380	11.2	99.2
2022-10-23T08:34	10	20	0.5	19	21	380	0.2	380	381	11.3	99.2
2022-10-23T08:35	10	20	0.7	19	21	380	0.3	379	381	11.3	99.2
2022-10-23T08:36	10	22	0.7	21	23	379	1.5	377	381	11.3	99.2
2022-10-23T08:37	10	21	0.4	21	22	379	0.4	378	380	11.2	99.2
2022-10-23T08:38	10	19	0.7	19	21	378	0.7	378	380	11.3	99.2
2022-10-23T08:39	10	19	0.1	18	19	378	0.6	377	380	11.3	99.2
2022-10-23T08:40	10	19	0.1	19	19	379	0.6	377	379	11.3	99.2
2022-10-23T08:41	10	20	0.4	19	20	379	0.5	378	380	11.2	99.2
2022-10-23T08:42	10	20	0.1	20	21	380	0.5	378	380	11.2	99.2
2022-10-23T08:43	10	20	0.2	20	21	380	0.2	379	380	11.2	99.2
2022-10-23T08:44	10	20	0.2	20	20	380	0.3	379	380	11.2	99.2
2022-10-23T08:45	10	20	0.2	20	20	380	0.5	379	381	11.2	99.2
2022-10-23T08:46	10	20	0.1	20	20	380	0.2	380	381	11.2	99.2
2022-10-23T08:47	10	20	0.3	20	21	380	0.2	380	381	11.2	99.2
2022-10-23T08:48	10	23	0.8	21	24	380	0.2	380	381	11.2	99.2
2022-10-23T08:49	10	23	0.6	22	24	381	0.3	380	381	11.3	99.2
2022-10-23T08:50	10	24	0.4	23	24	381	0.3	380	381	11.3	99.2
2022-10-23T08:51	10	23	0.3	22	23	381	0.5	380	382	11.4	99.2
2022-10-23T08:52	10	25	0.8	23	26	381	0.3	381	382	11.2	99.2
2022-10-23T08:53	10	25	0.2	24	25	381	0.2	381	382	11.2	99.2
2022-10-23T08:54	10	29	3.4	25	35	382	0.3	381	382	11.3	99.2
2022-10-23T08:55	10	32	3.0	27	36	383	0.3	382	384	11.2	99.2
2022-10-23T08:56	10	28	0.9	27	30	383	0.6	382	384	11.3	99.2
2022-10-23T08:57	10	31	0.5	30	32	383	0.2	383	384	11.3	99.2
2022-10-23T08:58	10	32	0.8	30	33	383	0.2	383	384	11.4	99.2
2022-10-23T08:59	10	33	0.2	33	33	384	0.5	382	385	11.5	99.2
2022-10-23T09:00	10	34	0.2	33	34	384	0.3	383	384	11.4	99.2
2022-10-23T09:01	10	33	0.8	31	34	384	0.3	383	384	11.4	99.2
2022-10-23T09:02	10	33	1.3	30	35	384	0.3	383	384	11.5	99.2
2022-10-23T09:03	10	32	0.3	32	33	384	0.3	383	384	11.5	99.2
2022-10-23T09:04	10	34	2.2	31	37	384	0.4	382	384	11.5	99.2
2022-10-23T09:05	10	35	2.9	30	38	384	0.3	383	385	11.5	99.2
2022-10-23T09:06	10	32	3.3	29	39	384	0.3	383	385	11.4	99.2
2022-10-23T09:07	10	39	0.5	38	40	385	0.4	384	385	11.4	99.2
2022-10-23T09:08	10	39	0.3	38	39	385	0.4	385	386	11.5	99.2
2022-10-23T09:09	10	39	0.3	38	40	386	0.3	385	386	11.6	99.2
2022-10-23T09:10	10	42	1.4	40	45	386	0.6	385	387	11.5	99.2
2022-10-23T09:11	10	48	1.5	45	50	385	0.4	384	386	11.4	99.2
2022-10-23T09:12	10	47	2.2	44	52	385	0.4	385	386	11.4	99.2
2022-10-23T09:13	10	52	1.5	48	54	385	0.8	384	387	11.2	99.2
2022-10-23T09:14	10	46	1.0	44	48	386	0.3	385	387	11.2	99.2
2022-10-23T09:15	10	42	2.1	39	45	386	0.4	385	387	11.3	99.2
2022-10-23T09:16	10	36	2.9	33	43	386	0.3	386	387	11.3	99.2
2022-10-23T09:17	10	43	1.5	39	44	386	0.4	385	387	11.3	99.2
2022-10-23T09:18	10	47	2.6	43	52	387	0.5	386	388	11.4	99.2
2022-10-23T09:19	10	55	1.3	52	57	388	0.4	387	389	11.3	99.2
2022-10-23T09:20	10	54	1.1	53	57	389	0.6	387	389	11.3	99.2
2022-10-23T09:21	10	54	1.6	51	56	389	0.4	388	390	11.4	99.2
2022-10-23T09:22	10	51	1.2	49	53	389	0.3	388	390	11.5	99.2
2022-10-23T09:23	10	56	1.8	52	58	390	0.3	390	391	11.6	99.2
2022-10-23T09:24	10	58	2.3	55	61	390	0.4	390	391	11.5	99.2
2022-10-23T09:25	10	58	1.5	56	61	390	0.8	389	391	11.4	99.2
2022-10-23T09:26	10	57	1.6	54	60	390	0.3	389	390	11.5	99.2
2022-10-23T09:27	10	63	2.2	59	67	390	0.5	389	391	11.6	99.2
2022-10-23T09:28	10	70	1.6	67	73	391	0.5	390	392	11.5	99.2
2022-10-23T09:29	10	76	1.2	73	78	392	0.5	391	393	11.4	99.2
2022-10-23T09:30	10	81	2.1	78	85	393	0.7	392	394	11.5	99.2
2022-10-23T09:31	10	91	3.8	85	98	395	0.7	394	396	11.5	99.2
2022-10-23T09:32	10	109	7.3	98	122	397	0.9	395	399	11.6	99.2
2022-10-23T09:33	10	145	12.2	123	160	400	2.0	397	404	11.7	99.2
2022-10-23T09:34	10	163	2.0	159	164	405	0.6	404	406	11.9	99.2
2022-10-23T09:35	10	149	9.1	136	162	406	0.5	405	407	11.9	99.2
2022-10-23T09:36	10	124	6.4	113	136	404	1.3	401	406	11.7	99.2
2022-10-23T09:37	10	102	5.2	95	113	401	1.1	400	403	11.9	99.2
2022-10-23T09:38	10	92	1.8	89	95	400	0.7	398	401	11.8	99.2
2022-10-23T09:39	10	87	0.7	85	89	398	0.5	397	400	11.6	99.2
2022-10-23T09:40	10	76	8.3	64	86	397	1.5	394	399	11.6	99.2
2022-10-23T09:41	10	71	1.3	67	73	396	0.5	395	397	11.9	99.2
2022-10-23T09:42	10	71	2.0	68	73	396	1.0	394	397	11.9	99.2
2022-10-23T09:43	10	65	2.4	62	69	395	1.0	393	397	11.6	99.2
2022-10-23T09:44	10	62	0.8	61	64	395	1.5	393	397	11.8	99.2
2022-10-23T09:45	10	59	4.2	51	65	394	0.9	393	396	11.6	99.2
2022-10-23T09:46	10	52	1.0	50	53	393	0.4	392	394	11.6	99.2
2022-10-23T09:47	10	53	0.3	52	53	393	0.4	392	393	11.6	99.2
2022-10-23T09:48	10	53	1.1	51	55	392	0.3	392	393	11.7	99.2
2022-10-23T09:49	10	56	1.0	53	58	392	0.7	391	393	11.9	99.2
2022-10-23T09:50	10	66	3.7	58	70	392	0.3	391	393	11.4	99.2
2022-10-23T09:51	10	69	2.5	65	72	392	0.8	391	393	11.3	99.2
2022-10-23T09:52	10	67	0.7	67	69	393	0.4	392	394	11.5	99.2
2022-10-23T09:53	10	66	0.8	65	67	393	0.3	393	394	11.5	99.2
2022-10-23T09:54	10	63	1.1	61	65	394	0.8	392	395	11.5	99.2
2022-10-23T09:55	10	59	0.6	58	61	393	0.4	392	394	11.6	99.2
2022-10-23T09:56	10	57	1.5	54	59	393	0.5	392	394	11.6	99.2
2022-10-23T09:57	10	50	2.0	48	54	392	1.2	391	394	11.9	99.2
2022-10-23T09:58	10	55	2.1	51	57	392	0.6	391	393	11.5	99.2
2022-10-23T09:59	10	57	2.9	53	61	392	0.7	391	393	11.7	99.2
2022-10-23T10:00	10	60	0.6	59	61	392	0.5	391	393	11.6	99.2
2022-10-23T10:01	10	61	1.6	59	63	392	0.5	391	393	11.6	99.2
2022-10-23T10:02	10	61	1.1	59	62	392	1.1	391	394	11.7	99.2
2022-10-23T10:03	10	61	2.0	60	66	392	0.4	391	393	11.7	99.2
2022-10-23T10:04	10	75	5.7	67	88	392	0.9	390	394	11.7	99.2
2022-10-23T10:05	10	96	2.1	89	100	395	0.5	394	396	11.8	99.2
2022-10-23T10:06	10	106	3.0	100	112	397	1.0	394	398	11.7	99.2
2022-10-23T10:07	10	104	3.8	95	108	398	0.6	396	399	11.8	99.2
2022-10-23T10:08	10	83	4.7	76	94	396	1.0	395	398	11.8	99.2
2022-10-23T10:09	10	70	1.9	67	75	395	0.4	394	396	12.1	99.2
2022-10-23T10:10	10	67	3.4	63	73	394	0.8	393	396	12.2	99.2
2022-10-23T10:11	10	59	1.8	57	63	393	0.3	393	394	12.0	99.2
2022-10-23T10:12	10	63	5.9	55	73	393	0.5	392	394	12.0	99.2
2022-10-23T10:13	10	66	6.4	57	75	393	0.5	392	394	11.9	99.2
2022-10-23T10:14	10	58	2.6	53	62	393	0.4	392	393	11.9	99.2
2022-10-23T10:15	10	52	1.0	51	54	392	0.5	391	393	11.9	99.2
2022-10-23T10:16	10	56	1.4	54	60	391	0.8	390	393	11.9	99.2
2022-10-23T10:17	10	60	1.0	58	61	392	0.3	391	392	12.0	99.2
2022-10-23T10:18	10	60	3.0	57	71	392	0.6	391	393	12.1	99.2
2022-10-23T10:19	10	86	7.6	72	97	394	0.6	392	395	12.1	99.2
2022-10-23T10:20	10	100	2.1	96	105	396	1.1	394	398	12.1	99.2
2022-10-23T10:21	10	96	4.0	91	105	397	0.8	396	399	12.0	99.2
2022-10-23T10:22	10	98	1.7	94	100	398	1.5	396	400	12.0	99.2
2022-10-23T10:23	10	106	1.9	100	109	399	0.5	398	400	12.1	99.2
2022-10-23T10:24	10	107	6.7	97	120	400	0.4	399	401	12.1	99.2
2022-10-23T10:25	10	118	2.2	115	122	402	0.8	400	403	12.1	99.2
2022-10-23T10:26	10	114	4.3	104	121	402	1.3	400	404	12.5	99.2
2022-10-23T10:27	10	98	2.6	94	104	401	0.9	399	402	12.3	99.2
2022-10-23T10:28	10	99	3.3	94	103	400	0.4	399	401	12.3	99.2
2022-10-23T10:29	10	98	5.1	87	103	401	0.3	400	402	12.2	99.2
2022-10-23T10:30	10	80	4.7	68	87	399	1.0	398	402	12.3	99.2
2022-10-23T10:31	10	59	3.7	54	67	397	0.5	396	398	12.5	99.2
2022-10-23T10:32	10	51	1.4	48	54	395	0.4	394	396	12.7	99.2
2022-10-23T10:33	10	47	1.3	44	48	395	0.7	393	396	12.8	99.2
2022-10-23T10:34	10	42	1.1	41	44	393	0.9	391	395	12.8	99.2
2022-10-23T10:35	10	42	1.0	41	44	391	0.8	390	392	12.8	99.2
2022-10-23T10:36	10	44	0.5	44	46	391	0.5	391	392	12.8	99.2
2022-10-23T10:37	10	48	1.1	46	50	391	0.6	390	392	12.7	99.2
2022-10-23T10:38	10	50	0.3	49	50	392	0.3	392	393	12.8	99.2
2022-10-23T10:39	10	50	0.3	49	50	392	0.4	391	393	12.7	99.2
2022-10-23T10:40	10	45	1.8	43	49	392	0.5	391	393	12.7	99.2
2022-10-23T10:41	10	41	1.3	39	43	391	0.4	390	392	12.9	99.2
2022-10-23T10:42	10	40	0.6	39	41	390	0.9	389	393	12.9	99.2
2022-10-23T10:43	10	44	1.4	41	46	390	0.8	389	392	12.7	99.2
2022-10-23T10:44	10	47	1.0	46	49	391	0.9	389	392	12.7	99.2
2022-10-23T10:45	10	51	1.2	49	53	392	0.6	390	393	12.8	99.2
2022-10-23T10:46	10	57	1.5	53	59	393	0.3	392	394	13.0	99.2
2022-10-23T10:47	10	61	2.0	59	65	394	0.5	393	395	12.9	99.2
2022-10-23T10:48	10	68	2.7	65	73	395	1.0	394	397	12.9	99.2
2022-10-23T10:49	10	73	0.5	72	73	397	0.6	395	398	13.1	99.2
2022-10-23T10:50	10	77	2.0	72	79	398	1.0	397	400	13.3	99.2
2022-10-23T10:51	10	78	1.0	76	80	399	0.6	398	400	13.1	99.2
2022-10-23T10:52	10	81	0.4	80	81	400	1.0	398	401	13.2	99.2
2022-10-23T10:53	10	82	0.9	81	84	400	0.4	399	401	13.2	99.2
2022-10-23T10:54	10	89	2.6	84	93	401	0.5	400	402	13.1	99.2
2022-10-23T10:55	10	87	1.0	86	89	400	0.2	400	401	13.0	99.2
2022-10-23T10:56	10	84	1.9	81	87	400	0.6	399	401	13.0	99.2
2022-10-23T10:57	10	73	4.3	67	83	400	0.7	398	401	13.0	99.2
2022-10-23T10:58	10	80	0.9	77	82	400	0.4	399	400	13.1	99.2
2022-10-23T10:59	10	86	1.6	82	87	400	0.4	399	401	13.1	99.2
2022-10-23T11:00	10	79	2.7	74	82	400	0.6	399	402	13.3	99.2
2022-10-23T11:01	10	81	1.5	79	83	400	0.3	400	401	13.1	99.2
2022-10-23T11:02	10	82	1.1	80	84	401	0.3	400	401	13.2	99.2
2022-10-23T11:03	10	82	2.5	79	86	401	0.2	400	401	13.2	99.2
2022-10-23T11:04	10	82	3.4	76	87	401	0.3	401	402	13.3	99.2
2022-10-23T11:05	10	74	0.9	72	76	401	0.4	400	402	13.4	99.2
2022-10-23T11:06	10	76	0.7	74	76	401	1.6	398	403	13.6	99.2
2022-10-23T11:07	10	74	0.7	73	75	400	0.4	399	400	13.2	99.2
2022-10-23T11:08	10	70	1.8	67	73	399	0.5	398	400	13.2	99.2
2022-10-23T11:09	10	65	1.1	63	67	398	0.4	397	399	13.3	99.2
2022-10-23T11:10	10	62	0.4	61	63	398	0.6	397	399	13.5	99.2
2022-10-23T11:11	10	65	0.7	64	66	397	0.6	396	398	13.4	99.2
2022-10-23T11:12	10	64	1.4	63	68	397	0.3	396	398	13.3	99.2
2022-10-23T11:13	10	71	1.3	68	73	398	0.5	397	399	13.4	99.2
2022-10-23T11:14	10	73	1.6	71	76	399	0.8	397	400	13.4	99.2
2022-10-23T11:15	10	62	4.5	56	71	399	0.3	398	400	13.6	99.2
2022-10-23T11:16	10	55	0.6	54	58	398	0.5	396	399	13.5	99.2
2022-10-23T11:17	10	56	1.0	55	58	397	0.5	396	399	13.5	99.2
2022-10-23T11:18	10	62	2.9	58	68	398	0.6	397	399	13.5	99.2
2022-10-23T11:19	10	82	6.3	69	92	399	0.4	397	400	13.5	99.2
2022-10-23T11:20	10	89	2.8	83	92	400	0.3	399	400	13.3	99.2
2022-10-23T11:21	10	77	3.2	73	83	399	0.6	398	400	13.3	99.2
2022-10-23T11:22	10	83	7.3	75	93	399	1.2	398	401	13.3	99.2
2022-10-23T11:23	10	75	6.1	67	87	399	1.2	397	401	13.5	99.2
2022-10-23T11:24	10	77	7.0	67	87	397	0.8	396	399	13.3	99.2
2022-10-23T11:25	10	85	5.8	79	97	400	1.7	398	403	13.6	99.2
2022-10-23T11:26	10	105	4.6	98	113	404	2.2	401	407	13.7	99.2
2022-10-23T11:27	10	113	3.6	104	117	406	0.8	404	408	13.8	99.2
2022-10-23T11:28	10	98	1.7	95	103	407	0.4	406	407	13.8	99.2
2022-10-23T11:29	10	92	2.2	90	96	406	1.3	403	407	13.6	99.2
2022-10-23T11:30	10	91	1.3	89	94	404	0.5	403	405	13.5	99.0
2022-10-23T11:31	10	92	0.8	90	93	404	0.8	402	405	13.6	98.4
2022-10-23T11:32	10	91	0.8	90	93	403	0.4	402	404	13.5	97.5
2022-10-23T11:33	10	94	0.9	92	95	403	0.4	403	404	13.6	96.9
2022-10-23T11:34	10	91	1.4	89	94	404	0.6	403	405	13.5	95.9
2022-10-23T11:35	10	82	5.5	76	90	404	0.5	402	405	13.7	95.0
2022-10-23T11:36	10	75	0.9	73	77	403	0.5	402	404	14.0	93.8
2022-10-23T11:37	10	73	2.7	70	77	402	0.6	401	403	14.0	92.7
2022-10-23T11:38	10	69	4.5	62	77	400	1.1	398	402	13.8	91.4
2022-10-23T11:39	10	63	0.8	62	65	397	0.8	396	399	13.6	90.1
2022-10-23T11:40	10	67	3.1	63	74	397	0.8	396	399	13.6	89.6
2022-10-23T11:41	10	80	2.2	74	84	400	0.8	399	402	13.8	89.8
2022-10-23T11:42	10	85	1.1	81	87	401	0.2	401	401	13.8	89.6
2022-10-23T11:43	10	90	7.5	79	101	401	0.7	400	402	13.7	89.4
2022-10-23T11:44	10	103	4.2	98	113	402	0.8	401	405	13.7	89.4
2022-10-23T11:45	10	119	3.4	113	124	406	1.0	404	407	13.9	89.5
2022-10-23T11:46	10	119	4.1	108	124	408	0.8	406	409	14.0	89.4
2022-10-23T11:47	10	101	7.6	82	109	407	0.7	405	408	13.9	88.6
2022-10-23T11:48	10	102	7.5	91	112	407	1.0	405	408	14.1	88.9
2022-10-23T11:49	10	96	0.8	94	97	405	1.6	402	408	14.1	89.1
2022-10-23T11:50	10	87	4.4	82	97	403	0.2	403	404	13.8	88.4
2022-10-23T11:51	10	79	1.9	76	83	403	0.7	402	404	13.9	88.5
2022-10-23T11:52	10	85	2.6	79	90	403	0.6	402	404	13.9	88.6
2022-10-23T11:53	10	77	5.0	69	88	403	0.3	402	403	13.9	88.5
2022-10-23T11:54	10	64	2.5	61	69	401	1.3	399	403	14.0	88.5
2022-10-23T11:55	10	68	2.6	64	72	400	0.9	399	402	14.0	88.8
2022-10-23T11:56	10	72	1.0	71	74	400	0.6	399	402	13.9	88.8
2022-10-23T11:57	10	74	0.7	73	75	401	0.7	400	402	14.0	88.7
2022-10-23T11:58	10	78	1.1	75	80	402	0.6	400	403	14.1	88.9
2022-10-23T11:59	10	80	1.6	77	83	403	0.5	402	404	14.3	88.1
2022-10-23T12:00	10	84	3.3	78	89	403	0.4	402	404	14.1	87.8
2022-10-23T12:01	10	91	0.9	89	92	404	0.5	403	406	14.2	88.4
2022-10-23T12:02	10	85	1.7	83	89	404	1.0	402	406	14.0	88.8
2022-10-23T12:03	10	81	0.6	80	83	402	0.5	401	403	14.0	89.2
2022-10-23T12:04	10	80	2.1	76	82	401	0.5	400	402	13.8	89.1
2022-10-23T12:05	10	68	5.0	60	76	401	0.3	401	402	13.9	89.8
2022-10-23T12:06	10	56	1.5	55	60	400	1.0	399	402	13.9	90.0
2022-10-23T12:07	10	52	2.6	47	55	399	0.6	398	400	14.0	90.0
2022-10-23T12:08	10	45	0.6	44	47	397	0.4	396	398	14.1	90.1
2022-10-23T12:09	10	45	0.3	45	46	397	0.4	396	398	14.2	90.6
2022-10-23T12:10	10	47	1.5	45	51	397	0.3	396	398	13.9	90.0
2022-10-23T12:11	10	53	0.9	51	55	398	0.5	396	399	13.9	90.0
2022-10-23T12:12	10	46	2.1	43	51	398	0.7	396	399	13.9	90.1
2022-10-23T12:13	10	43	0.5	43	45	397	0.3	397	398	13.9	89.8
2022-10-23T12:14	10	47	1.4	45	49	397	0.3	397	398	14.0	89.6
2022-10-23T12:15	10	47	1.7	44	49	398	0.9	396	399	14.1	89.1
2022-10-23T12:16	10	43	0.6	43	45	399	0.5	397	400	14.1	89.3
2022-10-23T12:17	10	48	2.0	45	51	399	0.8	398	400	14.3	90.0
2022-10-23T12:18	10	51	0.9	50	53	400	1.0	398	401	14.3	89.9
2022-10-23T12:19	10	57	2.7	53	63	401	0.7	399	402	14.3	89.5
2022-10-23T12:20	10	68	2.7	63	73	402	0.7	401	403	14.2	89.1
2022-10-23T12:21	10	74	1.2	71	75	403	0.3	403	404	14.3	89.2
2022-10-23T12:22	10	64	3.1	60	71	403	0.7	402	405	14.4	89.5
2022-10-23T12:23	10	57	1.2	56	60	401	0.8	400	403	14.4	89.4
2022-10-23T12:24	10	61	2.3	57	65	401	0.9	400	403	14.4	88.9
2022-10-23T12:25	10	70	2.3	65	74	402	0.7	401	403	14.4	88.9
2022-10-23T12:26	10	78	2.1	74	81	403	0.7	402	404	14.4	89.1
2022-10-23T12:27	10	87	4.0	81	93	403	0.5	403	405	14.3	88.5
2022-10-23T12:28	10	90	2.1	87	93	404	1.1	401	405	14.3	88.6
2022-10-23T12:29	10	82	2.4	78	87	401	0.5	400	402	13.9	88.7
2022-10-23T12:30	10	78	3.1	75	85	401	0.3	400	401	13.8	89.0
2022-10-23T12:31	10	87	0.4	86	88	401	0.4	400	402	13.8	89.4
2022-10-23T12:32	10	83	3.6	76	88	401	0.2	400	401	13.7	89.7
2022-10-23T12:33	10	74	1.6	71	76	400	0.3	399	401	13.8	90.2
2022-10-23T12:34	10	83	4.7	72	89	399	0.3	398	400	13.6	90.1
2022-10-23T12:35	10	80	1.9	77	83	400	0.4	399	401	13.8	90.3
2022-10-23T12:36	10	73	3.3	69	78	399	0.5	398	400	13.8	90.3
2022-10-23T12:37	10	73	2.8	69	78	397	0.5	396	399	13.7	90.1
2022-10-23T12:38	10	86	3.3	78	90	399	1.0	398	401	13.9	90.6
2022-10-23T12:39	10	82	2.2	80	86	400	0.3	399	401	13.8	90.6
2022-10-23T12:40	10	76	5.7	68	84	401	0.4	400	402	13.9	91.2
2022-10-23T12:41	10	63	2.7	58	68	399	0.4	399	400	13.8	91.4
2022-10-23T12:42	10	52	2.7	49	58	398	0.5	397	399	13.9	91.8
2022-10-23T12:43	10	49	0.8	47	50	397	0.9	394	398	13.8	91.4
2022-10-23T12:44	10	50	1.1	49	52	396	0.4	396	397	13.8	91.5
2022-10-23T12:45	10	53	1.5	52	56	397	0.3	396	398	13.9	91.6
2022-10-23T12:46	10	60	4.6	55	71	398	0.9	397	400	13.9	91.7
2022-10-23T12:47	10	71	2.0	68	74	400	0.8	399	402	14.1	91.9
2022-10-23T12:48	10	65	4.2	58	73	401	0.3	400	401	14.0	91.7
2022-10-23T12:49	10	52	2.9	48	58	400	1.1	397	402	14.1	91.4
2022-10-23T12:50	10	44	1.7	42	48	398	0.5	396	398	14.0	90.9
2022-10-23T12:51	10	42	0.5	41	43	396	0.4	395	396	14.0	90.9
2022-10-23T12:52	10	45	1.0	43	46	395	0.3	394	396	14.1	90.9
2022-10-23T12:53	10	49	1.5	46	51	396	0.3	395	396	14.1	91.0
2022-10-23T12:54	10	57	2.9	51	61	396	0.2	396	397	14.2	91.4
2022-10-23T12:55	10	64	1.5	61	67	397	0.5	396	398	14.2	91.0
2022-10-23T12:56	10	70	3.1	66	75	399	0.6	398	400	14.3	91.3
2022-10-23T12:57	10	68	0.4	67	69	399	0.6	398	400	14.3	91.1
2022-10-23T12:58	10	67	0.9	65	69	398	0.5	396	399	14.3	91.0
2022-10-23T12:59	10	62	2.6	57	65	397	0.5	396	397	14.2	91.1
2022-10-23T13:00	10	54	2.2	51	57	396	0.2	396	397	14.4	91.5
2022-10-23T13:01	10	50	0.9	48	51	395	0.6	394	396	14.4	91.4
2022-10-23T13:02	10	48	0.6	47	49	395	0.4	394	395	14.4	91.3
2022-10-23T13:03	10	48	0.2	48	49	394	0.4	393	395	14.3	91.2
2022-10-23T13:04	10	48	0.5	47	49	395	0.3	394	395	14.5	91.5
2022-10-23T13:05	10	48	0.3	47	48	395	0.3	394	395	14.5	91.1
2022-10-23T13:06	10	47	0.5	47	48	394	0.4	394	395	14.6	91.1
2022-10-23T13:07	10	47	0.2	47	47	395	0.2	394	395	14.6	90.6
2022-10-23T13:08	10	47	0.3	47	48	394	0.3	394	395	14.6	90.4
2022-10-23T13:09	10	48	0.3	48	49	395	0.2	395	396	14.7	90.5
2022-10-23T13:10	10	49	0.1	49	49	396	0.3	395	396	14.7	90.3
2022-10-23T13:11	10	49	0.2	48	49	397	0.5	396	398	14.7	90.0
2022-10-23T13:12	10	47	0.6	46	48	398	0.4	397	399	14.8	89.7
2022-10-23T13:13	10	45	0.6	44	46	399	0.4	398	399	14.8	89.2
2022-10-23T13:14	10	44	0.3	43	44	398	0.4	397	399	14.9	88.2
2022-10-23T13:15	10	43	0.4	42	43	398	0.2	398	398	15.0	87.4
2022-10-23T13:16	10	41	0.5	40	42	398	0.3	397	399	15.1	87.7
2022-10-23T13:17	10	40	0.4	39	40	398	0.3	397	398	15.1	87.0
2022-10-23T13:18	10	39	0.3	38	39	398	0.2	397	398	15.1	86.4
2022-10-23T13:19	10	38	0.1	38	38	397	0.2	397	398	15.2	85.8
2022-10-23T13:20	10	38	0.4	37	38	397	0.2	397	398	15.3	85.7
2022-10-23T13:21	10	36	0.3	36	37	398	0.3	397	398	15.3	85.5
2022-10-23T13:22	10	35	0.2	35	36	398	0.3	397	399	15.3	85.9
2022-10-23T13:23	10	34	0.2	34	35	398	0.5	396	399	15.3	87.0
2022-10-23T13:24	10	34	0.2	34	34	398	0.4	397	398	15.2	86.5
2022-10-23T13:25	10	33	0.2	33	34	397	0.4	396	398	15.1	86.3
2022-10-23T13:26	10	32	0.3	32	33	397	0.2	396	397	15.1	86.8
2022-10-23T13:27	10	32	0.2	31	32	397	0.2	396	397	15.1	86.9
2022-10-23T13:28	10	31	0.1	31	31	396	0.3	395	397	15.1	86.7
2022-10-23T13:29	10	31	0.1	31	31	396	0.3	396	397	15.1	86.9
2022-10-23T13:30	10	31	0.1	31	31	397	0.3	396	397	15.1	87.2
2022-10-23T13:31	10	32	0.2	31	32	397	0.3	396	398	15.1	87.8
2022-10-23T13:32	10	32	0.2	32	32	397	0.3	396	398	15.0	88.0
2022-10-23T13:33	10	32	0.1	32	33	397	0.4	396	398	15.1	87.5
2022-10-23T13:34	10	32	0.1	32	33	397	0.4	396	398	15.2	87.8
2022-10-23T13:35	10	32	0.1	32	32	398	0.2	397	398	15.3	87.8
2022-10-23T13:36	10	31	0.2	31	32	398	0.3	397	399	15.3	87.8
2022-10-23T13:37	10	31	0.1	30	31	398	0.3	397	398	15.3	87.7
2022-10-23T13:38	10	30	0.1	30	31	397	0.2	397	398	15.3	87.6
2022-10-23T13:39	10	31	0.3	31	32	397	0.4	396	398	15.3	87.2
2022-10-23T13:40	10	32	0.4	32	33	397	0.3	397	398	15.3	87.2
2022-10-23T13:41	10	34	0.3	33	34	397	0.5	396	398	15.1	87.1
2022-10-23T13:42	10	34	0.1	34	35	397	0.2	397	398	15.1	87.6
2022-10-23T13:43	10	35	0.1	34	35	397	0.2	396	398	15.1	87.3
2022-10-23T13:44	10	34	0.2	34	34	398	0.5	397	399	15.2	87.5
2022-10-23T13:45	10	33	0.5	32	34	399	0.3	398	399	15.3	87.5
2022-10-23T13:46	10	31	0.8	30	32	399	0.2	398	399	15.3	87.7
2022-10-23T13:47	10	28	0.8	27	29	398	0.5	397	399	15.3	87.8
2022-10-23T13:48	10	25	0.8	24	27	397	0.4	397	398	15.3	87.9
2022-10-23T13:49	10	23	0.6	22	24	398	0.5	397	399	15.3	88.3
2022-10-23T13:50	10	22	0.4	21	22	397	0.7	395	398	15.2	88.1
2022-10-23T13:51	10	21	0.2	20	21	395	0.8	394	396	15.1	87.8
2022-10-23T13:52	10	20	0.1	20	21	395	0.4	394	396	15.2	87.8
2022-10-23T13:53	10	20	0.3	19	20	395	0.6	395	396	15.2	87.5
2022-10-23T13:54	10	18	0.5	17	19	395	0.4	394	396	15.2	87.8
2022-10-23T13:55	10	17	0.5	16	17	395	0.6	394	396	15.2	88.1
2022-10-23T13:56	10	15	0.3	15	16	395	0.3	394	395	15.2	88.1
2022-10-23T13:57	10	15	0.2	14	15	395	0.2	394	395	15.2	87.8
2022-10-23T13:58	10	14	0.2	14	14	395	0.3	394	395	15.2	88.4
2022-10-23T13:59	10	13	0.2	13	14	394	0.8	392	395	15.1	88.4
2022-10-23T14:00	10	13	0.1	13	13	394	0.5	393	395	15.1	88.3
2022-10-23T14:01	10	13	0.1	13	13	392	0.5	392	393	15.1	87.9
2022-10-23T14:02	10	13	0.1	13	13	392	0.5	391	393	15.0	87.9
2022-10-23T14:03	10	13	0.1	13	13	392	0.4	391	393	14.9	88.6
2022-10-23T14:04	10	13	0.0	13	13	392	0.2	391	392	14.9	89.1
2022-10-23T14:05	10	13	0.1	13	13	392	0.3	391	392	14.9	89.2
2022-10-23T14:06	10	13	0.2	12	13	391	0.3	391	392	14.9	89.3
2022-10-23T14:07	10	12	0.2	11	12	391	0.3	390	391	14.8	89.5
2022-10-23T14:08	10	11	0.2	11	11	391	0.2	391	391	14.8	89.7
2022-10-23T14:09	10	11	0.1	10	11	391	0.3	390	392	14.8	90.0
2022-10-23T14:10	10	11	0.1	10	11	391	0.2	390	391	14.8	89.9
2022-10-23T14:11	10	11	0.2	11	11	390	0.3	390	391	14.7	90.0
2022-10-23T14:12	10	11	0.2	11	12	390	0.3	389	390	14.7	90.2
2022-10-23T14:13	10	12	0.2	11	12	390	0.2	389	390	14.7	90.4
2022-10-23T14:14	10	12	0.2	12	13	390	0.3	389	391	14.7	90.7
2022-10-23T14:15	10	13	0.3	13	14	390	0.4	389	391	14.7	90.8
2022-10-23T14:16	10	14	0.2	14	15	389	0.3	388	390	14.7	90.5
2022-10-23T14:17	10	15	0.4	14	16	389	0.4	388	390	14.7	90.4
2022-10-23T14:18	10	17	0.6	16	18	390	0.7	388	391	14.7	90.7
2022-10-23T14:19	10	19	0.5	17	20	390	0.5	389	391	14.7	90.9
2022-10-23T14:20	10	20	0.3	19	21	391	0.3	390	391	14.7	90.8
2022-10-23T14:21	10	21	0.1	20	21	390	0.3	390	391	14.6	90.9
2022-10-23T14:22	10	20	0.1	20	21	390	0.2	390	391	14.6	91.2
2022-10-23T14:23	10	20	0.2	20	20	391	0.3	390	391	14.6	91.4
2022-10-23T14:24	10	19	0.2	19	20	390	0.3	390	391	14.6	91.5
2022-10-23T14:25	10	19	0.2	19	19	391	0.2	390	391	14.7	91.8
2022-10-23T14:26	10	18	0.3	17	19	391	0.2	390	391	14.7	91.9
2022-10-23T14:27	10	17	0.3	16	17	390	0.3	389	391	14.7	92.0
2022-10-23T14:28	10	16	0.2	16	16	391	0.6	389	392	14.8	92.2
2022-10-23T14:29	10	15	0.3	15	16	390	0.6	388	391	14.7	91.9
2022-10-23T14:30	10	14	0.6	13	15	389	1.2	387	391	14.6	91.4
2022-10-23T14:31	10	13	0.5	13	14	388	0.5	387	390	14.7	91.1
2022-10-23T14:32	10	15	0.2	14	15	388	0.7	386	389	14.6	90.9
2022-10-23T14:33	10	15	0.1	15	16	388	0.3	388	389	14.6	91.0
2022-10-23T14:34	10	15	0.1	15	16	388	0.3	388	389	14.5	91.3
2022-10-23T14:35	10	15	0.1	15	15	388	0.5	387	389	14.3	91.6
2022-10-23T14:36	10	15	0.1	15	15	388	0.4	387	388	14.3	91.9
2022-10-23T14:37	10	15	0.1	15	15	388	0.3	387	388	14.3	92.4
2022-10-23T14:38	10	15	0.1	15	16	388	0.3	387	388	14.2	92.7
2022-10-23T14:39	10	16	0.2	15	16	388	0.8	387	390	14.2	92.9
2022-10-23T14:40	10	17	0.4	16	17	388	0.3	387	389	14.2	93.2
2022-10-23T14:41	10	18	0.4	17	19	389	0.4	388	389	14.2	93.4
2022-10-23T14:42	10	19	0.2	18	19	389	0.4	388	389	14.2	93.4
2022-10-23T14:43	10	19	0.2	19	19	389	0.2	388	390	14.2	93.4
2022-10-23T14:44	10	18	0.3	18	19	389	0.2	388	390	14.2	93.3
2022-10-23T14:45	10	17	0.2	17	18	389	0.3	388	389	14.2	93.3
2022-10-23T14:46	10	17	0.1	17	18	389	0.3	388	390	14.2	92.9
2022-10-23T14:47	10	18	0.2	18	19	389	0.4	388	390	14.2	92.9
2022-10-23T14:48	10	19	0.3	18	19	389	0.2	389	390	14.3	92.9
2022-10-23T14:49	10	20	0.2	19	20	389	0.2	388	389	14.3	92.4
2022-10-23T14:50	10	20	0.1	20	20	389	0.2	389	390	14.3	92.2
2022-10-23T14:51	10	20	0.1	20	20	389	0.3	389	390	14.3	92.2
2022-10-23T14:52	10	20	0.1	20	20	389	0.2	389	390	14.3	92.3
2022-10-23T14:53	10	19	0.2	19	20	389	0.4	388	390	14.3	92.5
2022-10-23T14:54	10	19	0.1	19	19	388	0.5	387	389	14.3	92.6
2022-10-23T14:55	10	19	0.1	19	19	388	0.2	387	388	14.2	92.6
2022-10-23T14:56	10	18	0.2	18	19	388	0.3	387	389	14.3	92.9
2022-10-23T14:57	10	18	0.1	18	18	389	0.3	388	389	14.3	92.8
2022-10-23T14:58	10	18	0.1	18	18	389	0.5	388	389	14.3	93.0
2022-10-23T14:59	10	19	0.2	18	19	389	1.0	387	390	14.3	93.0
2022-10-23T15:00	10	19	0.1	19	19	389	0.3	388	389	14.3	92.9
2022-10-23T15:01	10	19	0.1	19	19	389	0.8	387	390	14.4	92.8
2022-10-23T15:02	10	18	0.1	18	19	389	0.3	389	390	14.4	92.7
2022-10-23T15:03	10	18	0.2	18	19	389	0.4	388	390	14.4	92.6
2022-10-23T15:04	10	17	0.4	17	18	389	0.3	388	389	14.4	92.5
2022-10-23T15:05	10	16	0.4	15	17	389	0.2	388	389	14.4	92.5
2022-10-23T15:06	10	15	0.3	14	15	388	0.3	388	389	14.3	92.8
2022-10-23T15:07	10	14	0.3	13	14	388	0.3	387	389	14.3	93.2
2022-10-23T15:08	10	13	0.2	13	14	388	0.2	388	388	14.3	93.2
2022-10-23T15:09	10	13	0.1	13	13	388	0.2	387	388	14.3	93.2
2022-10-23T15:10	10	13	0.1	12	13	389	0.3	388	389	14.3	93.1
2022-10-23T15:11	10	12	0.1	12	13	388	0.3	387	389	14.3	93.1
2022-10-23T15:12	10	12	0.1	12	13	388	0.2	387	388	14.3	93.1
2022-10-23T15:13	10	13	0.1	12	13	388	0.2	387	388	14.3	93.4
2022-10-23T15:14	10	13	0.1	13	13	388	0.3	387	389	14.3	93.3
2022-10-23T15:15	10	13	0.1	13	13	388	0.3	388	389	14.3	93.4
2022-10-23T15:16	10	13	0.1	13	13	389	0.4	388	389	14.3	93.4
2022-10-23T15:17	10	13	0.1	13	14	388	0.2	388	389	14.3	93.3
2022-10-23T15:18	10	13	0.1	13	13	389	0.3	388	389	14.3	93.2
2022-10-23T15:19	10	13	0.1	13	13	388	0.3	388	389	14.4	93.2
2022-10-23T15:20	10	13	0.1	13	13	388	0.4	387	389	14.4	93.2
2022-10-23T15:21	10	13	0.1	13	14	388	0.4	387	389	14.4	93.3
2022-10-23T15:22	10	13	0.1	13	14	388	0.5	387	389	14.4	93.2
2022-10-23T15:23	10	13	0.1	13	13	388	0.2	387	388	14.3	93.3
2022-10-23T15:24	10	13	0.1	13	13	387	0.3	387	388	14.3	93.3
2022-10-23T15:25	10	13	0.2	12	13	387	0.2	387	388	14.3	93.3
2022-10-23T15:26	10	12	0.2	12	12	388	0.2	387	388	14.3	93.3
2022-10-23T15:27	10	12	0.1	11	12	388	0.3	387	388	14.4	93.3
2022-10-23T15:28	10	12	0.1	11	12	388	0.2	387	388	14.4	93.2
2022-10-23T15:29	10	12	0.1	11	12	388	0.2	387	388	14.4	93.1
2022-10-23T15:30	10	11	0.1	11	12	388	0.2	387	388	14.4	93.1
2022-10-23T15:31	10	11	0.1	11	12	388	0.2	387	388	14.4	93.4
2022-10-23T15:32	10	12	0.1	11	12	387	0.2	387	388	14.4	93.6
2022-10-23T15:33	10	12	0.1	12	12	388	0.3	387	388	14.4	93.7
2022-10-23T15:34	10	12	0.1	12	12	387	0.2	387	388	14.4	93.5
2022-10-23T15:35	10	12	0.1	11	12	387	0.3	386	388	14.4	93.4
2022-10-23T15:36	10	11	0.1	11	11	387	0.3	386	387	14.4	93.3
2022-10-23T15:37	10	11	0.1	10	11	387	0.4	385	387	14.4	93.3
2022-10-23T15:38	10	10	0.1	10	11	387	0.6	385	387	14.4	93.3
2022-10-23T15:39	10	10	0.1	10	10	386	0.4	385	387	14.4	93.3
2022-10-23T15:40	10	10	0.2	9	10	386	0.8	385	387	14.3	93.3
2022-10-23T15:41	10	9	0.2	9	9	386	0.3	385	386	14.3	93.3
2022-10-23T15:42	10	9	0.1	8	9	385	0.3	385	386	14.3	93.3
2022-10-23T15:43	10	8	0.2	8	9	385	0.3	385	386	14.3	93.2
2022-10-23T15:44	10	8	0.1	7	8	385	0.5	384	386	14.4	93.2
2022-10-23T15:45	10	7	0.2	7	7	384	0.3	384	385	14.3	93.1
2022-10-23T15:46	10	7	0.1	6	7	384	0.5	383	385	14.3	93.2
2022-10-23T15:47	10	6	0.1	6	6	384	0.2	384	384	14.3	93.3
2022-10-23T15:48	10	6	0.1	6	6	384	0.4	383	385	14.3	93.4
2022-10-23T15:49	10	5	0.1	5	6	384	0.2	384	384	14.2	93.5
2022-10-23T15:50	10	5	0.1	5	5	384	0.2	384	384	14.1	93.4
2022-10-23T15:51	10	5	0.2	4	5	384	0.2	383	384	14.1	93.6
2022-10-23T15:52	10	4	0.1	4	5	384	0.3	383	385	14.1	93.8
2022-10-23T15:53	10	4	0.1	4	5	384	0.2	384	385	14.1	93.9
2022-10-23T15:54	10	4	0.1	4	4	384	0.2	384	385	14.0	94.0
2022-10-23T15:55	10	4	0.1	4	5	384	0.2	383	384	14.0	94.1
2022-10-23T15:56	10	4	0.1	4	4	384	0.3	383	384	14.0	94.3
2022-10-23T15:57	10	4	0.2	4	4	384	0.6	383	385	14.0	94.5
2022-10-23T15:58	10	4	0.1	3	4	384	0.3	383	384	14.0	94.6
2022-10-23T15:59	10	3	0.1	3	4	384	0.4	383	385	14.0	94.8
2022-10-23T16:00	10	3	0.1	3	3	384	0.7	382	385	14.0	94.9
2022-10-23T16:01	10	3	0.1	3	3	384	0.3	383	384	14.0	95.0
2022-10-23T16:02	10	3	0.1	3	3	383	0.3	383	384	14.0	94.9
2022-10-23T16:03	10	3	0.1	2	3	383	0.2	383	384	14.0	94.9
2022-10-23T16:04	10	2	0.1	2	3	383	0.7	382	384	13.9	94.9
2022-10-23T16:05	10	2	0.1	2	3	383	0.5	382	384	14.0	95.0
2022-10-23T16:06	10	2	0.1	2	3	383	0.4	383	384	14.0	95.2
2022-10-23T16:07	10	2	0.1	2	3	383	0.3	382	384	14.0	95.2
2022-10-23T16:08	10	3	0.1	2	3	383	0.4	382	384	13.9	95.2
2022-10-23T16:09	10	3	0.1	2	3	383	0.5	382	384	13.9	95.3
2022-10-23T16:10	10	3	0.1	3	3	383	0.5	382	384	13.9	95.4
2022-10-23T16:11	10	3	0.1	3	3	382	0.3	382	383	13.9	95.5
2022-10-23T16:12	10	3	0.1	3	3	382	0.3	381	382	13.9	95.6
2022-10-23T16:13	10	3	0.1	3	3	382	0.3	381	382	13.9	95.6
2022-10-23T16:14	10	3	0.2	2	3	381	0.3	381	382	13.9	95.7
2022-10-23T16:15	10	2	0.1	2	3	381	0.3	381	382	13.9	95.6
2022-10-23T16:16	10	2	0.1	2	3	381	0.3	380	382	13.9	95.6
2022-10-23T16:17	10	2	0.1	2	3	381	0.3	380	381	13.9	95.5
2022-10-23T16:18	10	2	0.2	2	2	381	0.3	380	381	13.9	95.6
2022-10-23T16:19	10	2	0.1	2	2	381	0.3	381	382	13.9	95.6
2022-10-23T16:20	10	2	0.2	1	2	381	0.8	380	383	13.9	95.7
2022-10-23T16:21	10	1	0.2	1	2	381	0.2	381	382	13.9	95.7
2022-10-23T16:22	10	1	0.2	1	2	381	0.4	380	382	13.9	95.6
2022-10-23T16:23	10	1	0.2	0	1	382	0.9	380	383	13.9	95.5
2022-10-23T16:24	10	1	0.2	0	1	381	0.4	380	382	13.9	95.5
2022-10-23T16:25	10	1	0.2	0	1	382	0.3	381	382	13.9	95.5
2022-10-23T16:26	10	1	0.2	0	1	382	0.5	380	382	13.9	95.5
2022-10-23T16:27	10	1	0.1	0	1	382	0.3	381	382	13.9	95.4
2022-10-23T16:28	10	1	0.1	1	1	382	0.3	381	382	13.9	95.3
2022-10-23T16:29	10	1	0.1	1	1	382	0.3	381	382	13.9	95.2
2022-10-23T16:30	10	1	0.2	1	2	382	0.3	381	382	13.9	95.2
2022-10-23T16:31	10	1	0.1	1	2	382	0.3	381	382	13.9	95.1
2022-10-23T16:32	10	1	0.2	1	2	382	0.3	381	382	13.9	95.1
2022-10-23T16:33	10	1	0.2	1	2	382	0.5	381	383	13.9	95.2
2022-10-23T16:34	10	1	0.1	1	1	382	0.5	381	383	13.9	95.3
2022-10-23T16:35	10	1	0.2	1	1	382	0.2	381	382	13.9	95.3
2022-10-23T16:36	10	1	0.2	1	1	382	0.5	381	383	13.9	95.4
2022-10-23T16:37	10	1	0.2	1	1	382	0.3	381	383	13.9	95.4
2022-10-23T16:38	10	1	0.2	1	2	382	0.2	381	382	13.9	95.5
2022-10-23T16:39	10	1	0.2	1	1	382	0.2	381	382	13.9	95.6
2022-10-23T16:40	10	1	0.1	1	1	382	0.4	381	383	13.9	95.5
2022-10-23T16:41	10	1	0.1	1	1	382	0.4	381	383	13.9	95.4
2022-10-23T16:42	10	1	0.1	1	1	382	0.2	382	383	13.9	95.5
2022-10-23T16:43	10	1	0.2	1	1	382	0.3	382	383	13.9	95.5
2022-10-23T16:44	10	1	0.1	1	2	382	0.2	382	382	14.0	95.4
2022-10-23T16:45	10	1	0.1	1	1	382	0.2	382	383	13.9	95.4
2022-10-23T16:46	10	1	0.1	1	2	382	0.2	382	382	13.9	95.4
2022-10-23T16:47	10	1	0.1	1	1	382	0.2	382	382	13.9	95.5
2022-10-23T16:48	10	1	0.1	1	2	382	0.2	382	383	13.9	95.6
2022-10-23T16:49	10	1	0.1	1	2	382	0.2	381	382	14.0	95.5
2022-10-23T16:50	10	1	0.1	1	1	382	0.2	382	382	14.0	95.4
2022-10-23T16:51	10	1	0.1	1	1	382	0.2	382	383	13.9	95.4
2022-10-23T16:52	10	1	0.1	1	1	382	0.2	382	383	13.9	95.4
2022-10-23T16:53	10	1	0.1	1	1	382	0.2	381	382	13.9	95.5
2022-10-23T16:54	10	1	0.1	1	1	382	0.3	381	383	13.9	95.5
2022-10-23T16:55	10	1	0.1	1	1	382	0.2	381	382	13.8	95.6
2022-10-23T16:56	10	1	0.1	0	1	382	0.2	382	383	13.8	95.8
2022-10-23T16:57	10	1	0.1	0	1	382	0.2	382	383	13.8	95.9
2022-10-23T16:58	10	1	0.1	0	1	382	0.3	381	383	13.9	95.9
2022-10-23T16:59	10	1	0.1	0	1	382	0.2	382	383	14.0	95.8
2022-10-23T17:00	10	0	0.1	0	1	382	0.5	382	384	13.9	95.6
2022-10-23T17:01	10	0	0.1	0	1	382	0.2	382	383	13.9	95.6
2022-10-23T17:02	10	0	0.1	0	0	382	0.2	382	383	13.9	95.5
2022-10-23T17:03	10	0	0.1	0	0	382	0.2	382	383	13.9	95.5
2022-10-23T17:04	10	0	0.1	0	0	382	0.3	382	383	13.9	95.5
2022-10-23T17:05	10	0	0.0	0	0	382	0.5	381	383	13.9	95.6
2022-10-23T17:06	10	0	0.1	0	0	382	0.3	382	383	13.9	95.7
2022-10-23T17:07	10	0	0.1	0	0	382	0.3	382	383	13.9	95.6
2022-10-23T17:08	10	0	0.1	0	0	382	0.3	382	383	13.9	95.7
2022-10-23T17:09	10	0	0.1	0	0	382	0.3	382	383	13.9	95.6
2022-10-23T17:10	10	0	0.1	0	0	382	0.2	382	383	14.0	95.4
2022-10-23T17:11	10	0	0.1	0	1	382	0.2	382	383	14.0	95.3
2022-10-23T17:12	10	1	0.1	0	1	382	0.2	382	383	14.0	95.1
2022-10-23T17:13	10	1	0.1	1	1	382	0.2	381	382	14.0	95.1
2022-10-23T17:14	10	1	0.1	1	1	382	0.3	381	382	14.0	95.1
2022-10-23T17:15	10	1	0.1	1	1	382	0.2	382	382	14.0	95.2
2022-10-23T17:16	10	1	0.1	1	1	382	0.2	381	382	13.9	95.4
2022-10-23T17:17	10	1	0.1	1	1	382	0.2	381	382	13.9	95.6
2022-10-23T17:18	10	1	0.1	0	1	382	0.2	381	382	13.9	95.8
2022-10-23T17:19	10	1	0.1	1	1	382	0.3	381	382	13.9	95.9
2022-10-23T17:20	10	1	0.1	0	1	382	0.4	381	383	13.9	96.1
2022-10-23T17:21	10	0	0.1	0	1	382	0.2	382	383	13.8	96.1
2022-10-23T17:22	10	0	0.1	0	0	382	0.3	381	383	13.9	96.2
2022-10-23T17:23	10	0	0.1	0	0	382	0.2	382	383	13.9	96.0
2022-10-23T17:24	10	0	0.1	0	0	382	0.4	381	383	13.9	95.8
2022-10-23T17:25	10	0	0.1	0	0	382	0.3	382	383	13.9	95.8
2022-10-23T17:26	10	0	0.1	0	0	382	0.3	382	383	13.9	95.8
2022-10-23T17:27	10	0	0.1	0	1	382	0.2	381	382	13.9	95.7
2022-10-23T17:28	10	0	0.1	0	1	382	0.2	381	382	13.9	95.8
2022-10-23T17:29	10	1	0.1	0	1	382	0.2	381	382	13.9	95.8
2022-10-23T17:30	10	1	0.1	0	1	382	0.2	381	382	13.9	95.9
2022-10-23T17:31	10	1	0.1	0	1	382	0.2	382	383	13.8	96.0
2022-10-23T17:32	10	1	0.1	1	1	382	0.3	381	382	13.9	96.2
2022-10-23T17:33	10	1	0.1	1	1	382	0.2	381	382	13.9	96.2
2022-10-23T17:34	10	1	0.1	0	1	382	0.2	382	383	13.9	96.2
2022-10-23T17:35	10	0	0.1	0	1	382	0.2	382	383	13.9	96.1
2022-10-23T17:36	10	0	0.1	0	0	382	0.2	382	383	13.9	96.1
2022-10-23T17:37	10	0	0.1	0	0	382	0.2	382	382	13.9	96.1
2022-10-23T17:38	10	0	0.1	0	0	383	0.3	382	383	13.9	96.2
2022-10-23T17:39	10	0	0.1	0	1	382	0.2	382	383	13.9	96.1
2022-10-23T17:40	10	0	0.1	0	1	382	0.2	382	383	13.9	96.1
2022-10-23T17:41	10	1	0.1	0	1	382	0.3	382	383	13.9	96.1
2022-10-23T17:42	10	1	0.1	0	1	382	0.2	382	383	13.9	96.1
2022-10-23T17:43	10	1	0.1	0	1	382	0.3	382	383	13.9	96.1
2022-10-23T17:44	10	1	0.1	1	1	382	0.2	382	383	13.9	96.1
2022-10-23T17:45	10	1	0.1	0	1	383	0.2	382	383	14.0	96.1
2022-10-23T17:46	10	1	0.1	1	1	382	0.2	382	383	13.9	96.1
2022-10-23T17:47	10	1	0.1	0	1	382	0.2	382	383	14.0	96.0
2022-10-23T17:48	10	1	0.1	0	1	382	0.3	382	383	14.0	95.9
2022-10-23T17:49	10	0	0.1	0	1	382	0.2	382	383	14.0	96.1
2022-10-23T17:50	10	1	0.1	0	1	383	0.2	382	383	14.0	96.1
2022-10-23T17:51	10	1	0.1	0	1	383	0.3	382	383	14.1	95.9
2022-10-23T17:52	10	1	0.1	0	1	383	0.3	382	384	14.3	95.2
2022-10-23T17:53	10	1	0.1	1	1	383	0.2	382	383	14.2	95.1
2022-10-23T17:54	10	1	0.1	1	1	383	0.4	382	384	14.1	95.2
2022-10-23T17:55	10	1	0.1	1	1	383	0.3	382	384	14.1	95.5
2022-10-23T17:56	10	1	0.1	1	1	383	0.6	382	384	14.2	95.5
2022-10-23T17:57	10	1	0.1	1	1	383	0.2	383	384	14.4	94.7
2022-10-23T17:58	10	1	0.1	1	1	383	0.2	383	383	14.4	93.6
2022-10-23T17:59	10	1	0.1	1	1	383	0.2	382	383	14.4	93.6
2022-10-23T18:00	10	1	0.1	1	1	383	0.3	382	383	14.4	93.7
2022-10-23T18:01	10	1	0.1	1	1	383	0.4	382	384	14.2	94.1
2022-10-23T18:02	10	1	0.1	1	1	383	0.3	383	384	14.5	94.3
2022-10-23T18:03	10	1	0.1	1	1	383	0.3	383	384	14.5	93.7
2022-10-23T18:04	10	1	0.0	1	1	383	0.3	383	384	14.6	93.3
2022-10-23T18:05	10	1	0.1	1	1	383	0.4	383	384	14.6	92.7
2022-10-23T18:06	10	1	0.1	1	1	383	0.4	383	384	14.5	93.3
2022-10-23T18:07	10	1	0.1	1	1	383	0.5	382	384	14.4	93.4
2022-10-23T18:08	10	1	0.1	1	1	383	0.3	382	384	14.3	94.2
2022-10-23T18:09	10	1	0.1	1	1	383	0.2	383	384	14.5	94.4
2022-10-23T18:10	10	1	0.1	1	1	383	0.3	383	384	14.6	93.8
2022-10-23T18:11	10	1	0.1	1	1	383	0.3	383	384	14.6	93.4
2022-10-23T18:12	10	1	0.1	1	1	384	0.2	383	384	14.7	93.2
2022-10-23T18:13	10	1	0.1	1	1	384	0.2	383	384	14.8	92.6
2022-10-23T18:14	10	1	0.1	1	1	384	0.3	383	385	14.8	92.4
2022-10-23T18:15	10	1	0.1	1	1	384	0.3	383	385	15.1	91.5
2022-10-23T18:16	10	1	0.1	1	1	384	0.4	384	385	15.4	89.5
2022-10-23T18:17	10	1	0.1	1	2	385	0.3	384	385	15.4	88.9
2022-10-23T18:18	10	1	0.1	1	2	385	0.3	385	386	15.8	87.7
2022-10-23T18:19	10	2	0.1	1	2	386	0.4	385	387	16.0	86.4
2022-10-23T18:20	10	2	0.1	2	2	386	0.8	385	388	16.1	85.4
2022-10-23T18:21	10	2	0.1	2	2	387	0.8	385	389	16.1	85.2
2022-10-23T18:22	10	2	0.1	2	2	387	1.0	385	388	16.5	84.0
2022-10-23T18:23	10	2	0.1	2	3	388	0.5	386	389	16.5	83.3
2022-10-23T18:24	10	3	0.1	2	3	388	0.3	387	388	16.5	83.4
2022-10-23T18:25	10	2	0.1	2	2	388	0.7	387	389	16.6	83.3
2022-10-23T18:26	10	2	0.1	2	2	388	0.4	387	389	16.6	83.0
2022-10-23T18:27	10	2	0.1	2	2	387	0.4	386	388	16.6	83.1
2022-10-23T18:28	10	2	0.1	2	2	387	0.2	387	388	16.4	83.8
2022-10-23T18:29	10	2	0.1	2	2	387	0.3	387	388	16.3	84.7
2022-10-23T18:30	10	2	0.1	2	2	387	0.3	387	388	16.2	85.1
2022-10-23T18:31	10	2	0.1	2	2	387	0.6	386	388	16.2	85.3
2022-10-23T18:32	10	2	0.1	2	2	387	0.4	386	388	16.1	85.6
2022-10-23T18:33	10	2	0.1	1	2	388	0.8	386	389	16.3	85.5
2022-10-23T18:34	10	2	0.1	1	2	387	1.0	385	389	16.4	83.9
2022-10-23T18:35	10	2	0.1	1	2	387	0.4	386	388	16.1	85.1
2022-10-23T18:36	10	1	0.1	1	2	387	0.5	386	388	16.0	85.9
2022-10-23T18:37	10	2	0.0	2	2	387	0.8	386	388	16.0	85.8
2022-10-23T18:38	10	2	0.0	2	2	387	0.6	386	388	16.0	86.2
2022-10-23T18:39	10	2	0.1	1	2	387	1.2	384	388	16.3	85.4
2022-10-23T18:40	10	2	0.1	2	2	388	1.8	384	390	16.4	84.1
2022-10-23T18:41	10	2	0.1	2	2	388	0.6	387	389	16.6	82.8
2022-10-23T18:42	10	2	0.1	2	2	388	0.6	387	389	16.5	82.7
2022-10-23T18:43	10	2	0.1	1	2	388	0.6	386	388	16.4	83.3
2022-10-23T18:44	10	2	0.1	1	2	387	0.3	387	388	16.3	84.0
2022-10-23T18:45	10	1	0.1	1	2	387	0.7	385	388	16.2	84.8
2022-10-23T18:46	10	1	0.1	1	1	387	0.4	387	388	16.1	85.2
2022-10-23T18:47	10	1	0.1	1	1	387	0.3	387	388	16.2	84.8
2022-10-23T18:48	10	1	0.1	1	1	387	0.4	386	388	16.2	84.9
2022-10-23T18:49	10	1	0.1	1	1	387	0.6	386	388	16.1	85.4
2022-10-23T18:50	10	1	0.1	1	1	388	0.3	387	388	16.4	84.2
2022-10-23T18:51	10	1	0.1	1	1	387	0.3	386	388	16.4	83.6
2022-10-23T18:52	10	1	0.0	1	1	388	0.6	386	389	16.4	83.5
2022-10-23T18:53	10	1	0.0	1	1	388	0.4	387	389	16.5	82.2
2022-10-23T18:54	10	1	0.1	1	1	388	0.6	387	389	16.6	80.7
2022-10-23T18:55	10	1	0.1	1	1	388	0.7	386	389	16.7	79.9
2022-10-23T18:56	10	1	0.1	1	1	387	1.2	386	390	16.6	80.0
2022-10-23T18:57	10	1	0.1	1	1	387	0.4	386	388	16.6	79.9
2022-10-23T18:58	10	1	0.1	0	1	387	0.6	386	388	16.6	79.8
2022-10-23T18:59	10	0	0.1	0	0	389	0.9	388	391	16.6	78.9
2022-10-23T19:00	10	0	0.1	0	0	390	0.6	389	391	16.6	78.7
2022-10-23T19:01	10	0	0.1	0	0	389	1.2	386	391	16.5	79.2
2022-10-23T19:02	10	0	0.1	-1	0	389	1.0	386	390	16.4	80.3
2022-10-23T19:03	10	-1	0.1	-1	0	388	1.8	385	391	16.4	80.7
2022-10-23T19:04	10	-1	0.0	-1	-1	388	0.9	386	390	16.4	80.3
2022-10-23T19:05	10	-1	0.1	-1	0	387	0.6	386	388	16.4	80.2
2022-10-23T19:06	10	-1	0.1	-1	0	387	1.7	383	388	16.3	80.5
2022-10-23T19:07	10	-1	0.1	-1	-1	387	0.7	386	389	16.4	80.2
2022-10-23T19:08	10	-1	0.1	-1	0	388	0.6	386	389	16.5	79.3
2022-10-23T19:09	10	-1	0.1	-1	0	387	0.8	386	389	16.4	80.6
2022-10-23T19:10	10	-1	0.1	-1	-1	387	1.6	382	388	16.3	81.3
2022-10-23T19:11	10	-1	0.1	-1	-1	388	1.9	383	391	16.3	81.5
2022-10-23T19:12	10	-1	0.0	-1	-1	390	1.1	388	392	16.4	81.6
2022-10-23T19:13	10	-1	0.1	-1	-1	391	0.9	389	393	16.7	79.3
2022-10-23T19:14	10	-1	0.1	-1	-1	391	2.3	388	395	16.6	79.6
2022-10-23T19:15	10	-1	0.1	-1	-1	391	0.9	390	392	16.6	80.3
2022-10-23T19:16	10	-1	0.1	-1	-1	391	0.7	390	392	16.5	80.8
2022-10-23T19:17	10	-1	0.1	-1	-1	390	0.9	388	392	16.5	81.0
2022-10-23T19:18	10	-1	0.1	-1	-1	390	0.8	389	391	16.5	80.8
2022-10-23T19:19	10	-1	0.1	-1	-1	390	0.9	389	392	16.5	81.3
2022-10-23T19:20	10	-1	0.1	-1	-1	389	0.9	387	391	16.5	81.7
2022-10-23T19:21	10	-1	0.1	-1	-1	388	1.6	385	390	16.5	81.6
2022-10-23T19:22	10	-1	0.1	-1	-1	387	1.5	385	390	16.4	81.6
2022-10-23T19:23	10	-1	0.1	-1	-1	387	1.0	385	389	16.5	81.6
2022-10-23T19:24	10	-1	0.1	-1	-1	387	0.6	386	388	16.4	81.5
2022-10-23T19:25	10	-1	0.1	-1	-1	387	0.7	386	389	16.4	81.7
2022-10-23T19:26	10	-1	0.1	-1	-1	387	0.9	385	389	16.4	81.8
2022-10-23T19:27	10	-1	0.1	-1	-1	387	0.7	386	388	16.5	80.7
2022-10-23T19:28	10	-1	0.1	-1	-1	387	0.7	386	388	16.5	80.8
2022-10-23T19:29	10	-1	0.1	-1	-1	387	2.6	384	391	16.7	78.8
2022-10-23T19:30	10	-1	0.1	-1	-1	387	0.9	385	388	16.9	76.3
2022-10-23T19:31	10	-1	0.1	-1	-1	387	0.9	385	388	16.7	77.5
2022-10-23T19:32	10	-1	0.1	-2	-1	387	1.5	384	389	16.7	78.0
2022-10-23T19:33	10	-1	0.1	-1	-1	387	1.1	385	389	16.9	76.2
2022-10-23T19:34	10	-1	0.1	-1	-1	387	0.7	386	388	16.8	76.7
2022-10-23T19:35	10	-1	0.1	-1	-1	387	1.5	384	389	16.6	78.0
2022-10-23T19:36	10	-1	0.1	-1	0	386	1.4	383	389	16.7	78.3
2022-10-23T19:37	10	0	0.1	-1	0	387	1.0	385	389	16.7	77.8
2022-10-23T19:38	10	0	0.1	0	0	387	0.5	386	388	16.7	78.0
2022-10-23T19:39	10	0	0.1	0	0	387	0.6	386	388	16.7	78.1
2022-10-23T19:40	10	0	0.1	0	0	387	0.4	386	388	16.7	77.7
2022-10-23T19:41	10	0	0.1	0	0	386	1.6	383	388	16.6	78.2
2022-10-23T19:42	10	0	0.1	0	0	387	0.8	386	389	16.8	77.4
2022-10-23T19:43	10	0	0.1	0	0	387	0.5	386	389	16.9	77.3
2022-10-23T19:44	10	0	0.1	0	0	387	0.8	386	389	17.1	77.0
2022-10-23T19:45	10	0	0.1	0	0	387	0.3	387	388	17.0	76.8
2022-10-23T19:46	10	0	0.1	0	0	386	0.5	385	388	16.7	78.2
2022-10-23T19:47	10	0	0.0	0	0	386	0.3	386	387	16.7	78.8
2022-10-23T19:48	10	0	0.1	0	0	386	0.3	385	386	16.2	80.8
2022-10-23T19:49	10	0	0.1	0	0	386	0.5	384	387	16.0	82.9
2022-10-23T19:50	10	0	0.1	-1	0	386	0.5	385	387	16.1	83.0
2022-10-23T19:51	10	0	0.1	-1	0	386	0.4	385	387	16.1	82.7
2022-10-23T19:52	10	0	0.1	-1	0	386	0.3	385	386	16.1	82.2
2022-10-23T19:53	10	0	0.0	0	0	385	0.2	385	386	16.2	81.8
2022-10-23T19:54	10	0	0.1	-1	0	385	0.2	385	386	16.2	81.3
2022-10-23T19:55	10	0	0.1	-1	0	385	0.3	385	386	16.0	81.5
2022-10-23T19:56	10	0	0.1	-1	0	385	0.2	385	386	16.1	81.3
2022-10-23T19:57	10	0	0.1	-1	0	385	0.3	384	386	16.2	80.7
2022-10-23T19:58	10	0	0.1	-1	0	385	0.3	384	386	16.0	81.1
2022-10-23T19:59	10	0	0.1	0	0	385	0.3	384	385	16.0	81.6
2022-10-23T20:00	10	0	0.1	0	0	385	0.4	384	386	16.2	80.7
2022-10-23T20:01	10	0	0.0	0	0	385	0.3	385	386	16.2	80.6
2022-10-23T20:02	10	0	0.0	0	0	385	0.4	384	386	16.2	80.3
2022-10-23T20:03	10	0	0.1	0	0	384	0.2	384	385	16.0	80.8
2022-10-23T20:04	10	0	0.1	0	0	384	0.5	383	385	15.9	81.7
2022-10-23T20:05	10	0	0.1	-1	0	384	0.4	383	385	15.9	81.8
2022-10-23T20:06	10	0	0.1	-1	0	384	0.3	383	384	16.0	81.8
2022-10-23T20:07	10	0	0.1	-1	0	384	0.3	383	385	16.3	80.7
2022-10-23T20:08	10	0	0.1	0	0	384	0.4	383	385	16.1	80.5
2022-10-23T20:09	10	0	0.1	0	0	383	0.5	382	385	16.1	80.7
2022-10-23T20:10	10	0	0.1	0	0	383	0.4	382	384	16.1	81.1
2022-10-23T20:11	10	0	0.1	0	0	383	0.4	382	384	16.1	81.1
2022-10-23T20:12	10	0	0.1	0	0	383	0.3	382	383	15.9	81.5
2022-10-23T20:13	10	0	0.1	0	0	382	0.2	382	383	15.9	82.5
2022-10-23T20:14	10	0	0.1	0	0	383	0.3	382	383	15.8	82.4
2022-10-23T20:15	10	0	0.1	0	0	382	0.4	381	383	15.7	82.8
2022-10-23T20:16	10	0	0.1	0	0	382	0.3	381	382	15.3	84.9
2022-10-23T20:17	10	0	0.1	-1	0	382	0.3	382	383	15.4	86.2
2022-10-23T20:18	10	0	0.1	-1	0	382	0.2	381	383	15.7	83.8
2022-10-23T20:19	10	0	0.1	-1	0	383	0.3	382	383	15.8	82.9
2022-10-23T20:20	10	0	0.1	-1	0	383	0.3	382	383	15.7	83.4
2022-10-23T20:21	10	0	0.1	0	0	382	0.2	381	382	15.4	85.2
2022-10-23T20:22	10	0	0.1	-1	0	382	0.3	382	383	15.6	84.3
2022-10-23T20:23	10	0	0.1	-1	0	382	0.3	381	383	15.8	83.2
2022-10-23T20:24	10	0	0.1	-1	0	382	0.4	381	383	15.6	83.5
2022-10-23T20:25	10	0	0.2	-1	0	381	0.3	381	382	15.6	84.4
2022-10-23T20:26	10	0	0.2	-1	0	381	0.2	381	382	15.5	84.7
2022-10-23T20:27	10	0	0.2	-1	0	381	0.3	380	381	15.1	86.9
2022-10-23T20:28	10	0	0.2	-1	0	381	0.3	380	381	15.1	88.2
2022-10-23T20:29	10	0	0.2	-1	0	381	0.3	380	381	15.2	86.9
2022-10-23T20:30	10	-1	0.2	-1	0	381	0.3	380	381	14.9	88.4
2022-10-23T20:31	10	-1	0.2	-1	0	381	0.3	380	381	14.9	89.2
2022-10-23T20:32	10	-1	0.1	-1	0	381	0.2	380	381	15.1	88.5
2022-10-23T20:33	10	-1	0.2	-1	0	382	0.3	381	382	15.3	86.9
2022-10-23T20:34	10	0	0.2	-1	0	382	0.3	381	382	15.5	84.9
2022-10-23T20:35	10	0	0.2	-1	0	381	0.3	381	382	15.6	84.4
2022-10-23T20:36	10	0	0.1	-1	0	381	0.3	381	382	15.6	84.3
2022-10-23T20:37	10	0	0.4	-1	3	381	0.3	381	382	15.5	85.0
2022-10-23T20:38	10	0	0.2	-1	0	382	0.2	381	382	15.4	85.3
2022-10-23T20:39	10	0	0.2	-1	0	382	0.3	381	383	15.4	85.3
2022-10-23T20:40	10	0	0.2	-1	0	382	0.4	381	383	15.1	86.5
2022-10-23T20:41	10	0	0.2	-1	0	381	0.3	381	382	15.1	87.3
2022-10-23T20:42	10	0	0.1	-1	0	382	0.3	381	383	15.1	87.3
2022-10-23T20:43	10	0	0.2	-1	0	382	0.3	381	383	15.2	87.1
2022-10-23T20:44	10	0	0.2	-1	0	383	0.2	382	383	15.3	85.8
2022-10-23T20:45	10	0	0.2	-1	0	383	0.2	382	383	15.1	87.3
2022-10-23T20:46	10	0	0.2	-1	0	383	0.3	383	384	15.3	87.0
2022-10-23T20:47	10	0	0.2	-1	0	383	0.3	383	384	15.3	86.6
2022-10-23T20:48	10	0	0.2	-1	0	383	0.3	383	384	15.2	87.3
2022-10-23T20:49	10	0	0.2	-1	0	384	0.3	383	384	15.2	87.3
2022-10-23T20:50	10	0	0.2	-1	0	383	0.3	383	384	15.1	88.0
2022-10-23T20:51	10	0	0.1	-1	0	383	0.2	383	384	15.2	87.1
2022-10-23T20:52	10	0	0.2	-1	0	383	0.2	383	384	15.2	87.2
2022-10-23T20:53	10	0	0.2	0	0	383	0.3	382	384	15.0	88.0
2022-10-23T20:54	10	0	0.1	-1	0	383	0.3	382	383	14.8	89.6
2022-10-23T20:55	10	0	0.1	-1	0	382	0.2	382	383	14.7	90.2
2022-10-23T20:56	10	0	0.2	-1	0	383	0.3	382	383	14.9	89.6
2022-10-23T20:57	10	0	0.2	-1	0	382	0.2	381	382	14.7	90.0
2022-10-23T20:58	10	0	0.2	-1	0	382	0.2	381	382	14.6	90.6
2022-10-23T20:59	10	0	0.2	-1	0	382	0.2	381	382	14.7	90.4
2022-10-23T21:00	10	-1	0.2	-1	0	382	0.2	381	382	14.8	90.0
2022-10-23T21:01	10	-1	0.1	-1	0	382	0.3	381	383	14.9	88.8
2022-10-23T21:02	10	-1	0.2	-1	0	383	0.3	382	383	15.2	87.8
2022-10-23T21:03	10	0	0.2	-1	0	383	0.5	382	383	15.3	86.2
2022-10-23T21:04	10	0	0.1	-1	0	382	0.3	381	383	15.2	86.5
2022-10-23T21:05	10	0	0.2	0	0	382	0.4	381	383	15.1	86.9
2022-10-23T21:06	10	0	0.1	0	0	383	0.3	382	383	15.4	85.9
2022-10-23T21:07	10	0	0.2	0	1	383	0.5	382	384	15.4	85.4
2022-10-23T21:08	10	0	0.1	0	0	383	0.3	383	384	15.5	85.3
2022-10-23T21:09	10	0	0.1	0	0	383	0.6	382	384	15.5	85.4
2022-10-23T21:10	10	0	0.1	0	0	383	0.3	383	384	15.4	85.6
2022-10-23T21:11	10	0	0.2	0	1	384	0.4	383	385	15.1	86.5
2022-10-23T21:12	10	0	0.1	0	0	384	0.3	383	385	15.1	87.3
2022-10-23T21:13	10	0	0.2	0	0	384	0.3	383	384	14.9	88.1
2022-10-23T21:14	10	0	0.2	0	0	384	0.5	383	385	14.9	88.8
2022-10-23T21:15	10	0	0.1	0	0	384	0.7	383	385	14.8	89.3
2022-10-23T21:16	10	0	0.1	0	0	384	0.3	383	385	14.8	89.8
2022-10-23T21:17	10	0	0.1	0	0	384	0.3	383	384	14.9	89.8
2022-10-23T21:18	10	0	0.1	0	0	384	0.3	384	385	14.9	89.9
2022-10-23T21:19	10	0	0.1	0	0	384	0.5	383	385	14.9	89.8
2022-10-23T21:20	10	0	0.1	0	0	385	0.5	384	385	15.0	89.5
2022-10-23T21:21	10	0	0.2	0	0	384	0.5	383	385	15.1	89.2
2022-10-23T21:22	10	0	0.1	0	1	384	0.2	384	385	14.9	89.5
2022-10-23T21:23	10	0	0.1	0	0	384	0.2	383	385	14.9	90.0
2022-10-23T21:24	10	0	0.1	0	1	384	0.2	383	384	14.8	90.6
2022-10-23T21:25	10	0	0.1	0	1	384	0.2	383	384	14.8	90.9
2022-10-23T21:26	10	0	0.1	0	0	383	0.2	383	384	14.7	91.1
2022-10-23T21:27	10	0	0.2	0	0	383	0.3	383	384	14.7	91.7
2022-10-23T21:28	10	0	0.2	-1	0	383	0.3	383	384	14.9	91.2
2022-10-23T21:29	10	0	0.1	0	0	384	0.5	383	385	15.1	89.7
2022-10-23T21:30	10	0	0.1	0	0	383	0.4	383	384	15.3	88.2
2022-10-23T21:31	10	0	0.1	0	0	384	0.4	383	384	15.2	89.2
2022-10-23T21:32	10	0	0.1	0	0	384	0.3	383	384	15.2	89.2
2022-10-23T21:33	10	0	0.1	0	0	384	0.6	382	385	15.2	89.7
2022-10-23T21:34	10	0	0.1	0	0	384	0.3	384	385	15.6	87.9
2022-10-23T21:35	10	0	0.1	0	1	385	0.8	383	386	15.7	86.9
2022-10-23T21:36	10	1	0.1	0	1	385	0.3	384	386	15.8	86.2
2022-10-23T21:37	10	1	0.1	0	1	386	0.5	384	387	15.9	85.5
2022-10-23T21:38	10	1	0.1	1	1	386	0.6	384	387	16.1	84.6
2022-10-23T21:39	10	1	0.1	0	1	385	0.3	385	386	15.8	84.9
2022-10-23T21:40	10	1	0.1	1	1	385	0.3	385	386	15.7	85.9
2022-10-23T21:41	10	1	0.1	1	1	385	0.4	384	386	15.6	86.4
2022-10-23T21:42	10	1	0.1	1	1	385	0.2	384	385	15.5	87.1
2022-10-23T21:43	10	1	0.1	1	1	385	0.4	384	386	15.3	87.9
2022-10-23T21:44	10	1	0.0	1	1	384	0.3	384	385	15.2	88.5
2022-10-23T21:45	10	1	0.1	1	1	384	0.3	384	385	15.2	89.2
2022-10-23T21:46	10	1	0.1	0	1	385	0.2	384	385	15.3	89.3
2022-10-23T21:47	10	1	0.1	0	1	384	0.4	383	385	15.2	89.2
2022-10-23T21:48	10	1	0.1	0	1	384	0.5	383	385	15.2	89.5
2022-10-23T21:49	10	1	0.1	0	1	384	0.2	384	384	15.1	89.6
2022-10-23T21:50	10	1	0.1	0	1	384	0.2	383	384	15.1	89.9
2022-10-23T21:51	10	0	0.1	0	1	384	0.3	383	384	15.1	90.3
2022-10-23T21:52	10	0	0.1	0	0	384	0.2	383	384	15.0	90.4
2022-10-23T21:53	10	0	0.1	0	0	383	0.3	383	384	14.9	90.8
2022-10-23T21:54	10	0	0.1	0	0	383	0.3	383	384	15.0	91.0
2022-10-23T21:55	10	0	0.1	0	0	383	0.2	383	384	15.0	90.9
2022-10-23T21:56	10	0	0.1	0	0	383	0.2	382	383	14.9	91.2
2022-10-23T21:57	10	0	0.1	0	0	383	0.2	382	383	14.9	91.3
2022-10-23T21:58	10	0	0.1	0	0	382	0.2	382	382	14.9	91.6
2022-10-23T21:59	10	0	0.1	0	0	381	0.3	381	382	14.8	91.9
2022-10-23T22:00	10	0	0.1	0	0	381	0.3	380	381	14.7	92.5
2022-10-23T22:01	10	0	0.1	0	0	381	0.2	381	381	14.7	92.9
2022-10-23T22:02	10	0	0.1	0	0	381	0.2	380	381	14.8	92.8
2022-10-23T22:03	10	0	0.1	0	0	381	0.3	380	382	14.7	92.8
2022-10-23T22:04	10	0	0.1	0	0	381	0.2	380	382	14.6	93.7
2022-10-23T22:05	10	0	0.1	0	0	381	0.2	380	381	14.6	94.0
2022-10-23T22:06	10	0	0.1	0	0	381	0.2	381	382	14.5	94.1
2022-10-23T22:07	10	0	0.1	-1	0	382	0.2	381	382	14.5	94.2
2022-10-23T22:08	10	0	0.1	-1	0	382	0.2	381	382	14.5	94.2
2022-10-23T22:09	10	0	0.1	-1	0	382	0.2	381	382	14.6	93.5
2022-10-23T22:10	10	0	0.1	0	0	381	0.2	381	382	14.6	93.4
2022-10-23T22:11	10	0	0.1	0	0	381	0.2	381	382	14.6	93.6
2022-10-23T22:12	10	0	0.1	0	0	381	0.3	380	382	14.5	93.7
2022-10-23T22:13	10	0	0.1	0	0	381	0.2	380	381	14.6	93.6
2022-10-23T22:14	10	0	0.1	0	0	381	0.3	381	382	14.6	93.7
2022-10-23T22:15	10	0	0.1	0	0	381	0.2	381	382	14.5	93.5
2022-10-23T22:16	10	0	0.1	0	0	382	0.2	381	382	14.6	93.6
2022-10-23T22:17	10	0	0.1	0	0	381	0.4	380	382	14.4	93.3
2022-10-23T22:18	10	0	0.1	0	0	381	0.4	380	382	14.6	93.6
2022-10-23T22:19	10	0	0.1	0	0	382	0.3	381	382	14.6	93.3
2022-10-23T22:20	10	0	0.1	0	0	382	0.2	381	382	14.7	93.0
2022-10-23T22:21	10	0	0.1	0	1	381	0.3	381	382	14.6	92.9
2022-10-23T22:22	10	1	0.1	0	1	382	0.4	381	383	15.1	92.4
2022-10-23T22:23	10	1	0.1	0	1	383	0.3	382	383	15.3	90.9
2022-10-23T22:24	10	1	0.1	0	1	383	0.2	382	384	15.4	89.7
2022-10-23T22:25	10	1	0.1	1	1	383	0.2	383	384	15.6	88.4
2022-10-23T22:26	10	1	0.1	1	1	382	0.3	382	383	14.8	88.6
2022-10-23T22:27	10	1	0.1	0	1	382	0.3	381	383	14.4	90.9
2022-10-23T22:28	10	0	0.1	0	1	382	0.3	381	383	14.3	92.5
2022-10-23T22:29	10	0	0.1	0	0	382	0.2	381	383	14.3	93.5
2022-10-23T22:30	10	0	0.1	0	0	382	0.3	382	383	14.3	94.1
2022-10-23T22:31	10	0	0.1	0	0	382	0.2	382	383	14.3	94.6
2022-10-23T22:32	10	0	0.1	0	0	382	0.2	382	383	14.4	94.8
2022-10-23T22:33	10	0	0.1	0	0	383	0.2	382	383	14.4	94.9
2022-10-23T22:34	10	0	0.1	0	0	383	0.4	382	384	14.5	94.9
2022-10-23T22:35	10	0	0.1	0	0	382	0.3	382	383	14.6	94.7
2022-10-23T22:36	10	0	0.1	0	0	383	0.3	382	383	14.9	94.2
2022-10-23T22:37	10	0	0.1	0	0	383	0.4	382	383	15.0	93.1
2022-10-23T22:38	10	0	0.1	0	0	382	0.4	381	383	15.1	92.1
2022-10-23T22:39	10	0	0.1	0	0	382	0.7	381	383	14.8	91.5
2022-10-23T22:40	10	0	0.1	0	0	382	0.2	382	383	14.9	92.2
2022-10-23T22:41	10	1	0.5	0	4	383	0.3	382	384	15.1	91.5
2022-10-23T22:42	10	1	0.1	0	1	382	0.2	381	382	14.9	90.9
2022-10-23T22:43	10	0	0.1	0	1	381	0.3	381	382	14.4	93.2
2022-10-23T22:44	10	0	0.1	0	0	381	0.2	381	382	14.3	94.8
2022-10-23T22:45	10	0	0.1	0	0	382	0.3	381	382	14.5	94.9
2022-10-23T22:46	10	0	0.1	0	0	382	0.2	381	382	14.5	94.4
2022-10-23T22:47	10	0	0.1	0	0	381	0.2	381	382	14.5	94.5
2022-10-23T22:48	10	0	0.1	0	0	382	0.2	381	382	14.5	94.6
2022-10-23T22:49	10	0	0.1	0	0	382	0.2	381	382	14.4	94.6
2022-10-23T22:50	10	0	0.0	0	0	382	0.2	381	382	14.5	94.7
2022-10-23T22:51	10	0	0.1	0	0	382	0.3	382	383	14.5	94.4
2022-10-23T22:52	10	0	0.1	0	0	382	0.3	382	383	14.6	94.0
2022-10-23T22:53	10	0	0.1	0	0	382	0.2	382	383	14.6	93.7
2022-10-23T22:54	10	0	0.1	0	0	382	0.3	382	383	14.6	93.8
2022-10-23T22:55	10	0	0.1	0	0	382	0.3	382	383	14.5	93.8
2022-10-23T22:56	10	0	0.1	0	0	382	0.2	382	383	14.5	94.1
2022-10-23T22:57	10	0	0.1	0	1	383	0.2	382	383	14.6	94.1
2022-10-23T22:58	10	1	0.1	0	1	383	0.5	382	384	14.8	93.8
2022-10-23T22:59	10	1	0.1	1	1	383	0.3	383	384	14.9	93.0
2022-10-23T23:00	10	1	0.1	1	1	383	0.3	383	384	15.1	92.3
2022-10-23T23:01	10	1	0.1	1	1	384	0.3	383	384	15.1	91.4
2022-10-23T23:02	10	1	0.1	1	1	383	0.4	383	384	15.1	91.1
2022-10-23T23:03	10	1	0.1	1	1	384	0.5	383	385	15.1	91.1
2022-10-23T23:04	10	1	0.1	1	1	384	0.5	383	385	15.2	90.6
2022-10-23T23:05	10	1	0.1	1	1	384	0.7	382	385	15.3	89.8
2022-10-23T23:06	10	1	0.1	1	1	384	0.4	383	384	15.1	89.8
2022-10-23T23:07	10	1	0.1	1	1	384	0.3	383	384	15.1	90.1
2022-10-23T23:08	10	1	0.1	1	1	384	0.3	383	384	15.1	90.2
2022-10-23T23:09	10	1	0.1	1	1	384	0.5	383	385	15.2	90.2
2022-10-23T23:10	10	1	0.1	1	1	384	0.5	383	385	15.5	89.2
2022-10-23T23:11	10	1	0.1	1	1	384	0.4	383	385	15.6	88.0
2022-10-23T23:12	10	1	0.1	1	1	385	0.4	384	385	15.7	87.3
2022-10-23T23:13	10	1	0.1	1	1	385	0.4	384	385	15.7	86.3
2022-10-23T23:14	10	1	0.0	1	1	384	0.5	383	385	15.5	86.9
2022-10-23T23:15	10	1	0.1	1	1	384	0.6	383	385	15.6	86.6
2022-10-23T23:16	10	1	0.1	1	1	385	0.4	384	385	15.6	85.6
2022-10-23T23:17	10	1	0.1	1	1	384	0.4	384	385	15.7	84.9
2022-10-23T23:18	10	1	0.1	1	1	384	0.4	383	385	15.6	85.0
2022-10-23T23:19	10	1	0.1	1	1	384	0.3	384	385	15.6	85.2
2022-10-23T23:20	10	1	0.1	1	1	384	0.6	383	385	15.6	85.2
2022-10-23T23:21	10	1	0.1	1	1	384	0.3	384	385	15.6	85.2
2022-10-23T23:22	10	1	0.1	1	1	384	0.4	383	385	15.4	85.9
2022-10-23T23:23	10	1	0.1	1	1	384	0.4	383	385	15.3	86.5
2022-10-23T23:24	10	1	0.1	1	1	384	0.4	383	385	15.2	87.3
2022-10-23T23:25	10	1	0.1	1	1	384	0.4	383	384	15.3	87.2
2022-10-23T23:26	10	1	0.1	1	1	384	0.4	382	385	15.3	86.4
2022-10-23T23:27	10	1	0.1	1	1	383	0.3	383	384	15.2	86.8
2022-10-23T23:28	10	1	0.1	1	1	383	0.3	383	384	15.2	86.6
2022-10-23T23:29	10	1	0.1	1	1	383	0.5	382	384	15.2	86.3
2022-10-23T23:30	10	1	0.1	1	1	383	0.5	382	384	15.3	85.9
2022-10-23T23:31	10	1	0.1	1	1	383	0.3	382	383	15.2	85.4
2022-10-23T23:32	10	1	0.1	0	1	383	0.3	382	383	15.2	85.8
2022-10-23T23:33	10	1	0.1	0	1	382	0.8	380	384	15.3	85.2
2022-10-23T23:34	10	1	0.1	0	1	383	0.8	381	384	15.4	83.7
2022-10-23T23:35	10	1	0.1	1	1	383	0.5	382	384	15.4	83.2
2022-10-23T23:36	10	1	0.1	1	1	383	1.1	381	385	15.5	82.0
2022-10-23T23:37	10	1	0.1	1	1	383	0.4	382	384	15.5	81.3
2022-10-23T23:38	10	1	0.1	1	1	382	0.8	381	383	15.5	80.2
2022-10-23T23:39	10	1	0.1	0	1	382	0.6	380	383	15.4	80.6
2022-10-23T23:40	10	0	0.1	0	1	382	0.6	381	383	15.4	80.5
2022-10-23T23:41	10	0	0.1	0	0	381	1.0	379	384	15.4	80.5
2022-10-23T23:42	10	0	0.1	0	0	382	0.8	380	383	15.3	80.8
2022-10-23T23:43	10	0	0.1	0	0	381	0.8	380	383	15.2	81.4
2022-10-23T23:44	10	0	0.1	0	1	381	0.5	381	382	15.3	80.9
2022-10-23T23:45	10	1	0.1	0	1	381	1.3	378	383	15.4	80.1
2022-10-23T23:46	10	1	0.1	1	1	381	1.6	378	383	15.3	80.7
2022-10-23T23:47	10	1	0.1	1	1	381	0.3	380	381	15.1	81.3
2022-10-23T23:48	10	1	0.1	1	1	381	0.4	380	381	15.0	82.5
2022-10-23T23:49	10	1	0.1	1	1	381	0.6	380	382	15.1	82.3
2022-10-23T23:50	10	1	0.1	1	1	381	0.4	380	382	15.2	81.8
2022-10-23T23:51	10	1	0.1	1	1	381	0.4	380	382	15.3	81.3
2022-10-23T23:52	10	1	0.1	1	1	381	0.8	379	382	15.2	81.4
2022-10-23T23:53	10	1	0.1	1	1	381	0.2	381	382	15.2	81.4
2022-10-23T23:54	10	1	0.0	1	1	381	0.4	380	382	15.1	82.0
2022-10-23T23:55	10	1	0.1	1	1	381	0.5	379	382	15.4	80.8
2022-10-23T23:56	10	1	0.1	1	1	381	0.4	381	382	15.3	80.4
2022-10-23T23:57	10	1	0.1	1	1	382	0.3	381	382	15.4	79.9
2022-10-23T23:58	10	1	0.1	1	1	382	0.4	381	383	15.4	79.4
2022-10-23T23:59	10	1	0.1	1	1	381	0.3	380	382	15.3	80.2
2022-10-24T00:00	10	1	0.1	1	1	381	1.0	379	383	15.2	80.8
2022-10-24T00:01	10	1	0.1	1	1	381	0.5	380	382	15.2	81.1
2022-10-24T00:02	10	1	0.1	1	1	381	0.4	380	382	15.1	81.8
2022-10-24T00:03	10	1	0.1	1	1	381	0.3	381	382	15.1	82.0
2022-10-24T00:04	10	1	0.1	1	1	381	0.8	380	383	15.3	81.2
2022-10-24T00:05	10	1	0.1	1	1	382	0.9	379	383	15.3	81.0
2022-10-24T00:06	10	1	0.1	1	1	381	0.4	381	382	15.1	81.7
2022-10-24T00:07	10	1	0.1	1	1	381	0.6	380	382	15.1	82.0
2022-10-24T00:08	10	1	0.1	1	1	382	0.9	380	383	15.2	81.5
2022-10-24T00:09	10	1	0.0	1	1	382	0.5	381	383	15.3	81.0
2022-10-24T00:10	10	1	0.1	1	1	381	1.3	379	383	15.2	81.3
2022-10-24T00:11	10	1	0.1	1	1	381	1.0	380	384	15.3	81.2
2022-10-24T00:12	10	1	0.1	0	1	381	1.0	379	382	15.2	81.2
2022-10-24T00:13	10	0	0.1	0	1	381	0.8	379	382	15.1	81.9
2022-10-24T00:14	10	0	0.1	0	1	381	1.1	379	383	15.0	82.6
2022-10-24T00:15	10	0	0.1	0	1	381	0.6	379	382	15.0	82.6
2022-10-24T00:16	10	0	0.1	0	0	381	1.5	377	383	15.0	82.8
2022-10-24T00:17	10	0	0.1	0	0	381	1.4	378	383	15.0	82.8
2022-10-24T00:18	10	0	0.1	0	0	381	0.4	380	382	15.0	83.0
2022-10-24T00:19	10	0	0.1	0	0	381	0.9	380	382	15.0	82.8
2022-10-24T00:20	10	0	0.1	0	1	381	0.8	379	382	15.1	82.8
2022-10-24T00:21	10	0	0.1	0	1	381	0.5	380	381	15.0	83.0
2022-10-24T00:22	10	1	0.1	0	1	380	0.4	380	381	14.9	83.7
2022-10-24T00:23	10	0	0.1	0	1	380	0.4	379	381	14.9	84.0
2022-10-24T00:24	10	0	0.1	0	1	380	0.4	379	381	14.9	84.0
2022-10-24T00:25	10	0	0.1	0	0	380	0.3	379	381	14.8	84.7
2022-10-24T00:26	10	1	0.1	1	1	380	0.3	379	381	14.7	85.1
2022-10-24T00:27	10	1	0.1	1	1	380	0.3	380	381	14.8	85.4
2022-10-24T00:28	10	1	0.1	1	1	381	0.3	380	381	14.8	85.1
2022-10-24T00:29	10	1	0.1	1	1	380	0.3	379	381	14.7	85.3
2022-10-24T00:30	10	1	0.1	1	1	380	0.3	379	381	14.7	85.5
2022-10-24T00:31	10	1	0.1	1	1	380	0.4	379	380	14.7	85.8
2022-10-24T00:32	10	1	0.1	1	1	380	0.3	379	380	14.7	85.6
2022-10-24T00:33	10	1	0.1	1	1	380	0.4	379	381	14.6	86.0
2022-10-24T00:34	10	1	0.1	1	1	380	0.3	379	380	14.6	86.6
2022-10-24T00:35	10	1	0.1	1	1	380	0.4	379	381	14.6	86.6
2022-10-24T00:36	10	1	0.1	1	1	380	0.2	379	380	14.6	86.6
2022-10-24T00:37	10	1	0.1	1	1	380	0.3	379	381	14.6	86.7
2022-10-24T00:38	10	1	0.1	1	1	380	0.3	379	380	14.6	86.6
2022-10-24T00:39	10	1	0.1	1	1	379	0.4	378	380	14.5	86.8
2022-10-24T00:40	10	1	0.1	1	1	379	0.3	379	380	14.6	86.8
2022-10-24T00:41	10	1	0.1	0	1	379	0.4	378	380	14.6	86.6
2022-10-24T00:42	10	1	0.1	1	1	379	0.3	378	380	14.6	86.5
2022-10-24T00:43	10	1	0.1	1	1	379	0.5	378	380	14.6	86.4
2022-10-24T00:44	10	1	0.1	1	1	379	0.5	378	380	14.6	86.5
2022-10-24T00:45	10	1	0.1	1	1	379	0.3	379	380	14.6	86.3
2022-10-24T00:46	10	1	0.1	1	1	379	0.4	378	380	14.6	86.4
2022-10-24T00:47	10	1	0.1	1	1	379	0.2	378	379	14.7	86.0
2022-10-24T00:48	10	0	0.1	0	1	379	0.3	378	379	14.5	86.3
2022-10-24T00:49	10	0	0.1	0	1	379	0.4	378	380	14.5	86.6
2022-10-24T00:50	10	0	0.1	0	1	379	0.3	379	380	14.5	86.7
2022-10-24T00:51	10	1	0.1	1	1	379	0.3	378	379	14.4	86.9
2022-10-24T00:52	10	1	0.1	1	1	378	0.3	378	379	14.4	87.3
2022-10-24T00:53	10	1	0.1	1	1	378	0.3	378	379	14.4	87.3
2022-10-24T00:54	10	1	0.1	0	1	378	0.3	378	379	14.4	87.2
2022-10-24T00:55	10	1	0.1	0	1	378	0.5	377	379	14.4	87.3
2022-10-24T00:56	10	1	0.1	1	1	378	0.3	377	379	14.4	87.4
2022-10-24T00:57	10	1	0.1	1	1	378	0.2	377	378	14.4	87.3
2022-10-24T00:58	10	1	0.1	1	1	378	0.3	377	379	14.5	87.0
2022-10-24T00:59	10	1	0.1	1	1	378	0.2	377	378	14.4	86.8
2022-10-24T01:00	10	1	0.1	1	1	378	0.2	377	378	14.4	87.0
2022-10-24T01:01	10	1	0.1	1	1	378	0.2	377	379	14.4	87.2
2022-10-24T01:02	10	1	0.1	1	1	378	0.2	377	378	14.4	87.2
2022-10-24T01:03	10	1	0.1	1	1	378	0.4	377	379	14.4	86.8
2022-10-24T01:04	10	1	0.1	1	1	378	0.5	377	379	14.4	87.0
2022-10-24T01:05	10	1	0.1	1	1	378	0.4	377	378	14.4	86.8
2022-10-24T01:06	10	1	0.1	1	1	378	0.3	377	378	14.4	87.0
2022-10-24T01:07	10	1	0.1	1	1	378	0.2	377	378	14.4	87.0
2022-10-24T01:08	10	1	0.1	1	1	377	0.3	377	378	14.3	87.1
2022-10-24T01:09	10	1	0.1	1	1	377	0.2	376	377	14.2	87.8
2022-10-24T01:10	10	1	0.1	1	1	377	0.5	376	378	14.1	88.5
2022-10-24T01:11	10	1	0.1	1	1	377	0.2	377	378	14.1	88.7
2022-10-24T01:12	10	1	0.1	1	1	377	0.6	376	378	14.2	88.8
2022-10-24T01:13	10	1	0.1	1	1	378	0.4	377	379	14.3	88.3
2022-10-24T01:14	10	1	0.1	1	1	379	0.3	378	379	14.3	87.9
2022-10-24T01:15	10	1	0.1	1	1	379	0.6	377	379	14.3	87.9
2022-10-24T01:16	10	1	0.1	1	1	379	0.2	378	379	14.3	88.0
2022-10-24T01:17	10	1	0.1	1	1	378	0.2	378	379	14.2	88.2
2022-10-24T01:18	10	1	0.1	1	1	379	0.3	378	379	14.2	88.6
2022-10-24T01:19	10	1	0.1	1	1	379	0.3	378	380	14.2	88.7
2022-10-24T01:20	10	1	0.1	1	1	379	0.2	378	379	14.1	88.7
2022-10-24T01:21	10	1	0.1	1	1	379	0.2	378	379	14.1	88.9
2022-10-24T01:22	10	1	0.1	1	1	379	0.2	378	379	14.1	89.0
2022-10-24T01:23	10	1	0.1	1	1	379	0.2	378	379	14.1	89.1
2022-10-24T01:24	10	1	0.1	1	1	379	0.2	378	379	14.1	89.2
2022-10-24T01:25	10	1	0.1	1	1	379	0.2	378	379	14.1	89.1
2022-10-24T01:26	10	1	0.1	1	1	378	0.2	378	379	14.0	89.7
2022-10-24T01:27	10	1	0.1	1	1	378	0.2	378	379	13.9	90.7
2022-10-24T01:28	10	1	0.1	1	1	378	0.2	378	379	13.9	90.8
2022-10-24T01:29	10	1	0.1	0	1	379	0.2	378	379	14.1	90.1
2022-10-24T01:30	10	1	0.1	1	1	379	0.2	379	380	14.1	89.2
2022-10-24T01:31	10	1	0.1	0	1	379	0.3	377	379	14.1	89.4
2022-10-24T01:32	10	1	0.1	1	1	379	0.3	378	379	13.9	90.3
2022-10-24T01:33	10	1	0.1	0	1	379	0.2	378	379	13.9	90.7
2022-10-24T01:34	10	1	0.1	1	1	378	0.3	378	379	13.7	91.4
2022-10-24T01:35	10	1	0.1	1	1	378	0.2	378	379	13.7	92.3
2022-10-24T01:36	10	1	0.1	1	1	379	0.2	378	379	13.8	92.1
2022-10-24T01:37	10	1	0.1	1	1	378	0.2	378	379	13.8	91.9
2022-10-24T01:38	10	1	0.1	1	1	379	0.3	378	379	14.0	91.3
2022-10-24T01:39	10	1	0.1	1	1	379	0.2	379	379	14.1	90.3
2022-10-24T01:40	10	1	0.1	1	1	379	0.2	379	380	14.1	89.9
2022-10-24T01:41	10	1	0.1	1	1	379	0.2	379	380	14.1	89.7
2022-10-24T01:42	10	1	0.1	1	1	379	0.2	379	380	14.2	89.2
2022-10-24T01:43	10	1	0.1	1	1	379	0.2	379	379	14.1	89.2
2022-10-24T01:44	10	1	0.1	1	1	379	0.2	379	380	14.1	89.5
2022-10-24T01:45	10	1	0.1	1	1	380	0.2	379	380	14.2	89.1
2022-10-24T01:46	10	1	0.1	1	2	380	0.4	379	380	14.4	88.3
2022-10-24T01:47	10	1	0.1	1	1	380	0.2	379	380	14.4	87.6
2022-10-24T01:48	10	1	0.1	1	2	380	0.4	379	381	14.3	87.9
2022-10-24T01:49	10	1	0.1	1	2	380	0.3	379	381	14.3	88.1
2022-10-24T01:50	10	1	0.1	1	1	380	0.2	379	380	14.2	88.6
2022-10-24T01:51	10	1	0.1	1	1	380	0.3	379	380	14.3	88.7
2022-10-24T01:52	10	1	0.1	1	1	380	0.3	379	381	14.1	89.2
2022-10-24T01:53	10	1	0.1	1	1	379	0.3	378	380	14.0	90.1
2022-10-24T01:54	10	1	0.1	1	1	379	0.2	379	380	14.0	90.5
2022-10-24T01:55	10	1	0.1	1	1	380	0.4	379	380	13.9	90.8
2022-10-24T01:56	10	1	0.1	1	1	380	0.3	379	381	14.0	91.0
2022-10-24T01:57	10	1	0.1	1	1	379	0.3	379	380	13.9	91.0
2022-10-24T01:58	10	1	0.1	1	1	380	0.3	379	380	14.0	91.1
2022-10-24T01:59	10	1	0.1	1	1	380	0.2	379	380	14.0	90.9
2022-10-24T02:00	10	1	0.1	1	1	380	0.3	379	380	14.0	90.9
2022-10-24T02:01	10	1	0.1	1	1	380	0.3	379	380	14.0	91.1
2022-10-24T02:02	10	1	0.1	1	1	380	0.4	379	381	14.1	91.0
2022-10-24T02:03	10	1	0.1	1	1	380	0.5	379	381	14.1	90.9
2022-10-24T02:04	10	1	0.1	0	1	380	0.3	379	380	14.1	90.9
2022-10-24T02:05	10	1	0.1	0	1	380	0.3	379	380	14.1	90.9
2022-10-24T02:06	10	1	0.1	0	1	380	0.3	379	380	14.0	91.2
2022-10-24T02:07	10	1	0.1	0	1	380	0.3	379	380	14.0	91.5
2022-10-24T02:08	10	1	0.1	0	1	380	0.3	379	381	14.1	91.3
2022-10-24T02:09	10	1	0.1	0	1	380	0.3	379	380	14.0	91.2
2022-10-24T02:10	10	1	0.1	0	1	380	0.6	378	380	14.0	91.6
2022-10-24T02:11	10	1	0.1	0	1	380	0.3	379	381	14.2	91.3
2022-10-24T02:12	10	1	0.1	0	1	380	0.4	379	381	14.1	90.9
2022-10-24T02:13	10	1	0.1	0	1	380	0.2	379	380	14.1	91.1
2022-10-24T02:14	10	1	0.1	0	1	380	0.2	379	380	14.2	91.1
2022-10-24T02:15	10	1	0.1	0	1	380	0.3	379	380	14.2	91.1
2022-10-24T02:16	10	1	0.1	0	1	380	0.4	379	381	14.2	90.8
2022-10-24T02:17	10	1	0.1	0	1	380	0.5	379	381	14.3	90.4
2022-10-24T02:18	10	1	0.1	0	1	380	0.3	379	380	14.3	90.1
2022-10-24T02:19	10	1	0.1	0	1	380	0.4	379	381	14.2	90.2
2022-10-24T02:20	10	1	0.1	1	1	380	0.4	379	380	14.2	90.1
2022-10-24T02:21	10	1	0.1	0	1	380	0.4	379	381	14.4	89.8
2022-10-24T02:22	10	1	0.1	1	1	380	0.5	378	381	14.4	89.0
2022-10-24T02:23	10	1	0.1	1	1	380	0.6	379	381	14.4	88.7
2022-10-24T02:24	10	1	0.1	1	1	380	0.3	379	380	14.4	88.5
2022-10-24T02:25	10	1	0.1	1	1	380	0.5	379	381	14.4	88.6
2022-10-24T02:26	10	1	0.1	1	1	380	0.5	378	381	14.4	88.6
2022-10-24T02:27	10	1	0.1	1	1	380	0.3	379	380	14.3	88.7
2022-10-24T02:28	10	1	0.1	1	1	380	0.3	379	380	14.3	89.1
2022-10-24T02:29	10	1	0.1	1	1	380	0.3	379	381	14.4	88.6
2022-10-24T02:30	10	1	0.1	1	1	380	0.4	379	381	14.4	88.6
2022-10-24T02:31	10	1	0.1	1	1	380	0.3	379	381	14.4	88.5
2022-10-24T02:32	10	1	0.1	1	1	380	0.3	379	381	14.5	87.9
2022-10-24T02:33	10	1	0.1	1	1	380	0.5	379	381	14.4	88.0
2022-10-24T02:34	10	1	0.1	1	1	380	0.3	379	380	14.2	88.6
2022-10-24T02:35	10	1	0.1	1	1	380	0.3	379	380	14.1	89.4
2022-10-24T02:36	10	1	0.1	1	1	380	0.3	379	381	14.1	90.0
2022-10-24T02:37	10	1	0.1	1	1	380	0.3	379	380	14.2	90.1
2022-10-24T02:38	10	1	0.1	1	1	379	0.4	379	380	14.1	90.4
2022-10-24T02:39	10	1	0.1	1	1	379	0.4	379	380	14.1	90.7
2022-10-24T02:40	10	1	0.1	1	1	380	0.3	379	380	14.1	90.6
2022-10-24T02:41	10	1	0.1	1	2	380	0.4	379	381	14.1	90.7
2022-10-24T02:42	10	1	0.1	1	1	380	0.3	379	380	14.1	90.6
2022-10-24T02:43	10	1	0.1	1	1	380	0.7	379	381	14.2	90.8
2022-10-24T02:44	10	1	0.1	1	1	380	0.3	379	381	14.3	89.8
2022-10-24T02:45	10	1	0.1	1	1	380	0.4	379	380	14.1	90.3
2022-10-24T02:46	10	1	0.1	1	1	380	0.4	379	380	14.1	91.0
2022-10-24T02:47	10	1	0.1	1	1	380	0.4	379	381	14.1	90.9
2022-10-24T02:48	10	1	0.1	1	1	380	0.3	379	381	14.2	90.9
2022-10-24T02:49	10	1	0.1	1	1	380	0.4	380	381	14.1	90.7
2022-10-24T02:50	10	1	0.1	1	1	380	0.3	379	380	14.2	90.6
2022-10-24T02:51	10	1	0.1	1	1	380	0.3	379	380	14.2	90.4
2022-10-24T02:52	10	1	0.1	1	1	380	0.3	379	380	14.1	90.8
2022-10-24T02:53	10	1	0.1	1	1	379	0.3	379	380	14.1	91.1
2022-10-24T02:54	10	1	0.1	1	1	380	0.2	379	381	14.1	91.2
2022-10-24T02:55	10	1	0.1	1	1	380	0.2	379	380	14.1	91.2
2022-10-24T02:56	10	1	0.1	1	1	379	0.2	379	380	14.1	91.3
2022-10-24T02:57	10	1	0.1	1	1	380	0.2	379	380	14.1	91.3
2022-10-24T02:58	10	1	0.1	1	1	380	0.3	379	380	14.0	91.4
2022-10-24T02:59	10	1	0.1	1	1	379	0.2	379	380	14.0	91.5
2022-10-24T03:00	10	1	0.1	1	1	379	0.4	378	380	14.0	91.7
2022-10-24T03:01	10	1	0.1	1	1	379	0.3	379	380	14.0	91.7
2022-10-24T03:02	10	1	0.0	1	1	379	0.4	379	380	14.1	91.8
2022-10-24T03:03	10	1	0.1	1	1	379	0.3	378	380	14.1	91.6
2022-10-24T03:04	10	1	0.1	1	1	379	0.3	379	380	14.2	91.2
2022-10-24T03:05	10	1	0.1	1	1	379	0.3	378	380	14.2	90.8
2022-10-24T03:06	10	1	0.1	1	1	379	0.4	378	380	14.2	90.8
2022-10-24T03:07	10	1	0.1	1	1	379	0.5	378	380	14.1	90.7
2022-10-24T03:08	10	1	0.1	1	1	379	0.5	378	380	14.1	90.8
2022-10-24T03:09	10	1	0.1	1	1	379	0.2	378	379	14.3	90.4
2022-10-24T03:10	10	1	0.1	1	1	379	0.4	378	380	14.2	90.1
2022-10-24T03:11	10	1	0.1	1	1	379	0.2	378	379	14.2	90.0
2022-10-24T03:12	10	1	0.1	1	1	379	0.2	378	379	14.2	90.1
2022-10-24T03:13	10	1	0.1	1	1	378	0.2	378	379	14.0	90.6
2022-10-24T03:14	10	1	0.1	1	1	378	0.2	378	379	13.9	91.5
2022-10-24T03:15	10	1	0.1	1	1	378	0.4	377	379	13.9	91.9
2022-10-24T03:16	10	1	0.1	1	1	378	0.2	378	379	13.8	92.4
2022-10-24T03:17	10	1	0.1	1	1	379	0.4	378	379	13.9	92.4
2022-10-24T03:18	10	1	0.1	1	1	378	0.5	378	379	14.0	91.9
2022-10-24T03:19	10	1	0.1	1	1	378	0.3	378	379	13.9	91.9
2022-10-24T03:20	10	1	0.1	1	1	378	0.2	377	378	13.8	92.2
2022-10-24T03:21	10	1	0.1	1	1	377	0.3	377	378	13.8	92.7
2022-10-24T03:22	10	1	0.1	1	1	377	0.3	377	378	13.6	93.5
2022-10-24T03:23	10	1	0.1	1	1	378	0.2	377	378	13.7	93.9
2022-10-24T03:24	10	1	0.1	1	1	378	0.3	377	379	13.9	93.4
2022-10-24T03:25	10	1	0.1	1	1	378	0.3	377	378	14.0	92.4
2022-10-24T03:26	10	1	0.1	1	1	378	0.2	377	378	13.9	92.3
2022-10-24T03:27	10	1	0.1	1	1	378	0.3	377	378	13.8	92.9
2022-10-24T03:28	10	1	0.1	1	1	377	0.3	377	378	13.6	93.6
2022-10-24T03:29	10	1	0.1	1	1	377	0.2	377	378	13.6	94.4
2022-10-24T03:30	10	1	0.1	0	1	377	0.2	377	378	13.5	94.6
2022-10-24T03:31	10	0	0.1	0	1	378	0.2	377	378	13.4	95.1
2022-10-24T03:32	10	0	0.1	0	1	377	0.2	377	378	13.5	95.2
2022-10-24T03:33	10	0	0.1	0	0	378	0.2	377	378	13.5	95.2
2022-10-24T03:34	10	0	0.1	0	0	377	0.2	377	378	13.5	95.3
2022-10-24T03:35	10	0	0.1	0	0	377	0.2	377	378	13.4	95.3
2022-10-24T03:36	10	0	0.1	0	0	377	0.2	377	378	13.4	95.6
2022-10-24T03:37	10	0	0.1	0	0	377	0.2	377	378	13.4	95.5
2022-10-24T03:38	10	0	0.1	0	0	377	0.3	377	378	13.4	95.7
2022-10-24T03:39	10	0	0.1	0	0	377	0.2	377	378	13.4	95.8
2022-10-24T03:40	10	0	0.1	0	0	377	0.2	377	378	13.5	95.8
2022-10-24T03:41	10	0	0.1	0	0	378	0.2	377	378	13.6	95.3
2022-10-24T03:42	10	0	0.1	0	0	377	0.3	376	378	13.5	95.0
2022-10-24T03:43	10	0	0.1	0	0	377	0.3	376	378	13.6	95.0
2022-10-24T03:44	10	0	0.1	0	1	377	0.3	376	377	13.5	94.9
2022-10-24T03:45	10	0	0.1	0	1	376	0.2	376	377	13.4	95.3
2022-10-24T03:46	10	1	0.1	0	1	376	0.3	375	376	13.3	95.7
2022-10-24T03:47	10	1	0.1	0	1	376	0.2	375	376	13.3	96.1
2022-10-24T03:48	10	1	0.0	1	1	376	0.2	375	376	13.2	96.3
2022-10-24T03:49	10	1	0.1	1	1	376	0.2	375	376	13.2	96.5
2022-10-24T03:50	10	1	0.1	1	1	375	0.3	375	376	13.3	96.6
2022-10-24T03:51	10	1	0.1	1	1	375	0.3	375	376	13.3	96.6
2022-10-24T03:52	10	1	0.1	1	1	375	0.3	375	376	13.3	96.6
2022-10-24T03:53	10	1	0.1	1	1	375	0.3	375	376	13.4	96.5
2022-10-24T03:54	10	1	0.1	1	1	376	0.2	375	376	13.5	96.3
2022-10-24T03:55	10	1	0.1	1	1	376	0.3	375	376	13.5	95.8
2022-10-24T03:56	10	1	0.1	1	1	376	0.2	375	376	13.5	95.5
2022-10-24T03:57	10	1	0.1	0	1	375	0.2	375	376	13.6	95.1
2022-10-24T03:58	10	1	0.1	0	1	375	0.2	374	375	13.4	95.1
2022-10-24T03:59	10	1	0.1	0	1	376	0.4	375	376	13.8	95.1
2022-10-24T04:00	10	1	0.1	0	1	376	0.2	375	377	14.0	93.3
2022-10-24T04:01	10	1	0.1	1	1	376	0.2	376	377	13.9	92.3
2022-10-24T04:02	10	1	0.1	1	1	375	0.3	375	376	13.7	92.8
2022-10-24T04:03	10	1	0.1	1	1	375	0.2	374	375	13.4	94.0
2022-10-24T04:04	10	1	0.1	1	1	375	0.2	374	375	13.3	94.8
2022-10-24T04:05	10	1	0.1	1	1	375	0.2	374	375	13.2	95.4
2022-10-24T04:06	10	1	0.1	0	1	375	0.3	374	375	13.2	95.9
2022-10-24T04:07	10	1	0.1	1	1	375	0.3	374	375	13.2	96.3
2022-10-24T04:08	10	1	0.1	0	1	375	0.2	374	375	13.4	96.5
2022-10-24T04:09	10	1	0.1	1	1	375	0.2	375	375	13.4	96.2
2022-10-24T04:10	10	1	0.1	0	1	375	0.2	375	375	13.3	96.0
2022-10-24T04:11	10	1	0.0	1	1	375	0.2	374	375	13.3	96.1
2022-10-24T04:12	10	1	0.1	0	1	375	0.2	375	376	13.3	96.1
2022-10-24T04:13	10	1	0.1	0	1	375	0.2	375	376	13.3	96.1
2022-10-24T04:14	10	1	0.1	0	1	375	0.2	375	376	13.2	96.0
2022-10-24T04:15	10	0	0.1	0	1	375	0.2	375	376	13.2	96.3
2022-10-24T04:16	10	0	0.1	0	1	375	0.2	375	376	13.3	96.3
2022-10-24T04:17	10	0	0.1	0	1	376	0.2	375	376	13.3	96.3
2022-10-24T04:18	10	0	0.1	0	1	376	0.2	376	377	13.5	96.1
2022-10-24T04:19	10	0	0.1	0	1	376	0.3	375	377	13.8	95.2
2022-10-24T04:20	10	1	0.1	0	1	376	0.3	375	376	13.8	93.8
2022-10-24T04:21	10	1	0.1	1	1	376	0.5	375	377	14.0	92.8
2022-10-24T04:22	10	1	0.1	1	1	375	0.2	375	376	14.0	92.0
2022-10-24T04:23	10	1	0.1	1	1	375	0.2	374	376	13.8	91.8
2022-10-24T04:24	10	1	0.1	1	1	375	0.5	374	376	13.8	92.6
2022-10-24T04:25	10	1	0.1	1	1	376	0.2	375	376	14.1	91.5
2022-10-24T04:26	10	1	0.1	1	1	376	0.2	375	376	13.7	91.6
2022-10-24T04:27	10	1	0.1	0	1	376	0.2	375	376	13.4	93.5
2022-10-24T04:28	10	0	0.1	0	1	375	0.3	375	376	13.3	94.5
2022-10-24T04:29	10	0	0.1	0	0	376	0.2	375	376	13.3	95.1
2022-10-24T04:30	10	0	0.1	0	0	376	0.2	375	376	13.3	95.3
2022-10-24T04:31	10	0	0.1	0	0	376	0.2	375	376	13.3	95.4
2022-10-24T04:32	10	0	0.1	0	0	376	0.3	375	376	13.4	95.4
2022-10-24T04:33	10	0	0.1	0	0	376	0.2	376	377	13.8	94.8
2022-10-24T04:34	10	0	0.1	0	1	376	0.4	375	377	13.9	93.5
2022-10-24T04:35	10	1	0.0	0	1	375	0.3	375	376	13.4	93.0
2022-10-24T04:36	10	1	0.1	0	1	376	0.3	375	376	13.2	94.6
2022-10-24T04:37	10	0	0.1	0	1	376	0.3	375	376	13.2	95.6
2022-10-24T04:38	10	0	0.1	0	0	376	0.2	375	376	13.3	95.8
2022-10-24T04:39	10	0	0.1	0	0	376	0.3	375	377	13.3	95.8
2022-10-24T04:40	10	0	0.1	0	0	376	0.2	376	376	13.3	95.8
2022-10-24T04:41	10	0	0.1	0	0	376	0.3	375	377	13.4	95.7
2022-10-24T04:42	10	0	0.1	0	1	376	0.8	375	377	13.2	95.4
2022-10-24T04:43	10	0	0.1	0	0	376	0.2	375	376	13.0	95.7
2022-10-24T04:44	10	0	0.1	0	0	376	0.2	376	377	13.3	96.1
2022-10-24T04:45	10	0	0.1	0	0	377	0.2	376	377	13.6	96.2
2022-10-24T04:46	10	0	0.1	0	0	377	0.6	375	378	13.5	95.5
2022-10-24T04:47	10	0	0.0	0	0	377	0.3	376	377	13.5	95.0
2022-10-24T04:48	10	0	0.1	0	0	376	0.3	376	377	13.4	94.8
2022-10-24T04:49	10	0	0.1	0	0	376	0.3	376	377	13.4	94.9
2022-10-24T04:50	10	0	0.1	0	1	376	0.2	376	377	13.3	95.0
2022-10-24T04:51	10	0	0.1	0	0	376	0.2	376	377	13.3	95.3
2022-10-24T04:52	10	0	0.1	0	0	377	0.2	376	377	13.5	95.3
2022-10-24T04:53	10	0	0.1	0	0	377	0.3	376	377	13.6	94.7
2022-10-24T04:54	10	0	0.1	0	1	376	0.3	376	377	13.7	93.8
2022-10-24T04:55	10	0	0.1	0	1	376	0.3	376	377	13.6	93.6
2022-10-24T04:56	10	0	0.1	0	1	376	0.3	376	377	13.5	93.9
2022-10-24T04:57	10	0	0.1	0	0	377	0.3	376	377	13.6	93.9
2022-10-24T04:58	10	0	0.1	0	0	376	0.2	376	377	13.4	93.8
2022-10-24T04:59	10	0	0.1	0	0	376	0.3	376	377	13.2	94.9
2022-10-24T05:00	10	0	0.1	0	0	376	0.2	375	376	13.2	95.6
2022-10-24T05:01	10	0	0.1	0	0	376	0.2	376	377	13.3	95.8
2022-10-24T05:02	10	0	0.1	0	0	376	0.2	376	377	13.4	95.8
2022-10-24T05:03	10	0	0.1	0	0	376	0.3	375	377	13.4	95.5
2022-10-24T05:04	10	0	0.1	0	0	376	0.2	376	376	13.4	95.4
2022-10-24T05:05	10	0	0.1	0	0	377	0.4	376	377	13.5	95.1
2022-10-24T05:06	10	0	0.1	0	0	376	0.2	376	377	13.8	93.3
2022-10-24T05:07	10	0	0.1	0	0	376	0.3	375	377	13.4	93.7
2022-10-24T05:08	10	0	0.1	0	0	376	0.3	375	377	13.5	94.4
2022-10-24T05:09	10	0	0.1	0	0	376	0.4	375	376	13.7	93.6
2022-10-24T05:10	10	0	0.1	0	0	375	0.3	375	376	13.4	93.5
2022-10-24T05:11	10	0	0.1	0	1	375	0.3	375	376	13.2	94.6
2022-10-24T05:12	10	0	0.1	0	1	375	0.2	374	375	13.1	95.2
2022-10-24T05:13	10	0	0.1	0	0	375	0.2	374	375	13.1	95.8
2022-10-24T05:14	10	0	0.1	0	0	375	0.2	374	375	13.1	96.3
2022-10-24T05:15	10	0	0.1	0	0	375	0.2	374	375	13.2	96.3
2022-10-24T05:16	10	0	0.1	0	0	375	0.2	374	376	13.3	96.2
2022-10-24T05:17	10	0	0.1	0	0	375	0.2	374	375	13.6	95.6
2022-10-24T05:18	10	0	0.1	0	0	375	0.3	374	375	13.6	94.5
2022-10-24T05:19	10	0	0.1	0	0	374	0.3	374	375	13.2	94.4
2022-10-24T05:20	10	0	0.1	0	1	374	0.2	373	374	13.0	95.1
2022-10-24T05:21	10	0	0.1	0	0	374	0.3	374	375	13.1	95.8
2022-10-24T05:22	10	0	0.1	0	0	374	0.4	373	375	13.1	96.0
2022-10-24T05:23	10	0	0.1	0	0	374	0.4	374	375	13.4	96.1
2022-10-24T05:24	10	0	0.1	0	0	375	0.3	374	375	13.5	95.6
2022-10-24T05:25	10	0	0.1	0	0	374	0.2	374	375	13.7	94.8
2022-10-24T05:26	10	0	0.1	0	0	374	0.4	374	375	13.8	93.8
2022-10-24T05:27	10	0	0.1	0	0	374	0.3	374	375	13.9	92.6
2022-10-24T05:28	10	0	0.1	0	1	374	0.2	374	375	14.1	91.4
2022-10-24T05:29	10	0	0.1	0	1	374	0.3	374	375	14.1	90.4
2022-10-24T05:30	10	0	0.1	0	1	374	0.3	374	375	14.0	90.4
2022-10-24T05:31	10	0	0.1	0	1	374	0.2	374	375	13.9	90.7
2022-10-24T05:32	10	0	0.1	0	1	374	0.2	374	374	13.9	91.0
2022-10-24T05:33	10	0	0.1	0	1	375	0.3	374	375	14.1	90.8
2022-10-24T05:34	10	0	0.1	0	1	375	0.5	374	376	14.2	89.8
2022-10-24T05:35	10	0	0.1	0	1	375	0.3	374	375	14.0	89.8
2022-10-24T05:36	10	0	0.1	0	1	374	0.3	374	375	13.8	91.1
2022-10-24T05:37	10	0	0.0	0	0	374	0.3	374	375	13.4	92.3
2022-10-24T05:38	10	0	0.1	0	0	374	0.2	374	375	13.4	93.8
2022-10-24T05:39	10	0	0.1	0	0	374	0.3	373	375	13.5	93.7
2022-10-24T05:40	10	0	0.1	0	0	374	0.2	373	375	13.3	94.3
2022-10-24T05:41	10	0	0.1	0	0	374	0.3	373	375	13.2	95.0
2022-10-24T05:42	10	0	0.1	0	0	374	0.2	374	375	13.0	95.5
2022-10-24T05:43	10	0	0.1	0	0	374	0.3	374	375	12.9	96.1
2022-10-24T05:44	10	0	0.1	-1	0	374	0.2	374	375	12.9	96.5
2022-10-24T05:45	10	-1	0.1	-1	0	374	0.2	374	375	12.8	96.8
2022-10-24T05:46	10	-1	0.1	-1	0	375	0.3	374	375	12.8	97.0
2022-10-24T05:47	10	-1	0.1	-1	-1	374	0.3	374	375	12.8	97.2
2022-10-24T05:48	10	-1	0.1	-1	0	374	0.2	374	375	12.8	97.3
2022-10-24T05:49	10	-1	0.1	-1	0	374	0.2	374	374	12.9	97.3
2022-10-24T05:50	10	-1	0.1	-1	-1	374	0.2	374	375	12.8	97.4
2022-10-24T05:51	10	-1	0.1	-1	-1	374	0.2	373	374	12.8	97.4
2022-10-24T05:52	10	-1	0.0	-1	0	373	0.2	373	374	12.8	97.4
2022-10-24T05:53	10	-1	0.1	-1	-1	373	0.2	372	373	12.9	97.6
2022-10-24T05:54	10	-1	0.1	-1	0	373	0.3	372	374	13.1	97.5
2022-10-24T05:55	10	0	0.1	-1	0	373	0.2	373	374	13.1	96.9
2022-10-24T05:56	10	0	0.1	0	0	373	0.2	373	374	13.1	96.4
2022-10-24T05:57	10	0	0.1	0	0	373	0.3	372	373	13.0	96.3
2022-10-24T05:58	10	0	0.1	0	0	372	0.3	372	373	12.9	96.4
2022-10-24T05:59	10	0	0.1	0	0	372	0.3	372	373	12.9	96.6
2022-10-24T06:00	10	0	0.1	0	0	372	0.3	372	373	12.9	96.6
2022-10-24T06:01	10	0	0.1	0	0	372	0.2	372	373	13.0	96.6
2022-10-24T06:02	10	0	0.1	0	0	372	0.3	371	373	13.0	96.5
2022-10-24T06:03	10	0	0.1	0	0	372	0.2	372	373	13.0	96.4
2022-10-24T06:04	10	0	0.1	0	0	373	0.2	372	373	13.0	96.5
2022-10-24T06:05	10	0	0.1	0	0	373	0.3	372	373	13.1	96.5
2022-10-24T06:06	10	0	0.1	0	0	373	0.3	372	374	13.2	96.3
2022-10-24T06:07	10	0	0.1	0	0	373	0.4	372	374	13.3	96.0
2022-10-24T06:08	10	0	0.1	0	1	374	0.4	373	374	13.3	95.5
2022-10-24T06:09	10	1	0.1	0	1	374	0.3	373	375	13.6	94.9
2022-10-24T06:10	10	1	0.1	1	1	374	0.2	374	375	13.7	93.4
2022-10-24T06:11	10	1	0.1	1	1	375	0.3	374	375	13.7	92.8
2022-10-24T06:12	10	1	0.1	1	2	375	0.2	375	376	13.8	92.2
2022-10-24T06:13	10	2	0.1	2	2	376	0.2	375	376	13.9	91.1
2022-10-24T06:14	10	2	0.0	2	2	376	0.3	375	376	13.7	91.4
2022-10-24T06:15	10	2	0.0	2	2	376	0.3	375	376	13.7	91.9
2022-10-24T06:16	10	2	0.0	2	2	376	0.2	375	376	13.7	91.9
2022-10-24T06:17	10	2	0.0	2	2	376	0.2	375	376	13.7	91.9
2022-10-24T06:18	10	2	0.0	2	2	376	0.2	375	376	13.7	91.8
2022-10-24T06:19	10	2	0.0	2	2	376	0.2	375	376	13.7	92.0
2022-10-24T06:20	10	2	0.0	2	2	376	0.2	375	376	13.6	92.1
2022-10-24T06:21	10	2	0.1	2	2	376	0.2	376	377	13.6	92.4
2022-10-24T06:22	10	2	0.1	2	2	376	0.2	376	376	13.4	92.7
2022-10-24T06:23	10	2	0.0	2	2	376	0.2	375	376	13.3	93.7
2022-10-24T06:24	10	2	0.0	2	2	376	0.3	375	376	13.2	94.4
2022-10-24T06:25	10	2	0.0	2	2	376	0.2	376	376	13.2	94.7
2022-10-24T06:26	10	2	0.0	2	2	376	0.2	376	377	13.2	94.7
2022-10-24T06:27	10	2	0.0	2	2	376	0.2	376	376	13.1	94.9
2022-10-24T06:28	10	2	0.0	2	2	376	0.2	376	377	13.1	95.2
2022-10-24T06:29	10	2	0.1	2	2	376	0.2	376	377	13.1	95.3
2022-10-24T06:30	10	2	0.1	2	2	376	0.2	376	377	13.3	95.2
2022-10-24T06:31	10	2	0.1	2	2	376	0.3	376	377	13.5	94.6
2022-10-24T06:32	10	2	0.0	2	2	376	0.6	375	377	13.3	94.1
2022-10-24T06:33	10	2	0.1	2	2	376	0.3	376	377	13.1	94.2
2022-10-24T06:34	10	2	0.1	2	2	377	0.3	376	377	13.2	94.8
2022-10-24T06:35	10	2	0.1	2	2	376	0.3	376	377	13.2	95.0
2022-10-24T06:36	10	2	0.1	2	2	377	0.3	376	377	13.1	95.2
2022-10-24T06:37	10	2	0.1	2	2	376	0.4	376	377	13.0	95.5
2022-10-24T06:38	10	2	0.0	2	2	376	0.2	375	377	13.0	95.9
2022-10-24T06:39	10	2	0.1	2	2	376	0.3	375	377	12.9	96.2
2022-10-24T06:40	10	2	0.1	2	2	376	0.4	375	377	12.9	96.3
2022-10-24T06:41	10	2	0.1	2	3	376	0.3	375	377	12.8	96.5
2022-10-24T06:42	10	2	0.1	2	3	376	0.3	375	377	12.8	96.7
2022-10-24T06:43	10	2	0.1	2	3	376	0.3	375	377	12.8	96.9
2022-10-24T06:44	10	2	0.1	2	2	376	0.4	375	377	12.7	96.9
2022-10-24T06:45	10	2	0.1	2	2	376	0.4	375	377	12.7	97.1
2022-10-24T06:46	10	2	0.1	2	2	376	0.2	376	377	12.7	97.2
2022-10-24T06:47	10	2	0.1	2	2	376	0.2	375	377	12.7	97.4
2022-10-24T06:48	10	2	0.1	2	2	376	0.2	375	377	12.7	97.6
2022-10-24T06:49	10	2	0.1	2	2	376	0.2	375	377	12.6	97.7
2022-10-24T06:50	10	2	0.1	2	3	376	0.2	375	376	12.7	97.8
2022-10-24T06:51	10	3	0.1	2	3	376	0.2	376	376	12.7	97.9
2022-10-24T06:52	10	3	0.1	3	3	376	0.2	376	376	12.7	98.0
2022-10-24T06:53	10	3	0.1	3	4	376	0.2	375	376	12.7	98.0
2022-10-24T06:54	10	4	0.1	3	4	376	0.2	375	377	12.8	98.1
2022-10-24T06:55	10	3	0.1	3	4	376	0.2	376	377	12.8	98.1
2022-10-24T06:56	10	3	0.0	3	3	376	0.2	376	377	12.8	98.1
2022-10-24T06:57	10	4	0.1	3	4	376	0.2	376	377	12.8	98.1
2022-10-24T06:58	10	4	0.2	4	4	377	0.2	376	377	12.8	98.1
2022-10-24T06:59	10	5	0.2	4	5	377	0.2	376	377	12.7	98.1
2022-10-24T07:00	10	5	0.2	5	6	377	0.2	377	377	12.7	98.1
2022-10-24T07:01	10	6	0.2	6	6	377	0.3	376	377	12.8	98.2
2022-10-24T07:02	10	6	0.1	6	7	377	0.2	376	377	12.8	98.2
2022-10-24T07:03	10	7	0.5	6	10	377	0.2	376	377	12.8	98.3
2022-10-24T07:04	10	6	0.2	6	6	377	0.3	376	377	12.8	98.3
2022-10-24T07:05	10	5	0.2	5	6	377	0.2	376	377	12.8	98.3
2022-10-24T07:06	10	5	0.2	4	5	377	0.2	377	378	12.8	98.4
2022-10-24T07:07	10	4	0.1	4	4	377	0.2	377	378	12.8	98.4
2022-10-24T07:08	10	4	0.1	4	4	378	0.2	377	378	12.9	98.5
2022-10-24T07:09	10	3	0.1	3	4	378	0.2	377	378	12.9	98.5
2022-10-24T07:10	10	3	0.1	3	3	378	0.2	378	379	13.0	98.5
2022-10-24T07:11	10	3	0.1	3	3	378	0.2	378	379	13.0	98.4
2022-10-24T07:12	10	3	0.1	3	3	378	0.2	377	379	13.0	98.3
2022-10-24T07:13	10	3	0.1	3	4	378	0.2	378	379	13.1	98.2
2022-10-24T07:14	10	3	0.1	3	3	378	0.2	378	379	13.2	98.1
2022-10-24T07:15	10	3	0.1	3	3	378	0.2	378	379	13.3	97.8
2022-10-24T07:16	10	2	0.1	2	3	378	0.2	378	379	13.4	97.5
2022-10-24T07:17	10	2	0.1	2	2	378	0.2	378	379	13.4	97.1
2022-10-24T07:18	10	2	0.1	2	2	378	0.2	378	379	13.4	96.9
2022-10-24T07:19	10	2	0.1	2	2	379	0.2	378	379	13.4	96.8
2022-10-24T07:20	10	2	0.1	2	2	378	0.2	378	379	13.4	96.7
2022-10-24T07:21	10	2	0.1	1	2	378	0.3	377	379	13.4	96.8
2022-10-24T07:22	10	2	0.1	1	2	378	0.2	377	378	13.3	96.7
2022-10-24T07:23	10	2	0.1	1	2	378	0.2	377	378	13.3	96.9
2022-10-24T07:24	10	2	0.1	1	2	378	0.2	378	379	13.3	96.9
2022-10-24T07:25	10	2	0.1	2	2	378	0.7	377	379	13.3	97.0
2022-10-24T07:26	10	2	0.1	1	2	378	0.7	377	379	13.3	97.1
2022-10-24T07:27	10	2	0.1	2	2	379	0.3	378	379	13.4	97.2
2022-10-24T07:28	10	2	0.1	2	2	378	0.2	378	379	13.5	97.1
2022-10-24T07:29	10	2	0.1	2	2	378	0.1	378	379	13.3	97.1
2022-10-24T07:30	10	2	0.1	2	2	378	0.2	378	379	13.4	97.2
2022-10-24T07:31	10	2	0.1	2	3	378	0.2	378	378	13.3	97.0
2022-10-24T07:32	10	3	0.2	2	3	378	0.2	377	379	13.3	97.0
2022-10-24T07:33	10	3	0.2	3	4	378	0.3	378	379	13.3	97.0
2022-10-24T07:34	10	4	0.2	3	4	379	0.2	378	379	13.3	97.1
2022-10-24T07:35	10	4	0.1	4	4	379	0.3	378	380	13.4	97.1
2022-10-24T07:36	10	4	0.1	4	4	379	0.2	379	380	13.4	96.9
2022-10-24T07:37	10	4	0.1	3	4	379	0.3	378	380	13.4	96.8
2022-10-24T07:38	10	4	0.1	3	4	379	0.3	378	380	13.4	96.8
2022-10-24T07:39	10	4	0.2	4	5	379	0.3	378	380	13.3	96.8
2022-10-24T07:40	10	5	0.2	4	5	379	0.3	379	380	13.3	96.8
2022-10-24T07:41	10	6	0.3	5	6	379	0.3	379	380	13.2	97.0
2022-10-24T07:42	10	7	0.3	6	7	380	0.3	379	380	13.3	97.1
2022-10-24T07:43	10	8	0.2	7	8	380	0.2	379	381	13.3	97.2
2022-10-24T07:44	10	9	0.2	8	9	380	0.2	380	381	13.3	97.3
2022-10-24T07:45	10	9	0.3	9	10	380	0.3	380	381	13.3	97.4
2022-10-24T07:46	10	10	0.3	10	11	381	0.2	381	381	13.3	97.5
2022-10-24T07:47	10	12	0.4	11	12	381	0.3	380	381	13.3	97.6
2022-10-24T07:48	10	13	0.7	12	15	381	0.5	380	382	13.3	97.7
2022-10-24T07:49	10	16	0.6	15	17	381	0.3	380	382	13.3	97.7
2022-10-24T07:50	10	18	0.4	17	18	381	0.2	381	382	13.1	97.6
2022-10-24T07:51	10	19	0.2	18	19	381	0.4	380	382	13.1	97.6
2022-10-24T07:52	10	19	0.2	18	19	381	0.3	381	382	13.1	97.7
2022-10-24T07:53	10	17	0.6	16	18	381	0.3	381	382	13.1	97.8
2022-10-24T07:54	10	16	0.2	15	16	382	0.3	381	382	13.1	97.9
2022-10-24T07:55	10	15	0.5	14	15	383	0.5	382	384	13.1	98.0
2022-10-24T07:56	10	13	0.2	13	14	383	0.3	382	383	13.2	98.1
2022-10-24T07:57	10	14	0.5	13	15	383	0.2	382	383	13.2	98.2
2022-10-24T07:58	10	16	0.6	15	17	383	0.2	382	383	13.2	98.3
2022-10-24T07:59	10	17	0.1	17	17	383	0.2	382	383	13.2	98.4
2022-10-24T08:00	10	17	0.2	17	18	384	0.2	383	384	13.3	98.4
2022-10-24T08:01	10	19	0.5	18	19	384	0.3	383	384	13.3	98.4
2022-10-24T08:02	10	20	0.3	19	20	384	0.2	383	384	13.3	98.5
2022-10-24T08:03	10	21	0.1	20	21	384	0.2	383	384	13.3	98.6
2022-10-24T08:04	10	21	0.1	20	21	384	0.3	383	384	13.3	98.6
2022-10-24T08:05	10	20	0.2	20	21	384	0.2	383	384	13.4	98.6
2022-10-24T08:06	10	19	0.3	19	20	384	0.3	383	385	13.4	98.5
2022-10-24T08:07	10	18	0.3	18	19	383	0.2	383	384	13.4	98.4
2022-10-24T08:08	10	18	0.1	17	18	383	0.2	383	384	13.4	98.3
2022-10-24T08:09	10	18	0.1	17	18	384	0.2	383	384	13.5	98.2
2022-10-24T08:10	10	18	0.1	18	18	383	0.2	383	384	13.5	98.0
2022-10-24T08:11	10	18	0.1	18	19	383	0.3	383	384	13.5	97.9
2022-10-24T08:12	10	19	0.2	19	19	383	0.3	382	384	13.5	97.8
2022-10-24T08:13	10	19	0.2	19	20	383	0.1	383	383	13.5	97.7
2022-10-24T08:14	10	20	0.2	20	20	383	0.2	383	384	13.5	97.7
2022-10-24T08:15	10	20	0.1	20	20	383	0.2	383	384	13.5	97.8
2022-10-24T08:16	10	20	0.0	20	20	383	0.2	383	384	13.5	97.8
2022-10-24T08:17	10	20	0.1	20	20	384	0.2	383	384	13.5	97.8
2022-10-24T08:18	10	20	0.2	19	20	384	0.2	383	384	13.5	97.8
2022-10-24T08:19	10	18	0.7	17	19	384	0.2	384	385	13.5	97.7
2022-10-24T08:20	10	15	1.0	14	17	384	0.3	384	385	13.6	97.6
2022-10-24T08:21	10	12	1.0	10	13	384	0.3	384	385	13.6	97.4
2022-10-24T08:22	10	9	0.6	8	10	385	0.2	384	385	13.6	97.3
2022-10-24T08:23	10	8	0.4	7	8	384	0.2	384	385	13.7	97.1
2022-10-24T08:24	10	6	0.3	6	7	384	0.2	384	384	13.7	97.0
2022-10-24T08:25	10	5	0.2	5	6	384	0.2	383	384	13.7	96.7
2022-10-24T08:26	10	5	0.2	5	5	384	0.3	383	384	13.7	96.4
2022-10-24T08:27	10	4	0.1	4	5	383	0.3	382	384	13.8	95.6
2022-10-24T08:28	10	4	0.1	4	4	383	0.3	382	384	14.0	94.4
2022-10-24T08:29	10	4	0.1	4	4	383	0.4	382	384	14.1	93.0
2022-10-24T08:30	10	4	0.1	4	4	382	0.2	382	383	13.9	93.7
2022-10-24T08:31	10	4	0.1	4	4	382	0.5	381	383	13.8	94.6
2022-10-24T08:32	10	4	0.2	4	5	382	0.4	381	383	13.8	95.1
2022-10-24T08:33	10	5	0.2	4	5	382	0.3	382	383	13.8	95.4
2022-10-24T08:34	10	5	0.1	5	5	382	0.2	382	383	13.8	95.6
2022-10-24T08:35	10	5	0.1	5	5	383	0.2	382	383	13.8	95.7
2022-10-24T08:36	10	5	0.2	4	5	383	0.2	382	383	13.8	95.7
2022-10-24T08:37	10	4	0.1	4	5	383	0.2	382	383	13.8	95.5
2022-10-24T08:38	10	4	0.1	4	5	383	0.3	382	383	13.8	95.3
2022-10-24T08:39	10	4	0.2	4	5	382	1.4	380	384	13.8	95.3
2022-10-24T08:40	10	4	0.2	3	4	382	0.3	382	383	13.9	95.3
2022-10-24T08:41	10	3	0.2	3	3	382	0.5	381	383	13.8	95.3
2022-10-24T08:42	10	2	0.2	2	3	382	0.3	381	382	13.8	95.5
2022-10-24T08:43	10	2	0.2	2	2	382	0.4	381	382	13.7	95.8
2022-10-24T08:44	10	1	0.2	1	2	382	0.6	380	383	13.7	96.0
2022-10-24T08:45	10	1	0.1	1	1	381	0.4	381	383	13.6	96.2
2022-10-24T08:46	10	1	0.1	1	1	381	0.8	380	383	13.5	96.4
2022-10-24T08:47	10	1	0.1	1	1	381	0.5	380	382	13.5	96.5
2022-10-24T08:48	10	1	0.1	1	1	381	0.3	380	382	13.5	96.8
2022-10-24T08:49	10	1	0.1	1	1	381	0.4	380	382	13.6	96.9
2022-10-24T08:50	10	1	0.1	1	1	381	0.3	380	382	13.7	97.0
2022-10-24T08:51	10	1	0.1	1	1	381	0.5	380	382	13.9	97.1
2022-10-24T08:52	10	1	0.1	1	2	381	0.5	380	382	14.0	97.0
2022-10-24T08:53	10	2	0.1	1	2	381	0.4	380	382	13.8	96.8
2022-10-24T08:54	10	2	0.1	2	2	381	0.4	380	381	13.9	96.7
2022-10-24T08:55	10	2	0.0	2	2	381	0.5	380	382	14.1	96.6
2022-10-24T08:56	10	2	0.1	2	2	381	0.7	380	383	14.1	96.3
2022-10-24T08:57	10	2	0.0	2	2	381	0.5	380	382	14.1	96.0
2022-10-24T08:58	10	2	0.1	2	2	381	0.4	381	382	14.0	95.8
2022-10-24T08:59	10	2	0.1	2	2	381	0.4	380	382	14.0	95.7
2022-10-24T09:00	10	2	0.1	2	2	381	0.6	380	382	13.9	95.7
2022-10-24T09:01	10	2	0.1	2	2	381	0.4	380	382	13.9	95.7
2022-10-24T09:02	10	2	0.1	2	2	381	0.3	380	381	14.0	95.5
2022-10-24T09:03	10	3	0.2	2	3	381	0.4	380	382	14.0	95.3
2022-10-24T09:04	10	4	0.3	3	4	381	0.4	380	382	14.0	94.9
2022-10-24T09:05	10	4	0.1	4	4	381	0.9	379	383	14.0	94.7
2022-10-24T09:06	10	4	0.1	4	4	381	0.7	380	382	13.9	94.7
2022-10-24T09:07	10	4	0.1	4	5	381	0.3	381	382	14.0	94.6
2022-10-24T09:08	10	5	0.2	5	5	382	0.4	381	382	14.1	94.1
2022-10-24T09:09	10	6	0.3	5	7	382	0.3	381	382	14.3	93.0
2022-10-24T09:10	10	6	0.1	6	6	381	0.8	380	383	14.7	87.7
2022-10-24T09:11	10	6	0.1	6	7	381	0.3	380	382	14.9	82.8
2022-10-24T09:12	10	6	0.1	6	7	381	0.3	380	381	14.6	83.0
2022-10-24T09:13	10	6	0.1	6	6	380	0.3	380	381	14.4	84.2
2022-10-24T09:14	10	6	0.1	6	7	380	0.3	380	381	14.4	84.7
2022-10-24T09:15	10	7	0.2	6	7	380	0.3	379	381	14.5	84.5
2022-10-24T09:16	10	7	0.1	7	7	380	0.3	380	381	14.4	84.4
2022-10-24T09:17	10	7	0.1	7	7	380	0.4	379	381	14.3	85.4
2022-10-24T09:18	10	6	0.2	6	7	380	0.3	380	381	14.3	85.6
2022-10-24T09:19	10	5	0.3	5	6	380	0.3	379	380	14.3	85.3
2022-10-24T09:20	10	4	0.2	4	5	380	0.5	379	380	14.2	84.9
2022-10-24T09:21	10	3	0.2	3	4	380	0.3	379	380	14.1	85.7
2022-10-24T09:22	10	3	0.1	3	3	379	0.7	377	380	14.0	86.0
2022-10-24T09:23	10	2	0.1	2	3	379	0.4	378	380	13.9	85.9
2022-10-24T09:24	10	2	0.1	2	2	379	0.6	378	380	13.9	85.7
2022-10-24T09:25	10	2	0.1	1	2	379	0.5	377	380	13.8	86.1
2022-10-24T09:26	10	1	0.1	1	1	378	0.7	377	379	13.9	86.0
2022-10-24T09:27	10	1	0.1	1	1	378	0.7	376	379	13.9	85.3
2022-10-24T09:28	10	1	0.1	1	1	378	0.4	377	379	13.8	85.6
2022-10-24T09:29	10	1	0.1	1	1	378	0.7	376	378	13.7	85.9
2022-10-24T09:30	10	1	0.1	1	1	377	0.4	376	378	13.6	86.5
2022-10-24T09:31	10	1	0.1	1	1	377	0.3	376	378	13.5	87.2
2022-10-24T09:32	10	1	0.1	0	1	376	0.9	375	378	13.6	87.3
2022-10-24T09:33	10	1	0.1	1	1	376	0.6	375	377	13.3	87.9
2022-10-24T09:34	10	1	0.1	1	1	376	0.4	375	377	13.4	88.5
2022-10-24T09:35	10	1	0.1	1	1	376	1.2	374	378	13.6	87.8
2022-10-24T09:36	10	2	0.0	2	2	376	0.3	376	377	13.7	87.2
2022-10-24T09:37	10	2	0.1	2	2	377	0.6	375	378	13.6	86.9
2022-10-24T09:38	10	2	0.1	2	2	377	0.7	375	379	13.5	87.5
2022-10-24T09:39	10	2	0.1	1	2	376	0.5	375	377	13.6	87.7
2022-10-24T09:40	10	1	0.1	1	1	377	0.4	376	377	13.7	87.5
2022-10-24T09:41	10	1	0.1	1	1	377	0.4	376	377	13.6	87.5
2022-10-24T09:42	10	1	0.1	1	1	376	0.3	375	377	13.5	88.1
2022-10-24T09:43	10	1	0.1	1	1	376	1.7	373	378	13.4	89.0
2022-10-24T09:44	10	1	0.1	1	1	376	1.4	372	378	13.4	89.3
2022-10-24T09:45	10	0	0.1	0	0	378	2.7	373	382	13.7	88.5
2022-10-24T09:46	10	0	0.1	0	0	379	0.6	377	380	14.0	82.8
2022-10-24T09:47	10	0	0.1	-1	0	378	1.7	373	380	13.7	83.2
2022-10-24T09:48	10	0	0.1	-1	0	376	0.9	374	377	13.6	84.1
2022-10-24T09:49	10	0	0.1	-1	0	375	0.8	373	377	13.9	81.7
2022-10-24T09:50	10	-1	0.1	-1	0	375	0.9	374	377	14.0	79.6
2022-10-24T09:51	10	0	0.0	-1	0	374	1.7	372	377	13.6	81.2
2022-10-24T09:52	10	0	0.1	0	0	374	0.5	373	375	13.5	83.0
2022-10-24T09:53	10	0	0.1	0	0	375	0.4	374	375	13.6	83.5
2022-10-24T09:54	10	0	0.1	0	0	375	0.5	374	376	13.8	83.1
2022-10-24T09:55	10	0	0.1	0	0	375	0.3	374	375	13.7	83.4
2022-10-24T09:56	10	0	0.1	0	0	375	0.7	373	376	13.7	84.6
2022-10-24T09:57	10	1	0.1	1	1	375	0.6	374	376	13.5	86.5
2022-10-24T09:58	10	1	0.1	1	1	375	0.8	374	377	13.6	86.8
2022-10-24T09:59	10	1	0.1	1	1	375	0.6	375	377	13.6	87.5
2022-10-24T10:00	10	1	0.1	1	1	376	0.7	375	377	13.6	87.9
2022-10-24T10:01	10	1	0.1	1	1	376	0.3	375	377	13.6	88.2
2022-10-24T10:02	10	1	0.1	1	1	376	0.9	374	377	13.7	87.5
2022-10-24T10:03	10	1	0.1	1	1	376	0.7	374	377	13.7	86.7
2022-10-24T10:04	10	1	0.1	1	1	376	0.4	375	377	13.8	86.2
2022-10-24T10:05	10	1	0.1	1	1	376	0.5	375	377	13.7	86.5
2022-10-24T10:06	10	1	0.1	1	1	376	0.4	375	377	13.6	86.9
2022-10-24T10:07	10	1	0.1	1	1	376	0.5	375	377	13.7	86.7
2022-10-24T10:08	10	1	0.1	1	1	376	0.4	375	377	13.6	86.9
2022-10-24T10:09	10	1	0.1	1	1	376	0.7	375	378	13.6	87.2
2022-10-24T10:10	10	1	0.1	1	1	376	0.5	375	377	13.5	87.4
2022-10-24T10:11	10	1	0.1	1	1	376	0.5	375	377	13.5	87.3
2022-10-24T10:12	10	1	0.1	1	1	376	0.5	374	376	13.4	88.0
2022-10-24T10:13	10	1	0.1	1	1	376	0.6	374	376	13.4	88.1
2022-10-24T10:14	10	1	0.1	1	1	375	0.7	374	377	13.5	86.9
2022-10-24T10:15	10	1	0.1	1	1	375	0.4	375	376	13.5	86.6
2022-10-24T10:16	10	1	0.1	1	1	376	0.3	375	376	13.6	85.7
2022-10-24T10:17	10	1	0.1	1	2	375	0.3	375	376	13.6	85.3
2022-10-24T10:18	10	2	0.2	1	2	375	0.3	374	376	13.5	85.7
2022-10-24T10:19	10	2	0.1	2	2	375	0.3	374	376	13.4	86.0
2022-10-24T10:20	10	2	0.2	2	3	375	0.3	374	376	13.4	86.5
2022-10-24T10:21	10	3	0.2	3	4	375	0.8	373	377	13.4	86.3
2022-10-24T10:22	10	3	0.2	3	4	376	0.3	375	377	13.6	86.3
2022-10-24T10:23	10	4	0.2	4	5	376	0.6	375	377	13.6	86.3
2022-10-24T10:24	10	5	0.2	4	5	376	0.5	375	377	13.7	86.3
2022-10-24T10:25	10	6	0.2	5	6	376	0.6	375	377	13.7	86.3
2022-10-24T10:26	10	6	0.3	6	7	376	0.8	375	378	13.7	86.6
2022-10-24T10:27	10	7	0.3	7	8	376	0.4	376	377	13.5	87.3
2022-10-24T10:28	10	8	0.2	7	8	377	0.4	376	378	13.5	87.8
2022-10-24T10:29	10	9	0.2	8	9	377	0.4	376	378	13.5	88.1
2022-10-24T10:30	10	9	0.2	9	10	377	0.4	376	378	13.4	88.5
2022-10-24T10:31	10	9	0.1	9	9	378	0.3	377	378	13.5	88.6
2022-10-24T10:32	10	9	0.2	9	9	378	0.3	377	378	13.5	88.6
2022-10-24T10:33	10	9	0.2	9	10	378	0.5	377	379	13.5	88.4
2022-10-24T10:34	10	10	0.3	9	11	378	0.3	377	379	13.4	88.6
2022-10-24T10:35	10	11	0.3	10	11	378	0.3	378	379	13.4	89.0
2022-10-24T10:36	10	12	0.2	11	12	378	0.3	378	379	13.3	89.5
2022-10-24T10:37	10	12	0.2	11	12	379	0.3	378	379	13.2	90.2
2022-10-24T10:38	10	12	0.3	11	13	379	0.3	378	380	13.2	90.7
2022-10-24T10:39	10	13	0.2	12	13	379	0.3	378	380	13.2	90.9
2022-10-24T10:40	10	13	0.1	12	13	380	0.3	379	380	13.2	90.8
2022-10-24T10:41	10	13	0.1	12	13	380	0.3	379	380	13.2	90.8
2022-10-24T10:42	10	12	0.4	12	14	380	0.3	379	380	13.2	90.9
2022-10-24T10:43	10	12	0.1	12	12	380	0.3	379	381	13.2	91.0
2022-10-24T10:44	10	12	0.1	12	13	380	0.3	379	381	13.2	90.7
2022-10-24T10:45	10	12	0.1	12	13	380	0.4	379	381	13.2	90.8
2022-10-24T10:46	10	12	0.2	12	13	380	0.4	379	381	13.3	90.8
2022-10-24T10:47	10	13	0.1	12	13	381	0.3	380	382	13.3	90.8
2022-10-24T10:48	10	13	0.1	12	13	381	0.3	380	382	13.2	91.1
2022-10-24T10:49	10	12	0.1	12	13	381	0.4	380	382	13.3	90.9
2022-10-24T10:50	10	12	0.1	12	12	381	0.3	381	382	13.3	90.8
2022-10-24T10:51	10	12	0.2	11	12	381	0.6	380	382	13.3	90.9
2022-10-24T10:52	10	11	0.2	11	12	381	0.5	380	382	13.3	90.7
2022-10-24T10:53	10	11	0.2	11	12	381	0.3	380	382	13.3	90.6
2022-10-24T10:54	10	12	0.2	11	12	381	0.6	380	383	13.3	90.6
2022-10-24T10:55	10	12	0.1	12	12	381	0.4	380	382	13.3	90.9
2022-10-24T10:56	10	12	0.1	12	12	381	0.2	381	382	13.3	91.1
2022-10-24T10:57	10	12	0.2	12	12	382	0.2	381	382	13.3	91.7
2022-10-24T10:58	10	12	0.2	11	12	382	0.3	381	382	13.3	91.9
2022-10-24T10:59	10	11	0.1	11	12	382	0.2	381	382	13.3	91.4
2022-10-24T11:00	10	11	0.2	11	12	381	0.3	381	382	13.3	91.4
2022-10-24T11:01	10	12	0.4	12	13	381	0.3	380	382	13.3	92.2
2022-10-24T11:02	10	14	0.2	13	14	381	0.2	381	382	13.3	91.8
2022-10-24T11:03	10	13	0.3	13	14	382	0.2	381	382	13.2	92.3
2022-10-24T11:04	10	13	0.1	12	13	383	0.2	382	383	13.2	92.3
2022-10-24T11:05	10	12	0.2	12	13	383	0.2	382	383	13.3	92.2
2022-10-24T11:06	10	12	0.3	11	12	382	0.3	382	383	13.2	92.7
2022-10-24T11:07	10	11	0.3	10	11	382	0.3	381	383	13.2	92.3
2022-10-24T11:08	10	10	0.3	9	10	382	0.3	381	383	13.2	92.0
2022-10-24T11:09	10	9	0.3	8	9	382	0.2	381	382	13.3	90.9
2022-10-24T11:10	10	8	0.3	7	8	382	0.2	381	382	13.2	91.4
2022-10-24T11:11	10	7	0.2	7	7	381	0.2	381	382	13.1	93.1
2022-10-24T11:12	10	7	0.1	7	7	381	0.2	381	382	13.1	93.8
2022-10-24T11:13	10	7	0.1	7	7	381	0.2	381	382	13.1	94.1
2022-10-24T11:14	10	6	0.1	6	7	381	0.3	381	382	13.3	93.1
2022-10-24T11:15	10	6	0.1	6	6	381	0.2	381	382	13.2	93.3
2022-10-24T11:16	10	6	0.1	5	6	381	0.2	381	382	13.3	92.8
2022-10-24T11:17	10	5	0.2	5	5	381	0.2	381	382	13.4	91.7
2022-10-24T11:18	10	4	0.3	4	5	381	0.3	380	382	13.4	91.4
2022-10-24T11:19	10	4	0.2	3	4	381	0.2	381	381	13.5	91.2
2022-10-24T11:20	10	3	0.1	3	3	381	0.2	380	381	13.5	91.2
2022-10-24T11:21	10	3	0.1	3	3	381	0.2	381	382	13.5	91.4
2022-10-24T11:22	10	3	0.1	3	3	381	0.2	381	382	13.4	91.7
2022-10-24T11:23	10	3	0.1	3	3	381	0.3	380	382	13.4	91.8
2022-10-24T11:24	10	3	0.1	3	4	381	0.3	380	382	13.5	91.6
2022-10-24T11:25	10	4	0.1	3	4	381	0.4	380	382	13.5	91.4
2022-10-24T11:26	10	3	0.1	3	4	381	0.4	380	382	13.6	91.2
2022-10-24T11:27	10	3	0.1	3	3	381	0.4	380	382	13.6	90.9
2022-10-24T11:28	10	3	0.1	3	3	381	0.2	380	381	13.6	90.8
2022-10-24T11:29	10	2	0.1	2	3	380	0.2	380	381	13.4	91.4
2022-10-24T11:30	10	2	0.1	2	2	380	0.4	379	381	13.2	93.4
2022-10-24T11:31	10	2	0.1	2	2	380	0.2	380	380	13.2	94.3
2022-10-24T11:32	10	2	0.1	2	2	380	0.3	379	381	13.2	94.8
2022-10-24T11:33	10	2	0.1	1	2	380	0.3	379	380	13.1	95.3
2022-10-24T11:34	10	1	0.1	1	2	380	0.2	379	380	13.2	95.7
2022-10-24T11:35	10	1	0.1	1	1	379	0.5	378	380	13.2	96.0
2022-10-24T11:36	10	1	0.1	1	1	380	0.3	379	380	13.2	96.2
2022-10-24T11:37	10	1	0.1	1	1	379	0.3	379	380	13.2	96.3
2022-10-24T11:38	10	1	0.1	1	1	379	0.2	379	380	13.1	96.2
2022-10-24T11:39	10	1	0.1	1	1	379	0.2	378	379	13.1	96.1
2022-10-24T11:40	10	1	0.1	1	1	378	0.4	378	379	13.1	95.8
2022-10-24T11:41	10	1	0.1	1	1	378	0.2	378	379	13.1	95.6
2022-10-24T11:42	10	1	0.1	1	1	378	0.2	378	379	13.1	95.5
2022-10-24T11:43	10	1	0.1	1	1	378	0.3	377	379	13.1	95.4
2022-10-24T11:44	10	1	0.1	1	1	378	0.4	377	379	13.2	95.4
2022-10-24T11:45	10	1	0.1	1	1	378	0.3	378	379	13.2	95.2
2022-10-24T11:46	10	1	0.1	1	1	378	0.4	377	379	13.1	94.9
2022-10-24T11:47	10	1	0.1	1	1	378	0.3	377	379	13.1	94.8
2022-10-24T11:48	10	1	0.1	1	1	378	0.3	377	378	13.3	94.1
2022-10-24T11:49	10	1	0.1	1	1	378	0.2	377	378	13.2	93.6
2022-10-24T11:50	10	1	0.1	1	1	375	1.2	374	378	13.2	93.1
2022-10-24T11:51	10	1	0.1	1	1	375	0.3	375	376	13.1	93.9
2022-10-24T11:52	10	1	0.1	1	1	375	0.4	375	376	13.0	94.6
2022-10-24T11:53	10	1	0.1	1	1	376	0.4	375	376	13.0	95.3
2022-10-24T11:54	10	1	0.1	0	1	376	0.5	375	377	13.0	95.6
2022-10-24T11:55	10	0	0.1	0	1	376	0.3	375	376	12.9	96.0
2022-10-24T11:56	10	0	0.1	0	1	376	0.3	375	377	12.9	96.2
2022-10-24T11:57	10	0	0.1	0	0	376	0.3	376	377	13.0	95.9
2022-10-24T11:58	10	0	0.1	0	0	376	0.4	376	377	13.0	95.5
2022-10-24T11:59	10	0	0.1	0	1	377	0.3	376	377	12.9	95.6
2022-10-24T12:00	10	0	0.1	0	1	376	0.2	376	377	12.9	95.7
2022-10-24T12:01	10	1	0.1	0	1	377	0.3	376	377	13.0	95.7
2022-10-24T12:02	10	1	0.1	1	1	377	0.4	376	378	13.0	95.7
2022-10-24T12:03	10	1	0.1	1	1	377	0.4	376	378	12.9	95.8
2022-10-24T12:04	10	1	0.1	1	1	377	0.6	376	379	12.9	96.0
2022-10-24T12:05	10	1	0.1	1	1	377	0.7	376	379	13.0	96.0
2022-10-24T12:06	10	1	0.1	1	2	377	0.4	377	378	13.0	96.0
2022-10-24T12:07	10	1	0.1	1	2	378	0.4	377	378	13.1	96.1
2022-10-24T12:08	10	2	0.1	1	2	377	0.4	376	378	13.2	96.0
2022-10-24T12:09	10	2	0.1	1	2	377	0.3	377	378	13.1	96.0
2022-10-24T12:10	10	2	0.1	1	2	378	0.8	376	379	13.0	96.2
2022-10-24T12:11	10	2	0.1	1	2	378	1.1	376	379	13.2	96.2
2022-10-24T12:12	10	2	0.1	1	2	378	0.6	377	380	13.3	96.0
2022-10-24T12:13	10	2	0.1	1	2	378	0.4	377	379	13.3	95.6
2022-10-24T12:14	10	2	0.1	1	2	378	0.3	377	379	13.3	95.4
2022-10-24T12:15	10	2	0.1	1	2	378	0.6	377	379	13.2	95.4
2022-10-24T12:16	10	1	0.1	1	2	378	0.3	377	378	13.1	95.4
2022-10-24T12:17	10	1	0.1	1	1	377	0.3	376	378	12.9	95.4
2022-10-24T12:18	10	1	0.1	1	1	377	0.6	376	378	12.9	95.7
2022-10-24T12:19	10	1	0.0	1	1	377	0.9	375	378	13.0	95.9
2022-10-24T12:20	10	1	0.1	1	1	377	0.2	376	377	12.9	96.1
2022-10-24T12:21	10	1	0.1	1	1	377	0.3	376	377	12.8	96.2
2022-10-24T12:22	10	1	0.1	1	1	377	0.4	376	377	12.8	96.4
2022-10-24T12:23	10	1	0.1	1	1	376	0.3	376	377	12.8	96.6
2022-10-24T12:24	10	1	0.1	1	1	377	0.5	376	378	12.9	96.8
2022-10-24T12:25	10	1	0.1	1	1	377	0.4	376	378	13.1	96.7
2022-10-24T12:26	10	1	0.1	1	1	377	0.3	376	378	13.1	96.2
2022-10-24T12:27	10	1	0.1	1	1	377	0.3	377	378	13.2	95.4
2022-10-24T12:28	10	1	0.0	1	1	377	0.2	377	378	13.2	95.0
2022-10-24T12:29	10	1	0.1	1	1	377	0.2	377	378	13.3	94.6
2022-10-24T12:30	10	1	0.1	1	1	377	0.2	376	377	13.1	94.7
2022-10-24T12:31	10	1	0.1	1	1	377	0.4	376	378	13.1	95.0
2022-10-24T12:32	10	1	0.1	1	2	377	0.4	376	378	13.2	94.8
2022-10-24T12:33	10	2	0.1	1	2	377	0.3	376	378	13.3	94.0
2022-10-24T12:34	10	2	0.1	2	2	377	0.6	376	379	13.2	93.8
2022-10-24T12:35	10	2	0.1	1	2	377	0.3	376	378	13.2	93.7
2022-10-24T12:36	10	2	0.1	1	2	377	0.3	376	377	13.2	93.6
2022-10-24T12:37	10	1	0.1	1	2	377	0.3	376	378	13.1	93.9
2022-10-24T12:38	10	1	0.1	1	2	377	0.4	376	378	13.1	94.3
2022-10-24T12:39	10	1	0.1	1	1	377	0.2	376	377	13.0	94.6
2022-10-24T12:40	10	1	0.1	1	2	377	0.5	375	377	13.1	94.5
2022-10-24T12:41	10	1	0.1	1	1	376	0.3	376	377	13.1	94.4
2022-10-24T12:42	10	1	0.1	1	1	377	0.4	376	378	13.1	94.3
2022-10-24T12:43	10	1	0.1	1	2	377	0.5	376	378	13.1	94.0
2022-10-24T12:44	10	1	0.1	1	2	377	0.3	376	377	13.2	93.9
2022-10-24T12:45	10	2	0.1	1	2	377	0.5	376	378	13.2	93.5
2022-10-24T12:46	10	2	0.1	2	2	377	0.2	376	377	13.1	93.4
2022-10-24T12:47	10	2	0.1	2	2	376	0.3	376	377	13.0	93.7
2022-10-24T12:48	10	2	0.1	2	2	377	0.7	375	378	12.9	94.2
2022-10-24T12:49	10	2	0.2	2	3	377	0.2	376	377	12.9	94.6
2022-10-24T12:50	10	2	0.1	2	3	377	0.3	376	377	12.9	94.9
2022-10-24T12:51	10	3	0.2	3	3	377	0.3	376	377	12.9	95.3
2022-10-24T12:52	10	3	0.3	3	4	377	0.4	376	377	12.9	95.6
2022-10-24T12:53	10	5	0.4	4	6	377	0.3	376	377	12.9	95.8
2022-10-24T12:54	10	6	0.6	5	7	377	0.3	377	378	12.8	96.1
2022-10-24T12:55	10	9	0.7	7	10	378	0.3	377	378	12.9	96.4
2022-10-24T12:56	10	11	0.7	10	12	378	0.2	378	379	12.9	96.6
2022-10-24T12:57	10	14	0.8	12	15	379	0.4	378	379	12.9	96.7
2022-10-24T12:58	10	16	0.9	15	18	380	0.3	379	380	12.9	96.9
2022-10-24T12:59	10	20	1.0	18	21	380	0.4	380	381	12.9	97.1
2022-10-24T13:00	10	23	0.9	21	24	381	0.4	381	382	12.9	97.1
2022-10-24T13:01	10	26	0.8	24	27	382	0.4	381	383	12.9	97.2
2022-10-24T13:02	10	28	0.3	27	28	383	0.5	382	384	12.9	97.3
2022-10-24T13:03	10	27	0.6	26	28	384	0.3	384	385	12.9	97.3
2022-10-24T13:04	10	25	0.8	23	26	385	0.3	384	385	12.9	97.5
2022-10-24T13:05	10	22	0.8	20	23	385	0.3	385	386	13.0	97.6
2022-10-24T13:06	10	20	0.5	19	21	385	0.4	384	385	13.0	97.7
2022-10-24T13:07	10	18	0.5	18	19	384	0.3	384	385	13.0	97.7
2022-10-24T13:08	10	17	0.4	16	18	384	0.4	383	385	13.0	97.8
2022-10-24T13:09	10	16	0.2	16	17	383	0.4	382	384	13.0	97.8
2022-10-24T13:10	10	16	0.1	16	17	383	0.4	382	384	13.0	97.8
2022-10-24T13:11	10	16	0.1	16	17	383	0.3	382	384	13.0	97.8
2022-10-24T13:12	10	16	0.2	15	16	383	0.2	382	384	12.9	97.8
2022-10-24T13:13	10	15	0.2	15	16	383	0.3	382	383	12.9	97.8
2022-10-24T13:14	10	15	0.2	14	15	383	0.3	382	383	12.9	97.7
2022-10-24T13:15	10	14	0.4	13	15	383	0.2	382	383	13.0	97.7
2022-10-24T13:16	10	12	0.4	12	13	382	0.4	382	383	13.1	97.7
2022-10-24T13:17	10	11	0.4	10	12	382	0.3	381	383	13.0	97.7
2022-10-24T13:18	10	10	0.3	10	11	382	0.3	381	383	13.0	97.5
2022-10-24T13:19	10	10	0.1	10	10	382	0.2	381	382	13.0	97.4
2022-10-24T13:20	10	9	0.1	9	10	382	0.2	382	383	13.0	97.3
2022-10-24T13:21	10	9	0.1	9	10	382	0.3	381	383	13.1	97.3
2022-10-24T13:22	10	10	0.1	10	10	382	0.3	381	383	13.0	97.3
2022-10-24T13:23	10	10	0.2	10	10	382	0.2	382	383	13.0	97.1
2022-10-24T13:24	10	10	0.2	10	11	382	0.2	381	382	13.0	97.0
2022-10-24T13:25	10	11	0.1	10	11	382	0.2	381	382	13.0	97.0
2022-10-24T13:26	10	11	0.1	10	11	382	0.2	381	382	13.0	96.9
2022-10-24T13:27	10	11	0.1	10	11	381	0.2	381	382	13.0	96.9
2022-10-24T13:28	10	11	0.1	10	11	381	0.2	381	382	13.0	97.0
2022-10-24T13:29	10	10	0.1	10	10	382	0.2	381	382	13.0	97.0
2022-10-24T13:30	10	10	0.1	10	10	381	0.2	380	382	13.0	97.0
2022-10-24T13:31	10	10	0.1	10	10	382	0.2	381	382	13.0	97.1
2022-10-24T13:32	10	11	0.2	10	11	382	0.2	381	382	13.0	96.9
2022-10-24T13:33	10	11	0.1	11	11	382	0.2	381	382	13.0	96.8
2022-10-24T13:34	10	11	0.1	11	11	381	0.2	381	382	13.0	96.8
2022-10-24T13:35	10	11	0.1	11	11	382	0.2	381	382	13.0	96.9
2022-10-24T13:36	10	11	0.1	11	11	382	0.2	381	382	13.0	96.9
2022-10-24T13:37	10	11	0.1	11	11	382	0.2	381	382	13.0	97.0
2022-10-24T13:38	10	11	0.1	11	11	382	0.3	382	383	13.0	97.0
2022-10-24T13:39	10	11	0.1	11	11	382	0.2	382	383	13.0	96.9
2022-10-24T13:40	10	11	0.1	11	11	382	0.2	382	383	13.1	96.5
2022-10-24T13:41	10	12	0.1	11	12	382	0.2	382	383	13.1	96.0
2022-10-24T13:42	10	12	0.1	12	12	382	0.2	382	382	13.1	95.7
2022-10-24T13:43	10	12	0.1	12	12	382	0.2	382	383	13.1	95.9
2022-10-24T13:44	10	12	0.0	12	12	383	0.2	382	383	13.1	96.2
2022-10-24T13:45	10	12	0.1	12	12	383	0.2	383	384	13.1	96.4
2022-10-24T13:46	10	12	0.1	12	12	384	0.2	383	384	13.1	96.4
2022-10-24T13:47	10	12	0.2	12	12	384	0.3	383	384	13.1	96.5
2022-10-24T13:48	10	13	0.4	12	14	384	0.2	383	384	13.2	96.6
2022-10-24T13:49	10	15	0.5	14	16	384	0.2	384	384	13.2	96.7
2022-10-24T13:50	10	17	0.4	16	17	384	0.2	384	385	13.2	96.7
2022-10-24T13:51	10	18	0.3	17	18	385	0.2	384	385	13.2	96.6
2022-10-24T13:52	10	19	0.3	18	19	385	0.2	385	385	13.2	96.4
2022-10-24T13:53	10	20	0.4	19	21	386	0.2	385	386	13.3	96.3
2022-10-24T13:54	10	21	0.2	21	22	386	0.2	385	386	13.3	96.4
2022-10-24T13:55	10	22	0.3	22	23	386	0.3	385	386	13.3	96.2
2022-10-24T13:56	10	24	0.5	23	24	386	0.2	385	386	13.4	95.9
2022-10-24T13:57	10	25	0.3	24	25	386	0.3	385	386	13.4	95.5
2022-10-24T13:58	10	26	0.1	25	26	386	0.2	386	387	13.4	95.6
2022-10-24T13:59	10	25	0.4	24	26	386	0.2	386	387	13.4	95.7
2022-10-24T14:00	10	23	0.7	22	24	386	0.3	385	387	13.4	95.7
2022-10-24T14:01	10	21	0.9	19	22	386	0.3	385	386	13.4	95.9
2022-10-24T14:02	10	17	0.9	16	19	385	0.2	385	386	13.3	96.0
2022-10-24T14:03	10	15	0.6	14	16	386	0.3	385	386	13.4	96.4
2022-10-24T14:04	10	13	0.4	13	14	385	0.2	385	386	13.5	96.6
2022-10-24T14:05	10	12	0.2	12	13	385	0.5	384	386	13.4	96.6
2022-10-24T14:06	10	12	0.1	12	12	385	0.3	384	385	13.4	96.0
2022-10-24T14:07	10	12	0.1	12	13	384	0.3	384	385	13.5	95.6
2022-10-24T14:08	10	12	0.1	12	13	384	0.2	384	385	13.5	95.0
2022-10-24T14:09	10	12	0.2	12	12	384	0.2	384	385	13.4	94.5
2022-10-24T14:10	10	12	0.1	11	12	384	0.2	383	385	13.5	94.6
2022-10-24T14:11	10	12	0.4	12	13	384	0.4	383	385	13.5	94.8
2022-10-24T14:12	10	14	0.7	13	16	384	0.3	383	385	13.5	94.7
2022-10-24T14:13	10	17	0.9	16	19	385	0.7	384	386	13.5	94.9
2022-10-24T14:14	10	20	0.7	19	21	386	0.4	385	386	13.5	95.0
2022-10-24T14:15	10	22	0.3	21	22	386	0.3	385	387	13.5	95.0
2022-10-24T14:16	10	22	0.1	22	22	386	0.4	385	387	13.5	94.9
2022-10-24T14:17	10	23	0.3	22	23	387	0.3	386	388	13.5	94.9
2022-10-24T14:18	10	24	0.6	23	25	387	0.2	387	388	13.5	94.9
2022-10-24T14:19	10	26	0.3	25	26	388	0.3	387	388	13.5	95.0
2022-10-24T14:20	10	26	0.2	26	26	388	0.2	388	389	13.5	95.0
2022-10-24T14:21	10	25	0.1	25	26	388	0.4	387	389	13.5	95.0
2022-10-24T14:22	10	25	0.2	25	26	388	0.2	388	389	13.6	95.1
2022-10-24T14:23	10	26	0.3	26	27	389	0.7	387	389	13.6	95.1
2022-10-24T14:24	10	27	0.3	27	28	389	0.4	388	390	13.6	95.1
2022-10-24T14:25	10	28	0.2	27	28	389	0.2	389	390	13.6	95.0
2022-10-24T14:26	10	25	1.2	23	27	389	0.8	387	390	13.7	95.0
2022-10-24T14:27	10	21	1.1	20	23	388	0.8	386	389	13.6	94.9
2022-10-24T14:28	10	18	1.0	16	19	386	0.5	385	387	13.6	94.8
2022-10-24T14:29	10	15	0.7	14	16	385	0.3	385	386	13.6	94.9
2022-10-24T14:30	10	13	0.3	13	14	385	0.3	384	385	13.6	94.8
2022-10-24T14:31	10	13	0.1	13	13	384	0.2	384	385	13.6	94.7
2022-10-24T14:32	10	13	0.1	13	13	384	0.3	383	384	13.5	94.5
2022-10-24T14:33	10	14	0.4	13	15	383	0.2	383	384	13.5	94.1
2022-10-24T14:34	10	15	0.5	15	16	383	0.3	383	384	13.5	93.9
2022-10-24T14:35	10	17	0.4	16	18	384	0.4	383	385	13.5	93.6
2022-10-24T14:36	10	18	0.3	18	19	384	0.4	383	385	13.5	93.4
2022-10-24T14:37	10	19	0.1	19	19	384	0.4	384	385	13.6	93.5
2022-10-24T14:38	10	19	0.2	18	19	385	0.3	384	385	13.6	94.2
2022-10-24T14:39	10	17	0.5	16	18	384	0.3	384	385	13.5	94.4
2022-10-24T14:40	10	15	0.5	15	16	384	0.3	383	385	13.5	94.8
2022-10-24T14:41	10	14	0.5	13	15	384	0.3	383	384	13.5	95.0
2022-10-24T14:42	10	12	0.6	11	13	383	0.2	383	384	13.5	95.3
2022-10-24T14:43	10	10	0.6	9	11	383	0.3	383	384	13.5	95.2
2022-10-24T14:44	10	8	0.5	7	9	383	0.3	382	383	13.5	94.9
2022-10-24T14:45	10	7	0.3	6	7	383	0.3	382	383	13.5	94.8
2022-10-24T14:46	10	6	0.2	6	6	383	0.2	382	383	13.6	94.9
2022-10-24T14:47	10	6	0.1	5	6	383	0.2	382	383	13.6	95.1
2022-10-24T14:48	10	6	0.1	5	6	382	0.2	382	383	13.6	95.2
2022-10-24T14:49	10	6	0.2	6	7	382	0.3	381	383	13.6	95.2
2022-10-24T14:50	10	7	0.3	6	7	382	0.2	381	382	13.6	95.1
2022-10-24T14:51	10	8	0.3	7	9	382	0.2	381	382	13.5	95.4
2022-10-24T14:52	10	9	0.4	9	10	382	0.3	381	382	13.5	95.6
2022-10-24T14:53	10	10	0.3	10	11	382	0.2	381	382	13.4	95.7
2022-10-24T14:54	10	11	0.2	11	12	382	0.2	381	382	13.5	95.7
2022-10-24T14:55	10	12	0.1	11	12	382	0.2	381	382	13.4	96.0
2022-10-24T14:56	10	12	0.2	12	13	382	0.2	381	382	13.4	96.1
2022-10-24T14:57	10	13	0.5	13	14	382	0.2	381	382	13.4	96.0
2022-10-24T14:58	10	20	4.2	14	25	382	0.4	381	383	13.4	95.9
2022-10-24T14:59	10	22	1.0	20	23	382	0.2	382	383	13.4	96.0
2022-10-24T15:00	10	18	1.5	17	21	382	0.2	381	382	13.4	96.1
2022-10-24T15:01	10	16	0.1	16	17	382	0.2	381	382	13.4	96.2
2022-10-24T15:02	10	17	0.5	16	18	382	0.3	381	382	13.4	96.3
2022-10-24T15:03	10	22	4.9	18	36	382	0.5	381	383	13.4	96.4
2022-10-24T15:04	10	26	6.2	21	37	383	0.2	383	384	13.4	96.4
2022-10-24T15:05	10	23	0.7	22	24	384	0.3	383	384	13.5	95.9
2022-10-24T15:06	10	25	0.7	24	27	384	0.4	383	385	13.6	95.6
2022-10-24T15:07	10	27	0.1	27	27	385	0.4	384	386	13.6	95.6
2022-10-24T15:08	10	27	0.2	26	27	386	0.4	384	386	13.6	95.1
2022-10-24T15:09	10	25	0.5	24	26	386	0.5	385	387	13.7	94.4
2022-10-24T15:10	10	23	0.7	22	24	385	0.2	385	386	13.7	94.0
2022-10-24T15:11	10	21	0.7	20	22	385	0.3	384	385	13.7	93.6
2022-10-24T15:12	10	19	0.5	18	20	384	0.3	384	385	13.7	93.4
2022-10-24T15:13	10	17	0.4	16	18	384	0.3	383	384	13.7	93.1
2022-10-24T15:14	10	16	0.5	15	17	383	0.3	382	384	13.7	93.1
2022-10-24T15:15	10	14	0.5	13	15	383	0.2	382	383	13.7	93.0
2022-10-24T15:16	10	13	0.2	12	13	382	0.2	382	383	13.7	93.0
2022-10-24T15:17	10	12	0.1	12	13	382	0.3	382	383	13.7	93.1
2022-10-24T15:18	10	12	0.3	11	12	382	0.3	382	383	13.7	93.0
2022-10-24T15:19	10	11	0.4	10	11	382	0.3	381	383	13.7	93.0
2022-10-24T15:20	10	10	0.2	9	10	381	0.3	381	383	13.6	93.0
2022-10-24T15:21	10	9	0.3	8	9	381	0.5	380	382	13.6	93.1
2022-10-24T15:22	10	8	0.3	8	9	381	0.2	380	381	13.6	93.3
2022-10-24T15:23	10	7	0.1	7	8	381	0.3	380	381	13.7	93.0
2022-10-24T15:24	10	7	0.1	7	7	380	0.3	379	381	13.7	92.8
2022-10-24T15:25	10	7	0.1	7	8	380	0.3	379	381	13.6	92.9
2022-10-24T15:26	10	7	0.1	7	8	380	0.3	379	380	13.7	92.9
2022-10-24T15:27	10	8	0.3	7	8	380	0.3	380	381	13.7	92.9
2022-10-24T15:28	10	9	0.5	8	10	381	0.4	380	381	13.6	93.2
2022-10-24T15:29	10	11	0.4	10	11	381	0.3	380	382	13.7	93.3
2022-10-24T15:30	10	11	0.1	11	11	381	0.6	380	382	13.6	93.6
2022-10-24T15:31	10	10	0.5	9	11	381	0.2	381	382	13.6	93.6
2022-10-24T15:32	10	9	0.5	8	10	381	0.3	380	381	13.6	93.2
2022-10-24T15:33	10	7	0.3	6	8	381	0.3	380	381	13.6	93.0
2022-10-24T15:34	10	6	0.2	6	7	380	0.2	380	381	13.7	92.8
2022-10-24T15:35	10	6	0.1	5	6	380	0.6	379	381	13.7	92.5
2022-10-24T15:36	10	5	0.1	5	6	380	0.5	379	381	13.7	92.4
2022-10-24T15:37	10	5	0.1	5	5	380	0.4	379	381	13.6	92.5
2022-10-24T15:38	10	5	0.1	5	5	380	0.2	380	381	13.6	93.1
2022-10-24T15:39	10	5	0.1	4	5	380	0.2	380	381	13.6	93.3
2022-10-24T15:40	10	5	0.1	4	5	380	0.2	379	380	13.6	93.6
2022-10-24T15:41	10	4	0.1	4	5	380	0.2	379	380	13.6	93.7
2022-10-24T15:42	10	5	0.1	4	5	380	0.3	379	380	13.6	93.7
2022-10-24T15:43	10	5	0.1	5	5	380	0.6	379	381	13.6	93.6
2022-10-24T15:44	10	5	0.1	5	5	380	0.3	379	381	13.6	93.6
2022-10-24T15:45	10	5	0.4	5	8	380	0.5	379	381	13.6	93.9
2022-10-24T15:46	10	5	0.1	5	6	380	0.4	379	380	13.5	94.0
2022-10-24T15:47	10	5	0.2	5	6	380	0.4	379	381	13.5	94.1
2022-10-24T15:48	10	8	1.1	6	10	380	0.3	379	381	13.5	94.1
2022-10-24T15:49	10	9	0.9	7	10	380	0.3	379	380	13.5	94.2
2022-10-24T15:50	10	7	0.8	7	10	380	0.3	379	380	13.5	94.1
2022-10-24T15:51	10	11	0.4	10	11	380	0.4	379	381	13.6	93.4
2022-10-24T15:52	10	8	1.5	6	10	380	0.2	380	381	13.6	92.6
2022-10-24T15:53	10	5	0.2	5	6	380	0.4	380	381	13.6	92.2
2022-10-24T15:54	10	5	0.1	5	5	380	0.3	380	381	13.6	92.3
2022-10-24T15:55	10	5	0.1	4	5	380	0.2	379	380	13.6	92.7
2022-10-24T15:56	10	4	0.1	4	5	380	0.2	379	380	13.5	93.2
2022-10-24T15:57	10	5	0.1	4	5	380	0.3	379	380	13.5	93.7
2022-10-24T15:58	10	5	0.1	4	5	379	0.2	379	380	13.5	93.8
2022-10-24T15:59	10	5	0.1	5	5	379	0.2	379	380	13.5	93.9
2022-10-24T16:00	10	5	0.1	5	6	379	0.2	378	379	13.4	94.8
2022-10-24T16:01	10	5	0.2	5	5	379	0.2	378	379	13.3	95.6
2022-10-24T16:02	10	5	0.1	5	5	378	0.3	378	379	13.3	96.0
2022-10-24T16:03	10	5	0.1	4	5	378	0.3	378	379	13.3	96.2
2022-10-24T16:04	10	4	0.1	4	5	378	0.3	377	378	13.3	96.1
2022-10-24T16:05	10	4	0.1	4	4	378	0.2	377	379	13.3	96.1
2022-10-24T16:06	10	4	0.1	4	4	378	0.3	377	379	13.3	96.3
2022-10-24T16:07	10	4	0.1	3	4	378	0.3	377	378	13.3	96.4
2022-10-24T16:08	10	3	0.1	3	4	378	0.3	378	379	13.3	96.3
2022-10-24T16:09	10	3	0.1	3	3	378	0.2	378	379	13.4	96.0
2022-10-24T16:10	10	3	0.1	3	3	378	0.2	377	378	13.4	95.9
2022-10-24T16:11	10	3	0.1	3	3	378	0.2	377	378	13.3	96.0
2022-10-24T16:12	10	3	0.1	3	4	377	0.2	377	378	13.3	96.0
2022-10-24T16:13	10	4	0.1	3	4	377	0.3	376	377	13.3	96.0
2022-10-24T16:14	10	3	0.1	3	4	376	0.3	376	377	13.3	96.0
2022-10-24T16:15	10	3	0.2	3	3	375	0.4	374	376	13.3	96.0
2022-10-24T16:16	10	2	0.2	2	3	374	0.3	374	375	13.3	96.0
2022-10-24T16:17	10	2	0.1	2	2	373	0.4	373	374	13.3	95.9
2022-10-24T16:18	10	2	0.1	2	2	372	0.4	371	373	13.3	95.8
2022-10-24T16:19	10	2	0.1	2	2	371	0.4	370	371	13.2	95.9
2022-10-24T16:20	10	2	0.1	2	2	370	0.3	369	370	13.2	96.0
2022-10-24T16:21	10	2	0.1	2	2	369	0.3	368	369	13.2	96.1
2022-10-24T16:22	10	2	0.1	1	2	368	0.3	368	369	13.2	96.3
2022-10-24T16:23	10	2	0.1	1	2	368	0.3	368	369	13.2	96.4
2022-10-24T16:24	10	1	0.1	1	2	368	0.2	367	368	13.2	96.4
2022-10-24T16:25	10	1	0.1	1	2	368	0.3	368	369	13.2	96.3
2022-10-24T16:26	10	1	0.1	1	1	368	0.2	368	369	13.1	96.4
2022-10-24T16:27	10	1	0.1	1	1	368	0.3	368	369	13.1	96.4
2022-10-24T16:28	10	1	0.1	0	1	368	0.3	368	369	13.2	96.1
2022-10-24T16:29	10	0	0.1	0	1	368	0.2	367	369	13.3	95.5
2022-10-24T16:30	10	0	0.1	0	0	369	0.3	368	369	13.2	95.2
2022-10-24T16:31	10	0	0.1	0	0	369	0.2	368	370	13.2	94.9
2022-10-24T16:32	10	0	0.1	0	0	369	0.2	368	369	13.3	94.5
2022-10-24T16:33	10	0	0.1	0	0	368	0.3	367	368	13.3	94.4
2022-10-24T16:34	10	0	0.1	0	1	367	0.4	366	368	13.2	94.3
2022-10-24T16:35	10	0	0.1	0	1	367	0.3	366	367	13.2	94.3
2022-10-24T16:36	10	0	0.1	0	1	366	0.2	366	367	13.2	94.4
2022-10-24T16:37	10	0	0.1	0	1	366	0.2	365	366	13.1	94.7
2022-10-24T16:38	10	0	0.1	0	1	366	0.3	366	367	13.1	95.1
2022-10-24T16:39	10	0	0.1	0	1	367	0.5	366	368	13.2	95.5
2022-10-24T16:40	10	0	0.1	0	0	367	0.3	367	368	13.0	95.7
2022-10-24T16:41	10	0	0.1	0	0	368	0.3	367	368	12.8	95.8
2022-10-24T16:42	10	0	0.1	0	0	368	0.3	367	369	12.6	96.2
2022-10-24T16:43	10	0	0.1	0	0	368	0.2	368	369	12.6	96.7
2022-10-24T16:44	10	0	0.1	0	0	369	0.2	368	369	12.6	96.9
2022-10-24T16:45	10	0	0.1	0	0	369	0.1	368	369	12.8	97.1
2022-10-24T16:46	10	0	0.1	0	0	369	0.2	368	369	12.8	97.0
2022-10-24T16:47	10	0	0.1	0	0	369	0.2	369	370	12.8	96.8
2022-10-24T16:48	10	0	0.1	0	0	369	0.2	369	370	12.8	96.7
2022-10-24T16:49	10	0	0.1	0	0	369	0.2	369	370	12.8	96.6
2022-10-24T16:50	10	0	0.1	0	1	369	0.3	368	370	12.8	96.5
2022-10-24T16:51	10	0	0.1	0	1	369	0.4	368	370	12.8	96.4
2022-10-24T16:52	10	0	0.1	0	1	368	0.3	368	369	12.7	96.3
2022-10-24T16:53	10	0	0.1	0	1	368	0.3	367	368	12.7	96.3
2022-10-24T16:54	10	0	0.1	0	1	367	0.2	367	368	12.7	96.3
2022-10-24T16:55	10	0	0.0	0	0	367	0.2	367	368	12.7	96.4
2022-10-24T16:56	10	0	0.1	0	0	367	0.2	367	368	12.8	96.4
2022-10-24T16:57	10	0	0.1	0	0	368	0.2	367	368	12.8	96.3
2022-10-24T16:58	10	0	0.1	0	1	367	0.3	367	368	12.8	96.2
2022-10-24T16:59	10	0	0.1	0	0	367	0.2	366	367	12.8	96.1
2022-10-24T17:00	10	0	0.1	0	0	367	0.2	366	367	12.8	96.1
2022-10-24T17:01	10	0	0.1	0	0	367	0.3	366	367	12.9	96.1
2022-10-24T17:02	10	0	0.1	0	0	366	0.2	366	367	12.8	96.0
2022-10-24T17:03	10	0	0.1	0	0	366	0.2	366	367	12.8	95.9
2022-10-24T17:04	10	0	0.1	0	0	366	0.2	366	367	12.7	95.9
2022-10-24T17:05	10	0	0.1	0	0	366	0.2	366	367	12.8	96.0
2022-10-24T17:06	10	0	0.1	0	0	366	0.2	366	367	12.7	96.1
2022-10-24T17:07	10	0	0.1	0	1	366	0.2	366	367	12.7	96.2
2022-10-24T17:08	10	1	0.1	0	1	366	0.2	366	367	12.7	96.3
2022-10-24T17:09	10	1	0.1	0	1	366	0.2	366	367	12.6	96.4
2022-10-24T17:10	10	1	0.1	0	1	367	0.2	366	367	12.6	96.5
2022-10-24T17:11	10	1	0.1	0	1	366	0.3	366	367	12.6	96.6
2022-10-24T17:12	10	1	0.0	1	1	366	0.2	366	367	12.6	96.8
2022-10-24T17:13	10	1	0.1	0	1	366	0.2	366	367	12.5	96.9
2022-10-24T17:14	10	0	0.1	0	1	366	0.2	366	367	12.5	97.0
2022-10-24T17:15	10	0	0.1	0	0	366	0.3	366	367	12.5	97.1
2022-10-24T17:16	10	0	0.1	0	0	366	0.3	366	367	12.5	97.2
2022-10-24T17:17	10	0	0.1	0	0	366	0.2	366	366	12.5	97.3
2022-10-24T17:18	10	0	0.1	0	0	366	0.3	365	367	12.5	97.3
2022-10-24T17:19	10	0	0.1	0	0	366	0.2	365	366	12.5	97.3
2022-10-24T17:20	10	0	0.1	0	0	366	0.2	365	366	12.5	97.2
2022-10-24T17:21	10	0	0.1	0	0	365	0.3	365	366	12.5	97.0
2022-10-24T17:22	10	0	0.1	0	0	365	0.3	364	365	12.5	96.9
2022-10-24T17:23	10	0	0.1	-1	0	364	0.4	363	364	12.6	96.8
2022-10-24T17:24	10	0	0.1	-1	0	363	0.2	363	363	12.6	96.7
2022-10-24T17:25	10	0	0.1	-1	0	363	0.3	362	363	12.6	96.5
2022-10-24T17:26	10	0	0.1	0	0	363	0.2	362	363	12.7	96.3
2022-10-24T17:27	10	0	0.1	0	0	362	0.3	362	363	12.7	96.1
2022-10-24T17:28	10	0	0.1	0	0	363	0.2	362	363	12.8	95.8
2022-10-24T17:29	10	0	0.1	0	0	363	0.3	362	363	12.8	95.5
2022-10-24T17:30	10	0	0.1	0	0	363	0.3	363	364	12.8	95.3
2022-10-24T17:31	10	0	0.1	0	0	364	0.2	363	364	12.8	95.3
2022-10-24T17:32	10	0	0.1	0	0	364	0.3	363	365	12.6	95.2
2022-10-24T17:33	10	0	0.1	0	0	365	0.3	364	366	12.4	95.2
2022-10-24T17:34	10	0	0.1	0	0	366	0.4	365	367	12.3	95.5
2022-10-24T17:35	10	0	0.1	-1	0	366	0.3	366	367	12.2	95.7
2022-10-24T17:36	10	0	0.2	-1	0	366	0.4	365	366	12.3	96.0
2022-10-24T17:37	10	0	0.1	0	0	365	0.4	365	366	12.3	96.2
2022-10-24T17:38	10	0	0.2	-1	0	365	0.3	364	365	12.3	96.3
2022-10-24T17:39	10	0	0.2	0	1	364	0.2	364	364	12.2	96.3
2022-10-24T17:40	10	0	0.1	0	0	364	0.3	363	364	12.1	96.5
2022-10-24T17:41	10	0	0.1	0	0	364	0.2	363	364	12.2	96.8
2022-10-24T17:42	10	0	0.1	0	0	364	0.3	363	364	12.1	96.9
2022-10-24T17:43	10	0	0.2	0	1	364	0.3	363	365	12.1	97.0
2022-10-24T17:44	10	0	0.2	0	1	364	0.2	363	364	12.0	97.1
2022-10-24T17:45	10	0	0.1	0	1	364	0.2	364	365	12.0	97.2
2022-10-24T17:46	10	0	0.2	0	1	364	0.3	363	365	11.9	97.3
2022-10-24T17:47	10	0	0.1	0	1	364	0.3	363	365	11.9	97.5
2022-10-24T17:48	10	0	0.1	0	1	364	0.2	363	364	11.9	97.6
2022-10-24T17:49	10	0	0.2	0	1	363	0.3	363	364	11.8	97.7
2022-10-24T17:50	10	0	0.2	0	1	363	0.3	362	363	11.9	97.9
2022-10-24T17:51	10	0	0.1	0	1	362	0.4	361	363	11.8	98.0
2022-10-24T17:52	10	0	0.2	0	0	362	0.4	361	363	11.8	98.0
2022-10-24T17:53	10	0	0.2	-1	0	362	0.4	362	363	11.8	98.1
2022-10-24T17:54	10	-1	0.2	-1	0	364	0.6	362	365	11.8	98.3
2022-10-24T17:55	10	-1	0.1	-1	-1	365	0.3	364	366	11.9	98.3
2022-10-24T17:56	10	-1	0.1	-2	-1	366	0.5	365	367	11.9	98.5
2022-10-24T17:57	10	-1	0.1	-2	-1	367	0.5	366	368	11.9	98.5
2022-10-24T17:58	10	-1	0.1	-2	-1	367	0.4	367	368	11.9	98.6
2022-10-24T17:59	10	-1	0.2	-1	-1	368	0.5	367	369	11.9	98.7
2022-10-24T18:00	10	-1	0.1	-1	0	369	0.4	367	369	11.8	98.7
2022-10-24T18:01	10	-1	0.2	-1	0	369	0.3	368	369	11.9	98.8
2022-10-24T18:02	10	0	0.2	-1	0	369	0.5	368	370	11.9	98.9
2022-10-24T18:03	10	0	0.2	0	0	370	0.3	369	370	11.9	98.9
2022-10-24T18:04	10	0	0.1	0	0	370	0.3	369	370	11.9	99.0
2022-10-24T18:05	10	0	0.1	0	0	369	0.3	369	370	11.9	99.1
2022-10-24T18:06	10	0	0.2	-1	0	369	0.2	369	370	11.9	99.1
2022-10-24T18:07	10	0	0.2	-1	0	369	0.3	368	370	11.9	99.2
2022-10-24T18:08	10	-1	0.2	-1	0	369	0.2	368	369	11.9	99.2
2022-10-24T18:09	10	-1	0.1	-1	-1	368	0.3	368	369	11.8	99.2
2022-10-24T18:10	10	-1	0.1	-2	-1	368	0.3	367	368	11.8	99.2
2022-10-24T18:11	10	-2	0.1	-2	-1	367	0.4	366	368	11.7	99.2
2022-10-24T18:12	10	-2	0.1	-2	-1	366	0.2	366	367	11.6	99.2
2022-10-24T18:13	10	-2	0.1	-2	-2	366	0.3	365	366	11.5	99.2
2022-10-24T18:14	10	-2	0.1	-2	-2	365	0.2	365	366	11.6	99.2
2022-10-24T18:15	10	-2	0.1	-2	-2	366	0.2	365	366	11.6	99.2
2022-10-24T18:16	10	-2	0.1	-2	-2	366	0.3	365	366	11.6	99.2
2022-10-24T18:17	10	-2	0.1	-2	-2	366	0.5	365	367	11.6	99.2
2022-10-24T18:18	10	-2	0.1	-2	-2	366	0.3	366	367	11.6	99.2
2022-10-24T18:19	10	-2	0.1	-2	-2	367	0.3	366	367	11.6	99.2
2022-10-24T18:20	10	-2	0.1	-2	-1	367	0.3	366	367	11.6	99.2
2022-10-24T18:21	10	-2	0.1	-2	-2	367	0.2	366	367	11.6	99.2
2022-10-24T18:22	10	-2	0.1	-2	-1	366	0.2	366	367	11.7	99.2
2022-10-24T18:23	10	-1	0.1	-2	-1	367	0.2	366	367	11.6	99.2
2022-10-24T18:24	10	-1	0.2	-2	-1	366	0.3	366	367	11.7	99.2
2022-10-24T18:25	10	-1	0.1	-2	-1	366	0.3	365	367	11.7	99.2
2022-10-24T18:26	10	-1	0.1	-2	-1	366	0.2	365	366	11.7	99.2
2022-10-24T18:27	10	-1	0.1	-1	-1	366	0.2	365	366	11.6	99.2
2022-10-24T18:28	10	-1	0.1	-1	-1	365	0.3	364	366	11.7	99.2
2022-10-24T18:29	10	-1	0.1	-1	-1	364	0.3	363	365	11.6	99.2
2022-10-24T18:30	10	-1	0.2	-1	-1	364	0.4	363	365	11.6	99.2
2022-10-24T18:31	10	-1	0.1	-1	-1	363	0.3	362	363	11.7	99.2
2022-10-24T18:32	10	-1	0.1	-1	-1	362	0.3	361	363	11.6	99.2
2022-10-24T18:33	10	-1	0.1	-1	0	361	0.3	361	362	11.6	99.2
2022-10-24T18:34	10	-1	0.1	-1	0	361	0.2	361	362	11.6	99.2
2022-10-24T18:35	10	-1	0.1	-1	0	361	0.2	360	361	11.6	99.2
2022-10-24T18:36	10	-1	0.1	-1	0	361	0.2	360	361	11.7	99.2
2022-10-24T18:37	10	-1	0.1	-1	0	361	0.2	361	362	11.7	99.2
2022-10-24T18:38	10	-1	0.1	-1	0	361	0.2	360	361	11.7	99.2
2022-10-24T18:39	10	0	0.1	-1	0	361	0.3	360	361	11.6	99.2
2022-10-24T18:40	10	0	0.1	-1	0	361	0.3	360	361	11.6	99.2
2022-10-24T18:41	10	0	0.1	-1	0	361	0.2	360	361	11.6	99.2
2022-10-24T18:42	10	0	0.1	-1	0	360	0.2	360	361	11.6	99.2
2022-10-24T18:43	10	0	0.1	-1	0	361	0.2	360	361	11.6	99.2
2022-10-24T18:44	10	0	0.1	-1	0	360	0.2	360	361	11.6	99.2
2022-10-24T18:45	10	-1	0.1	-1	0	361	0.2	360	361	11.6	99.2
2022-10-24T18:46	10	-1	0.1	-1	-1	361	0.2	361	362	11.7	99.2
2022-10-24T18:47	10	-1	0.1	-1	-1	361	0.2	361	362	11.7	99.2
2022-10-24T18:48	10	-1	0.1	-1	-1	362	0.3	361	362	11.6	99.2
2022-10-24T18:49	10	-1	0.1	-1	-1	363	0.6	362	364	11.5	99.2
2022-10-24T18:50	10	-1	0.1	-2	-1	364	0.6	363	365	11.6	99.2
2022-10-24T18:51	10	-1	0.1	-2	-1	365	0.3	364	366	11.6	99.2
2022-10-24T18:52	10	-1	0.1	-2	-1	365	0.2	365	365	11.6	99.2
2022-10-24T18:53	10	-2	0.1	-2	-1	365	0.4	365	366	11.6	99.2
2022-10-24T18:54	10	-1	0.0	-2	-1	365	0.3	365	366	11.6	99.2
2022-10-24T18:55	10	-1	0.1	-2	-1	365	0.3	365	366	11.7	99.2
2022-10-24T18:56	10	-1	0.1	-2	-1	365	0.3	364	366	11.8	99.2
2022-10-24T18:57	10	-1	0.1	-1	-1	365	0.3	364	366	11.6	99.2
2022-10-24T18:58	10	-1	0.1	-1	-1	365	0.3	365	366	11.7	99.2
2022-10-24T18:59	10	-1	0.1	-1	-1	365	0.2	364	365	11.7	99.2
2022-10-24T19:00	10	-1	0.1	-1	-1	364	0.4	363	365	11.7	99.2
2022-10-24T19:01	10	-1	0.1	-1	-1	363	0.4	362	364	11.6	99.2
2022-10-24T19:02	10	-1	0.1	-1	-1	362	0.3	362	363	11.7	99.2
2022-10-24T19:03	10	-1	0.1	-1	-1	362	0.6	361	363	11.7	99.2
2022-10-24T19:04	10	-1	0.1	-1	-1	361	0.2	361	362	11.6	99.2
2022-10-24T19:05	10	-1	0.1	-1	-1	361	0.4	360	362	11.7	99.2
2022-10-24T19:06	10	-1	0.1	-1	-1	361	0.2	360	361	11.8	99.2
2022-10-24T19:07	10	-1	0.1	-1	-1	360	0.3	359	361	12.1	99.2
2022-10-24T19:08	10	-1	0.1	-1	-1	360	0.3	359	360	12.1	99.2
2022-10-24T19:09	10	-1	0.1	-1	-1	359	0.2	359	360	11.8	99.2
2022-10-24T19:10	10	-1	0.1	-1	-1	359	0.3	359	360	11.7	99.2
2022-10-24T19:11	10	-1	0.1	-1	-1	360	0.3	359	360	11.8	99.2
2022-10-24T19:12	10	-1	0.1	-1	-1	360	0.3	360	361	11.7	99.2
2022-10-24T19:13	10	-1	0.1	-1	-1	361	0.3	360	361	11.6	99.2
2022-10-24T19:14	10	-1	0.0	-1	-1	361	0.5	360	362	11.5	99.2
2022-10-24T19:15	10	-1	0.1	-2	-1	362	0.4	361	363	11.3	99.1
2022-10-24T19:16	10	-2	0.1	-2	-1	362	0.3	361	363	11.2	99.1
2022-10-24T19:17	10	-2	0.1	-2	-2	362	0.2	361	362	11.1	99.1
2022-10-24T19:18	10	-2	0.1	-2	-2	362	0.3	362	363	11.3	99.1
2022-10-24T19:19	10	-2	0.0	-2	-2	361	0.3	361	362	11.2	99.2
2022-10-24T19:20	10	-2	0.1	-2	-1	360	0.4	360	362	11.1	99.2
2022-10-24T19:21	10	-2	0.1	-2	-2	360	0.3	359	361	11.1	99.2
2022-10-24T19:22	10	-2	0.1	-2	-2	360	0.3	359	361	10.8	99.1
2022-10-24T19:23	10	-2	0.1	-2	-2	360	0.2	359	360	10.7	99.1
2022-10-24T19:24	10	-2	0.1	-2	-2	359	0.2	359	360	10.8	99.2
2022-10-24T19:25	10	-2	0.1	-2	-2	359	0.3	359	360	10.6	99.2
2022-10-24T19:26	10	-2	0.1	-2	-2	359	0.2	358	359	10.7	99.2
2022-10-24T19:27	10	-2	0.1	-2	-2	359	0.2	358	359	10.9	99.2
2022-10-24T19:28	10	-2	0.1	-2	-2	358	0.2	358	359	10.9	99.2
2022-10-24T19:29	10	-2	0.1	-2	-2	359	0.3	358	359	11.0	99.2
2022-10-24T19:30	10	-2	0.1	-2	-2	359	0.3	358	359	11.1	99.2
2022-10-24T19:31	10	-2	0.1	-2	-2	359	0.2	359	360	11.1	99.2
2022-10-24T19:32	10	-2	0.1	-2	-2	359	0.4	358	360	11.3	99.2
2022-10-24T19:33	10	-2	0.1	-2	-1	359	0.2	358	359	11.1	99.2
2022-10-24T19:34	10	-1	0.1	-2	-1	359	0.3	358	359	11.2	99.2
2022-10-24T19:35	10	-1	0.1	-1	-1	359	0.3	358	359	11.1	99.2
2022-10-24T19:36	10	-1	0.1	-1	-1	359	0.3	358	359	11.1	99.2
2022-10-24T19:37	10	-1	0.1	-1	-1	359	0.5	358	360	10.8	99.2
2022-10-24T19:38	10	-1	0.1	-1	-1	360	0.5	359	361	10.6	99.2
2022-10-24T19:39	10	-1	0.1	-1	-1	360	0.3	359	360	10.6	99.2
2022-10-24T19:40	10	-1	0.1	-2	-1	360	0.4	359	360	10.5	99.2
2022-10-24T19:41	10	-2	0.1	-2	-1	359	0.3	359	360	10.6	99.2
2022-10-24T19:42	10	-2	0.1	-2	-2	360	0.4	359	361	10.6	99.2
2022-10-24T19:43	10	-2	0.1	-2	-2	360	0.4	359	361	10.6	99.2
2022-10-24T19:44	10	-2	0.1	-2	-2	360	0.2	360	361	10.6	99.2
2022-10-24T19:45	10	-2	0.1	-2	-2	361	0.7	360	362	10.5	99.2
2022-10-24T19:46	10	-2	0.1	-2	-2	361	0.8	360	363	10.5	99.2
2022-10-24T19:47	10	-2	0.1	-2	-2	361	0.4	361	362	10.5	99.2
2022-10-24T19:48	10	-2	0.1	-2	-2	361	0.2	361	362	10.5	99.2
2022-10-24T19:49	10	-2	0.1	-2	-1	361	0.2	361	361	10.4	99.2
2022-10-24T19:50	10	-1	0.1	-2	-1	361	0.2	361	362	10.4	99.2
2022-10-24T19:51	10	-1	0.1	-1	-1	361	0.2	360	361	10.4	99.2
2022-10-24T19:52	10	-1	0.1	-1	-1	361	0.3	360	362	10.4	99.2
2022-10-24T19:53	10	-1	0.1	-1	0	361	0.4	360	362	10.5	99.2
2022-10-24T19:54	10	-1	0.1	-1	-1	361	0.6	360	362	10.5	99.2
2022-10-24T19:55	10	-1	0.1	-1	-1	361	0.4	361	362	10.5	99.2
2022-10-24T19:56	10	-1	0.1	-1	-1	361	0.5	360	362	10.5	99.2
2022-10-24T19:57	10	-1	0.1	-1	-1	360	0.3	359	361	10.5	99.2
2022-10-24T19:58	10	-1	0.1	-1	-1	360	0.3	359	360	10.5	99.2
2022-10-24T19:59	10	-1	0.1	-1	-1	359	0.2	359	360	10.5	99.2
2022-10-24T20:00	10	-1	0.1	-1	0	358	0.3	357	359	10.4	99.2
2022-10-24T20:01	10	-1	0.1	-1	-1	357	0.5	357	358	10.4	99.2
2022-10-24T20:02	10	-1	0.1	-1	0	357	0.3	357	358	10.4	99.2
2022-10-24T20:03	10	-1	0.1	-1	-1	357	0.2	357	357	10.3	99.2
2022-10-24T20:04	10	-1	0.1	-1	0	356	0.4	356	357	10.3	99.2
2022-10-24T20:05	10	-1	0.1	-1	0	356	0.6	355	358	10.4	99.2
2022-10-24T20:06	10	-1	0.1	-1	0	356	0.3	356	357	10.5	99.2
2022-10-24T20:07	10	-1	0.1	-1	-1	357	0.4	356	357	10.6	99.2
2022-10-24T20:08	10	-1	0.1	-1	-1	357	0.3	356	357	10.6	99.2
2022-10-24T20:09	10	-1	0.1	-2	-1	357	0.3	356	358	10.5	99.2
2022-10-24T20:10	10	-2	0.1	-2	-1	357	0.3	357	358	10.6	99.2
2022-10-24T20:11	10	-2	0.1	-2	-1	357	0.3	356	358	10.7	99.2
2022-10-24T20:12	10	-2	0.1	-2	-2	357	0.3	357	358	10.7	99.2
2022-10-24T20:13	10	-2	0.1	-2	-2	358	0.4	356	358	10.6	99.2
2022-10-24T20:14	10	-2	0.1	-2	-2	357	0.3	357	358	10.6	99.2
2022-10-24T20:15	10	-2	0.1	-2	-2	357	0.3	356	357	10.4	99.2
2022-10-24T20:16	10	-2	0.1	-3	-2	356	0.3	356	357	10.4	99.2
2022-10-24T20:17	10	-3	0.1	-3	-2	356	0.2	356	357	10.4	99.2
2022-10-24T20:18	10	-3	0.1	-3	-2	357	0.3	356	357	10.4	99.2
2022-10-24T20:19	10	-3	0.1	-3	-2	357	0.3	356	358	10.4	99.2
2022-10-24T20:20	10	-3	0.1	-3	-3	357	0.2	357	358	10.4	99.2
2022-10-24T20:21	10	-3	0.1	-3	-2	357	0.2	357	358	10.3	99.2
2022-10-24T20:22	10	-3	0.1	-3	-2	357	0.2	357	358	10.3	99.2
2022-10-24T20:23	10	-2	0.1	-3	-2	357	0.3	356	358	10.3	99.2
2022-10-24T20:24	10	-2	0.1	-2	-2	357	0.2	357	358	10.4	99.2
2022-10-24T20:25	10	-2	0.1	-2	-2	357	0.2	357	357	10.6	99.2
2022-10-24T20:26	10	-2	0.1	-2	-1	357	0.3	356	357	10.6	99.2
2022-10-24T20:27	10	-1	0.1	-1	-1	356	0.2	356	356	10.6	99.2
2022-10-24T20:28	10	-1	0.1	-1	-1	355	0.3	355	356	10.5	99.2
2022-10-24T20:29	10	-1	0.1	-1	-1	355	0.2	355	356	10.5	99.2
2022-10-24T20:30	10	-1	0.1	-1	-1	355	0.2	354	355	10.4	99.2
2022-10-24T20:31	10	-1	0.1	-1	0	355	0.4	354	356	10.3	99.2
2022-10-24T20:32	10	-1	0.1	-1	0	355	0.2	354	355	10.2	99.2
2022-10-24T20:33	10	0	0.1	-1	0	354	0.4	353	355	10.1	99.2
2022-10-24T20:34	10	-1	0.1	-1	0	354	0.3	353	354	10.1	99.2
2022-10-24T20:35	10	-1	0.2	-1	-1	355	0.2	354	355	10.2	99.2
2022-10-24T20:36	10	-1	0.1	-2	-1	355	0.3	354	356	10.3	99.2
2022-10-24T20:37	10	-2	0.1	-2	-2	354	0.4	353	355	10.2	99.2
2022-10-24T20:38	10	-2	0.1	-2	-2	354	0.4	353	354	10.3	99.2
2022-10-24T20:39	10	-2	0.1	-2	-2	353	0.2	353	354	10.3	99.2
2022-10-24T20:40	10	-2	0.1	-2	-2	353	0.4	352	353	10.4	99.2
2022-10-24T20:41	10	-2	0.1	-2	-2	353	0.7	352	354	10.4	99.2
2022-10-24T20:42	10	-2	0.1	-2	-2	353	0.3	352	354	10.4	99.2
2022-10-24T20:43	10	-2	0.1	-2	-2	353	0.5	352	354	10.4	99.2
2022-10-24T20:44	10	-2	0.1	-2	-2	353	0.3	352	354	10.5	99.2
2022-10-24T20:45	10	-2	0.1	-2	-2	353	0.2	352	353	10.5	99.2
2022-10-24T20:46	10	-2	0.1	-2	-2	353	0.3	352	353	10.5	99.2
2022-10-24T20:47	10	-2	0.1	-2	-2	353	0.3	353	354	10.5	99.2
2022-10-24T20:48	10	-2	0.1	-2	-2	353	0.3	353	354	10.5	99.2
2022-10-24T20:49	10	-2	0.1	-2	-2	354	0.3	353	354	10.4	99.2
2022-10-24T20:50	10	-2	0.1	-3	-2	354	0.8	353	355	10.4	99.2
2022-10-24T20:51	10	-2	0.1	-2	-2	353	0.2	353	353	10.3	99.2
2022-10-24T20:52	10	-2	0.1	-2	-2	352	0.2	352	352	10.3	99.2
2022-10-24T20:53	10	-2	0.1	-2	-1	352	0.3	351	352	10.2	99.2
2022-10-24T20:54	10	-1	0.1	-2	-1	352	0.2	352	352	10.1	99.2
2022-10-24T20:55	10	-1	0.1	-1	-1	352	0.2	351	352	10.1	99.2
2022-10-24T20:56	10	-1	0.1	-1	-1	352	0.2	352	353	10.0	99.2
2022-10-24T20:57	10	-1	0.1	-1	-1	352	0.3	351	352	10.0	99.2
2022-10-24T20:58	10	-1	0.1	-1	-1	352	0.2	352	353	10.1	99.2
2022-10-24T20:59	10	-1	0.1	-1	-1	352	0.2	352	353	10.1	99.2
2022-10-24T21:00	10	-1	0.1	-1	-1	352	0.2	352	353	10.1	99.2
2022-10-24T21:01	10	-1	0.1	-1	-1	352	0.2	351	352	10.1	99.2
2022-10-24T21:02	10	-1	0.1	-1	0	352	0.2	352	352	10.1	99.2
2022-10-24T21:03	10	-1	0.1	-1	0	353	0.4	352	354	10.1	99.2
2022-10-24T21:04	10	-1	0.1	-1	0	354	0.4	353	355	10.0	99.2
2022-10-24T21:05	10	-1	0.1	-1	0	355	0.2	354	355	9.9	99.2
2022-10-24T21:06	10	-1	0.1	-1	-1	355	0.2	355	356	9.8	99.2
2022-10-24T21:07	10	-1	0.1	-1	-1	355	0.1	355	355	9.8	99.2
2022-10-24T21:08	10	-1	0.1	-1	-1	355	0.2	354	355	9.8	99.2
2022-10-24T21:09	10	-1	0.1	-1	-1	354	0.3	354	355	9.8	99.2
2022-10-24T21:10	10	-1	0.1	-1	-1	354	0.3	353	355	9.8	99.2
2022-10-24T21:11	10	-1	0.1	-1	0	354	0.2	353	354	9.8	99.2
2022-10-24T21:12	10	0	0.1	-1	0	354	0.2	354	355	9.9	99.2
2022-10-24T21:13	10	0	0.1	-1	0	354	0.2	354	354	9.9	99.2
2022-10-24T21:14	10	0	0.1	0	0	354	0.3	354	355	9.9	99.2
2022-10-24T21:15	10	0	0.1	0	0	354	0.2	354	355	10.0	99.2
2022-10-24T21:16	10	0	0.1	0	0	354	0.2	354	354	10.0	99.2
2022-10-24T21:17	10	0	0.1	0	0	354	0.2	354	355	10.0	99.2
2022-10-24T21:18	10	0	0.1	0	0	355	0.3	354	355	10.1	99.2
2022-10-24T21:19	10	0	0.1	0	0	355	0.3	354	355	10.2	99.2
2022-10-24T21:20	10	0	0.1	-1	0	354	0.2	354	355	10.2	99.2
2022-10-24T21:21	10	0	0.1	-1	0	354	0.2	353	354	10.2	99.2
2022-10-24T21:22	10	0	0.1	0	0	353	0.3	353	354	10.2	99.2
2022-10-24T21:23	10	0	0.1	-1	0	353	0.2	353	354	10.2	99.2
2022-10-24T21:24	10	-1	0.1	-1	0	353	0.2	353	354	10.2	99.2
2022-10-24T21:25	10	-1	0.1	-1	0	353	0.3	353	354	10.2	99.2
2022-10-24T21:26	10	-1	0.1	-1	0	353	0.3	352	353	10.1	99.2
2022-10-24T21:27	10	0	0.1	-1	0	352	0.2	351	352	10.0	99.2
2022-10-24T21:28	10	0	0.1	-1	0	352	0.2	351	352	10.0	99.2
2022-10-24T21:29	10	0	0.1	-1	0	352	0.2	351	352	10.0	99.2
2022-10-24T21:30	10	0	0.1	0	0	352	0.2	351	352	10.0	99.2
2022-10-24T21:31	10	0	0.1	-1	0	352	0.3	351	353	10.0	99.2
2022-10-24T21:32	10	0	0.1	-1	0	352	0.4	352	353	10.1	99.2
2022-10-24T21:33	10	-1	0.1	-1	0	353	0.2	352	353	10.0	99.2
2022-10-24T21:34	10	-1	0.1	-1	0	352	0.3	351	353	10.0	99.2
2022-10-24T21:35	10	-1	0.1	-1	0	352	0.3	351	353	9.9	99.2
2022-10-24T21:36	10	-1	0.1	-1	0	352	0.3	351	352	9.9	99.2
2022-10-24T21:37	10	-1	0.1	-1	-1	352	0.4	351	353	9.9	99.2
2022-10-24T21:38	10	-1	0.2	-1	-1	352	0.2	352	353	10.0	99.2
2022-10-24T21:39	10	-2	0.1	-2	-1	352	0.2	352	352	9.8	99.2
2022-10-24T21:40	10	-2	0.2	-2	-1	351	0.3	351	352	9.8	99.2
2022-10-24T21:41	10	-2	0.2	-3	-1	351	0.3	350	352	9.8	99.2
2022-10-24T21:42	10	-2	0.1	-3	-2	352	0.4	350	352	9.8	99.2
2022-10-24T21:43	10	-2	0.1	-3	-2	352	0.2	351	352	9.9	99.2
2022-10-24T21:44	10	-3	0.1	-3	-2	351	0.2	351	352	9.9	99.2
2022-10-24T21:45	10	-3	0.1	-3	-2	351	0.2	351	352	9.9	99.2
2022-10-24T21:46	10	-2	0.1	-3	-2	351	0.5	350	352	9.8	99.2
2022-10-24T21:47	10	-2	0.2	-3	-2	350	0.3	349	351	9.7	99.2
2022-10-24T21:48	10	-2	0.1	-2	-2	350	0.2	349	350	9.8	99.2
2022-10-24T21:49	10	-2	0.1	-2	-1	350	0.3	349	350	9.8	99.2
2022-10-24T21:50	10	-1	0.1	-2	-1	350	0.2	349	350	9.8	99.2
2022-10-24T21:51	10	-1	0.2	-2	-1	350	0.2	349	351	9.8	99.2
2022-10-24T21:52	10	-1	0.1	-1	0	350	0.2	349	350	9.7	99.2
2022-10-24T21:53	10	-1	0.1	-1	0	349	0.3	349	350	9.8	99.2
2022-10-24T21:54	10	-1	0.2	-1	0	350	0.3	349	351	9.8	99.2
2022-10-24T21:55	10	-1	0.1	-1	0	350	0.2	350	351	9.9	99.2
2022-10-24T21:56	10	-1	0.2	-1	0	350	0.2	350	351	10.0	99.2
2022-10-24T21:57	10	-1	0.2	-1	0	350	0.5	349	351	10.0	99.2
2022-10-24T21:58	10	-1	0.1	-1	0	350	0.3	349	351	10.0	99.2
2022-10-24T21:59	10	-1	0.1	-1	0	350	0.2	349	350	10.0	99.2
2022-10-24T22:00	10	-1	0.1	-1	-1	350	0.2	349	350	10.0	99.2
2022-10-24T22:01	10	-1	0.2	-1	-1	350	0.5	349	351	10.0	99.2
2022-10-24T22:02	10	-1	0.1	-1	-1	350	0.3	349	351	10.0	99.2
2022-10-24T22:03	10	-1	0.2	-1	-1	350	0.5	349	351	10.0	99.2
2022-10-24T22:04	10	-1	0.2	-1	-1	350	0.3	350	351	9.9	99.2
2022-10-24T22:05	10	-1	0.2	-1	0	351	0.4	350	351	9.9	99.2
2022-10-24T22:06	10	-1	0.2	-1	0	351	0.4	350	352	9.8	99.2
2022-10-24T22:07	10	-1	0.1	-1	0	352	0.4	351	353	9.8	99.2
2022-10-24T22:08	10	-1	0.2	-1	0	353	0.4	352	354	9.8	99.2
2022-10-24T22:09	10	-1	0.2	-1	0	355	0.3	354	355	9.9	99.2
2022-10-24T22:10	10	-1	0.2	-2	-1	356	0.3	355	357	9.7	99.2
2022-10-24T22:11	10	-2	0.2	-2	-1	356	0.4	355	357	9.6	99.2
2022-10-24T22:12	10	-2	0.1	-3	-2	357	0.4	356	358	9.6	99.2
2022-10-24T22:13	10	-2	0.2	-3	-2	357	1.0	355	358	9.7	99.2
2022-10-24T22:14	10	-2	0.2	-3	-2	357	0.2	357	358	9.7	99.2
2022-10-24T22:15	10	-2	0.1	-2	-2	357	0.3	356	358	9.6	99.2
2022-10-24T22:16	10	-2	0.2	-2	-1	357	0.3	356	358	9.6	99.2
2022-10-24T22:17	10	-1	0.2	-2	-1	357	0.3	356	358	9.6	99.2
2022-10-24T22:18	10	-1	0.2	-1	-1	357	0.2	356	357	9.6	99.2
2022-10-24T22:19	10	-1	0.1	-1	0	357	0.3	356	358	9.6	99.2
2022-10-24T22:20	10	-1	0.1	-1	0	357	0.3	356	357	9.6	99.2
2022-10-24T22:21	10	-1	0.2	-1	0	356	0.3	356	357	9.6	99.2
2022-10-24T22:22	10	-1	0.2	-2	-1	356	0.3	355	357	9.6	99.2
2022-10-24T22:23	10	-2	0.2	-2	-1	355	0.3	355	356	9.6	99.2
2022-10-24T22:24	10	-2	0.2	-2	-2	356	0.3	355	356	9.6	99.2
2022-10-24T22:25	10	-2	0.1	-2	-2	355	0.2	354	356	9.4	99.2
2022-10-24T22:26	10	-2	0.1	-3	-2	355	0.3	354	355	9.4	99.2
2022-10-24T22:27	10	-2	0.1	-3	-2	355	0.2	354	355	9.5	99.2
2022-10-24T22:28	10	-2	0.1	-2	-2	355	0.2	354	355	9.4	99.2
2022-10-24T22:29	10	-2	0.1	-2	-2	355	0.2	354	355	9.2	99.2
2022-10-24T22:30	10	-2	0.1	-2	-2	355	0.2	355	356	9.2	99.2
2022-10-24T22:31	10	-2	0.1	-2	-2	356	0.3	355	356	9.2	99.2
2022-10-24T22:32	10	-2	0.1	-2	-2	356	0.5	355	357	9.2	99.2
2022-10-24T22:33	10	-2	0.1	-2	-2	357	0.3	357	358	9.5	99.2
2022-10-24T22:34	10	-2	0.1	-2	-2	358	0.3	357	359	9.8	99.2
2022-10-24T22:35	10	-2	0.1	-2	-2	359	0.4	358	359	10.0	99.2
2022-10-24T22:36	10	-2	0.1	-2	-2	359	0.4	358	360	10.3	99.2
2022-10-24T22:37	10	-2	0.1	-2	-2	359	0.3	358	359	9.5	99.2
2022-10-24T22:38	10	-2	0.1	-2	-2	360	0.2	359	360	9.8	99.2
2022-10-24T22:39	10	-2	0.1	-3	-2	360	0.3	359	360	9.8	99.2
2022-10-24T22:40	10	-2	0.1	-3	-2	360	0.2	359	360	9.9	99.2
2022-10-24T22:41	10	-2	0.1	-3	-2	360	0.4	359	360	9.9	99.2
2022-10-24T22:42	10	-2	0.1	-3	-2	359	0.2	359	359	9.9	99.2
2022-10-24T22:43	10	-2	0.1	-2	-2	358	0.4	357	359	9.7	99.2
2022-10-24T22:44	10	-2	0.1	-3	-2	357	0.3	356	358	9.7	99.2
2022-10-24T22:45	10	-2	0.1	-3	-2	356	0.3	355	357	9.7	99.2
2022-10-24T22:46	10	-2	0.1	-2	-2	356	0.3	355	356	9.7	99.2
2022-10-24T22:47	10	-2	0.1	-2	-2	355	0.3	354	356	10.0	99.2
2022-10-24T22:48	10	-2	0.1	-2	-2	354	0.2	354	355	9.9	99.2
2022-10-24T22:49	10	-2	0.1	-2	-2	355	0.2	354	355	9.7	99.2
2022-10-24T22:50	10	-2	0.1	-2	-2	355	0.2	354	355	9.6	99.2
2022-10-24T22:51	10	-2	0.1	-3	-2	355	0.4	354	356	9.6	99.2
2022-10-24T22:52	10	-3	0.1	-3	-2	356	0.3	355	356	9.7	99.2
2022-10-24T22:53	10	-3	0.1	-3	-2	356	0.2	356	356	9.9	99.2
2022-10-24T22:54	10	-3	0.1	-3	-2	356	0.2	356	356	9.9	99.2
2022-10-24T22:55	10	-2	0.1	-3	-2	356	0.2	356	357	10.0	99.2
2022-10-24T22:56	10	-2	0.1	-3	-2	356	0.3	355	356	10.0	99.2
2022-10-24T22:57	10	-2	0.1	-2	-2	355	0.3	354	356	9.8	99.2
2022-10-24T22:58	10	-2	0.1	-2	-1	355	0.3	354	355	9.8	99.2
2022-10-24T22:59	10	-1	0.1	-2	-1	355	0.3	354	355	10.0	99.2
2022-10-24T23:00	10	-1	0.1	-1	-1	354	0.3	354	355	10.1	99.2
2022-10-24T23:01	10	-1	0.1	-1	-1	354	0.2	353	354	10.1	99.2
2022-10-24T23:02	10	-1	0.1	-1	-1	354	0.2	353	354	10.4	99.2
2022-10-24T23:03	10	-1	0.1	-1	-1	354	0.2	353	354	10.6	99.2
2022-10-24T23:04	10	-1	0.1	-1	-1	353	0.3	353	354	10.6	99.2
2022-10-24T23:05	10	-1	0.1	-1	-1	353	0.3	353	354	10.6	99.2
2022-10-24T23:06	10	-1	0.1	-1	-1	353	0.2	353	354	10.7	99.2
2022-10-24T23:07	10	-1	0.1	-1	-1	353	0.3	352	354	10.9	99.2
2022-10-24T23:08	10	-1	0.1	-1	0	353	0.2	352	353	10.9	99.2
2022-10-24T23:09	10	-1	0.1	-1	0	352	0.3	352	353	10.8	99.2
2022-10-24T23:10	10	-1	0.1	-1	0	352	0.4	352	353	10.6	99.2
2022-10-24T23:11	10	0	0.1	-1	0	352	0.4	351	352	10.2	99.2
2022-10-24T23:12	10	0	0.1	-1	0	351	0.2	351	352	9.8	99.2
2022-10-24T23:13	10	0	0.1	-1	0	351	0.3	351	352	9.9	99.2
2022-10-24T23:14	10	0	0.1	-1	0	352	0.3	351	353	10.5	99.2
2022-10-24T23:15	10	0	0.1	-1	0	352	0.2	352	353	10.7	99.2
2022-10-24T23:16	10	0	0.1	-1	0	352	0.3	351	352	10.6	99.2
2022-10-24T23:17	10	0	0.1	-1	0	352	0.3	351	353	10.6	99.2
2022-10-24T23:18	10	0	0.1	-1	0	352	0.3	351	353	10.5	99.2
2022-10-24T23:19	10	0	0.1	-1	0	352	0.2	352	353	10.4	99.2
2022-10-24T23:20	10	0	0.1	-1	0	353	0.2	352	353	10.5	99.2
2022-10-24T23:21	10	0	0.1	-1	0	353	0.3	353	354	10.5	99.2
2022-10-24T23:22	10	-1	0.1	-1	0	354	0.3	353	354	10.6	99.2
2022-10-24T23:23	10	-1	0.1	-1	-1	354	0.2	354	355	10.7	99.2
2022-10-24T23:24	10	-1	0.1	-1	-1	355	0.2	354	355	10.8	99.2
2022-10-24T23:25	10	-1	0.1	-2	-1	354	0.2	354	355	10.9	99.2
2022-10-24T23:26	10	-1	0.1	-2	-1	354	0.2	354	355	11.0	99.2
2022-10-24T23:27	10	-1	0.1	-2	-1	355	0.2	354	356	11.2	99.2
2022-10-24T23:28	10	-1	0.1	-1	-1	355	0.2	354	355	11.2	99.2
2022-10-24T23:29	10	-1	0.1	-1	-1	354	0.4	354	355	11.1	99.2
2022-10-24T23:30	10	-1	0.0	-1	-1	353	0.8	352	355	10.5	99.2
2022-10-24T23:31	10	-1	0.1	-1	-1	354	0.5	353	355	10.0	99.2
2022-10-24T23:32	10	-1	0.1	-1	-1	354	0.4	353	355	10.5	99.2
2022-10-24T23:33	10	-1	0.1	-1	-1	355	0.3	354	355	10.8	99.2
2022-10-24T23:34	10	-1	0.1	-1	-1	353	0.8	352	354	10.2	99.0
2022-10-24T23:35	10	-1	0.1	-1	-1	354	0.3	353	354	10.3	98.9
2022-10-24T23:36	10	-1	0.1	-1	-1	354	0.3	354	355	10.6	99.0
2022-10-24T23:37	10	-1	0.1	-1	0	354	0.3	354	355	10.6	98.9
2022-10-24T23:38	10	-1	0.1	-1	0	355	0.3	354	355	10.2	98.7
2022-10-24T23:39	10	-1	0.1	-1	-1	355	0.2	354	355	10.3	98.7
2022-10-24T23:40	10	-1	0.1	-1	0	355	0.2	355	356	10.3	98.7
2022-10-24T23:41	10	-1	0.1	-1	-1	355	0.3	354	355	10.4	98.7
2022-10-24T23:42	10	-1	0.1	-1	-1	355	0.2	354	355	10.3	98.6
2022-10-24T23:43	10	-1	0.1	-1	-1	354	0.2	354	355	10.3	98.6
2022-10-24T23:44	10	-1	0.1	-1	-1	354	0.3	353	354	10.1	98.4
2022-10-24T23:45	10	-1	0.1	-1	-1	354	0.5	353	355	10.1	98.4
2022-10-24T23:46	10	-1	0.1	-1	-1	355	0.4	354	356	10.5	98.7
2022-10-24T23:47	10	-1	0.1	-2	-1	356	0.4	355	357	10.8	98.8
2022-10-24T23:48	10	-1	0.1	-2	-1	356	0.2	356	357	11.0	98.8
2022-10-24T23:49	10	-1	0.1	-2	-1	357	0.2	356	357	11.0	98.7
2022-10-24T23:50	10	-1	0.1	-2	-1	357	0.2	357	358	10.9	98.5
2022-10-24T23:51	10	-1	0.1	-1	-1	357	0.2	356	357	10.9	98.3
2022-10-24T23:52	10	-1	0.1	-1	-1	357	0.2	356	357	11.0	98.1
2022-10-24T23:53	10	-1	0.2	-1	0	356	0.3	356	357	11.0	97.8
2022-10-24T23:54	10	-1	0.1	-1	-1	356	0.3	355	357	10.9	97.4
2022-10-24T23:55	10	-1	0.2	-1	0	357	0.2	356	357	11.1	97.5
2022-10-24T23:56	10	-1	0.1	-2	-1	356	0.2	355	356	11.2	97.2
2022-10-24T23:57	10	-1	0.1	-2	-1	356	0.3	355	356	11.4	96.9
2022-10-24T23:58	10	-1	0.1	-2	-1	356	0.2	355	356	11.7	96.4
2022-10-24T23:59	10	-1	0.1	-2	-1	356	0.3	355	357	11.7	95.5
2022-10-25T00:00	10	-1	0.1	-1	-1	355	0.3	355	356	11.8	94.7
2022-10-25T00:01	10	-1	0.1	-1	-1	355	0.3	354	356	11.7	94.3
2022-10-25T00:02	10	-1	0.1	-1	-1	354	0.6	352	355	11.4	94.1
2022-10-25T00:03	10	-1	0.1	-1	-1	354	0.3	353	354	11.2	94.8
2022-10-25T00:04	10	-1	0.1	-1	-1	353	0.3	353	354	11.7	95.6
2022-10-25T00:05	10	-1	0.1	-1	-1	353	0.3	352	353	11.8	94.7
2022-10-25T00:06	10	-1	0.1	-1	-1	352	0.3	352	353	11.7	94.2
2022-10-25T00:07	10	-1	0.1	-1	-1	352	0.5	351	352	11.7	94.1
2022-10-25T00:08	10	-1	0.1	-1	-1	351	0.2	351	352	11.5	93.9
2022-10-25T00:09	10	-1	0.2	-1	0	351	0.5	350	352	11.4	94.2
2022-10-25T00:10	10	-1	0.1	-1	0	350	0.3	350	351	10.9	93.9
2022-10-25T00:11	10	-1	0.2	-1	0	351	0.7	349	352	10.6	94.3
2022-10-25T00:12	10	-1	0.2	-1	0	352	0.7	351	353	10.2	94.6
2022-10-25T00:13	10	-1	0.2	-2	-1	353	0.4	352	354	10.0	95.0
2022-10-25T00:14	10	-2	0.2	-2	-1	352	0.3	352	353	9.4	94.8
2022-10-25T00:15	10	-2	0.1	-3	-2	352	0.2	352	352	9.3	95.2
2022-10-25T00:16	10	-3	0.2	-3	-2	352	0.2	352	353	9.1	95.6
2022-10-25T00:17	10	-3	0.2	-3	-3	352	0.3	351	353	9.1	95.8
2022-10-25T00:18	10	-3	0.2	-4	-3	352	0.5	351	353	9.2	96.3
2022-10-25T00:19	10	-4	0.2	-4	-3	352	0.6	351	353	9.4	96.8
2022-10-25T00:20	10	-3	0.2	-4	-3	351	0.3	351	352	9.7	97.4
2022-10-25T00:21	10	-3	0.1	-3	-3	350	0.3	350	351	9.7	97.7
2022-10-25T00:22	10	-2	5.4	-3	27	350	0.3	349	351	9.5	97.7
2022-10-25T00:23	10	-3	0.1	-3	-2	350	0.2	350	351	9.4	97.8
2022-10-25T00:24	10	-3	0.2	-3	-2	350	0.3	349	350	9.4	97.9
2022-10-25T00:25	10	-2	0.1	-3	-2	349	0.3	348	350	9.4	98.1
2022-10-25T00:26	10	-2	0.1	-3	-2	349	0.3	348	349	9.4	98.2
2022-10-25T00:27	10	-2	0.2	-3	-2	349	0.2	348	350	9.5	98.4
2022-10-25T00:28	10	-3	0.2	-3	-2	349	0.3	348	350	9.5	98.5
2022-10-25T00:29	10	-3	0.1	-3	-2	349	0.3	348	349	9.4	98.6
2022-10-25T00:30	10	-3	0.1	-3	-2	349	0.2	348	350	9.3	98.6
2022-10-25T00:31	10	-2	0.2	-3	-2	349	0.3	348	350	9.3	98.6
2022-10-25T00:32	10	-2	0.1	-2	-2	349	0.2	348	349	9.4	98.7
2022-10-25T00:33	10	-2	0.1	-2	-2	349	0.5	348	350	9.6	98.8
2022-10-25T00:34	10	-2	0.1	-2	-1	350	0.3	349	351	9.7	99.0
2022-10-25T00:35	10	-2	0.1	-2	-2	351	0.3	350	352	10.0	99.1
2022-10-25T00:36	10	-2	0.1	-2	-2	352	0.3	351	352	10.1	99.2
2022-10-25T00:37	10	-2	0.1	-2	-2	352	0.3	352	353	10.0	99.2
2022-10-25T00:38	10	-2	0.1	-2	-2	352	0.3	351	353	9.9	99.2
2022-10-25T00:39	10	-2	0.1	-3	-2	353	0.2	352	353	9.8	99.2
2022-10-25T00:40	10	-3	0.2	-3	-2	353	0.2	352	353	9.7	99.1
2022-10-25T00:41	10	-3	0.1	-3	-2	353	0.2	352	353	9.6	99.1
2022-10-25T00:42	10	-3	0.1	-3	-3	353	0.3	352	354	9.8	99.1
2022-10-25T00:43	10	-3	0.1	-3	-3	353	0.3	352	354	9.8	99.1
2022-10-25T00:44	10	-3	0.1	-3	-3	354	0.4	353	355	9.7	99.1
2022-10-25T00:45	10	-3	0.1	-3	-3	355	0.3	354	355	9.6	99.1
2022-10-25T00:46	10	-3	0.2	-3	-2	355	0.3	354	355	9.7	99.1
2022-10-25T00:47	10	-3	0.1	-3	-3	355	0.3	354	356	9.7	99.1
2022-10-25T00:48	10	-3	0.1	-3	-3	355	0.3	354	356	9.7	99.1
2022-10-25T00:49	10	-3	0.1	-3	-2	355	0.2	354	355	9.9	99.2
2022-10-25T00:50	10	-3	0.1	-3	-2	355	0.3	354	356	10.0	99.2
2022-10-25T00:51	10	-3	0.1	-3	-2	355	0.2	355	356	10.1	99.2
2022-10-25T00:52	10	-2	0.1	-3	-2	355	0.3	354	355	10.1	99.2
2022-10-25T00:53	10	-2	0.1	-2	-2	355	0.2	354	355	10.2	99.2
2022-10-25T00:54	10	-2	0.1	-2	-2	354	0.3	353	355	10.2	99.2
2022-10-25T00:55	10	-2	0.1	-2	-2	354	0.2	353	354	10.1	99.1
2022-10-25T00:56	10	-2	0.1	-2	-1	354	0.2	353	354	10.3	99.1
2022-10-25T00:57	10	-1	0.1	-1	-1	354	0.2	354	355	10.4	99.1
2022-10-25T00:58	10	-1	0.1	-1	-1	354	0.6	352	355	10.3	99.1
2022-10-25T00:59	10	-1	0.1	-1	0	353	0.7	352	355	9.6	98.9
2022-10-25T01:00	10	-1	0.2	-1	-1	354	0.3	353	354	9.5	98.8
2022-10-25T01:01	10	-2	0.2	-2	-1	354	0.3	353	355	9.5	98.7
2022-10-25T01:02	10	-2	0.2	-2	-2	354	0.4	353	355	9.7	98.7
2022-10-25T01:03	10	-2	0.1	-3	-2	354	0.3	353	355	9.8	98.7
2022-10-25T01:04	10	-2	0.1	-3	-2	354	0.2	353	354	9.5	98.7
2022-10-25T01:05	10	-2	0.1	-3	-2	353	0.9	352	355	9.4	98.6
2022-10-25T01:06	10	-2	0.1	-2	-2	353	0.3	353	354	9.3	98.5
2022-10-25T01:07	10	-2	0.1	-3	-2	354	0.2	353	354	9.1	98.5
2022-10-25T01:08	10	-3	0.1	-3	-3	354	0.4	354	355	9.1	98.6
2022-10-25T01:09	10	-3	0.1	-3	-3	355	0.5	354	356	9.1	98.6
2022-10-25T01:10	10	-3	0.1	-3	-3	355	0.3	354	356	9.1	98.6
2022-10-25T01:11	10	-3	0.1	-3	-2	355	0.2	354	355	9.1	98.7
2022-10-25T01:12	10	-2	0.2	-3	-2	354	0.2	354	355	9.1	98.7
2022-10-25T01:13	10	-2	0.1	-2	-2	354	0.3	353	354	9.2	98.8
2022-10-25T01:14	10	-2	0.1	-2	-2	354	0.3	353	354	9.2	98.9
2022-10-25T01:15	10	-2	0.1	-2	-2	354	0.3	353	355	9.2	98.9
2022-10-25T01:16	10	-2	0.1	-2	-2	354	0.2	354	355	9.1	99.0
2022-10-25T01:17	10	-3	0.2	-3	-2	355	0.4	354	355	9.1	99.0
2022-10-25T01:18	10	-3	0.2	-3	-3	355	0.4	355	356	9.2	99.1
2022-10-25T01:19	10	-3	0.1	-4	-3	356	0.2	356	356	9.2	99.1
2022-10-25T01:20	10	-3	0.1	-4	-3	356	0.3	355	357	9.1	99.1
2022-10-25T01:21	10	-3	0.1	-4	-3	356	0.4	355	357	9.1	99.1
2022-10-25T01:22	10	-3	0.1	-4	-3	356	0.3	356	357	9.1	99.2
2022-10-25T01:23	10	-3	0.1	-4	-3	357	0.2	356	357	9.1	99.2
2022-10-25T01:24	10	-3	0.1	-4	-3	356	0.2	356	357	9.1	99.2
2022-10-25T01:25	10	-3	0.1	-4	-3	357	0.3	356	357	9.1	99.2
2022-10-25T01:26	10	-3	0.1	-3	-3	357	0.2	357	358	9.1	99.2
2022-10-25T01:27	10	-3	0.1	-3	-3	357	0.3	357	358	9.2	99.2
2022-10-25T01:28	10	-3	0.1	-4	-3	358	0.2	357	358	9.3	99.2
2022-10-25T01:29	10	-3	0.1	-3	-3	358	0.3	357	358	9.3	99.2
2022-10-25T01:30	10	-3	0.1	-3	-3	358	0.4	357	359	9.3	99.2
2022-10-25T01:31	10	-3	0.1	-3	-3	358	0.2	357	358	9.3	99.2
2022-10-25T01:32	10	-3	0.1	-3	-2	358	0.2	357	358	9.3	99.2
2022-10-25T01:33	10	-2	0.1	-3	-2	358	0.2	357	358	9.4	99.2
2022-10-25T01:34	10	-2	0.1	-2	-2	358	0.2	357	358	9.4	99.2
2022-10-25T01:35	10	-2	0.1	-2	-2	358	0.2	357	358	9.4	99.2
2022-10-25T01:36	10	-2	0.1	-2	-1	357	0.4	357	358	9.3	99.2
2022-10-25T01:37	10	-1	0.1	-2	-1	356	0.4	356	357	9.3	99.2
2022-10-25T01:38	10	-1	0.1	-1	-1	356	0.3	355	357	9.3	99.2
2022-10-25T01:39	10	-1	0.1	-1	-1	355	0.3	355	356	9.3	99.2
2022-10-25T01:40	10	-1	0.1	-1	-1	355	0.3	354	355	9.3	99.2
2022-10-25T01:41	10	-1	0.1	-1	-1	354	0.2	354	355	9.3	99.2
2022-10-25T01:42	10	-1	0.1	-1	-1	354	0.2	354	355	9.3	99.2
2022-10-25T01:43	10	-1	0.0	-1	-1	355	0.3	354	355	9.3	99.2
2022-10-25T01:44	10	-1	0.1	-1	-1	354	0.2	354	355	9.3	99.2
2022-10-25T01:45	10	-1	0.1	-1	-1	354	0.2	354	355	9.3	99.2
2022-10-25T01:46	10	-1	0.1	-1	-1	354	0.3	353	354	9.3	99.2
2022-10-25T01:47	10	-1	0.1	-1	-1	354	0.3	353	354	9.3	99.2
2022-10-25T01:48	10	-1	0.1	-1	-1	353	0.3	352	354	9.3	99.2
2022-10-25T01:49	10	-1	0.1	-1	-1	353	0.2	352	353	9.4	99.2
2022-10-25T01:50	10	-1	0.0	-1	-1	353	0.2	352	353	9.5	99.2
2022-10-25T01:51	10	-1	0.1	-1	-1	352	0.3	352	353	9.5	99.2
2022-10-25T01:52	10	-1	0.1	-1	-1	352	0.3	351	352	9.4	99.2
2022-10-25T01:53	10	-1	0.1	-1	-1	351	0.4	350	352	9.3	99.2
2022-10-25T01:54	10	-1	0.1	-1	-1	351	0.4	350	352	9.4	99.2
2022-10-25T01:55	10	-1	0.1	-1	-1	351	0.3	350	352	9.4	99.2
2022-10-25T01:56	10	-1	0.1	-1	-1	351	0.2	351	352	9.6	99.2
2022-10-25T01:57	10	-1	0.1	-1	-1	351	0.4	351	352	9.6	99.2
2022-10-25T01:58	10	-1	0.1	-1	-1	352	0.5	351	353	9.3	99.2
2022-10-25T01:59	10	-1	0.1	-2	-1	352	0.5	351	353	9.3	99.2
2022-10-25T02:00	10	-1	0.1	-2	-1	353	0.3	352	353	9.4	99.2
2022-10-25T02:01	10	-2	0.1	-2	-1	352	0.3	351	353	9.3	99.2
2022-10-25T02:02	10	-2	0.1	-2	-1	352	0.3	352	353	9.2	99.2
2022-10-25T02:03	10	-2	0.1	-2	-2	352	0.2	352	353	9.3	99.2
2022-10-25T02:04	10	-2	0.0	-2	-2	352	0.3	352	353	9.3	99.2
2022-10-25T02:05	10	-2	0.1	-2	-2	352	0.2	352	353	9.2	99.2
2022-10-25T02:06	10	-2	0.1	-2	-2	352	0.3	352	353	9.2	99.2
2022-10-25T02:07	10	-2	0.1	-2	-2	353	0.5	352	354	9.4	99.2
2022-10-25T02:08	10	-2	0.1	-2	-1	353	0.4	352	353	9.5	99.2
2022-10-25T02:09	10	-1	0.1	-1	-1	352	0.5	351	353	9.2	99.2
2022-10-25T02:10	10	-1	0.1	-1	-1	352	0.4	352	353	9.2	99.2
2022-10-25T02:11	10	-1	0.1	-1	-1	353	0.3	352	354	9.4	99.2
2022-10-25T02:12	10	-1	0.1	-1	-1	353	0.2	353	354	9.5	99.2
2022-10-25T02:13	10	-1	0.1	-2	-1	353	0.2	353	354	9.4	99.2
2022-10-25T02:14	10	-2	0.1	-2	-1	354	0.3	353	355	9.3	99.2
2022-10-25T02:15	10	-2	0.1	-2	-2	354	0.2	354	355	9.5	99.2
2022-10-25T02:16	10	-2	0.1	-2	-2	355	0.2	354	355	9.5	99.2
2022-10-25T02:17	10	-2	0.1	-2	-2	354	0.4	353	354	9.4	99.2
2022-10-25T02:18	10	-2	0.1	-2	-2	353	0.3	353	354	9.5	99.2
2022-10-25T02:19	10	-2	0.1	-2	-2	353	0.3	352	353	9.6	99.2
2022-10-25T02:20	10	-2	0.1	-2	-1	352	0.2	352	353	9.6	99.2
2022-10-25T02:21	10	-1	0.1	-2	-1	352	0.2	351	353	9.8	99.2
2022-10-25T02:22	10	-1	0.1	-1	-1	352	0.3	351	352	9.8	99.2
2022-10-25T02:23	10	-1	0.1	-1	-1	352	0.2	352	352	9.9	99.2
2022-10-25T02:24	10	-1	0.1	-1	-1	352	0.2	352	353	10.0	99.2
2022-10-25T02:25	10	-1	0.1	-1	0	353	0.2	352	353	10.2	99.2
2022-10-25T02:26	10	-1	0.1	-1	0	353	0.2	352	353	10.3	99.2
2022-10-25T02:27	10	0	0.1	-1	0	353	0.2	352	353	10.3	99.2
2022-10-25T02:28	10	0	0.1	0	0	352	0.3	352	353	10.1	99.2
2022-10-25T02:29	10	0	0.1	0	0	353	0.2	352	353	10.0	99.2
2022-10-25T02:30	10	0	0.1	0	0	353	0.2	352	353	10.0	99.2
2022-10-25T02:31	10	0	0.1	0	0	353	0.2	352	353	10.0	99.2
2022-10-25T02:32	10	0	0.1	0	0	353	0.2	353	353	10.0	99.2
2022-10-25T02:33	10	0	0.1	0	0	353	0.3	353	354	9.9	99.2
2022-10-25T02:34	10	0	0.1	0	0	354	0.3	353	354	9.9	99.2
2022-10-25T02:35	10	0	0.1	-1	0	354	0.3	353	354	9.8	99.2
2022-10-25T02:36	10	-1	0.1	-1	0	354	0.3	353	354	9.7	99.2
2022-10-25T02:37	10	0	0.1	-1	0	353	0.3	353	354	9.8	99.2
2022-10-25T02:38	10	0	0.1	-1	0	353	0.2	353	354	9.7	99.2
2022-10-25T02:39	10	-1	0.1	-1	0	353	0.3	352	354	9.6	99.2
2022-10-25T02:40	10	-1	0.1	-1	-1	352	0.3	352	353	9.6	99.2
2022-10-25T02:41	10	-1	0.1	-1	-1	352	0.4	351	352	9.7	99.2
2022-10-25T02:42	10	-1	0.1	-1	-1	351	0.2	351	352	9.6	99.2
2022-10-25T02:43	10	-1	0.1	-1	-1	351	0.3	350	351	9.5	99.2
2022-10-25T02:44	10	-1	0.1	-2	-1	351	0.3	350	351	9.4	99.2
2022-10-25T02:45	10	-2	0.1	-2	-1	351	0.2	350	351	9.4	99.2
2022-10-25T02:46	10	-2	0.1	-2	-2	350	0.3	350	351	9.5	99.2
2022-10-25T02:47	10	-2	0.1	-2	-2	350	0.2	349	350	9.4	99.2
2022-10-25T02:48	10	-2	0.1	-2	-2	350	0.3	349	350	9.4	99.2
2022-10-25T02:49	10	-2	0.1	-2	-2	350	0.3	349	351	9.5	99.2
2022-10-25T02:50	10	-2	0.0	-2	-2	350	0.2	350	351	9.7	99.2
2022-10-25T02:51	10	-2	0.1	-2	-2	350	0.3	349	351	9.9	99.2
2022-10-25T02:52	10	-2	0.1	-2	-2	349	0.4	348	350	9.5	99.2
2022-10-25T02:53	10	-2	0.1	-2	-1	349	0.2	348	349	9.3	99.2
2022-10-25T02:54	10	-2	0.1	-2	-1	349	0.2	349	350	9.5	99.2
2022-10-25T02:55	10	-2	0.1	-2	-1	349	0.3	349	350	9.6	99.2
2022-10-25T02:56	10	-2	0.1	-2	-1	350	0.3	349	351	9.8	99.2
2022-10-25T02:57	10	-2	0.1	-2	-1	350	0.2	350	350	9.9	99.2
2022-10-25T02:58	10	-1	0.1	-2	-1	350	0.3	350	351	9.9	99.2
2022-10-25T02:59	10	-1	0.1	-2	-1	350	0.2	349	350	9.8	99.2
2022-10-25T03:00	10	-1	0.1	-2	-1	351	0.3	350	351	9.7	99.2
2022-10-25T03:01	10	-1	0.1	-1	-1	351	0.3	350	352	9.4	99.2
2022-10-25T03:02	10	-1	0.1	-1	-1	352	0.3	351	353	9.5	99.2
2022-10-25T03:03	10	-1	0.1	-1	-1	353	0.5	352	354	9.6	99.2
2022-10-25T03:04	10	-1	0.1	-2	-1	354	0.2	353	354	9.7	99.2
2022-10-25T03:05	10	-1	0.1	-2	-1	355	0.3	354	355	9.8	99.2
2022-10-25T03:06	10	-1	0.1	-1	-1	355	0.3	354	356	9.7	99.2
2022-10-25T03:07	10	-1	0.1	-1	-1	355	0.3	354	356	9.6	99.2
2022-10-25T03:08	10	-1	0.1	-1	-1	356	0.3	355	356	9.6	99.2
2022-10-25T03:09	10	-1	0.1	-1	-1	356	0.2	356	357	9.7	99.2
2022-10-25T03:10	10	-1	0.1	-1	-1	357	0.3	356	357	9.8	99.2
2022-10-25T03:11	10	-1	0.1	-1	-1	357	0.3	357	358	9.9	99.2
2022-10-25T03:12	10	-1	0.1	-1	-1	358	0.2	357	358	9.9	99.2
2022-10-25T03:13	10	-1	0.1	-1	-1	358	0.3	357	358	9.8	99.2
2022-10-25T03:14	10	-1	0.1	-1	-1	358	0.2	358	359	9.7	99.2
2022-10-25T03:15	10	-1	0.1	-1	-1	359	0.3	358	359	9.6	99.2
2022-10-25T03:16	10	-1	0.1	-1	-1	359	0.2	359	359	9.6	99.2
2022-10-25T03:17	10	-1	0.1	-1	-1	359	0.3	358	360	9.5	99.2
2022-10-25T03:18	10	-1	0.1	-1	-1	359	0.2	358	359	9.4	99.2
2022-10-25T03:19	10	-1	0.1	-1	-1	359	0.2	358	359	9.4	99.1
2022-10-25T03:20	10	-1	0.1	-1	-1	359	0.3	358	360	9.4	99.2
2022-10-25T03:21	10	-1	0.1	-1	-1	359	0.2	359	360	9.5	99.2
2022-10-25T03:22	10	-1	0.1	-1	-1	359	0.2	359	360	9.5	99.2
2022-10-25T03:23	10	-1	0.1	-1	-1	359	0.2	359	360	9.6	99.2
2022-10-25T03:24	10	-1	0.1	-1	-1	359	0.2	359	360	9.6	99.2
2022-10-25T03:25	10	-1	0.1	-1	-1	359	0.3	358	360	9.4	99.2
2022-10-25T03:26	10	-1	0.0	-1	-1	359	0.3	358	360	9.4	99.2
2022-10-25T03:27	10	-1	0.1	-1	-1	359	0.2	359	360	9.6	99.2
2022-10-25T03:28	10	-1	0.1	-1	-1	360	0.2	359	360	9.6	99.2
2022-10-25T03:29	10	-1	0.1	-1	-1	360	0.2	359	360	9.6	99.2
2022-10-25T03:30	10	-1	0.1	-1	-1	360	0.2	360	361	9.6	99.2
2022-10-25T03:31	10	-1	0.1	-1	-1	360	0.2	360	361	9.6	99.2
2022-10-25T03:32	10	-1	0.1	-1	-1	361	0.2	360	361	9.5	99.2
2022-10-25T03:33	10	-1	0.1	-1	-1	361	0.2	360	361	9.5	99.2
2022-10-25T03:34	10	-1	0.1	-1	-1	361	0.2	360	361	9.4	99.2
2022-10-25T03:35	10	-1	0.1	-1	-1	361	0.2	360	361	9.4	99.2
2022-10-25T03:36	10	-1	0.1	-1	-1	361	0.2	360	361	9.7	99.2
2022-10-25T03:37	10	-1	0.1	-1	0	361	0.3	360	361	9.9	99.2
2022-10-25T03:38	10	-1	0.1	-1	0	361	0.2	360	361	9.7	99.2
2022-10-25T03:39	10	0	0.1	-1	0	361	0.3	360	362	9.8	99.2
2022-10-25T03:40	10	0	0.1	-1	0	361	0.2	361	362	10.1	99.2
2022-10-25T03:41	10	0	0.1	-1	0	362	0.3	361	362	10.2	99.2
2022-10-25T03:42	10	0	0.1	0	0	362	0.2	361	363	10.2	99.2
2022-10-25T03:43	10	0	0.1	0	0	362	0.4	361	363	10.4	99.2
2022-10-25T03:44	10	0	0.1	0	0	362	0.3	362	363	10.8	99.2
2022-10-25T03:45	10	0	0.1	0	0	363	0.3	362	363	10.8	99.2
2022-10-25T03:46	10	0	0.1	0	0	363	0.2	362	363	10.7	99.2
2022-10-25T03:47	10	0	0.1	0	0	363	0.2	362	363	10.6	99.2
2022-10-25T03:48	10	0	0.1	0	0	363	0.3	362	363	10.6	99.2
2022-10-25T03:49	10	0	0.1	0	0	363	0.3	362	363	10.1	99.2
2022-10-25T03:50	10	0	0.1	0	0	362	0.2	362	363	10.0	99.2
2022-10-25T03:51	10	0	0.0	0	0	362	0.3	362	363	10.1	99.2
2022-10-25T03:52	10	0	0.1	0	0	362	0.2	362	363	10.1	99.2
2022-10-25T03:53	10	0	0.0	0	0	362	0.3	362	363	9.8	99.2
2022-10-25T03:54	10	0	0.1	0	0	362	0.2	361	363	9.9	99.2
2022-10-25T03:55	10	0	0.1	-1	0	362	0.2	362	363	10.0	99.2
2022-10-25T03:56	10	-1	0.1	-1	0	362	0.3	362	363	10.1	99.2
2022-10-25T03:57	10	-1	0.1	-1	0	362	0.2	362	363	10.2	99.2
2022-10-25T03:58	10	-1	0.1	-1	-1	361	0.3	361	362	10.1	99.2
2022-10-25T03:59	10	0	0.1	-1	0	361	0.4	360	362	9.8	99.2
2022-10-25T04:00	10	0	0.0	0	0	360	0.4	360	361	9.8	99.2
2022-10-25T04:01	10	0	0.1	-1	0	359	0.2	359	360	9.8	99.2
2022-10-25T04:02	10	0	0.1	0	0	359	0.3	358	360	9.7	99.1
2022-10-25T04:03	10	0	0.1	0	0	359	0.3	358	359	9.5	99.1
2022-10-25T04:04	10	0	0.1	0	0	358	0.2	358	359	9.5	99.1
2022-10-25T04:05	10	0	0.1	0	0	358	0.3	358	359	9.4	99.0
2022-10-25T04:06	10	0	0.1	0	0	358	0.2	358	359	9.4	99.0
2022-10-25T04:07	10	0	0.1	0	0	358	0.3	358	359	9.3	99.0
2022-10-25T04:08	10	0	0.1	0	0	358	0.2	358	359	9.2	99.0
2022-10-25T04:09	10	0	0.1	0	0	359	0.2	358	359	9.2	99.1
2022-10-25T04:10	10	0	0.1	0	0	359	0.2	358	359	9.2	99.1
2022-10-25T04:11	10	0	0.1	0	0	358	0.2	358	359	9.2	99.1
2022-10-25T04:12	10	0	0.1	0	0	358	0.2	358	358	9.2	99.1
2022-10-25T04:13	10	0	0.1	0	0	358	0.2	357	359	9.1	99.1
2022-10-25T04:14	10	0	0.1	0	0	359	0.3	358	359	9.1	99.2
2022-10-25T04:15	10	0	0.1	0	0	359	0.2	358	359	9.1	99.2
2022-10-25T04:16	10	0	0.1	0	0	360	0.2	359	360	9.2	99.2
2022-10-25T04:17	10	0	0.1	0	0	359	0.2	359	360	9.2	99.2
2022-10-25T04:18	10	0	0.1	0	0	360	0.2	360	361	9.2	99.2
2022-10-25T04:19	10	0	0.1	0	0	361	0.2	360	361	9.3	99.2
2022-10-25T04:20	10	0	0.1	0	0	361	0.2	360	361	9.4	99.2
2022-10-25T04:21	10	0	0.1	0	1	361	0.2	360	361	9.4	99.2
2022-10-25T04:22	10	0	0.1	0	0	361	0.2	360	361	9.4	99.2
2022-10-25T04:23	10	0	0.1	0	0	361	0.3	360	362	9.4	99.2
2022-10-25T04:24	10	0	0.1	0	0	361	0.2	360	361	9.4	99.2
2022-10-25T04:25	10	0	0.1	0	1	361	0.2	360	361	9.3	99.2
2022-10-25T04:26	10	0	0.2	0	1	361	0.3	361	362	9.5	99.2
2022-10-25T04:27	10	0	0.1	0	0	361	0.4	360	362	9.8	99.2
2022-10-25T04:28	10	0	0.1	0	0	361	0.4	360	362	9.6	99.2
2022-10-25T04:29	10	0	0.2	-1	0	361	0.5	359	361	9.7	99.2
2022-10-25T04:30	10	0	0.1	-1	0	361	0.4	360	362	9.7	99.2
2022-10-25T04:31	10	0	0.1	-1	0	361	0.3	360	361	9.6	99.2
2022-10-25T04:32	10	0	0.1	-1	0	361	0.2	361	362	9.7	99.2
2022-10-25T04:33	10	0	0.1	0	0	361	0.2	361	362	9.8	99.2
2022-10-25T04:34	10	0	0.1	0	0	361	0.2	361	362	9.6	99.2
2022-10-25T04:35	10	0	0.1	0	0	361	0.3	360	362	9.6	99.2
2022-10-25T04:36	10	0	0.2	-1	0	361	0.3	360	362	9.6	99.2
2022-10-25T04:37	10	0	0.1	0	0	361	0.2	360	361	9.5	99.2
2022-10-25T04:38	10	0	0.1	-1	0	361	0.2	360	361	9.6	99.2
2022-10-25T04:39	10	0	0.1	0	0	360	0.3	360	361	9.5	99.2
2022-10-25T04:40	10	0	0.1	-1	0	360	0.2	360	361	9.3	99.2
2022-10-25T04:41	10	0	0.1	0	0	361	0.3	360	361	9.4	99.2
2022-10-25T04:42	10	0	0.1	-1	0	361	0.2	360	361	9.4	99.2
2022-10-25T04:43	10	0	0.1	0	0	360	0.2	360	361	9.4	99.2
2022-10-25T04:44	10	0	0.1	0	0	361	0.3	360	361	9.5	99.2
2022-10-25T04:45	10	0	0.1	0	0	360	0.2	360	361	9.6	99.2
2022-10-25T04:46	10	0	0.1	0	0	360	0.2	359	360	9.5	99.2
2022-10-25T04:47	10	0	0.1	-1	0	360	0.2	359	360	9.4	99.2
2022-10-25T04:48	10	0	0.2	-1	1	360	0.2	359	360	9.4	99.2
2022-10-25T04:49	10	0	0.1	0	0	360	0.2	359	360	9.5	99.2
2022-10-25T04:50	10	0	0.1	0	0	360	0.3	359	360	9.6	99.2
2022-10-25T04:51	10	0	0.1	0	0	360	0.3	360	361	9.8	99.2
2022-10-25T04:52	10	0	0.1	-1	0	360	0.2	360	360	9.8	99.2
2022-10-25T04:53	10	0	0.2	-1	0	360	0.2	360	361	9.9	99.2
2022-10-25T04:54	10	0	0.1	-1	0	360	0.2	359	360	10.1	99.2
2022-10-25T04:55	10	0	0.2	-1	0	360	0.4	359	361	9.9	99.2
2022-10-25T04:56	10	0	0.1	-1	0	360	0.2	360	361	10.1	99.2
2022-10-25T04:57	10	0	0.1	-1	0	360	0.2	359	361	9.9	99.2
2022-10-25T04:58	10	0	0.1	-1	0	360	0.2	359	360	10.0	99.2
2022-10-25T04:59	10	0	0.1	-1	0	360	0.2	359	360	9.9	99.2
2022-10-25T05:00	10	0	0.1	-1	0	360	0.2	360	361	9.9	99.2
2022-10-25T05:01	10	0	0.1	-1	0	360	0.2	360	361	9.8	99.2
2022-10-25T05:02	10	-1	0.1	-1	0	361	0.3	360	361	9.8	99.2
2022-10-25T05:03	10	-1	0.1	-1	0	361	0.3	360	361	10.0	99.2
2022-10-25T05:04	10	-1	0.1	-1	0	361	0.2	360	361	9.9	99.2
2022-10-25T05:05	10	-1	0.1	-1	0	360	0.4	360	362	9.8	99.2
2022-10-25T05:06	10	-1	0.2	-1	-1	360	0.2	360	361	9.8	99.2
2022-10-25T05:07	10	-1	0.2	-1	-1	360	0.3	359	361	9.9	99.2
2022-10-25T05:08	10	-1	0.1	-1	-1	361	0.3	360	361	9.9	99.2
2022-10-25T05:09	10	-1	0.1	-1	-1	361	0.3	360	361	10.0	99.2
2022-10-25T05:10	10	-1	0.1	-1	-1	361	0.2	360	361	9.9	99.2
2022-10-25T05:11	10	-1	0.1	-1	-1	361	0.2	360	361	9.9	99.2
2022-10-25T05:12	10	-1	0.2	-1	0	361	0.2	360	361	9.9	99.2
2022-10-25T05:13	10	-1	0.1	-1	0	361	0.2	360	361	9.8	99.2
2022-10-25T05:14	10	-1	0.1	-1	0	361	0.3	360	362	9.8	99.2
2022-10-25T05:15	10	0	0.1	-1	0	361	0.2	360	361	9.7	99.2
2022-10-25T05:16	10	0	0.1	-1	0	361	0.3	360	361	9.7	99.2
2022-10-25T05:17	10	0	0.2	-1	0	361	0.3	361	362	9.8	99.2
2022-10-25T05:18	10	0	0.2	-1	0	361	0.3	361	362	9.8	99.2
2022-10-25T05:19	10	0	0.2	0	0	362	0.2	361	362	9.8	99.2
2022-10-25T05:20	10	0	0.1	0	0	362	0.3	361	362	9.7	99.2
2022-10-25T05:21	10	0	0.1	0	0	362	0.3	361	362	9.7	99.2
2022-10-25T05:22	10	0	0.1	-1	0	362	0.3	362	363	9.9	99.2
2022-10-25T05:23	10	0	0.2	-1	0	362	0.3	362	363	9.9	99.2
2022-10-25T05:24	10	-1	0.2	-1	0	362	0.3	362	363	10.0	99.2
2022-10-25T05:25	10	-1	0.1	-1	0	362	0.2	362	363	9.8	99.2
2022-10-25T05:26	10	-1	0.1	-1	0	362	0.2	361	362	9.7	99.2
2022-10-25T05:27	10	-1	0.2	-1	0	361	0.2	361	362	9.6	99.2
2022-10-25T05:28	10	-1	0.2	-1	-1	362	0.3	361	362	9.6	99.2
2022-10-25T05:29	10	-1	0.2	-2	-1	362	0.3	361	362	9.6	99.2
2022-10-25T05:30	10	-2	0.1	-2	-1	361	0.3	361	362	9.6	99.2
2022-10-25T05:31	10	-2	0.1	-2	-2	362	0.2	361	362	9.5	99.2
2022-10-25T05:32	10	-2	0.1	-2	-2	362	0.3	361	362	9.5	99.2
2022-10-25T05:33	10	-2	0.1	-2	-2	362	0.2	361	362	9.5	99.2
2022-10-25T05:34	10	-2	0.1	-3	-2	362	0.2	361	362	9.5	99.2
2022-10-25T05:35	10	-2	0.2	-3	-2	362	0.4	361	363	9.5	99.2
2022-10-25T05:36	10	-2	0.2	-3	-2	362	0.2	361	362	9.5	99.2
2022-10-25T05:37	10	-2	0.2	-3	-2	362	0.3	361	362	9.5	99.2
2022-10-25T05:38	10	-2	0.1	-2	-2	362	0.2	361	362	9.5	99.2
2022-10-25T05:39	10	-1	0.2	-2	-1	362	0.3	361	362	9.5	99.2
2022-10-25T05:40	10	-1	0.2	-2	-1	362	0.3	361	363	9.4	99.2
2022-10-25T05:41	10	-1	0.2	-1	-1	362	0.3	361	363	9.5	99.2
2022-10-25T05:42	10	-1	0.2	-1	0	362	0.3	361	362	9.5	99.2
2022-10-25T05:43	10	0	0.2	-1	0	362	0.3	362	363	9.5	99.2
2022-10-25T05:44	10	0	0.2	0	0	362	0.2	362	363	9.6	99.2
2022-10-25T05:45	10	0	0.1	0	0	362	0.2	362	363	9.6	99.2
2022-10-25T05:46	10	0	0.1	0	0	363	0.2	362	363	9.7	99.2
2022-10-25T05:47	10	0	0.1	0	0	363	0.3	362	364	9.7	99.2
2022-10-25T05:48	10	0	0.2	0	1	363	0.2	362	363	9.7	99.2
2022-10-25T05:49	10	0	0.2	0	1	362	0.3	362	363	9.7	99.2
2022-10-25T05:50	10	0	0.1	0	0	363	0.2	362	363	9.8	99.2
2022-10-25T05:51	10	0	0.2	0	0	363	0.2	362	364	9.8	99.2
2022-10-25T05:52	10	0	0.1	0	0	363	0.2	363	364	9.9	99.2
2022-10-25T05:53	10	0	0.1	-1	0	363	0.4	362	364	9.8	99.2
2022-10-25T05:54	10	0	0.1	-1	0	363	0.3	362	364	9.8	99.2
2022-10-25T05:55	10	0	0.1	-1	0	363	0.3	363	364	9.8	99.2
2022-10-25T05:56	10	0	0.1	-1	0	363	0.3	362	363	9.8	99.2
2022-10-25T05:57	10	0	0.1	-1	0	363	0.3	362	364	9.8	99.2
2022-10-25T05:58	10	-1	0.2	-1	0	363	0.5	362	364	9.8	99.2
2022-10-25T05:59	10	-1	0.2	-1	0	363	0.4	362	364	9.7	99.2
2022-10-25T06:00	10	-1	0.2	-1	-1	363	0.4	362	363	9.7	99.2
2022-10-25T06:01	10	-1	0.2	-2	-1	363	0.3	362	363	9.8	99.2
2022-10-25T06:02	10	-1	0.2	-1	-1	363	0.2	362	363	9.7	99.2
2022-10-25T06:03	10	-1	0.1	-1	-1	362	0.3	362	363	9.5	99.2
2022-10-25T06:04	10	-1	0.1	-1	-1	362	0.3	362	363	9.5	99.2
2022-10-25T06:05	10	-1	0.1	-1	-1	363	0.2	362	363	9.6	99.2
2022-10-25T06:06	10	-1	0.1	-1	-1	362	0.3	362	363	9.6	99.2
2022-10-25T06:07	10	-1	0.1	-1	-1	362	0.3	361	363	9.6	99.2
2022-10-25T06:08	10	-1	0.1	-1	-1	362	0.3	362	363	9.6	99.2
2022-10-25T06:09	10	-1	0.2	-1	0	362	0.2	362	363	9.6	99.2
2022-10-25T06:10	10	-1	0.1	-1	0	362	0.2	362	363	9.5	99.2
2022-10-25T06:11	10	0	0.1	-1	0	363	0.3	362	363	9.5	99.2
2022-10-25T06:12	10	0	0.1	-1	0	363	0.2	362	363	9.5	99.2
2022-10-25T06:13	10	0	0.1	-1	0	363	0.3	362	363	9.5	99.2
2022-10-25T06:14	10	0	0.1	0	0	363	0.3	362	363	9.5	99.2
2022-10-25T06:15	10	0	0.1	0	0	362	0.3	362	363	9.4	99.2
2022-10-25T06:16	10	0	0.1	-1	0	362	0.3	361	363	9.4	99.2
2022-10-25T06:17	10	-1	0.2	-1	0	362	0.2	362	363	9.4	99.2
2022-10-25T06:18	10	-1	0.2	-1	-1	362	0.2	362	363	9.4	99.2
2022-10-25T06:19	10	-1	0.2	-2	-1	362	0.3	362	363	9.4	99.2
2022-10-25T06:20	10	-2	0.1	-2	-1	362	0.3	361	363	9.4	99.2
2022-10-25T06:21	10	-2	0.2	-2	-1	362	0.2	362	362	9.4	99.2
2022-10-25T06:22	10	-2	0.1	-2	-1	362	0.4	361	363	9.4	99.2
2022-10-25T06:23	10	-1	0.1	-2	-1	362	0.3	362	363	9.4	99.2
2022-10-25T06:24	10	-1	0.2	-2	-1	362	0.3	361	363	9.4	99.2
2022-10-25T06:25	10	-1	0.1	-1	-1	362	0.3	361	363	9.4	99.2
2022-10-25T06:26	10	-1	0.2	-1	0	362	0.3	362	363	9.4	99.2
2022-10-25T06:27	10	0	0.2	-1	0	362	0.4	362	363	9.4	99.2
2022-10-25T06:28	10	0	0.2	0	0	363	0.2	362	363	9.4	99.2
2022-10-25T06:29	10	0	0.1	0	1	363	0.3	362	363	9.4	99.2
2022-10-25T06:30	10	1	0.2	0	1	363	0.2	362	363	9.4	99.2
2022-10-25T06:31	10	1	0.2	1	2	363	0.3	362	363	9.4	99.2
2022-10-25T06:32	10	2	0.3	1	2	363	0.3	362	363	9.4	99.2
2022-10-25T06:33	10	2	0.2	2	3	363	0.3	362	364	9.4	99.2
2022-10-25T06:34	10	3	0.2	3	3	363	0.4	362	364	9.5	99.2
2022-10-25T06:35	10	4	0.2	3	4	364	0.3	363	364	9.5	99.2
2022-10-25T06:36	10	4	0.2	4	5	364	0.2	363	364	9.5	99.2
2022-10-25T06:37	10	5	0.3	4	6	364	0.3	363	364	9.5	99.2
2022-10-25T06:38	10	7	0.5	6	7	364	0.2	363	365	9.5	99.2
2022-10-25T06:39	10	9	0.8	7	10	364	0.3	364	365	9.5	99.2
2022-10-25T06:40	10	13	1.5	10	15	365	0.3	364	365	9.5	99.2
2022-10-25T06:41	10	17	1.1	15	19	365	0.2	364	366	9.4	99.2
2022-10-25T06:42	10	21	0.7	19	22	365	0.3	365	366	9.4	99.2
2022-10-25T06:43	10	22	0.4	21	23	366	0.2	365	366	9.5	99.2
2022-10-25T06:44	10	22	0.4	22	23	366	0.2	365	367	9.5	99.2
2022-10-25T06:45	10	20	1.1	18	22	366	0.4	365	367	9.6	99.2
2022-10-25T06:46	10	22	1.2	19	23	366	0.3	366	367	9.6	99.2
2022-10-25T06:47	10	25	0.9	23	26	366	0.3	365	367	9.6	99.2
2022-10-25T06:48	10	26	0.2	25	26	366	0.3	366	367	9.6	99.2
2022-10-25T06:49	10	21	2.6	17	25	366	0.4	365	367	9.7	99.2
2022-10-25T06:50	10	19	0.6	17	20	365	0.3	365	366	9.6	99.2
2022-10-25T06:51	10	17	0.4	16	18	366	0.2	365	366	9.6	99.2
2022-10-25T06:52	10	16	0.5	15	17	365	0.3	365	366	9.5	99.2
2022-10-25T06:53	10	15	0.4	14	16	365	0.3	364	365	9.5	99.2
2022-10-25T06:54	10	15	0.3	14	15	364	0.3	364	365	9.4	99.2
2022-10-25T06:55	10	16	0.3	15	16	364	0.3	364	365	9.4	99.2
2022-10-25T06:56	10	17	0.3	16	18	364	0.3	364	365	9.3	99.2
2022-10-25T06:57	10	19	0.8	17	20	364	0.3	364	365	9.4	99.2
2022-10-25T06:58	10	23	1.5	20	26	364	0.3	364	365	9.4	99.2
2022-10-25T06:59	10	30	2.0	26	32	365	0.4	364	365	9.3	99.2
2022-10-25T07:00	10	36	2.4	32	40	365	0.4	365	367	9.3	99.2
2022-10-25T07:01	10	43	1.4	40	46	366	0.2	365	366	9.3	99.2
2022-10-25T07:02	10	46	0.2	46	46	366	0.3	365	367	9.3	99.2
2022-10-25T07:03	10	45	0.4	45	46	366	0.3	365	367	9.3	99.2
2022-10-25T07:04	10	44	0.6	43	45	366	0.3	365	367	9.3	99.2
2022-10-25T07:05	10	42	0.6	41	43	365	0.3	365	366	9.3	99.2
2022-10-25T07:06	10	41	0.2	40	41	365	0.4	364	366	9.3	99.2
2022-10-25T07:07	10	41	0.2	40	41	365	0.5	364	365	9.3	99.2
2022-10-25T07:08	10	41	0.2	40	41	364	0.3	363	364	9.2	99.2
2022-10-25T07:09	10	42	0.3	41	42	364	0.4	363	364	9.3	99.2
2022-10-25T07:10	10	42	0.2	42	42	363	0.3	363	364	9.3	99.2
2022-10-25T07:11	10	43	0.2	42	43	364	0.3	363	365	9.3	99.2
2022-10-25T07:12	10	43	0.3	43	44	364	0.3	363	364	9.2	99.2
2022-10-25T07:13	10	44	0.3	43	44	364	0.2	363	364	9.3	99.2
2022-10-25T07:14	10	44	0.1	44	45	364	0.2	363	364	9.1	99.2
2022-10-25T07:15	10	45	0.1	44	45	364	0.2	363	364	9.1	99.2
2022-10-25T07:16	10	45	0.1	45	45	364	0.3	363	364	9.1	99.2
2022-10-25T07:17	10	45	0.2	45	46	364	0.2	363	364	9.1	99.2
2022-10-25T07:18	10	46	0.3	46	47	363	0.2	363	364	9.1	99.2
2022-10-25T07:19	10	47	0.5	47	48	363	0.4	362	364	9.1	99.2
2022-10-25T07:20	10	50	1.0	48	52	364	0.5	363	365	9.1	99.2
2022-10-25T07:21	10	54	0.8	53	55	364	0.4	363	365	9.0	99.2
2022-10-25T07:22	10	57	2.3	53	60	365	0.3	364	366	9.1	99.2
2022-10-25T07:23	10	59	1.5	56	61	366	0.5	365	367	9.1	99.2
2022-10-25T07:24	10	61	0.7	60	62	366	0.3	366	367	9.1	99.2
2022-10-25T07:25	10	65	2.0	61	68	368	0.6	367	369	9.2	99.2
2022-10-25T07:26	10	69	1.8	67	72	369	0.5	368	370	9.3	99.2
2022-10-25T07:27	10	74	1.4	71	75	370	0.8	369	372	9.2	99.2
2022-10-25T07:28	10	75	2.7	71	78	371	0.4	371	372	9.3	99.2
2022-10-25T07:29	10	75	2.5	71	78	372	0.8	371	374	9.4	99.2
2022-10-25T07:30	10	80	1.8	78	83	373	0.3	373	374	9.4	99.2
2022-10-25T07:31	10	79	2.2	77	83	374	0.5	373	375	9.6	99.2
2022-10-25T07:32	10	74	2.2	70	78	375	0.2	374	375	9.5	99.2
2022-10-25T07:33	10	63	2.9	60	69	374	0.8	373	375	9.4	99.2
2022-10-25T07:34	10	67	1.1	65	70	373	0.2	373	374	9.4	99.2
2022-10-25T07:35	10	66	2.1	63	70	373	0.3	373	374	9.4	99.2
2022-10-25T07:36	10	67	0.8	66	68	373	0.3	372	374	9.4	99.2
2022-10-25T07:37	10	70	2.1	66	73	373	0.3	373	374	9.4	99.2
2022-10-25T07:38	10	71	0.9	70	73	374	0.2	373	374	9.4	99.2
2022-10-25T07:39	10	67	1.8	65	71	374	0.3	373	374	9.5	99.2
2022-10-25T07:40	10	69	2.8	64	73	374	0.4	374	375	9.5	99.2
2022-10-25T07:41	10	59	3.1	55	67	374	0.3	374	375	9.5	99.2
2022-10-25T07:42	10	53	1.6	51	55	374	0.4	373	375	9.6	99.2
2022-10-25T07:43	10	52	3.1	48	57	374	0.4	374	375	9.6	99.2
2022-10-25T07:44	10	41	6.3	33	54	374	0.8	372	375	9.5	99.2
2022-10-25T07:45	10	29	1.7	27	33	373	0.3	372	374	9.6	99.2
2022-10-25T07:46	10	27	0.2	27	27	373	0.3	372	373	9.8	99.2
2022-10-25T07:47	10	26	0.4	25	27	372	0.6	371	374	9.8	99.2
2022-10-25T07:48	10	25	0.1	25	25	372	0.2	371	372	9.8	99.2
2022-10-25T07:49	10	25	0.1	25	26	371	0.3	370	372	9.7	99.2
2022-10-25T07:50	10	26	0.1	25	26	371	0.2	371	372	9.6	99.2
2022-10-25T07:51	10	25	0.1	25	26	371	0.3	371	372	9.8	99.2
2022-10-25T07:52	10	25	0.1	25	25	371	0.2	371	372	9.8	99.2
2022-10-25T07:53	10	25	0.1	25	25	371	0.2	371	371	9.8	99.2
2022-10-25T07:54	10	25	0.1	25	25	371	0.3	371	372	9.9	99.2
2022-10-25T07:55	10	26	0.2	25	26	371	0.2	371	372	9.9	99.2
2022-10-25T07:56	10	26	0.1	26	26	372	0.2	371	372	9.9	99.2
2022-10-25T07:57	10	26	0.1	25	26	371	0.2	371	372	9.9	99.2
2022-10-25T07:58	10	25	0.1	25	26	371	0.2	371	372	9.9	99.2
2022-10-25T07:59	10	25	0.2	25	26	371	0.3	370	372	9.9	99.2
2022-10-25T08:00	10	26	0.2	26	26	372	0.6	370	372	10.0	99.2
2022-10-25T08:01	10	26	0.2	26	27	372	0.3	371	373	10.1	99.2
2022-10-25T08:02	10	27	0.3	27	28	372	0.3	372	373	10.1	99.2
2022-10-25T08:03	10	28	0.1	27	28	373	0.3	372	373	10.1	99.2
2022-10-25T08:04	10	28	0.1	28	28	373	0.4	372	373	10.0	99.2
2022-10-25T08:05	10	28	0.1	28	29	373	0.4	372	374	10.2	99.2
2022-10-25T08:06	10	29	0.1	28	29	373	0.2	373	374	10.2	99.2
2022-10-25T08:07	10	29	0.1	29	29	373	0.3	372	373	10.1	99.2
2022-10-25T08:08	10	29	0.1	29	29	373	0.3	373	374	10.2	99.2
2022-10-25T08:09	10	29	0.4	29	30	374	0.2	373	374	10.3	99.2
2022-10-25T08:10	10	31	0.4	30	32	374	0.4	373	374	10.2	99.2
2022-10-25T08:11	10	32	0.1	31	32	374	0.3	373	375	10.3	99.2
2022-10-25T08:12	10	32	0.1	32	32	374	0.4	373	375	10.2	99.2
2022-10-25T08:13	10	33	0.6	32	34	374	0.3	374	375	10.3	99.2
2022-10-25T08:14	10	34	0.2	34	34	374	0.5	373	375	10.3	99.2
2022-10-25T08:15	10	35	0.1	34	35	374	0.3	374	375	10.3	99.2
2022-10-25T08:16	10	35	0.2	34	35	376	0.5	374	377	10.4	99.2
2022-10-25T08:17	10	35	0.1	35	36	376	0.3	375	377	10.5	99.2
2022-10-25T08:18	10	36	0.3	35	36	376	0.5	375	377	10.5	99.2
2022-10-25T08:19	10	37	0.3	36	37	376	0.3	375	376	10.4	99.2
2022-10-25T08:20	10	37	0.2	37	38	376	0.2	375	376	10.3	99.2
2022-10-25T08:21	10	39	0.6	38	40	376	0.2	375	376	10.3	99.2
2022-10-25T08:22	10	41	0.7	40	42	377	0.5	376	378	10.5	99.2
2022-10-25T08:23	10	43	0.6	42	44	378	0.6	377	379	10.6	99.2
2022-10-25T08:24	10	45	0.4	44	45	378	0.3	378	379	10.5	99.2
2022-10-25T08:25	10	45	0.1	45	45	378	0.3	378	379	10.4	99.2
2022-10-25T08:26	10	45	0.1	45	45	378	0.3	377	379	10.5	99.2
2022-10-25T08:27	10	45	0.1	45	46	379	0.3	379	380	10.6	99.2
2022-10-25T08:28	10	45	0.1	45	46	379	0.2	379	380	10.6	99.2
2022-10-25T08:29	10	45	0.2	45	46	380	0.5	378	380	10.6	99.2
2022-10-25T08:30	10	47	0.4	46	47	379	0.2	379	380	10.6	99.2
2022-10-25T08:31	10	49	1.3	47	52	380	0.4	379	381	10.6	99.2
2022-10-25T08:32	10	58	3.5	52	63	381	0.4	380	382	10.7	99.2
2022-10-25T08:33	10	64	0.4	63	65	382	0.5	381	383	10.8	99.2
2022-10-25T08:34	10	67	1.2	65	69	383	0.5	382	384	10.8	99.2
2022-10-25T08:35	10	77	6.1	69	87	384	0.3	383	384	10.8	99.2
2022-10-25T08:36	10	92	2.2	88	96	385	0.6	383	386	10.6	99.2
2022-10-25T08:37	10	87	3.6	83	96	386	0.3	385	386	10.7	99.2
2022-10-25T08:38	10	81	5.9	72	95	386	0.4	385	386	10.7	99.2
2022-10-25T08:39	10	70	1.4	69	73	385	0.5	384	386	11.0	99.2
2022-10-25T08:40	10	64	3.9	58	70	384	0.6	383	386	10.8	99.2
2022-10-25T08:41	10	57	0.3	57	58	383	0.8	381	385	10.8	99.2
2022-10-25T08:42	10	56	1.0	54	57	382	0.2	382	383	10.8	99.2
2022-10-25T08:43	10	55	1.0	53	57	381	0.3	381	382	10.8	99.2
2022-10-25T08:44	10	59	1.7	57	62	382	0.3	381	383	10.7	99.2
2022-10-25T08:45	10	61	0.9	60	63	383	0.4	382	384	10.9	99.2
2022-10-25T08:46	10	68	6.6	61	83	384	0.5	383	385	11.0	99.2
2022-10-25T08:47	10	105	10.8	83	116	386	1.3	384	388	11.2	99.2
2022-10-25T08:48	10	102	7.9	89	110	387	0.7	386	388	11.2	99.2
2022-10-25T08:49	10	110	3.2	105	114	388	0.4	387	389	11.2	99.2
2022-10-25T08:50	10	104	3.6	100	111	388	0.8	387	390	11.4	99.2
2022-10-25T08:51	10	96	3.6	89	103	388	0.5	387	389	11.3	99.2
2022-10-25T08:52	10	74	13.4	53	96	387	1.6	383	389	11.4	99.2
2022-10-25T08:53	10	46	3.5	43	53	383	1.1	381	384	11.1	99.2
2022-10-25T08:54	10	64	10.7	46	80	381	0.9	380	383	11.0	99.2
2022-10-25T08:55	10	48	8.7	40	69	381	1.3	379	384	11.2	99.2
2022-10-25T08:56	10	47	4.4	41	56	379	0.7	378	381	11.0	99.2
2022-10-25T08:57	10	71	10.2	57	96	381	1.1	379	383	11.0	99.2
2022-10-25T08:58	10	93	16.5	62	112	385	1.0	382	386	11.0	99.2
2022-10-25T08:59	10	65	6.2	59	77	383	0.4	383	384	11.0	99.2
2022-10-25T09:00	10	89	9.7	77	104	384	1.4	382	387	11.0	99.2
2022-10-25T09:01	10	86	6.7	76	98	386	0.5	385	387	11.0	99.2
2022-10-25T09:02	10	84	14.0	69	105	387	0.7	386	388	11.0	99.2
2022-10-25T09:03	10	70	1.2	67	71	386	0.2	386	387	11.1	99.2
2022-10-25T09:04	10	73	5.6	67	85	387	0.4	386	388	11.2	99.2
2022-10-25T09:05	10	100	7.5	85	111	388	1.2	386	390	11.0	99.2
2022-10-25T09:06	10	102	12.0	87	117	390	0.8	389	392	11.2	99.2
2022-10-25T09:07	10	99	11.0	79	115	391	0.5	390	392	11.2	99.2
2022-10-25T09:08	10	81	2.7	77	86	391	0.3	390	391	11.4	99.2
2022-10-25T09:09	10	71	4.7	63	79	390	0.4	390	391	11.6	99.2
2022-10-25T09:10	10	60	0.8	59	63	389	0.8	388	390	11.7	99.2
2022-10-25T09:11	10	70	6.3	61	81	388	0.3	387	389	11.6	99.2
2022-10-25T09:12	10	87	3.0	81	92	390	0.8	388	391	11.4	99.2
2022-10-25T09:13	10	92	0.9	90	93	391	0.4	391	392	11.4	99.2
2022-10-25T09:14	10	93	1.0	91	95	392	0.3	391	393	11.7	99.2
2022-10-25T09:15	10	86	3.0	81	91	392	0.6	391	393	11.6	99.2
2022-10-25T09:16	10	78	1.8	75	81	392	0.4	390	392	11.7	99.2
2022-10-25T09:17	10	72	1.4	70	74	391	0.3	390	392	11.6	99.2
2022-10-25T09:18	10	69	0.9	67	70	390	1.0	389	392	11.7	99.2
2022-10-25T09:19	10	67	0.5	67	69	389	0.2	388	389	11.5	99.2
2022-10-25T09:20	10	79	9.5	69	98	390	1.1	388	392	11.5	99.2
2022-10-25T09:21	10	98	2.2	95	107	392	0.5	391	394	11.6	99.2
2022-10-25T09:22	10	125	5.2	108	131	396	1.5	393	398	11.6	99.2
2022-10-25T09:23	10	108	5.5	100	122	397	0.8	396	399	11.8	99.2
2022-10-25T09:24	10	122	8.3	106	133	397	0.9	396	399	11.6	99.2
2022-10-25T09:25	10	114	5.8	105	123	399	0.6	398	400	11.9	99.2
2022-10-25T09:26	10	125	6.7	111	135	399	0.5	398	400	12.0	99.2
2022-10-25T09:27	10	133	2.3	130	139	400	0.5	399	401	11.9	99.2
2022-10-25T09:28	10	121	7.5	114	139	401	1.0	399	402	12.5	99.2
2022-10-25T09:29	10	132	6.0	117	137	401	0.4	399	401	12.8	99.2
2022-10-25T09:30	10	134	0.9	132	135	401	0.2	400	401	12.7	99.2
2022-10-25T09:31	10	132	0.1	132	132	402	0.4	400	402	12.8	99.2
2022-10-25T09:32	10	131	0.6	130	132	401	0.4	401	402	12.8	99.2
2022-10-25T09:33	10	128	3.4	119	130	401	0.5	400	402	12.7	99.2
2022-10-25T09:34	10	129	5.8	116	134	401	0.7	399	402	13.0	99.2
2022-10-25T09:35	10	132	1.6	130	134	402	0.5	401	403	12.9	99.2
2022-10-25T09:36	10	128	2.4	123	131	401	0.6	400	402	12.8	99.2
2022-10-25T09:37	10	132	3.2	125	136	401	0.3	401	402	12.8	99.2
2022-10-25T09:38	10	133	1.9	130	136	402	0.3	401	403	12.8	99.2
2022-10-25T09:39	10	133	0.5	132	134	402	0.3	401	402	12.8	99.1
2022-10-25T09:40	10	137	1.6	133	139	402	0.5	401	403	12.9	99.0
2022-10-25T09:41	10	139	0.6	138	140	404	0.3	404	405	13.1	99.0
2022-10-25T09:42	10	139	3.3	130	141	405	0.2	405	405	13.2	98.9
2022-10-25T09:43	10	123	7.0	115	134	405	1.2	403	406	13.6	98.8
2022-10-25T09:44	10	125	3.9	113	129	405	0.3	404	405	13.3	97.6
2022-10-25T09:45	10	132	8.6	114	142	404	0.8	403	406	13.4	94.9
2022-10-25T09:46	10	144	0.9	142	146	407	1.3	404	408	13.4	92.3
2022-10-25T09:47	10	146	0.5	145	147	407	0.5	406	408	13.2	90.3
2022-10-25T09:48	10	146	0.7	144	147	407	0.7	406	408	13.5	88.7
2022-10-25T09:49	10	136	6.2	124	144	407	0.9	405	409	13.2	86.6
2022-10-25T09:50	10	119	10.5	106	144	406	1.6	403	408	13.3	86.4
2022-10-25T09:51	10	152	1.8	145	153	407	0.6	406	408	12.9	85.5
2022-10-25T09:52	10	147	3.0	142	152	407	1.0	405	408	12.9	84.6
2022-10-25T09:53	10	124	18.0	91	149	404	1.5	401	406	12.7	83.1
2022-10-25T09:54	10	66	10.9	54	90	399	1.9	397	403	12.7	83.4
2022-10-25T09:55	10	52	0.7	50	54	396	1.2	394	398	12.7	84.5
2022-10-25T09:56	10	49	0.8	48	50	393	0.3	393	394	12.6	84.1
2022-10-25T09:57	10	47	1.0	45	48	393	0.8	391	394	12.6	84.7
2022-10-25T09:58	10	43	1.0	42	45	391	0.6	390	392	12.6	84.6
2022-10-25T09:59	10	41	0.6	40	42	390	0.4	389	390	12.6	84.3
2022-10-25T10:00	10	40	0.5	39	40	389	0.3	388	389	12.7	84.7
2022-10-25T10:01	10	38	0.4	37	39	389	0.2	388	389	12.7	84.8
2022-10-25T10:02	10	37	0.2	37	38	389	0.5	388	390	12.8	85.2
2022-10-25T10:03	10	37	0.1	37	37	389	0.5	388	390	12.8	85.0
2022-10-25T10:04	10	38	0.3	37	38	388	0.9	387	390	12.8	85.1
2022-10-25T10:05	10	38	0.3	37	38	388	0.5	387	389	12.7	84.8
2022-10-25T10:06	10	37	0.5	36	37	388	0.3	387	388	12.8	85.2
2022-10-25T10:07	10	34	0.5	34	36	387	0.4	387	389	12.8	85.8
2022-10-25T10:08	10	34	0.2	34	34	388	0.6	386	389	12.9	86.2
2022-10-25T10:09	10	35	0.4	34	35	388	0.8	387	390	12.9	86.7
2022-10-25T10:10	10	36	0.5	35	37	387	0.6	386	388	12.8	85.2
2022-10-25T10:11	10	38	0.6	37	39	387	0.4	387	388	12.8	85.5
2022-10-25T10:12	10	41	1.4	39	44	388	0.3	387	388	12.8	86.1
2022-10-25T10:13	10	46	1.2	44	48	389	0.9	387	390	12.8	85.9
2022-10-25T10:14	10	51	2.2	48	56	390	1.1	388	392	13.0	86.7
2022-10-25T10:15	10	60	1.0	57	61	392	0.9	389	393	12.9	86.6
2022-10-25T10:16	10	63	1.7	61	66	392	0.7	391	393	12.8	86.3
2022-10-25T10:17	10	68	2.2	66	73	393	0.4	393	394	13.0	86.7
2022-10-25T10:18	10	88	9.7	73	105	395	1.2	393	397	12.9	85.8
2022-10-25T10:19	10	110	1.2	106	112	397	0.6	396	398	13.1	85.8
2022-10-25T10:20	10	126	8.0	113	140	400	1.6	397	402	13.1	85.3
2022-10-25T10:21	10	146	4.4	140	152	404	1.5	402	406	13.2	85.8
2022-10-25T10:22	10	153	0.5	152	154	407	0.9	405	409	13.6	86.4
2022-10-25T10:23	10	156	1.6	153	158	410	0.5	408	411	13.9	86.6
2022-10-25T10:24	10	155	4.6	146	160	409	0.6	407	410	13.5	84.8
2022-10-25T10:25	10	156	5.1	146	161	411	0.4	410	411	13.5	84.5
2022-10-25T10:26	10	161	3.6	151	165	412	0.8	410	413	13.6	84.7
2022-10-25T10:27	10	167	1.5	163	169	413	0.8	411	414	13.7	83.7
2022-10-25T10:28	10	150	10.2	132	163	413	1.0	411	415	13.8	84.2
2022-10-25T10:29	10	125	9.0	107	134	410	1.8	407	413	13.4	83.0
2022-10-25T10:30	10	117	6.3	108	132	408	0.5	407	409	13.4	83.3
2022-10-25T10:31	10	123	7.4	111	134	407	0.4	406	408	13.2	82.0
2022-10-25T10:32	10	150	5.3	135	157	410	1.5	407	412	13.5	82.9
2022-10-25T10:33	10	160	6.3	148	171	413	0.5	411	414	13.5	83.4
2022-10-25T10:34	10	168	2.6	163	171	414	0.6	413	415	13.6	83.8
2022-10-25T10:35	10	169	0.7	168	170	415	0.8	413	416	13.9	84.4
2022-10-25T10:36	10	160	11.3	142	170	414	0.9	412	416	13.7	82.6
2022-10-25T10:37	10	146	4.2	141	153	414	1.4	412	416	13.8	83.4
2022-10-25T10:38	10	160	7.4	146	170	414	0.6	413	416	13.8	83.4
2022-10-25T10:39	10	137	28.7	96	170	414	2.6	408	417	13.6	83.8
2022-10-25T10:40	10	82	4.2	79	95	408	3.1	404	413	14.0	84.4
2022-10-25T10:41	10	87	7.2	80	103	405	0.4	404	406	13.7	84.0
2022-10-25T10:42	10	112	10.6	98	130	406	0.7	405	407	13.5	84.1
2022-10-25T10:43	10	99	10.0	89	130	405	1.1	404	407	13.7	85.2
2022-10-25T10:44	10	158	7.1	132	164	408	1.9	404	411	13.6	84.3
2022-10-25T10:45	10	143	11.5	123	161	410	0.5	409	411	13.6	84.9
2022-10-25T10:46	10	98	6.4	89	120	407	1.8	405	411	13.8	85.5
2022-10-25T10:47	10	80	10.9	67	100	405	1.8	402	407	13.7	84.5
2022-10-25T10:48	10	66	1.8	63	68	402	0.6	400	403	13.8	85.3
2022-10-25T10:49	10	62	0.2	62	63	400	0.5	399	401	13.8	84.6
2022-10-25T10:50	10	63	0.3	62	63	399	0.5	398	400	13.8	85.0
2022-10-25T10:51	10	61	0.4	61	62	398	0.2	398	399	13.6	85.0
2022-10-25T10:52	10	61	0.1	60	61	398	0.8	396	399	13.6	86.2
2022-10-25T10:53	10	60	0.4	59	61	397	0.4	396	397	13.4	86.2
2022-10-25T10:54	10	57	1.0	55	59	397	0.2	397	398	13.5	86.8
2022-10-25T10:55	10	55	0.2	55	56	396	0.3	396	397	13.4	86.2
2022-10-25T10:56	10	55	0.7	53	56	396	0.5	395	396	13.5	87.0
2022-10-25T10:57	10	53	0.3	53	54	395	0.5	394	396	13.3	85.9
2022-10-25T10:58	10	54	0.2	53	54	394	0.3	394	395	13.3	86.0
2022-10-25T10:59	10	54	0.1	54	54	394	0.4	393	395	13.3	85.8
2022-10-25T11:00	10	53	0.9	51	54	394	0.3	393	395	13.2	85.3
2022-10-25T11:01	10	53	1.1	51	54	394	0.5	393	395	13.1	85.2
2022-10-25T11:02	10	54	0.5	53	55	394	0.3	394	395	13.3	85.2
2022-10-25T11:03	10	57	2.7	53	63	394	0.4	393	395	13.3	84.5
2022-10-25T11:04	10	94	23.2	64	139	397	2.8	393	403	13.3	85.1
2022-10-25T11:05	10	125	17.7	94	147	404	1.2	401	406	13.4	84.9
2022-10-25T11:06	10					409	3.3	403	414	13.5	84.6
2022-10-25T11:07	10	114	18.5	99	163	409	2.3	406	413	13.9	85.4
2022-10-25T11:08	10	90	6.4	81	101	403	2.1	401	408	13.6	83.8
2022-10-25T11:09	10	77	4.7	73	87	402	0.4	401	403	13.5	83.8
2022-10-25T11:10	10	73	0.9	71	75	402	0.6	401	403	13.8	85.3
2022-10-25T11:11	10	70	0.7	69	71	401	0.6	400	402	13.6	84.5
2022-10-25T11:12	10	69	0.4	68	70	400	0.5	399	401	13.5	84.5
2022-10-25T11:13	10	71	0.5	70	71	399	0.6	398	400	13.5	84.2
2022-10-25T11:14	10	73	0.6	72	74	398	0.3	398	399	13.4	83.8
2022-10-25T11:15	10	74	0.1	74	74	398	0.5	397	399	13.4	84.1
2022-10-25T11:16	10	75	0.5	74	76	399	0.3	398	400	13.6	84.4
2022-10-25T11:17	10	76	0.6	74	76	399	0.6	398	400	13.6	83.8
2022-10-25T11:18	10	72	1.4	69	74	399	0.5	398	400	13.7	83.5
2022-10-25T11:19	10	67	1.0	66	69	398	0.3	398	399	13.6	83.0
2022-10-25T11:20	10	64	0.9	63	66	398	0.8	397	399	13.7	83.3
2022-10-25T11:21	10	61	0.5	61	63	397	0.3	396	397	13.8	83.1
2022-10-25T11:22	10	61	0.1	60	61	396	0.3	395	396	13.7	82.5
2022-10-25T11:23	10	59	0.6	58	61	396	0.3	395	396	13.6	83.0
2022-10-25T11:24	10	58	1.3	56	60	394	0.3	394	395	13.6	82.3
2022-10-25T11:25	10	56	1.1	55	59	394	0.8	392	395	13.6	82.3
2022-10-25T11:26	10	91	27.9	60	145	398	3.5	394	406	13.7	81.7
2022-10-25T11:27	10	134	7.2	126	145	405	2.2	402	410	13.9	82.1
2022-10-25T11:28	10	153	7.6	134	161	409	1.3	406	410	14.1	81.9
2022-10-25T11:29	10	113	11.4	99	134	406	1.5	404	409	14.0	81.6
2022-10-25T11:30	10	138	13.5	108	150	408	0.9	406	410	14.1	81.0
2022-10-25T11:31	10	103	11.3	82	117	406	1.2	404	408	14.2	81.3
2022-10-25T11:32	10	87	11.4	72	107	403	1.9	400	406	14.0	80.6
2022-10-25T11:33	10	59	4.0	56	73	398	2.1	395	402	14.1	81.5
2022-10-25T11:34	10	52	6.3	44	62	396	0.8	394	398	14.1	81.5
2022-10-25T11:35	10	41	1.4	39	44	393	1.1	391	395	13.9	80.5
2022-10-25T11:36	10	39	0.1	39	39	391	0.5	390	392	13.7	80.8
2022-10-25T11:37	10	39	0.2	38	39	391	0.3	390	392	13.7	81.2
2022-10-25T11:38	10	40	1.1	39	43	391	0.3	391	392	13.7	80.5
2022-10-25T11:39	10	49	3.5	43	54	392	0.9	391	394	13.7	80.7
2022-10-25T11:40	10	52	0.6	51	53	392	0.3	392	393	13.8	81.5
2022-10-25T11:41	10	56	1.3	53	57	393	0.4	392	394	13.7	81.0
2022-10-25T11:42	10	56	0.4	56	57	394	0.3	393	395	13.8	81.2
2022-10-25T11:43	10	60	3.9	56	72	395	0.6	394	396	13.9	81.5
2022-10-25T11:44	10	123	24.6	74	152	401	3.9	395	406	14.1	82.0
2022-10-25T11:45	10	85	17.2	72	125	403	1.8	401	406	14.1	81.1
2022-10-25T11:46	10	79	3.3	73	84	401	0.5	400	402	14.1	81.3
2022-10-25T11:47	10	91	11.5	79	117	403	0.8	401	404	14.1	81.5
2022-10-25T11:48	10	64	5.6	59	78	400	1.1	399	403	14.1	81.1
2022-10-25T11:49	10	56	1.2	54	59	398	0.6	397	399	14.2	81.7
2022-10-25T11:50	10	53	0.6	53	54	395	1.1	394	397	14.2	81.4
2022-10-25T11:51	10	59	6.7	53	75	395	0.5	394	397	14.1	81.2
2022-10-25T11:52	10	106	15.7	76	130	400	2.8	395	404	14.2	81.2
2022-10-25T11:53	10	61	12.7	51	103	399	2.6	396	404	14.2	80.4
2022-10-25T11:54	10	137	25.9	72	156	403	4.2	395	408	14.2	80.4
2022-10-25T11:55	10	148	10.7	109	155	408	1.3	406	410	14.2	80.5
2022-10-25T11:56	10	52	14.2	44	103	402	4.8	395	411	14.5	81.2
2022-10-25T11:57	10	43	0.5	42	44	395	1.2	393	397	14.2	80.8
2022-10-25T11:58	10	42	0.3	42	43	393	0.6	392	394	14.1	80.9
2022-10-25T11:59	10	56	13.7	43	90	393	0.8	392	395	14.1	81.1
2022-10-25T12:00	10	129	15.4	92	144	399	3.4	393	404	14.1	80.4
2022-10-25T12:01	10	144	5.2	127	148	405	1.4	402	407	14.2	80.0
2022-10-25T12:02	10	83	21.2	54	125	404	2.4	399	408	14.4	80.8
2022-10-25T12:03	10	62	13.6	51	96	398	1.2	397	401	14.3	80.3
2022-10-25T12:04	10	125	12.5	98	137	402	3.0	397	406	14.3	80.8
2022-10-25T12:05	10	131	5.0	123	136	404	0.4	403	405	14.2	80.2
2022-10-25T12:06	10	136	1.6	133	138	404	0.4	404	405	14.3	81.1
2022-10-25T12:07	10	138	0.6	137	139	405	0.6	404	406	14.3	80.0
2022-10-25T12:08	10	138	0.7	136	139	405	0.3	405	406	14.4	81.1
2022-10-25T12:09	10	135	1.1	132	136	405	0.3	405	406	14.5	80.9
2022-10-25T12:10	10	131	1.6	128	133	406	0.3	405	406	14.5	80.5
2022-10-25T12:11	10	132	3.1	128	137	406	0.3	405	406	14.4	80.2
2022-10-25T12:12	10	136	1.6	133	138	407	0.8	406	409	14.5	80.7
2022-10-25T12:13	10	132	4.2	118	137	408	0.4	407	409	14.5	79.6
2022-10-25T12:14	10	119	7.9	108	128	407	0.5	407	409	14.4	79.5
2022-10-25T12:15	10	133	6.6	126	143	408	0.7	407	410	14.5	79.6
2022-10-25T12:16	10	143	0.6	141	143	410	0.7	409	412	14.8	80.7
2022-10-25T12:17	10	135	4.4	128	141	410	0.3	410	411	14.7	79.0
2022-10-25T12:18	10	135	3.1	127	137	409	0.8	408	411	14.7	79.3
2022-10-25T12:19	10	136	0.3	135	137	410	0.5	409	411	14.6	78.9
2022-10-25T12:20	10	135	0.5	134	136	410	0.4	409	411	14.9	79.5
2022-10-25T12:21	10	130	3.9	118	134	410	0.4	409	410	15.0	79.7
2022-10-25T12:22	10	124	3.4	117	128	408	0.9	407	411	15.0	79.3
2022-10-25T12:23	10	126	1.5	124	128	409	0.4	408	409	15.0	79.3
2022-10-25T12:24	10	114	5.0	108	125	407	0.6	406	409	15.0	79.4
2022-10-25T12:25	10	94	5.1	90	108	406	1.0	404	408	14.9	78.8
2022-10-25T12:26	10	100	9.9	91	117	405	0.4	404	405	14.7	78.3
2022-10-25T12:27	10	113	5.3	102	120	406	0.4	405	407	14.6	78.2
2022-10-25T12:28	10	121	6.3	111	131	407	0.6	406	409	14.9	79.6
2022-10-25T12:29	10	129	7.3	118	138	409	1.1	408	411	14.8	78.4
2022-10-25T12:30	10	128	3.1	122	133	410	0.5	409	410	14.6	77.5
2022-10-25T12:31	10	130	3.2	118	133	411	0.5	410	412	14.8	78.5
2022-10-25T12:32	10	110	4.9	103	118	408	0.8	407	411	14.8	77.6
2022-10-25T12:33	10	111	15.3	80	127	409	1.4	406	411	14.8	78.4
2022-10-25T12:34	10	88	5.0	80	96	406	0.8	404	407	14.7	77.6
2022-10-25T12:35	10	120	14.9	86	133	407	2.3	404	410	14.8	78.4
2022-10-25T12:36	10	134	1.0	132	136	410	0.4	409	410	14.9	78.0
2022-10-25T12:37	10	135	1.4	131	136	411	0.8	409	412	15.1	78.7
2022-10-25T12:38	10	132	0.3	131	132	410	0.5	409	411	15.0	78.1
2022-10-25T12:39	10	123	4.3	117	131	409	0.7	408	410	15.0	77.8
2022-10-25T12:40	10	108	7.0	98	120	408	0.7	407	409	15.0	78.0
2022-10-25T12:41	10	108	3.7	98	113	408	0.5	407	409	15.1	78.1
2022-10-25T12:42	10	88	3.2	84	97	406	1.7	404	409	15.0	77.8
2022-10-25T12:43	10	93	9.2	83	110	404	0.8	403	406	14.7	78.8
2022-10-25T12:44	10	115	2.4	110	118	406	1.0	404	408	14.9	80.4
2022-10-25T12:45	10	114	1.4	111	116	406	0.4	406	407	15.0	79.5
2022-10-25T12:46	10	117	3.5	111	121	406	0.6	405	407	14.9	78.7
2022-10-25T12:47	10	117	1.5	114	119	406	0.2	405	406	14.8	79.7
2022-10-25T12:48	10	116	1.2	114	118	405	1.2	403	408	14.8	79.7
2022-10-25T12:49	10	102	16.6	75	117	403	0.8	402	404	14.5	79.0
2022-10-25T12:50	10	109	9.7	84	116	404	1.3	402	406	14.7	80.7
2022-10-25T12:51	10	110	4.6	103	115	404	0.4	403	404	14.5	79.8
2022-10-25T12:52	10	106	1.4	103	108	403	0.3	402	403	14.4	79.2
2022-10-25T12:53	10	107	0.8	105	108	404	0.5	403	405	14.4	79.6
2022-10-25T12:54	10	102	3.3	95	107	404	0.6	403	405	14.5	80.5
2022-10-25T12:55	10	100	4.5	92	105	403	0.8	402	404	14.4	79.8
2022-10-25T12:56	10	96	1.4	93	99	403	0.8	402	404	14.7	80.6
2022-10-25T12:57	10	98	1.2	96	100	402	0.5	401	403	14.7	80.6
2022-10-25T12:58	10	96	2.1	91	98	403	0.4	402	403	14.7	80.9
2022-10-25T12:59	10	79	5.6	69	90	401	1.5	398	403	14.6	80.4
2022-10-25T13:00	10	78	0.7	77	80	399	0.3	398	400	14.6	80.0
2022-10-25T13:01	10	79	2.9	75	84	399	0.2	398	399	14.6	80.4
2022-10-25T13:02	10	73	6.7	65	84	398	0.5	397	399	14.6	80.1
2022-10-25T13:03	10	68	1.1	66	70	398	0.3	397	398	14.6	80.4
2022-10-25T13:04	10	71	1.1	69	73	398	0.5	397	399	14.7	80.8
2022-10-25T13:05	10	75	1.4	73	77	398	0.4	397	399	14.8	80.2
2022-10-25T13:06	10	74	2.0	71	77	398	0.4	398	399	14.6	80.4
2022-10-25T13:07	10	69	1.2	67	71	397	0.5	396	398	14.5	80.4
2022-10-25T13:08	10	71	0.6	69	72	397	0.4	396	398	14.4	79.8
2022-10-25T13:09	10	73	4.6	66	79	398	0.4	397	399	14.5	80.5
2022-10-25T13:10	10	80	1.0	78	82	398	0.3	397	398	14.5	80.3
2022-10-25T13:11	10	77	0.5	76	78	397	0.3	397	398	14.6	80.1
2022-10-25T13:12	10	78	1.3	76	80	397	0.7	396	398	14.6	80.7
2022-10-25T13:13	10	77	2.8	73	80	397	0.4	397	398	14.6	80.3
2022-10-25T13:14	10	80	0.6	79	81	398	0.2	398	399	14.5	80.5
2022-10-25T13:15	10	80	0.5	79	81	398	0.3	397	399	14.4	79.7
2022-10-25T13:16	10	81	0.7	80	82	399	0.6	398	400	14.5	80.7
2022-10-25T13:17	10	80	0.3	80	81	399	0.4	398	400	14.5	80.2
2022-10-25T13:18	10	81	0.4	81	82	400	0.5	399	401	14.6	80.7
2022-10-25T13:19	10	80	1.6	78	82	399	0.9	397	400	14.7	80.6
2022-10-25T13:20	10	77	0.5	76	78	398	0.3	397	398	14.7	80.9
2022-10-25T13:21	10	78	0.5	77	79	397	0.2	396	397	14.6	80.5
2022-10-25T13:22	10	79	0.9	77	80	397	0.4	396	398	14.6	80.9
2022-10-25T13:23	10	77	1.0	75	78	397	0.3	397	398	14.7	81.0
2022-10-25T13:24	10	74	0.5	73	75	397	0.3	397	398	14.6	80.9
2022-10-25T13:25	10	70	1.7	67	73	396	0.3	395	397	14.5	80.7
2022-10-25T13:26	10	64	1.2	62	67	396	0.3	396	397	14.6	81.0
2022-10-25T13:27	10	65	3.5	61	72	396	0.3	396	397	14.7	80.8
2022-10-25T13:28	10	73	1.2	71	75	397	0.6	396	398	14.5	79.9
2022-10-25T13:29	10	68	2.9	61	71	398	0.6	397	399	14.5	80.2
2022-10-25T13:30	10	69	3.4	61	73	397	0.7	396	398	14.6	80.3
2022-10-25T13:31	10	66	1.7	64	69	397	0.5	397	398	14.6	80.8
2022-10-25T13:32	10	73	2.8	67	77	397	0.4	396	398	14.6	81.0
2022-10-25T13:33	10	74	1.2	73	79	398	0.2	397	398	14.7	81.5
2022-10-25T13:34	10	73	0.8	71	74	398	0.6	397	399	14.8	81.9
2022-10-25T13:35	10	73	0.4	71	73	397	0.4	397	398	14.6	81.1
2022-10-25T13:36	10	71	1.9	68	73	397	0.6	396	398	14.5	81.0
2022-10-25T13:37	10	73	0.3	72	74	397	0.4	396	397	14.6	81.8
2022-10-25T13:38	10	72	0.7	71	73	396	0.4	395	397	14.6	81.9
2022-10-25T13:39	10	71	0.6	71	72	395	0.2	395	396	14.5	82.2
2022-10-25T13:40	10	69	2.1	66	72	396	0.2	395	396	14.5	82.3
2022-10-25T13:41	10	61	2.4	58	66	396	0.4	395	396	14.5	82.8
2022-10-25T13:42	10	59	0.5	58	60	395	0.5	393	395	14.4	82.9
2022-10-25T13:43	10	58	0.5	58	59	394	0.3	393	394	14.3	82.7
2022-10-25T13:44	10	59	0.4	58	60	394	0.6	393	395	14.4	83.3
2022-10-25T13:45	10	57	0.4	56	58	394	0.2	393	394	14.4	83.1
2022-10-25T13:46	10	54	1.2	52	56	394	0.4	393	395	14.5	83.3
2022-10-25T13:47	10	50	1.7	46	52	393	0.4	393	394	14.3	82.7
2022-10-25T13:48	10	47	0.4	46	47	393	0.5	392	394	14.4	83.2
2022-10-25T13:49	10	46	0.3	45	46	392	0.5	391	393	14.3	83.1
2022-10-25T13:50	10	45	0.3	44	45	391	0.3	391	392	14.3	83.6
2022-10-25T13:51	10	44	0.4	43	45	391	0.3	391	392	14.3	83.1
2022-10-25T13:52	10	42	0.2	42	43	391	0.3	391	392	14.3	83.3
2022-10-25T13:53	10	41	0.2	41	42	391	0.3	390	392	14.3	83.3
2022-10-25T13:54	10	41	0.3	41	42	390	0.4	390	391	14.3	83.7
2022-10-25T13:55	10	44	0.9	42	45	390	0.4	390	391	14.3	83.6
2022-10-25T13:56	10	42	1.4	40	45	391	0.4	390	391	14.3	83.2
2022-10-25T13:57	10	40	0.2	40	41	390	0.4	389	391	14.3	82.8
2022-10-25T13:58	10	42	0.8	41	43	390	0.3	390	391	14.3	83.2
2022-10-25T13:59	10	44	1.0	42	46	391	0.3	390	392	14.4	83.5
2022-10-25T14:00	10	48	0.7	46	48	391	0.2	391	392	14.4	83.5
2022-10-25T14:01	10	45	1.7	43	48	391	0.4	390	392	14.4	83.6
2022-10-25T14:02	10	45	0.4	44	46	391	0.3	390	391	14.3	82.8
2022-10-25T14:03	10	45	0.7	43	46	391	0.4	390	391	14.3	83.2
2022-10-25T14:04	10	42	0.9	40	43	390	0.5	389	391	14.3	83.2
2022-10-25T14:05	10	40	0.2	39	40	390	0.4	389	390	14.3	83.3
2022-10-25T14:06	10	40	0.2	39	40	390	0.4	389	391	14.3	83.6
2022-10-25T14:07	10	41	0.3	40	41	390	0.3	389	391	14.4	83.8
2022-10-25T14:08	10	41	0.2	41	42	390	0.2	389	390	14.4	84.0
2022-10-25T14:09	10	41	0.2	41	42	390	0.2	390	391	14.4	83.6
2022-10-25T14:10	10	41	0.3	40	42	390	0.4	389	391	14.4	83.6
2022-10-25T14:11	10	41	0.2	40	41	390	0.5	389	391	14.4	84.1
2022-10-25T14:12	10	41	0.2	40	41	390	0.3	389	391	14.3	83.2
2022-10-25T14:13	10	40	0.2	40	41	390	0.3	389	391	14.4	84.1
2022-10-25T14:14	10	40	0.2	39	40	390	0.4	390	391	14.4	83.8
2022-10-25T14:15	10	39	0.2	39	40	390	0.2	390	391	14.3	83.5
2022-10-25T14:16	10	39	0.4	38	40	390	0.3	389	390	14.3	83.2
2022-10-25T14:17	10	38	0.4	37	38	389	0.2	388	390	14.3	83.2
2022-10-25T14:18	10	37	0.2	36	37	389	0.2	388	389	14.3	83.1
2022-10-25T14:19	10	36	0.1	36	37	389	0.2	388	389	14.3	83.2
2022-10-25T14:20	10	36	0.1	36	36	389	0.2	388	389	14.3	83.5
2022-10-25T14:21	10	36	0.7	36	41	389	0.3	388	389	14.3	83.9
2022-10-25T14:22	10	35	0.3	35	36	388	0.4	388	389	14.2	84.1
2022-10-25T14:23	10	34	0.2	34	35	387	0.4	386	388	14.1	83.9
2022-10-25T14:24	10	33	0.2	33	34	387	0.3	387	388	14.1	84.4
2022-10-25T14:25	10	33	0.2	33	33	387	0.3	386	388	14.1	84.6
2022-10-25T14:26	10	32	0.2	32	33	387	0.3	386	388	14.1	84.6
2022-10-25T14:27	10	32	0.1	32	32	387	0.2	386	387	14.1	84.5
2022-10-25T14:28	10	32	0.1	31	32	387	0.2	386	387	14.1	84.5
2022-10-25T14:29	10	31	0.1	31	32	386	0.2	386	387	14.1	84.7
2022-10-25T14:30	10	31	0.1	31	31	386	0.2	386	387	14.1	85.0
2022-10-25T14:31	10	31	0.1	30	31	386	0.2	386	386	14.1	84.8
2022-10-25T14:32	10	30	0.1	30	30	385	0.2	385	386	14.1	84.6
2022-10-25T14:33	10	30	0.2	29	30	386	0.2	385	386	14.1	84.9
2022-10-25T14:34	10	29	0.2	29	30	386	0.2	385	386	14.1	84.7
2022-10-25T14:35	10	29	0.1	28	29	386	0.3	385	387	14.1	85.1
2022-10-25T14:36	10	28	0.2	28	29	386	0.3	385	386	14.1	84.7
2022-10-25T14:37	10	28	0.2	27	28	386	0.2	385	386	14.0	84.5
2022-10-25T14:38	10	27	0.2	27	28	385	0.4	384	386	14.0	84.3
2022-10-25T14:39	10	27	0.2	26	27	385	0.2	384	385	14.0	84.3
2022-10-25T14:40	10	26	0.2	26	26	385	0.3	384	385	14.0	84.4
2022-10-25T14:41	10	25	0.2	25	26	384	0.2	384	385	14.0	84.8
2022-10-25T14:42	10	25	0.1	25	25	384	0.2	383	384	14.0	84.7
2022-10-25T14:43	10	24	0.1	24	25	384	0.2	383	385	14.0	84.7
2022-10-25T14:44	10	24	0.1	24	24	384	0.2	383	384	14.0	84.9
2022-10-25T14:45	10	24	0.1	24	24	384	0.2	384	384	14.0	85.1
2022-10-25T14:46	10	23	0.1	23	24	384	0.2	383	384	13.9	85.3
2022-10-25T14:47	10	23	0.1	23	23	384	0.2	383	384	13.9	85.4
2022-10-25T14:48	10	23	0.1	23	23	384	0.2	383	384	13.9	85.6
2022-10-25T14:49	10	23	0.1	23	23	383	0.2	383	384	13.9	85.4
2022-10-25T14:50	10	23	0.1	22	23	383	0.2	383	384	13.9	85.7
2022-10-25T14:51	10	22	0.1	22	23	383	0.3	383	384	13.9	85.8
2022-10-25T14:52	10	22	0.1	22	22	383	0.2	383	383	13.9	85.7
2022-10-25T14:53	10	22	0.1	22	22	383	0.2	383	384	13.9	85.6
2022-10-25T14:54	10	22	0.1	21	22	383	0.1	383	383	13.9	85.7
2022-10-25T14:55	10	21	0.1	21	22	383	0.2	382	383	13.9	85.9
2022-10-25T14:56	10	21	0.1	21	21	383	0.2	383	384	13.9	86.1
2022-10-25T14:57	10	21	0.1	20	21	383	0.2	382	383	13.9	85.8
2022-10-25T14:58	10	20	0.1	20	21	383	0.3	382	383	13.8	86.0
2022-10-25T14:59	10	20	0.1	20	20	383	0.3	382	383	13.8	86.1
2022-10-25T15:00	10	20	0.1	19	20	383	0.2	382	384	13.9	86.6
2022-10-25T15:01	10	19	0.1	19	20	383	0.4	381	383	13.9	86.3
2022-10-25T15:02	10	19	0.1	19	19	383	0.2	382	383	13.8	85.4
2022-10-25T15:03	10	19	0.2	18	19	382	0.2	382	383	13.8	85.8
2022-10-25T15:04	10	18	0.2	18	19	382	0.2	382	383	13.8	85.7
2022-10-25T15:05	10	18	0.2	18	18	382	0.3	382	383	13.8	86.3
2022-10-25T15:06	10	18	0.2	17	18	382	0.2	382	382	13.8	86.0
2022-10-25T15:07	10	17	0.2	17	18	382	0.3	381	383	13.8	86.4
2022-10-25T15:08	10	17	0.1	16	17	382	0.3	382	383	13.8	86.4
2022-10-25T15:09	10	16	0.1	16	17	382	0.2	381	382	13.8	86.1
2022-10-25T15:10	10	16	0.2	15	16	382	0.2	381	382	13.8	85.9
2022-10-25T15:11	10	15	0.2	15	15	382	0.2	381	382	13.8	86.4
2022-10-25T15:12	10	15	0.2	14	15	381	0.3	381	382	13.8	86.5
2022-10-25T15:13	10	14	0.1	14	15	381	0.2	381	382	13.8	86.5
2022-10-25T15:14	10	14	0.1	13	14	381	0.2	381	382	13.8	86.6
2022-10-25T15:15	10	13	0.2	13	14	381	0.3	381	382	13.7	86.6
2022-10-25T15:16	10	13	0.2	13	13	381	0.3	381	382	13.8	86.1
2022-10-25T15:17	10	13	0.2	12	13	381	0.2	380	382	13.8	85.8
2022-10-25T15:18	10	12	0.2	12	12	381	0.2	380	382	13.7	86.3
2022-10-25T15:19	10	12	0.1	11	12	381	0.2	380	381	13.7	86.5
2022-10-25T15:20	10	11	0.1	11	12	381	0.2	380	381	13.7	86.1
2022-10-25T15:21	10	11	0.1	11	11	381	0.2	380	381	13.7	86.2
2022-10-25T15:22	10	11	0.1	11	11	380	0.3	380	381	13.7	86.9
2022-10-25T15:23	10	10	0.1	10	11	380	0.2	380	381	13.6	87.2
2022-10-25T15:24	10	11	0.1	10	11	380	0.3	380	381	13.6	87.3
2022-10-25T15:25	10	11	0.1	11	11	380	0.2	380	381	13.6	87.0
2022-10-25T15:26	10	11	0.1	11	11	380	0.2	380	381	13.6	87.1
2022-10-25T15:27	10	11	0.1	10	11	380	0.3	380	381	13.6	87.2
2022-10-25T15:28	10	11	0.1	10	11	380	0.4	379	381	13.6	87.2
2022-10-25T15:29	10	10	0.1	10	11	380	0.3	379	380	13.6	87.5
2022-10-25T15:30	10	10	0.1	10	10	380	0.2	380	380	13.6	87.5
2022-10-25T15:31	10	11	0.2	10	11	380	0.3	379	380	13.5	87.6
2022-10-25T15:32	10	11	0.2	11	12	380	0.3	379	380	13.5	87.8
2022-10-25T15:33	10	12	0.1	11	12	380	0.2	379	380	13.5	87.1
2022-10-25T15:34	10	11	0.2	11	11	379	0.2	379	380	13.5	87.0
2022-10-25T15:35	10	11	0.2	10	11	379	0.3	379	380	13.5	87.0
2022-10-25T15:36	10	10	0.1	10	10	379	0.2	379	380	13.5	87.1
2022-10-25T15:37	10	10	0.1	10	10	379	0.2	379	380	13.5	86.7
2022-10-25T15:38	10	10	0.1	9	10	379	0.2	379	380	13.5	86.8
2022-10-25T15:39	10	9	0.2	9	9	379	0.2	378	379	13.5	86.9
2022-10-25T15:40	10	9	0.1	8	9	379	0.2	378	379	13.4	87.1
2022-10-25T15:41	10	8	0.1	8	9	379	0.2	378	379	13.4	87.2
2022-10-25T15:42	10	8	0.1	8	9	378	0.3	378	379	13.4	87.4
2022-10-25T15:43	10	8	0.1	8	8	379	0.2	378	379	13.4	87.3
2022-10-25T15:44	10	8	0.1	8	8	378	0.2	378	379	13.4	87.8
2022-10-25T15:45	10	8	0.1	8	8	378	0.2	378	379	13.4	87.7
2022-10-25T15:46	10	8	0.1	8	9	379	0.2	378	379	13.4	87.2
2022-10-25T15:47	10	8	0.1	8	8	379	0.2	378	379	13.4	87.1
2022-10-25T15:48	10	8	0.1	8	8	379	0.3	378	379	13.4	87.2
2022-10-25T15:49	10	8	0.2	8	8	379	0.3	378	379	13.4	87.4
2022-10-25T15:50	10	8	0.2	7	8	378	0.3	378	379	13.4	87.8
2022-10-25T15:51	10	8	0.1	8	8	379	0.3	378	379	13.3	87.8
2022-10-25T15:52	10	8	0.2	7	8	379	0.3	378	379	13.3	87.8
2022-10-25T15:53	10	8	0.1	8	8	379	0.3	378	379	13.3	87.8
2022-10-25T15:54	10	8	0.1	8	8	379	0.2	378	379	13.4	87.7
2022-10-25T15:55	10	8	0.1	8	8	379	0.2	378	379	13.3	87.9
2022-10-25T15:56	10	8	0.2	8	9	378	0.2	378	379	13.3	87.9
2022-10-25T15:57	10	8	0.1	8	9	378	0.2	378	379	13.4	87.3
2022-10-25T15:58	10	8	0.2	8	9	378	0.2	378	379	13.3	87.4
2022-10-25T15:59	10	8	0.2	8	9	378	0.2	377	378	13.3	87.5
2022-10-25T16:00	10	9	0.1	8	9	378	0.3	377	379	13.3	87.6
2022-10-25T16:01	10	9	0.2	8	9	378	0.3	377	379	13.3	87.6
2022-10-25T16:02	10	8	0.1	8	9	378	0.2	377	379	13.3	87.6
2022-10-25T16:03	10	8	0.1	8	9	378	0.3	377	378	13.3	87.5
2022-10-25T16:04	10	8	0.2	8	9	377	0.3	377	378	13.3	87.6
2022-10-25T16:05	10	8	0.1	8	8	377	0.3	377	378	13.3	87.9
2022-10-25T16:06	10	8	0.1	8	8	377	0.2	377	378	13.3	87.9
2022-10-25T16:07	10	8	0.1	8	8	377	0.2	377	378	13.2	88.0
2022-10-25T16:08	10	8	0.1	7	8	377	0.2	377	378	13.2	88.1
2022-10-25T16:09	10	8	0.1	7	8	377	0.2	376	377	13.2	88.1
2022-10-25T16:10	10	7	0.1	7	8	377	0.2	376	377	13.2	88.2
2022-10-25T16:11	10	7	0.1	7	7	377	0.3	376	377	13.2	88.2
2022-10-25T16:12	10	7	0.1	7	7	377	0.2	376	377	13.2	88.3
2022-10-25T16:13	10	6	0.1	6	7	376	0.3	376	377	13.2	88.5
2022-10-25T16:14	10	6	0.2	6	6	376	0.2	376	377	13.2	88.8
2022-10-25T16:15	10	6	0.1	5	6	376	0.3	376	377	13.2	88.8
2022-10-25T16:16	10	5	0.1	5	6	376	0.2	375	376	13.1	89.0
2022-10-25T16:17	10	5	0.1	4	5	376	0.2	375	376	13.1	89.4
2022-10-25T16:18	10	4	0.1	4	5	375	0.2	375	376	13.1	89.8
2022-10-25T16:19	10	4	0.1	4	4	375	0.3	375	376	13.0	90.2
2022-10-25T16:20	10	4	0.1	3	4	375	0.3	375	376	13.0	90.1
2022-10-25T16:21	10	3	0.1	3	3	375	0.3	375	376	13.1	89.7
2022-10-25T16:22	10	3	0.1	3	3	375	0.3	375	376	13.0	89.8
2022-10-25T16:23	10	3	0.1	3	4	375	0.2	374	375	13.1	89.4
2022-10-25T16:24	10	3	0.1	2	3	375	0.2	375	375	13.1	89.0
2022-10-25T16:25	10	2	0.1	2	2	375	0.2	374	375	13.1	88.7
2022-10-25T16:26	10	2	0.1	2	2	374	0.3	374	375	13.1	88.6
2022-10-25T16:27	10	2	0.1	2	2	375	0.2	374	375	13.1	88.4
2022-10-25T16:28	10	2	0.1	1	2	374	0.3	374	375	13.1	87.9
2022-10-25T16:29	10	1	0.1	1	2	374	0.2	373	374	13.1	88.1
2022-10-25T16:30	10	1	0.1	1	1	373	0.2	373	374	13.1	88.3
2022-10-25T16:31	10	1	0.1	1	1	373	0.2	372	373	13.0	88.9
2022-10-25T16:32	10	1	0.1	1	1	372	0.3	372	373	13.0	89.3
2022-10-25T16:33	10	1	0.1	0	1	372	0.2	372	372	13.0	89.2
2022-10-25T16:34	10	0	0.1	0	1	371	0.3	371	372	13.0	89.3
2022-10-25T16:35	10	0	0.1	0	1	371	0.2	370	371	12.9	89.4
2022-10-25T16:36	10	0	0.1	0	1	371	0.3	370	371	12.9	89.5
2022-10-25T16:37	10	0	0.1	0	0	370	0.2	370	371	12.9	89.5
2022-10-25T16:38	10	0	0.1	0	0	370	0.3	369	371	12.9	89.3
2022-10-25T16:39	10	0	0.1	0	1	370	0.2	369	370	12.9	89.4
2022-10-25T16:40	10	0	0.1	0	1	370	0.2	369	370	12.9	89.6
2022-10-25T16:41	10	0	0.1	0	0	370	0.2	369	370	12.9	89.4
2022-10-25T16:42	10	0	0.1	0	0	370	0.3	369	371	12.9	89.3
2022-10-25T16:43	10	0	0.1	0	0	370	0.2	369	370	12.9	89.6
2022-10-25T16:44	10	0	0.1	0	0	370	0.3	369	370	12.8	89.9
2022-10-25T16:45	10	0	0.1	0	0	370	0.2	369	370	12.8	90.3
2022-10-25T16:46	10	0	0.1	0	0	370	0.2	369	370	12.7	90.7
2022-10-25T16:47	10	0	0.1	0	0	370	0.2	370	370	12.7	90.9
2022-10-25T16:48	10	0	0.1	0	1	370	0.3	369	371	12.7	91.0
2022-10-25T16:49	10	0	0.1	0	1	370	0.2	370	370	12.8	91.1
2022-10-25T16:50	10	0	0.1	0	1	370	0.2	370	371	12.8	90.9
2022-10-25T16:51	10	0	0.1	0	1	370	0.3	370	371	12.8	91.0
2022-10-25T16:52	10	0	0.1	0	0	370	0.2	369	371	12.7	91.2
2022-10-25T16:53	10	0	0.1	0	1	370	0.2	370	370	12.7	91.4
2022-10-25T16:54	10	0	0.1	0	0	370	0.2	369	370	12.7	91.6
2022-10-25T16:55	10	0	0.1	0	0	370	0.2	369	370	12.7	91.9
2022-10-25T16:56	10	0	0.1	0	0	369	0.2	369	370	12.6	92.2
2022-10-25T16:57	10	0	0.1	0	1	370	0.3	369	370	12.6	92.5
2022-10-25T16:58	10	0	0.1	0	1	369	0.2	368	370	12.6	92.7
2022-10-25T16:59	10	1	0.1	0	1	369	0.3	368	369	12.6	92.7
2022-10-25T17:00	10	1	0.1	0	1	369	0.2	368	369	12.6	92.8
2022-10-25T17:01	10	1	0.1	1	1	369	0.2	368	369	12.7	92.8
2022-10-25T17:02	10	1	0.1	1	1	369	0.3	368	369	12.7	92.8
2022-10-25T17:03	10	1	0.1	0	1	369	0.2	368	369	12.7	92.7
2022-10-25T17:04	10	1	0.1	1	1	368	0.3	368	369	12.7	92.6
2022-10-25T17:05	10	1	0.1	1	1	368	0.3	368	369	12.7	92.6
2022-10-25T17:06	10	1	0.1	0	1	368	0.2	368	369	12.7	92.5
2022-10-25T17:07	10	1	0.1	1	1	368	0.2	368	369	12.7	92.3
2022-10-25T17:08	10	1	0.1	1	1	368	0.2	367	369	12.8	91.8
2022-10-25T17:09	10	1	0.1	0	1	368	0.2	368	368	12.8	91.1
2022-10-25T17:10	10	1	0.1	0	1	368	0.3	367	369	12.7	91.2
2022-10-25T17:11	10	1	0.1	0	1	368	0.3	368	369	12.6	91.7
2022-10-25T17:12	10	1	0.1	0	1	368	0.2	368	369	12.6	92.3
2022-10-25T17:13	10	0	0.1	0	1	369	0.3	368	369	12.6	92.4
2022-10-25T17:14	10	1	0.1	0	1	369	0.3	368	369	12.5	92.6
2022-10-25T17:15	10	0	0.1	0	1	369	0.3	368	369	12.5	92.8
2022-10-25T17:16	10	0	0.1	0	1	369	0.3	368	369	12.5	92.9
2022-10-25T17:17	10	1	0.1	0	1	369	0.2	368	369	12.5	93.1
2022-10-25T17:18	10	1	0.1	0	1	369	0.3	368	370	12.6	92.8
2022-10-25T17:19	10	1	0.1	0	1	369	0.2	369	370	12.6	92.5
2022-10-25T17:20	10	0	0.1	0	1	370	0.2	369	370	12.7	92.2
2022-10-25T17:21	10	0	0.1	0	1	370	0.2	369	370	12.6	91.8
2022-10-25T17:22	10	0	0.1	0	1	370	0.3	369	370	12.6	91.9
2022-10-25T17:23	10	0	0.1	0	1	370	0.2	369	370	12.6	91.9
2022-10-25T17:24	10	0	0.1	0	1	370	0.2	370	370	12.6	92.2
2022-10-25T17:25	10	0	0.1	0	1	370	0.2	369	371	12.7	92.5
2022-10-25T17:26	10	0	0.1	0	1	370	0.2	370	370	12.6	92.7
2022-10-25T17:27	10	0	0.1	0	1	370	0.2	369	370	12.6	93.1
2022-10-25T17:28	10	0	0.1	0	1	370	0.2	370	370	12.5	93.3
2022-10-25T17:29	10	0	0.1	0	0	370	0.3	369	371	12.5	93.6
2022-10-25T17:30	10	0	0.1	0	0	370	0.2	370	371	12.5	93.7
2022-10-25T17:31	10	0	0.1	0	0	370	0.2	369	370	12.6	93.2
2022-10-25T17:32	10	0	0.1	0	0	370	0.3	369	370	12.6	92.9
2022-10-25T17:33	10	0	0.1	0	0	370	0.2	369	370	12.6	92.9
2022-10-25T17:34	10	0	0.1	0	0	370	0.3	369	370	12.5	92.8
2022-10-25T17:35	10	0	0.1	0	0	369	0.3	368	369	12.4	93.0
2022-10-25T17:36	10	0	0.1	0	0	368	0.3	367	369	12.3	93.4
2022-10-25T17:37	10	0	0.1	0	0	367	0.3	367	368	12.2	94.0
2022-10-25T17:38	10	0	0.1	0	0	367	0.3	366	367	12.2	94.5
2022-10-25T17:39	10	0	0.1	0	0	366	0.3	365	366	12.2	94.6
2022-10-25T17:40	10	0	0.1	0	0	365	0.2	365	366	12.2	94.6
2022-10-25T17:41	10	0	0.1	0	0	365	0.2	364	365	12.2	94.8
2022-10-25T17:42	10	0	0.1	0	0	365	0.2	364	365	12.3	94.9
2022-10-25T17:43	10	0	0.1	0	0	364	0.2	364	365	12.3	94.8
2022-10-25T17:44	10	0	0.1	0	0	364	0.3	363	364	12.2	94.8
2022-10-25T17:45	10	0	0.1	0	0	364	0.2	363	364	12.1	94.9
2022-10-25T17:46	10	0	0.1	0	0	363	0.2	363	364	12.1	95.0
2022-10-25T17:47	10	0	0.1	0	0	363	0.2	363	364	12.2	95.0
2022-10-25T17:48	10	0	0.1	0	0	363	0.2	362	363	12.2	94.8
2022-10-25T17:49	10	0	0.1	0	0	362	0.2	362	363	12.2	94.5
2022-10-25T17:50	10	0	0.1	0	0	362	0.3	361	362	12.2	94.4
2022-10-25T17:51	10	0	0.1	0	0	362	0.2	361	362	12.2	94.4
2022-10-25T17:52	10	0	0.1	0	0	362	0.2	361	362	12.3	94.4
2022-10-25T17:53	10	0	0.1	0	0	362	0.3	361	362	12.3	94.4
2022-10-25T17:54	10	0	0.1	0	0	362	0.3	361	362	12.4	94.2
2022-10-25T17:55	10	0	0.1	0	0	362	0.2	361	362	12.4	93.9
2022-10-25T17:56	10	0	0.1	0	0	362	0.2	361	362	12.4	93.9
2022-10-25T17:57	10	0	0.1	0	0	362	0.2	361	362	12.4	94.0
2022-10-25T17:58	10	0	0.1	0	0	361	0.2	361	362	12.4	93.8
2022-10-25T17:59	10	0	0.1	0	0	361	0.3	361	362	12.4	93.7
2022-10-25T18:00	10	0	0.1	0	0	361	0.2	360	361	12.3	93.7
2022-10-25T18:01	10	0	0.1	0	0	360	0.2	360	361	12.2	93.8
2022-10-25T18:02	10	0	0.1	0	0	360	0.3	359	361	12.1	94.2
2022-10-25T18:03	10	0	0.1	0	0	360	0.2	359	360	12.1	94.4
2022-10-25T18:04	10	0	0.1	0	0	359	0.3	359	360	11.9	94.5
2022-10-25T18:05	10	0	0.1	0	0	359	0.1	359	359	11.8	94.8
2022-10-25T18:06	10	0	0.1	0	1	358	0.2	358	359	11.7	95.2
2022-10-25T18:07	10	0	0.1	0	1	358	0.2	357	358	11.6	95.5
2022-10-25T18:08	10	0	0.1	0	1	358	0.2	358	358	11.6	95.9
2022-10-25T18:09	10	0	0.1	0	0	358	0.2	357	358	11.6	96.2
2022-10-25T18:10	10	0	0.1	0	0	358	0.2	357	358	11.8	96.5
2022-10-25T18:11	10	0	0.1	0	0	358	0.2	357	358	11.8	96.5
2022-10-25T18:12	10	0	0.1	0	1	358	0.2	357	358	11.9	96.5
2022-10-25T18:13	10	0	0.1	0	0	358	0.2	358	359	11.9	96.4
2022-10-25T18:14	10	0	0.1	0	0	358	0.2	358	358	11.9	96.2
2022-10-25T18:15	10	0	0.1	0	0	358	0.2	358	358	11.9	96.1
2022-10-25T18:16	10	0	0.1	0	0	358	0.2	357	358	11.9	96.1
2022-10-25T18:17	10	0	0.1	0	1	358	0.2	357	358	11.9	96.0
2022-10-25T18:18	10	0	0.1	0	1	358	0.3	357	358	11.8	95.9
2022-10-25T18:19	10	0	0.1	0	1	358	0.2	357	358	11.8	96.1
2022-10-25T18:20	10	0	0.1	0	1	357	0.3	357	358	11.9	96.1
2022-10-25T18:21	10	0	0.1	0	1	357	0.2	357	358	11.8	96.1
2022-10-25T18:22	10	0	0.1	0	1	357	0.2	357	357	11.8	96.1
2022-10-25T18:23	10	0	0.1	0	0	357	0.2	357	357	11.8	96.1
2022-10-25T18:24	10	0	0.1	0	1	357	0.2	356	357	11.7	96.1
2022-10-25T18:25	10	0	0.1	0	1	357	0.2	357	357	11.5	96.2
2022-10-25T18:26	10	0	0.1	0	0	357	0.2	357	357	11.5	96.4
2022-10-25T18:27	10	0	0.1	0	0	357	0.2	356	357	11.4	96.5
2022-10-25T18:28	10	0	0.1	0	0	356	0.2	356	357	11.4	96.6
2022-10-25T18:29	10	0	0.1	0	1	356	0.3	356	357	11.5	96.7
2022-10-25T18:30	10	0	0.1	0	0	356	0.3	356	357	11.5	96.8
2022-10-25T18:31	10	0	0.1	0	0	357	0.3	356	358	11.5	96.8
2022-10-25T18:32	10	0	0.2	0	0	358	0.2	357	358	11.5	96.8
2022-10-25T18:33	10	0	0.2	-1	1	359	0.3	358	359	11.4	96.8
2022-10-25T18:34	10	0	0.1	-1	0	359	0.4	358	360	11.5	96.9
2022-10-25T18:35	10	-1	0.1	-1	0	359	0.4	359	360	11.5	97.0
2022-10-25T18:36	10	-1	0.1	-1	0	360	0.3	359	360	11.5	97.0
2022-10-25T18:37	10	0	0.2	-1	0	360	0.3	360	361	11.5	96.9
2022-10-25T18:38	10	-1	0.2	-1	0	361	0.4	360	362	11.4	96.9
2022-10-25T18:39	10	-1	0.2	-1	0	362	0.5	361	363	11.4	97.0
2022-10-25T18:40	10	-1	0.1	-1	-1	362	0.4	361	363	11.5	97.1
2022-10-25T18:41	10	-1	0.1	-1	-1	362	0.3	361	363	11.5	97.1
2022-10-25T18:42	10	-1	0.1	-1	-1	362	0.3	361	362	11.4	97.1
2022-10-25T18:43	10	-1	0.1	-1	-1	362	0.2	361	362	11.4	97.1
2022-10-25T18:44	10	-1	0.1	-1	-1	361	0.2	361	362	11.4	97.1
2022-10-25T18:45	10	-1	0.2	-1	0	361	0.3	360	362	11.3	97.2
2022-10-25T18:46	10	0	0.1	-1	0	361	0.7	360	362	11.3	97.2
2022-10-25T18:47	10	0	0.2	-1	0	362	0.4	361	362	11.3	97.2
2022-10-25T18:48	10	-1	0.1	-1	0	362	0.9	360	363	11.4	97.4
2022-10-25T18:49	10	-1	0.1	-1	0	362	0.3	361	362	11.5	97.4
2022-10-25T18:50	10	0	0.1	-1	0	362	0.2	361	363	11.6	97.4
2022-10-25T18:51	10	0	0.1	-1	0	362	0.3	361	362	11.5	97.4
2022-10-25T18:52	10	0	0.2	-1	0	361	0.4	360	362	11.5	97.3
2022-10-25T18:53	10	0	0.1	0	0	361	0.2	360	361	11.4	97.2
2022-10-25T18:54	10	0	0.1	0	0	360	0.2	360	361	11.4	97.1
2022-10-25T18:55	10	0	0.1	0	0	360	0.3	359	361	11.5	97.3
2022-10-25T18:56	10	0	0.1	0	0	360	0.3	359	360	11.8	97.4
2022-10-25T18:57	10	0	0.1	0	0	359	0.3	358	360	11.7	97.1
2022-10-25T18:58	10	0	0.1	0	0	358	0.4	357	359	11.6	96.9
2022-10-25T18:59	10	0	0.1	0	0	357	0.2	357	358	11.5	96.8
2022-10-25T19:00	10	0	0.1	0	0	357	0.2	357	358	11.5	96.8
2022-10-25T19:01	10	0	0.1	0	0	357	0.2	356	357	11.4	96.9
2022-10-25T19:02	10	0	0.1	0	0	357	0.2	356	357	11.4	96.9
2022-10-25T19:03	10	0	0.1	0	0	357	0.3	356	357	11.4	97.1
2022-10-25T19:04	10	0	0.1	0	0	357	0.2	356	357	11.4	97.1
2022-10-25T19:05	10	0	0.1	-1	0	357	0.3	356	358	11.4	97.2
2022-10-25T19:06	10	0	0.1	0	0	357	0.4	356	358	11.4	97.3
2022-10-25T19:07	10	0	0.1	-1	0	357	0.2	357	358	11.4	97.3
2022-10-25T19:08	10	0	0.1	-1	0	357	0.2	357	358	11.4	97.4
2022-10-25T19:09	10	0	0.1	-1	0	358	0.3	357	359	11.4	97.5
2022-10-25T19:10	10	-1	0.1	-1	0	359	0.3	358	359	11.4	97.5
2022-10-25T19:11	10	-1	0.1	-1	0	359	0.4	358	360	11.4	97.6
2022-10-25T19:12	10	-1	0.1	-1	0	359	0.2	358	359	11.3	97.6
2022-10-25T19:13	10	0	0.1	-1	0	358	0.2	358	359	11.2	97.5
2022-10-25T19:14	10	0	0.1	-1	0	359	0.2	358	359	11.2	97.5
2022-10-25T19:15	10	0	0.1	0	0	359	0.4	358	360	11.1	97.6
2022-10-25T19:16	10	0	0.1	-1	0	360	0.3	359	360	11.1	97.7
2022-10-25T19:17	10	0	0.1	0	0	360	0.2	359	360	11.1	97.7
2022-10-25T19:18	10	0	0.1	0	0	360	0.2	359	360	11.0	97.8
2022-10-25T19:19	10	0	0.1	0	0	360	0.2	359	360	11.2	98.0
2022-10-25T19:20	10	0	0.1	0	0	360	0.2	359	360	11.2	98.1
2022-10-25T19:21	10	0	0.1	0	0	359	0.3	359	360	11.3	98.2
2022-10-25T19:22	10	0	0.1	0	0	360	0.3	359	360	11.2	98.1
2022-10-25T19:23	10	0	0.1	0	0	360	0.2	360	360	11.2	98.2
2022-10-25T19:24	10	0	0.1	0	0	360	0.3	359	360	11.3	98.1
2022-10-25T19:25	10	0	0.1	-1	0	359	0.3	358	360	11.3	98.1
2022-10-25T19:26	10	0	0.1	0	0	359	0.3	359	360	11.3	98.0
2022-10-25T19:27	10	0	0.1	0	0	360	0.2	359	361	11.5	98.0
2022-10-25T19:28	10	0	0.1	0	0	360	0.1	360	361	11.6	98.0
2022-10-25T19:29	10	0	0.1	0	0	360	0.3	360	361	11.7	97.8
2022-10-25T19:30	10	0	0.1	0	0	360	0.2	359	360	11.7	97.6
2022-10-25T19:31	10	0	0.0	0	0	360	0.3	360	361	11.6	97.3
2022-10-25T19:32	10	0	0.1	0	0	360	0.2	360	361	11.4	97.0
2022-10-25T19:33	10	0	0.1	-1	0	361	0.2	360	361	11.4	97.2
2022-10-25T19:34	10	-1	0.1	-1	0	361	0.2	361	362	11.4	97.3
2022-10-25T19:35	10	-1	0.1	-1	-1	362	0.3	361	362	11.5	97.4
2022-10-25T19:36	10	-1	0.1	-1	-1	362	0.2	361	362	11.4	97.2
2022-10-25T19:37	10	-1	0.1	-1	0	362	0.2	361	362	11.7	97.4
2022-10-25T19:38	10	0	0.1	-1	0	362	0.2	362	362	11.8	97.2
2022-10-25T19:39	10	0	0.1	0	0	362	0.2	361	362	11.6	96.7
2022-10-25T19:40	10	0	0.1	0	0	362	0.2	361	362	11.6	96.7
2022-10-25T19:41	10	0	0.1	0	0	362	0.2	362	363	11.6	96.6
2022-10-25T19:42	10	0	0.1	0	0	363	0.2	362	363	11.8	96.6
2022-10-25T19:43	10	0	0.1	0	0	363	0.3	362	363	11.5	96.3
2022-10-25T19:44	10	0	0.1	0	0	364	0.4	363	364	11.5	96.3
2022-10-25T19:45	10	0	0.1	0	0	364	0.3	363	365	11.7	96.7
2022-10-25T19:46	10	0	0.1	0	1	364	0.2	364	365	11.0	95.9
2022-10-25T19:47	10	0	0.1	0	0	365	0.2	365	366	11.1	96.2
2022-10-25T19:48	10	0	0.1	0	0	365	0.2	365	366	11.4	96.7
2022-10-25T19:49	10	0	0.1	0	1	365	0.2	365	366	11.3	96.8
2022-10-25T19:50	10	0	0.1	0	1	366	0.2	365	366	11.3	96.8
2022-10-25T19:51	10	0	0.1	0	1	366	0.3	365	367	11.3	96.9
2022-10-25T19:52	10	0	0.1	0	1	366	0.2	366	367	11.2	97.0
2022-10-25T19:53	10	0	0.1	0	1	366	0.2	366	367	11.2	97.1
2022-10-25T19:54	10	0	0.1	0	0	366	0.3	365	366	11.1	97.2
2022-10-25T19:55	10	0	0.1	0	0	366	0.3	365	366	11.0	97.3
2022-10-25T19:56	10	0	0.1	0	0	366	0.2	365	366	10.9	97.3
2022-10-25T19:57	10	0	0.1	0	0	366	0.3	365	366	10.8	97.4
2022-10-25T19:58	10	0	0.1	-1	0	366	0.2	365	366	10.8	97.5
2022-10-25T19:59	10	-1	0.1	-1	0	366	0.2	366	367	10.9	97.7
2022-10-25T20:00	10	-1	0.1	-1	0	366	0.3	366	367	10.8	97.7
2022-10-25T20:01	10	0	0.1	-1	0	366	0.2	366	367	10.9	97.8
2022-10-25T20:02	10	0	0.1	-1	0	366	0.3	366	367	10.9	97.8
2022-10-25T20:03	10	0	0.1	-1	0	366	0.2	366	367	10.9	98.0
2022-10-25T20:04	10	-1	0.1	-1	0	366	0.2	366	367	10.9	98.0
2022-10-25T20:05	10	-1	0.1	-1	-1	367	0.2	366	367	11.0	98.1
2022-10-25T20:06	10	-1	0.1	-1	-1	367	0.2	366	367	11.0	98.2
2022-10-25T20:07	10	-1	0.1	-1	-1	367	0.2	366	367	11.0	98.1
2022-10-25T20:08	10	-1	0.1	-1	-1	367	0.3	366	368	11.1	98.2
2022-10-25T20:09	10	-1	0.1	-1	-1	367	0.3	366	368	11.1	98.2
2022-10-25T20:10	10	-1	0.0	-1	-1	367	0.2	366	367	11.1	98.2
2022-10-25T20:11	10	-1	0.1	-1	-1	366	0.3	366	367	11.1	98.2
2022-10-25T20:12	10	-1	0.1	-1	-1	367	0.2	366	367	11.1	98.2
2022-10-25T20:13	10	-1	0.1	-1	-1	366	0.2	366	367	11.2	98.2
2022-10-25T20:14	10	-1	0.1	-1	0	366	0.3	366	367	11.3	98.2
2022-10-25T20:15	10	0	0.1	-1	0	367	0.2	366	367	11.3	98.2
2022-10-25T20:16	10	0	0.1	0	0	367	0.3	366	367	11.2	98.1
2022-10-25T20:17	10	0	0.1	0	0	367	0.2	367	368	11.2	98.1
2022-10-25T20:18	10	0	0.1	0	0	367	0.3	367	368	11.3	98.1
2022-10-25T20:19	10	0	0.1	0	0	367	0.3	367	368	11.4	98.1
2022-10-25T20:20	10	0	0.0	0	0	368	0.2	367	368	11.6	98.1
2022-10-25T20:21	10	0	0.1	0	0	368	0.2	368	369	11.7	98.1
2022-10-25T20:22	10	0	0.1	0	0	368	0.2	368	369	11.8	97.9
2022-10-25T20:23	10	0	0.1	0	0	368	0.3	367	369	11.8	97.6
2022-10-25T20:24	10	0	0.1	0	0	368	0.3	367	369	11.6	97.3
2022-10-25T20:25	10	0	0.1	0	0	368	0.6	367	370	11.4	97.0
2022-10-25T20:26	10	0	0.1	0	0	368	0.5	367	369	11.4	97.0
2022-10-25T20:27	10	0	0.1	-1	0	368	0.3	367	369	11.2	97.0
2022-10-25T20:28	10	-1	0.1	-1	-1	368	0.8	367	369	11.1	97.0
2022-10-25T20:29	10	-1	0.1	-1	-1	368	0.3	367	368	11.1	97.2
2022-10-25T20:30	10	-1	0.1	-1	-1	368	0.2	367	368	11.1	97.3
2022-10-25T20:31	10	-1	0.1	-1	0	368	0.3	367	368	11.2	97.5
2022-10-25T20:32	10	-1	0.1	-1	0	367	0.3	367	368	11.2	97.5
2022-10-25T20:33	10	-1	0.1	-1	-1	367	0.2	367	368	11.1	97.6
2022-10-25T20:34	10	-1	0.1	-2	-1	367	0.3	367	368	11.1	97.6
2022-10-25T20:35	10	-2	0.1	-2	-1	367	0.3	367	368	11.1	97.7
2022-10-25T20:36	10	-2	0.1	-2	-1	367	0.3	367	368	11.1	97.8
2022-10-25T20:37	10	-1	0.1	-2	-1	368	0.5	367	369	11.1	97.8
2022-10-25T20:38	10	-1	0.1	-1	-1	367	0.4	367	368	11.1	97.8
2022-10-25T20:39	10	-1	0.1	-1	-1	368	0.3	367	368	11.1	97.9
2022-10-25T20:40	10	-1	0.1	-1	0	368	0.3	367	368	11.2	98.0
2022-10-25T20:41	10	-1	0.1	-1	0	368	0.3	367	369	11.3	98.0
2022-10-25T20:42	10	0	0.1	-1	0	368	0.2	367	368	11.3	98.1
2022-10-25T20:43	10	0	0.1	0	0	368	0.5	367	369	11.3	98.0
2022-10-25T20:44	10	0	0.1	0	0	368	0.4	367	369	11.3	98.1
2022-10-25T20:45	10	0	0.1	0	0	368	0.2	368	369	11.4	98.1
2022-10-25T20:46	10	0	0.1	0	0	368	0.2	368	369	11.3	98.0
2022-10-25T20:47	10	0	0.1	0	1	369	0.2	368	369	11.3	98.0
2022-10-25T20:48	10	0	0.1	0	1	368	0.2	368	369	11.3	98.0
2022-10-25T20:49	10	0	0.1	0	1	368	0.2	368	369	11.3	98.0
2022-10-25T20:50	10	0	0.1	0	1	368	0.3	368	369	11.3	98.0
2022-10-25T20:51	10	0	0.1	0	1	368	0.3	368	369	11.3	97.9
2022-10-25T20:52	10	1	0.1	0	1	369	0.3	368	369	11.3	97.9
2022-10-25T20:53	10	0	0.1	0	1	369	0.3	368	369	11.3	98.0
2022-10-25T20:54	10	0	0.1	0	1	369	0.3	368	369	11.3	98.0
2022-10-25T20:55	10	0	0.1	0	1	369	0.3	368	370	11.3	98.0
2022-10-25T20:56	10	0	0.1	0	0	369	0.4	368	370	11.4	98.0
2022-10-25T20:57	10	0	0.1	0	0	369	0.4	368	370	11.3	98.0
2022-10-25T20:58	10	0	0.1	0	0	369	0.5	368	370	11.3	98.0
2022-10-25T20:59	10	0	0.1	0	0	369	0.2	368	370	11.3	98.0
2022-10-25T21:00	10	0	0.1	0	0	369	0.3	368	370	11.3	98.0
2022-10-25T21:01	10	0	0.1	0	0	369	0.2	369	370	11.3	98.1
2022-10-25T21:02	10	0	0.1	0	0	369	0.3	368	370	11.3	98.1
2022-10-25T21:03	10	0	0.1	0	0	369	0.3	368	369	11.2	98.1
2022-10-25T21:04	10	0	0.1	-1	0	369	0.2	368	369	11.2	98.2
2022-10-25T21:05	10	-1	0.1	-1	0	369	0.2	368	369	11.2	98.2
2022-10-25T21:06	10	-1	0.1	-1	-1	369	0.3	368	369	11.3	98.3
2022-10-25T21:07	10	-1	0.1	-1	-1	369	0.2	368	369	11.3	98.3
2022-10-25T21:08	10	-1	0.1	-1	0	369	0.2	368	370	11.4	98.3
2022-10-25T21:09	10	0	0.1	-1	0	369	0.3	368	370	11.4	98.3
2022-10-25T21:10	10	0	0.1	0	0	369	0.3	369	370	11.4	98.2
2022-10-25T21:11	10	0	0.1	0	0	369	0.2	368	369	11.3	98.2
2022-10-25T21:12	10	0	0.1	0	0	369	0.2	368	369	11.3	98.1
2022-10-25T21:13	10	0	0.1	-1	0	369	0.3	368	369	11.3	98.1
2022-10-25T21:14	10	0	0.1	-1	0	369	0.2	368	369	11.3	98.2
2022-10-25T21:15	10	0	0.1	-1	0	369	0.3	368	369	11.4	98.2
2022-10-25T21:16	10	0	0.1	0	0	369	0.3	368	369	11.4	98.1
2022-10-25T21:17	10	0	0.1	0	0	369	0.2	368	369	11.3	98.1
2022-10-25T21:18	10	0	0.1	0	0	369	0.2	368	369	11.3	98.1
2022-10-25T21:19	10	0	0.0	0	0	369	0.3	368	369	11.4	98.1
2022-10-25T21:20	10	0	0.1	0	1	369	0.3	368	370	11.4	98.1
2022-10-25T21:21	10	0	0.1	0	0	369	0.2	369	370	11.4	98.1
2022-10-25T21:22	10	0	0.1	0	0	369	0.5	368	370	11.5	98.1
2022-10-25T21:23	10	0	0.1	0	0	369	0.2	368	369	11.4	98.0
2022-10-25T21:24	10	0	0.1	0	0	369	0.2	368	369	11.5	98.0
2022-10-25T21:25	10	0	0.1	-1	0	369	0.2	368	369	11.5	98.0
2022-10-25T21:26	10	-1	0.1	-1	0	369	0.2	368	369	11.4	98.0
2022-10-25T21:27	10	-1	0.1	-1	-1	369	0.3	368	369	11.4	97.9
2022-10-25T21:28	10	-1	0.1	-1	-1	369	0.2	368	369	11.4	98.0
2022-10-25T21:29	10	-1	0.1	-1	-1	369	0.2	368	369	11.4	98.0
2022-10-25T21:30	10	-1	0.1	-1	-1	369	0.2	368	369	11.4	98.1
2022-10-25T21:31	10	-1	0.1	-1	-1	369	0.2	369	369	11.5	98.1
2022-10-25T21:32	10	-1	0.1	-1	-1	369	0.2	368	370	11.5	98.1
2022-10-25T21:33	10	-1	0.1	-1	0	369	0.3	368	370	11.4	98.0
2022-10-25T21:34	10	0	0.1	-1	0	369	0.4	368	370	11.5	98.0
2022-10-25T21:35	10	0	0.1	0	0	369	0.2	369	370	11.5	98.0
2022-10-25T21:36	10	0	0.1	0	0	370	0.3	369	370	11.6	98.0
2022-10-25T21:37	10	0	0.1	0	0	370	0.4	369	370	11.6	97.9
2022-10-25T21:38	10	0	0.1	0	0	369	0.2	369	370	11.5	97.9
2022-10-25T21:39	10	0	0.1	0	0	369	0.2	369	370	11.5	97.8
2022-10-25T21:40	10	0	0.1	0	0	369	0.2	368	370	11.5	97.8
2022-10-25T21:41	10	0	0.1	0	0	369	0.2	368	369	11.5	97.8
2022-10-25T21:42	10	0	0.1	0	0	369	0.3	368	369	11.5	97.7
2022-10-25T21:43	10	0	0.0	0	0	368	0.2	368	369	11.4	97.7
2022-10-25T21:44	10	0	0.1	0	0	368	0.3	368	369	11.4	97.8
2022-10-25T21:45	10	0	0.1	0	0	368	0.2	368	369	11.5	97.8
2022-10-25T21:46	10	0	0.1	0	0	368	0.2	367	368	11.5	97.9
2022-10-25T21:47	10	0	0.1	0	0	368	0.2	368	369	11.5	97.8
2022-10-25T21:48	10	0	0.1	0	0	368	0.2	367	368	11.5	97.8
2022-10-25T21:49	10	0	0.1	0	0	367	0.6	366	368	11.6	97.9
2022-10-25T21:50	10	0	0.1	0	0	368	0.3	367	368	11.5	97.8
2022-10-25T21:51	10	0	0.1	0	1	367	0.2	367	368	11.6	97.8
2022-10-25T21:52	10	0	0.1	0	1	367	0.3	366	368	11.7	97.8
2022-10-25T21:53	10	0	0.1	0	0	367	0.2	366	367	11.8	97.7
2022-10-25T21:54	10	0	0.1	0	1	367	0.2	366	367	11.7	97.5
2022-10-25T21:55	10	0	0.1	0	1	366	0.2	366	367	11.6	97.4
2022-10-25T21:56	10	0	0.1	0	1	367	0.2	367	367	11.6	97.4
2022-10-25T21:57	10	0	0.1	0	1	367	0.6	366	368	11.5	97.3
2022-10-25T21:58	10	0	0.1	0	0	368	0.5	366	368	11.5	97.3
2022-10-25T21:59	10	0	0.1	0	1	368	0.2	368	368	11.4	97.3
2022-10-25T22:00	10	0	0.1	0	0	368	0.2	367	368	11.4	97.4
2022-10-25T22:01	10	0	0.1	0	1	368	0.2	368	369	11.5	97.5
2022-10-25T22:02	10	1	0.1	0	1	368	0.2	368	369	11.5	97.6
2022-10-25T22:03	10	1	0.1	0	1	368	0.2	368	369	11.5	97.6
2022-10-25T22:04	10	1	0.1	0	1	368	0.2	368	369	11.4	97.7
2022-10-25T22:05	10	1	0.1	0	1	368	0.3	368	369	11.4	97.7
2022-10-25T22:06	10	1	0.1	0	1	368	0.3	368	369	11.4	97.8
2022-10-25T22:07	10	0	0.1	0	1	368	0.2	368	369	11.4	97.8
2022-10-25T22:08	10	0	0.1	0	0	369	0.3	368	369	11.4	97.8
2022-10-25T22:09	10	0	0.1	0	0	369	0.3	368	369	11.5	97.8
2022-10-25T22:10	10	0	0.1	0	0	369	0.4	368	370	11.6	97.8
2022-10-25T22:11	10	0	0.1	0	0	369	0.6	368	370	11.6	97.8
2022-10-25T22:12	10	0	0.1	0	0	369	0.2	368	369	11.5	97.7
2022-10-25T22:13	10	0	0.1	0	0	369	0.2	368	369	11.5	97.7
2022-10-25T22:14	10	0	0.1	0	0	368	0.2	368	369	11.5	97.7
2022-10-25T22:15	10	0	0.1	0	0	368	0.2	368	369	11.5	97.6
2022-10-25T22:16	10	0	0.1	0	0	368	0.2	367	368	11.4	97.6
2022-10-25T22:17	10	0	0.1	0	0	368	0.2	367	368	11.3	97.6
2022-10-25T22:18	10	0	0.1	0	1	368	0.2	367	368	11.3	97.7
2022-10-25T22:19	10	0	0.1	0	1	368	0.2	367	368	11.3	97.8
2022-10-25T22:20	10	0	0.1	0	1	368	0.2	367	368	11.4	97.9
2022-10-25T22:21	10	1	0.1	0	1	368	0.2	367	368	11.3	97.9
2022-10-25T22:22	10	1	0.1	0	1	367	0.2	367	368	11.4	98.0
2022-10-25T22:23	10	1	0.1	0	1	367	0.3	367	368	11.4	98.0
2022-10-25T22:24	10	1	0.1	0	1	367	0.2	367	368	11.4	98.1
2022-10-25T22:25	10	1	0.1	0	1	367	0.2	367	368	11.4	98.1
2022-10-25T22:26	10	1	0.1	0	1	367	0.2	367	368	11.4	98.2
2022-10-25T22:27	10	0	0.1	0	1	367	0.2	366	367	11.4	98.2
2022-10-25T22:28	10	0	0.1	0	0	367	0.3	366	367	11.4	98.3
2022-10-25T22:29	10	0	0.1	0	0	366	0.4	365	367	11.4	98.3
2022-10-25T22:30	10	0	0.1	0	0	366	0.2	365	366	11.4	98.3
2022-10-25T22:31	10	0	0.1	0	0	365	0.3	364	366	11.4	98.3
2022-10-25T22:32	10	0	0.1	0	0	364	0.3	364	365	11.4	98.2
2022-10-25T22:33	10	0	0.1	0	0	364	0.3	363	365	11.4	98.2
2022-10-25T22:34	10	0	0.1	0	0	363	0.2	363	364	11.4	98.2
2022-10-25T22:35	10	0	0.1	0	0	363	0.2	363	364	11.4	98.2
2022-10-25T22:36	10	0	0.1	0	0	363	0.3	363	364	11.3	98.3
2022-10-25T22:37	10	0	0.1	0	0	363	0.2	363	364	11.4	98.3
2022-10-25T22:38	10	0	0.1	0	0	363	0.3	362	364	11.4	98.3
2022-10-25T22:39	10	0	0.1	0	0	363	0.2	363	363	11.4	98.3
2022-10-25T22:40	10	0	0.1	0	0	363	0.3	362	363	11.4	98.3
2022-10-25T22:41	10	0	0.1	0	0	363	0.2	363	364	11.7	98.5
2022-10-25T22:42	10	0	0.1	0	0	363	0.2	363	364	11.8	98.5
2022-10-25T22:43	10	0	0.1	0	0	364	0.3	363	364	11.8	98.4
2022-10-25T22:44	10	0	0.1	0	0	364	0.3	363	364	11.7	98.1
2022-10-25T22:45	10	0	0.1	0	0	364	0.2	363	364	11.6	98.0
2022-10-25T22:46	10	0	0.0	0	0	364	0.2	364	364	11.6	97.9
2022-10-25T22:47	10	0	0.1	0	0	364	0.2	364	365	11.6	98.0
2022-10-25T22:48	10	0	0.1	0	0	364	0.3	364	365	11.6	98.0
2022-10-25T22:49	10	0	0.1	0	0	364	0.3	364	365	11.6	97.9
2022-10-25T22:50	10	0	0.1	0	0	364	0.3	363	364	11.6	97.9
2022-10-25T22:51	10	0	0.1	0	0	364	0.3	363	364	11.6	97.9
2022-10-25T22:52	10	0	0.1	0	0	363	0.2	363	364	11.6	97.9
2022-10-25T22:53	10	0	0.0	0	0	363	0.4	362	363	11.6	97.9
2022-10-25T22:54	10	0	0.2	0	1	363	0.2	362	363	11.5	97.8
2022-10-25T22:55	10	0	0.1	0	0	362	0.2	362	363	11.4	97.9
2022-10-25T22:56	10	0	0.1	0	0	362	0.2	362	363	11.4	98.0
2022-10-25T22:57	10	0	0.1	-1	0	362	0.2	361	362	11.4	98.1
2022-10-25T22:58	10	-1	0.1	-1	0	361	0.3	361	362	11.4	98.3
2022-10-25T22:59	10	-1	0.1	-1	0	361	0.2	360	361	11.4	98.4
2022-10-25T23:00	10	-1	0.1	-1	0	360	0.4	359	361	11.5	98.4
2022-10-25T23:01	10	0	0.1	-1	0	359	0.3	359	360	11.4	98.4
2022-10-25T23:02	10	0	0.1	-1	0	359	0.3	358	359	11.4	98.4
2022-10-25T23:03	10	0	0.1	-1	0	358	0.2	358	359	11.4	98.4
2022-10-25T23:04	10	0	0.1	-1	0	358	0.2	357	358	11.4	98.4
2022-10-25T23:05	10	-1	0.1	-1	0	358	0.3	357	358	11.5	98.5
2022-10-25T23:06	10	-1	0.1	-1	0	359	0.2	358	359	11.7	98.6
2022-10-25T23:07	10	-1	0.1	-1	0	359	0.2	358	359	11.8	98.5
2022-10-25T23:08	10	0	0.1	-1	0	358	0.2	358	359	11.8	98.3
2022-10-25T23:09	10	0	0.1	-1	0	358	0.2	357	359	11.7	98.1
2022-10-25T23:10	10	0	0.1	-1	0	358	0.3	357	359	11.8	98.0
2022-10-25T23:11	10	0	0.1	-1	0	358	0.3	358	359	11.8	97.8
2022-10-25T23:12	10	-1	0.1	-1	0	358	0.3	358	359	11.7	97.6
2022-10-25T23:13	10	-1	0.1	-1	-1	358	0.2	358	359	11.5	97.4
2022-10-25T23:14	10	-1	0.1	-1	-1	358	0.2	358	359	11.6	97.6
2022-10-25T23:15	10	-1	0.1	-1	-1	358	0.2	358	359	11.4	97.6
2022-10-25T23:16	10	-1	0.1	-2	-1	359	0.2	358	359	11.4	97.7
2022-10-25T23:17	10	-1	0.1	-2	-1	359	0.3	358	359	11.4	97.9
2022-10-25T23:18	10	-1	0.1	-2	-1	358	0.2	358	359	11.4	98.0
2022-10-25T23:19	10	-1	0.1	-2	-1	358	0.3	357	358	11.4	98.1
2022-10-25T23:20	10	-1	0.1	-2	-1	357	0.3	356	357	11.5	98.2
2022-10-25T23:21	10	-1	0.1	-1	-1	356	0.4	355	357	11.6	98.2
2022-10-25T23:22	10	-1	0.1	-1	-1	355	0.3	355	356	11.5	98.1
2022-10-25T23:23	10	-1	0.1	-1	-1	355	0.4	354	356	11.4	98.0
2022-10-25T23:24	10	-1	0.1	-1	0	354	0.2	354	355	11.2	97.9
2022-10-25T23:25	10	0	0.1	-1	0	354	0.2	354	355	11.3	97.9
2022-10-25T23:26	10	0	0.1	-1	0	354	0.3	353	355	11.1	97.9
2022-10-25T23:27	10	0	0.1	-1	0	354	0.2	354	355	10.9	97.9
2022-10-25T23:28	10	0	0.1	-1	0	354	0.3	353	354	10.9	98.0
2022-10-25T23:29	10	0	0.1	-1	0	354	0.2	353	354	10.9	98.1
2022-10-25T23:30	10	-1	0.1	-1	0	354	0.3	354	355	11.0	98.2
2022-10-25T23:31	10	-1	0.1	-1	-1	355	0.3	354	356	11.1	98.4
2022-10-25T23:32	10	-1	0.1	-1	-1	355	0.3	355	356	11.1	98.5
2022-10-25T23:33	10	-1	0.1	-1	-1	355	0.2	355	356	11.1	98.6
2022-10-25T23:34	10	-1	0.1	-1	-1	355	0.2	355	356	11.1	98.6
2022-10-25T23:35	10	-1	0.1	-1	-1	355	0.3	355	356	11.2	98.7
2022-10-25T23:36	10	-1	0.1	-1	-1	356	0.4	355	356	11.1	98.7
2022-10-25T23:37	10	-1	0.1	-1	-1	356	0.3	356	357	11.1	98.7
2022-10-25T23:38	10	-1	0.1	-1	-1	357	0.2	356	357	11.1	98.7
2022-10-25T23:39	10	-1	0.1	-1	-1	357	0.2	356	357	10.9	98.7
2022-10-25T23:40	10	-1	0.1	-1	-1	357	0.2	356	357	10.8	98.7
2022-10-25T23:41	10	-1	0.1	-1	-1	357	0.3	357	358	10.8	98.8
2022-10-25T23:42	10	-1	0.1	-2	-1	358	0.4	358	359	10.9	98.9
2022-10-25T23:43	10	-1	0.1	-2	-1	359	0.4	358	360	10.9	99.0
2022-10-25T23:44	10	-2	0.1	-2	-1	360	0.5	359	361	10.9	99.1
2022-10-25T23:45	10	-2	0.1	-2	-1	361	0.3	360	361	10.9	99.2
2022-10-25T23:46	10	-2	0.1	-2	-1	361	0.2	361	362	10.7	99.1
2022-10-25T23:47	10	-2	0.1	-2	-1	361	0.2	361	362	10.7	99.1
2022-10-25T23:48	10	-1	0.1	-2	-1	362	0.3	362	363	10.7	99.1
2022-10-25T23:49	10	-1	0.1	-1	-1	363	0.4	362	363	10.8	99.1
2022-10-25T23:50	10	-1	0.1	-1	0	363	0.3	362	364	10.8	99.1
2022-10-25T23:51	10	-1	0.1	-1	0	363	0.3	363	364	10.9	99.2
2022-10-25T23:52	10	0	0.1	-1	0	364	0.7	363	365	11.1	99.2
2022-10-25T23:53	10	0	0.1	0	0	364	0.3	364	365	11.2	99.2
2022-10-25T23:54	10	0	0.1	0	0	365	0.5	364	366	11.2	99.2
2022-10-25T23:55	10	0	0.1	0	0	365	0.2	365	366	11.2	99.2
2022-10-25T23:56	10	0	0.1	0	0	366	0.2	365	366	11.1	99.2
2022-10-25T23:57	10	0	0.1	0	0	365	0.2	365	366	11.1	99.2
2022-10-25T23:58	10	0	0.1	0	0	365	0.2	365	366	11.0	99.2
2022-10-25T23:59	10	0	0.1	0	0	366	0.2	365	366	11.1	99.2
2022-10-26T00:00	10	0	0.1	0	0	366	0.3	365	367	11.2	99.2
2022-10-26T00:01	10	0	0.1	0	0	366	0.3	365	367	11.1	99.2
2022-10-26T00:02	10	0	0.1	0	0	366	0.3	366	367	11.2	99.2
2022-10-26T00:03	10	0	0.1	0	0	366	0.3	365	367	11.1	99.2
2022-10-26T00:04	10	0	0.1	0	0	365	0.5	365	367	10.7	99.1
2022-10-26T00:05	10	0	0.2	-1	0	365	0.3	364	366	10.6	99.0
2022-10-26T00:06	10	-1	0.1	-1	0	365	0.2	364	365	10.7	99.0
2022-10-26T00:07	10	-1	0.1	-1	-1	365	0.2	364	365	10.8	99.0
2022-10-26T00:08	10	-1	0.1	-2	-1	364	0.3	364	365	10.7	99.0
2022-10-26T00:09	10	-2	0.1	-2	-1	364	0.3	364	365	10.7	99.0
2022-10-26T00:10	10	-2	0.1	-2	-2	364	0.3	363	365	10.7	99.0
2022-10-26T00:11	10	-2	0.1	-2	-2	364	0.3	363	365	10.7	99.0
2022-10-26T00:12	10	-1	0.2	-2	-1	364	0.2	363	365	10.7	99.1
2022-10-26T00:13	10	-1	0.1	-1	-1	364	0.2	364	365	10.8	99.1
2022-10-26T00:14	10	-1	0.1	-1	-1	365	0.5	363	365	10.8	99.1
2022-10-26T00:15	10	-1	0.1	-1	-1	365	0.2	364	365	10.6	99.1
2022-10-26T00:16	10	-1	0.1	-1	-1	365	0.3	365	366	10.8	99.1
2022-10-26T00:17	10	-1	0.2	-2	-1	366	0.3	365	366	10.8	99.1
2022-10-26T00:18	10	-1	0.1	-2	-1	365	0.4	364	366	10.6	99.1
2022-10-26T00:19	10	-2	0.1	-2	-1	365	0.5	364	366	10.5	99.1
2022-10-26T00:20	10	-2	0.1	-2	-1	366	0.6	365	367	10.5	99.0
2022-10-26T00:21	10	-2	0.1	-2	-2	366	0.4	365	367	10.6	99.1
2022-10-26T00:22	10	-2	0.1	-2	-2	366	0.5	365	367	10.6	99.1
2022-10-26T00:23	10	-2	0.1	-2	-2	366	0.3	365	366	10.6	99.1
2022-10-26T00:24	10	-2	0.1	-2	-2	366	0.5	365	367	10.6	99.2
2022-10-26T00:25	10	-2	0.1	-2	-2	365	0.2	365	366	10.6	99.2
2022-10-26T00:26	10	-2	0.1	-2	-2	365	0.2	364	365	10.6	99.2
2022-10-26T00:27	10	-2	0.1	-2	-2	365	0.3	364	365	10.6	99.2
2022-10-26T00:28	10	-2	0.1	-2	-2	364	0.2	364	365	10.6	99.2
2022-10-26T00:29	10	-2	0.1	-2	-2	365	0.2	364	365	10.6	99.2
2022-10-26T00:30	10	-2	0.1	-2	-2	365	0.2	364	365	10.6	99.2
2022-10-26T00:31	10	-2	0.1	-2	-2	365	0.4	364	366	10.6	99.2
2022-10-26T00:32	10	-2	0.1	-2	-2	365	0.2	364	365	10.5	99.2
2022-10-26T00:33	10	-2	0.1	-2	-2	365	0.2	364	365	10.4	99.2
2022-10-26T00:34	10	-2	0.1	-2	-2	365	0.2	364	365	10.4	99.2
2022-10-26T00:35	10	-2	0.1	-2	-2	364	0.2	364	365	10.4	99.2
2022-10-26T00:36	10	-2	0.1	-2	-2	364	0.2	363	365	10.4	99.2
2022-10-26T00:37	10	-2	0.1	-2	-2	364	0.2	363	364	10.5	99.2
2022-10-26T00:38	10	-2	0.1	-2	-2	363	0.2	363	364	10.5	99.2
2022-10-26T00:39	10	-2	0.1	-2	-2	363	0.2	363	363	10.4	99.2
2022-10-26T00:40	10	-2	0.1	-2	-1	363	0.2	363	364	10.5	99.2
2022-10-26T00:41	10	-1	0.1	-2	-1	363	0.2	363	363	10.5	99.2
2022-10-26T00:42	10	-1	0.1	-1	-1	363	0.2	363	364	10.5	99.2
2022-10-26T00:43	10	-1	0.1	-1	-1	363	0.2	363	364	10.5	99.2
2022-10-26T00:44	10	-1	0.1	-1	-1	364	0.3	363	364	10.6	99.2
2022-10-26T00:45	10	-1	0.1	-1	-1	364	0.3	364	365	10.8	99.2
2022-10-26T00:46	10	-1	0.1	-1	-1	364	0.3	364	365	10.8	99.2
2022-10-26T00:47	10	-1	0.1	-1	0	365	0.3	364	365	10.8	99.2
2022-10-26T00:48	10	0	0.1	-1	0	365	0.3	364	366	10.8	99.2
2022-10-26T00:49	10	0	0.1	-1	0	365	0.5	364	366	10.8	99.2
2022-10-26T00:50	10	-1	0.1	-1	0	365	0.2	365	366	10.7	99.2
2022-10-26T00:51	10	-1	0.1	-1	-1	365	0.5	364	367	10.8	99.2
2022-10-26T00:52	10	-1	0.1	-1	-1	366	0.4	365	366	11.0	99.2
2022-10-26T00:53	10	-1	0.1	-1	-1	366	1.3	363	367	11.0	99.2
2022-10-26T00:54	10	-1	0.1	-1	-1	365	0.3	365	366	10.8	99.2
2022-10-26T00:55	10	-1	0.1	-1	-1	365	0.2	365	366	10.7	99.2
2022-10-26T00:56	10	-1	0.1	-1	-1	365	0.3	365	366	10.6	99.2
2022-10-26T00:57	10	-1	0.1	-1	-1	365	0.2	365	366	10.7	99.2
2022-10-26T00:58	10	-1	0.1	-2	-1	365	0.3	365	366	10.7	99.2
2022-10-26T00:59	10	-2	0.1	-2	-1	366	0.2	365	366	10.7	99.2
2022-10-26T01:00	10	-2	0.1	-2	-2	366	0.3	365	366	10.7	99.2
2022-10-26T01:01	10	-2	0.1	-2	-2	366	0.4	365	366	10.7	99.2
2022-10-26T01:02	10	-2	0.1	-2	-2	366	0.3	365	366	10.7	99.2
2022-10-26T01:03	10	-2	0.1	-2	-2	366	0.4	365	367	10.7	99.2
2022-10-26T01:04	10	-2	0.1	-2	-2	366	0.3	365	367	10.7	99.2
2022-10-26T01:05	10	-2	0.1	-2	-2	366	0.3	365	367	10.7	99.2
2022-10-26T01:06	10	-2	0.1	-2	-2	366	0.2	366	367	10.8	99.2
2022-10-26T01:07	10	-2	0.1	-2	-2	366	0.4	365	367	10.8	99.2
2022-10-26T01:08	10	-2	0.1	-2	-1	366	0.4	365	367	10.8	99.2
2022-10-26T01:09	10	-2	0.1	-2	-1	367	0.3	366	367	10.9	99.2
2022-10-26T01:10	10	-2	0.1	-2	-1	367	0.5	366	368	10.9	99.2
2022-10-26T01:11	10	-2	0.1	-2	-1	367	0.3	366	367	10.9	99.2
2022-10-26T01:12	10	-2	0.1	-2	-1	367	0.4	366	367	10.9	99.2
2022-10-26T01:13	10	-2	0.1	-2	-1	367	0.4	366	367	10.9	99.2
2022-10-26T01:14	10	-2	0.1	-2	-2	367	0.2	366	367	10.9	99.2
2022-10-26T01:15	10	-2	0.1	-2	-2	367	0.3	366	367	11.0	99.2
2022-10-26T01:16	10	-2	0.1	-2	-2	367	0.3	366	367	11.0	99.2
2022-10-26T01:17	10	-2	0.1	-2	-1	367	0.3	366	367	11.0	99.2
2022-10-26T01:18	10	-2	0.1	-2	-1	367	0.2	366	367	11.0	99.2
2022-10-26T01:19	10	-2	0.1	-2	-1	367	0.4	366	367	11.0	99.2
2022-10-26T01:20	10	-2	0.1	-2	-1	367	0.3	366	367	11.0	99.2
2022-10-26T01:21	10	-1	0.1	-2	-1	367	0.3	366	367	10.9	99.2
2022-10-26T01:22	10	-1	0.1	-2	-1	367	0.2	366	367	10.9	99.2
2022-10-26T01:23	10	-2	0.1	-2	-1	366	0.3	366	367	11.0	99.2
2022-10-26T01:24	10	-2	0.1	-2	-1	367	0.2	367	367	11.0	99.2
2022-10-26T01:25	10	-2	0.1	-2	-1	367	0.2	366	367	11.0	99.2
2022-10-26T01:26	10	-1	0.1	-2	-1	367	0.2	366	367	11.0	99.2
2022-10-26T01:27	10	-1	0.1	-1	-1	367	0.2	367	368	11.1	99.2
2022-10-26T01:28	10	-1	0.1	-1	-1	367	0.2	367	368	11.1	99.2
2022-10-26T01:29	10	-1	0.1	-1	-1	367	0.3	367	368	11.1	99.2
2022-10-26T01:30	10	-1	0.1	-1	-1	367	0.2	367	368	11.1	99.2
2022-10-26T01:31	10	-1	0.1	-1	-1	367	0.2	367	368	11.1	99.2
2022-10-26T01:32	10	-1	0.1	-1	-1	367	0.2	367	368	11.2	99.2
2022-10-26T01:33	10	-1	0.1	-1	-1	368	0.3	367	368	11.3	99.2
2022-10-26T01:34	10	-1	0.1	-1	-1	368	0.3	367	369	11.5	99.2
2022-10-26T01:35	10	-1	0.1	-1	-1	368	0.2	368	369	11.6	99.2
2022-10-26T01:36	10	-1	0.1	-1	0	368	0.6	366	369	11.6	99.2
2022-10-26T01:37	10	0	0.1	-1	0	368	0.3	367	368	11.5	99.2
2022-10-26T01:38	10	0	0.1	0	0	368	0.2	368	369	11.5	99.2
2022-10-26T01:39	10	0	0.1	-1	0	369	0.3	368	369	11.6	99.2
2022-10-26T01:40	10	0	0.1	-1	0	368	0.2	368	369	11.6	99.2
2022-10-26T01:41	10	-1	0.1	-1	0	369	0.2	368	369	11.5	99.2
2022-10-26T01:42	10	-1	0.3	-1	1	368	0.3	368	369	11.5	99.0
2022-10-26T01:43	10	-1	0.1	-1	-1	368	0.2	368	369	11.5	98.8
2022-10-26T01:44	10	-1	0.1	-1	-1	368	0.2	367	369	11.4	98.5
2022-10-26T01:45	10	-1	0.1	-1	-1	368	0.2	368	369	11.4	98.4
2022-10-26T01:46	10	-1	0.1	-1	-1	368	0.2	368	369	11.4	98.4
2022-10-26T01:47	10	-1	0.1	-1	0	368	0.2	368	369	11.5	98.5
2022-10-26T01:48	10	0	0.1	0	0	368	0.6	367	369	11.4	98.4
2022-10-26T01:49	10	0	0.1	0	0	368	0.2	368	369	11.5	98.4
2022-10-26T01:50	10	0	0.1	0	0	368	0.3	368	369	11.7	98.4
2022-10-26T01:51	10	0	0.1	-1	0	368	0.2	368	369	11.6	98.2
2022-10-26T01:52	10	-1	0.1	-1	0	368	0.3	368	369	11.6	98.1
2022-10-26T01:53	10	-1	0.1	-1	-1	368	0.3	368	369	11.6	98.0
2022-10-26T01:54	10	-1	0.1	-1	-1	368	0.3	368	369	11.4	97.9
2022-10-26T01:55	10	-1	0.1	-1	-1	368	0.3	368	369	11.4	97.9
2022-10-26T01:56	10	-1	0.1	-1	0	368	0.3	367	369	11.4	97.9
2022-10-26T01:57	10	-1	0.1	-1	0	368	0.4	368	369	11.5	98.0
2022-10-26T01:58	10	-1	0.1	-1	0	368	0.3	367	369	11.5	98.0
2022-10-26T01:59	10	-1	0.1	-1	0	368	0.3	367	369	11.5	97.9
2022-10-26T02:00	10	-1	0.1	-1	0	368	0.4	367	369	11.4	97.9
2022-10-26T02:01	10	-1	0.1	-1	-1	368	0.3	367	369	11.4	97.9
2022-10-26T02:02	10	-1	0.0	-1	-1	368	0.2	368	368	11.3	98.0
2022-10-26T02:03	10	-1	0.1	-1	0	368	0.2	368	369	11.3	98.0
2022-10-26T02:04	10	-1	0.1	-1	0	368	0.2	368	369	11.3	98.1
2022-10-26T02:05	10	-1	0.1	-1	0	368	0.2	368	368	11.3	98.2
2022-10-26T02:06	10	-1	0.1	-1	0	368	0.2	368	368	11.3	98.4
2022-10-26T02:07	10	-1	0.1	-1	-1	368	0.2	368	369	11.4	98.5
2022-10-26T02:08	10	-1	0.1	-1	-1	368	0.2	368	369	11.5	98.5
2022-10-26T02:09	10	-1	0.1	-1	-1	368	0.3	368	369	11.7	98.4
2022-10-26T02:10	10	-1	0.1	-1	-1	368	0.2	368	369	11.6	98.1
2022-10-26T02:11	10	-1	0.1	-1	-1	368	0.2	368	369	11.7	98.0
2022-10-26T02:12	10	-1	0.1	-1	-1	369	0.3	368	369	11.8	97.8
2022-10-26T02:13	10	-1	0.1	-1	-1	369	0.2	368	369	11.8	97.6
2022-10-26T02:14	10	-1	0.1	-1	-1	369	0.3	368	369	11.9	97.5
2022-10-26T02:15	10	-1	0.1	-1	-1	369	0.3	368	370	11.8	97.3
2022-10-26T02:16	10	-1	0.1	-1	-1	369	0.3	368	370	11.8	97.2
2022-10-26T02:17	10	-1	0.1	-1	0	369	0.4	368	370	11.8	97.1
2022-10-26T02:18	10	-1	0.1	-1	0	369	0.5	368	370	11.8	97.1
2022-10-26T02:19	10	-1	0.1	-1	0	369	0.3	369	370	11.8	97.0
2022-10-26T02:20	10	0	0.1	-1	0	369	0.4	368	370	11.8	97.0
2022-10-26T02:21	10	0	0.1	0	0	369	0.3	369	370	11.8	97.0
2022-10-26T02:22	10	0	0.1	0	0	369	0.3	368	370	11.7	97.0
2022-10-26T02:23	10	0	0.1	-1	0	369	0.3	368	369	11.8	96.9
2022-10-26T02:24	10	-1	0.1	-1	0	369	0.3	368	369	11.9	97.0
2022-10-26T02:25	10	-1	0.1	-1	0	369	0.2	368	369	11.8	96.8
2022-10-26T02:26	10	-1	0.1	-1	-1	368	0.2	368	369	11.8	96.7
2022-10-26T02:27	10	-1	0.1	-1	-1	368	0.3	368	369	11.7	96.6
2022-10-26T02:28	10	-1	0.1	-1	-1	369	0.3	368	369	12.0	96.7
2022-10-26T02:29	10	-1	0.1	-1	0	369	0.2	368	369	12.0	96.3
2022-10-26T02:30	10	0	0.1	-1	0	369	0.2	368	369	12.0	96.1
2022-10-26T02:31	10	0	0.1	0	0	369	0.3	368	369	12.2	95.7
2022-10-26T02:32	10	0	0.1	0	0	369	0.2	368	369	12.1	95.1
2022-10-26T02:33	10	0	0.1	0	0	369	0.2	368	369	12.1	94.8
2022-10-26T02:34	10	0	0.1	0	0	369	0.3	368	369	12.1	94.7
2022-10-26T02:35	10	0	0.1	0	0	369	0.2	368	369	12.3	94.6
2022-10-26T02:36	10	0	0.1	0	0	369	0.2	368	369	12.3	94.0
2022-10-26T02:37	10	0	0.1	0	0	369	0.3	368	369	12.4	93.6
2022-10-26T02:38	10	0	0.1	0	0	369	0.4	368	369	12.3	93.4
2022-10-26T02:39	10	0	0.1	0	0	369	0.3	369	370	12.3	93.4
2022-10-26T02:40	10	0	0.1	-1	0	369	0.2	368	370	12.4	93.2
2022-10-26T02:41	10	0	0.1	-1	0	369	0.3	369	370	12.6	92.9
2022-10-26T02:42	10	0	0.1	0	0	368	1.0	367	370	12.4	92.4
2022-10-26T02:43	10	0	0.1	-1	0	368	0.5	367	369	12.2	93.0
2022-10-26T02:44	10	0	0.1	-1	0	368	0.4	368	369	12.1	93.4
2022-10-26T02:45	10	-1	0.1	-1	0	368	0.2	368	369	11.8	93.7
2022-10-26T02:46	10	-1	0.1	-1	0	368	0.2	368	369	11.7	94.3
2022-10-26T02:47	10	-1	0.1	-1	-1	368	0.2	368	369	11.6	94.8
2022-10-26T02:48	10	-1	0.1	-1	-1	368	0.2	368	369	11.5	95.2
2022-10-26T02:49	10	-1	0.1	-1	-1	368	0.3	368	369	11.5	95.6
2022-10-26T02:50	10	-1	0.1	-2	-1	368	0.2	368	368	11.4	95.9
2022-10-26T02:51	10	-1	0.1	-2	-1	368	0.3	367	369	11.3	96.3
2022-10-26T02:52	10	-1	0.1	-2	-1	368	0.8	367	370	11.3	96.6
2022-10-26T02:53	10	-1	0.1	-2	-1	368	0.6	367	369	11.3	96.9
2022-10-26T02:54	10	-1	0.1	-2	-1	368	0.4	367	369	11.2	97.2
2022-10-26T02:55	10	-1	0.1	-1	-1	367	0.4	366	368	11.2	97.4
2022-10-26T02:56	10	-1	0.1	-1	-1	367	0.3	367	368	11.2	97.6
2022-10-26T02:57	10	-1	0.1	-1	-1	367	0.3	367	368	11.3	97.8
2022-10-26T02:58	10	-1	0.1	-2	-1	367	0.2	367	368	11.3	98.0
2022-10-26T02:59	10	-1	0.1	-2	-1	368	0.2	367	368	11.3	98.1
2022-10-26T03:00	10	-1	0.1	-2	-1	367	0.2	367	368	11.3	98.2
2022-10-26T03:01	10	-1	0.1	-2	-1	368	0.2	367	368	11.3	98.2
2022-10-26T03:02	10	-1	0.1	-2	-1	368	0.3	367	368	11.3	98.3
2022-10-26T03:03	10	-1	0.1	-2	-1	367	0.4	366	368	11.3	98.3
2022-10-26T03:04	10	-1	0.1	-2	-1	367	0.4	366	368	11.3	98.4
2022-10-26T03:05	10	-1	0.1	-1	-1	367	0.3	367	368	11.3	98.4
2022-10-26T03:06	10	-1	0.2	-1	-1	367	0.3	366	368	11.3	98.5
2022-10-26T03:07	10	-1	0.1	-1	0	367	0.2	367	368	11.3	98.6
2022-10-26T03:08	10	0	0.1	-1	0	367	0.3	366	368	11.4	98.6
2022-10-26T03:09	10	0	0.3	-1	1	368	0.2	367	368	11.4	98.7
2022-10-26T03:10	10	0	0.1	-1	0	368	0.2	367	368	11.4	98.7
2022-10-26T03:11	10	0	0.1	0	0	368	0.2	367	368	11.5	98.7
2022-10-26T03:12	10	0	0.1	0	0	368	0.9	366	369	11.4	98.7
2022-10-26T03:13	10	0	0.1	0	0	368	0.3	367	369	11.4	98.7
2022-10-26T03:14	10	0	0.1	0	0	368	0.3	367	369	11.4	98.6
2022-10-26T03:15	10	0	0.1	0	0	368	0.5	367	369	11.4	98.7
2022-10-26T03:16	10	0	0.1	0	0	368	0.3	368	369	11.4	98.7
2022-10-26T03:17	10	0	0.1	0	0	369	0.2	368	369	11.4	98.6
2022-10-26T03:18	10	0	0.1	0	0	369	0.6	367	370	11.4	98.6
2022-10-26T03:19	10	0	0.1	0	0	369	0.3	368	369	11.4	98.6
2022-10-26T03:20	10	0	0.1	0	0	369	0.7	368	370	11.4	98.6
2022-10-26T03:21	10	0	0.1	0	0	369	0.4	368	370	11.4	98.6
2022-10-26T03:22	10	0	0.1	0	0	369	0.2	368	369	11.5	98.6
2022-10-26T03:23	10	0	0.1	0	0	369	0.3	368	370	11.4	98.6
2022-10-26T03:24	10	0	0.1	0	0	369	0.2	368	369	11.4	98.6
2022-10-26T03:25	10	0	0.1	0	0	369	0.3	369	370	11.4	98.6
2022-10-26T03:26	10	0	0.1	0	0	369	0.2	369	370	11.4	98.6
2022-10-26T03:27	10	0	0.1	0	0	369	0.2	369	370	11.5	98.6
2022-10-26T03:28	10	0	0.1	0	1	369	0.2	368	369	11.5	98.5
2022-10-26T03:29	10	0	0.1	0	1	369	0.2	369	369	11.5	98.5
2022-10-26T03:30	10	0	0.1	0	1	369	0.2	369	370	11.5	98.5
2022-10-26T03:31	10	0	0.1	0	0	369	0.3	369	370	11.5	98.5
2022-10-26T03:32	10	0	0.1	0	1	369	0.3	369	370	11.5	98.5
2022-10-26T03:33	10	0	0.1	0	1	369	0.3	369	370	11.5	98.5
2022-10-26T03:34	10	0	0.1	0	0	369	0.2	369	369	11.5	98.5
2022-10-26T03:35	10	0	0.1	0	0	369	0.2	369	370	11.5	98.4
2022-10-26T03:36	10	0	0.1	0	0	369	0.2	368	370	11.5	98.5
2022-10-26T03:37	10	0	0.1	0	0	369	0.3	368	370	11.5	98.5
2022-10-26T03:38	10	0	0.1	0	0	369	0.3	368	369	11.5	98.5
2022-10-26T03:39	10	0	0.1	0	0	369	0.3	368	370	11.6	98.5
2022-10-26T03:40	10	0	0.1	0	0	369	0.2	368	370	11.6	98.5
2022-10-26T03:41	10	0	0.1	0	0	369	0.2	369	370	11.6	98.4
2022-10-26T03:42	10	0	0.1	0	0	369	0.3	369	370	11.6	98.4
2022-10-26T03:43	10	0	0.1	0	1	369	0.2	368	369	11.6	98.3
2022-10-26T03:44	10	0	0.1	0	1	369	0.2	368	369	11.6	98.3
2022-10-26T03:45	10	0	0.1	0	1	369	0.2	368	370	11.6	98.3
2022-10-26T03:46	10	0	0.1	0	0	369	0.2	368	369	11.6	98.2
2022-10-26T03:47	10	0	0.1	0	0	369	0.4	368	370	11.6	98.2
2022-10-26T03:48	10	0	0.1	0	0	369	0.2	368	369	11.6	98.2
2022-10-26T03:49	10	-1	0.1	-1	0	369	0.2	368	369	11.7	98.3
2022-10-26T03:50	10	-1	0.1	-1	-1	369	0.2	368	369	11.7	98.3
2022-10-26T03:51	10	-1	0.1	-1	-1	369	0.2	368	369	11.7	98.3
2022-10-26T03:52	10	-1	0.1	-1	-1	369	0.2	368	369	11.8	98.3
2022-10-26T03:53	10	-1	0.1	-2	-1	369	0.3	368	369	11.8	98.3
2022-10-26T03:54	10	-1	0.1	-2	-1	370	0.2	369	370	12.0	98.3
2022-10-26T03:55	10	-1	0.1	-1	-1	370	0.2	369	370	12.0	98.2
2022-10-26T03:56	10	-1	0.1	-1	-1	370	0.3	369	370	12.0	98.1
2022-10-26T03:57	10	-1	0.1	-1	0	370	0.2	369	370	12.0	98.1
2022-10-26T03:58	10	0	0.1	-1	0	370	0.2	369	370	12.0	98.1
2022-10-26T03:59	10	0	0.1	0	0	370	0.3	370	371	12.1	98.1
2022-10-26T04:00	10	0	0.1	0	0	370	0.2	370	371	12.1	98.1
2022-10-26T04:01	10	0	0.1	0	1	370	0.2	370	371	12.1	98.0
2022-10-26T04:02	10	0	0.1	0	0	371	0.3	370	371	12.1	97.9
2022-10-26T04:03	10	0	0.1	0	0	370	0.4	369	371	12.1	97.9
2022-10-26T04:04	10	0	0.1	0	0	370	0.3	369	371	11.9	97.8
2022-10-26T04:05	10	0	0.1	0	0	370	0.6	369	371	11.9	97.9
2022-10-26T04:06	10	0	0.1	0	0	370	0.3	369	371	12.0	98.0
2022-10-26T04:07	10	0	0.1	-1	0	370	0.3	369	370	12.1	98.1
2022-10-26T04:08	10	-1	0.1	-1	0	370	0.3	369	370	11.9	98.0
2022-10-26T04:09	10	-1	0.1	-1	0	370	0.3	369	371	12.0	98.0
2022-10-26T04:10	10	-1	0.1	-1	-1	370	0.3	370	371	12.0	98.0
2022-10-26T04:11	10	-1	0.1	-1	-1	370	0.3	369	371	12.0	98.0
2022-10-26T04:12	10	-1	0.1	-1	-1	370	0.3	369	371	12.1	98.0
2022-10-26T04:13	10	-1	0.1	-1	-1	370	0.4	370	371	12.3	98.1
2022-10-26T04:14	10	-1	0.1	-1	0	371	0.2	370	371	12.3	98.0
2022-10-26T04:15	10	0	0.1	-1	0	370	0.3	370	371	12.1	97.8
2022-10-26T04:16	10	0	0.1	-1	0	371	0.4	370	371	12.0	97.7
2022-10-26T04:17	10	0	0.1	-1	0	370	0.2	370	371	12.0	97.8
2022-10-26T04:18	10	0	0.1	-1	0	371	0.2	370	371	12.0	97.8
2022-10-26T04:19	10	0	0.1	0	0	371	0.3	371	372	12.1	97.9
2022-10-26T04:20	10	0	0.1	0	0	371	0.2	371	372	12.2	97.9
2022-10-26T04:21	10	0	0.1	0	0	371	0.2	371	372	12.2	97.9
2022-10-26T04:22	10	0	0.1	0	0	370	0.4	370	371	12.2	97.8
2022-10-26T04:23	10	0	0.1	0	0	370	0.2	370	371	11.9	97.6
2022-10-26T04:24	10	0	0.1	0	1	370	0.3	370	371	11.9	97.6
2022-10-26T04:25	10	0	0.1	0	1	370	0.3	370	371	12.0	97.8
2022-10-26T04:26	10	0	0.1	0	1	370	0.3	370	371	12.0	97.8
2022-10-26T04:27	10	0	0.1	0	1	370	0.2	370	371	11.9	97.8
2022-10-26T04:28	10	0	0.1	0	0	370	0.3	370	371	12.0	97.9
2022-10-26T04:29	10	0	0.1	0	0	370	0.3	370	371	12.1	98.1
2022-10-26T04:30	10	0	0.1	0	0	370	0.2	370	371	12.2	98.2
2022-10-26T04:31	10	0	0.1	0	0	370	0.3	369	371	12.1	98.1
2022-10-26T04:32	10	0	0.1	0	0	370	0.3	369	371	11.9	97.9
2022-10-26T04:33	10	0	0.1	0	0	370	0.4	369	371	11.9	98.0
2022-10-26T04:34	10	0	0.1	0	0	370	0.3	369	371	12.0	98.2
2022-10-26T04:35	10	0	0.1	0	0	369	0.2	369	370	11.9	98.2
2022-10-26T04:36	10	0	0.1	0	0	369	0.2	368	369	11.8	98.2
2022-10-26T04:37	10	0	0.1	0	0	369	0.2	369	369	11.7	98.3
2022-10-26T04:38	10	0	0.1	-1	0	369	0.2	369	370	11.8	98.4
2022-10-26T04:39	10	-1	0.1	-1	0	369	0.3	369	370	11.8	98.6
2022-10-26T04:40	10	-1	0.1	-1	-1	369	0.2	369	369	11.8	98.7
2022-10-26T04:41	10	-1	0.1	-1	-1	369	0.3	368	370	11.8	98.8
2022-10-26T04:42	10	-1	0.1	-1	-1	369	0.2	369	369	11.8	98.9
2022-10-26T04:43	10	-1	0.1	-1	-1	369	0.2	368	369	11.8	98.9
2022-10-26T04:44	10	-1	0.1	-1	-1	368	0.2	368	369	11.8	99.0
2022-10-26T04:45	10	-1	0.1	-1	-1	368	0.2	368	369	11.8	99.1
2022-10-26T04:46	10	-1	0.1	-1	0	368	0.4	367	369	11.8	99.1
2022-10-26T04:47	10	0	0.1	-1	0	367	0.3	367	368	11.7	99.1
2022-10-26T04:48	10	0	0.1	0	0	368	0.2	367	368	11.7	99.0
2022-10-26T04:49	10	0	0.1	0	0	368	0.2	367	368	11.8	99.0
2022-10-26T04:50	10	0	0.1	0	0	368	0.2	367	368	11.8	99.1
2022-10-26T04:51	10	0	0.1	0	0	368	0.2	367	368	11.8	99.1
2022-10-26T04:52	10	0	0.1	0	1	368	0.2	368	369	11.9	99.1
2022-10-26T04:53	10	0	0.1	0	1	368	0.2	368	368	11.9	99.2
2022-10-26T04:54	10	0	0.1	0	1	368	0.2	368	369	11.9	99.2
2022-10-26T04:55	10	0	0.1	0	1	368	0.2	368	368	11.9	99.2
2022-10-26T04:56	10	0	0.1	0	0	368	0.2	368	369	11.7	99.2
2022-10-26T04:57	10	0	0.1	0	0	368	0.2	368	369	11.7	99.2
2022-10-26T04:58	10	0	0.1	0	0	369	0.3	368	369	11.7	99.2
2022-10-26T04:59	10	0	0.1	0	0	368	0.2	368	369	11.7	99.2
2022-10-26T05:00	10	0	0.1	0	0	369	0.2	368	369	11.7	99.2
2022-10-26T05:01	10	0	0.1	0	0	369	0.2	368	369	11.8	99.2
2022-10-26T05:02	10	0	0.1	0	0	369	0.2	368	369	11.8	99.2
2022-10-26T05:03	10	0	0.1	0	0	368	0.3	368	369	11.9	99.2
2022-10-26T05:04	10	0	0.1	0	0	369	0.2	368	369	11.9	99.2
2022-10-26T05:05	10	0	0.1	0	0	369	0.2	368	369	12.0	99.2
2022-10-26T05:06	10	0	0.1	0	0	369	0.2	368	369	12.0	99.2
2022-10-26T05:07	10	0	0.1	0	0	369	0.3	369	370	12.1	99.2
2022-10-26T05:08	10	0	0.1	0	0	369	0.2	369	369	12.0	99.2
2022-10-26T05:09	10	0	0.1	0	0	369	0.3	369	370	12.0	99.2
2022-10-26T05:10	10	0	0.1	0	0	370	0.2	369	370	12.1	99.2
2022-10-26T05:11	10	0	0.1	0	0	370	0.2	369	370	12.0	99.2
2022-10-26T05:12	10	0	0.1	0	0	370	0.2	369	370	12.1	99.2
2022-10-26T05:13	10	0	0.1	0	0	370	0.3	369	370	12.2	99.2
2022-10-26T05:14	10	0	0.1	0	0	370	0.2	370	370	12.2	99.2
2022-10-26T05:15	10	0	0.1	0	0	370	0.3	369	370	12.2	99.2
2022-10-26T05:16	10	0	0.1	0	0	370	0.2	369	370	12.1	99.1
2022-10-26T05:17	10	0	0.1	-1	0	369	0.2	369	370	12.1	99.0
2022-10-26T05:18	10	0	0.1	-1	0	369	0.3	369	370	12.0	98.9
2022-10-26T05:19	10	-1	0.1	-1	0	369	0.2	369	370	12.0	98.9
2022-10-26T05:20	10	0	0.1	-1	0	369	0.3	368	370	12.1	98.9
2022-10-26T05:21	10	0	0.1	0	0	369	0.2	369	370	12.1	98.9
2022-10-26T05:22	10	0	0.1	0	0	369	0.2	369	370	12.1	98.9
2022-10-26T05:23	10	0	0.1	0	0	369	0.3	369	370	12.1	98.8
2022-10-26T05:24	10	0	0.1	0	0	369	0.3	368	369	12.1	98.8
2022-10-26T05:25	10	0	0.1	0	1	369	0.2	368	369	12.1	98.7
2022-10-26T05:26	10	1	0.1	0	1	369	0.2	368	369	12.1	98.7
2022-10-26T05:27	10	1	0.1	0	1	368	0.3	368	369	12.1	98.6
2022-10-26T05:28	10	1	0.1	0	1	368	0.3	367	369	12.2	98.6
2022-10-26T05:29	10	1	0.1	1	1	368	0.3	367	369	12.1	98.5
2022-10-26T05:30	10	1	0.1	1	1	368	0.3	367	369	12.0	98.5
2022-10-26T05:31	10	1	0.1	0	1	367	0.3	367	368	11.9	98.4
2022-10-26T05:32	10	1	0.1	0	1	368	0.2	367	368	11.8	98.4
2022-10-26T05:33	10	0	0.1	0	1	368	0.2	367	368	11.8	98.4
2022-10-26T05:34	10	0	0.1	0	1	368	0.2	367	368	11.8	98.5
2022-10-26T05:35	10	0	0.1	0	1	368	0.2	367	368	11.8	98.5
2022-10-26T05:36	10	0	0.1	0	1	368	0.3	367	369	11.8	98.6
2022-10-26T05:37	10	0	0.1	0	1	369	0.3	368	369	11.8	98.7
2022-10-26T05:38	10	0	0.1	0	0	369	0.5	368	369	11.8	98.7
2022-10-26T05:39	10	0	0.1	0	0	369	0.2	369	370	11.8	98.7
2022-10-26T05:40	10	0	0.1	-1	0	369	0.2	369	370	11.7	98.8
2022-10-26T05:41	10	-1	0.1	-1	-1	369	0.2	369	370	11.6	98.8
2022-10-26T05:42	10	-1	0.1	-1	-1	370	0.3	369	370	11.6	98.8
2022-10-26T05:43	10	-1	0.1	-1	-1	370	0.3	369	370	11.5	98.8
2022-10-26T05:44	10	-1	0.1	-2	-1	370	0.3	369	370	11.4	98.8
2022-10-26T05:45	10	-1	0.1	-2	-1	369	0.2	369	370	11.4	98.8
2022-10-26T05:46	10	-2	0.1	-2	-1	369	0.3	369	370	11.4	98.8
2022-10-26T05:47	10	-2	0.0	-2	-1	369	0.2	369	370	11.4	98.9
2022-10-26T05:48	10	-2	0.1	-2	-1	369	0.2	369	369	11.4	99.0
2022-10-26T05:49	10	-2	0.1	-2	-1	369	0.3	368	370	11.4	99.0
2022-10-26T05:50	10	-2	0.1	-2	-2	369	0.3	368	369	11.4	99.1
2022-10-26T05:51	10	-2	0.1	-2	-2	369	0.3	368	369	11.4	99.1
2022-10-26T05:52	10	-2	0.1	-2	-1	369	0.3	368	369	11.4	99.1
2022-10-26T05:53	10	-2	0.1	-2	-1	369	0.3	368	369	11.4	99.2
2022-10-26T05:54	10	-1	0.1	-2	-1	369	0.3	368	369	11.4	99.2
2022-10-26T05:55	10	-1	0.1	-2	-1	369	0.3	368	369	11.4	99.2
2022-10-26T05:56	10	-1	0.1	-2	-1	368	0.3	368	369	11.4	99.2
2022-10-26T05:57	10	-1	0.1	-1	-1	369	0.2	368	369	11.4	99.2
2022-10-26T05:58	10	-1	0.1	-1	-1	369	0.3	368	370	11.5	99.2
2022-10-26T05:59	10	-1	0.1	-1	-1	369	0.2	368	369	11.5	99.2
2022-10-26T06:00	10	-1	0.1	-1	0	369	0.2	369	369	11.5	99.2
2022-10-26T06:01	10	0	0.1	-1	0	369	0.4	368	370	11.5	99.2
2022-10-26T06:02	10	0	0.1	0	0	369	0.5	368	370	11.5	99.2
2022-10-26T06:03	10	0	0.1	0	0	368	0.3	368	369	11.5	99.2
2022-10-26T06:04	10	0	0.1	0	0	368	0.4	367	369	11.5	99.2
2022-10-26T06:05	10	0	0.1	0	0	368	0.3	367	368	11.5	99.2
2022-10-26T06:06	10	0	0.1	0	1	367	0.3	367	368	11.4	99.2
2022-10-26T06:07	10	0	0.1	0	1	367	0.3	366	367	11.4	99.2
2022-10-26T06:08	10	0	0.1	0	1	367	0.3	366	368	11.4	99.2
2022-10-26T06:09	10	0	0.1	0	1	367	0.2	367	368	11.4	99.2
2022-10-26T06:10	10	0	0.1	0	1	367	0.2	367	368	11.4	99.2
2022-10-26T06:11	10	0	0.1	0	1	368	0.2	367	368	11.4	99.2
2022-10-26T06:12	10	0	0.1	0	1	368	0.2	368	368	11.4	99.2
2022-10-26T06:13	10	0	0.1	0	1	368	0.2	368	369	11.4	99.2
2022-10-26T06:14	10	0	0.1	0	1	368	0.2	368	369	11.4	99.2
2022-10-26T06:15	10	0	0.1	0	0	368	0.2	368	369	11.4	99.2
2022-10-26T06:16	10	0	0.1	0	0	369	0.3	368	369	11.4	99.2
2022-10-26T06:17	10	0	0.1	0	0	369	0.2	368	369	11.4	99.2
2022-10-26T06:18	10	0	0.1	0	0	369	0.2	368	369	11.5	99.2
2022-10-26T06:19	10	0	0.1	0	0	369	0.3	368	369	11.5	99.2
2022-10-26T06:20	10	0	0.1	0	0	368	0.2	368	369	11.5	99.2
2022-10-26T06:21	10	0	0.1	0	0	368	0.2	368	369	11.4	99.2
2022-10-26T06:22	10	0	0.1	0	0	368	0.2	367	368	11.4	99.2
2022-10-26T06:23	10	0	0.1	0	0	368	0.2	367	368	11.4	99.2
2022-10-26T06:24	10	0	0.1	0	0	368	0.2	367	368	11.4	99.2
2022-10-26T06:25	10	0	0.1	0	1	367	0.3	367	368	11.4	99.2
2022-10-26T06:26	10	1	0.2	1	1	367	0.2	367	368	11.4	99.2
2022-10-26T06:27	10	1	0.1	1	1	367	0.2	367	368	11.4	99.2
2022-10-26T06:28	10	1	0.1	1	1	368	0.2	367	368	11.5	99.2
2022-10-26T06:29	10	1	0.1	1	1	368	0.2	368	368	11.4	99.2
2022-10-26T06:30	10	1	0.1	1	1	368	0.2	368	369	11.4	99.2
2022-10-26T06:31	10	1	0.1	1	1	368	0.2	368	369	11.4	99.2
2022-10-26T06:32	10	1	0.1	1	1	368	0.2	368	369	11.4	99.2
2022-10-26T06:33	10	1	0.1	1	1	368	0.2	368	369	11.4	99.2
2022-10-26T06:34	10	1	0.1	1	2	368	0.2	368	369	11.4	99.2
2022-10-26T06:35	10	2	0.1	1	2	368	0.2	368	369	11.4	99.2
2022-10-26T06:36	10	2	0.1	2	2	368	0.2	367	368	11.5	99.2
2022-10-26T06:37	10	2	0.2	2	3	368	0.2	367	368	11.5	99.2
2022-10-26T06:38	10	3	0.1	3	3	368	0.2	368	369	11.5	99.2
2022-10-26T06:39	10	3	0.1	3	3	369	0.2	368	369	11.5	99.2
2022-10-26T06:40	10	3	0.1	3	4	368	0.3	368	369	11.6	99.2
2022-10-26T06:41	10	4	0.2	4	4	369	0.3	368	369	11.5	99.2
2022-10-26T06:42	10	4	0.2	4	5	369	0.3	368	369	11.5	99.2
2022-10-26T06:43	10	5	0.1	5	5	368	0.3	368	369	11.5	99.2
2022-10-26T06:44	10	5	0.1	5	5	368	0.3	368	369	11.5	99.2
2022-10-26T06:45	10	5	0.1	5	5	368	0.2	367	368	11.4	99.2
2022-10-26T06:46	10	6	0.1	5	6	368	0.3	367	369	11.5	99.2
2022-10-26T06:47	10	6	0.1	6	6	368	0.5	367	369	11.5	99.2
2022-10-26T06:48	10	6	0.1	5	6	367	0.2	367	368	11.5	99.2
2022-10-26T06:49	10	5	0.1	5	6	367	0.2	367	368	11.5	99.2
2022-10-26T06:50	10	5	0.1	5	5	367	0.2	366	367	11.4	99.2
2022-10-26T06:51	10	5	0.1	4	5	367	0.2	366	367	11.4	99.2
2022-10-26T06:52	10	4	0.1	4	5	366	0.2	366	367	11.4	99.2
2022-10-26T06:53	10	4	0.1	4	5	366	0.3	366	367	11.4	99.2
2022-10-26T06:54	10	5	0.2	4	5	366	0.2	365	366	11.4	99.2
2022-10-26T06:55	10	6	0.3	5	6	366	0.3	365	367	11.4	99.2
2022-10-26T06:56	10	6	0.2	6	7	366	0.3	365	367	11.4	99.2
2022-10-26T06:57	10	7	0.1	7	7	366	0.2	366	367	11.4	99.2
2022-10-26T06:58	10	7	0.1	7	7	366	0.2	366	367	11.4	99.2
2022-10-26T06:59	10	6	0.2	6	7	366	0.2	366	367	11.5	99.2
2022-10-26T07:00	10	6	0.1	6	6	365	0.4	365	366	11.4	99.2
2022-10-26T07:01	10	6	0.2	6	7	365	0.2	365	366	11.4	99.2
2022-10-26T07:02	10	7	0.2	6	7	365	0.3	364	366	11.5	99.2
2022-10-26T07:03	10	7	0.1	7	7	365	0.2	365	366	11.5	99.2
2022-10-26T07:04	10	7	0.1	7	7	365	0.2	365	366	11.6	99.2
2022-10-26T07:05	10	7	0.1	7	8	365	0.3	364	366	11.6	99.2
2022-10-26T07:06	10	7	0.1	7	7	365	0.3	364	365	11.5	99.2
2022-10-26T07:07	10	7	0.2	7	8	365	0.3	364	365	11.6	99.2
2022-10-26T07:08	10	7	0.1	7	7	365	0.2	364	365	11.5	99.2
2022-10-26T07:09	10	7	0.1	7	7	365	0.3	364	366	11.4	99.2
2022-10-26T07:10	10	7	0.4	6	9	365	0.3	364	366	11.4	99.2
2022-10-26T07:11	10	6	0.2	6	6	365	0.3	364	366	11.4	99.2
2022-10-26T07:12	10	6	0.1	6	6	365	0.2	365	366	11.5	99.2
2022-10-26T07:13	10	6	0.1	5	6	365	0.3	364	365	11.5	99.2
2022-10-26T07:14	10	6	0.2	6	6	364	0.3	364	365	11.5	99.2
2022-10-26T07:15	10	7	0.2	6	7	364	0.2	364	365	11.4	99.2
2022-10-26T07:16	10	7	0.1	7	7	364	0.2	363	364	11.4	99.2
2022-10-26T07:17	10	8	0.2	7	8	364	0.3	363	364	11.4	99.2
2022-10-26T07:18	10	10	1.4	8	12	365	0.3	364	365	11.4	99.2
2022-10-26T07:19	10	8	0.1	8	9	365	0.3	364	366	11.4	99.2
2022-10-26T07:20	10	9	0.2	8	9	365	0.2	365	366	11.4	99.2
2022-10-26T07:21	10	9	0.2	9	10	365	0.3	365	366	11.4	99.2
2022-10-26T07:22	10	11	1.8	9	16	365	0.2	365	365	11.4	99.2
2022-10-26T07:23	10	12	1.0	11	14	365	0.2	365	366	11.4	99.2
2022-10-26T07:24	10	12	1.2	11	15	365	0.2	365	366	11.4	99.2
2022-10-26T07:25	10	12	0.4	11	13	365	0.3	364	366	11.4	99.2
2022-10-26T07:26	10	14	2.0	12	18	366	0.3	365	366	11.3	99.2
2022-10-26T07:27	10	12	0.1	11	12	366	0.2	365	366	11.4	99.2
2022-10-26T07:28	10	12	0.1	11	12	366	0.2	365	366	11.4	99.2
2022-10-26T07:29	10	12	0.5	12	13	366	0.2	366	367	11.5	99.2
2022-10-26T07:30	10	15	2.2	13	21	366	0.3	365	367	11.6	99.2
2022-10-26T07:31	10	14	3.2	12	25	367	0.3	366	367	11.5	99.2
2022-10-26T07:32	10	16	2.4	14	25	367	0.3	367	368	11.6	99.2
2022-10-26T07:33	10	19	2.9	15	23	368	0.3	367	368	11.7	99.2
2022-10-26T07:34	10	17	1.2	15	20	368	0.2	367	369	11.6	99.2
2022-10-26T07:35	10	16	0.4	15	17	368	0.2	368	369	11.6	99.2
2022-10-26T07:36	10	19	5.0	16	31	368	0.3	368	369	11.6	99.2
2022-10-26T07:37	10	16	0.2	15	16	368	0.2	368	369	11.6	99.2
2022-10-26T07:38	10	15	0.3	15	16	369	0.2	368	369	11.6	99.2
2022-10-26T07:39	10	15	0.1	15	15	369	0.3	368	369	11.6	99.2
2022-10-26T07:40	10	16	0.5	15	17	369	0.2	368	369	11.6	99.2
2022-10-26T07:41	10	41	13.7	17	54	370	1.6	368	373	11.6	99.2
2022-10-26T07:42	10	54	0.5	54	55	373	0.8	371	374	11.8	99.2
2022-10-26T07:43	10	56	0.6	54	57	374	0.4	373	375	11.8	99.2
2022-10-26T07:44	10	55	4.8	44	58	375	0.4	374	376	11.8	99.2
2022-10-26T07:45	10	58	0.7	56	59	376	0.3	375	376	11.9	99.2
2022-10-26T07:46	10	55	4.3	44	59	376	0.3	376	377	11.8	99.2
2022-10-26T07:47	10	58	0.2	57	59	377	0.4	376	378	11.9	99.2
2022-10-26T07:48	10	59	0.2	58	59	379	0.2	378	379	12.1	99.2
2022-10-26T07:49	10	59	0.1	59	59	379	0.2	379	380	12.2	99.2
2022-10-26T07:50	10	60	0.3	59	60	380	0.3	379	380	12.3	99.2
2022-10-26T07:51	10	60	0.2	59	60	380	0.2	380	381	12.4	99.2
2022-10-26T07:52	10	60	0.1	60	60	381	0.2	380	381	12.4	99.2
2022-10-26T07:53	10	61	0.2	60	61	381	0.2	381	382	12.5	99.2
2022-10-26T07:54	10	61	0.3	61	62	381	0.2	381	382	12.6	99.2
2022-10-26T07:55	10	62	0.1	61	62	382	0.3	381	382	12.6	99.2
2022-10-26T07:56	10	62	0.3	62	63	382	0.3	381	382	12.7	99.2
2022-10-26T07:57	10	63	0.1	63	63	383	0.2	382	383	12.7	99.2
2022-10-26T07:58	10	63	0.1	63	64	383	0.2	383	384	12.9	99.2
2022-10-26T07:59	10	64	0.2	63	64	383	0.2	383	384	12.9	99.2
2022-10-26T08:00	10	65	0.2	64	65	384	0.2	383	384	12.9	99.2
2022-10-26T08:01	10	65	0.4	65	66	384	0.4	383	385	13.1	98.9
2022-10-26T08:02	10	66	0.2	66	67	384	0.2	384	385	13.0	98.5
2022-10-26T08:03	10	67	0.2	67	67	385	0.3	384	385	13.0	97.9
2022-10-26T08:04	10	68	0.1	67	68	385	0.3	384	386	12.9	97.3
2022-10-26T08:05	10	68	0.2	67	68	386	0.2	385	386	13.0	96.6
2022-10-26T08:06	10	67	0.2	67	68	386	0.4	385	386	13.1	95.9
2022-10-26T08:07	10	68	0.2	67	68	386	0.3	385	387	13.3	95.6
2022-10-26T08:08	10	67	0.2	67	68	387	0.5	385	387	13.3	95.3
2022-10-26T08:09	10	68	0.2	68	69	387	0.6	386	388	13.4	95.0
2022-10-26T08:10	10	69	0.1	69	69	388	0.4	386	388	13.3	94.7
2022-10-26T08:11	10	69	0.2	69	69	388	0.3	387	389	13.3	94.6
2022-10-26T08:12	10	70	0.4	69	70	388	0.3	387	388	13.3	94.8
2022-10-26T08:13	10	71	0.2	70	71	388	0.6	387	389	13.3	94.7
2022-10-26T08:14	10	72	0.3	71	72	388	0.2	388	389	13.3	94.5
2022-10-26T08:15	10	73	0.3	72	73	389	0.2	388	389	13.4	94.5
2022-10-26T08:16	10	73	0.2	73	73	389	0.2	389	389	13.5	94.3
2022-10-26T08:17	10	73	0.1	73	73	390	0.6	388	390	13.5	93.9
2022-10-26T08:18	10	73	0.2	73	74	390	0.2	389	391	13.5	93.9
2022-10-26T08:19	10	74	0.3	73	74	390	0.4	389	391	13.4	93.7
2022-10-26T08:20	10	75	0.2	74	75	390	0.4	389	391	13.4	93.5
2022-10-26T08:21	10	75	0.2	75	75	390	0.3	390	391	13.4	93.6
2022-10-26T08:22	10	75	0.2	75	76	390	0.2	390	391	13.3	93.4
2022-10-26T08:23	10	76	0.2	76	76	390	0.2	390	391	13.4	93.5
2022-10-26T08:24	10	76	0.1	76	76	391	0.4	390	392	13.4	93.3
2022-10-26T08:25	10	76	0.2	76	77	391	0.3	390	392	13.5	93.7
2022-10-26T08:26	10	77	0.3	76	77	391	0.3	390	392	13.5	94.0
2022-10-26T08:27	10	77	0.3	77	78	391	0.4	391	392	13.6	94.3
2022-10-26T08:28	10	78	0.5	77	79	392	0.3	391	392	13.6	94.0
2022-10-26T08:29	10	79	0.3	79	80	392	0.3	391	392	13.6	93.9
2022-10-26T08:30	10	80	0.2	79	80	392	0.3	392	393	13.6	94.0
2022-10-26T08:31	10	80	0.5	79	81	393	0.6	391	394	13.8	94.2
2022-10-26T08:32	10	80	0.2	80	81	393	0.4	392	394	13.8	93.8
2022-10-26T08:33	10	81	0.3	81	82	393	0.3	392	394	13.9	93.0
2022-10-26T08:34	10	82	0.2	81	82	393	0.5	392	394	14.0	92.1
2022-10-26T08:35	10	82	0.2	82	83	394	0.2	393	394	14.0	91.9
2022-10-26T08:36	10	83	0.2	82	83	393	0.3	392	394	13.9	92.1
2022-10-26T08:37	10	83	0.2	83	84	394	0.3	393	394	13.9	92.4
2022-10-26T08:38	10	84	0.2	83	84	393	0.2	393	394	13.9	92.5
2022-10-26T08:39	10	84	0.2	84	85	394	0.2	393	394	13.9	92.3
2022-10-26T08:40	10	85	0.2	84	85	394	0.5	393	395	14.1	92.5
2022-10-26T08:41	10	85	0.1	85	85	394	0.3	393	395	14.0	91.8
2022-10-26T08:42	10	85	0.3	85	86	394	0.4	393	395	14.0	92.1
2022-10-26T08:43	10	86	0.1	85	86	394	0.2	394	395	14.0	91.7
2022-10-26T08:44	10	86	0.2	86	87	395	0.3	394	396	14.1	91.7
2022-10-26T08:45	10	86	0.2	86	87	395	0.2	395	396	14.1	91.3
2022-10-26T08:46	10	87	0.2	86	87	395	0.3	395	396	14.1	90.9
2022-10-26T08:47	10	87	0.1	87	87	396	0.3	395	397	14.2	90.6
2022-10-26T08:48	10	87	0.3	87	88	396	0.2	395	396	14.3	90.5
2022-10-26T08:49	10	88	0.2	87	88	396	0.2	396	397	14.4	90.3
2022-10-26T08:50	10	88	0.5	87	89	396	0.2	396	397	14.4	88.8
2022-10-26T08:51	10	89	0.2	89	89	397	0.2	396	397	14.4	87.8
2022-10-26T08:52	10	90	0.2	89	90	398	0.3	397	398	14.5	87.1
2022-10-26T08:53	10	91	0.4	90	91	398	0.4	398	399	14.7	88.3
2022-10-26T08:54	10	91	0.3	91	92	399	0.2	399	400	14.9	88.8
2022-10-26T08:55	10	92	0.2	92	93	400	0.4	398	400	14.8	87.9
2022-10-26T08:56	10	93	0.1	92	93	400	0.4	399	401	14.8	87.7
2022-10-26T08:57	10	93	0.1	93	93	400	0.2	400	401	14.8	87.5
2022-10-26T08:58	10	93	0.1	93	93	400	0.3	400	401	14.9	87.8
2022-10-26T08:59	10	93	0.1	93	93	401	0.3	400	401	14.9	88.1
2022-10-26T09:00	10	93	0.2	93	94	400	0.3	400	401	14.9	88.8
2022-10-26T09:01	10	94	0.1	93	94	400	0.3	400	401	14.9	89.0
2022-10-26T09:02	10	94	0.1	94	94	401	0.5	400	402	15.0	89.2
2022-10-26T09:03	10	94	0.1	94	95	401	0.3	400	402	14.8	88.3
2022-10-26T09:04	10	95	0.2	95	95	401	0.2	401	402	15.0	89.4
2022-10-26T09:05	10	95	0.1	95	95	402	0.6	400	403	15.0	89.4
2022-10-26T09:06	10	96	0.1	95	96	402	0.3	401	402	14.8	88.4
2022-10-26T09:07	10	96	0.1	95	96	401	0.6	400	402	14.6	88.6
2022-10-26T09:08	10	96	0.1	95	96	401	0.7	400	403	14.5	89.2
2022-10-26T09:09	10	96	0.1	95	96	402	0.5	401	402	14.6	89.6
2022-10-26T09:10	10	96	0.2	96	96	402	0.4	401	403	14.6	89.2
2022-10-26T09:11	10	96	0.4	95	96	402	0.4	401	403	14.8	89.3
2022-10-26T09:12	10	94	0.6	93	95	402	0.3	401	402	14.7	89.2
2022-10-26T09:13	10	96	0.4	95	97	402	0.4	401	403	14.9	89.3
2022-10-26T09:14	10	97	0.2	97	97	402	0.4	402	404	15.0	89.1
2022-10-26T09:15	10	97	0.2	97	98	403	0.9	401	404	15.0	88.9
2022-10-26T09:16	10	98	0.3	97	98	403	0.4	402	404	14.7	87.5
2022-10-26T09:17	10	99	0.1	98	99	402	0.3	402	403	14.6	87.0
2022-10-26T09:18	10	99	0.1	99	99	402	0.6	401	403	14.7	87.1
2022-10-26T09:19	10	99	0.1	99	100	403	0.3	402	403	14.7	86.9
2022-10-26T09:20	10	100	0.2	100	100	403	0.3	402	403	14.6	86.9
2022-10-26T09:21	10	100	0.2	99	100	402	0.5	402	404	14.7	87.0
2022-10-26T09:22	10	99	0.2	99	100	402	0.3	401	403	14.7	87.0
2022-10-26T09:23	10	100	0.1	99	100	402	0.3	402	403	14.6	87.1
2022-10-26T09:24	10	100	0.1	100	100	402	0.2	402	403	14.7	87.0
2022-10-26T09:25	10	100	0.1	99	100	402	0.4	401	403	14.7	87.3
2022-10-26T09:26	10	100	0.1	100	100	402	0.3	401	403	14.7	87.1
2022-10-26T09:27	10	100	0.1	99	100	403	0.5	402	404	14.9	88.3
2022-10-26T09:28	10	100	0.1	100	100	403	0.3	402	403	14.7	87.2
2022-10-26T09:29	10	100	0.2	100	101	403	0.2	402	403	14.8	87.2
2022-10-26T09:30	10	101	0.2	101	102	403	0.3	402	403	14.8	86.9
2022-10-26T09:31	10	102	0.1	101	102	403	0.4	402	404	14.7	86.7
2022-10-26T09:32	10	102	0.2	102	102	403	0.3	402	403	14.7	86.1
2022-10-26T09:33	10	102	0.2	102	103	403	0.7	401	404	14.7	86.3
2022-10-26T09:34	10	103	0.2	103	103	404	0.4	403	405	14.8	86.6
2022-10-26T09:35	10	104	0.2	103	104	404	0.8	403	405	14.8	86.1
2022-10-26T09:36	10	104	0.2	104	105	404	0.6	403	405	14.9	86.4
2022-10-26T09:37	10	105	0.1	104	105	405	1.1	403	407	15.2	87.6
2022-10-26T09:38	10	105	0.1	105	105	405	1.1	403	407	14.9	86.3
2022-10-26T09:39	10	105	0.1	105	105	406	1.0	404	407	15.1	86.7
2022-10-26T09:40	10	105	0.1	105	106	406	0.8	405	407	15.0	86.4
2022-10-26T09:41	10	106	0.1	106	106	406	0.4	405	407	15.0	86.9
2022-10-26T09:42	10	106	0.2	106	107	406	0.5	405	407	15.1	87.1
2022-10-26T09:43	10	107	0.1	106	107	406	0.5	404	406	14.9	86.2
2022-10-26T09:44	10	107	0.1	107	107	406	0.4	405	406	14.9	86.4
2022-10-26T09:45	10	107	0.1	107	107	406	0.5	405	407	15.0	86.6
2022-10-26T09:46	10	107	0.1	107	107	405	0.3	404	406	14.9	85.9
2022-10-26T09:47	10	107	0.1	106	107	406	0.7	404	407	15.0	86.1
2022-10-26T09:48	10	107	0.1	107	107	406	0.3	406	407	15.1	86.6
2022-10-26T09:49	10	107	0.1	107	107	406	0.7	405	408	15.1	86.2
2022-10-26T09:50	10	107	0.2	107	108	407	0.3	406	407	15.0	84.9
2022-10-26T09:51	10	108	0.2	108	108	407	0.4	406	407	15.1	84.8
2022-10-26T09:52	10	109	0.2	108	109	407	0.4	406	408	15.1	85.3
2022-10-26T09:53	10	109	0.1	109	109	407	0.4	406	408	15.2	86.0
2022-10-26T09:54	10	109	0.2	109	109	407	0.4	406	407	15.1	86.0
2022-10-26T09:55	10	109	0.2	109	110	406	0.3	405	407	15.1	86.0
2022-10-26T09:56	10	108	1.3	105	109	405	0.2	405	406	15.0	85.1
2022-10-26T09:57	10	108	0.2	108	109	406	0.5	405	407	15.0	85.2
2022-10-26T09:58	10	109	0.3	108	110	407	0.6	406	408	15.1	85.1
2022-10-26T09:59	10	110	0.3	109	110	407	0.4	406	408	15.1	85.1
2022-10-26T10:00	10	111	0.4	110	112	407	0.4	407	408	15.1	85.2
2022-10-26T10:01	10	112	0.2	112	112	408	0.4	407	409	15.2	85.1
2022-10-26T10:02	10	108	1.8	106	112	408	0.7	407	409	15.5	86.0
2022-10-26T10:03	10	108	0.9	106	110	409	0.7	408	411	15.6	86.4
2022-10-26T10:04	10	113	0.7	110	113	408	0.2	408	409	15.4	86.0
2022-10-26T10:05	10	112	0.5	110	113	407	0.2	407	408	15.1	85.5
2022-10-26T10:06	10	109	1.4	107	112	408	0.5	407	408	15.1	85.6
2022-10-26T10:07	10	113	0.3	112	113	408	0.5	407	409	15.3	85.9
2022-10-26T10:08	10	111	1.0	109	113	408	0.3	408	409	15.3	85.4
2022-10-26T10:09	10	112	1.3	110	114	409	0.6	408	410	15.3	85.7
2022-10-26T10:10	10	114	0.2	113	114	409	0.5	408	410	15.2	85.1
2022-10-26T10:11	10	114	0.1	113	114	409	0.4	408	410	15.2	84.6
2022-10-26T10:12	10	114	0.2	113	114	410	0.4	409	411	15.4	85.4
2022-10-26T10:13	10	113	0.5	112	114	409	0.5	408	411	15.3	85.0
2022-10-26T10:14	10	111	0.9	110	113	409	0.4	409	410	15.3	84.8
2022-10-26T10:15	10	111	0.6	110	112	410	0.4	409	411	15.4	85.2
2022-10-26T10:16	10	113	0.5	112	114	410	0.4	409	410	15.4	84.2
2022-10-26T10:17	10	114	0.3	114	115	411	0.4	410	411	15.5	84.4
2022-10-26T10:18	10	115	0.2	115	116	411	0.7	409	412	15.6	84.8
2022-10-26T10:19	10	115	0.2	115	116	409	0.3	408	410	15.4	84.8
2022-10-26T10:20	10	116	0.2	115	116	411	0.7	409	412	15.6	85.1
2022-10-26T10:21	10	116	0.2	115	116	412	0.4	411	413	15.8	85.4
2022-10-26T10:22	10	116	0.2	115	116	412	0.4	411	413	15.6	84.9
2022-10-26T10:23	10	116	0.2	115	116	412	0.4	411	413	15.8	85.6
2022-10-26T10:24	10	116	0.3	115	116	412	0.6	411	413	15.6	84.9
2022-10-26T10:25	10	113	1.0	112	115	410	0.3	410	411	15.4	84.9
2022-10-26T10:26	10	111	0.9	110	113	411	0.5	410	412	15.6	85.5
2022-10-26T10:27	10	110	1.5	108	113	411	0.3	410	412	15.7	85.2
2022-10-26T10:28	10	113	0.5	112	114	411	0.2	411	412	15.6	84.7
2022-10-26T10:29	10	114	0.6	113	115	412	0.4	411	413	15.7	84.9
2022-10-26T10:30	10	116	0.7	115	117	412	0.6	411	413	15.8	84.7
2022-10-26T10:31	10	118	0.2	117	118	411	0.6	410	412	15.7	85.0
2022-10-26T10:32	10	118	0.2	117	118	411	0.3	411	412	15.7	85.1
2022-10-26T10:33	10	117	0.1	117	118	413	0.3	412	414	15.9	85.9
2022-10-26T10:34	10	117	0.1	117	118	413	0.2	413	414	15.9	85.5
2022-10-26T10:35	10	117	0.1	117	117	413	1.2	411	415	16.1	86.0
2022-10-26T10:36	10	117	0.1	117	118	414	0.5	413	415	16.0	84.7
2022-10-26T10:37	10	117	0.2	117	117	413	0.3	413	414	15.9	83.9
2022-10-26T10:38	10	117	0.2	117	118	413	0.5	413	415	16.0	83.8
2022-10-26T10:39	10	118	0.1	117	118	415	0.6	413	416	16.3	84.3
2022-10-26T10:40	10	118	0.2	118	119	416	0.5	415	417	16.1	83.3
2022-10-26T10:41	10	119	0.2	119	119	416	0.8	415	417	16.3	84.2
2022-10-26T10:42	10	119	0.1	119	120	416	0.4	415	417	16.2	84.3
2022-10-26T10:43	10	119	0.1	119	120	415	0.4	415	416	16.2	84.1
2022-10-26T10:44	10	119	0.1	119	119	414	0.6	414	415	16.1	84.0
2022-10-26T10:45	10	119	0.1	119	119	415	0.8	413	416	16.2	84.6
2022-10-26T10:46	10	119	0.1	119	119	416	0.3	415	417	16.2	84.0
2022-10-26T10:47	10	119	0.2	119	120	416	0.5	416	417	16.4	84.9
2022-10-26T10:48	10	119	0.1	119	120	415	0.8	414	417	16.3	85.3
2022-10-26T10:49	10	119	0.2	119	120	415	0.3	415	416	16.2	84.9
2022-10-26T10:50	10	119	0.1	119	119	416	0.5	415	417	16.2	84.6
2022-10-26T10:51	10	119	0.1	119	119	416	0.5	415	417	16.5	85.0
2022-10-26T10:52	10	119	0.2	118	119	416	0.5	415	417	16.4	84.1
2022-10-26T10:53	10	119	0.2	118	119	416	0.4	416	417	16.4	83.9
2022-10-26T10:54	10	119	0.2	119	120	416	0.8	415	418	16.3	83.6
2022-10-26T10:55	10	120	0.2	120	120	416	0.5	416	418	16.3	83.8
2022-10-26T10:56	10	120	0.1	120	121	416	0.3	415	416	16.3	83.7
2022-10-26T10:57	10	120	0.1	120	120	416	0.3	416	417	16.3	83.9
2022-10-26T10:58	10	120	0.2	119	120	417	0.6	416	418	16.3	83.2
2022-10-26T10:59	10	120	0.2	120	121	418	0.6	417	419	16.6	84.1
2022-10-26T11:00	10	120	0.2	120	121	419	0.8	418	421	17.0	85.0
2022-10-26T11:01	10	121	0.1	121	121	420	0.5	419	420	17.0	84.0
2022-10-26T11:02	10	121	0.1	121	121	420	0.8	418	421	16.8	82.8
2022-10-26T11:03	10	121	0.2	121	122	420	0.3	419	421	17.0	83.2
2022-10-26T11:04	10	121	0.2	121	122	420	0.8	419	422	17.0	83.3
2022-10-26T11:05	10	121	0.2	121	122	419	1.0	417	420	17.0	83.1
2022-10-26T11:06	10	121	0.1	121	122	417	0.4	416	418	16.7	83.1
2022-10-26T11:07	10	121	0.2	121	121	417	0.5	416	418	16.9	83.9
2022-10-26T11:08	10	121	0.1	121	121	417	0.3	416	417	16.9	83.3
2022-10-26T11:09	10	120	0.2	120	121	416	0.4	416	417	16.7	82.8
2022-10-26T11:10	10	120	0.1	120	121	415	0.5	414	417	16.5	82.7
2022-10-26T11:11	10	121	0.1	120	121	416	0.3	416	417	16.6	82.8
2022-10-26T11:12	10	121	0.1	120	121	416	0.3	416	417	16.7	82.7
2022-10-26T11:13	10	121	0.2	120	121	416	0.6	415	418	16.7	82.5
2022-10-26T11:14	10	120	0.1	120	120	416	0.4	415	417	16.5	82.1
2022-10-26T11:15	10	120	0.1	120	121	417	0.4	417	418	16.7	82.8
2022-10-26T11:16	10	120	0.1	120	120	417	0.3	416	418	16.8	82.5
2022-10-26T11:17	10	120	0.1	120	120	416	0.4	416	417	16.5	81.2
2022-10-26T11:18	10	120	0.1	120	120	418	0.9	416	420	16.5	81.8
2022-10-26T11:19	10	120	0.1	120	121	419	0.2	419	419	16.7	81.8
2022-10-26T11:20	10	121	0.1	120	121	419	0.3	418	419	16.7	81.7
2022-10-26T11:21	10	121	0.1	120	121	419	0.2	419	420	16.8	82.0
2022-10-26T11:22	10	121	0.1	120	121	418	1.0	416	419	16.9	81.9
2022-10-26T11:23	10	121	0.2	120	121	417	0.3	417	418	16.8	81.2
2022-10-26T11:24	10	121	0.1	120	121	418	0.3	417	419	16.9	81.0
2022-10-26T11:25	10	121	0.1	120	121	419	0.3	418	419	16.9	80.3
2022-10-26T11:26	10	121	0.1	121	121	420	0.4	419	420	17.0	80.5
2022-10-26T11:27	10	121	0.1	121	121	419	0.7	417	420	16.8	79.8
2022-10-26T11:28	10	121	0.1	121	121	420	1.0	418	421	17.1	81.1
2022-10-26T11:29	10	121	0.1	121	121	420	0.3	419	421	17.0	79.6
2022-10-26T11:30	10	121	0.1	121	121	421	0.5	420	421	17.2	80.4
2022-10-26T11:31	10	121	0.1	121	121	420	0.6	418	421	17.2	80.2
2022-10-26T11:32	10	121	0.1	121	121	419	0.2	419	420	17.0	80.2
2022-10-26T11:33	10	121	0.1	120	121	420	0.7	419	421	17.1	80.8
2022-10-26T11:34	10	121	0.1	120	121	420	0.4	419	421	17.2	80.6
2022-10-26T11:35	10	121	0.1	120	121	419	0.4	419	420	17.1	80.3
2022-10-26T11:36	10	121	0.1	120	121	420	0.5	419	421	17.3	81.2
2022-10-26T11:37	10	120	0.2	120	121	421	0.7	419	422	17.5	81.6
2022-10-26T11:38	10	121	0.1	120	121	419	0.6	418	420	17.3	79.7
2022-10-26T11:39	10	121	0.2	120	121	420	0.4	419	421	17.2	80.5
2022-10-26T11:40	10	120	0.1	120	121	420	0.8	419	422	17.3	80.8
2022-10-26T11:41	10	121	0.2	120	121	420	0.5	419	422	17.2	80.4
2022-10-26T11:42	10	121	0.2	120	121	422	0.6	421	423	17.4	81.1
2022-10-26T11:43	10	121	0.1	121	121	420	0.9	419	422	17.3	79.8
2022-10-26T11:44	10	121	0.2	121	122	419	0.4	418	419	17.1	79.3
2022-10-26T11:45	10	121	0.2	121	122	420	0.6	419	421	17.2	80.1
2022-10-26T11:46	10	121	0.2	121	121	419	0.5	418	420	17.1	80.1
2022-10-26T11:47	10	120	0.2	120	121	419	0.4	418	420	17.1	80.0
2022-10-26T11:48	10	120	0.1	120	121	419	0.5	418	419	17.0	79.7
2022-10-26T11:49	10	120	0.3	120	121	419	0.4	418	420	17.1	80.6
2022-10-26T11:50	10	120	0.1	120	120	420	0.4	419	421	17.2	80.0
2022-10-26T11:51	10	120	0.1	120	121	420	0.3	420	421	17.1	79.7
2022-10-26T11:52	10	121	0.1	120	121	422	0.4	421	422	17.4	80.2
2022-10-26T11:53	10	121	0.1	121	121	421	0.3	420	422	17.2	78.9
2022-10-26T11:54	10	121	0.1	121	121	421	0.3	421	422	17.3	78.5
2022-10-26T11:55	10	121	0.1	121	121	421	0.3	421	422	17.3	78.3
2022-10-26T11:56	10	121	0.2	121	122	421	0.2	421	422	17.3	78.0
2022-10-26T11:57	10	121	0.1	121	121	422	0.4	421	423	17.4	79.2
2022-10-26T11:58	10	121	0.1	120	121	422	0.6	421	423	17.3	78.5
2022-10-26T11:59	10	120	0.1	120	120	422	0.5	421	423	17.5	79.2
2022-10-26T12:00	10	120	0.1	120	120	422	0.5	421	422	17.5	79.0
2022-10-26T12:01	10	120	0.1	120	120	421	0.6	420	422	17.5	78.6
2022-10-26T12:02	10	120	0.1	120	120	422	0.4	421	423	17.7	79.5
2022-10-26T12:03	10	120	0.1	120	120	421	0.3	420	422	17.7	78.4
2022-10-26T12:04	10	120	0.2	120	121	421	0.9	419	422	17.6	78.0
2022-10-26T12:05	10	121	0.1	120	121	420	0.5	419	421	17.5	77.9
2022-10-26T12:06	10	121	0.1	120	121	420	0.3	420	421	17.7	78.8
2022-10-26T12:07	10	121	0.2	120	121	420	0.4	419	421	17.8	78.9
2022-10-26T12:08	10	120	0.1	120	120	420	0.5	419	421	17.7	78.6
2022-10-26T12:09	10	120	0.1	120	120	420	0.3	419	421	17.6	78.4
2022-10-26T12:10	10	120	0.1	120	120	419	0.2	419	420	17.6	78.6
2022-10-26T12:11	10	120	0.1	120	120	420	0.4	419	421	17.7	78.6
2022-10-26T12:12	10	120	0.1	120	121	422	0.5	421	422	17.8	78.8
2022-10-26T12:13	10	120	0.1	120	120	421	0.9	420	422	17.8	78.3
2022-10-26T12:14	10	120	0.2	119	120	420	0.3	420	421	17.5	77.3
2022-10-26T12:15	10	119	0.1	119	120	420	0.4	419	421	17.6	77.6
2022-10-26T12:16	10	119	0.1	119	119	420	0.4	419	421	17.8	78.2
2022-10-26T12:17	10	119	0.2	119	119	421	0.6	420	422	17.8	78.1
2022-10-26T12:18	10	119	0.1	119	119	421	0.6	420	422	17.8	78.3
2022-10-26T12:19	10	119	0.1	119	119	421	0.4	420	421	17.8	79.2
2022-10-26T12:20	10	119	0.1	118	119	421	0.3	420	422	17.9	78.7
2022-10-26T12:21	10	119	0.1	118	119	420	0.4	420	421	17.8	77.7
2022-10-26T12:22	10	119	0.1	118	119	421	0.5	420	422	17.9	78.1
2022-10-26T12:23	10	119	0.1	118	119	421	0.6	420	422	18.0	77.7
2022-10-26T12:24	10	119	0.1	119	119	421	0.3	420	422	17.8	76.8
2022-10-26T12:25	10	119	0.1	119	119	422	0.3	421	422	17.9	76.6
2022-10-26T12:26	10	119	0.1	119	119	422	0.3	422	423	18.1	76.4
2022-10-26T12:27	10	119	0.1	119	119	422	0.5	421	423	18.2	77.0
2022-10-26T12:28	10	119	0.1	119	119	422	0.4	421	422	18.4	77.3
2022-10-26T12:29	10	119	0.1	119	119	422	0.9	421	424	18.3	77.5
2022-10-26T12:30	10	118	0.2	118	119	421	0.4	420	422	18.1	77.7
2022-10-26T12:31	10	118	0.1	118	118	420	0.8	419	422	18.2	77.1
2022-10-26T12:32	10	117	0.1	117	118	420	0.3	419	420	18.0	77.1
2022-10-26T12:33	10	117	0.1	117	117	419	0.3	418	420	18.0	76.9
2022-10-26T12:34	10	117	0.1	117	117	420	0.5	419	421	18.2	77.4
2022-10-26T12:35	10	117	0.1	116	117	422	0.6	420	423	18.4	77.3
2022-10-26T12:36	10	117	0.1	117	117	421	0.5	420	422	18.3	76.7
2022-10-26T12:37	10	117	0.1	116	117	420	0.5	419	421	18.1	76.8
2022-10-26T12:38	10	117	0.1	116	117	420	0.3	420	421	18.2	77.9
2022-10-26T12:39	10	116	0.1	116	117	420	0.3	420	421	18.3	77.2
2022-10-26T12:40	10	116	0.1	116	117	421	0.5	420	422	18.2	76.7
2022-10-26T12:41	10	116	0.1	116	116	421	0.3	420	422	18.2	77.3
2022-10-26T12:42	10	116	0.1	116	116	420	0.9	419	422	18.2	77.5
2022-10-26T12:43	10	116	0.2	115	116	419	0.4	418	420	18.0	77.2
2022-10-26T12:44	10	115	0.1	115	115	420	1.1	418	422	18.2	77.7
2022-10-26T12:45	10	115	0.1	115	115	421	0.5	420	422	18.3	77.7
2022-10-26T12:46	10	115	0.1	114	115	420	0.2	420	421	18.3	76.9
2022-10-26T12:47	10	115	0.1	115	115	421	0.4	420	422	18.4	78.1
2022-10-26T12:48	10	115	0.2	114	116	420	0.7	419	421	18.4	77.3
2022-10-26T12:49	10	115	0.2	114	115	420	0.5	419	421	18.4	78.1
2022-10-26T12:50	10	114	0.1	114	115	420	0.3	419	421	18.3	77.5
2022-10-26T12:51	10	114	0.3	113	115	422	0.4	421	423	18.3	77.4
2022-10-26T12:52	10	114	0.1	113	114	422	0.6	421	423	18.5	77.7
2022-10-26T12:53	10	114	0.2	113	114	421	0.7	420	422	18.5	77.3
2022-10-26T12:54	10	113	0.2	113	114	419	0.4	418	420	18.2	77.4
2022-10-26T12:55	10	113	0.2	113	113	420	0.3	419	420	18.2	77.9
2022-10-26T12:56	10	113	0.1	112	113	420	0.5	419	421	18.2	77.8
2022-10-26T12:57	10	113	0.1	112	113	421	0.6	420	422	18.4	78.9
2022-10-26T12:58	10	112	0.1	112	113	421	0.4	420	422	18.6	78.8
2022-10-26T12:59	10	112	0.1	112	113	421	0.5	420	422	18.5	78.4
2022-10-26T13:00	10	112	0.1	112	113	420	0.4	419	421	18.3	78.2
2022-10-26T13:01	10	112	0.1	112	112	419	0.3	419	420	18.3	78.8
2022-10-26T13:02	10	111	0.1	111	112	421	0.4	420	422	18.6	79.1
2022-10-26T13:03	10	111	0.2	111	112	420	0.4	420	421	18.7	78.6
2022-10-26T13:04	10	111	0.3	110	111	420	0.4	420	422	18.9	78.3
2022-10-26T13:05	10	110	0.2	110	110	419	1.2	417	421	18.6	76.7
2022-10-26T13:06	10	110	0.1	109	110	419	0.5	418	420	18.4	77.1
2022-10-26T13:07	10	109	0.1	109	110	420	0.5	419	421	18.6	77.3
2022-10-26T13:08	10	109	0.2	109	109	418	0.5	417	420	18.4	76.7
2022-10-26T13:09	10	108	0.2	108	109	418	0.4	417	419	18.4	77.1
2022-10-26T13:10	10	108	0.1	108	108	418	0.3	417	419	18.3	76.6
2022-10-26T13:11	10	107	0.5	106	108	419	0.5	418	420	18.5	77.3
2022-10-26T13:12	10	106	0.9	105	108	419	0.5	418	420	18.5	76.7
2022-10-26T13:13	10	108	0.2	107	108	419	0.3	418	420	18.6	76.9
2022-10-26T13:14	10	106	1.2	103	107	419	0.4	419	420	18.6	76.8
2022-10-26T13:15	10	104	0.7	103	105	420	0.3	419	421	18.6	76.5
2022-10-26T13:16	10	106	0.5	105	107	419	0.5	418	420	18.6	77.1
2022-10-26T13:17	10	107	0.5	106	107	419	0.3	418	419	18.5	77.2
2022-10-26T13:18	10	106	0.2	105	106	419	0.4	418	420	18.7	76.8
2022-10-26T13:19	10	106	0.3	105	106	419	0.4	418	420	18.8	76.9
2022-10-26T13:20	10	106	0.2	106	106	419	0.6	418	420	18.7	75.7
2022-10-26T13:21	10	106	0.4	105	106	420	0.3	419	421	18.6	75.5
2022-10-26T13:22	10	106	0.4	105	106	420	0.4	420	421	18.7	75.6
2022-10-26T13:23	10	106	0.2	105	106	420	0.3	420	421	18.6	75.2
2022-10-26T13:24	10	106	0.6	104	106	421	0.3	421	422	18.8	76.1
2022-10-26T13:25	10	103	0.4	102	104	420	0.6	419	421	18.9	75.8
2022-10-26T13:26	10	101	1.7	98	103	419	0.6	418	420	18.8	75.4
2022-10-26T13:27	10	101	1.3	99	103	419	0.4	418	420	18.7	74.8
2022-10-26T13:28	10	102	0.4	102	103	419	0.4	419	420	18.8	75.9
2022-10-26T13:29	10	102	0.3	101	102	420	0.5	419	421	18.9	75.3
2022-10-26T13:30	10	98	1.1	97	100	420	0.4	419	421	18.9	74.9
2022-10-26T13:31	10	101	0.5	100	102	420	0.2	419	420	18.9	75.3
2022-10-26T13:32	10	100	0.7	99	101	420	0.3	419	420	18.9	74.8
2022-10-26T13:33	10	100	0.3	99	101	421	0.3	420	421	19.0	76.4
2022-10-26T13:34	10	96	1.5	93	99	421	0.9	419	422	19.0	76.5
2022-10-26T13:35	10	95	2.3	90	98	421	0.3	420	421	19.1	77.0
2022-10-26T13:36	10	82	5.5	75	90	419	1.3	417	421	18.9	75.3
2022-10-26T13:37	10	82	3.2	75	85	418	0.6	417	419	18.8	74.8
2022-10-26T13:38	10	90	3.2	85	93	419	0.5	418	420	18.8	74.5
2022-10-26T13:39	10	90	1.6	88	92	420	0.4	419	420	18.9	75.1
2022-10-26T13:40	10	88	1.2	85	89	419	0.4	418	420	19.0	74.9
2022-10-26T13:41	10	74	5.6	67	84	418	0.8	416	419	19.0	74.4
2022-10-26T13:42	10	73	4.0	67	78	417	0.4	416	417	19.0	74.1
2022-10-26T13:43	10	77	1.9	74	79	417	0.3	416	418	19.0	74.0
2022-10-26T13:44	10	79	1.7	78	83	418	0.6	417	419	19.0	74.7
2022-10-26T13:45	10	81	2.1	79	84	418	0.2	417	419	19.0	74.3
2022-10-26T13:46	10	84	1.1	82	87	418	0.3	417	418	19.0	73.8
2022-10-26T13:47	10	93	3.7	87	98	419	1.0	417	421	19.1	75.5
2022-10-26T13:48	10	96	1.9	93	98	420	0.3	419	421	19.1	74.3
2022-10-26T13:49	10	92	0.9	91	94	419	0.7	417	420	19.0	74.4
2022-10-26T13:50	10	87	3.2	83	92	418	0.4	418	419	19.0	75.2
2022-10-26T13:51	10	86	1.7	83	89	418	0.4	417	419	19.1	75.9
2022-10-26T13:52	10	91	1.3	89	93	418	0.3	417	419	19.1	75.7
2022-10-26T13:53	10	88	1.2	85	89	417	0.6	416	419	18.9	76.2
2022-10-26T13:54	10	87	1.1	85	88	417	0.5	417	419	19.0	76.8
2022-10-26T13:55	10	84	2.3	79	87	417	0.9	416	419	18.9	76.8
2022-10-26T13:56	10	75	4.5	67	79	416	0.6	414	417	18.8	77.0
2022-10-26T13:57	10	65	2.2	61	68	414	0.6	413	416	18.8	76.9
2022-10-26T13:58	10	64	1.7	61	66	414	0.3	413	414	18.9	77.8
2022-10-26T13:59	10	62	3.2	57	66	413	0.3	413	414	18.9	77.4
2022-10-26T14:00	10	60	1.6	57	62	413	0.3	413	414	19.0	77.4
2022-10-26T14:01	10	61	1.5	59	65	413	0.3	413	414	18.9	77.3
2022-10-26T14:02	10	68	2.0	65	71	413	0.5	412	415	18.8	77.1
2022-10-26T14:03	10	74	1.8	71	77	415	0.7	413	416	18.9	77.8
2022-10-26T14:04	10	79	1.1	77	81	416	0.5	415	417	19.1	77.7
2022-10-26T14:05	10	82	2.2	79	86	416	0.2	415	416	19.0	76.5
2022-10-26T14:06	10	87	2.1	84	90	416	0.5	415	417	19.0	76.1
2022-10-26T14:07	10	86	2.3	84	92	416	0.3	415	417	18.9	76.6
2022-10-26T14:08	10	93	0.6	92	94	417	0.5	415	417	18.9	77.4
2022-10-26T14:09	10	95	0.8	94	96	418	0.4	417	418	18.9	77.9
2022-10-26T14:10	10	97	0.4	96	98	418	0.5	417	419	19.0	78.4
2022-10-26T14:11	10	99	0.6	97	100	417	0.4	417	418	18.9	76.8
2022-10-26T14:12	10	96	1.5	94	98	416	0.3	416	417	18.8	76.7
2022-10-26T14:13	10	94	0.3	93	95	416	0.3	415	417	18.8	76.7
2022-10-26T14:14	10	94	0.5	93	95	416	0.3	415	417	18.9	77.4
2022-10-26T14:15	10	89	3.3	84	93	416	0.6	415	417	18.8	77.0
2022-10-26T14:16	10	87	1.0	85	89	415	0.4	414	416	18.8	77.5
2022-10-26T14:17	10	86	2.3	81	89	415	0.4	414	416	18.9	77.2
2022-10-26T14:18	10	74	2.9	70	80	414	0.3	414	415	18.9	77.0
2022-10-26T14:19	10	72	3.7	68	80	414	0.4	413	415	18.8	76.6
2022-10-26T14:20	10	84	1.1	80	85	415	0.5	414	415	18.8	76.8
2022-10-26T14:21	10	83	1.1	80	84	416	0.5	414	416	18.8	77.0
2022-10-26T14:22	10	77	2.1	74	80	415	0.5	414	416	18.9	77.4
2022-10-26T14:23	10	84	1.9	80	88	415	0.4	414	416	18.8	76.3
2022-10-26T14:24	10	90	0.9	88	91	416	0.3	415	417	18.9	76.8
2022-10-26T14:25	10	90	0.6	89	91	417	0.4	416	418	18.8	76.5
2022-10-26T14:26	10	85	2.4	81	89	416	0.6	415	417	18.9	76.3
2022-10-26T14:27	10	79	1.1	77	81	414	0.6	413	415	18.9	76.2
2022-10-26T14:28	10	72	4.6	62	77	413	0.6	412	414	18.9	76.2
2022-10-26T14:29	10	49	7.9	36	62	411	1.3	409	414	18.8	76.3
2022-10-26T14:30	10	32	1.3	31	36	408	0.8	407	410	18.7	76.7
2022-10-26T14:31	10	43	6.2	34	54	408	0.6	407	409	18.8	77.0
2022-10-26T14:32	10	64	4.6	55	70	410	1.0	407	411	18.8	77.0
2022-10-26T14:33	10	72	2.1	70	77	411	0.6	410	412	18.8	76.7
2022-10-26T14:34	10	79	0.9	77	80	412	0.7	411	414	18.8	77.0
2022-10-26T14:35	10	76	2.8	72	80	413	0.2	413	414	18.9	77.0
2022-10-26T14:36	10	74	2.8	71	79	413	0.3	412	413	18.8	77.2
2022-10-26T14:37	10	81	0.6	79	82	412	0.3	412	413	18.8	76.5
2022-10-26T14:38	10	81	1.0	80	83	412	0.4	411	413	18.7	76.4
2022-10-26T14:39	10	82	1.5	80	84	413	0.5	412	413	18.8	76.6
2022-10-26T14:40	10	80	0.4	80	81	412	0.5	411	413	18.7	76.8
2022-10-26T14:41	10	75	2.5	72	80	412	0.4	411	413	18.8	77.7
2022-10-26T14:42	10	78	2.2	73	80	412	0.6	411	413	18.9	77.9
2022-10-26T14:43	10	79	0.2	79	80	412	0.6	411	413	18.8	77.8
2022-10-26T14:44	10	79	0.4	78	80	412	0.4	411	413	18.8	77.8
2022-10-26T14:45	10	78	0.2	78	79	412	0.4	411	412	18.8	77.6
2022-10-26T14:46	10	78	0.2	78	79	412	0.3	411	412	18.8	77.8
2022-10-26T14:47	10	78	0.3	77	78	412	0.3	411	412	18.8	77.8
2022-10-26T14:48	10	77	0.3	77	78	411	0.3	411	412	18.8	77.4
2022-10-26T14:49	10	75	0.8	74	77	411	0.3	410	412	18.8	77.6
2022-10-26T14:50	10	76	0.5	75	76	411	0.4	410	412	18.8	77.9
2022-10-26T14:51	10	76	0.2	75	76	411	0.5	409	411	18.8	77.6
2022-10-26T14:52	10	75	0.2	75	76	410	0.3	410	411	18.7	77.2
2022-10-26T14:53	10	74	0.3	74	75	410	0.2	410	411	18.7	77.5
2022-10-26T14:54	10	74	0.2	73	74	410	0.2	409	410	18.8	77.7
2022-10-26T14:55	10	73	0.2	73	74	410	0.4	410	411	18.8	77.8
2022-10-26T14:56	10	73	0.2	72	73	411	0.2	410	411	18.8	77.6
2022-10-26T14:57	10	72	0.2	72	73	411	0.3	410	411	18.8	77.4
2022-10-26T14:58	10	70	0.9	69	72	411	0.3	410	411	18.8	77.2
2022-10-26T14:59	10	65	2.3	61	69	410	0.3	409	411	18.9	77.3
2022-10-26T15:00	10	60	0.5	59	61	409	0.4	408	410	18.9	76.7
2022-10-26T15:01	10	60	1.3	57	61	409	0.3	408	410	18.9	77.2
2022-10-26T15:02	10	53	2.2	50	57	409	0.4	408	410	18.9	77.4
2022-10-26T15:03	10	54	2.4	50	58	408	0.2	408	409	18.9	77.1
2022-10-26T15:04	10	60	1.0	58	61	408	0.2	408	409	18.9	76.3
2022-10-26T15:05	10	61	0.1	61	61	409	0.3	408	410	18.9	76.5
2022-10-26T15:06	10	62	0.4	61	62	409	0.2	408	409	18.9	76.8
2022-10-26T15:07	10	57	1.5	56	60	408	0.5	407	409	18.8	77.7
2022-10-26T15:08	10	58	1.4	56	60	408	0.6	407	409	18.7	78.6
2022-10-26T15:09	10	59	0.8	57	60	408	0.2	408	409	18.8	78.6
2022-10-26T15:10	10	56	1.2	53	57	408	0.3	407	408	18.8	78.8
2022-10-26T15:11	10	48	2.1	46	53	407	0.6	406	408	18.8	78.8
2022-10-26T15:12	10	49	0.7	47	49	407	0.4	406	408	18.7	79.2
2022-10-26T15:13	10	45	3.2	39	49	407	0.4	406	407	18.8	78.7
2022-10-26T15:14	10	34	2.4	31	38	405	1.0	404	407	18.8	78.5
2022-10-26T15:15	10	34	2.7	31	39	404	0.3	404	405	18.8	78.6
2022-10-26T15:16	10	43	1.5	40	45	405	0.5	404	406	18.8	78.8
2022-10-26T15:17	10	43	1.7	40	45	405	0.3	404	405	18.7	79.0
2022-10-26T15:18	10	40	0.5	39	41	404	0.2	404	405	18.7	78.6
2022-10-26T15:19	10	44	1.7	41	46	404	0.2	404	404	18.6	78.3
2022-10-26T15:20	10	46	1.4	43	48	404	0.3	403	404	18.6	77.9
2022-10-26T15:21	10	33	5.3	25	42	403	0.7	402	404	18.6	77.9
2022-10-26T15:22	10	20	2.4	17	25	402	1.0	400	404	18.6	78.2
2022-10-26T15:23	10	15	0.9	14	17	401	0.5	400	401	18.5	78.1
2022-10-26T15:24	10	14	0.4	13	15	400	0.2	399	400	18.5	78.1
2022-10-26T15:25	10	17	2.0	14	21	399	0.3	398	400	18.5	78.3
2022-10-26T15:26	10	28	3.9	21	34	399	0.5	398	400	18.5	78.0
2022-10-26T15:27	10	37	1.1	35	39	400	0.7	399	401	18.5	78.0
2022-10-26T15:28	10	36	0.9	34	37	400	0.2	400	401	18.5	78.3
2022-10-26T15:29	10	30	2.2	27	34	400	0.3	399	401	18.5	78.6
2022-10-26T15:30	10	24	1.5	21	27	399	0.4	399	400	18.4	78.8
2022-10-26T15:31	10	20	0.5	19	21	399	0.3	398	400	18.4	79.2
2022-10-26T15:32	10	17	1.9	13	20	399	0.4	398	400	18.3	79.9
2022-10-26T15:33	10	10	1.5	8	13	398	0.3	397	398	18.3	80.0
2022-10-26T15:34	10	8	0.2	8	8	397	0.4	396	398	18.2	80.5
2022-10-26T15:35	10	9	0.4	8	9	396	0.2	396	397	18.2	80.4
2022-10-26T15:36	10	11	1.5	9	14	396	0.3	395	397	18.2	80.3
2022-10-26T15:37	10	17	1.8	14	20	396	0.5	395	397	18.2	80.6
2022-10-26T15:38	10	20	0.2	20	21	396	0.7	395	397	18.2	79.9
2022-10-26T15:39	10	22	1.1	20	24	396	0.3	395	397	18.2	79.5
2022-10-26T15:40	10	27	1.5	24	29	396	0.5	395	397	18.1	80.1
2022-10-26T15:41	10	30	0.4	29	31	396	0.3	396	397	18.1	80.0
2022-10-26T15:42	10	30	0.3	30	31	396	0.3	396	397	18.2	79.7
2022-10-26T15:43	10	29	0.3	29	30	396	0.3	395	397	18.2	79.6
2022-10-26T15:44	10	28	0.2	28	29	396	0.3	396	397	18.2	79.7
2022-10-26T15:45	10	28	0.2	27	28	396	0.2	396	397	18.2	79.7
2022-10-26T15:46	10	27	0.3	26	27	396	0.3	395	397	18.2	79.5
2022-10-26T15:47	10	26	0.3	25	26	396	0.3	395	396	18.2	79.9
2022-10-26T15:48	10	25	0.2	25	26	396	0.5	395	396	18.1	80.0
2022-10-26T15:49	10	24	0.2	24	25	395	0.3	394	396	18.1	79.9
2022-10-26T15:50	10	23	0.7	22	24	395	0.2	395	395	18.1	79.9
2022-10-26T15:51	10	20	0.9	19	22	394	0.4	393	395	18.1	80.5
2022-10-26T15:52	10	18	0.1	18	19	393	0.3	393	394	18.1	80.2
2022-10-26T15:53	10	17	0.9	15	18	393	0.2	393	393	18.1	80.2
2022-10-26T15:54	10	13	1.3	11	15	393	0.4	392	393	18.0	80.3
2022-10-26T15:55	10	10	0.5	9	11	391	0.5	391	393	18.0	80.7
2022-10-26T15:56	10	9	0.4	9	10	391	0.2	391	392	18.0	80.7
2022-10-26T15:57	10	11	0.5	10	12	391	0.3	390	392	18.0	80.8
2022-10-26T15:58	10	12	0.4	11	12	390	0.2	390	391	17.9	81.3
2022-10-26T15:59	10	9	1.0	7	11	390	0.2	390	391	18.0	81.1
2022-10-26T16:00	10	6	0.3	6	7	390	0.5	389	391	17.9	81.1
2022-10-26T16:01	10	6	0.1	6	6	389	0.3	388	389	17.9	81.4
2022-10-26T16:02	10	6	0.1	6	6	388	0.3	387	389	17.8	82.1
2022-10-26T16:03	10	6	0.1	6	6	388	0.4	388	389	17.8	82.0
2022-10-26T16:04	10	6	0.2	5	6	389	0.3	388	389	17.8	81.1
2022-10-26T16:05	10	5	0.2	4	5	388	0.3	387	389	17.8	81.4
2022-10-26T16:06	10	5	0.1	5	5	387	0.3	387	388	17.7	81.8
2022-10-26T16:07	10	5	0.3	5	6	386	0.3	386	387	17.6	82.3
2022-10-26T16:08	10	6	0.2	6	7	386	0.2	385	387	17.5	83.1
2022-10-26T16:09	10	6	0.2	6	7	386	0.3	385	386	17.6	82.9
2022-10-26T16:10	10	6	0.3	5	6	385	0.4	384	386	17.5	83.3
2022-10-26T16:11	10	5	0.2	5	5	384	0.3	384	385	17.5	83.6
2022-10-26T16:12	10	5	0.1	5	5	384	0.3	383	384	17.5	83.6
2022-10-26T16:13	10	4	0.2	4	5	384	0.3	383	385	17.5	83.5
2022-10-26T16:14	10	4	0.1	4	4	384	0.2	383	384	17.5	83.0
2022-10-26T16:15	10	4	0.1	3	4	384	0.2	383	384	17.4	83.6
2022-10-26T16:16	10	3	0.1	3	4	384	0.2	383	384	17.4	84.0
2022-10-26T16:17	10	3	0.1	3	3	383	0.3	383	384	17.3	83.9
2022-10-26T16:18	10	3	0.1	3	3	383	0.2	382	383	17.4	83.5
2022-10-26T16:19	10	3	0.1	2	3	382	0.3	382	383	17.3	83.7
2022-10-26T16:20	10	2	0.1	2	3	381	0.3	381	382	17.1	84.6
2022-10-26T16:21	10	2	0.1	2	2	381	0.2	381	382	17.1	85.3
2022-10-26T16:22	10	2	0.1	2	2	381	0.3	381	382	17.0	85.7
2022-10-26T16:23	10	2	0.1	2	2	381	0.2	380	381	16.9	86.2
2022-10-26T16:24	10	2	0.1	1	2	381	0.2	380	381	16.9	86.5
2022-10-26T16:25	10	1	0.1	1	2	381	0.2	380	381	16.9	86.9
2022-10-26T16:26	10	2	0.1	1	2	380	0.2	380	381	16.9	87.6
2022-10-26T16:27	10	2	0.1	1	2	380	0.2	380	381	16.9	87.6
2022-10-26T16:28	10	2	0.1	2	2	380	0.2	379	380	16.9	87.6
2022-10-26T16:29	10	2	0.1	2	2	380	0.2	379	380	17.0	87.4
2022-10-26T16:30	10	2	0.1	2	2	379	0.2	379	379	16.9	87.0
2022-10-26T16:31	10	2	0.1	2	2	379	0.2	378	379	16.9	87.1
2022-10-26T16:32	10	2	0.1	1	2	379	0.2	378	379	16.9	87.5
2022-10-26T16:33	10	1	0.2	1	2	379	0.2	378	379	17.0	87.1
2022-10-26T16:34	10	1	0.2	1	1	378	0.3	378	379	16.9	87.2
2022-10-26T16:35	10	1	0.2	0	2	378	0.2	378	379	16.9	87.7
2022-10-26T16:36	10	1	0.2	1	1	379	0.3	378	379	16.9	87.7
2022-10-26T16:37	10	1	0.2	1	1	379	0.2	378	379	16.9	87.6
2022-10-26T16:38	10	1	0.2	0	1	378	0.3	378	379	16.9	87.7
2022-10-26T16:39	10	1	0.2	1	1	378	0.2	378	379	16.9	87.7
2022-10-26T16:40	10	1	0.2	1	2	378	0.2	378	379	16.9	87.5
2022-10-26T16:41	10	1	0.1	0	1	378	0.3	378	379	16.8	87.5
2022-10-26T16:42	10	1	0.1	0	1	378	0.2	378	379	16.8	87.7
2022-10-26T16:43	10	1	0.1	0	1	379	0.4	378	380	16.8	88.1
2022-10-26T16:44	10	1	0.1	0	1	380	0.3	379	380	16.8	87.8
2022-10-26T16:45	10	0	0.1	0	1	380	0.2	379	380	16.8	87.6
2022-10-26T16:46	10	0	0.1	0	1	379	0.2	379	380	16.7	87.5
2022-10-26T16:47	10	0	0.1	0	1	379	0.3	379	380	16.5	88.0
2022-10-26T16:48	10	0	0.1	0	1	378	0.5	377	379	16.5	88.1
2022-10-26T16:49	10	0	0.1	0	1	377	0.3	377	378	16.3	88.3
2022-10-26T16:50	10	0	0.1	0	1	377	0.2	376	377	16.2	89.3
2022-10-26T16:51	10	0	0.1	0	1	376	0.2	376	377	16.2	89.4
2022-10-26T16:52	10	0	0.1	0	1	376	0.2	376	377	16.3	89.2
2022-10-26T16:53	10	0	0.1	0	1	376	0.2	376	377	16.2	89.0
2022-10-26T16:54	10	0	0.1	0	1	376	0.2	376	376	16.2	89.1
2022-10-26T16:55	10	0	0.1	0	0	376	0.2	375	376	16.2	88.8
2022-10-26T16:56	10	0	0.1	0	1	375	0.2	375	376	16.1	89.0
2022-10-26T16:57	10	0	0.1	0	0	375	0.3	374	375	16.0	89.5
2022-10-26T16:58	10	0	0.1	0	1	374	0.2	374	375	15.9	90.2
2022-10-26T16:59	10	0	0.1	0	1	373	0.3	373	374	15.7	90.9
2022-10-26T17:00	10	0	0.1	0	1	373	0.2	373	374	15.6	91.5
2022-10-26T17:01	10	0	0.1	0	0	373	0.3	373	374	15.6	92.0
2022-10-26T17:02	10	0	0.1	0	0	373	0.2	373	374	15.7	92.1
2022-10-26T17:03	10	0	0.1	0	0	374	0.2	373	374	15.8	91.9
2022-10-26T17:04	10	0	0.1	0	0	374	0.6	374	375	16.1	91.2
2022-10-26T17:05	10	0	0.1	0	0	376	0.4	375	376	16.3	89.8
2022-10-26T17:06	10	0	0.1	0	0	376	0.2	375	376	16.4	88.5
2022-10-26T17:07	10	0	0.1	0	1	375	0.2	375	376	16.4	87.9
2022-10-26T17:08	10	1	0.1	0	1	375	0.4	374	375	16.4	87.7
2022-10-26T17:09	10	1	0.1	0	1	374	0.4	372	375	16.2	88.0
2022-10-26T17:10	10	1	0.1	0	1	373	0.4	372	374	15.4	89.0
2022-10-26T17:11	10	1	0.1	0	1	373	0.3	373	374	15.5	91.3
2022-10-26T17:12	10	1	0.1	0	1	374	0.2	373	374	15.6	91.9
2022-10-26T17:13	10	1	0.1	0	1	374	0.2	373	374	15.7	92.1
2022-10-26T17:14	10	1	0.1	0	1	373	0.2	373	374	15.6	92.1
2022-10-26T17:15	10	1	0.1	0	1	373	0.3	373	374	15.5	92.3
2022-10-26T17:16	10	1	0.1	1	1	374	0.2	373	374	15.3	92.9
2022-10-26T17:17	10	1	0.1	1	1	374	0.2	373	374	15.6	93.3
2022-10-26T17:18	10	1	0.1	1	1	374	0.2	373	374	15.7	92.8
2022-10-26T17:19	10	1	0.1	0	1	374	0.2	373	374	15.9	92.2
2022-10-26T17:20	10	1	0.1	1	1	373	0.3	373	374	16.1	91.2
2022-10-26T17:21	10	1	0.1	1	1	373	0.3	372	373	16.1	89.9
2022-10-26T17:22	10	1	0.1	1	1	372	0.2	371	372	15.8	90.0
2022-10-26T17:23	10	1	0.1	1	1	371	0.3	371	372	15.8	91.0
2022-10-26T17:24	10	1	0.1	1	1	371	0.3	371	372	15.7	91.3
2022-10-26T17:25	10	1	0.1	1	1	370	0.2	370	371	15.6	91.2
2022-10-26T17:26	10	1	0.1	1	1	370	0.4	370	371	15.5	91.8
2022-10-26T17:27	10	1	0.1	1	1	371	0.2	370	371	15.7	92.3
2022-10-26T17:28	10	1	0.1	1	1	371	0.3	371	372	15.9	91.9
2022-10-26T17:29	10	1	0.1	0	1	371	0.2	371	372	16.0	91.5
2022-10-26T17:30	10	1	0.1	0	1	371	0.2	371	372	16.0	91.2
2022-10-26T17:31	10	1	0.1	0	1	371	0.2	370	372	16.0	90.9
2022-10-26T17:32	10	0	0.1	0	1	371	0.4	370	371	16.0	90.6
2022-10-26T17:33	10	0	0.1	0	1	370	0.3	370	371	15.6	90.6
2022-10-26T17:34	10	0	0.2	0	1	371	0.6	370	372	15.0	91.8
2022-10-26T17:35	10	0	0.2	0	1	372	0.3	371	373	15.3	93.3
2022-10-26T17:36	10	0	0.1	0	1	371	0.2	371	372	15.4	93.2
2022-10-26T17:37	10	1	0.1	0	1	371	0.2	371	372	15.4	93.1
2022-10-26T17:38	10	1	0.1	0	1	371	0.2	371	371	15.4	93.1
2022-10-26T17:39	10	1	0.1	0	1	371	0.3	370	371	15.4	93.1
2022-10-26T17:40	10	1	0.1	0	1	371	0.2	371	371	15.5	93.1
2022-10-26T17:41	10	1	0.1	1	1	371	0.3	371	372	15.5	92.9
2022-10-26T17:42	10	1	0.1	0	1	371	0.3	371	372	15.4	92.9
2022-10-26T17:43	10	1	0.1	1	1	372	0.2	371	372	15.4	93.0
2022-10-26T17:44	10	1	0.1	1	1	372	0.2	371	372	15.4	93.1
2022-10-26T17:45	10	1	0.1	1	1	371	0.2	370	371	15.1	93.0
2022-10-26T17:46	10	1	0.0	1	1	370	0.3	370	371	15.0	93.8
2022-10-26T17:47	10	1	0.1	1	1	370	0.3	369	370	15.1	94.3
2022-10-26T17:48	10	1	0.1	1	1	369	0.2	369	370	14.9	94.3
2022-10-26T17:49	10	1	0.1	1	1	369	0.2	369	370	14.9	94.7
2022-10-26T17:50	10	1	0.1	1	1	369	0.3	369	370	14.9	95.0
2022-10-26T17:51	10	1	0.1	1	1	370	0.3	369	371	14.9	95.1
2022-10-26T17:52	10	1	0.1	1	1	371	0.5	369	372	15.1	95.2
2022-10-26T17:53	10	1	0.1	1	1	371	0.2	370	371	15.1	95.0
2022-10-26T17:54	10	1	0.1	1	1	371	0.3	370	371	15.2	94.9
2022-10-26T17:55	10	1	0.1	1	1	371	0.2	370	371	15.2	94.9
2022-10-26T17:56	10	1	0.1	0	1	371	0.2	370	371	15.3	94.7
2022-10-26T17:57	10	1	0.1	0	1	371	0.2	370	372	15.3	94.4
2022-10-26T17:58	10	0	0.1	0	1	371	0.2	370	371	15.4	94.3
2022-10-26T17:59	10	0	0.1	0	1	370	0.3	370	371	15.3	94.2
2022-10-26T18:00	10	0	0.1	0	0	370	0.3	370	371	15.2	94.2
2022-10-26T18:01	10	0	0.1	0	1	371	0.2	370	371	15.1	94.3
2022-10-26T18:02	10	0	0.1	0	0	371	0.4	370	372	15.1	94.5
2022-10-26T18:03	10	0	0.1	0	0	371	0.2	371	371	14.8	94.5
2022-10-26T18:04	10	0	0.1	0	0	371	0.4	371	372	14.7	95.1
2022-10-26T18:05	10	0	0.1	0	0	371	0.2	371	372	14.7	95.6
2022-10-26T18:06	10	0	0.1	0	0	371	0.2	371	372	14.8	95.7
2022-10-26T18:07	10	0	0.1	0	0	370	0.5	369	371	14.8	95.8
2022-10-26T18:08	10	0	0.1	0	0	369	0.3	368	370	14.4	95.4
2022-10-26T18:09	10	0	0.1	0	1	369	0.3	368	369	14.1	95.5
2022-10-26T18:10	10	0	0.1	0	0	368	0.3	368	369	14.1	96.2
2022-10-26T18:11	10	0	0.1	0	0	368	0.3	368	369	14.3	96.8
2022-10-26T18:12	10	0	0.1	0	1	368	0.3	368	369	14.6	97.1
2022-10-26T18:13	10	1	0.1	0	1	368	0.2	367	368	14.7	97.0
2022-10-26T18:14	10	0	0.1	0	1	367	0.3	366	368	14.5	96.7
2022-10-26T18:15	10	0	0.1	0	1	367	0.4	367	368	14.1	96.2
2022-10-26T18:16	10	0	0.1	0	1	368	0.2	367	368	14.4	96.7
2022-10-26T18:17	10	0	0.1	0	0	367	0.3	367	368	14.6	96.9
2022-10-26T18:18	10	0	0.1	0	0	367	0.3	367	368	14.6	96.9
2022-10-26T18:19	10	0	0.1	0	1	368	0.3	367	369	14.7	96.9
2022-10-26T18:20	10	0	0.1	0	1	368	0.2	368	369	14.8	96.9
2022-10-26T18:21	10	1	0.1	0	1	368	0.2	367	368	14.9	96.9
2022-10-26T18:22	10	1	0.1	0	1	368	0.2	367	368	14.8	96.8
2022-10-26T18:23	10	1	0.1	0	1	368	0.2	367	368	14.9	96.8
2022-10-26T18:24	10	1	0.1	1	1	368	0.2	367	368	14.9	96.7
2022-10-26T18:25	10	1	0.1	0	1	368	0.2	367	368	14.9	96.6
2022-10-26T18:26	10	1	0.1	1	1	368	0.3	367	368	14.9	96.5
2022-10-26T18:27	10	1	0.1	1	1	368	0.2	367	368	15.0	96.4
2022-10-26T18:28	10	1	0.1	1	1	368	0.2	367	368	15.0	96.3
2022-10-26T18:29	10	1	0.1	1	1	368	0.3	368	369	15.1	96.2
2022-10-26T18:30	10	1	0.1	1	1	368	0.2	368	369	15.2	96.0
2022-10-26T18:31	10	1	0.1	1	1	369	0.2	368	369	15.2	95.8
2022-10-26T18:32	10	1	0.1	1	1	368	0.2	368	369	15.2	95.6
2022-10-26T18:33	10	1	0.1	1	1	368	0.2	368	369	15.1	95.4
2022-10-26T18:34	10	1	0.1	1	1	368	0.2	367	369	14.8	95.4
2022-10-26T18:35	10	1	0.1	1	1	368	0.2	368	369	14.5	95.6
2022-10-26T18:36	10	1	0.1	0	1	368	0.3	368	369	14.3	95.9
2022-10-26T18:37	10	1	0.1	0	1	368	0.2	367	368	14.2	96.3
2022-10-26T18:38	10	1	0.1	0	1	367	0.2	367	368	14.2	96.8
2022-10-26T18:39	10	0	0.1	0	1	367	0.2	366	367	14.1	97.0
2022-10-26T18:40	10	0	0.1	0	1	367	0.3	366	367	14.2	97.3
2022-10-26T18:41	10	0	0.1	0	1	367	0.2	366	367	14.4	97.5
2022-10-26T18:42	10	1	0.1	0	1	367	0.2	366	367	14.3	97.5
2022-10-26T18:43	10	1	0.1	0	1	367	0.2	366	367	14.3	97.6
2022-10-26T18:44	10	1	0.1	1	1	366	0.2	366	367	14.4	97.6
2022-10-26T18:45	10	1	0.1	1	1	366	0.2	365	366	14.4	97.6
2022-10-26T18:46	10	1	0.1	1	1	366	0.2	365	366	14.5	97.6
2022-10-26T18:47	10	1	0.1	1	1	365	0.3	365	366	14.7	97.7
2022-10-26T18:48	10	1	0.1	1	1	366	0.3	365	367	14.8	97.6
2022-10-26T18:49	10	1	0.1	1	1	366	1.3	363	367	14.8	97.5
2022-10-26T18:50	10	1	0.1	0	1	366	0.3	365	366	13.7	96.7
2022-10-26T18:51	10	0	0.1	0	1	367	0.3	366	367	13.4	96.2
2022-10-26T18:52	10	0	0.1	0	0	367	0.2	367	368	13.6	96.7
2022-10-26T18:53	10	0	0.1	0	0	367	0.5	366	368	13.6	96.9
2022-10-26T18:54	10	0	0.1	-1	0	365	0.7	364	367	13.1	96.7
2022-10-26T18:55	10	0	0.1	-1	0	364	0.3	364	365	13.0	96.8
2022-10-26T18:56	10	0	0.1	-1	0	364	0.2	363	364	13.0	97.1
2022-10-26T18:57	10	0	0.1	-1	0	363	0.3	363	364	13.0	97.3
2022-10-26T18:58	10	0	0.2	-1	0	363	0.2	363	364	13.4	97.8
2022-10-26T18:59	10	0	0.2	0	1	363	0.3	362	364	13.6	98.2
2022-10-26T19:00	10	0	0.2	0	1	363	0.4	363	365	13.7	98.4
2022-10-26T19:01	10	0	0.1	0	1	364	0.6	363	365	13.6	98.5
2022-10-26T19:02	10	0	0.1	0	1	364	0.3	363	365	13.6	98.5
2022-10-26T19:03	10	0	0.2	0	1	364	0.3	363	365	13.6	98.5
2022-10-26T19:04	10	0	0.2	0	1	364	0.4	363	364	13.5	98.6
2022-10-26T19:05	10	0	0.1	0	1	364	0.4	363	365	13.5	98.6
2022-10-26T19:06	10	0	0.2	0	1	364	0.3	363	364	13.6	98.7
2022-10-26T19:07	10	0	0.2	0	1	363	0.5	362	365	13.5	98.8
2022-10-26T19:08	10	0	0.2	0	1	363	0.3	363	364	13.5	98.8
2022-10-26T19:09	10	0	0.2	0	1	363	0.3	362	364	13.4	98.8
2022-10-26T19:10	10	0	0.1	0	1	363	0.5	362	364	13.3	98.8
2022-10-26T19:11	10	0	0.1	0	1	364	0.3	363	364	13.3	98.8
2022-10-26T19:12	10	0	0.2	0	1	364	0.2	363	364	13.2	98.8
2022-10-26T19:13	10	0	0.1	0	1	363	0.3	363	364	13.1	98.8
2022-10-26T19:14	10	0	0.1	0	1	363	0.2	363	363	13.0	98.8
2022-10-26T19:15	10	0	0.1	0	1	363	0.3	363	364	12.9	98.9
2022-10-26T19:16	10	0	0.1	0	0	363	0.2	363	364	12.9	98.9
2022-10-26T19:17	10	0	0.1	0	1	363	0.2	363	364	13.0	99.0
2022-10-26T19:18	10	0	0.1	0	0	363	0.2	363	364	13.0	99.1
2022-10-26T19:19	10	0	0.0	0	0	363	0.3	363	364	13.1	99.2
2022-10-26T19:20	10	0	0.1	0	0	364	0.4	364	365	13.1	99.2
2022-10-26T19:21	10	0	0.1	0	0	365	0.2	364	365	13.1	99.2
2022-10-26T19:22	10	0	0.1	0	0	365	0.2	364	365	13.2	99.2
2022-10-26T19:23	10	0	0.1	0	0	365	0.2	364	365	13.3	99.2
2022-10-26T19:24	10	0	0.1	0	0	365	0.2	364	365	13.3	99.2
2022-10-26T19:25	10	0	0.1	0	1	365	0.2	364	365	13.4	99.2
2022-10-26T19:26	10	0	0.1	0	1	365	0.3	364	365	13.4	99.2
2022-10-26T19:27	10	0	0.1	0	1	365	0.2	364	365	13.4	99.2
2022-10-26T19:28	10	1	0.1	0	1	364	0.3	364	365	13.4	99.2
2022-10-26T19:29	10	1	0.1	0	1	364	0.2	364	365	13.4	99.2
2022-10-26T19:30	10	1	0.1	0	1	364	0.3	363	364	13.4	99.2
2022-10-26T19:31	10	1	0.1	0	1	364	0.2	363	364	13.4	99.2
2022-10-26T19:32	10	1	0.1	0	1	364	0.2	363	364	13.4	99.2
2022-10-26T19:33	10	1	0.1	0	1	363	0.2	363	364	13.4	99.2
2022-10-26T19:34	10	1	0.1	0	1	364	0.2	363	364	13.3	99.2
2022-10-26T19:35	10	1	0.1	0	1	363	0.3	363	364	13.3	99.2
2022-10-26T19:36	10	1	0.1	0	1	363	0.2	363	364	13.3	99.2
2022-10-26T19:37	10	0	0.1	0	1	363	0.3	363	364	13.3	99.2
2022-10-26T19:38	10	0	0.1	0	1	364	0.3	363	365	13.3	99.2
2022-10-26T19:39	10	0	0.1	0	0	365	0.4	364	366	13.4	99.2
2022-10-26T19:40	10	0	0.1	0	0	365	0.2	365	366	13.5	99.2
2022-10-26T19:41	10	0	0.1	0	0	365	0.2	365	366	13.5	99.2
2022-10-26T19:42	10	0	0.1	0	0	365	0.2	365	366	13.5	99.2
2022-10-26T19:43	10	0	0.1	0	0	365	0.2	365	366	13.6	99.2
2022-10-26T19:44	10	0	0.1	0	0	365	0.2	365	366	13.7	99.2
2022-10-26T19:45	10	0	0.1	0	0	365	0.3	365	366	13.8	99.2
2022-10-26T19:46	10	0	0.1	0	0	365	0.2	365	366	13.7	99.2
2022-10-26T19:47	10	0	0.1	0	1	365	0.2	364	366	13.5	99.2
2022-10-26T19:48	10	0	0.1	0	1	365	0.3	364	365	13.3	99.2
2022-10-26T19:49	10	0	0.1	0	1	364	0.3	364	365	13.3	99.2
2022-10-26T19:50	10	0	0.1	0	1	365	0.3	364	365	13.5	99.2
2022-10-26T19:51	10	0	0.1	0	1	364	0.2	364	365	13.6	99.2
2022-10-26T19:52	10	0	0.1	0	1	365	0.2	364	365	13.6	99.2
2022-10-26T19:53	10	0	0.1	0	1	365	0.2	364	365	13.7	99.2
2022-10-26T19:54	10	0	0.1	0	1	365	0.2	364	365	13.9	99.2
2022-10-26T19:55	10	0	0.1	0	1	365	0.2	364	365	13.9	99.2
2022-10-26T19:56	10	0	0.1	0	1	364	0.3	363	364	13.8	99.2
2022-10-26T19:57	10	1	0.1	0	1	364	0.2	363	364	13.7	99.2
2022-10-26T19:58	10	1	0.1	0	1	364	0.3	363	364	13.7	99.2
2022-10-26T19:59	10	1	0.1	0	1	363	0.3	363	364	13.7	99.2
2022-10-26T20:00	10	1	0.1	0	1	363	0.2	362	364	13.6	99.2
2022-10-26T20:01	10	1	0.1	0	1	363	0.6	362	364	13.6	99.2
2022-10-26T20:02	10	1	0.1	0	1	363	0.3	362	364	13.2	99.2
2022-10-26T20:03	10	0	0.1	0	1	363	0.4	362	364	13.2	99.2
2022-10-26T20:04	10	0	0.1	0	1	362	0.3	362	363	13.1	99.2
2022-10-26T20:05	10	0	0.1	0	0	362	0.3	362	363	13.1	99.2
2022-10-26T20:06	10	0	0.1	0	0	363	0.3	362	363	13.1	99.2
2022-10-26T20:07	10	0	0.1	0	0	362	0.3	362	363	13.0	99.2
2022-10-26T20:08	10	0	0.1	0	0	363	0.3	362	364	13.0	99.2
2022-10-26T20:09	10	0	0.1	0	0	363	0.5	363	364	12.9	99.2
2022-10-26T20:10	10	0	0.1	0	0	363	0.3	363	364	12.8	99.2
2022-10-26T20:11	10	0	0.1	-1	0	364	0.4	363	364	12.8	99.2
2022-10-26T20:12	10	0	0.1	-1	0	364	0.5	363	365	12.7	99.2
2022-10-26T20:13	10	0	0.1	-1	0	364	0.7	363	365	12.6	99.2
2022-10-26T20:14	10	0	0.1	-1	0	365	0.2	364	365	12.6	99.2
2022-10-26T20:15	10	0	0.1	-1	0	365	0.2	364	366	12.5	99.2
2022-10-26T20:16	10	-1	0.1	-1	0	366	0.4	365	366	12.3	99.2
2022-10-26T20:17	10	-1	0.1	-1	0	366	0.4	365	367	12.2	99.2
2022-10-26T20:18	10	-1	0.1	-1	-1	366	0.2	365	366	12.4	99.2
2022-10-26T20:19	10	-1	0.1	-1	-1	365	0.3	365	366	12.4	99.2
2022-10-26T20:20	10	-1	0.1	-1	-1	365	0.2	364	365	12.5	99.2
2022-10-26T20:21	10	-1	0.1	-1	-1	365	0.3	364	366	12.6	99.2
2022-10-26T20:22	10	-1	0.1	-1	-1	365	0.2	365	366	12.8	99.2
2022-10-26T20:23	10	-1	0.1	-1	-1	365	0.4	364	366	12.7	99.2
2022-10-26T20:24	10	-1	0.1	-1	0	365	0.3	364	365	12.7	99.2
2022-10-26T20:25	10	-1	0.1	-1	0	364	0.2	364	365	12.8	99.2
2022-10-26T20:26	10	-1	0.1	-1	0	365	0.3	364	365	12.8	99.2
2022-10-26T20:27	10	-1	0.1	-1	0	365	0.4	365	366	12.7	99.2
2022-10-26T20:28	10	-1	0.1	-1	-1	367	0.5	366	367	12.7	99.2
2022-10-26T20:29	10	-1	0.1	-1	-1	368	0.5	367	368	12.9	99.2
2022-10-26T20:30	10	-1	0.1	-1	-1	367	0.3	367	368	12.9	99.2
2022-10-26T20:31	10	-1	0.1	-1	0	367	0.3	367	368	12.8	99.2
2022-10-26T20:32	10	-1	0.1	-1	0	367	0.3	366	368	12.9	99.2
2022-10-26T20:33	10	-1	0.1	-1	0	366	0.4	365	367	13.0	99.2
2022-10-26T20:34	10	0	0.1	-1	0	366	0.3	366	367	12.9	99.2
2022-10-26T20:35	10	0	0.1	-1	0	365	0.6	364	366	12.9	99.2
2022-10-26T20:36	10	0	0.1	0	0	365	0.3	364	366	12.8	99.2
2022-10-26T20:37	10	0	0.1	0	0	365	0.5	364	366	12.9	99.2
2022-10-26T20:38	10	0	0.1	0	0	365	0.3	364	365	12.8	99.2
2022-10-26T20:39	10	0	0.1	0	0	365	0.2	364	365	12.9	99.2
2022-10-26T20:40	10	0	0.1	0	0	365	0.3	364	365	12.7	99.2
2022-10-26T20:41	10	0	0.1	0	0	365	0.3	364	365	12.7	99.2
2022-10-26T20:42	10	0	0.1	0	0	365	0.2	364	366	12.7	99.2
2022-10-26T20:43	10	0	0.1	0	0	364	0.5	364	365	12.6	99.2
2022-10-26T20:44	10	0	0.0	0	0	364	0.4	363	365	12.5	99.2
2022-10-26T20:45	10	0	0.1	0	0	364	0.3	363	364	12.6	99.2
2022-10-26T20:46	10	0	0.1	0	0	364	0.6	363	365	12.5	99.2
2022-10-26T20:47	10	0	0.1	0	0	364	0.3	363	365	12.6	99.2
2022-10-26T20:48	10	0	0.1	0	0	364	0.4	363	365	12.6	99.2
2022-10-26T20:49	10	0	0.1	0	0	364	0.3	364	365	12.6	99.2
2022-10-26T20:50	10	0	0.1	0	0	364	0.3	363	365	12.6	99.2
2022-10-26T20:51	10	0	0.1	0	0	364	0.3	364	365	12.7	99.2
2022-10-26T20:52	10	0	0.1	0	0	364	0.2	363	365	12.6	99.2
2022-10-26T20:53	10	0	0.1	0	0	364	0.2	363	364	12.6	99.2
2022-10-26T20:54	10	0	0.1	0	0	363	0.2	363	364	12.5	99.2
2022-10-26T20:55	10	0	0.1	0	0	363	0.3	363	364	12.4	99.2
2022-10-26T20:56	10	0	0.1	0	0	363	0.2	363	364	12.4	99.2
2022-10-26T20:57	10	0	0.1	0	0	362	0.2	362	363	12.3	99.2
2022-10-26T20:58	10	0	0.1	0	0	362	0.2	362	363	12.2	99.2
2022-10-26T20:59	10	0	0.1	0	0	363	0.2	362	363	12.3	99.2
2022-10-26T21:00	10	0	0.1	0	0	363	0.2	362	363	12.4	99.2
2022-10-26T21:01	10	0	0.1	0	0	363	0.3	362	363	12.4	99.2
2022-10-26T21:02	10	0	0.1	0	0	363	0.3	362	363	12.4	99.2
2022-10-26T21:03	10	0	0.1	-1	0	363	0.2	362	363	12.2	99.2
2022-10-26T21:04	10	0	0.1	-1	0	363	0.3	362	363	12.3	99.2
2022-10-26T21:05	10	0	0.1	-1	0	363	0.3	362	364	12.4	99.2
2022-10-26T21:06	10	0	0.1	-1	0	363	0.2	362	363	12.3	99.2
2022-10-26T21:07	10	0	0.1	0	0	363	0.2	363	364	12.3	99.2
2022-10-26T21:08	10	0	0.1	0	0	363	0.3	363	364	12.5	99.2
2022-10-26T21:09	10	0	0.1	0	0	364	0.3	363	364	12.6	99.2
2022-10-26T21:10	10	0	0.1	0	0	363	0.3	363	364	12.7	99.2
2022-10-26T21:11	10	0	0.1	0	0	363	0.2	363	364	12.7	99.2
2022-10-26T21:12	10	0	0.1	0	0	363	0.3	363	364	12.9	99.2
2022-10-26T21:13	10	0	0.0	0	0	363	0.2	363	364	13.0	99.2
2022-10-26T21:14	10	0	0.1	0	0	363	0.2	363	364	13.0	99.2
2022-10-26T21:15	10	0	0.1	0	0	363	0.4	362	364	12.9	99.2
2022-10-26T21:16	10	0	0.1	0	0	362	0.2	362	363	12.7	99.2
2022-10-26T21:17	10	0	0.1	0	0	362	0.3	361	363	12.8	99.2
2022-10-26T21:18	10	0	0.1	0	0	362	0.3	361	362	12.7	99.2
2022-10-26T21:19	10	0	0.1	0	0	361	0.3	361	362	12.6	99.2
2022-10-26T21:20	10	0	0.1	0	0	361	0.3	360	361	12.5	99.2
2022-10-26T21:21	10	0	0.0	0	0	360	0.2	360	361	12.3	99.2
2022-10-26T21:22	10	0	0.1	0	0	360	0.3	359	360	12.3	99.2
2022-10-26T21:23	10	0	0.1	0	0	360	0.2	359	360	12.2	99.2
2022-10-26T21:24	10	0	0.0	0	0	360	0.2	359	360	12.1	99.2
2022-10-26T21:25	10	0	0.1	0	0	360	0.3	359	360	12.0	99.2
2022-10-26T21:26	10	0	0.1	0	0	360	0.2	359	360	12.1	99.2
2022-10-26T21:27	10	0	0.1	0	0	359	0.3	359	360	12.1	99.2
2022-10-26T21:28	10	0	0.1	0	0	359	0.2	359	360	12.1	99.2
2022-10-26T21:29	10	0	0.1	0	0	359	0.4	359	360	12.2	99.2
2022-10-26T21:30	10	0	0.1	0	0	360	0.3	359	360	12.2	99.2
2022-10-26T21:31	10	0	0.1	0	0	359	0.2	359	360	12.1	99.2
2022-10-26T21:32	10	0	0.1	0	0	359	0.2	359	359	12.1	99.2
2022-10-26T21:33	10	0	0.1	0	0	359	0.2	359	359	12.1	99.2
2022-10-26T21:34	10	0	0.1	0	0	359	0.2	359	359	12.1	99.2
2022-10-26T21:35	10	0	0.1	0	0	359	0.2	359	359	12.0	99.2
2022-10-26T21:36	10	0	0.1	0	0	360	0.6	359	361	11.9	99.2
2022-10-26T21:37	10	0	0.1	0	0	361	0.3	361	362	11.9	99.2
2022-10-26T21:38	10	0	0.1	0	0	362	0.3	361	362	11.9	99.2
2022-10-26T21:39	10	0	0.1	-1	0	362	0.2	362	363	11.9	99.2
2022-10-26T21:40	10	-1	0.1	-1	0	362	0.3	361	363	11.9	99.2
2022-10-26T21:41	10	-1	0.1	-1	-1	362	0.2	361	362	12.0	99.2
2022-10-26T21:42	10	-1	0.2	-2	-1	362	0.3	361	363	12.0	99.2
2022-10-26T21:43	10	-1	0.1	-2	-1	363	0.6	362	364	12.1	99.2
2022-10-26T21:44	10	-1	0.1	-2	-1	364	0.5	363	365	12.1	99.2
2022-10-26T21:45	10	-1	0.1	-2	-1	365	0.3	364	365	12.1	99.2
2022-10-26T21:46	10	-1	0.2	-2	-1	365	0.3	364	365	12.2	99.2
2022-10-26T21:47	10	-1	0.1	-1	-1	365	0.2	364	365	12.2	99.2
2022-10-26T21:48	10	-1	0.1	-2	-1	364	0.2	364	365	12.2	99.2
2022-10-26T21:49	10	-1	0.1	-1	-1	364	0.3	363	364	12.1	99.2
2022-10-26T21:50	10	-1	0.1	-2	-1	364	0.3	363	364	12.1	99.2
2022-10-26T21:51	10	-1	0.1	-2	-1	364	0.2	363	364	12.2	99.2
2022-10-26T21:52	10	-1	0.1	-1	-1	364	0.3	363	364	12.2	99.2
2022-10-26T21:53	10	-1	0.1	-2	-1	364	0.4	363	365	12.3	99.2
2022-10-26T21:54	10	-1	0.1	-2	-1	365	0.3	364	365	12.3	99.2
2022-10-26T21:55	10	-1	0.1	-1	-1	365	0.2	364	365	12.2	99.2
2022-10-26T21:56	10	-1	0.2	-2	-1	365	0.3	364	366	12.2	99.2
2022-10-26T21:57	10	-1	0.1	-2	-1	365	0.3	364	365	12.2	99.2
2022-10-26T21:58	10	-1	0.1	-2	-1	365	0.2	364	365	12.2	99.2
2022-10-26T21:59	10	-1	0.1	-2	-1	364	0.2	364	365	12.1	99.2
2022-10-26T22:00	10	-1	0.1	-2	-1	364	0.3	364	365	12.1	99.2
2022-10-26T22:01	10	-1	0.2	-2	-1	365	0.3	364	365	12.2	99.2
2022-10-26T22:02	10	-1	0.1	-2	-1	365	0.3	365	366	12.3	99.2
2022-10-26T22:03	10	-1	0.2	-2	-1	365	0.3	365	366	12.3	99.2
2022-10-26T22:04	10	-1	0.1	-2	-1	365	0.3	365	366	12.3	99.2
2022-10-26T22:05	10	-1	0.1	-2	-1	366	0.3	365	366	12.4	99.2
2022-10-26T22:06	10	-1	0.1	-1	-1	365	0.3	364	366	12.2	99.2
2022-10-26T22:07	10	-1	0.1	-1	-1	365	0.3	364	365	12.0	99.2
2022-10-26T22:08	10	-1	0.2	-1	-1	365	0.3	364	365	12.0	99.2
2022-10-26T22:09	10	-1	0.1	-1	-1	365	0.2	365	366	12.2	99.2
2022-10-26T22:10	10	-1	0.1	-1	-1	365	0.3	364	365	12.1	99.2
2022-10-26T22:11	10	-1	0.1	-1	0	365	0.2	364	365	12.2	99.2
2022-10-26T22:12	10	-1	0.1	-1	0	365	0.2	364	365	12.3	99.2
2022-10-26T22:13	10	0	0.1	-1	0	365	0.2	364	365	12.2	99.2
2022-10-26T22:14	10	0	0.2	-1	0	365	0.2	364	365	12.2	99.2
2022-10-26T22:15	10	0	0.1	-1	0	365	0.3	364	365	12.3	99.2
2022-10-26T22:16	10	0	0.1	-1	0	364	0.3	364	365	12.4	99.2
2022-10-26T22:17	10	0	0.2	-1	0	365	0.2	364	366	12.5	99.2
2022-10-26T22:18	10	-1	0.1	-1	0	365	0.3	365	366	12.6	99.2
2022-10-26T22:19	10	-1	0.1	-1	0	365	0.3	364	366	12.6	99.2
2022-10-26T22:20	10	-1	0.1	-1	0	365	0.3	365	366	12.5	99.2
2022-10-26T22:21	10	-1	0.1	-1	0	365	0.3	364	366	12.6	99.2
2022-10-26T22:22	10	-1	0.1	-1	0	365	0.3	364	366	12.5	99.2
2022-10-26T22:23	10	-1	0.1	-1	0	365	0.3	364	365	12.6	99.2
2022-10-26T22:24	10	-1	0.1	-1	0	365	0.4	364	366	12.6	99.2
2022-10-26T22:25	10	-1	0.1	-1	0	365	0.3	364	366	12.5	99.2
2022-10-26T22:26	10	-1	0.1	-1	0	365	0.3	364	366	12.6	99.2
2022-10-26T22:27	10	-1	0.1	-1	-1	365	0.3	364	366	12.7	99.2
2022-10-26T22:28	10	-1	0.1	-1	0	365	0.5	364	367	12.6	99.2
2022-10-26T22:29	10	-1	0.1	-1	-1	367	0.4	366	367	12.6	99.2
2022-10-26T22:30	10	-1	0.1	-1	0	368	0.3	367	368	12.5	99.2
2022-10-26T22:31	10	-1	0.1	-1	-1	368	0.3	367	369	12.5	99.2
2022-10-26T22:32	10	-1	0.1	-1	0	368	0.2	368	369	12.6	99.2
2022-10-26T22:33	10	-1	0.1	-1	0	368	0.3	368	369	12.5	99.2
2022-10-26T22:34	10	-1	0.1	-1	0	368	0.3	367	369	12.5	99.2
2022-10-26T22:35	10	-1	0.1	-1	0	368	0.3	367	369	12.6	99.2
2022-10-26T22:36	10	0	0.2	-1	0	368	0.2	368	369	12.6	99.2
2022-10-26T22:37	10	0	0.1	-1	0	368	0.4	367	368	12.5	99.2
2022-10-26T22:38	10	0	0.1	-1	0	368	0.4	367	369	12.5	99.2
2022-10-26T22:39	10	0	0.1	0	0	367	0.3	367	368	12.5	99.2
2022-10-26T22:40	10	0	0.1	0	0	367	0.4	366	368	12.5	99.2
2022-10-26T22:41	10	0	0.2	0	1	367	0.4	366	368	12.4	99.2
2022-10-26T22:42	10	0	0.1	0	1	367	0.3	366	368	12.4	99.2
2022-10-26T22:43	10	0	0.1	0	0	367	0.5	367	369	12.5	99.2
2022-10-26T22:44	10	0	0.1	0	0	368	0.4	367	368	12.5	99.2
2022-10-26T22:45	10	0	0.1	0	1	367	0.2	367	368	12.5	99.2
2022-10-26T22:46	10	0	0.1	0	1	367	0.3	367	368	12.4	99.2
2022-10-26T22:47	10	0	0.1	0	1	367	0.2	367	368	12.3	99.2
2022-10-26T22:48	10	0	0.1	0	1	367	0.2	366	367	12.3	99.2
2022-10-26T22:49	10	0	0.1	0	1	367	0.2	366	368	12.3	99.2
2022-10-26T22:50	10	0	0.2	0	1	367	0.2	366	367	12.3	99.2
2022-10-26T22:51	10	0	0.1	0	1	367	0.3	366	367	12.3	99.2
2022-10-26T22:52	10	0	0.1	0	1	367	0.2	367	368	12.3	99.2
2022-10-26T22:53	10	0	0.1	0	1	367	0.2	367	368	12.4	99.2
2022-10-26T22:54	10	0	0.2	0	1	367	0.4	366	368	12.4	99.1
2022-10-26T22:55	10	0	0.2	0	0	367	0.5	366	368	12.2	99.0
2022-10-26T22:56	10	0	0.1	-1	0	367	0.4	366	368	12.1	99.0
2022-10-26T22:57	10	0	0.2	-1	0	367	0.3	366	367	12.1	98.9
2022-10-26T22:58	10	-1	0.1	-1	0	366	0.2	366	367	12.1	98.9
2022-10-26T22:59	10	-1	0.1	-1	0	366	0.3	366	367	12.1	98.8
2022-10-26T23:00	10	-1	0.2	-1	0	366	0.4	365	367	11.9	98.8
2022-10-26T23:01	10	-1	0.1	-1	0	366	0.2	366	367	11.8	98.7
2022-10-26T23:02	10	-1	0.1	-1	0	366	0.3	366	367	11.9	98.7
2022-10-26T23:03	10	0	0.1	-1	0	367	0.2	366	367	11.9	98.7
2022-10-26T23:04	10	0	0.2	-1	0	367	0.2	366	368	11.8	98.7
2022-10-26T23:05	10	0	0.1	0	0	368	0.3	367	369	11.8	98.8
2022-10-26T23:06	10	0	0.1	0	0	368	0.2	368	368	11.9	98.8
2022-10-26T23:07	10	0	0.1	0	0	368	0.3	367	369	11.9	98.9
2022-10-26T23:08	10	0	0.1	0	0	368	0.2	368	368	11.8	98.9
2022-10-26T23:09	10	0	0.1	0	1	368	0.2	367	368	11.8	98.9
2022-10-26T23:10	10	0	0.1	0	0	368	0.2	368	369	11.8	98.9
2022-10-26T23:11	10	0	0.1	0	0	369	0.2	368	369	11.9	99.0
2022-10-26T23:12	10	0	0.1	0	1	369	0.2	368	369	11.8	99.0
2022-10-26T23:13	10	0	0.1	0	0	369	0.3	368	370	11.8	99.0
2022-10-26T23:14	10	0	0.1	0	0	369	0.2	369	370	11.8	99.0
2022-10-26T23:15	10	0	0.1	-1	0	370	0.3	369	371	11.8	99.1
2022-10-26T23:16	10	-1	0.2	-1	0	370	0.3	370	371	11.9	99.2
2022-10-26T23:17	10	-1	0.1	-1	0	370	0.2	370	371	12.0	99.2
2022-10-26T23:18	10	-1	0.1	-1	-1	371	0.2	370	371	12.0	99.2
2022-10-26T23:19	10	-1	0.1	-1	-1	371	0.3	370	372	12.1	99.2
2022-10-26T23:20	10	-1	0.1	-1	-1	371	0.4	370	372	12.2	99.2
2022-10-26T23:21	10	-1	0.1	-1	-1	371	0.3	371	372	12.1	99.2
2022-10-26T23:22	10	-1	0.2	-1	0	372	0.2	371	372	12.3	99.2
2022-10-26T23:23	10	-1	0.1	-1	-1	372	0.2	371	372	12.2	99.2
2022-10-26T23:24	10	-1	0.1	-1	-1	372	0.2	372	372	12.3	99.2
2022-10-26T23:25	10	-1	0.1	-1	-1	372	0.3	372	373	12.3	99.2
2022-10-26T23:26	10	-1	0.1	-1	-1	373	0.2	372	373	12.3	99.2
2022-10-26T23:27	10	-1	0.1	-1	-1	373	0.3	372	373	12.3	99.1
2022-10-26T23:28	10	-1	0.2	-1	0	373	0.3	372	373	12.3	99.1
2022-10-26T23:29	10	0	0.1	-1	0	373	0.2	372	373	12.3	99.0
2022-10-26T23:30	10	0	0.1	0	0	373	0.2	372	373	12.5	99.0
2022-10-26T23:31	10	0	0.1	0	0	373	0.2	373	374	12.6	98.9
2022-10-26T23:32	10	0	0.1	0	0	373	0.2	373	374	12.5	98.7
2022-10-26T23:33	10	0	0.1	0	0	374	0.3	373	374	12.6	98.6
2022-10-26T23:34	10	0	0.1	0	0	374	0.2	374	374	12.8	98.5
2022-10-26T23:35	10	0	0.1	0	1	374	0.2	373	374	12.6	98.2
2022-10-26T23:36	10	0	0.1	0	1	374	0.3	373	374	12.4	98.0
2022-10-26T23:37	10	0	0.1	0	1	374	0.3	373	374	12.4	97.9
2022-10-26T23:38	10	0	0.1	0	1	374	0.2	374	375	12.5	98.1
2022-10-26T23:39	10	0	0.1	0	1	374	0.3	374	375	12.7	98.1
2022-10-26T23:40	10	0	0.1	0	1	375	0.2	374	375	12.8	98.1
2022-10-26T23:41	10	0	0.1	0	1	375	0.2	374	375	12.9	98.0
2022-10-26T23:42	10	1	0.2	0	1	374	0.5	373	375	12.7	97.8
2022-10-26T23:43	10	1	0.1	0	1	374	0.3	374	375	12.3	97.4
2022-10-26T23:44	10	1	0.1	0	1	375	0.3	374	376	12.6	97.6
2022-10-26T23:45	10	1	0.1	0	1	375	0.2	374	375	12.5	97.7
2022-10-26T23:46	10	1	0.2	0	1	375	0.3	374	376	12.4	97.6
2022-10-26T23:47	10	1	0.2	0	1	375	0.3	374	375	12.4	97.6
2022-10-26T23:48	10	1	0.1	0	1	374	0.3	374	375	12.4	97.6
2022-10-26T23:49	10	1	0.2	0	1	374	0.6	373	375	12.3	97.6
2022-10-26T23:50	10	1	0.1	1	1	374	0.3	374	375	12.4	97.7
2022-10-26T23:51	10	1	0.1	0	1	374	0.3	374	375	12.4	97.8
2022-10-26T23:52	10	0	0.1	0	1	374	0.2	374	375	12.3	97.8
2022-10-26T23:53	10	0	0.1	0	0	374	0.2	374	375	12.3	97.8
2022-10-26T23:54	10	0	0.1	0	0	374	0.2	374	375	12.3	97.8
2022-10-26T23:55	10	0	0.1	-1	0	374	0.3	374	375	12.2	97.8
2022-10-26T23:56	10	0	0.1	-1	0	374	0.4	373	375	12.2	97.8
2022-10-26T23:57	10	0	0.1	-1	0	374	0.2	374	374	12.1	97.8
2022-10-26T23:58	10	0	0.1	-1	0	374	0.4	373	374	12.1	97.9
2022-10-26T23:59	10	0	0.1	0	0	373	0.3	373	374	12.1	97.9
2022-10-27T00:00	10	0	0.1	0	0	374	0.5	372	374	12.1	98.0
2022-10-27T00:01	10	0	0.1	0	0	373	0.2	373	374	12.1	98.0
2022-10-27T00:02	10	0	0.1	0	0	373	0.3	372	374	12.1	98.0
2022-10-27T00:03	10	0	0.2	-1	0	373	0.3	372	374	12.0	98.1
2022-10-27T00:04	10	0	0.2	-1	0	373	0.3	372	374	12.0	98.1
2022-10-27T00:05	10	-1	0.1	-1	0	373	0.2	372	373	11.9	98.1
2022-10-27T00:06	10	-1	0.1	-1	0	372	0.3	372	373	11.9	98.2
2022-10-27T00:07	10	-1	0.1	-1	-1	372	0.3	372	373	11.9	98.3
2022-10-27T00:08	10	-1	0.1	-1	0	372	0.3	372	373	12.0	98.4
2022-10-27T00:09	10	-1	0.1	-1	0	373	0.3	372	373	12.1	98.6
2022-10-27T00:10	10	-1	0.2	-1	0	373	0.3	372	373	12.1	98.7
2022-10-27T00:11	10	-1	0.2	-1	0	373	0.3	372	374	12.1	98.7
2022-10-27T00:12	10	-1	0.1	-1	-1	373	0.3	372	374	12.2	98.7
2022-10-27T00:13	10	-1	0.2	-1	0	373	0.3	373	374	12.3	98.8
2022-10-27T00:14	10	-1	0.1	-1	0	373	0.2	373	374	12.3	98.8
2022-10-27T00:15	10	-1	0.1	-1	-1	373	0.3	373	374	12.3	98.9
2022-10-27T00:16	10	-1	0.2	-1	0	373	0.2	372	374	12.4	98.9
2022-10-27T00:17	10	-1	0.1	-1	-1	373	0.3	372	374	12.4	98.9
2022-10-27T00:18	10	-1	0.1	-1	0	373	0.2	372	374	12.3	98.9
2022-10-27T00:19	10	-1	0.1	-1	0	373	0.3	372	373	12.4	98.9
2022-10-27T00:20	10	-1	0.2	-1	0	372	0.2	371	373	12.5	98.9
2022-10-27T00:21	10	-1	0.1	-1	-1	372	0.4	371	373	12.5	98.9
2022-10-27T00:22	10	-1	0.1	-1	-1	371	0.3	371	372	12.3	98.8
2022-10-27T00:23	10	-1	0.1	-1	0	371	0.3	371	372	12.3	98.7
2022-10-27T00:24	10	-1	0.1	-1	-1	371	0.3	370	371	12.4	98.8
2022-10-27T00:25	10	-1	0.1	-1	0	371	0.3	370	371	12.4	98.8
2022-10-27T00:26	10	-1	0.1	-1	-1	370	0.3	370	371	12.4	98.7
2022-10-27T00:27	10	-1	0.1	-1	0	369	0.4	369	370	12.4	98.7
2022-10-27T00:28	10	-1	0.2	-1	0	369	0.3	368	369	12.4	98.6
2022-10-27T00:29	10	-1	0.1	-1	0	369	0.3	368	369	12.3	98.6
2022-10-27T00:30	10	-1	0.2	-1	0	368	0.3	367	369	12.4	98.6
2022-10-27T00:31	10	-1	0.1	-1	0	368	0.2	368	369	12.4	98.6
2022-10-27T00:32	10	-1	0.1	-1	0	368	0.2	367	368	12.3	98.5
2022-10-27T00:33	10	-1	0.1	-1	0	368	0.3	367	368	12.3	98.5
2022-10-27T00:34	10	-1	0.1	-1	0	367	0.3	367	368	12.3	98.5
2022-10-27T00:35	10	-1	0.1	-1	0	367	0.3	367	368	12.3	98.5
2022-10-27T00:36	10	-1	0.1	-1	0	367	0.2	367	368	12.2	98.4
2022-10-27T00:37	10	-1	0.1	-1	0	367	0.2	367	368	12.2	98.4
2022-10-27T00:38	10	-1	0.2	-1	0	368	0.3	367	368	12.2	98.4
2022-10-27T00:39	10	-1	0.1	-1	0	367	0.2	367	368	12.2	98.5
2022-10-27T00:40	10	-1	0.1	-1	0	367	0.3	367	368	12.2	98.5
2022-10-27T00:41	10	0	0.1	-1	0	367	0.3	366	368	12.3	98.5
2022-10-27T00:42	10	0	0.1	-1	0	366	0.3	365	367	12.3	98.5
2022-10-27T00:43	10	0	0.1	0	0	365	0.2	365	366	12.3	98.5
2022-10-27T00:44	10	0	0.1	-1	0	365	0.3	364	365	12.3	98.4
2022-10-27T00:45	10	0	0.1	0	0	364	0.4	364	365	12.1	98.3
2022-10-27T00:46	10	0	0.1	0	0	364	0.4	363	365	12.1	98.3
2022-10-27T00:47	10	0	0.1	-1	0	364	0.2	364	364	12.0	98.3
2022-10-27T00:48	10	0	0.1	-1	0	363	0.2	363	364	11.9	98.3
2022-10-27T00:49	10	0	0.1	-1	0	363	0.2	362	363	11.9	98.3
2022-10-27T00:50	10	0	0.1	0	0	363	0.2	362	363	12.0	98.4
2022-10-27T00:51	10	0	0.1	0	1	362	0.2	362	363	12.0	98.4
2022-10-27T00:52	10	0	0.2	0	1	362	0.3	361	362	12.0	98.5
2022-10-27T00:53	10	0	0.2	0	1	362	0.3	361	362	11.9	98.5
2022-10-27T00:54	10	0	0.2	0	1	361	0.3	360	362	11.8	98.4
2022-10-27T00:55	10	0	0.1	0	1	361	0.4	360	361	11.8	98.4
2022-10-27T00:56	10	0	0.1	0	0	360	0.2	360	361	11.8	98.5
2022-10-27T00:57	10	0	0.1	0	0	360	0.3	360	361	11.8	98.6
2022-10-27T00:58	10	0	0.1	0	1	360	0.3	359	361	11.8	98.6
2022-10-27T00:59	10	0	0.1	0	1	360	0.3	359	361	11.8	98.7
2022-10-27T01:00	10	0	0.1	0	1	359	0.2	359	360	11.7	98.7
2022-10-27T01:01	10	0	0.1	0	0	359	0.3	359	360	11.7	98.7
2022-10-27T01:02	10	0	0.1	0	0	359	0.2	358	359	11.6	98.7
2022-10-27T01:03	10	0	0.1	0	0	359	0.2	358	359	11.6	98.8
2022-10-27T01:04	10	0	0.1	0	0	359	0.2	358	359	11.6	98.8
2022-10-27T01:05	10	0	0.1	0	1	359	0.2	358	359	11.6	98.8
2022-10-27T01:06	10	0	0.1	0	0	359	0.2	358	359	11.5	98.9
2022-10-27T01:07	10	0	0.1	0	0	359	0.3	358	360	11.6	98.9
2022-10-27T01:08	10	0	0.1	0	0	359	0.3	358	360	11.6	98.9
2022-10-27T01:09	10	0	0.1	0	0	360	0.3	359	360	11.6	99.0
2022-10-27T01:10	10	0	0.1	0	0	360	0.4	359	361	11.6	99.1
2022-10-27T01:11	10	0	0.1	0	0	361	0.2	360	361	11.6	99.1
2022-10-27T01:12	10	0	0.1	0	0	360	0.3	360	361	11.5	99.1
2022-10-27T01:13	10	0	0.1	-1	0	360	0.2	360	361	11.4	99.1
2022-10-27T01:14	10	-1	0.1	-1	0	361	0.2	360	361	11.4	99.1
2022-10-27T01:15	10	-1	0.1	-1	0	361	0.2	360	361	11.4	99.2
2022-10-27T01:16	10	-1	0.1	-1	-1	360	0.2	360	361	11.3	99.2
2022-10-27T01:17	10	-1	0.1	-1	-1	360	0.2	360	361	11.3	99.2
2022-10-27T01:18	10	-1	0.1	-1	-1	360	0.2	360	360	11.3	99.2
2022-10-27T01:19	10	-1	0.1	-1	-1	360	0.3	360	361	11.3	99.2
2022-10-27T01:20	10	-1	0.1	-1	-1	361	0.2	360	361	11.4	99.2
2022-10-27T01:21	10	-1	0.1	-1	0	361	0.3	360	361	11.4	99.2
2022-10-27T01:22	10	-1	0.1	-1	0	361	0.3	360	361	11.4	99.2
2022-10-27T01:23	10	0	0.1	-1	0	361	0.2	361	362	11.4	99.2
2022-10-27T01:24	10	0	0.1	0	0	362	0.2	361	362	11.4	99.2
2022-10-27T01:25	10	0	0.1	0	0	362	0.3	361	363	11.4	99.2
2022-10-27T01:26	10	0	0.1	0	0	362	0.3	362	363	11.4	99.2
2022-10-27T01:27	10	0	0.1	0	0	362	0.2	362	363	11.3	99.2
2022-10-27T01:28	10	0	0.1	0	0	362	0.2	362	363	11.3	99.2
2022-10-27T01:29	10	0	0.1	0	0	362	0.3	362	363	11.3	99.2
2022-10-27T01:30	10	0	0.1	0	0	362	0.2	362	362	11.2	99.2
2022-10-27T01:31	10	0	0.0	0	0	362	0.2	361	362	11.3	99.2
2022-10-27T01:32	10	0	0.1	0	0	362	0.3	361	362	11.3	99.2
2022-10-27T01:33	10	0	0.1	0	0	361	0.3	360	361	11.3	99.2
2022-10-27T01:34	10	0	0.1	0	0	360	0.3	359	361	11.3	99.2
2022-10-27T01:35	10	0	0.1	0	0	360	0.2	359	360	11.4	99.2
2022-10-27T01:36	10	0	0.1	0	0	359	0.2	359	360	11.4	99.2
2022-10-27T01:37	10	0	0.1	0	0	359	0.3	358	359	11.3	99.2
2022-10-27T01:38	10	0	0.1	0	0	358	0.2	357	358	11.3	99.2
2022-10-27T01:39	10	0	0.1	0	0	358	0.3	357	358	11.4	99.2
2022-10-27T01:40	10	0	0.1	0	0	358	0.3	357	358	11.6	99.2
2022-10-27T01:41	10	0	0.1	0	0	359	0.3	358	359	11.8	99.2
2022-10-27T01:42	10	0	0.1	0	0	359	0.3	358	360	11.9	99.2
2022-10-27T01:43	10	0	0.1	-1	0	359	0.2	359	360	11.9	99.2
2022-10-27T01:44	10	-1	0.1	-1	0	359	0.2	359	360	11.9	99.2
2022-10-27T01:45	10	-1	0.1	-1	-1	359	0.3	359	360	11.9	99.2
2022-10-27T01:46	10	-1	0.1	-1	-1	359	0.3	358	359	11.7	99.2
2022-10-27T01:47	10	-1	0.1	-1	-1	358	0.2	358	359	11.4	99.2
2022-10-27T01:48	10	-1	0.1	-1	-1	358	0.3	357	358	11.5	99.2
2022-10-27T01:49	10	-1	0.1	-1	-1	358	0.2	357	358	11.5	99.2
2022-10-27T01:50	10	-1	0.1	-1	-1	358	0.2	357	358	11.5	99.2
2022-10-27T01:51	10	-1	0.1	-1	-1	358	0.3	357	359	11.6	99.2
2022-10-27T01:52	10	-1	0.1	-1	-1	357	0.3	357	358	11.7	99.2
2022-10-27T01:53	10	-1	0.1	-1	-1	357	0.2	357	358	11.6	99.2
2022-10-27T01:54	10	-1	0.1	-1	-1	357	0.2	356	357	11.5	99.2
2022-10-27T01:55	10	-1	0.1	-1	-1	356	0.3	356	357	11.5	99.2
2022-10-27T01:56	10	-1	0.1	-1	-1	356	0.2	355	356	11.4	99.2
2022-10-27T01:57	10	-1	0.1	-1	-1	356	0.3	355	357	11.4	99.2
2022-10-27T01:58	10	-1	0.1	-1	-1	356	0.3	356	357	11.4	99.2
2022-10-27T01:59	10	-1	0.1	-1	-1	357	0.2	356	357	11.5	99.2
2022-10-27T02:00	10	-1	0.1	-1	-1	357	0.2	356	357	11.5	99.2
2022-10-27T02:01	10	-1	0.1	-1	-1	357	0.3	356	357	11.6	99.2
2022-10-27T02:02	10	-1	0.1	-1	-1	356	0.3	356	357	11.6	99.2
2022-10-27T02:03	10	-1	0.1	-1	-1	356	0.2	355	356	11.4	99.2
2022-10-27T02:04	10	-1	0.1	-1	-1	355	0.3	354	356	11.4	99.2
2022-10-27T02:05	10	-1	0.1	-1	-1	355	0.2	355	356	11.4	99.2
2022-10-27T02:06	10	-1	0.1	-1	-1	355	0.3	354	356	11.5	99.2
2022-10-27T02:07	10	-1	0.1	-1	-1	355	0.2	354	355	11.4	99.2
2022-10-27T02:08	10	-1	0.1	-1	-1	355	0.2	354	355	11.3	99.2
2022-10-27T02:09	10	-1	0.1	-1	0	355	0.2	354	355	11.5	99.2
2022-10-27T02:10	10	-1	0.1	-1	0	355	0.2	355	356	11.6	99.2
2022-10-27T02:11	10	-1	0.1	-1	0	355	0.2	355	356	11.7	99.2
2022-10-27T02:12	10	-1	0.1	-1	0	355	0.2	354	356	11.9	99.2
2022-10-27T02:13	10	0	0.1	-1	0	355	0.2	354	355	11.8	99.2
2022-10-27T02:14	10	0	0.1	-1	0	355	0.2	354	355	11.5	99.2
2022-10-27T02:15	10	0	0.1	-1	0	355	0.2	354	355	11.4	99.2
2022-10-27T02:16	10	0	0.1	0	0	354	1.1	353	357	11.1	99.2
2022-10-27T02:17	10	0	0.1	-1	0	355	0.3	354	356	10.9	99.2
2022-10-27T02:18	10	-1	0.1	-1	0	354	0.3	354	355	10.9	99.2
2022-10-27T02:19	10	-1	0.1	-1	-1	354	0.2	354	355	10.9	99.2
2022-10-27T02:20	10	-1	0.1	-1	-1	354	0.3	353	355	10.9	99.2
2022-10-27T02:21	10	-1	0.1	-1	-1	354	0.4	353	355	10.8	99.2
2022-10-27T02:22	10	-1	0.1	-1	-1	355	0.2	354	355	10.9	99.2
2022-10-27T02:23	10	-1	0.1	-1	-1	355	0.5	354	356	10.8	99.2
2022-10-27T02:24	10	-1	0.1	-2	-1	356	0.3	355	356	10.8	99.2
2022-10-27T02:25	10	-2	0.1	-2	-1	357	0.7	355	358	10.8	99.2
2022-10-27T02:26	10	-1	0.1	-2	-1	357	0.5	356	358	10.7	99.2
2022-10-27T02:27	10	-1	0.1	-1	-1	357	0.6	356	358	10.7	99.2
2022-10-27T02:28	10	-1	0.1	-1	-1	356	0.5	355	357	10.6	99.2
2022-10-27T02:29	10	-1	0.1	-1	-1	356	0.2	355	356	10.7	99.2
2022-10-27T02:30	10	-1	0.1	-1	-1	355	0.2	355	356	10.6	99.2
2022-10-27T02:31	10	-1	0.1	-1	-1	355	0.2	355	356	10.7	99.2
2022-10-27T02:32	10	-1	0.1	-1	-1	355	0.2	354	355	10.8	99.2
2022-10-27T02:33	10	-1	0.1	-1	-1	355	0.3	354	355	10.8	99.2
2022-10-27T02:34	10	-1	0.1	-1	-1	354	0.3	353	355	10.7	99.2
2022-10-27T02:35	10	-1	0.1	-1	-1	354	0.3	354	355	10.7	99.2
2022-10-27T02:36	10	-1	0.1	-1	-1	354	0.2	354	355	10.6	99.2
2022-10-27T02:37	10	-1	0.1	-1	-1	354	0.2	354	355	10.6	99.2
2022-10-27T02:38	10	-1	0.1	-1	-1	354	0.2	354	355	10.5	99.2
2022-10-27T02:39	10	-1	0.1	-1	-1	354	0.3	353	354	10.5	99.2
2022-10-27T02:40	10	-1	0.1	-1	-1	353	0.2	353	354	10.5	99.2
2022-10-27T02:41	10	-1	0.1	-1	-1	353	0.2	353	354	10.6	99.2
2022-10-27T02:42	10	-1	0.1	-1	-1	354	0.2	353	354	10.8	99.2
2022-10-27T02:43	10	-1	0.1	-1	-1	353	0.3	353	354	10.9	99.2
2022-10-27T02:44	10	-1	0.1	-1	-1	353	0.2	352	353	11.0	99.2
2022-10-27T02:45	10	-1	0.1	-1	0	353	0.3	352	353	11.1	99.2
2022-10-27T02:46	10	-1	0.1	-1	0	353	0.2	352	353	11.0	99.2
2022-10-27T02:47	10	-1	0.1	-1	0	353	0.3	353	354	10.9	99.2
2022-10-27T02:48	10	-1	0.1	-1	-1	354	0.2	353	354	10.7	99.2
2022-10-27T02:49	10	-1	0.1	-1	-1	354	0.2	353	354	10.9	99.2
2022-10-27T02:50	10	-1	0.1	-1	0	353	0.2	353	354	10.9	99.2
2022-10-27T02:51	10	-1	0.1	-1	0	353	0.3	352	353	10.9	99.2
2022-10-27T02:52	10	-1	0.1	-1	0	352	0.4	352	353	10.9	99.2
2022-10-27T02:53	10	0	0.1	-1	0	352	0.2	352	353	10.9	99.2
2022-10-27T02:54	10	0	0.1	-1	0	352	0.3	351	352	10.8	99.2
2022-10-27T02:55	10	0	0.1	-1	0	352	0.3	351	352	10.7	99.2
2022-10-27T02:56	10	0	0.1	0	0	352	0.2	351	352	10.7	99.2
2022-10-27T02:57	10	0	0.1	0	0	352	0.2	351	352	10.6	99.2
2022-10-27T02:58	10	0	0.1	0	0	352	0.2	351	352	10.6	99.2
2022-10-27T02:59	10	0	0.1	0	0	351	0.2	351	352	10.5	99.2
2022-10-27T03:00	10	0	0.1	-1	0	351	0.2	350	351	10.4	99.2
2022-10-27T03:01	10	0	0.1	-1	0	351	0.2	351	352	10.4	99.2
2022-10-27T03:02	10	0	0.1	-1	0	351	0.2	351	352	10.4	99.2
2022-10-27T03:03	10	0	0.1	0	0	351	0.2	351	352	10.4	99.2
2022-10-27T03:04	10	0	0.1	0	0	351	0.2	351	352	10.4	99.2
2022-10-27T03:05	10	0	0.1	0	0	351	0.2	350	351	10.4	99.2
2022-10-27T03:06	10	0	0.1	0	0	351	0.2	350	351	10.3	99.2
2022-10-27T03:07	10	0	0.1	0	0	351	0.2	350	351	10.3	99.2
2022-10-27T03:08	10	0	0.1	-1	0	351	0.2	350	351	10.4	99.2
2022-10-27T03:09	10	0	0.1	-1	0	351	0.2	350	351	10.4	99.2
2022-10-27T03:10	10	0	0.1	-1	0	350	0.3	350	351	10.5	99.2
2022-10-27T03:11	10	0	0.1	-1	0	350	0.4	349	351	10.5	99.2
2022-10-27T03:12	10	0	0.1	-1	0	350	0.3	349	350	10.5	99.2
2022-10-27T03:13	10	-1	0.1	-1	0	350	0.2	349	350	10.5	99.2
2022-10-27T03:14	10	-1	0.1	-1	0	350	0.3	349	351	10.5	99.2
2022-10-27T03:15	10	-1	0.1	-1	-1	350	0.4	349	351	10.6	99.2
2022-10-27T03:16	10	-1	0.1	-1	-1	350	0.4	349	351	10.6	99.2
2022-10-27T03:17	10	-1	0.1	-1	-1	350	0.6	349	351	10.6	99.2
2022-10-27T03:18	10	-1	0.1	-1	-1	350	0.2	350	351	10.5	99.2
2022-10-27T03:19	10	-1	0.1	-1	-1	350	0.3	349	351	10.4	99.2
2022-10-27T03:20	10	-1	0.1	-1	0	350	0.2	350	351	10.4	99.2
2022-10-27T03:21	10	-1	0.1	-1	0	350	0.2	349	351	10.4	99.2
2022-10-27T03:22	10	-1	0.1	-1	0	350	0.2	349	350	10.3	99.2
2022-10-27T03:23	10	-1	0.1	-1	-1	349	0.2	349	350	10.2	99.2
2022-10-27T03:24	10	-1	0.1	-1	-1	350	0.3	349	351	10.2	99.2
2022-10-27T03:25	10	-1	0.1	-1	-1	351	0.3	350	351	10.1	99.2
2022-10-27T03:26	10	-1	0.1	-1	-1	351	0.3	350	352	10.2	99.2
2022-10-27T03:27	10	-1	0.1	-1	-1	351	0.3	350	351	10.2	99.2
2022-10-27T03:28	10	-1	0.1	-1	-1	350	0.3	349	351	10.2	99.2
2022-10-27T03:29	10	-1	0.1	-1	0	350	0.3	349	351	10.2	99.2
2022-10-27T03:30	10	-1	0.1	-1	-1	350	0.2	349	350	10.3	99.2
2022-10-27T03:31	10	-1	0.1	-1	-1	350	0.3	349	350	10.3	99.2
2022-10-27T03:32	10	-1	0.1	-1	0	349	0.2	349	350	10.2	99.2
2022-10-27T03:33	10	-1	0.1	-1	0	349	0.2	348	350	10.1	99.2
2022-10-27T03:34	10	-1	0.1	-1	0	350	0.2	349	350	10.2	99.2
2022-10-27T03:35	10	-1	0.1	-1	0	350	0.3	349	351	10.3	99.2
2022-10-27T03:36	10	-1	0.1	-1	0	350	0.3	350	351	10.3	99.2
2022-10-27T03:37	10	-1	0.1	-1	-1	351	0.3	350	351	10.1	99.2
2022-10-27T03:38	10	-1	0.1	-1	-1	351	0.2	350	351	9.9	99.2
2022-10-27T03:39	10	-1	0.1	-1	-1	351	0.3	350	352	10.0	99.2
2022-10-27T03:40	10	-1	0.1	-1	-1	351	0.2	350	351	10.0	99.2
2022-10-27T03:41	10	-1	0.0	-1	-1	351	0.3	350	351	9.9	99.2
2022-10-27T03:42	10	-1	0.1	-1	-1	351	0.3	350	352	9.9	99.2
2022-10-27T03:43	10	-1	0.1	-1	-1	352	0.4	351	352	9.9	99.2
2022-10-27T03:44	10	-1	0.1	-1	-1	352	0.3	352	353	9.9	99.2
2022-10-27T03:45	10	-1	0.1	-1	-1	353	0.5	352	354	9.8	99.2
2022-10-27T03:46	10	-2	0.1	-2	-1	354	0.4	353	355	9.8	99.2
2022-10-27T03:47	10	-2	0.1	-2	-1	354	0.2	354	355	9.9	99.2
2022-10-27T03:48	10	-2	0.1	-2	-1	354	0.2	354	355	9.8	99.2
2022-10-27T03:49	10	-2	0.1	-2	-1	355	0.2	354	355	9.8	99.2
2022-10-27T03:50	10	-2	0.1	-2	-1	355	0.3	354	356	9.8	99.2
2022-10-27T03:51	10	-1	0.1	-2	-1	355	0.3	355	356	9.9	99.2
2022-10-27T03:52	10	-1	0.1	-1	-1	356	0.2	355	356	10.0	99.2
2022-10-27T03:53	10	-1	0.1	-1	-1	356	0.2	355	356	10.0	99.2
2022-10-27T03:54	10	-1	0.1	-1	-1	355	0.4	355	356	9.9	99.2
2022-10-27T03:55	10	-1	0.1	-1	-1	355	0.2	355	355	10.0	99.2
2022-10-27T03:56	10	-1	0.1	-1	-1	355	0.2	355	355	10.1	99.2
2022-10-27T03:57	10	-1	0.1	-1	-1	355	0.3	354	355	10.2	99.2
2022-10-27T03:58	10	-1	0.1	-1	-1	354	0.3	353	354	10.2	99.2
2022-10-27T03:59	10	-1	0.1	-1	0	353	0.4	352	354	10.1	99.2
2022-10-27T04:00	10	0	0.1	-1	0	352	0.4	351	353	10.0	99.2
2022-10-27T04:01	10	-1	0.1	-1	0	351	0.3	351	352	10.0	99.2
2022-10-27T04:02	10	0	0.0	-1	0	351	0.4	350	351	10.0	99.2
2022-10-27T04:03	10	0	0.0	-1	0	350	0.3	349	351	10.0	99.2
2022-10-27T04:04	10	-1	0.1	-1	0	350	0.4	349	350	10.0	99.2
2022-10-27T04:05	10	-1	0.1	-1	0	349	0.2	349	350	10.0	99.2
2022-10-27T04:06	10	-1	0.1	-1	-1	349	0.3	348	350	10.0	99.2
2022-10-27T04:07	10	-1	0.1	-1	-1	349	0.3	348	349	10.0	99.2
2022-10-27T04:08	10	-1	0.1	-1	-1	349	0.3	348	349	9.9	99.2
2022-10-27T04:09	10	-1	0.1	-1	-1	349	0.3	348	349	9.7	99.2
2022-10-27T04:10	10	-1	0.1	-1	-1	349	0.2	348	349	9.8	99.2
2022-10-27T04:11	10	-1	0.1	-1	-1	349	0.4	348	350	9.9	99.2
2022-10-27T04:12	10	-1	0.1	-1	-1	349	0.2	349	350	9.9	99.2
2022-10-27T04:13	10	-1	0.1	-1	-1	349	0.2	349	350	10.0	99.2
2022-10-27T04:14	10	-1	0.1	-1	-1	350	0.3	349	350	10.0	99.2
2022-10-27T04:15	10	-1	0.1	-1	-1	350	0.3	350	351	10.0	99.2
2022-10-27T04:16	10	-1	0.1	-1	-1	351	0.2	350	351	10.0	99.2
2022-10-27T04:17	10	-1	0.1	-1	-1	351	0.3	350	351	10.0	99.2
2022-10-27T04:18	10	-1	0.1	-1	-1	351	0.4	351	352	10.1	99.2
2022-10-27T04:19	10	-1	0.1	-1	-1	353	0.5	352	354	10.0	99.2
2022-10-27T04:20	10	-1	0.1	-1	0	354	0.5	353	355	10.2	99.2
2022-10-27T04:21	10	-1	0.0	-1	-1	355	0.3	355	356	10.2	99.2
2022-10-27T04:22	10	-1	0.1	-1	-1	357	0.5	356	358	10.1	99.2
2022-10-27T04:23	10	-1	0.1	-1	-1	358	0.3	357	358	10.2	99.2
2022-10-27T04:24	10	-1	0.1	-1	-1	359	0.3	358	359	10.2	99.2
2022-10-27T04:25	10	-1	0.1	-1	-1	359	0.3	359	360	10.1	99.2
2022-10-27T04:26	10	-1	0.1	-1	-1	360	0.3	360	361	10.1	99.2
2022-10-27T04:27	10	-1	0.1	-1	-1	361	0.2	360	361	10.2	99.2
2022-10-27T04:28	10	-1	0.1	-1	-1	361	0.4	361	362	10.3	99.2
2022-10-27T04:29	10	-1	0.1	-1	-1	362	0.3	361	362	10.2	99.2
2022-10-27T04:30	10	-1	0.1	-1	-1	362	0.3	361	363	10.2	99.2
2022-10-27T04:31	10	-1	0.1	-1	0	362	0.2	361	362	10.3	99.2
2022-10-27T04:32	10	-1	0.1	-1	0	362	0.2	362	362	10.3	99.2
2022-10-27T04:33	10	0	0.1	-1	0	361	0.2	361	362	10.4	99.2
2022-10-27T04:34	10	0	0.1	-1	0	361	0.2	361	362	10.5	99.2
2022-10-27T04:35	10	0	0.1	0	0	361	0.3	361	362	10.4	99.2
2022-10-27T04:36	10	0	0.1	0	0	361	0.3	360	362	10.1	99.2
2022-10-27T04:37	10	0	0.1	-1	0	361	0.3	361	362	10.0	99.2
2022-10-27T04:38	10	-1	0.1	-1	0	361	0.3	361	362	9.8	99.2
2022-10-27T04:39	10	-1	0.2	-1	0	362	0.2	361	362	9.9	99.2
2022-10-27T04:40	10	-1	0.2	-1	0	362	0.2	361	363	10.1	99.2
2022-10-27T04:41	10	-1	0.1	-1	-1	363	0.3	362	363	10.3	99.2
2022-10-27T04:42	10	-1	0.1	-1	-1	363	0.3	363	364	10.4	99.2
2022-10-27T04:43	10	-1	0.1	-1	-1	364	0.3	363	364	10.4	99.2
2022-10-27T04:44	10	-1	0.1	-1	0	364	0.3	363	364	10.5	99.2
2022-10-27T04:45	10	-1	0.1	-1	0	363	0.3	363	364	10.3	99.2
2022-10-27T04:46	10	0	0.1	-1	0	363	0.2	363	364	10.2	99.2
2022-10-27T04:47	10	0	0.1	-1	0	364	0.2	363	364	10.2	99.2
2022-10-27T04:48	10	0	0.1	-1	0	364	0.2	363	364	10.1	99.2
2022-10-27T04:49	10	0	0.1	-1	0	364	0.2	364	365	10.2	99.2
2022-10-27T04:50	10	0	0.1	-1	0	364	0.2	364	365	10.3	99.2
2022-10-27T04:51	10	0	0.1	0	0	364	0.2	364	365	10.3	99.2
2022-10-27T04:52	10	0	0.1	-1	0	365	0.2	364	365	10.4	99.2
2022-10-27T04:53	10	0	0.1	0	0	365	0.2	364	365	10.3	99.2
2022-10-27T04:54	10	0	0.1	-1	0	365	0.3	364	365	10.2	99.2
2022-10-27T04:55	10	0	0.1	0	0	365	0.3	364	366	10.4	99.2
2022-10-27T04:56	10	0	0.1	0	0	365	0.2	365	366	10.3	99.2
2022-10-27T04:57	10	0	0.1	0	1	365	0.2	364	365	10.2	99.2
2022-10-27T04:58	10	0	0.2	0	1	365	0.2	364	365	10.2	99.2
2022-10-27T04:59	10	0	0.1	0	0	365	0.2	365	366	10.3	99.2
2022-10-27T05:00	10	0	0.1	0	0	365	0.2	365	366	10.3	99.2
2022-10-27T05:01	10	0	0.1	0	0	365	0.2	365	366	10.3	99.2
2022-10-27T05:02	10	0	0.1	0	0	365	0.2	365	366	10.3	99.2
2022-10-27T05:03	10	0	0.0	0	0	365	0.2	364	365	10.3	99.2
2022-10-27T05:04	10	0	0.1	0	0	365	0.2	365	366	10.3	99.2
2022-10-27T05:05	10	0	0.1	0	0	365	0.2	365	366	10.3	99.2
2022-10-27T05:06	10	0	0.1	0	0	365	0.2	365	366	10.3	99.2
2022-10-27T05:07	10	0	0.1	0	0	365	0.2	365	366	10.4	99.2
2022-10-27T05:08	10	0	0.1	0	1	365	0.2	365	366	10.4	99.2
2022-10-27T05:09	10	0	0.1	0	0	366	0.2	365	366	10.4	99.2
2022-10-27T05:10	10	0	0.1	0	0	366	0.2	365	366	10.4	99.2
2022-10-27T05:11	10	0	0.1	0	0	366	0.2	365	367	10.4	99.2
2022-10-27T05:12	10	0	0.1	0	1	366	0.2	366	367	10.4	99.2
2022-10-27T05:13	10	0	0.1	0	0	366	0.2	366	367	10.3	99.2
2022-10-27T05:14	10	0	0.1	0	0	366	0.3	365	367	10.3	99.2
2022-10-27T05:15	10	0	0.1	0	0	366	0.2	366	367	10.2	99.2
2022-10-27T05:16	10	0	0.1	0	0	366	0.3	365	367	10.2	99.2
2022-10-27T05:17	10	0	0.1	0	0	366	0.3	365	367	10.3	99.2
2022-10-27T05:18	10	0	0.1	0	0	366	0.4	365	367	10.4	99.2
2022-10-27T05:19	10	0	0.1	0	0	367	0.3	366	367	10.4	99.2
2022-10-27T05:20	10	0	0.1	0	0	366	0.3	366	367	10.4	99.2
2022-10-27T05:21	10	0	0.1	0	0	366	0.4	365	367	10.4	99.2
2022-10-27T05:22	10	-1	0.1	-1	0	367	0.4	365	367	10.3	99.2
2022-10-27T05:23	10	-1	0.1	-1	-1	366	0.8	365	367	10.3	99.2
2022-10-27T05:24	10	-1	0.1	-1	-1	366	0.4	365	367	10.3	99.2
2022-10-27T05:25	10	-1	0.1	-1	-1	366	0.4	365	367	10.3	99.2
2022-10-27T05:26	10	-1	0.1	-1	-1	366	0.5	365	367	10.3	99.2
2022-10-27T05:27	10	-1	0.1	-1	-1	366	0.2	365	366	10.2	99.2
2022-10-27T05:28	10	-1	0.0	-1	-1	366	0.5	365	366	10.1	99.2
2022-10-27T05:29	10	-1	0.1	-1	-1	366	0.4	365	366	10.0	99.2
2022-10-27T05:30	10	-1	0.1	-1	-1	365	0.3	365	366	10.1	99.2
2022-10-27T05:31	10	-1	0.1	-1	-1	365	0.3	365	366	10.1	99.2
2022-10-27T05:32	10	-1	0.1	-1	0	366	0.3	365	366	10.1	99.2
2022-10-27T05:33	10	0	0.1	-1	0	366	0.2	365	366	10.1	99.2
2022-10-27T05:34	10	0	0.1	0	0	366	0.2	365	366	10.2	99.2
2022-10-27T05:35	10	0	0.1	0	0	366	0.2	365	366	10.2	99.2
2022-10-27T05:36	10	0	0.1	0	0	366	0.2	365	366	10.1	99.2
2022-10-27T05:37	10	0	0.1	0	0	366	0.2	365	366	10.1	99.2
2022-10-27T05:38	10	0	0.1	0	0	366	0.2	365	366	10.1	99.2
2022-10-27T05:39	10	0	0.1	0	0	366	0.2	365	366	10.1	99.2
2022-10-27T05:40	10	0	0.1	0	0	366	0.2	365	366	10.1	99.2
2022-10-27T05:41	10	0	0.1	0	0	366	0.2	365	366	10.1	99.2
2022-10-27T05:42	10	0	0.1	0	0	366	0.2	365	366	10.1	99.2
2022-10-27T05:43	10	0	0.1	0	0	366	0.3	365	366	10.1	99.2
2022-10-27T05:44	10	0	0.1	0	1	366	0.2	366	366	10.1	99.2
2022-10-27T05:45	10	0	0.0	0	0	365	0.2	365	366	10.1	99.2
2022-10-27T05:46	10	0	0.1	0	1	365	0.2	365	366	10.1	99.2
2022-10-27T05:47	10	0	0.1	0	1	365	0.2	365	366	10.1	99.2
2022-10-27T05:48	10	0	0.1	0	0	365	0.2	365	366	10.1	99.2
2022-10-27T05:49	10	0	0.1	0	0	365	0.2	365	366	10.1	99.2
2022-10-27T05:50	10	0	0.1	0	0	365	0.2	365	366	10.1	99.2
2022-10-27T05:51	10	0	0.1	0	0	365	0.2	365	366	10.1	99.2
2022-10-27T05:52	10	0	0.1	0	1	365	0.2	365	366	10.1	99.2
2022-10-27T05:53	10	0	0.1	0	1	366	0.2	365	366	10.1	99.2
2022-10-27T05:54	10	0	0.1	0	1	366	0.2	365	366	10.1	99.2
2022-10-27T05:55	10	1	0.1	0	1	366	0.2	366	366	10.1	99.2
2022-10-27T05:56	10	1	0.1	0	1	366	0.2	366	366	10.1	99.2
2022-10-27T05:57	10	1	0.1	0	1	366	0.2	365	367	10.1	99.2
2022-10-27T05:58	10	0	0.1	0	1	366	0.2	365	366	10.1	99.2
2022-10-27T05:59	10	0	0.1	0	1	367	0.2	366	367	10.2	99.2
2022-10-27T06:00	10	0	0.1	0	1	367	0.2	366	367	10.2	99.2
2022-10-27T06:01	10	0	0.1	0	1	367	0.3	366	367	10.2	99.2
2022-10-27T06:02	10	1	0.1	0	1	367	0.2	366	367	10.2	99.2
2022-10-27T06:03	10	1	0.1	1	1	367	0.2	366	367	10.2	99.2
2022-10-27T06:04	10	1	0.1	1	1	366	0.2	366	367	10.2	99.2
2022-10-27T06:05	10	1	0.1	1	1	366	0.2	366	367	10.2	99.2
2022-10-27T06:06	10	1	0.1	1	1	367	0.2	366	367	10.2	99.2
2022-10-27T06:07	10	1	0.1	1	1	366	0.3	366	367	10.2	99.2
2022-10-27T06:08	10	1	0.1	0	1	366	0.2	366	367	10.2	99.2
2022-10-27T06:09	10	1	0.1	0	1	367	0.2	366	367	10.1	99.2
2022-10-27T06:10	10	1	0.1	0	1	366	0.2	366	367	10.2	99.2
2022-10-27T06:11	10	1	0.1	1	1	367	0.3	366	367	10.2	99.2
2022-10-27T06:12	10	1	0.1	1	1	367	0.2	366	367	10.2	99.2
2022-10-27T06:13	10	1	0.1	1	1	367	0.3	366	367	10.2	99.2
2022-10-27T06:14	10	1	0.1	1	1	366	0.3	366	367	10.2	99.2
2022-10-27T06:15	10	1	0.1	1	1	366	0.3	365	367	10.2	99.2
2022-10-27T06:16	10	1	0.1	1	1	366	0.2	365	367	10.2	99.2
2022-10-27T06:17	10	1	0.1	1	2	366	0.2	366	366	10.1	99.2
2022-10-27T06:18	10	1	0.1	1	1	366	0.2	366	367	10.1	99.2
2022-10-27T06:19	10	1	0.1	1	1	366	0.2	366	367	10.2	99.2
2022-10-27T06:20	10	1	0.1	1	1	366	0.3	366	367	10.2	99.2
2022-10-27T06:21	10	1	0.1	1	1	367	0.2	366	367	10.2	99.2
2022-10-27T06:22	10	1	0.1	1	2	367	0.2	366	367	10.2	99.2
2022-10-27T06:23	10	2	0.1	1	2	367	0.2	366	367	10.2	99.2
2022-10-27T06:24	10	2	0.0	2	2	366	0.2	366	367	10.2	99.2
2022-10-27T06:25	10	2	0.0	2	2	367	0.2	366	367	10.2	99.2
2022-10-27T06:26	10	2	0.0	2	2	367	0.2	366	367	10.2	99.2
2022-10-27T06:27	10	2	0.0	2	2	366	0.2	366	367	10.1	99.2
2022-10-27T06:28	10	2	0.1	2	2	366	0.2	366	367	10.1	99.2
2022-10-27T06:29	10	2	0.0	2	2	366	0.2	366	367	10.0	99.2
2022-10-27T06:30	10	2	0.0	2	2	366	0.3	365	366	10.0	99.2
2022-10-27T06:31	10	2	0.1	2	2	366	0.2	365	367	10.0	99.2
2022-10-27T06:32	10	2	0.0	2	2	366	0.2	366	366	10.0	99.2
2022-10-27T06:33	10	2	0.1	2	2	366	0.3	366	367	10.0	99.2
2022-10-27T06:34	10	2	0.2	2	3	366	0.2	366	367	10.1	99.2
2022-10-27T06:35	10	3	0.1	3	3	366	0.2	366	367	10.1	99.2
2022-10-27T06:36	10	3	0.1	3	3	367	0.2	366	367	10.1	99.2
2022-10-27T06:37	10	3	0.1	3	3	367	0.2	366	367	10.1	99.2
2022-10-27T06:38	10	3	0.2	3	4	367	0.2	366	367	10.1	99.2
2022-10-27T06:39	10	4	0.2	3	4	367	0.2	367	367	10.2	99.2
2022-10-27T06:40	10	4	0.1	4	4	367	0.2	367	368	10.3	99.2
2022-10-27T06:41	10	4	0.1	3	4	367	0.2	367	368	10.4	99.2
2022-10-27T06:42	10	3	0.1	3	4	367	0.2	367	368	10.4	99.2
2022-10-27T06:43	10	4	0.1	3	4	367	0.3	367	368	10.4	99.2
2022-10-27T06:44	10	4	0.2	4	4	367	0.2	367	368	10.4	99.2
2022-10-27T06:45	10	4	0.1	4	5	368	0.2	367	368	10.2	99.2
2022-10-27T06:46	10	5	0.2	5	5	367	0.2	367	368	10.2	99.2
2022-10-27T06:47	10	6	0.1	5	6	368	0.2	367	368	10.2	99.2
2022-10-27T06:48	10	6	0.1	6	6	368	0.3	367	369	10.3	99.2
2022-10-27T06:49	10	6	0.1	6	6	368	0.2	367	368	10.4	99.2
2022-10-27T06:50	10	6	0.1	6	6	369	0.3	368	369	10.6	99.2
2022-10-27T06:51	10	6	0.3	6	8	369	0.2	368	369	10.7	99.2
2022-10-27T06:52	10	7	0.3	6	8	369	0.2	369	370	10.7	99.2
2022-10-27T06:53	10	8	0.4	8	9	370	0.3	369	370	10.7	99.2
2022-10-27T06:54	10	9	0.2	9	10	370	0.2	369	370	10.7	99.2
2022-10-27T06:55	10	10	0.1	10	10	370	0.2	370	371	10.7	99.2
2022-10-27T06:56	10	11	0.3	10	11	371	0.3	370	371	10.8	99.2
2022-10-27T06:57	10	12	0.3	11	12	371	0.2	370	372	10.8	99.2
2022-10-27T06:58	10	12	0.1	12	12	371	0.3	371	372	10.8	99.2
2022-10-27T06:59	10	12	0.1	12	12	372	0.2	371	372	10.9	99.2
2022-10-27T07:00	10	12	0.2	12	13	372	0.3	371	372	10.9	99.2
2022-10-27T07:01	10	14	0.4	13	14	372	0.2	372	373	10.9	99.2
2022-10-27T07:02	10	14	0.1	14	14	373	0.2	372	373	11.0	99.2
2022-10-27T07:03	10	14	0.3	13	14	373	0.2	373	374	11.1	99.2
2022-10-27T07:04	10	12	0.4	12	13	373	0.3	372	374	11.0	99.2
2022-10-27T07:05	10	12	0.2	11	12	373	0.9	371	374	10.9	99.2
2022-10-27T07:06	10	11	0.1	11	11	372	0.4	371	373	10.6	99.2
2022-10-27T07:07	10	11	0.2	11	11	372	0.4	371	373	10.7	99.2
2022-10-27T07:08	10	11	0.1	11	11	372	0.6	371	373	10.7	99.2
2022-10-27T07:09	10	11	0.2	11	11	371	0.9	370	373	10.6	99.2
2022-10-27T07:10	10	11	0.1	11	11	371	0.2	370	371	10.5	99.2
2022-10-27T07:11	10	11	0.1	11	11	371	0.2	370	371	10.4	99.2
2022-10-27T07:12	10	11	0.1	11	12	371	0.4	370	371	10.4	99.2
2022-10-27T07:13	10	12	0.2	11	12	371	0.3	370	371	10.4	99.2
2022-10-27T07:14	10	12	0.2	12	13	371	0.3	370	372	10.5	99.2
2022-10-27T07:15	10	13	0.3	13	14	371	0.4	370	372	10.5	99.2
2022-10-27T07:16	10	14	0.2	14	15	371	0.3	371	372	10.5	99.2
2022-10-27T07:17	10	14	0.1	14	15	372	0.3	371	372	10.6	99.2
2022-10-27T07:18	10	14	0.2	13	14	372	0.3	371	372	10.6	99.2
2022-10-27T07:19	10	14	0.1	13	14	372	0.3	371	372	10.6	99.2
2022-10-27T07:20	10	14	0.1	14	14	372	0.3	371	372	10.6	99.2
2022-10-27T07:21	10	14	0.2	13	14	372	0.5	371	373	10.6	99.2
2022-10-27T07:22	10	13	0.2	13	13	372	0.4	372	373	10.6	99.2
2022-10-27T07:23	10	13	0.2	13	13	372	0.2	372	373	10.6	99.2
2022-10-27T07:24	10	14	0.2	13	14	373	0.2	372	373	10.7	99.2
2022-10-27T07:25	10	14	0.2	13	14	373	0.2	372	373	10.8	99.2
2022-10-27T07:26	10	13	0.1	13	13	373	0.3	372	373	10.7	99.2
2022-10-27T07:27	10	13	0.1	13	13	373	0.3	372	373	10.7	99.2
2022-10-27T07:28	10	13	0.2	13	14	372	1.3	370	374	10.5	99.2
2022-10-27T07:29	10	14	0.1	14	14	372	0.4	371	372	10.4	99.2
2022-10-27T07:30	10	13	0.4	12	14	371	0.2	371	372	10.4	99.2
2022-10-27T07:31	10	12	0.1	12	12	372	0.4	370	372	10.6	99.2
2022-10-27T07:32	10	12	0.2	12	12	372	0.9	370	373	10.6	99.2
2022-10-27T07:33	10	13	0.2	12	13	372	0.4	371	372	10.6	99.2
2022-10-27T07:34	10	13	0.2	13	14	372	0.4	371	373	10.6	99.2
2022-10-27T07:35	10	14	0.1	14	14	372	0.7	371	373	10.6	99.2
2022-10-27T07:36	10	14	0.1	13	14	372	0.5	371	373	10.6	99.2
2022-10-27T07:37	10	14	0.2	14	15	372	0.5	371	373	10.6	99.2
2022-10-27T07:38	10	15	0.1	14	15	372	0.3	371	372	10.6	99.2
2022-10-27T07:39	10	14	0.3	14	15	372	0.2	372	372	10.6	99.2
2022-10-27T07:40	10	14	0.1	14	14	372	0.4	371	373	10.6	99.2
2022-10-27T07:41	10	14	0.4	14	15	372	0.3	372	373	10.6	99.2
2022-10-27T07:42	10	16	0.5	15	16	372	0.2	372	373	10.6	99.2
2022-10-27T07:43	10	17	0.2	17	17	372	0.3	372	373	10.6	99.2
2022-10-27T07:44	10	17	0.2	16	17	373	0.3	372	374	10.6	99.2
2022-10-27T07:45	10	17	0.2	16	17	373	0.3	372	374	10.7	99.2
2022-10-27T07:46	10	18	0.4	17	18	373	0.4	372	374	10.8	99.2
2022-10-27T07:47	10	19	0.3	18	19	374	0.3	373	375	10.9	99.2
2022-10-27T07:48	10	19	0.1	19	20	374	0.2	373	374	10.9	99.2
2022-10-27T07:49	10	19	0.2	19	19	374	0.3	373	375	10.9	99.2
2022-10-27T07:50	10	19	0.1	19	19	374	0.2	374	375	10.9	99.2
2022-10-27T07:51	10	19	0.1	18	19	374	0.3	374	375	10.9	99.2
2022-10-27T07:52	10	19	0.3	18	20	375	0.4	374	376	11.0	99.2
2022-10-27T07:53	10	20	0.4	19	21	375	0.4	374	375	11.0	99.2
2022-10-27T07:54	10	21	0.1	21	21	375	0.3	374	376	10.9	99.2
2022-10-27T07:55	10	21	0.1	21	21	375	0.3	374	375	10.9	99.2
2022-10-27T07:56	10	21	0.3	21	22	376	0.5	375	377	11.0	99.2
2022-10-27T07:57	10	22	0.1	22	22	376	0.4	375	377	11.1	99.2
2022-10-27T07:58	10	22	0.1	22	22	376	0.3	375	377	11.2	99.2
2022-10-27T07:59	10	22	0.1	22	22	377	0.3	376	377	11.2	99.2
2022-10-27T08:00	10	22	0.1	22	22	377	0.5	376	378	11.2	99.2
2022-10-27T08:01	10	22	0.1	22	22	377	0.9	375	378	11.2	99.2
2022-10-27T08:02	10	22	0.1	22	22	376	0.5	375	377	11.0	99.2
2022-10-27T08:03	10	22	0.1	22	22	376	0.4	375	377	10.9	99.2
2022-10-27T08:04	10	22	0.1	22	23	376	0.2	375	377	11.0	99.2
2022-10-27T08:05	10	22	0.1	22	22	376	0.3	375	377	11.1	99.2
2022-10-27T08:06	10	23	0.5	22	24	376	0.3	376	377	11.0	99.2
2022-10-27T08:07	10	25	0.4	24	25	377	0.3	376	377	11.1	99.2
2022-10-27T08:08	10	25	0.3	24	25	377	0.3	376	378	11.1	99.2
2022-10-27T08:09	10	24	0.2	24	24	377	0.3	377	378	11.1	99.2
2022-10-27T08:10	10	24	0.3	24	25	378	0.3	377	378	11.2	99.2
2022-10-27T08:11	10	26	0.5	25	27	378	0.4	377	379	11.2	99.2
2022-10-27T08:12	10	27	0.4	27	28	378	0.4	377	379	11.2	99.2
2022-10-27T08:13	10	29	0.2	28	29	378	0.6	377	380	11.2	99.2
2022-10-27T08:14	10	29	0.1	29	30	378	0.3	377	379	11.1	99.2
2022-10-27T08:15	10	29	0.2	29	29	378	0.3	377	379	11.1	99.2
2022-10-27T08:16	10	28	0.3	28	29	378	0.4	377	379	11.1	99.2
2022-10-27T08:17	10	27	0.3	27	28	378	0.3	377	379	11.0	99.2
2022-10-27T08:18	10	27	0.2	27	28	378	0.4	377	379	11.0	99.2
2022-10-27T08:19	10	28	0.3	27	29	378	0.3	377	378	11.0	99.2
2022-10-27T08:20	10	28	0.1	28	29	378	0.3	377	379	11.1	99.2
2022-10-27T08:21	10	28	0.3	27	28	378	0.3	377	378	11.1	99.2
2022-10-27T08:22	10	27	0.1	27	28	378	0.4	377	379	11.0	99.2
2022-10-27T08:23	10	28	0.1	27	28	378	0.3	378	379	11.0	99.2
2022-10-27T08:24	10	28	0.1	28	28	378	0.5	377	379	11.1	99.2
2022-10-27T08:25	10	27	0.2	27	28	378	0.2	378	379	11.1	99.2
2022-10-27T08:26	10	27	0.3	27	28	378	0.2	378	379	11.1	99.2
2022-10-27T08:27	10	29	0.4	28	29	379	0.3	378	379	11.1	99.2
2022-10-27T08:28	10	30	0.2	29	30	378	0.5	377	379	11.1	99.2
2022-10-27T08:29	10	30	0.1	30	30	379	0.4	378	379	11.1	99.2
2022-10-27T08:30	10	30	0.1	30	30	379	0.4	378	380	11.1	99.2
2022-10-27T08:31	10	30	0.1	30	30	379	0.2	378	379	11.1	99.2
2022-10-27T08:32	10	29	0.2	29	30	379	0.6	378	380	11.1	99.2
2022-10-27T08:33	10	28	0.4	28	29	378	0.2	378	378	10.9	99.2
2022-10-27T08:34	10	27	0.3	27	28	378	0.2	377	378	10.8	99.2
2022-10-27T08:35	10	27	0.2	27	28	378	0.4	377	379	11.0	99.2
2022-10-27T08:36	10	27	0.1	27	28	378	0.4	378	379	11.1	99.2
2022-10-27T08:37	10	28	0.1	27	28	378	0.3	378	379	11.0	99.2
2022-10-27T08:38	10	26	0.6	26	28	378	0.9	377	380	11.1	99.2
2022-10-27T08:39	10	26	0.1	25	26	378	0.4	377	379	10.9	99.2
2022-10-27T08:40	10	26	0.2	25	26	378	0.5	377	379	10.8	99.2
2022-10-27T08:41	10	25	0.2	25	26	378	0.3	377	379	10.8	99.2
2022-10-27T08:42	10	26	0.3	26	27	378	0.3	377	379	10.9	99.2
2022-10-27T08:43	10	26	0.2	26	27	378	0.3	377	379	10.8	99.2
2022-10-27T08:44	10	27	0.4	26	28	378	0.4	377	379	10.9	99.2
2022-10-27T08:45	10	28	0.2	28	28	378	0.6	377	379	10.8	99.2
2022-10-27T08:46	10	29	0.6	28	30	378	0.7	377	379	10.8	99.2
2022-10-27T08:47	10	31	0.4	30	32	378	0.8	377	379	10.9	99.2
2022-10-27T08:48	10	32	0.5	31	33	379	0.4	378	380	10.9	99.2
2022-10-27T08:49	10	34	0.7	33	35	379	0.4	378	380	10.9	99.2
2022-10-27T08:50	10	36	0.2	36	36	379	0.2	378	379	10.7	99.2
2022-10-27T08:51	10	37	0.7	36	38	379	0.3	378	380	10.7	99.2
2022-10-27T08:52	10	40	1.2	38	42	379	0.6	378	381	10.7	99.2
2022-10-27T08:53	10	43	0.5	42	44	380	0.8	378	382	10.8	99.2
2022-10-27T08:54	10	43	0.3	43	44	381	0.6	380	382	10.9	99.2
2022-10-27T08:55	10	41	1.0	39	43	381	0.5	380	383	10.9	99.2
2022-10-27T08:56	10	37	1.5	34	39	382	0.7	380	383	11.0	99.2
2022-10-27T08:57	10	33	0.7	32	34	380	0.6	379	382	10.9	99.2
2022-10-27T08:58	10	33	0.9	32	35	380	0.5	379	381	11.0	99.2
2022-10-27T08:59	10	37	1.0	35	38	381	0.6	379	382	11.1	99.2
2022-10-27T09:00	10	39	0.6	38	41	381	0.5	380	383	11.2	99.2
2022-10-27T09:01	10	41	0.5	40	42	382	0.7	381	383	11.1	99.2
2022-10-27T09:02	10	42	0.2	41	42	383	0.3	382	383	11.2	99.2
2022-10-27T09:03	10	43	0.7	42	44	382	0.2	382	383	11.2	99.2
2022-10-27T09:04	10	45	0.4	44	45	383	0.5	382	384	11.2	99.2
2022-10-27T09:05	10	45	0.3	45	45	382	0.4	382	383	11.2	99.2
2022-10-27T09:06	10	44	0.1	44	45	382	0.2	382	383	11.1	99.2
2022-10-27T09:07	10	45	0.3	44	45	382	0.3	382	383	11.2	99.2
2022-10-27T09:08	10	45	0.1	44	45	382	0.3	381	382	11.2	99.2
2022-10-27T09:09	10	45	0.1	45	45	382	0.2	381	382	11.0	99.2
2022-10-27T09:10	10	45	0.1	45	45	382	0.3	381	383	11.0	99.2
2022-10-27T09:11	10	45	0.2	45	46	382	0.3	382	383	11.1	99.2
2022-10-27T09:12	10	46	0.3	46	47	383	0.2	383	383	11.1	99.2
2022-10-27T09:13	10	47	0.2	47	47	382	0.4	382	383	11.0	99.2
2022-10-27T09:14	10	47	0.4	46	47	383	0.4	382	383	11.2	99.2
2022-10-27T09:15	10	46	0.2	45	46	383	0.3	382	383	11.2	99.2
2022-10-27T09:16	10	45	0.1	45	46	384	0.3	383	384	11.1	99.2
2022-10-27T09:17	10	48	1.5	46	51	384	0.4	383	385	11.1	99.2
2022-10-27T09:18	10	54	1.6	51	57	384	0.3	384	385	11.2	99.2
2022-10-27T09:19	10	58	0.8	57	59	384	0.2	384	385	11.2	99.2
2022-10-27T09:20	10	60	0.3	59	60	385	0.3	384	385	11.2	99.2
2022-10-27T09:21	10	59	0.3	59	60	385	0.3	384	385	11.2	99.2
2022-10-27T09:22	10	58	0.5	58	60	385	0.3	385	386	11.2	99.2
2022-10-27T09:23	10	57	0.5	56	58	386	0.3	385	386	11.3	99.2
2022-10-27T09:24	10	56	0.3	55	56	386	0.2	385	386	11.5	99.2
2022-10-27T09:25	10	57	0.4	56	57	386	0.3	385	386	11.4	99.2
2022-10-27T09:26	10	57	0.3	56	58	386	0.2	386	386	11.5	99.2
2022-10-27T09:27	10	54	1.7	51	56	386	0.8	385	388	11.5	99.2
2022-10-27T09:28	10	50	0.3	50	51	386	0.8	384	387	11.4	99.2
2022-10-27T09:29	10	51	0.8	50	53	385	0.3	385	386	11.3	99.2
2022-10-27T09:30	10	53	0.2	52	53	385	0.3	384	386	11.3	99.2
2022-10-27T09:31	10	50	1.5	47	52	385	0.3	384	386	11.3	99.2
2022-10-27T09:32	10	45	0.9	44	47	385	0.3	385	386	11.4	99.2
2022-10-27T09:33	10	45	1.1	44	48	385	0.3	385	386	11.4	99.2
2022-10-27T09:34	10	48	0.4	47	49	385	0.3	385	386	11.5	99.2
2022-10-27T09:35	10	47	0.7	46	49	386	0.3	385	386	11.4	99.2
2022-10-27T09:36	10	45	0.7	44	46	386	0.4	385	386	11.4	99.2
2022-10-27T09:37	10	43	0.6	42	44	385	0.3	385	386	11.5	99.2
2022-10-27T09:38	10	42	0.2	42	42	385	0.3	384	385	11.3	99.2
2022-10-27T09:39	10	43	0.4	42	43	386	0.4	385	387	11.4	99.2
2022-10-27T09:40	10	43	0.2	43	43	386	0.3	386	387	11.4	99.2
2022-10-27T09:41	10	43	0.2	42	43	386	0.2	386	387	11.5	99.2
2022-10-27T09:42	10	42	0.2	42	43	386	0.3	385	387	11.5	99.2
2022-10-27T09:43	10	44	0.3	43	44	385	0.2	385	386	11.6	99.2
2022-10-27T09:44	10	44	0.1	44	44	386	0.3	386	387	11.6	99.2
2022-10-27T09:45	10	43	0.1	43	44	386	0.2	386	387	11.6	99.2
2022-10-27T09:46	10	44	0.5	43	45	387	0.2	387	387	11.7	99.2
2022-10-27T09:47	10	46	0.7	45	47	388	0.7	386	389	11.6	99.2
2022-10-27T09:48	10	47	0.1	47	48	388	0.5	386	389	11.5	99.2
2022-10-27T09:49	10	48	0.2	47	48	388	0.5	387	389	11.6	99.2
2022-10-27T09:50	10	49	0.5	48	50	387	0.5	386	388	11.5	99.2
2022-10-27T09:51	10	50	0.1	49	50	387	0.4	386	388	11.4	99.2
2022-10-27T09:52	10	50	0.1	49	50	388	0.3	387	388	11.5	99.2
2022-10-27T09:53	10	49	0.3	48	49	388	0.6	387	389	11.6	99.2
2022-10-27T09:54	10	48	0.1	48	48	388	0.3	388	389	11.6	99.2
2022-10-27T09:55	10	49	0.1	48	49	388	0.2	388	388	11.6	99.2
2022-10-27T09:56	10	49	0.6	49	50	388	0.3	388	389	11.6	99.2
2022-10-27T09:57	10	50	0.2	50	50	389	0.3	388	389	11.7	99.2
2022-10-27T09:58	10	48	1.1	46	50	389	0.3	388	389	11.7	99.2
2022-10-27T09:59	10	47	1.1	46	50	388	0.3	387	389	11.6	99.2
2022-10-27T10:00	10	55	3.3	49	61	388	0.4	388	389	11.6	99.2
2022-10-27T10:01	10	66	2.4	61	69	389	0.6	388	390	11.7	99.2
2022-10-27T10:02	10	69	0.7	68	70	390	0.3	390	391	11.7	99.2
2022-10-27T10:03	10	70	0.7	69	71	391	0.3	390	392	11.8	99.2
2022-10-27T10:04	10	73	1.3	71	75	392	0.5	391	392	11.8	99.2
2022-10-27T10:05	10	85	6.5	75	93	393	1.1	391	394	11.9	99.2
2022-10-27T10:06	10	97	2.6	93	101	394	0.3	394	395	11.9	99.2
2022-10-27T10:07	10	102	0.7	101	103	395	0.5	395	397	11.8	99.2
2022-10-27T10:08	10	113	7.2	103	124	397	0.8	396	399	11.9	99.2
2022-10-27T10:09	10	129	2.6	124	132	400	1.0	398	402	11.9	99.2
2022-10-27T10:10	10	132	1.6	128	134	402	0.2	401	402	12.1	99.2
2022-10-27T10:11	10	127	1.3	125	130	402	0.3	401	403	12.1	99.2
2022-10-27T10:12	10	135	1.6	131	137	403	0.5	402	404	12.2	99.2
2022-10-27T10:13	10	147	9.9	136	161	405	1.0	403	407	12.3	99.2
2022-10-27T10:14	10	161	4.1	157	169	407	0.4	406	408	12.4	99.2
2022-10-27T10:15	10					409	0.5	408	410	12.4	99.2
2022-10-27T10:16	10					408	1.1	406	410	12.4	99.2
2022-10-27T10:17	10	120	10.6	108	144	407	1.3	405	409	12.4	99.2
2022-10-27T10:18	10	99	4.6	93	108	404	1.5	401	406	12.1	99.2
2022-10-27T10:19	10	98	3.6	94	107	402	1.0	400	403	12.3	99.2
2022-10-27T10:20	10	108	0.5	107	110	401	0.4	400	402	12.2	99.2
2022-10-27T10:21	10	122	7.5	109	131	402	0.8	401	404	12.2	99.2
2022-10-27T10:22	10	131	4.2	126	138	403	0.4	403	405	12.1	99.2
2022-10-27T10:23	10	124	7.8	113	137	403	0.8	401	404	12.0	99.2
2022-10-27T10:24	10	128	2.2	121	131	402	0.4	401	403	12.1	99.2
2022-10-27T10:25	10	124	0.6	124	126	402	0.3	401	402	12.0	99.2
2022-10-27T10:26	10	124	1.2	122	126	402	0.4	402	403	12.2	99.2
2022-10-27T10:27	10	119	1.8	116	122	402	0.3	401	403	12.1	99.2
2022-10-27T10:28	10	118	3.9	109	121	403	0.8	401	404	12.4	99.2
2022-10-27T10:29	10	113	4.1	107	118	402	0.4	401	403	12.4	99.2
2022-10-27T10:30	10	121	1.5	118	122	403	0.5	402	404	12.3	99.2
2022-10-27T10:31	10	123	0.7	122	125	404	0.6	403	405	12.5	99.2
2022-10-27T10:32	10	125	0.2	125	125	404	0.5	403	405	12.4	99.2
2022-10-27T10:33	10	124	1.3	120	125	404	0.4	403	405	12.5	99.2
2022-10-27T10:34	10	109	5.1	104	119	404	0.4	404	405	12.5	99.2
2022-10-27T10:35	10	112	6.8	105	128	403	0.4	403	404	12.5	99.2
2022-10-27T10:36	10	132	1.1	128	133	406	0.5	405	407	12.8	99.2
2022-10-27T10:37	10	140	4.0	132	145	408	0.8	406	409	12.9	99.2
2022-10-27T10:38	10	137	6.4	126	145	408	0.5	407	409	12.8	99.2
2022-10-27T10:39	10	119	8.3	108	138	408	0.3	407	408	12.8	99.2
2022-10-27T10:40	10	98	8.2	90	112	403	1.9	401	407	12.4	99.2
2022-10-27T10:41	10	106	8.3	92	122	402	0.5	400	403	12.4	99.2
2022-10-27T10:42	10	116	10.9	96	127	403	0.4	402	403	12.4	99.2
2022-10-27T10:43	10	82	7.4	71	95	401	1.0	400	403	12.5	99.2
2022-10-27T10:44	10	81	8.5	71	95	399	0.5	398	400	12.6	99.2
2022-10-27T10:45	10	89	4.0	84	95	399	0.5	398	399	12.6	99.2
2022-10-27T10:46	10	115	14.8	94	132	400	2.0	397	404	12.5	99.2
2022-10-27T10:47	10	113	7.5	101	124	402	0.5	401	403	12.5	99.2
2022-10-27T10:48	10	132	4.0	124	136	404	1.8	401	406	12.5	99.2
2022-10-27T10:49	10	123	10.5	108	136	405	0.5	404	406	12.5	99.2
2022-10-27T10:50	10	90	12.9	69	108	403	2.1	399	406	12.6	99.2
2022-10-27T10:51	10	55	6.8	47	69	398	1.4	395	400	12.5	99.2
2022-10-27T10:52	10	55	7.8	47	76	395	0.6	394	397	12.5	99.2
2022-10-27T10:53	10	127	21.5	77	146	400	3.3	394	405	12.7	99.2
2022-10-27T10:54	10	117	24.7	75	146	403	1.5	400	405	12.6	99.2
2022-10-27T10:55	10	62	4.6	57	74	398	1.9	395	402	12.6	99.2
2022-10-27T10:56	10	55	4.8	48	62	395	1.1	393	396	12.5	99.2
2022-10-27T10:57	10	52	6.7	47	72	393	0.8	392	395	12.6	99.2
2022-10-27T10:58	10	119	18.4	74	132	398	3.4	392	402	12.8	99.2
2022-10-27T10:59	10	129	0.6	128	130	403	1.7	399	405	12.8	99.2
2022-10-27T11:00	10	127	0.2	127	128	405	1.4	403	408	13.1	99.2
2022-10-27T11:01	10	127	0.3	127	128	407	0.2	406	407	13.0	99.2
2022-10-27T11:02	10	128	0.5	128	129	407	0.6	406	408	12.9	99.2
2022-10-27T11:03	10	131	0.9	129	133	407	0.8	405	409	13.0	99.2
2022-10-27T11:04	10	133	0.4	132	134	407	1.0	405	408	12.8	99.2
2022-10-27T11:05	10	134	0.4	133	135	408	0.3	407	409	12.9	99.2
2022-10-27T11:06	10	135	0.6	134	137	409	0.5	408	410	13.5	99.2
2022-10-27T11:07	10	138	0.8	136	141	411	0.5	410	412	14.1	99.2
2022-10-27T11:08	10	140	0.8	139	141	412	0.4	411	413	14.2	99.2
2022-10-27T11:09	10	141	0.7	139	142	412	0.8	411	414	14.4	99.2
2022-10-27T11:10	10	138	0.4	138	139	412	0.3	412	413	14.3	99.2
2022-10-27T11:11	10	137	0.6	136	138	411	1.1	409	413	14.0	99.2
2022-10-27T11:12	10	135	0.3	135	136	410	0.5	410	411	13.8	99.2
2022-10-27T11:13	10	136	0.3	136	137	411	0.4	411	412	14.0	99.2
2022-10-27T11:14	10	134	1.1	133	136	410	0.4	410	411	13.8	99.2
2022-10-27T11:15	10	130	1.6	127	133	409	0.3	409	410	13.9	99.2
2022-10-27T11:16	10	125	0.6	124	127	410	0.6	408	411	14.0	99.2
2022-10-27T11:17	10	121	1.5	119	124	408	0.5	407	410	13.9	99.2
2022-10-27T11:18	10	119	0.2	119	119	408	0.3	408	409	13.9	99.2
2022-10-27T11:19	10	118	0.3	118	119	409	0.3	408	410	14.1	99.2
2022-10-27T11:20	10	119	0.2	119	120	409	0.7	407	410	14.0	99.2
2022-10-27T11:21	10	120	0.2	120	120	407	0.4	406	408	13.9	99.2
2022-10-27T11:22	10	121	0.2	120	121	407	0.6	406	408	13.9	99.2
2022-10-27T11:23	10	120	0.5	119	121	407	0.3	406	407	13.8	99.2
2022-10-27T11:24	10	119	0.1	119	119	407	0.8	406	408	13.7	99.2
2022-10-27T11:25	10	119	0.1	119	119	407	0.4	407	408	13.8	99.2
2022-10-27T11:26	10	119	0.1	118	119	408	0.5	407	409	14.0	99.2
2022-10-27T11:27	10	119	0.1	119	119	407	0.3	407	408	13.9	99.2
2022-10-27T11:28	10	119	0.2	119	119	407	0.4	406	408	14.1	99.2
2022-10-27T11:29	10	119	0.2	119	119	407	0.9	406	409	14.1	99.2
2022-10-27T11:30	10	119	0.1	119	119	409	0.9	408	411	14.4	99.2
2022-10-27T11:31	10	119	0.1	119	119	409	0.6	408	411	14.3	99.2
2022-10-27T11:32	10	119	0.1	119	120	409	0.5	408	410	14.1	99.2
2022-10-27T11:33	10	120	0.2	119	120	409	0.4	408	410	14.2	99.2
2022-10-27T11:34	10	120	0.1	120	120	409	0.8	408	411	14.3	99.2
2022-10-27T11:35	10	120	0.1	119	120	409	0.4	409	410	14.2	99.2
2022-10-27T11:36	10	119	0.1	119	120	410	0.4	409	410	14.3	99.2
2022-10-27T11:37	10	119	0.1	119	120	409	0.5	409	410	14.4	99.2
2022-10-27T11:38	10	119	0.1	119	120	410	0.6	409	411	14.5	99.2
2022-10-27T11:39	10	120	0.1	119	120	410	0.6	409	411	14.4	99.2
2022-10-27T11:40	10	119	0.3	118	119	409	0.4	408	410	14.6	99.2
2022-10-27T11:41	10	119	0.2	118	119	409	0.5	408	410	14.5	99.2
2022-10-27T11:42	10	119	0.2	119	120	408	0.4	408	410	14.2	99.2
2022-10-27T11:43	10	119	0.1	119	120	409	0.8	407	410	14.3	99.2
2022-10-27T11:44	10	119	0.3	118	119	408	0.4	407	409	14.1	99.2
2022-10-27T11:45	10	118	0.3	118	119	408	0.8	406	409	14.5	99.2
2022-10-27T11:46	10	118	0.2	117	118	407	0.5	406	408	14.4	99.2
2022-10-27T11:47	10	118	0.3	118	119	407	0.7	405	408	14.5	99.2
2022-10-27T11:48	10	119	0.3	118	119	407	0.3	406	407	14.4	99.2
2022-10-27T11:49	10	119	0.1	119	120	408	0.5	407	409	14.4	99.2
2022-10-27T11:50	10	120	0.1	119	120	408	0.8	407	410	14.5	99.2
2022-10-27T11:51	10	120	0.2	119	120	407	0.5	406	408	14.4	99.2
2022-10-27T11:52	10	121	0.7	120	123	406	0.9	404	407	14.2	99.2
2022-10-27T11:53	10	127	2.2	123	130	404	0.7	403	405	14.1	99.2
2022-10-27T11:54	10	135	3.1	130	140	406	1.3	404	409	14.1	99.2
2022-10-27T11:55	10	131	10.5	110	143	407	0.8	405	408	14.1	99.2
2022-10-27T11:56	10	104	15.4	74	129	406	0.9	404	408	13.7	99.2
2022-10-27T11:57	10	62	3.6	57	73	401	1.5	399	404	13.6	99.2
2022-10-27T11:58	10	55	1.4	53	59	399	0.7	397	400	13.7	99.2
2022-10-27T11:59	10	82	11.6	59	98	399	1.5	396	401	13.7	99.2
2022-10-27T12:00	10	65	8.5	56	83	400	0.8	398	401	13.8	99.2
2022-10-27T12:01	10	56	1.8	54	60	398	0.5	397	399	14.0	99.2
2022-10-27T12:02	10	70	8.1	60	92	398	1.2	397	400	13.9	99.2
2022-10-27T12:03	10	125	12.9	94	141	403	2.7	397	406	13.7	99.2
2022-10-27T12:04	10	99	10.9	86	117	404	0.2	404	405	13.6	99.2
2022-10-27T12:05	10	87	3.7	81	92	404	0.4	403	404	13.8	99.2
2022-10-27T12:06	10	78	7.0	64	85	403	0.9	401	404	13.9	99.2
2022-10-27T12:07	10	73	6.1	64	81	401	0.4	400	402	13.8	99.2
2022-10-27T12:08	10	99	14.1	81	126	401	1.2	400	404	13.7	99.2
2022-10-27T12:09	10	130	2.7	126	135	405	1.0	403	407	13.9	99.2
2022-10-27T12:10	10	125	5.4	117	134	406	0.5	405	407	13.8	99.2
2022-10-27T12:11	10	109	6.5	93	117	406	0.5	405	407	14.0	99.2
2022-10-27T12:12	10	101	13.3	87	124	405	0.6	404	406	14.0	99.2
2022-10-27T12:13	10	124	1.7	119	125	406	0.5	405	407	14.0	99.2
2022-10-27T12:14	10	111	3.3	106	118	405	0.7	404	407	13.8	99.2
2022-10-27T12:15	10	110	5.2	105	118	405	0.9	404	407	13.9	99.2
2022-10-27T12:16	10	118	0.3	117	118	407	0.4	406	407	14.0	99.2
2022-10-27T12:17	10	114	1.8	111	117	407	0.3	406	407	14.0	99.2
2022-10-27T12:18	10	110	0.4	109	111	408	0.7	406	409	14.3	99.2
2022-10-27T12:19	10	113	1.0	110	114	408	0.4	407	409	14.3	99.2
2022-10-27T12:20	10	113	0.4	113	115	409	0.5	408	410	14.4	99.2
2022-10-27T12:21	10	115	0.3	114	116	409	0.3	408	410	14.6	99.2
2022-10-27T12:22	10	117	0.4	116	118	410	0.6	409	411	14.7	99.2
2022-10-27T12:23	10	118	0.2	117	118	411	0.3	410	411	14.8	99.2
2022-10-27T12:24	10	116	0.6	115	117	410	0.5	409	411	14.8	99.2
2022-10-27T12:25	10	114	0.7	113	115	409	0.5	408	410	14.7	99.2
2022-10-27T12:26	10	114	0.5	113	115	410	0.4	409	411	14.8	99.2
2022-10-27T12:27	10	113	0.5	112	114	411	0.4	410	412	14.9	99.2
2022-10-27T12:28	10	114	0.5	112	114	411	0.6	410	412	14.8	99.2
2022-10-27T12:29	10	113	1.2	112	115	411	0.9	409	412	14.8	99.2
2022-10-27T12:30	10	114	1.0	112	115	409	0.6	408	410	14.6	99.2
2022-10-27T12:31	10	112	1.2	108	113	407	0.8	406	409	14.5	99.2
2022-10-27T12:32	10	108	0.6	107	109	406	0.4	406	407	14.6	99.2
2022-10-27T12:33	10	110	0.6	109	111	408	0.7	407	410	14.8	99.2
2022-10-27T12:34	10	111	0.3	110	111	409	0.6	408	410	14.9	99.2
2022-10-27T12:35	10	110	0.4	109	110	410	0.6	408	411	14.9	99.2
2022-10-27T12:36	10	108	0.4	108	109	410	0.4	409	411	15.1	99.2
2022-10-27T12:37	10	110	0.2	109	111	409	0.4	408	410	15.0	99.2
2022-10-27T12:38	10	110	0.8	109	112	410	0.6	409	411	15.1	99.2
2022-10-27T12:39	10	111	0.7	109	112	409	0.4	408	410	14.9	99.2
2022-10-27T12:40	10	111	0.4	110	111	408	0.4	408	410	14.8	99.2
2022-10-27T12:41	10	110	0.2	110	111	409	0.4	408	409	14.8	99.2
2022-10-27T12:42	10	111	0.2	110	111	409	0.3	408	410	14.9	99.2
2022-10-27T12:43	10	111	0.1	111	111	410	0.4	409	411	15.2	99.2
2022-10-27T12:44	10	111	0.2	111	111	411	0.5	411	413	15.4	99.2
2022-10-27T12:45	10	110	0.7	109	111	410	0.9	409	412	15.2	99.2
2022-10-27T12:46	10	108	0.7	106	109	409	0.6	408	410	15.1	99.2
2022-10-27T12:47	10	110	0.5	109	111	408	0.3	408	409	15.0	99.2
2022-10-27T12:48	10	109	0.2	109	110	408	0.4	408	409	15.1	99.2
2022-10-27T12:49	10	109	0.2	108	109	409	0.3	408	409	15.1	98.9
2022-10-27T12:50	10	108	0.2	108	109	409	0.3	408	409	15.0	98.5
2022-10-27T12:51	10	109	0.3	108	109	409	0.2	409	410	15.0	98.0
2022-10-27T12:52	10	109	0.4	108	109	410	0.7	409	411	15.4	97.4
2022-10-27T12:53	10	108	0.3	108	109	409	0.5	408	410	15.4	95.9
2022-10-27T12:54	10	108	0.3	107	108	408	0.5	407	409	15.1	93.4
2022-10-27T12:55	10	107	0.1	107	108	409	0.5	408	410	15.2	91.7
2022-10-27T12:56	10	108	0.2	107	108	409	0.2	408	409	15.3	90.1
2022-10-27T12:57	10	108	0.1	107	108	409	0.6	408	410	15.4	89.1
2022-10-27T12:58	10	106	1.3	104	108	409	0.7	408	411	15.2	88.2
2022-10-27T12:59	10	104	0.6	103	105	409	0.3	408	409	15.3	88.0
2022-10-27T13:00	10	105	0.1	104	105	409	0.5	408	410	15.4	87.7
2022-10-27T13:01	10	106	0.5	105	107	410	0.7	409	411	15.6	88.2
2022-10-27T13:02	10	106	0.4	105	107	410	0.3	409	410	15.4	87.5
2022-10-27T13:03	10	106	0.2	106	107	409	0.5	408	410	15.4	88.0
2022-10-27T13:04	10	107	0.3	106	107	409	0.5	408	410	15.4	87.8
2022-10-27T13:05	10	106	0.2	105	106	410	0.4	409	411	15.5	87.5
2022-10-27T13:06	10	106	0.7	105	107	411	0.3	410	411	15.7	87.7
2022-10-27T13:07	10	108	0.3	107	108	411	0.7	410	412	15.8	87.7
2022-10-27T13:08	10	108	0.3	108	109	411	0.7	409	412	15.7	87.2
2022-10-27T13:09	10	107	0.4	107	108	409	0.5	408	410	15.4	86.9
2022-10-27T13:10	10	107	0.2	106	107	410	0.5	408	411	15.5	87.1
2022-10-27T13:11	10	107	0.2	106	107	411	0.7	410	412	15.7	87.7
2022-10-27T13:12	10	105	0.9	103	106	411	0.5	410	412	15.9	87.3
2022-10-27T13:13	10	102	1.3	101	106	410	0.4	410	411	15.8	86.7
2022-10-27T13:14	10	104	0.7	102	105	410	0.6	409	411	15.8	86.7
2022-10-27T13:15	10	103	0.4	103	104	410	0.4	409	411	15.7	87.7
2022-10-27T13:16	10	101	0.6	100	103	411	0.5	409	411	16.1	88.3
2022-10-27T13:17	10	100	0.4	99	101	409	0.6	408	411	15.8	87.1
2022-10-27T13:18	10	102	0.6	100	103	408	0.3	408	409	15.6	87.7
2022-10-27T13:19	10	103	0.2	102	103	409	0.6	408	410	15.6	88.5
2022-10-27T13:20	10	101	0.6	101	102	409	0.5	408	410	15.6	88.0
2022-10-27T13:21	10	100	0.6	99	101	409	0.6	408	410	15.4	88.1
2022-10-27T13:22	10	99	0.3	99	100	408	0.3	407	409	15.4	88.3
2022-10-27T13:23	10	99	0.7	98	100	408	0.4	407	409	15.5	88.3
2022-10-27T13:24	10	100	0.1	99	100	407	0.3	406	408	15.4	88.2
2022-10-27T13:25	10	100	0.4	99	101	407	0.4	406	408	15.4	87.9
2022-10-27T13:26	10	100	0.3	99	101	408	0.2	408	409	15.6	88.0
2022-10-27T13:27	10	98	1.1	95	99	408	0.2	408	409	15.6	87.8
2022-10-27T13:28	10	93	1.9	90	96	408	0.5	407	409	15.7	87.7
2022-10-27T13:29	10	86	3.1	81	91	407	0.7	405	408	15.7	87.7
2022-10-27T13:30	10	83	1.7	80	85	406	0.4	405	407	15.6	87.0
2022-10-27T13:31	10	84	1.6	82	86	406	0.3	406	407	15.6	87.2
2022-10-27T13:32	10	82	1.1	79	83	406	0.6	405	407	15.8	87.2
2022-10-27T13:33	10	81	1.8	79	84	405	0.6	404	406	15.6	86.8
2022-10-27T13:34	10	83	0.9	82	84	404	0.2	404	405	15.6	86.4
2022-10-27T13:35	10	78	2.4	74	82	404	0.4	403	405	15.5	86.4
2022-10-27T13:36	10	72	0.7	71	74	404	0.3	403	405	15.5	86.4
2022-10-27T13:37	10	76	1.5	73	78	405	0.3	404	405	15.6	86.5
2022-10-27T13:38	10	71	1.1	69	74	404	0.2	404	405	15.6	86.6
2022-10-27T13:39	10	73	2.2	69	77	404	0.4	403	405	15.7	86.6
2022-10-27T13:40	10	76	0.7	75	77	405	0.4	404	405	15.7	86.7
2022-10-27T13:41	10	74	1.7	71	76	406	0.3	405	406	15.9	86.9
2022-10-27T13:42	10	73	1.1	71	74	406	0.2	405	406	15.9	86.8
2022-10-27T13:43	10	76	0.8	74	77	406	0.3	405	406	15.8	86.4
2022-10-27T13:44	10	76	0.9	74	77	405	0.3	405	406	15.9	86.3
2022-10-27T13:45	10	70	1.2	68	73	404	0.5	403	406	16.0	86.3
2022-10-27T13:46	10	72	1.0	71	74	404	0.3	404	405	15.9	85.7
2022-10-27T13:47	10	68	1.9	65	72	404	0.3	404	405	15.9	85.6
2022-10-27T13:48	10	64	0.7	63	65	404	0.3	404	405	15.9	85.3
2022-10-27T13:49	10	61	0.7	60	62	404	0.3	403	405	15.9	85.0
2022-10-27T13:50	10	63	0.4	62	64	404	0.2	403	404	16.0	85.0
2022-10-27T13:51	10	61	1.0	60	63	404	0.5	403	405	16.1	85.7
2022-10-27T13:52	10	60	1.2	57	61	403	0.4	403	404	16.0	84.9
2022-10-27T13:53	10	59	0.9	57	60	403	0.5	402	404	16.0	85.2
2022-10-27T13:54	10	58	0.6	56	58	403	0.3	403	404	16.0	84.6
2022-10-27T13:55	10	56	0.6	55	57	403	0.5	402	404	16.1	84.6
2022-10-27T13:56	10	55	1.4	53	57	403	0.3	403	404	16.1	84.5
2022-10-27T13:57	10	54	0.5	53	55	403	0.5	402	404	16.2	84.7
2022-10-27T13:58	10	50	2.0	46	53	403	0.5	401	404	16.3	84.9
2022-10-27T13:59	10	42	1.8	39	46	401	0.7	400	402	16.1	84.2
2022-10-27T14:00	10	37	0.7	36	39	400	0.5	399	401	16.0	84.5
2022-10-27T14:01	10	37	0.7	36	39	399	0.2	399	400	16.0	84.8
2022-10-27T14:02	10	40	2.0	38	45	399	0.2	399	400	16.1	85.4
2022-10-27T14:03	10	45	1.5	43	47	400	0.3	399	400	16.1	85.6
2022-10-27T14:04	10	45	2.2	43	48	400	0.3	399	401	16.1	85.5
2022-10-27T14:05	10	47	1.0	44	48	400	0.3	400	401	16.1	85.2
2022-10-27T14:06	10	33	4.7	27	43	399	0.8	398	400	16.1	84.8
2022-10-27T14:07	10	26	0.7	25	27	398	0.4	397	398	16.1	84.8
2022-10-27T14:08	10	26	0.2	25	26	397	0.3	396	397	16.1	84.8
2022-10-27T14:09	10	24	0.7	23	25	396	0.3	395	396	16.1	85.6
2022-10-27T14:10	10	23	0.1	22	23	395	0.4	395	396	16.1	85.5
2022-10-27T14:11	10	22	0.3	22	23	395	0.3	394	396	16.1	85.3
2022-10-27T14:12	10	23	0.3	23	24	394	0.2	394	395	16.1	84.9
2022-10-27T14:13	10	24	0.4	23	25	395	0.2	394	395	16.0	85.3
2022-10-27T14:14	10	25	0.7	24	27	394	0.3	394	395	16.0	85.7
2022-10-27T14:15	10	28	0.2	27	28	395	0.2	394	395	16.0	86.0
2022-10-27T14:16	10	28	0.1	28	28	395	0.3	394	395	16.0	86.4
2022-10-27T14:17	10	28	0.6	27	29	394	0.3	394	395	15.9	86.4
2022-10-27T14:18	10	27	0.4	27	28	394	0.4	393	395	15.9	86.3
2022-10-27T14:19	10	29	0.6	28	30	394	0.3	394	395	15.9	86.3
2022-10-27T14:20	10	30	0.2	30	31	394	0.3	394	395	15.9	86.5
2022-10-27T14:21	10	31	1.2	30	34	395	0.3	394	395	16.0	86.4
2022-10-27T14:22	10	37	1.7	34	40	395	0.3	394	396	16.0	86.5
2022-10-27T14:23	10	44	3.8	40	51	396	0.6	395	397	16.0	86.4
2022-10-27T14:24	10	54	1.3	51	56	398	0.6	396	399	16.0	86.4
2022-10-27T14:25	10	51	4.0	46	57	398	0.3	398	399	16.0	86.4
2022-10-27T14:26	10	48	3.7	44	56	399	0.3	398	399	16.1	86.2
2022-10-27T14:27	10	43	0.4	42	44	398	0.3	398	399	16.1	86.4
2022-10-27T14:28	10	40	1.4	38	42	397	0.3	397	398	16.1	86.6
2022-10-27T14:29	10	36	0.4	36	38	397	0.2	396	397	16.1	86.8
2022-10-27T14:30	10	38	1.0	37	40	397	0.2	396	397	16.1	86.6
2022-10-27T14:31	10	40	1.1	38	41	397	0.2	397	398	16.1	86.7
2022-10-27T14:32	10	36	1.3	33	38	397	0.4	396	398	16.1	86.6
2022-10-27T14:33	10	31	1.0	30	33	397	0.6	395	397	16.1	86.9
2022-10-27T14:34	10	30	0.2	29	30	397	0.3	396	397	16.0	86.3
2022-10-27T14:35	10	29	0.2	29	30	396	0.4	395	397	16.1	86.3
2022-10-27T14:36	10	29	0.1	29	29	396	0.2	396	396	16.0	86.4
2022-10-27T14:37	10	29	0.1	28	29	396	0.2	395	397	16.0	87.1
2022-10-27T14:38	10	28	0.1	28	29	396	0.2	395	396	16.0	86.5
2022-10-27T14:39	10	29	0.1	28	29	395	0.2	395	396	16.0	86.4
2022-10-27T14:40	10	29	0.1	28	29	395	0.3	395	396	16.0	86.6
2022-10-27T14:41	10	29	0.1	28	29	396	0.3	395	396	16.0	86.8
2022-10-27T14:42	10	29	0.1	28	29	396	0.3	395	396	16.0	87.1
2022-10-27T14:43	10	29	0.1	29	29	395	0.2	395	396	15.9	86.7
2022-10-27T14:44	10	29	0.2	29	29	395	0.4	394	396	15.9	86.9
2022-10-27T14:45	10	29	0.1	29	30	395	0.3	395	396	15.9	86.8
2022-10-27T14:46	10	29	0.2	28	29	395	0.2	395	396	16.0	86.5
2022-10-27T14:47	10	28	0.2	28	28	395	0.2	395	396	16.0	86.4
2022-10-27T14:48	10	27	0.3	26	28	395	0.3	394	396	16.0	86.1
2022-10-27T14:49	10	26	0.3	25	27	395	0.4	394	396	16.0	86.5
2022-10-27T14:50	10	25	0.2	25	25	395	0.4	394	395	16.0	86.2
2022-10-27T14:51	10	24	0.3	24	25	394	0.2	394	395	16.0	86.0
2022-10-27T14:52	10	23	0.3	22	24	394	0.3	393	395	16.0	86.4
2022-10-27T14:53	10	22	0.3	21	22	394	0.2	393	394	16.0	86.6
2022-10-27T14:54	10	21	0.2	21	21	393	0.3	393	394	16.0	86.8
2022-10-27T14:55	10	20	0.2	20	21	393	0.2	393	394	16.0	86.5
2022-10-27T14:56	10	20	0.2	19	20	393	0.2	392	393	16.0	86.8
2022-10-27T14:57	10	19	0.2	19	20	393	0.2	392	393	16.0	86.9
2022-10-27T14:58	10	19	0.1	19	19	393	0.2	392	393	16.0	86.8
2022-10-27T14:59	10	18	0.1	18	19	392	0.3	392	393	16.0	87.0
2022-10-27T15:00	10	18	0.1	18	18	392	0.4	391	393	15.9	87.1
2022-10-27T15:01	10	18	0.1	17	18	392	0.5	391	393	15.9	87.3
2022-10-27T15:02	10	18	0.1	17	18	392	0.3	391	392	15.9	87.6
2022-10-27T15:03	10	18	0.1	18	18	392	0.2	391	392	15.9	87.3
2022-10-27T15:04	10	18	0.1	18	18	391	0.2	391	391	15.9	87.1
2022-10-27T15:05	10	18	0.1	18	18	391	0.2	391	391	15.9	87.1
2022-10-27T15:06	10	18	0.1	17	18	391	0.2	390	391	15.9	87.1
2022-10-27T15:07	10	18	0.1	17	18	391	0.3	390	391	15.9	87.0
2022-10-27T15:08	10	18	0.1	17	18	390	0.2	390	391	15.9	86.7
2022-10-27T15:09	10	18	0.1	17	18	390	0.2	390	391	15.9	86.4
2022-10-27T15:10	10	18	0.1	18	18	390	0.2	390	391	15.9	86.7
2022-10-27T15:11	10	18	0.2	18	19	390	0.3	390	391	15.9	87.0
2022-10-27T15:12	10	20	1.0	19	22	390	0.3	390	391	15.9	87.2
2022-10-27T15:13	10	25	1.6	22	28	391	0.3	390	391	15.9	87.2
2022-10-27T15:14	10	28	0.6	27	30	392	0.4	391	392	15.9	87.1
2022-10-27T15:15	10	29	0.7	28	30	392	0.2	392	393	15.9	87.0
2022-10-27T15:16	10	24	1.6	22	27	392	0.3	392	393	16.0	86.9
2022-10-27T15:17	10	21	0.5	20	22	392	0.3	391	393	15.9	86.8
2022-10-27T15:18	10	23	2.7	20	27	392	0.3	391	392	15.9	87.1
2022-10-27T15:19	10	28	1.5	27	31	392	0.3	392	393	15.9	87.3
2022-10-27T15:20	10	32	0.7	31	33	393	0.2	392	393	15.9	87.1
2022-10-27T15:21	10	31	0.6	30	33	393	0.2	393	394	15.9	87.2
2022-10-27T15:22	10	29	0.9	27	30	393	0.2	393	394	15.9	87.4
2022-10-27T15:23	10	24	1.3	22	27	393	0.4	392	393	15.9	87.5
2022-10-27T15:24	10	22	0.6	22	24	393	0.3	392	393	15.9	87.2
2022-10-27T15:25	10	28	2.6	24	33	393	0.4	392	394	15.9	87.4
2022-10-27T15:26	10	33	0.5	31	33	393	0.3	393	394	15.9	87.3
2022-10-27T15:27	10	27	2.0	24	31	393	0.4	392	394	15.9	86.9
2022-10-27T15:28	10	23	0.4	22	24	393	0.2	392	394	15.9	87.1
2022-10-27T15:29	10	22	0.7	21	23	393	0.3	392	393	15.9	87.5
2022-10-27T15:30	10	20	0.2	20	21	392	0.4	392	393	15.9	87.1
2022-10-27T15:31	10	20	0.3	20	21	392	0.2	392	393	15.9	87.3
2022-10-27T15:32	10	23	1.2	21	25	392	0.3	391	393	15.9	87.4
2022-10-27T15:33	10	25	0.2	25	26	392	0.2	392	393	15.9	87.5
2022-10-27T15:34	10	23	0.8	22	25	392	0.2	392	393	15.9	87.5
2022-10-27T15:35	10	20	0.8	19	22	392	0.3	392	393	15.9	87.4
2022-10-27T15:36	10	18	0.4	18	19	392	0.2	391	392	15.9	87.7
2022-10-27T15:37	10	18	0.1	18	18	391	0.2	391	392	15.9	87.9
2022-10-27T15:38	10	18	0.1	18	18	391	0.2	391	392	15.9	87.7
2022-10-27T15:39	10	18	0.1	18	18	391	0.2	391	392	15.9	87.7
2022-10-27T15:40	10	18	0.2	17	18	391	0.3	390	392	15.9	87.8
2022-10-27T15:41	10	17	0.2	17	18	391	0.2	390	391	15.9	87.8
2022-10-27T15:42	10	17	0.1	17	17	390	0.3	389	391	15.9	88.0
2022-10-27T15:43	10	17	0.1	17	17	390	0.2	390	391	15.9	87.9
2022-10-27T15:44	10	17	0.1	17	17	390	0.3	389	390	15.9	88.1
2022-10-27T15:45	10	17	0.1	17	17	390	0.2	389	390	15.9	88.1
2022-10-27T15:46	10	16	0.4	15	17	389	0.2	389	390	15.9	88.3
2022-10-27T15:47	10	15	0.2	14	16	389	0.2	389	390	15.9	88.0
2022-10-27T15:48	10	15	0.2	14	15	389	0.2	388	389	15.9	88.0
2022-10-27T15:49	10	16	0.3	15	16	389	0.2	388	389	15.8	88.3
2022-10-27T15:50	10	17	0.1	16	17	389	0.2	388	389	15.8	88.4
2022-10-27T15:51	10	16	0.1	16	17	389	0.2	388	389	15.8	88.6
2022-10-27T15:52	10	16	0.3	15	16	388	0.2	388	389	15.8	88.8
2022-10-27T15:53	10	15	0.4	14	15	388	0.3	387	389	15.8	88.8
2022-10-27T15:54	10	13	0.3	13	14	388	0.2	387	388	15.8	88.9
2022-10-27T15:55	10	13	0.1	12	13	388	0.3	387	388	15.8	89.1
2022-10-27T15:56	10	12	0.1	12	13	388	0.2	387	388	15.8	89.2
2022-10-27T15:57	10	12	0.1	12	12	387	0.2	387	387	15.8	89.3
2022-10-27T15:58	10	12	0.1	12	12	387	0.3	386	387	15.8	89.4
2022-10-27T15:59	10	12	0.1	12	12	387	0.2	386	387	15.7	89.5
2022-10-27T16:00	10	12	0.2	11	12	386	0.3	386	387	15.7	89.6
2022-10-27T16:01	10	11	0.2	11	11	386	0.3	386	387	15.7	89.5
2022-10-27T16:02	10	11	0.1	10	11	386	0.2	386	387	15.7	89.4
2022-10-27T16:03	10	10	0.1	10	10	386	0.2	385	386	15.8	89.3
2022-10-27T16:04	10	10	0.1	10	10	385	0.2	385	386	15.8	89.3
2022-10-27T16:05	10	9	0.2	9	10	385	0.3	385	386	15.7	89.3
2022-10-27T16:06	10	9	0.2	9	9	385	0.2	385	386	15.7	89.4
2022-10-27T16:07	10	8	0.2	8	9	385	0.3	384	385	15.7	89.6
2022-10-27T16:08	10	8	0.2	7	8	384	0.3	384	385	15.7	89.7
2022-10-27T16:09	10	7	0.2	7	8	384	0.3	383	385	15.7	89.8
2022-10-27T16:10	10	7	0.2	6	7	384	0.2	383	385	15.7	89.8
2022-10-27T16:11	10	6	0.2	6	6	384	0.3	383	384	15.7	89.8
2022-10-27T16:12	10	5	0.2	5	6	383	0.3	383	384	15.7	89.9
2022-10-27T16:13	10	5	0.2	5	5	383	0.2	382	383	15.7	90.2
2022-10-27T16:14	10	4	0.1	4	5	383	0.2	382	383	15.7	90.3
2022-10-27T16:15	10	4	0.2	4	4	382	0.2	382	383	15.7	90.1
2022-10-27T16:16	10	4	0.2	3	4	382	0.2	381	382	15.8	89.6
2022-10-27T16:17	10	3	0.2	3	3	381	0.2	381	382	15.8	89.4
2022-10-27T16:18	10	2	0.1	2	3	381	0.2	380	381	15.8	89.3
2022-10-27T16:19	10	2	0.1	2	2	380	0.2	379	381	15.8	89.3
2022-10-27T16:20	10	2	0.1	2	2	380	0.2	379	380	15.8	89.3
2022-10-27T16:21	10	2	0.1	2	2	379	0.2	379	380	15.7	89.2
2022-10-27T16:22	10	2	0.1	2	2	379	0.2	378	379	15.7	89.3
2022-10-27T16:23	10	2	0.1	1	2	378	0.2	378	379	15.7	89.4
2022-10-27T16:24	10	1	0.1	1	2	378	0.3	377	379	15.6	89.5
2022-10-27T16:25	10	1	0.1	1	2	378	0.3	377	378	15.5	90.0
2022-10-27T16:26	10	1	0.1	1	1	376	0.5	375	377	15.4	90.8
2022-10-27T16:27	10	1	0.1	1	1	375	0.2	375	376	15.2	91.4
2022-10-27T16:28	10	1	0.1	1	1	375	0.2	375	376	15.2	91.9
2022-10-27T16:29	10	1	0.1	1	1	375	0.2	374	375	15.2	92.2
2022-10-27T16:30	10	1	0.1	1	1	374	0.3	374	375	15.2	92.5
2022-10-27T16:31	10	1	0.1	1	1	374	0.3	373	375	15.2	92.7
2022-10-27T16:32	10	1	0.1	1	1	374	0.2	373	374	15.2	92.7
2022-10-27T16:33	10	1	0.1	1	1	373	0.2	373	374	15.2	92.5
2022-10-27T16:34	10	1	0.1	1	1	373	0.2	372	373	15.2	92.4
2022-10-27T16:35	10	1	0.1	0	1	373	0.2	372	374	15.2	92.5
2022-10-27T16:36	10	1	0.1	1	1	373	0.3	372	374	15.2	92.8
2022-10-27T16:37	10	1	0.2	1	1	373	0.3	372	374	15.2	93.0
2022-10-27T16:38	10	1	0.1	1	1	373	0.2	372	373	15.2	93.0
2022-10-27T16:39	10	1	0.1	1	1	372	0.3	372	373	15.1	93.1
2022-10-27T16:40	10	1	0.2	0	1	372	0.3	371	372	15.0	93.3
2022-10-27T16:41	10	1	0.1	0	1	372	0.5	371	373	15.0	93.8
2022-10-27T16:42	10	1	0.1	0	1	373	0.2	373	374	15.0	94.1
2022-10-27T16:43	10	1	0.1	0	1	373	0.3	372	373	14.9	94.2
2022-10-27T16:44	10	1	0.1	0	1	372	0.2	372	373	14.9	94.4
2022-10-27T16:45	10	1	0.1	0	1	372	0.2	371	372	14.9	94.6
2022-10-27T16:46	10	1	0.1	0	1	372	0.2	371	372	15.0	94.8
2022-10-27T16:47	10	1	0.1	0	1	371	0.2	371	372	15.0	94.9
2022-10-27T16:48	10	1	0.1	0	1	371	0.4	370	371	14.9	94.8
2022-10-27T16:49	10	1	0.1	0	1	370	0.2	369	370	14.7	94.6
2022-10-27T16:50	10	1	0.1	0	1	370	0.2	369	370	14.6	94.8
2022-10-27T16:51	10	1	0.1	0	1	370	0.3	369	370	14.7	95.0
2022-10-27T16:52	10	1	0.1	0	1	370	0.3	370	371	14.8	95.1
2022-10-27T16:53	10	1	0.1	0	1	370	0.3	370	371	14.9	94.9
2022-10-27T16:54	10	1	0.1	0	1	371	0.2	370	371	14.8	94.6
2022-10-27T16:55	10	1	0.1	0	1	371	0.2	370	371	14.7	94.6
2022-10-27T16:56	10	1	0.1	1	1	370	0.3	370	371	14.6	94.7
2022-10-27T16:57	10	1	0.1	1	1	370	0.2	369	370	14.6	95.1
2022-10-27T16:58	10	1	0.1	0	1	369	0.3	369	370	14.6	95.3
2022-10-27T16:59	10	1	0.1	0	1	370	0.3	369	371	14.6	95.6
2022-10-27T17:00	10	1	0.1	0	1	370	0.3	370	371	14.7	95.7
2022-10-27T17:01	10	0	0.1	0	1	371	0.2	370	371	14.6	95.6
2022-10-27T17:02	10	0	0.1	0	0	370	0.2	370	371	14.5	95.7
2022-10-27T17:03	10	0	0.1	0	0	370	0.2	369	370	14.6	95.8
2022-10-27T17:04	10	0	0.1	0	1	370	0.3	369	370	14.8	95.8
2022-10-27T17:05	10	1	0.1	0	1	369	0.3	369	370	14.8	95.6
2022-10-27T17:06	10	1	0.1	0	1	369	0.3	369	370	14.9	95.6
2022-10-27T17:07	10	1	0.1	1	1	369	0.2	369	370	15.0	95.6
2022-10-27T17:08	10	1	0.1	1	1	369	0.3	369	370	15.0	95.4
2022-10-27T17:09	10	1	0.1	1	1	369	0.2	369	370	14.9	95.3
2022-10-27T17:10	10	1	0.1	0	1	369	0.3	369	370	14.8	95.2
2022-10-27T17:11	10	1	0.1	0	1	370	0.2	369	370	14.7	95.5
2022-10-27T17:12	10	1	0.1	0	1	370	0.2	369	370	14.6	95.6
2022-10-27T17:13	10	1	0.1	0	1	369	0.2	369	370	14.4	95.7
2022-10-27T17:14	10	0	0.1	0	1	369	0.3	368	370	14.3	96.0
2022-10-27T17:15	10	0	0.1	0	1	368	0.4	367	369	14.2	96.2
2022-10-27T17:16	10	0	0.1	0	1	367	0.2	367	367	14.1	96.3
2022-10-27T17:17	10	0	0.1	0	1	367	0.2	367	368	14.1	96.5
2022-10-27T17:18	10	0	0.1	0	1	367	0.2	367	368	14.1	96.7
2022-10-27T17:19	10	1	0.1	0	1	367	0.3	366	368	14.2	96.9
2022-10-27T17:20	10	0	0.1	0	1	367	0.2	366	367	14.2	97.0
2022-10-27T17:21	10	1	0.1	0	1	367	0.2	366	367	14.2	97.1
2022-10-27T17:22	10	1	0.1	0	1	367	0.2	366	367	14.2	97.2
2022-10-27T17:23	10	1	0.1	0	1	366	0.2	366	367	14.2	97.3
2022-10-27T17:24	10	1	0.1	0	1	367	0.2	366	367	14.2	97.4
2022-10-27T17:25	10	1	0.1	0	1	367	0.4	366	368	14.3	97.5
2022-10-27T17:26	10	1	0.1	0	1	367	0.2	366	367	14.2	97.6
2022-10-27T17:27	10	1	0.1	0	1	367	0.3	366	367	14.2	97.6
2022-10-27T17:28	10	1	0.1	0	1	367	0.2	366	367	14.3	97.7
2022-10-27T17:29	10	1	0.1	0	1	367	0.2	366	367	14.3	97.8
2022-10-27T17:30	10	1	0.1	1	1	367	0.3	366	367	14.4	97.9
2022-10-27T17:31	10	1	0.1	0	1	367	0.2	366	367	14.3	97.8
2022-10-27T17:32	10	1	0.1	0	1	366	0.3	366	367	14.4	97.7
2022-10-27T17:33	10	1	0.1	1	1	366	0.2	366	367	14.4	97.6
2022-10-27T17:34	10	1	0.1	0	1	366	0.4	366	367	14.3	97.4
2022-10-27T17:35	10	1	0.1	0	1	366	0.2	366	367	14.3	97.4
2022-10-27T17:36	10	1	0.1	0	1	366	0.4	365	367	14.2	97.4
2022-10-27T17:37	10	1	0.1	0	1	366	0.3	365	367	14.2	97.3
2022-10-27T17:38	10	1	0.1	0	1	366	0.4	365	367	14.1	97.2
2022-10-27T17:39	10	1	0.1	0	1	366	0.4	365	367	14.2	97.2
2022-10-27T17:40	10	1	0.1	0	1	366	0.2	365	366	14.2	97.0
2022-10-27T17:41	10	0	0.1	0	1	366	0.5	365	367	14.1	96.8
2022-10-27T17:42	10	0	0.1	0	1	366	0.3	365	366	14.0	96.8
2022-10-27T17:43	10	0	0.1	0	1	366	0.5	365	367	13.9	97.0
2022-10-27T17:44	10	0	0.1	0	1	367	0.3	366	367	13.7	97.1
2022-10-27T17:45	10	0	0.1	0	1	367	0.3	366	367	13.7	97.3
2022-10-27T17:46	10	0	0.1	0	1	367	0.4	366	368	13.8	97.4
2022-10-27T17:47	10	0	0.1	0	0	367	0.3	366	367	13.8	97.5
2022-10-27T17:48	10	0	0.1	0	0	367	0.2	366	367	13.7	97.5
2022-10-27T17:49	10	0	0.1	0	0	366	0.2	366	367	13.6	97.5
2022-10-27T17:50	10	0	0.1	0	0	366	0.2	365	366	13.6	97.5
2022-10-27T17:51	10	0	0.1	0	1	366	0.2	366	367	13.6	97.6
2022-10-27T17:52	10	1	0.1	0	1	366	0.2	365	366	13.6	97.7
2022-10-27T17:53	10	1	0.1	0	1	366	0.2	366	367	13.6	97.7
2022-10-27T17:54	10	1	0.1	1	1	366	0.2	365	366	13.7	97.8
2022-10-27T17:55	10	1	0.1	0	1	366	0.2	365	367	13.7	97.8
2022-10-27T17:56	10	1	0.1	1	1	366	0.2	366	367	13.9	97.9
2022-10-27T17:57	10	1	0.1	1	1	367	0.2	366	367	14.0	98.1
2022-10-27T17:58	10	1	0.1	0	1	367	0.3	366	367	14.0	98.2
2022-10-27T17:59	10	1	0.1	0	1	367	0.2	366	367	13.8	98.1
2022-10-27T18:00	10	1	0.2	0	1	367	0.3	366	367	14.0	98.1
2022-10-27T18:01	10	1	0.1	0	1	366	0.2	366	367	13.9	98.0
2022-10-27T18:02	10	1	0.2	0	1	366	0.2	366	367	13.9	98.0
2022-10-27T18:03	10	1	0.2	0	1	366	0.3	366	367	13.8	97.8
2022-10-27T18:04	10	1	0.1	0	1	366	0.2	366	367	13.7	97.7
2022-10-27T18:05	10	1	0.2	0	1	367	0.3	366	367	13.7	97.8
2022-10-27T18:06	10	1	0.2	0	1	367	0.5	366	368	13.7	97.8
2022-10-27T18:07	10	1	0.2	0	1	368	0.4	367	368	13.7	97.9
2022-10-27T18:08	10	1	0.2	0	1	369	0.3	368	370	13.6	98.0
2022-10-27T18:09	10	1	0.2	0	1	369	0.2	369	369	13.6	98.1
2022-10-27T18:10	10	0	0.2	0	1	369	0.2	369	370	13.5	98.2
2022-10-27T18:11	10	0	0.2	0	1	369	0.3	369	370	13.5	98.4
2022-10-27T18:12	10	0	0.1	0	0	369	0.2	368	369	13.3	98.4
2022-10-27T18:13	10	0	0.2	0	0	369	0.4	368	370	13.4	98.7
2022-10-27T18:14	10	0	0.2	0	1	369	0.3	368	370	13.6	98.9
2022-10-27T18:15	10	0	0.2	0	1	368	0.3	368	369	13.4	98.9
2022-10-27T18:16	10	0	0.1	0	0	368	0.3	367	369	13.3	98.9
2022-10-27T18:17	10	0	0.1	0	0	368	0.2	367	368	13.2	98.9
2022-10-27T18:18	10	0	0.1	0	0	367	0.2	367	368	13.2	99.0
2022-10-27T18:19	10	0	0.1	0	0	367	0.3	367	368	13.3	99.1
2022-10-27T18:20	10	0	0.1	0	0	367	0.3	366	367	13.5	99.2
2022-10-27T18:21	10	0	0.1	0	1	367	0.2	366	367	13.6	99.2
2022-10-27T18:22	10	0	0.1	0	0	367	0.3	367	368	13.7	99.2
2022-10-27T18:23	10	0	0.1	0	0	368	0.2	367	368	14.0	99.2
2022-10-27T18:24	10	0	0.1	0	0	368	0.2	367	368	14.0	99.2
2022-10-27T18:25	10	0	0.1	0	0	368	0.2	367	368	13.8	99.2
2022-10-27T18:26	10	0	0.1	0	1	368	0.2	367	368	13.7	99.0
2022-10-27T18:27	10	0	0.1	0	0	368	0.2	367	368	13.6	98.9
2022-10-27T18:28	10	0	0.1	0	0	367	0.3	367	368	13.6	98.8
2022-10-27T18:29	10	0	0.1	0	0	367	0.2	367	367	13.6	98.6
2022-10-27T18:30	10	0	0.1	0	0	367	0.2	367	368	13.6	98.5
2022-10-27T18:31	10	0	0.1	0	0	367	0.2	366	367	13.5	98.3
2022-10-27T18:32	10	0	0.1	0	0	367	0.3	366	367	13.4	98.2
2022-10-27T18:33	10	0	0.1	0	0	366	0.3	365	366	13.4	98.2
2022-10-27T18:34	10	0	0.1	0	0	365	0.3	364	366	13.4	98.2
2022-10-27T18:35	10	0	0.1	0	0	364	0.3	364	365	13.4	98.1
2022-10-27T18:36	10	0	0.1	0	0	364	0.2	363	364	13.3	98.1
2022-10-27T18:37	10	0	0.1	0	0	363	0.3	363	364	13.3	98.2
2022-10-27T18:38	10	0	0.1	0	0	364	0.3	363	364	13.4	98.3
2022-10-27T18:39	10	0	0.1	0	0	364	0.2	363	364	13.4	98.4
2022-10-27T18:40	10	0	0.1	0	1	364	0.3	363	364	13.5	98.4
2022-10-27T18:41	10	0	0.0	0	0	365	0.2	364	365	13.5	98.5
2022-10-27T18:42	10	0	0.1	0	1	365	0.2	364	365	13.5	98.5
2022-10-27T18:43	10	0	0.1	0	1	365	0.2	364	365	13.6	98.5
2022-10-27T18:44	10	0	0.1	0	1	364	0.2	364	365	13.5	98.4
2022-10-27T18:45	10	0	0.1	0	1	364	0.2	363	364	13.5	98.4
2022-10-27T18:46	10	1	0.1	0	1	363	1.6	361	366	13.3	98.3
2022-10-27T18:47	10	0	0.1	0	1	364	0.3	363	364	12.9	98.1
2022-10-27T18:48	10	0	0.1	0	0	363	0.6	362	364	12.9	98.0
2022-10-27T18:49	10	0	0.1	0	0	363	0.3	362	363	13.1	98.2
2022-10-27T18:50	10	0	0.1	0	0	363	0.5	362	364	13.0	98.3
2022-10-27T18:51	10	0	0.1	0	0	363	0.2	362	363	12.9	98.3
2022-10-27T18:52	10	0	0.1	0	0	362	0.2	362	363	12.9	98.4
2022-10-27T18:53	10	0	0.1	0	0	362	0.2	362	363	12.9	98.5
2022-10-27T18:54	10	0	0.1	0	0	362	0.2	361	362	12.7	98.5
2022-10-27T18:55	10	0	0.1	0	0	362	0.2	361	362	12.6	98.6
2022-10-27T18:56	10	0	0.1	0	0	362	0.3	361	362	12.8	98.7
2022-10-27T18:57	10	0	0.1	0	1	361	0.3	361	362	12.8	98.9
2022-10-27T18:58	10	0	0.1	0	0	361	0.2	360	361	12.7	98.9
2022-10-27T18:59	10	0	0.1	0	0	361	0.3	361	362	12.7	99.0
2022-10-27T19:00	10	0	0.1	0	0	362	0.2	361	362	12.7	99.1
2022-10-27T19:01	10	0	0.1	0	0	361	0.2	361	362	12.7	99.1
2022-10-27T19:02	10	0	0.1	-1	0	362	0.4	361	362	12.8	99.2
2022-10-27T19:03	10	0	0.1	-1	0	362	0.3	362	363	12.8	99.2
2022-10-27T19:04	10	0	0.1	-1	0	363	0.3	362	363	12.8	99.2
2022-10-27T19:05	10	0	0.1	-1	0	363	0.3	362	363	12.9	99.2
2022-10-27T19:06	10	0	0.1	-1	0	362	0.3	362	363	13.1	99.2
2022-10-27T19:07	10	0	0.1	0	0	362	0.2	361	363	13.2	99.2
2022-10-27T19:08	10	0	0.1	0	0	362	0.2	361	363	13.4	99.2
2022-10-27T19:09	10	0	0.1	0	0	362	0.2	362	363	13.4	99.2
2022-10-27T19:10	10	0	0.1	0	0	362	0.3	361	362	13.4	99.2
2022-10-27T19:11	10	0	0.1	0	0	362	0.3	361	362	13.3	99.2
2022-10-27T19:12	10	0	0.1	0	0	362	0.3	361	363	13.4	99.2
2022-10-27T19:13	10	0	0.1	0	0	362	0.6	361	363	13.2	99.2
2022-10-27T19:14	10	0	0.1	0	0	362	0.3	361	363	13.1	99.2
2022-10-27T19:15	10	0	0.1	0	1	362	0.2	361	363	13.0	99.2
2022-10-27T19:16	10	0	0.1	0	1	362	0.2	361	362	13.0	99.2
2022-10-27T19:17	10	0	0.1	0	1	361	0.4	360	362	12.9	99.2
2022-10-27T19:18	10	0	0.1	0	1	361	0.4	360	362	12.9	99.2
2022-10-27T19:19	10	0	0.1	0	1	361	0.3	360	362	13.0	99.2
2022-10-27T19:20	10	0	0.1	0	1	361	0.6	360	362	13.0	99.2
2022-10-27T19:21	10	0	0.1	0	0	361	0.2	360	362	13.1	99.2
2022-10-27T19:22	10	0	0.1	0	0	361	0.8	360	362	13.1	99.2
2022-10-27T19:23	10	0	0.1	0	0	361	0.3	360	361	13.0	99.2
2022-10-27T19:24	10	0	0.1	0	0	361	0.4	360	362	13.1	99.2
2022-10-27T19:25	10	0	0.1	0	0	361	0.3	360	362	13.1	99.2
2022-10-27T19:26	10	0	0.1	0	0	361	0.3	360	362	13.1	99.2
2022-10-27T19:27	10	0	0.1	0	0	361	0.4	360	362	13.1	99.2
2022-10-27T19:28	10	0	0.1	0	0	361	0.6	360	362	13.0	99.2
2022-10-27T19:29	10	0	0.1	0	0	361	0.3	360	362	13.0	99.2
2022-10-27T19:30	10	0	0.1	0	0	361	0.3	360	361	12.9	99.2
2022-10-27T19:31	10	0	0.1	0	0	361	0.3	360	361	12.9	99.2
2022-10-27T19:32	10	0	0.1	0	0	361	0.4	360	362	12.9	99.2
2022-10-27T19:33	10	0	0.1	0	0	361	0.3	361	362	12.9	99.2
2022-10-27T19:34	10	0	0.1	0	0	362	0.7	361	363	12.9	99.2
2022-10-27T19:35	10	0	0.1	0	0	363	0.2	362	363	12.8	99.2
2022-10-27T19:36	10	0	0.1	0	0	363	0.2	362	363	12.5	99.2
2022-10-27T19:37	10	0	0.1	0	0	362	0.2	362	363	12.3	99.0
2022-10-27T19:38	10	0	0.1	0	0	362	0.3	361	362	12.1	99.0
2022-10-27T19:39	10	0	0.1	0	0	362	0.2	361	362	12.2	99.1
2022-10-27T19:40	10	0	0.0	0	0	362	0.3	361	363	12.2	99.2
2022-10-27T19:41	10	0	0.1	0	0	363	0.4	362	363	12.3	99.2
2022-10-27T19:42	10	0	0.1	0	0	363	0.3	363	364	12.4	99.2
2022-10-27T19:43	10	0	0.1	0	0	364	0.4	363	365	12.5	99.2
2022-10-27T19:44	10	0	0.1	0	0	364	0.3	364	365	12.6	99.2
2022-10-27T19:45	10	0	0.1	0	0	364	0.2	363	364	12.3	99.2
2022-10-27T19:46	10	-1	0.1	-1	0	364	0.3	363	365	12.1	99.2
2022-10-27T19:47	10	-1	0.1	-1	-1	364	0.4	363	365	12.2	99.2
2022-10-27T19:48	10	-1	0.1	-1	0	365	0.3	364	365	12.9	99.2
2022-10-27T19:49	10	-1	0.1	-1	0	365	0.3	364	365	13.1	99.2
2022-10-27T19:50	10	-1	0.1	-1	0	365	0.2	364	365	13.2	99.2
2022-10-27T19:51	10	0	0.1	-1	0	365	0.2	364	365	13.3	99.2
2022-10-27T19:52	10	0	0.1	0	0	365	0.3	364	365	13.3	99.2
2022-10-27T19:53	10	0	0.1	0	0	365	0.3	364	365	13.3	99.2
2022-10-27T19:54	10	0	0.1	0	0	365	0.3	364	365	13.3	99.2
2022-10-27T19:55	10	0	0.1	0	0	364	0.4	363	365	13.1	99.2
2022-10-27T19:56	10	0	0.1	0	0	364	0.2	364	365	13.0	99.2
2022-10-27T19:57	10	0	0.1	0	1	365	0.2	364	365	13.1	99.2
2022-10-27T19:58	10	0	0.1	0	1	365	0.2	364	365	13.1	99.2
2022-10-27T19:59	10	0	0.1	0	1	365	0.2	364	365	13.1	99.2
2022-10-27T20:00	10	1	0.1	0	1	365	0.2	365	365	13.3	99.2
2022-10-27T20:01	10	1	0.1	0	1	365	0.3	364	365	13.2	99.2
2022-10-27T20:02	10	1	0.1	0	1	364	0.3	364	365	13.1	99.2
2022-10-27T20:03	10	1	0.1	0	1	364	0.2	364	365	12.9	99.2
2022-10-27T20:04	10	1	0.1	0	1	364	0.2	363	364	12.9	99.2
2022-10-27T20:05	10	1	0.1	0	1	364	0.2	363	364	12.9	99.2
2022-10-27T20:06	10	1	0.1	0	1	363	0.3	363	364	12.8	99.2
2022-10-27T20:07	10	1	0.1	0	1	363	0.3	362	363	12.8	99.2
2022-10-27T20:08	10	0	0.1	0	1	363	0.2	362	363	12.7	99.2
2022-10-27T20:09	10	0	0.1	0	1	363	0.2	362	363	12.7	99.2
2022-10-27T20:10	10	0	0.1	0	1	363	0.2	362	363	12.7	99.2
2022-10-27T20:11	10	0	0.1	0	1	363	0.2	362	363	12.7	99.2
2022-10-27T20:12	10	0	0.0	0	1	362	0.2	362	363	12.7	99.2
2022-10-27T20:13	10	0	0.1	0	1	362	0.3	361	363	12.7	99.2
2022-10-27T20:14	10	0	0.1	0	1	362	0.2	361	362	12.7	99.2
2022-10-27T20:15	10	0	0.1	0	1	361	0.2	361	362	12.7	99.2
2022-10-27T20:16	10	0	0.1	0	0	361	0.2	361	362	12.7	99.2
2022-10-27T20:17	10	0	0.1	0	0	361	0.3	361	362	12.6	99.2
2022-10-27T20:18	10	0	0.1	0	0	362	0.3	361	362	12.5	99.2
2022-10-27T20:19	10	0	0.1	0	0	363	0.2	362	363	12.4	99.2
2022-10-27T20:20	10	0	0.1	-1	0	364	0.2	363	364	12.1	99.2
2022-10-27T20:21	10	-1	0.1	-1	-1	364	0.3	363	364	12.1	99.2
2022-10-27T20:22	10	-1	0.1	-1	-1	363	0.2	362	363	12.0	99.2
2022-10-27T20:23	10	-1	0.1	-1	-1	363	0.4	362	364	11.8	99.2
2022-10-27T20:24	10	-1	0.1	-2	-1	362	0.5	361	363	11.8	99.2
2022-10-27T20:25	10	-1	0.1	-2	-1	362	0.4	361	363	11.8	99.2
2022-10-27T20:26	10	-1	0.1	-2	-1	362	0.3	361	363	11.7	99.2
2022-10-27T20:27	10	-1	0.1	-1	-1	362	0.3	361	363	11.8	99.2
2022-10-27T20:28	10	-1	0.1	-1	-1	362	0.3	362	363	11.8	99.2
2022-10-27T20:29	10	-1	0.1	-1	-1	362	0.2	362	363	11.9	99.2
2022-10-27T20:30	10	-1	0.1	-1	-1	362	0.2	362	363	11.9	99.2
2022-10-27T20:31	10	-1	0.1	-1	0	362	0.2	361	362	11.9	99.2
2022-10-27T20:32	10	0	0.1	-1	0	362	0.3	361	363	11.9	99.2
2022-10-27T20:33	10	0	0.1	-1	0	362	0.3	361	363	12.0	99.2
2022-10-27T20:34	10	0	0.1	0	0	362	0.2	362	362	12.1	99.2
2022-10-27T20:35	10	0	0.1	-1	0	362	0.2	361	362	12.0	99.2
2022-10-27T20:36	10	0	0.1	0	0	362	0.2	361	362	12.0	99.2
2022-10-27T20:37	10	0	0.1	0	0	362	0.3	361	362	12.1	99.2
2022-10-27T20:38	10	0	0.1	0	0	362	0.2	361	362	12.2	99.2
2022-10-27T20:39	10	0	0.1	0	0	362	0.2	361	362	12.2	99.2
2022-10-27T20:40	10	0	0.1	0	0	361	0.2	361	362	12.2	99.2
2022-10-27T20:41	10	0	0.1	0	0	362	0.2	361	362	12.2	99.2
2022-10-27T20:42	10	0	0.1	0	0	362	0.3	361	363	12.2	99.2
2022-10-27T20:43	10	0	0.1	0	0	362	0.2	362	363	12.1	99.2
2022-10-27T20:44	10	0	0.2	0	0	363	0.2	363	364	12.0	99.2
2022-10-27T20:45	10	0	0.1	0	0	363	0.3	363	364	12.1	99.2
2022-10-27T20:46	10	0	0.1	0	0	363	0.2	363	364	11.9	99.2
2022-10-27T20:47	10	0	0.1	0	0	363	0.2	362	363	11.8	99.2
2022-10-27T20:48	10	0	0.1	0	0	363	0.3	363	364	11.6	99.2
2022-10-27T20:49	10	0	0.1	0	0	363	0.3	362	364	11.8	99.2
2022-10-27T20:50	10	0	0.1	0	0	364	0.2	363	364	11.7	99.2
2022-10-27T20:51	10	0	0.1	0	0	364	0.3	363	364	11.7	99.2
2022-10-27T20:52	10	0	0.1	0	0	364	0.3	363	364	11.8	99.2
2022-10-27T20:53	10	0	0.2	0	1	364	0.3	363	364	11.8	99.2
2022-10-27T20:54	10	0	0.1	0	1	364	0.3	363	364	11.8	99.2
2022-10-27T20:55	10	0	0.1	0	0	364	0.2	363	365	11.8	99.2
2022-10-27T20:56	10	0	0.1	0	1	364	0.2	364	365	11.8	99.2
2022-10-27T20:57	10	0	0.1	0	1	364	0.2	363	365	11.8	99.2
2022-10-27T20:58	10	0	0.1	0	1	364	0.2	364	365	11.7	99.2
2022-10-27T20:59	10	0	0.1	0	1	364	0.2	364	365	11.7	99.2
2022-10-27T21:00	10	0	0.1	0	1	364	0.3	364	365	11.7	99.2
2022-10-27T21:01	10	0	0.1	0	1	364	0.3	364	365	11.7	99.2
2022-10-27T21:02	10	0	0.1	0	1	366	0.5	365	366	11.7	99.2
2022-10-27T21:03	10	0	0.1	0	0	366	0.2	366	367	11.8	99.2
2022-10-27T21:04	10	0	0.1	0	0	366	0.2	366	367	11.8	99.2
2022-10-27T21:05	10	0	0.1	0	0	366	0.2	365	366	11.8	99.2
2022-10-27T21:06	10	0	0.1	0	0	366	0.3	365	366	11.7	99.2
2022-10-27T21:07	10	0	0.1	0	0	366	0.3	365	366	11.8	99.2
2022-10-27T21:08	10	0	0.1	0	0	366	0.1	366	366	12.0	99.2
2022-10-27T21:09	10	0	0.1	0	0	366	0.2	365	366	11.9	99.2
2022-10-27T21:10	10	0	0.1	0	0	366	0.2	365	366	12.0	99.2
2022-10-27T21:11	10	0	0.1	0	0	366	0.2	365	366	12.1	99.2
2022-10-27T21:12	10	0	0.1	0	0	366	0.2	365	366	12.1	99.2
2022-10-27T21:13	10	0	0.1	0	0	365	0.2	365	366	12.1	99.2
2022-10-27T21:14	10	0	0.1	0	0	366	0.2	365	366	12.0	99.2
2022-10-27T21:15	10	0	0.1	0	0	366	0.3	366	367	12.1	99.2
2022-10-27T21:16	10	0	0.1	0	0	366	0.4	366	367	12.0	99.2
2022-10-27T21:17	10	0	0.1	0	0	367	0.3	366	367	12.1	99.2
2022-10-27T21:18	10	0	0.1	0	0	367	0.2	366	367	12.0	99.2
2022-10-27T21:19	10	0	0.1	0	0	366	0.2	366	367	12.0	99.2
2022-10-27T21:20	10	0	0.1	0	0	366	0.1	366	366	12.0	99.2
2022-10-27T21:21	10	0	0.1	0	1	366	0.2	366	366	11.9	99.2
2022-10-27T21:22	10	0	0.1	0	0	366	0.3	365	366	12.0	99.2
2022-10-27T21:23	10	0	0.1	0	0	366	0.2	365	366	12.0	99.2
2022-10-27T21:24	10	0	0.1	0	1	366	0.2	365	366	12.0	99.2
2022-10-27T21:25	10	0	0.1	0	1	366	0.2	365	366	11.9	99.2
2022-10-27T21:26	10	0	0.0	0	1	365	0.2	365	366	11.9	99.2
2022-10-27T21:27	10	0	0.1	0	0	366	0.2	365	366	11.9	99.2
2022-10-27T21:28	10	0	0.1	0	0	366	0.2	365	366	11.9	99.2
2022-10-27T21:29	10	0	0.1	0	1	366	0.2	365	366	11.9	99.2
2022-10-27T21:30	10	0	0.1	0	1	366	0.3	365	366	12.0	99.2
2022-10-27T21:31	10	0	0.1	0	1	366	0.3	366	367	11.9	99.2
2022-10-27T21:32	10	0	0.1	0	0	366	0.4	366	367	11.8	99.2
2022-10-27T21:33	10	0	0.1	0	0	366	0.2	366	367	11.8	99.2
2022-10-27T21:34	10	0	0.1	0	0	366	0.3	365	366	11.7	99.2
2022-10-27T21:35	10	0	0.1	0	0	366	0.2	365	366	11.7	99.2
2022-10-27T21:36	10	0	0.1	0	0	366	0.2	365	366	11.7	99.2
2022-10-27T21:37	10	0	0.1	0	0	366	0.2	365	366	11.7	99.2
2022-10-27T21:38	10	0	0.1	0	0	366	0.2	365	366	11.8	99.2
2022-10-27T21:39	10	0	0.1	0	1	366	0.2	365	366	11.8	99.2
2022-10-27T21:40	10	0	0.1	0	0	366	0.2	365	366	11.6	99.2
2022-10-27T21:41	10	0	0.1	0	1	366	0.2	365	366	11.7	99.2
2022-10-27T21:42	10	0	0.1	0	1	366	0.2	365	366	11.7	99.2
2022-10-27T21:43	10	0	0.1	0	1	365	0.2	365	366	11.7	99.2
2022-10-27T21:44	10	0	0.1	0	1	365	0.2	365	366	11.6	99.2
2022-10-27T21:45	10	0	0.1	0	1	365	0.2	365	366	11.6	99.2
2022-10-27T21:46	10	0	0.1	0	1	365	0.2	365	365	11.7	99.2
2022-10-27T21:47	10	0	0.1	0	1	365	0.2	365	366	11.7	99.2
2022-10-27T21:48	10	0	0.1	0	1	365	0.2	364	365	11.7	99.2
2022-10-27T21:49	10	0	0.1	0	1	364	0.3	364	365	11.6	99.2
2022-10-27T21:50	10	1	0.1	0	1	364	0.2	364	365	11.6	99.2
2022-10-27T21:51	10	0	0.1	0	1	364	0.2	364	365	11.6	99.2
2022-10-27T21:52	10	0	0.0	0	1	364	0.2	364	365	11.6	99.2
2022-10-27T21:53	10	0	0.1	0	1	364	0.2	364	365	11.7	99.2
2022-10-27T21:54	10	0	0.1	0	1	365	0.2	364	365	11.6	99.2
2022-10-27T21:55	10	0	0.1	0	1	364	0.2	364	365	11.6	99.2
2022-10-27T21:56	10	0	0.1	0	1	364	0.2	364	365	11.7	99.2
2022-10-27T21:57	10	0	0.1	0	1	365	0.3	364	365	11.7	99.2
2022-10-27T21:58	10	0	0.1	0	0	365	0.2	364	365	11.7	99.2
2022-10-27T21:59	10	0	0.1	0	0	365	0.2	365	365	11.7	99.2
2022-10-27T22:00	10	0	0.0	0	0	365	0.2	365	366	11.8	99.2
2022-10-27T22:01	10	0	0.4	0	3	365	0.3	365	366	11.8	99.2
2022-10-27T22:02	10	0	0.1	0	0	366	0.2	366	367	12.0	99.2
2022-10-27T22:03	10	0	0.1	0	0	366	0.3	365	366	12.0	99.2
2022-10-27T22:04	10	0	0.1	0	0	365	0.3	365	366	11.9	99.2
2022-10-27T22:05	10	0	0.0	0	0	365	0.3	364	366	11.8	99.2
2022-10-27T22:06	10	0	0.1	0	0	365	0.4	364	366	12.0	99.2
2022-10-27T22:07	10	0	0.1	0	0	365	0.4	364	366	12.0	99.2
2022-10-27T22:08	10	0	0.1	0	0	365	0.5	364	366	11.9	99.2
2022-10-27T22:09	10	0	0.1	0	0	365	0.2	365	366	12.1	99.2
2022-10-27T22:10	10	0	0.1	0	0	365	0.3	365	366	12.1	99.2
2022-10-27T22:11	10	0	0.1	0	0	366	0.3	365	366	12.1	99.2
2022-10-27T22:12	10	0	0.1	0	0	366	0.3	365	367	12.2	99.2
2022-10-27T22:13	10	0	0.1	0	0	366	0.2	366	367	12.4	99.2
2022-10-27T22:14	10	0	0.1	0	0	366	0.3	366	367	12.5	99.2
2022-10-27T22:15	10	0	0.1	0	0	366	0.2	366	366	12.4	99.2
2022-10-27T22:16	10	0	0.1	0	0	366	0.2	366	367	12.4	99.2
2022-10-27T22:17	10	0	0.1	0	0	366	0.3	365	367	12.5	99.2
2022-10-27T22:18	10	0	0.1	0	1	366	0.2	365	366	12.5	99.2
2022-10-27T22:19	10	0	0.1	0	1	365	0.2	365	366	12.5	99.2
2022-10-27T22:20	10	0	0.1	0	1	365	0.3	365	366	12.3	99.2
2022-10-27T22:21	10	0	0.1	0	1	364	0.3	364	365	12.3	99.2
2022-10-27T22:22	10	0	0.1	0	1	364	0.5	363	365	12.1	99.2
2022-10-27T22:23	10	0	0.1	0	1	364	0.4	363	364	12.1	99.2
2022-10-27T22:24	10	0	0.0	0	0	364	0.2	363	364	12.1	99.2
2022-10-27T22:25	10	0	0.1	0	1	363	0.3	363	364	12.1	99.2
2022-10-27T22:26	10	0	0.1	0	0	363	0.3	363	364	12.1	99.2
2022-10-27T22:27	10	0	0.1	0	0	363	0.3	363	364	12.0	99.2
2022-10-27T22:28	10	0	0.1	0	0	363	0.2	362	363	11.8	99.2
2022-10-27T22:29	10	0	0.1	0	0	363	0.3	362	364	11.8	99.2
2022-10-27T22:30	10	0	0.0	0	0	363	0.2	363	364	11.8	99.2
2022-10-27T22:31	10	0	0.1	0	0	363	0.3	363	364	11.9	99.2
2022-10-27T22:32	10	0	0.1	0	0	364	0.2	363	364	12.0	99.2
2022-10-27T22:33	10	0	0.1	0	0	364	0.2	363	364	11.9	99.2
2022-10-27T22:34	10	0	0.1	0	0	364	0.3	363	365	12.0	99.2
2022-10-27T22:35	10	0	0.1	0	0	364	0.2	363	364	12.0	99.2
2022-10-27T22:36	10	0	0.1	0	0	364	0.2	363	364	12.1	99.2
2022-10-27T22:37	10	0	0.1	0	0	364	0.2	363	364	12.1	99.2
2022-10-27T22:38	10	0	0.1	0	0	363	0.2	363	364	12.1	99.2
2022-10-27T22:39	10	0	0.1	0	0	363	0.2	363	364	12.0	99.2
2022-10-27T22:40	10	0	0.1	0	0	363	0.3	363	364	12.0	99.2
2022-10-27T22:41	10	0	0.1	-1	0	364	0.3	363	364	12.0	99.2
2022-10-27T22:42	10	0	0.1	-1	0	364	0.2	363	365	12.0	99.2
2022-10-27T22:43	10	0	0.1	-1	0	364	0.2	364	365	12.1	99.2
2022-10-27T22:44	10	0	0.1	-1	0	364	0.2	364	365	12.1	99.2
2022-10-27T22:45	10	0	0.1	-1	0	363	0.2	363	364	12.1	99.2
2022-10-27T22:46	10	0	0.1	-1	0	363	0.3	363	364	12.1	99.2
2022-10-27T22:47	10	0	0.1	0	0	363	0.3	362	364	12.1	99.2
2022-10-27T22:48	10	0	0.1	0	0	363	0.3	362	363	12.0	99.2
2022-10-27T22:49	10	0	0.1	0	0	363	0.3	362	363	12.0	99.2
2022-10-27T22:50	10	0	0.1	0	0	363	0.2	362	363	12.0	99.2
2022-10-27T22:51	10	0	0.1	0	0	363	0.3	362	363	12.0	99.2
2022-10-27T22:52	10	0	0.1	0	0	363	0.3	362	363	11.8	99.2
2022-10-27T22:53	10	0	0.1	0	0	363	0.4	363	364	11.8	99.2
2022-10-27T22:54	10	0	0.1	0	0	364	0.2	363	364	11.9	99.2
2022-10-27T22:55	10	0	0.1	0	0	364	0.2	364	365	11.9	99.2
2022-10-27T22:56	10	0	0.1	0	0	364	0.2	364	365	12.0	99.2
2022-10-27T22:57	10	0	0.0	0	0	365	0.2	364	365	12.1	99.2
2022-10-27T22:58	10	0	0.1	0	0	365	0.2	364	365	12.3	99.2
2022-10-27T22:59	10	0	0.1	0	0	365	0.2	364	365	12.5	99.2
2022-10-27T23:00	10	0	0.1	0	0	364	0.5	363	365	12.4	99.2
2022-10-27T23:01	10	0	0.4	0	3	364	0.2	363	365	12.3	99.2
2022-10-27T23:02	10	0	0.1	0	1	364	0.3	364	365	12.4	99.2
2022-10-27T23:03	10	0	0.1	0	1	364	0.3	363	365	12.4	99.2
2022-10-27T23:04	10	0	0.1	0	1	364	0.2	363	364	12.3	99.2
2022-10-27T23:05	10	0	0.1	0	1	364	0.2	363	364	12.3	99.2
2022-10-27T23:06	10	0	0.1	0	0	364	0.2	363	364	12.1	99.2
2022-10-27T23:07	10	0	0.1	0	0	363	0.3	363	364	12.1	99.2
2022-10-27T23:08	10	0	0.1	0	0	363	0.2	363	364	12.0	99.2
2022-10-27T23:09	10	0	0.1	0	0	364	0.2	363	364	12.0	99.2
2022-10-27T23:10	10	0	0.1	0	0	363	0.2	363	364	12.0	99.2
2022-10-27T23:11	10	0	0.1	0	0	363	0.3	363	364	11.9	99.2
2022-10-27T23:12	10	0	0.1	0	0	363	0.2	363	364	11.9	99.2
2022-10-27T23:13	10	0	0.1	0	0	363	0.2	362	364	11.9	99.2
2022-10-27T23:14	10	0	0.1	0	0	363	0.2	363	364	11.9	99.2
2022-10-27T23:15	10	0	0.1	0	0	363	0.3	362	364	11.8	99.2
2022-10-27T23:16	10	0	0.1	0	0	363	0.2	362	363	11.8	99.2
2022-10-27T23:17	10	0	0.1	0	0	363	0.2	362	363	11.9	99.2
2022-10-27T23:18	10	0	0.1	0	0	362	0.4	361	363	11.9	99.2
2022-10-27T23:19	10	0	0.1	0	0	362	0.2	362	363	11.9	99.2
2022-10-27T23:20	10	0	0.1	0	0	362	0.3	362	363	12.0	99.2
2022-10-27T23:21	10	0	0.1	0	0	362	0.2	362	363	12.0	99.2
2022-10-27T23:22	10	0	0.1	0	0	362	0.2	362	363	11.9	99.2
2022-10-27T23:23	10	0	0.1	0	0	362	0.3	361	362	11.8	99.2
2022-10-27T23:24	10	0	0.1	0	0	362	0.4	361	363	11.9	99.2
2022-10-27T23:25	10	0	0.1	-1	0	362	0.4	361	363	11.9	99.2
2022-10-27T23:26	10	0	0.1	0	0	362	0.8	360	363	11.8	99.2
2022-10-27T23:27	10	0	0.1	0	0	362	0.3	361	362	11.8	99.2
2022-10-27T23:28	10	0	0.1	-1	0	362	0.7	360	363	11.6	99.2
2022-10-27T23:29	10	0	0.1	-1	0	362	0.5	361	363	11.5	99.2
2022-10-27T23:30	10	0	0.0	-1	0	362	0.3	361	362	11.6	99.2
2022-10-27T23:31	10	0	0.1	-1	0	361	0.3	361	362	11.7	99.2
2022-10-27T23:32	10	0	0.1	-1	0	361	0.3	361	362	11.6	99.2
2022-10-27T23:33	10	-1	0.1	-1	0	362	0.5	361	363	11.5	99.2
2022-10-27T23:34	10	-1	0.1	-1	-1	362	0.4	361	363	11.5	99.2
2022-10-27T23:35	10	-1	0.1	-1	-1	362	0.3	361	363	11.5	99.2
2022-10-27T23:36	10	-1	0.1	-1	-1	362	0.2	362	363	11.5	99.2
2022-10-27T23:37	10	-1	0.1	-1	-1	362	0.2	361	362	11.5	99.2
2022-10-27T23:38	10	-1	0.1	-2	-1	361	0.2	361	362	11.5	99.2
2022-10-27T23:39	10	-1	0.1	-2	-1	361	0.3	360	362	11.5	99.2
2022-10-27T23:40	10	-1	0.1	-1	-1	361	0.2	360	361	11.6	99.2
2022-10-27T23:41	10	-1	0.1	-1	-1	360	0.2	360	360	11.6	99.2
2022-10-27T23:42	10	-1	0.1	-1	-1	360	0.2	360	361	11.7	99.2
2022-10-27T23:43	10	-1	0.1	-1	-1	360	0.2	359	360	11.7	99.2
2022-10-27T23:44	10	-1	0.1	-1	0	359	0.2	359	360	11.6	99.2
2022-10-27T23:45	10	0	0.1	-1	0	359	0.2	358	359	11.4	99.2
2022-10-27T23:46	10	0	0.1	0	0	359	0.2	358	359	11.5	99.2
2022-10-27T23:47	10	0	0.1	0	0	359	0.2	359	359	11.5	99.2
2022-10-27T23:48	10	0	0.1	0	0	359	0.3	358	359	11.6	99.2
2022-10-27T23:49	10	0	0.1	0	0	359	0.2	358	359	11.8	99.2
2022-10-27T23:50	10	0	0.1	0	0	359	0.2	359	359	11.9	99.2
2022-10-27T23:51	10	0	0.1	0	0	359	0.2	359	360	11.9	99.2
2022-10-27T23:52	10	0	0.0	0	0	359	0.2	359	360	11.9	99.2
2022-10-27T23:53	10	0	0.1	0	0	359	0.3	359	360	12.1	99.2
2022-10-27T23:54	10	0	0.1	0	0	359	0.2	359	360	12.1	99.2
2022-10-27T23:55	10	0	0.1	0	0	359	0.2	359	360	12.1	99.2
2022-10-27T23:56	10	0	0.1	0	0	359	0.3	358	360	12.0	99.2
2022-10-27T23:57	10	0	0.1	0	0	359	0.2	358	359	11.8	99.2
2022-10-27T23:58	10	0	0.0	0	0	358	0.3	358	359	11.7	99.2
2022-10-27T23:59	10	0	0.0	-1	0	358	0.2	357	358	11.7	99.2
2022-10-28T00:00	10	0	0.1	-1	0	357	0.2	357	358	11.6	99.2
2022-10-28T00:01	10	0	0.1	-1	0	357	0.4	357	358	11.7	99.2
2022-10-28T00:02	10	0	0.1	0	0	357	0.3	356	358	11.6	99.2
2022-10-28T00:03	10	0	0.1	0	0	357	0.3	357	358	11.7	99.2
2022-10-28T00:04	10	0	0.1	0	0	357	0.2	356	357	11.7	99.2
2022-10-28T00:05	10	0	0.1	0	0	357	0.2	356	357	11.7	99.2
2022-10-28T00:06	10	0	0.1	0	0	357	0.3	356	357	11.7	99.2
2022-10-28T00:07	10	0	0.1	0	0	357	0.2	356	357	11.7	99.2
2022-10-28T00:08	10	0	0.1	0	0	356	0.3	356	357	11.7	99.2
2022-10-28T00:09	10	0	0.1	0	0	356	0.2	356	357	11.6	99.2
2022-10-28T00:10	10	0	0.1	0	0	356	0.2	356	357	11.5	99.2
2022-10-28T00:11	10	0	0.1	0	0	356	0.2	356	357	11.5	99.2
2022-10-28T00:12	10	0	0.1	0	0	356	0.1	356	356	11.4	99.2
2022-10-28T00:13	10	0	0.1	0	0	356	0.2	356	357	11.4	99.2
2022-10-28T00:14	10	0	0.1	0	0	356	0.3	355	357	11.4	99.2
2022-10-28T00:15	10	0	0.1	0	0	356	0.2	356	357	11.4	99.2
2022-10-28T00:16	10	0	0.1	0	0	356	0.2	355	357	11.6	99.2
2022-10-28T00:17	10	0	0.1	0	0	356	0.2	356	356	11.6	99.2
2022-10-28T00:18	10	0	0.1	0	0	356	0.2	355	356	11.6	99.2
2022-10-28T00:19	10	0	0.1	0	0	356	0.2	355	356	11.6	99.2
2022-10-28T00:20	10	0	0.1	0	0	356	0.2	355	356	11.6	99.2
2022-10-28T00:21	10	0	0.1	0	0	356	0.2	356	356	11.6	99.2
2022-10-28T00:22	10	0	0.0	0	0	356	0.2	356	356	11.5	99.2
2022-10-28T00:23	10	0	0.1	0	0	356	0.2	355	356	11.5	99.2
2022-10-28T00:24	10	0	0.1	0	0	356	0.2	356	357	11.3	99.2
2022-10-28T00:25	10	0	0.1	-1	0	356	0.2	356	357	11.3	99.2
2022-10-28T00:26	10	-1	0.1	-1	0	356	0.2	355	357	11.3	99.2
2022-10-28T00:27	10	-1	0.1	-1	-1	356	0.3	355	356	11.3	99.2
2022-10-28T00:28	10	-1	0.1	-1	-1	356	0.2	355	356	11.4	99.2
2022-10-28T00:29	10	-1	0.1	-1	-1	356	0.2	355	356	11.4	99.2
2022-10-28T00:30	10	-1	0.1	-1	-1	355	0.2	355	356	11.4	99.2
2022-10-28T00:31	10	-1	0.1	-1	-1	355	0.2	355	356	11.4	99.2
2022-10-28T00:32	10	0	0.1	-1	0	355	0.2	355	356	11.4	99.2
2022-10-28T00:33	10	0	0.1	0	0	356	0.2	355	356	11.4	99.2
2022-10-28T00:34	10	0	0.1	0	0	356	0.3	355	356	11.5	99.2
2022-10-28T00:35	10	0	0.1	0	0	356	0.2	355	356	11.5	99.2
2022-10-28T00:36	10	0	0.1	0	0	356	0.2	355	356	11.5	99.2
2022-10-28T00:37	10	0	0.1	0	0	356	0.2	356	356	11.5	99.2
2022-10-28T00:38	10	0	0.1	0	0	356	0.3	355	357	11.5	99.2
2022-10-28T00:39	10	0	0.1	0	0	356	0.2	355	356	11.5	99.2
2022-10-28T00:40	10	0	0.1	0	0	355	0.3	355	356	11.4	99.2
2022-10-28T00:41	10	0	0.1	0	0	355	0.3	354	355	11.3	99.2
2022-10-28T00:42	10	0	0.1	0	0	355	0.3	354	355	11.3	99.2
2022-10-28T00:43	10	0	0.1	0	0	354	0.2	354	355	11.2	99.2
2022-10-28T00:44	10	0	0.1	-1	0	355	0.3	354	355	11.2	99.2
2022-10-28T00:45	10	-1	0.1	-1	-1	355	0.3	354	355	11.3	99.2
2022-10-28T00:46	10	-1	0.1	-1	-1	355	0.3	354	355	11.2	99.2
2022-10-28T00:47	10	-1	0.1	-1	-1	355	0.2	354	355	11.1	99.2
2022-10-28T00:48	10	-1	0.1	-1	-1	355	0.2	354	355	11.3	99.2
2022-10-28T00:49	10	-1	0.1	-1	-1	355	0.2	354	355	11.4	99.2
2022-10-28T00:50	10	-1	0.1	-1	-1	355	0.2	354	355	11.3	99.2
2022-10-28T00:51	10	-1	0.1	-1	0	355	0.2	355	356	11.2	99.2
2022-10-28T00:52	10	-1	0.1	-1	0	355	0.2	355	356	11.2	99.2
2022-10-28T00:53	10	0	0.1	-1	0	356	0.2	355	356	11.3	99.2
2022-10-28T00:54	10	0	0.1	-1	0	356	0.2	355	356	11.5	99.2
2022-10-28T00:55	10	0	0.1	-1	0	355	0.2	355	356	11.7	99.2
2022-10-28T00:56	10	0	0.1	0	0	355	0.2	355	356	11.6	99.2
2022-10-28T00:57	10	0	0.1	0	0	355	0.2	355	356	11.3	99.2
2022-10-28T00:58	10	0	0.1	0	0	355	0.3	355	356	11.1	99.2
2022-10-28T00:59	10	0	0.1	0	0	355	0.3	355	356	11.1	99.2
2022-10-28T01:00	10	0	0.1	0	0	355	0.3	354	355	11.2	99.2
2022-10-28T01:01	10	0	0.1	0	0	354	0.2	354	355	11.2	99.2
2022-10-28T01:02	10	0	0.1	0	0	355	0.3	354	355	11.4	99.2
2022-10-28T01:03	10	0	0.1	0	0	354	0.3	354	355	11.4	99.2
2022-10-28T01:04	10	0	0.1	0	0	354	0.3	353	355	11.4	99.2
2022-10-28T01:05	10	0	0.1	-1	0	354	0.3	353	354	11.3	99.2
2022-10-28T01:06	10	0	0.1	0	0	354	0.2	353	354	11.2	99.2
2022-10-28T01:07	10	0	0.1	-1	0	354	0.3	353	354	11.2	99.2
2022-10-28T01:08	10	0	0.1	0	0	354	0.3	354	355	11.1	99.2
2022-10-28T01:09	10	0	0.1	0	0	355	0.2	354	355	11.1	99.2
2022-10-28T01:10	10	0	0.1	0	0	355	0.2	354	355	11.1	99.2
2022-10-28T01:11	10	0	0.1	0	0	354	0.2	354	355	11.1	99.2
2022-10-28T01:12	10	0	0.1	0	0	354	0.3	353	355	11.1	99.2
2022-10-28T01:13	10	0	0.1	0	0	354	0.2	353	354	11.0	99.2
2022-10-28T01:14	10	0	0.1	0	0	354	0.2	354	355	11.0	99.2
2022-10-28T01:15	10	0	0.1	0	0	354	0.3	353	354	10.9	99.2
2022-10-28T01:16	10	0	0.1	0	0	354	0.3	353	354	11.0	99.2
2022-10-28T01:17	10	0	0.1	0	0	353	0.2	353	354	11.0	99.2
2022-10-28T01:18	10	0	0.1	0	0	353	0.2	352	354	11.2	99.2
2022-10-28T01:19	10	0	0.1	0	0	353	0.2	352	353	11.2	99.2
2022-10-28T01:20	10	0	0.1	0	0	353	0.2	352	353	11.1	99.2
2022-10-28T01:21	10	0	0.1	0	0	353	0.2	352	353	11.1	99.2
2022-10-28T01:22	10	0	0.1	0	0	353	0.3	352	353	11.1	99.2
2022-10-28T01:23	10	0	0.1	-1	0	353	0.4	353	354	11.0	99.2
2022-10-28T01:24	10	0	0.1	-1	0	353	0.2	353	354	10.9	99.2
2022-10-28T01:25	10	-1	0.1	-1	0	354	0.3	353	354	10.8	99.2
2022-10-28T01:26	10	0	0.1	-1	0	353	0.2	353	354	10.9	99.2
2022-10-28T01:27	10	0	0.1	-1	0	353	0.2	352	354	10.9	99.2
2022-10-28T01:28	10	0	0.1	-1	0	353	0.2	352	353	11.0	99.2
2022-10-28T01:29	10	-1	0.1	-1	0	353	0.4	352	354	11.1	99.2
2022-10-28T01:30	10	-1	0.1	-1	-1	353	0.2	352	353	11.1	99.2
2022-10-28T01:31	10	-1	0.1	-1	-1	353	0.2	352	353	11.0	99.2
2022-10-28T01:32	10	-1	0.1	-1	-1	352	0.2	352	353	11.0	99.2
2022-10-28T01:33	10	-1	0.1	-1	-1	353	0.3	352	353	10.8	99.2
2022-10-28T01:34	10	-1	0.1	-1	-1	353	0.3	352	354	10.7	99.2
2022-10-28T01:35	10	-1	0.1	-1	0	353	0.2	352	353	10.7	99.2
2022-10-28T01:36	10	-1	0.1	-1	0	353	0.2	352	353	10.8	99.2
2022-10-28T01:37	10	0	0.1	-1	0	353	0.2	352	353	10.9	99.2
2022-10-28T01:38	10	0	0.1	-1	0	353	0.3	352	353	10.9	99.2
2022-10-28T01:39	10	0	0.1	-1	0	353	0.2	352	353	10.8	99.2
2022-10-28T01:40	10	0	0.1	0	0	353	0.2	353	354	10.8	99.2
2022-10-28T01:41	10	0	0.1	0	0	353	0.3	352	353	10.9	99.2
2022-10-28T01:42	10	0	0.1	0	0	353	0.2	352	353	11.0	99.2
2022-10-28T01:43	10	0	0.1	0	0	353	0.3	352	353	11.1	99.2
2022-10-28T01:44	10	0	0.1	0	0	353	0.2	352	353	11.0	99.2
2022-10-28T01:45	10	0	0.1	-1	0	353	0.2	353	354	11.1	99.2
2022-10-28T01:46	10	0	0.1	-1	0	353	0.2	353	354	11.2	99.2
2022-10-28T01:47	10	0	0.1	0	0	353	0.3	353	354	11.2	99.2
2022-10-28T01:48	10	0	0.1	0	0	353	0.2	353	354	11.1	99.2
2022-10-28T01:49	10	0	0.1	0	0	353	0.2	352	353	11.1	99.2
2022-10-28T01:50	10	0	0.1	0	0	353	0.2	352	353	11.0	99.2
2022-10-28T01:51	10	0	0.1	0	0	353	0.2	352	353	10.9	99.2
2022-10-28T01:52	10	0	0.1	0	0	352	0.4	351	353	10.9	99.2
2022-10-28T01:53	10	0	0.1	0	0	352	0.4	351	352	10.7	99.2
2022-10-28T01:54	10	0	0.1	0	0	351	0.2	351	352	10.7	99.2
2022-10-28T01:55	10	0	0.1	-1	0	351	0.3	351	352	10.6	99.2
2022-10-28T01:56	10	-1	0.1	-1	0	351	0.3	351	352	10.7	99.2
2022-10-28T01:57	10	-1	0.1	-1	0	352	0.3	351	352	10.8	99.2
2022-10-28T01:58	10	-1	0.1	-1	0	352	0.2	351	353	10.7	99.2
2022-10-28T01:59	10	-1	0.1	-1	0	352	0.2	351	353	10.7	99.2
2022-10-28T02:00	10	0	0.1	-1	0	352	0.2	352	353	10.7	99.2
2022-10-28T02:01	10	-1	0.1	-1	0	353	0.5	352	354	10.7	99.2
2022-10-28T02:02	10	-1	0.1	-1	-1	354	0.3	353	354	10.7	99.2
2022-10-28T02:03	10	-1	0.1	-1	-1	354	0.3	353	355	10.6	99.2
2022-10-28T02:04	10	-1	0.1	-1	-1	355	0.2	354	355	10.6	99.2
2022-10-28T02:05	10	-2	0.1	-2	-1	355	0.2	354	355	10.6	99.2
2022-10-28T02:06	10	-2	0.1	-2	-2	355	0.2	354	355	10.4	99.2
2022-10-28T02:07	10	-2	0.1	-2	-2	354	0.2	354	355	10.3	99.2
2022-10-28T02:08	10	-2	0.1	-3	-2	354	0.2	354	355	10.4	99.2
2022-10-28T02:09	10	-3	0.1	-3	-2	354	0.2	354	355	10.5	99.2
2022-10-28T02:10	10	-2	0.1	-3	-2	354	0.3	354	355	10.6	99.2
2022-10-28T02:11	10	-2	0.1	-2	-2	354	0.2	354	354	10.5	99.2
2022-10-28T02:12	10	-2	0.2	-2	-1	354	0.3	354	355	10.5	99.2
2022-10-28T02:13	10	-1	0.1	-2	-1	355	0.4	354	356	10.5	99.2
2022-10-28T02:14	10	-1	0.1	-1	-1	356	0.4	355	357	10.6	99.2
2022-10-28T02:15	10	-1	0.1	-1	-1	356	0.4	356	357	10.9	99.2
2022-10-28T02:16	10	-1	0.1	-1	-1	357	0.2	356	357	11.0	99.2
2022-10-28T02:17	10	-1	0.1	-1	0	357	0.2	357	357	11.1	99.2
2022-10-28T02:18	10	0	0.1	-1	0	357	0.2	356	357	11.2	99.2
2022-10-28T02:19	10	0	0.1	-1	0	357	0.4	356	357	11.1	99.2
2022-10-28T02:20	10	0	0.1	0	0	356	0.3	355	357	11.1	99.2
2022-10-28T02:21	10	0	0.1	0	0	356	0.3	355	356	11.1	99.2
2022-10-28T02:22	10	0	0.1	0	0	355	0.3	355	356	11.0	99.2
2022-10-28T02:23	10	0	0.1	0	0	355	0.3	354	355	10.9	99.2
2022-10-28T02:24	10	0	0.1	0	0	355	0.3	354	355	10.9	99.2
2022-10-28T02:25	10	0	0.1	0	0	354	0.3	354	355	10.9	99.2
2022-10-28T02:26	10	0	0.1	0	0	354	0.2	353	354	10.9	99.2
2022-10-28T02:27	10	0	0.1	0	0	353	0.2	353	354	10.9	99.2
2022-10-28T02:28	10	0	0.1	0	0	353	0.2	353	354	10.8	99.2
2022-10-28T02:29	10	0	0.1	0	0	353	0.3	353	354	10.8	99.2
2022-10-28T02:30	10	0	0.1	0	0	353	0.3	353	354	10.8	99.2
2022-10-28T02:31	10	0	0.1	0	0	353	0.2	353	354	10.8	99.2
2022-10-28T02:32	10	0	0.1	0	0	353	0.3	352	354	10.7	99.2
2022-10-28T02:33	10	0	0.1	0	0	352	0.3	352	353	10.6	99.2
2022-10-28T02:34	10	0	0.1	0	0	352	0.3	352	353	10.6	99.2
2022-10-28T02:35	10	0	0.1	-1	0	352	0.3	351	353	10.6	99.2
2022-10-28T02:36	10	0	0.1	-1	0	352	0.2	351	352	10.6	99.2
2022-10-28T02:37	10	-1	0.1	-1	0	352	0.2	351	352	10.6	99.2
2022-10-28T02:38	10	-1	0.1	-1	0	352	0.2	351	352	10.6	99.2
2022-10-28T02:39	10	-1	0.0	-1	-1	352	0.2	351	352	10.6	99.2
2022-10-28T02:40	10	-1	0.1	-1	0	352	0.5	351	353	10.9	99.2
2022-10-28T02:41	10	-1	0.1	-1	0	353	0.3	352	353	11.1	99.2
2022-10-28T02:42	10	0	0.1	-1	0	353	0.3	352	353	11.1	99.2
2022-10-28T02:43	10	0	0.1	-1	0	353	0.2	353	354	11.0	99.2
2022-10-28T02:44	10	-1	0.1	-1	0	353	0.3	353	354	11.1	99.2
2022-10-28T02:45	10	-1	0.1	-1	0	353	0.2	353	354	11.0	99.2
2022-10-28T02:46	10	0	0.1	-1	0	354	0.2	353	354	10.8	99.2
2022-10-28T02:47	10	0	0.1	-1	0	353	0.3	353	354	10.7	99.2
2022-10-28T02:48	10	0	0.1	0	0	353	0.2	352	354	10.7	99.2
2022-10-28T02:49	10	0	0.1	0	0	353	0.3	353	354	10.6	99.2
2022-10-28T02:50	10	0	0.1	-1	0	353	0.3	353	354	10.6	99.2
2022-10-28T02:51	10	0	0.1	-1	0	353	0.2	353	354	10.6	99.2
2022-10-28T02:52	10	0	0.1	-1	0	353	0.3	352	354	10.6	99.2
2022-10-28T02:53	10	0	0.1	-1	0	353	0.3	352	354	10.5	99.2
2022-10-28T02:54	10	0	0.1	0	0	353	0.2	353	354	10.4	99.2
2022-10-28T02:55	10	0	0.1	0	0	353	0.3	352	354	10.5	99.2
2022-10-28T02:56	10	0	0.1	0	0	353	0.2	352	353	10.5	99.2
2022-10-28T02:57	10	0	0.1	0	0	353	0.2	352	353	10.4	99.2
2022-10-28T02:58	10	0	0.1	0	0	352	0.2	352	353	10.4	99.2
2022-10-28T02:59	10	0	0.1	0	0	352	0.2	352	353	10.4	99.2
2022-10-28T03:00	10	0	0.1	0	0	352	0.2	352	353	10.4	99.2
2022-10-28T03:01	10	0	0.1	0	0	353	0.3	352	353	10.4	99.2
2022-10-28T03:02	10	0	0.0	0	0	353	0.3	352	354	10.4	99.2
2022-10-28T03:03	10	0	0.1	0	0	353	0.5	352	354	10.4	99.2
2022-10-28T03:04	10	0	0.1	-1	0	354	0.4	354	355	10.4	99.2
2022-10-28T03:05	10	-1	0.1	-1	0	355	0.3	354	355	10.4	99.2
2022-10-28T03:06	10	-1	0.0	-1	-1	354	0.2	354	355	10.4	99.2
2022-10-28T03:07	10	-1	0.1	-1	0	354	0.2	353	355	10.4	99.2
2022-10-28T03:08	10	0	0.1	-1	0	354	0.2	353	354	10.4	99.2
2022-10-28T03:09	10	0	0.1	-1	0	354	0.3	353	354	10.3	99.2
2022-10-28T03:10	10	0	0.1	0	0	353	0.3	353	354	10.3	99.2
2022-10-28T03:11	10	0	0.1	0	0	353	0.2	353	353	10.2	99.2
2022-10-28T03:12	10	0	0.0	0	0	353	0.3	352	354	10.2	99.2
2022-10-28T03:13	10	0	0.1	0	0	353	0.2	353	354	10.3	99.2
2022-10-28T03:14	10	0	0.1	-1	0	353	0.2	352	353	10.2	99.2
2022-10-28T03:15	10	0	0.1	-1	0	353	0.2	352	353	10.2	99.2
2022-10-28T03:16	10	0	0.1	0	0	353	0.3	352	353	10.3	99.2
2022-10-28T03:17	10	0	0.1	0	0	353	0.2	352	353	10.4	99.2
2022-10-28T03:18	10	0	0.1	0	0	353	0.2	352	353	10.4	99.2
2022-10-28T03:19	10	0	0.1	0	0	352	0.2	352	353	10.5	99.2
2022-10-28T03:20	10	0	0.1	0	0	353	0.2	352	354	10.6	99.2
2022-10-28T03:21	10	0	0.1	-1	0	353	0.2	352	353	10.7	99.2
2022-10-28T03:22	10	0	0.1	-1	0	353	0.3	352	354	10.7	99.2
2022-10-28T03:23	10	-1	0.1	-1	0	353	0.3	352	353	10.6	99.1
2022-10-28T03:24	10	-1	0.1	-1	0	353	0.3	352	354	10.5	98.9
2022-10-28T03:25	10	-1	0.1	-1	0	353	0.2	352	353	10.5	98.8
2022-10-28T03:26	10	-1	0.1	-1	0	353	0.2	353	354	10.5	98.6
2022-10-28T03:27	10	0	0.1	-1	0	353	0.3	353	354	10.6	98.5
2022-10-28T03:28	10	0	0.1	-1	0	354	0.2	354	355	10.7	98.3
2022-10-28T03:29	10	-1	0.1	-1	0	355	0.3	354	355	10.8	98.0
2022-10-28T03:30	10	-1	0.1	-1	-1	355	0.3	354	355	10.8	97.5
2022-10-28T03:31	10	-1	0.1	-1	-1	355	0.2	354	356	10.8	97.0
2022-10-28T03:32	10	-1	0.1	-1	-1	356	0.3	355	356	10.7	96.7
2022-10-28T03:33	10	-2	0.1	-2	-1	355	0.3	355	356	10.6	96.4
2022-10-28T03:34	10	-2	0.1	-2	-2	356	0.2	355	356	10.6	96.4
2022-10-28T03:35	10	-2	0.1	-2	-2	356	0.3	355	357	10.7	96.2
2022-10-28T03:36	10	-2	0.1	-2	-2	356	0.3	356	357	10.7	96.0
2022-10-28T03:37	10	-2	0.1	-2	-2	356	0.3	356	357	10.5	95.8
2022-10-28T03:38	10	-2	0.1	-2	-2	357	0.4	356	358	10.6	96.1
2022-10-28T03:39	10	-2	0.1	-2	-2	357	0.3	357	358	10.5	96.1
2022-10-28T03:40	10	-2	0.1	-2	-2	358	0.2	357	358	10.6	96.2
2022-10-28T03:41	10	-2	0.1	-2	-1	357	0.3	357	358	10.3	96.0
2022-10-28T03:42	10	-2	0.1	-2	-1	357	0.2	357	358	10.0	96.1
2022-10-28T03:43	10	-1	0.1	-2	-1	358	0.4	357	359	10.2	96.7
2022-10-28T03:44	10	-1	0.1	-1	-1	358	0.2	358	359	10.5	97.1
2022-10-28T03:45	10	-1	0.1	-1	-1	359	0.2	358	359	10.6	96.9
2022-10-28T03:46	10	-1	0.1	-1	-1	358	0.3	358	359	10.4	96.4
2022-10-28T03:47	10	-1	0.1	-1	-1	358	0.3	358	359	10.3	96.4
2022-10-28T03:48	10	-1	0.1	-1	-1	359	0.2	358	359	10.3	96.6
2022-10-28T03:49	10	-1	0.1	-1	-1	359	0.3	358	359	10.3	96.7
2022-10-28T03:50	10	-1	0.1	-1	-1	359	0.2	358	360	10.4	96.9
2022-10-28T03:51	10	-1	0.1	-1	-1	359	0.2	359	360	10.4	97.0
2022-10-28T03:52	10	-1	0.1	-1	-1	360	0.2	360	360	10.6	96.9
2022-10-28T03:53	10	-1	0.1	-1	-1	360	0.2	359	360	10.6	96.7
2022-10-28T03:54	10	0	0.1	-1	0	360	0.2	359	360	10.6	96.6
2022-10-28T03:55	10	0	0.1	0	0	360	0.2	359	360	10.6	96.4
2022-10-28T03:56	10	0	0.1	0	0	360	0.2	359	360	10.6	96.2
2022-10-28T03:57	10	0	0.1	0	0	360	0.2	359	360	10.6	96.1
2022-10-28T03:58	10	0	0.1	0	0	360	0.2	359	360	10.7	96.2
2022-10-28T03:59	10	0	0.1	0	0	360	0.4	359	360	10.7	96.0
2022-10-28T04:00	10	0	0.1	-1	0	360	0.3	359	360	10.7	95.9
2022-10-28T04:01	10	-1	0.1	-1	0	360	0.3	359	361	10.8	95.7
2022-10-28T04:02	10	-1	0.1	-1	-1	360	0.3	359	360	10.7	95.5
2022-10-28T04:03	10	-1	0.1	-1	0	360	0.3	359	360	10.6	95.3
2022-10-28T04:04	10	-1	0.1	-1	0	360	0.4	359	360	10.5	95.2
2022-10-28T04:05	10	-1	0.1	-1	0	360	0.3	359	360	10.5	95.4
2022-10-28T04:06	10	-1	0.1	-1	0	360	0.6	359	361	10.6	95.6
2022-10-28T04:07	10	-1	0.1	-1	-1	360	0.2	359	360	10.5	95.6
2022-10-28T04:08	10	-1	0.1	-1	0	360	0.3	359	361	10.3	95.7
2022-10-28T04:09	10	0	0.1	-1	0	359	0.2	359	360	10.3	95.8
2022-10-28T04:10	10	0	0.1	-1	0	359	0.2	359	360	10.3	96.1
2022-10-28T04:11	10	0	0.1	-1	0	360	0.4	358	360	10.2	96.3
2022-10-28T04:12	10	0	0.1	0	0	359	0.2	359	360	10.2	96.6
2022-10-28T04:13	10	0	0.1	0	0	359	0.3	358	360	10.1	96.9
2022-10-28T04:14	10	0	0.1	-1	0	360	0.2	359	360	10.2	97.3
2022-10-28T04:15	10	0	0.1	-1	0	360	0.2	359	360	10.1	97.5
2022-10-28T04:16	10	0	0.2	-1	0	360	0.2	359	360	10.1	97.5
2022-10-28T04:17	10	0	0.1	-1	0	360	0.2	359	360	10.0	97.6
2022-10-28T04:18	10	0	0.1	-1	0	360	0.2	359	360	9.9	97.7
2022-10-28T04:19	10	-1	0.1	-1	0	360	0.2	360	361	10.0	97.8
2022-10-28T04:20	10	-1	0.1	-1	0	360	0.2	359	360	10.1	98.0
2022-10-28T04:21	10	-1	0.1	-1	0	360	0.3	359	361	10.3	98.2
2022-10-28T04:22	10	-1	0.1	-1	-1	360	0.2	360	360	10.3	98.2
2022-10-28T04:23	10	-1	0.1	-1	0	360	0.3	359	360	10.1	98.0
2022-10-28T04:24	10	-1	0.1	-1	0	360	0.2	359	360	10.1	97.9
2022-10-28T04:25	10	-1	0.1	-1	0	360	0.3	359	361	10.4	98.1
2022-10-28T04:26	10	-1	0.1	-1	0	361	0.3	360	361	10.5	98.1
2022-10-28T04:27	10	-1	0.1	-1	0	361	0.2	361	361	11.0	98.3
2022-10-28T04:28	10	-1	0.2	-1	0	361	0.2	360	362	11.0	98.0
2022-10-28T04:29	10	0	0.1	-1	0	361	0.2	360	361	11.0	97.6
2022-10-28T04:30	10	-1	0.1	-1	0	360	0.5	360	361	10.8	96.9
2022-10-28T04:31	10	-1	0.1	-1	0	361	0.2	360	361	10.5	96.5
2022-10-28T04:32	10	-1	0.1	-1	0	361	0.2	360	362	10.7	96.7
2022-10-28T04:33	10	-1	0.1	-1	0	361	0.3	360	362	10.7	96.7
2022-10-28T04:34	10	-1	0.1	-1	0	361	0.2	361	361	10.6	96.3
2022-10-28T04:35	10	-1	0.1	-1	-1	361	0.4	361	362	10.9	96.5
2022-10-28T04:36	10	-1	0.1	-1	-1	361	0.3	361	362	10.9	95.9
2022-10-28T04:37	10	-1	0.1	-1	-1	361	0.2	361	362	10.7	95.7
2022-10-28T04:38	10	-1	0.1	-1	-1	361	0.3	361	362	10.7	95.7
2022-10-28T04:39	10	-1	0.1	-1	-1	361	0.2	361	362	10.5	95.6
2022-10-28T04:40	10	-1	0.1	-1	0	361	0.2	360	361	10.3	95.7
2022-10-28T04:41	10	-1	0.1	-1	0	361	0.3	360	362	10.3	96.1
2022-10-28T04:42	10	0	0.1	-1	0	361	0.2	360	361	10.3	96.3
2022-10-28T04:43	10	0	0.1	0	0	361	0.2	360	361	10.3	96.5
2022-10-28T04:44	10	0	0.1	0	0	361	0.2	360	361	10.3	96.7
2022-10-28T04:45	10	0	0.1	0	0	361	0.2	360	361	10.3	96.9
2022-10-28T04:46	10	0	0.1	0	0	360	0.3	360	361	10.3	97.0
2022-10-28T04:47	10	0	0.1	0	0	360	0.3	360	361	10.4	97.1
2022-10-28T04:48	10	0	0.1	0	0	360	0.3	360	361	10.4	97.1
2022-10-28T04:49	10	0	0.1	0	0	360	0.2	360	361	10.3	97.1
2022-10-28T04:50	10	0	0.1	0	0	360	0.3	360	361	10.4	97.1
2022-10-28T04:51	10	0	0.1	0	0	360	0.2	360	361	10.4	97.2
2022-10-28T04:52	10	0	0.1	0	0	360	0.2	359	360	10.3	97.1
2022-10-28T04:53	10	0	0.1	0	0	360	0.3	359	360	10.3	97.1
2022-10-28T04:54	10	0	0.1	-1	0	359	0.2	359	360	10.3	97.1
2022-10-28T04:55	10	0	0.1	-1	0	359	0.3	359	361	10.3	97.2
2022-10-28T04:56	10	0	0.2	-1	0	359	0.3	359	360	10.5	97.3
2022-10-28T04:57	10	0	0.1	0	0	359	0.3	358	360	10.6	97.3
2022-10-28T04:58	10	0	0.1	0	0	359	0.2	358	359	10.5	97.1
2022-10-28T04:59	10	0	0.1	0	0	358	0.3	357	359	10.5	96.9
2022-10-28T05:00	10	0	0.1	0	0	358	0.2	358	359	10.5	96.9
2022-10-28T05:01	10	0	0.1	0	0	358	0.2	357	358	10.4	96.8
2022-10-28T05:02	10	0	0.1	0	0	358	0.2	357	358	10.4	96.8
2022-10-28T05:03	10	0	0.1	0	1	357	0.3	357	358	10.4	96.8
2022-10-28T05:04	10	0	0.1	0	0	357	0.3	357	358	10.4	96.8
2022-10-28T05:05	10	0	0.1	0	0	357	0.3	356	358	10.4	96.9
2022-10-28T05:06	10	0	0.1	0	0	357	0.3	357	358	10.5	97.0
2022-10-28T05:07	10	0	0.1	-1	0	357	0.2	357	358	10.6	97.1
2022-10-28T05:08	10	-1	0.1	-1	0	357	0.2	357	358	10.6	97.0
2022-10-28T05:09	10	-1	0.1	-1	0	357	0.2	357	358	10.6	96.8
2022-10-28T05:10	10	-1	0.1	-1	0	358	0.2	357	358	10.7	96.8
2022-10-28T05:11	10	-1	0.1	-1	-1	357	0.3	357	358	10.7	96.7
2022-10-28T05:12	10	-1	0.1	-1	0	357	0.3	357	358	10.8	96.6
2022-10-28T05:13	10	-1	0.1	-1	-1	357	0.2	357	358	10.9	96.4
2022-10-28T05:14	10	-1	0.1	-1	0	357	0.2	356	357	10.9	96.2
2022-10-28T05:15	10	-1	0.1	-1	-1	357	0.2	356	357	10.8	96.0
2022-10-28T05:16	10	-1	0.1	-1	0	356	0.2	356	357	10.8	95.8
2022-10-28T05:17	10	-1	0.1	-1	0	356	0.2	356	357	10.5	95.6
2022-10-28T05:18	10	-1	0.1	-1	0	356	0.2	356	357	10.5	95.8
2022-10-28T05:19	10	-1	0.1	-1	0	356	0.3	355	356	10.5	95.9
2022-10-28T05:20	10	-1	0.1	-1	-1	356	0.2	355	356	10.4	95.9
2022-10-28T05:21	10	-1	0.1	-1	-1	356	0.3	356	357	10.3	96.1
2022-10-28T05:22	10	-1	0.1	-1	-1	357	0.3	356	357	10.4	96.3
2022-10-28T05:23	10	-1	0.1	-1	-1	357	0.2	356	357	10.4	96.4
2022-10-28T05:24	10	-1	0.1	-1	0	357	0.3	356	357	10.4	96.4
2022-10-28T05:25	10	-1	0.1	-1	-1	357	0.2	356	357	10.3	96.4
2022-10-28T05:26	10	-1	0.1	-1	-1	357	0.3	356	357	10.4	96.6
2022-10-28T05:27	10	-1	0.1	-1	-1	357	0.2	356	357	10.6	96.7
2022-10-28T05:28	10	-1	0.1	-1	-1	357	0.4	356	357	10.3	96.3
2022-10-28T05:29	10	-1	0.1	-2	-1	357	0.2	356	357	10.3	96.3
2022-10-28T05:30	10	-1	0.1	-2	-1	357	0.2	357	358	10.3	96.4
2022-10-28T05:31	10	-1	0.1	-2	-1	357	0.3	357	358	10.3	96.5
2022-10-28T05:32	10	-1	0.1	-1	-1	358	0.2	357	358	10.3	96.6
2022-10-28T05:33	10	-1	0.1	-1	-1	358	0.4	358	359	10.3	96.6
2022-10-28T05:34	10	-1	0.2	-1	0	358	0.2	358	359	10.3	96.6
2022-10-28T05:35	10	-1	0.1	-1	0	358	0.2	358	359	10.2	96.6
2022-10-28T05:36	10	0	0.1	-1	0	358	0.2	358	359	10.2	96.7
2022-10-28T05:37	10	0	0.1	-1	0	358	0.2	358	359	10.2	96.7
2022-10-28T05:38	10	-1	0.1	-1	0	358	0.2	358	359	10.2	96.8
2022-10-28T05:39	10	-1	0.1	-1	0	358	0.2	358	359	10.2	96.9
2022-10-28T05:40	10	0	0.1	-1	0	359	0.2	358	359	10.1	96.9
2022-10-28T05:41	10	0	0.1	-1	0	359	0.2	358	360	10.1	97.0
2022-10-28T05:42	10	0	0.1	0	0	359	0.2	358	359	10.1	97.1
2022-10-28T05:43	10	0	0.1	0	0	358	0.2	358	359	10.0	97.1
2022-10-28T05:44	10	0	0.1	0	0	358	0.2	358	359	10.0	97.3
2022-10-28T05:45	10	0	0.1	0	0	358	0.3	358	359	10.0	97.4
2022-10-28T05:46	10	0	0.1	0	0	358	0.3	357	358	10.0	97.5
2022-10-28T05:47	10	0	0.1	0	0	358	0.2	357	358	10.0	97.7
2022-10-28T05:48	10	0	0.1	0	0	358	0.2	357	358	9.9	97.7
2022-10-28T05:49	10	0	0.2	0	0	358	0.2	357	358	10.0	97.8
2022-10-28T05:50	10	0	0.1	0	0	357	0.3	357	358	9.9	97.9
2022-10-28T05:51	10	0	0.1	-1	0	357	0.2	357	358	9.8	97.9
2022-10-28T05:52	10	0	0.1	-1	0	358	0.2	357	358	9.8	98.0
2022-10-28T05:53	10	0	0.1	-1	0	358	0.2	357	358	9.9	98.1
2022-10-28T05:54	10	0	0.1	-1	0	358	0.2	358	358	9.9	98.2
2022-10-28T05:55	10	0	0.1	-1	0	358	0.3	357	359	10.0	98.3
2022-10-28T05:56	10	0	0.1	-1	0	358	0.3	357	359	10.0	98.3
2022-10-28T05:57	10	0	0.1	-1	0	358	0.2	358	359	10.0	98.3
2022-10-28T05:58	10	-1	0.1	-1	0	359	0.2	358	359	10.0	98.3
2022-10-28T05:59	10	-1	0.1	-1	0	359	0.2	358	359	10.1	98.3
2022-10-28T06:00	10	0	0.1	-1	0	359	0.2	358	359	10.0	98.2
2022-10-28T06:01	10	0	0.1	-1	0	359	0.2	358	359	10.0	98.2
2022-10-28T06:02	10	-1	0.1	-1	0	359	0.3	359	360	10.1	98.2
2022-10-28T06:03	10	-1	0.1	-1	0	360	0.2	359	360	10.2	98.2
2022-10-28T06:04	10	-1	0.1	-1	0	360	0.2	359	360	10.2	98.1
2022-10-28T06:05	10	-1	0.1	-1	0	360	0.2	360	360	10.2	98.0
2022-10-28T06:06	10	0	0.1	-1	0	360	0.2	359	360	10.1	97.9
2022-10-28T06:07	10	0	0.1	-1	0	360	0.3	359	361	10.1	97.9
2022-10-28T06:08	10	0	0.2	-1	0	360	0.2	360	361	10.1	97.8
2022-10-28T06:09	10	-1	0.1	-1	0	361	0.3	360	361	10.1	97.8
2022-10-28T06:10	10	-1	0.2	-1	0	361	0.3	360	361	10.2	97.8
2022-10-28T06:11	10	-1	0.2	-1	0	361	0.3	360	361	10.3	97.7
2022-10-28T06:12	10	-1	0.2	-1	0	361	0.2	361	362	10.3	97.6
2022-10-28T06:13	10	-1	0.1	-2	-1	361	0.2	361	362	10.2	97.4
2022-10-28T06:14	10	-2	0.1	-2	-2	361	0.2	361	362	10.2	97.3
2022-10-28T06:15	10	-2	0.1	-2	-1	361	0.3	361	362	10.1	97.3
2022-10-28T06:16	10	-2	0.1	-2	-2	361	0.3	361	362	10.1	97.3
2022-10-28T06:17	10	-2	0.1	-2	-2	361	0.2	361	362	10.2	97.3
2022-10-28T06:18	10	-2	0.1	-2	-1	361	0.4	360	362	10.1	97.3
2022-10-28T06:19	10	-1	0.1	-2	-1	361	0.2	360	362	10.1	97.3
2022-10-28T06:20	10	-1	0.1	-2	-1	361	0.3	360	361	10.1	97.3
2022-10-28T06:21	10	-1	0.2	-1	0	361	0.2	361	362	10.1	97.4
2022-10-28T06:22	10	-1	0.1	-1	0	361	0.2	360	361	10.1	97.4
2022-10-28T06:23	10	0	0.2	0	0	361	0.2	360	361	10.1	97.3
2022-10-28T06:24	10	0	0.2	0	1	361	0.3	360	361	10.1	97.3
2022-10-28T06:25	10	1	0.2	0	1	361	0.3	360	362	10.1	97.2
2022-10-28T06:26	10	1	0.1	1	1	361	0.2	360	361	10.1	97.2
2022-10-28T06:27	10	1	0.1	1	2	361	0.2	360	361	10.1	97.2
2022-10-28T06:28	10	1	0.1	1	1	360	0.3	360	361	10.1	97.2
2022-10-28T06:29	10	1	0.1	1	1	361	0.3	360	361	10.2	97.2
2022-10-28T06:30	10	1	0.1	1	1	361	0.3	360	361	10.2	97.2
2022-10-28T06:31	10	1	0.1	1	1	361	0.3	360	361	10.1	97.2
2022-10-28T06:32	10	1	0.2	1	1	361	0.3	360	361	10.1	97.2
2022-10-28T06:33	10	1	0.1	1	1	361	0.2	361	362	10.1	97.3
2022-10-28T06:34	10	1	0.1	1	1	361	0.3	360	362	10.1	97.4
2022-10-28T06:35	10	1	0.2	0	1	361	0.3	360	362	10.1	97.6
2022-10-28T06:36	10	1	0.2	0	1	361	0.2	360	361	10.0	97.7
2022-10-28T06:37	10	1	0.1	0	1	361	0.3	360	361	10.1	97.9
2022-10-28T06:38	10	1	0.2	1	1	361	0.2	361	362	10.1	98.0
2022-10-28T06:39	10	1	0.2	1	2	362	0.3	361	362	10.2	98.0
2022-10-28T06:40	10	1	0.1	1	2	362	0.2	362	363	10.3	98.0
2022-10-28T06:41	10	2	0.2	1	2	363	0.3	362	363	10.4	97.9
2022-10-28T06:42	10	2	0.2	2	2	363	0.3	362	363	10.5	97.7
2022-10-28T06:43	10	2	0.1	2	3	363	0.2	362	363	10.6	97.4
2022-10-28T06:44	10	3	0.2	2	3	363	0.3	362	363	10.6	97.1
2022-10-28T06:45	10	3	0.2	3	4	363	0.3	363	364	10.6	96.8
2022-10-28T06:46	10	4	0.2	3	4	363	0.3	363	364	10.9	96.5
2022-10-28T06:47	10	4	0.2	4	5	363	0.2	363	364	11.0	95.5
2022-10-28T06:48	10	4	0.2	4	5	363	0.3	362	364	11.1	94.6
2022-10-28T06:49	10	5	0.2	4	5	364	0.2	363	364	11.2	93.9
2022-10-28T06:50	10	5	0.2	5	5	364	0.2	363	364	11.3	93.3
2022-10-28T06:51	10	5	0.1	5	6	364	0.2	363	364	11.4	92.5
2022-10-28T06:52	10	6	0.2	5	6	363	0.5	362	364	11.2	92.2
2022-10-28T06:53	10	6	0.1	6	7	363	0.2	362	363	10.7	92.9
2022-10-28T06:54	10	7	0.1	6	7	363	0.3	362	364	10.7	94.2
2022-10-28T06:55	10	7	0.1	6	7	363	0.3	363	364	10.8	94.6
2022-10-28T06:56	10	7	0.1	7	7	363	0.2	363	364	10.7	94.6
2022-10-28T06:57	10	7	0.2	7	8	363	0.3	362	364	10.7	94.9
2022-10-28T06:58	10	7	0.1	7	8	363	0.3	362	363	10.7	95.1
2022-10-28T06:59	10	8	0.1	7	8	363	0.2	362	363	10.6	95.3
2022-10-28T07:00	10	8	0.1	8	8	363	0.2	362	363	10.6	95.7
2022-10-28T07:01	10	8	0.2	8	9	362	0.2	362	363	10.5	96.0
2022-10-28T07:02	10	8	0.1	8	8	362	0.4	361	363	10.5	96.3
2022-10-28T07:03	10	8	0.1	8	8	362	0.3	361	362	10.5	96.5
2022-10-28T07:04	10	8	0.1	8	8	361	0.3	361	362	10.4	96.7
2022-10-28T07:05	10	8	0.1	7	8	361	0.3	361	362	10.3	96.7
2022-10-28T07:06	10	7	0.2	7	8	361	0.3	360	361	10.3	96.9
2022-10-28T07:07	10	7	0.1	7	7	361	0.3	360	361	10.4	97.1
2022-10-28T07:08	10	7	0.1	7	7	360	0.2	360	361	10.4	97.2
2022-10-28T07:09	10	7	0.1	6	7	360	0.4	359	360	10.4	97.2
2022-10-28T07:10	10	7	0.1	6	7	360	0.3	359	360	10.3	97.2
2022-10-28T07:11	10	6	0.1	6	7	359	0.2	359	360	10.3	97.2
2022-10-28T07:12	10	6	0.1	6	7	359	0.2	359	360	10.2	97.3
2022-10-28T07:13	10	6	0.1	6	6	359	0.3	359	360	10.2	97.3
2022-10-28T07:14	10	6	0.1	6	7	359	0.2	359	359	10.1	97.3
2022-10-28T07:15	10	6	0.1	6	7	359	0.2	358	359	10.1	97.4
2022-10-28T07:16	10	7	0.2	6	7	358	0.2	358	359	10.2	97.6
2022-10-28T07:17	10	7	0.2	7	8	358	0.2	358	359	10.2	97.7
2022-10-28T07:18	10	8	0.4	8	9	358	0.2	358	359	10.2	97.8
2022-10-28T07:19	10	9	0.3	9	10	358	0.3	358	359	10.1	97.7
2022-10-28T07:20	10	10	0.2	9	10	358	0.2	358	359	10.0	97.8
2022-10-28T07:21	10	10	0.2	10	10	358	0.2	358	359	9.9	97.8
2022-10-28T07:22	10	11	0.2	10	11	359	0.5	358	359	10.0	97.9
2022-10-28T07:23	10	11	0.3	11	12	359	0.7	358	360	10.1	98.0
2022-10-28T07:24	10	16	2.7	12	19	359	0.5	359	360	10.1	98.0
2022-10-28T07:25	10	14	1.7	13	18	360	0.2	359	360	10.1	98.1
2022-10-28T07:26	10	17	1.5	14	21	360	0.9	359	362	10.2	98.1
2022-10-28T07:27	10	24	2.2	21	29	361	0.6	360	362	10.2	98.1
2022-10-28T07:28	10	32	1.1	29	34	362	0.6	361	363	10.3	98.1
2022-10-28T07:29	10	35	0.6	34	36	363	0.5	362	364	10.3	98.0
2022-10-28T07:30	10	37	0.8	36	39	364	0.4	364	365	10.3	97.9
2022-10-28T07:31	10	39	0.4	39	40	365	0.3	365	366	10.4	97.8
2022-10-28T07:32	10	40	0.4	40	41	366	0.2	366	367	10.4	97.7
2022-10-28T07:33	10	43	0.9	41	44	367	0.3	366	367	10.5	97.5
2022-10-28T07:34	10	45	0.8	44	46	367	0.2	367	368	10.6	97.4
2022-10-28T07:35	10	46	0.1	46	47	368	0.3	367	368	10.6	97.3
2022-10-28T07:36	10	47	0.6	47	48	368	0.2	368	369	10.6	97.2
2022-10-28T07:37	10	48	0.2	48	49	369	0.2	368	369	10.6	97.1
2022-10-28T07:38	10	49	0.2	48	49	369	0.2	368	369	10.6	96.9
2022-10-28T07:39	10	48	0.2	48	49	369	0.2	369	370	10.6	96.8
2022-10-28T07:40	10	50	0.4	49	50	369	0.2	369	369	10.6	96.9
2022-10-28T07:41	10	51	0.2	50	51	370	0.2	369	370	10.7	97.0
2022-10-28T07:42	10	51	0.1	51	51	370	0.3	369	370	10.8	97.1
2022-10-28T07:43	10	52	0.3	51	52	370	0.2	370	371	10.8	96.9
2022-10-28T07:44	10	53	0.3	52	53	370	0.2	370	371	10.9	96.9
2022-10-28T07:45	10	54	0.2	53	54	371	0.2	371	371	10.9	96.8
2022-10-28T07:46	10	54	0.2	54	55	371	0.2	371	372	11.0	96.7
2022-10-28T07:47	10	55	0.2	55	55	372	0.2	371	372	10.9	96.5
2022-10-28T07:48	10	55	0.2	55	56	372	0.2	372	373	11.0	96.4
2022-10-28T07:49	10	56	0.2	56	56	373	0.2	372	373	11.1	96.3
2022-10-28T07:50	10	57	0.2	56	57	373	0.2	373	374	11.2	96.2
2022-10-28T07:51	10	57	0.1	57	58	374	0.2	373	374	11.2	96.2
2022-10-28T07:52	10	58	0.2	57	58	374	0.2	374	375	11.3	96.3
2022-10-28T07:53	10	58	0.1	58	58	375	0.3	374	376	11.2	96.3
2022-10-28T07:54	10	59	0.2	58	59	375	0.4	375	376	11.3	96.5
2022-10-28T07:55	10	57	2.5	51	59	376	0.2	375	376	11.5	96.6
2022-10-28T07:56	10	51	1.1	50	54	376	0.4	375	376	11.5	96.5
2022-10-28T07:57	10	59	2.1	55	61	376	0.3	375	377	11.5	96.3
2022-10-28T07:58	10	60	0.9	58	61	376	0.7	375	378	11.3	95.9
2022-10-28T07:59	10	60	0.2	60	61	376	0.3	375	377	11.2	95.7
2022-10-28T08:00	10	58	3.6	50	61	376	0.3	375	377	11.1	95.6
2022-10-28T08:01	10	43	2.7	40	49	375	0.5	374	376	11.1	95.6
2022-10-28T08:02	10	58	5.8	47	65	375	0.8	374	376	11.1	95.5
2022-10-28T08:03	10	65	0.3	65	66	377	0.6	376	378	11.2	95.8
2022-10-28T08:04	10	63	1.4	61	66	377	0.3	377	378	11.4	95.9
2022-10-28T08:05	10	62	5.0	51	67	378	0.3	377	378	11.4	95.9
2022-10-28T08:06	10	44	3.0	40	50	378	0.7	377	379	11.5	95.9
2022-10-28T08:07	10	64	6.6	50	71	378	0.8	377	379	11.6	96.1
2022-10-28T08:08	10	71	0.2	71	72	379	0.4	378	380	11.7	96.1
2022-10-28T08:09	10	72	0.2	72	72	380	0.3	379	381	11.7	95.8
2022-10-28T08:10	10	73	0.4	72	73	381	0.3	380	381	11.6	95.5
2022-10-28T08:11	10	74	0.2	73	74	381	0.6	379	382	11.8	95.4
2022-10-28T08:12	10	75	0.2	74	75	382	0.6	380	383	12.1	95.6
2022-10-28T08:13	10	75	0.2	75	76	382	0.2	382	383	11.9	95.1
2022-10-28T08:14	10	76	0.1	75	76	382	0.4	382	383	11.9	94.9
2022-10-28T08:15	10	76	0.1	76	76	383	0.2	382	383	11.9	94.9
2022-10-28T08:16	10	76	0.1	76	76	384	0.2	383	384	12.0	95.0
2022-10-28T08:17	10	76	0.2	76	77	384	0.2	384	385	12.2	95.2
2022-10-28T08:18	10	77	0.1	77	77	384	0.2	384	385	12.2	95.0
2022-10-28T08:19	10	77	0.1	77	77	384	0.3	384	385	12.3	94.5
2022-10-28T08:20	10	77	0.1	77	78	385	0.3	384	385	12.4	94.8
2022-10-28T08:21	10	77	0.2	77	77	384	0.3	383	385	12.4	95.0
2022-10-28T08:22	10	77	0.1	76	77	384	0.3	383	384	12.5	95.1
2022-10-28T08:23	10	76	0.1	76	77	384	0.2	383	384	12.4	94.7
2022-10-28T08:24	10	76	0.2	76	76	383	0.3	383	384	12.4	94.8
2022-10-28T08:25	10	76	0.1	75	76	383	0.3	383	384	12.3	94.4
2022-10-28T08:26	10	76	0.1	75	76	384	0.5	382	384	12.4	94.5
2022-10-28T08:27	10	76	0.1	75	76	384	0.5	383	385	12.5	94.1
2022-10-28T08:28	10	76	0.1	76	76	384	0.3	383	384	12.5	94.0
2022-10-28T08:29	10	76	0.1	75	76	384	0.2	383	384	12.6	93.8
2022-10-28T08:30	10	76	0.2	76	76	383	0.6	383	384	12.6	93.5
2022-10-28T08:31	10	77	0.4	76	78	383	0.5	382	383	12.5	92.9
2022-10-28T08:32	10	78	0.1	78	78	382	0.3	382	383	12.4	92.0
2022-10-28T08:33	10	78	0.1	78	78	382	0.2	381	382	12.3	90.9
2022-10-28T08:34	10	78	0.1	78	78	382	0.4	381	383	12.3	90.2
2022-10-28T08:35	10	78	0.1	77	78	383	0.6	382	384	12.4	90.6
2022-10-28T08:36	10	78	0.3	78	79	383	0.4	381	383	12.4	90.2
2022-10-28T08:37	10	79	0.1	79	79	382	0.2	381	382	12.3	89.9
2022-10-28T08:38	10	80	0.2	79	80	382	0.8	381	384	12.4	90.2
2022-10-28T08:39	10	80	0.2	80	81	383	0.5	382	384	12.4	90.3
2022-10-28T08:40	10	81	0.2	80	81	384	0.9	382	386	12.5	91.2
2022-10-28T08:41	10	80	0.2	80	81	386	0.9	384	387	12.6	91.6
2022-10-28T08:42	10	80	0.4	80	81	387	0.4	386	388	12.6	91.7
2022-10-28T08:43	10	82	0.6	81	83	387	0.3	387	388	12.8	92.1
2022-10-28T08:44	10	84	0.3	83	84	387	0.4	386	387	12.7	91.3
2022-10-28T08:45	10	85	0.3	84	85	386	0.3	386	387	12.6	90.9
2022-10-28T08:46	10	85	0.1	85	86	388	0.7	386	389	12.8	91.3
2022-10-28T08:47	10	86	0.2	85	86	389	0.2	388	389	12.8	90.8
2022-10-28T08:48	10	87	0.5	86	87	389	0.2	389	390	13.0	90.6
2022-10-28T08:49	10	87	0.3	87	88	390	0.3	389	391	13.0	90.5
2022-10-28T08:50	10	88	0.3	88	89	390	0.2	390	391	13.1	90.2
2022-10-28T08:51	10	89	0.2	89	89	391	0.2	391	391	13.2	90.6
2022-10-28T08:52	10	90	0.1	89	90	392	0.6	391	393	13.3	90.5
2022-10-28T08:53	10	90	0.2	90	91	392	0.3	391	393	13.4	90.5
2022-10-28T08:54	10	91	0.1	91	91	393	0.2	392	393	13.4	90.3
2022-10-28T08:55	10	91	0.1	91	91	393	0.3	392	393	13.5	90.3
2022-10-28T08:56	10	91	0.1	91	91	393	0.2	393	394	13.6	90.4
2022-10-28T08:57	10	92	0.3	91	92	393	0.4	393	394	13.6	91.1
2022-10-28T08:58	10	92	0.1	92	93	394	0.8	393	395	13.6	90.6
2022-10-28T08:59	10	93	0.2	93	93	394	0.7	393	395	13.5	90.3
2022-10-28T09:00	10	93	0.1	93	94	394	0.4	394	395	13.4	89.8
2022-10-28T09:01	10	94	0.1	93	94	395	0.4	393	395	13.4	89.5
2022-10-28T09:02	10	92	3.1	85	94	395	0.4	394	396	13.6	89.5
2022-10-28T09:03	10	90	2.5	85	95	395	0.3	395	396	13.8	89.2
2022-10-28T09:04	10	96	0.4	95	96	396	0.3	395	396	13.6	88.9
2022-10-28T09:05	10	96	0.2	96	97	395	0.3	395	396	13.6	88.5
2022-10-28T09:06	10	97	0.2	96	97	396	0.3	396	397	13.8	88.3
2022-10-28T09:07	10	98	0.3	97	98	396	1.6	393	398	13.7	88.5
2022-10-28T09:08	10	86	10.4	60	98	395	1.3	392	397	13.5	87.7
2022-10-28T09:09	10	54	5.5	44	65	391	1.8	388	395	13.4	87.0
2022-10-28T09:10	10	85	19.9	44	99	391	1.6	389	394	13.5	86.8
2022-10-28T09:11	10	97	0.6	95	98	393	1.1	391	395	13.5	86.5
2022-10-28T09:12	10	94	1.3	91	95	394	0.9	392	396	13.5	86.6
2022-10-28T09:13	10	90	0.5	90	91	395	0.4	394	396	13.6	87.4
2022-10-28T09:14	10	86	3.6	78	91	394	0.2	394	395	13.4	86.7
2022-10-28T09:15	10	80	1.5	78	83	394	0.4	393	395	13.5	86.6
2022-10-28T09:16	10	83	2.9	80	87	394	0.4	393	395	13.6	87.0
2022-10-28T09:17	10	88	2.0	85	92	395	0.3	394	395	13.5	87.0
2022-10-28T09:18	10	85	2.7	83	92	395	0.5	394	396	13.5	87.3
2022-10-28T09:19	10	86	1.1	83	88	395	0.5	394	396	13.6	86.9
2022-10-28T09:20	10	87	2.5	84	93	396	0.7	394	397	13.8	87.3
2022-10-28T09:21	10	97	1.8	93	98	397	0.6	395	398	13.9	87.0
2022-10-28T09:22	10	97	0.4	96	98	397	0.3	397	398	13.9	86.9
2022-10-28T09:23	10	97	2.1	89	99	398	0.3	397	398	14.0	86.7
2022-10-28T09:24	10	99	5.0	87	103	399	0.5	398	400	14.1	87.5
2022-10-28T09:25	10	102	1.2	100	104	399	0.5	398	400	14.0	87.4
2022-10-28T09:26	10	104	1.2	99	105	399	0.7	397	400	13.9	86.7
2022-10-28T09:27	10	104	4.0	96	107	398	0.3	397	399	13.9	86.3
2022-10-28T09:28	10	107	0.2	107	108	399	0.5	398	400	13.9	85.9
2022-10-28T09:29	10	107	0.2	107	108	399	0.7	398	400	13.9	85.3
2022-10-28T09:30	10	107	0.1	107	108	400	0.5	399	401	14.0	85.5
2022-10-28T09:31	10	108	0.4	107	109	401	0.5	400	402	14.2	86.4
2022-10-28T09:32	10	110	0.5	109	111	402	0.2	401	402	14.1	85.7
2022-10-28T09:33	10	96	16.9	60	111	401	1.5	397	402	14.1	85.6
2022-10-28T09:34	10	61	12.4	46	83	396	1.0	395	399	13.9	85.2
2022-10-28T09:35	10	81	7.9	67	102	397	0.4	396	398	13.9	85.3
2022-10-28T09:36	10	104	11.3	78	116	399	1.1	397	401	14.0	85.3
2022-10-28T09:37	10	86	16.4	62	109	400	1.5	397	402	14.3	86.1
2022-10-28T09:38	10	119	6.4	104	124	402	1.1	399	403	14.2	85.8
2022-10-28T09:39	10	106	14.4	82	124	402	0.7	401	404	14.2	85.5
2022-10-28T09:40	10	120	10.1	100	128	403	0.8	401	404	14.2	85.6
2022-10-28T09:41	10	128	0.6	128	130	405	0.4	404	406	14.3	85.7
2022-10-28T09:42	10	131	0.5	130	132	406	0.9	404	407	14.2	85.4
2022-10-28T09:43	10	132	0.5	131	133	407	0.9	406	408	14.3	85.4
2022-10-28T09:44	10	133	0.2	133	133	408	0.6	407	410	14.5	85.7
2022-10-28T09:45	10	131	0.8	129	133	408	0.5	407	409	14.5	85.1
2022-10-28T09:46	10	116	14.9	83	129	407	1.7	403	409	14.5	85.2
2022-10-28T09:47	10	99	18.4	77	121	403	1.1	401	405	14.3	84.3
2022-10-28T09:48	10	117	1.8	113	119	405	0.3	404	405	14.4	84.9
2022-10-28T09:49	10	123	1.3	119	124	405	0.2	404	405	14.3	84.3
2022-10-28T09:50	10	97	12.2	73	121	404	0.8	402	405	14.4	84.4
2022-10-28T09:51	10	114	5.4	105	120	403	0.3	403	405	14.4	85.0
2022-10-28T09:52	10	97	28.4	47	120	404	1.8	400	406	14.4	85.0
2022-10-28T09:53	10	43	6.1	36	57	398	2.6	394	403	14.2	84.8
2022-10-28T09:54	10	37	2.2	36	46	394	0.7	393	395	14.2	84.7
2022-10-28T09:55	10	62	10.0	48	87	394	0.8	393	396	14.3	84.7
2022-10-28T09:56	10	117	5.2	93	120	399	2.6	394	403	14.3	84.2
2022-10-28T09:57	10	115	4.1	104	118	402	1.1	400	404	14.3	83.6
2022-10-28T09:58	10	116	0.2	116	117	404	0.9	402	405	14.4	83.4
2022-10-28T09:59	10	117	0.1	116	117	405	0.4	405	406	14.6	84.0
2022-10-28T10:00	10	117	0.1	116	117	405	0.5	404	406	14.6	83.9
2022-10-28T10:01	10	117	0.1	116	117	405	0.3	404	405	14.5	83.3
2022-10-28T10:02	10	116	0.3	116	117	405	0.4	404	405	14.5	82.8
2022-10-28T10:03	10	115	0.2	115	116	405	0.9	404	407	14.6	82.0
2022-10-28T10:04	10	116	0.3	115	116	406	0.3	406	407	14.7	82.0
2022-10-28T10:05	10	116	0.2	116	116	407	0.2	406	407	14.8	82.3
2022-10-28T10:06	10	117	0.6	116	118	407	0.3	407	408	14.9	82.5
2022-10-28T10:07	10	118	0.1	118	118	408	0.5	407	409	14.9	82.2
2022-10-28T10:08	10	118	0.1	117	118	408	0.6	407	409	15.0	82.2
2022-10-28T10:09	10	117	0.3	117	118	409	0.3	408	409	15.1	82.3
2022-10-28T10:10	10	117	0.2	117	118	409	0.4	408	409	15.3	82.8
2022-10-28T10:11	10	117	0.1	117	118	408	0.4	408	409	15.3	82.1
2022-10-28T10:12	10	117	0.2	116	117	408	0.4	407	409	15.4	82.6
2022-10-28T10:13	10	116	0.2	116	116	409	0.3	408	410	15.4	82.4
2022-10-28T10:14	10	115	0.3	115	116	410	0.3	409	411	15.5	82.3
2022-10-28T10:15	10	116	0.5	115	117	410	0.2	410	411	15.6	82.3
2022-10-28T10:16	10	117	0.2	116	117	411	1.3	409	413	15.4	81.8
2022-10-28T10:17	10	116	0.3	115	116	411	0.3	410	412	15.5	81.7
2022-10-28T10:18	10	116	0.3	115	116	411	0.6	410	412	15.5	81.6
2022-10-28T10:19	10	114	0.5	113	115	411	0.3	410	411	15.5	80.8
2022-10-28T10:20	10	114	0.2	113	114	411	0.7	409	412	15.6	81.6
2022-10-28T10:21	10	115	0.3	114	115	411	0.6	410	412	15.7	81.8
2022-10-28T10:22	10	116	0.2	115	116	412	0.2	412	412	15.7	81.8
2022-10-28T10:23	10	115	0.3	115	116	413	0.8	411	414	15.9	82.9
2022-10-28T10:24	10	116	0.5	115	116	413	0.3	412	414	16.1	83.3
2022-10-28T10:25	10	115	0.4	115	116	414	0.5	413	415	15.9	82.6
2022-10-28T10:26	10	117	1.0	114	118	413	0.3	413	414	15.7	81.9
2022-10-28T10:27	10	112	2.1	109	115	413	0.3	412	414	15.9	82.4
2022-10-28T10:28	10	116	0.6	115	117	414	0.9	412	415	16.3	82.9
2022-10-28T10:29	10	117	0.4	116	118	414	0.5	413	415	16.0	80.8
2022-10-28T10:30	10	119	0.3	118	119	413	0.6	412	415	15.9	80.2
2022-10-28T10:31	10	119	0.3	119	120	415	0.5	413	416	16.0	79.9
2022-10-28T10:32	10	118	0.3	118	119	415	0.8	413	416	16.0	79.7
2022-10-28T10:33	10	119	0.7	118	120	415	0.5	414	417	16.0	78.7
2022-10-28T10:34	10	121	0.6	120	122	416	0.2	415	416	16.1	78.9
2022-10-28T10:35	10	122	0.2	121	122	416	0.4	414	417	16.3	79.9
2022-10-28T10:36	10	122	0.4	121	123	416	0.5	415	417	16.2	79.7
2022-10-28T10:37	10	123	0.4	122	124	416	0.5	415	417	16.3	79.9
2022-10-28T10:38	10	122	0.6	121	123	416	0.4	415	417	16.3	78.7
2022-10-28T10:39	10	121	0.5	121	122	415	0.7	414	417	16.2	78.1
2022-10-28T10:40	10	121	1.1	119	122	415	0.5	414	416	16.2	78.5
2022-10-28T10:41	10	117	1.8	114	119	415	0.5	414	416	16.3	77.9
2022-10-28T10:42	10	110	2.3	107	114	415	0.4	414	416	16.4	77.9
2022-10-28T10:43	10	107	0.5	106	108	414	0.3	413	415	16.4	77.1
2022-10-28T10:44	10	104	1.4	101	106	414	0.2	413	414	16.4	77.2
2022-10-28T10:45	10	101	1.1	100	104	413	0.2	413	414	16.5	77.3
2022-10-28T10:46	10	104	1.7	98	105	414	0.2	413	414	16.6	77.5
2022-10-28T10:47	10	80	16.6	60	106	412	1.8	410	416	16.6	76.1
2022-10-28T10:48	10	71	15.8	56	105	412	1.4	410	414	16.7	76.2
2022-10-28T10:49	10	54	2.5	50	60	408	0.9	407	410	16.7	77.2
2022-10-28T10:50	10	82	10.7	61	97	410	1.8	407	413	16.5	76.8
2022-10-28T10:51	10	109	5.9	97	117	413	1.2	411	415	16.6	77.7
2022-10-28T10:52	10	115	5.4	104	121	416	0.5	414	417	16.8	77.4
2022-10-28T10:53	10	126	3.0	121	131	418	1.3	415	421	16.9	77.0
2022-10-28T10:54	10	135	2.1	131	138	420	0.9	418	421	16.9	76.7
2022-10-28T10:55	10	142	3.2	134	145	421	0.5	420	422	17.0	76.8
2022-10-28T10:56	10	100	24.1	73	143	420	2.7	415	423	17.2	77.2
2022-10-28T10:57	10	71	1.9	69	75	415	1.0	413	417	17.0	76.4
2022-10-28T10:58	10	83	8.7	73	99	414	0.4	414	416	17.0	78.1
2022-10-28T10:59	10	111	9.4	99	130	417	1.0	415	418	17.0	78.3
2022-10-28T11:00	10	129	9.0	108	141	419	1.2	417	421	17.0	78.3
2022-10-28T11:01	10	108	15.2	90	134	419	0.8	417	420	17.3	80.5
2022-10-28T11:02	10	141	2.6	135	144	422	1.4	419	424	17.3	78.1
2022-10-28T11:03	10	131	8.8	118	144	422	1.3	419	423	17.3	78.2
2022-10-28T11:04	10	124	6.2	116	138	420	0.6	418	421	17.2	78.1
2022-10-28T11:05	10	115	1.7	112	119	418	0.5	417	419	17.1	77.4
2022-10-28T11:06	10	99	9.6	84	114	417	1.2	415	419	17.1	77.8
2022-10-28T11:07	10	82	5.0	76	96	415	0.7	414	417	17.0	77.3
2022-10-28T11:08	10	116	14.5	96	138	417	2.1	413	420	17.0	77.6
2022-10-28T11:09	10	114	30.9	67	148	418	1.8	414	421	17.0	77.5
2022-10-28T11:10	10	71	10.6	61	94	414	0.7	413	416	17.2	77.8
2022-10-28T11:11	10	92	25.5	68	132	414	1.8	412	418	17.1	76.8
2022-10-28T11:12	10	123	12.1	101	138	419	1.2	417	420	17.3	75.9
2022-10-28T11:13	10	104	25.8	64	136	419	2.3	414	421	17.1	74.5
2022-10-28T11:14	10	76	7.8	64	89	414	1.0	412	416	17.0	74.3
2022-10-28T11:15	10	65	3.4	59	74	412	0.5	411	413	17.1	74.8
2022-10-28T11:16	10	90	24.1	58	138	412	1.3	410	415	17.1	75.9
2022-10-28T11:17	10	138	0.2	137	138	417	1.9	412	420	17.0	73.7
2022-10-28T11:18	10	136	1.3	132	137	419	0.5	418	420	17.1	73.6
2022-10-28T11:19	10	135	0.7	134	136	421	0.6	419	421	17.1	73.7
2022-10-28T11:20	10	135	0.2	134	135	422	0.6	421	423	17.3	74.1
2022-10-28T11:21	10	134	0.4	133	135	423	0.4	422	423	17.4	75.1
2022-10-28T11:22	10	133	0.3	132	134	423	0.4	422	423	17.5	75.7
2022-10-28T11:23	10	124	5.9	116	133	422	0.6	420	423	17.4	74.1
2022-10-28T11:24	10	129	4.4	118	132	420	0.3	420	421	17.4	73.8
2022-10-28T11:25	10	130	0.6	129	131	421	0.6	420	422	17.4	73.2
2022-10-28T11:26	10	129	0.2	128	129	420	0.5	419	422	17.3	73.6
2022-10-28T11:27	10	128	0.4	127	129	422	0.5	420	423	17.7	76.3
2022-10-28T11:28	10	126	0.5	126	127	422	0.5	421	423	17.6	74.7
2022-10-28T11:29	10	125	0.7	123	126	421	0.4	420	422	17.5	73.9
2022-10-28T11:30	10	122	0.5	122	123	422	0.6	421	424	17.7	74.7
2022-10-28T11:31	10	122	0.6	121	123	421	0.6	419	422	17.8	74.2
2022-10-28T11:32	10	121	0.2	121	122	421	0.4	420	422	17.6	73.0
2022-10-28T11:33	10	121	0.2	120	122	421	0.4	421	422	17.7	73.2
2022-10-28T11:34	10	120	0.7	119	121	421	0.3	420	422	17.7	73.2
2022-10-28T11:35	10	119	0.3	118	119	421	0.3	420	421	17.7	72.6
2022-10-28T11:36	10	117	0.6	116	118	422	0.2	421	422	17.8	72.4
2022-10-28T11:37	10	117	0.4	116	117	422	0.6	421	423	18.0	73.6
2022-10-28T11:38	10	117	0.6	116	118	423	0.3	422	423	18.0	74.3
2022-10-28T11:39	10	116	0.4	115	117	422	0.5	422	423	18.0	75.6
2022-10-28T11:40	10	116	0.8	113	117	422	0.4	421	423	17.9	75.1
2022-10-28T11:41	10	114	2.5	110	118	422	0.3	421	423	17.9	73.3
2022-10-28T11:42	10	118	0.5	117	118	422	0.2	422	423	17.8	73.0
2022-10-28T11:43	10	117	0.2	117	117	422	0.6	421	424	17.8	73.8
2022-10-28T11:44	10	118	0.4	117	118	422	0.3	421	423	17.7	74.1
2022-10-28T11:45	10	118	0.2	118	118	421	0.4	420	422	17.6	73.3
2022-10-28T11:46	10	118	0.5	117	119	421	0.4	420	422	17.8	73.4
2022-10-28T11:47	10	119	0.8	117	119	422	0.5	421	423	18.0	73.7
2022-10-28T11:48	10	116	0.6	114	117	421	0.3	421	422	17.9	73.1
2022-10-28T11:49	10	114	0.4	113	115	421	1.0	419	423	17.9	73.1
2022-10-28T11:50	10	114	0.6	113	115	420	0.2	420	421	17.8	72.8
2022-10-28T11:51	10	116	0.3	115	116	421	1.0	420	423	17.9	73.3
2022-10-28T11:52	10	116	0.5	115	117	423	0.7	422	424	18.0	74.2
2022-10-28T11:53	10	117	0.3	116	118	423	0.3	422	424	18.0	73.3
2022-10-28T11:54	10	118	0.4	117	119	424	1.1	422	425	18.3	73.9
2022-10-28T11:55	10	120	0.3	119	120	423	0.5	422	424	18.2	72.3
2022-10-28T11:56	10	120	0.1	120	120	423	0.3	422	424	18.2	72.4
2022-10-28T11:57	10	120	0.1	120	120	422	0.9	421	424	18.0	72.2
2022-10-28T11:58	10	120	0.1	120	120	422	0.6	421	423	18.0	72.2
2022-10-28T11:59	10	120	0.2	120	121	423	0.4	423	424	18.1	73.5
2022-10-28T12:00	10	121	0.1	120	121	423	0.4	422	423	18.0	72.2
2022-10-28T12:01	10	120	0.3	120	121	424	0.9	421	425	18.1	71.9
2022-10-28T12:02	10	121	0.7	120	122	425	0.5	424	426	18.2	71.5
2022-10-28T12:03	10	123	0.6	122	124	425	0.3	424	426	18.4	71.6
2022-10-28T12:04	10	125	0.5	124	126	425	0.3	425	426	18.3	72.3
2022-10-28T12:05	10	127	0.6	125	127	425	0.8	424	426	18.2	71.6
2022-10-28T12:06	10	128	0.9	126	129	425	0.4	424	426	18.2	71.6
2022-10-28T12:07	10	131	0.7	129	132	426	0.3	425	426	18.3	72.1
2022-10-28T12:08	10	132	0.5	132	133	426	0.5	425	427	18.3	72.2
2022-10-28T12:09	10	122	13.9	94	134	426	1.2	422	427	18.3	71.1
2022-10-28T12:10	10	107	13.8	69	125	424	0.9	421	425	18.3	72.2
2022-10-28T12:11	10	63	3.7	57	69	418	1.9	416	422	18.2	72.3
2022-10-28T12:12	10	65	7.0	56	81	417	0.8	416	418	18.2	72.1
2022-10-28T12:13	10	67	7.6	59	93	417	0.4	416	418	18.2	71.8
2022-10-28T12:14	10	66	10.6	58	98	417	0.5	416	418	18.4	71.5
2022-10-28T12:15	10	60	1.9	57	65	417	0.3	416	418	18.4	72.6
2022-10-28T12:16	10	66	8.0	60	88	418	0.8	416	419	18.5	73.3
2022-10-28T12:17	10	60	2.2	58	69	416	0.6	415	417	18.4	72.5
2022-10-28T12:18	10	104	24.5	70	133	418	3.0	415	424	18.4	71.5
2022-10-28T12:19	10	136	4.8	123	139	424	1.6	420	426	18.5	71.6
2022-10-28T12:20	10	95	20.1	72	125	422	2.9	418	427	18.5	72.0
2022-10-28T12:21	10	125	12.0	95	136	423	1.9	420	426	18.5	72.4
2022-10-28T12:22	10	122	8.9	102	135	425	0.9	423	426	18.5	72.9
2022-10-28T12:23	10	103	21.8	69	128	422	1.7	419	425	18.5	72.9
2022-10-28T12:24	10	123	5.6	111	130	425	0.9	422	426	18.5	72.8
2022-10-28T12:25	10	125	1.5	122	126	426	0.4	425	426	18.5	73.3
2022-10-28T12:26	10	125	0.4	124	126	426	0.6	425	427	18.8	74.6
2022-10-28T12:27	10	124	0.7	122	125	427	0.7	425	428	18.7	73.2
2022-10-28T12:28	10	122	0.3	121	123	426	0.8	425	427	18.6	73.4
2022-10-28T12:29	10	120	1.0	118	122	425	0.2	425	426	18.5	73.6
2022-10-28T12:30	10	118	0.4	117	118	424	0.3	423	425	18.6	74.0
2022-10-28T12:31	10	116	0.4	115	117	425	0.5	424	426	18.7	74.1
2022-10-28T12:32	10	115	0.2	115	116	425	0.3	424	426	18.9	74.5
2022-10-28T12:33	10	115	0.1	115	115	425	0.2	424	425	19.1	74.8
2022-10-28T12:34	10	114	0.3	114	115	423	0.8	422	425	19.0	73.7
2022-10-28T12:35	10	114	0.1	114	114	421	0.4	420	422	18.7	73.5
2022-10-28T12:36	10	111	3.5	103	114	421	0.3	420	422	18.6	74.3
2022-10-28T12:37	10	101	4.5	93	106	421	0.4	420	422	18.7	74.3
2022-10-28T12:38	10	102	1.6	100	105	422	0.3	421	422	18.8	74.8
2022-10-28T12:39	10	108	2.6	103	112	422	0.3	421	423	18.8	74.0
2022-10-28T12:40	10	106	0.9	104	107	422	0.3	421	423	18.9	74.7
2022-10-28T12:41	10	109	0.7	108	111	422	0.3	421	422	18.8	73.4
2022-10-28T12:42	10	113	1.3	111	115	422	0.3	421	423	18.9	73.8
2022-10-28T12:43	10	116	0.7	115	117	423	0.4	422	424	19.0	73.8
2022-10-28T12:44	10	117	0.2	117	117	422	0.3	422	423	19.0	73.2
2022-10-28T12:45	10	117	0.2	116	117	423	0.6	422	424	19.1	73.2
2022-10-28T12:46	10	117	0.4	116	118	424	0.2	423	424	19.2	73.0
2022-10-28T12:47	10	118	0.6	117	119	424	0.5	423	425	19.3	73.1
2022-10-28T12:48	10	118	0.3	117	118	424	0.7	423	425	19.3	73.8
2022-10-28T12:49	10	119	0.4	118	119	423	0.2	423	424	19.1	72.8
2022-10-28T12:50	10	119	0.7	118	120	424	0.5	423	425	19.1	73.5
2022-10-28T12:51	10	118	0.7	116	119	423	0.9	422	425	19.1	73.4
2022-10-28T12:52	10	115	0.5	114	116	423	0.5	422	424	19.0	73.2
2022-10-28T12:53	10	114	0.6	113	115	423	0.2	423	424	19.1	73.8
2022-10-28T12:54	10	113	1.1	111	114	424	0.3	423	424	19.1	73.5
2022-10-28T12:55	10	110	1.1	108	112	422	0.6	421	423	19.1	73.0
2022-10-28T12:56	10	115	1.6	109	116	422	0.8	421	423	19.0	73.1
2022-10-28T12:57	10	102	5.1	93	109	422	0.4	421	423	19.1	73.3
2022-10-28T12:58	10	59	13.9	46	97	419	2.3	415	423	19.1	72.9
2022-10-28T12:59	10	48	1.8	46	53	415	0.8	414	417	19.0	72.8
2022-10-28T13:00	10	87	19.7	53	113	417	2.6	414	422	19.1	73.1
2022-10-28T13:01	10	69	5.1	64	88	419	0.8	418	421	19.2	73.1
2022-10-28T13:02	10	100	27.3	63	140	420	2.7	417	425	19.2	72.8
2022-10-28T13:03	10	140	2.1	136	143	427	2.1	423	430	19.3	72.2
2022-10-28T13:04	10	133	9.0	119	143	429	0.4	428	430	19.4	72.3
2022-10-28T13:05	10	140	2.3	135	143	430	0.4	429	431	19.5	72.0
2022-10-28T13:06	10	142	0.2	142	143	432	0.6	431	433	19.6	71.7
2022-10-28T13:07	10	142	0.2	142	142	433	0.5	432	434	19.6	71.5
2022-10-28T13:08	10	142	0.3	141	142	432	0.3	431	433	19.6	71.4
2022-10-28T13:09	10	140	0.5	139	141	433	0.4	432	433	19.7	70.6
2022-10-28T13:10	10	138	0.8	137	139	434	0.4	433	434	19.9	71.2
2022-10-28T13:11	10	87	27.6	63	136	430	4.0	424	435	20.0	70.6
2022-10-28T13:12	10	61	1.2	59	63	425	0.9	424	427	20.0	70.2
2022-10-28T13:13	10	58	0.5	57	59	424	0.5	423	425	20.1	69.4
2022-10-28T13:14	10	59	1.1	57	61	423	0.3	423	424	20.1	69.7
2022-10-28T13:15	10	54	1.1	52	56	423	0.3	422	424	20.1	69.6
2022-10-28T13:16	10	51	0.5	51	53	422	0.6	421	423	19.9	70.4
2022-10-28T13:17	10	50	0.3	50	51	422	0.5	420	422	19.9	70.8
2022-10-28T13:18	10	50	0.2	50	51	420	0.5	420	422	19.8	70.5
2022-10-28T13:19	10	51	0.6	50	53	420	0.4	419	421	19.8	70.9
2022-10-28T13:20	10	62	6.5	52	70	421	0.8	420	423	19.8	71.5
2022-10-28T13:21	10	64	2.4	61	70	422	0.4	421	423	19.9	70.4
2022-10-28T13:22	10	76	11.6	62	100	422	0.8	421	423	19.8	71.4
2022-10-28T13:23	10	96	6.7	81	106	425	1.9	421	427	19.9	70.5
2022-10-28T13:24	10	83	9.4	73	102	425	0.5	424	426	20.0	70.2
2022-10-28T13:25	10	100	16.1	75	120	426	1.5	424	429	20.0	70.7
2022-10-28T13:26	10	115	9.9	98	128	428	0.8	427	430	20.2	72.3
2022-10-28T13:27	10	99	13.1	72	124	429	0.8	428	430	20.2	70.1
2022-10-28T13:28	10	116	15.5	90	131	429	1.3	427	432	20.2	70.3
2022-10-28T13:29	10	131	1.9	125	133	432	0.5	431	433	20.5	71.6
2022-10-28T13:30	10	131	2.1	125	133	434	0.7	433	435	20.4	71.3
2022-10-28T13:31	10	124	7.5	115	133	433	0.6	432	434	20.4	70.4
2022-10-28T13:32	10	116	20.2	71	132	433	1.5	429	434	20.5	70.9
2022-10-28T13:33	10	74	5.4	67	91	428	1.2	426	431	20.3	68.9
2022-10-28T13:34	10	115	11.1	92	131	429	1.6	427	432	20.3	69.0
2022-10-28T13:35	10	130	3.0	116	131	433	0.4	432	433	20.4	69.3
2022-10-28T13:36	10	77	16.7	58	113	429	2.5	425	434	20.4	68.2
2022-10-28T13:37	10	55	1.2	53	57	426	1.3	423	428	20.4	68.4
2022-10-28T13:38	10	52	1.2	51	58	424	0.5	423	425	20.4	68.1
2022-10-28T13:39	10	61	6.7	53	75	424	1.0	422	426	20.4	68.9
2022-10-28T13:40	10	57	4.6	48	64	423	0.5	421	424	20.3	68.9
2022-10-28T13:41	10	45	1.2	44	48	421	0.7	420	423	20.3	69.8
2022-10-28T13:42	10	42	0.8	41	44	419	0.8	418	421	20.2	70.0
2022-10-28T13:43	10	40	0.5	39	41	417	0.4	417	418	20.0	70.2
2022-10-28T13:44	10	39	0.3	38	39	416	0.3	416	417	20.0	70.7
2022-10-28T13:45	10	38	0.1	38	39	416	0.4	415	417	20.0	71.3
2022-10-28T13:46	10	38	0.2	38	39	415	0.3	414	416	19.9	70.6
2022-10-28T13:47	10	39	0.9	38	43	415	0.3	414	415	19.9	70.4
2022-10-28T13:48	10	70	15.7	43	92	417	1.8	413	419	19.9	71.3
2022-10-28T13:49	10	83	12.6	55	95	418	1.5	416	421	19.8	71.4
2022-10-28T13:50	10	49	7.8	43	70	417	1.3	415	420	19.8	71.3
2022-10-28T13:51	10	43	1.1	42	45	415	0.4	415	416	19.7	72.2
2022-10-28T13:52	10	52	7.3	43	74	416	0.5	414	416	19.6	73.4
2022-10-28T13:53	10	88	9.8	66	103	417	1.2	414	419	19.3	75.1
2022-10-28T13:54	10	54	4.5	48	64	416	1.0	414	418	19.0	75.5
2022-10-28T13:55	10	68	12.8	52	88	416	0.9	414	417	19.0	77.1
2022-10-28T13:56	10	49	1.6	47	52	415	0.7	414	416	19.1	78.1
2022-10-28T13:57	10	73	19.0	48	106	416	1.6	413	419	19.1	78.4
2022-10-28T13:58	10	106	0.3	106	107	419	1.1	417	421	18.9	77.7
2022-10-28T13:59	10	104	0.7	103	106	419	0.3	419	420	18.8	76.5
2022-10-28T14:00	10	102	0.8	100	103	419	0.3	418	420	18.8	76.7
2022-10-28T14:01	10	99	0.8	97	100	420	0.4	419	420	18.9	77.8
2022-10-28T14:02	10	96	0.7	95	97	419	0.2	419	420	19.0	77.7
2022-10-28T14:03	10	94	0.5	93	95	419	0.3	418	420	19.0	77.9
2022-10-28T14:04	10	92	0.6	91	93	418	0.5	417	419	19.0	77.5
2022-10-28T14:05	10	90	0.5	89	91	418	0.2	417	418	18.9	77.7
2022-10-28T14:06	10	87	0.8	86	89	417	0.4	416	418	18.8	77.7
2022-10-28T14:07	10	86	0.4	85	87	416	0.2	416	417	18.9	77.7
2022-10-28T14:08	10	84	0.5	83	85	416	0.6	415	417	19.0	77.6
2022-10-28T14:09	10	81	1.1	79	83	416	0.2	416	417	19.0	77.6
2022-10-28T14:10	10	76	1.4	74	79	416	0.4	415	417	19.1	78.3
2022-10-28T14:11	10	74	0.5	73	75	415	0.4	414	416	19.1	77.9
2022-10-28T14:12	10	76	0.2	75	76	414	0.3	414	415	19.0	76.6
2022-10-28T14:13	10	75	0.7	74	76	414	0.4	414	415	19.0	76.6
2022-10-28T14:14	10	74	0.2	74	74	415	0.3	414	415	19.1	77.4
2022-10-28T14:15	10	74	0.3	74	75	415	0.3	414	416	19.1	77.9
2022-10-28T14:16	10	74	0.1	73	74	414	0.6	413	415	19.0	76.6
2022-10-28T14:17	10	74	0.2	73	74	413	0.3	413	414	19.0	77.0
2022-10-28T14:18	10	73	0.5	72	74	413	0.3	413	414	19.0	77.1
2022-10-28T14:19	10	69	1.7	66	72	413	0.2	412	413	19.0	76.8
2022-10-28T14:20	10	65	1.2	62	66	412	0.4	412	413	18.9	76.5
2022-10-28T14:21	10	60	0.9	59	62	411	0.2	411	412	19.0	76.3
2022-10-28T14:22	10	58	0.4	58	59	411	0.4	410	412	19.0	76.5
2022-10-28T14:23	10	60	0.3	59	60	411	0.2	410	411	19.0	76.4
2022-10-28T14:24	10	61	0.3	60	61	411	0.2	411	412	19.0	76.9
2022-10-28T14:25	10	64	1.6	61	67	411	0.6	411	413	19.1	76.6
2022-10-28T14:26	10	68	0.6	67	69	412	0.6	411	414	19.1	76.9
2022-10-28T14:27	10	65	2.8	60	68	412	0.4	412	413	19.2	76.0
2022-10-28T14:28	10	58	0.5	58	60	412	0.2	411	412	19.2	75.5
2022-10-28T14:29	10	63	2.0	59	65	412	0.4	411	413	19.2	75.6
2022-10-28T14:30	10	67	1.0	65	68	412	0.3	411	413	19.1	76.0
2022-10-28T14:31	10	69	0.3	68	69	413	0.2	412	413	19.1	76.4
2022-10-28T14:32	10	69	0.2	69	69	413	0.2	412	413	19.1	75.9
2022-10-28T14:33	10	68	0.4	67	69	412	0.4	412	413	19.1	75.7
2022-10-28T14:34	10	66	0.5	66	67	412	0.2	412	413	19.1	75.2
2022-10-28T14:35	10	65	0.3	65	66	412	0.3	411	412	19.1	75.2
2022-10-28T14:36	10	65	0.2	64	65	412	0.2	412	413	19.2	75.2
2022-10-28T14:37	10	66	0.2	65	66	412	0.4	411	413	19.2	74.4
2022-10-28T14:38	10	66	0.2	66	66	412	0.4	411	413	19.2	74.4
2022-10-28T14:39	10	66	0.1	65	66	412	0.2	411	412	19.2	75.0
2022-10-28T14:40	10	65	0.3	65	66	411	0.3	411	412	19.3	74.4
2022-10-28T14:41	10	64	0.5	63	65	411	0.2	410	412	19.3	74.1
2022-10-28T14:42	10	61	1.0	60	63	411	0.4	410	411	19.3	74.4
2022-10-28T14:43	10	60	0.1	60	60	411	0.3	410	411	19.3	74.6
2022-10-28T14:44	10	60	0.3	59	60	410	0.2	410	411	19.2	73.9
2022-10-28T14:45	10	58	0.7	56	59	410	0.3	409	411	19.3	74.1
2022-10-28T14:46	10	52	2.1	50	56	410	0.3	409	410	19.3	74.5
2022-10-28T14:47	10	53	0.9	51	54	410	0.5	409	411	19.3	74.8
2022-10-28T14:48	10	54	0.1	54	54	409	0.4	409	410	19.2	75.3
2022-10-28T14:49	10	54	0.1	53	54	409	0.2	409	410	19.2	75.3
2022-10-28T14:50	10	54	0.2	54	55	409	0.4	408	410	19.2	75.7
2022-10-28T14:51	10	55	0.2	54	55	409	0.3	408	409	19.1	75.7
2022-10-28T14:52	10	52	0.9	51	54	409	0.3	408	409	19.1	76.4
2022-10-28T14:53	10	49	0.7	48	51	408	0.4	407	409	19.1	76.8
2022-10-28T14:54	10	47	0.4	47	48	407	0.5	407	408	19.0	76.1
2022-10-28T14:55	10	45	0.7	44	47	407	0.3	407	408	19.0	76.4
2022-10-28T14:56	10	43	0.8	42	44	407	0.4	406	408	19.0	77.4
2022-10-28T14:57	10	42	0.2	42	42	407	0.3	406	407	19.0	77.5
2022-10-28T14:58	10	42	0.2	42	43	406	0.4	405	407	18.9	77.9
2022-10-28T14:59	10	42	0.2	42	43	405	0.2	405	406	18.8	78.4
2022-10-28T15:00	10	43	0.3	42	43	406	0.2	405	406	18.8	78.7
2022-10-28T15:01	10	44	0.3	43	44	405	0.5	405	406	18.8	78.9
2022-10-28T15:02	10	44	0.2	44	44	406	0.3	405	406	18.8	79.0
2022-10-28T15:03	10	43	0.2	43	44	405	0.3	405	406	18.8	79.3
2022-10-28T15:04	10	43	0.1	43	43	405	0.2	405	406	18.8	79.4
2022-10-28T15:05	10	43	0.1	42	43	405	0.2	405	406	18.8	79.6
2022-10-28T15:06	10	41	0.6	41	42	405	0.3	404	406	18.8	79.6
2022-10-28T15:07	10	40	0.2	40	41	405	0.2	404	405	18.7	79.8
2022-10-28T15:08	10	39	0.7	37	40	404	0.3	403	405	18.7	79.7
2022-10-28T15:09	10	36	0.7	35	37	404	0.4	403	404	18.7	79.9
2022-10-28T15:10	10	35	0.3	34	35	403	0.4	403	404	18.6	80.1
2022-10-28T15:11	10	36	0.2	35	36	403	0.3	402	404	18.6	80.0
2022-10-28T15:12	10	35	0.2	35	36	403	0.2	402	403	18.6	79.8
2022-10-28T15:13	10	35	0.1	35	35	403	0.3	402	403	18.6	80.1
2022-10-28T15:14	10	35	0.2	34	35	402	0.3	402	403	18.5	80.1
2022-10-28T15:15	10	34	0.3	33	34	402	0.2	402	403	18.6	80.2
2022-10-28T15:16	10	33	0.3	32	33	402	0.3	402	403	18.6	80.5
2022-10-28T15:17	10	32	0.1	32	33	402	0.3	401	403	18.5	80.7
2022-10-28T15:18	10	32	0.2	32	32	402	0.2	401	402	18.5	81.0
2022-10-28T15:19	10	31	0.3	31	32	401	0.3	400	402	18.5	81.3
2022-10-28T15:20	10	30	0.6	29	31	401	0.2	401	401	18.5	81.1
2022-10-28T15:21	10	28	0.5	27	29	401	0.3	400	401	18.5	80.9
2022-10-28T15:22	10	27	0.1	27	27	400	0.3	400	401	18.4	81.1
2022-10-28T15:23	10	27	0.1	27	28	400	0.4	399	401	18.4	81.4
2022-10-28T15:24	10	27	0.1	27	27	400	0.3	399	400	18.4	81.4
2022-10-28T15:25	10	26	0.5	25	27	399	0.5	398	400	18.4	81.3
2022-10-28T15:26	10	25	0.3	24	26	399	0.4	398	400	18.3	81.6
2022-10-28T15:27	10	24	0.2	24	25	399	0.3	398	400	18.4	81.0
2022-10-28T15:28	10	24	0.2	24	25	398	0.3	398	399	18.4	81.0
2022-10-28T15:29	10	24	0.3	23	24	398	0.2	398	399	18.4	80.8
2022-10-28T15:30	10	23	0.6	21	24	398	0.2	398	398	18.3	80.8
2022-10-28T15:31	10	21	0.3	20	22	397	0.3	397	398	18.3	81.0
2022-10-28T15:32	10	20	0.2	20	21	397	0.3	396	398	18.3	81.1
2022-10-28T15:33	10	20	0.1	20	21	397	0.3	396	398	18.3	80.8
2022-10-28T15:34	10	19	0.9	17	20	396	0.2	396	397	18.3	80.8
2022-10-28T15:35	10	14	1.6	12	17	396	0.6	394	397	18.3	81.1
2022-10-28T15:36	10	11	0.4	10	12	395	0.4	394	396	18.3	81.4
2022-10-28T15:37	10	10	0.2	10	10	394	0.2	393	394	18.2	81.5
2022-10-28T15:38	10	10	0.2	10	10	393	0.4	392	393	18.2	81.8
2022-10-28T15:39	10	12	0.9	10	13	392	0.4	391	393	18.2	81.8
2022-10-28T15:40	10	14	0.2	13	14	392	0.4	391	393	18.3	81.5
2022-10-28T15:41	10	14	0.1	14	14	392	0.3	391	393	18.2	81.8
2022-10-28T15:42	10	13	0.4	12	14	392	0.2	391	392	18.2	82.2
2022-10-28T15:43	10	12	0.3	11	12	391	0.3	391	392	18.1	82.3
2022-10-28T15:44	10	11	0.2	11	11	391	0.3	390	391	18.1	82.2
2022-10-28T15:45	10	11	0.2	10	11	390	0.3	390	391	18.1	82.4
2022-10-28T15:46	10	10	0.4	9	10	390	0.3	390	391	18.1	81.9
2022-10-28T15:47	10	9	0.2	8	9	390	0.4	389	391	18.1	81.9
2022-10-28T15:48	10	8	0.1	8	9	390	0.2	389	390	18.2	81.5
2022-10-28T15:49	10	8	0.2	8	9	389	0.3	389	390	18.0	82.0
2022-10-28T15:50	10	7	0.3	7	8	389	0.3	389	390	18.0	82.6
2022-10-28T15:51	10	7	0.1	7	7	388	0.4	387	389	17.9	82.8
2022-10-28T15:52	10	7	0.1	7	8	387	0.3	387	388	17.8	84.1
2022-10-28T15:53	10	7	0.1	7	8	388	0.2	387	388	17.8	85.2
2022-10-28T15:54	10	7	0.2	7	7	387	0.4	387	388	17.7	85.6
2022-10-28T15:55	10	7	0.2	6	7	386	0.4	386	387	17.7	85.5
2022-10-28T15:56	10	6	0.1	6	6	386	0.3	385	387	17.7	85.5
2022-10-28T15:57	10	6	0.2	5	6	385	0.3	385	386	17.6	85.8
2022-10-28T15:58	10	5	0.2	5	5	385	0.2	385	386	17.6	86.0
2022-10-28T15:59	10	5	0.1	5	5	385	0.2	385	386	17.6	86.2
2022-10-28T16:00	10	5	0.1	4	5	385	0.3	384	386	17.6	86.2
2022-10-28T16:01	10	4	0.2	4	5	386	0.2	385	386	17.7	85.6
2022-10-28T16:02	10	4	0.1	4	4	385	0.2	385	386	17.7	85.1
2022-10-28T16:03	10	4	0.1	3	4	385	0.3	384	386	17.7	85.0
2022-10-28T16:04	10	3	0.1	3	4	385	0.2	384	385	17.5	86.4
2022-10-28T16:05	10	3	0.1	3	3	384	0.2	384	385	17.4	87.1
2022-10-28T16:06	10	3	0.1	3	3	384	0.3	383	384	17.4	87.4
2022-10-28T16:07	10	3	0.1	2	3	383	0.3	382	384	17.4	87.6
2022-10-28T16:08	10	2	0.1	2	3	382	0.3	382	383	17.4	87.7
2022-10-28T16:09	10	2	0.1	2	2	382	0.3	382	383	17.3	87.9
2022-10-28T16:10	10	2	0.1	2	2	383	0.4	382	384	17.3	88.2
2022-10-28T16:11	10	2	0.1	2	2	383	0.2	383	384	17.2	88.3
2022-10-28T16:12	10	2	0.1	2	2	383	0.2	383	384	17.2	88.7
2022-10-28T16:13	10	2	0.1	2	2	383	0.2	383	384	17.2	88.7
2022-10-28T16:14	10	2	0.1	1	2	383	0.2	383	383	17.3	88.4
2022-10-28T16:15	10	2	0.1	1	2	383	0.2	382	383	17.2	88.6
2022-10-28T16:16	10	1	0.1	1	2	383	0.2	383	384	17.3	88.6
2022-10-28T16:17	10	1	0.1	1	1	383	0.2	383	384	17.4	88.3
2022-10-28T16:18	10	1	0.1	1	1	383	0.2	382	383	17.3	88.1
2022-10-28T16:19	10	1	0.1	1	1	383	0.2	382	383	17.2	88.4
2022-10-28T16:20	10	1	0.1	1	1	383	0.3	382	383	17.2	88.8
2022-10-28T16:21	10	1	0.1	1	1	383	0.2	382	383	17.2	88.7
2022-10-28T16:22	10	1	0.1	1	1	383	0.2	382	383	17.1	88.8
2022-10-28T16:23	10	1	0.1	1	1	383	0.2	382	383	17.2	88.8
2022-10-28T16:24	10	1	0.1	1	1	383	0.2	382	383	17.3	88.4
2022-10-28T16:25	10	1	0.1	1	1	383	0.2	383	383	17.3	88.1
2022-10-28T16:26	10	1	0.1	1	1	383	0.2	382	383	17.3	87.7
2022-10-28T16:27	10	1	0.1	1	1	383	0.2	383	383	17.2	87.8
2022-10-28T16:28	10	1	0.1	1	1	383	0.2	382	383	17.0	88.4
2022-10-28T16:29	10	1	0.1	1	1	383	0.1	383	383	16.7	89.3
2022-10-28T16:30	10	1	0.1	0	1	384	0.2	384	385	16.7	90.3
2022-10-28T16:31	10	0	0.1	0	1	384	0.2	384	385	16.8	90.4
2022-10-28T16:32	10	0	0.1	0	1	384	0.3	384	385	16.9	90.2
2022-10-28T16:33	10	0	0.2	0	1	384	0.3	384	385	16.9	89.8
2022-10-28T16:34	10	0	0.2	0	1	385	0.2	384	385	16.9	89.7
2022-10-28T16:35	10	0	0.2	0	1	384	0.3	384	385	16.9	89.7
2022-10-28T16:36	10	0	0.2	0	1	384	0.3	383	384	16.7	89.8
2022-10-28T16:37	10	0	0.1	0	1	383	0.4	383	384	16.6	90.4
2022-10-28T16:38	10	0	0.2	0	0	384	0.3	383	384	16.7	90.4
2022-10-28T16:39	10	0	0.2	0	1	384	0.2	383	384	16.8	90.3
2022-10-28T16:40	10	0	0.2	0	1	384	0.4	383	385	16.9	89.6
2022-10-28T16:41	10	0	0.1	0	1	384	0.3	383	385	16.9	88.9
2022-10-28T16:42	10	0	0.1	0	1	384	0.2	383	384	16.9	88.5
2022-10-28T16:43	10	0	0.1	0	1	384	0.3	383	384	16.9	88.6
2022-10-28T16:44	10	0	0.1	0	1	384	0.3	383	385	16.9	88.4
2022-10-28T16:45	10	0	0.1	0	0	384	0.3	384	385	17.0	88.2
2022-10-28T16:46	10	0	0.1	0	1	385	0.2	384	385	17.1	87.1
2022-10-28T16:47	10	0	0.1	0	1	385	0.2	384	385	17.0	87.5
2022-10-28T16:48	10	0	0.1	0	1	385	0.2	384	385	16.8	88.3
2022-10-28T16:49	10	0	0.1	0	1	385	0.2	384	385	16.6	89.0
2022-10-28T16:50	10	0	0.1	0	1	384	0.3	384	385	16.6	89.6
2022-10-28T16:51	10	0	0.1	0	0	384	0.2	383	384	16.5	89.7
2022-10-28T16:52	10	0	0.1	0	0	384	0.2	383	384	16.3	90.3
2022-10-28T16:53	10	0	0.1	0	0	383	0.3	382	384	16.1	90.9
2022-10-28T16:54	10	0	0.1	0	0	383	0.3	382	383	16.1	91.5
2022-10-28T16:55	10	0	0.1	0	0	382	0.2	381	382	16.1	91.8
2022-10-28T16:56	10	0	0.1	0	0	381	0.3	381	382	16.0	91.8
2022-10-28T16:57	10	0	0.1	0	0	381	0.2	380	381	16.0	92.1
2022-10-28T16:58	10	0	0.1	0	0	380	0.2	380	381	15.9	92.1
2022-10-28T16:59	10	0	0.1	0	0	380	0.3	379	381	15.9	92.4
2022-10-28T17:00	10	0	0.1	0	0	379	0.2	379	380	16.0	92.6
2022-10-28T17:01	10	0	0.1	0	1	379	0.2	379	379	16.1	92.5
2022-10-28T17:02	10	0	0.1	0	1	379	0.3	378	379	16.1	92.5
2022-10-28T17:03	10	1	0.1	0	1	378	0.4	377	379	16.2	92.4
2022-10-28T17:04	10	1	0.1	0	1	377	0.2	377	378	16.2	92.5
2022-10-28T17:05	10	1	0.1	1	1	377	0.2	376	377	16.1	92.6
2022-10-28T17:06	10	1	0.1	0	1	377	0.4	376	378	16.1	92.7
2022-10-28T17:07	10	1	0.1	0	1	377	0.2	377	378	16.1	93.0
2022-10-28T17:08	10	1	0.1	0	1	377	0.2	377	378	16.3	92.9
2022-10-28T17:09	10	1	0.1	0	1	377	0.3	376	377	16.2	92.4
2022-10-28T17:10	10	1	0.1	0	1	377	0.2	376	377	16.0	92.8
2022-10-28T17:11	10	1	0.1	0	1	376	0.2	376	377	16.0	93.2
2022-10-28T17:12	10	1	0.1	0	1	377	0.3	376	377	16.1	92.9
2022-10-28T17:13	10	1	0.1	0	1	377	0.3	377	378	16.3	92.5
2022-10-28T17:14	10	1	0.1	0	1	378	0.3	377	379	16.2	91.9
2022-10-28T17:15	10	1	0.1	0	1	378	0.5	377	378	16.3	91.8
2022-10-28T17:16	10	1	0.1	0	1	376	0.4	376	377	15.9	91.4
2022-10-28T17:17	10	0	0.1	0	1	375	0.3	375	376	15.9	92.4
2022-10-28T17:18	10	0	0.1	0	1	376	0.2	375	376	16.0	92.4
2022-10-28T17:19	10	0	0.1	0	0	376	0.3	376	377	16.1	92.1
2022-10-28T17:20	10	0	0.1	0	0	376	0.3	376	377	16.1	91.8
2022-10-28T17:21	10	0	0.1	0	1	377	0.3	376	377	16.3	91.6
2022-10-28T17:22	10	0	0.1	0	0	377	0.2	376	377	16.3	91.1
2022-10-28T17:23	10	0	0.1	0	1	377	0.3	377	378	16.4	91.0
2022-10-28T17:24	10	0	0.1	0	1	377	0.2	377	378	16.4	90.4
2022-10-28T17:25	10	0	0.1	0	1	377	0.3	376	377	16.4	90.1
2022-10-28T17:26	10	1	0.1	0	1	376	0.4	375	377	16.3	90.3
2022-10-28T17:27	10	0	0.1	0	1	376	0.4	375	377	15.9	90.7
2022-10-28T17:28	10	0	0.1	0	0	377	0.2	376	377	15.6	92.2
2022-10-28T17:29	10	0	0.1	0	0	377	0.3	376	377	15.5	92.8
2022-10-28T17:30	10	0	0.1	0	0	376	0.2	376	377	15.4	93.0
2022-10-28T17:31	10	0	0.1	0	0	377	0.4	376	378	15.6	93.3
2022-10-28T17:32	10	0	0.1	0	0	378	0.3	377	378	15.7	92.6
2022-10-28T17:33	10	0	0.1	0	0	377	0.2	377	378	15.6	92.1
2022-10-28T17:34	10	0	0.1	0	0	376	0.3	376	377	15.4	92.5
2022-10-28T17:35	10	0	0.1	0	0	376	0.4	375	376	15.5	93.0
2022-10-28T17:36	10	0	0.1	0	0	374	0.4	373	375	15.4	92.9
2022-10-28T17:37	10	0	0.1	0	0	373	0.2	373	374	15.3	93.3
2022-10-28T17:38	10	0	0.1	0	0	373	0.2	373	374	15.5	93.4
2022-10-28T17:39	10	0	0.1	0	0	373	0.2	373	374	15.7	93.0
2022-10-28T17:40	10	0	0.1	0	0	372	0.5	371	373	15.8	92.6
2022-10-28T17:41	10	0	0.1	0	1	372	0.2	371	372	15.5	92.4
2022-10-28T17:42	10	0	0.1	0	1	372	0.3	371	373	15.6	92.8
2022-10-28T17:43	10	1	0.1	0	1	371	0.5	370	372	15.5	92.8
2022-10-28T17:44	10	1	0.1	0	1	370	0.3	370	371	15.2	92.8
2022-10-28T17:45	10	0	0.1	0	1	370	0.2	370	371	15.2	93.7
2022-10-28T17:46	10	0	0.1	0	1	370	0.4	370	371	15.3	94.3
2022-10-28T17:47	10	0	0.2	0	1	370	0.3	370	371	15.1	94.4
2022-10-28T17:48	10	0	0.2	0	1	370	0.2	370	371	15.1	94.6
2022-10-28T17:49	10	0	0.2	0	1	370	0.2	369	370	15.0	94.8
2022-10-28T17:50	10	0	0.1	0	1	370	0.6	368	371	14.9	94.9
2022-10-28T17:51	10	0	0.1	0	1	370	0.6	369	371	15.0	95.4
2022-10-28T17:52	10	0	0.1	0	1	370	0.3	370	371	15.1	95.9
2022-10-28T17:53	10	0	0.1	0	1	370	0.2	370	371	15.1	96.0
2022-10-28T17:54	10	0	0.1	0	1	370	0.2	370	370	14.9	96.0
2022-10-28T17:55	10	0	0.1	0	1	370	0.2	369	370	14.9	96.2
2022-10-28T17:56	10	0	0.1	0	1	370	0.2	369	371	14.9	96.5
2022-10-28T17:57	10	0	0.1	0	1	370	0.2	369	370	14.9	96.7
2022-10-28T17:58	10	0	0.1	0	1	370	0.2	369	370	14.8	96.8
2022-10-28T17:59	10	0	0.1	0	1	370	0.2	369	370	14.8	96.9
2022-10-28T18:00	10	0	0.1	0	0	370	0.3	370	371	14.8	97.1
2022-10-28T18:01	10	0	0.1	0	1	370	0.3	370	371	14.9	97.3
2022-10-28T18:02	10	0	0.1	0	1	371	0.2	370	371	15.0	97.5
2022-10-28T18:03	10	0	0.1	0	1	371	0.3	371	372	15.1	97.5
2022-10-28T18:04	10	0	0.1	0	1	372	0.3	371	373	15.0	97.2
2022-10-28T18:05	10	0	0.1	0	1	372	0.3	371	373	14.9	96.9
2022-10-28T18:06	10	0	0.1	0	1	372	0.2	371	372	14.8	96.8
2022-10-28T18:07	10	0	0.0	0	1	372	0.3	371	372	14.8	96.8
2022-10-28T18:08	10	0	0.1	0	1	372	0.2	371	372	14.7	96.7
2022-10-28T18:09	10	0	0.1	0	1	372	0.2	372	372	14.5	96.7
2022-10-28T18:10	10	0	0.1	0	1	372	0.2	372	373	14.6	96.7
2022-10-28T18:11	10	0	0.1	0	0	372	0.4	372	373	14.6	96.8
2022-10-28T18:12	10	0	0.1	0	0	372	0.2	371	372	14.6	96.7
2022-10-28T18:13	10	0	0.1	0	0	371	0.3	371	372	14.7	96.8
2022-10-28T18:14	10	0	0.1	0	0	372	0.2	371	372	14.9	96.9
2022-10-28T18:15	10	0	0.1	0	0	371	0.2	371	372	15.0	96.8
2022-10-28T18:16	10	0	0.1	0	0	371	0.3	371	372	15.0	96.5
2022-10-28T18:17	10	0	0.1	0	0	371	0.2	371	372	15.0	96.4
2022-10-28T18:18	10	0	0.1	0	0	371	0.2	371	372	15.1	96.3
2022-10-28T18:19	10	0	0.1	0	0	371	0.2	370	371	15.0	96.1
2022-10-28T18:20	10	0	0.1	0	0	370	0.2	370	371	14.8	96.0
2022-10-28T18:21	10	0	0.1	0	0	370	0.4	369	371	14.6	96.0
2022-10-28T18:22	10	0	0.1	0	0	371	0.4	370	372	14.7	96.3
2022-10-28T18:23	10	0	0.1	0	0	371	0.4	370	372	15.0	96.4
2022-10-28T18:24	10	0	0.1	0	0	372	0.4	371	373	15.1	96.3
2022-10-28T18:25	10	0	0.1	0	0	372	0.3	372	373	15.0	96.1
2022-10-28T18:26	10	0	0.1	0	0	372	0.3	371	373	15.0	96.1
2022-10-28T18:27	10	0	0.1	0	0	372	0.4	371	373	14.9	96.0
2022-10-28T18:28	10	0	0.1	0	0	372	0.3	371	372	14.9	96.0
2022-10-28T18:29	10	0	0.1	0	0	372	0.3	371	373	14.9	96.3
2022-10-28T18:30	10	0	0.1	0	0	372	0.5	371	373	15.0	96.4
2022-10-28T18:31	10	0	0.1	0	0	373	0.2	372	373	15.1	96.4
2022-10-28T18:32	10	0	0.1	0	0	373	0.3	372	373	14.9	96.1
2022-10-28T18:33	10	0	0.1	0	0	372	0.3	372	373	14.8	95.9
2022-10-28T18:34	10	0	0.1	0	0	373	0.3	372	373	14.6	95.6
2022-10-28T18:35	10	0	0.1	0	0	373	0.2	372	373	14.7	96.0
2022-10-28T18:36	10	0	0.1	0	0	373	0.3	372	374	14.8	96.1
2022-10-28T18:37	10	0	0.1	0	0	373	0.3	372	373	14.8	96.2
2022-10-28T18:38	10	0	0.1	0	0	374	0.4	372	374	14.9	96.3
2022-10-28T18:39	10	0	0.1	0	0	375	0.3	374	375	15.1	96.3
2022-10-28T18:40	10	0	0.1	0	1	375	0.2	375	375	15.1	96.2
2022-10-28T18:41	10	0	0.1	0	0	375	0.2	375	376	15.3	96.2
2022-10-28T18:42	10	0	0.1	0	0	375	0.2	375	376	15.4	96.0
2022-10-28T18:43	10	0	0.1	0	1	375	0.2	374	375	15.5	95.8
2022-10-28T18:44	10	0	0.1	0	1	375	0.4	374	375	15.4	95.6
2022-10-28T18:45	10	1	0.1	0	1	374	0.3	373	374	15.3	95.4
2022-10-28T18:46	10	1	0.1	0	1	373	0.3	372	374	15.3	95.4
2022-10-28T18:47	10	1	0.1	0	1	372	0.3	371	373	15.1	95.4
2022-10-28T18:48	10	1	0.1	0	1	372	0.3	371	372	15.0	95.3
2022-10-28T18:49	10	1	0.1	0	1	371	0.5	370	372	15.0	95.6
2022-10-28T18:50	10	0	0.1	0	1	370	0.2	369	371	15.0	95.6
2022-10-28T18:51	10	0	0.1	0	1	370	0.4	369	371	15.0	95.7
2022-10-28T18:52	10	0	0.1	0	1	370	0.4	369	371	15.1	95.8
2022-10-28T18:53	10	0	0.1	0	1	370	0.2	370	371	15.4	95.9
2022-10-28T18:54	10	0	0.1	0	1	370	0.3	370	371	15.4	95.5
2022-10-28T18:55	10	0	0.1	0	1	370	0.4	370	371	15.4	95.2
2022-10-28T18:56	10	0	0.1	0	1	371	0.4	370	372	15.2	95.1
2022-10-28T18:57	10	0	0.1	0	1	372	0.3	371	372	15.2	95.3
2022-10-28T18:58	10	0	0.1	0	1	372	0.3	371	373	15.3	95.5
2022-10-28T18:59	10	0	0.1	0	1	373	0.3	372	373	15.5	95.5
2022-10-28T19:00	10	0	0.1	0	1	373	0.2	372	373	15.3	94.9
2022-10-28T19:01	10	0	0.1	0	1	372	0.5	371	373	15.0	94.7
2022-10-28T19:02	10	0	0.0	0	1	371	0.3	371	372	14.8	94.8
2022-10-28T19:03	10	0	0.1	0	1	371	0.2	371	372	14.9	95.6
2022-10-28T19:04	10	0	0.1	0	1	371	0.3	370	372	15.0	95.6
2022-10-28T19:05	10	0	0.0	0	0	371	0.2	371	371	14.8	95.3
2022-10-28T19:06	10	0	0.0	0	0	371	0.2	371	371	15.0	95.4
2022-10-28T19:07	10	0	0.1	0	1	370	0.7	369	372	14.9	95.0
2022-10-28T19:08	10	0	0.1	0	1	369	0.4	368	370	14.5	94.3
2022-10-28T19:09	10	0	0.1	0	1	369	0.2	368	369	14.3	94.6
2022-10-28T19:10	10	0	0.1	0	1	369	0.2	368	369	14.3	95.0
2022-10-28T19:11	10	0	0.1	0	1	369	0.8	368	371	14.6	95.5
2022-10-28T19:12	10	0	0.1	0	1	371	0.2	370	371	14.9	95.9
2022-10-28T19:13	10	0	0.1	0	1	371	0.2	370	371	14.8	95.9
2022-10-28T19:14	10	0	0.1	0	0	371	0.2	370	371	14.8	96.0
2022-10-28T19:15	10	0	0.1	0	0	370	0.3	370	371	14.6	96.1
2022-10-28T19:16	10	0	0.1	0	0	370	0.3	369	370	14.6	96.3
2022-10-28T19:17	10	0	0.1	0	0	370	0.2	369	371	14.5	96.5
2022-10-28T19:18	10	0	0.1	0	0	370	0.3	369	370	14.5	96.8
2022-10-28T19:19	10	0	0.1	0	1	370	0.3	369	371	14.4	96.9
2022-10-28T19:20	10	0	0.1	0	1	369	0.4	369	370	14.4	97.0
2022-10-28T19:21	10	0	0.1	0	1	369	0.3	369	370	14.3	97.1
2022-10-28T19:22	10	0	0.1	0	0	369	0.5	368	370	14.3	97.1
2022-10-28T19:23	10	0	0.1	0	0	369	0.3	369	370	14.3	97.2
2022-10-28T19:24	10	0	0.1	0	0	369	0.4	369	370	14.3	97.3
2022-10-28T19:25	10	0	0.1	0	0	370	0.4	369	371	14.2	97.3
2022-10-28T19:26	10	0	0.1	0	0	370	0.5	369	371	14.1	97.3
2022-10-28T19:27	10	0	0.1	0	0	370	0.3	370	371	14.2	97.4
2022-10-28T19:28	10	0	0.1	0	1	370	0.3	369	371	14.3	97.4
2022-10-28T19:29	10	0	0.1	0	0	371	0.6	370	372	14.3	97.3
2022-10-28T19:30	10	0	0.1	0	0	372	0.3	371	373	14.3	97.3
2022-10-28T19:31	10	0	0.1	0	0	371	0.2	370	372	14.2	97.2
2022-10-28T19:32	10	0	0.1	0	0	371	0.4	370	372	14.0	97.2
2022-10-28T19:33	10	0	0.2	-1	0	371	0.4	370	372	13.9	97.3
2022-10-28T19:34	10	0	0.1	-1	0	371	0.4	370	372	14.0	97.5
2022-10-28T19:35	10	0	0.1	-1	0	371	0.3	371	372	14.2	97.8
2022-10-28T19:36	10	0	0.1	-1	0	371	0.3	370	372	14.1	97.7
2022-10-28T19:37	10	0	0.1	-1	0	372	0.3	371	372	14.1	97.7
2022-10-28T19:38	10	0	0.2	-1	0	372	0.3	371	372	14.1	97.7
2022-10-28T19:39	10	0	0.1	-1	0	371	0.3	370	372	14.1	97.8
2022-10-28T19:40	10	0	0.2	-1	0	371	0.3	371	372	14.2	97.9
2022-10-28T19:41	10	0	0.1	0	0	371	0.2	371	372	14.3	97.9
2022-10-28T19:42	10	0	0.1	0	0	371	0.2	370	371	14.3	97.9
2022-10-28T19:43	10	0	0.1	0	0	371	0.2	370	371	14.4	97.8
2022-10-28T19:44	10	0	0.2	0	1	371	0.3	370	371	14.6	97.7
2022-10-28T19:45	10	0	0.2	0	1	372	0.2	371	372	14.6	97.5
2022-10-28T19:46	10	1	0.2	0	1	372	0.3	371	372	14.6	97.2
2022-10-28T19:47	10	1	0.2	0	1	371	0.3	371	372	14.6	96.8
2022-10-28T19:48	10	1	0.1	0	1	371	0.3	370	372	14.6	96.6
2022-10-28T19:49	10	1	0.2	0	1	371	0.4	371	372	15.1	96.7
2022-10-28T19:50	10	1	0.2	0	1	371	0.4	370	372	15.3	96.3
2022-10-28T19:51	10	1	0.2	1	1	370	0.6	369	372	14.7	95.3
2022-10-28T19:52	10	1	0.2	0	1	371	0.6	370	372	14.3	95.1
2022-10-28T19:53	10	1	0.2	0	1	371	0.3	370	372	14.3	95.6
2022-10-28T19:54	10	0	0.2	0	1	372	0.6	371	373	14.3	95.8
2022-10-28T19:55	10	0	0.2	0	1	373	0.4	372	374	14.1	95.7
2022-10-28T19:56	10	0	0.1	0	0	373	0.2	373	374	13.9	95.8
2022-10-28T19:57	10	0	0.1	0	0	373	0.4	372	373	13.8	95.9
2022-10-28T19:58	10	0	0.1	0	0	373	0.3	372	374	13.7	96.1
2022-10-28T19:59	10	0	0.1	-1	0	373	0.2	372	374	13.6	96.1
2022-10-28T20:00	10	0	0.1	-1	0	373	0.3	373	374	13.7	96.1
2022-10-28T20:01	10	0	0.1	-1	0	373	0.5	372	374	13.7	96.2
2022-10-28T20:02	10	0	0.1	-1	0	372	0.4	371	373	13.6	96.1
2022-10-28T20:03	10	0	0.1	0	0	372	0.5	371	373	13.6	96.1
2022-10-28T20:04	10	0	0.1	0	0	372	0.2	372	373	13.6	96.0
2022-10-28T20:05	10	0	0.1	0	0	373	0.3	372	373	13.5	96.0
2022-10-28T20:06	10	0	0.1	0	0	373	0.3	372	373	13.4	96.1
2022-10-28T20:07	10	0	0.1	-1	0	372	0.3	372	373	13.4	96.3
2022-10-28T20:08	10	-1	0.1	-1	0	373	0.3	372	373	13.4	96.5
2022-10-28T20:09	10	-1	0.1	-1	-1	373	0.3	372	374	13.4	96.6
2022-10-28T20:10	10	-1	0.1	-1	-1	373	0.2	373	374	13.4	96.8
2022-10-28T20:11	10	-1	0.1	-1	-1	373	0.2	373	373	13.4	97.0
2022-10-28T20:12	10	-1	0.1	-1	0	372	0.2	372	373	13.5	97.2
2022-10-28T20:13	10	0	0.1	-1	0	372	0.2	372	373	13.5	97.3
2022-10-28T20:14	10	0	0.1	-1	0	372	0.2	372	373	13.5	97.5
2022-10-28T20:15	10	0	0.1	0	0	372	0.2	372	373	13.6	97.6
2022-10-28T20:16	10	0	0.1	0	1	372	0.2	371	372	13.6	97.6
2022-10-28T20:17	10	0	0.1	0	1	372	0.2	371	372	13.6	97.6
2022-10-28T20:18	10	1	0.1	0	1	371	0.3	371	372	13.6	97.5
2022-10-28T20:19	10	1	0.1	1	1	372	0.3	371	372	13.6	97.5
2022-10-28T20:20	10	1	0.1	0	1	372	0.2	371	372	13.6	97.6
2022-10-28T20:21	10	0	0.1	0	1	372	0.4	371	373	13.6	97.6
2022-10-28T20:22	10	0	0.1	0	1	372	0.4	371	373	13.5	97.6
2022-10-28T20:23	10	0	0.1	0	0	373	0.2	372	373	13.5	97.7
2022-10-28T20:24	10	0	0.1	0	0	373	0.3	372	373	13.4	97.8
2022-10-28T20:25	10	0	0.1	0	0	372	0.2	372	373	13.3	97.8
2022-10-28T20:26	10	-1	0.1	-1	0	373	0.4	372	373	13.2	97.8
2022-10-28T20:27	10	-1	0.1	-1	0	373	0.2	373	374	13.4	98.2
2022-10-28T20:28	10	-1	0.1	-1	0	373	0.3	373	374	13.5	98.3
2022-10-28T20:29	10	0	0.1	-1	0	374	0.3	373	375	13.7	98.4
2022-10-28T20:30	10	0	0.1	0	0	374	0.3	374	375	13.8	98.3
2022-10-28T20:31	10	0	0.1	0	0	375	0.2	374	375	14.1	98.2
2022-10-28T20:32	10	0	0.1	0	0	375	0.3	374	375	14.2	97.8
2022-10-28T20:33	10	0	0.1	0	0	375	0.2	374	375	14.3	97.1
2022-10-28T20:34	10	0	0.1	0	0	375	0.3	375	376	14.5	96.3
2022-10-28T20:35	10	0	0.1	0	1	375	0.4	374	376	14.4	95.2
2022-10-28T20:36	10	1	0.1	0	1	375	0.3	374	375	14.2	94.8
2022-10-28T20:37	10	1	0.1	0	1	374	0.3	374	375	13.9	94.9
2022-10-28T20:38	10	1	0.1	1	1	374	0.2	374	375	13.9	95.6
2022-10-28T20:39	10	1	0.1	0	1	375	0.3	374	375	13.9	95.8
2022-10-28T20:40	10	1	0.1	1	1	375	0.2	375	375	14.0	95.9
2022-10-28T20:41	10	1	0.1	1	1	375	0.2	375	376	14.0	96.0
2022-10-28T20:42	10	1	0.1	1	1	375	0.2	375	376	14.1	96.0
2022-10-28T20:43	10	1	0.1	1	1	376	0.2	375	376	14.2	95.9
2022-10-28T20:44	10	1	0.1	1	1	375	0.2	375	376	14.2	95.6
2022-10-28T20:45	10	1	0.1	1	1	375	0.3	375	376	14.1	95.5
2022-10-28T20:46	10	1	0.1	1	1	376	0.2	375	376	14.1	95.6
2022-10-28T20:47	10	1	0.1	1	1	375	0.3	374	376	14.1	95.5
2022-10-28T20:48	10	1	0.1	1	1	375	0.2	375	375	14.0	95.6
2022-10-28T20:49	10	1	0.1	0	1	375	0.4	374	376	14.0	95.7
2022-10-28T20:50	10	1	0.1	0	1	374	0.4	374	375	13.8	95.7
2022-10-28T20:51	10	1	0.1	0	1	374	0.4	374	375	13.7	95.9
2022-10-28T20:52	10	1	0.1	0	1	375	0.3	374	375	13.8	96.1
2022-10-28T20:53	10	1	0.1	0	1	374	0.4	374	375	13.8	96.0
2022-10-28T20:54	10	1	0.1	0	1	375	0.3	374	375	13.9	95.8
2022-10-28T20:55	10	1	0.1	0	1	375	0.3	375	376	13.9	95.6
2022-10-28T20:56	10	1	0.1	0	1	375	0.2	374	375	13.9	95.2
2022-10-28T20:57	10	1	0.1	0	1	376	0.3	375	376	13.9	95.1
2022-10-28T20:58	10	0	0.1	0	1	376	0.2	376	377	14.0	95.0
2022-10-28T20:59	10	0	0.1	0	1	377	0.3	376	377	14.1	94.7
2022-10-28T21:00	10	0	0.1	0	1	377	0.3	376	378	14.1	94.4
2022-10-28T21:01	10	0	0.1	0	1	377	0.3	376	378	14.0	94.0
2022-10-28T21:02	10	0	0.1	0	1	377	0.2	376	377	14.0	94.2
2022-10-28T21:03	10	1	0.1	0	1	377	0.2	376	377	13.9	94.0
2022-10-28T21:04	10	1	0.1	0	1	376	0.3	376	377	13.9	93.9
2022-10-28T21:05	10	1	0.1	0	1	376	0.6	375	377	13.8	94.0
2022-10-28T21:06	10	1	0.1	0	1	375	0.4	375	376	13.7	94.0
2022-10-28T21:07	10	1	0.1	1	1	375	0.2	375	376	13.6	94.3
2022-10-28T21:08	10	1	0.1	1	1	375	0.2	374	376	13.5	94.7
2022-10-28T21:09	10	1	0.1	1	1	375	0.3	375	376	13.5	95.1
2022-10-28T21:10	10	1	0.1	1	1	375	0.2	375	376	13.5	95.3
2022-10-28T21:11	10	1	0.1	1	1	375	0.2	375	376	13.5	95.6
2022-10-28T21:12	10	1	0.1	1	1	375	0.2	375	376	13.5	95.7
2022-10-28T21:13	10	1	0.1	1	1	375	0.2	375	376	13.5	95.9
2022-10-28T21:14	10	1	0.1	1	1	375	0.2	375	376	13.5	95.9
2022-10-28T21:15	10	1	0.0	1	1	375	0.2	375	376	13.6	95.9
2022-10-28T21:16	10	1	0.1	1	1	375	0.2	375	376	13.7	95.8
2022-10-28T21:17	10	1	0.1	1	1	375	0.2	375	376	13.7	95.7
2022-10-28T21:18	10	1	0.1	1	1	375	0.2	375	376	13.6	95.6
2022-10-28T21:19	10	1	0.1	1	1	375	0.2	375	375	13.5	95.6
2022-10-28T21:20	10	1	0.1	1	1	375	0.2	375	376	13.5	95.7
2022-10-28T21:21	10	1	0.1	1	1	375	0.3	374	376	13.5	95.9
2022-10-28T21:22	10	1	0.1	1	1	375	0.3	375	376	13.6	96.1
2022-10-28T21:23	10	1	0.1	1	1	375	0.2	375	376	13.5	96.1
2022-10-28T21:24	10	1	0.1	1	1	375	0.2	375	376	13.6	96.3
2022-10-28T21:25	10	0	0.1	0	1	376	0.3	375	376	13.5	96.3
2022-10-28T21:26	10	0	0.1	0	0	376	0.3	375	377	13.5	96.4
2022-10-28T21:27	10	0	0.1	0	0	375	0.2	375	376	13.5	96.4
2022-10-28T21:28	10	0	0.1	0	0	375	0.2	375	376	13.5	96.5
2022-10-28T21:29	10	0	0.1	0	0	376	0.2	375	376	13.6	96.8
2022-10-28T21:30	10	0	0.1	0	0	376	0.2	375	376	13.9	96.8
2022-10-28T21:31	10	0	0.1	0	1	376	0.4	375	376	13.9	96.3
2022-10-28T21:32	10	1	0.1	0	1	375	0.3	375	376	13.6	95.7
2022-10-28T21:33	10	1	0.1	1	1	375	0.2	375	376	13.4	95.7
2022-10-28T21:34	10	1	0.1	1	1	375	0.2	375	376	13.3	96.1
2022-10-28T21:35	10	1	0.1	0	1	376	0.3	375	377	13.5	96.6
2022-10-28T21:36	10	1	0.1	0	1	376	0.2	375	376	13.7	96.8
2022-10-28T21:37	10	1	0.1	0	1	376	0.2	376	377	13.9	96.6
2022-10-28T21:38	10	1	0.1	0	1	376	0.2	375	376	14.0	96.2
2022-10-28T21:39	10	1	0.1	1	1	376	0.2	375	376	14.0	95.7
2022-10-28T21:40	10	1	0.1	1	1	375	0.3	374	376	13.9	95.2
2022-10-28T21:41	10	1	0.1	1	1	375	0.2	375	376	13.8	95.1
2022-10-28T21:42	10	1	0.1	1	1	375	0.2	374	375	13.8	95.2
2022-10-28T21:43	10	1	0.1	1	1	375	0.3	374	375	13.8	95.2
2022-10-28T21:44	10	1	0.1	1	1	375	0.2	374	375	13.8	95.1
2022-10-28T21:45	10	1	0.1	1	1	374	0.4	374	375	13.8	95.1
2022-10-28T21:46	10	1	0.1	1	1	374	0.2	374	375	13.7	95.0
2022-10-28T21:47	10	1	0.1	1	1	374	0.2	373	374	13.7	95.2
2022-10-28T21:48	10	1	0.1	1	1	374	0.2	373	374	13.6	95.4
2022-10-28T21:49	10	1	0.1	1	1	374	0.2	374	374	13.6	95.4
2022-10-28T21:50	10	1	0.1	1	1	374	0.3	373	375	13.6	95.5
2022-10-28T21:51	10	1	0.1	1	1	374	0.2	373	374	13.5	95.7
2022-10-28T21:52	10	1	0.1	1	1	374	0.2	374	374	13.5	95.8
2022-10-28T21:53	10	1	0.1	1	1	374	0.2	373	374	13.5	96.0
2022-10-28T21:54	10	1	0.1	1	1	373	0.2	373	374	13.5	96.0
2022-10-28T21:55	10	1	0.1	1	1	373	0.2	373	374	13.5	96.0
2022-10-28T21:56	10	1	0.1	1	1	374	0.2	373	374	13.5	96.1
2022-10-28T21:57	10	1	0.1	0	1	374	0.2	373	374	13.5	96.2
2022-10-28T21:58	10	1	0.1	0	1	374	0.2	373	374	13.5	96.2
2022-10-28T21:59	10	1	0.1	1	1	373	0.2	373	374	13.5	96.1
2022-10-28T22:00	10	1	0.1	1	1	373	0.3	373	374	13.5	96.1
2022-10-28T22:01	10	1	0.1	1	1	373	0.2	373	373	13.6	96.1
2022-10-28T22:02	10	1	0.1	1	1	373	0.2	373	374	13.6	96.0
2022-10-28T22:03	10	1	0.1	1	1	373	0.2	373	374	13.6	96.0
2022-10-28T22:04	10	1	0.1	1	1	373	0.2	373	374	13.6	95.8
2022-10-28T22:05	10	1	0.1	1	1	373	0.2	373	374	13.6	95.8
2022-10-28T22:06	10	1	0.1	1	1	373	0.2	373	374	13.6	95.7
2022-10-28T22:07	10	1	0.1	1	1	373	0.2	373	374	13.5	95.7
2022-10-28T22:08	10	1	0.1	1	1	373	0.2	373	374	13.6	95.8
2022-10-28T22:09	10	1	0.1	1	1	373	0.3	373	374	13.6	95.7
2022-10-28T22:10	10	1	0.1	1	1	374	0.3	373	374	13.6	95.6
2022-10-28T22:11	10	1	0.1	1	1	374	0.2	374	375	13.8	95.6
2022-10-28T22:12	10	1	0.1	1	1	374	0.2	374	375	13.9	95.1
2022-10-28T22:13	10	1	0.1	1	1	374	0.2	374	375	13.8	94.6
2022-10-28T22:14	10	1	0.1	1	1	374	0.2	373	374	13.6	94.5
2022-10-28T22:15	10	1	0.1	1	1	374	0.2	373	374	13.4	94.9
2022-10-28T22:16	10	1	0.1	1	1	374	0.3	373	374	13.4	95.4
2022-10-28T22:17	10	1	0.1	1	1	374	0.2	373	374	13.4	95.6
2022-10-28T22:18	10	1	0.1	1	1	374	0.3	373	375	13.6	95.8
2022-10-28T22:19	10	1	0.1	1	1	374	0.2	374	375	13.7	95.7
2022-10-28T22:20	10	1	0.1	1	1	374	0.2	373	374	13.7	95.4
2022-10-28T22:21	10	1	0.1	1	1	374	0.3	373	374	13.8	95.1
2022-10-28T22:22	10	1	0.1	1	1	374	0.2	373	374	13.8	94.9
2022-10-28T22:23	10	1	0.1	1	1	373	0.3	373	374	13.8	94.7
2022-10-28T22:24	10	1	0.1	1	1	373	0.2	372	374	13.6	94.8
2022-10-28T22:25	10	1	0.1	1	1	373	0.3	372	374	13.6	95.1
2022-10-28T22:26	10	1	0.1	1	1	373	0.2	372	373	13.6	95.3
2022-10-28T22:27	10	1	0.1	1	1	372	0.2	372	373	13.6	95.6
2022-10-28T22:28	10	1	0.1	1	1	372	0.2	371	372	13.6	95.9
2022-10-28T22:29	10	1	0.1	1	1	372	0.2	372	373	13.7	96.2
2022-10-28T22:30	10	1	0.1	1	1	372	0.2	372	373	13.7	96.3
2022-10-28T22:31	10	1	0.1	1	1	372	0.2	372	373	13.8	96.4
2022-10-28T22:32	10	1	0.1	1	1	372	0.3	371	373	13.7	96.2
2022-10-28T22:33	10	1	0.1	1	1	372	0.2	371	372	13.6	96.4
2022-10-28T22:34	10	1	0.1	1	1	372	0.2	371	372	13.6	96.6
2022-10-28T22:35	10	1	0.1	0	1	371	0.3	370	372	13.5	96.7
2022-10-28T22:36	10	1	0.1	1	1	371	0.5	370	372	13.4	96.8
2022-10-28T22:37	10	1	0.1	1	1	370	0.3	369	371	13.4	96.9
2022-10-28T22:38	10	1	0.1	0	1	370	0.3	369	370	13.3	97.0
2022-10-28T22:39	10	1	0.1	0	1	370	0.4	369	371	13.4	97.2
2022-10-28T22:40	10	0	0.1	0	1	370	0.3	369	371	13.5	97.4
2022-10-28T22:41	10	0	0.1	0	1	370	0.2	370	371	13.8	97.6
2022-10-28T22:42	10	0	0.1	0	1	370	0.2	369	370	13.9	97.5
2022-10-28T22:43	10	0	0.1	0	1	369	0.4	369	370	13.9	97.0
2022-10-28T22:44	10	0	0.1	0	1	370	0.3	369	370	14.0	96.7
2022-10-28T22:45	10	0	0.1	0	1	369	0.5	368	370	13.9	96.1
2022-10-28T22:46	10	0	0.1	0	1	369	0.2	368	369	13.6	95.9
2022-10-28T22:47	10	0	0.1	0	1	368	0.5	367	369	13.6	96.5
2022-10-28T22:48	10	0	0.1	0	1	367	0.4	367	368	13.6	96.6
2022-10-28T22:49	10	0	0.1	0	1	367	0.8	365	368	13.3	96.4
2022-10-28T22:50	10	0	0.2	0	1	366	0.3	366	367	13.2	96.5
2022-10-28T22:51	10	0	0.2	0	0	366	0.3	366	367	13.5	96.8
2022-10-28T22:52	10	0	0.1	0	0	366	0.8	365	367	13.5	96.8
2022-10-28T22:53	10	0	0.1	-1	0	366	0.3	365	366	13.3	96.6
2022-10-28T22:54	10	0	0.1	-1	0	366	0.4	365	367	13.3	96.6
2022-10-28T22:55	10	0	0.1	0	0	366	0.4	365	367	13.2	96.6
2022-10-28T22:56	10	0	0.1	0	0	366	0.3	366	367	13.2	96.7
2022-10-28T22:57	10	0	0.1	0	0	366	0.3	365	366	13.2	96.8
2022-10-28T22:58	10	0	0.1	0	1	366	0.2	365	366	13.2	97.0
2022-10-28T22:59	10	0	0.1	0	1	365	0.2	365	366	13.2	97.1
2022-10-28T23:00	10	0	0.1	0	1	365	0.2	364	365	13.2	97.1
2022-10-28T23:01	10	1	0.1	0	1	364	0.3	363	365	13.2	97.1
2022-10-28T23:02	10	1	0.1	0	1	364	0.3	363	364	13.2	97.2
2022-10-28T23:03	10	0	0.1	0	1	363	0.2	363	364	13.2	97.2
2022-10-28T23:04	10	0	0.1	0	1	363	0.3	362	364	13.2	97.2
2022-10-28T23:05	10	0	0.1	0	1	362	0.3	362	363	13.1	97.2
2022-10-28T23:06	10	0	0.1	0	1	362	0.2	361	363	12.9	97.2
2022-10-28T23:07	10	0	0.1	0	1	362	0.2	361	362	12.9	97.4
2022-10-28T23:08	10	0	0.1	0	1	362	0.3	361	362	12.9	97.6
2022-10-28T23:09	10	0	0.1	0	1	362	0.2	361	362	12.9	97.8
2022-10-28T23:10	10	0	0.1	0	0	362	0.3	361	362	12.9	97.9
2022-10-28T23:11	10	0	0.1	0	1	362	0.2	361	362	12.9	98.0
2022-10-28T23:12	10	0	0.1	0	0	362	0.2	361	362	12.9	98.0
2022-10-28T23:13	10	0	0.1	0	1	362	0.2	361	362	12.9	98.1
2022-10-28T23:14	10	0	0.1	0	1	361	0.2	361	362	12.9	98.1
2022-10-28T23:15	10	0	0.1	0	1	361	0.2	361	362	13.0	98.2
2022-10-28T23:16	10	0	0.1	0	0	361	0.4	360	362	13.1	98.3
2022-10-28T23:17	10	0	0.1	0	0	362	0.2	361	362	13.0	98.4
2022-10-28T23:18	10	0	0.1	0	0	362	0.2	361	362	13.0	98.3
2022-10-28T23:19	10	0	0.1	0	0	362	0.2	361	362	12.9	98.3
2022-10-28T23:20	10	0	0.1	0	0	362	0.2	361	362	12.8	98.3
2022-10-28T23:21	10	0	0.1	0	0	362	0.3	361	362	12.8	98.3
2022-10-28T23:22	10	0	0.1	0	0	361	0.2	361	362	12.8	98.3
2022-10-28T23:23	10	0	0.1	0	0	361	0.2	361	362	12.9	98.4
2022-10-28T23:24	10	0	0.1	0	0	361	0.2	361	362	13.0	98.4
2022-10-28T23:25	10	0	0.1	0	0	362	0.5	361	363	13.1	98.4
2022-10-28T23:26	10	0	0.1	0	0	362	0.2	361	362	13.4	98.5
2022-10-28T23:27	10	0	0.1	0	0	361	0.3	361	362	13.2	98.4
2022-10-28T23:28	10	0	0.1	0	0	361	0.4	360	362	13.1	98.1
2022-10-28T23:29	10	0	0.1	0	0	362	0.2	361	362	13.3	98.1
2022-10-28T23:30	10	0	0.1	0	0	362	0.2	361	362	13.4	98.0
2022-10-28T23:31	10	0	0.1	0	0	361	0.2	361	362	13.4	97.8
2022-10-28T23:32	10	0	0.1	0	0	361	0.2	360	361	13.2	97.4
2022-10-28T23:33	10	0	0.1	0	0	361	0.3	361	362	12.8	97.1
2022-10-28T23:34	10	0	0.1	0	0	362	0.3	362	363	12.7	97.3
2022-10-28T23:35	10	0	0.1	0	0	362	0.3	362	363	13.0	97.9
2022-10-28T23:36	10	0	0.1	0	0	362	0.3	361	363	13.0	98.1
2022-10-28T23:37	10	0	0.1	0	0	361	0.2	361	362	12.9	98.1
2022-10-28T23:38	10	0	0.1	0	0	361	0.3	360	362	12.9	98.2
2022-10-28T23:39	10	0	0.1	0	0	361	0.2	360	361	12.8	98.2
2022-10-28T23:40	10	0	0.1	0	0	361	0.2	360	362	12.9	98.3
2022-10-28T23:41	10	0	0.1	0	0	362	0.4	361	362	13.0	98.4
2022-10-28T23:42	10	0	0.1	0	0	362	0.3	362	363	13.4	98.6
2022-10-28T23:43	10	0	0.1	0	0	362	0.8	361	364	13.7	98.6
2022-10-28T23:44	10	0	0.1	0	0	362	0.5	362	364	12.8	98.2
2022-10-28T23:45	10	0	0.1	0	0	363	0.3	362	363	12.9	98.0
2022-10-28T23:46	10	-1	0.1	-1	0	363	0.2	362	363	12.6	97.8
2022-10-28T23:47	10	-1	0.1	-1	-1	363	1.0	361	365	12.9	97.9
2022-10-28T23:48	10	-1	0.1	-1	-1	364	0.4	363	364	12.9	97.8
2022-10-28T23:49	10	-1	0.1	-1	0	364	0.2	363	364	12.9	97.6
2022-10-28T23:50	10	0	0.1	-1	0	363	0.3	362	364	12.9	97.4
2022-10-28T23:51	10	0	0.1	0	0	362	0.3	361	363	12.7	97.2
2022-10-28T23:52	10	0	0.1	0	0	363	0.3	362	363	12.8	97.1
2022-10-28T23:53	10	0	0.1	0	0	363	0.2	362	363	12.9	97.1
2022-10-28T23:54	10	0	0.0	0	0	363	0.3	362	363	12.8	96.9
2022-10-28T23:55	10	0	0.1	0	0	363	0.4	362	364	12.7	96.8
2022-10-28T23:56	10	0	0.1	-1	0	363	0.3	363	364	12.7	97.0
2022-10-28T23:57	10	-1	0.1	-1	0	364	0.3	363	364	12.6	97.1
2022-10-28T23:58	10	-1	0.1	-1	-1	364	0.2	363	364	12.6	97.3
2022-10-28T23:59	10	-1	0.1	-1	-1	363	0.2	363	364	12.6	97.3
2022-10-29T00:00	10	-1	0.1	-1	-1	363	0.3	363	364	12.6	97.1
2022-10-29T00:01	10	-1	0.1	-1	-1	363	0.2	362	364	12.8	96.6
2022-10-29T00:02	10	-1	0.1	-1	-1	362	0.4	361	363	12.8	95.9
2022-10-29T00:03	10	-1	0.1	-1	-1	362	0.3	361	362	12.8	95.6
2022-10-29T00:04	10	-1	0.1	-1	0	360	0.2	360	361	12.7	95.1
2022-10-29T00:05	10	0	0.1	-1	0	360	0.2	360	361	12.8	95.1
2022-10-29T00:06	10	0	0.1	-1	0	361	0.3	360	361	12.9	95.1
2022-10-29T00:07	10	0	0.1	0	0	361	0.3	360	361	13.0	94.8
2022-10-29T00:08	10	0	0.1	0	0	360	0.3	360	361	12.9	94.6
2022-10-29T00:09	10	0	0.1	0	0	360	0.2	360	361	12.9	94.7
2022-10-29T00:10	10	0	0.1	0	0	359	1.2	357	360	12.5	94.2
2022-10-29T00:11	10	0	0.1	0	0	359	0.5	358	361	11.8	93.9
2022-10-29T00:12	10	0	0.1	-1	0	359	0.4	359	360	12.0	95.1
2022-10-29T00:13	10	-1	0.1	-1	-1	359	0.3	359	360	12.1	95.6
2022-10-29T00:14	10	-1	0.1	-1	-1	359	0.7	358	360	12.2	95.9
2022-10-29T00:15	10	-1	0.1	-1	-1	359	0.3	358	359	12.3	96.3
2022-10-29T00:16	10	-1	0.1	-1	-1	358	0.2	358	359	12.3	96.4
2022-10-29T00:17	10	-1	0.1	-1	-1	358	0.3	357	358	12.4	96.6
2022-10-29T00:18	10	-1	0.1	-1	-1	358	0.3	357	359	12.4	96.7
2022-10-29T00:19	10	-1	0.1	-1	0	358	0.2	358	359	12.6	96.9
2022-10-29T00:20	10	0	0.1	-1	0	358	0.2	357	358	12.6	96.9
2022-10-29T00:21	10	0	0.1	0	0	357	0.3	357	358	12.4	96.7
2022-10-29T00:22	10	0	0.1	0	0	356	0.2	356	357	12.1	96.4
2022-10-29T00:23	10	0	0.1	0	0	357	0.2	356	357	12.0	96.7
2022-10-29T00:24	10	0	0.1	0	0	357	0.3	356	358	12.1	97.1
2022-10-29T00:25	10	0	0.1	0	0	358	0.2	357	358	12.4	97.4
2022-10-29T00:26	10	0	0.1	0	0	358	0.2	358	358	12.3	97.4
2022-10-29T00:27	10	0	0.1	0	0	358	0.3	358	359	12.2	97.3
2022-10-29T00:28	10	0	0.1	0	0	358	0.3	357	358	12.2	97.4
2022-10-29T00:29	10	0	0.1	0	1	358	0.2	357	358	12.2	97.4
2022-10-29T00:30	10	0	0.2	0	1	358	0.3	357	358	12.2	97.3
2022-10-29T00:31	10	0	0.2	0	0	358	0.3	358	359	12.2	97.2
2022-10-29T00:32	10	0	0.2	0	1	358	0.3	357	359	12.3	96.9
2022-10-29T00:33	10	0	0.1	0	0	358	0.4	357	358	12.2	96.6
2022-10-29T00:34	10	0	0.2	0	1	357	0.3	357	358	11.8	96.3
2022-10-29T00:35	10	0	0.1	0	0	357	0.2	356	358	11.8	96.6
2022-10-29T00:36	10	0	0.2	0	0	357	0.3	356	358	11.8	96.9
2022-10-29T00:37	10	0	0.1	0	0	357	0.3	356	358	11.9	97.1
2022-10-29T00:38	10	0	0.1	-1	0	357	0.2	356	357	11.9	97.2
2022-10-29T00:39	10	0	0.1	0	0	356	0.3	356	357	12.0	97.3
2022-10-29T00:40	10	0	0.1	0	0	356	0.3	356	357	12.1	97.3
2022-10-29T00:41	10	0	0.2	0	1	357	0.2	356	357	12.2	97.3
2022-10-29T00:42	10	0	0.1	0	1	356	0.3	356	357	12.1	97.0
2022-10-29T00:43	10	0	0.1	0	0	356	0.2	356	357	12.0	96.8
2022-10-29T00:44	10	0	0.1	0	0	356	0.3	356	357	12.0	96.8
2022-10-29T00:45	10	0	0.1	0	0	356	0.3	355	356	11.9	96.8
2022-10-29T00:46	10	0	0.1	0	0	356	0.3	355	356	11.9	96.9
2022-10-29T00:47	10	0	0.1	0	0	355	0.3	354	356	11.9	96.9
2022-10-29T00:48	10	0	0.1	0	0	355	0.2	355	356	11.8	97.0
2022-10-29T00:49	10	0	0.2	0	0	355	0.2	355	356	11.8	97.1
2022-10-29T00:50	10	0	0.1	0	0	355	0.2	355	356	11.9	97.2
2022-10-29T00:51	10	0	0.1	0	0	355	0.2	355	356	12.0	97.3
2022-10-29T00:52	10	0	0.2	0	0	355	0.2	355	355	12.0	97.3
2022-10-29T00:53	10	0	0.1	0	0	355	0.3	355	356	12.0	97.2
2022-10-29T00:54	10	0	0.1	0	0	355	0.2	355	356	12.0	97.2
2022-10-29T00:55	10	0	0.1	0	0	355	0.2	354	355	11.9	97.2
2022-10-29T00:56	10	0	0.1	0	0	355	0.3	354	356	11.8	97.2
2022-10-29T00:57	10	0	0.1	0	0	355	0.3	355	356	11.7	97.2
2022-10-29T00:58	10	0	0.1	0	0	356	0.2	356	356	11.7	97.3
2022-10-29T00:59	10	0	0.1	0	0	356	0.2	356	357	11.7	97.5
2022-10-29T01:00	10	0	0.1	0	0	356	0.2	356	357	11.8	97.6
2022-10-29T01:01	10	0	0.1	0	0	356	0.2	356	357	11.7	97.6
2022-10-29T01:02	10	0	0.0	0	0	356	0.2	356	356	11.6	97.6
2022-10-29T01:03	10	0	0.1	0	0	356	0.2	356	356	11.7	97.7
2022-10-29T01:04	10	0	0.1	0	0	355	0.2	355	356	11.6	97.8
2022-10-29T01:05	10	0	0.1	0	0	355	0.2	355	356	11.6	97.8
2022-10-29T01:06	10	0	0.1	0	0	356	0.2	355	356	11.6	97.8
2022-10-29T01:07	10	0	0.1	0	0	356	0.2	355	356	11.6	98.0
2022-10-29T01:08	10	0	0.1	-1	0	356	0.3	355	357	11.6	98.1
2022-10-29T01:09	10	0	0.1	-1	0	357	0.2	356	357	11.7	98.2
2022-10-29T01:10	10	0	0.1	-1	0	356	0.2	356	357	11.7	98.3
2022-10-29T01:11	10	0	0.1	-1	0	357	0.3	356	358	11.7	98.3
2022-10-29T01:12	10	0	0.1	0	0	357	0.2	357	358	11.8	98.3
2022-10-29T01:13	10	0	0.1	0	0	358	0.3	357	358	11.9	98.4
2022-10-29T01:14	10	0	0.1	0	0	358	0.2	357	358	12.2	98.4
2022-10-29T01:15	10	0	0.1	0	0	358	0.2	357	358	12.3	98.3
2022-10-29T01:16	10	0	0.1	0	0	358	0.3	358	359	12.2	97.8
2022-10-29T01:17	10	0	0.1	0	0	358	0.2	358	358	12.1	97.4
2022-10-29T01:18	10	0	0.1	0	0	359	0.2	358	359	12.2	97.3
2022-10-29T01:19	10	0	0.1	0	0	359	0.2	358	359	12.2	97.2
2022-10-29T01:20	10	0	0.1	0	0	358	0.2	358	359	12.1	96.9
2022-10-29T01:21	10	0	0.1	0	0	358	0.3	357	359	11.9	97.0
2022-10-29T01:22	10	0	0.1	0	0	358	0.2	357	358	11.8	97.2
2022-10-29T01:23	10	0	0.1	0	0	357	0.2	357	358	11.7	97.4
2022-10-29T01:24	10	0	0.1	-1	0	358	0.3	357	358	11.6	97.7
2022-10-29T01:25	10	-1	0.1	-1	0	358	0.2	357	358	11.6	97.9
2022-10-29T01:26	10	-1	0.0	-1	-1	358	0.3	357	358	11.5	98.0
2022-10-29T01:27	10	-1	0.1	-1	-1	357	0.2	357	358	11.6	98.1
2022-10-29T01:28	10	-1	0.1	-1	0	357	0.2	357	357	11.5	98.0
2022-10-29T01:29	10	-1	0.1	-1	0	357	0.3	357	358	11.4	98.0
2022-10-29T01:30	10	0	0.1	-1	0	358	0.4	357	359	11.5	98.0
2022-10-29T01:31	10	0	0.1	-1	0	358	0.3	358	359	11.8	98.1
2022-10-29T01:32	10	0	0.0	-1	0	358	0.2	358	359	12.1	97.5
2022-10-29T01:33	10	0	0.1	-1	0	358	0.3	358	359	12.2	95.8
2022-10-29T01:34	10	0	0.1	0	0	358	0.2	357	358	12.1	94.8
2022-10-29T01:35	10	0	0.1	0	0	357	0.2	357	358	12.0	95.0
2022-10-29T01:36	10	0	0.1	0	0	357	0.2	357	358	12.0	95.3
2022-10-29T01:37	10	0	0.1	0	0	357	0.3	356	357	12.1	95.4
2022-10-29T01:38	10	0	0.1	0	0	356	0.4	355	357	12.0	95.2
2022-10-29T01:39	10	0	0.1	0	0	355	0.2	355	356	11.7	95.2
2022-10-29T01:40	10	0	0.1	0	0	355	0.2	354	355	11.5	95.6
2022-10-29T01:41	10	0	0.1	0	0	355	0.2	354	355	11.4	96.0
2022-10-29T01:42	10	0	0.1	0	0	355	0.6	354	356	11.6	96.5
2022-10-29T01:43	10	0	0.1	0	0	354	0.4	354	355	11.4	96.4
2022-10-29T01:44	10	0	0.1	-1	0	355	0.9	353	356	11.5	96.7
2022-10-29T01:45	10	0	0.1	-1	0	355	0.3	354	356	11.5	96.8
2022-10-29T01:46	10	-1	0.1	-1	0	355	0.6	354	356	11.6	96.8
2022-10-29T01:47	10	-1	0.1	-1	0	355	0.2	355	356	11.7	96.6
2022-10-29T01:48	10	0	0.1	-1	0	355	0.2	355	356	11.6	95.9
2022-10-29T01:49	10	0	0.1	-1	0	355	0.2	354	355	11.6	95.4
2022-10-29T01:50	10	0	0.1	-1	0	354	0.3	354	355	11.6	94.9
2022-10-29T01:51	10	0	0.1	0	0	354	0.3	353	355	11.5	94.8
2022-10-29T01:52	10	0	0.1	0	0	354	0.2	353	355	11.5	94.7
2022-10-29T01:53	10	0	0.1	0	0	354	0.2	354	355	11.5	94.7
2022-10-29T01:54	10	0	0.1	0	0	354	0.3	354	355	11.6	94.5
2022-10-29T01:55	10	0	0.1	0	0	354	0.2	354	355	11.6	94.2
2022-10-29T01:56	10	0	0.1	0	0	354	0.3	354	355	11.5	93.9
2022-10-29T01:57	10	0	0.0	0	0	354	0.3	353	354	11.4	94.0
2022-10-29T01:58	10	0	0.1	0	0	353	0.2	353	354	11.4	94.3
2022-10-29T01:59	10	0	0.1	0	0	353	0.2	353	354	11.3	94.4
2022-10-29T02:00	10	0	0.1	0	0	354	0.3	353	354	11.3	94.7
2022-10-29T02:01	10	0	0.1	0	0	354	0.3	353	354	11.4	94.9
2022-10-29T02:02	10	0	0.1	0	0	354	0.3	353	355	11.3	95.3
2022-10-29T02:03	10	0	0.1	0	0	355	0.3	354	355	11.2	95.5
2022-10-29T02:04	10	0	0.1	0	0	355	0.3	354	355	11.3	95.7
2022-10-29T02:05	10	0	0.1	-1	0	354	0.2	354	354	11.3	95.2
2022-10-29T02:06	10	0	0.1	-1	0	354	0.2	353	354	11.2	95.0
2022-10-29T02:07	10	0	0.1	-1	0	354	0.2	353	355	11.2	94.9
2022-10-29T02:08	10	0	0.1	-1	0	354	0.2	353	354	11.2	95.0
2022-10-29T02:09	10	0	0.1	-1	0	353	0.2	352	354	11.3	95.3
2022-10-29T02:10	10	0	0.1	-1	0	353	0.3	352	353	11.3	95.5
2022-10-29T02:11	10	0	0.1	-1	0	352	0.2	352	353	11.2	95.8
2022-10-29T02:12	10	0	0.1	0	0	353	0.3	352	353	11.1	96.1
2022-10-29T02:13	10	0	0.1	0	0	353	0.3	352	354	11.0	96.1
2022-10-29T02:14	10	0	0.1	0	0	353	0.2	352	354	10.9	96.2
2022-10-29T02:15	10	0	0.1	0	0	353	0.2	353	354	10.8	96.4
2022-10-29T02:16	10	0	0.1	-1	0	353	0.3	352	353	10.8	96.6
2022-10-29T02:17	10	0	0.1	-1	0	352	0.3	352	353	10.9	96.8
2022-10-29T02:18	10	0	0.1	-1	0	352	0.2	351	352	11.0	96.8
2022-10-29T02:19	10	0	0.1	-1	0	352	0.2	351	352	11.1	96.9
2022-10-29T02:20	10	0	0.1	-1	0	352	0.3	351	352	11.1	97.0
2022-10-29T02:21	10	0	0.1	-1	0	351	0.2	351	352	11.0	96.8
2022-10-29T02:22	10	0	0.1	0	0	351	0.3	351	352	10.9	96.7
2022-10-29T02:23	10	0	0.1	-1	0	352	0.3	351	353	10.9	96.6
2022-10-29T02:24	10	-1	0.1	-1	0	352	0.2	351	352	10.7	96.4
2022-10-29T02:25	10	-1	0.1	-1	-1	352	0.3	351	353	10.6	96.4
2022-10-29T02:26	10	-1	0.1	-1	-1	352	0.2	351	353	10.7	96.4
2022-10-29T02:27	10	-1	0.1	-2	-1	353	0.2	352	353	10.6	96.3
2022-10-29T02:28	10	-1	0.1	-1	-1	352	0.2	352	352	10.8	96.3
2022-10-29T02:29	10	-1	0.1	-2	-1	352	0.2	351	352	10.9	96.2
2022-10-29T02:30	10	-1	0.1	-2	-1	352	0.2	351	352	11.0	95.9
2022-10-29T02:31	10	-2	0.1	-2	-1	352	0.2	351	352	11.1	95.7
2022-10-29T02:32	10	-1	0.1	-2	-1	352	0.3	351	352	11.2	95.4
2022-10-29T02:33	10	-1	0.1	-2	-1	351	0.2	351	352	11.2	95.2
2022-10-29T02:34	10	-1	0.1	-2	-1	351	0.2	351	352	11.1	95.1
2022-10-29T02:35	10	-1	0.1	-1	-1	351	0.3	351	352	11.2	95.2
2022-10-29T02:36	10	-1	0.1	-1	-1	352	0.3	351	352	11.5	95.5
2022-10-29T02:37	10	-1	0.1	-1	-1	351	0.3	350	352	11.4	95.2
2022-10-29T02:38	10	-1	0.1	-1	-1	351	0.4	350	352	11.2	94.9
2022-10-29T02:39	10	-1	0.1	-1	0	351	0.2	351	352	10.9	94.8
2022-10-29T02:40	10	-1	0.1	-1	0	351	0.3	351	352	10.7	94.8
2022-10-29T02:41	10	-1	0.1	-1	0	352	0.4	351	353	10.7	95.2
2022-10-29T02:42	10	-1	0.1	-1	-1	353	0.3	352	353	10.9	95.8
2022-10-29T02:43	10	-1	0.1	-1	-1	353	0.2	353	354	11.1	96.1
2022-10-29T02:44	10	-1	0.1	-1	-1	353	0.2	352	353	11.2	95.9
2022-10-29T02:45	10	-1	0.1	-1	-1	353	0.2	353	353	11.1	95.7
2022-10-29T02:46	10	-1	0.1	-1	-1	353	0.3	352	353	11.1	95.6
2022-10-29T02:47	10	-1	0.1	-1	0	353	0.2	352	353	11.0	95.5
2022-10-29T02:48	10	-1	0.1	-1	0	353	0.2	353	354	10.9	95.6
2022-10-29T02:49	10	0	0.1	-1	0	353	0.3	353	354	10.8	95.5
2022-10-29T02:50	10	-1	0.1	-1	0	353	0.3	353	354	10.9	95.8
2022-10-29T02:51	10	-1	0.1	-1	0	353	0.3	352	353	10.9	96.0
2022-10-29T02:52	10	-1	0.1	-1	0	353	0.2	352	353	10.8	95.9
2022-10-29T02:53	10	-1	0.1	-1	-1	352	0.3	352	353	10.8	96.1
2022-10-29T02:54	10	-1	0.1	-1	-1	352	0.3	351	352	10.8	96.3
2022-10-29T02:55	10	-1	0.1	-1	-1	351	0.3	351	352	10.9	96.4
2022-10-29T02:56	10	-1	0.1	-1	-1	351	0.3	351	352	10.9	96.2
2022-10-29T02:57	10	-1	0.1	-1	-1	351	0.2	351	352	10.9	96.0
2022-10-29T02:58	10	-1	0.1	-1	-1	351	0.2	351	352	10.9	95.7
2022-10-29T02:59	10	-1	0.1	-1	-1	351	0.2	351	352	11.0	95.5
2022-10-29T03:00	10	-1	0.1	-1	-1	351	0.2	351	352	11.0	95.3
2022-10-29T03:01	10	-1	0.1	-1	-1	351	0.3	351	352	10.9	95.1
2022-10-29T03:02	10	-1	0.1	-1	-1	351	0.3	350	352	10.9	95.2
2022-10-29T03:03	10	-1	0.1	-1	-1	351	0.2	350	352	10.9	95.2
2022-10-29T03:04	10	-1	0.1	-1	-1	351	0.2	350	352	10.9	95.2
2022-10-29T03:05	10	-1	0.1	-1	-1	351	0.2	350	351	11.0	95.1
2022-10-29T03:06	10	-1	0.3	-1	1	351	0.2	350	351	11.1	95.0
2022-10-29T03:07	10	-1	0.1	-1	-1	351	0.2	350	351	11.2	94.7
2022-10-29T03:08	10	-1	0.1	-1	-1	351	0.3	350	352	11.2	94.6
2022-10-29T03:09	10	-1	0.1	-1	-1	351	0.3	350	352	11.2	94.4
2022-10-29T03:10	10	-1	0.1	-1	-1	350	0.2	350	351	10.9	94.0
2022-10-29T03:11	10	-1	0.1	-1	0	351	0.4	350	352	10.9	94.3
2022-10-29T03:12	10	0	0.1	-1	0	351	0.3	350	352	10.7	94.5
2022-10-29T03:13	10	-1	0.1	-1	0	351	0.3	350	351	10.6	94.7
2022-10-29T03:14	10	-1	0.1	-1	-1	350	0.3	350	351	10.6	95.0
2022-10-29T03:15	10	-1	0.1	-1	-1	350	0.3	350	351	10.6	95.2
2022-10-29T03:16	10	-1	0.1	-1	-1	350	0.2	350	351	10.6	95.4
2022-10-29T03:17	10	-1	0.1	-1	-1	350	0.2	350	351	10.7	95.7
2022-10-29T03:18	10	-1	0.1	-1	0	350	0.3	349	351	10.8	95.8
2022-10-29T03:19	10	-1	0.1	-1	0	350	0.2	349	350	10.7	95.4
2022-10-29T03:20	10	-1	0.1	-1	0	349	0.2	349	350	10.6	95.3
2022-10-29T03:21	10	-1	0.1	-1	0	349	0.2	349	350	10.6	95.3
2022-10-29T03:22	10	-1	0.0	-1	0	349	0.2	349	350	10.6	95.3
2022-10-29T03:23	10	-1	0.1	-1	0	349	0.2	348	349	10.5	95.3
2022-10-29T03:24	10	-1	0.1	-1	0	349	0.2	349	349	10.4	95.4
2022-10-29T03:25	10	0	0.1	-1	0	349	0.2	348	349	10.4	95.5
2022-10-29T03:26	10	0	0.1	-1	0	348	0.2	348	349	10.3	95.7
2022-10-29T03:27	10	0	0.1	-1	0	348	0.2	348	349	10.3	95.9
2022-10-29T03:28	10	0	0.1	-1	0	348	0.2	348	349	10.2	96.1
2022-10-29T03:29	10	0	0.1	-1	0	348	0.3	348	349	10.2	96.2
2022-10-29T03:30	10	0	0.1	0	0	348	0.2	347	348	10.2	96.6
2022-10-29T03:31	10	0	0.1	-1	0	348	0.3	347	349	10.2	96.7
2022-10-29T03:32	10	0	0.1	-1	0	348	0.2	347	348	10.2	96.9
2022-10-29T03:33	10	-1	0.1	-1	0	348	0.3	347	348	10.2	97.0
2022-10-29T03:34	10	-1	0.1	-1	-1	349	0.4	348	350	10.1	97.2
2022-10-29T03:35	10	-1	0.1	-1	-1	349	0.3	349	350	10.1	97.4
2022-10-29T03:36	10	-1	0.1	-1	-1	349	0.2	348	349	10.1	97.6
2022-10-29T03:37	10	-1	0.1	-1	-1	349	0.3	348	349	10.1	97.7
2022-10-29T03:38	10	-1	0.1	-1	-1	349	0.3	348	349	10.1	97.9
2022-10-29T03:39	10	-1	0.1	-2	-1	349	0.2	349	350	10.2	98.0
2022-10-29T03:40	10	-2	0.1	-2	-1	349	0.2	349	349	10.2	98.1
2022-10-29T03:41	10	-2	0.1	-2	-1	349	0.2	349	350	10.4	98.1
2022-10-29T03:42	10	-2	0.1	-2	-1	349	0.3	348	350	10.4	98.1
2022-10-29T03:43	10	-2	0.1	-2	-1	349	0.2	349	350	10.5	98.1
2022-10-29T03:44	10	-1	0.1	-2	-1	349	0.2	349	350	10.6	98.0
2022-10-29T03:45	10	-1	0.1	-1	-1	349	0.3	348	350	10.5	97.8
2022-10-29T03:46	10	-1	0.1	-1	-1	349	0.2	348	349	10.3	97.5
2022-10-29T03:47	10	-1	0.1	-1	-1	348	0.2	348	349	10.3	97.4
2022-10-29T03:48	10	-1	0.1	-1	0	348	0.2	348	349	10.4	97.3
2022-10-29T03:49	10	-1	0.1	-1	0	348	0.2	348	349	10.3	97.2
2022-10-29T03:50	10	-1	0.1	-1	0	349	0.2	348	349	10.4	97.1
2022-10-29T03:51	10	-1	0.1	-1	0	348	0.2	348	349	10.6	97.2
2022-10-29T03:52	10	-1	0.0	-1	-1	348	0.2	348	349	10.7	97.0
2022-10-29T03:53	10	-1	0.1	-1	0	348	0.2	348	349	10.6	96.6
2022-10-29T03:54	10	-1	0.0	-1	-1	348	0.3	348	349	10.6	96.4
2022-10-29T03:55	10	-1	0.1	-1	0	348	0.2	347	349	10.4	96.0
2022-10-29T03:56	10	-1	0.1	-1	-1	348	0.3	347	349	10.3	96.0
2022-10-29T03:57	10	-1	0.1	-1	0	349	0.3	348	349	10.3	96.3
2022-10-29T03:58	10	-1	0.1	-1	0	349	0.3	349	350	10.4	96.5
2022-10-29T03:59	10	0	0.1	-1	0	350	0.2	349	350	10.4	96.5
2022-10-29T04:00	10	-1	0.1	-1	0	350	0.3	350	351	10.5	96.5
2022-10-29T04:01	10	-1	0.1	-1	-1	350	0.3	350	351	10.6	96.6
2022-10-29T04:02	10	-1	0.1	-1	-1	350	0.3	350	351	10.6	96.4
2022-10-29T04:03	10	-1	0.1	-1	-1	350	0.2	350	351	10.5	96.3
2022-10-29T04:04	10	-1	0.1	-1	-1	350	0.2	350	351	10.4	96.3
2022-10-29T04:05	10	-1	0.1	-1	-1	350	0.3	350	351	10.5	96.6
2022-10-29T04:06	10	-1	0.1	-1	-1	350	0.2	350	351	10.8	96.8
2022-10-29T04:07	10	-1	0.1	-1	-1	350	0.2	349	350	10.4	96.2
2022-10-29T04:08	10	-1	0.1	-1	-1	350	0.3	350	351	10.4	96.4
2022-10-29T04:09	10	-1	0.1	-1	-1	350	0.3	350	351	10.4	96.7
2022-10-29T04:10	10	-1	0.0	-1	-1	350	0.3	350	351	10.4	96.8
2022-10-29T04:11	10	-1	0.1	-1	-1	350	0.4	349	351	10.4	96.8
2022-10-29T04:12	10	-1	0.1	-1	-1	349	0.5	348	350	10.1	96.6
2022-10-29T04:13	10	-1	0.0	-1	-1	349	0.4	348	350	9.8	96.5
2022-10-29T04:14	10	-1	0.1	-1	-1	350	0.3	349	350	10.2	97.2
2022-10-29T04:15	10	-1	0.1	-1	-1	349	0.3	348	350	10.3	97.3
2022-10-29T04:16	10	-1	0.1	-1	-1	349	0.3	348	350	9.9	96.9
2022-10-29T04:17	10	-1	0.1	-1	-1	349	0.4	349	350	10.0	97.2
2022-10-29T04:18	10	-1	0.1	-1	-1	350	0.2	349	350	10.4	97.6
2022-10-29T04:19	10	-1	0.1	-1	-1	350	0.2	349	350	10.3	97.2
2022-10-29T04:20	10	-1	0.1	-1	-1	349	0.3	348	350	10.4	97.1
2022-10-29T04:21	10	-1	0.1	-1	-1	350	0.5	349	351	10.6	97.0
2022-10-29T04:22	10	-1	0.1	-1	-1	351	0.4	349	352	11.1	96.5
2022-10-29T04:23	10	-1	0.1	-1	-1	351	0.2	351	352	11.3	94.8
2022-10-29T04:24	10	-1	0.1	-1	-1	351	0.3	351	352	11.4	93.4
2022-10-29T04:25	10	-1	0.1	-1	0	351	0.2	351	352	11.5	92.6
2022-10-29T04:26	10	-1	0.1	-1	0	351	0.3	350	352	11.5	92.2
2022-10-29T04:27	10	-1	0.1	-1	0	350	0.3	349	351	11.2	92.6
2022-10-29T04:28	10	0	0.1	-1	0	349	0.3	349	350	11.0	93.2
2022-10-29T04:29	10	0	0.1	-1	0	349	0.8	347	350	10.8	93.6
2022-10-29T04:30	10	0	0.1	-1	0	349	0.2	348	349	10.2	93.6
2022-10-29T04:31	10	0	0.1	-1	0	349	0.2	348	349	10.6	95.2
2022-10-29T04:32	10	0	0.1	-1	0	349	0.2	348	349	10.8	95.4
2022-10-29T04:33	10	0	0.1	-1	0	349	0.2	348	349	10.9	95.1
2022-10-29T04:34	10	0	0.1	-1	0	348	0.3	347	349	10.8	94.8
2022-10-29T04:35	10	0	0.1	-1	0	348	0.2	347	348	10.6	94.7
2022-10-29T04:36	10	0	0.1	-1	0	347	0.3	347	348	10.4	94.8
2022-10-29T04:37	10	0	0.2	-1	0	348	0.2	347	348	10.5	95.1
2022-10-29T04:38	10	-1	0.2	-1	0	348	0.3	347	349	10.8	95.2
2022-10-29T04:39	10	-1	0.2	-1	0	348	0.3	347	349	10.8	94.8
2022-10-29T04:40	10	-1	0.1	-1	-1	348	0.3	347	349	10.9	94.8
2022-10-29T04:41	10	-1	0.2	-1	0	348	0.3	347	348	10.8	94.5
2022-10-29T04:42	10	-1	0.1	-1	-1	348	0.2	348	349	10.8	94.6
2022-10-29T04:43	10	-1	0.2	-1	-1	349	0.4	348	349	10.7	94.9
2022-10-29T04:44	10	-1	0.1	-1	0	349	0.3	348	350	10.9	95.2
2022-10-29T04:45	10	-1	0.2	-1	0	349	0.2	349	349	11.0	94.9
2022-10-29T04:46	10	-1	0.2	-1	0	349	0.2	348	349	11.0	94.6
2022-10-29T04:47	10	-1	0.2	-1	0	349	0.3	348	349	10.7	94.3
2022-10-29T04:48	10	-1	0.1	-1	0	349	0.3	348	349	10.7	94.8
2022-10-29T04:49	10	-1	0.1	-1	0	349	0.2	348	349	10.7	94.8
2022-10-29T04:50	10	-1	0.1	-1	0	348	0.2	348	349	10.6	95.0
2022-10-29T04:51	10	-1	0.2	-1	0	348	0.3	348	349	10.2	94.9
2022-10-29T04:52	10	-1	0.1	-1	-1	349	0.3	348	349	10.4	96.0
2022-10-29T04:53	10	-1	0.2	-1	0	349	0.3	349	350	10.6	96.3
2022-10-29T04:54	10	-1	0.1	-1	0	349	0.3	349	350	10.8	96.3
2022-10-29T04:55	10	-1	0.1	-1	0	350	0.3	350	351	11.1	95.8
2022-10-29T04:56	10	-1	0.2	-1	0	351	0.2	350	351	11.3	94.8
2022-10-29T04:57	10	-1	0.2	-1	0	350	0.4	350	351	11.4	93.6
2022-10-29T04:58	10	-1	0.1	-1	0	349	0.4	349	350	11.2	93.1
2022-10-29T04:59	10	-1	0.1	-1	0	349	0.3	349	350	11.3	93.8
2022-10-29T05:00	10	-1	0.2	-1	0	349	0.2	349	350	11.3	93.8
2022-10-29T05:01	10	0	0.2	-1	0	349	0.3	349	350	11.2	93.7
2022-10-29T05:02	10	0	0.2	-1	0	349	0.3	348	350	11.1	93.5
2022-10-29T05:03	10	0	0.2	-1	0	348	0.4	347	349	11.1	93.4
2022-10-29T05:04	10	0	0.1	-1	0	348	0.3	347	349	11.0	93.2
2022-10-29T05:05	10	0	0.1	-1	0	348	0.3	347	349	10.8	93.2
2022-10-29T05:06	10	0	0.1	-1	0	348	0.3	347	348	10.4	93.4
2022-10-29T05:07	10	-1	0.1	-1	0	348	0.2	347	348	10.3	94.1
2022-10-29T05:08	10	-1	0.1	-1	0	347	0.5	346	348	10.4	94.8
2022-10-29T05:09	10	-1	0.1	-1	0	347	0.3	347	348	10.4	95.2
2022-10-29T05:10	10	-1	0.2	-1	0	347	0.3	346	348	10.3	95.3
2022-10-29T05:11	10	-1	0.1	-1	-1	347	0.7	346	349	10.1	95.4
2022-10-29T05:12	10	-1	0.1	-1	-1	348	0.3	347	348	10.2	95.7
2022-10-29T05:13	10	-1	0.1	-1	-1	348	0.3	347	349	10.3	95.9
2022-10-29T05:14	10	-1	0.1	-1	-1	348	0.3	348	349	10.3	96.1
2022-10-29T05:15	10	-1	0.1	-1	-1	349	0.3	348	349	10.3	96.1
2022-10-29T05:16	10	-1	0.2	-1	-1	349	0.3	348	349	10.4	96.2
2022-10-29T05:17	10	-1	0.1	-1	-1	348	0.3	348	349	10.2	96.1
2022-10-29T05:18	10	-1	0.2	-1	0	348	0.3	348	349	10.1	96.2
2022-10-29T05:19	10	-1	0.1	-1	-1	348	0.3	347	349	9.9	96.3
2022-10-29T05:20	10	-1	0.2	-1	0	348	0.2	347	348	9.9	96.4
2022-10-29T05:21	10	-1	0.1	-1	-1	347	0.2	347	348	9.9	96.7
2022-10-29T05:22	10	-1	0.2	-1	-1	347	0.3	347	348	9.9	96.9
2022-10-29T05:23	10	-1	0.2	-2	-1	347	0.3	347	348	9.9	97.0
2022-10-29T05:24	10	-2	0.2	-2	-1	347	0.3	347	348	10.1	97.3
2022-10-29T05:25	10	-2	0.2	-2	-1	347	0.3	346	348	10.0	97.2
2022-10-29T05:26	10	-2	0.2	-2	-1	347	0.3	347	348	10.0	97.2
2022-10-29T05:27	10	-2	0.2	-2	-1	348	0.2	347	348	10.2	97.5
2022-10-29T05:28	10	-2	0.2	-2	-1	348	0.2	347	348	10.3	97.5
2022-10-29T05:29	10	-2	0.2	-2	-1	347	0.3	347	348	10.2	97.4
2022-10-29T05:30	10	-2	0.1	-2	-2	347	0.2	347	348	10.2	97.4
2022-10-29T05:31	10	-2	0.1	-2	-2	347	0.3	346	348	10.3	97.7
2022-10-29T05:32	10	-2	0.1	-2	-2	347	0.4	346	348	10.1	97.6
2022-10-29T05:33	10	-2	0.2	-2	-1	347	0.6	346	349	10.0	97.5
2022-10-29T05:34	10	-2	0.2	-3	-2	349	0.5	348	350	9.9	97.5
2022-10-29T05:35	10	-3	0.2	-3	-2	350	0.5	349	351	9.8	97.3
2022-10-29T05:36	10	-3	0.1	-3	-2	350	0.3	350	351	10.0	97.4
2022-10-29T05:37	10	-3	0.2	-3	-2	350	0.3	350	351	10.1	97.2
2022-10-29T05:38	10	-2	0.3	-3	-1	350	0.3	350	351	10.4	97.1
2022-10-29T05:39	10	-2	0.1	-3	-2	350	0.4	349	351	10.6	96.9
2022-10-29T05:40	10	-2	0.2	-3	-2	350	0.3	349	350	10.6	96.5
2022-10-29T05:41	10	-2	0.2	-2	-1	349	0.3	348	349	10.3	95.7
2022-10-29T05:42	10	-2	0.2	-2	-1	349	0.3	348	349	10.4	95.8
2022-10-29T05:43	10	-1	0.1	-2	-1	348	0.3	348	349	10.6	95.9
2022-10-29T05:44	10	-1	0.2	-1	-1	348	0.3	348	349	10.6	95.6
2022-10-29T05:45	10	-1	0.1	-1	0	349	0.3	348	349	10.7	95.5
2022-10-29T05:46	10	-1	0.1	-1	0	349	0.3	348	349	10.9	95.4
2022-10-29T05:47	10	-1	0.2	-1	0	348	0.4	347	349	10.8	94.9
2022-10-29T05:48	10	-1	0.2	-1	0	348	0.3	346	348	10.4	94.3
2022-10-29T05:49	10	0	0.1	-1	0	347	0.3	346	347	10.2	94.6
2022-10-29T05:50	10	0	0.2	-1	0	347	0.3	346	347	10.2	95.0
2022-10-29T05:51	10	0	0.1	-1	0	346	0.3	345	347	10.1	95.1
2022-10-29T05:52	10	0	0.2	-1	0	346	0.2	346	347	9.9	95.3
2022-10-29T05:53	10	0	0.2	-1	0	346	0.2	346	347	10.0	95.6
2022-10-29T05:54	10	0	0.1	0	0	346	0.2	346	347	9.9	95.7
2022-10-29T05:55	10	0	0.2	0	0	346	0.2	346	347	10.0	96.0
2022-10-29T05:56	10	0	0.1	0	0	346	0.2	346	347	10.1	96.2
2022-10-29T05:57	10	0	0.2	0	0	347	0.3	346	347	10.1	96.2
2022-10-29T05:58	10	0	0.2	0	0	347	0.2	346	347	10.1	96.2
2022-10-29T05:59	10	0	0.2	0	0	347	0.4	346	347	10.0	96.2
2022-10-29T06:00	10	0	0.2	0	1	347	0.3	346	348	9.9	96.1
2022-10-29T06:01	10	1	0.1	1	1	348	0.2	347	348	9.9	96.3
2022-10-29T06:02	10	1	0.1	1	2	347	0.3	347	348	9.9	96.5
2022-10-29T06:03	10	1	0.1	1	2	347	0.3	347	348	9.7	96.5
2022-10-29T06:04	10	1	0.1	1	1	347	0.2	347	347	9.5	96.6
2022-10-29T06:05	10	1	0.1	1	1	347	0.2	346	347	9.5	96.8
2022-10-29T06:06	10	1	0.1	1	1	346	0.2	346	347	9.4	96.9
2022-10-29T06:07	10	1	0.1	0	1	346	0.4	345	347	9.4	97.2
2022-10-29T06:08	10	1	0.1	0	1	346	0.2	346	347	9.4	97.3
2022-10-29T06:09	10	0	0.2	0	1	346	0.3	345	347	9.4	97.4
2022-10-29T06:10	10	0	0.2	0	1	347	0.3	346	347	9.6	97.7
2022-10-29T06:11	10	0	0.3	0	2	346	0.2	346	347	9.7	97.9
2022-10-29T06:12	10	0	0.2	0	1	347	0.5	346	347	9.7	97.8
2022-10-29T06:13	10	1	0.2	0	1	347	0.3	346	347	9.6	97.8
2022-10-29T06:14	10	1	0.2	0	1	347	0.3	346	347	9.7	97.8
2022-10-29T06:15	10	1	0.1	1	1	347	0.4	346	348	9.6	97.7
2022-10-29T06:16	10	1	0.1	1	2	347	0.5	346	348	9.7	97.7
2022-10-29T06:17	10	2	0.1	1	2	347	0.3	347	348	9.8	97.8
2022-10-29T06:18	10	2	0.1	2	2	347	0.3	347	348	9.8	97.7
2022-10-29T06:19	10	2	0.1	2	2	348	0.3	347	348	9.8	97.6
2022-10-29T06:20	10	2	0.1	2	3	348	0.3	347	348	9.7	97.5
2022-10-29T06:21	10	3	0.1	3	3	348	0.3	347	349	9.6	97.4
2022-10-29T06:22	10	3	0.1	3	3	348	0.3	348	349	9.6	97.4
2022-10-29T06:23	10	3	0.1	3	3	348	0.2	348	349	9.6	97.3
2022-10-29T06:24	10	3	0.1	3	4	348	0.2	348	349	9.6	97.3
2022-10-29T06:25	10	3	0.2	3	5	348	0.2	348	348	9.6	97.3
2022-10-29T06:26	10	4	0.1	3	4	348	0.2	348	348	9.6	97.3
2022-10-29T06:27	10	4	0.1	4	4	348	0.3	347	349	9.6	97.3
2022-10-29T06:28	10	4	0.1	4	4	348	0.2	347	348	9.6	97.3
2022-10-29T06:29	10	4	0.1	4	4	348	0.2	347	348	9.6	97.3
2022-10-29T06:30	10	4	0.1	4	5	348	0.2	347	348	9.6	97.3
2022-10-29T06:31	10	5	0.1	4	5	348	0.2	348	349	9.5	97.2
2022-10-29T06:32	10	5	0.2	5	5	348	0.2	348	349	9.4	97.2
2022-10-29T06:33	10	5	0.1	5	6	348	0.2	348	349	9.4	97.1
2022-10-29T06:34	10	6	0.2	5	6	348	0.2	348	349	9.3	97.1
2022-10-29T06:35	10	6	0.1	6	6	348	0.2	347	349	9.2	97.2
2022-10-29T06:36	10	6	0.2	6	7	348	0.3	348	349	9.2	97.3
2022-10-29T06:37	10	7	0.3	7	9	348	0.2	348	349	9.2	97.3
2022-10-29T06:38	10	7	0.2	7	8	349	0.3	348	349	9.2	97.4
2022-10-29T06:39	10	8	0.1	8	8	349	0.4	349	350	9.3	97.5
2022-10-29T06:40	10	8	0.1	8	8	350	0.3	350	351	9.4	97.7
2022-10-29T06:41	10	8	0.1	8	9	351	0.2	350	351	9.4	97.8
2022-10-29T06:42	10	9	0.1	8	9	351	0.3	350	352	9.4	97.7
2022-10-29T06:43	10	9	0.1	8	9	351	0.2	351	352	9.6	97.9
2022-10-29T06:44	10	9	0.2	9	9	352	0.2	351	352	9.7	98.0
2022-10-29T06:45	10	10	0.2	9	10	352	0.3	351	353	9.7	98.0
2022-10-29T06:46	10	10	0.2	10	11	353	0.2	352	353	9.8	98.0
2022-10-29T06:47	10	11	0.1	10	11	353	0.2	352	353	9.6	97.9
2022-10-29T06:48	10	11	0.1	11	11	353	0.2	352	353	9.4	97.8
2022-10-29T06:49	10	11	0.1	11	11	353	0.2	352	353	9.4	97.9
2022-10-29T06:50	10	11	0.1	11	11	353	0.3	352	353	9.4	97.9
2022-10-29T06:51	10	11	0.1	11	11	353	0.2	352	353	9.5	98.0
2022-10-29T06:52	10	11	0.1	11	11	353	0.2	352	353	9.5	98.1
2022-10-29T06:53	10	11	0.1	11	11	353	0.2	353	353	9.4	98.1
2022-10-29T06:54	10	11	0.1	11	12	353	0.2	353	353	9.4	98.2
2022-10-29T06:55	10	12	0.2	11	12	353	0.2	352	353	9.4	98.2
2022-10-29T06:56	10	12	0.3	12	13	354	0.2	353	354	9.4	98.2
2022-10-29T06:57	10	13	0.3	13	14	354	0.3	353	354	9.4	98.2
2022-10-29T06:58	10	14	0.1	14	14	354	0.3	354	355	9.6	98.3
2022-10-29T06:59	10	14	0.1	14	14	355	0.2	354	355	9.7	98.4
2022-10-29T07:00	10	14	0.0	14	14	355	0.2	354	355	9.7	98.4
2022-10-29T07:01	10	14	0.1	14	14	355	0.4	354	356	9.6	98.3
2022-10-29T07:02	10	14	0.1	14	14	355	0.6	354	356	9.5	98.2
2022-10-29T07:03	10	14	0.2	14	15	356	0.3	355	356	9.5	98.1
2022-10-29T07:04	10	15	0.2	15	16	356	0.5	355	357	9.5	98.0
2022-10-29T07:05	10	16	0.3	15	16	356	0.6	356	358	9.7	98.0
2022-10-29T07:06	10	17	0.3	16	17	357	0.3	356	358	9.8	97.9
2022-10-29T07:07	10	18	0.4	17	19	357	0.3	356	358	9.8	97.7
2022-10-29T07:08	10	19	0.5	19	20	358	0.3	357	359	9.8	97.4
2022-10-29T07:09	10	21	0.3	20	22	358	0.3	358	359	9.8	97.2
2022-10-29T07:10	10	22	0.3	22	23	359	0.3	358	359	9.8	96.9
2022-10-29T07:11	10	23	0.2	22	23	359	0.2	359	360	9.7	96.7
2022-10-29T07:12	10	23	0.1	23	24	360	0.2	360	360	9.7	96.5
2022-10-29T07:13	10	23	0.3	23	24	360	0.2	360	361	9.7	96.4
2022-10-29T07:14	10	23	0.1	22	23	361	0.3	360	362	9.7	96.4
2022-10-29T07:15	10	22	0.2	22	23	361	0.2	361	362	9.7	96.5
2022-10-29T07:16	10	23	0.3	23	24	361	0.2	361	362	9.6	96.5
2022-10-29T07:17	10	24	0.1	24	24	361	0.2	361	362	9.6	96.8
2022-10-29T07:18	10	24	0.1	24	24	362	0.2	361	362	9.6	97.0
2022-10-29T07:19	10	25	0.3	24	26	362	0.2	362	363	9.8	97.3
2022-10-29T07:20	10	26	0.3	25	26	362	0.3	362	363	9.9	97.3
2022-10-29T07:21	10	27	0.3	26	27	362	0.2	362	362	9.9	97.2
2022-10-29T07:22	10	28	0.8	27	30	363	0.2	362	363	9.9	97.2
2022-10-29T07:23	10	31	0.3	30	31	363	0.2	363	364	10.0	97.2
2022-10-29T07:24	10	30	0.4	29	31	363	0.2	363	364	10.0	97.1
2022-10-29T07:25	10	29	0.3	28	29	364	0.3	363	364	10.1	97.1
2022-10-29T07:26	10	29	0.6	28	30	364	0.2	363	364	10.2	96.8
2022-10-29T07:27	10	31	0.4	30	32	364	0.2	364	364	10.1	96.5
2022-10-29T07:28	10	32	0.4	32	33	364	0.2	364	365	10.2	96.3
2022-10-29T07:29	10	34	0.6	33	35	365	0.2	365	366	10.2	96.1
2022-10-29T07:30	10	36	0.3	35	36	365	0.3	365	366	10.2	95.9
2022-10-29T07:31	10	36	0.1	36	36	366	0.2	366	367	10.4	95.9
2022-10-29T07:32	10	37	0.6	36	38	367	0.2	366	367	10.4	95.6
2022-10-29T07:33	10	39	0.8	38	41	367	0.2	367	367	10.3	95.5
2022-10-29T07:34	10	43	1.4	41	45	368	0.4	367	368	10.3	95.8
2022-10-29T07:35	10	47	0.6	46	48	368	0.2	368	369	10.4	96.0
2022-10-29T07:36	10	48	0.1	48	48	369	0.2	368	369	10.5	96.0
2022-10-29T07:37	10	48	0.2	47	48	369	0.3	369	370	10.6	95.8
2022-10-29T07:38	10	46	1.1	44	47	370	0.5	368	370	10.8	95.3
2022-10-29T07:39	10	42	0.8	41	44	370	0.3	369	371	10.8	94.8
2022-10-29T07:40	10	41	0.2	41	41	370	0.3	369	371	10.9	94.3
2022-10-29T07:41	10	41	0.3	40	41	370	0.4	369	371	10.9	94.0
2022-10-29T07:42	10	40	0.3	40	41	370	0.4	370	371	10.9	93.6
2022-10-29T07:43	10	43	1.3	41	45	370	0.2	370	371	11.0	93.1
2022-10-29T07:44	10	48	1.5	46	51	371	0.3	370	372	11.0	92.5
2022-10-29T07:45	10	52	0.8	50	53	371	0.5	370	372	11.0	92.0
2022-10-29T07:46	10	53	0.4	52	54	372	0.4	371	373	11.0	91.9
2022-10-29T07:47	10	51	0.5	50	52	372	0.2	372	373	11.1	92.3
2022-10-29T07:48	10	50	0.2	50	51	373	0.2	372	373	11.1	92.3
2022-10-29T07:49	10	50	0.3	50	51	373	0.3	372	373	11.2	92.3
2022-10-29T07:50	10	52	0.3	51	52	373	0.3	372	374	11.2	92.5
2022-10-29T07:51	10	52	0.3	51	53	373	0.3	373	374	11.2	92.4
2022-10-29T07:52	10	52	0.6	51	53	373	0.2	373	374	11.2	92.6
2022-10-29T07:53	10	52	1.0	51	53	374	0.2	373	374	11.2	93.0
2022-10-29T07:54	10	53	0.7	52	54	374	0.2	373	375	11.1	93.2
2022-10-29T07:55	10	50	0.5	49	51	374	0.3	374	375	11.1	93.7
2022-10-29T07:56	10	50	0.5	50	51	374	0.2	374	375	11.3	94.3
2022-10-29T07:57	10	52	0.6	51	53	374	0.2	374	375	11.3	94.3
2022-10-29T07:58	10	54	0.7	53	55	375	0.2	374	375	11.4	94.1
2022-10-29T07:59	10	54	0.7	53	55	375	0.2	374	376	11.3	94.4
2022-10-29T08:00	10	52	0.3	52	53	375	0.2	375	376	11.4	94.6
2022-10-29T08:01	10	51	0.2	51	52	375	0.2	375	376	11.4	94.9
2022-10-29T08:02	10	54	0.6	52	54	376	0.2	375	376	11.4	95.0
2022-10-29T08:03	10	52	0.4	52	53	376	0.4	375	377	11.5	94.9
2022-10-29T08:04	10	51	0.9	50	53	376	0.2	376	377	11.4	94.7
2022-10-29T08:05	10	51	0.5	50	52	376	0.3	376	377	11.3	94.8
2022-10-29T08:06	10	54	0.7	52	55	376	0.3	376	377	11.3	94.8
2022-10-29T08:07	10	57	1.4	54	60	377	0.2	376	377	11.4	95.0
2022-10-29T08:08	10	63	1.0	60	64	378	0.3	377	379	11.4	94.8
2022-10-29T08:09	10	65	0.5	64	65	378	0.3	378	379	11.5	94.9
2022-10-29T08:10	10	66	0.7	65	67	379	0.5	377	379	11.4	95.1
2022-10-29T08:11	10	71	2.4	68	74	378	0.6	377	380	11.2	95.4
2022-10-29T08:12	10	70	3.1	64	74	378	0.6	377	379	11.0	95.7
2022-10-29T08:13	10	58	3.1	53	64	377	0.6	376	379	10.9	96.1
2022-10-29T08:14	10	54	2.9	51	61	376	1.2	375	379	10.9	96.4
2022-10-29T08:15	10	62	1.8	57	64	377	0.4	376	377	10.9	96.8
2022-10-29T08:16	10	56	0.7	55	57	376	0.3	376	377	11.1	97.1
2022-10-29T08:17	10	54	2.2	51	57	376	0.4	375	377	10.9	97.2
2022-10-29T08:18	10	59	3.3	52	63	376	0.8	374	377	10.8	97.3
2022-10-29T08:19	10	61	2.7	56	64	376	0.4	375	377	10.9	97.5
2022-10-29T08:20	10	51	2.1	49	56	376	0.5	375	377	10.8	97.7
2022-10-29T08:21	10	49	1.1	48	52	375	0.3	375	376	10.8	97.8
2022-10-29T08:22	10	52	1.0	49	53	376	0.5	375	377	10.8	98.0
2022-10-29T08:23	10	46	2.0	42	49	375	0.5	375	376	10.8	98.1
2022-10-29T08:24	10	43	0.3	42	43	376	0.3	375	376	10.7	98.3
2022-10-29T08:25	10	43	0.2	43	44	375	0.3	375	376	10.7	98.4
2022-10-29T08:26	10	45	0.9	43	46	376	0.4	375	377	10.7	98.5
2022-10-29T08:27	10	43	0.2	42	43	376	0.4	375	377	10.8	98.7
2022-10-29T08:28	10	40	0.8	39	42	376	0.2	376	377	10.9	98.8
2022-10-29T08:29	10	39	0.4	39	40	377	0.3	376	377	10.9	98.9
2022-10-29T08:30	10	42	1.0	40	43	377	0.2	376	377	11.0	99.1
2022-10-29T08:31	10	44	1.7	42	47	377	0.3	376	377	10.9	99.1
2022-10-29T08:32	10	49	1.3	46	51	377	0.4	376	378	10.9	99.2
2022-10-29T08:33	10	53	1.8	50	57	378	0.3	377	378	11.0	99.2
2022-10-29T08:34	10	62	1.8	57	64	378	0.4	377	379	11.0	99.2
2022-10-29T08:35	10	59	1.2	56	62	379	0.3	378	379	11.0	99.2
2022-10-29T08:36	10	53	1.9	51	56	379	0.3	378	380	11.1	99.2
2022-10-29T08:37	10	51	0.9	50	53	379	0.4	378	379	11.0	99.2
2022-10-29T08:38	10	56	1.5	53	59	378	0.3	378	379	11.1	99.2
2022-10-29T08:39	10	61	0.9	59	62	379	0.8	377	380	11.1	99.2
2022-10-29T08:40	10	60	0.4	60	61	380	0.8	378	381	11.0	99.2
2022-10-29T08:41	10	60	1.6	57	62	380	0.2	379	380	11.0	99.2
2022-10-29T08:42	10	59	1.4	57	62	380	0.3	379	380	11.0	99.2
2022-10-29T08:43	10	63	0.5	62	64	380	0.3	379	381	11.1	99.2
2022-10-29T08:44	10	66	3.0	62	71	380	0.4	380	381	11.1	99.2
2022-10-29T08:45	10	73	1.1	71	75	381	0.4	380	383	11.2	99.2
2022-10-29T08:46	10	76	0.2	75	76	382	0.3	381	383	11.2	99.2
2022-10-29T08:47	10	76	0.3	75	76	382	0.5	381	383	11.2	99.2
2022-10-29T08:48	10	72	2.0	68	75	382	0.2	382	383	11.1	99.2
2022-10-29T08:49	10	66	1.0	65	68	382	0.3	381	383	11.2	99.2
2022-10-29T08:50	10	68	0.9	66	69	383	0.3	382	383	11.2	99.2
2022-10-29T08:51	10	70	1.1	68	72	383	0.2	383	384	11.3	99.2
2022-10-29T08:52	10	75	1.4	72	76	384	0.2	383	384	11.3	99.2
2022-10-29T08:53	10	75	1.1	73	76	385	0.4	384	385	11.4	99.2
2022-10-29T08:54	10	73	0.8	73	75	385	0.3	384	385	11.3	99.2
2022-10-29T08:55	10	75	0.7	75	77	385	0.2	384	385	11.3	99.2
2022-10-29T08:56	10	78	1.5	76	81	385	0.3	385	386	11.4	99.2
2022-10-29T08:57	10	86	2.0	81	88	386	0.4	386	387	11.5	99.2
2022-10-29T08:58	10	88	0.6	87	89	387	0.5	385	387	11.4	99.2
2022-10-29T08:59	10	89	0.4	88	89	387	0.4	386	388	11.4	99.2
2022-10-29T09:00	10	91	0.9	89	93	387	0.6	386	388	11.5	99.2
2022-10-29T09:01	10	92	1.6	89	93	388	0.3	387	388	11.3	99.2
2022-10-29T09:02	10	87	1.1	86	89	387	0.3	386	388	11.4	99.2
2022-10-29T09:03	10	84	0.3	84	85	387	0.6	386	388	11.5	99.2
2022-10-29T09:04	10	83	1.3	82	85	387	0.5	386	388	11.5	99.2
2022-10-29T09:05	10	83	1.1	81	85	387	0.3	386	387	11.4	99.2
2022-10-29T09:06	10	83	2.0	81	86	387	0.2	386	387	11.5	99.2
2022-10-29T09:07	10	83	0.8	81	84	387	0.3	386	388	11.4	99.2
2022-10-29T09:08	10	84	3.9	79	89	388	0.5	387	389	11.6	99.2
2022-10-29T09:09	10	91	1.3	89	93	389	0.5	388	390	11.5	99.2
2022-10-29T09:10	10	87	1.2	86	90	389	0.7	388	390	11.6	99.2
2022-10-29T09:11	10	87	0.9	86	89	390	0.4	389	390	11.7	99.2
2022-10-29T09:12	10	84	3.1	77	87	390	0.4	389	391	11.9	99.2
2022-10-29T09:13	10	74	1.0	73	77	390	0.4	389	390	11.8	99.2
2022-10-29T09:14	10	73	0.7	72	74	389	0.2	388	389	11.7	99.1
2022-10-29T09:15	10	71	1.1	70	74	389	0.4	388	389	11.6	99.0
2022-10-29T09:16	10	72	1.1	71	74	389	0.3	388	389	11.8	99.0
2022-10-29T09:17	10	75	3.6	71	80	389	0.2	388	389	11.8	98.9
2022-10-29T09:18	10	80	2.6	77	84	389	0.3	389	390	11.8	98.8
2022-10-29T09:19	10	82	0.7	80	83	389	0.2	389	390	11.9	98.8
2022-10-29T09:20	10	81	1.8	79	85	390	0.3	390	391	12.1	98.8
2022-10-29T09:21	10	87	1.5	85	91	391	0.3	391	392	11.9	98.6
2022-10-29T09:22	10	96	2.1	91	99	392	0.4	391	393	12.0	98.5
2022-10-29T09:23	10	98	0.6	97	99	393	0.2	392	393	12.0	98.2
2022-10-29T09:24	10	98	0.7	97	99	393	0.3	392	393	11.9	98.0
2022-10-29T09:25	10	98	0.3	98	99	392	1.0	391	394	11.8	97.6
2022-10-29T09:26	10	96	1.6	94	98	393	0.5	391	394	11.9	97.2
2022-10-29T09:27	10	95	0.7	94	96	393	0.7	392	394	12.0	96.8
2022-10-29T09:28	10	94	0.5	92	94	393	0.4	392	394	11.9	96.1
2022-10-29T09:29	10	92	1.0	90	93	393	0.9	392	395	12.0	95.4
2022-10-29T09:30	10	85	2.2	82	90	392	0.6	391	394	11.8	94.2
2022-10-29T09:31	10	84	0.5	83	85	392	0.4	391	392	11.8	93.4
2022-10-29T09:32	10	83	0.7	82	84	392	0.4	391	393	11.9	92.9
2022-10-29T09:33	10	83	1.3	82	86	392	0.5	391	393	12.0	92.5
2022-10-29T09:34	10	87	0.2	86	87	392	0.4	391	394	12.0	92.2
2022-10-29T09:35	10	85	0.8	84	87	392	0.5	391	393	12.1	92.3
2022-10-29T09:36	10	90	2.3	85	93	393	0.6	392	394	12.1	92.3
2022-10-29T09:37	10	94	0.4	93	94	393	0.6	392	394	12.0	92.0
2022-10-29T09:38	10	92	0.5	92	94	393	0.6	391	394	11.9	91.8
2022-10-29T09:39	10	94	0.2	93	94	393	0.3	393	394	12.0	91.6
2022-10-29T09:40	10	93	0.3	92	94	394	0.7	393	395	12.0	91.6
2022-10-29T09:41	10	92	0.4	91	93	394	0.6	393	395	12.2	91.8
2022-10-29T09:42	10	90	0.7	89	91	394	0.5	393	395	12.1	91.7
2022-10-29T09:43	10	91	1.9	89	94	394	0.3	393	395	12.0	91.3
2022-10-29T09:44	10	93	0.2	93	94	395	0.5	394	395	12.3	91.7
2022-10-29T09:45	10	95	0.9	93	97	395	0.4	394	396	12.3	91.9
2022-10-29T09:46	10	96	0.6	95	97	395	0.4	394	396	12.2	91.5
2022-10-29T09:47	10	94	1.7	91	96	395	0.3	395	396	12.2	91.4
2022-10-29T09:48	10	94	1.0	92	96	396	0.5	395	397	12.3	91.2
2022-10-29T09:49	10	94	2.0	92	97	396	0.2	396	396	12.2	90.7
2022-10-29T09:50	10	94	0.5	93	95	395	0.4	395	396	12.6	90.3
2022-10-29T09:51	10	92	0.6	91	93	396	0.3	395	397	13.1	90.2
2022-10-29T09:52	10	92	1.0	91	94	396	0.6	395	397	13.1	89.9
2022-10-29T09:53	10	95	1.5	93	97	396	0.3	395	396	13.2	89.6
2022-10-29T09:54	10	100	1.3	97	102	397	0.7	395	398	13.3	89.7
2022-10-29T09:55	10	102	0.4	101	103	397	0.5	396	398	13.3	89.5
2022-10-29T09:56	10	104	0.5	103	105	398	0.4	397	399	13.4	89.4
2022-10-29T09:57	10	104	0.2	104	105	398	0.4	398	399	13.5	89.0
2022-10-29T09:58	10	105	0.2	104	105	398	0.4	397	400	13.4	88.4
2022-10-29T09:59	10	105	0.2	104	105	398	0.4	397	399	13.4	87.7
2022-10-29T10:00	10	106	0.8	105	107	398	0.4	398	399	13.5	87.7
2022-10-29T10:01	10	106	0.2	106	107	399	0.6	398	401	13.4	87.8
2022-10-29T10:02	10	105	2.2	100	107	399	0.3	399	400	13.5	88.3
2022-10-29T10:03	10	96	1.5	94	100	399	0.4	398	400	13.7	88.7
2022-10-29T10:04	10	103	2.4	98	105	400	0.4	399	401	13.7	88.0
2022-10-29T10:05	10	106	0.7	105	107	400	0.4	400	401	13.8	87.7
2022-10-29T10:06	10	108	0.5	107	109	400	0.5	399	401	13.8	87.1
2022-10-29T10:07	10	110	0.5	109	111	401	0.3	401	402	13.9	87.1
2022-10-29T10:08	10	110	0.4	110	111	402	0.3	401	403	13.9	86.8
2022-10-29T10:09	10	111	0.2	111	112	402	0.3	402	403	13.9	86.4
2022-10-29T10:10	10	114	0.8	112	115	402	0.3	402	403	14.0	86.1
2022-10-29T10:11	10	113	0.3	112	113	403	0.6	401	404	14.1	86.2
2022-10-29T10:12	10	113	0.6	113	115	403	0.3	402	404	14.3	86.3
2022-10-29T10:13	10	116	0.6	115	117	404	0.3	403	404	14.2	85.3
2022-10-29T10:14	10	118	0.4	117	119	404	0.5	403	405	14.2	85.3
2022-10-29T10:15	10	118	0.2	118	119	405	0.3	404	405	14.2	84.2
2022-10-29T10:16	10	119	0.2	118	119	405	0.3	404	405	14.2	83.4
2022-10-29T10:17	10	119	0.6	119	120	405	0.3	405	406	14.3	83.3
2022-10-29T10:18	10	120	0.1	120	120	405	0.4	405	406	14.4	82.8
2022-10-29T10:19	10	120	0.1	120	120	405	0.2	405	406	14.4	82.1
2022-10-29T10:20	10	121	0.3	120	121	406	0.4	405	406	14.6	81.9
2022-10-29T10:21	10	119	3.7	112	122	406	0.6	405	407	14.7	82.6
2022-10-29T10:22	10	115	0.8	113	117	405	0.3	404	406	14.5	82.4
2022-10-29T10:23	10	113	2.8	109	117	405	0.4	404	406	14.6	82.3
2022-10-29T10:24	10	119	1.5	117	121	406	0.3	405	407	14.6	83.3
2022-10-29T10:25	10	120	0.3	120	121	407	0.8	405	408	14.6	83.7
2022-10-29T10:26	10	122	0.5	121	123	407	0.8	405	408	14.5	84.7
2022-10-29T10:27	10	123	0.4	122	123	407	0.4	406	408	14.4	86.4
2022-10-29T10:28	10	120	3.1	114	123	407	0.3	407	408	14.4	87.3
2022-10-29T10:29	10	111	3.3	107	117	407	0.5	406	408	14.7	88.1
2022-10-29T10:30	10	119	0.4	118	120	407	0.5	406	408	14.6	86.9
2022-10-29T10:31	10	116	2.2	111	119	407	0.3	406	408	14.6	87.2
2022-10-29T10:32	10	111	1.1	109	113	407	0.6	406	408	14.7	87.5
2022-10-29T10:33	10	112	0.5	111	113	407	0.5	406	408	14.7	87.0
2022-10-29T10:34	10	112	3.0	105	115	408	0.6	407	409	15.1	87.8
2022-10-29T10:35	10	105	2.8	102	112	407	0.5	406	408	15.0	86.8
2022-10-29T10:36	10	111	2.0	109	114	408	0.8	406	409	15.0	86.4
2022-10-29T10:37	10	108	1.2	107	110	407	0.6	407	409	15.0	85.5
2022-10-29T10:38	10	110	1.1	108	111	407	0.3	407	408	14.9	85.5
2022-10-29T10:39	10	112	2.1	108	114	408	0.3	407	408	14.9	85.7
2022-10-29T10:40	10	115	1.0	112	116	409	0.4	408	409	15.1	86.1
2022-10-29T10:41	10	116	0.5	115	117	408	0.8	407	409	14.9	85.7
2022-10-29T10:42	10	118	0.4	117	118	407	0.5	406	408	14.9	85.4
2022-10-29T10:43	10	117	0.6	116	118	408	0.4	407	409	14.9	86.5
2022-10-29T10:44	10	117	0.8	115	118	408	0.4	407	409	15.0	87.0
2022-10-29T10:45	10	116	1.4	114	118	408	0.4	407	409	14.9	86.7
2022-10-29T10:46	10	119	1.1	117	120	408	0.3	407	408	14.9	86.9
2022-10-29T10:47	10	121	0.5	120	121	408	0.7	407	409	14.8	87.1
2022-10-29T10:48	10	119	1.0	117	120	409	0.4	408	410	15.1	87.9
2022-10-29T10:49	10	117	0.4	116	118	409	0.4	408	410	14.9	86.9
2022-10-29T10:50	10	117	0.4	116	117	409	0.8	407	410	15.0	86.8
2022-10-29T10:51	10	114	1.8	111	116	408	0.5	407	409	14.8	87.3
2022-10-29T10:52	10	110	1.4	108	114	408	0.3	407	408	14.8	87.3
2022-10-29T10:53	10	107	0.7	106	108	408	0.5	407	409	14.9	87.3
2022-10-29T10:54	10	108	0.9	106	109	408	0.3	407	408	14.9	87.2
2022-10-29T10:55	10	105	1.8	102	108	408	0.5	407	409	14.9	87.3
2022-10-29T10:56	10	99	1.4	97	102	408	0.7	406	409	15.2	87.9
2022-10-29T10:57	10	98	0.6	96	99	408	0.3	407	408	15.1	87.1
2022-10-29T10:58	10	97	1.5	95	99	407	0.5	406	408	15.2	86.7
2022-10-29T10:59	10	98	0.5	97	99	408	0.3	407	409	15.2	86.2
2022-10-29T11:00	10	95	1.1	94	97	408	0.2	408	408	15.2	86.2
2022-10-29T11:01	10	91	1.3	89	94	408	0.8	406	409	15.5	86.8
2022-10-29T11:02	10	90	1.0	88	91	407	0.7	406	409	15.2	86.7
2022-10-29T11:03	10	86	0.9	84	88	406	0.7	405	408	15.3	86.4
2022-10-29T11:04	10	88	0.6	87	89	407	0.7	405	408	15.5	86.8
2022-10-29T11:05	10	92	1.3	89	93	407	0.5	406	408	15.6	87.0
2022-10-29T11:06	10	92	1.3	91	95	407	0.4	406	408	15.4	86.2
2022-10-29T11:07	10	94	2.0	91	96	407	0.6	406	408	15.5	87.0
2022-10-29T11:08	10	91	1.1	90	93	407	0.6	406	408	15.4	87.0
2022-10-29T11:09	10	97	1.5	94	99	407	0.3	407	408	15.4	86.7
2022-10-29T11:10	10	97	1.1	96	99	408	0.6	407	410	15.5	86.5
2022-10-29T11:11	10	104	2.3	99	107	409	0.2	408	409	15.5	86.4
2022-10-29T11:12	10	107	0.4	106	108	409	0.4	409	410	15.5	85.5
2022-10-29T11:13	10	104	1.9	102	108	410	0.3	409	411	15.6	85.7
2022-10-29T11:14	10	103	0.5	102	104	410	0.3	409	410	15.6	85.4
2022-10-29T11:15	10	104	0.1	104	104	410	0.6	408	411	15.6	84.9
2022-10-29T11:16	10	102	1.6	99	104	410	0.4	409	411	15.8	84.5
2022-10-29T11:17	10	100	1.1	99	102	410	0.3	409	411	15.7	84.4
2022-10-29T11:18	10	104	0.9	102	104	410	0.3	409	411	15.6	84.7
2022-10-29T11:19	10	103	0.8	101	104	411	0.4	410	411	15.7	84.9
2022-10-29T11:20	10	100	0.7	99	102	411	0.3	411	412	15.9	85.7
2022-10-29T11:21	10	103	2.3	99	105	411	0.3	410	412	15.8	85.5
2022-10-29T11:22	10	101	2.9	96	105	410	0.5	410	411	15.7	84.9
2022-10-29T11:23	10	93	1.7	91	97	409	0.2	409	410	15.7	84.3
2022-10-29T11:24	10	106	3.1	98	109	410	0.8	409	412	15.7	84.7
2022-10-29T11:25	10	111	0.9	109	112	412	0.5	410	413	15.9	84.4
2022-10-29T11:26	10	108	2.0	106	112	412	1.1	410	413	15.9	84.5
2022-10-29T11:27	10	105	0.4	105	107	412	0.4	411	413	16.0	85.2
2022-10-29T11:28	10	108	1.6	105	111	413	0.4	412	414	16.0	85.4
2022-10-29T11:29	10	110	0.3	110	111	412	0.3	411	412	15.9	84.6
2022-10-29T11:30	10	110	0.6	108	110	412	0.3	411	412	15.8	84.7
2022-10-29T11:31	10	99	3.5	96	107	411	0.8	410	413	16.0	85.4
2022-10-29T11:32	10	101	1.7	97	103	410	0.4	409	411	15.8	84.7
2022-10-29T11:33	10	103	1.4	101	105	411	0.4	410	412	15.9	84.7
2022-10-29T11:34	10	106	1.2	103	107	411	0.2	410	411	15.9	84.3
2022-10-29T11:35	10	107	1.2	104	108	411	0.3	411	412	15.9	84.3
2022-10-29T11:36	10	101	1.3	99	104	410	0.4	409	411	15.9	84.4
2022-10-29T11:37	10	102	1.6	100	104	410	0.3	409	411	15.9	84.5
2022-10-29T11:38	10	105	0.9	103	107	411	0.3	410	411	15.9	84.3
2022-10-29T11:39	10	100	1.5	98	103	410	0.3	409	411	15.9	83.6
2022-10-29T11:40	10	97	2.2	95	101	409	0.6	409	411	16.0	83.4
2022-10-29T11:41	10	91	2.9	86	95	409	0.3	408	409	15.9	83.1
2022-10-29T11:42	10	86	1.0	85	88	408	0.3	407	409	15.9	82.9
2022-10-29T11:43	10	91	1.8	88	94	409	1.2	407	411	16.0	81.9
2022-10-29T11:44	10	94	0.8	92	95	410	0.8	409	412	16.1	82.2
2022-10-29T11:45	10	89	1.8	87	92	411	0.5	410	412	16.3	81.6
2022-10-29T11:46	10	88	1.0	87	90	410	0.8	408	412	16.2	81.4
2022-10-29T11:47	10	94	2.3	90	97	409	0.3	408	410	16.1	80.4
2022-10-29T11:48	10	98	0.7	96	99	410	0.6	409	411	16.1	80.0
2022-10-29T11:49	10	91	2.1	88	96	410	0.9	409	412	16.3	80.3
2022-10-29T11:50	10	84	2.1	82	88	410	0.2	409	410	16.3	80.2
2022-10-29T11:51	10	86	1.6	82	88	410	0.8	409	412	16.4	80.3
2022-10-29T11:52	10	91	1.5	88	94	411	0.4	410	412	16.4	79.5
2022-10-29T11:53	10	94	0.5	93	95	411	0.6	410	413	16.5	79.8
2022-10-29T11:54	10	93	0.4	92	94	411	0.6	410	413	16.4	79.6
2022-10-29T11:55	10	92	0.4	92	93	410	0.3	410	411	16.4	78.9
2022-10-29T11:56	10	90	1.1	88	92	410	0.2	410	411	16.4	78.7
2022-10-29T11:57	10	89	1.4	88	92	410	0.4	410	412	16.4	79.1
2022-10-29T11:58	10	94	1.8	92	98	411	0.4	411	412	16.5	79.7
2022-10-29T11:59	10	100	0.9	98	101	412	0.7	411	413	16.6	79.9
2022-10-29T12:00	10	104	2.1	101	107	412	0.6	412	414	16.5	78.6
2022-10-29T12:01	10	106	0.8	105	107	413	0.4	413	414	16.5	78.9
2022-10-29T12:02	10	107	0.6	106	108	414	0.5	413	415	16.5	78.1
2022-10-29T12:03	10	104	1.4	102	107	414	0.6	413	416	16.6	78.6
2022-10-29T12:04	10	100	1.2	98	102	413	0.3	413	414	16.6	78.6
2022-10-29T12:05	10	104	1.3	102	107	414	0.6	412	415	16.7	78.6
2022-10-29T12:06	10	105	1.1	104	107	415	0.3	414	415	16.6	78.8
2022-10-29T12:07	10	107	1.0	105	109	415	0.3	415	416	16.8	78.3
2022-10-29T12:08	10	105	1.3	103	107	416	0.3	415	416	16.9	77.4
2022-10-29T12:09	10	109	1.4	106	111	416	0.3	415	417	16.9	77.6
2022-10-29T12:10	10	108	1.2	105	109	417	0.5	416	417	17.0	77.8
2022-10-29T12:11	10	102	1.8	100	105	416	0.7	414	417	16.9	77.1
2022-10-29T12:12	10	100	1.0	99	103	415	0.3	414	415	16.9	76.8
2022-10-29T12:13	10	107	1.7	103	108	416	0.4	415	417	16.9	76.1
2022-10-29T12:14	10	107	0.6	107	108	417	0.3	416	418	17.0	77.1
2022-10-29T12:15	10	108	0.7	106	109	418	0.4	417	418	17.1	78.5
2022-10-29T12:16	10	109	1.1	106	110	418	0.4	416	418	17.1	77.2
2022-10-29T12:17	10	111	0.8	110	112	417	0.3	417	418	17.1	76.8
2022-10-29T12:18	10	107	1.7	103	110	417	0.2	417	418	17.1	74.8
2022-10-29T12:19	10	101	0.7	100	103	417	0.4	416	418	17.1	75.3
2022-10-29T12:20	10	100	0.3	99	101	417	0.3	416	417	17.2	75.8
2022-10-29T12:21	10	101	0.8	100	103	417	0.3	416	418	17.4	76.6
2022-10-29T12:22	10	103	0.6	102	104	417	0.3	417	418	17.6	79.1
2022-10-29T12:23	10	104	1.1	102	106	417	0.3	417	418	17.3	77.9
2022-10-29T12:24	10	106	0.6	105	107	418	0.3	417	418	17.3	76.8
2022-10-29T12:25	10	108	1.6	105	109	418	0.5	417	419	17.5	78.1
2022-10-29T12:26	10	109	0.6	108	110	418	0.4	417	419	17.4	76.3
2022-10-29T12:27	10	111	0.7	110	112	419	0.5	418	420	17.6	76.9
2022-10-29T12:28	10	113	1.4	111	115	420	0.3	419	420	17.7	77.4
2022-10-29T12:29	10	118	1.5	115	121	421	0.4	420	421	17.8	77.3
2022-10-29T12:30	10	122	0.4	121	122	421	1.0	419	423	17.8	77.6
2022-10-29T12:31	10	121	0.7	119	122	420	0.6	419	421	17.6	77.0
2022-10-29T12:32	10	121	1.8	118	123	420	0.2	419	420	17.4	75.9
2022-10-29T12:33	10	119	1.0	118	121	420	0.3	419	421	17.6	75.4
2022-10-29T12:34	10	119	0.6	119	121	421	0.3	420	421	17.7	75.9
2022-10-29T12:35	10	122	0.5	121	123	421	0.3	420	422	17.9	76.5
2022-10-29T12:36	10	120	2.8	115	123	422	0.4	421	423	17.9	76.5
2022-10-29T12:37	10	116	1.1	115	118	422	0.3	421	422	17.9	75.7
2022-10-29T12:38	10	117	0.6	117	118	421	0.3	421	422	17.9	75.9
2022-10-29T12:39	10	118	1.8	115	121	421	0.3	421	422	18.0	76.3
2022-10-29T12:40	10	120	0.7	119	121	421	0.3	420	422	17.9	76.1
2022-10-29T12:41	10	115	2.1	112	119	421	0.5	420	422	17.8	76.9
2022-10-29T12:42	10	108	2.7	103	112	420	0.6	419	421	17.8	76.6
2022-10-29T12:43	10	97	3.6	91	103	419	0.7	418	420	17.8	77.0
2022-10-29T12:44	10	82	4.2	77	91	417	0.9	416	419	17.8	78.2
2022-10-29T12:45	10	79	1.1	77	80	416	0.8	414	417	17.7	77.4
2022-10-29T12:46	10	77	2.0	74	80	415	0.7	414	416	17.8	77.7
2022-10-29T12:47	10	74	0.3	73	75	416	0.5	415	417	17.8	77.5
2022-10-29T12:48	10	80	3.2	75	86	415	0.4	415	416	17.8	77.1
2022-10-29T12:49	10	86	0.4	86	87	416	0.3	415	417	17.8	77.3
2022-10-29T12:50	10	85	1.1	83	87	416	0.3	415	417	17.9	77.3
2022-10-29T12:51	10	88	1.1	85	90	417	0.4	416	418	18.0	77.9
2022-10-29T12:52	10	90	1.3	88	92	417	0.3	416	418	18.0	77.6
2022-10-29T12:53	10	90	1.3	88	92	417	0.3	416	417	17.9	77.1
2022-10-29T12:54	10	91	1.3	88	93	417	0.4	417	418	18.0	77.3
2022-10-29T12:55	10	92	0.5	91	93	418	0.4	417	419	18.1	77.7
2022-10-29T12:56	10	89	0.9	88	91	418	0.5	417	420	18.1	78.1
2022-10-29T12:57	10	86	0.9	85	88	417	0.2	417	418	18.0	77.9
2022-10-29T12:58	10	84	0.4	84	85	417	0.2	416	418	18.0	77.5
2022-10-29T12:59	10	86	0.6	85	87	417	0.4	416	418	18.0	77.5
2022-10-29T13:00	10	87	0.3	87	88	417	0.2	416	417	18.0	77.0
2022-10-29T13:01	10	87	1.0	86	89	417	0.3	417	418	18.0	76.3
2022-10-29T13:02	10	91	1.2	89	92	418	0.3	417	418	18.1	75.9
2022-10-29T13:03	10	94	0.7	93	95	417	0.4	417	418	18.2	75.8
2022-10-29T13:04	10	92	1.8	90	94	418	0.2	418	418	18.3	76.2
2022-10-29T13:05	10	91	0.7	90	92	418	0.4	417	419	18.3	75.8
2022-10-29T13:06	10	92	0.2	91	92	418	0.3	417	418	18.2	74.6
2022-10-29T13:07	10	93	0.4	92	94	418	0.3	417	419	18.2	73.7
2022-10-29T13:08	10	95	1.1	93	97	419	0.4	418	419	18.4	74.3
2022-10-29T13:09	10	98	0.4	97	98	419	0.3	418	420	18.4	73.8
2022-10-29T13:10	10	98	0.2	97	98	419	0.4	418	419	18.3	73.4
2022-10-29T13:11	10	98	0.9	96	99	419	0.5	418	420	18.4	74.2
2022-10-29T13:12	10	94	0.7	94	96	418	0.2	418	419	18.3	74.4
2022-10-29T13:13	10	100	3.3	94	105	418	0.5	417	420	18.3	74.1
2022-10-29T13:14	10	106	0.8	104	107	420	0.6	418	421	18.4	74.4
2022-10-29T13:15	10	104	0.9	101	105	420	0.5	418	421	18.5	74.3
2022-10-29T13:16	10	96	1.9	94	101	420	0.5	418	421	18.5	75.2
2022-10-29T13:17	10	98	1.5	96	100	419	0.4	418	420	18.3	74.4
2022-10-29T13:18	10	98	0.4	98	99	419	0.3	418	419	18.3	74.0
2022-10-29T13:19	10	100	0.7	98	101	418	0.6	417	419	18.3	73.7
2022-10-29T13:20	10	97	0.8	95	98	418	0.4	418	419	18.3	72.8
2022-10-29T13:21	10	93	1.3	91	95	419	0.5	417	419	18.5	73.6
2022-10-29T13:22	10	89	0.8	88	91	419	0.4	417	419	18.5	72.7
2022-10-29T13:23	10	91	0.4	90	91	419	0.3	418	420	18.6	71.7
2022-10-29T13:24	10	89	0.8	88	91	419	0.5	417	419	18.6	72.4
2022-10-29T13:25	10	93	0.7	91	94	419	0.4	418	420	18.7	72.7
2022-10-29T13:26	10	93	0.2	93	94	419	0.3	419	420	18.6	72.0
2022-10-29T13:27	10	94	0.6	93	94	419	0.2	419	420	18.6	72.3
2022-10-29T13:28	10	94	0.4	93	94	420	0.4	419	421	18.7	72.7
2022-10-29T13:29	10	91	2.0	87	93	419	0.7	418	421	18.7	73.4
2022-10-29T13:30	10	86	0.5	85	87	418	0.7	417	419	18.6	72.8
2022-10-29T13:31	10	85	1.2	84	87	417	0.3	416	418	18.5	72.3
2022-10-29T13:32	10	87	0.3	87	88	417	0.2	417	418	18.6	72.5
2022-10-29T13:33	10	90	0.9	88	91	418	0.4	417	419	18.7	72.8
2022-10-29T13:34	10	90	0.4	89	91	418	0.3	417	418	18.6	72.2
2022-10-29T13:35	10	91	0.8	90	93	418	0.3	417	419	18.6	72.7
2022-10-29T13:36	10	96	1.0	93	97	419	0.4	418	419	18.7	71.9
2022-10-29T13:37	10	93	2.4	88	96	419	0.3	419	420	18.9	72.0
2022-10-29T13:38	10	78	5.3	72	88	418	1.5	415	421	18.8	73.1
2022-10-29T13:39	10	75	2.3	72	79	416	0.3	416	417	18.6	73.8
2022-10-29T13:40	10	80	0.5	78	80	416	0.4	415	417	18.6	73.1
2022-10-29T13:41	10	78	0.4	77	78	416	0.3	415	417	18.6	73.7
2022-10-29T13:42	10	76	0.4	76	77	416	0.4	415	417	18.6	72.7
2022-10-29T13:43	10	77	1.1	76	79	416	0.6	415	417	18.8	73.2
2022-10-29T13:44	10	78	0.9	77	80	416	0.2	416	417	18.7	72.1
2022-10-29T13:45	10	74	0.8	73	76	415	0.4	415	416	18.7	71.8
2022-10-29T13:46	10	76	0.2	75	76	415	0.4	415	416	18.7	71.5
2022-10-29T13:47	10	75	0.2	75	76	415	0.2	415	416	18.8	71.2
2022-10-29T13:48	10	77	0.6	75	77	416	0.5	414	416	18.8	71.2
2022-10-29T13:49	10	79	1.3	77	81	416	0.4	415	417	19.0	71.8
2022-10-29T13:50	10	83	0.8	81	84	417	0.6	416	418	19.0	71.2
2022-10-29T13:51	10	85	0.3	84	86	417	0.5	416	418	18.9	71.8
2022-10-29T13:52	10	85	0.9	82	86	417	0.4	416	418	18.9	71.7
2022-10-29T13:53	10	80	1.1	78	82	417	0.5	416	419	19.0	72.1
2022-10-29T13:54	10	79	0.3	78	79	418	0.8	416	419	19.1	73.3
2022-10-29T13:55	10	77	1.2	74	79	418	0.7	416	419	19.2	74.7
2022-10-29T13:56	10	73	1.1	71	74	417	0.6	416	418	19.0	73.4
2022-10-29T13:57	10	69	1.4	66	71	415	0.8	414	417	18.8	73.4
2022-10-29T13:58	10	64	1.7	61	66	414	0.8	413	415	18.8	72.5
2022-10-29T13:59	10	61	0.1	61	62	413	0.4	413	414	18.7	72.6
2022-10-29T14:00	10	61	0.5	60	62	413	0.4	412	413	18.7	73.1
2022-10-29T14:01	10	58	1.2	56	60	412	0.9	411	414	18.7	73.8
2022-10-29T14:02	10	54	1.4	52	56	411	0.5	410	412	18.6	74.1
2022-10-29T14:03	10	52	0.5	51	53	411	0.6	410	412	18.7	74.4
2022-10-29T14:04	10	52	0.5	51	53	411	0.8	409	412	18.8	76.4
2022-10-29T14:05	10	50	0.4	50	51	411	0.2	410	411	18.8	75.3
2022-10-29T14:06	10	52	0.4	51	52	411	0.4	410	412	18.8	75.6
2022-10-29T14:07	10	51	0.6	50	52	410	0.3	410	411	18.8	75.8
2022-10-29T14:08	10	50	0.2	49	50	411	0.3	410	411	18.8	75.9
2022-10-29T14:09	10	51	0.6	50	52	410	0.3	410	411	18.7	76.5
2022-10-29T14:10	10	52	0.1	52	52	410	0.6	408	411	18.6	73.8
2022-10-29T14:11	10	50	1.5	47	52	410	0.9	408	411	18.6	72.8
2022-10-29T14:12	10	45	1.2	43	47	408	0.3	407	409	18.6	71.9
2022-10-29T14:13	10	41	0.6	41	43	408	1.0	406	409	18.7	71.8
2022-10-29T14:14	10	40	0.7	39	41	408	0.5	407	409	18.7	72.6
2022-10-29T14:15	10	38	0.5	37	39	407	0.2	407	407	18.7	71.8
2022-10-29T14:16	10	37	0.4	36	37	407	0.2	406	407	18.6	75.9
2022-10-29T14:17	10	36	0.2	35	36	407	0.4	406	408	18.6	77.2
2022-10-29T14:18	10	36	0.2	35	36	407	0.3	406	408	18.7	77.4
2022-10-29T14:19	10	36	0.1	36	36	407	0.2	406	407	18.6	76.9
2022-10-29T14:20	10	35	0.3	35	36	407	0.3	406	407	18.6	77.1
2022-10-29T14:21	10	35	0.2	34	35	406	0.3	406	407	18.6	77.3
2022-10-29T14:22	10	35	0.1	34	35	406	0.2	405	406	18.6	77.5
2022-10-29T14:23	10	35	0.2	35	35	406	0.3	406	407	18.6	76.9
2022-10-29T14:24	10	35	0.1	35	35	406	0.2	406	407	18.6	76.6
2022-10-29T14:25	10	34	0.4	33	35	406	0.3	406	407	18.6	77.0
2022-10-29T14:26	10	33	0.3	32	33	406	0.3	406	407	18.6	76.9
2022-10-29T14:27	10	32	0.1	32	32	406	0.2	406	407	18.6	76.6
2022-10-29T14:28	10	33	0.2	32	33	406	0.3	405	406	18.6	76.1
2022-10-29T14:29	10	33	0.1	32	33	406	0.2	405	406	18.6	75.4
2022-10-29T14:30	10	32	0.3	31	32	405	0.2	405	406	18.6	75.7
2022-10-29T14:31	10	31	0.2	31	32	405	0.3	404	405	18.6	75.7
2022-10-29T14:32	10	31	0.1	31	31	405	0.3	404	406	18.6	75.9
2022-10-29T14:33	10	31	0.2	31	31	405	0.3	404	405	18.6	76.4
2022-10-29T14:34	10	30	0.2	30	31	405	0.2	404	405	18.6	76.1
2022-10-29T14:35	10	30	0.2	29	30	404	0.2	403	405	18.6	76.0
2022-10-29T14:36	10	29	0.1	29	30	404	0.3	403	405	18.6	76.8
2022-10-29T14:37	10	29	0.1	28	29	404	0.3	403	404	18.5	76.6
2022-10-29T14:38	10	28	0.2	28	29	403	0.2	403	404	18.5	75.6
2022-10-29T14:39	10	28	0.2	27	28	403	0.2	403	404	18.5	75.7
2022-10-29T14:40	10	27	0.3	26	28	403	0.2	402	403	18.5	75.4
2022-10-29T14:41	10	26	0.2	26	27	403	0.3	402	403	18.5	75.5
2022-10-29T14:42	10	26	0.1	26	26	402	0.3	402	403	18.5	75.3
2022-10-29T14:43	10	26	0.2	25	26	402	0.3	402	403	18.5	74.8
2022-10-29T14:44	10	25	0.1	25	26	402	0.3	402	403	18.5	74.2
2022-10-29T14:45	10	25	0.1	25	26	402	0.3	402	403	18.5	74.2
2022-10-29T14:46	10	25	0.1	25	25	402	0.3	402	403	18.5	74.5
2022-10-29T14:47	10	25	0.1	25	25	402	0.2	401	403	18.5	75.1
2022-10-29T14:48	10	25	0.2	25	26	402	0.3	401	402	18.5	75.8
2022-10-29T14:49	10	26	0.2	25	26	402	0.3	401	402	18.4	76.0
2022-10-29T14:50	10	26	0.2	25	26	401	0.2	401	402	18.4	76.2
2022-10-29T14:51	10	26	0.2	25	26	401	0.2	401	402	18.4	75.3
2022-10-29T14:52	10	25	0.2	25	26	401	0.3	401	402	18.5	73.5
2022-10-29T14:53	10	25	0.2	24	26	401	0.4	401	402	18.5	73.7
2022-10-29T14:54	10	24	0.3	24	25	401	0.3	400	402	18.4	74.0
2022-10-29T14:55	10	24	0.2	23	24	400	0.3	400	401	18.4	73.2
2022-10-29T14:56	10	23	0.2	23	24	400	0.4	399	401	18.4	73.3
2022-10-29T14:57	10	23	0.2	23	23	399	0.2	399	400	18.3	73.2
2022-10-29T14:58	10	23	0.2	22	23	399	0.2	398	400	18.3	72.5
2022-10-29T14:59	10	22	0.2	22	22	399	0.3	398	399	18.3	72.7
2022-10-29T15:00	10	22	0.2	21	22	399	0.2	398	399	18.2	72.1
2022-10-29T15:01	10	21	0.3	21	22	398	0.3	397	399	18.2	71.6
2022-10-29T15:02	10	21	0.2	20	21	398	0.3	397	399	18.1	71.9
2022-10-29T15:03	10	20	0.2	20	21	397	0.3	397	398	18.2	71.3
2022-10-29T15:04	10	20	0.1	20	21	397	0.3	396	397	18.0	71.4
2022-10-29T15:05	10	20	0.2	19	20	397	0.2	396	397	18.1	71.7
2022-10-29T15:06	10	19	0.2	19	20	397	0.2	396	397	18.1	71.3
2022-10-29T15:07	10	19	0.1	19	19	396	0.2	396	397	18.1	70.7
2022-10-29T15:08	10	19	0.1	19	19	396	0.2	396	397	18.1	71.0
2022-10-29T15:09	10	19	0.1	19	19	396	0.2	395	396	18.1	70.9
2022-10-29T15:10	10	19	0.1	18	19	396	0.2	395	396	18.1	71.2
2022-10-29T15:11	10	19	0.1	18	19	395	0.2	395	396	18.1	70.9
2022-10-29T15:12	10	18	0.1	18	19	395	0.2	395	396	18.1	70.6
2022-10-29T15:13	10	18	0.1	18	18	395	0.3	394	395	18.1	71.1
2022-10-29T15:14	10	18	0.1	18	18	395	0.2	394	395	18.1	70.7
2022-10-29T15:15	10	18	0.1	17	18	394	0.2	394	395	18.1	70.5
2022-10-29T15:16	10	17	0.1	17	18	394	0.3	393	395	18.1	70.6
2022-10-29T15:17	10	17	0.1	17	17	394	0.2	393	394	18.1	70.7
2022-10-29T15:18	10	17	0.1	17	17	394	0.3	393	394	18.0	71.1
2022-10-29T15:19	10	17	0.1	17	17	393	0.3	393	394	18.0	71.0
2022-10-29T15:20	10	17	0.1	17	17	393	0.2	393	394	18.0	71.2
2022-10-29T15:21	10	16	0.1	16	17	393	0.2	392	393	18.0	71.7
2022-10-29T15:22	10	16	0.1	16	16	393	0.2	392	393	18.0	73.4
2022-10-29T15:23	10	16	0.1	15	16	392	0.2	392	393	17.9	73.8
2022-10-29T15:24	10	15	0.1	15	16	392	0.2	391	392	17.8	77.1
2022-10-29T15:25	10	15	0.1	15	15	392	0.3	391	392	17.9	77.2
2022-10-29T15:26	10	15	0.1	15	15	392	0.3	391	393	17.9	77.6
2022-10-29T15:27	10	14	0.1	14	15	391	0.3	391	392	17.9	78.0
2022-10-29T15:28	10	14	0.1	14	14	391	0.3	391	392	17.8	78.0
2022-10-29T15:29	10	14	0.1	14	14	391	0.2	390	391	17.8	78.3
2022-10-29T15:30	10	14	0.1	13	14	391	0.2	390	391	17.8	79.1
2022-10-29T15:31	10	13	0.1	13	13	391	0.3	390	391	17.8	78.8
2022-10-29T15:32	10	13	0.1	13	13	390	0.3	390	391	17.7	79.4
2022-10-29T15:33	10	13	0.1	12	13	390	0.3	389	391	17.7	79.8
2022-10-29T15:34	10	12	0.1	12	13	390	0.2	389	390	17.7	79.8
2022-10-29T15:35	10	13	0.1	12	13	389	0.2	389	390	17.6	81.4
2022-10-29T15:36	10	12	0.1	12	13	389	0.2	389	390	17.6	82.8
2022-10-29T15:37	10	12	0.1	12	12	389	0.2	389	389	17.6	82.4
2022-10-29T15:38	10	12	0.2	11	12	389	0.2	388	389	17.6	83.6
2022-10-29T15:39	10	11	0.1	11	12	389	0.2	388	389	17.5	83.9
2022-10-29T15:40	10	11	0.1	11	11	388	0.2	388	389	17.5	84.1
2022-10-29T15:41	10	11	0.2	10	11	388	0.2	388	389	17.6	82.8
2022-10-29T15:42	10	10	0.1	10	11	388	0.3	387	389	17.7	76.1
2022-10-29T15:43	10	10	0.2	10	10	387	0.2	387	388	17.7	75.4
2022-10-29T15:44	10	10	0.1	10	10	387	0.2	387	388	17.7	76.1
2022-10-29T15:45	10	10	0.1	9	10	387	0.3	386	387	17.6	77.9
2022-10-29T15:46	10	9	0.1	9	10	386	0.2	386	387	17.5	77.9
2022-10-29T15:47	10	9	0.1	9	9	386	0.2	386	387	17.5	78.2
2022-10-29T15:48	10	9	0.1	9	9	386	0.2	385	386	17.4	81.4
2022-10-29T15:49	10	8	0.1	8	8	385	0.2	385	386	17.3	83.5
2022-10-29T15:50	10	8	0.2	8	9	385	0.2	384	385	17.4	82.8
2022-10-29T15:51	10	8	0.1	8	8	385	0.2	385	386	17.4	81.4
2022-10-29T15:52	10	8	0.1	7	8	385	0.3	384	386	17.4	82.1
2022-10-29T15:53	10	7	0.1	7	7	384	0.2	384	385	17.3	84.8
2022-10-29T15:54	10	7	0.1	7	7	384	0.3	384	385	17.2	85.8
2022-10-29T15:55	10	7	0.2	6	7	384	0.3	383	384	17.2	86.3
2022-10-29T15:56	10	6	0.1	6	6	383	0.3	383	384	17.0	87.2
2022-10-29T15:57	10	6	0.1	6	6	383	0.2	383	383	16.9	87.4
2022-10-29T15:58	10	5	0.1	5	6	383	0.2	382	383	17.0	87.9
2022-10-29T15:59	10	5	0.1	5	5	382	0.2	382	383	17.0	88.0
2022-10-29T16:00	10	5	0.1	5	5	382	0.3	382	383	17.0	86.5
2022-10-29T16:01	10	5	0.1	4	5	382	0.2	382	382	17.0	87.1
2022-10-29T16:02	10	4	0.1	4	4	382	0.2	382	383	16.9	87.9
2022-10-29T16:03	10	4	0.1	4	4	382	0.2	382	382	16.7	89.2
2022-10-29T16:04	10	3	0.1	3	4	382	0.2	381	382	16.7	89.5
2022-10-29T16:05	10	3	0.1	3	4	382	0.2	381	382	16.6	89.7
2022-10-29T16:06	10	3	0.2	3	3	381	0.2	380	381	16.6	89.2
2022-10-29T16:07	10	3	0.2	3	3	381	0.3	380	381	16.6	88.4
2022-10-29T16:08	10	3	0.1	2	3	380	0.2	379	380	16.6	88.4
2022-10-29T16:09	10	2	0.1	2	3	380	0.2	379	380	16.6	88.8
2022-10-29T16:10	10	2	0.2	2	3	379	0.2	379	380	16.6	88.3
2022-10-29T16:11	10	2	0.1	2	2	379	0.3	379	380	16.5	88.5
2022-10-29T16:12	10	2	0.2	1	2	379	0.3	379	380	16.4	89.4
2022-10-29T16:13	10	2	0.2	1	2	379	0.3	379	380	16.4	89.7
2022-10-29T16:14	10	1	0.1	1	2	379	0.3	379	380	16.4	89.2
2022-10-29T16:15	10	1	0.2	1	2	380	0.3	379	380	16.4	89.1
2022-10-29T16:16	10	1	0.1	1	1	379	0.2	379	380	16.3	89.6
2022-10-29T16:17	10	1	0.2	1	1	379	0.2	379	380	16.2	90.5
2022-10-29T16:18	10	1	0.1	1	1	378	0.3	378	379	16.2	91.2
2022-10-29T16:19	10	1	0.2	0	1	377	0.3	377	378	16.0	91.6
2022-10-29T16:20	10	1	0.2	0	2	377	0.2	377	378	16.1	91.7
2022-10-29T16:21	10	1	0.1	1	1	378	0.2	377	378	16.3	90.7
2022-10-29T16:22	10	1	0.1	1	1	377	0.2	377	378	16.3	89.4
2022-10-29T16:23	10	1	0.1	1	1	377	0.3	376	377	16.3	88.8
2022-10-29T16:24	10	1	0.1	1	1	376	0.3	376	377	16.1	89.4
2022-10-29T16:25	10	1	0.1	1	1	376	0.2	376	377	16.1	90.1
2022-10-29T16:26	10	1	0.1	1	1	377	0.3	376	377	16.2	89.4
2022-10-29T16:27	10	1	0.1	1	1	376	0.2	376	377	16.4	88.8
2022-10-29T16:28	10	1	0.1	1	1	376	0.2	376	377	16.5	88.1
2022-10-29T16:29	10	1	0.1	1	1	376	0.2	376	377	16.5	87.6
2022-10-29T16:30	10	1	0.1	0	1	376	0.3	375	377	16.3	87.8
2022-10-29T16:31	10	1	0.1	1	1	376	0.3	375	377	16.2	88.2
2022-10-29T16:32	10	1	0.1	1	1	376	0.3	375	377	16.2	88.8
2022-10-29T16:33	10	1	0.1	0	1	376	0.4	375	376	16.0	89.4
2022-10-29T16:34	10	1	0.1	1	1	375	0.3	374	376	15.9	90.5
2022-10-29T16:35	10	1	0.1	0	1	375	0.2	375	376	15.9	91.6
2022-10-29T16:36	10	0	0.1	0	1	375	0.2	375	376	15.9	92.5
2022-10-29T16:37	10	0	0.1	0	1	375	0.3	374	376	15.9	92.9
2022-10-29T16:38	10	0	0.1	0	0	375	0.3	374	376	15.9	93.1
2022-10-29T16:39	10	0	0.1	0	0	375	0.4	374	376	15.8	93.3
2022-10-29T16:40	10	0	0.1	0	0	375	0.3	374	376	15.8	93.5
2022-10-29T16:41	10	0	0.1	0	1	375	0.2	374	375	15.7	93.4
2022-10-29T16:42	10	0	0.1	0	1	374	0.3	374	375	15.6	93.6
2022-10-29T16:43	10	0	0.1	0	1	374	0.2	374	375	15.6	93.7
2022-10-29T16:44	10	1	0.1	0	1	375	0.2	374	375	15.5	93.8
2022-10-29T16:45	10	1	0.1	0	1	374	0.3	374	375	15.4	94.0
2022-10-29T16:46	10	1	0.1	0	1	375	0.2	374	375	15.4	94.3
2022-10-29T16:47	10	1	0.1	0	1	375	0.2	374	375	15.4	94.4
2022-10-29T16:48	10	1	0.1	0	1	375	0.2	374	375	15.4	94.6
2022-10-29T16:49	10	1	0.1	0	1	375	0.2	375	376	15.4	94.8
2022-10-29T16:50	10	1	0.1	0	1	375	0.2	375	376	15.5	94.9
2022-10-29T16:51	10	1	0.1	0	1	375	0.2	374	375	15.5	95.0
2022-10-29T16:52	10	1	0.1	0	1	375	0.3	374	375	15.5	94.9
2022-10-29T16:53	10	1	0.1	0	1	375	0.2	374	375	15.5	94.9
2022-10-29T16:54	10	1	0.1	0	1	374	0.2	374	375	15.5	94.9
2022-10-29T16:55	10	1	0.1	0	1	374	0.3	373	375	15.4	94.9
2022-10-29T16:56	10	1	0.1	0	1	373	0.3	373	374	15.4	94.8
2022-10-29T16:57	10	1	0.1	1	1	373	0.3	372	374	15.3	94.6
2022-10-29T16:58	10	1	0.1	0	1	373	0.2	372	373	15.4	94.6
2022-10-29T16:59	10	1	0.1	0	1	373	0.2	372	373	15.6	95.0
2022-10-29T17:00	10	1	0.1	0	1	373	0.3	372	374	15.7	94.8
2022-10-29T17:01	10	1	0.1	0	1	373	0.2	373	374	15.8	94.6
2022-10-29T17:02	10	1	0.1	0	1	373	0.1	373	374	15.8	94.3
2022-10-29T17:03	10	1	0.1	0	1	373	0.3	373	374	15.8	93.9
2022-10-29T17:04	10	1	0.1	0	1	374	0.2	373	374	15.7	93.7
2022-10-29T17:05	10	1	0.1	1	1	374	0.3	373	374	15.6	93.6
2022-10-29T17:06	10	1	0.1	1	1	374	0.2	373	374	15.5	93.5
2022-10-29T17:07	10	1	0.1	0	1	374	0.2	374	375	15.3	93.6
2022-10-29T17:08	10	1	0.1	0	1	374	0.3	373	374	15.4	93.9
2022-10-29T17:09	10	1	0.1	0	1	373	0.2	373	374	15.4	93.9
2022-10-29T17:10	10	1	0.1	1	1	373	0.2	373	374	15.3	93.8
2022-10-29T17:11	10	1	0.1	0	1	373	0.3	373	374	15.3	93.9
2022-10-29T17:12	10	1	0.1	0	1	373	0.2	373	374	15.4	93.9
2022-10-29T17:13	10	1	0.2	0	1	374	0.2	373	374	15.4	93.7
2022-10-29T17:14	10	1	0.2	0	1	374	0.9	373	376	15.4	93.6
2022-10-29T17:15	10	1	0.2	0	1	375	0.3	374	376	15.4	93.6
2022-10-29T17:16	10	1	0.1	0	1	375	0.2	375	376	15.4	93.7
2022-10-29T17:17	10	1	0.1	0	1	376	0.3	375	376	15.4	93.7
2022-10-29T17:18	10	1	0.1	0	1	375	0.3	374	376	15.3	93.5
2022-10-29T17:19	10	1	0.2	0	1	376	0.3	376	377	15.4	93.8
2022-10-29T17:20	10	0	0.1	0	1	376	0.2	375	377	15.6	92.5
2022-10-29T17:21	10	0	0.2	0	1	376	0.3	375	376	15.7	90.1
2022-10-29T17:22	10	1	0.2	0	1	375	0.4	374	376	15.7	88.1
2022-10-29T17:23	10	1	0.2	0	1	374	0.3	374	375	15.6	87.9
2022-10-29T17:24	10	1	0.1	0	1	375	0.2	374	375	15.3	88.6
2022-10-29T17:25	10	0	0.1	0	1	375	0.3	374	375	15.2	89.5
2022-10-29T17:26	10	0	0.2	0	1	375	0.2	374	375	15.0	90.9
2022-10-29T17:27	10	0	0.1	0	0	375	0.2	375	375	15.2	89.9
2022-10-29T17:28	10	0	0.1	0	0	375	0.2	374	376	15.2	88.1
2022-10-29T17:29	10	0	0.1	0	0	375	0.2	374	375	15.4	87.3
2022-10-29T17:30	10	0	0.1	0	0	375	0.2	374	375	15.4	86.4
2022-10-29T17:31	10	0	0.1	0	1	375	0.4	374	376	15.1	88.4
2022-10-29T17:32	10	0	0.1	0	1	375	0.2	374	375	15.5	87.6
2022-10-29T17:33	10	0	0.1	0	1	375	0.3	375	376	16.1	84.0
2022-10-29T17:34	10	1	0.1	0	1	376	0.3	375	376	16.2	82.0
2022-10-29T17:35	10	1	0.1	0	1	376	0.2	376	377	15.9	82.9
2022-10-29T17:36	10	1	0.1	1	1	376	0.3	376	377	15.7	84.0
2022-10-29T17:37	10	1	0.1	1	1	375	0.8	374	376	15.7	84.6
2022-10-29T17:38	10	1	0.1	1	1	374	0.2	374	375	15.8	83.9
2022-10-29T17:39	10	1	0.1	1	1	374	0.3	373	375	15.8	83.5
2022-10-29T17:40	10	1	0.1	1	1	373	0.6	372	375	15.5	84.4
2022-10-29T17:41	10	1	0.1	1	1	372	0.3	372	373	15.1	86.2
2022-10-29T17:42	10	1	0.1	1	1	372	0.2	372	373	15.0	87.2
2022-10-29T17:43	10	1	0.1	0	1	372	0.3	371	373	15.0	86.9
2022-10-29T17:44	10	1	0.1	0	1	372	0.2	372	373	15.2	87.1
2022-10-29T17:45	10	1	0.1	0	1	372	0.3	371	372	15.2	86.4
2022-10-29T17:46	10	1	0.1	0	1	371	0.2	371	372	15.2	86.7
2022-10-29T17:47	10	1	0.1	0	1	372	0.3	371	372	15.3	86.5
2022-10-29T17:48	10	1	0.1	0	1	372	0.3	372	373	15.4	85.6
2022-10-29T17:49	10	1	0.1	0	1	372	0.2	372	373	15.4	85.4
2022-10-29T17:50	10	1	0.1	1	1	372	0.2	372	372	15.1	86.0
2022-10-29T17:51	10	1	0.1	0	1	372	0.2	371	373	14.9	87.3
2022-10-29T17:52	10	1	0.1	0	1	372	0.3	371	372	14.9	87.8
2022-10-29T17:53	10	1	0.1	0	1	371	0.3	371	372	15.0	87.7
2022-10-29T17:54	10	0	0.1	0	1	371	0.2	371	372	15.0	87.6
2022-10-29T17:55	10	0	0.1	0	1	371	0.4	370	372	15.1	87.4
2022-10-29T17:56	10	0	0.1	0	1	370	0.5	369	371	14.9	87.1
2022-10-29T17:57	10	0	0.1	0	1	369	0.2	369	370	14.7	88.2
2022-10-29T17:58	10	0	0.1	0	1	369	0.2	369	370	15.1	88.1
2022-10-29T17:59	10	0	0.1	0	1	369	0.2	368	370	15.2	87.0
2022-10-29T18:00	10	1	0.1	0	1	370	0.2	369	370	15.1	87.0
2022-10-29T18:01	10	1	0.1	0	1	369	0.3	369	370	15.2	86.8
2022-10-29T18:02	10	1	0.1	0	1	369	0.2	369	370	15.4	87.8
2022-10-29T18:03	10	1	0.1	0	1	370	0.2	369	370	15.4	88.4
2022-10-29T18:04	10	1	0.1	1	1	370	0.3	369	370	15.3	89.5
2022-10-29T18:05	10	1	0.1	1	1	370	0.3	369	370	15.3	89.7
2022-10-29T18:06	10	1	0.1	1	1	369	0.2	369	370	15.3	89.9
2022-10-29T18:07	10	1	0.1	1	1	369	0.2	369	370	15.2	89.7
2022-10-29T18:08	10	1	0.1	1	1	369	0.2	368	370	15.3	89.9
2022-10-29T18:09	10	1	0.1	1	1	368	0.4	368	369	15.2	89.7
2022-10-29T18:10	10	1	0.1	1	1	368	0.2	368	369	15.0	89.5
2022-10-29T18:11	10	1	0.1	1	1	368	0.2	368	369	14.9	90.4
2022-10-29T18:12	10	1	0.1	1	1	368	0.4	367	368	14.7	90.8
2022-10-29T18:13	10	1	0.1	1	1	368	0.2	367	368	14.7	91.4
2022-10-29T18:14	10	1	0.1	1	1	368	0.2	368	369	14.6	91.6
2022-10-29T18:15	10	1	0.1	1	1	368	0.2	368	368	14.7	91.8
2022-10-29T18:16	10	1	0.1	1	1	368	0.2	368	368	14.8	92.0
2022-10-29T18:17	10	1	0.1	1	1	368	0.2	367	368	15.0	91.7
2022-10-29T18:18	10	1	0.1	1	1	367	0.5	366	368	15.0	91.5
2022-10-29T18:19	10	1	0.1	1	1	367	0.3	366	367	14.9	91.3
2022-10-29T18:20	10	1	0.1	1	1	367	0.2	366	367	14.9	91.4
2022-10-29T18:21	10	1	0.1	1	1	367	0.2	366	367	14.8	91.4
2022-10-29T18:22	10	1	0.1	1	1	366	0.3	366	367	14.6	91.2
2022-10-29T18:23	10	1	0.1	0	1	367	0.2	366	367	14.6	91.6
2022-10-29T18:24	10	1	0.1	0	1	366	0.2	366	367	14.6	91.8
2022-10-29T18:25	10	1	0.1	0	1	366	0.3	366	367	14.6	92.0
2022-10-29T18:26	10	0	0.1	0	1	367	0.3	366	367	14.6	91.7
2022-10-29T18:27	10	0	0.1	0	1	367	0.2	366	367	14.6	91.9
2022-10-29T18:28	10	1	0.1	0	1	366	0.2	366	367	14.5	92.1
2022-10-29T18:29	10	1	0.1	0	1	366	0.3	366	367	14.5	92.4
2022-10-29T18:30	10	1	0.0	0	1	366	0.2	366	367	14.5	92.8
2022-10-29T18:31	10	1	0.1	0	1	366	0.2	366	367	14.4	92.8
2022-10-29T18:32	10	1	0.1	0	1	366	0.2	366	367	14.3	92.7
2022-10-29T18:33	10	0	0.1	0	1	366	0.2	366	367	14.3	93.2
2022-10-29T18:34	10	0	0.1	0	1	366	0.3	366	367	14.4	93.9
2022-10-29T18:35	10	0	0.1	0	1	366	0.3	365	367	14.5	94.3
2022-10-29T18:36	10	0	0.1	0	1	366	0.3	366	367	14.5	94.6
2022-10-29T18:37	10	0	0.1	0	1	366	0.2	366	367	14.6	94.8
2022-10-29T18:38	10	0	0.1	0	1	366	0.2	365	366	14.5	94.8
2022-10-29T18:39	10	0	0.1	0	1	366	0.2	365	366	14.5	94.7
2022-10-29T18:40	10	0	0.1	0	1	365	0.2	365	366	14.4	94.8
2022-10-29T18:41	10	0	0.1	0	1	366	0.2	365	366	14.4	95.0
2022-10-29T18:42	10	0	0.1	0	1	365	0.3	365	366	14.4	95.2
2022-10-29T18:43	10	0	0.1	0	1	365	0.2	365	366	14.4	95.2
2022-10-29T18:44	10	0	0.1	0	1	365	0.3	365	366	14.4	95.4
2022-10-29T18:45	10	0	0.1	0	1	365	0.2	365	366	14.5	95.6
2022-10-29T18:46	10	0	0.1	0	1	365	0.3	365	366	14.5	95.4
2022-10-29T18:47	10	0	0.2	0	1	365	0.3	364	366	14.4	95.3
2022-10-29T18:48	10	1	0.1	0	1	365	0.3	364	366	14.4	95.5
2022-10-29T18:49	10	1	0.1	0	1	364	0.2	364	365	14.4	95.5
2022-10-29T18:50	10	1	0.1	0	1	364	0.2	364	365	14.3	95.6
2022-10-29T18:51	10	0	0.1	0	1	364	0.2	364	365	14.4	95.7
2022-10-29T18:52	10	0	0.2	0	1	364	0.2	364	365	14.4	95.8
2022-10-29T18:53	10	1	0.2	0	1	364	0.3	364	365	14.4	95.7
2022-10-29T18:54	10	1	0.1	0	1	364	0.2	363	364	14.2	95.6
2022-10-29T18:55	10	0	0.1	0	1	364	0.3	363	365	14.1	95.7
2022-10-29T18:56	10	0	0.2	0	1	365	0.3	364	366	14.2	96.0
2022-10-29T18:57	10	0	0.1	0	1	365	0.3	364	365	14.2	96.0
2022-10-29T18:58	10	0	0.2	0	1	365	0.4	364	366	14.1	96.0
2022-10-29T18:59	10	0	0.2	0	1	364	0.2	364	365	14.0	96.0
2022-10-29T19:00	10	0	0.2	0	0	364	0.3	364	365	13.8	96.0
2022-10-29T19:01	10	0	0.2	0	0	364	0.3	363	365	13.7	96.3
2022-10-29T19:02	10	0	0.2	0	0	364	0.3	363	365	13.6	96.5
2022-10-29T19:03	10	0	0.1	-1	0	365	0.3	364	365	13.7	96.8
2022-10-29T19:04	10	0	0.1	-1	0	365	0.4	364	366	13.7	96.9
2022-10-29T19:05	10	0	0.1	-1	0	365	0.3	364	366	13.7	97.0
2022-10-29T19:06	10	0	0.2	-1	0	365	0.2	364	366	13.6	97.0
2022-10-29T19:07	10	0	0.2	-1	0	365	0.2	365	366	13.5	97.1
2022-10-29T19:08	10	0	0.2	-1	0	365	0.2	365	366	13.5	97.1
2022-10-29T19:09	10	0	0.1	0	0	364	0.2	364	365	13.5	97.2
2022-10-29T19:10	10	0	0.2	0	1	364	0.3	363	365	13.5	97.3
2022-10-29T19:11	10	0	0.1	0	0	363	0.2	363	364	13.6	97.4
2022-10-29T19:12	10	0	0.1	0	0	363	0.3	363	364	13.5	97.4
2022-10-29T19:13	10	0	0.1	0	0	363	0.2	362	363	13.4	97.3
2022-10-29T19:14	10	0	0.1	0	0	363	0.2	363	363	13.4	97.4
2022-10-29T19:15	10	0	0.1	0	0	363	0.2	362	363	13.4	97.4
2022-10-29T19:16	10	0	0.1	0	0	363	0.2	362	363	13.3	97.3
2022-10-29T19:17	10	0	0.1	0	0	363	0.2	362	363	13.3	97.4
2022-10-29T19:18	10	0	0.1	0	0	363	0.3	362	363	13.4	97.5
2022-10-29T19:19	10	0	0.1	0	0	363	0.2	363	364	13.4	97.6
2022-10-29T19:20	10	0	0.1	0	0	363	0.2	362	363	13.5	97.6
2022-10-29T19:21	10	0	0.1	0	0	363	0.2	362	363	13.6	97.7
2022-10-29T19:22	10	0	0.1	0	0	363	0.2	362	363	13.6	97.7
2022-10-29T19:23	10	0	0.1	0	1	362	0.2	362	363	13.6	97.6
2022-10-29T19:24	10	0	0.1	0	1	362	0.2	362	362	13.7	97.6
2022-10-29T19:25	10	0	0.1	0	0	362	0.2	361	362	13.6	97.3
2022-10-29T19:26	10	0	0.1	0	1	362	0.2	361	362	13.6	97.3
2022-10-29T19:27	10	0	0.1	0	1	362	0.4	361	363	13.5	97.1
2022-10-29T19:28	10	0	0.1	0	0	362	0.3	361	362	13.4	97.0
2022-10-29T19:29	10	0	0.1	0	0	362	0.3	361	363	13.4	97.2
2022-10-29T19:30	10	0	0.1	0	0	362	0.3	362	363	13.4	97.2
2022-10-29T19:31	10	0	0.1	0	0	363	0.3	362	363	13.5	97.4
2022-10-29T19:32	10	0	0.1	0	0	363	0.2	362	363	13.6	97.4
2022-10-29T19:33	10	0	0.1	0	0	363	0.2	362	363	13.6	97.4
2022-10-29T19:34	10	0	0.1	0	0	363	0.2	362	363	13.6	97.3
2022-10-29T19:35	10	0	0.1	0	0	362	0.3	362	363	13.5	97.0
2022-10-29T19:36	10	0	0.1	0	0	362	0.2	362	363	13.5	97.0
2022-10-29T19:37	10	0	0.1	0	0	363	0.3	362	363	13.4	96.8
2022-10-29T19:38	10	0	0.1	0	0	362	0.2	362	363	13.4	96.9
2022-10-29T19:39	10	0	0.1	0	0	362	0.2	361	362	13.3	96.8
2022-10-29T19:40	10	0	0.1	0	0	362	0.2	361	362	13.1	96.8
2022-10-29T19:41	10	0	0.1	0	0	361	0.3	361	362	13.1	96.9
2022-10-29T19:42	10	0	0.1	0	0	361	0.2	361	362	13.2	97.1
2022-10-29T19:43	10	0	0.1	0	0	362	0.4	361	362	13.4	97.2
2022-10-29T19:44	10	0	0.1	0	0	361	0.4	361	362	13.4	97.1
2022-10-29T19:45	10	0	0.1	0	0	361	0.6	360	362	13.1	96.7
2022-10-29T19:46	10	0	0.1	0	0	361	0.3	360	361	13.2	96.8
2022-10-29T19:47	10	0	0.1	0	0	360	0.5	360	362	13.3	96.9
2022-10-29T19:48	10	0	0.1	0	0	361	0.4	360	362	13.3	96.6
2022-10-29T19:49	10	0	0.1	0	0	362	0.5	361	363	13.3	96.2
2022-10-29T19:50	10	0	0.1	0	0	362	0.3	362	363	13.1	95.7
2022-10-29T19:51	10	0	0.1	0	0	362	0.4	361	363	13.1	95.5
2022-10-29T19:52	10	0	0.1	0	0	362	0.4	362	363	13.0	95.4
2022-10-29T19:53	10	0	0.1	0	0	362	0.3	362	363	12.9	95.4
2022-10-29T19:54	10	0	0.1	0	0	363	0.2	362	363	12.8	95.6
2022-10-29T19:55	10	0	0.1	0	0	363	0.3	362	363	12.9	95.9
2022-10-29T19:56	10	0	0.1	0	0	363	0.3	362	363	12.8	96.2
2022-10-29T19:57	10	0	0.1	-1	0	363	0.2	362	363	12.8	96.4
2022-10-29T19:58	10	0	0.1	-1	0	362	0.2	362	363	12.8	96.7
2022-10-29T19:59	10	0	0.1	0	0	362	0.3	361	362	12.7	96.8
2022-10-29T20:00	10	0	0.1	0	0	361	0.2	361	362	12.6	97.0
2022-10-29T20:01	10	0	0.1	0	0	361	0.2	361	361	12.6	97.2
2022-10-29T20:02	10	0	0.1	0	0	360	0.3	360	361	12.6	97.3
2022-10-29T20:03	10	0	0.1	0	0	360	0.3	359	360	12.6	97.5
2022-10-29T20:04	10	0	0.1	0	0	360	0.3	360	361	12.7	97.6
2022-10-29T20:05	10	0	0.1	0	0	361	0.2	360	361	12.7	97.7
2022-10-29T20:06	10	0	0.1	0	0	361	0.2	360	361	12.8	97.8
2022-10-29T20:07	10	0	0.1	0	0	361	0.4	360	362	12.8	97.8
2022-10-29T20:08	10	0	0.1	0	0	362	0.5	361	363	12.9	97.8
2022-10-29T20:09	10	0	0.1	-1	0	362	0.3	362	363	13.0	97.7
2022-10-29T20:10	10	0	0.1	0	0	362	0.3	361	363	13.1	97.5
2022-10-29T20:11	10	0	0.1	-1	0	361	0.2	361	362	13.0	97.2
2022-10-29T20:12	10	0	0.1	0	0	361	0.3	360	362	13.0	96.8
2022-10-29T20:13	10	0	0.1	0	0	362	0.3	361	362	13.0	96.6
2022-10-29T20:14	10	0	0.1	0	0	361	0.3	361	362	13.2	96.5
2022-10-29T20:15	10	0	0.1	-1	0	362	0.2	361	362	13.3	96.1
2022-10-29T20:16	10	0	0.1	-1	0	362	0.2	361	362	13.3	95.7
2022-10-29T20:17	10	0	0.1	-1	0	361	0.4	360	362	13.3	95.3
2022-10-29T20:18	10	0	0.1	-1	0	360	0.4	360	361	13.2	94.8
2022-10-29T20:19	10	0	0.1	0	0	360	0.3	360	361	13.2	94.6
2022-10-29T20:20	10	0	0.1	0	0	360	0.3	360	361	13.3	94.5
2022-10-29T20:21	10	0	0.1	-1	0	360	0.3	360	361	13.1	94.2
2022-10-29T20:22	10	0	0.1	0	0	360	0.3	360	361	13.3	94.1
2022-10-29T20:23	10	0	0.1	0	0	360	0.3	360	361	13.3	93.7
2022-10-29T20:24	10	0	0.1	0	0	361	0.3	360	361	13.3	93.3
2022-10-29T20:25	10	0	0.1	0	0	361	0.5	360	362	13.4	93.0
2022-10-29T20:26	10	0	0.1	0	0	362	0.3	361	363	13.4	92.6
2022-10-29T20:27	10	0	0.1	0	0	363	0.3	363	364	13.4	92.3
2022-10-29T20:28	10	0	0.1	0	0	363	0.2	363	364	13.4	92.0
2022-10-29T20:29	10	0	0.1	0	0	363	0.3	363	364	13.4	91.7
2022-10-29T20:30	10	0	0.1	0	1	363	0.2	363	364	13.4	91.2
2022-10-29T20:31	10	0	0.1	0	1	363	0.3	362	364	13.3	90.9
2022-10-29T20:32	10	0	0.1	0	0	363	0.2	363	364	13.3	90.8
2022-10-29T20:33	10	0	0.1	0	0	363	0.2	362	363	13.2	90.9
2022-10-29T20:34	10	0	0.1	0	0	362	0.2	362	363	13.2	91.1
2022-10-29T20:35	10	0	0.1	0	0	362	0.2	361	362	13.2	91.1
2022-10-29T20:36	10	0	0.1	0	0	361	0.4	360	362	13.0	91.1
2022-10-29T20:37	10	0	0.1	0	1	361	0.2	361	362	12.8	91.7
2022-10-29T20:38	10	0	0.1	0	0	361	0.2	360	361	12.7	92.4
2022-10-29T20:39	10	0	0.1	0	0	361	0.3	360	362	12.6	93.2
2022-10-29T20:40	10	0	0.1	0	0	361	0.2	360	361	12.7	93.9
2022-10-29T20:41	10	0	0.1	0	0	361	0.2	361	362	12.7	94.2
2022-10-29T20:42	10	0	0.1	0	0	361	0.3	361	362	12.8	94.2
2022-10-29T20:43	10	0	0.1	0	0	361	0.3	360	361	12.6	94.1
2022-10-29T20:44	10	0	0.1	0	0	361	0.3	360	361	12.6	94.4
2022-10-29T20:45	10	0	0.1	0	0	360	0.2	360	361	12.6	94.6
2022-10-29T20:46	10	0	0.1	0	0	360	0.2	360	361	12.5	94.7
2022-10-29T20:47	10	0	0.1	0	0	360	0.3	359	361	12.5	95.0
2022-10-29T20:48	10	0	0.1	0	0	359	0.2	359	360	12.5	95.3
2022-10-29T20:49	10	0	0.1	0	0	359	0.2	359	360	12.4	95.6
2022-10-29T20:50	10	0	0.1	0	0	359	0.3	358	359	12.4	95.9
2022-10-29T20:51	10	0	0.1	0	0	359	0.2	358	359	12.5	96.1
2022-10-29T20:52	10	0	0.1	0	0	359	0.2	358	359	12.5	96.2
2022-10-29T20:53	10	0	0.1	0	0	359	0.3	359	360	12.6	96.1
2022-10-29T20:54	10	0	0.1	0	0	360	0.2	359	360	12.6	95.9
2022-10-29T20:55	10	0	0.1	0	0	360	0.4	359	360	12.8	95.4
2022-10-29T20:56	10	0	0.1	0	0	359	0.3	359	360	12.9	94.7
2022-10-29T20:57	10	0	0.1	0	0	359	0.2	359	360	12.9	94.2
2022-10-29T20:58	10	0	0.1	0	0	359	0.3	358	360	12.8	93.9
2022-10-29T20:59	10	0	0.1	0	0	359	0.3	359	360	12.8	93.7
2022-10-29T21:00	10	0	0.1	0	0	359	0.3	359	360	12.8	93.7
2022-10-29T21:01	10	0	0.1	0	0	360	0.3	359	360	12.8	93.5
2022-10-29T21:02	10	0	0.0	0	0	360	0.3	359	361	12.7	93.3
2022-10-29T21:03	10	0	0.1	-1	0	361	0.3	360	361	12.6	93.3
2022-10-29T21:04	10	-1	0.1	-1	0	361	0.3	360	361	12.5	93.4
2022-10-29T21:05	10	-1	0.1	-1	-1	362	0.3	361	362	12.4	93.7
2022-10-29T21:06	10	-1	0.1	-1	-1	361	0.3	361	362	12.5	93.6
2022-10-29T21:07	10	-1	0.1	-1	-1	360	0.6	359	361	12.4	93.1
2022-10-29T21:08	10	-1	0.1	-1	-1	360	0.4	359	361	12.5	92.7
2022-10-29T21:09	10	-1	0.1	-1	-1	360	0.5	359	362	12.7	91.7
2022-10-29T21:10	10	-1	0.1	-1	-1	360	0.4	359	361	12.8	90.2
2022-10-29T21:11	10	-1	0.1	-1	-1	361	0.3	360	361	12.8	90.5
2022-10-29T21:12	10	-1	0.1	-1	-1	360	0.3	359	361	12.7	90.2
2022-10-29T21:13	10	-1	0.1	-1	-1	360	0.2	359	360	12.6	90.2
2022-10-29T21:14	10	-1	0.1	-1	-1	359	0.1	359	360	12.3	91.4
2022-10-29T21:15	10	-1	0.1	-1	-1	359	0.2	358	359	12.2	92.6
2022-10-29T21:16	10	-1	0.1	-1	-1	358	0.2	358	359	12.2	93.5
2022-10-29T21:17	10	-1	0.1	-1	0	358	0.3	358	359	12.3	94.1
2022-10-29T21:18	10	-1	0.1	-1	0	358	0.2	358	359	12.3	94.4
2022-10-29T21:19	10	0	0.1	-1	0	358	0.2	358	359	12.6	94.4
2022-10-29T21:20	10	0	0.1	-1	0	359	0.2	358	359	12.8	93.6
2022-10-29T21:21	10	0	0.1	-1	0	359	0.2	358	360	12.9	92.5
2022-10-29T21:22	10	0	0.1	-1	0					12.9	91.3
2022-10-29T21:23	10	0	0.1	-1	0	358	0.2	358	359	12.9	90.6
2022-10-29T21:24	10	0	0.1	-1	0	358	0.3	358	359	12.9	90.1
2022-10-29T21:25	10	0	0.1	-1	0					12.9	89.6
2022-10-29T21:26	10	0	0.1	-1	0					12.8	89.2
2022-10-29T21:27	10	0	0.1	-1	0					12.6	89.5
2022-10-29T21:28	10	0	0.1	-1	0					12.6	89.7
2022-10-29T21:29	10	0	0.1	-1	0					12.6	89.3
2022-10-29T21:30	10	0	0.1	0	0					12.7	89.3
2022-10-29T21:31	10	0	0.1	0	0					12.7	89.0
2022-10-29T21:32	10	0	0.1	0	0					12.9	88.8
2022-10-29T21:33	10	0	0.1	0	0					12.9	88.3
2022-10-29T21:34	10	0	0.1	0	0	357	0.3	356	358	12.8	88.2
2022-10-29T21:35	10	0	0.1	0	0	357	0.2	357	357	12.8	88.4
2022-10-29T21:36	10	0	0.1	0	1					12.9	88.6
2022-10-29T21:37	10	0	0.1	0	0	358	0.2	358	359	13.0	88.1
2022-10-29T21:38	10	0	0.1	0	0	358	0.3	357	359	13.1	87.8
2022-10-29T21:39	10	0	0.1	0	0	359	0.3	358	359	13.1	87.6
2022-10-29T21:40	10	0	0.2	0	1	359	0.4	358	360	13.2	86.9
2022-10-29T21:41	10	0	0.1	0	0	360	0.2	359	361	13.2	86.8
2022-10-29T21:42	10	0	0.1	0	0	360	0.3	359	361	13.2	86.6
2022-10-29T21:43	10	0	0.1	0	1	360	0.3	359	361	13.0	87.0
2022-10-29T21:44	10	0	0.1	0	1	360	0.3	360	361	13.1	87.3
2022-10-29T21:45	10	0	0.1	0	1	360	0.3	360	361	13.1	87.1
2022-10-29T21:46	10	0	0.2	0	1	360	0.3	359	361	13.2	86.8
2022-10-29T21:47	10	0	0.1	0	1	360	0.3	359	360	13.1	86.9
2022-10-29T21:48	10	0	0.1	0	1	360	0.3	360	361	13.0	87.6
2022-10-29T21:49	10	0	0.1	0	1	361	0.3	360	361	12.9	88.2
2022-10-29T21:50	10	0	0.2	0	1	360	0.3	360	361	13.0	88.0
2022-10-29T21:51	10	0	0.1	0	1	360	0.3	359	361	13.1	87.3
2022-10-29T21:52	10	0	0.2	0	1	359	0.4	359	360	12.9	87.9
2022-10-29T21:53	10	0	0.2	0	1	359	0.3	358	360	12.9	88.1
2022-10-29T21:54	10	0	0.2	0	0	359	0.5	358	360	12.7	88.5
2022-10-29T21:55	10	0	0.1	0	1	358	0.5	357	359	12.7	89.0
2022-10-29T21:56	10	0	0.1	0	0					12.5	89.4
2022-10-29T21:57	10	0	0.2	0	0					12.3	90.0
2022-10-29T21:58	10	0	0.1	0	0					12.1	91.7
2022-10-29T21:59	10	0	0.2	0	1					11.9	92.8
2022-10-29T22:00	10	0	0.1	0	0	356	0.4	356	357	12.0	93.5
2022-10-29T22:01	10	0	0.2	-1	0	356	0.2	355	356	12.0	93.3
2022-10-29T22:02	10	0	0.1	0	0	356	0.2	355	356	12.0	93.3
2022-10-29T22:03	10	0	0.1	0	0	356	0.2	355	356	12.1	93.2
2022-10-29T22:04	10	0	0.1	0	0	356	0.2	355	357	12.1	93.2
2022-10-29T22:05	10	0	0.1	-1	0	356	0.3	355	356	12.0	93.5
2022-10-29T22:06	10	0	0.1	0	0	356	0.3	355	356	12.1	93.9
2022-10-29T22:07	10	0	0.1	0	0	356	0.2	356	357	12.1	94.0
2022-10-29T22:08	10	0	0.1	0	0	356	0.2	356	357	12.1	94.4
2022-10-29T22:09	10	0	0.1	0	0	357	0.3	356	357	12.1	94.6
2022-10-29T22:10	10	0	0.1	0	0	357	0.2	356	357	12.2	94.3
2022-10-29T22:11	10	0	0.1	0	0	357	0.2	356	357	12.3	93.6
2022-10-29T22:12	10	0	0.1	0	0	357	0.2	356	357	12.3	93.1
2022-10-29T22:13	10	0	0.1	0	0	357	0.2	356	357	12.3	92.5
2022-10-29T22:14	10	0	0.1	0	1	356	0.3	355	357	12.3	92.3
2022-10-29T22:15	10	0	0.1	0	1	356	0.3	355	356	12.3	92.3
2022-10-29T22:16	10	0	0.1	0	1	355	0.2	354	356	12.3	92.4
2022-10-29T22:17	10	0	0.1	0	1	355	0.4	354	356	12.2	92.5
2022-10-29T22:18	10	0	0.1	0	0	354	0.2	354	355	12.1	92.6
2022-10-29T22:19	10	0	0.1	0	0	354	0.2	354	355	12.0	92.8
2022-10-29T22:20	10	0	0.1	0	0	354	0.2	354	355	12.0	93.0
2022-10-29T22:21	10	0	0.1	0	0	354	0.2	354	355	12.1	93.4
2022-10-29T22:22	10	0	0.1	0	0	354	0.2	354	355	12.0	93.6
2022-10-29T22:23	10	0	0.1	0	0	355	0.2	354	355	12.1	93.6
2022-10-29T22:24	10	0	0.0	0	0	355	0.2	354	355	11.9	93.5
2022-10-29T22:25	10	0	0.1	0	0	355	0.2	355	356	11.8	94.0
2022-10-29T22:26	10	0	0.0	0	0	355	0.2	355	356	11.7	94.5
2022-10-29T22:27	10	0	0.1	0	0	355	0.2	355	356	11.8	95.0
2022-10-29T22:28	10	0	0.1	0	0	355	0.2	354	355	12.0	94.6
2022-10-29T22:29	10	0	0.1	0	0	354	0.2	354	355	12.1	94.0
2022-10-29T22:30	10	0	0.1	0	0	354	0.2	354	355	12.0	93.7
2022-10-29T22:31	10	0	0.1	0	0	354	0.2	354	354	11.8	93.6
2022-10-29T22:32	10	0	0.1	0	0	354	0.3	354	355	11.7	93.9
2022-10-29T22:33	10	0	0.1	0	0	355	0.2	354	355	11.9	94.3
2022-10-29T22:34	10	0	0.1	0	0	355	0.3	354	355	12.1	94.0
2022-10-29T22:35	10	0	0.1	0	0	355	0.3	354	355	12.0	93.6
2022-10-29T22:36	10	0	0.1	0	0	354	0.2	353	354	11.8	93.4
2022-10-29T22:37	10	0	0.0	0	0	354	0.2	353	354	11.6	93.7
2022-10-29T22:38	10	0	0.1	0	0	354	0.4	353	354	11.6	94.2
2022-10-29T22:39	10	0	0.1	0	0	353	0.3	352	354	11.5	94.3
2022-10-29T22:40	10	0	0.1	0	0	353	0.6	352	354	11.4	94.7
2022-10-29T22:41	10	0	0.1	0	0	354	0.4	353	354	11.6	95.2
2022-10-29T22:42	10	0	0.1	0	0	354	0.2	353	354	11.6	95.0
2022-10-29T22:43	10	0	0.1	0	0	354	0.2	353	354	11.7	94.4
2022-10-29T22:44	10	0	0.1	-1	0	354	0.2	354	354	11.7	93.4
2022-10-29T22:45	10	-1	0.1	-1	0	354	0.4	353	354	11.5	92.7
2022-10-29T22:46	10	-1	0.1	-1	0	354	0.7	353	355	11.5	93.1
2022-10-29T22:47	10	-1	0.1	-1	-1	354	0.3	354	355	11.6	93.5
2022-10-29T22:48	10	-1	0.1	-1	-1	354	0.2	354	355	11.5	93.3
2022-10-29T22:49	10	-1	0.1	-1	-1	354	0.3	354	355	11.7	92.8
2022-10-29T22:50	10	-1	0.0	-1	-1	354	0.3	353	354	11.7	92.2
2022-10-29T22:51	10	-1	0.1	-1	0	354	0.2	353	354	11.7	91.8
2022-10-29T22:52	10	-1	0.1	-1	-1	353	0.2	352	353	11.8	91.6
2022-10-29T22:53	10	-1	0.1	-1	-1	353	0.3	352	353	11.6	91.4
2022-10-29T22:54	10	-1	0.1	-1	-1	352	0.2	352	353	11.6	91.8
2022-10-29T22:55	10	-1	0.0	-1	-1	352	0.3	352	353	11.8	92.1
2022-10-29T22:56	10	-1	0.1	-1	-1	352	0.2	352	353	12.0	91.5
2022-10-29T22:57	10	-1	0.1	-1	0	352	0.3	351	353	12.0	90.8
2022-10-29T22:58	10	-1	0.1	-1	0	352	0.2	351	352	11.9	90.9
2022-10-29T22:59	10	-1	0.1	-1	0	352	0.3	351	353	11.9	90.9
2022-10-29T23:00	10	-1	0.1	-1	-1	353	0.3	352	353	11.9	90.8
2022-10-29T23:01	10	-1	0.0	-1	-1	353	0.2	352	353	11.9	91.1
2022-10-29T23:02	10	-1	0.1	-1	-1	353	0.2	352	353	11.9	90.9
2022-10-29T23:03	10	-1	0.1	-1	-1	353	0.3	352	354	11.8	91.2
2022-10-29T23:04	10	-1	0.1	-1	0	353	0.3	352	353	11.7	91.5
2022-10-29T23:05	10	-1	0.1	-1	0	353	0.2	352	353	11.6	91.7
2022-10-29T23:06	10	-1	0.1	-1	0	352	0.2	352	353	11.5	92.1
2022-10-29T23:07	10	0	0.1	-1	0	352	0.3	352	353	11.5	92.5
2022-10-29T23:08	10	0	0.1	-1	0	352	0.2	352	353	11.5	92.7
2022-10-29T23:09	10	0	0.1	0	0	352	0.3	352	353	11.6	92.8
2022-10-29T23:10	10	0	0.1	0	0	353	0.3	352	353	11.6	92.8
2022-10-29T23:11	10	0	0.1	0	0	353	0.2	353	354	11.6	92.9
2022-10-29T23:12	10	0	0.1	0	0	353	0.2	353	354	11.7	92.7
2022-10-29T23:13	10	0	0.1	0	0	353	0.3	352	354	11.7	92.4
2022-10-29T23:14	10	0	0.1	0	0	353	0.3	352	353	11.4	92.3
2022-10-29T23:15	10	0	0.1	0	0	352	0.2	352	353	11.3	93.3
2022-10-29T23:16	10	0	0.1	0	0	352	0.2	352	353	11.2	93.8
2022-10-29T23:17	10	0	0.1	0	0	352	0.2	351	352	11.1	94.2
2022-10-29T23:18	10	0	0.1	0	0	352	0.2	351	352	11.1	94.5
2022-10-29T23:19	10	0	0.1	0	0	352	0.2	351	352	11.1	94.9
2022-10-29T23:20	10	0	0.1	0	0	351	0.3	351	352	11.1	95.3
2022-10-29T23:21	10	0	0.1	0	0	352	0.2	351	352	11.1	95.3
2022-10-29T23:22	10	0	0.1	0	0	352	0.2	351	352	11.2	95.2
2022-10-29T23:23	10	0	0.1	0	0	351	0.2	351	352	11.1	94.7
2022-10-29T23:24	10	0	0.1	0	0	352	0.3	351	352	11.1	94.5
2022-10-29T23:25	10	0	0.1	0	0	352	0.2	351	352	11.1	94.3
2022-10-29T23:26	10	0	0.1	-1	0	352	0.6	351	353	10.8	94.2
2022-10-29T23:27	10	-1	0.1	-1	-1	353	0.3	352	353	10.9	94.7
2022-10-29T23:28	10	-1	0.1	-1	-1	352	0.3	352	353	10.9	94.7
2022-10-29T23:29	10	-1	0.1	-1	-1	352	0.2	352	353	10.9	94.7
2022-10-29T23:30	10	-1	0.1	-1	-1	352	0.2	352	353	11.1	94.7
2022-10-29T23:31	10	-1	0.1	-1	-1	352	0.3	351	353	11.0	94.4
2022-10-29T23:32	10	-1	0.1	-1	-1	352	0.2	352	353	11.0	94.2
2022-10-29T23:33	10	-1	0.1	-1	-1	352	0.3	351	353	11.0	94.1
2022-10-29T23:34	10	-1	0.1	-1	-1	352	0.3	351	352	10.8	94.2
2022-10-29T23:35	10	-1	0.1	-1	-1	352	0.2	351	352	10.8	94.4
2022-10-29T23:36	10	-1	0.1	-1	-1	351	0.3	351	352	10.9	94.6
2022-10-29T23:37	10	-1	0.1	-1	-1	352	0.4	351	352	11.0	94.7
2022-10-29T23:38	10	-1	0.1	-1	-1	351	0.2	351	352	11.2	94.5
2022-10-29T23:39	10	-1	0.1	-1	-1	351	0.2	350	351	11.0	93.9
2022-10-29T23:40	10	-1	0.1	-1	0	351	0.4	350	351	10.9	93.9
2022-10-29T23:41	10	-1	0.1	-1	0	350	0.2	350	351	10.8	93.9
2022-10-29T23:42	10	0	0.1	-1	0	350	0.3	349	351	10.9	94.2
2022-10-29T23:43	10	0	0.1	-1	0	349	0.4	349	350	10.7	94.2
2022-10-29T23:44	10	-1	0.1	-1	0	349	0.3	349	350	10.7	94.6
2022-10-29T23:45	10	-1	0.1	-1	0	349	0.2	348	349	10.5	94.7
2022-10-29T23:46	10	-1	0.2	-1	-1	349	0.4	349	350	10.5	95.0
2022-10-29T23:47	10	-1	0.1	-2	-1	350	0.5	350	352	10.7	95.2
2022-10-29T23:48	10	-2	0.1	-2	-1	351	0.4	350	352	10.7	95.1
2022-10-29T23:49	10	-2	0.1	-2	-1	352	0.2	351	352	10.7	95.0
2022-10-29T23:50	10	-2	0.1	-2	-1	352	0.3	351	352	10.8	94.8
2022-10-29T23:51	10	-1	0.1	-2	-1	352	0.4	351	353	10.8	94.7
2022-10-29T23:52	10	-1	0.1	-2	-1	352	0.3	352	353	10.9	94.5
2022-10-29T23:53	10	-1	0.1	-2	-1	352	0.2	351	352	11.0	94.3
2022-10-29T23:54	10	-1	0.1	-1	-1	352	0.3	351	352	10.8	94.3
2022-10-29T23:55	10	-1	0.1	-1	-1	351	0.3	350	352	10.7	94.5
2022-10-29T23:56	10	-1	0.1	-2	-1	351	0.2	351	352	10.6	94.8
2022-10-29T23:57	10	-2	0.1	-2	-1	351	0.4	350	352	10.7	95.1
2022-10-29T23:58	10	-2	0.1	-2	-1	352	0.3	351	353	10.7	95.2
2022-10-29T23:59	10	-2	0.1	-2	-2	353	0.6	352	354	10.7	95.2
2022-10-30T00:00	10	-2	0.1	-2	-2	354	0.3	354	355	10.8	95.2
2022-10-30T00:01	10	-2	0.1	-2	-2	354	0.2	354	355	10.7	95.1
2022-10-30T00:02	10	-2	0.1	-2	-2	353	0.4	353	354	10.5	95.0
2022-10-30T00:03	10	-2	0.1	-2	-2	353	0.2	352	353	10.3	95.0
2022-10-30T00:04	10	-2	0.1	-2	-1	352	0.4	351	353	10.4	95.3
2022-10-30T00:05	10	-1	0.1	-2	-1	352	0.2	352	353	10.5	95.5
2022-10-30T00:06	10	-1	0.1	-1	-1	352	0.2	351	352	10.7	95.6
2022-10-30T00:07	10	-1	0.1	-1	-1	352	0.3	352	353	10.7	95.5
2022-10-30T00:08	10	-1	0.1	-1	-1	352	0.3	351	353	10.8	95.3
2022-10-30T00:09	10	-1	0.1	-1	-1	352	0.2	351	352	10.8	95.1
2022-10-30T00:10	10	-1	0.1	-1	-1	352	0.4	351	353	10.7	94.9
2022-10-30T00:11	10	-1	0.1	-1	-1	351	0.4	350	352	10.9	94.8
2022-10-30T00:12	10	-1	0.1	-1	-1	351	0.3	350	351	10.9	94.6
2022-10-30T00:13	10	-1	0.1	-1	-1	351	0.3	350	352	10.8	94.4
2022-10-30T00:14	10	-1	0.1	-1	0	351	0.2	350	351	10.8	94.3
2022-10-30T00:15	10	-1	0.1	-1	0	351	0.3	350	352	10.6	94.2
2022-10-30T00:16	10	0	0.1	-1	0	351	0.2	351	352	10.7	94.5
2022-10-30T00:17	10	0	0.1	-1	0	351	0.2	351	352	10.7	94.5
2022-10-30T00:18	10	0	0.1	-1	0	351	0.2	350	351	10.7	94.6
2022-10-30T00:19	10	0	0.1	0	0	350	0.2	350	351	10.6	94.5
2022-10-30T00:20	10	0	0.1	0	0	350	0.3	349	351	10.6	94.6
2022-10-30T00:21	10	0	0.1	0	0	350	0.3	349	351	10.6	94.6
2022-10-30T00:22	10	0	0.1	0	0	349	0.2	349	350	10.5	94.7
2022-10-30T00:23	10	0	0.1	0	0	349	0.3	348	350	10.6	94.9
2022-10-30T00:24	10	0	0.1	0	0	349	0.3	348	349	10.6	94.9
2022-10-30T00:25	10	0	0.1	0	0	349	0.5	348	350	10.7	94.9
2022-10-30T00:26	10	0	0.1	0	0	349	0.3	349	350	10.6	94.7
2022-10-30T00:27	10	0	0.1	-1	0	349	0.2	348	349	10.6	94.5
2022-10-30T00:28	10	0	0.1	-1	0	349	0.2	348	350	10.5	94.4
2022-10-30T00:29	10	0	0.1	-1	0	350	0.3	349	350	10.3	94.5
2022-10-30T00:30	10	-1	0.1	-1	0	350	0.3	349	350	10.1	94.5
2022-10-30T00:31	10	-1	0.1	-1	-1	351	0.3	350	351	10.2	95.1
2022-10-30T00:32	10	-1	0.1	-1	-1	351	0.2	350	351	10.3	95.4
2022-10-30T00:33	10	-1	0.1	-1	-1	351	0.2	350	351	10.1	95.3
2022-10-30T00:34	10	-1	0.1	-2	-1	351	0.3	350	351	10.3	95.7
2022-10-30T00:35	10	-1	0.1	-2	-1	351	0.3	350	352	10.4	95.8
2022-10-30T00:36	10	-1	0.1	-2	-1	352	0.3	351	352	10.4	95.8
2022-10-30T00:37	10	-2	0.1	-2	-1	352	0.4	351	352	10.5	95.6
2022-10-30T00:38	10	-2	0.1	-2	-1	352	0.3	351	353	10.3	95.2
2022-10-30T00:39	10	-2	0.1	-2	-2	352	0.3	351	353	10.1	95.2
2022-10-30T00:40	10	-2	0.1	-2	-2	352	0.3	352	353	10.1	95.5
2022-10-30T00:41	10	-2	0.1	-2	-2	353	0.2	352	353	10.1	95.7
2022-10-30T00:42	10	-2	0.1	-2	-2	353	0.3	352	354	10.2	95.9
2022-10-30T00:43	10	-2	0.1	-2	-2	353	0.2	353	354	10.3	95.9
2022-10-30T00:44	10	-2	0.1	-2	-2	353	0.3	352	353	10.3	95.8
2022-10-30T00:45	10	-2	0.1	-2	-2	352	0.4	352	353	10.4	95.8
2022-10-30T00:46	10	-2	0.1	-2	-2	352	0.5	351	353	10.7	95.8
2022-10-30T00:47	10	-2	0.1	-2	-1	352	0.5	351	353	11.1	95.3
2022-10-30T00:48	10	-1	0.1	-1	-1	351	0.3	351	352	11.0	94.1
2022-10-30T00:49	10	-1	0.1	-1	-1	351	0.3	350	352	11.0	93.2
2022-10-30T00:50	10	-1	0.1	-1	-1	350	0.2	350	351	10.6	92.9
2022-10-30T00:51	10	-1	0.1	-1	0	350	0.3	350	351	10.4	93.5
2022-10-30T00:52	10	0	0.0	-1	0	350	0.2	350	351	10.3	94.1
2022-10-30T00:53	10	0	0.1	-1	0	350	0.2	350	350	10.2	94.5
2022-10-30T00:54	10	0	0.1	-1	0	350	0.3	349	350	10.4	94.9
2022-10-30T00:55	10	0	0.1	-1	0	349	0.4	349	350	10.4	94.9
2022-10-30T00:56	10	-1	0.1	-1	0	349	0.2	349	350	10.3	94.9
2022-10-30T00:57	10	-1	0.1	-1	-1	350	0.2	349	350	10.2	94.9
2022-10-30T00:58	10	-1	0.1	-1	-1	350	0.5	350	351	10.1	95.0
2022-10-30T00:59	10	-1	0.1	-1	-1	351	0.4	350	351	10.0	95.1
2022-10-30T01:00	10	-1	0.1	-1	-1	351	0.2	350	351	10.0	95.3
2022-10-30T01:01	10	-1	0.1	-1	-1	351	0.2	351	352	10.1	95.4
2022-10-30T01:02	10	-1	0.1	-1	-1	351	0.2	351	352	10.1	95.4
2022-10-30T01:03	10	-1	0.1	-1	-1	351	0.2	351	352	10.1	95.3
2022-10-30T01:04	10	-1	0.1	-1	-1	351	0.4	351	352	10.1	95.3
2022-10-30T01:05	10	-1	0.1	-1	-1	351	0.3	351	352	10.0	95.1
2022-10-30T01:06	10	-1	0.1	-1	-1	351	0.3	351	352	10.0	95.2
2022-10-30T01:07	10	-1	0.0	-1	-1	351	0.2	351	352	10.0	95.4
2022-10-30T01:08	10	-1	0.1	-1	-1	351	0.4	350	352	10.0	95.4
2022-10-30T01:09	10	-1	0.1	-1	-1	351	0.3	350	352	10.0	95.5
2022-10-30T01:10	10	-1	0.1	-1	-1	351	0.2	350	351	10.0	95.5
2022-10-30T01:11	10	-1	0.1	-1	-1	350	0.2	350	351	10.0	95.7
2022-10-30T01:12	10	-1	0.1	-1	0	350	0.2	350	350	10.1	95.7
2022-10-30T01:13	10	0	0.1	-1	0	350	0.2	349	350	10.0	95.6
2022-10-30T01:14	10	0	0.1	0	0	350	0.2	350	351	10.0	95.6
2022-10-30T01:15	10	0	0.1	0	0	350	0.2	350	351	10.0	95.7
2022-10-30T01:16	10	0	0.1	0	0	350	0.3	350	351	10.1	95.8
2022-10-30T01:17	10	0	0.1	-1	0	350	0.2	349	350	10.3	95.8
2022-10-30T01:18	10	0	0.1	-1	0	350	0.2	349	350	10.2	95.5
2022-10-30T01:19	10	-1	0.1	-1	-1	350	0.3	350	351	10.1	95.4
2022-10-30T01:20	10	-1	0.1	-1	-1	350	0.3	350	351	10.0	95.4
2022-10-30T01:21	10	-1	0.1	-1	-1	350	0.2	350	351	10.0	95.5
2022-10-30T01:22	10	-1	0.1	-1	-1	350	0.3	349	351	10.0	95.5
2022-10-30T01:23	10	-1	0.1	-1	-1	350	0.2	349	350	9.9	95.6
2022-10-30T01:24	10	-1	0.1	-1	-1	349	0.2	349	350	9.8	95.8
2022-10-30T01:25	10	-1	0.1	-1	-1	349	0.3	348	350	9.9	96.0
2022-10-30T01:26	10	-1	0.1	-1	-1	349	0.3	348	349	10.0	96.1
2022-10-30T01:27	10	-1	0.1	-1	-1	349	0.3	348	350	10.0	96.0
2022-10-30T01:28	10	-1	0.1	-1	-1	349	0.4	348	350	10.0	95.8
2022-10-30T01:29	10	-1	0.1	-1	-1	349	0.2	349	350	10.0	95.8
2022-10-30T01:30	10	-1	0.1	-1	-1	350	0.3	349	350	9.9	95.7
2022-10-30T01:31	10	-1	0.1	-1	-1	349	0.2	349	350	9.9	95.7
2022-10-30T01:32	10	-1	0.1	-1	-1	349	0.2	349	350	9.8	95.6
2022-10-30T01:33	10	-1	0.1	-1	-1	349	0.2	349	349	9.7	95.8
2022-10-30T01:34	10	-1	0.0	-1	-1	349	0.2	349	350	9.7	95.9
2022-10-30T01:35	10	-1	0.1	-2	-1	350	0.2	349	350	9.7	96.0
2022-10-30T01:36	10	-2	0.1	-2	-2	350	0.3	349	351	9.7	96.1
2022-10-30T01:37	10	-2	0.1	-2	-2	350	0.2	349	350	9.7	96.2
2022-10-30T01:38	10	-2	0.1	-2	-1	349	0.2	349	350	9.7	96.3
2022-10-30T01:39	10	-2	0.1	-2	-1	349	0.2	349	350	9.9	96.5
2022-10-30T01:40	10	-1	0.1	-1	-1	349	0.3	348	350	9.9	96.5
2022-10-30T01:41	10	-1	0.1	-1	-1	349	0.3	349	350	10.1	96.5
2022-10-30T01:42	10	-1	0.1	-1	-1	349	0.2	349	350	10.2	96.4
2022-10-30T01:43	10	-1	0.1	-1	-1	349	0.2	349	350	10.1	96.2
2022-10-30T01:44	10	-1	0.1	-1	0	349	0.2	348	349	10.1	96.1
2022-10-30T01:45	10	-1	0.1	-1	0	349	0.2	348	349	10.2	96.2
2022-10-30T01:46	10	-1	0.1	-1	0	349	0.3	348	349	10.3	96.1
2022-10-30T01:47	10	-1	0.1	-1	0	349	0.3	348	350	9.9	95.8
2022-10-30T01:48	10	-1	0.2	-1	0	349	0.3	349	350	9.9	95.9
2022-10-30T01:49	10	-1	0.1	-1	0	350	0.2	349	350	10.1	96.3
2022-10-30T01:50	10	0	0.1	-1	0	349	0.3	349	350	10.1	96.3
2022-10-30T01:51	10	0	0.1	-1	0	349	0.3	349	350	10.2	96.2
2022-10-30T01:52	10	0	0.1	-1	0	349	0.3	348	350	10.2	95.9
2022-10-30T01:53	10	0	0.1	-1	0	349	0.3	348	349	10.1	95.8
2022-10-30T01:54	10	0	0.1	0	0	348	0.3	348	349	10.1	95.8
2022-10-30T01:55	10	0	0.1	-1	0	348	0.3	347	348	10.0	95.6
2022-10-30T01:56	10	0	0.1	0	0	347	0.8	346	349	10.0	95.6
2022-10-30T01:57	10	0	0.1	-1	0	348	0.3	347	348	9.9	95.4
2022-10-30T01:58	10	-1	0.2	-1	0	348	0.2	348	349	10.0	95.5
2022-10-30T01:59	10	-1	0.1	-1	-1	348	0.2	348	349	10.1	95.4
2022-10-30T02:00	10	-1	0.1	-2	-1	348	0.3	348	350	10.1	95.3
2022-10-30T02:01	10	-1	0.2	-2	-1	348	0.3	348	349	10.2	94.9
2022-10-30T02:02	10	-2	0.1	-2	-1	349	0.4	348	350	10.1	94.3
2022-10-30T02:03	10	-2	0.1	-2	-1	349	0.3	349	350	10.1	94.0
2022-10-30T02:04	10	-2	0.1	-2	-1	350	0.4	349	350	10.0	93.8
2022-10-30T02:05	10	-2	0.2	-2	-1	350	0.2	349	350	9.9	93.7
2022-10-30T02:06	10	-2	0.1	-2	-1	350	0.4	349	350	9.9	93.7
2022-10-30T02:07	10	-2	0.1	-2	-1	349	0.4	348	350	9.9	93.8
2022-10-30T02:08	10	-2	0.1	-2	-1	349	0.3	348	350	10.0	93.8
2022-10-30T02:09	10	-2	0.1	-2	-2	349	0.3	348	350	9.9	93.9
2022-10-30T02:10	10	-2	0.2	-2	-1	349	0.4	348	350	9.8	94.0
2022-10-30T02:11	10	-2	0.2	-3	-2	349	0.3	348	350	9.8	94.5
2022-10-30T02:12	10	-2	0.1	-3	-2	349	0.2	348	349	9.8	94.6
2022-10-30T02:13	10	-3	0.1	-3	-2	348	0.3	348	349	9.6	94.7
2022-10-30T02:14	10	-3	0.1	-3	-2	349	0.3	348	349	9.5	95.0
2022-10-30T02:15	10	-2	0.1	-3	-2	349	0.3	348	349	9.5	95.3
2022-10-30T02:16	10	-2	0.1	-2	-2	349	0.3	348	349	9.6	95.4
2022-10-30T02:17	10	-2	0.1	-2	-2	349	0.3	348	349	9.6	95.3
2022-10-30T02:18	10	-2	0.1	-2	-2	348	0.2	348	349	9.8	95.4
2022-10-30T02:19	10	-2	0.4	-2	0	348	0.3	347	349	9.8	95.3
2022-10-30T02:20	10	-2	0.1	-2	-1	348	0.3	347	348	9.9	95.1
2022-10-30T02:21	10	-2	0.1	-2	-1	348	0.5	347	349	10.1	95.1
2022-10-30T02:22	10	-2	0.1	-2	-1	348	0.3	348	349	10.2	94.8
2022-10-30T02:23	10	-2	0.1	-2	-2	349	0.3	348	350	10.2	94.3
2022-10-30T02:24	10	-2	0.1	-2	-2	349	0.2	348	349	10.2	93.8
2022-10-30T02:25	10	-2	0.1	-3	-2	349	0.3	348	350	10.0	93.5
2022-10-30T02:26	10	-2	0.1	-3	-2	350	0.5	349	351	10.0	93.7
2022-10-30T02:27	10	-3	0.1	-3	-2	350	0.2	350	351	10.0	93.7
2022-10-30T02:28	10	-3	0.1	-3	-2	350	0.2	350	351	10.0	93.7
2022-10-30T02:29	10	-3	0.1	-3	-2	350	0.3	349	350	10.3	93.5
2022-10-30T02:30	10	-2	0.2	-3	-2	349	0.3	348	350	10.2	92.8
2022-10-30T02:31	10	-2	0.2	-3	-2	348	0.3	348	349	10.0	92.8
2022-10-30T02:32	10	-2	0.1	-2	-2	348	0.3	347	349	10.0	93.3
2022-10-30T02:33	10	-2	0.2	-2	-1	348	0.4	347	349	10.2	93.5
2022-10-30T02:34	10	-2	0.2	-2	-2	349	0.2	348	349	10.2	93.0
2022-10-30T02:35	10	-2	0.1	-2	-1	349	0.2	348	349	10.2	93.1
2022-10-30T02:36	10	-2	0.1	-2	-1	349	0.2	348	349	10.2	93.0
2022-10-30T02:37	10	-1	0.2	-2	-1	349	0.3	349	350	10.3	93.0
2022-10-30T02:38	10	-1	0.1	-1	-1	350	0.2	349	350	10.3	92.8
2022-10-30T02:39	10	-1	0.1	-1	-1	350	0.3	349	351	10.3	92.6
2022-10-30T02:40	10	-1	0.2	-1	0	350	0.2	349	350	10.3	92.4
2022-10-30T02:41	10	-1	0.2	-1	0	350	0.3	349	351	10.4	92.3
2022-10-30T02:42	10	-1	0.1	-1	0	349	0.3	349	350	10.3	92.2
2022-10-30T02:43	10	0	0.1	-1	0	350	0.3	349	350	10.3	92.3
2022-10-30T02:44	10	0	0.1	-1	0	349	0.7	348	350	10.4	92.1
2022-10-30T02:45	10	0	0.1	0	0	349	0.3	348	349	10.3	92.0
2022-10-30T02:46	10	0	0.1	0	0	348	0.3	348	349	10.2	92.2
2022-10-30T02:47	10	0	0.2	-1	0	348	0.3	347	349	10.2	92.3
2022-10-30T02:48	10	0	0.1	-1	0	348	0.3	347	348	10.1	92.4
2022-10-30T02:49	10	0	0.2	-1	0	347	0.4	346	348	10.0	92.5
2022-10-30T02:50	10	0	0.1	-1	0	347	0.5	346	348	10.0	92.6
2022-10-30T02:51	10	0	0.2	-1	0	347	0.4	346	348	9.9	92.8
2022-10-30T02:52	10	-1	0.1	-1	0	347	0.2	346	348	9.9	93.0
2022-10-30T02:53	10	-1	0.1	-1	0	347	0.2	346	347	9.9	93.0
2022-10-30T02:54	10	-1	0.1	-1	0	347	0.3	346	347	9.8	93.2
2022-10-30T02:55	10	-1	0.2	-1	0	346	0.2	346	347	9.7	93.4
2022-10-30T02:56	10	0	0.2	-1	0	346	0.4	345	347	9.7	93.7
2022-10-30T02:57	10	0	0.1	-1	0	346	0.2	346	347	9.7	93.8
2022-10-30T02:58	10	0	0.1	-1	0	346	0.2	346	347	9.6	94.0
2022-10-30T02:59	10	-1	0.1	-1	0	346	0.3	345	346	9.6	94.2
2022-10-30T03:00	10	-1	0.2	-1	0	346	0.3	345	346	9.6	94.4
2022-10-30T03:01	10	-1	0.1	-1	0	346	0.2	345	346	9.6	94.6
2022-10-30T03:02	10	-1	0.1	-1	0	345	0.2	345	346	9.6	94.8
2022-10-30T03:03	10	-1	0.2	-1	0	345	0.2	345	346	9.5	94.8
2022-10-30T03:04	10	0	0.1	-1	0	345	0.2	344	346	9.5	94.9
2022-10-30T03:05	10	-1	0.2	-1	0	345	0.3	345	346	9.5	95.1
2022-10-30T03:06	10	0	0.1	-1	0	346	0.3	345	347	9.5	95.3
2022-10-30T03:07	10	0	0.1	-1	0	346	0.2	346	347	9.6	95.4
2022-10-30T03:08	10	0	0.1	-1	0	346	0.3	346	347	9.6	95.3
2022-10-30T03:09	10	-1	0.1	-1	0	347	0.2	346	347	9.6	95.3
2022-10-30T03:10	10	0	0.1	-1	0	347	0.2	346	347	9.5	95.3
2022-10-30T03:11	10	-1	0.1	-1	0	347	0.2	346	347	9.5	95.5
2022-10-30T03:12	10	-1	0.1	-1	0	347	0.3	346	347	9.5	95.6
2022-10-30T03:13	10	-1	0.1	-1	0	347	0.2	347	348	9.5	95.8
2022-10-30T03:14	10	-1	0.1	-1	-1	347	0.2	347	347	9.6	95.7
2022-10-30T03:15	10	-1	0.1	-1	-1	347	0.2	347	348	9.7	95.7
2022-10-30T03:16	10	-1	0.1	-1	-1	347	0.2	347	348	9.8	95.5
2022-10-30T03:17	10	-1	0.1	-1	-1	346	0.3	346	347	9.6	95.1
2022-10-30T03:18	10	-1	0.1	-1	-1	347	0.2	346	347	9.7	95.3
2022-10-30T03:19	10	-1	0.1	-1	0	346	0.2	346	347	9.7	95.3
2022-10-30T03:20	10	-1	0.1	-1	0	346	0.2	345	347	9.8	95.2
2022-10-30T03:21	10	-1	0.1	-1	0	346	0.3	345	346	9.7	95.0
2022-10-30T03:22	10	0	0.1	-1	0	345	0.3	344	345	9.6	94.9
2022-10-30T03:23	10	0	0.1	-1	0	345	0.2	345	346	9.5	94.9
2022-10-30T03:24	10	0	0.1	0	0	345	0.2	345	346	9.6	95.2
2022-10-30T03:25	10	0	0.1	0	0	345	0.2	344	345	9.6	95.4
2022-10-30T03:26	10	0	0.1	-1	0	345	0.2	345	346	9.5	95.3
2022-10-30T03:27	10	0	0.1	0	0	345	0.2	345	345	9.5	95.4
2022-10-30T03:28	10	0	0.1	0	0	345	0.2	344	345	9.5	95.6
2022-10-30T03:29	10	0	0.1	0	0	345	0.2	344	345	9.5	95.6
2022-10-30T03:30	10	0	0.1	0	0	345	0.2	344	345	9.4	95.7
2022-10-30T03:31	10	0	0.1	0	0	345	0.1	344	345	9.4	95.9
2022-10-30T03:32	10	0	0.1	0	0	345	0.2	345	346	9.5	96.1
2022-10-30T03:33	10	0	0.1	-1	0	345	0.3	345	346	9.6	96.2
2022-10-30T03:34	10	0	0.1	-1	0	346	0.3	345	346	9.6	96.2
2022-10-30T03:35	10	-1	0.1	-1	0	346	0.4	345	346	9.8	96.2
2022-10-30T03:36	10	-1	0.1	-1	0	345	0.2	345	346	9.8	96.0
2022-10-30T03:37	10	-1	0.1	-1	-1	344	0.3	344	345	9.6	95.8
2022-10-30T03:38	10	-1	0.1	-1	-1	344	0.2	344	345	9.6	95.8
2022-10-30T03:39	10	-1	0.1	-1	-1	344	0.3	343	345	9.6	96.0
2022-10-30T03:40	10	-1	0.1	-1	-1	345	0.2	344	345	9.8	96.1
2022-10-30T03:41	10	-1	0.1	-1	-1	345	0.2	345	345	9.8	95.9
2022-10-30T03:42	10	-1	0.1	-1	-1	345	0.2	344	345	9.6	95.6
2022-10-30T03:43	10	-1	0.1	-1	-1	345	0.2	344	345	9.4	95.4
2022-10-30T03:44	10	-1	0.1	-1	-1	344	0.2	344	345	9.3	95.8
2022-10-30T03:45	10	-1	0.1	-1	-1	345	0.2	344	345	9.4	96.1
2022-10-30T03:46	10	-1	0.1	-1	-1	344	0.2	344	345	9.5	96.3
2022-10-30T03:47	10	-1	0.1	-1	-1	344	0.3	344	345	9.5	96.3
2022-10-30T03:48	10	-1	0.1	-2	-1	344	0.3	343	344	9.6	96.4
2022-10-30T03:49	10	-2	0.1	-2	-1	344	0.2	343	344	9.7	96.4
2022-10-30T03:50	10	-2	0.1	-2	-2	344	0.2	344	345	9.8	96.3
2022-10-30T03:51	10	-2	0.1	-2	-2	344	0.3	344	345	9.9	95.9
2022-10-30T03:52	10	-2	0.1	-2	-2	345	0.4	344	346	10.2	95.3
2022-10-30T03:53	10	-2	0.1	-2	-2	345	0.3	345	346	10.3	94.1
2022-10-30T03:54	10	-2	0.1	-2	-2	345	0.3	345	346	10.3	93.3
2022-10-30T03:55	10	-2	0.1	-2	-1	345	0.3	344	346	10.2	92.8
2022-10-30T03:56	10	-1	0.1	-2	-1	345	0.2	344	345	10.0	92.8
2022-10-30T03:57	10	-1	0.1	-1	-1	345	0.3	344	345	9.9	93.0
2022-10-30T03:58	10	-1	0.1	-1	-1	345	0.5	344	346	9.9	93.4
2022-10-30T03:59	10	-1	0.1	-1	-1	344	0.2	344	345	10.0	93.6
2022-10-30T04:00	10	-1	0.1	-1	-1	345	0.4	343	346	10.0	93.4
2022-10-30T04:01	10	-1	0.1	-1	-1	345	0.3	344	345	9.9	93.3
2022-10-30T04:02	10	-1	0.1	-1	-1	346	0.3	345	346	9.9	93.1
2022-10-30T04:03	10	-1	0.1	-1	-1	346	0.4	344	346	9.8	93.1
2022-10-30T04:04	10	-1	0.1	-1	-1	346	0.4	345	347	9.7	93.1
2022-10-30T04:05	10	-1	0.1	-1	-1	346	0.4	345	347	9.6	93.3
2022-10-30T04:06	10	-1	0.1	-1	-1	346	0.3	346	347	9.6	93.5
2022-10-30T04:07	10	-1	0.1	-1	-1	346	0.2	345	346	9.6	93.7
2022-10-30T04:08	10	-1	0.1	-1	-1	346	0.3	345	346	9.6	93.7
2022-10-30T04:09	10	-1	0.1	-1	-1	345	0.3	345	346	9.4	93.8
2022-10-30T04:10	10	-1	0.1	-2	-1	345	0.2	344	346	9.3	94.2
2022-10-30T04:11	10	-1	0.1	-1	-1	346	0.3	345	346	9.4	94.7
2022-10-30T04:12	10	-1	0.1	-1	-1	345	0.3	345	346	9.4	95.0
2022-10-30T04:13	10	-1	0.1	-1	-1	345	0.2	345	346	9.5	95.1
2022-10-30T04:14	10	-1	0.1	-1	-1	345	0.3	344	345	9.4	95.1
2022-10-30T04:15	10	-1	0.1	-1	-1	344	0.2	344	345	9.2	95.1
2022-10-30T04:16	10	-1	0.1	-1	-1	344	0.2	344	345	9.1	95.4
2022-10-30T04:17	10	-1	0.1	-1	-1	344	0.3	344	345	9.3	95.9
2022-10-30T04:18	10	-1	0.1	-1	-1	344	0.2	343	344	9.3	96.0
2022-10-30T04:19	10	-1	0.1	-1	-1	344	0.2	344	345	9.4	96.1
2022-10-30T04:20	10	-1	0.0	-1	-1	344	0.3	344	345	9.5	96.2
2022-10-30T04:21	10	-1	0.1	-1	-1	344	0.2	343	344	9.4	95.9
2022-10-30T04:22	10	-1	0.1	-1	-1	344	0.2	343	344	9.5	96.0
2022-10-30T04:23	10	-1	0.1	-1	-1	343	0.2	343	344	9.6	96.1
2022-10-30T04:24	10	-1	0.1	-1	-1	343	0.2	342	343	9.5	95.9
2022-10-30T04:25	10	-1	0.1	-1	-1	343	0.3	342	344	9.5	95.9
2022-10-30T04:26	10	-1	0.1	-1	-1	343	0.3	342	343	9.4	95.8
2022-10-30T04:27	10	-1	0.1	-1	-1	343	0.3	342	343	9.1	95.8
2022-10-30T04:28	10	-1	0.1	-2	-1	343	0.3	343	344	9.2	96.2
2022-10-30T04:29	10	-2	0.1	-2	-1	344	0.4	343	345	9.2	96.4
2022-10-30T04:30	10	-2	0.1	-2	-2	344	0.3	344	345	9.2	96.3
2022-10-30T04:31	10	-2	0.1	-2	-2	344	0.2	343	344	9.1	96.3
2022-10-30T04:32	10	-2	0.1	-2	-2	344	0.2	343	344	9.2	96.3
2022-10-30T04:33	10	-2	0.1	-2	-2	344	0.3	343	344	9.2	96.2
2022-10-30T04:34	10	-2	0.1	-2	-1	344	0.3	343	344	9.3	96.2
2022-10-30T04:35	10	-1	0.1	-2	-1	344	0.2	344	345	9.4	96.1
2022-10-30T04:36	10	-1	0.1	-1	-1	344	0.2	344	345	9.2	95.7
2022-10-30T04:37	10	-1	0.1	-1	-1	344	0.2	344	344	9.1	95.6
2022-10-30T04:38	10	-1	0.1	-1	-1	344	0.2	344	344	9.1	95.6
2022-10-30T04:39	10	-1	0.1	-1	0	344	0.2	343	344	9.0	95.7
2022-10-30T04:40	10	0	0.1	-1	0	344	0.2	343	344	8.9	95.8
2022-10-30T04:41	10	0	0.1	-1	0	343	0.3	343	344	9.0	96.0
2022-10-30T04:42	10	0	0.1	0	0	343	0.2	343	344	9.0	96.1
2022-10-30T04:43	10	0	0.1	-1	0	343	0.3	343	344	9.1	96.2
2022-10-30T04:44	10	0	0.1	-1	0	343	0.3	343	344	9.1	96.1
2022-10-30T04:45	10	-1	0.1	-1	0	343	0.2	342	343	9.0	96.0
2022-10-30T04:46	10	-1	0.1	-1	-1	343	0.2	342	343	9.0	96.0
2022-10-30T04:47	10	-1	0.1	-1	-1	343	0.2	342	343	9.1	96.2
2022-10-30T04:48	10	-1	0.1	-1	-1	343	0.2	342	343	9.2	96.4
2022-10-30T04:49	10	-1	0.1	-1	-1	343	0.2	342	343	9.1	96.3
2022-10-30T04:50	10	-1	0.1	-1	-1	342	0.2	342	343	9.1	96.3
2022-10-30T04:51	10	-1	0.1	-1	-1	342	0.2	342	343	9.0	96.4
2022-10-30T04:52	10	-1	0.0	-1	-1	342	0.3	341	343	9.0	96.4
2022-10-30T04:53	10	-1	0.1	-1	-1	342	0.2	342	343	9.1	96.6
2022-10-30T04:54	10	-1	0.1	-1	-1	342	0.2	342	343	9.1	96.6
2022-10-30T04:55	10	-1	0.1	-1	-1	342	0.2	342	343	9.0	96.5
2022-10-30T04:56	10	-1	0.1	-1	-1	342	0.3	342	343	8.9	96.5
2022-10-30T04:57	10	-1	0.1	-1	-1	343	0.2	342	343	9.0	96.7
2022-10-30T04:58	10	-1	0.1	-1	-1	343	0.3	342	343	9.0	96.8
2022-10-30T04:59	10	-1	0.1	-1	-1	342	0.2	342	343	8.9	96.8
2022-10-30T05:00	10	-1	0.0	-1	-1	342	0.2	342	343	8.9	96.9
2022-10-30T05:01	10	-1	0.1	-1	-1	342	0.2	341	343	8.9	97.0
2022-10-30T05:02	10	-1	0.1	-1	-1	342	0.2	342	343	8.8	97.1
2022-10-30T05:03	10	-1	0.1	-1	-1	343	0.2	342	343	8.8	97.2
2022-10-30T05:04	10	-1	0.1	-2	-1	343	0.3	342	343	8.9	97.4
2022-10-30T05:05	10	-2	0.1	-2	-1	343	0.2	342	343	9.0	97.4
2022-10-30T05:06	10	-2	0.1	-2	-2	343	0.3	342	343	9.0	97.3
2022-10-30T05:07	10	-2	0.1	-2	-2	343	0.2	343	343	8.9	97.2
2022-10-30T05:08	10	-2	0.1	-2	-2	343	0.2	343	344	9.1	97.4
2022-10-30T05:09	10	-2	0.1	-2	-1	344	0.2	343	344	9.3	97.4
2022-10-30T05:10	10	-1	0.1	-2	-1	344	0.2	344	345	9.4	97.2
2022-10-30T05:11	10	-1	0.1	-2	-1	344	0.2	344	345	9.5	96.9
2022-10-30T05:12	10	-1	0.1	-1	-1	344	0.2	344	345	9.6	96.6
2022-10-30T05:13	10	-1	0.1	-1	-1	344	0.3	344	345	9.7	96.0
2022-10-30T05:14	10	-1	0.1	-1	-1	344	0.2	344	344	9.7	95.6
2022-10-30T05:15	10	-1	0.1	-1	-1	344	0.3	343	344	9.7	95.3
2022-10-30T05:16	10	-1	0.1	-1	-1	344	0.3	343	345	9.7	95.2
2022-10-30T05:17	10	-1	0.1	-1	-1	344	0.2	344	344	9.8	94.8
2022-10-30T05:18	10	-1	0.1	-1	-1	344	0.5	343	344	9.7	94.5
2022-10-30T05:19	10	-1	0.1	-1	-1	343	0.3	342	343	9.4	94.3
2022-10-30T05:20	10	-1	0.1	-1	-1	343	0.2	342	343	8.9	94.3
2022-10-30T05:21	10	-1	0.1	-1	0	342	0.2	342	343	9.0	95.0
2022-10-30T05:22	10	-1	0.1	-1	-1	342	0.3	342	343	8.9	95.3
2022-10-30T05:23	10	-1	0.1	-1	0	343	0.2	342	343	9.0	95.8
2022-10-30T05:24	10	-1	0.1	-1	-1	342	0.2	342	343	9.0	96.0
2022-10-30T05:25	10	-1	0.1	-1	-1	342	0.3	342	343	9.1	96.1
2022-10-30T05:26	10	-1	0.1	-1	-1	342	0.4	341	343	9.0	96.2
2022-10-30T05:27	10	-1	0.1	-1	-1	342	0.3	342	343	9.1	96.3
2022-10-30T05:28	10	-1	0.1	-1	-1	342	0.3	341	343	9.1	96.4
2022-10-30T05:29	10	-1	0.1	-1	-1	342	0.2	342	342	9.1	96.5
2022-10-30T05:30	10	-1	0.1	-1	-1	342	0.2	341	342	9.1	96.5
2022-10-30T05:31	10	-1	0.1	-1	-1	342	0.2	342	343	9.1	96.6
2022-10-30T05:32	10	-1	0.1	-1	-1	342	0.2	341	342	9.1	96.6
2022-10-30T05:33	10	-1	0.1	-1	0	342	0.3	341	342	8.9	96.6
2022-10-30T05:34	10	-1	0.1	-1	0	342	0.2	342	343	9.1	96.8
2022-10-30T05:35	10	-1	0.1	-1	0	342	0.3	341	343	8.9	96.7
2022-10-30T05:36	10	-1	0.1	-1	0	342	0.2	342	343	8.9	96.7
2022-10-30T05:37	10	-1	0.1	-1	-1	342	0.6	341	343	8.9	96.7
2022-10-30T05:38	10	-1	0.1	-1	-1	342	0.5	341	343	8.9	96.7
2022-10-30T05:39	10	-1	0.1	-1	-1	342	0.4	341	343	8.9	96.7
2022-10-30T05:40	10	-1	0.1	-1	-1	342	0.3	341	343	8.6	96.6
2022-10-30T05:41	10	-1	0.1	-1	-1	342	0.5	340	342	8.5	96.6
2022-10-30T05:42	10	-1	0.1	-2	-1	342	0.5	341	342	8.7	96.8
2022-10-30T05:43	10	-1	0.1	-2	-1	341	0.2	341	342	8.8	97.0
2022-10-30T05:44	10	-2	0.1	-2	-1	341	0.3	341	342	8.6	97.0
2022-10-30T05:45	10	-2	0.1	-2	-1	342	0.3	341	343	8.5	97.0
2022-10-30T05:46	10	-2	0.1	-2	-2	343	0.4	342	343	8.5	97.1
2022-10-30T05:47	10	-2	0.1	-2	-2	343	0.5	342	344	8.5	97.2
2022-10-30T05:48	10	-2	0.1	-2	-2	342	0.4	342	343	8.4	97.2
2022-10-30T05:49	10	-2	0.1	-2	-2	342	0.3	341	343	8.4	97.3
2022-10-30T05:50	10	-2	0.1	-2	-2	342	0.2	341	342	8.3	97.2
2022-10-30T05:51	10	-2	0.1	-2	-1	341	0.2	341	342	8.2	97.3
2022-10-30T05:52	10	-1	0.1	-2	-1	341	0.2	341	342	8.2	97.3
2022-10-30T05:53	10	-1	0.1	-1	-1	341	0.2	341	342	8.2	97.5
2022-10-30T05:54	10	-1	0.1	-1	-1	341	0.3	341	342	8.2	97.6
2022-10-30T05:55	10	-1	0.1	-1	-1	341	0.2	341	342	8.2	97.7
2022-10-30T05:56	10	-1	0.1	-1	-1	341	0.3	341	342	8.2	97.7
2022-10-30T05:57	10	-1	0.1	-1	0	341	0.2	340	342	8.3	97.9
2022-10-30T05:58	10	0	0.1	-1	0	341	0.2	341	341	8.3	97.9
2022-10-30T05:59	10	0	0.1	0	0	341	0.3	340	342	8.5	98.0
2022-10-30T06:00	10	0	0.1	0	0	341	0.4	341	342	8.5	98.1
2022-10-30T06:01	10	0	0.1	0	0	341	0.3	341	342	8.5	98.0
2022-10-30T06:02	10	0	0.1	0	0	341	0.2	341	342	8.4	97.9
2022-10-30T06:03	10	0	0.1	0	0	341	0.4	341	342	8.4	97.9
2022-10-30T06:04	10	0	0.1	0	0	342	0.2	341	342	8.4	97.8
2022-10-30T06:05	10	0	0.1	0	0	342	0.3	341	342	8.4	97.9
2022-10-30T06:06	10	0	0.1	-1	0	342	0.4	342	343	8.4	97.9
2022-10-30T06:07	10	-1	0.1	-1	0	343	0.2	342	343	8.4	98.0
2022-10-30T06:08	10	-1	0.1	-1	0	343	0.3	342	343	8.4	98.0
2022-10-30T06:09	10	-1	0.1	-1	0	343	0.2	342	343	8.5	98.1
2022-10-30T06:10	10	-1	0.1	-1	0	343	0.2	342	343	8.5	98.1
2022-10-30T06:11	10	-1	0.1	-1	0	342	0.2	342	343	8.5	98.1
2022-10-30T06:12	10	0	0.1	0	0	342	0.2	342	343	8.5	98.1
2022-10-30T06:13	10	0	0.1	0	0	342	0.2	342	343	8.6	98.2
2022-10-30T06:14	10	0	0.1	0	0	342	0.2	342	343	8.6	98.2
2022-10-30T06:15	10	0	0.1	0	0	342	0.3	342	343	8.6	98.2
2022-10-30T06:16	10	0	0.1	0	0	343	0.3	342	344	8.6	98.2
2022-10-30T06:17	10	0	0.1	0	1	343	0.2	343	344	8.7	98.2
2022-10-30T06:18	10	0	0.1	0	1	344	0.2	343	344	8.7	98.2
2022-10-30T06:19	10	1	0.1	0	1	344	0.3	343	345	8.8	98.2
2022-10-30T06:20	10	1	0.1	1	1	344	0.2	344	345	8.9	98.2
2022-10-30T06:21	10	1	0.1	1	1	344	0.3	343	344	8.9	98.1
2022-10-30T06:22	10	1	0.1	1	1	344	0.2	343	344	8.8	97.9
2022-10-30T06:23	10	2	0.1	1	2	344	0.3	343	345	8.9	97.8
2022-10-30T06:24	10	2	0.1	2	2	344	0.3	343	345	8.9	97.7
2022-10-30T06:25	10	2	0.1	2	2	344	0.2	343	344	8.9	97.6
2022-10-30T06:26	10	2	0.1	2	3	344	0.2	343	344	8.9	97.5
2022-10-30T06:27	10	3	0.1	2	3	344	0.3	343	344	8.9	97.4
2022-10-30T06:28	10	3	0.1	3	3	344	0.3	343	344	8.9	97.3
2022-10-30T06:29	10	3	0.1	3	3	343	0.3	343	344	8.8	97.3
2022-10-30T06:30	10	4	0.1	3	4	343	0.2	343	344	8.8	97.3
2022-10-30T06:31	10	4	0.1	4	4	343	0.2	343	344	8.8	97.3
2022-10-30T06:32	10	4	0.1	4	4	343	0.2	343	344	8.8	97.4
2022-10-30T06:33	10	4	0.1	4	5	343	0.2	343	344	8.7	97.3
2022-10-30T06:34	10	5	0.1	4	5	344	0.3	343	344	8.7	97.4
2022-10-30T06:35	10	5	0.1	5	5	344	0.6	343	345	8.6	97.4
2022-10-30T06:36	10	5	0.1	5	6	346	0.4	345	347	9.1	97.7
2022-10-30T06:37	10	6	0.1	5	6	347	0.2	346	347	9.4	97.7
2022-10-30T06:38	10	6	0.1	6	6	346	0.3	345	347	9.3	97.1
2022-10-30T06:39	10	6	0.1	6	7	347	0.2	346	347	9.3	96.7
2022-10-30T06:40	10	7	0.1	7	7	347	0.4	346	348	9.5	96.2
2022-10-30T06:41	10	7	0.1	7	7	347	0.6	346	348	9.1	95.3
2022-10-30T06:42	10	7	0.1	7	8	347	0.3	347	348	9.2	95.5
2022-10-30T06:43	10	8	0.2	7	8	348	0.2	347	348	9.4	95.4
2022-10-30T06:44	10	8	0.2	8	9	347	0.2	347	348	9.4	94.9
2022-10-30T06:45	10	9	0.2	9	9	348	0.2	348	348	9.4	94.6
2022-10-30T06:46	10	10	0.3	9	10	348	0.2	347	349	9.4	94.4
2022-10-30T06:47	10	11	0.3	10	11	349	0.2	348	349	9.4	94.2
2022-10-30T06:48	10	12	0.5	11	13	349	0.3	348	350	9.3	94.1
2022-10-30T06:49	10	13	0.4	13	14	349	0.2	349	350	9.3	94.1
2022-10-30T06:50	10	14	0.1	14	14	349	0.3	349	350	9.2	94.2
2022-10-30T06:51	10	14	0.2	14	15	350	0.2	350	350	9.1	94.3
2022-10-30T06:52	10	16	0.6	15	17	350	0.2	350	351	9.2	94.5
2022-10-30T06:53	10	18	0.6	17	19	351	0.2	350	351	9.2	94.5
2022-10-30T06:54	10	20	0.6	19	21	351	0.2	351	352	9.2	94.4
2022-10-30T06:55	10	22	0.8	21	23	352	0.3	351	353	9.2	94.2
2022-10-30T06:56	10	25	0.9	23	27	353	0.3	352	353	9.1	94.1
2022-10-30T06:57	10	27	0.3	27	28	353	0.2	352	354	9.1	94.2
2022-10-30T06:58	10	27	0.1	27	28	354	0.3	353	354	9.1	94.4
2022-10-30T06:59	10	27	0.2	27	27	354	0.2	353	355	9.0	94.4
2022-10-30T07:00	10	26	0.3	26	27	354	0.3	354	355	9.0	94.5
2022-10-30T07:01	10	25	0.3	25	26	355	0.2	354	355	8.9	94.4
2022-10-30T07:02	10	25	0.1	25	25	355	0.2	354	356	8.9	94.5
2022-10-30T07:03	10	25	0.2	24	25	355	0.2	355	356	8.9	94.7
2022-10-30T07:04	10	23	0.4	23	24	356	0.2	355	356	8.9	94.7
2022-10-30T07:05	10	22	0.4	21	23	356	0.2	355	356	8.9	94.7
2022-10-30T07:06	10	21	0.2	21	21	356	0.3	356	357	8.9	94.7
2022-10-30T07:07	10	21	0.1	21	21	356	0.3	356	357	8.9	94.7
2022-10-30T07:08	10	21	0.2	21	22	357	0.2	356	357	8.9	94.8
2022-10-30T07:09	10	22	0.3	22	23	357	0.3	356	357	8.9	94.8
2022-10-30T07:10	10	23	0.4	23	24	357	0.2	356	357	9.0	94.9
2022-10-30T07:11	10	24	0.2	24	25	358	0.2	357	358	9.0	94.8
2022-10-30T07:12	10	24	0.3	24	25	358	0.2	357	358	9.0	94.8
2022-10-30T07:13	10	24	0.1	24	24	358	0.2	357	358	8.9	94.9
2022-10-30T07:14	10	24	0.1	23	24	358	0.3	357	359	8.9	95.2
2022-10-30T07:15	10	24	0.1	23	24	358	0.2	358	359	9.0	95.3
2022-10-30T07:16	10	24	0.2	24	24	358	0.2	358	359	9.1	95.3
2022-10-30T07:17	10	25	0.5	24	26	358	0.2	358	359	9.1	95.2
2022-10-30T07:18	10	27	0.6	26	28	359	0.2	358	359	9.2	95.1
2022-10-30T07:19	10	28	0.1	28	28	359	0.2	359	360	9.1	95.0
2022-10-30T07:20	10	27	0.2	27	28	359	0.3	359	360	9.1	95.0
2022-10-30T07:21	10	26	0.3	26	27	360	0.4	359	360	9.2	95.0
2022-10-30T07:22	10	26	0.1	26	26	360	0.3	359	361	9.3	94.9
2022-10-30T07:23	10	27	0.9	26	29	360	0.3	360	361	9.3	94.7
2022-10-30T07:24	10	32	1.2	29	33	361	0.3	360	362	9.5	94.6
2022-10-30T07:25	10	32	0.6	31	33	361	0.3	361	362	9.6	93.9
2022-10-30T07:26	10	31	0.3	30	32	361	0.4	361	362	9.6	93.1
2022-10-30T07:27	10	30	0.3	29	31	362	0.2	361	362	9.6	92.8
2022-10-30T07:28	10	30	0.2	29	30	361	0.2	361	362	9.6	92.9
2022-10-30T07:29	10	30	0.3	30	31	362	0.2	361	362	9.6	92.7
2022-10-30T07:30	10	32	1.0	31	34	362	0.2	361	362	9.6	92.5
2022-10-30T07:31	10	36	0.9	34	37	362	0.5	361	363	9.6	92.5
2022-10-30T07:32	10	39	0.5	37	39	363	0.3	362	363	9.5	93.2
2022-10-30T07:33	10	37	0.6	37	39	363	0.2	362	363	9.5	93.8
2022-10-30T07:34	10	36	0.8	34	37	363	0.2	362	364	9.5	94.4
2022-10-30T07:35	10	34	0.9	33	37	363	0.2	363	364	9.6	94.2
2022-10-30T07:36	10	40	1.8	37	43	364	0.3	363	365	9.7	93.6
2022-10-30T07:37	10	42	1.6	40	44	365	0.2	364	365	9.7	93.6
2022-10-30T07:38	10	41	0.4	40	42	365	0.2	365	365	9.7	93.4
2022-10-30T07:39	10	39	0.7	38	41	365	0.2	364	366	9.8	93.5
2022-10-30T07:40	10	36	0.9	34	38	365	0.3	365	366	9.8	93.6
2022-10-30T07:41	10	34	0.4	33	35	365	0.2	364	365	9.8	93.6
2022-10-30T07:42	10	37	1.1	35	39	365	0.3	365	366	9.9	93.6
2022-10-30T07:43	10	39	0.4	39	40	366	0.2	365	366	9.9	93.4
2022-10-30T07:44	10	43	1.8	40	46	366	0.3	366	367	10.0	93.2
2022-10-30T07:45	10	46	0.6	44	47	367	0.3	366	368	10.0	92.8
2022-10-30T07:46	10	44	0.2	44	44	367	0.2	367	368	10.0	92.2
2022-10-30T07:47	10	46	1.2	45	48	367	0.3	367	368	10.0	91.6
2022-10-30T07:48	10	51	1.2	48	52	368	0.2	367	368	10.1	91.1
2022-10-30T07:49	10	50	0.8	49	52	368	0.5	367	369	10.1	90.8
2022-10-30T07:50	10	51	1.3	49	53	368	0.3	367	369	10.1	91.0
2022-10-30T07:51	10	56	1.1	54	57	369	0.4	368	369	10.1	91.3
2022-10-30T07:52	10	58	0.4	57	58	369	0.3	368	370	10.0	91.2
2022-10-30T07:53	10	56	1.3	54	58	369	0.9	368	370	10.0	91.5
2022-10-30T07:54	10	54	0.4	53	54	369	0.8	367	370	9.9	91.6
2022-10-30T07:55	10	54	0.2	54	54	368	0.3	367	369	9.9	91.2
2022-10-30T07:56	10	53	0.3	53	53	368	0.4	368	369	9.9	90.6
2022-10-30T07:57	10	54	0.7	53	55	369	0.6	367	370	10.0	90.7
2022-10-30T07:58	10	53	0.7	52	54	369	0.4	368	370	10.0	90.6
2022-10-30T07:59	10	52	0.6	50	52	369	0.2	368	369	10.0	90.2
2022-10-30T08:00	10	50	0.4	49	50	369	0.6	368	370	10.1	90.6
2022-10-30T08:01	10	48	0.7	46	49	370	0.5	368	370	10.1	90.4
2022-10-30T08:02	10	46	0.2	45	46	369	0.4	368	370	10.2	90.1
2022-10-30T08:03	10	45	0.6	44	46	369	1.0	367	370	10.2	89.8
2022-10-30T08:04	10	43	0.5	42	44	369	0.6	368	370	10.2	89.3
2022-10-30T08:05	10	43	0.3	42	43	368	0.4	367	368	10.2	88.9
2022-10-30T08:06	10	44	0.2	43	44	368	0.3	367	368	10.2	88.8
2022-10-30T08:07	10	44	0.1	43	44	368	0.7	367	369	10.2	89.3
2022-10-30T08:08	10	43	0.6	42	44	368	0.4	367	369	10.1	89.7
2022-10-30T08:09	10	42	0.2	42	43	368	0.3	367	369	10.1	89.5
2022-10-30T08:10	10	43	0.8	42	45	368	0.6	367	369	10.1	89.3
2022-10-30T08:11	10	48	1.8	45	51	369	0.4	368	369	10.2	89.5
2022-10-30T08:12	10	51	0.3	50	52	369	0.3	369	370	10.2	89.4
2022-10-30T08:13	10	53	0.9	52	55	370	0.4	369	371	10.3	89.3
2022-10-30T08:14	10	55	0.5	55	57	371	0.3	370	371	10.3	89.2
2022-10-30T08:15	10	58	1.3	57	61	371	0.4	371	372	10.4	89.1
2022-10-30T08:16	10	62	0.7	61	63	372	0.4	371	373	10.5	89.3
2022-10-30T08:17	10	58	1.6	56	62	373	0.3	372	373	10.4	89.5
2022-10-30T08:18	10	60	1.2	58	62	373	0.3	373	374	10.4	89.7
2022-10-30T08:19	10	63	1.1	61	65	374	0.3	373	374	10.5	89.9
2022-10-30T08:20	10	64	1.2	63	67	374	0.2	374	375	10.6	90.3
2022-10-30T08:21	10	66	0.5	65	67	375	0.2	374	375	10.7	89.9
2022-10-30T08:22	10	65	0.4	64	66	375	0.3	374	376	10.7	89.9
2022-10-30T08:23	10	62	1.2	59	64	375	0.3	375	376	10.7	89.8
2022-10-30T08:24	10	59	0.5	57	60	375	0.2	375	376	10.7	89.9
2022-10-30T08:25	10	58	1.1	56	59	375	0.3	375	376	10.8	90.1
2022-10-30T08:26	10	59	1.0	57	60	376	0.2	376	377	11.0	90.7
2022-10-30T08:27	10	59	2.3	57	64	376	0.3	376	377	11.1	91.3
2022-10-30T08:28	10	67	1.8	64	70	377	0.3	376	378	11.2	90.9
2022-10-30T08:29	10	70	0.3	70	71	378	0.4	377	379	11.2	91.0
2022-10-30T08:30	10	69	0.4	68	70	377	1.3	376	380	10.8	90.3
2022-10-30T08:31	10	67	0.5	66	68	377	0.4	376	377	10.5	89.6
2022-10-30T08:32	10	66	1.3	65	69	376	0.3	375	377	10.6	89.5
2022-10-30T08:33	10	71	1.7	69	74	377	0.4	376	377	10.7	89.3
2022-10-30T08:34	10	72	2.0	68	74	377	0.2	377	378	10.8	89.0
2022-10-30T08:35	10	71	1.0	68	73	378	0.3	377	378	10.8	88.9
2022-10-30T08:36	10	72	1.2	69	73	378	0.2	377	379	10.8	88.9
2022-10-30T08:37	10	67	0.8	66	69	378	0.6	377	380	10.9	89.2
2022-10-30T08:38	10	69	0.3	68	69	379	0.5	378	380	11.0	89.3
2022-10-30T08:39	10	68	0.9	67	70	379	0.3	378	380	11.2	89.6
2022-10-30T08:40	10	69	0.8	68	70	379	0.6	378	380	11.3	89.7
2022-10-30T08:41	10	69	0.9	68	71	380	0.4	379	380	11.3	89.8
2022-10-30T08:42	10	70	0.5	69	71	380	0.2	379	380	11.2	89.8
2022-10-30T08:43	10	68	0.7	67	70	380	0.3	379	380	11.2	90.0
2022-10-30T08:44	10	70	1.0	69	72	380	0.3	379	381	11.1	89.6
2022-10-30T08:45	10	68	1.5	66	70	380	0.3	379	381	11.1	89.5
2022-10-30T08:46	10	64	2.1	60	66	380	0.4	379	381	11.3	89.6
2022-10-30T08:47	10	57	1.8	54	60	380	0.3	379	381	11.5	89.9
2022-10-30T08:48	10	53	0.5	53	54	379	0.4	379	380	11.6	89.9
2022-10-30T08:49	10	54	0.6	53	55	380	0.3	379	381	11.6	90.0
2022-10-30T08:50	10	57	0.9	56	58	380	0.3	380	381	11.7	90.5
2022-10-30T08:51	10	59	0.7	58	60	381	0.5	380	381	11.7	90.4
2022-10-30T08:52	10	62	1.4	60	64	381	0.2	381	381	11.6	89.8
2022-10-30T08:53	10	62	1.4	60	64	381	0.7	379	382	11.6	89.8
2022-10-30T08:54	10	62	0.7	61	63	381	0.4	380	382	11.7	89.1
2022-10-30T08:55	10	59	0.9	57	61	381	0.4	380	382	11.8	88.4
2022-10-30T08:56	10	58	1.1	56	60	380	0.9	379	382	11.8	87.3
2022-10-30T08:57	10	63	1.9	60	65	380	0.4	379	381	11.6	87.7
2022-10-30T08:58	10	66	1.1	64	67	381	0.5	379	381	11.6	88.0
2022-10-30T08:59	10	66	1.8	63	69	381	0.7	380	382	11.5	88.4
2022-10-30T09:00	10	73	2.0	69	76	382	0.6	381	383	11.6	88.8
2022-10-30T09:01	10	78	1.1	76	80	384	0.5	383	385	11.9	89.1
2022-10-30T09:02	10	79	0.7	77	80	385	0.5	384	386	12.0	89.2
2022-10-30T09:03	10	71	3.9	66	77	385	0.3	385	386	12.2	89.2
2022-10-30T09:04	10	66	0.4	65	67	385	0.4	384	386	12.2	88.6
2022-10-30T09:05	10	67	0.4	66	68	385	0.3	384	385	12.1	88.5
2022-10-30T09:06	10	66	0.6	64	67	384	0.5	383	385	12.0	88.0
2022-10-30T09:07	10	62	0.8	61	64	384	0.3	383	384	12.0	87.7
2022-10-30T09:08	10	62	1.0	61	64	383	0.3	383	384	12.0	87.6
2022-10-30T09:09	10	68	1.6	64	70	383	0.3	383	384	11.9	87.3
2022-10-30T09:10	10	72	1.1	70	73	384	0.2	383	384	12.0	87.4
2022-10-30T09:11	10	75	1.4	73	78	385	0.3	384	385	12.1	88.1
2022-10-30T09:12	10	80	1.0	78	81	386	0.5	385	387	12.2	88.7
2022-10-30T09:13	10	80	0.9	79	82	387	0.6	386	388	12.1	88.0
2022-10-30T09:14	10	83	0.6	82	84	387	0.5	386	388	12.2	87.6
2022-10-30T09:15	10	83	0.6	82	84	388	0.2	387	388	12.4	87.0
2022-10-30T09:16	10	82	0.2	82	83	388	0.3	388	389	12.6	86.2
2022-10-30T09:17	10	82	0.7	79	83	389	0.4	388	390	12.6	85.8
2022-10-30T09:18	10	79	1.7	76	82	389	0.6	388	390	12.8	86.2
2022-10-30T09:19	10	80	1.0	79	82	389	0.3	389	390	12.7	86.2
2022-10-30T09:20	10	78	1.5	76	81	389	0.3	389	390	12.8	86.6
2022-10-30T09:21	10	83	2.5	79	86	390	0.9	388	391	12.8	87.1
2022-10-30T09:22	10	86	1.1	82	87	390	0.4	389	391	12.7	85.8
2022-10-30T09:23	10	83	1.3	81	85	390	0.3	389	391	12.7	85.2
2022-10-30T09:24	10	84	0.8	82	85	390	0.6	388	390	12.8	85.7
2022-10-30T09:25	10	83	1.6	82	86	390	1.2	388	392	12.8	85.7
2022-10-30T09:26	10	86	1.1	85	88	391	0.3	390	391	12.9	86.0
2022-10-30T09:27	10	85	0.8	84	87	391	0.4	390	392	12.9	86.5
2022-10-30T09:28	10	87	1.2	85	89	391	0.8	389	392	12.8	85.7
2022-10-30T09:29	10	85	1.5	83	87	390	0.6	389	391	12.6	84.9
2022-10-30T09:30	10	88	1.0	86	90	390	0.2	389	390	12.7	85.4
2022-10-30T09:31	10	92	1.2	90	94	390	0.5	389	391	12.6	84.7
2022-10-30T09:32	10	91	1.2	89	93	390	0.4	390	391	12.7	84.5
2022-10-30T09:33	10	81	7.0	71	89	390	0.3	390	391	12.7	84.5
2022-10-30T09:34	10	77	3.4	71	85	390	0.5	389	391	12.8	85.2
2022-10-30T09:35	10	85	2.3	80	88	391	0.6	389	391	12.8	85.4
2022-10-30T09:36	10	77	1.9	75	80	391	0.6	389	391	12.9	86.6
2022-10-30T09:37	10	78	0.5	77	79	390	0.3	390	391	12.8	86.1
2022-10-30T09:38	10	77	0.7	76	79	390	0.3	389	391	12.7	85.8
2022-10-30T09:39	10	77	1.2	76	79	390	0.4	390	391	12.8	86.2
2022-10-30T09:40	10	75	1.2	74	78	390	0.5	389	391	12.8	85.7
2022-10-30T09:41	10	81	1.8	79	84	391	0.4	390	391	12.9	85.6
2022-10-30T09:42	10	80	1.2	79	83	390	0.7	389	392	12.9	85.7
2022-10-30T09:43	10	87	2.4	83	92	392	0.8	390	393	12.9	85.9
2022-10-30T09:44	10	95	1.2	93	97	393	0.7	392	395	13.1	86.1
2022-10-30T09:45	10	92	0.9	91	94	393	0.2	393	394	13.0	85.5
2022-10-30T09:46	10	85	5.2	76	92	394	0.5	393	394	13.1	85.8
2022-10-30T09:47	10	77	5.3	71	87	393	0.5	392	394	13.2	87.1
2022-10-30T09:48	10	90	2.2	87	94	393	0.5	392	394	13.2	87.7
2022-10-30T09:49	10	98	1.8	94	101	394	0.4	393	395	13.1	87.4
2022-10-30T09:50	10	102	1.4	101	105	395	0.5	394	396	13.1	86.8
2022-10-30T09:51	10	105	0.7	104	107	395	0.5	394	396	13.1	85.8
2022-10-30T09:52	10	103	1.6	101	107	396	0.3	396	397	13.1	85.8
2022-10-30T09:53	10	99	1.5	97	102	396	0.4	395	397	13.2	85.7
2022-10-30T09:54	10	98	1.4	96	100	396	0.3	396	397	13.4	86.6
2022-10-30T09:55	10	94	0.9	92	96	396	0.4	395	397	13.3	87.7
2022-10-30T09:56	10	93	0.4	92	93	395	0.2	395	396	13.1	87.2
2022-10-30T09:57	10	93	0.7	92	95	396	0.5	395	397	13.3	88.2
2022-10-30T09:58	10	88	1.9	86	92	395	0.8	394	397	13.2	88.0
2022-10-30T09:59	10	89	0.6	87	90	395	0.3	395	396	13.6	88.5
2022-10-30T10:00	10	93	1.5	89	94	396	0.4	395	397	13.5	87.8
2022-10-30T10:01	10	94	2.1	92	99	396	0.4	395	397	13.4	86.8
2022-10-30T10:02	10	102	1.5	99	104	397	0.6	395	398	13.4	86.3
2022-10-30T10:03	10	104	0.9	102	105	398	0.3	397	398	13.5	86.4
2022-10-30T10:04	10	104	0.7	103	105	398	0.3	397	399	13.4	86.6
2022-10-30T10:05	10	104	0.7	103	105	398	0.2	397	398	13.4	86.4
2022-10-30T10:06	10	106	0.8	105	107	398	0.5	397	399	13.5	85.8
2022-10-30T10:07	10	107	1.1	105	109	399	0.4	398	400	13.5	85.4
2022-10-30T10:08	10	111	2.2	107	114	400	0.5	399	401	13.6	85.5
2022-10-30T10:09	10	118	2.7	114	122	401	0.5	400	402	13.8	85.8
2022-10-30T10:10	10	120	0.7	119	122	402	0.2	402	403	13.9	85.8
2022-10-30T10:11	10	119	1.2	117	120	403	0.2	402	403	13.9	85.1
2022-10-30T10:12	10	118	0.9	116	119	403	0.8	401	404	14.0	85.5
2022-10-30T10:13	10	116	3.0	110	120	403	1.1	401	405	14.0	85.8
2022-10-30T10:14	10	104	2.7	101	109	401	1.0	399	403	13.8	84.8
2022-10-30T10:15	10	109	4.4	104	117	400	0.4	400	401	13.7	83.8
2022-10-30T10:16	10	116	2.4	110	119	402	0.5	401	403	13.8	84.2
2022-10-30T10:17	10	114	7.5	105	124	401	0.7	400	403	14.1	85.4
2022-10-30T10:18	10	119	2.2	116	123	402	0.4	401	403	13.9	84.1
2022-10-30T10:19	10	116	2.9	109	119	403	0.3	402	403	14.1	84.7
2022-10-30T10:20	10	106	1.1	104	109	401	0.9	400	403	13.9	83.6
2022-10-30T10:21	10	104	1.1	102	106	401	0.4	400	402	13.9	83.3
2022-10-30T10:22	10	96	6.0	90	105	400	0.6	399	401	13.9	82.8
2022-10-30T10:23	10	92	4.2	88	99	399	0.4	398	400	14.0	83.5
2022-10-30T10:24	10	101	1.3	99	103	400	0.5	399	401	14.1	84.4
2022-10-30T10:25	10	99	1.1	97	101	401	0.3	400	401	14.1	83.8
2022-10-30T10:26	10	104	2.8	98	107	401	0.3	400	402	14.1	83.7
2022-10-30T10:27	10	101	2.5	98	106	402	0.3	401	402	14.3	83.9
2022-10-30T10:28	10	97	1.6	95	100	402	0.3	401	402	14.4	84.1
2022-10-30T10:29	10	98	4.3	93	107	402	0.3	401	402	14.3	84.5
2022-10-30T10:30	10	104	2.7	101	108	402	0.6	401	403	14.3	84.6
2022-10-30T10:31	10	101	0.9	99	102	402	0.4	402	403	14.4	84.8
2022-10-30T10:32	10	102	0.4	102	103	402	0.5	401	403	14.3	84.3
2022-10-30T10:33	10	99	2.9	95	103	403	0.5	402	403	14.3	84.3
2022-10-30T10:34	10	95	0.6	94	96	402	0.5	402	403	14.4	84.3
2022-10-30T10:35	10	99	1.2	96	100	403	0.3	402	404	14.5	84.4
2022-10-30T10:36	10	102	1.2	99	103	403	0.4	402	404	14.5	84.3
2022-10-30T10:37	10	97	1.2	96	99	404	0.3	403	405	14.8	85.5
2022-10-30T10:38	10	95	5.2	88	101	404	0.4	403	405	14.9	85.0
2022-10-30T10:39	10	100	5.3	89	106	403	0.4	402	404	14.7	83.0
2022-10-30T10:40	10	107	1.0	106	109	404	0.4	403	405	14.8	82.8
2022-10-30T10:41	10	102	1.9	100	106	405	0.2	405	405	14.9	82.7
2022-10-30T10:42	10	100	1.3	98	102	406	0.8	404	407	15.0	82.9
2022-10-30T10:43	10	97	1.0	95	98	406	0.5	405	407	15.0	82.6
2022-10-30T10:44	10	92	2.3	88	95	406	0.4	405	407	15.3	83.8
2022-10-30T10:45	10	87	0.8	85	88	405	0.9	403	406	14.9	83.0
2022-10-30T10:46	10	87	0.5	86	88	404	0.2	403	404	14.8	83.0
2022-10-30T10:47	10	94	3.8	88	100	404	0.4	404	406	15.0	83.8
2022-10-30T10:48	10	98	1.4	96	101	405	0.4	404	406	14.9	83.7
2022-10-30T10:49	10	104	2.2	102	108	405	0.3	405	406	14.9	83.2
2022-10-30T10:50	10	103	2.6	101	108	406	0.3	405	406	14.8	83.0
2022-10-30T10:51	10	106	1.2	103	108	407	0.4	406	408	15.0	84.2
2022-10-30T10:52	10	110	4.0	105	117	408	0.5	407	409	15.0	83.3
2022-10-30T10:53	10	116	1.2	115	119	407	0.3	407	408	14.9	82.7
2022-10-30T10:54	10	120	1.4	117	121	408	0.6	407	409	14.9	82.9
2022-10-30T10:55	10	116	2.1	114	120	409	0.3	408	410	14.9	82.5
2022-10-30T10:56	10	114	1.3	112	117	409	0.4	408	410	15.1	83.0
2022-10-30T10:57	10	118	0.6	117	119	409	0.7	408	410	15.3	83.0
2022-10-30T10:58	10	122	1.2	119	123	411	0.7	409	412	15.4	83.3
2022-10-30T10:59	10	125	1.4	123	127	410	0.4	409	411	15.3	81.6
2022-10-30T11:00	10	127	1.3	123	129	411	0.3	410	412	15.3	82.4
2022-10-30T11:01	10	122	0.7	122	124	410	0.6	409	412	15.2	81.7
2022-10-30T11:02	10	121	1.8	119	124	411	0.4	410	411	15.3	81.9
2022-10-30T11:03	10	121	0.7	119	122	411	0.6	409	412	15.2	81.4
2022-10-30T11:04	10	117	2.1	113	119	411	0.7	409	412	15.4	82.3
2022-10-30T11:05	10	122	1.8	118	125	410	0.2	409	410	15.2	81.6
2022-10-30T11:06	10	126	1.4	123	128	411	0.2	410	411	15.3	82.1
2022-10-30T11:07	10	125	1.1	122	126	411	0.3	410	412	15.3	81.9
2022-10-30T11:08	10	125	1.0	122	126	411	0.3	411	412	15.3	81.7
2022-10-30T11:09	10	122	2.8	119	126	412	0.4	411	412	15.4	82.3
2022-10-30T11:10	10	116	2.9	113	124	411	0.5	411	412	15.3	82.0
2022-10-30T11:11	10	112	3.1	108	117	411	0.3	410	412	15.4	81.8
2022-10-30T11:12	10	110	5.5	99	116	411	0.5	410	412	15.6	82.5
2022-10-30T11:13	10	105	4.4	98	111	410	0.5	409	412	15.6	82.9
2022-10-30T11:14	10	110	2.4	107	114	410	0.6	409	411	15.7	82.2
2022-10-30T11:15	10	114	5.7	107	123	410	0.5	409	411	15.6	81.2
2022-10-30T11:16	10	123	3.8	114	127	412	0.3	411	412	15.6	82.0
2022-10-30T11:17	10	113	2.9	106	116	412	0.4	410	412	15.6	81.2
2022-10-30T11:18	10	104	0.6	103	106	410	0.3	410	411	15.7	80.4
2022-10-30T11:19	10	103	0.6	102	103	410	0.5	409	411	15.7	80.7
2022-10-30T11:20	10	100	1.5	98	103	409	0.8	408	411	15.6	81.9
2022-10-30T11:21	10	100	1.2	99	103	409	0.3	409	410	15.6	81.9
2022-10-30T11:22	10	97	1.8	94	100	409	0.4	408	410	15.7	81.9
2022-10-30T11:23	10	97	3.0	93	101	409	0.3	408	409	15.7	81.6
2022-10-30T11:24	10	102	1.3	100	104	409	0.3	408	410	15.8	82.2
2022-10-30T11:25	10	101	0.8	99	102	408	0.5	407	408	15.7	80.9
2022-10-30T11:26	10	98	1.2	96	100	407	0.4	406	408	15.7	81.1
2022-10-30T11:27	10	92	3.2	88	99	407	0.7	406	409	15.7	81.6
2022-10-30T11:28	10	90	0.8	89	92	405	0.6	404	406	15.6	81.1
2022-10-30T11:29	10	82	3.5	78	89	405	0.4	404	406	15.6	81.8
2022-10-30T11:30	10	82	2.0	80	87	405	0.4	405	406	15.7	82.9
2022-10-30T11:31	10	87	2.0	82	90	406	0.8	405	408	15.7	82.4
2022-10-30T11:32	10	71	4.7	65	81	405	1.0	403	407	15.6	81.6
2022-10-30T11:33	10	98	6.0	81	104	406	1.5	404	408	15.6	81.7
2022-10-30T11:34	10	98	3.0	92	101	408	0.3	407	408	15.7	82.2
2022-10-30T11:35	10	101	6.0	92	111	408	0.8	406	410	15.7	81.9
2022-10-30T11:36	10	106	5.3	98	112	409	0.6	408	411	15.8	81.5
2022-10-30T11:37	10	101	1.6	97	103	409	0.3	408	410	16.0	82.7
2022-10-30T11:38	10	105	1.4	103	108	410	0.6	408	411	16.1	83.1
2022-10-30T11:39	10	104	4.2	96	109	409	0.3	409	410	16.0	81.8
2022-10-30T11:40	10	87	4.2	83	96	408	0.6	407	409	16.0	81.5
2022-10-30T11:41	10	85	3.6	81	91	406	0.7	405	408	16.0	81.7
2022-10-30T11:42	10	87	3.9	80	92	407	0.3	406	407	16.0	81.2
2022-10-30T11:43	10	87	6.7	79	97	407	0.3	406	407	15.9	81.3
2022-10-30T11:44	10	97	1.1	96	99	408	0.3	407	408	15.9	82.1
2022-10-30T11:45	10	101	5.1	96	112	407	0.5	407	408	15.9	82.1
2022-10-30T11:46	10	115	0.7	113	116	409	0.6	408	410	15.8	81.6
2022-10-30T11:47	10	118	2.1	115	121	410	0.5	409	411	15.8	80.1
2022-10-30T11:48	10	126	3.4	121	131	413	1.2	411	414	15.9	80.0
2022-10-30T11:49	10	126	1.7	122	128	414	0.4	413	415	16.1	80.8
2022-10-30T11:50	10	113	5.4	100	121	413	0.4	412	414	16.3	81.7
2022-10-30T11:51	10	95	3.5	88	100	411	0.8	409	412	16.3	80.9
2022-10-30T11:52	10	90	2.5	88	97	409	0.5	408	410	16.2	80.4
2022-10-30T11:53	10	107	5.4	98	119	410	0.7	409	411	16.1	79.2
2022-10-30T11:54	10	122	1.2	120	124	412	0.8	411	414	16.2	79.1
2022-10-30T11:55	10	123	1.2	121	124	413	0.4	413	414	16.3	78.9
2022-10-30T11:56	10	124	3.0	117	128	415	0.2	414	415	16.5	79.2
2022-10-30T11:57	10	116	2.6	110	119	414	0.3	414	415	16.4	78.2
2022-10-30T11:58	10	105	1.8	103	109	414	0.9	413	415	16.5	79.3
2022-10-30T11:59	10	103	1.8	100	108	413	0.7	411	414	16.6	79.6
2022-10-30T12:00	10	113	2.7	108	116	412	0.5	411	413	16.5	78.7
2022-10-30T12:01	10	106	4.8	100	114	413	1.7	410	415	16.6	78.9
2022-10-30T12:02	10	102	3.2	98	107	413	0.5	412	414	16.5	77.6
2022-10-30T12:03	10	99	4.5	94	107	412	0.3	411	412	16.5	77.1
2022-10-30T12:04	10	95	1.1	92	96	411	0.4	410	412	16.5	77.4
2022-10-30T12:05	10	89	1.6	84	91					16.5	78.1
2022-10-30T12:06	10	94	5.4	84	102					16.5	77.8
2022-10-30T12:07	10	105	1.7	102	109	412	0.7	410	413	16.5	76.8
2022-10-30T12:08	10	115	3.5	109	120	414	0.6	412	415	16.5	76.7
2022-10-30T12:09	10	121	2.6	114	124	415	0.7	414	416	16.7	77.1
2022-10-30T12:10	10	118	0.7	117	119	416	0.5	415	417	16.9	76.3
2022-10-30T12:11	10	116	1.5	114	118					16.8	74.6
2022-10-30T12:12	10	116	1.4	113	117	415	0.4	415	416	16.9	75.6
2022-10-30T12:13	10	119	1.7	115	121	416	0.5	414	416	16.8	76.2
2022-10-30T12:14	10	120	0.9	118	121	416	0.5	415	417	16.8	76.7
2022-10-30T12:15	10	118	1.4	116	121	415	0.5	414	416	16.7	75.7
2022-10-30T12:16	10	119	1.0	117	120	414	0.4	414	416	16.7	74.3
2022-10-30T12:17	10	116	0.5	115	117	415	0.5	414	416	16.8	74.3
2022-10-30T12:18	10	113	1.2	111	115	415	0.4	415	416	16.8	74.3
2022-10-30T12:19	10	109	1.4	106	111	415	0.5	414	416	17.1	75.7
2022-10-30T12:20	10	105	0.8	103	106	415	0.8	413	416	17.0	75.6
2022-10-30T12:21	10	106	0.3	106	107	415	0.7	414	416	17.0	75.4
2022-10-30T12:22	10	104	1.8	101	107	414	0.3	413	414	16.9	74.5
2022-10-30T12:23	10	101	0.4	100	102	413	0.5	411	414	16.9	74.2
2022-10-30T12:24	10	100	1.0	97	101					17.0	73.5
2022-10-30T12:25	10	91	3.5	85	97					17.0	72.6
2022-10-30T12:26	10	92	6.5	84	104					17.3	73.5
2022-10-30T12:27	10	112	2.8	104	114					17.3	72.6
2022-10-30T12:28	10	115	3.0	112	120					17.3	72.0
2022-10-30T12:29	10	123	1.4	119	125					17.3	71.3
2022-10-30T12:30	10	119	1.0	118	122					17.3	72.3
2022-10-30T12:31	10	120	0.7	119	121	417	0.3	416	417	17.3	72.7
2022-10-30T12:32	10	117	0.6	116	119					17.4	72.8
2022-10-30T12:33	10	116	0.9	115	118					17.4	71.3
2022-10-30T12:34	10	111	2.6	107	115					17.3	71.6
2022-10-30T12:35	10	118	2.7	113	121					17.2	71.7
2022-10-30T12:36	10	113	4.6	105	118					17.2	71.8
2022-10-30T12:37	10	119	0.9	118	121					17.4	73.3
2022-10-30T12:38	10	121	0.5	120	121					17.3	72.2
2022-10-30T12:39	10	119	0.4	119	120					17.4	70.8
2022-10-30T12:40	10	119	0.5	119	120					17.4	70.4
2022-10-30T12:41	10	119	0.3	118	120					17.3	70.3
2022-10-30T12:42	10	118	0.3	117	118					17.5	70.8
2022-10-30T12:43	10	116	1.3	115	121					17.9	72.7
2022-10-30T12:44	10	113	2.1	108	115					17.9	70.7
2022-10-30T12:45	10	101	3.5	97	108					17.5	69.4
2022-10-30T12:46	10	102	1.2	100	104					17.5	71.0
2022-10-30T12:47	10	99	1.1	97	100					17.4	72.0
2022-10-30T12:48	10	97	3.6	92	103					17.7	73.0
2022-10-30T12:49	10	103	0.7	102	104					17.8	72.5
2022-10-30T12:50	10	104	1.6	102	107					17.6	71.1
2022-10-30T12:51	10	107	1.4	105	110	416	0.4	415	417	17.8	71.7
2022-10-30T12:52	10	112	0.7	110	113	415	0.3	415	416	17.7	72.3
2022-10-30T12:53	10	112	0.2	112	113					17.5	72.0
2022-10-30T12:54	10	111	0.7	110	112					17.5	72.8
2022-10-30T12:55	10	110	0.2	110	111					17.7	73.1
2022-10-30T12:56	10	111	0.4	110	112					17.6	72.1
2022-10-30T12:57	10	111	0.5	110	112					17.7	72.8
2022-10-30T12:58	10	110	1.1	108	112					17.6	72.8
2022-10-30T12:59	10	104	3.0	100	109					17.6	73.0
2022-10-30T13:00	10	101	0.3	100	102					17.7	73.1
2022-10-30T13:01	10	96	2.4	93	100					17.6	72.8
2022-10-30T13:02	10	96	1.0	95	98					17.6	73.5
2022-10-30T13:03	10	100	1.0	98	102					17.6	73.3
2022-10-30T13:04	10	101	1.0	99	102					17.5	72.3
2022-10-30T13:05	10	103	0.4	102	104					17.6	72.4
2022-10-30T13:06	10	103	0.6	102	104					17.5	71.1
2022-10-30T13:07	10	101	2.8	95	103					17.6	73.6
2022-10-30T13:08	10	101	2.5	95	103					17.6	73.6
2022-10-30T13:09	10	103	0.6	102	105					17.9	75.6
2022-10-30T13:10	10	105	0.2	104	105					17.7	73.5
2022-10-30T13:11	10	104	1.1	102	106					17.6	72.8
2022-10-30T13:12	10	100	2.0	96	102					17.8	74.0
2022-10-30T13:13	10	96	0.6	95	97					17.7	72.3
2022-10-30T13:14	10	93	2.2	91	97					17.6	71.4
2022-10-30T13:15	10	87	5.8	80	97					17.6	70.9
2022-10-30T13:16	10	81	1.1	80	83					17.6	72.2
2022-10-30T13:17	10	81	1.9	78	83					17.7	72.4
2022-10-30T13:18	10	91	5.7	81	101					17.7	71.3
2022-10-30T13:19	10	104	1.1	101	105					17.7	70.8
2022-10-30T13:20	10	102	2.7	98	105					17.6	69.9
2022-10-30T13:21	10	91	4.1	86	98					17.7	70.8
2022-10-30T13:22	10	88	0.8	86	89					17.8	72.1
2022-10-30T13:23	10	96	5.6	89	103					17.8	73.0
2022-10-30T13:24	10	102	0.3	102	103					17.7	71.7
2022-10-30T13:25	10	98	1.8	95	102					17.8	73.2
2022-10-30T13:26	10	84	6.1	77	95					17.8	73.7
2022-10-30T13:27	10	79	1.7	77	81					17.8	73.9
2022-10-30T13:28	10	85	2.6	81	90					17.7	74.7
2022-10-30T13:29	10	92	1.1	90	93					17.6	74.8
2022-10-30T13:30	10	86	2.0	84	90					17.6	74.5
2022-10-30T13:31	10	88	3.7	84	94					17.7	74.4
2022-10-30T13:32	10	90	1.7	88	93					17.8	75.4
2022-10-30T13:33	10	87	2.5	84	90					18.0	76.3
2022-10-30T13:34	10	86	0.7	85	87					18.0	77.3
2022-10-30T13:35	10	89	1.7	87	92					17.9	76.8
2022-10-30T13:36	10	92	0.5	91	93					18.0	76.7
2022-10-30T13:37	10	86	2.3	83	90					17.9	76.1
2022-10-30T13:38	10	88	0.6	86	89					18.0	77.0
2022-10-30T13:39	10	86	2.3	81	88					18.0	76.9
2022-10-30T13:40	10	78	1.7	75	81					18.1	77.9
2022-10-30T13:41	10	78	1.4	75	80					18.0	77.1
2022-10-30T13:42	10	83	1.9	80	86					18.0	76.9
2022-10-30T13:43	10	88	2.6	85	94					18.1	76.5
2022-10-30T13:44	10	98	1.5	94	100					18.0	76.4
2022-10-30T13:45	10	96	2.2	91	98					18.2	76.8
2022-10-30T13:46	10	86	2.2	83	91					18.1	75.6
2022-10-30T13:47	10	82	2.8	78	87					18.0	75.2
2022-10-30T13:48	10	71	3.7	67	78					18.0	75.5
2022-10-30T13:49	10	78	2.5	72	81					18.0	76.8
2022-10-30T13:50	10	80	1.9	77	82					18.0	77.6
2022-10-30T13:51	10	87	3.7	82	92					18.0	77.7
2022-10-30T13:52	10	88	1.3	87	91					18.2	77.0
2022-10-30T13:53	10	90	1.4	87	92	413	0.4	412	414	18.3	77.3
2022-10-30T13:54	10	89	1.8	86	92					18.2	76.8
2022-10-30T13:55	10	86	1.5	82	87					18.2	76.2
2022-10-30T13:56	10	79	2.0	76	82					18.1	76.4
2022-10-30T13:57	10	78	0.9	76	79					18.0	77.2
2022-10-30T13:58	10	75	1.5	73	78	410	0.3	410	411	17.9	77.4
2022-10-30T13:59	10	80	2.0	76	82					18.0	77.6
2022-10-30T14:00	10	81	0.7	79	82					18.1	77.8
2022-10-30T14:01	10	82	2.2	79	86					18.2	78.9
2022-10-30T14:02	10	89	1.2	86	91					18.2	79.5
2022-10-30T14:03	10	87	0.9	85	89					18.0	79.2
2022-10-30T14:04	10	84	1.4	83	88					18.1	79.4
2022-10-30T14:05	10	90	0.8	88	91					18.1	79.6
2022-10-30T14:06	10	83	3.7	77	90					18.2	79.5
2022-10-30T14:07	10	69	4.5	62	77					18.2	79.5
2022-10-30T14:08	10	60	0.9	58	62					18.0	79.7
2022-10-30T14:09	10	56	1.4	54	58					18.0	80.3
2022-10-30T14:10	10	54	1.1	53	56					17.8	80.4
2022-10-30T14:11	10	56	0.2	56	57					17.9	80.9
2022-10-30T14:12	10	54	1.3	52	56					17.9	80.0
2022-10-30T14:13	10	54	1.4	52	58					17.9	79.9
2022-10-30T14:14	10	66	4.3	58	71					17.9	79.7
2022-10-30T14:15	10	72	0.6	71	73					18.0	79.9
2022-10-30T14:16	10	67	2.0	64	70					18.0	80.4
2022-10-30T14:17	10	66	1.5	64	68					17.9	79.9
2022-10-30T14:18	10	70	1.2	68	72					17.9	79.2
2022-10-30T14:19	10	73	0.7	71	73					18.0	80.0
2022-10-30T14:20	10	67	1.8	63	70					18.0	80.3
2022-10-30T14:21	10	56	3.4	52	63					18.0	79.6
2022-10-30T14:22	10	64	4.9	56	73					17.9	79.8
2022-10-30T14:23	10	79	2.8	73	82					17.9	80.4
2022-10-30T14:24	10	81	0.6	80	82					18.0	80.5
2022-10-30T14:25	10	81	0.2	80	81					18.0	79.5
2022-10-30T14:26	10	79	0.7	76	80					18.0	79.5
2022-10-30T14:27	10	67	4.0	63	76					18.0	80.3
2022-10-30T14:28	10	66	1.1	65	68					18.0	80.1
2022-10-30T14:29	10	69	3.0	65	73					18.0	79.9
2022-10-30T14:30	10	70	2.4	67	73					17.9	79.6
2022-10-30T14:31	10	69	1.5	66	71					17.9	79.0
2022-10-30T14:32	10	71	0.3	70	71					17.9	78.6
2022-10-30T14:33	10	70	0.6	70	71					17.9	78.7
2022-10-30T14:34	10	69	1.9	65	71					17.9	79.1
2022-10-30T14:35	10	65	0.6	64	66					17.9	79.2
2022-10-30T14:36	10	63	0.3	63	64					17.9	79.6
2022-10-30T14:37	10	63	0.5	63	64					17.9	79.2
2022-10-30T14:38	10	64	0.4	63	64					17.9	78.9
2022-10-30T14:39	10	62	1.1	59	63					17.9	78.9
2022-10-30T14:40	10	59	0.5	59	60					18.0	79.0
2022-10-30T14:41	10	61	0.2	60	61					18.0	79.6
2022-10-30T14:42	10	60	0.5	59	61					18.0	79.2
2022-10-30T14:43	10	57	1.2	55	59					17.9	79.1
2022-10-30T14:44	10	53	0.7	52	55					17.9	78.7
2022-10-30T14:45	10	54	0.6	53	55					17.9	78.6
2022-10-30T14:46	10	53	0.7	52	55					18.0	78.5
2022-10-30T14:47	10	52	0.1	52	53					18.0	78.6
2022-10-30T14:48	10	53	0.2	53	53					17.9	78.6
2022-10-30T14:49	10	52	0.7	51	53					17.9	78.7
2022-10-30T14:50	10	49	0.6	49	51					17.9	78.8
2022-10-30T14:51	10	51	0.5	49	51					17.9	79.0
2022-10-30T14:52	10	51	0.3	50	52					17.9	79.1
2022-10-30T14:53	10	49	0.7	47	50					17.9	79.2
2022-10-30T14:54	10	44	2.2	40	47					17.9	79.1
2022-10-30T14:55	10	41	0.5	40	42					17.9	79.0
2022-10-30T14:56	10	43	0.7	42	44					17.9	78.7
2022-10-30T14:57	10	44	0.3	43	44					17.9	78.9
2022-10-30T14:58	10	44	0.3	43	44					17.9	78.6
2022-10-30T14:59	10	42	0.4	42	43					17.9	78.7
2022-10-30T15:00	10	42	0.3	41	42					17.9	78.5
2022-10-30T15:01	10	39	1.4	36	41					17.9	78.8
2022-10-30T15:02	10	34	1.0	33	36					17.9	78.5
2022-10-30T15:03	10	35	1.6	33	38					17.9	78.2
2022-10-30T15:04	10	39	0.4	38	40					17.9	78.5
2022-10-30T15:05	10	39	0.2	39	39					17.8	78.9
2022-10-30T15:06	10	40	0.1	39	40					17.8	79.3
2022-10-30T15:07	10	38	0.4	38	39					17.8	79.2
2022-10-30T15:08	10	38	0.2	37	38					17.8	79.2
2022-10-30T15:09	10	38	0.5	36	38					17.7	79.6
2022-10-30T15:10	10	34	1.7	30	36					17.7	79.5
2022-10-30T15:11	10	27	1.4	26	30					17.8	79.2
2022-10-30T15:12	10	28	1.5	26	31					17.8	79.0
2022-10-30T15:13	10	33	0.8	31	34					17.8	79.4
2022-10-30T15:14	10	33	0.2	33	34					17.8	79.5
2022-10-30T15:15	10	34	0.7	33	36					17.8	79.9
2022-10-30T15:16	10	36	0.3	36	37					17.7	80.2
2022-10-30T15:17	10	34	1.6	31	36					17.7	80.2
2022-10-30T15:18	10	29	0.9	28	31					17.7	80.1
2022-10-30T15:19	10	27	0.6	26	28					17.7	79.8
2022-10-30T15:20	10	25	0.3	25	26					17.6	79.7
2022-10-30T15:21	10	25	0.2	25	25					17.6	79.8
2022-10-30T15:22	10	25	0.1	25	26	394	0.2	393	394	17.6	80.1
2022-10-30T15:23	10	25	0.1	25	26	394	0.2	393	394	17.6	79.9
2022-10-30T15:24	10	25	0.2	25	25	393	0.2	392	394	17.6	80.0
2022-10-30T15:25	10	24	0.5	23	25	393	0.2	393	394	17.6	79.9
2022-10-30T15:26	10	23	0.1	23	24	392	0.2	392	393	17.5	80.2
2022-10-30T15:27	10	24	0.2	23	24	392	0.2	391	393	17.5	80.4
2022-10-30T15:28	10	25	0.2	24	25	392	0.3	391	392	17.5	80.4
2022-10-30T15:29	10	26	0.7	25	27	392	0.2	391	392	17.5	80.6
2022-10-30T15:30	10	28	0.5	27	28	392	0.2	391	392	17.5	80.1
2022-10-30T15:31	10	30	1.1	29	32	392	0.3	391	392	17.5	79.8
2022-10-30T15:32	10	33	0.4	32	34	392	0.3	391	392	17.5	79.9
2022-10-30T15:33	10	32	1.0	30	33	392	0.3	391	393	17.5	79.9
2022-10-30T15:34	10	28	1.1	26	30	391	0.4	391	392	17.5	79.9
2022-10-30T15:35	10	24	1.0	22	26	391	0.3	390	391	17.5	80.3
2022-10-30T15:36	10	21	1.0	19	22	390	0.4	390	391	17.5	80.4
2022-10-30T15:37	10	18	0.6	17	19	389	0.4	389	390	17.5	80.4
2022-10-30T15:38	10	16	0.7	15	17	389	0.3	388	390	17.4	80.7
2022-10-30T15:39	10	14	0.6	13	15	388	0.4	387	389	17.4	80.7
2022-10-30T15:40	10	12	0.3	12	13	387	0.3	387	388	17.4	80.7
2022-10-30T15:41	10	11	0.2	11	12	387	0.4	386	387	17.4	80.2
2022-10-30T15:42	10	11	0.2	10	11	386	0.3	385	386	17.4	79.6
2022-10-30T15:43	10	10	0.1	10	10	385	0.3	385	386	17.4	79.6
2022-10-30T15:44	10	10	0.1	10	10	384	0.3	384	385	17.3	80.0
2022-10-30T15:45	10	10	0.1	9	10	384	0.2	384	385	17.3	80.0
2022-10-30T15:46	10	9	0.1	9	10	384	0.3	383	385	17.3	80.1
2022-10-30T15:47	10	9	0.1	9	9	384	0.2	384	384	17.3	80.0
2022-10-30T15:48	10	9	0.1	9	9	384	0.3	383	384	17.3	80.1
2022-10-30T15:49	10	9	0.1	8	9	383	0.2	383	384	17.2	80.6
2022-10-30T15:50	10	8	0.1	8	9	383	0.2	383	384	17.1	81.3
2022-10-30T15:51	10	8	0.1	8	8	383	0.3	383	384	17.0	82.0
2022-10-30T15:52	10	8	0.1	7	8	383	0.3	382	384	17.0	82.8
2022-10-30T15:53	10	8	0.1	8	8	383	0.3	382	383	17.0	82.9
2022-10-30T15:54	10	8	0.1	8	8	382	0.3	381	383	17.0	82.9
2022-10-30T15:55	10	8	0.3	8	9	381	0.2	381	382	17.0	82.8
2022-10-30T15:56	10	9	0.2	9	9	381	0.3	380	382	16.9	82.8
2022-10-30T15:57	10	9	0.2	8	9	381	0.2	380	381	16.9	83.0
2022-10-30T15:58	10	8	0.1	8	9	381	0.2	380	381	16.9	83.2
2022-10-30T15:59	10	8	0.1	8	9	380	0.2	380	381	16.9	83.1
2022-10-30T16:00	10	8	0.2	8	8	380	0.3	379	381	16.9	83.3
2022-10-30T16:01	10	8	0.1	8	8	380	0.2	380	381	16.9	83.5
2022-10-30T16:02	10	7	0.2	7	8	380	0.2	379	380	16.9	82.9
2022-10-30T16:03	10	7	0.2	6	7	380	0.2	379	380	16.9	81.1
2022-10-30T16:04	10	6	0.1	6	6	380	0.3	379	380	17.0	79.4
2022-10-30T16:05	10	6	0.1	6	6	380	0.2	379	380	16.9	80.0
2022-10-30T16:06	10	5	0.1	5	6	380	0.3	379	381	16.8	81.1
2022-10-30T16:07	10	5	0.2	5	5	380	0.3	379	380	16.7	82.0
2022-10-30T16:08	10	5	0.1	4	5	380	0.3	379	380	16.6	82.7
2022-10-30T16:09	10	4	0.1	4	4	379	0.3	378	379	16.3	84.9
2022-10-30T16:10	10	4	0.1	4	4	378	0.3	377	378	16.2	86.8
2022-10-30T16:11	10	3	0.2	3	4	377	0.3	376	377	16.2	86.8
2022-10-30T16:12	10	3	0.1	3	3	376	0.2	375	376	16.2	87.0
2022-10-30T16:13	10	3	0.1	2	3	376	0.3	375	376	16.2	86.7
2022-10-30T16:14	10	2	0.1	2	3	375	0.3	375	376	16.3	85.7
2022-10-30T16:15	10	2	0.1	2	2	376	0.3	375	376	16.4	83.5
2022-10-30T16:16	10	2	0.1	1	2	376	0.2	375	376	16.3	81.8
2022-10-30T16:17	10	1	0.1	1	2	376	0.2	375	376	16.3	81.6
2022-10-30T16:18	10	1	0.1	1	1	376	0.2	375	376	16.3	81.1
2022-10-30T16:19	10	1	0.1	1	1	375	0.3	375	376	16.4	81.0
2022-10-30T16:20	10	1	0.1	1	1	375	0.2	374	375	16.4	81.3
2022-10-30T16:21	10	1	0.1	1	1	374	0.2	374	375	16.4	80.8
2022-10-30T16:22	10	1	0.1	1	1	374	0.2	373	374	16.1	81.0
2022-10-30T16:23	10	1	0.2	1	1	374	0.2	373	374	15.9	82.3
2022-10-30T16:24	10	1	0.1	1	1	373	0.2	373	374	15.9	82.6
2022-10-30T16:25	10	1	0.2	1	2	373	0.4	373	374	15.9	82.9
2022-10-30T16:26	10	1	0.2	1	1	374	0.4	373	375	16.0	82.2
2022-10-30T16:27	10	1	0.2	0	1	375	0.4	374	376	16.1	82.2
2022-10-30T16:28	10	1	0.1	1	1	376	0.2	375	376	16.3	81.9
2022-10-30T16:29	10	1	0.2	0	1	374	0.9	373	376	16.1	82.3
2022-10-30T16:30	10	1	0.2	0	1	375	0.7	373	376	16.0	83.7
2022-10-30T16:31	10	1	0.1	0	1	374	0.3	373	374	16.2	82.9
2022-10-30T16:32	10	1	0.1	0	1	373	0.2	372	373	16.0	83.2
2022-10-30T16:33	10	1	0.1	1	1	372	0.2	372	372	16.1	83.8
2022-10-30T16:34	10	1	0.1	0	1	372	0.2	372	373	16.2	84.0
2022-10-30T16:35	10	1	0.1	1	1	373	0.6	372	374	16.2	83.8
2022-10-30T16:36	10	1	0.1	1	1	375	0.4	374	376	16.2	83.5
2022-10-30T16:37	10	1	0.1	0	1					16.1	83.2
2022-10-30T16:38	10	1	0.1	0	1					16.0	83.1
2022-10-30T16:39	10	1	0.1	0	1					15.6	82.9
2022-10-30T16:40	10	0	0.1	0	1					15.3	83.9
2022-10-30T16:41	10	0	0.1	0	1					15.5	82.5
2022-10-30T16:42	10	0	0.0	0	0					15.7	80.6
2022-10-30T16:43	10	0	0.1	0	0					15.8	79.9
2022-10-30T16:44	10	0	0.1	0	0					15.9	80.7
2022-10-30T16:45	10	0	0.1	0	0					15.9	80.6
2022-10-30T16:46	10	0	0.1	0	0					15.8	79.6
2022-10-30T16:47	10	0	0.1	0	0					15.4	79.2
2022-10-30T16:48	10	0	0.0	0	0					15.5	79.5
2022-10-30T16:49	10	0	0.1	0	1					15.2	81.6
2022-10-30T16:50	10	0	0.1	0	1					15.1	83.8
2022-10-30T16:51	10	0	0.1	0	1					15.3	82.5
2022-10-30T16:52	10	1	0.1	0	1					15.2	83.2
2022-10-30T16:53	10	1	0.1	0	1					15.3	83.1
2022-10-30T16:54	10	1	0.1	0	1					15.4	82.9
2022-10-30T16:55	10	1	0.1	0	1					15.5	82.4
2022-10-30T16:56	10	1	0.1	1	1					15.5	81.8
2022-10-30T16:57	10	1	0.1	1	1					15.5	81.5
2022-10-30T16:58	10	1	0.1	1	1					15.5	81.5
2022-10-30T16:59	10	1	0.1	1	1					15.5	80.5
2022-10-30T17:00	10	1	0.1	1	1					15.6	79.5
2022-10-30T17:01	10	1	0.1	1	1					15.5	79.6
2022-10-30T17:02	10	1	0.1	1	1					15.4	80.6
2022-10-30T17:03	10	1	0.1	1	1					15.3	81.8
2022-10-30T17:04	10	1	0.1	1	1					15.3	81.5
2022-10-30T17:05	10	1	0.1	1	1					15.3	81.3
2022-10-30T17:06	10	1	0.1	1	1					15.4	81.4
2022-10-30T17:07	10	1	0.1	1	1					15.4	80.9
2022-10-30T17:08	10	1	0.1	1	1					15.5	80.7
2022-10-30T17:09	10	1	0.1	1	1					15.4	80.6
2022-10-30T17:10	10	1	0.1	1	1					15.4	81.2
2022-10-30T17:11	10	1	0.1	1	1					15.3	81.8
2022-10-30T17:12	10	1	0.1	1	1					15.3	81.9
2022-10-30T17:13	10	1	0.2	1	1					15.3	81.5
2022-10-30T17:14	10	1	0.1	1	1					15.1	81.9
2022-10-30T17:15	10	1	0.1	1	1					14.9	82.2
2022-10-30T17:16	10	1	0.1	0	1					14.8	82.8
2022-10-30T17:17	10	1	0.2	0	1					14.8	82.5
2022-10-30T17:18	10	1	0.2	0	2					14.6	83.7
2022-10-30T17:19	10	1	0.2	0	1					14.6	83.7
2022-10-30T17:20	10	1	0.1	0	1					14.5	84.3
2022-10-30T17:21	10	1	0.1	0	1					14.5	84.5
2022-10-30T17:22	10	1	0.2	0	1					14.4	85.1
2022-10-30T17:23	10	1	0.1	0	1					14.5	85.6
2022-10-30T17:24	10	1	0.2	0	1					15.1	84.0
2022-10-30T17:25	10	1	0.1	0	1					15.6	80.8
2022-10-30T17:26	10	1	0.2	1	1					15.0	80.9
2022-10-30T17:27	10	1	0.1	1	1					15.4	82.5
2022-10-30T17:28	10	1	0.1	1	1					15.0	81.7
2022-10-30T17:29	10	1	0.1	1	1					14.9	82.7
2022-10-30T17:30	10	1	0.1	1	1					14.8	83.2
2022-10-30T17:31	10	1	0.1	1	1					14.9	83.3
2022-10-30T17:32	10	1	0.1	1	1					15.1	82.6
2022-10-30T17:33	10	1	0.1	1	1					15.1	82.1
2022-10-30T17:34	10	1	0.1	1	1					15.1	81.8
2022-10-30T17:35	10	1	0.1	1	1					14.9	82.4
2022-10-30T17:36	10	1	0.1	1	1					14.5	83.1
2022-10-30T17:37	10	1	0.1	1	1					14.3	85.1
2022-10-30T17:38	10	1	0.1	1	1					14.4	85.6
2022-10-30T17:39	10	1	0.1	1	1					14.9	85.2
2022-10-30T17:40	10	1	0.1	0	1					15.2	84.9
2022-10-30T17:41	10	1	0.1	1	1					15.1	83.4
2022-10-30T17:42	10	1	0.1	1	1					15.0	84.1
2022-10-30T17:43	10	1	0.1	1	1					14.9	84.3
2022-10-30T17:44	10	1	0.1	1	1					14.8	84.9
2022-10-30T17:45	10	1	0.1	1	1					14.9	85.0
2022-10-30T17:46	10	1	0.1	1	1					14.8	85.0
2022-10-30T17:47	10	1	0.1	1	1					14.7	85.8
2022-10-30T17:48	10	1	0.1	1	1					14.9	85.9
2022-10-30T17:49	10	1	0.1	1	1					15.0	85.5
2022-10-30T17:50	10	1	0.1	1	1					15.1	85.2
2022-10-30T17:51	10	1	0.1	1	1					15.2	85.3
2022-10-30T17:52	10	1	0.1	1	1					15.2	85.6
2022-10-30T17:53	10	1	0.1	1	1					15.1	85.9
2022-10-30T17:54	10	1	0.1	1	1					15.1	86.6
2022-10-30T17:55	10	1	0.1	1	1					15.2	86.5
2022-10-30T17:56	10	1	0.1	1	1					15.0	86.8
2022-10-30T17:57	10	1	0.1	1	1					14.8	86.8
2022-10-30T17:58	10	1	0.1	1	1					14.7	87.1
2022-10-30T17:59	10	1	0.1	0	1					14.6	87.0
2022-10-30T18:00	10	1	0.1	0	1					14.4	87.1
2022-10-30T18:01	10	1	0.1	0	1					14.1	87.2
2022-10-30T18:02	10	0	0.1	0	1					14.0	87.7
2022-10-30T18:03	10	0	0.1	0	0					13.9	88.2
2022-10-30T18:04	10	0	0.1	0	1					14.0	88.8
2022-10-30T18:05	10	0	0.1	0	1					14.1	88.7
2022-10-30T18:06	10	0	0.1	0	1					14.4	88.1
2022-10-30T18:07	10	0	0.1	0	1					14.4	87.4
2022-10-30T18:08	10	1	0.1	0	1					14.5	87.5
2022-10-30T18:09	10	1	0.1	0	1					14.3	87.2
2022-10-30T18:10	10	1	0.1	0	1					14.1	87.8
2022-10-30T18:11	10	1	0.1	0	1					14.1	87.9
2022-10-30T18:12	10	1	0.1	0	1					14.2	88.3
2022-10-30T18:13	10	0	0.1	0	1					14.1	89.1
2022-10-30T18:14	10	0	0.1	0	1					14.1	89.6
2022-10-30T18:15	10	1	0.1	0	1					14.0	89.8
2022-10-30T18:16	10	1	0.1	1	1					14.0	90.3
2022-10-30T18:17	10	1	0.1	1	1					14.0	90.4
2022-10-30T18:18	10	1	0.1	1	1					14.2	90.4
2022-10-30T18:19	10	1	0.1	1	1					14.1	89.8
2022-10-30T18:20	10	1	0.1	1	1					13.9	89.8
2022-10-30T18:21	10	1	0.1	1	1					13.8	89.8
2022-10-30T18:22	10	1	0.1	0	1					13.6	89.9
2022-10-30T18:23	10	0	0.1	0	1					13.7	90.2
2022-10-30T18:24	10	0	0.1	0	1					13.7	89.9
2022-10-30T18:25	10	0	0.1	0	1					13.6	90.1
2022-10-30T18:26	10	1	0.1	0	1					13.9	90.2
2022-10-30T18:27	10	1	0.1	0	1					14.0	89.5
2022-10-30T18:28	10	1	0.1	0	1					13.9	89.4
2022-10-30T18:29	10	1	0.1	0	1					13.6	89.6
2022-10-30T18:30	10	1	0.1	0	1					13.5	90.4
2022-10-30T18:31	10	0	0.1	0	1					13.6	90.8
2022-10-30T18:32	10	0	0.1	0	1					13.6	91.0
2022-10-30T18:33	10	0	0.1	0	1					13.4	91.2
2022-10-30T18:34	10	0	0.1	0	1					13.4	91.7
2022-10-30T18:35	10	0	0.1	0	0					13.5	92.0
2022-10-30T18:36	10	0	0.1	0	0					13.6	92.2
2022-10-30T18:37	10	0	0.1	0	0					13.8	92.5
2022-10-30T18:38	10	0	0.1	0	1					13.7	92.2
2022-10-30T18:39	10	0	0.1	0	1					13.7	92.5
2022-10-30T18:40	10	1	0.1	0	1					13.7	92.4
2022-10-30T18:41	10	1	0.1	0	1					13.6	92.4
2022-10-30T18:42	10	1	0.1	0	1					13.6	92.7
2022-10-30T18:43	10	1	0.1	1	1					13.6	92.9
2022-10-30T18:44	10	1	0.1	0	1					13.6	93.0
2022-10-30T18:45	10	1	0.2	0	1					13.7	93.4
2022-10-30T18:46	10	1	0.1	0	1					13.7	93.5
2022-10-30T18:47	10	1	0.2	0	1					13.8	93.7
2022-10-30T18:48	10	1	0.2	0	1					13.9	93.7
2022-10-30T18:49	10	1	0.1	0	1					13.8	93.6
2022-10-30T18:50	10	1	0.1	0	1					13.7	93.4
2022-10-30T18:51	10	1	0.1	0	1					13.8	93.3
2022-10-30T18:52	10	1	0.1	0	1					14.0	93.2
2022-10-30T18:53	10	1	0.1	0	1					14.1	93.0
2022-10-30T18:54	10	1	0.2	0	1					14.2	93.0
2022-10-30T18:55	10	1	0.1	0	1					14.3	92.6
2022-10-30T18:56	10	1	0.1	0	1					14.2	92.5
2022-10-30T18:57	10	1	0.1	0	1					14.2	92.5
2022-10-30T18:58	10	1	0.1	0	1					13.9	92.4
2022-10-30T18:59	10	1	0.1	0	1					13.8	93.1
2022-10-30T19:00	10	1	0.1	0	1					14.0	93.3
2022-10-30T19:01	10	1	0.0	0	1					14.0	92.8
2022-10-30T19:02	10	1	0.1	0	1					14.1	92.6
2022-10-30T19:03	10	1	0.1	1	1					14.3	92.4
2022-10-30T19:04	10	1	0.1	1	1					14.4	92.3
2022-10-30T19:05	10	1	0.1	1	1					14.3	92.2
2022-10-30T19:06	10	1	0.1	1	1					14.2	92.3
2022-10-30T19:07	10	1	0.1	1	1					14.3	92.6
2022-10-30T19:08	10	1	0.0	1	1					14.3	92.8
2022-10-30T19:09	10	1	0.1	1	1					14.3	92.7
2022-10-30T19:10	10	1	0.1	1	1					14.4	92.9
2022-10-30T19:11	10	1	0.1	1	1					14.4	92.9
2022-10-30T19:12	10	1	0.1	1	1					14.4	92.7
2022-10-30T19:13	10	1	0.1	1	1					14.3	92.5
2022-10-30T19:14	10	1	0.1	1	1					14.1	92.7
2022-10-30T19:15	10	1	0.1	1	1					13.9	92.8
2022-10-30T19:16	10	1	0.1	1	1					13.8	93.1
2022-10-30T19:17	10	1	0.1	1	1					13.7	93.5
2022-10-30T19:18	10	1	0.1	0	1					13.6	93.8
2022-10-30T19:19	10	0	0.1	0	1					13.5	94.1
2022-10-30T19:20	10	0	0.1	0	1					13.4	94.3
2022-10-30T19:21	10	0	0.1	0	0					13.3	94.5
2022-10-30T19:22	10	0	0.1	0	0					13.3	94.8
2022-10-30T19:23	10	0	0.1	0	0					13.2	95.1
2022-10-30T19:24	10	0	0.1	0	0					13.2	95.3
2022-10-30T19:25	10	0	0.1	0	0					13.2	95.7
2022-10-30T19:26	10	0	0.1	0	0					13.1	95.8
2022-10-30T19:27	10	0	0.1	0	0					13.1	96.1
2022-10-30T19:28	10	0	0.1	0	0					13.0	96.2
2022-10-30T19:29	10	0	0.1	0	0					12.9	96.4
2022-10-30T19:30	10	0	0.1	0	0					13.0	96.6
2022-10-30T19:31	10	0	0.1	0	0					13.1	96.8
2022-10-30T19:32	10	0	0.1	0	0					12.9	96.8
2022-10-30T19:33	10	0	0.1	0	0					12.8	96.8
2022-10-30T19:34	10	-1	0.1	-1	0					12.6	96.8
2022-10-30T19:35	10	-1	0.1	-1	0					12.6	97.1
2022-10-30T19:36	10	-1	0.1	-1	-1					12.7	97.2
2022-10-30T19:37	10	-1	0.1	-1	-1					12.7	97.4
2022-10-30T19:38	10	-1	0.0	-1	-1					12.8	97.4
2022-10-30T19:39	10	-1	0.1	-1	-1					12.9	97.5
2022-10-30T19:40	10	-1	0.1	-1	-1					13.0	97.5
2022-10-30T19:41	10	-1	0.1	-1	0					13.0	97.4
2022-10-30T19:42	10	-1	0.1	-1	0					13.0	97.3
2022-10-30T19:43	10	0	0.1	-1	0					13.1	97.3
2022-10-30T19:44	10	0	0.1	0	0					13.1	97.2
2022-10-30T19:45	10	0	0.1	0	0					13.1	97.1
2022-10-30T19:46	10	0	0.1	0	0					13.3	97.1
2022-10-30T19:47	10	0	0.1	0	0					13.4	96.9
2022-10-30T19:48	10	0	0.1	0	0					13.5	96.4
2022-10-30T19:49	10	0	0.1	0	0					13.3	96.0
2022-10-30T19:50	10	0	0.1	0	0					13.2	95.9
2022-10-30T19:51	10	0	0.1	0	0					13.3	95.8
2022-10-30T19:52	10	0	0.1	0	0					13.4	95.6
2022-10-30T19:53	10	0	0.1	0	0					13.5	95.5
2022-10-30T19:54	10	0	0.1	0	0					13.5	95.2
2022-10-30T19:55	10	0	0.1	0	0					13.4	95.0
2022-10-30T19:56	10	0	0.1	0	0					13.4	95.1
2022-10-30T19:57	10	0	0.1	0	0					13.4	95.2
2022-10-30T19:58	10	0	0.1	0	0					13.4	95.2
2022-10-30T19:59	10	0	0.1	0	0					13.4	95.2
2022-10-30T20:00	10	0	0.1	0	0					13.4	95.3
2022-10-30T20:01	10	0	0.1	0	0					13.4	95.3
2022-10-30T20:02	10	0	0.1	0	0					13.4	95.4
2022-10-30T20:03	10	0	0.1	0	0					13.2	95.3
2022-10-30T20:04	10	0	0.1	0	0					13.0	95.3
2022-10-30T20:05	10	0	0.1	0	0					12.7	95.3
2022-10-30T20:06	10	0	0.1	0	0					12.6	95.5
2022-10-30T20:07	10	0	0.1	0	0					12.7	95.8
2022-10-30T20:08	10	0	0.1	0	0					12.7	96.0
2022-10-30T20:09	10	0	0.1	0	0					12.7	96.2
2022-10-30T20:10	10	0	0.1	0	0					12.8	96.5
2022-10-30T20:11	10	0	0.1	0	0					12.9	96.6
2022-10-30T20:12	10	0	0.1	0	0					12.9	96.6
2022-10-30T20:13	10	0	0.1	0	0					12.8	96.5
2022-10-30T20:14	10	0	0.1	-1	0					12.8	96.6
2022-10-30T20:15	10	0	0.1	0	0					12.8	96.6
2022-10-30T20:16	10	0	0.1	0	0					12.8	96.7
2022-10-30T20:17	10	0	0.1	0	0					12.8	96.7
2022-10-30T20:18	10	0	0.1	0	0					12.7	96.6
2022-10-30T20:19	10	0	0.1	0	0					12.7	96.6
2022-10-30T20:20	10	0	0.1	0	0					12.7	96.7
2022-10-30T20:21	10	0	0.1	0	0					12.7	96.8
2022-10-30T20:22	10	0	0.1	0	0					12.7	96.8
2022-10-30T20:23	10	0	0.1	0	0					12.8	97.0
2022-10-30T20:24	10	0	0.1	0	0					12.8	97.1
2022-10-30T20:25	10	0	0.1	0	0					12.8	97.2
2022-10-30T20:26	10	0	0.1	0	0					12.8	97.2
2022-10-30T20:27	10	0	0.1	0	0					12.8	97.2
2022-10-30T20:28	10	0	0.1	0	0					12.9	97.3
2022-10-30T20:29	10	0	0.1	0	0					12.8	97.3
2022-10-30T20:30	10	0	0.1	0	0					12.8	97.3
2022-10-30T20:31	10	0	0.1	0	0					12.8	97.3
2022-10-30T20:32	10	0	0.1	0	0					12.7	97.3
2022-10-30T20:33	10	0	0.1	0	0					12.7	97.3
2022-10-30T20:34	10	0	0.1	0	0					12.6	97.3
2022-10-30T20:35	10	0	0.1	0	0					12.6	97.4
2022-10-30T20:36	10	0	0.1	0	0					12.4	97.3
2022-10-30T20:37	10	0	0.1	0	0					12.5	97.4
2022-10-30T20:38	10	0	0.1	0	0					12.3	97.3
2022-10-30T20:39	10	0	0.1	0	0					12.4	97.3
2022-10-30T20:40	10	0	0.1	0	0					12.6	97.5
2022-10-30T20:41	10	0	0.1	0	0					12.6	97.5
2022-10-30T20:42	10	0	0.1	0	0					12.6	97.5
2022-10-30T20:43	10	0	0.1	0	0					12.6	97.5
2022-10-30T20:44	10	0	0.1	0	0					12.8	97.6
2022-10-30T20:45	10	0	0.1	0	0					12.8	97.6
2022-10-30T20:46	10	0	0.1	0	0					12.7	97.4
2022-10-30T20:47	10	0	0.1	0	0					12.7	97.3
2022-10-30T20:48	10	0	0.1	0	0					12.6	97.3
2022-10-30T20:49	10	0	0.1	-1	0					12.6	97.3
2022-10-30T20:50	10	-1	0.1	-1	0					12.6	97.2
2022-10-30T20:51	10	-1	0.1	-1	0					12.7	97.3
2022-10-30T20:52	10	-1	0.1	-1	0					12.4	97.0
2022-10-30T20:53	10	-1	0.1	-1	-1					12.7	97.3
2022-10-30T20:54	10	-1	0.1	-1	-1					12.8	97.4
2022-10-30T20:55	10	-1	0.1	-1	-1					12.6	97.1
2022-10-30T20:56	10	-1	0.1	-1	-1					12.6	97.1
2022-10-30T20:57	10	-1	0.1	-1	-1					12.6	97.1
2022-10-30T20:58	10	-1	0.0	-1	-1					12.5	97.0
2022-10-30T20:59	10	-1	0.1	-1	-1					12.8	97.3
2022-10-30T21:00	10	-1	0.1	-1	-1					12.6	97.0
2022-10-30T21:01	10	-1	0.1	-1	-1					12.6	97.0
2022-10-30T21:02	10	-1	0.1	-1	0					12.8	97.2
2022-10-30T21:03	10	-1	0.1	-1	0					12.9	97.2
2022-10-30T21:04	10	-1	0.1	-1	0					12.8	96.9
2022-10-30T21:05	10	-1	0.1	-1	0					12.9	96.9
2022-10-30T21:06	10	-1	0.1	-1	0					12.9	96.8
2022-10-30T21:07	10	-1	0.1	-1	0					13.0	96.6
2022-10-30T21:08	10	-1	0.1	-1	0					13.1	96.5
2022-10-30T21:09	10	-1	0.1	-1	0					13.1	96.3
2022-10-30T21:10	10	-1	0.1	-1	0					13.1	96.2
2022-10-30T21:11	10	0	0.1	-1	0					13.1	96.1
2022-10-30T21:12	10	0	0.1	-1	0					13.1	95.8
2022-10-30T21:13	10	0	0.1	-1	0					13.1	95.9
2022-10-30T21:14	10	0	0.1	0	0					13.3	95.9
2022-10-30T21:15	10	0	0.1	0	0					13.4	95.6
2022-10-30T21:16	10	0	0.1	0	0					13.4	95.3
2022-10-30T21:17	10	0	0.1	0	0					13.4	94.9
2022-10-30T21:18	10	0	0.1	0	0					13.2	94.6
2022-10-30T21:19	10	0	0.1	0	0					13.4	94.9
2022-10-30T21:20	10	0	0.0	0	0					13.3	94.5
2022-10-30T21:21	10	0	0.0	0	0					13.1	94.4
2022-10-30T21:22	10	0	0.1	0	0					13.0	94.5
2022-10-30T21:23	10	0	0.1	0	0					12.9	94.7
2022-10-30T21:24	10	0	0.0	0	0					12.9	94.9
2022-10-30T21:25	10	0	0.0	0	0					12.8	95.2
2022-10-30T21:26	10	0	0.1	-1	0					12.8	95.3
2022-10-30T21:27	10	0	0.1	-1	0					12.7	95.4
2022-10-30T21:28	10	0	0.1	-1	0					12.7	95.6
2022-10-30T21:29	10	0	0.1	-1	0					12.5	95.6
2022-10-30T21:30	10	0	0.1	0	0					12.4	95.8
2022-10-30T21:31	10	0	0.1	0	0					12.4	96.0
2022-10-30T21:32	10	0	0.0	0	0					12.4	96.2
2022-10-30T21:33	10	0	0.1	0	0					12.3	96.3
2022-10-30T21:34	10	0	0.1	0	0					12.3	96.4
2022-10-30T21:35	10	0	0.1	0	0					12.2	96.6
2022-10-30T21:36	10	0	0.1	0	0					12.3	96.7
2022-10-30T21:37	10	0	0.1	0	0					12.3	96.9
2022-10-30T21:38	10	0	0.1	0	0					12.3	97.0
2022-10-30T21:39	10	0	0.0	0	0					12.2	97.1
2022-10-30T21:40	10	0	0.1	0	0					12.3	97.2
2022-10-30T21:41	10	0	0.1	0	0					12.2	97.3
2022-10-30T21:42	10	0	0.1	0	0					12.2	97.4
2022-10-30T21:43	10	0	0.1	0	0					12.2	97.6
2022-10-30T21:44	10	0	0.1	-1	0					12.3	97.7
2022-10-30T21:45	10	-1	0.1	-1	0					12.3	97.8
2022-10-30T21:46	10	-1	0.1	-1	-1					12.4	97.8
2022-10-30T21:47	10	-1	0.1	-1	-1					12.3	97.7
2022-10-30T21:48	10	-1	0.1	-1	-1					12.3	97.7
2022-10-30T21:49	10	-1	0.1	-1	-1					12.2	97.6
2022-10-30T21:50	10	-1	0.0	-1	-1					12.0	97.3
2022-10-30T21:51	10	-1	0.1	-1	-1					12.1	97.4
2022-10-30T21:52	10	-1	0.1	-1	-1					12.1	97.3
2022-10-30T21:53	10	-1	0.1	-1	0					12.1	97.2
2022-10-30T21:54	10	-1	0.1	-1	0					12.1	97.0
2022-10-30T21:55	10	0	0.1	0	0					12.1	97.0
2022-10-30T21:56	10	0	0.1	0	0					12.1	97.1
2022-10-30T21:57	10	0	0.1	0	0					12.2	97.1
2022-10-30T21:58	10	0	0.1	0	0					12.1	97.0
2022-10-30T21:59	10	0	0.1	0	0					12.1	97.0
2022-10-30T22:00	10	0	0.1	0	0					12.2	97.2
2022-10-30T22:01	10	0	0.1	0	0					12.2	97.1
2022-10-30T22:02	10	0	0.1	0	0					12.3	97.2
2022-10-30T22:03	10	0	0.1	0	0					12.2	97.0
2022-10-30T22:04	10	0	0.1	0	0					12.2	97.0
2022-10-30T22:05	10	0	0.1	0	0					12.1	96.9
2022-10-30T22:06	10	0	0.1	0	0					12.1	97.0
2022-10-30T22:07	10	0	0.1	0	0					12.1	97.0
2022-10-30T22:08	10	0	0.1	0	0					12.0	97.0
2022-10-30T22:09	10	0	0.1	0	0					11.9	97.0
2022-10-30T22:10	10	0	0.1	0	0					12.0	97.2
2022-10-30T22:11	10	0	0.1	0	0					12.0	97.3
2022-10-30T22:12	10	0	0.1	0	0					12.1	97.4
2022-10-30T22:13	10	0	0.1	0	0					12.1	97.5
2022-10-30T22:14	10	0	0.1	0	0					12.1	97.5
2022-10-30T22:15	10	0	0.1	0	0					12.1	97.5
2022-10-30T22:16	10	0	0.1	0	0					12.2	97.5
2022-10-30T22:17	10	0	0.2	-1	0					12.1	97.5
2022-10-30T22:18	10	0	0.2	-1	0					11.8	97.2
2022-10-30T22:19	10	0	0.1	-1	0					12.1	97.7
2022-10-30T22:20	10	0	0.1	-1	0					11.7	97.4
2022-10-30T22:21	10	0	0.1	-1	0					11.6	97.4
2022-10-30T22:22	10	0	0.1	-1	0					11.7	97.8
2022-10-30T22:23	10	0	0.2	-1	0					11.8	98.0
2022-10-30T22:24	10	-1	0.1	-1	-1					12.0	98.2
2022-10-30T22:25	10	0	0.1	-1	0					12.2	98.3
2022-10-30T22:26	10	0	0.1	0	0					12.2	98.3
2022-10-30T22:27	10	0	0.1	0	0					12.2	98.2
2022-10-30T22:28	10	0	0.1	0	0					12.3	98.1
2022-10-30T22:29	10	0	0.1	0	0					12.4	98.0
2022-10-30T22:30	10	0	0.2	0	1					12.4	97.8
2022-10-30T22:31	10	0	0.1	0	0					12.4	97.7
2022-10-30T22:32	10	0	0.2	0	0					12.3	97.4
2022-10-30T22:33	10	0	0.1	0	0					11.8	96.9
2022-10-30T22:34	10	0	0.1	0	0					11.7	97.1
2022-10-30T22:35	10	0	0.1	0	0					11.8	97.5
2022-10-30T22:36	10	0	0.1	0	0					11.8	97.6
2022-10-30T22:37	10	0	0.2	-1	0					11.9	97.8
2022-10-30T22:38	10	0	0.2	0	0					11.9	97.9
2022-10-30T22:39	10	0	0.2	-1	0					12.0	98.0
2022-10-30T22:40	10	-1	0.1	-1	0					12.1	98.2
2022-10-30T22:41	10	-1	0.1	-1	0					12.3	98.3
2022-10-30T22:42	10	-1	0.1	-1	0					12.3	98.2
2022-10-30T22:43	10	-1	0.1	-1	-1					12.3	98.1
2022-10-30T22:44	10	-1	0.1	-1	0					12.2	98.0
2022-10-30T22:45	10	-1	0.1	-1	0					11.8	97.7
2022-10-30T22:46	10	0	0.1	-1	0					11.8	97.6
2022-10-30T22:47	10	-1	0.1	-1	0					11.9	97.9
2022-10-30T22:48	10	0	0.1	-1	0					12.0	98.0
2022-10-30T22:49	10	0	0.1	-1	0					12.0	98.1
2022-10-30T22:50	10	0	0.1	-1	0					11.9	98.0
2022-10-30T22:51	10	0	0.1	-1	0					11.9	98.1
2022-10-30T22:52	10	0	0.1	-1	0					12.1	98.2
2022-10-30T22:53	10	0	0.1	-1	0					12.1	98.3
2022-10-30T22:54	10	0	0.1	-1	0					12.1	98.2
2022-10-30T22:55	10	0	0.2	-1	0					12.1	98.2
2022-10-30T22:56	10	0	0.1	-1	0					12.0	98.1
2022-10-30T22:57	10	0	0.1	-1	0					12.0	98.1
2022-10-30T22:58	10	0	0.1	-1	0					11.9	97.9
2022-10-30T22:59	10	0	0.1	0	0					11.8	97.9
2022-10-30T23:00	10	0	0.1	-1	0					11.8	98.0
2022-10-30T23:01	10	0	0.1	-1	0					11.8	98.0
2022-10-30T23:02	10	0	0.2	-1	0					11.8	98.0
2022-10-30T23:03	10	0	0.1	-1	0					11.7	98.0
2022-10-30T23:04	10	0	0.2	-1	0					11.7	98.0
2022-10-30T23:05	10	-1	0.1	-1	0					11.8	98.0
2022-10-30T23:06	10	-1	0.1	-1	0					12.0	97.9
2022-10-30T23:07	10	0	0.1	-1	0					12.1	97.9
2022-10-30T23:08	10	-1	0.1	-1	0					12.1	97.7
2022-10-30T23:09	10	0	0.1	-1	0					12.0	97.3
2022-10-30T23:10	10	0	0.1	-1	0					11.9	97.1
2022-10-30T23:11	10	0	0.1	-1	0					12.1	97.0
2022-10-30T23:12	10	-1	0.1	-1	0					12.3	97.0
2022-10-30T23:13	10	-1	0.1	-1	0					12.4	96.6
2022-10-30T23:14	10	-1	0.1	-1	-1					12.4	96.1
2022-10-30T23:15	10	-1	0.1	-1	-1					12.4	95.7
2022-10-30T23:16	10	-1	0.1	-1	-1					12.4	95.3
2022-10-30T23:17	10	-1	0.1	-1	-1					12.3	95.0
2022-10-30T23:18	10	-1	0.1	-1	-1					12.1	94.8
2022-10-30T23:19	10	-1	0.1	-1	-1					12.0	94.9
2022-10-30T23:20	10	-1	0.1	-1	-1					11.9	95.1
2022-10-30T23:21	10	-1	0.1	-1	-1					11.8	95.2
2022-10-30T23:22	10	-1	0.1	-1	-1					11.9	95.4
2022-10-30T23:23	10	-1	0.1	-1	-1					11.8	95.1
2022-10-30T23:24	10	-1	0.1	-1	-1					11.6	95.0
2022-10-30T23:25	10	-1	0.1	-1	-1					11.6	95.1
2022-10-30T23:26	10	-1	0.1	-1	-1					11.8	95.3
2022-10-30T23:27	10	-1	0.1	-1	-1					11.8	95.0
2022-10-30T23:28	10	-1	0.1	-1	-1					11.4	94.6
2022-10-30T23:29	10	-1	0.1	-1	-1					11.3	95.3
2022-10-30T23:30	10	-1	0.1	-1	-1					11.2	96.1
2022-10-30T23:31	10	-1	0.1	-1	-1					11.2	96.4
2022-10-30T23:32	10	-1	0.1	-1	-1					11.3	96.8
2022-10-30T23:33	10	-1	0.1	-1	-1					11.2	96.8
2022-10-30T23:34	10	-1	0.1	-1	0					11.3	97.2
2022-10-30T23:35	10	-1	0.1	-1	0					11.3	97.4
2022-10-30T23:36	10	0	0.1	-1	0					11.3	97.4
2022-10-30T23:37	10	0	0.1	-1	0					11.3	97.5
2022-10-30T23:38	10	0	0.1	0	0					11.2	97.4
2022-10-30T23:39	10	0	0.1	0	0					11.1	97.4
2022-10-30T23:40	10	0	0.1	0	0					11.1	97.5
2022-10-30T23:41	10	0	0.1	0	0					11.2	97.7
2022-10-30T23:42	10	0	0.1	0	0					11.2	97.8
2022-10-30T23:43	10	0	0.1	0	0					11.1	97.8
2022-10-30T23:44	10	0	0.1	0	0					11.1	97.8
2022-10-30T23:45	10	0	0.1	0	0					11.1	97.9
2022-10-30T23:46	10	0	0.1	0	0					11.1	97.9
2022-10-30T23:47	10	0	0.1	0	0					11.1	97.8
2022-10-30T23:48	10	0	0.1	0	0					11.1	97.8
2022-10-30T23:49	10	0	0.1	0	0					11.1	97.8
2022-10-30T23:50	10	0	0.1	0	0					11.1	97.8
2022-10-30T23:51	10	0	0.1	0	0					11.1	97.8
2022-10-30T23:52	10	0	0.1	0	0					11.1	97.8
2022-10-30T23:53	10	0	0.1	0	0					11.1	97.7
2022-10-30T23:54	10	0	0.1	0	0					11.1	97.7
2022-10-30T23:55	10	0	0.1	0	0					11.1	97.7
2022-10-30T23:56	10	0	0.1	0	0					11.1	97.7
2022-10-30T23:57	10	0	0.1	0	0					11.1	97.7
2022-10-30T23:58	10	0	0.1	0	0					11.1	97.7
2022-10-30T23:59	10	0	0.1	0	0					11.1	97.7
2022-10-31T00:00	10	0	0.1	0	0					11.1	97.7
2022-10-31T00:01	10	0	0.1	0	0					11.2	97.7
2022-10-31T00:02	10	0	0.1	0	0					11.3	97.7
2022-10-31T00:03	10	0	0.1	0	0					11.3	97.6
2022-10-31T00:04	10	0	0.1	0	0					11.4	97.5
2022-10-31T00:05	10	0	0.1	0	0					11.4	97.4
2022-10-31T00:06	10	0	0.1	0	0					11.4	97.3
2022-10-31T00:07	10	0	0.1	0	0					11.3	97.1
2022-10-31T00:08	10	0	0.1	0	0					11.3	97.2
2022-10-31T00:09	10	0	0.1	0	0					11.4	97.3
2022-10-31T00:10	10	0	0.1	-1	0					11.5	97.4
2022-10-31T00:11	10	0	0.1	-1	0					11.5	97.4
2022-10-31T00:12	10	0	0.1	-1	0					11.5	97.4
2022-10-31T00:13	10	0	0.1	0	0					11.6	97.5
2022-10-31T00:14	10	0	0.1	0	0					11.6	97.5
2022-10-31T00:15	10	0	0.1	0	0					11.5	97.5
2022-10-31T00:16	10	0	0.1	0	0					11.6	97.6
2022-10-31T00:17	10	0	0.1	0	0					11.6	97.6
2022-10-31T00:18	10	0	0.1	0	0					11.7	97.6
2022-10-31T00:19	10	0	0.1	0	0					11.6	97.5
2022-10-31T00:20	10	0	0.1	0	0					11.4	97.3
2022-10-31T00:21	10	0	0.1	0	0					11.4	97.4
2022-10-31T00:22	10	0	0.1	0	0					11.4	97.5
2022-10-31T00:23	10	0	0.1	0	0					11.4	97.5
2022-10-31T00:24	10	0	0.0	0	0					11.4	97.5
2022-10-31T00:25	10	0	0.1	0	0					11.3	97.6
2022-10-31T00:26	10	0	0.1	-1	0					11.3	97.8
2022-10-31T00:27	10	0	0.1	-1	0					11.2	97.8
2022-10-31T00:28	10	-1	0.1	-1	0					11.3	98.0
2022-10-31T00:29	10	-1	0.1	-1	0					11.2	98.1
2022-10-31T00:30	10	-1	0.1	-1	0					11.2	98.1
2022-10-31T00:31	10	0	0.1	-1	0					11.1	98.1
2022-10-31T00:32	10	-1	0.1	-1	0					11.1	98.1
2022-10-31T00:33	10	-1	0.1	-1	0					11.0	98.2
2022-10-31T00:34	10	-1	0.1	-1	0					10.9	98.2
2022-10-31T00:35	10	-1	0.1	-1	-1					10.9	98.2
2022-10-31T00:36	10	-1	0.1	-1	-1					10.9	98.3
2022-10-31T00:37	10	-1	0.1	-1	-1					11.0	98.4
2022-10-31T00:38	10	-1	0.1	-1	-1					11.1	98.4
2022-10-31T00:39	10	-1	0.1	-1	-1					11.1	98.5
2022-10-31T00:40	10	-1	0.1	-1	-1					11.1	98.4
2022-10-31T00:41	10	-1	0.1	-1	-1					11.1	98.3
2022-10-31T00:42	10	-1	0.1	-1	-1					11.0	98.3
2022-10-31T00:43	10	-1	0.1	-1	-1					11.1	98.1
2022-10-31T00:44	10	-1	0.1	-1	-1					11.2	97.9
2022-10-31T00:45	10	-1	0.1	-2	-1					11.2	97.6
2022-10-31T00:46	10	-1	0.1	-2	-1					11.2	97.3
2022-10-31T00:47	10	-1	0.1	-2	-1					11.2	96.9
2022-10-31T00:48	10	-1	0.1	-2	-1					11.1	96.5
2022-10-31T00:49	10	-1	0.1	-2	-1					10.9	96.2
2022-10-31T00:50	10	-1	0.1	-2	-1					11.0	96.2
2022-10-31T00:51	10	-1	0.1	-1	-1					11.2	96.3
2022-10-31T00:52	10	-1	0.1	-2	-1					11.2	96.0
2022-10-31T00:53	10	-1	0.1	-1	-1					11.1	95.7
2022-10-31T00:54	10	-1	0.1	-1	-1					11.1	95.6
2022-10-31T00:55	10	-1	0.1	-1	-1					11.1	95.7
2022-10-31T00:56	10	-1	0.1	-1	-1					11.0	95.7
2022-10-31T00:57	10	-1	0.1	-1	-1					11.1	95.7
2022-10-31T00:58	10	-1	0.1	-2	-1					11.2	95.7
2022-10-31T00:59	10	-1	0.1	-1	-1					11.0	95.4
2022-10-31T01:00	10	-1	0.1	-1	-1					11.0	95.4
2022-10-31T01:01	10	-1	0.1	-2	-1					10.9	95.2
2022-10-31T01:02	10	-1	0.1	-1	-1					10.9	95.3
2022-10-31T01:03	10	-1	0.1	-1	-1					11.0	95.4
2022-10-31T01:04	10	-1	0.1	-2	-1					10.9	95.3
2022-10-31T01:05	10	-1	0.1	-2	-1					11.0	95.4
2022-10-31T01:06	10	-2	0.1	-2	-1					11.0	95.2
2022-10-31T01:07	10	-2	0.1	-2	-2					10.9	95.0
2022-10-31T01:08	10	-2	0.1	-2	-2					10.9	95.2
2022-10-31T01:09	10	-2	0.1	-2	-2					10.9	95.5
2022-10-31T01:10	10	-2	0.1	-2	-2					11.0	95.6
2022-10-31T01:11	10	-2	0.1	-2	-2					11.1	95.8
2022-10-31T01:12	10	-2	0.1	-2	-2					11.0	95.8
2022-10-31T01:13	10	-2	0.1	-2	-2					10.9	95.7
2022-10-31T01:14	10	-2	0.1	-2	-2					10.9	95.7
2022-10-31T01:15	10	-2	0.1	-2	-2					11.0	95.8
2022-10-31T01:16	10	-2	0.1	-2	-1					11.1	95.8
2022-10-31T01:17	10	-1	0.1	-2	-1					11.1	95.8
2022-10-31T01:18	10	-1	0.1	-1	-1					11.1	95.8
2022-10-31T01:19	10	-1	0.1	-1	-1					11.1	95.7
2022-10-31T01:20	10	-1	0.1	-1	-1					11.0	95.7
2022-10-31T01:21	10	-1	0.1	-1	-1					11.0	95.7
2022-10-31T01:22	10	-1	0.1	-1	-1					11.0	95.8
2022-10-31T01:23	10	-1	0.1	-1	-1					11.0	95.8
2022-10-31T01:24	10	-1	0.1	-1	-1					11.0	95.9
2022-10-31T01:25	10	-1	0.1	-1	-1					11.0	96.0
2022-10-31T01:26	10	-1	0.1	-1	-1					10.9	96.0
2022-10-31T01:27	10	-1	0.1	-1	-1					10.9	96.0
2022-10-31T01:28	10	-1	0.1	-1	-1					10.7	96.0
2022-10-31T01:29	10	-1	0.1	-1	-1					10.8	96.3
2022-10-31T01:30	10	-1	0.1	-1	-1					11.0	96.5
2022-10-31T01:31	10	-1	0.1	-1	-1					11.1	96.5
2022-10-31T01:32	10	-1	0.1	-1	-1					11.1	96.4
2022-10-31T01:33	10	-1	0.1	-1	-1					11.1	96.3
2022-10-31T01:34	10	-1	0.1	-1	-1					11.1	96.2
2022-10-31T01:35	10	-1	0.1	-1	-1					11.1	96.1
2022-10-31T01:36	10	-1	0.1	-1	-1					11.1	96.0
2022-10-31T01:37	10	-1	0.1	-1	-1					11.1	95.9
2022-10-31T01:38	10	-1	0.1	-1	-1					11.1	95.8
2022-10-31T01:39	10	-1	0.1	-1	-1					11.1	95.7
2022-10-31T01:40	10	-1	0.1	-1	-1					11.1	95.7
2022-10-31T01:41	10	-1	0.1	-1	-1					11.2	95.8
2022-10-31T01:42	10	-1	0.1	-1	-1					11.3	95.6
2022-10-31T01:43	10	-1	0.1	-1	-1					11.2	95.4
2022-10-31T01:44	10	-1	0.1	-2	-1					11.1	95.3
2022-10-31T01:45	10	-1	0.1	-2	-1					11.3	95.4
2022-10-31T01:46	10	-2	0.1	-2	-1					11.3	95.2
2022-10-31T01:47	10	-2	0.1	-2	-2					11.4	95.1
2022-10-31T01:48	10	-2	0.1	-2	-2					11.4	94.9
2022-10-31T01:49	10	-2	0.1	-2	-2					11.4	94.7
2022-10-31T01:50	10	-2	0.1	-2	-2					11.4	94.6
2022-10-31T01:51	10	-2	0.1	-2	-2					11.4	94.5
2022-10-31T01:52	10	-2	0.1	-2	-2					11.4	94.4
2022-10-31T01:53	10	-2	0.1	-2	-1					11.4	94.3
2022-10-31T01:54	10	-2	0.1	-2	-1					11.4	94.2
2022-10-31T01:55	10	-2	0.1	-2	-1					11.4	94.1
2022-10-31T01:56	10	-1	0.1	-2	-1					11.5	93.9
2022-10-31T01:57	10	-1	0.1	-2	-1					11.5	93.6
2022-10-31T01:58	10	-1	0.1	-2	-1					11.5	93.4
2022-10-31T01:59	10	-1	0.1	-2	-1					11.5	93.4
2022-10-31T02:00	10	-1	0.1	-2	-1					11.4	93.2
2022-10-31T02:01	10	-2	0.1	-2	-1					11.4	93.4
2022-10-31T02:02	10	-1	0.1	-2	-1					11.4	93.4
2022-10-31T02:03	10	-1	0.1	-2	-1					11.4	93.4
2022-10-31T02:04	10	-1	0.1	-2	-1					11.4	93.5
2022-10-31T02:05	10	-1	0.1	-1	-1					11.4	93.5
2022-10-31T02:06	10	-1	0.1	-1	-1					11.5	93.6
2022-10-31T02:07	10	-1	0.1	-1	-1					11.4	93.4
2022-10-31T02:08	10	-1	0.1	-1	-1					11.3	93.5
2022-10-31T02:09	10	-1	0.1	-1	-1					11.4	93.6
2022-10-31T02:10	10	-1	0.1	-1	0					11.4	93.7
2022-10-31T02:11	10	-1	0.1	-1	0					11.4	93.6
2022-10-31T02:12	10	0	0.1	-1	0					11.4	93.6
2022-10-31T02:13	10	0	0.1	-1	0					11.4	93.6
2022-10-31T02:14	10	0	0.1	0	0					11.4	93.7
2022-10-31T02:15	10	0	0.1	0	0					11.4	93.6
2022-10-31T02:16	10	0	0.1	0	0					11.6	93.4
2022-10-31T02:17	10	0	0.1	0	0					11.5	93.1
2022-10-31T02:18	10	0	0.1	0	0					11.5	93.2
2022-10-31T02:19	10	0	0.1	0	0					11.4	93.1
2022-10-31T02:20	10	0	0.1	0	0					11.3	93.2
2022-10-31T02:21	10	0	0.1	0	0					11.2	93.4
2022-10-31T02:22	10	0	0.1	0	0					11.1	93.7
2022-10-31T02:23	10	0	0.1	0	0					11.1	94.0
2022-10-31T02:24	10	0	0.1	0	0					11.1	94.1
2022-10-31T02:25	10	0	0.1	0	0					11.0	94.3
2022-10-31T02:26	10	0	0.1	0	0					10.9	94.5
2022-10-31T02:27	10	0	0.1	0	0					10.9	94.7
2022-10-31T02:28	10	0	0.1	0	1					10.8	94.9
2022-10-31T02:29	10	0	0.1	0	1					10.9	95.2
2022-10-31T02:30	10	0	0.1	0	0					10.7	95.3
2022-10-31T02:31	10	0	0.2	0	0					10.5	95.4
2022-10-31T02:32	10	-1	0.1	-1	0					10.5	96.0
2022-10-31T02:33	10	-1	0.1	-1	-1					10.6	96.4
2022-10-31T02:34	10	-1	0.1	-1	-1					10.6	96.4
2022-10-31T02:35	10	-1	0.1	-1	-1					10.3	96.1
2022-10-31T02:36	10	-1	0.1	-1	-1					10.2	96.3
2022-10-31T02:37	10	-1	0.1	-1	-1					10.1	96.4
2022-10-31T02:38	10	-2	0.1	-2	-1					10.2	96.8
2022-10-31T02:39	10	-2	0.1	-2	-2					10.4	97.1
2022-10-31T02:40	10	-2	0.1	-2	-2					10.6	97.2
2022-10-31T02:41	10	-2	0.1	-2	-2					10.7	96.9
2022-10-31T02:42	10	-2	0.1	-2	-2					10.6	96.6
2022-10-31T02:43	10	-2	0.1	-2	-1					10.5	96.3
2022-10-31T02:44	10	-2	0.1	-2	-1					10.4	96.3
2022-10-31T02:45	10	-2	0.1	-2	-2					10.2	96.2
2022-10-31T02:46	10	-2	0.1	-2	-2					10.3	96.6
2022-10-31T02:47	10	-2	0.1	-2	-2					10.4	96.6
2022-10-31T02:48	10	-2	0.1	-2	-2					10.6	96.7
2022-10-31T02:49	10	-2	0.1	-2	-2					10.8	96.7
2022-10-31T02:50	10	-2	0.1	-2	-1					10.9	96.4
2022-10-31T02:51	10	-1	0.1	-2	-1					10.9	96.0
2022-10-31T02:52	10	-1	0.1	-2	-1					10.9	95.8
2022-10-31T02:53	10	-1	0.1	-1	-1					10.8	95.7
2022-10-31T02:54	10	-1	0.1	-1	-1					10.6	95.6
2022-10-31T02:55	10	-1	0.1	-1	-1					10.7	95.8
2022-10-31T02:56	10	-1	0.1	-1	0					10.6	95.8
2022-10-31T02:57	10	-1	0.1	-1	0					10.5	95.8
2022-10-31T02:58	10	-1	0.1	-1	0					10.5	95.9
2022-10-31T02:59	10	-1	0.1	-1	-1					10.4	95.9
2022-10-31T03:00	10	-1	0.1	-1	0					10.5	96.1
2022-10-31T03:01	10	-1	0.1	-1	0					10.4	96.1
2022-10-31T03:02	10	-1	0.1	-1	-1					10.4	96.1
2022-10-31T03:03	10	-1	0.1	-1	-1					10.5	96.4
2022-10-31T03:04	10	-1	0.1	-1	-1					10.5	96.4
2022-10-31T03:05	10	-1	0.1	-1	-1					10.5	96.5
2022-10-31T03:06	10	-1	0.1	-1	-1					10.4	96.6
2022-10-31T03:07	10	-1	0.1	-1	-1					10.4	96.6
2022-10-31T03:08	10	-1	0.1	-1	-1					10.4	96.7
2022-10-31T03:09	10	-1	0.1	-1	0					10.4	96.8
2022-10-31T03:10	10	0	0.1	-1	0					10.4	96.8
2022-10-31T03:11	10	0	0.1	0	0					10.4	96.8
2022-10-31T03:12	10	0	0.1	0	0					10.4	96.8
2022-10-31T03:13	10	0	0.1	0	0					10.4	96.9
2022-10-31T03:14	10	0	0.1	0	0					10.4	96.9
2022-10-31T03:15	10	0	0.1	0	0					10.4	97.0
2022-10-31T03:16	10	0	0.1	0	0					10.4	97.0
2022-10-31T03:17	10	0	0.1	0	0					10.4	97.1
2022-10-31T03:18	10	0	0.1	0	0					10.5	97.1
2022-10-31T03:19	10	0	0.1	0	0					10.4	97.0
2022-10-31T03:20	10	0	0.1	0	0					10.5	97.0
2022-10-31T03:21	10	0	0.1	0	0					10.6	97.1
2022-10-31T03:22	10	0	0.1	0	0					10.5	97.0
2022-10-31T03:23	10	0	0.1	0	0					10.5	96.9
2022-10-31T03:24	10	0	0.1	0	0					10.4	96.8
2022-10-31T03:25	10	0	0.1	0	0					10.5	96.9
2022-10-31T03:26	10	0	0.1	0	0					10.6	97.0
2022-10-31T03:27	10	0	0.1	0	0					10.6	96.9
2022-10-31T03:28	10	0	0.1	0	0					10.6	96.8
2022-10-31T03:29	10	0	0.1	0	0					10.5	96.7
2022-10-31T03:30	10	0	0.1	0	0					10.5	96.6
2022-10-31T03:31	10	0	0.1	0	0					10.5	96.6
2022-10-31T03:32	10	0	0.1	0	0					10.4	96.6
2022-10-31T03:33	10	0	0.1	0	0					10.4	96.8
2022-10-31T03:34	10	0	0.1	0	0					10.4	97.0
2022-10-31T03:35	10	0	0.1	0	0					10.4	97.1
2022-10-31T03:36	10	0	0.1	0	0					10.4	97.2
2022-10-31T03:37	10	0	0.1	0	0					10.4	97.2
2022-10-31T03:38	10	0	0.0	0	0					10.4	97.3
2022-10-31T03:39	10	0	0.1	0	0					10.4	97.3
2022-10-31T03:40	10	0	0.1	0	0					10.4	97.4
2022-10-31T03:41	10	0	0.1	0	0					10.4	97.4
2022-10-31T03:42	10	0	0.1	0	0					10.5	97.4
2022-10-31T03:43	10	0	0.1	0	0					10.6	97.5
2022-10-31T03:44	10	0	0.1	0	0					10.6	97.5
2022-10-31T03:45	10	0	0.1	0	0					10.7	97.4
2022-10-31T03:46	10	0	0.1	0	0					10.7	97.3
2022-10-31T03:47	10	0	0.1	0	0					10.7	97.2
2022-10-31T03:48	10	0	0.1	0	0					10.6	97.0
2022-10-31T03:49	10	0	0.1	0	0					10.5	96.9
2022-10-31T03:50	10	0	0.1	0	0					10.3	96.7
2022-10-31T03:51	10	0	0.1	0	0					10.2	96.8
2022-10-31T03:52	10	0	0.1	-1	0					10.3	97.0
2022-10-31T03:53	10	-1	0.1	-1	-1					10.4	97.3
2022-10-31T03:54	10	-1	0.1	-1	-1					10.4	97.3
2022-10-31T03:55	10	-1	0.1	-1	-1					10.5	97.4
2022-10-31T03:56	10	-1	0.1	-1	0					10.4	97.5
2022-10-31T03:57	10	0	0.1	-1	0					10.4	97.4
2022-10-31T03:58	10	0	0.1	-1	0					10.3	97.4
2022-10-31T03:59	10	0	0.1	-1	0					10.3	97.4
2022-10-31T04:00	10	0	0.1	0	0					10.3	97.5
2022-10-31T04:01	10	0	0.1	0	0					10.3	97.6
2022-10-31T04:02	10	0	0.1	0	0					10.3	97.6
2022-10-31T04:03	10	0	0.1	0	0					10.2	97.6
2022-10-31T04:04	10	0	0.1	0	0					10.2	97.6
2022-10-31T04:05	10	0	0.1	0	0					10.2	97.7
2022-10-31T04:06	10	0	0.1	0	0					10.3	97.8
2022-10-31T04:07	10	0	0.1	0	0					10.3	97.8
2022-10-31T04:08	10	0	0.1	0	0					10.2	97.9
2022-10-31T04:09	10	0	0.1	0	0					10.3	97.9
2022-10-31T04:10	10	0	0.0	0	0					10.3	97.9
2022-10-31T04:11	10	0	0.1	0	0					10.3	98.0
2022-10-31T04:12	10	0	0.1	0	0					10.3	97.9
2022-10-31T04:13	10	0	0.1	0	0					10.4	97.9
2022-10-31T04:14	10	0	0.1	-1	0					10.3	97.8
2022-10-31T04:15	10	-1	0.1	-1	0					10.3	97.7
2022-10-31T04:16	10	-1	0.1	-1	-1					10.2	97.7
2022-10-31T04:17	10	-1	0.1	-1	-1					10.2	97.6
2022-10-31T04:18	10	-1	0.1	-1	-1					10.2	97.6
2022-10-31T04:19	10	-1	0.0	-1	-1					10.1	97.5
2022-10-31T04:20	10	-1	0.1	-1	-1					10.1	97.6
2022-10-31T04:21	10	-1	0.1	-1	-1					10.2	97.7
2022-10-31T04:22	10	-1	0.1	-1	-1					10.2	97.7
2022-10-31T04:23	10	-1	0.1	-1	-1					10.2	97.7
2022-10-31T04:24	10	-1	0.1	-1	-1					10.2	97.6
2022-10-31T04:25	10	-1	0.1	-1	-1					10.1	97.5
2022-10-31T04:26	10	-1	0.1	-1	-1					10.1	97.4
2022-10-31T04:27	10	-1	0.1	-1	-1					10.0	97.4
2022-10-31T04:28	10	-1	0.1	-1	-1					9.9	97.4
2022-10-31T04:29	10	-1	0.1	-1	0					9.9	97.5
2022-10-31T04:30	10	0	0.1	-1	0					9.9	97.5
2022-10-31T04:31	10	0	0.1	0	0					9.9	97.5
2022-10-31T04:32	10	0	0.1	0	0					9.9	97.6
2022-10-31T04:33	10	0	0.1	0	0					9.9	97.6
2022-10-31T04:34	10	0	0.1	0	0					9.9	97.6
2022-10-31T04:35	10	0	0.1	0	0					9.9	97.7
2022-10-31T04:36	10	0	0.1	0	0					9.9	97.8
2022-10-31T04:37	10	0	0.1	0	0					9.9	97.8
2022-10-31T04:38	10	0	0.0	0	0					9.9	97.9
2022-10-31T04:39	10	0	0.1	0	0					9.9	97.9
2022-10-31T04:40	10	0	0.1	0	0					9.9	98.0
2022-10-31T04:41	10	0	0.1	0	0					9.9	98.0
2022-10-31T04:42	10	0	0.1	0	0					9.9	98.1
2022-10-31T04:43	10	0	0.1	0	0					9.9	98.1
2022-10-31T04:44	10	0	0.1	0	0					10.0	98.1
2022-10-31T04:45	10	0	0.1	0	0					10.0	98.1
2022-10-31T04:46	10	0	0.1	0	0					9.9	98.1
2022-10-31T04:47	10	0	0.1	0	0					9.8	98.1
2022-10-31T04:48	10	0	0.1	0	0					9.8	98.2
2022-10-31T04:49	10	0	0.1	0	0					9.8	98.2
2022-10-31T04:50	10	0	0.1	0	0					9.9	98.3
2022-10-31T04:51	10	0	0.1	0	0					9.9	98.4
2022-10-31T04:52	10	0	0.1	0	0					9.9	98.4
2022-10-31T04:53	10	0	0.1	0	0					9.9	98.5
2022-10-31T04:54	10	0	0.1	0	0					9.9	98.5
2022-10-31T04:55	10	0	0.1	0	0					10.0	98.6
2022-10-31T04:56	10	0	0.1	0	0					9.9	98.6
2022-10-31T04:57	10	0	0.0	0	0					10.0	98.7
2022-10-31T04:58	10	0	0.1	0	0					10.0	98.7
2022-10-31T04:59	10	0	0.1	0	0					9.9	98.8
2022-10-31T05:00	10	0	0.1	0	0					10.0	98.9
2022-10-31T05:01	10	0	0.0	0	0					10.0	99.0
2022-10-31T05:02	10	0	0.0	0	0					10.1	99.1
2022-10-31T05:03	10	0	0.1	0	1					10.2	99.2
2022-10-31T05:04	10	0	0.1	0	0					10.3	99.2
2022-10-31T05:05	10	0	0.1	0	0					10.3	99.2
2022-10-31T05:06	10	0	0.1	0	0					10.3	99.2
2022-10-31T05:07	10	0	0.0	0	0					10.4	99.2
2022-10-31T05:08	10	0	0.1	0	0					10.4	99.2
2022-10-31T05:09	10	0	0.0	0	0					10.2	99.2
2022-10-31T05:10	10	0	0.1	0	0					10.2	99.2
2022-10-31T05:11	10	0	0.1	0	0					10.2	99.2
2022-10-31T05:12	10	0	0.1	0	0					10.2	99.2
2022-10-31T05:13	10	0	0.1	0	0					10.3	99.2
2022-10-31T05:14	10	0	0.1	0	0					10.4	99.2
2022-10-31T05:15	10	0	0.1	0	0					10.4	99.2
2022-10-31T05:16	10	0	0.1	0	0					10.4	99.2
2022-10-31T05:17	10	0	0.1	0	0					10.4	99.2
2022-10-31T05:18	10	0	0.1	0	0					10.4	99.2
2022-10-31T05:19	10	0	0.1	0	1					10.4	99.2
2022-10-31T05:20	10	0	0.1	0	0					10.4	99.2
2022-10-31T05:21	10	0	0.1	0	1					10.0	99.2
2022-10-31T05:22	10	0	0.1	0	0					10.1	99.2
2022-10-31T05:23	10	0	0.1	0	0					9.9	99.2
2022-10-31T05:24	10	0	0.1	-1	0					9.9	99.2
2022-10-31T05:25	10	0	0.1	0	0					9.9	99.2
2022-10-31T05:26	10	0	0.1	-1	0					9.9	99.2
2022-10-31T05:27	10	0	0.1	-1	0					9.8	99.2
2022-10-31T05:28	10	0	0.1	-1	0					9.9	99.2
2022-10-31T05:29	10	0	0.1	-1	0					9.9	99.2
2022-10-31T05:30	10	0	0.1	-1	0					10.0	99.2
2022-10-31T05:31	10	0	0.1	0	0					10.1	99.2
2022-10-31T05:32	10	0	0.1	0	0					10.2	99.2
2022-10-31T05:33	10	0	0.1	0	0					10.2	99.2
2022-10-31T05:34	10	0	0.1	0	0					10.1	99.2
2022-10-31T05:35	10	0	0.1	0	0					10.0	99.2
2022-10-31T05:36	10	0	0.1	0	0					10.0	99.2
2022-10-31T05:37	10	0	0.1	0	0					10.1	99.2
2022-10-31T05:38	10	0	0.0	0	0					10.1	99.2
2022-10-31T05:39	10	0	0.1	0	0					10.1	99.2
2022-10-31T05:40	10	0	0.1	0	0					10.2	99.2
2022-10-31T05:41	10	0	0.1	0	0					10.2	99.2
2022-10-31T05:42	10	0	0.1	-1	0					10.1	99.2
2022-10-31T05:43	10	0	0.1	-1	0					10.0	99.2
2022-10-31T05:44	10	-1	0.1	-1	0					10.0	99.2
2022-10-31T05:45	10	-1	0.1	-1	-1					10.1	99.2
2022-10-31T05:46	10	-1	0.1	-2	-1					10.2	99.2
2022-10-31T05:47	10	-2	0.1	-2	-1					10.2	99.2
2022-10-31T05:48	10	-2	0.1	-2	-2					10.3	99.2
2022-10-31T05:49	10	-2	0.1	-2	-2					10.2	99.2
2022-10-31T05:50	10	-2	0.1	-2	-2					10.2	99.2
2022-10-31T05:51	10	-2	0.0	-2	-2					10.2	99.2
2022-10-31T05:52	10	-2	0.1	-2	-2					10.2	99.2
2022-10-31T05:53	10	-2	0.1	-2	-2					10.1	99.2
2022-10-31T05:54	10	-2	0.1	-2	-2					10.2	99.2
2022-10-31T05:55	10	-2	0.1	-2	-2					10.2	99.2
2022-10-31T05:56	10	-2	0.1	-2	-1					10.2	99.2
2022-10-31T05:57	10	-1	0.1	-1	-1					10.2	99.2
2022-10-31T05:58	10	-1	0.1	-1	0					10.3	99.2
2022-10-31T05:59	10	0	0.1	-1	0					10.3	99.2
2022-10-31T06:00	10	0	0.1	0	0					10.3	99.2
2022-10-31T06:01	10	0	0.1	0	0					10.3	99.2
2022-10-31T06:02	10	0	0.1	0	0					10.4	99.2
2022-10-31T06:03	10	0	0.1	0	0					10.4	99.2
2022-10-31T06:04	10	0	0.1	0	0					10.4	99.2
2022-10-31T06:05	10	0	0.0	0	0					10.5	99.2
2022-10-31T06:06	10	0	0.1	0	0					10.5	99.2
2022-10-31T06:07	10	0	0.1	-1	0					10.4	99.2
2022-10-31T06:08	10	-1	0.1	-1	-1					10.4	99.2
2022-10-31T06:09	10	-1	0.1	-1	-1					10.4	99.2
2022-10-31T06:10	10	-1	0.1	-1	-1					10.4	99.2
2022-10-31T06:11	10	-1	0.1	-1	-1					10.5	99.2
2022-10-31T06:12	10	-1	0.1	-1	-1					10.4	99.2
2022-10-31T06:13	10	-1	0.1	-1	-1					10.5	99.2
2022-10-31T06:14	10	-1	0.1	-1	-1					10.4	99.2
2022-10-31T06:15	10	-1	0.1	-1	-1					10.4	99.2
2022-10-31T06:16	10	-1	0.1	-1	-1					10.4	99.2
2022-10-31T06:17	10	-1	0.1	-1	0					10.4	99.2
2022-10-31T06:18	10	0	0.1	-1	0					10.4	99.2
2022-10-31T06:19	10	0	0.1	0	0					10.4	99.2
2022-10-31T06:20	10	0	0.1	0	1					10.4	99.2
2022-10-31T06:21	10	1	0.1	0	1					10.4	99.2
2022-10-31T06:22	10	1	0.1	1	1					10.3	99.2
2022-10-31T06:23	10	1	0.1	1	1					10.2	99.2
2022-10-31T06:24	10	1	0.1	1	1					10.2	99.2
2022-10-31T06:25	10	1	0.1	1	1					10.1	99.2
2022-10-31T06:26	10	1	0.1	1	1					10.1	99.2
2022-10-31T06:27	10	1	0.1	1	1					10.1	99.2
2022-10-31T06:28	10	1	0.1	1	1					10.1	99.2
2022-10-31T06:29	10	1	0.1	1	1					10.1	99.2
2022-10-31T06:30	10	1	0.1	0	1					10.0	99.2
2022-10-31T06:31	10	1	0.1	0	1					10.0	99.2
2022-10-31T06:32	10	1	0.1	0	1					10.0	99.2
2022-10-31T06:33	10	1	0.1	0	1					10.0	99.2
2022-10-31T06:34	10	1	0.1	1	1					10.1	99.2
2022-10-31T06:35	10	1	0.1	1	1					10.0	99.2
2022-10-31T06:36	10	1	0.1	1	2					10.0	99.2
2022-10-31T06:37	10	2	0.1	2	2					10.0	99.2
2022-10-31T06:38	10	2	0.1	2	2					10.0	99.2
2022-10-31T06:39	10	2	0.1	2	2					10.1	99.2
2022-10-31T06:40	10	2	0.1	2	3					10.1	99.2
2022-10-31T06:41	10	3	0.1	3	3					10.1	99.2
2022-10-31T06:42	10	3	0.2	3	4					10.0	99.2
2022-10-31T06:43	10	4	0.1	3	4					10.1	99.2
2022-10-31T06:44	10	4	0.1	4	4					10.1	99.2
2022-10-31T06:45	10	4	0.1	4	5					10.1	99.2
2022-10-31T06:46	10	5	0.1	4	5					10.1	99.2
2022-10-31T06:47	10	5	0.1	5	5					10.1	99.2
2022-10-31T06:48	10	5	0.1	5	5					10.1	99.2
2022-10-31T06:49	10	5	0.1	5	6					10.1	99.2
2022-10-31T06:50	10	6	0.1	5	6					10.1	99.2
2022-10-31T06:51	10	6	0.1	6	6					10.1	99.2
2022-10-31T06:52	10	6	0.1	6	6					10.1	99.2
2022-10-31T06:53	10	6	0.2	6	7					10.1	99.2
2022-10-31T06:54	10	7	0.2	7	7					10.2	99.2
2022-10-31T06:55	10	7	0.2	7	8					10.2	99.2
2022-10-31T06:56	10	8	0.1	8	8					10.2	99.2
2022-10-31T06:57	10	8	0.1	8	8					10.3	99.2
2022-10-31T06:58	10	8	0.1	7	8					10.2	99.2
2022-10-31T06:59	10	7	0.1	7	8					10.2	99.2
2022-10-31T07:00	10	7	0.1	7	8					10.2	99.2
2022-10-31T07:01	10	8	0.3	8	9					10.2	99.2
2022-10-31T07:02	10	9	0.3	9	9					10.2	99.2
2022-10-31T07:03	10	10	0.2	9	10					10.2	99.2
2022-10-31T07:04	10	10	0.1	10	10					10.3	99.2
2022-10-31T07:05	10	10	0.2	9	10					10.3	99.2
2022-10-31T07:06	10	9	0.1	9	9					10.3	99.2
2022-10-31T07:07	10	10	0.3	9	10					10.3	99.2
2022-10-31T07:08	10	10	0.2	10	11					10.3	99.2
2022-10-31T07:09	10	11	0.1	10	11					10.4	99.2
2022-10-31T07:10	10	10	0.1	10	11					10.4	99.2
2022-10-31T07:11	10	11	0.2	10	11					10.4	99.2
2022-10-31T07:12	10	11	0.2	11	12					10.4	99.2
2022-10-31T07:13	10	12	0.2	12	12					10.4	99.2
2022-10-31T07:14	10	13	0.1	12	13					10.4	99.2
2022-10-31T07:15	10	13	0.2	13	13					10.4	99.2
2022-10-31T07:16	10	14	0.2	13	14					10.4	99.2
2022-10-31T07:17	10	14	0.2	14	15					10.5	99.2
2022-10-31T07:18	10	15	0.1	15	15					10.5	99.2
2022-10-31T07:19	10	15	0.1	15	15					10.5	99.2
2022-10-31T07:20	10	15	0.1	15	15					10.5	99.2
2022-10-31T07:21	10	15	0.1	15	15					10.5	99.2
2022-10-31T07:22	10	15	0.1	15	15					10.5	99.2
2022-10-31T07:23	10	15	0.2	15	16					10.5	99.2
2022-10-31T07:24	10	16	0.1	16	16					10.5	99.2
2022-10-31T07:25	10	16	0.1	16	16					10.5	99.2
2022-10-31T07:26	10	16	0.1	16	16					10.5	99.2
2022-10-31T07:27	10	17	0.2	16	17					10.5	99.2
2022-10-31T07:28	10	17	0.2	17	18					10.4	99.2
2022-10-31T07:29	10	18	0.1	18	18					10.4	99.2
2022-10-31T07:30	10	18	0.1	18	18					10.4	99.2
2022-10-31T07:31	10	19	0.3	18	19					10.4	99.2
2022-10-31T07:32	10	20	0.3	19	20					10.3	99.2
2022-10-31T07:33	10	20	0.2	20	21					10.3	99.2
2022-10-31T07:34	10	21	0.1	20	21					10.3	99.2
2022-10-31T07:35	10	21	0.1	21	21					10.4	99.2
2022-10-31T07:36	10	21	0.2	20	22					10.4	99.2
2022-10-31T07:37	10	21	0.3	20	22					10.4	99.2
2022-10-31T07:38	10	22	0.1	22	22					10.4	99.2
2022-10-31T07:39	10	22	0.1	22	22					10.4	99.2
2022-10-31T07:40	10	22	0.1	22	23					10.4	99.2
2022-10-31T07:41	10	23	0.2	22	23					10.4	99.2
2022-10-31T07:42	10	24	0.3	23	24					10.4	99.2
2022-10-31T07:43	10	25	0.3	24	25					10.3	99.2
2022-10-31T07:44	10	25	0.2	25	26					10.2	99.2
2022-10-31T07:45	10	25	0.2	24	26					10.3	99.2
2022-10-31T07:46	10	25	0.3	24	25					10.3	99.2
2022-10-31T07:47	10	25	0.9	24	27					10.3	99.2
2022-10-31T07:48	10	28	0.3	27	28					10.3	99.2
2022-10-31T07:49	10	29	0.4	28	29					10.4	99.2
2022-10-31T07:50	10	27	0.8	25	28					10.4	99.2
2022-10-31T07:51	10	25	0.4	24	26					10.4	99.2
2022-10-31T07:52	10	24	0.1	24	24					10.4	99.2
2022-10-31T07:53	10	24	0.2	24	24					10.4	99.2
2022-10-31T07:54	10	23	0.2	23	24					10.4	99.2
2022-10-31T07:55	10	23	0.1	23	24					10.4	99.2
2022-10-31T07:56	10	24	0.1	23	24					10.4	99.2
2022-10-31T07:57	10	23	0.1	23	24					10.3	99.2
2022-10-31T07:58	10	24	0.1	23	24					10.3	99.2
2022-10-31T07:59	10	24	0.2	24	24					10.3	99.2
2022-10-31T08:00	10	24	0.1	24	25					10.4	99.2
2022-10-31T08:01	10	25	0.1	24	25					10.4	99.2
2022-10-31T08:02	10	25	0.1	25	26					10.5	99.2
2022-10-31T08:03	10	26	0.1	25	26					10.6	99.2
2022-10-31T08:04	10	26	0.2	26	26					10.6	99.2
2022-10-31T08:05	10	26	0.1	26	27					10.5	99.2
2022-10-31T08:06	10	27	0.2	26	27					10.5	99.2
2022-10-31T08:07	10	27	0.2	27	27					10.5	99.2
2022-10-31T08:08	10	27	0.2	27	28					10.6	99.2
2022-10-31T08:09	10	28	0.2	28	28					10.6	99.2
2022-10-31T08:10	10	28	0.2	28	29					10.7	99.2
2022-10-31T08:11	10	29	0.2	29	29					10.7	99.2
2022-10-31T08:12	10	29	0.2	29	30					10.4	99.2
2022-10-31T08:13	10	30	0.2	29	30					10.5	99.2
2022-10-31T08:14	10	31	0.2	30	31					10.6	99.2
2022-10-31T08:15	10	31	0.2	31	32					10.6	99.2
2022-10-31T08:16	10	32	0.3	32	33					10.6	99.2
2022-10-31T08:17	10	34	0.5	33	35					10.6	99.2
2022-10-31T08:18	10	36	0.7	35	37					10.6	99.2
2022-10-31T08:19	10	38	0.3	37	38					10.7	99.2
2022-10-31T08:20	10	39	0.8	38	41					10.8	99.2
2022-10-31T08:21	10	49	3.5	41	53					10.7	99.2
2022-10-31T08:22	10	48	2.8	44	53					10.7	99.2
2022-10-31T08:23	10	40	2.2	37	44					10.9	99.2
2022-10-31T08:24	10	35	1.0	34	37					11.0	99.2
2022-10-31T08:25	10	33	0.4	33	34					10.8	99.2
2022-10-31T08:26	10	32	0.2	32	33					10.9	99.2
2022-10-31T08:27	10	32	0.1	32	32					11.0	99.2
2022-10-31T08:28	10	32	0.1	32	32					11.0	99.2
2022-10-31T08:29	10	32	0.2	31	32					10.9	99.2
2022-10-31T08:30	10	34	0.9	32	35					10.8	99.2
2022-10-31T08:31	10	36	0.3	35	37					10.8	99.2
2022-10-31T08:32	10	37	0.1	36	37					10.7	99.2
2022-10-31T08:33	10	38	0.8	37	40					10.7	99.2
2022-10-31T08:34	10	41	0.8	40	42					10.7	99.2
2022-10-31T08:35	10	43	0.6	42	44					10.8	99.2
2022-10-31T08:36	10	44	0.6	43	45					10.8	99.2
2022-10-31T08:37	10	45	0.3	44	45					10.8	99.2
2022-10-31T08:38	10	46	2.3	44	52					10.8	99.2
2022-10-31T08:39	10	51	0.9	50	52					10.8	99.2
2022-10-31T08:40	10	48	1.6	45	51					10.9	99.2
2022-10-31T08:41	10	53	6.6	45	66					10.9	99.2
2022-10-31T08:42	10	84	8.5	67	94					10.9	99.2
2022-10-31T08:43	10	97	1.2	94	99					11.0	99.2
2022-10-31T08:44	10	84	6.7	76	95					11.2	99.2
2022-10-31T08:45	10	70	5.1	58	76					11.2	99.2
2022-10-31T08:46	10	44	5.7	39	57					11.2	99.2
2022-10-31T08:47	10	40	0.5	39	41					11.2	99.2
2022-10-31T08:48	10	46	4.2	41	55					11.0	99.2
2022-10-31T08:49	10	60	3.0	55	65					11.0	99.2
2022-10-31T08:50	10	77	5.5	65	85					11.1	99.2
2022-10-31T08:51	10	90	1.8	86	92					11.1	99.2
2022-10-31T08:52	10	91	4.9	84	100					11.2	99.2
2022-10-31T08:53	10	105	2.1	100	109					11.4	99.2
2022-10-31T08:54	10	98	6.3	92	109					11.4	99.2
2022-10-31T08:55	10	93	2.5	90	98					11.4	99.2
2022-10-31T08:56	10	114	9.2	97	126					11.4	99.2
2022-10-31T08:57	10	132	3.6	126	137					11.8	99.2
2022-10-31T08:58	10	118	11.4	96	133					11.6	99.2
2022-10-31T08:59	10	90	12.0	77	115					11.2	99.2
2022-10-31T09:00	10	90	1.6	86	94					11.3	99.2
2022-10-31T09:01	10	99	2.9	94	104					11.4	99.2
2022-10-31T09:02	10	91	7.7	81	104					11.5	99.2
2022-10-31T09:03	10	87	4.3	80	104					11.3	99.2
2022-10-31T09:04	10	136	9.3	107	143					11.2	99.2
2022-10-31T09:05	10	136	4.3	128	142					11.3	99.2
2022-10-31T09:06	10	123	14.3	100	143					11.6	99.2
2022-10-31T09:07	10	142	3.0	135	145					11.8	99.2
2022-10-31T09:08	10	142	9.2	113	149					11.8	99.2
2022-10-31T09:09	10	85	11.1	71	111					12.0	99.2
2022-10-31T09:10	10	67	2.3	64	71					11.8	99.2
2022-10-31T09:11	10	61	1.3	59	64					11.9	99.2
2022-10-31T09:12	10	58	0.9	56	59					11.9	99.2
2022-10-31T09:13	10	54	1.1	52	56					11.8	99.2
2022-10-31T09:14	10	50	0.7	49	52					11.9	99.2
2022-10-31T09:15	10	48	0.4	48	49					11.9	99.2
2022-10-31T09:16	10	48	0.1	48	48					11.9	99.2
2022-10-31T09:17	10	48	0.3	48	49					11.8	99.2
2022-10-31T09:18	10	50	0.7	49	51					11.8	99.2
2022-10-31T09:19	10	54	1.6	51	57					11.9	99.2
2022-10-31T09:20	10	62	2.3	57	65					11.8	99.2
2022-10-31T09:21	10	71	3.2	66	76					11.8	99.2
2022-10-31T09:22	10	59	8.2	48	71					11.9	99.2
2022-10-31T09:23	10	45	2.2	42	49					11.9	99.2
2022-10-31T09:24	10	40	0.7	39	42					11.8	99.2
2022-10-31T09:25	10	39	0.1	39	40					11.7	99.2
2022-10-31T09:26	10	38	0.4	38	39					11.7	99.2
2022-10-31T09:27	10	37	0.5	36	38					11.7	99.2
2022-10-31T09:28	10	36	0.3	35	37					11.8	99.2
2022-10-31T09:29	10	37	2.3	35	45					11.8	99.2
2022-10-31T09:30	10	44	1.9	41	48					11.8	99.2
2022-10-31T09:31	10	43	4.4	38	50					11.8	99.2
2022-10-31T09:32	10	90	22.0	49	118					11.9	99.2
2022-10-31T09:33	10	113	4.9	105	120					12.0	99.2
2022-10-31T09:34	10	96	6.9	88	114					11.9	99.2
2022-10-31T09:35	10	115	2.5	109	120					11.8	99.2
2022-10-31T09:36	10	98	6.7	87	110					12.0	99.2
2022-10-31T09:37	10	97	5.7	87	105					12.2	99.2
2022-10-31T09:38	10	104	12.9	81	118					11.9	99.2
2022-10-31T09:39	10	119	11.5	102	134					12.0	99.2
2022-10-31T09:40	10	134	0.5	132	134					12.1	99.2
2022-10-31T09:41	10	113	11.4	90	131					12.0	99.2
2022-10-31T09:42	10	99	8.8	88	116					12.1	99.2
2022-10-31T09:43	10	72	13.7	51	95					12.3	99.2
2022-10-31T09:44	10	69	18.8	51	112					12.2	99.2
2022-10-31T09:45	10	111	13.0	80	128					12.2	99.2
2022-10-31T09:46	10	123	20.2	81	141					12.2	99.2
2022-10-31T09:47	10	130	9.5	111	141					12.6	99.2
2022-10-31T09:48	10	137	5.9	120	141					12.8	99.2
2022-10-31T09:49	10	132	12.1	110	142					12.9	99.2
2022-10-31T09:50	10	103	13.9	84	138					12.7	99.2
2022-10-31T09:51	10	82	7.0	73	96					12.5	99.2
2022-10-31T09:52	10	67	3.8	63	75					12.6	99.2
2022-10-31T09:53	10	73	3.8	67	77					12.5	99.2
2022-10-31T09:54	10	73	4.9	68	82					12.6	99.2
2022-10-31T09:55	10	75	3.9	70	87					12.8	99.2
2022-10-31T09:56	10	101	6.1	89	110					12.6	99.2
2022-10-31T09:57	10	99	4.0	94	108					12.6	99.2
2022-10-31T09:58	10	94	7.8	79	112					12.4	99.2
2022-10-31T09:59	10	97	13.6	64	117					12.5	99.2
2022-10-31T10:00	10	64	8.0	55	79					12.5	99.2
2022-10-31T10:01	10	94	14.1	76	120					12.4	99.2
2022-10-31T10:02	10	120	5.7	108	129					12.7	99.2
2022-10-31T10:03	10	98	8.8	88	121					13.0	99.2
2022-10-31T10:04	10	85	3.6	79	91					12.9	99.2
2022-10-31T10:05	10	81	2.4	77	86					13.0	99.2
2022-10-31T10:06	10	89	10.8	72	105					12.9	99.2
2022-10-31T10:07	10	128	19.4	102	151					12.8	99.2
2022-10-31T10:08	10	149	2.0	145	151					12.8	99.2
2022-10-31T10:09	10	138	9.3	116	148					12.8	99.2
2022-10-31T10:10	10	95	9.0	81	116					12.9	99.2
2022-10-31T10:11	10	93	15.2	67	125					12.9	99.2
2022-10-31T10:12	10	134	18.7	85	146					12.9	99.2
2022-10-31T10:13	10	132	15.0	101	144					13.0	99.2
2022-10-31T10:14	10	84	7.4	75	99					13.1	99.2
2022-10-31T10:15	10	104	24.0	73	132					13.3	99.2
2022-10-31T10:16	10	102	17.2	68	123					13.2	99.2
2022-10-31T10:17	10	79	16.3	57	108					12.9	99.2
2022-10-31T10:18	10	113	12.8	91	130					12.9	99.2
2022-10-31T10:19	10	129	0.9	127	130					13.2	99.2
2022-10-31T10:20	10	125	0.8	124	127					13.6	99.2
2022-10-31T10:21	10	123	0.6	122	124					13.5	99.2
2022-10-31T10:22	10	122	0.3	121	122					13.6	99.2
2022-10-31T10:23	10	121	0.2	121	121					13.5	99.2
2022-10-31T10:24	10	120	0.6	119	121					13.6	99.2
2022-10-31T10:25	10	119	0.4	118	119					13.6	99.2
2022-10-31T10:26	10	120	0.8	119	121					13.5	99.2
2022-10-31T10:27	10	100	9.8	88	121					13.8	99.2
2022-10-31T10:28	10	76	16.3	45	104					13.6	99.2
2022-10-31T10:29	10	121	3.7	107	124					13.7	99.2
2022-10-31T10:30	10	120	4.0	112	123					13.7	99.2
2022-10-31T10:31	10	120	5.2	108	124					13.9	99.2
2022-10-31T10:32	10	119	7.2	105	126					13.6	98.9
2022-10-31T10:33	10	125	0.5	124	126					13.5	98.0
2022-10-31T10:34	10	124	0.2	123	124					13.5	96.9
2022-10-31T10:35	10	123	0.2	123	124					13.5	96.1
2022-10-31T10:36	10	123	0.1	123	123					13.6	95.4
2022-10-31T10:37	10	123	0.1	123	123					13.5	94.5
2022-10-31T10:38	10	123	0.1	123	123					13.6	93.7
2022-10-31T10:39	10	123	0.2	122	123					13.5	92.9
2022-10-31T10:40	10	122	0.1	122	122					13.6	92.2
2022-10-31T10:41	10	122	0.1	122	122					13.6	92.0
2022-10-31T10:42	10	122	0.1	122	122					13.5	91.4
2022-10-31T10:43	10	122	0.1	122	123					13.6	91.9
2022-10-31T10:44	10	123	0.3	123	124					13.6	91.6
2022-10-31T10:45	10	124	0.3	124	125					13.6	91.7
2022-10-31T10:46	10	126	0.4	125	126					13.6	91.4
2022-10-31T10:47	10	127	0.6	126	128					13.8	91.5
2022-10-31T10:48	10	127	2.1	123	130					14.0	91.8
2022-10-31T10:49	10	112	17.3	80	133					13.9	91.5
2022-10-31T10:50	10	79	4.3	73	92					13.9	91.9
2022-10-31T10:51	10	70	7.6	61	90					13.8	92.1
2022-10-31T10:52	10	63	1.2	60	64					13.6	92.0
2022-10-31T10:53	10	68	4.5	60	80					13.5	91.7
2022-10-31T10:54	10	116	15.2	82	130					13.8	92.2
2022-10-31T10:55	10	117	9.5	102	128					13.8	92.0
2022-10-31T10:56	10	114	10.9	97	134					13.9	92.2
2022-10-31T10:57	10	133	0.5	132	134					13.8	92.2
2022-10-31T10:58	10	133	0.1	133	134					13.4	91.1
2022-10-31T10:59	10	133	0.2	133	134					13.6	91.2
2022-10-31T11:00	10	133	0.2	132	133					13.7	91.3
2022-10-31T11:01	10	133	0.2	132	133					13.8	91.0
2022-10-31T11:02	10	133	0.3	133	134					13.9	90.8
2022-10-31T11:03	10	135	0.5	134	136					13.9	90.8
2022-10-31T11:04	10	136	0.7	136	138					13.9	90.6
2022-10-31T11:05	10	135	4.8	125	140					13.7	90.2
2022-10-31T11:06	10	84	13.5	65	122					13.7	90.0
2022-10-31T11:07	10	53	4.1	49	64					13.5	89.5
2022-10-31T11:08	10	51	0.9	49	52					13.8	90.0
2022-10-31T11:09	10	54	1.4	52	56					13.9	90.2
2022-10-31T11:10	10	72	11.6	56	93					13.7	89.8
2022-10-31T11:11	10	69	2.4	66	76					13.6	90.0
2022-10-31T11:12	10	75	3.3	69	80					13.5	90.5
2022-10-31T11:13	10	90	16.5	72	121					13.7	91.5
2022-10-31T11:14	10	103	11.1	81	115					13.6	91.9
2022-10-31T11:15	10	107	14.4	79	124					13.8	92.1
2022-10-31T11:16	10	101	13.4	73	124					13.8	91.8
2022-10-31T11:17	10	81	7.6	71	94					13.8	91.8
2022-10-31T11:18	10	78	5.0	72	87					13.8	91.7
2022-10-31T11:19	10	76	5.2	71	87					13.6	91.4
2022-10-31T11:20	10	70	4.5	66	81					13.7	91.7
2022-10-31T11:21	10	67	2.0	62	70					13.8	91.8
2022-10-31T11:22	10	61	0.5	60	62					13.7	91.5
2022-10-31T11:23	10	60	0.8	58	61					13.7	91.3
2022-10-31T11:24	10	57	0.5	57	58					13.8	91.5
2022-10-31T11:25	10	57	0.3	57	57					13.9	91.7
2022-10-31T11:26	10	66	9.2	57	85					14.0	92.0
2022-10-31T11:27	10	65	6.7	60	84					13.7	91.7
2022-10-31T11:28	10	61	2.8	59	68					13.6	92.2
2022-10-31T11:29	10	62	2.7	59	68					13.8	92.8
2022-10-31T11:30	10	60	1.3	59	62					13.9	92.7
2022-10-31T11:31	10	65	4.3	59	73					14.0	92.4
2022-10-31T11:32	10	71	3.4	67	80					14.2	92.4
2022-10-31T11:33	10	83	5.7	71	88					14.2	91.6
2022-10-31T11:34	10	68	8.0	59	82					14.2	91.1
2022-10-31T11:35	10	55	1.7	54	59					14.1	90.8
2022-10-31T11:36	10	55	1.6	54	60					14.2	91.2
2022-10-31T11:37	10	73	4.8	60	78					14.1	91.1
2022-10-31T11:38	10	70	2.6	68	77					14.3	91.2
2022-10-31T11:39	10	84	6.0	77	94					14.4	90.8
2022-10-31T11:40	10	98	5.9	86	109					14.6	90.4
2022-10-31T11:41	10	99	11.8	73	110					14.3	89.3
2022-10-31T11:42	10	73	1.5	70	76					14.3	89.4
2022-10-31T11:43	10	96	16.2	70	112					14.4	90.0
2022-10-31T11:44	10	97	11.2	74	109					14.5	89.9
2022-10-31T11:45	10	89	5.2	76	95					14.5	89.5
2022-10-31T11:46	10	69	6.6	61	79					14.4	88.9
2022-10-31T11:47	10	66	6.4	61	81					14.3	88.5
2022-10-31T11:48	10	86	6.6	72	97					14.5	89.1
2022-10-31T11:49	10	107	5.4	95	114					14.5	88.7
2022-10-31T11:50	10	111	7.2	89	119					14.7	89.0
2022-10-31T11:51	10	81	6.6	73	93					14.5	87.9
2022-10-31T11:52	10	113	18.6	89	138					14.4	87.5
2022-10-31T11:53	10	99	8.7	80	119					14.4	86.9
2022-10-31T11:54	10	79	4.6	72	86					14.4	86.0
2022-10-31T11:55	10	78	6.2	72	93					14.5	86.0
2022-10-31T11:56	10	66	8.1	61	93					14.5	86.4
2022-10-31T11:57	10	62	0.8	61	64					14.6	86.8
2022-10-31T11:58	10	83	16.6	65	117					14.7	86.8
2022-10-31T11:59	10	69	3.3	66	79					14.6	86.5
2022-10-31T12:00	10	94	30.9	67	146					14.8	87.0
2022-10-31T12:01	10	75	4.2	68	85					14.8	87.0
2022-10-31T12:02	10	66	9.3	57	88					14.8	86.2
2022-10-31T12:03	10	55	0.9	54	57					14.8	86.2
2022-10-31T12:04	10	60	6.2	54	76					14.8	85.9
2022-10-31T12:05	10	52	1.1	50	54					15.0	86.3
2022-10-31T12:06	10	50	0.2	49	50					14.9	86.6
2022-10-31T12:07	10	50	0.2	49	50					14.8	86.1
2022-10-31T12:08	10	51	1.0	50	54					14.9	86.2
2022-10-31T12:09	10	82	18.9	54	107					15.0	85.7
2022-10-31T12:10	10	54	0.5	54	56					15.1	85.6
2022-10-31T12:11	10	71	9.7	55	99					15.0	84.2
2022-10-31T12:12	10	71	20.1	56	110					15.0	84.3
2022-10-31T12:13	10	55	0.5	54	56					15.0	85.0
2022-10-31T12:14	10	54	0.2	53	54					15.0	85.3
2022-10-31T12:15	10	53	0.1	53	54					15.1	84.9
2022-10-31T12:16	10	54	1.0	53	57					15.0	84.4
2022-10-31T12:17	10	54	0.5	53	55					15.0	83.9
2022-10-31T12:18	10	57	4.0	53	68					15.1	83.2
2022-10-31T12:19	10	53	1.0	52	57					15.1	84.3
2022-10-31T12:20	10	56	3.0	54	64					15.0	86.4
2022-10-31T12:21	10	79	28.5	55	142					14.9	87.3
2022-10-31T12:22	10	102	29.8	62	144					15.0	87.6
2022-10-31T12:23	10	119	23.6	76	146					15.2	87.7
2022-10-31T12:24	10	107	15.2	71	136					15.3	87.7
2022-10-31T12:25	10	110	27.4	67	135					15.3	86.2
2022-10-31T12:26	10	132	1.9	129	135					15.5	86.5
2022-10-31T12:27	10	109	31.3	52	133					15.5	85.5
2022-10-31T12:28	10	111	26.1	52	131					15.4	86.2
2022-10-31T12:29	10	89	29.8	51	131					15.6	85.5
2022-10-31T12:30	10	130	3.7	113	132					15.6	84.4
2022-10-31T12:31	10	130	0.8	129	132					15.4	83.6
2022-10-31T12:32	10	127	2.3	120	129					15.4	83.2
2022-10-31T12:33	10	127	2.9	117	128					15.5	83.4
2022-10-31T12:34	10	125	3.0	117	128					15.6	82.8
2022-10-31T12:35	10	121	11.2	78	126					15.5	83.2
2022-10-31T12:36	10	47	7.8	39	73					15.8	82.6
2022-10-31T12:37	10	80	38.7	38	123					15.8	82.2
2022-10-31T12:38	10	123	0.6	121	124					15.9	81.8
2022-10-31T12:39	10	111	16.2	82	126					15.8	81.6
2022-10-31T12:40	10	122	8.7	101	127					15.8	81.6
2022-10-31T12:41	10	127	0.3	126	127					15.9	80.5
2022-10-31T12:42	10	126	0.5	125	127					15.8	80.4
2022-10-31T12:43	10	124	0.7	123	125					15.8	80.9
2022-10-31T12:44	10	121	1.7	117	123					16.0	81.0
2022-10-31T12:45	10	110	3.3	105	117					16.1	80.6
2022-10-31T12:46	10	105	2.1	102	108					16.1	80.7
2022-10-31T12:47	10	100	3.0	92	103					16.2	81.4
2022-10-31T12:48	10	85	3.5	76	92					16.0	80.5
2022-10-31T12:49	10	47	12.1	31	73					15.9	80.4
2022-10-31T12:50	10	30	0.9	28	32					15.9	80.3
2022-10-31T12:51	10	29	0.5	28	30					15.9	80.5
2022-10-31T12:52	10	42	8.1	30	54					15.9	81.2
2022-10-31T12:53	10	63	5.1	54	69					15.9	81.7
2022-10-31T12:54	10	75	2.4	69	78					15.9	81.4
2022-10-31T12:55	10	79	1.9	76	81					15.9	81.1
2022-10-31T12:56	10	79	3.1	76	87					16.0	81.0
2022-10-31T12:57	10	96	6.7	86	104					16.1	81.3
2022-10-31T12:58	10	102	1.5	99	104					16.1	80.5
2022-10-31T12:59	10	107	2.2	103	110					16.2	80.7
2022-10-31T13:00	10	107	1.8	104	110					16.1	80.2
2022-10-31T13:01	10	105	1.2	103	107					16.1	80.4
2022-10-31T13:02	10	103	1.4	99	105					16.1	80.2
2022-10-31T13:03	10	98	0.9	96	99					16.3	81.1
2022-10-31T13:04	10	100	0.6	99	101					16.3	81.4
2022-10-31T13:05	10	99	0.5	98	100					16.3	81.3
2022-10-31T13:06	10	99	1.2	96	100					16.3	80.9
2022-10-31T13:07	10	90	3.0	86	96					16.3	81.9
2022-10-31T13:08	10	87	1.6	83	89					16.1	81.0
2022-10-31T13:09	10	90	1.9	85	93					16.4	81.6
2022-10-31T13:10	10	91	2.0	87	94					16.4	81.6
2022-10-31T13:11	10	80	4.5	65	89					16.3	81.0
2022-10-31T13:12	10	59	3.1	54	64					16.1	81.2
2022-10-31T13:13	10	66	9.1	55	82					16.2	81.7
2022-10-31T13:14	10	85	2.2	81	89					16.1	81.2
2022-10-31T13:15	10	80	8.5	62	89					16.3	82.0
2022-10-31T13:16	10	96	5.9	76	100					16.3	81.8
2022-10-31T13:17	10	85	8.1	74	96					16.3	82.0
2022-10-31T13:18	10	71	7.5	48	79					16.1	82.3
2022-10-31T13:19	10	37	3.2	34	46					16.2	83.1
2022-10-31T13:20	10	81	19.3	44	108					16.2	82.8
2022-10-31T13:21	10	88	13.5	64	109					16.2	82.6
2022-10-31T13:22	10	106	12.1	76	116					16.2	82.9
2022-10-31T13:23	10	93	17.0	68	115					16.1	82.7
2022-10-31T13:24	10	114	0.5	113	115					16.2	82.8
2022-10-31T13:25	10	106	6.5	91	114					16.3	82.7
2022-10-31T13:26	10	61	16.3	45	101					16.5	83.3
2022-10-31T13:27	10	48	2.5	44	53					16.5	83.7
2022-10-31T13:28	10	94	17.6	54	109					16.2	82.6
2022-10-31T13:29	10	106	0.6	105	107					16.3	82.1
2022-10-31T13:30	10	105	0.3	104	105					16.4	82.2
2022-10-31T13:31	10	104	0.2	103	104					16.4	82.1
2022-10-31T13:32	10	103	0.2	103	103					16.4	81.6
2022-10-31T13:33	10	102	0.2	102	103					16.4	81.4
2022-10-31T13:34	10	92	15.9	48	102					16.5	82.1
2022-10-31T13:35	10	55	16.1	37	81					16.5	82.9
2022-10-31T13:36	10	56	14.3	42	80					16.1	80.8
2022-10-31T13:37	10	45	1.1	43	47					16.2	81.9
2022-10-31T13:38	10	43	2.5	37	46					16.1	81.6
2022-10-31T13:39	10	32	3.0	27	36					16.2	82.2
2022-10-31T13:40	10	35	5.0	28	43					16.1	81.6
2022-10-31T13:41	10	45	5.6	36	55					16.2	81.3
2022-10-31T13:42	10	31	2.7	27	36					16.2	81.0
2022-10-31T13:43	10	25	2.1	22	29					16.1	81.4
2022-10-31T13:44	10	28	2.6	24	33					16.2	81.3
2022-10-31T13:45	10	41	5.1	34	52					16.2	81.3
2022-10-31T13:46	10	68	4.4	53	72					16.2	81.2
2022-10-31T13:47	10	73	2.1	71	77					16.2	80.7
2022-10-31T13:48	10	71	0.9	69	72					16.2	80.8
2022-10-31T13:49	10	68	1.7	65	71					16.3	80.5
2022-10-31T13:50	10	73	1.5	70	75					16.2	80.4
2022-10-31T13:51	10	81	3.0	75	85					16.4	80.7
2022-10-31T13:52	10	79	2.3	75	83					16.2	80.2
2022-10-31T13:53	10	76	2.9	73	83					16.2	79.6
2022-10-31T13:54	10	83	3.5	76	87					16.3	79.4
2022-10-31T13:55	10	62	12.3	35	76					16.4	79.3
2022-10-31T13:56	10	35	5.1	30	48					16.4	80.2
2022-10-31T13:57	10	48	1.7	46	51					16.3	79.4
2022-10-31T13:58	10	51	2.9	48	58					16.4	78.9
2022-10-31T13:59	10	56	3.3	51	61					16.4	78.5
2022-10-31T14:00	10	67	8.5	56	86					16.4	78.1
2022-10-31T14:01	10	94	3.1	86	97					16.4	77.6
2022-10-31T14:02	10	89	9.9	62	97					16.4	78.0
2022-10-31T14:03	10	51	5.2	45	65					16.2	77.5
2022-10-31T14:04	10	86	9.9	66	93					16.3	77.6
2022-10-31T14:05	10	90	1.4	87	92					16.3	77.8
2022-10-31T14:06	10	90	1.5	87	92					16.4	78.1
2022-10-31T14:07	10	87	2.4	84	91					16.5	78.7
2022-10-31T14:08	10	88	3.3	81	92					16.5	78.3
2022-10-31T14:09	10	85	1.6	82	87					16.3	77.4
2022-10-31T14:10	10	80	3.7	72	84					16.4	77.7
2022-10-31T14:11	10	76	3.1	69	80					16.5	78.0
2022-10-31T14:12	10	67	2.7	61	70					16.3	78.9
2022-10-31T14:13	10	43	11.5	26	61					16.2	78.5
2022-10-31T14:14	10	21	2.1	18	26					16.2	78.6
2022-10-31T14:15	10	19	0.4	18	20					16.2	79.4
2022-10-31T14:16	10	20	0.4	19	21					16.1	79.3
2022-10-31T14:17	10	23	1.6	21	26					16.1	79.9
2022-10-31T14:18	10	31	3.4	26	37					16.1	80.3
2022-10-31T14:19	10	41	2.5	37	46					16.1	80.7
2022-10-31T14:20	10	47	0.5	46	48					16.1	80.4
2022-10-31T14:21	10	46	1.4	44	48					16.0	80.3
2022-10-31T14:22	10	46	1.1	44	47					16.1	80.7
2022-10-31T14:23	10	40	3.9	33	47					16.0	80.6
2022-10-31T14:24	10	27	2.8	23	33					16.0	80.9
2022-10-31T14:25	10	21	0.7	20	23					16.0	81.1
2022-10-31T14:26	10	29	5.0	22	37					16.0	81.4
2022-10-31T14:27	10	31	2.5	29	36					16.0	81.0
2022-10-31T14:28	10	34	2.6	30	39					16.1	80.9
2022-10-31T14:29	10	45	2.8	39	50					16.1	80.8
2022-10-31T14:30	10	57	3.1	50	61					16.1	81.0
2022-10-31T14:31	10	59	1.1	58	63					16.1	80.4
2022-10-31T14:32	10	65	0.7	63	66					16.1	80.4
2022-10-31T14:33	10	63	0.3	63	64					16.2	80.6
2022-10-31T14:34	10	62	0.9	60	64					16.2	80.5
2022-10-31T14:35	10	54	3.3	50	60					16.2	80.4
2022-10-31T14:36	10	50	0.6	49	51					16.3	81.0
2022-10-31T14:37	10	50	0.3	49	50					16.2	80.7
2022-10-31T14:38	10	48	0.7	47	49					16.2	80.7
2022-10-31T14:39	10	47	0.4	46	48					16.3	80.9
2022-10-31T14:40	10	50	1.5	48	52					16.2	81.5
2022-10-31T14:41	10	53	0.7	51	54					16.2	80.8
2022-10-31T14:42	10	49	1.5	46	51					16.2	81.2
2022-10-31T14:43	10	45	0.5	44	46					16.4	80.5
2022-10-31T14:44	10	44	0.8	42	45					16.4	80.2
2022-10-31T14:45	10	39	1.2	37	42					16.4	79.9
2022-10-31T14:46	10	36	0.7	35	37					16.2	80.5
2022-10-31T14:47	10	37	0.7	35	38					16.2	81.0
2022-10-31T14:48	10	37	0.3	36	37					16.2	81.0
2022-10-31T14:49	10	36	0.2	36	37					16.3	80.6
2022-10-31T14:50	10	36	0.5	35	37					16.3	80.9
2022-10-31T14:51	10	33	1.4	31	35					16.2	81.4
2022-10-31T14:52	10	30	0.4	29	31					16.2	81.9
2022-10-31T14:53	10	30	0.6	29	31					16.2	81.6
2022-10-31T14:54	10	34	1.8	31	37					16.3	81.1
2022-10-31T14:55	10	38	0.5	37	39					16.3	80.6
2022-10-31T14:56	10	39	0.4	39	40					16.3	81.0
2022-10-31T14:57	10	37	0.4	37	39					16.2	81.3
2022-10-31T14:58	10	36	1.0	34	38					16.3	80.9
2022-10-31T14:59	10	34	0.4	33	35					16.3	80.6
2022-10-31T15:00	10	34	0.4	33	35					16.3	81.2
2022-10-31T15:01	10	38	2.3	35	42					16.4	80.6
2022-10-31T15:02	10	42	0.2	42	43					16.3	80.4
2022-10-31T15:03	10	41	1.0	40	43					16.3	81.3
2022-10-31T15:04	10	38	0.6	38	40					16.3	82.0
2022-10-31T15:05	10	39	0.6	38	40					16.3	81.6
2022-10-31T15:06	10	41	0.3	40	41					16.3	81.2
2022-10-31T15:07	10	41	0.2	40	41					16.3	81.1
2022-10-31T15:08	10	35	4.0	30	41					16.3	81.3
2022-10-31T15:09	10	30	2.1	27	34					16.3	81.1
2022-10-31T15:10	10	39	1.9	35	41					16.3	81.2
2022-10-31T15:11	10	41	0.3	40	41					16.3	81.2
2022-10-31T15:12	10	40	0.5	39	41					16.3	81.1
2022-10-31T15:13	10	38	0.6	37	40					16.3	81.6
2022-10-31T15:14	10	34	2.8	30	37					16.3	81.4
2022-10-31T15:15	10	33	2.0	30	36					16.3	81.0
2022-10-31T15:16	10	33	1.3	31	35					16.3	80.7
2022-10-31T15:17	10	31	0.7	30	32					16.3	80.7
2022-10-31T15:18	10	28	1.3	26	30					16.4	80.5
2022-10-31T15:19	10	25	0.4	24	26					16.4	80.5
2022-10-31T15:20	10	23	0.6	22	24					16.4	80.6
2022-10-31T15:21	10	23	0.2	22	23					16.4	80.6
2022-10-31T15:22	10	22	0.2	21	22					16.5	80.1
2022-10-31T15:23	10	22	0.4	22	23					16.4	80.2
2022-10-31T15:24	10	23	0.2	23	23					16.3	80.3
2022-10-31T15:25	10	22	0.3	22	23					16.4	80.2
2022-10-31T15:26	10	21	0.4	20	22					16.4	80.4
2022-10-31T15:27	10	19	0.7	18	21					16.3	80.6
2022-10-31T15:28	10	18	0.5	17	19					16.3	80.7
2022-10-31T15:29	10	17	0.3	16	17					16.2	80.9
2022-10-31T15:30	10	16	0.2	16	17					16.3	81.2
2022-10-31T15:31	10	16	0.2	16	17					16.3	81.0
2022-10-31T15:32	10	16	0.2	15	16					16.3	81.4
2022-10-31T15:33	10	15	0.3	14	16					16.3	81.6
2022-10-31T15:34	10	14	0.3	13	15					16.4	81.7
2022-10-31T15:35	10	14	0.4	13	15					16.3	82.1
2022-10-31T15:36	10	13	0.3	12	13					16.2	82.6
2022-10-31T15:37	10	12	0.3	12	13					16.1	83.1
2022-10-31T15:38	10	11	0.2	11	12					16.1	82.8
2022-10-31T15:39	10	10	0.2	10	11					16.3	81.6
2022-10-31T15:40	10	10	0.2	10	11					16.2	81.6
2022-10-31T15:41	10	10	0.2	9	10					16.0	82.5
2022-10-31T15:42	10	10	0.2	9	10					16.1	82.5
2022-10-31T15:43	10	9	0.1	9	10					16.1	82.8
2022-10-31T15:44	10	9	0.1	9	10					16.1	83.3
2022-10-31T15:45	10	9	0.1	9	10					16.0	83.9
2022-10-31T15:46	10	9	0.2	8	9					15.9	84.8
2022-10-31T15:47	10	8	0.2	8	9					15.9	85.8
2022-10-31T15:48	10	8	0.1	8	8					15.8	86.2
2022-10-31T15:49	10	8	0.1	8	8					15.8	86.0
2022-10-31T15:50	10	8	0.1	7	8					15.8	86.6
2022-10-31T15:51	10	7	0.1	7	8					15.8	86.6
2022-10-31T15:52	10	7	0.1	7	7					15.8	86.7
2022-10-31T15:53	10	7	0.1	7	7					15.8	86.7
2022-10-31T15:54	10	7	0.1	7	7					15.9	86.2
2022-10-31T15:55	10	7	0.1	6	7					15.9	85.3
2022-10-31T15:56	10	6	0.1	6	7					15.9	84.6
2022-10-31T15:57	10	7	0.1	6	7					15.9	84.9
2022-10-31T15:58	10	7	0.1	7	7					15.8	85.2
2022-10-31T15:59	10	7	0.1	7	7					15.8	85.3
2022-10-31T16:00	10	7	0.1	6	7					15.8	85.5
2022-10-31T16:01	10	6	0.1	6	6					15.7	85.6
2022-10-31T16:02	10	6	0.2	5	6					15.7	85.8
2022-10-31T16:03	10	5	0.2	5	6					15.6	86.1
2022-10-31T16:04	10	5	0.2	4	5					15.6	86.1
2022-10-31T16:05	10	4	0.2	4	4					15.6	86.1
2022-10-31T16:06	10	3	0.2	3	4					15.6	85.7
2022-10-31T16:07	10	3	0.1	3	3					15.6	85.5
2022-10-31T16:08	10	3	0.1	2	3					15.6	85.7
2022-10-31T16:09	10	2	0.1	2	2					15.5	86.0
2022-10-31T16:10	10	2	0.1	2	2					15.4	86.6
2022-10-31T16:11	10	2	0.1	2	2					15.3	87.6
2022-10-31T16:12	10	2	0.1	1	2					15.3	88.0
2022-10-31T16:13	10	1	0.1	1	2					15.3	87.9
2022-10-31T16:14	10	1	0.1	1	2					15.3	88.0
2022-10-31T16:15	10	1	0.1	1	1					15.2	88.2
2022-10-31T16:16	10	1	0.1	1	1					15.2	88.4
2022-10-31T16:17	10	1	0.1	1	1					15.1	88.7
2022-10-31T16:18	10	1	0.1	0	1					15.0	89.1
2022-10-31T16:19	10	1	0.1	0	1					15.0	89.6
2022-10-31T16:20	10	1	0.1	0	1					15.0	89.8
2022-10-31T16:21	10	1	0.1	1	1					14.9	90.1
2022-10-31T16:22	10	1	0.1	1	1					14.9	90.3
2022-10-31T16:23	10	1	0.1	1	1					14.9	90.5
2022-10-31T16:24	10	1	0.1	0	1					14.8	91.1
2022-10-31T16:25	10	1	0.1	0	1					14.8	91.9
2022-10-31T16:26	10	0	0.1	0	1					14.8	92.2
2022-10-31T16:27	10	0	0.1	0	1					14.9	91.9
2022-10-31T16:28	10	0	0.1	0	0					15.1	91.4
2022-10-31T16:29	10	0	0.1	0	0					15.1	90.7
2022-10-31T16:30	10	0	0.1	0	0					15.1	90.2
2022-10-31T16:31	10	0	0.1	0	0					15.1	90.1
2022-10-31T16:32	10	0	0.1	0	0					15.1	89.9
2022-10-31T16:33	10	0	0.1	0	0					15.2	89.6
2022-10-31T16:34	10	0	0.1	0	0					15.2	89.2
2022-10-31T16:35	10	0	0.1	0	0					15.2	88.8
2022-10-31T16:36	10	0	0.1	0	0					15.3	88.5
2022-10-31T16:37	10	0	0.1	0	0					15.2	88.4
2022-10-31T16:38	10	0	0.1	0	1					15.3	88.4
2022-10-31T16:39	10	0	0.1	0	0					15.3	88.2
2022-10-31T16:40	10	0	0.1	0	0					15.4	88.0
2022-10-31T16:41	10	0	0.1	0	1					15.5	87.6
2022-10-31T16:42	10	0	0.2	0	1					15.5	87.7
2022-10-31T16:43	10	0	0.2	0	1					15.6	87.4
2022-10-31T16:44	10	0	0.2	0	1					15.5	87.2
2022-10-31T16:45	10	0	0.2	0	1					15.4	87.5
2022-10-31T16:46	10	0	0.2	0	1					15.4	87.6
2022-10-31T16:47	10	0	0.2	0	1					15.4	87.7
2022-10-31T16:48	10	0	0.1	0	1					15.3	87.8
2022-10-31T16:49	10	0	0.1	0	1					15.4	88.1
2022-10-31T16:50	10	0	0.1	0	1					15.5	87.8
2022-10-31T16:51	10	1	0.1	0	1					15.5	87.7
2022-10-31T16:52	10	1	0.1	0	1					15.5	87.5
2022-10-31T16:53	10	1	0.1	0	1					15.6	87.1
2022-10-31T16:54	10	1	0.1	0	1					15.6	86.3
2022-10-31T16:55	10	1	0.1	1	1					15.5	86.3
2022-10-31T16:56	10	1	0.1	0	1					15.4	86.8
2022-10-31T16:57	10	1	0.1	1	1					15.4	87.1
2022-10-31T16:58	10	1	0.1	1	1					15.2	87.1
2022-10-31T16:59	10	1	0.1	0	1					15.3	87.3
2022-10-31T17:00	10	1	0.1	1	1					15.3	86.5
2022-10-31T17:01	10	1	0.1	1	1					15.2	87.1
2022-10-31T17:02	10	1	0.1	1	1					15.3	87.0
2022-10-31T17:03	10	1	0.1	1	1					15.3	86.3
2022-10-31T17:04	10	1	0.1	0	1					15.2	86.7
2022-10-31T17:05	10	1	0.1	0	1					15.0	87.4
2022-10-31T17:06	10	1	0.1	0	1					15.2	87.6
2022-10-31T17:07	10	1	0.1	0	1					14.8	87.9
2022-10-31T17:08	10	0	0.1	0	1					14.9	88.8
2022-10-31T17:09	10	0	0.1	0	1					14.9	88.9
2022-10-31T17:10	10	0	0.1	0	1					14.8	88.8
2022-10-31T17:11	10	0	0.1	0	1					14.6	89.5
2022-10-31T17:12	10	0	0.1	0	1					14.8	89.4
2022-10-31T17:13	10	0	0.1	0	1					14.6	89.2
2022-10-31T17:14	10	0	0.1	0	0					14.5	89.9
2022-10-31T17:15	10	0	0.1	0	0					14.6	90.5
2022-10-31T17:16	10	0	0.1	0	0					14.4	90.6
2022-10-31T17:17	10	0	0.1	0	0					14.4	91.3
2022-10-31T17:18	10	0	0.1	0	1					14.4	91.6
2022-10-31T17:19	10	0	0.1	0	0					14.5	91.5
2022-10-31T17:20	10	0	0.1	0	0					14.6	91.2
2022-10-31T17:21	10	0	0.1	0	1					14.5	90.8
2022-10-31T17:22	10	0	0.1	0	0					14.6	90.5
2022-10-31T17:23	10	0	0.1	0	0					14.5	90.2
2022-10-31T17:24	10	0	0.1	0	0					14.6	90.3
2022-10-31T17:25	10	0	0.1	0	0					14.6	89.6
2022-10-31T17:26	10	0	0.1	0	0					14.7	88.7
2022-10-31T17:27	10	0	0.1	0	0					14.7	88.2
2022-10-31T17:28	10	0	0.1	0	1					14.7	87.9
2022-10-31T17:29	10	0	0.1	0	1					14.6	87.8
2022-10-31T17:30	10	0	0.1	0	1					14.4	88.3
2022-10-31T17:31	10	0	0.1	0	1					14.4	88.3
2022-10-31T17:32	10	0	0.1	0	1					14.5	87.0
2022-10-31T17:33	10	0	0.1	0	1					14.6	84.4
2022-10-31T17:34	10	1	0.1	0	1					14.6	84.1
2022-10-31T17:35	10	1	0.1	0	1					14.7	83.2
2022-10-31T17:36	10	1	0.1	0	1					14.7	82.8
2022-10-31T17:37	10	1	0.1	0	1					14.6	83.1
2022-10-31T17:38	10	1	0.1	1	1					14.6	83.3
2022-10-31T17:39	10	1	0.0	1	1					14.7	83.2
2022-10-31T17:40	10	1	0.1	1	1					14.6	83.2
2022-10-31T17:41	10	1	0.1	1	1					14.6	83.6
2022-10-31T17:42	10	1	0.1	0	1					14.6	83.2
2022-10-31T17:43	10	1	0.1	1	1					14.6	82.7
2022-10-31T17:44	10	1	0.1	1	1					14.6	82.7
2022-10-31T17:45	10	1	0.1	1	1					14.7	81.7
2022-10-31T17:46	10	1	0.1	1	1					14.6	81.7
2022-10-31T17:47	10	1	0.1	1	1					14.6	81.4
2022-10-31T17:48	10	1	0.1	1	1					14.6	81.0
2022-10-31T17:49	10	1	0.1	1	1					14.6	80.6
2022-10-31T17:50	10	1	0.1	1	1					14.5	80.6
2022-10-31T17:51	10	1	0.1	1	1					14.6	80.6
2022-10-31T17:52	10	1	0.1	1	1					14.8	79.4
2022-10-31T17:53	10	1	0.1	1	1					14.8	78.8
2022-10-31T17:54	10	1	0.1	1	1					14.8	78.4
2022-10-31T17:55	10	1	0.1	1	1					14.8	78.5
2022-10-31T17:56	10	1	0.1	1	1					14.6	79.6
2022-10-31T17:57	10	1	0.1	1	1					14.6	79.6
2022-10-31T17:58	10	1	0.1	1	1					14.4	79.7
2022-10-31T17:59	10	1	0.1	1	1					14.3	80.3
2022-10-31T18:00	10	1	0.1	1	1					14.3	80.5
2022-10-31T18:01	10	1	0.1	1	1					14.3	80.2
2022-10-31T18:02	10	1	0.2	1	1					14.4	80.2
2022-10-31T18:03	10	1	0.1	1	1					14.4	80.1
2022-10-31T18:04	10	1	0.2	1	2					14.4	80.1
2022-10-31T18:05	10	1	0.2	1	1					14.3	79.6
2022-10-31T18:06	10	1	0.2	1	2					14.4	80.0
2022-10-31T18:07	10	1	0.1	1	1					14.3	79.9
2022-10-31T18:08	10	1	0.2	1	1					14.1	81.1
2022-10-31T18:09	10	1	0.1	1	1					14.4	80.4
2022-10-31T18:10	10	1	0.2	1	1					14.3	79.8
2022-10-31T18:11	10	1	0.1	1	1					14.2	80.6
2022-10-31T18:12	10	1	0.2	1	1					14.3	80.4
2022-10-31T18:13	10	1	0.1	1	1					14.3	79.7
2022-10-31T18:14	10	1	0.1	1	1					14.0	80.5
2022-10-31T18:15	10	1	0.1	1	1					13.8	81.9
2022-10-31T18:16	10	1	0.1	1	1					14.0	81.6
2022-10-31T18:17	10	1	0.1	1	1					13.8	80.7
2022-10-31T18:18	10	1	0.1	1	1					13.6	82.3
2022-10-31T18:19	10	1	0.1	1	1					13.6	83.1
2022-10-31T18:20	10	1	0.1	0	1					13.6	82.4
2022-10-31T18:21	10	1	0.1	0	1					13.7	81.6
2022-10-31T18:22	10	1	0.1	0	1					13.6	81.5
2022-10-31T18:23	10	1	0.1	0	1					13.8	81.2
2022-10-31T18:24	10	1	0.1	0	1					14.0	80.2
2022-10-31T18:25	10	1	0.1	0	1					14.0	80.2
2022-10-31T18:26	10	1	0.1	0	1					14.0	80.4
2022-10-31T18:27	10	1	0.1	0	1					14.1	79.8
2022-10-31T18:28	10	1	0.1	0	1					14.1	80.0
2022-10-31T18:29	10	1	0.1	1	1					14.1	79.9
2022-10-31T18:30	10	1	0.1	1	1					14.0	79.7
2022-10-31T18:31	10	1	0.1	1	1					13.8	80.5
2022-10-31T18:32	10	1	0.1	0	1					14.0	80.4
2022-10-31T18:33	10	0	0.1	0	1					13.9	80.2
2022-10-31T18:34	10	0	0.1	0	1					13.9	80.4
2022-10-31T18:35	10	0	0.1	0	1					14.0	80.3
2022-10-31T18:36	10	0	0.1	0	1					14.0	79.8
2022-10-31T18:37	10	0	0.1	0	1					13.9	80.7
2022-10-31T18:38	10	1	0.1	0	1					13.6	81.3
2022-10-31T18:39	10	1	0.0	0	1					13.4	83.3
2022-10-31T18:40	10	0	0.1	0	1					13.5	82.9
2022-10-31T18:41	10	0	0.1	0	1					13.6	81.9
2022-10-31T18:42	10	0	0.1	0	1					13.4	83.0
2022-10-31T18:43	10	0	0.1	0	1					13.8	82.6
2022-10-31T18:44	10	0	0.1	0	1					13.9	81.1
2022-10-31T18:45	10	0	0.1	0	1					14.2	80.4
2022-10-31T18:46	10	1	0.1	0	1					14.4	78.9
2022-10-31T18:47	10	1	0.1	0	1					14.4	78.7
2022-10-31T18:48	10	1	0.1	1	1					14.4	78.6
2022-10-31T18:49	10	1	0.1	1	1					14.4	78.3
2022-10-31T18:50	10	1	0.1	1	1					13.8	79.8
2022-10-31T18:51	10	1	0.1	0	1					13.6	82.0
2022-10-31T18:52	10	1	0.1	0	1					13.9	82.0
2022-10-31T18:53	10	1	0.1	0	1					14.3	79.8
2022-10-31T18:54	10	1	0.1	0	1					14.3	78.8
2022-10-31T18:55	10	1	0.1	1	1					13.6	80.4
2022-10-31T18:56	10	1	0.1	0	1					13.4	82.4
2022-10-31T18:57	10	1	0.1	0	1					13.5	82.8
2022-10-31T18:58	10	1	0.1	0	1					13.4	82.5
2022-10-31T18:59	10	0	0.1	0	1					13.3	83.1
2022-10-31T19:00	10	0	0.1	0	1					13.3	83.4
2022-10-31T19:01	10	0	0.1	0	1					13.1	83.7
2022-10-31T19:02	10	0	0.1	0	1					12.7	84.7
2022-10-31T19:03	10	0	0.1	0	1					12.4	86.6
2022-10-31T19:04	10	0	0.1	0	1					12.3	87.7
2022-10-31T19:05	10	0	0.1	0	0					12.3	88.2
2022-10-31T19:06	10	0	0.1	0	0					12.3	88.9
2022-10-31T19:07	10	0	0.1	0	0					12.4	89.0
2022-10-31T19:08	10	0	0.1	0	0					12.4	89.1
2022-10-31T19:09	10	0	0.1	0	0					12.5	89.0
2022-10-31T19:10	10	0	0.1	0	0					12.5	88.8
2022-10-31T19:11	10	0	0.1	0	0					12.7	88.6
2022-10-31T19:12	10	0	0.1	0	0					12.9	87.8
2022-10-31T19:13	10	0	0.1	0	0					13.0	86.9
2022-10-31T19:14	10	0	0.1	0	0					13.2	86.0
2022-10-31T19:15	10	0	0.1	0	0					13.3	85.1
2022-10-31T19:16	10	0	0.1	0	0					13.3	84.7
2022-10-31T19:17	10	0	0.1	0	0					13.4	84.6
2022-10-31T19:18	10	0	0.1	0	1					13.4	84.2
2022-10-31T19:19	10	0	0.1	0	1					13.2	84.5
2022-10-31T19:20	10	1	0.1	0	1					13.0	85.5
2022-10-31T19:21	10	0	0.1	0	1					12.9	85.9
2022-10-31T19:22	10	0	0.1	0	1					13.0	85.9
2022-10-31T19:23	10	0	0.1	0	1					13.3	85.1
2022-10-31T19:24	10	0	0.1	0	1					13.4	84.0
2022-10-31T19:25	10	1	0.1	0	1					13.4	83.5
2022-10-31T19:26	10	1	0.0	0	1					13.3	83.8
2022-10-31T19:27	10	1	0.1	0	1					13.3	83.9
2022-10-31T19:28	10	1	0.1	0	1					13.4	83.6
2022-10-31T19:29	10	1	0.1	0	1					13.5	83.1
2022-10-31T19:30	10	1	0.1	0	1					13.5	83.0
2022-10-31T19:31	10	1	0.1	0	1					13.3	83.4
2022-10-31T19:32	10	1	0.1	0	1					13.2	84.1
2022-10-31T19:33	10	1	0.1	0	1					13.1	84.4
2022-10-31T19:34	10	1	0.1	0	1					13.0	84.7
2022-10-31T19:35	10	1	0.1	0	1					13.1	85.0
2022-10-31T19:36	10	0	0.1	0	1					13.0	84.9
2022-10-31T19:37	10	0	0.1	0	1					12.8	85.6
2022-10-31T19:38	10	0	0.1	0	1					12.8	86.1
2022-10-31T19:39	10	0	0.1	0	0					12.9	86.4
2022-10-31T19:40	10	0	0.1	0	0					12.9	86.3
2022-10-31T19:41	10	0	0.1	0	0					12.7	86.7
2022-10-31T19:42	10	0	0.1	0	1					12.9	86.8
2022-10-31T19:43	10	0	0.1	0	0					12.8	86.1
2022-10-31T19:44	10	0	0.1	0	1					12.6	86.7
2022-10-31T19:45	10	0	0.1	0	1					12.5	87.4
2022-10-31T19:46	10	1	0.1	0	1					12.4	87.7
2022-10-31T19:47	10	0	0.1	0	1					12.1	88.8
2022-10-31T19:48	10	0	0.1	0	1					12.1	89.8
2022-10-31T19:49	10	0	0.1	0	0					12.0	89.4
2022-10-31T19:50	10	0	0.1	0	0					11.5	89.5
2022-10-31T19:51	10	0	0.1	0	0					11.4	90.4
2022-10-31T19:52	10	0	0.1	0	0					11.3	91.0
2022-10-31T19:53	10	0	0.1	0	0					11.3	91.6
2022-10-31T19:54	10	0	0.1	0	0					11.3	92.2
2022-10-31T19:55	10	0	0.1	0	0					11.4	92.4
2022-10-31T19:56	10	0	0.1	0	0					11.5	92.9
2022-10-31T19:57	10	0	0.1	0	0					11.7	93.1
2022-10-31T19:58	10	0	0.1	0	0					11.6	92.8
2022-10-31T19:59	10	0	0.1	0	0					11.5	92.9
2022-10-31T20:00	10	0	0.1	0	0					11.3	93.2
2022-10-31T20:01	10	0	0.1	0	0					11.3	93.8
2022-10-31T20:02	10	0	0.1	-1	0					11.3	94.1
2022-10-31T20:03	10	0	0.1	-1	0					11.3	94.3
2022-10-31T20:04	10	0	0.1	-1	0					11.3	94.5
2022-10-31T20:05	10	-1	0.1	-1	0					11.1	94.5
2022-10-31T20:06	10	-1	0.1	-1	0					11.0	94.6
2022-10-31T20:07	10	-1	0.1	-1	0					10.9	94.8
2022-10-31T20:08	10	-1	0.1	-1	-1					10.9	94.9
2022-10-31T20:09	10	-1	0.1	-1	-1					10.9	95.0
2022-10-31T20:10	10	-1	0.1	-1	-1					10.9	95.0
2022-10-31T20:11	10	-1	0.1	-1	-1					10.9	95.0
2022-10-31T20:12	10	-1	0.1	-1	-1					10.8	94.9
2022-10-31T20:13	10	-1	0.2	-1	0					10.7	94.8
2022-10-31T20:14	10	0	0.1	-1	0					10.7	95.1
2022-10-31T20:15	10	0	0.1	-1	0					10.7	95.2
2022-10-31T20:16	10	0	0.1	-1	0					10.8	95.3
2022-10-31T20:17	10	0	0.1	0	0					11.1	95.5
2022-10-31T20:18	10	0	0.2	-1	0					11.1	95.3
2022-10-31T20:19	10	0	0.1	0	0					11.1	95.1
2022-10-31T20:20	10	0	0.1	0	0					11.1	94.9
2022-10-31T20:21	10	0	0.1	0	0					11.1	94.6
2022-10-31T20:22	10	0	0.2	0	1					11.1	94.6
2022-10-31T20:23	10	0	0.1	0	0					11.1	94.5
2022-10-31T20:24	10	0	0.1	0	0					11.1	94.5
2022-10-31T20:25	10	0	0.2	0	0					11.3	94.5
2022-10-31T20:26	10	0	0.1	0	0					11.4	94.2
2022-10-31T20:27	10	0	0.1	0	0					11.4	93.9
2022-10-31T20:28	10	0	0.1	0	0					11.6	93.6
2022-10-31T20:29	10	0	0.1	0	0					11.7	93.1
2022-10-31T20:30	10	0	0.1	0	0					11.7	92.7
2022-10-31T20:31	10	0	0.1	-1	0					11.6	92.7
2022-10-31T20:32	10	0	0.1	-1	0					11.7	92.8
2022-10-31T20:33	10	0	0.1	-1	0					11.6	92.4
2022-10-31T20:34	10	0	0.1	-1	0					11.5	92.7
2022-10-31T20:35	10	0	0.1	-1	0					11.5	92.9
2022-10-31T20:36	10	-1	0.1	-1	0					11.4	92.9
2022-10-31T20:37	10	-1	0.1	-1	0					11.3	93.0
2022-10-31T20:38	10	0	0.1	-1	0					11.2	93.3
2022-10-31T20:39	10	-1	0.1	-1	0					11.3	93.7
2022-10-31T20:40	10	0	0.1	-1	0					11.4	93.7
2022-10-31T20:41	10	0	0.1	-1	0					11.3	93.6
2022-10-31T20:42	10	0	0.1	-1	0					11.3	93.6
2022-10-31T20:43	10	0	0.1	-1	0					11.3	93.6
2022-10-31T20:44	10	0	0.0	0	0					11.4	93.8
2022-10-31T20:45	10	0	0.1	-1	0					11.4	93.7
2022-10-31T20:46	10	0	0.1	0	0					11.5	93.7
2022-10-31T20:47	10	0	0.1	0	0					11.5	93.4
2022-10-31T20:48	10	0	0.1	0	0					11.5	93.4
2022-10-31T20:49	10	0	0.1	0	0					11.5	93.3
2022-10-31T20:50	10	0	0.1	0	0					11.5	93.2
2022-10-31T20:51	10	0	0.1	0	0					11.6	93.1
2022-10-31T20:52	10	0	0.1	0	0					11.6	92.9
2022-10-31T20:53	10	0	0.1	0	0					11.4	92.8
2022-10-31T20:54	10	0	0.1	0	0					11.4	93.0
2022-10-31T20:55	10	0	0.1	0	0					11.3	92.9
2022-10-31T20:56	10	0	0.1	0	0					11.2	93.1
2022-10-31T20:57	10	0	0.1	0	0					11.1	93.5
2022-10-31T20:58	10	0	0.1	0	0					11.2	93.8
2022-10-31T20:59	10	0	0.1	0	0					11.1	93.9
2022-10-31T21:00	10	-1	0.1	-1	0					11.1	94.0
2022-10-31T21:01	10	-1	0.1	-1	-1					11.4	94.2
2022-10-31T21:02	10	-1	0.1	-1	-1					11.5	94.2
2022-10-31T21:03	10	-1	0.1	-1	-1					11.7	94.1
2022-10-31T21:04	10	-1	0.1	-1	-1					11.5	93.8
2022-10-31T21:05	10	-1	0.1	-1	-1					11.4	93.8
2022-10-31T21:06	10	-1	0.1	-1	-1					11.3	93.8
2022-10-31T21:07	10	-1	0.1	-1	-1					11.2	94.1
2022-10-31T21:08	10	-1	0.1	-1	-1					11.1	94.4
2022-10-31T21:09	10	-1	0.1	-1	-1					10.9	94.5
2022-10-31T21:10	10	-1	0.1	-1	-1					11.0	94.9
2022-10-31T21:11	10	-1	0.1	-1	-1					11.0	94.9
2022-10-31T21:12	10	-1	0.1	-1	-1					10.9	94.9
2022-10-31T21:13	10	-1	0.1	-1	-1					11.0	95.3
2022-10-31T21:14	10	-1	0.1	-1	0					10.9	95.2
2022-10-31T21:15	10	0	0.1	-1	0					11.0	95.4
2022-10-31T21:16	10	-1	0.1	-1	0					11.1	95.5
2022-10-31T21:17	10	-1	0.1	-1	-1					11.3	95.6
2022-10-31T21:18	10	-1	0.1	-1	0					11.2	95.3
2022-10-31T21:19	10	-1	0.1	-1	0					11.2	95.2
2022-10-31T21:20	10	-1	0.1	-1	0					11.1	95.0
2022-10-31T21:21	10	-1	0.1	-1	-1					10.9	94.9
2022-10-31T21:22	10	-1	0.1	-1	0					10.8	95.2
2022-10-31T21:23	10	-1	0.1	-1	0					10.8	95.4
2022-10-31T21:24	10	-1	0.1	-1	-1					10.8	95.5
2022-10-31T21:25	10	-1	0.1	-1	-1					10.9	95.7
2022-10-31T21:26	10	-1	0.1	-1	-1					11.0	95.6
2022-10-31T21:27	10	-1	0.1	-1	-1					11.0	95.5
2022-10-31T21:28	10	-1	0.1	-1	-1					11.1	95.6
2022-10-31T21:29	10	-1	0.1	-1	-1					11.2	95.5
2022-10-31T21:30	10	-1	0.1	-1	-1					11.3	95.3
2022-10-31T21:31	10	-1	0.1	-1	-1					11.3	95.1
2022-10-31T21:32	10	-1	0.1	-1	-1					11.4	94.8
2022-10-31T21:33	10	-1	0.1	-1	-1					11.3	94.6
2022-10-31T21:34	10	-1	0.1	-1	-1					11.0	94.3
2022-10-31T21:35	10	-1	0.1	-1	-1					11.0	94.6
2022-10-31T21:36	10	-1	0.1	-1	-1					11.2	95.0
2022-10-31T21:37	10	-1	0.1	-1	-1					11.3	94.7
2022-10-31T21:38	10	-1	0.1	-1	-1					11.4	94.5
2022-10-31T21:39	10	-1	0.1	-1	0					11.4	94.1
2022-10-31T21:40	10	-1	0.1	-1	0					11.3	94.0
2022-10-31T21:41	10	-1	0.1	-1	0					11.4	94.0
2022-10-31T21:42	10	-1	0.1	-1	0					11.4	93.7
2022-10-31T21:43	10	0	0.1	-1	0					11.6	93.7
2022-10-31T21:44	10	0	0.1	-1	0					11.6	93.2
2022-10-31T21:45	10	0	0.1	0	0					11.6	93.1
2022-10-31T21:46	10	0	0.1	0	0					11.6	93.1
2022-10-31T21:47	10	0	0.1	0	0					11.5	93.0
2022-10-31T21:48	10	0	0.1	0	0					11.4	93.1
2022-10-31T21:49	10	0	0.1	0	0					11.3	93.1
2022-10-31T21:50	10	0	0.1	0	0					11.1	93.0
2022-10-31T21:51	10	0	0.1	0	0					10.9	93.2
2022-10-31T21:52	10	0	0.1	0	0					10.8	93.6
2022-10-31T21:53	10	0	0.1	-1	0					10.8	94.1
2022-10-31T21:54	10	0	0.1	-1	0					10.8	94.4
2022-10-31T21:55	10	0	0.1	-1	0					10.8	94.7
2022-10-31T21:56	10	0	0.1	-1	0					10.9	95.1
2022-10-31T21:57	10	0	0.1	-1	0					10.9	95.2
2022-10-31T21:58	10	0	0.1	0	0					10.7	95.2
2022-10-31T21:59	10	0	0.1	0	0					10.8	95.6
2022-10-31T22:00	10	0	0.1	0	0					10.8	95.7
2022-10-31T22:01	10	0	0.1	0	0					10.9	95.8
2022-10-31T22:02	10	0	0.1	-1	0					10.8	95.9
2022-10-31T22:03	10	0	0.1	-1	0					10.8	95.9
2022-10-31T22:04	10	0	0.1	-1	0					10.9	95.9
2022-10-31T22:05	10	0	0.1	-1	0					11.3	96.1
2022-10-31T22:06	10	0	0.1	0	0					11.3	95.3
2022-10-31T22:07	10	0	0.1	0	0					11.2	95.0
2022-10-31T22:08	10	0	0.1	0	0					11.2	94.9
2022-10-31T22:09	10	0	0.1	0	0					11.2	94.8
2022-10-31T22:10	10	0	0.1	0	0					11.4	94.8
2022-10-31T22:11	10	0	0.1	0	0					11.5	94.7
2022-10-31T22:12	10	0	0.1	0	0					11.6	94.2
2022-10-31T22:13	10	0	0.1	0	0					11.5	93.8
2022-10-31T22:14	10	0	0.1	0	0					11.0	93.3
2022-10-31T22:15	10	0	0.1	-1	0					10.6	93.5
2022-10-31T22:16	10	-1	0.1	-1	0					10.4	93.9
2022-10-31T22:17	10	-1	0.2	-2	-1					10.0	94.2
2022-10-31T22:18	10	-2	0.1	-2	-1					9.8	94.5
2022-10-31T22:19	10	-2	0.1	-2	-2					9.8	95.0
2022-10-31T22:20	10	-2	0.1	-2	-2					9.8	95.4
2022-10-31T22:21	10	-2	0.1	-2	-2					10.0	95.8
2022-10-31T22:22	10	-2	0.2	-2	-1					10.0	96.2
2022-10-31T22:23	10	-2	0.1	-2	-1					9.9	96.5
2022-10-31T22:24	10	-1	0.1	-2	-1					9.9	96.8
2022-10-31T22:25	10	-1	0.1	-1	-1					10.0	97.2
2022-10-31T22:26	10	-1	0.1	-1	-1					10.1	97.5
2022-10-31T22:27	10	-1	0.1	-1	0					10.2	97.6
2022-10-31T22:28	10	-1	0.1	-1	0					10.3	97.7
2022-10-31T22:29	10	0	0.1	-1	0					10.3	97.6
2022-10-31T22:30	10	0	0.1	0	0					10.3	97.6
2022-10-31T22:31	10	0	0.1	0	0					10.3	97.6
2022-10-31T22:32	10	0	0.1	0	0					10.4	97.7
2022-10-31T22:33	10	0	0.1	0	0					10.5	97.7
2022-10-31T22:34	10	0	0.1	0	0					10.5	97.6
2022-10-31T22:35	10	0	0.1	0	0					10.5	97.5
2022-10-31T22:36	10	0	0.1	0	0					10.6	97.4
2022-10-31T22:37	10	0	0.1	0	0					10.5	97.2
2022-10-31T22:38	10	0	0.1	0	0					10.4	97.0
2022-10-31T22:39	10	0	0.1	0	0					10.5	96.9
2022-10-31T22:40	10	0	0.1	-1	0					10.6	97.0
2022-10-31T22:41	10	-1	0.1	-1	0					10.7	97.0
2022-10-31T22:42	10	-1	0.1	-1	-1					10.8	96.8
2022-10-31T22:43	10	-1	0.1	-1	-1					10.7	96.6
2022-10-31T22:44	10	-1	0.1	-2	-1					10.8	96.5
2022-10-31T22:45	10	-2	0.1	-2	-1					10.8	96.4
2022-10-31T22:46	10	-2	0.1	-2	-2					10.8	96.2
2022-10-31T22:47	10	-2	0.1	-2	-2					10.9	96.1
2022-10-31T22:48	10	-2	0.1	-2	-2					10.9	95.9
2022-10-31T22:49	10	-2	0.1	-2	-1					10.9	95.8
2022-10-31T22:50	10	-2	0.1	-2	-1					11.0	95.5
2022-10-31T22:51	10	-2	0.1	-2	-1					11.0	95.3
2022-10-31T22:52	10	-2	0.1	-2	-1					11.1	95.1
2022-10-31T22:53	10	-2	0.1	-2	-1					11.2	94.7
2022-10-31T22:54	10	-1	0.1	-2	-1					11.3	94.3
2022-10-31T22:55	10	-2	0.1	-2	-1					11.3	94.0
2022-10-31T22:56	10	-2	0.1	-2	-1					11.3	93.7
2022-10-31T22:57	10	-2	0.1	-2	-1					11.4	93.6
2022-10-31T22:58	10	-1	0.1	-2	-1					11.4	93.3
2022-10-31T22:59	10	-1	0.1	-2	-1					11.3	93.0
2022-10-31T23:00	10	-1	0.1	-2	-1					11.3	93.1
2022-10-31T23:01	10	-2	0.1	-2	-1					11.3	93.2
2022-10-31T23:02	10	-2	0.1	-2	-1					11.4	93.2
2022-10-31T23:03	10	-1	0.1	-2	-1					11.5	92.9
2022-10-31T23:04	10	-1	0.1	-2	-1					11.6	92.7
2022-10-31T23:05	10	-1	0.1	-1	-1					11.6	92.5
2022-10-31T23:06	10	-1	0.1	-1	-1					11.6	92.5
2022-10-31T23:07	10	-1	0.1	-1	-1					11.6	92.3
2022-10-31T23:08	10	-1	0.1	-1	-1					11.7	92.3
2022-10-31T23:09	10	-1	0.1	-1	-1					11.7	92.1
2022-10-31T23:10	10	-1	0.1	-1	-1					11.6	92.1
2022-10-31T23:11	10	-1	0.1	-1	-1					11.7	92.1
2022-10-31T23:12	10	-1	0.1	-1	-1					11.7	91.7
2022-10-31T23:13	10	-1	0.1	-1	-1					11.8	91.6
2022-10-31T23:14	10	-1	0.1	-1	-1					11.9	91.2
2022-10-31T23:15	10	-1	0.1	-1	-1					11.9	90.9
2022-10-31T23:16	10	-1	0.1	-1	-1					11.9	90.8
2022-10-31T23:17	10	-1	0.1	-1	-1					12.0	90.4
2022-10-31T23:18	10	-1	0.1	-1	-1					11.9	90.2
2022-10-31T23:19	10	-1	0.1	-1	0					11.8	90.4
2022-10-31T23:20	10	-1	0.1	-1	-1					11.8	90.5
2022-10-31T23:21	10	-1	0.1	-1	-1					11.8	90.6
2022-10-31T23:22	10	-1	0.1	-1	-1					11.7	90.6
2022-10-31T23:23	10	-1	0.1	-1	-1					11.6	90.9
2022-10-31T23:24	10	-1	0.1	-1	-1					11.4	91.2
2022-10-31T23:25	10	-1	0.1	-1	-1					11.4	91.7
2022-10-31T23:26	10	-1	0.1	-1	-1					11.6	91.9
2022-10-31T23:27	10	-1	0.1	-1	-1					11.6	91.4
2022-10-31T23:28	10	-1	0.1	-1	-1					11.7	91.4
2022-10-31T23:29	10	-1	0.1	-1	-1					11.8	91.2
2022-10-31T23:30	10	-1	0.1	-1	0					11.7	91.0
2022-10-31T23:31	10	0	0.1	-1	0					11.6	91.2
2022-10-31T23:32	10	0	0.1	0	0					11.6	91.3
2022-10-31T23:33	10	0	0.1	0	0					11.5	91.6
2022-10-31T23:34	10	0	0.1	-1	0					11.6	92.0
2022-10-31T23:35	10	0	0.1	0	0					11.4	92.0
2022-10-31T23:36	10	0	0.1	0	0					11.3	92.5
2022-10-31T23:37	10	0	0.1	0	0					11.1	92.9
2022-10-31T23:38	10	0	0.1	-1	0					11.0	93.3
2022-10-31T23:39	10	0	0.1	-1	0					11.0	93.7
2022-10-31T23:40	10	0	0.1	-1	0					11.0	94.1
2022-10-31T23:41	10	0	0.1	-1	0					11.0	94.4
2022-10-31T23:42	10	0	0.1	0	0					11.0	94.6
2022-10-31T23:43	10	0	0.1	-1	0					11.1	94.8
2022-10-31T23:44	10	0	0.1	-1	0					11.1	94.6
2022-10-31T23:45	10	0	0.1	-1	0					11.1	94.4
2022-10-31T23:46	10	0	0.1	0	0					11.0	94.5
2022-10-31T23:47	10	0	0.1	-1	0					10.9	94.7
2022-10-31T23:48	10	0	0.1	0	0					10.9	94.9
2022-10-31T23:49	10	0	0.1	0	0					10.9	95.1
2022-10-31T23:50	10	0	0.1	0	0					11.0	95.3
2022-10-31T23:51	10	0	0.1	-1	0					11.0	95.3
2022-10-31T23:52	10	-1	0.1	-1	0					11.0	95.3
2022-10-31T23:53	10	-1	0.1	-1	-1					11.1	95.5
2022-10-31T23:54	10	-1	0.1	-1	-1					11.4	95.5
2022-10-31T23:55	10	-1	0.1	-1	-1					11.5	95.1
2022-10-31T23:56	10	-1	0.1	-1	-1					11.4	94.6
2022-10-31T23:57	10	-1	0.1	-1	0					11.4	94.5
2022-10-31T23:58	10	-1	0.1	-1	0					11.6	94.2
2022-10-31T23:59	10	0	0.1	-1	0					11.4	93.8
